<?xml version="1.0" encoding="UTF-8" standalone="no" ?>
<gpx xmlns="http://www.topografix.com/GPX/1/1" xmlns:xsi="http://www.w3.org/2001/XMLSchema-instance" xsi:schemaLocation="http://www.topografix.com/GPX/1/1 http://www.topografix.com/GPX/1/1/gpx.xsd" version="1.1" creator="VisuGPX - https://www.visugpx.com">
  <metadata>
    <name>voyage total </name>
  </metadata>
  <trk>
    <name><![CDATA[T26]]></name>
    <trkseg>
      <trkpt lat="48.70797" lon="5.44404">
        <ele>330.1</ele>
        <time>2020-06-30T07:07:13Z</time>
      </trkpt>
      <trkpt lat="48.70795" lon="5.44405">
        <ele>330.1</ele>
        <time>2020-06-30T07:07:14Z</time>
      </trkpt>
      <trkpt lat="48.70795" lon="5.44405">
        <ele>330.1</ele>
        <time>2020-06-30T07:07:15Z</time>
      </trkpt>
      <trkpt lat="48.70796" lon="5.44405">
        <ele>330.2</ele>
        <time>2020-06-30T07:07:16Z</time>
      </trkpt>
      <trkpt lat="48.70796" lon="5.44405">
        <ele>330.2</ele>
        <time>2020-06-30T07:07:17Z</time>
      </trkpt>
      <trkpt lat="48.70797" lon="5.44405">
        <ele>330.2</ele>
        <time>2020-06-30T07:07:19Z</time>
      </trkpt>
      <trkpt lat="48.70796" lon="5.44406">
        <ele>330.2</ele>
        <time>2020-06-30T07:07:20Z</time>
      </trkpt>
      <trkpt lat="48.70797" lon="5.44404">
        <ele>330.3</ele>
        <time>2020-06-30T07:07:21Z</time>
      </trkpt>
      <trkpt lat="48.70797" lon="5.444">
        <ele>330.4</ele>
        <time>2020-06-30T07:07:22Z</time>
      </trkpt>
      <trkpt lat="48.70797" lon="5.44398">
        <ele>330.4</ele>
        <time>2020-06-30T07:07:23Z</time>
      </trkpt>
      <trkpt lat="48.70794" lon="5.44414">
        <ele>330.9</ele>
        <time>2020-06-30T07:07:46Z</time>
      </trkpt>
      <trkpt lat="48.70793" lon="5.44418">
        <ele>331</ele>
        <time>2020-06-30T07:07:47Z</time>
      </trkpt>
      <trkpt lat="48.70791" lon="5.44421">
        <ele>331.1</ele>
        <time>2020-06-30T07:07:48Z</time>
      </trkpt>
      <trkpt lat="48.70789" lon="5.44424">
        <ele>331.2</ele>
        <time>2020-06-30T07:07:49Z</time>
      </trkpt>
      <trkpt lat="48.70785" lon="5.44426">
        <ele>331.3</ele>
        <time>2020-06-30T07:07:50Z</time>
      </trkpt>
      <trkpt lat="48.70784" lon="5.44427">
        <ele>331.3</ele>
        <time>2020-06-30T07:07:51Z</time>
      </trkpt>
      <trkpt lat="48.70782" lon="5.4443">
        <ele>331.4</ele>
        <time>2020-06-30T07:07:52Z</time>
      </trkpt>
      <trkpt lat="48.70779" lon="5.44431">
        <ele>331.5</ele>
        <time>2020-06-30T07:07:53Z</time>
      </trkpt>
      <trkpt lat="48.70776" lon="5.44433">
        <ele>331.6</ele>
        <time>2020-06-30T07:07:54Z</time>
      </trkpt>
      <trkpt lat="48.70773" lon="5.44433">
        <ele>331.7</ele>
        <time>2020-06-30T07:07:55Z</time>
      </trkpt>
      <trkpt lat="48.70772" lon="5.44433">
        <ele>331.8</ele>
        <time>2020-06-30T07:07:56Z</time>
      </trkpt>
      <trkpt lat="48.70768" lon="5.44432">
        <ele>331.9</ele>
        <time>2020-06-30T07:07:57Z</time>
      </trkpt>
      <trkpt lat="48.70766" lon="5.44432">
        <ele>331.9</ele>
        <time>2020-06-30T07:07:58Z</time>
      </trkpt>
      <trkpt lat="48.70763" lon="5.44432">
        <ele>332.1</ele>
        <time>2020-06-30T07:07:59Z</time>
      </trkpt>
      <trkpt lat="48.70761" lon="5.44432">
        <ele>332.1</ele>
        <time>2020-06-30T07:08:00Z</time>
      </trkpt>
      <trkpt lat="48.70757" lon="5.44431">
        <ele>332.2</ele>
        <time>2020-06-30T07:08:01Z</time>
      </trkpt>
      <trkpt lat="48.70756" lon="5.4443">
        <ele>332.3</ele>
        <time>2020-06-30T07:08:02Z</time>
      </trkpt>
      <trkpt lat="48.70752" lon="5.4443">
        <ele>332.4</ele>
        <time>2020-06-30T07:08:03Z</time>
      </trkpt>
      <trkpt lat="48.70751" lon="5.44429">
        <ele>332.5</ele>
        <time>2020-06-30T07:08:04Z</time>
      </trkpt>
      <trkpt lat="48.70748" lon="5.4443">
        <ele>332.6</ele>
        <time>2020-06-30T07:08:05Z</time>
      </trkpt>
      <trkpt lat="48.70747" lon="5.44431">
        <ele>332.6</ele>
        <time>2020-06-30T07:08:06Z</time>
      </trkpt>
      <trkpt lat="48.70745" lon="5.44432">
        <ele>332.7</ele>
        <time>2020-06-30T07:08:07Z</time>
      </trkpt>
      <trkpt lat="48.70744" lon="5.44433">
        <ele>332.7</ele>
        <time>2020-06-30T07:08:08Z</time>
      </trkpt>
      <trkpt lat="48.70743" lon="5.44433">
        <ele>332.7</ele>
        <time>2020-06-30T07:08:09Z</time>
      </trkpt>
      <trkpt lat="48.70742" lon="5.44434">
        <ele>332.8</ele>
        <time>2020-06-30T07:08:10Z</time>
      </trkpt>
      <trkpt lat="48.70742" lon="5.44434">
        <ele>332.8</ele>
        <time>2020-06-30T07:08:11Z</time>
      </trkpt>
      <trkpt lat="48.70741" lon="5.44434">
        <ele>332.8</ele>
        <time>2020-06-30T07:08:12Z</time>
      </trkpt>
      <trkpt lat="48.70741" lon="5.44434">
        <ele>332.8</ele>
        <time>2020-06-30T07:08:13Z</time>
      </trkpt>
      <trkpt lat="48.70741" lon="5.44434">
        <ele>332.8</ele>
        <time>2020-06-30T07:08:14Z</time>
      </trkpt>
      <trkpt lat="48.70741" lon="5.44434">
        <ele>332.8</ele>
        <time>2020-06-30T07:08:15Z</time>
      </trkpt>
      <trkpt lat="48.70741" lon="5.44434">
        <ele>332.8</ele>
        <time>2020-06-30T07:08:16Z</time>
      </trkpt>
      <trkpt lat="48.70741" lon="5.44434">
        <ele>332.9</ele>
        <time>2020-06-30T07:08:17Z</time>
      </trkpt>
      <trkpt lat="48.70741" lon="5.44434">
        <ele>332.9</ele>
        <time>2020-06-30T07:08:18Z</time>
      </trkpt>
      <trkpt lat="48.70741" lon="5.44434">
        <ele>332.9</ele>
        <time>2020-06-30T07:08:19Z</time>
      </trkpt>
      <trkpt lat="48.70741" lon="5.44434">
        <ele>332.9</ele>
        <time>2020-06-30T07:08:20Z</time>
      </trkpt>
      <trkpt lat="48.70741" lon="5.44434">
        <ele>332.9</ele>
        <time>2020-06-30T07:08:21Z</time>
      </trkpt>
      <trkpt lat="48.70741" lon="5.44434">
        <ele>332.9</ele>
        <time>2020-06-30T07:08:22Z</time>
      </trkpt>
      <trkpt lat="48.70741" lon="5.44434">
        <ele>332.9</ele>
        <time>2020-06-30T07:08:23Z</time>
      </trkpt>
      <trkpt lat="48.70737" lon="5.44431">
        <ele>333</ele>
        <time>2020-06-30T07:08:32Z</time>
      </trkpt>
      <trkpt lat="48.70735" lon="5.4443">
        <ele>333.1</ele>
        <time>2020-06-30T07:08:33Z</time>
      </trkpt>
      <trkpt lat="48.70732" lon="5.44427">
        <ele>333.2</ele>
        <time>2020-06-30T07:08:34Z</time>
      </trkpt>
      <trkpt lat="48.70732" lon="5.44426">
        <ele>333.2</ele>
        <time>2020-06-30T07:08:35Z</time>
      </trkpt>
      <trkpt lat="48.70729" lon="5.44423">
        <ele>333.3</ele>
        <time>2020-06-30T07:08:36Z</time>
      </trkpt>
      <trkpt lat="48.70728" lon="5.44423">
        <ele>333.4</ele>
        <time>2020-06-30T07:08:37Z</time>
      </trkpt>
      <trkpt lat="48.70724" lon="5.4442">
        <ele>333.5</ele>
        <time>2020-06-30T07:08:38Z</time>
      </trkpt>
      <trkpt lat="48.70723" lon="5.44419">
        <ele>333.5</ele>
        <time>2020-06-30T07:08:39Z</time>
      </trkpt>
      <trkpt lat="48.7072" lon="5.44417">
        <ele>333.6</ele>
        <time>2020-06-30T07:08:40Z</time>
      </trkpt>
      <trkpt lat="48.70717" lon="5.44414">
        <ele>333.8</ele>
        <time>2020-06-30T07:08:41Z</time>
      </trkpt>
      <trkpt lat="48.70714" lon="5.44412">
        <ele>333.9</ele>
        <time>2020-06-30T07:08:42Z</time>
      </trkpt>
      <trkpt lat="48.70711" lon="5.44411">
        <ele>334</ele>
        <time>2020-06-30T07:08:43Z</time>
      </trkpt>
      <trkpt lat="48.70708" lon="5.44409">
        <ele>334.1</ele>
        <time>2020-06-30T07:08:44Z</time>
      </trkpt>
      <trkpt lat="48.70705" lon="5.44407">
        <ele>334.2</ele>
        <time>2020-06-30T07:08:45Z</time>
      </trkpt>
      <trkpt lat="48.70702" lon="5.44404">
        <ele>334.2</ele>
        <time>2020-06-30T07:08:46Z</time>
      </trkpt>
      <trkpt lat="48.70699" lon="5.44402">
        <ele>334.3</ele>
        <time>2020-06-30T07:08:47Z</time>
      </trkpt>
      <trkpt lat="48.70696" lon="5.444">
        <ele>334.4</ele>
        <time>2020-06-30T07:08:48Z</time>
      </trkpt>
      <trkpt lat="48.70693" lon="5.44399">
        <ele>334.5</ele>
        <time>2020-06-30T07:08:49Z</time>
      </trkpt>
      <trkpt lat="48.70691" lon="5.44397">
        <ele>334.5</ele>
        <time>2020-06-30T07:08:50Z</time>
      </trkpt>
      <trkpt lat="48.70688" lon="5.44395">
        <ele>334.6</ele>
        <time>2020-06-30T07:08:51Z</time>
      </trkpt>
      <trkpt lat="48.70685" lon="5.44393">
        <ele>334.8</ele>
        <time>2020-06-30T07:08:52Z</time>
      </trkpt>
      <trkpt lat="48.70682" lon="5.44391">
        <ele>334.9</ele>
        <time>2020-06-30T07:08:53Z</time>
      </trkpt>
      <trkpt lat="48.70679" lon="5.44389">
        <ele>335</ele>
        <time>2020-06-30T07:08:54Z</time>
      </trkpt>
      <trkpt lat="48.70676" lon="5.44387">
        <ele>335.1</ele>
        <time>2020-06-30T07:08:55Z</time>
      </trkpt>
      <trkpt lat="48.70672" lon="5.44384">
        <ele>335.3</ele>
        <time>2020-06-30T07:08:56Z</time>
      </trkpt>
      <trkpt lat="48.70668" lon="5.44382">
        <ele>335.5</ele>
        <time>2020-06-30T07:08:57Z</time>
      </trkpt>
      <trkpt lat="48.70665" lon="5.44379">
        <ele>335.6</ele>
        <time>2020-06-30T07:08:58Z</time>
      </trkpt>
      <trkpt lat="48.70662" lon="5.44376">
        <ele>335.8</ele>
        <time>2020-06-30T07:08:59Z</time>
      </trkpt>
      <trkpt lat="48.70659" lon="5.44373">
        <ele>335.9</ele>
        <time>2020-06-30T07:09:00Z</time>
      </trkpt>
      <trkpt lat="48.70656" lon="5.4437">
        <ele>336</ele>
        <time>2020-06-30T07:09:01Z</time>
      </trkpt>
      <trkpt lat="48.70653" lon="5.44368">
        <ele>336.2</ele>
        <time>2020-06-30T07:09:02Z</time>
      </trkpt>
      <trkpt lat="48.70651" lon="5.44364">
        <ele>336.3</ele>
        <time>2020-06-30T07:09:03Z</time>
      </trkpt>
      <trkpt lat="48.70648" lon="5.44363">
        <ele>336.4</ele>
        <time>2020-06-30T07:09:04Z</time>
      </trkpt>
      <trkpt lat="48.70645" lon="5.4436">
        <ele>336.5</ele>
        <time>2020-06-30T07:09:05Z</time>
      </trkpt>
      <trkpt lat="48.70642" lon="5.44358">
        <ele>336.6</ele>
        <time>2020-06-30T07:09:06Z</time>
      </trkpt>
      <trkpt lat="48.70639" lon="5.44355">
        <ele>336.8</ele>
        <time>2020-06-30T07:09:07Z</time>
      </trkpt>
      <trkpt lat="48.70638" lon="5.44354">
        <ele>336.9</ele>
        <time>2020-06-30T07:09:08Z</time>
      </trkpt>
      <trkpt lat="48.70635" lon="5.44352">
        <ele>337</ele>
        <time>2020-06-30T07:09:09Z</time>
      </trkpt>
      <trkpt lat="48.70632" lon="5.4435">
        <ele>337.2</ele>
        <time>2020-06-30T07:09:10Z</time>
      </trkpt>
      <trkpt lat="48.70629" lon="5.44347">
        <ele>337.4</ele>
        <time>2020-06-30T07:09:11Z</time>
      </trkpt>
      <trkpt lat="48.70628" lon="5.44346">
        <ele>337.5</ele>
        <time>2020-06-30T07:09:12Z</time>
      </trkpt>
      <trkpt lat="48.70626" lon="5.44343">
        <ele>337.7</ele>
        <time>2020-06-30T07:09:13Z</time>
      </trkpt>
      <trkpt lat="48.70623" lon="5.4434">
        <ele>337.9</ele>
        <time>2020-06-30T07:09:14Z</time>
      </trkpt>
      <trkpt lat="48.70622" lon="5.44339">
        <ele>338</ele>
        <time>2020-06-30T07:09:15Z</time>
      </trkpt>
      <trkpt lat="48.70619" lon="5.44336">
        <ele>338.1</ele>
        <time>2020-06-30T07:09:16Z</time>
      </trkpt>
      <trkpt lat="48.70619" lon="5.44335">
        <ele>338.2</ele>
        <time>2020-06-30T07:09:17Z</time>
      </trkpt>
      <trkpt lat="48.70617" lon="5.44333">
        <ele>338.3</ele>
        <time>2020-06-30T07:09:18Z</time>
      </trkpt>
      <trkpt lat="48.70617" lon="5.44332">
        <ele>338.4</ele>
        <time>2020-06-30T07:09:19Z</time>
      </trkpt>
      <trkpt lat="48.70616" lon="5.44331">
        <ele>338.4</ele>
        <time>2020-06-30T07:09:20Z</time>
      </trkpt>
      <trkpt lat="48.70615" lon="5.44329">
        <ele>338.5</ele>
        <time>2020-06-30T07:09:21Z</time>
      </trkpt>
      <trkpt lat="48.70615" lon="5.44329">
        <ele>338.6</ele>
        <time>2020-06-30T07:09:22Z</time>
      </trkpt>
      <trkpt lat="48.70615" lon="5.44328">
        <ele>338.6</ele>
        <time>2020-06-30T07:09:23Z</time>
      </trkpt>
      <trkpt lat="48.70614" lon="5.44328">
        <ele>338.6</ele>
        <time>2020-06-30T07:09:24Z</time>
      </trkpt>
      <trkpt lat="48.70614" lon="5.44327">
        <ele>338.6</ele>
        <time>2020-06-30T07:09:25Z</time>
      </trkpt>
      <trkpt lat="48.70614" lon="5.44327">
        <ele>338.6</ele>
        <time>2020-06-30T07:09:26Z</time>
      </trkpt>
      <trkpt lat="48.70614" lon="5.44326">
        <ele>338.7</ele>
        <time>2020-06-30T07:09:27Z</time>
      </trkpt>
      <trkpt lat="48.70614" lon="5.44326">
        <ele>338.7</ele>
        <time>2020-06-30T07:09:28Z</time>
      </trkpt>
      <trkpt lat="48.70613" lon="5.44325">
        <ele>338.7</ele>
        <time>2020-06-30T07:09:29Z</time>
      </trkpt>
      <trkpt lat="48.70613" lon="5.44325">
        <ele>338.7</ele>
        <time>2020-06-30T07:09:30Z</time>
      </trkpt>
      <trkpt lat="48.70613" lon="5.44324">
        <ele>338.8</ele>
        <time>2020-06-30T07:09:31Z</time>
      </trkpt>
      <trkpt lat="48.70611" lon="5.4432">
        <ele>339.1</ele>
        <time>2020-06-30T07:09:32Z</time>
      </trkpt>
      <trkpt lat="48.7061" lon="5.44318">
        <ele>339.1</ele>
        <time>2020-06-30T07:09:33Z</time>
      </trkpt>
      <trkpt lat="48.70608" lon="5.44314">
        <ele>339.4</ele>
        <time>2020-06-30T07:09:34Z</time>
      </trkpt>
      <trkpt lat="48.70607" lon="5.44312">
        <ele>339.5</ele>
        <time>2020-06-30T07:09:35Z</time>
      </trkpt>
      <trkpt lat="48.70605" lon="5.44308">
        <ele>339.7</ele>
        <time>2020-06-30T07:09:36Z</time>
      </trkpt>
      <trkpt lat="48.70603" lon="5.44304">
        <ele>339.9</ele>
        <time>2020-06-30T07:09:37Z</time>
      </trkpt>
      <trkpt lat="48.70603" lon="5.44303">
        <ele>339.9</ele>
        <time>2020-06-30T07:09:38Z</time>
      </trkpt>
      <trkpt lat="48.70602" lon="5.44301">
        <ele>340</ele>
        <time>2020-06-30T07:09:39Z</time>
      </trkpt>
      <trkpt lat="48.70601" lon="5.44298">
        <ele>340.1</ele>
        <time>2020-06-30T07:09:40Z</time>
      </trkpt>
      <trkpt lat="48.706" lon="5.44296">
        <ele>340.2</ele>
        <time>2020-06-30T07:09:41Z</time>
      </trkpt>
      <trkpt lat="48.70599" lon="5.44295">
        <ele>340.3</ele>
        <time>2020-06-30T07:09:42Z</time>
      </trkpt>
      <trkpt lat="48.70598" lon="5.44292">
        <ele>340.4</ele>
        <time>2020-06-30T07:09:43Z</time>
      </trkpt>
      <trkpt lat="48.70597" lon="5.44291">
        <ele>340.5</ele>
        <time>2020-06-30T07:09:44Z</time>
      </trkpt>
      <trkpt lat="48.70595" lon="5.44287">
        <ele>340.7</ele>
        <time>2020-06-30T07:09:45Z</time>
      </trkpt>
      <trkpt lat="48.70595" lon="5.44286">
        <ele>340.8</ele>
        <time>2020-06-30T07:09:46Z</time>
      </trkpt>
      <trkpt lat="48.70594" lon="5.44282">
        <ele>340.9</ele>
        <time>2020-06-30T07:09:47Z</time>
      </trkpt>
      <trkpt lat="48.70593" lon="5.44281">
        <ele>341</ele>
        <time>2020-06-30T07:09:48Z</time>
      </trkpt>
      <trkpt lat="48.70592" lon="5.44277">
        <ele>341.2</ele>
        <time>2020-06-30T07:09:49Z</time>
      </trkpt>
      <trkpt lat="48.70592" lon="5.44275">
        <ele>341.2</ele>
        <time>2020-06-30T07:09:50Z</time>
      </trkpt>
      <trkpt lat="48.70591" lon="5.44271">
        <ele>341.4</ele>
        <time>2020-06-30T07:09:51Z</time>
      </trkpt>
      <trkpt lat="48.70591" lon="5.4427">
        <ele>341.5</ele>
        <time>2020-06-30T07:09:52Z</time>
      </trkpt>
      <trkpt lat="48.70589" lon="5.44265">
        <ele>341.7</ele>
        <time>2020-06-30T07:09:53Z</time>
      </trkpt>
      <trkpt lat="48.70589" lon="5.44264">
        <ele>341.8</ele>
        <time>2020-06-30T07:09:54Z</time>
      </trkpt>
      <trkpt lat="48.70588" lon="5.4426">
        <ele>341.9</ele>
        <time>2020-06-30T07:09:55Z</time>
      </trkpt>
      <trkpt lat="48.70587" lon="5.44256">
        <ele>342.1</ele>
        <time>2020-06-30T07:09:56Z</time>
      </trkpt>
      <trkpt lat="48.70587" lon="5.44255">
        <ele>342.2</ele>
        <time>2020-06-30T07:09:57Z</time>
      </trkpt>
      <trkpt lat="48.70585" lon="5.4425">
        <ele>342.4</ele>
        <time>2020-06-30T07:09:58Z</time>
      </trkpt>
      <trkpt lat="48.70585" lon="5.44245">
        <ele>342.7</ele>
        <time>2020-06-30T07:09:59Z</time>
      </trkpt>
      <trkpt lat="48.70584" lon="5.44243">
        <ele>342.8</ele>
        <time>2020-06-30T07:10:00Z</time>
      </trkpt>
      <trkpt lat="48.70584" lon="5.44238">
        <ele>343</ele>
        <time>2020-06-30T07:10:01Z</time>
      </trkpt>
      <trkpt lat="48.70584" lon="5.44236">
        <ele>343.1</ele>
        <time>2020-06-30T07:10:02Z</time>
      </trkpt>
      <trkpt lat="48.70584" lon="5.44231">
        <ele>343.3</ele>
        <time>2020-06-30T07:10:03Z</time>
      </trkpt>
      <trkpt lat="48.70584" lon="5.4423">
        <ele>343.3</ele>
        <time>2020-06-30T07:10:04Z</time>
      </trkpt>
      <trkpt lat="48.70584" lon="5.44226">
        <ele>343.5</ele>
        <time>2020-06-30T07:10:05Z</time>
      </trkpt>
      <trkpt lat="48.70585" lon="5.44224">
        <ele>343.6</ele>
        <time>2020-06-30T07:10:06Z</time>
      </trkpt>
      <trkpt lat="48.70585" lon="5.44222">
        <ele>343.7</ele>
        <time>2020-06-30T07:10:07Z</time>
      </trkpt>
      <trkpt lat="48.70584" lon="5.44219">
        <ele>343.8</ele>
        <time>2020-06-30T07:10:08Z</time>
      </trkpt>
      <trkpt lat="48.70584" lon="5.44216">
        <ele>344</ele>
        <time>2020-06-30T07:10:09Z</time>
      </trkpt>
      <trkpt lat="48.70584" lon="5.44214">
        <ele>344</ele>
        <time>2020-06-30T07:10:10Z</time>
      </trkpt>
      <trkpt lat="48.70583" lon="5.44209">
        <ele>344.3</ele>
        <time>2020-06-30T07:10:11Z</time>
      </trkpt>
      <trkpt lat="48.70582" lon="5.44207">
        <ele>344.4</ele>
        <time>2020-06-30T07:10:12Z</time>
      </trkpt>
      <trkpt lat="48.70582" lon="5.44205">
        <ele>344.5</ele>
        <time>2020-06-30T07:10:13Z</time>
      </trkpt>
      <trkpt lat="48.70582" lon="5.44203">
        <ele>344.6</ele>
        <time>2020-06-30T07:10:14Z</time>
      </trkpt>
      <trkpt lat="48.7058" lon="5.442">
        <ele>344.8</ele>
        <time>2020-06-30T07:10:15Z</time>
      </trkpt>
      <trkpt lat="48.70581" lon="5.44196">
        <ele>345.1</ele>
        <time>2020-06-30T07:10:16Z</time>
      </trkpt>
      <trkpt lat="48.70581" lon="5.44195">
        <ele>345.1</ele>
        <time>2020-06-30T07:10:17Z</time>
      </trkpt>
      <trkpt lat="48.70581" lon="5.44192">
        <ele>345.3</ele>
        <time>2020-06-30T07:10:18Z</time>
      </trkpt>
      <trkpt lat="48.7058" lon="5.4419">
        <ele>345.4</ele>
        <time>2020-06-30T07:10:19Z</time>
      </trkpt>
      <trkpt lat="48.70579" lon="5.44189">
        <ele>345.5</ele>
        <time>2020-06-30T07:10:20Z</time>
      </trkpt>
      <trkpt lat="48.70579" lon="5.44187">
        <ele>345.6</ele>
        <time>2020-06-30T07:10:21Z</time>
      </trkpt>
      <trkpt lat="48.70579" lon="5.44186">
        <ele>345.6</ele>
        <time>2020-06-30T07:10:22Z</time>
      </trkpt>
      <trkpt lat="48.70578" lon="5.44185">
        <ele>345.7</ele>
        <time>2020-06-30T07:10:23Z</time>
      </trkpt>
      <trkpt lat="48.70577" lon="5.44184">
        <ele>345.8</ele>
        <time>2020-06-30T07:10:24Z</time>
      </trkpt>
      <trkpt lat="48.70575" lon="5.44181">
        <ele>346.1</ele>
        <time>2020-06-30T07:10:25Z</time>
      </trkpt>
      <trkpt lat="48.70574" lon="5.44179">
        <ele>346.2</ele>
        <time>2020-06-30T07:10:26Z</time>
      </trkpt>
      <trkpt lat="48.70571" lon="5.44176">
        <ele>346.4</ele>
        <time>2020-06-30T07:10:27Z</time>
      </trkpt>
      <trkpt lat="48.70571" lon="5.44175">
        <ele>346.5</ele>
        <time>2020-06-30T07:10:28Z</time>
      </trkpt>
      <trkpt lat="48.70568" lon="5.44172">
        <ele>346.7</ele>
        <time>2020-06-30T07:10:29Z</time>
      </trkpt>
      <trkpt lat="48.70567" lon="5.44172">
        <ele>346.8</ele>
        <time>2020-06-30T07:10:30Z</time>
      </trkpt>
      <trkpt lat="48.70566" lon="5.44169">
        <ele>347</ele>
        <time>2020-06-30T07:10:31Z</time>
      </trkpt>
      <trkpt lat="48.70565" lon="5.44167">
        <ele>347.1</ele>
        <time>2020-06-30T07:10:32Z</time>
      </trkpt>
      <trkpt lat="48.70563" lon="5.44164">
        <ele>347.3</ele>
        <time>2020-06-30T07:10:33Z</time>
      </trkpt>
      <trkpt lat="48.70562" lon="5.44163">
        <ele>347.4</ele>
        <time>2020-06-30T07:10:34Z</time>
      </trkpt>
      <trkpt lat="48.7056" lon="5.44162">
        <ele>347.5</ele>
        <time>2020-06-30T07:10:35Z</time>
      </trkpt>
      <trkpt lat="48.70558" lon="5.44161">
        <ele>347.6</ele>
        <time>2020-06-30T07:10:36Z</time>
      </trkpt>
      <trkpt lat="48.70556" lon="5.44158">
        <ele>347.8</ele>
        <time>2020-06-30T07:10:37Z</time>
      </trkpt>
      <trkpt lat="48.70555" lon="5.44158">
        <ele>347.9</ele>
        <time>2020-06-30T07:10:38Z</time>
      </trkpt>
      <trkpt lat="48.70552" lon="5.44155">
        <ele>348.2</ele>
        <time>2020-06-30T07:10:39Z</time>
      </trkpt>
      <trkpt lat="48.70551" lon="5.44155">
        <ele>348.2</ele>
        <time>2020-06-30T07:10:40Z</time>
      </trkpt>
      <trkpt lat="48.70549" lon="5.44154">
        <ele>348.4</ele>
        <time>2020-06-30T07:10:41Z</time>
      </trkpt>
      <trkpt lat="48.70548" lon="5.44153">
        <ele>348.5</ele>
        <time>2020-06-30T07:10:42Z</time>
      </trkpt>
      <trkpt lat="48.70545" lon="5.44149">
        <ele>348.7</ele>
        <time>2020-06-30T07:10:43Z</time>
      </trkpt>
      <trkpt lat="48.70544" lon="5.44148">
        <ele>348.8</ele>
        <time>2020-06-30T07:10:44Z</time>
      </trkpt>
      <trkpt lat="48.70542" lon="5.44144">
        <ele>349.1</ele>
        <time>2020-06-30T07:10:45Z</time>
      </trkpt>
      <trkpt lat="48.70541" lon="5.44143">
        <ele>349.2</ele>
        <time>2020-06-30T07:10:46Z</time>
      </trkpt>
      <trkpt lat="48.70539" lon="5.4414">
        <ele>349.4</ele>
        <time>2020-06-30T07:10:47Z</time>
      </trkpt>
      <trkpt lat="48.70536" lon="5.44136">
        <ele>349.7</ele>
        <time>2020-06-30T07:10:48Z</time>
      </trkpt>
      <trkpt lat="48.70535" lon="5.44135">
        <ele>349.8</ele>
        <time>2020-06-30T07:10:49Z</time>
      </trkpt>
      <trkpt lat="48.70533" lon="5.44133">
        <ele>350</ele>
        <time>2020-06-30T07:10:50Z</time>
      </trkpt>
      <trkpt lat="48.70532" lon="5.44132">
        <ele>350.1</ele>
        <time>2020-06-30T07:10:51Z</time>
      </trkpt>
      <trkpt lat="48.7053" lon="5.4413">
        <ele>350.3</ele>
        <time>2020-06-30T07:10:52Z</time>
      </trkpt>
      <trkpt lat="48.70529" lon="5.44129">
        <ele>350.4</ele>
        <time>2020-06-30T07:10:53Z</time>
      </trkpt>
      <trkpt lat="48.70527" lon="5.44126">
        <ele>350.6</ele>
        <time>2020-06-30T07:10:54Z</time>
      </trkpt>
      <trkpt lat="48.70526" lon="5.44126">
        <ele>350.7</ele>
        <time>2020-06-30T07:10:55Z</time>
      </trkpt>
      <trkpt lat="48.70523" lon="5.44123">
        <ele>351</ele>
        <time>2020-06-30T07:10:56Z</time>
      </trkpt>
      <trkpt lat="48.70522" lon="5.44121">
        <ele>351.1</ele>
        <time>2020-06-30T07:10:57Z</time>
      </trkpt>
      <trkpt lat="48.7052" lon="5.44119">
        <ele>351.3</ele>
        <time>2020-06-30T07:10:58Z</time>
      </trkpt>
      <trkpt lat="48.70519" lon="5.44118">
        <ele>351.4</ele>
        <time>2020-06-30T07:10:59Z</time>
      </trkpt>
      <trkpt lat="48.70516" lon="5.44115">
        <ele>351.6</ele>
        <time>2020-06-30T07:11:00Z</time>
      </trkpt>
      <trkpt lat="48.70515" lon="5.44115">
        <ele>351.7</ele>
        <time>2020-06-30T07:11:01Z</time>
      </trkpt>
      <trkpt lat="48.70513" lon="5.44112">
        <ele>351.9</ele>
        <time>2020-06-30T07:11:02Z</time>
      </trkpt>
      <trkpt lat="48.70512" lon="5.44111">
        <ele>352</ele>
        <time>2020-06-30T07:11:03Z</time>
      </trkpt>
      <trkpt lat="48.70509" lon="5.44108">
        <ele>352.3</ele>
        <time>2020-06-30T07:11:04Z</time>
      </trkpt>
      <trkpt lat="48.70509" lon="5.44107">
        <ele>352.3</ele>
        <time>2020-06-30T07:11:05Z</time>
      </trkpt>
      <trkpt lat="48.70506" lon="5.44106">
        <ele>352.6</ele>
        <time>2020-06-30T07:11:06Z</time>
      </trkpt>
      <trkpt lat="48.70505" lon="5.44105">
        <ele>352.6</ele>
        <time>2020-06-30T07:11:07Z</time>
      </trkpt>
      <trkpt lat="48.70503" lon="5.44103">
        <ele>352.9</ele>
        <time>2020-06-30T07:11:08Z</time>
      </trkpt>
      <trkpt lat="48.70502" lon="5.44102">
        <ele>353</ele>
        <time>2020-06-30T07:11:09Z</time>
      </trkpt>
      <trkpt lat="48.70501" lon="5.44101">
        <ele>353.1</ele>
        <time>2020-06-30T07:11:10Z</time>
      </trkpt>
      <trkpt lat="48.70499" lon="5.44099">
        <ele>353.2</ele>
        <time>2020-06-30T07:11:11Z</time>
      </trkpt>
      <trkpt lat="48.70498" lon="5.44097">
        <ele>353.4</ele>
        <time>2020-06-30T07:11:12Z</time>
      </trkpt>
      <trkpt lat="48.70497" lon="5.44095">
        <ele>353.5</ele>
        <time>2020-06-30T07:11:13Z</time>
      </trkpt>
      <trkpt lat="48.70496" lon="5.44094">
        <ele>353.7</ele>
        <time>2020-06-30T07:11:14Z</time>
      </trkpt>
      <trkpt lat="48.70494" lon="5.44093">
        <ele>353.8</ele>
        <time>2020-06-30T07:11:15Z</time>
      </trkpt>
      <trkpt lat="48.70493" lon="5.44092">
        <ele>353.9</ele>
        <time>2020-06-30T07:11:16Z</time>
      </trkpt>
      <trkpt lat="48.70491" lon="5.4409">
        <ele>354.1</ele>
        <time>2020-06-30T07:11:17Z</time>
      </trkpt>
      <trkpt lat="48.70489" lon="5.44088">
        <ele>354.3</ele>
        <time>2020-06-30T07:11:18Z</time>
      </trkpt>
      <trkpt lat="48.70488" lon="5.44087">
        <ele>354.4</ele>
        <time>2020-06-30T07:11:19Z</time>
      </trkpt>
      <trkpt lat="48.70486" lon="5.44085">
        <ele>354.6</ele>
        <time>2020-06-30T07:11:20Z</time>
      </trkpt>
      <trkpt lat="48.70485" lon="5.44084">
        <ele>354.6</ele>
        <time>2020-06-30T07:11:21Z</time>
      </trkpt>
      <trkpt lat="48.70481" lon="5.44081">
        <ele>354.9</ele>
        <time>2020-06-30T07:11:22Z</time>
      </trkpt>
      <trkpt lat="48.7048" lon="5.4408">
        <ele>355.2</ele>
        <time>2020-06-30T07:11:23Z</time>
      </trkpt>
      <trkpt lat="48.70477" lon="5.44078">
        <ele>355.3</ele>
        <time>2020-06-30T07:11:24Z</time>
      </trkpt>
      <trkpt lat="48.70477" lon="5.44077">
        <ele>355.4</ele>
        <time>2020-06-30T07:11:25Z</time>
      </trkpt>
      <trkpt lat="48.70474" lon="5.44075">
        <ele>355.5</ele>
        <time>2020-06-30T07:11:26Z</time>
      </trkpt>
      <trkpt lat="48.70472" lon="5.44074">
        <ele>355.5</ele>
        <time>2020-06-30T07:11:27Z</time>
      </trkpt>
      <trkpt lat="48.70469" lon="5.44071">
        <ele>355.7</ele>
        <time>2020-06-30T07:11:28Z</time>
      </trkpt>
      <trkpt lat="48.70468" lon="5.4407">
        <ele>355.7</ele>
        <time>2020-06-30T07:11:29Z</time>
      </trkpt>
      <trkpt lat="48.70465" lon="5.44066">
        <ele>355.9</ele>
        <time>2020-06-30T07:11:30Z</time>
      </trkpt>
      <trkpt lat="48.70464" lon="5.44065">
        <ele>355.9</ele>
        <time>2020-06-30T07:11:31Z</time>
      </trkpt>
      <trkpt lat="48.70462" lon="5.44061">
        <ele>356</ele>
        <time>2020-06-30T07:11:32Z</time>
      </trkpt>
      <trkpt lat="48.70459" lon="5.44058">
        <ele>356.1</ele>
        <time>2020-06-30T07:11:33Z</time>
      </trkpt>
      <trkpt lat="48.70457" lon="5.44055">
        <ele>356.2</ele>
        <time>2020-06-30T07:11:34Z</time>
      </trkpt>
      <trkpt lat="48.70455" lon="5.44052">
        <ele>356.5</ele>
        <time>2020-06-30T07:11:35Z</time>
      </trkpt>
      <trkpt lat="48.70452" lon="5.44049">
        <ele>356.6</ele>
        <time>2020-06-30T07:11:36Z</time>
      </trkpt>
      <trkpt lat="48.70449" lon="5.44047">
        <ele>356.8</ele>
        <time>2020-06-30T07:11:37Z</time>
      </trkpt>
      <trkpt lat="48.70446" lon="5.44045">
        <ele>357</ele>
        <time>2020-06-30T07:11:38Z</time>
      </trkpt>
      <trkpt lat="48.70443" lon="5.44043">
        <ele>357.1</ele>
        <time>2020-06-30T07:11:39Z</time>
      </trkpt>
      <trkpt lat="48.70441" lon="5.44041">
        <ele>357.2</ele>
        <time>2020-06-30T07:11:40Z</time>
      </trkpt>
      <trkpt lat="48.70438" lon="5.44038">
        <ele>357.3</ele>
        <time>2020-06-30T07:11:41Z</time>
      </trkpt>
      <trkpt lat="48.70436" lon="5.44037">
        <ele>357.4</ele>
        <time>2020-06-30T07:11:42Z</time>
      </trkpt>
      <trkpt lat="48.70432" lon="5.44034">
        <ele>357.5</ele>
        <time>2020-06-30T07:11:43Z</time>
      </trkpt>
      <trkpt lat="48.70431" lon="5.44032">
        <ele>357.6</ele>
        <time>2020-06-30T07:11:44Z</time>
      </trkpt>
      <trkpt lat="48.70429" lon="5.4403">
        <ele>357.7</ele>
        <time>2020-06-30T07:11:45Z</time>
      </trkpt>
      <trkpt lat="48.70426" lon="5.44028">
        <ele>357.8</ele>
        <time>2020-06-30T07:11:46Z</time>
      </trkpt>
      <trkpt lat="48.70422" lon="5.44026">
        <ele>357.9</ele>
        <time>2020-06-30T07:11:47Z</time>
      </trkpt>
      <trkpt lat="48.7042" lon="5.44025">
        <ele>358</ele>
        <time>2020-06-30T07:11:48Z</time>
      </trkpt>
      <trkpt lat="48.70418" lon="5.44023">
        <ele>358.1</ele>
        <time>2020-06-30T07:11:49Z</time>
      </trkpt>
      <trkpt lat="48.70415" lon="5.44019">
        <ele>358.2</ele>
        <time>2020-06-30T07:11:50Z</time>
      </trkpt>
      <trkpt lat="48.70412" lon="5.44017">
        <ele>358.3</ele>
        <time>2020-06-30T07:11:51Z</time>
      </trkpt>
      <trkpt lat="48.70409" lon="5.44014">
        <ele>358.5</ele>
        <time>2020-06-30T07:11:52Z</time>
      </trkpt>
      <trkpt lat="48.70406" lon="5.44012">
        <ele>358.6</ele>
        <time>2020-06-30T07:11:53Z</time>
      </trkpt>
      <trkpt lat="48.70403" lon="5.44011">
        <ele>358.7</ele>
        <time>2020-06-30T07:11:54Z</time>
      </trkpt>
      <trkpt lat="48.704" lon="5.44008">
        <ele>358.8</ele>
        <time>2020-06-30T07:11:55Z</time>
      </trkpt>
      <trkpt lat="48.70397" lon="5.44006">
        <ele>359</ele>
        <time>2020-06-30T07:11:56Z</time>
      </trkpt>
      <trkpt lat="48.70394" lon="5.44003">
        <ele>359.1</ele>
        <time>2020-06-30T07:11:57Z</time>
      </trkpt>
      <trkpt lat="48.70391" lon="5.44001">
        <ele>359.2</ele>
        <time>2020-06-30T07:11:58Z</time>
      </trkpt>
      <trkpt lat="48.70388" lon="5.43998">
        <ele>359.3</ele>
        <time>2020-06-30T07:11:59Z</time>
      </trkpt>
      <trkpt lat="48.70385" lon="5.43995">
        <ele>359.4</ele>
        <time>2020-06-30T07:12:00Z</time>
      </trkpt>
      <trkpt lat="48.70382" lon="5.43993">
        <ele>359.6</ele>
        <time>2020-06-30T07:12:01Z</time>
      </trkpt>
      <trkpt lat="48.7038" lon="5.43991">
        <ele>359.7</ele>
        <time>2020-06-30T07:12:02Z</time>
      </trkpt>
      <trkpt lat="48.70377" lon="5.43989">
        <ele>359.8</ele>
        <time>2020-06-30T07:12:03Z</time>
      </trkpt>
      <trkpt lat="48.70376" lon="5.43988">
        <ele>359.8</ele>
        <time>2020-06-30T07:12:04Z</time>
      </trkpt>
      <trkpt lat="48.70373" lon="5.43985">
        <ele>359.9</ele>
        <time>2020-06-30T07:12:05Z</time>
      </trkpt>
      <trkpt lat="48.70372" lon="5.43983">
        <ele>360</ele>
        <time>2020-06-30T07:12:06Z</time>
      </trkpt>
      <trkpt lat="48.70369" lon="5.4398">
        <ele>360.1</ele>
        <time>2020-06-30T07:12:07Z</time>
      </trkpt>
      <trkpt lat="48.70367" lon="5.43979">
        <ele>360.2</ele>
        <time>2020-06-30T07:12:08Z</time>
      </trkpt>
      <trkpt lat="48.70364" lon="5.43976">
        <ele>360.3</ele>
        <time>2020-06-30T07:12:09Z</time>
      </trkpt>
      <trkpt lat="48.70362" lon="5.43975">
        <ele>360.4</ele>
        <time>2020-06-30T07:12:10Z</time>
      </trkpt>
      <trkpt lat="48.70359" lon="5.43972">
        <ele>360.6</ele>
        <time>2020-06-30T07:12:11Z</time>
      </trkpt>
      <trkpt lat="48.70358" lon="5.4397">
        <ele>360.6</ele>
        <time>2020-06-30T07:12:12Z</time>
      </trkpt>
      <trkpt lat="48.70355" lon="5.43967">
        <ele>360.7</ele>
        <time>2020-06-30T07:12:13Z</time>
      </trkpt>
      <trkpt lat="48.70352" lon="5.43965">
        <ele>360.9</ele>
        <time>2020-06-30T07:12:14Z</time>
      </trkpt>
      <trkpt lat="48.7035" lon="5.43964">
        <ele>361</ele>
        <time>2020-06-30T07:12:15Z</time>
      </trkpt>
      <trkpt lat="48.70347" lon="5.43962">
        <ele>361.1</ele>
        <time>2020-06-30T07:12:16Z</time>
      </trkpt>
      <trkpt lat="48.70344" lon="5.43959">
        <ele>361.2</ele>
        <time>2020-06-30T07:12:17Z</time>
      </trkpt>
      <trkpt lat="48.70341" lon="5.43956">
        <ele>361.4</ele>
        <time>2020-06-30T07:12:18Z</time>
      </trkpt>
      <trkpt lat="48.70338" lon="5.43953">
        <ele>361.6</ele>
        <time>2020-06-30T07:12:19Z</time>
      </trkpt>
      <trkpt lat="48.70335" lon="5.4395">
        <ele>361.8</ele>
        <time>2020-06-30T07:12:20Z</time>
      </trkpt>
      <trkpt lat="48.70331" lon="5.43946">
        <ele>362</ele>
        <time>2020-06-30T07:12:21Z</time>
      </trkpt>
      <trkpt lat="48.70328" lon="5.43944">
        <ele>362.1</ele>
        <time>2020-06-30T07:12:22Z</time>
      </trkpt>
      <trkpt lat="48.70325" lon="5.43941">
        <ele>362.4</ele>
        <time>2020-06-30T07:12:23Z</time>
      </trkpt>
      <trkpt lat="48.70324" lon="5.4394">
        <ele>362.4</ele>
        <time>2020-06-30T07:12:24Z</time>
      </trkpt>
      <trkpt lat="48.70321" lon="5.43938">
        <ele>362.6</ele>
        <time>2020-06-30T07:12:25Z</time>
      </trkpt>
      <trkpt lat="48.70318" lon="5.43936">
        <ele>362.8</ele>
        <time>2020-06-30T07:12:26Z</time>
      </trkpt>
      <trkpt lat="48.70316" lon="5.43936">
        <ele>362.9</ele>
        <time>2020-06-30T07:12:27Z</time>
      </trkpt>
      <trkpt lat="48.70311" lon="5.43934">
        <ele>363.2</ele>
        <time>2020-06-30T07:12:28Z</time>
      </trkpt>
      <trkpt lat="48.7031" lon="5.43933">
        <ele>363.3</ele>
        <time>2020-06-30T07:12:29Z</time>
      </trkpt>
      <trkpt lat="48.70307" lon="5.43929">
        <ele>363.5</ele>
        <time>2020-06-30T07:12:30Z</time>
      </trkpt>
      <trkpt lat="48.70305" lon="5.43928">
        <ele>363.5</ele>
        <time>2020-06-30T07:12:31Z</time>
      </trkpt>
      <trkpt lat="48.70302" lon="5.43925">
        <ele>363.7</ele>
        <time>2020-06-30T07:12:32Z</time>
      </trkpt>
      <trkpt lat="48.70301" lon="5.43924">
        <ele>363.8</ele>
        <time>2020-06-30T07:12:33Z</time>
      </trkpt>
      <trkpt lat="48.70298" lon="5.43922">
        <ele>364</ele>
        <time>2020-06-30T07:12:34Z</time>
      </trkpt>
      <trkpt lat="48.70297" lon="5.43921">
        <ele>364</ele>
        <time>2020-06-30T07:12:35Z</time>
      </trkpt>
      <trkpt lat="48.70293" lon="5.43917">
        <ele>364.3</ele>
        <time>2020-06-30T07:12:36Z</time>
      </trkpt>
      <trkpt lat="48.70292" lon="5.43916">
        <ele>364.3</ele>
        <time>2020-06-30T07:12:37Z</time>
      </trkpt>
      <trkpt lat="48.70289" lon="5.43914">
        <ele>364.5</ele>
        <time>2020-06-30T07:12:38Z</time>
      </trkpt>
      <trkpt lat="48.70286" lon="5.43913">
        <ele>364.7</ele>
        <time>2020-06-30T07:12:39Z</time>
      </trkpt>
      <trkpt lat="48.70282" lon="5.43912">
        <ele>364.9</ele>
        <time>2020-06-30T07:12:40Z</time>
      </trkpt>
      <trkpt lat="48.70281" lon="5.43911">
        <ele>364.9</ele>
        <time>2020-06-30T07:12:41Z</time>
      </trkpt>
      <trkpt lat="48.70278" lon="5.43907">
        <ele>365.1</ele>
        <time>2020-06-30T07:12:42Z</time>
      </trkpt>
      <trkpt lat="48.70276" lon="5.43904">
        <ele>365.3</ele>
        <time>2020-06-30T07:12:43Z</time>
      </trkpt>
      <trkpt lat="48.70273" lon="5.43901">
        <ele>365.5</ele>
        <time>2020-06-30T07:12:44Z</time>
      </trkpt>
      <trkpt lat="48.70271" lon="5.43897">
        <ele>365.7</ele>
        <time>2020-06-30T07:12:45Z</time>
      </trkpt>
      <trkpt lat="48.70269" lon="5.43894">
        <ele>366.2</ele>
        <time>2020-06-30T07:12:46Z</time>
      </trkpt>
      <trkpt lat="48.70265" lon="5.43891">
        <ele>366.5</ele>
        <time>2020-06-30T07:12:47Z</time>
      </trkpt>
      <trkpt lat="48.70264" lon="5.4389">
        <ele>366.6</ele>
        <time>2020-06-30T07:12:48Z</time>
      </trkpt>
      <trkpt lat="48.70262" lon="5.43888">
        <ele>366.8</ele>
        <time>2020-06-30T07:12:49Z</time>
      </trkpt>
      <trkpt lat="48.70259" lon="5.43885">
        <ele>367.1</ele>
        <time>2020-06-30T07:12:50Z</time>
      </trkpt>
      <trkpt lat="48.70257" lon="5.43884">
        <ele>367.2</ele>
        <time>2020-06-30T07:12:51Z</time>
      </trkpt>
      <trkpt lat="48.70255" lon="5.43882">
        <ele>367.4</ele>
        <time>2020-06-30T07:12:52Z</time>
      </trkpt>
      <trkpt lat="48.70251" lon="5.4388">
        <ele>367.7</ele>
        <time>2020-06-30T07:12:53Z</time>
      </trkpt>
      <trkpt lat="48.7025" lon="5.43879">
        <ele>367.8</ele>
        <time>2020-06-30T07:12:54Z</time>
      </trkpt>
      <trkpt lat="48.70247" lon="5.43877">
        <ele>368</ele>
        <time>2020-06-30T07:12:55Z</time>
      </trkpt>
      <trkpt lat="48.70246" lon="5.43876">
        <ele>368.1</ele>
        <time>2020-06-30T07:12:56Z</time>
      </trkpt>
      <trkpt lat="48.70243" lon="5.43874">
        <ele>368.3</ele>
        <time>2020-06-30T07:12:57Z</time>
      </trkpt>
      <trkpt lat="48.70239" lon="5.43872">
        <ele>368.4</ele>
        <time>2020-06-30T07:12:58Z</time>
      </trkpt>
      <trkpt lat="48.70238" lon="5.43871">
        <ele>368.5</ele>
        <time>2020-06-30T07:12:59Z</time>
      </trkpt>
      <trkpt lat="48.70234" lon="5.4387">
        <ele>368.7</ele>
        <time>2020-06-30T07:13:00Z</time>
      </trkpt>
      <trkpt lat="48.70233" lon="5.43869">
        <ele>368.8</ele>
        <time>2020-06-30T07:13:01Z</time>
      </trkpt>
      <trkpt lat="48.70231" lon="5.43867">
        <ele>369</ele>
        <time>2020-06-30T07:13:02Z</time>
      </trkpt>
      <trkpt lat="48.70228" lon="5.43864">
        <ele>369.3</ele>
        <time>2020-06-30T07:13:03Z</time>
      </trkpt>
      <trkpt lat="48.70227" lon="5.43863">
        <ele>369.3</ele>
        <time>2020-06-30T07:13:04Z</time>
      </trkpt>
      <trkpt lat="48.70224" lon="5.43859">
        <ele>369.6</ele>
        <time>2020-06-30T07:13:05Z</time>
      </trkpt>
      <trkpt lat="48.70223" lon="5.43857">
        <ele>369.6</ele>
        <time>2020-06-30T07:13:06Z</time>
      </trkpt>
      <trkpt lat="48.70221" lon="5.43856">
        <ele>369.8</ele>
        <time>2020-06-30T07:13:07Z</time>
      </trkpt>
      <trkpt lat="48.7022" lon="5.43855">
        <ele>369.9</ele>
        <time>2020-06-30T07:13:08Z</time>
      </trkpt>
      <trkpt lat="48.70217" lon="5.43852">
        <ele>370.1</ele>
        <time>2020-06-30T07:13:09Z</time>
      </trkpt>
      <trkpt lat="48.70216" lon="5.43851">
        <ele>370.1</ele>
        <time>2020-06-30T07:13:10Z</time>
      </trkpt>
      <trkpt lat="48.70213" lon="5.43849">
        <ele>370.3</ele>
        <time>2020-06-30T07:13:11Z</time>
      </trkpt>
      <trkpt lat="48.7021" lon="5.43846">
        <ele>370.5</ele>
        <time>2020-06-30T07:13:12Z</time>
      </trkpt>
      <trkpt lat="48.70207" lon="5.43843">
        <ele>370.8</ele>
        <time>2020-06-30T07:13:13Z</time>
      </trkpt>
      <trkpt lat="48.70206" lon="5.43842">
        <ele>370.9</ele>
        <time>2020-06-30T07:13:14Z</time>
      </trkpt>
      <trkpt lat="48.70202" lon="5.43839">
        <ele>371.1</ele>
        <time>2020-06-30T07:13:15Z</time>
      </trkpt>
      <trkpt lat="48.70201" lon="5.43838">
        <ele>371.2</ele>
        <time>2020-06-30T07:13:16Z</time>
      </trkpt>
      <trkpt lat="48.70197" lon="5.43836">
        <ele>371.4</ele>
        <time>2020-06-30T07:13:17Z</time>
      </trkpt>
      <trkpt lat="48.70196" lon="5.43836">
        <ele>371.5</ele>
        <time>2020-06-30T07:13:18Z</time>
      </trkpt>
      <trkpt lat="48.70193" lon="5.43834">
        <ele>371.6</ele>
        <time>2020-06-30T07:13:19Z</time>
      </trkpt>
      <trkpt lat="48.7019" lon="5.43833">
        <ele>371.7</ele>
        <time>2020-06-30T07:13:20Z</time>
      </trkpt>
      <trkpt lat="48.70188" lon="5.43832">
        <ele>371.9</ele>
        <time>2020-06-30T07:13:21Z</time>
      </trkpt>
      <trkpt lat="48.70185" lon="5.4383">
        <ele>372</ele>
        <time>2020-06-30T07:13:22Z</time>
      </trkpt>
      <trkpt lat="48.70182" lon="5.43829">
        <ele>372.1</ele>
        <time>2020-06-30T07:13:23Z</time>
      </trkpt>
      <trkpt lat="48.70179" lon="5.43827">
        <ele>372.3</ele>
        <time>2020-06-30T07:13:24Z</time>
      </trkpt>
      <trkpt lat="48.70177" lon="5.43826">
        <ele>372.4</ele>
        <time>2020-06-30T07:13:25Z</time>
      </trkpt>
      <trkpt lat="48.70175" lon="5.43825">
        <ele>372.5</ele>
        <time>2020-06-30T07:13:26Z</time>
      </trkpt>
      <trkpt lat="48.70172" lon="5.43823">
        <ele>372.6</ele>
        <time>2020-06-30T07:13:27Z</time>
      </trkpt>
      <trkpt lat="48.70168" lon="5.43822">
        <ele>372.7</ele>
        <time>2020-06-30T07:13:28Z</time>
      </trkpt>
      <trkpt lat="48.70165" lon="5.43821">
        <ele>372.8</ele>
        <time>2020-06-30T07:13:29Z</time>
      </trkpt>
      <trkpt lat="48.70163" lon="5.4382">
        <ele>372.9</ele>
        <time>2020-06-30T07:13:30Z</time>
      </trkpt>
      <trkpt lat="48.7016" lon="5.43819">
        <ele>373</ele>
        <time>2020-06-30T07:13:31Z</time>
      </trkpt>
      <trkpt lat="48.70157" lon="5.43818">
        <ele>373</ele>
        <time>2020-06-30T07:13:32Z</time>
      </trkpt>
      <trkpt lat="48.70154" lon="5.43816">
        <ele>373.1</ele>
        <time>2020-06-30T07:13:33Z</time>
      </trkpt>
      <trkpt lat="48.70151" lon="5.43815">
        <ele>373.2</ele>
        <time>2020-06-30T07:13:34Z</time>
      </trkpt>
      <trkpt lat="48.70148" lon="5.43814">
        <ele>373.3</ele>
        <time>2020-06-30T07:13:35Z</time>
      </trkpt>
      <trkpt lat="48.70144" lon="5.43812">
        <ele>373.4</ele>
        <time>2020-06-30T07:13:36Z</time>
      </trkpt>
      <trkpt lat="48.70141" lon="5.43811">
        <ele>373.5</ele>
        <time>2020-06-30T07:13:37Z</time>
      </trkpt>
      <trkpt lat="48.70138" lon="5.43809">
        <ele>373.6</ele>
        <time>2020-06-30T07:13:38Z</time>
      </trkpt>
      <trkpt lat="48.70134" lon="5.43809">
        <ele>373.7</ele>
        <time>2020-06-30T07:13:39Z</time>
      </trkpt>
      <trkpt lat="48.70132" lon="5.43809">
        <ele>373.8</ele>
        <time>2020-06-30T07:13:40Z</time>
      </trkpt>
      <trkpt lat="48.70129" lon="5.43808">
        <ele>373.9</ele>
        <time>2020-06-30T07:13:41Z</time>
      </trkpt>
      <trkpt lat="48.70125" lon="5.43807">
        <ele>374</ele>
        <time>2020-06-30T07:13:42Z</time>
      </trkpt>
      <trkpt lat="48.70122" lon="5.43806">
        <ele>374.1</ele>
        <time>2020-06-30T07:13:43Z</time>
      </trkpt>
      <trkpt lat="48.70119" lon="5.43805">
        <ele>374.2</ele>
        <time>2020-06-30T07:13:44Z</time>
      </trkpt>
      <trkpt lat="48.70116" lon="5.43802">
        <ele>374.3</ele>
        <time>2020-06-30T07:13:45Z</time>
      </trkpt>
      <trkpt lat="48.70113" lon="5.43801">
        <ele>374.4</ele>
        <time>2020-06-30T07:13:46Z</time>
      </trkpt>
      <trkpt lat="48.70109" lon="5.43799">
        <ele>374.5</ele>
        <time>2020-06-30T07:13:47Z</time>
      </trkpt>
      <trkpt lat="48.70106" lon="5.43797">
        <ele>374.6</ele>
        <time>2020-06-30T07:13:48Z</time>
      </trkpt>
      <trkpt lat="48.70103" lon="5.43796">
        <ele>374.7</ele>
        <time>2020-06-30T07:13:49Z</time>
      </trkpt>
      <trkpt lat="48.70099" lon="5.43796">
        <ele>374.8</ele>
        <time>2020-06-30T07:13:50Z</time>
      </trkpt>
      <trkpt lat="48.70096" lon="5.43795">
        <ele>374.9</ele>
        <time>2020-06-30T07:13:51Z</time>
      </trkpt>
      <trkpt lat="48.70093" lon="5.43794">
        <ele>375</ele>
        <time>2020-06-30T07:13:52Z</time>
      </trkpt>
      <trkpt lat="48.70091" lon="5.43793">
        <ele>375.1</ele>
        <time>2020-06-30T07:13:53Z</time>
      </trkpt>
      <trkpt lat="48.70088" lon="5.43792">
        <ele>375.2</ele>
        <time>2020-06-30T07:13:54Z</time>
      </trkpt>
      <trkpt lat="48.70085" lon="5.43791">
        <ele>375.3</ele>
        <time>2020-06-30T07:13:55Z</time>
      </trkpt>
      <trkpt lat="48.70083" lon="5.4379">
        <ele>375.4</ele>
        <time>2020-06-30T07:13:56Z</time>
      </trkpt>
      <trkpt lat="48.7008" lon="5.43789">
        <ele>375.5</ele>
        <time>2020-06-30T07:13:57Z</time>
      </trkpt>
      <trkpt lat="48.70077" lon="5.43788">
        <ele>375.6</ele>
        <time>2020-06-30T07:13:58Z</time>
      </trkpt>
      <trkpt lat="48.70074" lon="5.43787">
        <ele>375.8</ele>
        <time>2020-06-30T07:13:59Z</time>
      </trkpt>
      <trkpt lat="48.70071" lon="5.43786">
        <ele>375.9</ele>
        <time>2020-06-30T07:14:00Z</time>
      </trkpt>
      <trkpt lat="48.70068" lon="5.43783">
        <ele>376</ele>
        <time>2020-06-30T07:14:01Z</time>
      </trkpt>
      <trkpt lat="48.70066" lon="5.43781">
        <ele>376.2</ele>
        <time>2020-06-30T07:14:02Z</time>
      </trkpt>
      <trkpt lat="48.70061" lon="5.4378">
        <ele>376.4</ele>
        <time>2020-06-30T07:14:03Z</time>
      </trkpt>
      <trkpt lat="48.7006" lon="5.4378">
        <ele>376.5</ele>
        <time>2020-06-30T07:14:04Z</time>
      </trkpt>
      <trkpt lat="48.70056" lon="5.43779">
        <ele>376.6</ele>
        <time>2020-06-30T07:14:05Z</time>
      </trkpt>
      <trkpt lat="48.70055" lon="5.43779">
        <ele>376.7</ele>
        <time>2020-06-30T07:14:06Z</time>
      </trkpt>
      <trkpt lat="48.70052" lon="5.43778">
        <ele>376.8</ele>
        <time>2020-06-30T07:14:07Z</time>
      </trkpt>
      <trkpt lat="48.70048" lon="5.43776">
        <ele>377</ele>
        <time>2020-06-30T07:14:08Z</time>
      </trkpt>
      <trkpt lat="48.70047" lon="5.43775">
        <ele>377.1</ele>
        <time>2020-06-30T07:14:09Z</time>
      </trkpt>
      <trkpt lat="48.70044" lon="5.43774">
        <ele>377.3</ele>
        <time>2020-06-30T07:14:10Z</time>
      </trkpt>
      <trkpt lat="48.70043" lon="5.43773">
        <ele>377.3</ele>
        <time>2020-06-30T07:14:11Z</time>
      </trkpt>
      <trkpt lat="48.70039" lon="5.4377">
        <ele>377.5</ele>
        <time>2020-06-30T07:14:12Z</time>
      </trkpt>
      <trkpt lat="48.70038" lon="5.43769">
        <ele>377.6</ele>
        <time>2020-06-30T07:14:13Z</time>
      </trkpt>
      <trkpt lat="48.70035" lon="5.43767">
        <ele>377.7</ele>
        <time>2020-06-30T07:14:14Z</time>
      </trkpt>
      <trkpt lat="48.70033" lon="5.43765">
        <ele>377.9</ele>
        <time>2020-06-30T07:14:15Z</time>
      </trkpt>
      <trkpt lat="48.7003" lon="5.43763">
        <ele>378</ele>
        <time>2020-06-30T07:14:16Z</time>
      </trkpt>
      <trkpt lat="48.70026" lon="5.43761">
        <ele>378.2</ele>
        <time>2020-06-30T07:14:17Z</time>
      </trkpt>
      <trkpt lat="48.70025" lon="5.43761">
        <ele>378.3</ele>
        <time>2020-06-30T07:14:18Z</time>
      </trkpt>
      <trkpt lat="48.70022" lon="5.43757">
        <ele>378.5</ele>
        <time>2020-06-30T07:14:19Z</time>
      </trkpt>
      <trkpt lat="48.70021" lon="5.43756">
        <ele>378.6</ele>
        <time>2020-06-30T07:14:20Z</time>
      </trkpt>
      <trkpt lat="48.70018" lon="5.43753">
        <ele>378.7</ele>
        <time>2020-06-30T07:14:21Z</time>
      </trkpt>
      <trkpt lat="48.70015" lon="5.4375">
        <ele>378.9</ele>
        <time>2020-06-30T07:14:22Z</time>
      </trkpt>
      <trkpt lat="48.70015" lon="5.43749">
        <ele>379</ele>
        <time>2020-06-30T07:14:23Z</time>
      </trkpt>
      <trkpt lat="48.70012" lon="5.43745">
        <ele>379.2</ele>
        <time>2020-06-30T07:14:24Z</time>
      </trkpt>
      <trkpt lat="48.70011" lon="5.43743">
        <ele>379.3</ele>
        <time>2020-06-30T07:14:25Z</time>
      </trkpt>
      <trkpt lat="48.70008" lon="5.43739">
        <ele>379.4</ele>
        <time>2020-06-30T07:14:26Z</time>
      </trkpt>
      <trkpt lat="48.70007" lon="5.43738">
        <ele>379.5</ele>
        <time>2020-06-30T07:14:27Z</time>
      </trkpt>
      <trkpt lat="48.70005" lon="5.43736">
        <ele>379.7</ele>
        <time>2020-06-30T07:14:28Z</time>
      </trkpt>
      <trkpt lat="48.70002" lon="5.43735">
        <ele>379.8</ele>
        <time>2020-06-30T07:14:29Z</time>
      </trkpt>
      <trkpt lat="48.7" lon="5.43732">
        <ele>379.9</ele>
        <time>2020-06-30T07:14:30Z</time>
      </trkpt>
      <trkpt lat="48.69998" lon="5.43728">
        <ele>380.1</ele>
        <time>2020-06-30T07:14:31Z</time>
      </trkpt>
      <trkpt lat="48.69997" lon="5.43726">
        <ele>380.2</ele>
        <time>2020-06-30T07:14:32Z</time>
      </trkpt>
      <trkpt lat="48.69995" lon="5.43722">
        <ele>380.3</ele>
        <time>2020-06-30T07:14:33Z</time>
      </trkpt>
      <trkpt lat="48.69993" lon="5.43718">
        <ele>380.5</ele>
        <time>2020-06-30T07:14:34Z</time>
      </trkpt>
      <trkpt lat="48.69991" lon="5.43715">
        <ele>380.6</ele>
        <time>2020-06-30T07:14:35Z</time>
      </trkpt>
      <trkpt lat="48.69989" lon="5.43712">
        <ele>380.7</ele>
        <time>2020-06-30T07:14:36Z</time>
      </trkpt>
      <trkpt lat="48.69986" lon="5.43707">
        <ele>380.9</ele>
        <time>2020-06-30T07:14:37Z</time>
      </trkpt>
      <trkpt lat="48.69984" lon="5.43703">
        <ele>381</ele>
        <time>2020-06-30T07:14:38Z</time>
      </trkpt>
      <trkpt lat="48.69982" lon="5.437">
        <ele>381.1</ele>
        <time>2020-06-30T07:14:39Z</time>
      </trkpt>
      <trkpt lat="48.6998" lon="5.43695">
        <ele>381.3</ele>
        <time>2020-06-30T07:14:40Z</time>
      </trkpt>
      <trkpt lat="48.69979" lon="5.43693">
        <ele>381.3</ele>
        <time>2020-06-30T07:14:41Z</time>
      </trkpt>
      <trkpt lat="48.69977" lon="5.43689">
        <ele>381.5</ele>
        <time>2020-06-30T07:14:42Z</time>
      </trkpt>
      <trkpt lat="48.69975" lon="5.43685">
        <ele>381.6</ele>
        <time>2020-06-30T07:14:43Z</time>
      </trkpt>
      <trkpt lat="48.69973" lon="5.43682">
        <ele>381.7</ele>
        <time>2020-06-30T07:14:44Z</time>
      </trkpt>
      <trkpt lat="48.69971" lon="5.43678">
        <ele>381.8</ele>
        <time>2020-06-30T07:14:45Z</time>
      </trkpt>
      <trkpt lat="48.69969" lon="5.43674">
        <ele>381.9</ele>
        <time>2020-06-30T07:14:46Z</time>
      </trkpt>
      <trkpt lat="48.69967" lon="5.4367">
        <ele>382</ele>
        <time>2020-06-30T07:14:47Z</time>
      </trkpt>
      <trkpt lat="48.69965" lon="5.43666">
        <ele>382.1</ele>
        <time>2020-06-30T07:14:48Z</time>
      </trkpt>
      <trkpt lat="48.69963" lon="5.43662">
        <ele>382.2</ele>
        <time>2020-06-30T07:14:49Z</time>
      </trkpt>
      <trkpt lat="48.69961" lon="5.43658">
        <ele>382.2</ele>
        <time>2020-06-30T07:14:50Z</time>
      </trkpt>
      <trkpt lat="48.69959" lon="5.43654">
        <ele>382.3</ele>
        <time>2020-06-30T07:14:51Z</time>
      </trkpt>
      <trkpt lat="48.69957" lon="5.4365">
        <ele>382.4</ele>
        <time>2020-06-30T07:14:52Z</time>
      </trkpt>
      <trkpt lat="48.69954" lon="5.43646">
        <ele>382.5</ele>
        <time>2020-06-30T07:14:53Z</time>
      </trkpt>
      <trkpt lat="48.69952" lon="5.43642">
        <ele>382.7</ele>
        <time>2020-06-30T07:14:54Z</time>
      </trkpt>
      <trkpt lat="48.6995" lon="5.43638">
        <ele>382.8</ele>
        <time>2020-06-30T07:14:55Z</time>
      </trkpt>
      <trkpt lat="48.69948" lon="5.43634">
        <ele>382.9</ele>
        <time>2020-06-30T07:14:56Z</time>
      </trkpt>
      <trkpt lat="48.69946" lon="5.4363">
        <ele>383</ele>
        <time>2020-06-30T07:14:57Z</time>
      </trkpt>
      <trkpt lat="48.69943" lon="5.43626">
        <ele>383.1</ele>
        <time>2020-06-30T07:14:58Z</time>
      </trkpt>
      <trkpt lat="48.69941" lon="5.43622">
        <ele>383.2</ele>
        <time>2020-06-30T07:14:59Z</time>
      </trkpt>
      <trkpt lat="48.69939" lon="5.43618">
        <ele>383.4</ele>
        <time>2020-06-30T07:15:00Z</time>
      </trkpt>
      <trkpt lat="48.69936" lon="5.43613">
        <ele>383.5</ele>
        <time>2020-06-30T07:15:01Z</time>
      </trkpt>
      <trkpt lat="48.69934" lon="5.43609">
        <ele>383.7</ele>
        <time>2020-06-30T07:15:02Z</time>
      </trkpt>
      <trkpt lat="48.69932" lon="5.43605">
        <ele>383.8</ele>
        <time>2020-06-30T07:15:03Z</time>
      </trkpt>
      <trkpt lat="48.69929" lon="5.43601">
        <ele>384</ele>
        <time>2020-06-30T07:15:04Z</time>
      </trkpt>
      <trkpt lat="48.69927" lon="5.43598">
        <ele>384.1</ele>
        <time>2020-06-30T07:15:05Z</time>
      </trkpt>
      <trkpt lat="48.69924" lon="5.43594">
        <ele>384.2</ele>
        <time>2020-06-30T07:15:06Z</time>
      </trkpt>
      <trkpt lat="48.69922" lon="5.43591">
        <ele>384.4</ele>
        <time>2020-06-30T07:15:07Z</time>
      </trkpt>
      <trkpt lat="48.6992" lon="5.43587">
        <ele>384.5</ele>
        <time>2020-06-30T07:15:08Z</time>
      </trkpt>
      <trkpt lat="48.69917" lon="5.43584">
        <ele>384.6</ele>
        <time>2020-06-30T07:15:09Z</time>
      </trkpt>
      <trkpt lat="48.69915" lon="5.4358">
        <ele>384.7</ele>
        <time>2020-06-30T07:15:10Z</time>
      </trkpt>
      <trkpt lat="48.69912" lon="5.43577">
        <ele>384.9</ele>
        <time>2020-06-30T07:15:11Z</time>
      </trkpt>
      <trkpt lat="48.69909" lon="5.43575">
        <ele>385.1</ele>
        <time>2020-06-30T07:15:12Z</time>
      </trkpt>
      <trkpt lat="48.69906" lon="5.43573">
        <ele>385.2</ele>
        <time>2020-06-30T07:15:13Z</time>
      </trkpt>
      <trkpt lat="48.69904" lon="5.4357">
        <ele>385.3</ele>
        <time>2020-06-30T07:15:14Z</time>
      </trkpt>
      <trkpt lat="48.69902" lon="5.43567">
        <ele>385.5</ele>
        <time>2020-06-30T07:15:15Z</time>
      </trkpt>
      <trkpt lat="48.69899" lon="5.43564">
        <ele>385.6</ele>
        <time>2020-06-30T07:15:16Z</time>
      </trkpt>
      <trkpt lat="48.69897" lon="5.43561">
        <ele>385.7</ele>
        <time>2020-06-30T07:15:17Z</time>
      </trkpt>
      <trkpt lat="48.69893" lon="5.43558">
        <ele>385.9</ele>
        <time>2020-06-30T07:15:18Z</time>
      </trkpt>
      <trkpt lat="48.69892" lon="5.43557">
        <ele>386</ele>
        <time>2020-06-30T07:15:19Z</time>
      </trkpt>
      <trkpt lat="48.69889" lon="5.43554">
        <ele>386.1</ele>
        <time>2020-06-30T07:15:20Z</time>
      </trkpt>
      <trkpt lat="48.69887" lon="5.43551">
        <ele>386.2</ele>
        <time>2020-06-30T07:15:21Z</time>
      </trkpt>
      <trkpt lat="48.69884" lon="5.43548">
        <ele>386.4</ele>
        <time>2020-06-30T07:15:22Z</time>
      </trkpt>
      <trkpt lat="48.69882" lon="5.43546">
        <ele>386.5</ele>
        <time>2020-06-30T07:15:23Z</time>
      </trkpt>
      <trkpt lat="48.69879" lon="5.43541">
        <ele>386.6</ele>
        <time>2020-06-30T07:15:24Z</time>
      </trkpt>
      <trkpt lat="48.69878" lon="5.4354">
        <ele>386.6</ele>
        <time>2020-06-30T07:15:25Z</time>
      </trkpt>
      <trkpt lat="48.69875" lon="5.43536">
        <ele>386.8</ele>
        <time>2020-06-30T07:15:26Z</time>
      </trkpt>
      <trkpt lat="48.69873" lon="5.43535">
        <ele>386.8</ele>
        <time>2020-06-30T07:15:27Z</time>
      </trkpt>
      <trkpt lat="48.6987" lon="5.43531">
        <ele>387</ele>
        <time>2020-06-30T07:15:28Z</time>
      </trkpt>
      <trkpt lat="48.69867" lon="5.43529">
        <ele>387.1</ele>
        <time>2020-06-30T07:15:29Z</time>
      </trkpt>
      <trkpt lat="48.69865" lon="5.43527">
        <ele>387.2</ele>
        <time>2020-06-30T07:15:30Z</time>
      </trkpt>
      <trkpt lat="48.69862" lon="5.43524">
        <ele>387.2</ele>
        <time>2020-06-30T07:15:31Z</time>
      </trkpt>
      <trkpt lat="48.6986" lon="5.43521">
        <ele>387.3</ele>
        <time>2020-06-30T07:15:32Z</time>
      </trkpt>
      <trkpt lat="48.69857" lon="5.43519">
        <ele>387.4</ele>
        <time>2020-06-30T07:15:33Z</time>
      </trkpt>
      <trkpt lat="48.69854" lon="5.43516">
        <ele>387.5</ele>
        <time>2020-06-30T07:15:34Z</time>
      </trkpt>
      <trkpt lat="48.69852" lon="5.43514">
        <ele>387.5</ele>
        <time>2020-06-30T07:15:35Z</time>
      </trkpt>
      <trkpt lat="48.69849" lon="5.43512">
        <ele>387.6</ele>
        <time>2020-06-30T07:15:36Z</time>
      </trkpt>
      <trkpt lat="48.69846" lon="5.43509">
        <ele>387.6</ele>
        <time>2020-06-30T07:15:37Z</time>
      </trkpt>
      <trkpt lat="48.69843" lon="5.43507">
        <ele>387.7</ele>
        <time>2020-06-30T07:15:38Z</time>
      </trkpt>
      <trkpt lat="48.6984" lon="5.43505">
        <ele>387.7</ele>
        <time>2020-06-30T07:15:39Z</time>
      </trkpt>
      <trkpt lat="48.69837" lon="5.43501">
        <ele>387.7</ele>
        <time>2020-06-30T07:15:40Z</time>
      </trkpt>
      <trkpt lat="48.69835" lon="5.43498">
        <ele>387.6</ele>
        <time>2020-06-30T07:15:41Z</time>
      </trkpt>
      <trkpt lat="48.69832" lon="5.43494">
        <ele>387.6</ele>
        <time>2020-06-30T07:15:42Z</time>
      </trkpt>
      <trkpt lat="48.69828" lon="5.43491">
        <ele>387.6</ele>
        <time>2020-06-30T07:15:43Z</time>
      </trkpt>
      <trkpt lat="48.69825" lon="5.43487">
        <ele>387.5</ele>
        <time>2020-06-30T07:15:44Z</time>
      </trkpt>
      <trkpt lat="48.69822" lon="5.43483">
        <ele>387.5</ele>
        <time>2020-06-30T07:15:45Z</time>
      </trkpt>
      <trkpt lat="48.69818" lon="5.43479">
        <ele>387.4</ele>
        <time>2020-06-30T07:15:46Z</time>
      </trkpt>
      <trkpt lat="48.69815" lon="5.43475">
        <ele>387.4</ele>
        <time>2020-06-30T07:15:47Z</time>
      </trkpt>
      <trkpt lat="48.69812" lon="5.43471">
        <ele>387.3</ele>
        <time>2020-06-30T07:15:48Z</time>
      </trkpt>
      <trkpt lat="48.69809" lon="5.43469">
        <ele>387.3</ele>
        <time>2020-06-30T07:15:49Z</time>
      </trkpt>
      <trkpt lat="48.69806" lon="5.43466">
        <ele>387.3</ele>
        <time>2020-06-30T07:15:50Z</time>
      </trkpt>
      <trkpt lat="48.69803" lon="5.43463">
        <ele>387.2</ele>
        <time>2020-06-30T07:15:51Z</time>
      </trkpt>
      <trkpt lat="48.698" lon="5.43459">
        <ele>387.2</ele>
        <time>2020-06-30T07:15:52Z</time>
      </trkpt>
      <trkpt lat="48.69796" lon="5.43455">
        <ele>387.1</ele>
        <time>2020-06-30T07:15:53Z</time>
      </trkpt>
      <trkpt lat="48.69792" lon="5.43452">
        <ele>387</ele>
        <time>2020-06-30T07:15:54Z</time>
      </trkpt>
      <trkpt lat="48.69788" lon="5.43449">
        <ele>386.8</ele>
        <time>2020-06-30T07:15:55Z</time>
      </trkpt>
      <trkpt lat="48.69784" lon="5.43446">
        <ele>386.7</ele>
        <time>2020-06-30T07:15:56Z</time>
      </trkpt>
      <trkpt lat="48.69781" lon="5.43442">
        <ele>386.6</ele>
        <time>2020-06-30T07:15:57Z</time>
      </trkpt>
      <trkpt lat="48.69778" lon="5.4344">
        <ele>386.5</ele>
        <time>2020-06-30T07:15:58Z</time>
      </trkpt>
      <trkpt lat="48.69775" lon="5.43436">
        <ele>386.4</ele>
        <time>2020-06-30T07:15:59Z</time>
      </trkpt>
      <trkpt lat="48.69771" lon="5.43433">
        <ele>386.3</ele>
        <time>2020-06-30T07:16:00Z</time>
      </trkpt>
      <trkpt lat="48.69768" lon="5.43429">
        <ele>386.2</ele>
        <time>2020-06-30T07:16:01Z</time>
      </trkpt>
      <trkpt lat="48.69764" lon="5.43425">
        <ele>386</ele>
        <time>2020-06-30T07:16:02Z</time>
      </trkpt>
      <trkpt lat="48.6976" lon="5.4342">
        <ele>385.9</ele>
        <time>2020-06-30T07:16:03Z</time>
      </trkpt>
      <trkpt lat="48.69756" lon="5.43416">
        <ele>385.8</ele>
        <time>2020-06-30T07:16:04Z</time>
      </trkpt>
      <trkpt lat="48.69752" lon="5.43411">
        <ele>385.6</ele>
        <time>2020-06-30T07:16:05Z</time>
      </trkpt>
      <trkpt lat="48.69747" lon="5.43406">
        <ele>385.5</ele>
        <time>2020-06-30T07:16:06Z</time>
      </trkpt>
      <trkpt lat="48.69743" lon="5.43401">
        <ele>385.3</ele>
        <time>2020-06-30T07:16:07Z</time>
      </trkpt>
      <trkpt lat="48.69738" lon="5.43395">
        <ele>385.1</ele>
        <time>2020-06-30T07:16:08Z</time>
      </trkpt>
      <trkpt lat="48.69734" lon="5.4339">
        <ele>384.8</ele>
        <time>2020-06-30T07:16:09Z</time>
      </trkpt>
      <trkpt lat="48.69729" lon="5.43384">
        <ele>384.6</ele>
        <time>2020-06-30T07:16:10Z</time>
      </trkpt>
      <trkpt lat="48.69725" lon="5.43379">
        <ele>384.4</ele>
        <time>2020-06-30T07:16:11Z</time>
      </trkpt>
      <trkpt lat="48.6972" lon="5.43374">
        <ele>384.2</ele>
        <time>2020-06-30T07:16:12Z</time>
      </trkpt>
      <trkpt lat="48.69716" lon="5.4337">
        <ele>384</ele>
        <time>2020-06-30T07:16:13Z</time>
      </trkpt>
      <trkpt lat="48.69712" lon="5.43365">
        <ele>383.9</ele>
        <time>2020-06-30T07:16:14Z</time>
      </trkpt>
      <trkpt lat="48.69708" lon="5.4336">
        <ele>383.7</ele>
        <time>2020-06-30T07:16:15Z</time>
      </trkpt>
      <trkpt lat="48.69704" lon="5.43356">
        <ele>383.6</ele>
        <time>2020-06-30T07:16:16Z</time>
      </trkpt>
      <trkpt lat="48.697" lon="5.43352">
        <ele>383.4</ele>
        <time>2020-06-30T07:16:17Z</time>
      </trkpt>
      <trkpt lat="48.69695" lon="5.43348">
        <ele>383.2</ele>
        <time>2020-06-30T07:16:18Z</time>
      </trkpt>
      <trkpt lat="48.69692" lon="5.43343">
        <ele>383.1</ele>
        <time>2020-06-30T07:16:19Z</time>
      </trkpt>
      <trkpt lat="48.69688" lon="5.43338">
        <ele>382.9</ele>
        <time>2020-06-30T07:16:20Z</time>
      </trkpt>
      <trkpt lat="48.69684" lon="5.43334">
        <ele>382.7</ele>
        <time>2020-06-30T07:16:21Z</time>
      </trkpt>
      <trkpt lat="48.69681" lon="5.4333">
        <ele>382.5</ele>
        <time>2020-06-30T07:16:22Z</time>
      </trkpt>
      <trkpt lat="48.69677" lon="5.43327">
        <ele>382.4</ele>
        <time>2020-06-30T07:16:23Z</time>
      </trkpt>
      <trkpt lat="48.69673" lon="5.43323">
        <ele>382.1</ele>
        <time>2020-06-30T07:16:24Z</time>
      </trkpt>
      <trkpt lat="48.69669" lon="5.43319">
        <ele>381.9</ele>
        <time>2020-06-30T07:16:25Z</time>
      </trkpt>
      <trkpt lat="48.69665" lon="5.43315">
        <ele>381.7</ele>
        <time>2020-06-30T07:16:26Z</time>
      </trkpt>
      <trkpt lat="48.69661" lon="5.43309">
        <ele>381.5</ele>
        <time>2020-06-30T07:16:27Z</time>
      </trkpt>
      <trkpt lat="48.69658" lon="5.43303">
        <ele>381.2</ele>
        <time>2020-06-30T07:16:28Z</time>
      </trkpt>
      <trkpt lat="48.69655" lon="5.43295">
        <ele>380.9</ele>
        <time>2020-06-30T07:16:29Z</time>
      </trkpt>
      <trkpt lat="48.6965" lon="5.43287">
        <ele>380.4</ele>
        <time>2020-06-30T07:16:30Z</time>
      </trkpt>
      <trkpt lat="48.69646" lon="5.4328">
        <ele>379.9</ele>
        <time>2020-06-30T07:16:31Z</time>
      </trkpt>
      <trkpt lat="48.69642" lon="5.43273">
        <ele>379.4</ele>
        <time>2020-06-30T07:16:32Z</time>
      </trkpt>
      <trkpt lat="48.69637" lon="5.43265">
        <ele>378.9</ele>
        <time>2020-06-30T07:16:33Z</time>
      </trkpt>
      <trkpt lat="48.69632" lon="5.43255">
        <ele>378.3</ele>
        <time>2020-06-30T07:16:34Z</time>
      </trkpt>
      <trkpt lat="48.69627" lon="5.43246">
        <ele>377.7</ele>
        <time>2020-06-30T07:16:35Z</time>
      </trkpt>
      <trkpt lat="48.69622" lon="5.43236">
        <ele>377</ele>
        <time>2020-06-30T07:16:36Z</time>
      </trkpt>
      <trkpt lat="48.69617" lon="5.43226">
        <ele>376.4</ele>
        <time>2020-06-30T07:16:37Z</time>
      </trkpt>
      <trkpt lat="48.69612" lon="5.43216">
        <ele>375.7</ele>
        <time>2020-06-30T07:16:38Z</time>
      </trkpt>
      <trkpt lat="48.69606" lon="5.43206">
        <ele>375.1</ele>
        <time>2020-06-30T07:16:39Z</time>
      </trkpt>
      <trkpt lat="48.69601" lon="5.43197">
        <ele>374.4</ele>
        <time>2020-06-30T07:16:40Z</time>
      </trkpt>
      <trkpt lat="48.69595" lon="5.43187">
        <ele>373.6</ele>
        <time>2020-06-30T07:16:41Z</time>
      </trkpt>
      <trkpt lat="48.69588" lon="5.43178">
        <ele>372.8</ele>
        <time>2020-06-30T07:16:42Z</time>
      </trkpt>
      <trkpt lat="48.69581" lon="5.43169">
        <ele>371.9</ele>
        <time>2020-06-30T07:16:43Z</time>
      </trkpt>
      <trkpt lat="48.69575" lon="5.4316">
        <ele>370.9</ele>
        <time>2020-06-30T07:16:44Z</time>
      </trkpt>
      <trkpt lat="48.69568" lon="5.4315">
        <ele>369.9</ele>
        <time>2020-06-30T07:16:45Z</time>
      </trkpt>
      <trkpt lat="48.69561" lon="5.43139">
        <ele>368.8</ele>
        <time>2020-06-30T07:16:46Z</time>
      </trkpt>
      <trkpt lat="48.69554" lon="5.43128">
        <ele>367.8</ele>
        <time>2020-06-30T07:16:47Z</time>
      </trkpt>
      <trkpt lat="48.69547" lon="5.43118">
        <ele>366.8</ele>
        <time>2020-06-30T07:16:48Z</time>
      </trkpt>
      <trkpt lat="48.69539" lon="5.43107">
        <ele>365.8</ele>
        <time>2020-06-30T07:16:49Z</time>
      </trkpt>
      <trkpt lat="48.69531" lon="5.43097">
        <ele>364.8</ele>
        <time>2020-06-30T07:16:50Z</time>
      </trkpt>
      <trkpt lat="48.69522" lon="5.43087">
        <ele>363.8</ele>
        <time>2020-06-30T07:16:51Z</time>
      </trkpt>
      <trkpt lat="48.69513" lon="5.43078">
        <ele>363</ele>
        <time>2020-06-30T07:16:52Z</time>
      </trkpt>
      <trkpt lat="48.69504" lon="5.43069">
        <ele>362.2</ele>
        <time>2020-06-30T07:16:53Z</time>
      </trkpt>
      <trkpt lat="48.69494" lon="5.43062">
        <ele>361.5</ele>
        <time>2020-06-30T07:16:54Z</time>
      </trkpt>
      <trkpt lat="48.69484" lon="5.43057">
        <ele>360.8</ele>
        <time>2020-06-30T07:16:55Z</time>
      </trkpt>
      <trkpt lat="48.69474" lon="5.43052">
        <ele>360</ele>
        <time>2020-06-30T07:16:56Z</time>
      </trkpt>
      <trkpt lat="48.69463" lon="5.43049">
        <ele>359.3</ele>
        <time>2020-06-30T07:16:57Z</time>
      </trkpt>
      <trkpt lat="48.69452" lon="5.43047">
        <ele>358.5</ele>
        <time>2020-06-30T07:16:58Z</time>
      </trkpt>
      <trkpt lat="48.69441" lon="5.43044">
        <ele>357.8</ele>
        <time>2020-06-30T07:16:59Z</time>
      </trkpt>
      <trkpt lat="48.6943" lon="5.43041">
        <ele>357.1</ele>
        <time>2020-06-30T07:17:00Z</time>
      </trkpt>
      <trkpt lat="48.69419" lon="5.43039">
        <ele>356.4</ele>
        <time>2020-06-30T07:17:01Z</time>
      </trkpt>
      <trkpt lat="48.69408" lon="5.43037">
        <ele>355.9</ele>
        <time>2020-06-30T07:17:02Z</time>
      </trkpt>
      <trkpt lat="48.69398" lon="5.43033">
        <ele>355.3</ele>
        <time>2020-06-30T07:17:03Z</time>
      </trkpt>
      <trkpt lat="48.69389" lon="5.43027">
        <ele>354.7</ele>
        <time>2020-06-30T07:17:04Z</time>
      </trkpt>
      <trkpt lat="48.69379" lon="5.43023">
        <ele>354.2</ele>
        <time>2020-06-30T07:17:05Z</time>
      </trkpt>
      <trkpt lat="48.6937" lon="5.43018">
        <ele>353.8</ele>
        <time>2020-06-30T07:17:06Z</time>
      </trkpt>
      <trkpt lat="48.6936" lon="5.43013">
        <ele>353.3</ele>
        <time>2020-06-30T07:17:07Z</time>
      </trkpt>
      <trkpt lat="48.6935" lon="5.43008">
        <ele>352.8</ele>
        <time>2020-06-30T07:17:08Z</time>
      </trkpt>
      <trkpt lat="48.6934" lon="5.43002">
        <ele>352.3</ele>
        <time>2020-06-30T07:17:09Z</time>
      </trkpt>
      <trkpt lat="48.69331" lon="5.42997">
        <ele>351.9</ele>
        <time>2020-06-30T07:17:10Z</time>
      </trkpt>
      <trkpt lat="48.69322" lon="5.42992">
        <ele>351.4</ele>
        <time>2020-06-30T07:17:11Z</time>
      </trkpt>
      <trkpt lat="48.69312" lon="5.42987">
        <ele>350.9</ele>
        <time>2020-06-30T07:17:12Z</time>
      </trkpt>
      <trkpt lat="48.69303" lon="5.42981">
        <ele>350.3</ele>
        <time>2020-06-30T07:17:13Z</time>
      </trkpt>
      <trkpt lat="48.69294" lon="5.42977">
        <ele>349.9</ele>
        <time>2020-06-30T07:17:14Z</time>
      </trkpt>
      <trkpt lat="48.69285" lon="5.42972">
        <ele>349.5</ele>
        <time>2020-06-30T07:17:15Z</time>
      </trkpt>
      <trkpt lat="48.69278" lon="5.42966">
        <ele>349.1</ele>
        <time>2020-06-30T07:17:16Z</time>
      </trkpt>
      <trkpt lat="48.69271" lon="5.4296">
        <ele>348.7</ele>
        <time>2020-06-30T07:17:17Z</time>
      </trkpt>
      <trkpt lat="48.69264" lon="5.42953">
        <ele>348.3</ele>
        <time>2020-06-30T07:17:18Z</time>
      </trkpt>
      <trkpt lat="48.69256" lon="5.42945">
        <ele>348.7</ele>
        <time>2020-06-30T07:17:19Z</time>
      </trkpt>
      <trkpt lat="48.69249" lon="5.42936">
        <ele>349.1</ele>
        <time>2020-06-30T07:17:20Z</time>
      </trkpt>
      <trkpt lat="48.69241" lon="5.42927">
        <ele>349.3</ele>
        <time>2020-06-30T07:17:21Z</time>
      </trkpt>
      <trkpt lat="48.69233" lon="5.42917">
        <ele>348.9</ele>
        <time>2020-06-30T07:17:22Z</time>
      </trkpt>
      <trkpt lat="48.69226" lon="5.42905">
        <ele>348.2</ele>
        <time>2020-06-30T07:17:23Z</time>
      </trkpt>
      <trkpt lat="48.69218" lon="5.42895">
        <ele>347.7</ele>
        <time>2020-06-30T07:17:24Z</time>
      </trkpt>
      <trkpt lat="48.69211" lon="5.42885">
        <ele>347.4</ele>
        <time>2020-06-30T07:17:25Z</time>
      </trkpt>
      <trkpt lat="48.69205" lon="5.42875">
        <ele>347.1</ele>
        <time>2020-06-30T07:17:26Z</time>
      </trkpt>
      <trkpt lat="48.69198" lon="5.42864">
        <ele>346.6</ele>
        <time>2020-06-30T07:17:27Z</time>
      </trkpt>
      <trkpt lat="48.69192" lon="5.4285">
        <ele>345.9</ele>
        <time>2020-06-30T07:17:28Z</time>
      </trkpt>
      <trkpt lat="48.69186" lon="5.42837">
        <ele>345.1</ele>
        <time>2020-06-30T07:17:29Z</time>
      </trkpt>
      <trkpt lat="48.6918" lon="5.42824">
        <ele>344.3</ele>
        <time>2020-06-30T07:17:30Z</time>
      </trkpt>
      <trkpt lat="48.69172" lon="5.42812">
        <ele>343.7</ele>
        <time>2020-06-30T07:17:31Z</time>
      </trkpt>
      <trkpt lat="48.69168" lon="5.42797">
        <ele>343.1</ele>
        <time>2020-06-30T07:17:32Z</time>
      </trkpt>
      <trkpt lat="48.69167" lon="5.42782">
        <ele>342.5</ele>
        <time>2020-06-30T07:17:33Z</time>
      </trkpt>
      <trkpt lat="48.69165" lon="5.42768">
        <ele>341.9</ele>
        <time>2020-06-30T07:17:34Z</time>
      </trkpt>
      <trkpt lat="48.69162" lon="5.42752">
        <ele>341.3</ele>
        <time>2020-06-30T07:17:35Z</time>
      </trkpt>
      <trkpt lat="48.6916" lon="5.42735">
        <ele>340.9</ele>
        <time>2020-06-30T07:17:36Z</time>
      </trkpt>
      <trkpt lat="48.69158" lon="5.4272">
        <ele>340.5</ele>
        <time>2020-06-30T07:17:37Z</time>
      </trkpt>
      <trkpt lat="48.69156" lon="5.42704">
        <ele>340</ele>
        <time>2020-06-30T07:17:38Z</time>
      </trkpt>
      <trkpt lat="48.69155" lon="5.42681">
        <ele>339.1</ele>
        <time>2020-06-30T07:17:39Z</time>
      </trkpt>
      <trkpt lat="48.69154" lon="5.42664">
        <ele>338.5</ele>
        <time>2020-06-30T07:17:40Z</time>
      </trkpt>
      <trkpt lat="48.69152" lon="5.42649">
        <ele>337.9</ele>
        <time>2020-06-30T07:17:41Z</time>
      </trkpt>
      <trkpt lat="48.69149" lon="5.42634">
        <ele>337.3</ele>
        <time>2020-06-30T07:17:42Z</time>
      </trkpt>
      <trkpt lat="48.69147" lon="5.42619">
        <ele>336.7</ele>
        <time>2020-06-30T07:17:43Z</time>
      </trkpt>
      <trkpt lat="48.69144" lon="5.42605">
        <ele>336.2</ele>
        <time>2020-06-30T07:17:44Z</time>
      </trkpt>
      <trkpt lat="48.69141" lon="5.42591">
        <ele>335.6</ele>
        <time>2020-06-30T07:17:45Z</time>
      </trkpt>
      <trkpt lat="48.69139" lon="5.42573">
        <ele>334.9</ele>
        <time>2020-06-30T07:17:46Z</time>
      </trkpt>
      <trkpt lat="48.69137" lon="5.42558">
        <ele>334.3</ele>
        <time>2020-06-30T07:17:47Z</time>
      </trkpt>
      <trkpt lat="48.69134" lon="5.42542">
        <ele>333.8</ele>
        <time>2020-06-30T07:17:48Z</time>
      </trkpt>
      <trkpt lat="48.69131" lon="5.42529">
        <ele>333.4</ele>
        <time>2020-06-30T07:17:49Z</time>
      </trkpt>
      <trkpt lat="48.69129" lon="5.42515">
        <ele>333</ele>
        <time>2020-06-30T07:17:50Z</time>
      </trkpt>
      <trkpt lat="48.69127" lon="5.42501">
        <ele>332.5</ele>
        <time>2020-06-30T07:17:51Z</time>
      </trkpt>
      <trkpt lat="48.69125" lon="5.42488">
        <ele>332.1</ele>
        <time>2020-06-30T07:17:52Z</time>
      </trkpt>
      <trkpt lat="48.69122" lon="5.42474">
        <ele>331.6</ele>
        <time>2020-06-30T07:17:53Z</time>
      </trkpt>
      <trkpt lat="48.69119" lon="5.42461">
        <ele>331</ele>
        <time>2020-06-30T07:17:54Z</time>
      </trkpt>
      <trkpt lat="48.69117" lon="5.42446">
        <ele>330.4</ele>
        <time>2020-06-30T07:17:55Z</time>
      </trkpt>
      <trkpt lat="48.69114" lon="5.42433">
        <ele>330</ele>
        <time>2020-06-30T07:17:56Z</time>
      </trkpt>
      <trkpt lat="48.69112" lon="5.4242">
        <ele>329.8</ele>
        <time>2020-06-30T07:17:57Z</time>
      </trkpt>
      <trkpt lat="48.69108" lon="5.42406">
        <ele>329.6</ele>
        <time>2020-06-30T07:17:58Z</time>
      </trkpt>
      <trkpt lat="48.69105" lon="5.4239">
        <ele>329.2</ele>
        <time>2020-06-30T07:17:59Z</time>
      </trkpt>
      <trkpt lat="48.69101" lon="5.42376">
        <ele>328.9</ele>
        <time>2020-06-30T07:18:00Z</time>
      </trkpt>
      <trkpt lat="48.69097" lon="5.42361">
        <ele>328.6</ele>
        <time>2020-06-30T07:18:01Z</time>
      </trkpt>
      <trkpt lat="48.69094" lon="5.42346">
        <ele>328.1</ele>
        <time>2020-06-30T07:18:02Z</time>
      </trkpt>
      <trkpt lat="48.69091" lon="5.4233">
        <ele>327.7</ele>
        <time>2020-06-30T07:18:03Z</time>
      </trkpt>
      <trkpt lat="48.69088" lon="5.42315">
        <ele>327.6</ele>
        <time>2020-06-30T07:18:04Z</time>
      </trkpt>
      <trkpt lat="48.69085" lon="5.42301">
        <ele>327.5</ele>
        <time>2020-06-30T07:18:05Z</time>
      </trkpt>
      <trkpt lat="48.69081" lon="5.42289">
        <ele>327.3</ele>
        <time>2020-06-30T07:18:06Z</time>
      </trkpt>
      <trkpt lat="48.69078" lon="5.42277">
        <ele>327.2</ele>
        <time>2020-06-30T07:18:07Z</time>
      </trkpt>
      <trkpt lat="48.69075" lon="5.42266">
        <ele>327.2</ele>
        <time>2020-06-30T07:18:08Z</time>
      </trkpt>
      <trkpt lat="48.69071" lon="5.42255">
        <ele>327.2</ele>
        <time>2020-06-30T07:18:09Z</time>
      </trkpt>
      <trkpt lat="48.69067" lon="5.42245">
        <ele>327.1</ele>
        <time>2020-06-30T07:18:10Z</time>
      </trkpt>
      <trkpt lat="48.69064" lon="5.42235">
        <ele>327.1</ele>
        <time>2020-06-30T07:18:11Z</time>
      </trkpt>
      <trkpt lat="48.69061" lon="5.42226">
        <ele>327</ele>
        <time>2020-06-30T07:18:12Z</time>
      </trkpt>
      <trkpt lat="48.69058" lon="5.42217">
        <ele>327</ele>
        <time>2020-06-30T07:18:13Z</time>
      </trkpt>
      <trkpt lat="48.69054" lon="5.42208">
        <ele>327</ele>
        <time>2020-06-30T07:18:14Z</time>
      </trkpt>
      <trkpt lat="48.69051" lon="5.422">
        <ele>327</ele>
        <time>2020-06-30T07:18:15Z</time>
      </trkpt>
      <trkpt lat="48.69047" lon="5.42193">
        <ele>327</ele>
        <time>2020-06-30T07:18:16Z</time>
      </trkpt>
      <trkpt lat="48.69044" lon="5.42185">
        <ele>326.9</ele>
        <time>2020-06-30T07:18:17Z</time>
      </trkpt>
      <trkpt lat="48.6904" lon="5.42178">
        <ele>326.8</ele>
        <time>2020-06-30T07:18:18Z</time>
      </trkpt>
      <trkpt lat="48.69035" lon="5.4217">
        <ele>326.5</ele>
        <time>2020-06-30T07:18:19Z</time>
      </trkpt>
      <trkpt lat="48.6903" lon="5.42161">
        <ele>326.2</ele>
        <time>2020-06-30T07:18:20Z</time>
      </trkpt>
      <trkpt lat="48.69026" lon="5.42153">
        <ele>325.8</ele>
        <time>2020-06-30T07:18:21Z</time>
      </trkpt>
      <trkpt lat="48.69022" lon="5.42145">
        <ele>325.4</ele>
        <time>2020-06-30T07:18:22Z</time>
      </trkpt>
      <trkpt lat="48.69017" lon="5.42138">
        <ele>325</ele>
        <time>2020-06-30T07:18:23Z</time>
      </trkpt>
      <trkpt lat="48.69011" lon="5.42131">
        <ele>324.6</ele>
        <time>2020-06-30T07:18:24Z</time>
      </trkpt>
      <trkpt lat="48.69006" lon="5.42125">
        <ele>324.1</ele>
        <time>2020-06-30T07:18:25Z</time>
      </trkpt>
      <trkpt lat="48.69" lon="5.42119">
        <ele>323.6</ele>
        <time>2020-06-30T07:18:26Z</time>
      </trkpt>
      <trkpt lat="48.68993" lon="5.42114">
        <ele>323.2</ele>
        <time>2020-06-30T07:18:27Z</time>
      </trkpt>
      <trkpt lat="48.68987" lon="5.42108">
        <ele>322.8</ele>
        <time>2020-06-30T07:18:28Z</time>
      </trkpt>
      <trkpt lat="48.6898" lon="5.42103">
        <ele>322.3</ele>
        <time>2020-06-30T07:18:29Z</time>
      </trkpt>
      <trkpt lat="48.68973" lon="5.42097">
        <ele>321.8</ele>
        <time>2020-06-30T07:18:30Z</time>
      </trkpt>
      <trkpt lat="48.68966" lon="5.42092">
        <ele>321.2</ele>
        <time>2020-06-30T07:18:31Z</time>
      </trkpt>
      <trkpt lat="48.68959" lon="5.42086">
        <ele>320.6</ele>
        <time>2020-06-30T07:18:32Z</time>
      </trkpt>
      <trkpt lat="48.68951" lon="5.42082">
        <ele>319.9</ele>
        <time>2020-06-30T07:18:33Z</time>
      </trkpt>
      <trkpt lat="48.68944" lon="5.42077">
        <ele>319.3</ele>
        <time>2020-06-30T07:18:34Z</time>
      </trkpt>
      <trkpt lat="48.68936" lon="5.42073">
        <ele>318.8</ele>
        <time>2020-06-30T07:18:35Z</time>
      </trkpt>
      <trkpt lat="48.68928" lon="5.42069">
        <ele>318.4</ele>
        <time>2020-06-30T07:18:36Z</time>
      </trkpt>
      <trkpt lat="48.6892" lon="5.42064">
        <ele>317.9</ele>
        <time>2020-06-30T07:18:37Z</time>
      </trkpt>
      <trkpt lat="48.68913" lon="5.42059">
        <ele>317.2</ele>
        <time>2020-06-30T07:18:38Z</time>
      </trkpt>
      <trkpt lat="48.68906" lon="5.42055">
        <ele>316.7</ele>
        <time>2020-06-30T07:18:39Z</time>
      </trkpt>
      <trkpt lat="48.68898" lon="5.42051">
        <ele>316.3</ele>
        <time>2020-06-30T07:18:40Z</time>
      </trkpt>
      <trkpt lat="48.6889" lon="5.42047">
        <ele>315.8</ele>
        <time>2020-06-30T07:18:41Z</time>
      </trkpt>
      <trkpt lat="48.68883" lon="5.42043">
        <ele>315.5</ele>
        <time>2020-06-30T07:18:42Z</time>
      </trkpt>
      <trkpt lat="48.68875" lon="5.42038">
        <ele>315</ele>
        <time>2020-06-30T07:18:43Z</time>
      </trkpt>
      <trkpt lat="48.68868" lon="5.42034">
        <ele>314.6</ele>
        <time>2020-06-30T07:18:44Z</time>
      </trkpt>
      <trkpt lat="48.6886" lon="5.4203">
        <ele>314.1</ele>
        <time>2020-06-30T07:18:45Z</time>
      </trkpt>
      <trkpt lat="48.68852" lon="5.42026">
        <ele>313.7</ele>
        <time>2020-06-30T07:18:46Z</time>
      </trkpt>
      <trkpt lat="48.68844" lon="5.42022">
        <ele>313.3</ele>
        <time>2020-06-30T07:18:47Z</time>
      </trkpt>
      <trkpt lat="48.68836" lon="5.42017">
        <ele>312.7</ele>
        <time>2020-06-30T07:18:48Z</time>
      </trkpt>
      <trkpt lat="48.68828" lon="5.42013">
        <ele>312.2</ele>
        <time>2020-06-30T07:18:49Z</time>
      </trkpt>
      <trkpt lat="48.6882" lon="5.42009">
        <ele>311.7</ele>
        <time>2020-06-30T07:18:50Z</time>
      </trkpt>
      <trkpt lat="48.68812" lon="5.42004">
        <ele>311.4</ele>
        <time>2020-06-30T07:18:51Z</time>
      </trkpt>
      <trkpt lat="48.68805" lon="5.41999">
        <ele>311.2</ele>
        <time>2020-06-30T07:18:52Z</time>
      </trkpt>
      <trkpt lat="48.68797" lon="5.41994">
        <ele>311.1</ele>
        <time>2020-06-30T07:18:53Z</time>
      </trkpt>
      <trkpt lat="48.6879" lon="5.4199">
        <ele>310.9</ele>
        <time>2020-06-30T07:18:54Z</time>
      </trkpt>
      <trkpt lat="48.68783" lon="5.41985">
        <ele>310.8</ele>
        <time>2020-06-30T07:18:55Z</time>
      </trkpt>
      <trkpt lat="48.68776" lon="5.41979">
        <ele>310.8</ele>
        <time>2020-06-30T07:18:56Z</time>
      </trkpt>
      <trkpt lat="48.68769" lon="5.41973">
        <ele>310.8</ele>
        <time>2020-06-30T07:18:57Z</time>
      </trkpt>
      <trkpt lat="48.68763" lon="5.41967">
        <ele>311</ele>
        <time>2020-06-30T07:18:58Z</time>
      </trkpt>
      <trkpt lat="48.68757" lon="5.4196">
        <ele>311.8</ele>
        <time>2020-06-30T07:18:59Z</time>
      </trkpt>
      <trkpt lat="48.68751" lon="5.41953">
        <ele>313.3</ele>
        <time>2020-06-30T07:19:00Z</time>
      </trkpt>
      <trkpt lat="48.68746" lon="5.41946">
        <ele>314.1</ele>
        <time>2020-06-30T07:19:01Z</time>
      </trkpt>
      <trkpt lat="48.6874" lon="5.4194">
        <ele>314.4</ele>
        <time>2020-06-30T07:19:02Z</time>
      </trkpt>
      <trkpt lat="48.68735" lon="5.41933">
        <ele>314.5</ele>
        <time>2020-06-30T07:19:03Z</time>
      </trkpt>
      <trkpt lat="48.6873" lon="5.41926">
        <ele>314.4</ele>
        <time>2020-06-30T07:19:04Z</time>
      </trkpt>
      <trkpt lat="48.68724" lon="5.4192">
        <ele>314.3</ele>
        <time>2020-06-30T07:19:05Z</time>
      </trkpt>
      <trkpt lat="48.68718" lon="5.41914">
        <ele>314.2</ele>
        <time>2020-06-30T07:19:06Z</time>
      </trkpt>
      <trkpt lat="48.68712" lon="5.41907">
        <ele>314</ele>
        <time>2020-06-30T07:19:07Z</time>
      </trkpt>
      <trkpt lat="48.68707" lon="5.419">
        <ele>313.9</ele>
        <time>2020-06-30T07:19:08Z</time>
      </trkpt>
      <trkpt lat="48.68701" lon="5.41893">
        <ele>313.8</ele>
        <time>2020-06-30T07:19:09Z</time>
      </trkpt>
      <trkpt lat="48.68696" lon="5.41886">
        <ele>313.6</ele>
        <time>2020-06-30T07:19:10Z</time>
      </trkpt>
      <trkpt lat="48.68692" lon="5.41879">
        <ele>313.4</ele>
        <time>2020-06-30T07:19:11Z</time>
      </trkpt>
      <trkpt lat="48.68687" lon="5.41871">
        <ele>313.2</ele>
        <time>2020-06-30T07:19:12Z</time>
      </trkpt>
      <trkpt lat="48.68682" lon="5.41864">
        <ele>313</ele>
        <time>2020-06-30T07:19:13Z</time>
      </trkpt>
      <trkpt lat="48.68677" lon="5.41857">
        <ele>312.9</ele>
        <time>2020-06-30T07:19:14Z</time>
      </trkpt>
      <trkpt lat="48.68672" lon="5.4185">
        <ele>312.7</ele>
        <time>2020-06-30T07:19:15Z</time>
      </trkpt>
      <trkpt lat="48.68667" lon="5.41843">
        <ele>312.5</ele>
        <time>2020-06-30T07:19:16Z</time>
      </trkpt>
      <trkpt lat="48.68662" lon="5.41836">
        <ele>312.3</ele>
        <time>2020-06-30T07:19:17Z</time>
      </trkpt>
      <trkpt lat="48.68658" lon="5.4183">
        <ele>312.1</ele>
        <time>2020-06-30T07:19:18Z</time>
      </trkpt>
      <trkpt lat="48.68653" lon="5.41824">
        <ele>312</ele>
        <time>2020-06-30T07:19:19Z</time>
      </trkpt>
      <trkpt lat="48.68648" lon="5.41817">
        <ele>311.8</ele>
        <time>2020-06-30T07:19:20Z</time>
      </trkpt>
      <trkpt lat="48.68644" lon="5.4181">
        <ele>311.5</ele>
        <time>2020-06-30T07:19:21Z</time>
      </trkpt>
      <trkpt lat="48.6864" lon="5.41803">
        <ele>311.3</ele>
        <time>2020-06-30T07:19:22Z</time>
      </trkpt>
      <trkpt lat="48.68635" lon="5.41796">
        <ele>311</ele>
        <time>2020-06-30T07:19:23Z</time>
      </trkpt>
      <trkpt lat="48.68631" lon="5.41789">
        <ele>310.8</ele>
        <time>2020-06-30T07:19:24Z</time>
      </trkpt>
      <trkpt lat="48.68627" lon="5.41782">
        <ele>310.5</ele>
        <time>2020-06-30T07:19:25Z</time>
      </trkpt>
      <trkpt lat="48.68624" lon="5.41774">
        <ele>310.3</ele>
        <time>2020-06-30T07:19:26Z</time>
      </trkpt>
      <trkpt lat="48.6862" lon="5.41766">
        <ele>310.1</ele>
        <time>2020-06-30T07:19:27Z</time>
      </trkpt>
      <trkpt lat="48.68616" lon="5.41757">
        <ele>309.8</ele>
        <time>2020-06-30T07:19:28Z</time>
      </trkpt>
      <trkpt lat="48.68612" lon="5.41749">
        <ele>309.4</ele>
        <time>2020-06-30T07:19:29Z</time>
      </trkpt>
      <trkpt lat="48.68607" lon="5.41741">
        <ele>309</ele>
        <time>2020-06-30T07:19:30Z</time>
      </trkpt>
      <trkpt lat="48.68603" lon="5.41732">
        <ele>308.6</ele>
        <time>2020-06-30T07:19:31Z</time>
      </trkpt>
      <trkpt lat="48.68598" lon="5.41724">
        <ele>308.3</ele>
        <time>2020-06-30T07:19:32Z</time>
      </trkpt>
      <trkpt lat="48.68594" lon="5.41715">
        <ele>308.1</ele>
        <time>2020-06-30T07:19:33Z</time>
      </trkpt>
      <trkpt lat="48.6859" lon="5.41707">
        <ele>307.9</ele>
        <time>2020-06-30T07:19:34Z</time>
      </trkpt>
      <trkpt lat="48.68586" lon="5.41698">
        <ele>307.7</ele>
        <time>2020-06-30T07:19:35Z</time>
      </trkpt>
      <trkpt lat="48.68582" lon="5.41689">
        <ele>307.4</ele>
        <time>2020-06-30T07:19:36Z</time>
      </trkpt>
      <trkpt lat="48.68578" lon="5.41681">
        <ele>307.2</ele>
        <time>2020-06-30T07:19:37Z</time>
      </trkpt>
      <trkpt lat="48.68573" lon="5.41673">
        <ele>307</ele>
        <time>2020-06-30T07:19:38Z</time>
      </trkpt>
      <trkpt lat="48.68569" lon="5.41664">
        <ele>306.8</ele>
        <time>2020-06-30T07:19:39Z</time>
      </trkpt>
      <trkpt lat="48.68566" lon="5.41655">
        <ele>306.6</ele>
        <time>2020-06-30T07:19:40Z</time>
      </trkpt>
      <trkpt lat="48.68563" lon="5.41646">
        <ele>306.4</ele>
        <time>2020-06-30T07:19:41Z</time>
      </trkpt>
      <trkpt lat="48.68559" lon="5.41637">
        <ele>306.3</ele>
        <time>2020-06-30T07:19:42Z</time>
      </trkpt>
      <trkpt lat="48.68555" lon="5.41629">
        <ele>306.2</ele>
        <time>2020-06-30T07:19:43Z</time>
      </trkpt>
      <trkpt lat="48.68551" lon="5.41621">
        <ele>306</ele>
        <time>2020-06-30T07:19:44Z</time>
      </trkpt>
      <trkpt lat="48.68547" lon="5.41612">
        <ele>305.8</ele>
        <time>2020-06-30T07:19:45Z</time>
      </trkpt>
      <trkpt lat="48.68543" lon="5.41604">
        <ele>305.7</ele>
        <time>2020-06-30T07:19:46Z</time>
      </trkpt>
      <trkpt lat="48.68539" lon="5.41596">
        <ele>305.5</ele>
        <time>2020-06-30T07:19:47Z</time>
      </trkpt>
      <trkpt lat="48.68536" lon="5.41588">
        <ele>305.4</ele>
        <time>2020-06-30T07:19:48Z</time>
      </trkpt>
      <trkpt lat="48.68532" lon="5.4158">
        <ele>305.3</ele>
        <time>2020-06-30T07:19:49Z</time>
      </trkpt>
      <trkpt lat="48.68528" lon="5.41572">
        <ele>305.2</ele>
        <time>2020-06-30T07:19:50Z</time>
      </trkpt>
      <trkpt lat="48.68524" lon="5.41563">
        <ele>305</ele>
        <time>2020-06-30T07:19:51Z</time>
      </trkpt>
      <trkpt lat="48.68522" lon="5.41554">
        <ele>304.9</ele>
        <time>2020-06-30T07:19:52Z</time>
      </trkpt>
      <trkpt lat="48.68518" lon="5.41546">
        <ele>304.7</ele>
        <time>2020-06-30T07:19:53Z</time>
      </trkpt>
      <trkpt lat="48.68516" lon="5.41537">
        <ele>304.5</ele>
        <time>2020-06-30T07:19:54Z</time>
      </trkpt>
      <trkpt lat="48.68513" lon="5.41528">
        <ele>304.2</ele>
        <time>2020-06-30T07:19:55Z</time>
      </trkpt>
      <trkpt lat="48.68511" lon="5.41518">
        <ele>304</ele>
        <time>2020-06-30T07:19:56Z</time>
      </trkpt>
      <trkpt lat="48.68509" lon="5.41509">
        <ele>303.8</ele>
        <time>2020-06-30T07:19:57Z</time>
      </trkpt>
      <trkpt lat="48.68507" lon="5.41499">
        <ele>303.6</ele>
        <time>2020-06-30T07:19:58Z</time>
      </trkpt>
      <trkpt lat="48.68504" lon="5.4149">
        <ele>303.4</ele>
        <time>2020-06-30T07:19:59Z</time>
      </trkpt>
      <trkpt lat="48.68502" lon="5.4148">
        <ele>303.3</ele>
        <time>2020-06-30T07:20:00Z</time>
      </trkpt>
      <trkpt lat="48.685" lon="5.4147">
        <ele>303.1</ele>
        <time>2020-06-30T07:20:01Z</time>
      </trkpt>
      <trkpt lat="48.68498" lon="5.41461">
        <ele>302.9</ele>
        <time>2020-06-30T07:20:02Z</time>
      </trkpt>
      <trkpt lat="48.68495" lon="5.41451">
        <ele>302.8</ele>
        <time>2020-06-30T07:20:03Z</time>
      </trkpt>
      <trkpt lat="48.68494" lon="5.41441">
        <ele>302.6</ele>
        <time>2020-06-30T07:20:04Z</time>
      </trkpt>
      <trkpt lat="48.68492" lon="5.41431">
        <ele>302.4</ele>
        <time>2020-06-30T07:20:05Z</time>
      </trkpt>
      <trkpt lat="48.6849" lon="5.41421">
        <ele>302.2</ele>
        <time>2020-06-30T07:20:06Z</time>
      </trkpt>
      <trkpt lat="48.68489" lon="5.41411">
        <ele>302</ele>
        <time>2020-06-30T07:20:07Z</time>
      </trkpt>
      <trkpt lat="48.68487" lon="5.41401">
        <ele>301.8</ele>
        <time>2020-06-30T07:20:08Z</time>
      </trkpt>
      <trkpt lat="48.68485" lon="5.41391">
        <ele>301.6</ele>
        <time>2020-06-30T07:20:09Z</time>
      </trkpt>
      <trkpt lat="48.68485" lon="5.41381">
        <ele>301.5</ele>
        <time>2020-06-30T07:20:10Z</time>
      </trkpt>
      <trkpt lat="48.68483" lon="5.41371">
        <ele>301.3</ele>
        <time>2020-06-30T07:20:11Z</time>
      </trkpt>
      <trkpt lat="48.68482" lon="5.41361">
        <ele>301.2</ele>
        <time>2020-06-30T07:20:12Z</time>
      </trkpt>
      <trkpt lat="48.68482" lon="5.4135">
        <ele>301</ele>
        <time>2020-06-30T07:20:13Z</time>
      </trkpt>
      <trkpt lat="48.68481" lon="5.4134">
        <ele>300.8</ele>
        <time>2020-06-30T07:20:14Z</time>
      </trkpt>
      <trkpt lat="48.68481" lon="5.4133">
        <ele>300.6</ele>
        <time>2020-06-30T07:20:15Z</time>
      </trkpt>
      <trkpt lat="48.68481" lon="5.4132">
        <ele>300.5</ele>
        <time>2020-06-30T07:20:16Z</time>
      </trkpt>
      <trkpt lat="48.68481" lon="5.4131">
        <ele>300.3</ele>
        <time>2020-06-30T07:20:17Z</time>
      </trkpt>
      <trkpt lat="48.68482" lon="5.413">
        <ele>300.2</ele>
        <time>2020-06-30T07:20:18Z</time>
      </trkpt>
      <trkpt lat="48.68482" lon="5.41291">
        <ele>300</ele>
        <time>2020-06-30T07:20:19Z</time>
      </trkpt>
      <trkpt lat="48.68482" lon="5.4128">
        <ele>299.8</ele>
        <time>2020-06-30T07:20:20Z</time>
      </trkpt>
      <trkpt lat="48.68482" lon="5.4127">
        <ele>299.6</ele>
        <time>2020-06-30T07:20:21Z</time>
      </trkpt>
      <trkpt lat="48.68483" lon="5.4126">
        <ele>299.5</ele>
        <time>2020-06-30T07:20:22Z</time>
      </trkpt>
      <trkpt lat="48.68483" lon="5.4125">
        <ele>299.4</ele>
        <time>2020-06-30T07:20:23Z</time>
      </trkpt>
      <trkpt lat="48.68482" lon="5.41239">
        <ele>299.2</ele>
        <time>2020-06-30T07:20:24Z</time>
      </trkpt>
      <trkpt lat="48.68483" lon="5.41229">
        <ele>299.1</ele>
        <time>2020-06-30T07:20:25Z</time>
      </trkpt>
      <trkpt lat="48.68482" lon="5.4122">
        <ele>298.9</ele>
        <time>2020-06-30T07:20:26Z</time>
      </trkpt>
      <trkpt lat="48.68482" lon="5.4121">
        <ele>298.8</ele>
        <time>2020-06-30T07:20:27Z</time>
      </trkpt>
      <trkpt lat="48.68482" lon="5.412">
        <ele>298.6</ele>
        <time>2020-06-30T07:20:28Z</time>
      </trkpt>
      <trkpt lat="48.68481" lon="5.4119">
        <ele>298.5</ele>
        <time>2020-06-30T07:20:29Z</time>
      </trkpt>
      <trkpt lat="48.6848" lon="5.4118">
        <ele>298.4</ele>
        <time>2020-06-30T07:20:30Z</time>
      </trkpt>
      <trkpt lat="48.68479" lon="5.4117">
        <ele>298.2</ele>
        <time>2020-06-30T07:20:31Z</time>
      </trkpt>
      <trkpt lat="48.68478" lon="5.4116">
        <ele>298</ele>
        <time>2020-06-30T07:20:32Z</time>
      </trkpt>
      <trkpt lat="48.68478" lon="5.4115">
        <ele>297.8</ele>
        <time>2020-06-30T07:20:33Z</time>
      </trkpt>
      <trkpt lat="48.68477" lon="5.4114">
        <ele>297.7</ele>
        <time>2020-06-30T07:20:34Z</time>
      </trkpt>
      <trkpt lat="48.68476" lon="5.4113">
        <ele>297.5</ele>
        <time>2020-06-30T07:20:35Z</time>
      </trkpt>
      <trkpt lat="48.68475" lon="5.4112">
        <ele>297.4</ele>
        <time>2020-06-30T07:20:36Z</time>
      </trkpt>
      <trkpt lat="48.68473" lon="5.4111">
        <ele>297.2</ele>
        <time>2020-06-30T07:20:37Z</time>
      </trkpt>
      <trkpt lat="48.68472" lon="5.411">
        <ele>297.1</ele>
        <time>2020-06-30T07:20:38Z</time>
      </trkpt>
      <trkpt lat="48.68471" lon="5.41091">
        <ele>296.9</ele>
        <time>2020-06-30T07:20:39Z</time>
      </trkpt>
      <trkpt lat="48.6847" lon="5.41081">
        <ele>296.8</ele>
        <time>2020-06-30T07:20:40Z</time>
      </trkpt>
      <trkpt lat="48.68468" lon="5.41071">
        <ele>296.5</ele>
        <time>2020-06-30T07:20:41Z</time>
      </trkpt>
      <trkpt lat="48.68467" lon="5.41061">
        <ele>296.3</ele>
        <time>2020-06-30T07:20:42Z</time>
      </trkpt>
      <trkpt lat="48.68466" lon="5.41051">
        <ele>296</ele>
        <time>2020-06-30T07:20:43Z</time>
      </trkpt>
      <trkpt lat="48.68465" lon="5.41041">
        <ele>295.8</ele>
        <time>2020-06-30T07:20:44Z</time>
      </trkpt>
      <trkpt lat="48.68464" lon="5.41031">
        <ele>295.6</ele>
        <time>2020-06-30T07:20:45Z</time>
      </trkpt>
      <trkpt lat="48.68463" lon="5.41022">
        <ele>295.4</ele>
        <time>2020-06-30T07:20:46Z</time>
      </trkpt>
      <trkpt lat="48.68462" lon="5.41012">
        <ele>295.3</ele>
        <time>2020-06-30T07:20:47Z</time>
      </trkpt>
      <trkpt lat="48.6846" lon="5.41002">
        <ele>295.2</ele>
        <time>2020-06-30T07:20:48Z</time>
      </trkpt>
      <trkpt lat="48.68459" lon="5.40992">
        <ele>295.2</ele>
        <time>2020-06-30T07:20:49Z</time>
      </trkpt>
      <trkpt lat="48.68458" lon="5.40983">
        <ele>295.1</ele>
        <time>2020-06-30T07:20:50Z</time>
      </trkpt>
      <trkpt lat="48.68456" lon="5.40973">
        <ele>295</ele>
        <time>2020-06-30T07:20:51Z</time>
      </trkpt>
      <trkpt lat="48.68455" lon="5.40963">
        <ele>295</ele>
        <time>2020-06-30T07:20:52Z</time>
      </trkpt>
      <trkpt lat="48.68454" lon="5.40953">
        <ele>294.9</ele>
        <time>2020-06-30T07:20:53Z</time>
      </trkpt>
      <trkpt lat="48.68453" lon="5.40943">
        <ele>294.8</ele>
        <time>2020-06-30T07:20:54Z</time>
      </trkpt>
      <trkpt lat="48.68452" lon="5.40933">
        <ele>294.7</ele>
        <time>2020-06-30T07:20:55Z</time>
      </trkpt>
      <trkpt lat="48.68451" lon="5.40923">
        <ele>294.7</ele>
        <time>2020-06-30T07:20:56Z</time>
      </trkpt>
      <trkpt lat="48.6845" lon="5.40913">
        <ele>294.6</ele>
        <time>2020-06-30T07:20:57Z</time>
      </trkpt>
      <trkpt lat="48.6845" lon="5.40904">
        <ele>294.5</ele>
        <time>2020-06-30T07:20:58Z</time>
      </trkpt>
      <trkpt lat="48.6845" lon="5.40894">
        <ele>294.4</ele>
        <time>2020-06-30T07:20:59Z</time>
      </trkpt>
      <trkpt lat="48.6845" lon="5.40884">
        <ele>294.3</ele>
        <time>2020-06-30T07:21:00Z</time>
      </trkpt>
      <trkpt lat="48.6845" lon="5.40874">
        <ele>294.2</ele>
        <time>2020-06-30T07:21:01Z</time>
      </trkpt>
      <trkpt lat="48.6845" lon="5.40864">
        <ele>294.1</ele>
        <time>2020-06-30T07:21:02Z</time>
      </trkpt>
      <trkpt lat="48.68451" lon="5.40854">
        <ele>294</ele>
        <time>2020-06-30T07:21:03Z</time>
      </trkpt>
      <trkpt lat="48.6845" lon="5.40844">
        <ele>293.9</ele>
        <time>2020-06-30T07:21:04Z</time>
      </trkpt>
      <trkpt lat="48.6845" lon="5.40834">
        <ele>293.8</ele>
        <time>2020-06-30T07:21:05Z</time>
      </trkpt>
      <trkpt lat="48.6845" lon="5.40824">
        <ele>293.8</ele>
        <time>2020-06-30T07:21:06Z</time>
      </trkpt>
      <trkpt lat="48.68451" lon="5.40814">
        <ele>293.7</ele>
        <time>2020-06-30T07:21:07Z</time>
      </trkpt>
      <trkpt lat="48.68451" lon="5.40804">
        <ele>293.6</ele>
        <time>2020-06-30T07:21:08Z</time>
      </trkpt>
      <trkpt lat="48.68451" lon="5.40794">
        <ele>293.4</ele>
        <time>2020-06-30T07:21:09Z</time>
      </trkpt>
      <trkpt lat="48.68451" lon="5.40784">
        <ele>293.3</ele>
        <time>2020-06-30T07:21:10Z</time>
      </trkpt>
      <trkpt lat="48.68451" lon="5.40774">
        <ele>293.2</ele>
        <time>2020-06-30T07:21:11Z</time>
      </trkpt>
      <trkpt lat="48.68451" lon="5.40764">
        <ele>293.1</ele>
        <time>2020-06-30T07:21:12Z</time>
      </trkpt>
      <trkpt lat="48.6845" lon="5.40754">
        <ele>293</ele>
        <time>2020-06-30T07:21:13Z</time>
      </trkpt>
      <trkpt lat="48.6845" lon="5.40744">
        <ele>292.7</ele>
        <time>2020-06-30T07:21:14Z</time>
      </trkpt>
      <trkpt lat="48.68449" lon="5.40734">
        <ele>292.5</ele>
        <time>2020-06-30T07:21:15Z</time>
      </trkpt>
      <trkpt lat="48.68447" lon="5.40724">
        <ele>292.3</ele>
        <time>2020-06-30T07:21:16Z</time>
      </trkpt>
      <trkpt lat="48.68445" lon="5.40714">
        <ele>292.2</ele>
        <time>2020-06-30T07:21:17Z</time>
      </trkpt>
      <trkpt lat="48.68442" lon="5.40705">
        <ele>292.2</ele>
        <time>2020-06-30T07:21:18Z</time>
      </trkpt>
      <trkpt lat="48.6844" lon="5.40695">
        <ele>292.2</ele>
        <time>2020-06-30T07:21:19Z</time>
      </trkpt>
      <trkpt lat="48.68437" lon="5.40686">
        <ele>292.1</ele>
        <time>2020-06-30T07:21:20Z</time>
      </trkpt>
      <trkpt lat="48.68434" lon="5.40677">
        <ele>292</ele>
        <time>2020-06-30T07:21:21Z</time>
      </trkpt>
      <trkpt lat="48.6843" lon="5.40669">
        <ele>291.9</ele>
        <time>2020-06-30T07:21:22Z</time>
      </trkpt>
      <trkpt lat="48.68427" lon="5.4066">
        <ele>291.9</ele>
        <time>2020-06-30T07:21:23Z</time>
      </trkpt>
      <trkpt lat="48.68423" lon="5.40652">
        <ele>291.8</ele>
        <time>2020-06-30T07:21:24Z</time>
      </trkpt>
      <trkpt lat="48.68419" lon="5.40643">
        <ele>291.7</ele>
        <time>2020-06-30T07:21:25Z</time>
      </trkpt>
      <trkpt lat="48.68415" lon="5.40634">
        <ele>291.6</ele>
        <time>2020-06-30T07:21:26Z</time>
      </trkpt>
      <trkpt lat="48.6841" lon="5.40627">
        <ele>291.4</ele>
        <time>2020-06-30T07:21:27Z</time>
      </trkpt>
      <trkpt lat="48.68406" lon="5.40618">
        <ele>291.2</ele>
        <time>2020-06-30T07:21:28Z</time>
      </trkpt>
      <trkpt lat="48.68401" lon="5.4061">
        <ele>291</ele>
        <time>2020-06-30T07:21:29Z</time>
      </trkpt>
      <trkpt lat="48.68396" lon="5.40602">
        <ele>290.8</ele>
        <time>2020-06-30T07:21:30Z</time>
      </trkpt>
      <trkpt lat="48.68392" lon="5.40595">
        <ele>290.7</ele>
        <time>2020-06-30T07:21:31Z</time>
      </trkpt>
      <trkpt lat="48.68387" lon="5.40587">
        <ele>290.5</ele>
        <time>2020-06-30T07:21:32Z</time>
      </trkpt>
      <trkpt lat="48.68382" lon="5.40579">
        <ele>290.3</ele>
        <time>2020-06-30T07:21:33Z</time>
      </trkpt>
      <trkpt lat="48.68378" lon="5.40571">
        <ele>290.2</ele>
        <time>2020-06-30T07:21:34Z</time>
      </trkpt>
      <trkpt lat="48.68373" lon="5.40564">
        <ele>290.2</ele>
        <time>2020-06-30T07:21:35Z</time>
      </trkpt>
      <trkpt lat="48.68368" lon="5.40556">
        <ele>290.1</ele>
        <time>2020-06-30T07:21:36Z</time>
      </trkpt>
      <trkpt lat="48.68363" lon="5.40549">
        <ele>290</ele>
        <time>2020-06-30T07:21:37Z</time>
      </trkpt>
      <trkpt lat="48.68358" lon="5.40542">
        <ele>289.9</ele>
        <time>2020-06-30T07:21:38Z</time>
      </trkpt>
      <trkpt lat="48.68353" lon="5.40534">
        <ele>289.8</ele>
        <time>2020-06-30T07:21:39Z</time>
      </trkpt>
      <trkpt lat="48.68348" lon="5.40528">
        <ele>289.6</ele>
        <time>2020-06-30T07:21:40Z</time>
      </trkpt>
      <trkpt lat="48.68343" lon="5.4052">
        <ele>289.5</ele>
        <time>2020-06-30T07:21:41Z</time>
      </trkpt>
      <trkpt lat="48.68338" lon="5.40512">
        <ele>289.3</ele>
        <time>2020-06-30T07:21:42Z</time>
      </trkpt>
      <trkpt lat="48.68333" lon="5.40505">
        <ele>289.2</ele>
        <time>2020-06-30T07:21:43Z</time>
      </trkpt>
      <trkpt lat="48.68329" lon="5.40497">
        <ele>289.1</ele>
        <time>2020-06-30T07:21:44Z</time>
      </trkpt>
      <trkpt lat="48.68324" lon="5.4049">
        <ele>289.1</ele>
        <time>2020-06-30T07:21:45Z</time>
      </trkpt>
      <trkpt lat="48.68319" lon="5.40483">
        <ele>289.1</ele>
        <time>2020-06-30T07:21:46Z</time>
      </trkpt>
      <trkpt lat="48.68314" lon="5.40476">
        <ele>289.1</ele>
        <time>2020-06-30T07:21:47Z</time>
      </trkpt>
      <trkpt lat="48.6831" lon="5.40469">
        <ele>289</ele>
        <time>2020-06-30T07:21:48Z</time>
      </trkpt>
      <trkpt lat="48.68305" lon="5.40461">
        <ele>288.8</ele>
        <time>2020-06-30T07:21:49Z</time>
      </trkpt>
      <trkpt lat="48.68301" lon="5.40454">
        <ele>288.7</ele>
        <time>2020-06-30T07:21:50Z</time>
      </trkpt>
      <trkpt lat="48.68297" lon="5.40446">
        <ele>288.6</ele>
        <time>2020-06-30T07:21:51Z</time>
      </trkpt>
      <trkpt lat="48.68292" lon="5.40439">
        <ele>288.5</ele>
        <time>2020-06-30T07:21:52Z</time>
      </trkpt>
      <trkpt lat="48.68287" lon="5.40432">
        <ele>288.4</ele>
        <time>2020-06-30T07:21:53Z</time>
      </trkpt>
      <trkpt lat="48.68283" lon="5.40424">
        <ele>288.3</ele>
        <time>2020-06-30T07:21:54Z</time>
      </trkpt>
      <trkpt lat="48.68278" lon="5.40416">
        <ele>288.3</ele>
        <time>2020-06-30T07:21:55Z</time>
      </trkpt>
      <trkpt lat="48.68274" lon="5.40408">
        <ele>288.3</ele>
        <time>2020-06-30T07:21:56Z</time>
      </trkpt>
      <trkpt lat="48.6827" lon="5.404">
        <ele>288.2</ele>
        <time>2020-06-30T07:21:57Z</time>
      </trkpt>
      <trkpt lat="48.68266" lon="5.40392">
        <ele>288.2</ele>
        <time>2020-06-30T07:21:58Z</time>
      </trkpt>
      <trkpt lat="48.68261" lon="5.40385">
        <ele>288.2</ele>
        <time>2020-06-30T07:21:59Z</time>
      </trkpt>
      <trkpt lat="48.68256" lon="5.40377">
        <ele>288.1</ele>
        <time>2020-06-30T07:22:00Z</time>
      </trkpt>
      <trkpt lat="48.68251" lon="5.4037">
        <ele>288.1</ele>
        <time>2020-06-30T07:22:01Z</time>
      </trkpt>
      <trkpt lat="48.68246" lon="5.40362">
        <ele>288</ele>
        <time>2020-06-30T07:22:02Z</time>
      </trkpt>
      <trkpt lat="48.68242" lon="5.40354">
        <ele>287.9</ele>
        <time>2020-06-30T07:22:03Z</time>
      </trkpt>
      <trkpt lat="48.68238" lon="5.40346">
        <ele>287.9</ele>
        <time>2020-06-30T07:22:04Z</time>
      </trkpt>
      <trkpt lat="48.68233" lon="5.40338">
        <ele>287.8</ele>
        <time>2020-06-30T07:22:05Z</time>
      </trkpt>
      <trkpt lat="48.68229" lon="5.4033">
        <ele>287.7</ele>
        <time>2020-06-30T07:22:06Z</time>
      </trkpt>
      <trkpt lat="48.68225" lon="5.40323">
        <ele>287.7</ele>
        <time>2020-06-30T07:22:07Z</time>
      </trkpt>
      <trkpt lat="48.68222" lon="5.40316">
        <ele>287.6</ele>
        <time>2020-06-30T07:22:08Z</time>
      </trkpt>
      <trkpt lat="48.68218" lon="5.40309">
        <ele>287.6</ele>
        <time>2020-06-30T07:22:09Z</time>
      </trkpt>
      <trkpt lat="48.68215" lon="5.40301">
        <ele>287.6</ele>
        <time>2020-06-30T07:22:10Z</time>
      </trkpt>
      <trkpt lat="48.68212" lon="5.40293">
        <ele>287.6</ele>
        <time>2020-06-30T07:22:11Z</time>
      </trkpt>
      <trkpt lat="48.68209" lon="5.40286">
        <ele>287.5</ele>
        <time>2020-06-30T07:22:12Z</time>
      </trkpt>
      <trkpt lat="48.68206" lon="5.40278">
        <ele>287.4</ele>
        <time>2020-06-30T07:22:13Z</time>
      </trkpt>
      <trkpt lat="48.68204" lon="5.4027">
        <ele>287.2</ele>
        <time>2020-06-30T07:22:14Z</time>
      </trkpt>
      <trkpt lat="48.68202" lon="5.40263">
        <ele>287</ele>
        <time>2020-06-30T07:22:15Z</time>
      </trkpt>
      <trkpt lat="48.68199" lon="5.40255">
        <ele>286.9</ele>
        <time>2020-06-30T07:22:16Z</time>
      </trkpt>
      <trkpt lat="48.68197" lon="5.40248">
        <ele>286.8</ele>
        <time>2020-06-30T07:22:17Z</time>
      </trkpt>
      <trkpt lat="48.68194" lon="5.4024">
        <ele>286.7</ele>
        <time>2020-06-30T07:22:18Z</time>
      </trkpt>
      <trkpt lat="48.68192" lon="5.40233">
        <ele>286.7</ele>
        <time>2020-06-30T07:22:19Z</time>
      </trkpt>
      <trkpt lat="48.68189" lon="5.40225">
        <ele>286.7</ele>
        <time>2020-06-30T07:22:20Z</time>
      </trkpt>
      <trkpt lat="48.68186" lon="5.40218">
        <ele>286.7</ele>
        <time>2020-06-30T07:22:21Z</time>
      </trkpt>
      <trkpt lat="48.68183" lon="5.4021">
        <ele>286.6</ele>
        <time>2020-06-30T07:22:22Z</time>
      </trkpt>
      <trkpt lat="48.6818" lon="5.40203">
        <ele>286.5</ele>
        <time>2020-06-30T07:22:23Z</time>
      </trkpt>
      <trkpt lat="48.68177" lon="5.40195">
        <ele>286.4</ele>
        <time>2020-06-30T07:22:24Z</time>
      </trkpt>
      <trkpt lat="48.68173" lon="5.40189">
        <ele>286.3</ele>
        <time>2020-06-30T07:22:25Z</time>
      </trkpt>
      <trkpt lat="48.6817" lon="5.40183">
        <ele>286.2</ele>
        <time>2020-06-30T07:22:26Z</time>
      </trkpt>
      <trkpt lat="48.68166" lon="5.40177">
        <ele>286.1</ele>
        <time>2020-06-30T07:22:27Z</time>
      </trkpt>
      <trkpt lat="48.68163" lon="5.40171">
        <ele>286</ele>
        <time>2020-06-30T07:22:28Z</time>
      </trkpt>
      <trkpt lat="48.68159" lon="5.40166">
        <ele>285.9</ele>
        <time>2020-06-30T07:22:29Z</time>
      </trkpt>
      <trkpt lat="48.68156" lon="5.4016">
        <ele>285.8</ele>
        <time>2020-06-30T07:22:30Z</time>
      </trkpt>
      <trkpt lat="48.68154" lon="5.40154">
        <ele>285.7</ele>
        <time>2020-06-30T07:22:31Z</time>
      </trkpt>
      <trkpt lat="48.68151" lon="5.40148">
        <ele>285.6</ele>
        <time>2020-06-30T07:22:32Z</time>
      </trkpt>
      <trkpt lat="48.68148" lon="5.40143">
        <ele>285.5</ele>
        <time>2020-06-30T07:22:33Z</time>
      </trkpt>
      <trkpt lat="48.68146" lon="5.40137">
        <ele>285.4</ele>
        <time>2020-06-30T07:22:34Z</time>
      </trkpt>
      <trkpt lat="48.68144" lon="5.4013">
        <ele>285.3</ele>
        <time>2020-06-30T07:22:35Z</time>
      </trkpt>
      <trkpt lat="48.68142" lon="5.40122">
        <ele>284.9</ele>
        <time>2020-06-30T07:22:36Z</time>
      </trkpt>
      <trkpt lat="48.68141" lon="5.40114">
        <ele>284.6</ele>
        <time>2020-06-30T07:22:37Z</time>
      </trkpt>
      <trkpt lat="48.6814" lon="5.40105">
        <ele>284.4</ele>
        <time>2020-06-30T07:22:38Z</time>
      </trkpt>
      <trkpt lat="48.68139" lon="5.40096">
        <ele>284.1</ele>
        <time>2020-06-30T07:22:39Z</time>
      </trkpt>
      <trkpt lat="48.68138" lon="5.40087">
        <ele>283.8</ele>
        <time>2020-06-30T07:22:40Z</time>
      </trkpt>
      <trkpt lat="48.68137" lon="5.40077">
        <ele>283.6</ele>
        <time>2020-06-30T07:22:41Z</time>
      </trkpt>
      <trkpt lat="48.68137" lon="5.40067">
        <ele>283.3</ele>
        <time>2020-06-30T07:22:42Z</time>
      </trkpt>
      <trkpt lat="48.68137" lon="5.40057">
        <ele>283</ele>
        <time>2020-06-30T07:22:43Z</time>
      </trkpt>
      <trkpt lat="48.68137" lon="5.40047">
        <ele>282.7</ele>
        <time>2020-06-30T07:22:44Z</time>
      </trkpt>
      <trkpt lat="48.68135" lon="5.40037">
        <ele>282.4</ele>
        <time>2020-06-30T07:22:45Z</time>
      </trkpt>
      <trkpt lat="48.68134" lon="5.40027">
        <ele>282.1</ele>
        <time>2020-06-30T07:22:46Z</time>
      </trkpt>
      <trkpt lat="48.68134" lon="5.40017">
        <ele>281.9</ele>
        <time>2020-06-30T07:22:47Z</time>
      </trkpt>
      <trkpt lat="48.68133" lon="5.40008">
        <ele>281.8</ele>
        <time>2020-06-30T07:22:48Z</time>
      </trkpt>
      <trkpt lat="48.68131" lon="5.39999">
        <ele>281.7</ele>
        <time>2020-06-30T07:22:49Z</time>
      </trkpt>
      <trkpt lat="48.68129" lon="5.3999">
        <ele>281.6</ele>
        <time>2020-06-30T07:22:50Z</time>
      </trkpt>
      <trkpt lat="48.68127" lon="5.39981">
        <ele>281.4</ele>
        <time>2020-06-30T07:22:51Z</time>
      </trkpt>
      <trkpt lat="48.68124" lon="5.39974">
        <ele>281.3</ele>
        <time>2020-06-30T07:22:52Z</time>
      </trkpt>
      <trkpt lat="48.68122" lon="5.39967">
        <ele>281.3</ele>
        <time>2020-06-30T07:22:53Z</time>
      </trkpt>
      <trkpt lat="48.6812" lon="5.39959">
        <ele>281.3</ele>
        <time>2020-06-30T07:22:54Z</time>
      </trkpt>
      <trkpt lat="48.68117" lon="5.39952">
        <ele>281.3</ele>
        <time>2020-06-30T07:22:55Z</time>
      </trkpt>
      <trkpt lat="48.68115" lon="5.39946">
        <ele>281.3</ele>
        <time>2020-06-30T07:22:56Z</time>
      </trkpt>
      <trkpt lat="48.68112" lon="5.3994">
        <ele>281.4</ele>
        <time>2020-06-30T07:22:57Z</time>
      </trkpt>
      <trkpt lat="48.68109" lon="5.39933">
        <ele>281.4</ele>
        <time>2020-06-30T07:22:58Z</time>
      </trkpt>
      <trkpt lat="48.68106" lon="5.39929">
        <ele>281.4</ele>
        <time>2020-06-30T07:22:59Z</time>
      </trkpt>
      <trkpt lat="48.68102" lon="5.39925">
        <ele>281.5</ele>
        <time>2020-06-30T07:23:00Z</time>
      </trkpt>
      <trkpt lat="48.68098" lon="5.39922">
        <ele>281.5</ele>
        <time>2020-06-30T07:23:01Z</time>
      </trkpt>
      <trkpt lat="48.68094" lon="5.39918">
        <ele>281.6</ele>
        <time>2020-06-30T07:23:02Z</time>
      </trkpt>
      <trkpt lat="48.6809" lon="5.39915">
        <ele>281.6</ele>
        <time>2020-06-30T07:23:03Z</time>
      </trkpt>
      <trkpt lat="48.68087" lon="5.39911">
        <ele>281.7</ele>
        <time>2020-06-30T07:23:04Z</time>
      </trkpt>
      <trkpt lat="48.68084" lon="5.39906">
        <ele>281.8</ele>
        <time>2020-06-30T07:23:05Z</time>
      </trkpt>
      <trkpt lat="48.6808" lon="5.39903">
        <ele>281.8</ele>
        <time>2020-06-30T07:23:06Z</time>
      </trkpt>
      <trkpt lat="48.68077" lon="5.39899">
        <ele>281.9</ele>
        <time>2020-06-30T07:23:07Z</time>
      </trkpt>
      <trkpt lat="48.68074" lon="5.39893">
        <ele>282.1</ele>
        <time>2020-06-30T07:23:08Z</time>
      </trkpt>
      <trkpt lat="48.68072" lon="5.39887">
        <ele>282.2</ele>
        <time>2020-06-30T07:23:09Z</time>
      </trkpt>
      <trkpt lat="48.6807" lon="5.39881">
        <ele>282.5</ele>
        <time>2020-06-30T07:23:10Z</time>
      </trkpt>
      <trkpt lat="48.68069" lon="5.39875">
        <ele>282.5</ele>
        <time>2020-06-30T07:23:11Z</time>
      </trkpt>
      <trkpt lat="48.68068" lon="5.39869">
        <ele>282.5</ele>
        <time>2020-06-30T07:23:12Z</time>
      </trkpt>
      <trkpt lat="48.68067" lon="5.39863">
        <ele>282.5</ele>
        <time>2020-06-30T07:23:13Z</time>
      </trkpt>
      <trkpt lat="48.68066" lon="5.39856">
        <ele>282.5</ele>
        <time>2020-06-30T07:23:14Z</time>
      </trkpt>
      <trkpt lat="48.68065" lon="5.3985">
        <ele>282.5</ele>
        <time>2020-06-30T07:23:15Z</time>
      </trkpt>
      <trkpt lat="48.68064" lon="5.39844">
        <ele>282.5</ele>
        <time>2020-06-30T07:23:16Z</time>
      </trkpt>
      <trkpt lat="48.68062" lon="5.39837">
        <ele>282.4</ele>
        <time>2020-06-30T07:23:17Z</time>
      </trkpt>
      <trkpt lat="48.6806" lon="5.39831">
        <ele>282.4</ele>
        <time>2020-06-30T07:23:18Z</time>
      </trkpt>
      <trkpt lat="48.68059" lon="5.39825">
        <ele>282.4</ele>
        <time>2020-06-30T07:23:19Z</time>
      </trkpt>
      <trkpt lat="48.68058" lon="5.39819">
        <ele>282.4</ele>
        <time>2020-06-30T07:23:20Z</time>
      </trkpt>
      <trkpt lat="48.68057" lon="5.39812">
        <ele>282.4</ele>
        <time>2020-06-30T07:23:21Z</time>
      </trkpt>
      <trkpt lat="48.68056" lon="5.39806">
        <ele>282.3</ele>
        <time>2020-06-30T07:23:22Z</time>
      </trkpt>
      <trkpt lat="48.68056" lon="5.39799">
        <ele>282.2</ele>
        <time>2020-06-30T07:23:23Z</time>
      </trkpt>
      <trkpt lat="48.68055" lon="5.39792">
        <ele>282.1</ele>
        <time>2020-06-30T07:23:24Z</time>
      </trkpt>
      <trkpt lat="48.68054" lon="5.39785">
        <ele>282</ele>
        <time>2020-06-30T07:23:25Z</time>
      </trkpt>
      <trkpt lat="48.68052" lon="5.39779">
        <ele>281.9</ele>
        <time>2020-06-30T07:23:26Z</time>
      </trkpt>
      <trkpt lat="48.6805" lon="5.39772">
        <ele>281.8</ele>
        <time>2020-06-30T07:23:27Z</time>
      </trkpt>
      <trkpt lat="48.68049" lon="5.39765">
        <ele>281.7</ele>
        <time>2020-06-30T07:23:28Z</time>
      </trkpt>
      <trkpt lat="48.68048" lon="5.39758">
        <ele>281.6</ele>
        <time>2020-06-30T07:23:29Z</time>
      </trkpt>
      <trkpt lat="48.68048" lon="5.39752">
        <ele>281.5</ele>
        <time>2020-06-30T07:23:30Z</time>
      </trkpt>
      <trkpt lat="48.68048" lon="5.39745">
        <ele>281.4</ele>
        <time>2020-06-30T07:23:31Z</time>
      </trkpt>
      <trkpt lat="48.68047" lon="5.39736">
        <ele>281.3</ele>
        <time>2020-06-30T07:23:32Z</time>
      </trkpt>
      <trkpt lat="48.68049" lon="5.39728">
        <ele>281.2</ele>
        <time>2020-06-30T07:23:33Z</time>
      </trkpt>
      <trkpt lat="48.68049" lon="5.39719">
        <ele>281.1</ele>
        <time>2020-06-30T07:23:34Z</time>
      </trkpt>
      <trkpt lat="48.68049" lon="5.3971">
        <ele>281</ele>
        <time>2020-06-30T07:23:35Z</time>
      </trkpt>
      <trkpt lat="48.6805" lon="5.39701">
        <ele>281</ele>
        <time>2020-06-30T07:23:36Z</time>
      </trkpt>
      <trkpt lat="48.68052" lon="5.39693">
        <ele>281</ele>
        <time>2020-06-30T07:23:37Z</time>
      </trkpt>
      <trkpt lat="48.68052" lon="5.39685">
        <ele>281</ele>
        <time>2020-06-30T07:23:38Z</time>
      </trkpt>
      <trkpt lat="48.68052" lon="5.39676">
        <ele>281</ele>
        <time>2020-06-30T07:23:39Z</time>
      </trkpt>
      <trkpt lat="48.68051" lon="5.39668">
        <ele>280.9</ele>
        <time>2020-06-30T07:23:40Z</time>
      </trkpt>
      <trkpt lat="48.68051" lon="5.39659">
        <ele>280.9</ele>
        <time>2020-06-30T07:23:41Z</time>
      </trkpt>
      <trkpt lat="48.6805" lon="5.39651">
        <ele>280.8</ele>
        <time>2020-06-30T07:23:42Z</time>
      </trkpt>
      <trkpt lat="48.68049" lon="5.39642">
        <ele>280.7</ele>
        <time>2020-06-30T07:23:43Z</time>
      </trkpt>
      <trkpt lat="48.68048" lon="5.39633">
        <ele>280.7</ele>
        <time>2020-06-30T07:23:44Z</time>
      </trkpt>
      <trkpt lat="48.68047" lon="5.39624">
        <ele>280.6</ele>
        <time>2020-06-30T07:23:45Z</time>
      </trkpt>
      <trkpt lat="48.68045" lon="5.39615">
        <ele>280.5</ele>
        <time>2020-06-30T07:23:46Z</time>
      </trkpt>
      <trkpt lat="48.68042" lon="5.39607">
        <ele>280.5</ele>
        <time>2020-06-30T07:23:47Z</time>
      </trkpt>
      <trkpt lat="48.68041" lon="5.39598">
        <ele>280.4</ele>
        <time>2020-06-30T07:23:48Z</time>
      </trkpt>
      <trkpt lat="48.68039" lon="5.3959">
        <ele>280.3</ele>
        <time>2020-06-30T07:23:49Z</time>
      </trkpt>
      <trkpt lat="48.68037" lon="5.39581">
        <ele>280.2</ele>
        <time>2020-06-30T07:23:50Z</time>
      </trkpt>
      <trkpt lat="48.68035" lon="5.39573">
        <ele>280.2</ele>
        <time>2020-06-30T07:23:51Z</time>
      </trkpt>
      <trkpt lat="48.68033" lon="5.39565">
        <ele>280.1</ele>
        <time>2020-06-30T07:23:52Z</time>
      </trkpt>
      <trkpt lat="48.68031" lon="5.39556">
        <ele>280</ele>
        <time>2020-06-30T07:23:53Z</time>
      </trkpt>
      <trkpt lat="48.6803" lon="5.39547">
        <ele>279.9</ele>
        <time>2020-06-30T07:23:54Z</time>
      </trkpt>
      <trkpt lat="48.68028" lon="5.39538">
        <ele>279.8</ele>
        <time>2020-06-30T07:23:55Z</time>
      </trkpt>
      <trkpt lat="48.68026" lon="5.39529">
        <ele>279.7</ele>
        <time>2020-06-30T07:23:56Z</time>
      </trkpt>
      <trkpt lat="48.68025" lon="5.3952">
        <ele>279.6</ele>
        <time>2020-06-30T07:23:57Z</time>
      </trkpt>
      <trkpt lat="48.68024" lon="5.39511">
        <ele>279.5</ele>
        <time>2020-06-30T07:23:58Z</time>
      </trkpt>
      <trkpt lat="48.68022" lon="5.39502">
        <ele>279.4</ele>
        <time>2020-06-30T07:23:59Z</time>
      </trkpt>
      <trkpt lat="48.6802" lon="5.39494">
        <ele>279.2</ele>
        <time>2020-06-30T07:24:00Z</time>
      </trkpt>
      <trkpt lat="48.6802" lon="5.39485">
        <ele>279.1</ele>
        <time>2020-06-30T07:24:01Z</time>
      </trkpt>
      <trkpt lat="48.68019" lon="5.39476">
        <ele>279.1</ele>
        <time>2020-06-30T07:24:02Z</time>
      </trkpt>
      <trkpt lat="48.68018" lon="5.39467">
        <ele>279</ele>
        <time>2020-06-30T07:24:03Z</time>
      </trkpt>
      <trkpt lat="48.68017" lon="5.39458">
        <ele>279</ele>
        <time>2020-06-30T07:24:04Z</time>
      </trkpt>
      <trkpt lat="48.68016" lon="5.39449">
        <ele>278.9</ele>
        <time>2020-06-30T07:24:05Z</time>
      </trkpt>
      <trkpt lat="48.68015" lon="5.3944">
        <ele>278.9</ele>
        <time>2020-06-30T07:24:06Z</time>
      </trkpt>
      <trkpt lat="48.68016" lon="5.39431">
        <ele>278.9</ele>
        <time>2020-06-30T07:24:07Z</time>
      </trkpt>
      <trkpt lat="48.68016" lon="5.39422">
        <ele>278.9</ele>
        <time>2020-06-30T07:24:08Z</time>
      </trkpt>
      <trkpt lat="48.68016" lon="5.39413">
        <ele>278.9</ele>
        <time>2020-06-30T07:24:09Z</time>
      </trkpt>
      <trkpt lat="48.68016" lon="5.39404">
        <ele>279</ele>
        <time>2020-06-30T07:24:10Z</time>
      </trkpt>
      <trkpt lat="48.68016" lon="5.39396">
        <ele>279</ele>
        <time>2020-06-30T07:24:11Z</time>
      </trkpt>
      <trkpt lat="48.68016" lon="5.39387">
        <ele>279</ele>
        <time>2020-06-30T07:24:12Z</time>
      </trkpt>
      <trkpt lat="48.68017" lon="5.39379">
        <ele>278.9</ele>
        <time>2020-06-30T07:24:13Z</time>
      </trkpt>
      <trkpt lat="48.68018" lon="5.3937">
        <ele>278.8</ele>
        <time>2020-06-30T07:24:14Z</time>
      </trkpt>
      <trkpt lat="48.68018" lon="5.3936">
        <ele>278.7</ele>
        <time>2020-06-30T07:24:15Z</time>
      </trkpt>
      <trkpt lat="48.68019" lon="5.39351">
        <ele>278.7</ele>
        <time>2020-06-30T07:24:16Z</time>
      </trkpt>
      <trkpt lat="48.6802" lon="5.39343">
        <ele>278.6</ele>
        <time>2020-06-30T07:24:17Z</time>
      </trkpt>
      <trkpt lat="48.68021" lon="5.39334">
        <ele>278.5</ele>
        <time>2020-06-30T07:24:18Z</time>
      </trkpt>
      <trkpt lat="48.68023" lon="5.39325">
        <ele>278.5</ele>
        <time>2020-06-30T07:24:19Z</time>
      </trkpt>
      <trkpt lat="48.68024" lon="5.39316">
        <ele>278.4</ele>
        <time>2020-06-30T07:24:20Z</time>
      </trkpt>
      <trkpt lat="48.68024" lon="5.39307">
        <ele>278.4</ele>
        <time>2020-06-30T07:24:21Z</time>
      </trkpt>
      <trkpt lat="48.68025" lon="5.39298">
        <ele>278.4</ele>
        <time>2020-06-30T07:24:22Z</time>
      </trkpt>
      <trkpt lat="48.68027" lon="5.39289">
        <ele>278.4</ele>
        <time>2020-06-30T07:24:23Z</time>
      </trkpt>
      <trkpt lat="48.68028" lon="5.39281">
        <ele>278.4</ele>
        <time>2020-06-30T07:24:24Z</time>
      </trkpt>
      <trkpt lat="48.68029" lon="5.39272">
        <ele>278.4</ele>
        <time>2020-06-30T07:24:25Z</time>
      </trkpt>
      <trkpt lat="48.68031" lon="5.39263">
        <ele>278.4</ele>
        <time>2020-06-30T07:24:26Z</time>
      </trkpt>
      <trkpt lat="48.68032" lon="5.39254">
        <ele>278.3</ele>
        <time>2020-06-30T07:24:27Z</time>
      </trkpt>
      <trkpt lat="48.68033" lon="5.39245">
        <ele>278.3</ele>
        <time>2020-06-30T07:24:28Z</time>
      </trkpt>
      <trkpt lat="48.68035" lon="5.39236">
        <ele>278.1</ele>
        <time>2020-06-30T07:24:29Z</time>
      </trkpt>
      <trkpt lat="48.68037" lon="5.39227">
        <ele>278</ele>
        <time>2020-06-30T07:24:30Z</time>
      </trkpt>
      <trkpt lat="48.68038" lon="5.39218">
        <ele>277.9</ele>
        <time>2020-06-30T07:24:31Z</time>
      </trkpt>
      <trkpt lat="48.68042" lon="5.3921">
        <ele>277.9</ele>
        <time>2020-06-30T07:24:32Z</time>
      </trkpt>
      <trkpt lat="48.68044" lon="5.39201">
        <ele>277.9</ele>
        <time>2020-06-30T07:24:33Z</time>
      </trkpt>
      <trkpt lat="48.68046" lon="5.39193">
        <ele>277.8</ele>
        <time>2020-06-30T07:24:34Z</time>
      </trkpt>
      <trkpt lat="48.68048" lon="5.39184">
        <ele>277.8</ele>
        <time>2020-06-30T07:24:35Z</time>
      </trkpt>
      <trkpt lat="48.68051" lon="5.39175">
        <ele>277.7</ele>
        <time>2020-06-30T07:24:36Z</time>
      </trkpt>
      <trkpt lat="48.68053" lon="5.39166">
        <ele>277.7</ele>
        <time>2020-06-30T07:24:37Z</time>
      </trkpt>
      <trkpt lat="48.68055" lon="5.39158">
        <ele>277.8</ele>
        <time>2020-06-30T07:24:38Z</time>
      </trkpt>
      <trkpt lat="48.68057" lon="5.39149">
        <ele>277.8</ele>
        <time>2020-06-30T07:24:39Z</time>
      </trkpt>
      <trkpt lat="48.68059" lon="5.3914">
        <ele>277.9</ele>
        <time>2020-06-30T07:24:40Z</time>
      </trkpt>
      <trkpt lat="48.68061" lon="5.39131">
        <ele>278</ele>
        <time>2020-06-30T07:24:41Z</time>
      </trkpt>
      <trkpt lat="48.68064" lon="5.39123">
        <ele>278</ele>
        <time>2020-06-30T07:24:42Z</time>
      </trkpt>
      <trkpt lat="48.68066" lon="5.39115">
        <ele>277.9</ele>
        <time>2020-06-30T07:24:43Z</time>
      </trkpt>
      <trkpt lat="48.68067" lon="5.39106">
        <ele>277.8</ele>
        <time>2020-06-30T07:24:44Z</time>
      </trkpt>
      <trkpt lat="48.68069" lon="5.39097">
        <ele>277.8</ele>
        <time>2020-06-30T07:24:45Z</time>
      </trkpt>
      <trkpt lat="48.68071" lon="5.39089">
        <ele>277.7</ele>
        <time>2020-06-30T07:24:46Z</time>
      </trkpt>
      <trkpt lat="48.68073" lon="5.39081">
        <ele>277.6</ele>
        <time>2020-06-30T07:24:47Z</time>
      </trkpt>
      <trkpt lat="48.68075" lon="5.39073">
        <ele>277.5</ele>
        <time>2020-06-30T07:24:48Z</time>
      </trkpt>
      <trkpt lat="48.68078" lon="5.39065">
        <ele>277.4</ele>
        <time>2020-06-30T07:24:49Z</time>
      </trkpt>
      <trkpt lat="48.6808" lon="5.39056">
        <ele>277.4</ele>
        <time>2020-06-30T07:24:50Z</time>
      </trkpt>
      <trkpt lat="48.68082" lon="5.39048">
        <ele>277.3</ele>
        <time>2020-06-30T07:24:51Z</time>
      </trkpt>
      <trkpt lat="48.68085" lon="5.3904">
        <ele>277.2</ele>
        <time>2020-06-30T07:24:52Z</time>
      </trkpt>
      <trkpt lat="48.68087" lon="5.39032">
        <ele>277.1</ele>
        <time>2020-06-30T07:24:53Z</time>
      </trkpt>
      <trkpt lat="48.68089" lon="5.39023">
        <ele>276.9</ele>
        <time>2020-06-30T07:24:54Z</time>
      </trkpt>
      <trkpt lat="48.6809" lon="5.39014">
        <ele>276.8</ele>
        <time>2020-06-30T07:24:55Z</time>
      </trkpt>
      <trkpt lat="48.68092" lon="5.39004">
        <ele>276.6</ele>
        <time>2020-06-30T07:24:56Z</time>
      </trkpt>
      <trkpt lat="48.68094" lon="5.38995">
        <ele>276.4</ele>
        <time>2020-06-30T07:24:57Z</time>
      </trkpt>
      <trkpt lat="48.68097" lon="5.38986">
        <ele>276.2</ele>
        <time>2020-06-30T07:24:58Z</time>
      </trkpt>
      <trkpt lat="48.68099" lon="5.38976">
        <ele>275.9</ele>
        <time>2020-06-30T07:24:59Z</time>
      </trkpt>
      <trkpt lat="48.68101" lon="5.38967">
        <ele>275.6</ele>
        <time>2020-06-30T07:25:00Z</time>
      </trkpt>
      <trkpt lat="48.68105" lon="5.38957">
        <ele>275.2</ele>
        <time>2020-06-30T07:25:01Z</time>
      </trkpt>
      <trkpt lat="48.68107" lon="5.38948">
        <ele>274.9</ele>
        <time>2020-06-30T07:25:02Z</time>
      </trkpt>
      <trkpt lat="48.6811" lon="5.38938">
        <ele>274.6</ele>
        <time>2020-06-30T07:25:03Z</time>
      </trkpt>
      <trkpt lat="48.68114" lon="5.38929">
        <ele>274.4</ele>
        <time>2020-06-30T07:25:04Z</time>
      </trkpt>
      <trkpt lat="48.68119" lon="5.38921">
        <ele>274.1</ele>
        <time>2020-06-30T07:25:05Z</time>
      </trkpt>
      <trkpt lat="48.68123" lon="5.38913">
        <ele>273.9</ele>
        <time>2020-06-30T07:25:06Z</time>
      </trkpt>
      <trkpt lat="48.68128" lon="5.38905">
        <ele>273.7</ele>
        <time>2020-06-30T07:25:07Z</time>
      </trkpt>
      <trkpt lat="48.68133" lon="5.38898">
        <ele>273.6</ele>
        <time>2020-06-30T07:25:08Z</time>
      </trkpt>
      <trkpt lat="48.68138" lon="5.3889">
        <ele>273.4</ele>
        <time>2020-06-30T07:25:09Z</time>
      </trkpt>
      <trkpt lat="48.68143" lon="5.38883">
        <ele>273.3</ele>
        <time>2020-06-30T07:25:10Z</time>
      </trkpt>
      <trkpt lat="48.68148" lon="5.38876">
        <ele>273.2</ele>
        <time>2020-06-30T07:25:11Z</time>
      </trkpt>
      <trkpt lat="48.68153" lon="5.38869">
        <ele>273.1</ele>
        <time>2020-06-30T07:25:12Z</time>
      </trkpt>
      <trkpt lat="48.68158" lon="5.38862">
        <ele>272.9</ele>
        <time>2020-06-30T07:25:13Z</time>
      </trkpt>
      <trkpt lat="48.68162" lon="5.38854">
        <ele>272.7</ele>
        <time>2020-06-30T07:25:14Z</time>
      </trkpt>
      <trkpt lat="48.68167" lon="5.38848">
        <ele>272.4</ele>
        <time>2020-06-30T07:25:15Z</time>
      </trkpt>
      <trkpt lat="48.68171" lon="5.38841">
        <ele>272.5</ele>
        <time>2020-06-30T07:25:16Z</time>
      </trkpt>
      <trkpt lat="48.68175" lon="5.38833">
        <ele>272.6</ele>
        <time>2020-06-30T07:25:17Z</time>
      </trkpt>
      <trkpt lat="48.68178" lon="5.38826">
        <ele>272.7</ele>
        <time>2020-06-30T07:25:18Z</time>
      </trkpt>
      <trkpt lat="48.6818" lon="5.38818">
        <ele>272.8</ele>
        <time>2020-06-30T07:25:19Z</time>
      </trkpt>
      <trkpt lat="48.68183" lon="5.3881">
        <ele>272.9</ele>
        <time>2020-06-30T07:25:20Z</time>
      </trkpt>
      <trkpt lat="48.68185" lon="5.38803">
        <ele>273</ele>
        <time>2020-06-30T07:25:21Z</time>
      </trkpt>
      <trkpt lat="48.68186" lon="5.38795">
        <ele>273.1</ele>
        <time>2020-06-30T07:25:22Z</time>
      </trkpt>
      <trkpt lat="48.68187" lon="5.38787">
        <ele>273.2</ele>
        <time>2020-06-30T07:25:23Z</time>
      </trkpt>
      <trkpt lat="48.68188" lon="5.38779">
        <ele>273.4</ele>
        <time>2020-06-30T07:25:24Z</time>
      </trkpt>
      <trkpt lat="48.68189" lon="5.38771">
        <ele>273.5</ele>
        <time>2020-06-30T07:25:25Z</time>
      </trkpt>
      <trkpt lat="48.6819" lon="5.38764">
        <ele>273.6</ele>
        <time>2020-06-30T07:25:26Z</time>
      </trkpt>
      <trkpt lat="48.6819" lon="5.38757">
        <ele>273.8</ele>
        <time>2020-06-30T07:25:27Z</time>
      </trkpt>
      <trkpt lat="48.6819" lon="5.3875">
        <ele>273.9</ele>
        <time>2020-06-30T07:25:28Z</time>
      </trkpt>
      <trkpt lat="48.6819" lon="5.38743">
        <ele>274</ele>
        <time>2020-06-30T07:25:29Z</time>
      </trkpt>
      <trkpt lat="48.6819" lon="5.38736">
        <ele>274.1</ele>
        <time>2020-06-30T07:25:30Z</time>
      </trkpt>
      <trkpt lat="48.68189" lon="5.38729">
        <ele>274.2</ele>
        <time>2020-06-30T07:25:31Z</time>
      </trkpt>
      <trkpt lat="48.68189" lon="5.38722">
        <ele>274.3</ele>
        <time>2020-06-30T07:25:32Z</time>
      </trkpt>
      <trkpt lat="48.68189" lon="5.38716">
        <ele>274.4</ele>
        <time>2020-06-30T07:25:33Z</time>
      </trkpt>
      <trkpt lat="48.68188" lon="5.3871">
        <ele>274.5</ele>
        <time>2020-06-30T07:25:34Z</time>
      </trkpt>
      <trkpt lat="48.68186" lon="5.38703">
        <ele>274.6</ele>
        <time>2020-06-30T07:25:35Z</time>
      </trkpt>
      <trkpt lat="48.68185" lon="5.38697">
        <ele>274.7</ele>
        <time>2020-06-30T07:25:36Z</time>
      </trkpt>
      <trkpt lat="48.68185" lon="5.3869">
        <ele>274.8</ele>
        <time>2020-06-30T07:25:37Z</time>
      </trkpt>
      <trkpt lat="48.68184" lon="5.38684">
        <ele>274.9</ele>
        <time>2020-06-30T07:25:38Z</time>
      </trkpt>
      <trkpt lat="48.68183" lon="5.38676">
        <ele>275</ele>
        <time>2020-06-30T07:25:39Z</time>
      </trkpt>
      <trkpt lat="48.68182" lon="5.38669">
        <ele>275.1</ele>
        <time>2020-06-30T07:25:40Z</time>
      </trkpt>
      <trkpt lat="48.68181" lon="5.38662">
        <ele>275.2</ele>
        <time>2020-06-30T07:25:41Z</time>
      </trkpt>
      <trkpt lat="48.68181" lon="5.38655">
        <ele>275.2</ele>
        <time>2020-06-30T07:25:42Z</time>
      </trkpt>
      <trkpt lat="48.68181" lon="5.38646">
        <ele>275.2</ele>
        <time>2020-06-30T07:25:43Z</time>
      </trkpt>
      <trkpt lat="48.68181" lon="5.38638">
        <ele>275.2</ele>
        <time>2020-06-30T07:25:44Z</time>
      </trkpt>
      <trkpt lat="48.6818" lon="5.38631">
        <ele>275.3</ele>
        <time>2020-06-30T07:25:45Z</time>
      </trkpt>
      <trkpt lat="48.6818" lon="5.38623">
        <ele>275.3</ele>
        <time>2020-06-30T07:25:46Z</time>
      </trkpt>
      <trkpt lat="48.68179" lon="5.38617">
        <ele>275.3</ele>
        <time>2020-06-30T07:25:47Z</time>
      </trkpt>
      <trkpt lat="48.68179" lon="5.38608">
        <ele>275.2</ele>
        <time>2020-06-30T07:25:48Z</time>
      </trkpt>
      <trkpt lat="48.68178" lon="5.38599">
        <ele>275.2</ele>
        <time>2020-06-30T07:25:49Z</time>
      </trkpt>
      <trkpt lat="48.68178" lon="5.38591">
        <ele>275.2</ele>
        <time>2020-06-30T07:25:50Z</time>
      </trkpt>
      <trkpt lat="48.68178" lon="5.38584">
        <ele>275.1</ele>
        <time>2020-06-30T07:25:51Z</time>
      </trkpt>
      <trkpt lat="48.68179" lon="5.38574">
        <ele>275</ele>
        <time>2020-06-30T07:25:52Z</time>
      </trkpt>
      <trkpt lat="48.6818" lon="5.38566">
        <ele>274.9</ele>
        <time>2020-06-30T07:25:53Z</time>
      </trkpt>
      <trkpt lat="48.6818" lon="5.38556">
        <ele>274.8</ele>
        <time>2020-06-30T07:25:54Z</time>
      </trkpt>
      <trkpt lat="48.6818" lon="5.38547">
        <ele>274.7</ele>
        <time>2020-06-30T07:25:55Z</time>
      </trkpt>
      <trkpt lat="48.6818" lon="5.38537">
        <ele>274.6</ele>
        <time>2020-06-30T07:25:56Z</time>
      </trkpt>
      <trkpt lat="48.68181" lon="5.38528">
        <ele>274.6</ele>
        <time>2020-06-30T07:25:57Z</time>
      </trkpt>
      <trkpt lat="48.68182" lon="5.38519">
        <ele>274.5</ele>
        <time>2020-06-30T07:25:58Z</time>
      </trkpt>
      <trkpt lat="48.68182" lon="5.38511">
        <ele>274.5</ele>
        <time>2020-06-30T07:25:59Z</time>
      </trkpt>
      <trkpt lat="48.68183" lon="5.38502">
        <ele>274.4</ele>
        <time>2020-06-30T07:26:00Z</time>
      </trkpt>
      <trkpt lat="48.68183" lon="5.38492">
        <ele>274.4</ele>
        <time>2020-06-30T07:26:01Z</time>
      </trkpt>
      <trkpt lat="48.68183" lon="5.38483">
        <ele>274.3</ele>
        <time>2020-06-30T07:26:02Z</time>
      </trkpt>
      <trkpt lat="48.68183" lon="5.38474">
        <ele>274.3</ele>
        <time>2020-06-30T07:26:03Z</time>
      </trkpt>
      <trkpt lat="48.68183" lon="5.38465">
        <ele>274.2</ele>
        <time>2020-06-30T07:26:04Z</time>
      </trkpt>
      <trkpt lat="48.68183" lon="5.38457">
        <ele>274.2</ele>
        <time>2020-06-30T07:26:05Z</time>
      </trkpt>
      <trkpt lat="48.68183" lon="5.38448">
        <ele>274.1</ele>
        <time>2020-06-30T07:26:06Z</time>
      </trkpt>
      <trkpt lat="48.68183" lon="5.38439">
        <ele>274.1</ele>
        <time>2020-06-30T07:26:07Z</time>
      </trkpt>
      <trkpt lat="48.68183" lon="5.38429">
        <ele>274</ele>
        <time>2020-06-30T07:26:08Z</time>
      </trkpt>
      <trkpt lat="48.68182" lon="5.38422">
        <ele>274</ele>
        <time>2020-06-30T07:26:09Z</time>
      </trkpt>
      <trkpt lat="48.68182" lon="5.38413">
        <ele>273.9</ele>
        <time>2020-06-30T07:26:10Z</time>
      </trkpt>
      <trkpt lat="48.68181" lon="5.38404">
        <ele>273.9</ele>
        <time>2020-06-30T07:26:11Z</time>
      </trkpt>
      <trkpt lat="48.6818" lon="5.38395">
        <ele>273.8</ele>
        <time>2020-06-30T07:26:12Z</time>
      </trkpt>
      <trkpt lat="48.68179" lon="5.38389">
        <ele>273.8</ele>
        <time>2020-06-30T07:26:13Z</time>
      </trkpt>
      <trkpt lat="48.68179" lon="5.38382">
        <ele>273.8</ele>
        <time>2020-06-30T07:26:14Z</time>
      </trkpt>
      <trkpt lat="48.68178" lon="5.38376">
        <ele>273.8</ele>
        <time>2020-06-30T07:26:15Z</time>
      </trkpt>
      <trkpt lat="48.68177" lon="5.38368">
        <ele>273.8</ele>
        <time>2020-06-30T07:26:16Z</time>
      </trkpt>
      <trkpt lat="48.68177" lon="5.38359">
        <ele>273.7</ele>
        <time>2020-06-30T07:26:17Z</time>
      </trkpt>
      <trkpt lat="48.68176" lon="5.38351">
        <ele>273.7</ele>
        <time>2020-06-30T07:26:18Z</time>
      </trkpt>
      <trkpt lat="48.68175" lon="5.38343">
        <ele>273.7</ele>
        <time>2020-06-30T07:26:19Z</time>
      </trkpt>
      <trkpt lat="48.68173" lon="5.38332">
        <ele>273.6</ele>
        <time>2020-06-30T07:26:20Z</time>
      </trkpt>
      <trkpt lat="48.68173" lon="5.38325">
        <ele>273.6</ele>
        <time>2020-06-30T07:26:21Z</time>
      </trkpt>
      <trkpt lat="48.68172" lon="5.38318">
        <ele>273.6</ele>
        <time>2020-06-30T07:26:22Z</time>
      </trkpt>
      <trkpt lat="48.6817" lon="5.38308">
        <ele>273.5</ele>
        <time>2020-06-30T07:26:23Z</time>
      </trkpt>
      <trkpt lat="48.68169" lon="5.38301">
        <ele>273.5</ele>
        <time>2020-06-30T07:26:24Z</time>
      </trkpt>
      <trkpt lat="48.68168" lon="5.38293">
        <ele>273.4</ele>
        <time>2020-06-30T07:26:25Z</time>
      </trkpt>
      <trkpt lat="48.68167" lon="5.38284">
        <ele>273.3</ele>
        <time>2020-06-30T07:26:26Z</time>
      </trkpt>
      <trkpt lat="48.68165" lon="5.38275">
        <ele>273.3</ele>
        <time>2020-06-30T07:26:27Z</time>
      </trkpt>
      <trkpt lat="48.68165" lon="5.38268">
        <ele>273.2</ele>
        <time>2020-06-30T07:26:28Z</time>
      </trkpt>
      <trkpt lat="48.68164" lon="5.38261">
        <ele>273.2</ele>
        <time>2020-06-30T07:26:29Z</time>
      </trkpt>
      <trkpt lat="48.68162" lon="5.38252">
        <ele>273.1</ele>
        <time>2020-06-30T07:26:30Z</time>
      </trkpt>
      <trkpt lat="48.68161" lon="5.38243">
        <ele>273.1</ele>
        <time>2020-06-30T07:26:31Z</time>
      </trkpt>
      <trkpt lat="48.6816" lon="5.38234">
        <ele>272.9</ele>
        <time>2020-06-30T07:26:32Z</time>
      </trkpt>
      <trkpt lat="48.68159" lon="5.38225">
        <ele>272.8</ele>
        <time>2020-06-30T07:26:33Z</time>
      </trkpt>
      <trkpt lat="48.68158" lon="5.38218">
        <ele>272.7</ele>
        <time>2020-06-30T07:26:34Z</time>
      </trkpt>
      <trkpt lat="48.68157" lon="5.38209">
        <ele>272.5</ele>
        <time>2020-06-30T07:26:35Z</time>
      </trkpt>
      <trkpt lat="48.68155" lon="5.38199">
        <ele>272.3</ele>
        <time>2020-06-30T07:26:36Z</time>
      </trkpt>
      <trkpt lat="48.68154" lon="5.3819">
        <ele>272.1</ele>
        <time>2020-06-30T07:26:37Z</time>
      </trkpt>
      <trkpt lat="48.68153" lon="5.38179">
        <ele>272</ele>
        <time>2020-06-30T07:26:38Z</time>
      </trkpt>
      <trkpt lat="48.68152" lon="5.38171">
        <ele>271.9</ele>
        <time>2020-06-30T07:26:39Z</time>
      </trkpt>
      <trkpt lat="48.68151" lon="5.38163">
        <ele>271.8</ele>
        <time>2020-06-30T07:26:40Z</time>
      </trkpt>
      <trkpt lat="48.6815" lon="5.38153">
        <ele>271.7</ele>
        <time>2020-06-30T07:26:41Z</time>
      </trkpt>
      <trkpt lat="48.68149" lon="5.38145">
        <ele>271.6</ele>
        <time>2020-06-30T07:26:42Z</time>
      </trkpt>
      <trkpt lat="48.68149" lon="5.38136">
        <ele>271.4</ele>
        <time>2020-06-30T07:26:43Z</time>
      </trkpt>
      <trkpt lat="48.68148" lon="5.38127">
        <ele>271.3</ele>
        <time>2020-06-30T07:26:44Z</time>
      </trkpt>
      <trkpt lat="48.68147" lon="5.38117">
        <ele>271.1</ele>
        <time>2020-06-30T07:26:45Z</time>
      </trkpt>
      <trkpt lat="48.68146" lon="5.38107">
        <ele>270.8</ele>
        <time>2020-06-30T07:26:46Z</time>
      </trkpt>
      <trkpt lat="48.68146" lon="5.38098">
        <ele>270.6</ele>
        <time>2020-06-30T07:26:47Z</time>
      </trkpt>
      <trkpt lat="48.68146" lon="5.3809">
        <ele>270.4</ele>
        <time>2020-06-30T07:26:48Z</time>
      </trkpt>
      <trkpt lat="48.68145" lon="5.38083">
        <ele>270.3</ele>
        <time>2020-06-30T07:26:49Z</time>
      </trkpt>
      <trkpt lat="48.68145" lon="5.38074">
        <ele>270.1</ele>
        <time>2020-06-30T07:26:50Z</time>
      </trkpt>
      <trkpt lat="48.68144" lon="5.38066">
        <ele>270</ele>
        <time>2020-06-30T07:26:51Z</time>
      </trkpt>
      <trkpt lat="48.68144" lon="5.38056">
        <ele>269.9</ele>
        <time>2020-06-30T07:26:52Z</time>
      </trkpt>
      <trkpt lat="48.68144" lon="5.38046">
        <ele>269.7</ele>
        <time>2020-06-30T07:26:53Z</time>
      </trkpt>
      <trkpt lat="48.68144" lon="5.38037">
        <ele>269.6</ele>
        <time>2020-06-30T07:26:54Z</time>
      </trkpt>
      <trkpt lat="48.68144" lon="5.38027">
        <ele>269.5</ele>
        <time>2020-06-30T07:26:55Z</time>
      </trkpt>
      <trkpt lat="48.68144" lon="5.38017">
        <ele>269.4</ele>
        <time>2020-06-30T07:26:56Z</time>
      </trkpt>
      <trkpt lat="48.68144" lon="5.38008">
        <ele>269.3</ele>
        <time>2020-06-30T07:26:57Z</time>
      </trkpt>
      <trkpt lat="48.68144" lon="5.37997">
        <ele>269.2</ele>
        <time>2020-06-30T07:26:58Z</time>
      </trkpt>
      <trkpt lat="48.68144" lon="5.37988">
        <ele>269.2</ele>
        <time>2020-06-30T07:26:59Z</time>
      </trkpt>
      <trkpt lat="48.68144" lon="5.37979">
        <ele>269.1</ele>
        <time>2020-06-30T07:27:00Z</time>
      </trkpt>
      <trkpt lat="48.68144" lon="5.3797">
        <ele>269.1</ele>
        <time>2020-06-30T07:27:01Z</time>
      </trkpt>
      <trkpt lat="48.68144" lon="5.37961">
        <ele>269</ele>
        <time>2020-06-30T07:27:02Z</time>
      </trkpt>
      <trkpt lat="48.68144" lon="5.37951">
        <ele>269</ele>
        <time>2020-06-30T07:27:03Z</time>
      </trkpt>
      <trkpt lat="48.68144" lon="5.37941">
        <ele>269</ele>
        <time>2020-06-30T07:27:04Z</time>
      </trkpt>
      <trkpt lat="48.68144" lon="5.37932">
        <ele>269</ele>
        <time>2020-06-30T07:27:05Z</time>
      </trkpt>
      <trkpt lat="48.68144" lon="5.37924">
        <ele>269</ele>
        <time>2020-06-30T07:27:06Z</time>
      </trkpt>
      <trkpt lat="48.68144" lon="5.37914">
        <ele>269</ele>
        <time>2020-06-30T07:27:07Z</time>
      </trkpt>
      <trkpt lat="48.68143" lon="5.37907">
        <ele>269</ele>
        <time>2020-06-30T07:27:08Z</time>
      </trkpt>
      <trkpt lat="48.68143" lon="5.37898">
        <ele>269</ele>
        <time>2020-06-30T07:27:09Z</time>
      </trkpt>
      <trkpt lat="48.68143" lon="5.3789">
        <ele>269</ele>
        <time>2020-06-30T07:27:10Z</time>
      </trkpt>
      <trkpt lat="48.68143" lon="5.37881">
        <ele>269</ele>
        <time>2020-06-30T07:27:11Z</time>
      </trkpt>
      <trkpt lat="48.68144" lon="5.37873">
        <ele>269</ele>
        <time>2020-06-30T07:27:12Z</time>
      </trkpt>
      <trkpt lat="48.68144" lon="5.37864">
        <ele>269</ele>
        <time>2020-06-30T07:27:13Z</time>
      </trkpt>
      <trkpt lat="48.68145" lon="5.37857">
        <ele>269</ele>
        <time>2020-06-30T07:27:14Z</time>
      </trkpt>
      <trkpt lat="48.68145" lon="5.37849">
        <ele>269</ele>
        <time>2020-06-30T07:27:15Z</time>
      </trkpt>
      <trkpt lat="48.68146" lon="5.37841">
        <ele>269</ele>
        <time>2020-06-30T07:27:16Z</time>
      </trkpt>
      <trkpt lat="48.68147" lon="5.37834">
        <ele>269.1</ele>
        <time>2020-06-30T07:27:17Z</time>
      </trkpt>
      <trkpt lat="48.68147" lon="5.37825">
        <ele>269.1</ele>
        <time>2020-06-30T07:27:18Z</time>
      </trkpt>
      <trkpt lat="48.68147" lon="5.37818">
        <ele>269.1</ele>
        <time>2020-06-30T07:27:19Z</time>
      </trkpt>
      <trkpt lat="48.68148" lon="5.37813">
        <ele>269.1</ele>
        <time>2020-06-30T07:27:20Z</time>
      </trkpt>
      <trkpt lat="48.68148" lon="5.37805">
        <ele>269.2</ele>
        <time>2020-06-30T07:27:21Z</time>
      </trkpt>
      <trkpt lat="48.68149" lon="5.37798">
        <ele>269.3</ele>
        <time>2020-06-30T07:27:22Z</time>
      </trkpt>
      <trkpt lat="48.68149" lon="5.37792">
        <ele>269.3</ele>
        <time>2020-06-30T07:27:23Z</time>
      </trkpt>
      <trkpt lat="48.68151" lon="5.37783">
        <ele>269.4</ele>
        <time>2020-06-30T07:27:24Z</time>
      </trkpt>
      <trkpt lat="48.68152" lon="5.37775">
        <ele>269.5</ele>
        <time>2020-06-30T07:27:25Z</time>
      </trkpt>
      <trkpt lat="48.68152" lon="5.37767">
        <ele>269.6</ele>
        <time>2020-06-30T07:27:26Z</time>
      </trkpt>
      <trkpt lat="48.68153" lon="5.37756">
        <ele>269.6</ele>
        <time>2020-06-30T07:27:27Z</time>
      </trkpt>
      <trkpt lat="48.68154" lon="5.3775">
        <ele>269.7</ele>
        <time>2020-06-30T07:27:28Z</time>
      </trkpt>
      <trkpt lat="48.68156" lon="5.37742">
        <ele>269.8</ele>
        <time>2020-06-30T07:27:29Z</time>
      </trkpt>
      <trkpt lat="48.68157" lon="5.37733">
        <ele>269.9</ele>
        <time>2020-06-30T07:27:30Z</time>
      </trkpt>
      <trkpt lat="48.68158" lon="5.37726">
        <ele>269.9</ele>
        <time>2020-06-30T07:27:31Z</time>
      </trkpt>
      <trkpt lat="48.68159" lon="5.37719">
        <ele>270</ele>
        <time>2020-06-30T07:27:32Z</time>
      </trkpt>
      <trkpt lat="48.6816" lon="5.37715">
        <ele>270.1</ele>
        <time>2020-06-30T07:27:33Z</time>
      </trkpt>
      <trkpt lat="48.68162" lon="5.37708">
        <ele>270.2</ele>
        <time>2020-06-30T07:27:34Z</time>
      </trkpt>
      <trkpt lat="48.68164" lon="5.37701">
        <ele>270.3</ele>
        <time>2020-06-30T07:27:35Z</time>
      </trkpt>
      <trkpt lat="48.68165" lon="5.37694">
        <ele>270.5</ele>
        <time>2020-06-30T07:27:36Z</time>
      </trkpt>
      <trkpt lat="48.68166" lon="5.37688">
        <ele>270.6</ele>
        <time>2020-06-30T07:27:37Z</time>
      </trkpt>
      <trkpt lat="48.68166" lon="5.37684">
        <ele>270.7</ele>
        <time>2020-06-30T07:27:38Z</time>
      </trkpt>
      <trkpt lat="48.68168" lon="5.37677">
        <ele>270.9</ele>
        <time>2020-06-30T07:27:39Z</time>
      </trkpt>
      <trkpt lat="48.68169" lon="5.37671">
        <ele>271</ele>
        <time>2020-06-30T07:27:40Z</time>
      </trkpt>
      <trkpt lat="48.68169" lon="5.37665">
        <ele>271.1</ele>
        <time>2020-06-30T07:27:41Z</time>
      </trkpt>
      <trkpt lat="48.68171" lon="5.37659">
        <ele>271.2</ele>
        <time>2020-06-30T07:27:42Z</time>
      </trkpt>
      <trkpt lat="48.68171" lon="5.37656">
        <ele>271.3</ele>
        <time>2020-06-30T07:27:43Z</time>
      </trkpt>
      <trkpt lat="48.68172" lon="5.3765">
        <ele>271.4</ele>
        <time>2020-06-30T07:27:44Z</time>
      </trkpt>
      <trkpt lat="48.68172" lon="5.37642">
        <ele>271.5</ele>
        <time>2020-06-30T07:27:45Z</time>
      </trkpt>
      <trkpt lat="48.68173" lon="5.37636">
        <ele>271.6</ele>
        <time>2020-06-30T07:27:46Z</time>
      </trkpt>
      <trkpt lat="48.68173" lon="5.3763">
        <ele>271.6</ele>
        <time>2020-06-30T07:27:47Z</time>
      </trkpt>
      <trkpt lat="48.68173" lon="5.37626">
        <ele>271.7</ele>
        <time>2020-06-30T07:27:48Z</time>
      </trkpt>
      <trkpt lat="48.68173" lon="5.37619">
        <ele>271.7</ele>
        <time>2020-06-30T07:27:49Z</time>
      </trkpt>
      <trkpt lat="48.68173" lon="5.37613">
        <ele>271.8</ele>
        <time>2020-06-30T07:27:50Z</time>
      </trkpt>
      <trkpt lat="48.68173" lon="5.37606">
        <ele>271.8</ele>
        <time>2020-06-30T07:27:51Z</time>
      </trkpt>
      <trkpt lat="48.68173" lon="5.37599">
        <ele>271.9</ele>
        <time>2020-06-30T07:27:52Z</time>
      </trkpt>
      <trkpt lat="48.68173" lon="5.37592">
        <ele>271.9</ele>
        <time>2020-06-30T07:27:53Z</time>
      </trkpt>
      <trkpt lat="48.68173" lon="5.37587">
        <ele>271.9</ele>
        <time>2020-06-30T07:27:54Z</time>
      </trkpt>
      <trkpt lat="48.68173" lon="5.3758">
        <ele>271.8</ele>
        <time>2020-06-30T07:27:55Z</time>
      </trkpt>
      <trkpt lat="48.68173" lon="5.37573">
        <ele>271.8</ele>
        <time>2020-06-30T07:27:56Z</time>
      </trkpt>
      <trkpt lat="48.68173" lon="5.37567">
        <ele>271.8</ele>
        <time>2020-06-30T07:27:57Z</time>
      </trkpt>
      <trkpt lat="48.68173" lon="5.37561">
        <ele>271.8</ele>
        <time>2020-06-30T07:27:58Z</time>
      </trkpt>
      <trkpt lat="48.68172" lon="5.37555">
        <ele>271.7</ele>
        <time>2020-06-30T07:27:59Z</time>
      </trkpt>
      <trkpt lat="48.68172" lon="5.37549">
        <ele>271.7</ele>
        <time>2020-06-30T07:28:00Z</time>
      </trkpt>
      <trkpt lat="48.68171" lon="5.37542">
        <ele>271.6</ele>
        <time>2020-06-30T07:28:01Z</time>
      </trkpt>
      <trkpt lat="48.6817" lon="5.37535">
        <ele>271.5</ele>
        <time>2020-06-30T07:28:02Z</time>
      </trkpt>
      <trkpt lat="48.68169" lon="5.37527">
        <ele>271.3</ele>
        <time>2020-06-30T07:28:03Z</time>
      </trkpt>
      <trkpt lat="48.68168" lon="5.3752">
        <ele>271.1</ele>
        <time>2020-06-30T07:28:04Z</time>
      </trkpt>
      <trkpt lat="48.68167" lon="5.37511">
        <ele>271</ele>
        <time>2020-06-30T07:28:05Z</time>
      </trkpt>
      <trkpt lat="48.68166" lon="5.37503">
        <ele>270.8</ele>
        <time>2020-06-30T07:28:06Z</time>
      </trkpt>
      <trkpt lat="48.68164" lon="5.37494">
        <ele>270.5</ele>
        <time>2020-06-30T07:28:07Z</time>
      </trkpt>
      <trkpt lat="48.68162" lon="5.37484">
        <ele>270.2</ele>
        <time>2020-06-30T07:28:08Z</time>
      </trkpt>
      <trkpt lat="48.6816" lon="5.37473">
        <ele>269.9</ele>
        <time>2020-06-30T07:28:09Z</time>
      </trkpt>
      <trkpt lat="48.68157" lon="5.37464">
        <ele>269.6</ele>
        <time>2020-06-30T07:28:10Z</time>
      </trkpt>
      <trkpt lat="48.68154" lon="5.37455">
        <ele>269.3</ele>
        <time>2020-06-30T07:28:11Z</time>
      </trkpt>
      <trkpt lat="48.68152" lon="5.37446">
        <ele>269.1</ele>
        <time>2020-06-30T07:28:12Z</time>
      </trkpt>
      <trkpt lat="48.6815" lon="5.37437">
        <ele>268.9</ele>
        <time>2020-06-30T07:28:13Z</time>
      </trkpt>
      <trkpt lat="48.68147" lon="5.37429">
        <ele>268.7</ele>
        <time>2020-06-30T07:28:14Z</time>
      </trkpt>
      <trkpt lat="48.68145" lon="5.3742">
        <ele>268.4</ele>
        <time>2020-06-30T07:28:15Z</time>
      </trkpt>
      <trkpt lat="48.68143" lon="5.3741">
        <ele>268.1</ele>
        <time>2020-06-30T07:28:16Z</time>
      </trkpt>
      <trkpt lat="48.6814" lon="5.37401">
        <ele>267.8</ele>
        <time>2020-06-30T07:28:17Z</time>
      </trkpt>
      <trkpt lat="48.68137" lon="5.37392">
        <ele>267.8</ele>
        <time>2020-06-30T07:28:18Z</time>
      </trkpt>
      <trkpt lat="48.68134" lon="5.37382">
        <ele>267.7</ele>
        <time>2020-06-30T07:28:19Z</time>
      </trkpt>
      <trkpt lat="48.68131" lon="5.37373">
        <ele>267.6</ele>
        <time>2020-06-30T07:28:20Z</time>
      </trkpt>
      <trkpt lat="48.68129" lon="5.37363">
        <ele>267.5</ele>
        <time>2020-06-30T07:28:21Z</time>
      </trkpt>
      <trkpt lat="48.68125" lon="5.37354">
        <ele>267.4</ele>
        <time>2020-06-30T07:28:22Z</time>
      </trkpt>
      <trkpt lat="48.68123" lon="5.37344">
        <ele>267.4</ele>
        <time>2020-06-30T07:28:23Z</time>
      </trkpt>
      <trkpt lat="48.6812" lon="5.37335">
        <ele>267.4</ele>
        <time>2020-06-30T07:28:24Z</time>
      </trkpt>
      <trkpt lat="48.68118" lon="5.37326">
        <ele>267.4</ele>
        <time>2020-06-30T07:28:25Z</time>
      </trkpt>
      <trkpt lat="48.68115" lon="5.37317">
        <ele>267.4</ele>
        <time>2020-06-30T07:28:26Z</time>
      </trkpt>
      <trkpt lat="48.68112" lon="5.37308">
        <ele>267.4</ele>
        <time>2020-06-30T07:28:27Z</time>
      </trkpt>
      <trkpt lat="48.6811" lon="5.373">
        <ele>267.4</ele>
        <time>2020-06-30T07:28:28Z</time>
      </trkpt>
      <trkpt lat="48.68108" lon="5.37292">
        <ele>267.4</ele>
        <time>2020-06-30T07:28:29Z</time>
      </trkpt>
      <trkpt lat="48.68106" lon="5.37286">
        <ele>267.3</ele>
        <time>2020-06-30T07:28:30Z</time>
      </trkpt>
      <trkpt lat="48.68103" lon="5.37278">
        <ele>267.3</ele>
        <time>2020-06-30T07:28:31Z</time>
      </trkpt>
      <trkpt lat="48.68102" lon="5.3727">
        <ele>267.4</ele>
        <time>2020-06-30T07:28:32Z</time>
      </trkpt>
      <trkpt lat="48.681" lon="5.37262">
        <ele>267.4</ele>
        <time>2020-06-30T07:28:33Z</time>
      </trkpt>
      <trkpt lat="48.68099" lon="5.37255">
        <ele>267.4</ele>
        <time>2020-06-30T07:28:34Z</time>
      </trkpt>
      <trkpt lat="48.68098" lon="5.37248">
        <ele>267.3</ele>
        <time>2020-06-30T07:28:35Z</time>
      </trkpt>
      <trkpt lat="48.68097" lon="5.37241">
        <ele>267.3</ele>
        <time>2020-06-30T07:28:36Z</time>
      </trkpt>
      <trkpt lat="48.68097" lon="5.37235">
        <ele>267.3</ele>
        <time>2020-06-30T07:28:37Z</time>
      </trkpt>
      <trkpt lat="48.68096" lon="5.37228">
        <ele>267.2</ele>
        <time>2020-06-30T07:28:38Z</time>
      </trkpt>
      <trkpt lat="48.68096" lon="5.37223">
        <ele>267.1</ele>
        <time>2020-06-30T07:28:39Z</time>
      </trkpt>
      <trkpt lat="48.68096" lon="5.37217">
        <ele>267</ele>
        <time>2020-06-30T07:28:40Z</time>
      </trkpt>
      <trkpt lat="48.68096" lon="5.37211">
        <ele>267</ele>
        <time>2020-06-30T07:28:41Z</time>
      </trkpt>
      <trkpt lat="48.68097" lon="5.37203">
        <ele>267</ele>
        <time>2020-06-30T07:28:42Z</time>
      </trkpt>
      <trkpt lat="48.68096" lon="5.37194">
        <ele>267</ele>
        <time>2020-06-30T07:28:43Z</time>
      </trkpt>
      <trkpt lat="48.68096" lon="5.3719">
        <ele>267</ele>
        <time>2020-06-30T07:28:44Z</time>
      </trkpt>
      <trkpt lat="48.68097" lon="5.37186">
        <ele>267.1</ele>
        <time>2020-06-30T07:28:45Z</time>
      </trkpt>
      <trkpt lat="48.68098" lon="5.37181">
        <ele>267.1</ele>
        <time>2020-06-30T07:28:46Z</time>
      </trkpt>
      <trkpt lat="48.68099" lon="5.37176">
        <ele>267.1</ele>
        <time>2020-06-30T07:28:47Z</time>
      </trkpt>
      <trkpt lat="48.68101" lon="5.37172">
        <ele>267.3</ele>
        <time>2020-06-30T07:28:48Z</time>
      </trkpt>
      <trkpt lat="48.68103" lon="5.37167">
        <ele>267.4</ele>
        <time>2020-06-30T07:28:49Z</time>
      </trkpt>
      <trkpt lat="48.68104" lon="5.37163">
        <ele>267.6</ele>
        <time>2020-06-30T07:28:50Z</time>
      </trkpt>
      <trkpt lat="48.68106" lon="5.37158">
        <ele>267.7</ele>
        <time>2020-06-30T07:28:51Z</time>
      </trkpt>
      <trkpt lat="48.68107" lon="5.37153">
        <ele>267.9</ele>
        <time>2020-06-30T07:28:52Z</time>
      </trkpt>
      <trkpt lat="48.68108" lon="5.37149">
        <ele>268</ele>
        <time>2020-06-30T07:28:53Z</time>
      </trkpt>
      <trkpt lat="48.68109" lon="5.37144">
        <ele>268.1</ele>
        <time>2020-06-30T07:28:54Z</time>
      </trkpt>
      <trkpt lat="48.68109" lon="5.37141">
        <ele>268.2</ele>
        <time>2020-06-30T07:28:55Z</time>
      </trkpt>
      <trkpt lat="48.6811" lon="5.37137">
        <ele>268.3</ele>
        <time>2020-06-30T07:28:56Z</time>
      </trkpt>
      <trkpt lat="48.68111" lon="5.37133">
        <ele>268.4</ele>
        <time>2020-06-30T07:28:57Z</time>
      </trkpt>
      <trkpt lat="48.68112" lon="5.37128">
        <ele>268.5</ele>
        <time>2020-06-30T07:28:58Z</time>
      </trkpt>
      <trkpt lat="48.68112" lon="5.37126">
        <ele>268.5</ele>
        <time>2020-06-30T07:28:59Z</time>
      </trkpt>
      <trkpt lat="48.68113" lon="5.37122">
        <ele>268.6</ele>
        <time>2020-06-30T07:29:00Z</time>
      </trkpt>
      <trkpt lat="48.68114" lon="5.37117">
        <ele>268.8</ele>
        <time>2020-06-30T07:29:01Z</time>
      </trkpt>
      <trkpt lat="48.68116" lon="5.37112">
        <ele>268.9</ele>
        <time>2020-06-30T07:29:02Z</time>
      </trkpt>
      <trkpt lat="48.68116" lon="5.37108">
        <ele>268.9</ele>
        <time>2020-06-30T07:29:03Z</time>
      </trkpt>
      <trkpt lat="48.68117" lon="5.37104">
        <ele>269</ele>
        <time>2020-06-30T07:29:04Z</time>
      </trkpt>
      <trkpt lat="48.68118" lon="5.37099">
        <ele>269.1</ele>
        <time>2020-06-30T07:29:05Z</time>
      </trkpt>
      <trkpt lat="48.68119" lon="5.37098">
        <ele>269.2</ele>
        <time>2020-06-30T07:29:06Z</time>
      </trkpt>
      <trkpt lat="48.68121" lon="5.37092">
        <ele>269.3</ele>
        <time>2020-06-30T07:29:07Z</time>
      </trkpt>
      <trkpt lat="48.68121" lon="5.3709">
        <ele>269.3</ele>
        <time>2020-06-30T07:29:08Z</time>
      </trkpt>
      <trkpt lat="48.68123" lon="5.37086">
        <ele>269.4</ele>
        <time>2020-06-30T07:29:09Z</time>
      </trkpt>
      <trkpt lat="48.68123" lon="5.37083">
        <ele>269.4</ele>
        <time>2020-06-30T07:29:10Z</time>
      </trkpt>
      <trkpt lat="48.68124" lon="5.37081">
        <ele>269.5</ele>
        <time>2020-06-30T07:29:11Z</time>
      </trkpt>
      <trkpt lat="48.68125" lon="5.37078">
        <ele>269.5</ele>
        <time>2020-06-30T07:29:12Z</time>
      </trkpt>
      <trkpt lat="48.68125" lon="5.37077">
        <ele>269.5</ele>
        <time>2020-06-30T07:29:13Z</time>
      </trkpt>
      <trkpt lat="48.68126" lon="5.37072">
        <ele>269.6</ele>
        <time>2020-06-30T07:29:14Z</time>
      </trkpt>
      <trkpt lat="48.68126" lon="5.37069">
        <ele>269.6</ele>
        <time>2020-06-30T07:29:15Z</time>
      </trkpt>
      <trkpt lat="48.68125" lon="5.37064">
        <ele>269.6</ele>
        <time>2020-06-30T07:29:16Z</time>
      </trkpt>
      <trkpt lat="48.68125" lon="5.37062">
        <ele>269.7</ele>
        <time>2020-06-30T07:29:17Z</time>
      </trkpt>
      <trkpt lat="48.68125" lon="5.37056">
        <ele>269.7</ele>
        <time>2020-06-30T07:29:18Z</time>
      </trkpt>
      <trkpt lat="48.68126" lon="5.37053">
        <ele>269.7</ele>
        <time>2020-06-30T07:29:19Z</time>
      </trkpt>
      <trkpt lat="48.68127" lon="5.37047">
        <ele>269.7</ele>
        <time>2020-06-30T07:29:20Z</time>
      </trkpt>
      <trkpt lat="48.68127" lon="5.37045">
        <ele>269.7</ele>
        <time>2020-06-30T07:29:21Z</time>
      </trkpt>
      <trkpt lat="48.68128" lon="5.3704">
        <ele>269.7</ele>
        <time>2020-06-30T07:29:22Z</time>
      </trkpt>
      <trkpt lat="48.68129" lon="5.37034">
        <ele>269.7</ele>
        <time>2020-06-30T07:29:23Z</time>
      </trkpt>
      <trkpt lat="48.68131" lon="5.37028">
        <ele>269.7</ele>
        <time>2020-06-30T07:29:24Z</time>
      </trkpt>
      <trkpt lat="48.68133" lon="5.37021">
        <ele>269.7</ele>
        <time>2020-06-30T07:29:25Z</time>
      </trkpt>
      <trkpt lat="48.68134" lon="5.37017">
        <ele>269.7</ele>
        <time>2020-06-30T07:29:26Z</time>
      </trkpt>
      <trkpt lat="48.68136" lon="5.37012">
        <ele>269.6</ele>
        <time>2020-06-30T07:29:27Z</time>
      </trkpt>
      <trkpt lat="48.68138" lon="5.37007">
        <ele>269.6</ele>
        <time>2020-06-30T07:29:28Z</time>
      </trkpt>
      <trkpt lat="48.6814" lon="5.37">
        <ele>269.6</ele>
        <time>2020-06-30T07:29:29Z</time>
      </trkpt>
      <trkpt lat="48.68141" lon="5.36996">
        <ele>269.6</ele>
        <time>2020-06-30T07:29:30Z</time>
      </trkpt>
      <trkpt lat="48.68143" lon="5.36991">
        <ele>269.7</ele>
        <time>2020-06-30T07:29:31Z</time>
      </trkpt>
      <trkpt lat="48.68145" lon="5.36986">
        <ele>269.7</ele>
        <time>2020-06-30T07:29:32Z</time>
      </trkpt>
      <trkpt lat="48.68147" lon="5.36981">
        <ele>269.7</ele>
        <time>2020-06-30T07:29:33Z</time>
      </trkpt>
      <trkpt lat="48.68149" lon="5.36977">
        <ele>269.7</ele>
        <time>2020-06-30T07:29:34Z</time>
      </trkpt>
      <trkpt lat="48.68152" lon="5.36972">
        <ele>269.6</ele>
        <time>2020-06-30T07:29:35Z</time>
      </trkpt>
      <trkpt lat="48.68153" lon="5.36968">
        <ele>269.6</ele>
        <time>2020-06-30T07:29:36Z</time>
      </trkpt>
      <trkpt lat="48.68155" lon="5.36963">
        <ele>269.6</ele>
        <time>2020-06-30T07:29:37Z</time>
      </trkpt>
      <trkpt lat="48.68154" lon="5.36955">
        <ele>269.4</ele>
        <time>2020-06-30T07:29:38Z</time>
      </trkpt>
      <trkpt lat="48.68151" lon="5.3695">
        <ele>269.3</ele>
        <time>2020-06-30T07:29:39Z</time>
      </trkpt>
      <trkpt lat="48.68147" lon="5.36947">
        <ele>269.2</ele>
        <time>2020-06-30T07:29:40Z</time>
      </trkpt>
      <trkpt lat="48.68143" lon="5.36942">
        <ele>269.1</ele>
        <time>2020-06-30T07:29:41Z</time>
      </trkpt>
      <trkpt lat="48.68139" lon="5.36937">
        <ele>269</ele>
        <time>2020-06-30T07:29:42Z</time>
      </trkpt>
      <trkpt lat="48.68135" lon="5.36934">
        <ele>268.9</ele>
        <time>2020-06-30T07:29:43Z</time>
      </trkpt>
      <trkpt lat="48.6813" lon="5.3693">
        <ele>268.7</ele>
        <time>2020-06-30T07:29:44Z</time>
      </trkpt>
      <trkpt lat="48.68126" lon="5.36927">
        <ele>268.6</ele>
        <time>2020-06-30T07:29:45Z</time>
      </trkpt>
      <trkpt lat="48.68122" lon="5.36926">
        <ele>268.6</ele>
        <time>2020-06-30T07:29:46Z</time>
      </trkpt>
      <trkpt lat="48.68117" lon="5.36927">
        <ele>268.5</ele>
        <time>2020-06-30T07:29:47Z</time>
      </trkpt>
      <trkpt lat="48.68113" lon="5.36931">
        <ele>268.5</ele>
        <time>2020-06-30T07:29:48Z</time>
      </trkpt>
      <trkpt lat="48.68111" lon="5.36934">
        <ele>268.4</ele>
        <time>2020-06-30T07:29:49Z</time>
      </trkpt>
      <trkpt lat="48.68107" lon="5.36936">
        <ele>268.4</ele>
        <time>2020-06-30T07:29:50Z</time>
      </trkpt>
      <trkpt lat="48.68104" lon="5.36938">
        <ele>268.3</ele>
        <time>2020-06-30T07:29:51Z</time>
      </trkpt>
      <trkpt lat="48.68099" lon="5.36938">
        <ele>268.5</ele>
        <time>2020-06-30T07:29:52Z</time>
      </trkpt>
      <trkpt lat="48.68095" lon="5.36937">
        <ele>268.6</ele>
        <time>2020-06-30T07:29:53Z</time>
      </trkpt>
      <trkpt lat="48.6809" lon="5.36934">
        <ele>268.8</ele>
        <time>2020-06-30T07:29:54Z</time>
      </trkpt>
      <trkpt lat="48.68086" lon="5.36931">
        <ele>268.9</ele>
        <time>2020-06-30T07:29:55Z</time>
      </trkpt>
      <trkpt lat="48.68083" lon="5.36929">
        <ele>269</ele>
        <time>2020-06-30T07:29:56Z</time>
      </trkpt>
      <trkpt lat="48.6808" lon="5.36928">
        <ele>269.3</ele>
        <time>2020-06-30T07:29:57Z</time>
      </trkpt>
      <trkpt lat="48.68076" lon="5.36925">
        <ele>269.4</ele>
        <time>2020-06-30T07:29:58Z</time>
      </trkpt>
      <trkpt lat="48.68075" lon="5.36925">
        <ele>269.4</ele>
        <time>2020-06-30T07:29:59Z</time>
      </trkpt>
      <trkpt lat="48.68072" lon="5.36924">
        <ele>269.5</ele>
        <time>2020-06-30T07:30:00Z</time>
      </trkpt>
      <trkpt lat="48.68068" lon="5.36925">
        <ele>269.6</ele>
        <time>2020-06-30T07:30:01Z</time>
      </trkpt>
      <trkpt lat="48.68066" lon="5.36925">
        <ele>269.6</ele>
        <time>2020-06-30T07:30:02Z</time>
      </trkpt>
      <trkpt lat="48.68063" lon="5.36926">
        <ele>269.7</ele>
        <time>2020-06-30T07:30:03Z</time>
      </trkpt>
      <trkpt lat="48.68059" lon="5.36928">
        <ele>269.8</ele>
        <time>2020-06-30T07:30:04Z</time>
      </trkpt>
      <trkpt lat="48.68055" lon="5.36931">
        <ele>269.9</ele>
        <time>2020-06-30T07:30:05Z</time>
      </trkpt>
      <trkpt lat="48.68051" lon="5.36933">
        <ele>270.1</ele>
        <time>2020-06-30T07:30:06Z</time>
      </trkpt>
      <trkpt lat="48.68047" lon="5.36934">
        <ele>270.2</ele>
        <time>2020-06-30T07:30:07Z</time>
      </trkpt>
      <trkpt lat="48.68044" lon="5.36935">
        <ele>270.3</ele>
        <time>2020-06-30T07:30:08Z</time>
      </trkpt>
      <trkpt lat="48.68041" lon="5.36937">
        <ele>270.5</ele>
        <time>2020-06-30T07:30:09Z</time>
      </trkpt>
      <trkpt lat="48.68037" lon="5.36938">
        <ele>270.7</ele>
        <time>2020-06-30T07:30:10Z</time>
      </trkpt>
      <trkpt lat="48.68033" lon="5.36939">
        <ele>270.8</ele>
        <time>2020-06-30T07:30:11Z</time>
      </trkpt>
      <trkpt lat="48.6803" lon="5.36939">
        <ele>271</ele>
        <time>2020-06-30T07:30:12Z</time>
      </trkpt>
      <trkpt lat="48.68026" lon="5.36941">
        <ele>271.2</ele>
        <time>2020-06-30T07:30:13Z</time>
      </trkpt>
      <trkpt lat="48.68024" lon="5.36941">
        <ele>271.3</ele>
        <time>2020-06-30T07:30:14Z</time>
      </trkpt>
      <trkpt lat="48.6802" lon="5.3694">
        <ele>271.5</ele>
        <time>2020-06-30T07:30:15Z</time>
      </trkpt>
      <trkpt lat="48.68018" lon="5.3694">
        <ele>271.6</ele>
        <time>2020-06-30T07:30:16Z</time>
      </trkpt>
      <trkpt lat="48.68016" lon="5.36941">
        <ele>271.7</ele>
        <time>2020-06-30T07:30:17Z</time>
      </trkpt>
      <trkpt lat="48.68012" lon="5.36941">
        <ele>271.9</ele>
        <time>2020-06-30T07:30:18Z</time>
      </trkpt>
      <trkpt lat="48.68011" lon="5.36942">
        <ele>271.9</ele>
        <time>2020-06-30T07:30:19Z</time>
      </trkpt>
      <trkpt lat="48.68008" lon="5.36943">
        <ele>272</ele>
        <time>2020-06-30T07:30:20Z</time>
      </trkpt>
      <trkpt lat="48.68004" lon="5.36943">
        <ele>272.3</ele>
        <time>2020-06-30T07:30:21Z</time>
      </trkpt>
      <trkpt lat="48.68" lon="5.36944">
        <ele>272.4</ele>
        <time>2020-06-30T07:30:22Z</time>
      </trkpt>
      <trkpt lat="48.67997" lon="5.36944">
        <ele>272.5</ele>
        <time>2020-06-30T07:30:23Z</time>
      </trkpt>
      <trkpt lat="48.67993" lon="5.36944">
        <ele>272.6</ele>
        <time>2020-06-30T07:30:24Z</time>
      </trkpt>
      <trkpt lat="48.6799" lon="5.36945">
        <ele>272.7</ele>
        <time>2020-06-30T07:30:25Z</time>
      </trkpt>
      <trkpt lat="48.67986" lon="5.36946">
        <ele>272.8</ele>
        <time>2020-06-30T07:30:26Z</time>
      </trkpt>
      <trkpt lat="48.67984" lon="5.36946">
        <ele>272.9</ele>
        <time>2020-06-30T07:30:27Z</time>
      </trkpt>
      <trkpt lat="48.67981" lon="5.36945">
        <ele>273</ele>
        <time>2020-06-30T07:30:28Z</time>
      </trkpt>
      <trkpt lat="48.67978" lon="5.36943">
        <ele>273.1</ele>
        <time>2020-06-30T07:30:29Z</time>
      </trkpt>
      <trkpt lat="48.67975" lon="5.36941">
        <ele>273.2</ele>
        <time>2020-06-30T07:30:30Z</time>
      </trkpt>
      <trkpt lat="48.67972" lon="5.36939">
        <ele>273.4</ele>
        <time>2020-06-30T07:30:31Z</time>
      </trkpt>
      <trkpt lat="48.67969" lon="5.36938">
        <ele>273.5</ele>
        <time>2020-06-30T07:30:32Z</time>
      </trkpt>
      <trkpt lat="48.67966" lon="5.36936">
        <ele>273.6</ele>
        <time>2020-06-30T07:30:33Z</time>
      </trkpt>
      <trkpt lat="48.67963" lon="5.36934">
        <ele>273.7</ele>
        <time>2020-06-30T07:30:34Z</time>
      </trkpt>
      <trkpt lat="48.6796" lon="5.3693">
        <ele>273.8</ele>
        <time>2020-06-30T07:30:35Z</time>
      </trkpt>
      <trkpt lat="48.67959" lon="5.36927">
        <ele>274</ele>
        <time>2020-06-30T07:30:36Z</time>
      </trkpt>
      <trkpt lat="48.67957" lon="5.36923">
        <ele>274.4</ele>
        <time>2020-06-30T07:30:37Z</time>
      </trkpt>
      <trkpt lat="48.67954" lon="5.36916">
        <ele>274.8</ele>
        <time>2020-06-30T07:30:38Z</time>
      </trkpt>
      <trkpt lat="48.67951" lon="5.3691">
        <ele>275.2</ele>
        <time>2020-06-30T07:30:39Z</time>
      </trkpt>
      <trkpt lat="48.67949" lon="5.36907">
        <ele>275.4</ele>
        <time>2020-06-30T07:30:40Z</time>
      </trkpt>
      <trkpt lat="48.67948" lon="5.36906">
        <ele>275.5</ele>
        <time>2020-06-30T07:30:41Z</time>
      </trkpt>
      <trkpt lat="48.67946" lon="5.36902">
        <ele>275.7</ele>
        <time>2020-06-30T07:30:42Z</time>
      </trkpt>
      <trkpt lat="48.67943" lon="5.36899">
        <ele>275.9</ele>
        <time>2020-06-30T07:30:43Z</time>
      </trkpt>
      <trkpt lat="48.6794" lon="5.36895">
        <ele>276.2</ele>
        <time>2020-06-30T07:30:44Z</time>
      </trkpt>
      <trkpt lat="48.67939" lon="5.36892">
        <ele>276.3</ele>
        <time>2020-06-30T07:30:45Z</time>
      </trkpt>
      <trkpt lat="48.67937" lon="5.36888">
        <ele>276.5</ele>
        <time>2020-06-30T07:30:46Z</time>
      </trkpt>
      <trkpt lat="48.67934" lon="5.36883">
        <ele>276.6</ele>
        <time>2020-06-30T07:30:47Z</time>
      </trkpt>
      <trkpt lat="48.67932" lon="5.36878">
        <ele>276.8</ele>
        <time>2020-06-30T07:30:48Z</time>
      </trkpt>
      <trkpt lat="48.6793" lon="5.36874">
        <ele>276.9</ele>
        <time>2020-06-30T07:30:49Z</time>
      </trkpt>
      <trkpt lat="48.67928" lon="5.36869">
        <ele>277</ele>
        <time>2020-06-30T07:30:50Z</time>
      </trkpt>
      <trkpt lat="48.67927" lon="5.36866">
        <ele>277.1</ele>
        <time>2020-06-30T07:30:51Z</time>
      </trkpt>
      <trkpt lat="48.67927" lon="5.36865">
        <ele>277.1</ele>
        <time>2020-06-30T07:30:52Z</time>
      </trkpt>
      <trkpt lat="48.67926" lon="5.36863">
        <ele>277.2</ele>
        <time>2020-06-30T07:30:53Z</time>
      </trkpt>
      <trkpt lat="48.67925" lon="5.3686">
        <ele>277.3</ele>
        <time>2020-06-30T07:30:54Z</time>
      </trkpt>
      <trkpt lat="48.67923" lon="5.36856">
        <ele>277.4</ele>
        <time>2020-06-30T07:30:55Z</time>
      </trkpt>
      <trkpt lat="48.67919" lon="5.36851">
        <ele>277.5</ele>
        <time>2020-06-30T07:30:56Z</time>
      </trkpt>
      <trkpt lat="48.67918" lon="5.36849">
        <ele>277.6</ele>
        <time>2020-06-30T07:30:57Z</time>
      </trkpt>
      <trkpt lat="48.67916" lon="5.36844">
        <ele>277.7</ele>
        <time>2020-06-30T07:30:58Z</time>
      </trkpt>
      <trkpt lat="48.67912" lon="5.3684">
        <ele>277.8</ele>
        <time>2020-06-30T07:30:59Z</time>
      </trkpt>
      <trkpt lat="48.6791" lon="5.36836">
        <ele>277.9</ele>
        <time>2020-06-30T07:31:00Z</time>
      </trkpt>
      <trkpt lat="48.67908" lon="5.36832">
        <ele>278</ele>
        <time>2020-06-30T07:31:01Z</time>
      </trkpt>
      <trkpt lat="48.67905" lon="5.36828">
        <ele>278.1</ele>
        <time>2020-06-30T07:31:02Z</time>
      </trkpt>
      <trkpt lat="48.67903" lon="5.36825">
        <ele>278.1</ele>
        <time>2020-06-30T07:31:03Z</time>
      </trkpt>
      <trkpt lat="48.67901" lon="5.36821">
        <ele>278.2</ele>
        <time>2020-06-30T07:31:04Z</time>
      </trkpt>
      <trkpt lat="48.679" lon="5.36819">
        <ele>278.2</ele>
        <time>2020-06-30T07:31:05Z</time>
      </trkpt>
      <trkpt lat="48.67898" lon="5.36815">
        <ele>278.3</ele>
        <time>2020-06-30T07:31:06Z</time>
      </trkpt>
      <trkpt lat="48.67895" lon="5.3681">
        <ele>278.4</ele>
        <time>2020-06-30T07:31:07Z</time>
      </trkpt>
      <trkpt lat="48.67893" lon="5.36805">
        <ele>278.4</ele>
        <time>2020-06-30T07:31:08Z</time>
      </trkpt>
      <trkpt lat="48.67891" lon="5.368">
        <ele>278.5</ele>
        <time>2020-06-30T07:31:09Z</time>
      </trkpt>
      <trkpt lat="48.67889" lon="5.36795">
        <ele>278.5</ele>
        <time>2020-06-30T07:31:10Z</time>
      </trkpt>
      <trkpt lat="48.67887" lon="5.3679">
        <ele>278.6</ele>
        <time>2020-06-30T07:31:11Z</time>
      </trkpt>
      <trkpt lat="48.67884" lon="5.36784">
        <ele>278.7</ele>
        <time>2020-06-30T07:31:12Z</time>
      </trkpt>
      <trkpt lat="48.67882" lon="5.36779">
        <ele>278.7</ele>
        <time>2020-06-30T07:31:13Z</time>
      </trkpt>
      <trkpt lat="48.67881" lon="5.36775">
        <ele>278.8</ele>
        <time>2020-06-30T07:31:14Z</time>
      </trkpt>
      <trkpt lat="48.67878" lon="5.36769">
        <ele>278.8</ele>
        <time>2020-06-30T07:31:15Z</time>
      </trkpt>
      <trkpt lat="48.67876" lon="5.36765">
        <ele>278.9</ele>
        <time>2020-06-30T07:31:16Z</time>
      </trkpt>
      <trkpt lat="48.67874" lon="5.3676">
        <ele>279</ele>
        <time>2020-06-30T07:31:17Z</time>
      </trkpt>
      <trkpt lat="48.67872" lon="5.36754">
        <ele>279</ele>
        <time>2020-06-30T07:31:18Z</time>
      </trkpt>
      <trkpt lat="48.6787" lon="5.36748">
        <ele>279.1</ele>
        <time>2020-06-30T07:31:19Z</time>
      </trkpt>
      <trkpt lat="48.67868" lon="5.36742">
        <ele>279.2</ele>
        <time>2020-06-30T07:31:20Z</time>
      </trkpt>
      <trkpt lat="48.67866" lon="5.36737">
        <ele>279.3</ele>
        <time>2020-06-30T07:31:21Z</time>
      </trkpt>
      <trkpt lat="48.67864" lon="5.36732">
        <ele>279.3</ele>
        <time>2020-06-30T07:31:22Z</time>
      </trkpt>
      <trkpt lat="48.67861" lon="5.36727">
        <ele>279.4</ele>
        <time>2020-06-30T07:31:23Z</time>
      </trkpt>
      <trkpt lat="48.6786" lon="5.36722">
        <ele>279.5</ele>
        <time>2020-06-30T07:31:24Z</time>
      </trkpt>
      <trkpt lat="48.67858" lon="5.36717">
        <ele>279.5</ele>
        <time>2020-06-30T07:31:25Z</time>
      </trkpt>
      <trkpt lat="48.67856" lon="5.36712">
        <ele>279.6</ele>
        <time>2020-06-30T07:31:26Z</time>
      </trkpt>
      <trkpt lat="48.67853" lon="5.36705">
        <ele>279.6</ele>
        <time>2020-06-30T07:31:27Z</time>
      </trkpt>
      <trkpt lat="48.67851" lon="5.36698">
        <ele>279.6</ele>
        <time>2020-06-30T07:31:28Z</time>
      </trkpt>
      <trkpt lat="48.67849" lon="5.36693">
        <ele>279.6</ele>
        <time>2020-06-30T07:31:29Z</time>
      </trkpt>
      <trkpt lat="48.67846" lon="5.36687">
        <ele>279.7</ele>
        <time>2020-06-30T07:31:30Z</time>
      </trkpt>
      <trkpt lat="48.67843" lon="5.36682">
        <ele>279.8</ele>
        <time>2020-06-30T07:31:31Z</time>
      </trkpt>
      <trkpt lat="48.67841" lon="5.36676">
        <ele>280.2</ele>
        <time>2020-06-30T07:31:32Z</time>
      </trkpt>
      <trkpt lat="48.67839" lon="5.3667">
        <ele>280.6</ele>
        <time>2020-06-30T07:31:33Z</time>
      </trkpt>
      <trkpt lat="48.67837" lon="5.36666">
        <ele>280.7</ele>
        <time>2020-06-30T07:31:34Z</time>
      </trkpt>
      <trkpt lat="48.67835" lon="5.36661">
        <ele>280.8</ele>
        <time>2020-06-30T07:31:35Z</time>
      </trkpt>
      <trkpt lat="48.67833" lon="5.36656">
        <ele>280.8</ele>
        <time>2020-06-30T07:31:36Z</time>
      </trkpt>
      <trkpt lat="48.67831" lon="5.36652">
        <ele>280.8</ele>
        <time>2020-06-30T07:31:37Z</time>
      </trkpt>
      <trkpt lat="48.67828" lon="5.36647">
        <ele>280.8</ele>
        <time>2020-06-30T07:31:38Z</time>
      </trkpt>
      <trkpt lat="48.67826" lon="5.36642">
        <ele>280.8</ele>
        <time>2020-06-30T07:31:39Z</time>
      </trkpt>
      <trkpt lat="48.67824" lon="5.36637">
        <ele>280.7</ele>
        <time>2020-06-30T07:31:40Z</time>
      </trkpt>
      <trkpt lat="48.67822" lon="5.36633">
        <ele>280.7</ele>
        <time>2020-06-30T07:31:41Z</time>
      </trkpt>
      <trkpt lat="48.67819" lon="5.36628">
        <ele>280.7</ele>
        <time>2020-06-30T07:31:42Z</time>
      </trkpt>
      <trkpt lat="48.67817" lon="5.36622">
        <ele>280.6</ele>
        <time>2020-06-30T07:31:43Z</time>
      </trkpt>
      <trkpt lat="48.67816" lon="5.3662">
        <ele>280.6</ele>
        <time>2020-06-30T07:31:44Z</time>
      </trkpt>
      <trkpt lat="48.67814" lon="5.36613">
        <ele>280.6</ele>
        <time>2020-06-30T07:31:45Z</time>
      </trkpt>
      <trkpt lat="48.67811" lon="5.36606">
        <ele>280.5</ele>
        <time>2020-06-30T07:31:46Z</time>
      </trkpt>
      <trkpt lat="48.67808" lon="5.366">
        <ele>280.5</ele>
        <time>2020-06-30T07:31:47Z</time>
      </trkpt>
      <trkpt lat="48.67805" lon="5.36592">
        <ele>280.5</ele>
        <time>2020-06-30T07:31:48Z</time>
      </trkpt>
      <trkpt lat="48.67803" lon="5.36586">
        <ele>280.4</ele>
        <time>2020-06-30T07:31:49Z</time>
      </trkpt>
      <trkpt lat="48.678" lon="5.36579">
        <ele>280.3</ele>
        <time>2020-06-30T07:31:50Z</time>
      </trkpt>
      <trkpt lat="48.67797" lon="5.36572">
        <ele>280.2</ele>
        <time>2020-06-30T07:31:51Z</time>
      </trkpt>
      <trkpt lat="48.67794" lon="5.36565">
        <ele>280.1</ele>
        <time>2020-06-30T07:31:52Z</time>
      </trkpt>
      <trkpt lat="48.67791" lon="5.36556">
        <ele>279.9</ele>
        <time>2020-06-30T07:31:53Z</time>
      </trkpt>
      <trkpt lat="48.67788" lon="5.36548">
        <ele>279.8</ele>
        <time>2020-06-30T07:31:54Z</time>
      </trkpt>
      <trkpt lat="48.67786" lon="5.36541">
        <ele>279.7</ele>
        <time>2020-06-30T07:31:55Z</time>
      </trkpt>
      <trkpt lat="48.67784" lon="5.36533">
        <ele>279.6</ele>
        <time>2020-06-30T07:31:56Z</time>
      </trkpt>
      <trkpt lat="48.67782" lon="5.36526">
        <ele>279.6</ele>
        <time>2020-06-30T07:31:57Z</time>
      </trkpt>
      <trkpt lat="48.67779" lon="5.36518">
        <ele>279.5</ele>
        <time>2020-06-30T07:31:58Z</time>
      </trkpt>
      <trkpt lat="48.67777" lon="5.3651">
        <ele>279.5</ele>
        <time>2020-06-30T07:31:59Z</time>
      </trkpt>
      <trkpt lat="48.67774" lon="5.36502">
        <ele>279.5</ele>
        <time>2020-06-30T07:32:00Z</time>
      </trkpt>
      <trkpt lat="48.67771" lon="5.36493">
        <ele>279.4</ele>
        <time>2020-06-30T07:32:01Z</time>
      </trkpt>
      <trkpt lat="48.67769" lon="5.36485">
        <ele>279.4</ele>
        <time>2020-06-30T07:32:02Z</time>
      </trkpt>
      <trkpt lat="48.67766" lon="5.36479">
        <ele>279.4</ele>
        <time>2020-06-30T07:32:03Z</time>
      </trkpt>
      <trkpt lat="48.67762" lon="5.36473">
        <ele>279.4</ele>
        <time>2020-06-30T07:32:04Z</time>
      </trkpt>
      <trkpt lat="48.6776" lon="5.36467">
        <ele>279.3</ele>
        <time>2020-06-30T07:32:05Z</time>
      </trkpt>
      <trkpt lat="48.67758" lon="5.36458">
        <ele>279.3</ele>
        <time>2020-06-30T07:32:06Z</time>
      </trkpt>
      <trkpt lat="48.67756" lon="5.3645">
        <ele>279.2</ele>
        <time>2020-06-30T07:32:07Z</time>
      </trkpt>
      <trkpt lat="48.67755" lon="5.36443">
        <ele>279.2</ele>
        <time>2020-06-30T07:32:08Z</time>
      </trkpt>
      <trkpt lat="48.67752" lon="5.36435">
        <ele>279.2</ele>
        <time>2020-06-30T07:32:09Z</time>
      </trkpt>
      <trkpt lat="48.6775" lon="5.36428">
        <ele>279.2</ele>
        <time>2020-06-30T07:32:10Z</time>
      </trkpt>
      <trkpt lat="48.67747" lon="5.3642">
        <ele>279.2</ele>
        <time>2020-06-30T07:32:11Z</time>
      </trkpt>
      <trkpt lat="48.67745" lon="5.3641">
        <ele>279.2</ele>
        <time>2020-06-30T07:32:12Z</time>
      </trkpt>
      <trkpt lat="48.67742" lon="5.36402">
        <ele>279.2</ele>
        <time>2020-06-30T07:32:13Z</time>
      </trkpt>
      <trkpt lat="48.6774" lon="5.36394">
        <ele>279.2</ele>
        <time>2020-06-30T07:32:14Z</time>
      </trkpt>
      <trkpt lat="48.67738" lon="5.36388">
        <ele>279.3</ele>
        <time>2020-06-30T07:32:15Z</time>
      </trkpt>
      <trkpt lat="48.67736" lon="5.36379">
        <ele>279.3</ele>
        <time>2020-06-30T07:32:16Z</time>
      </trkpt>
      <trkpt lat="48.67735" lon="5.36372">
        <ele>279.4</ele>
        <time>2020-06-30T07:32:17Z</time>
      </trkpt>
      <trkpt lat="48.67733" lon="5.36366">
        <ele>279.4</ele>
        <time>2020-06-30T07:32:18Z</time>
      </trkpt>
      <trkpt lat="48.67731" lon="5.36359">
        <ele>279.4</ele>
        <time>2020-06-30T07:32:19Z</time>
      </trkpt>
      <trkpt lat="48.6773" lon="5.36353">
        <ele>279.4</ele>
        <time>2020-06-30T07:32:20Z</time>
      </trkpt>
      <trkpt lat="48.67728" lon="5.36346">
        <ele>279.4</ele>
        <time>2020-06-30T07:32:21Z</time>
      </trkpt>
      <trkpt lat="48.67726" lon="5.36339">
        <ele>279.3</ele>
        <time>2020-06-30T07:32:22Z</time>
      </trkpt>
      <trkpt lat="48.67724" lon="5.36331">
        <ele>279.2</ele>
        <time>2020-06-30T07:32:23Z</time>
      </trkpt>
      <trkpt lat="48.67723" lon="5.36323">
        <ele>279.2</ele>
        <time>2020-06-30T07:32:24Z</time>
      </trkpt>
      <trkpt lat="48.6772" lon="5.36315">
        <ele>279.1</ele>
        <time>2020-06-30T07:32:25Z</time>
      </trkpt>
      <trkpt lat="48.67718" lon="5.36308">
        <ele>279.1</ele>
        <time>2020-06-30T07:32:26Z</time>
      </trkpt>
      <trkpt lat="48.67716" lon="5.36302">
        <ele>279.1</ele>
        <time>2020-06-30T07:32:27Z</time>
      </trkpt>
      <trkpt lat="48.67714" lon="5.36293">
        <ele>279.2</ele>
        <time>2020-06-30T07:32:28Z</time>
      </trkpt>
      <trkpt lat="48.67712" lon="5.36285">
        <ele>279.2</ele>
        <time>2020-06-30T07:32:29Z</time>
      </trkpt>
      <trkpt lat="48.6771" lon="5.36277">
        <ele>279.2</ele>
        <time>2020-06-30T07:32:30Z</time>
      </trkpt>
      <trkpt lat="48.67708" lon="5.36269">
        <ele>279.2</ele>
        <time>2020-06-30T07:32:31Z</time>
      </trkpt>
      <trkpt lat="48.67706" lon="5.36263">
        <ele>279.2</ele>
        <time>2020-06-30T07:32:32Z</time>
      </trkpt>
      <trkpt lat="48.67703" lon="5.36255">
        <ele>279.3</ele>
        <time>2020-06-30T07:32:33Z</time>
      </trkpt>
      <trkpt lat="48.67701" lon="5.36248">
        <ele>279.3</ele>
        <time>2020-06-30T07:32:34Z</time>
      </trkpt>
      <trkpt lat="48.67698" lon="5.36239">
        <ele>279.4</ele>
        <time>2020-06-30T07:32:35Z</time>
      </trkpt>
      <trkpt lat="48.67696" lon="5.36231">
        <ele>279.4</ele>
        <time>2020-06-30T07:32:36Z</time>
      </trkpt>
      <trkpt lat="48.67693" lon="5.36224">
        <ele>279.4</ele>
        <time>2020-06-30T07:32:37Z</time>
      </trkpt>
      <trkpt lat="48.6769" lon="5.36216">
        <ele>279.5</ele>
        <time>2020-06-30T07:32:38Z</time>
      </trkpt>
      <trkpt lat="48.67687" lon="5.3621">
        <ele>279.5</ele>
        <time>2020-06-30T07:32:39Z</time>
      </trkpt>
      <trkpt lat="48.67684" lon="5.36203">
        <ele>279.6</ele>
        <time>2020-06-30T07:32:40Z</time>
      </trkpt>
      <trkpt lat="48.67682" lon="5.36197">
        <ele>279.6</ele>
        <time>2020-06-30T07:32:41Z</time>
      </trkpt>
      <trkpt lat="48.6768" lon="5.36188">
        <ele>279.7</ele>
        <time>2020-06-30T07:32:42Z</time>
      </trkpt>
      <trkpt lat="48.67677" lon="5.3618">
        <ele>279.8</ele>
        <time>2020-06-30T07:32:43Z</time>
      </trkpt>
      <trkpt lat="48.67675" lon="5.36171">
        <ele>279.8</ele>
        <time>2020-06-30T07:32:44Z</time>
      </trkpt>
      <trkpt lat="48.67673" lon="5.36163">
        <ele>279.9</ele>
        <time>2020-06-30T07:32:45Z</time>
      </trkpt>
      <trkpt lat="48.67671" lon="5.36157">
        <ele>279.9</ele>
        <time>2020-06-30T07:32:46Z</time>
      </trkpt>
      <trkpt lat="48.6767" lon="5.36149">
        <ele>279.9</ele>
        <time>2020-06-30T07:32:47Z</time>
      </trkpt>
      <trkpt lat="48.67668" lon="5.3614">
        <ele>280</ele>
        <time>2020-06-30T07:32:48Z</time>
      </trkpt>
      <trkpt lat="48.67666" lon="5.36134">
        <ele>280</ele>
        <time>2020-06-30T07:32:49Z</time>
      </trkpt>
      <trkpt lat="48.67665" lon="5.36126">
        <ele>280</ele>
        <time>2020-06-30T07:32:50Z</time>
      </trkpt>
      <trkpt lat="48.67664" lon="5.36119">
        <ele>280</ele>
        <time>2020-06-30T07:32:51Z</time>
      </trkpt>
      <trkpt lat="48.67663" lon="5.36111">
        <ele>280.1</ele>
        <time>2020-06-30T07:32:52Z</time>
      </trkpt>
      <trkpt lat="48.67662" lon="5.36105">
        <ele>280.1</ele>
        <time>2020-06-30T07:32:53Z</time>
      </trkpt>
      <trkpt lat="48.67661" lon="5.361">
        <ele>280.2</ele>
        <time>2020-06-30T07:32:54Z</time>
      </trkpt>
      <trkpt lat="48.67659" lon="5.36092">
        <ele>280.2</ele>
        <time>2020-06-30T07:32:55Z</time>
      </trkpt>
      <trkpt lat="48.67657" lon="5.36085">
        <ele>280.2</ele>
        <time>2020-06-30T07:32:56Z</time>
      </trkpt>
      <trkpt lat="48.67656" lon="5.36079">
        <ele>280.2</ele>
        <time>2020-06-30T07:32:57Z</time>
      </trkpt>
      <trkpt lat="48.67655" lon="5.36073">
        <ele>280.2</ele>
        <time>2020-06-30T07:32:58Z</time>
      </trkpt>
      <trkpt lat="48.67654" lon="5.36066">
        <ele>280.2</ele>
        <time>2020-06-30T07:32:59Z</time>
      </trkpt>
      <trkpt lat="48.67652" lon="5.36059">
        <ele>280.2</ele>
        <time>2020-06-30T07:33:00Z</time>
      </trkpt>
      <trkpt lat="48.67651" lon="5.36051">
        <ele>280.2</ele>
        <time>2020-06-30T07:33:01Z</time>
      </trkpt>
      <trkpt lat="48.6765" lon="5.36043">
        <ele>280.2</ele>
        <time>2020-06-30T07:33:02Z</time>
      </trkpt>
      <trkpt lat="48.6765" lon="5.36035">
        <ele>280.2</ele>
        <time>2020-06-30T07:33:03Z</time>
      </trkpt>
      <trkpt lat="48.67649" lon="5.36028">
        <ele>280.2</ele>
        <time>2020-06-30T07:33:04Z</time>
      </trkpt>
      <trkpt lat="48.67648" lon="5.36021">
        <ele>280.1</ele>
        <time>2020-06-30T07:33:05Z</time>
      </trkpt>
      <trkpt lat="48.67646" lon="5.36014">
        <ele>280.1</ele>
        <time>2020-06-30T07:33:06Z</time>
      </trkpt>
      <trkpt lat="48.67645" lon="5.36006">
        <ele>280.1</ele>
        <time>2020-06-30T07:33:07Z</time>
      </trkpt>
      <trkpt lat="48.67643" lon="5.35998">
        <ele>280.1</ele>
        <time>2020-06-30T07:33:08Z</time>
      </trkpt>
      <trkpt lat="48.67641" lon="5.3599">
        <ele>280.1</ele>
        <time>2020-06-30T07:33:09Z</time>
      </trkpt>
      <trkpt lat="48.67639" lon="5.35983">
        <ele>280.1</ele>
        <time>2020-06-30T07:33:10Z</time>
      </trkpt>
      <trkpt lat="48.67638" lon="5.35975">
        <ele>280</ele>
        <time>2020-06-30T07:33:11Z</time>
      </trkpt>
      <trkpt lat="48.67637" lon="5.35967">
        <ele>279.9</ele>
        <time>2020-06-30T07:33:12Z</time>
      </trkpt>
      <trkpt lat="48.67636" lon="5.3596">
        <ele>279.8</ele>
        <time>2020-06-30T07:33:13Z</time>
      </trkpt>
      <trkpt lat="48.67635" lon="5.35953">
        <ele>279.7</ele>
        <time>2020-06-30T07:33:14Z</time>
      </trkpt>
      <trkpt lat="48.67634" lon="5.35946">
        <ele>279.6</ele>
        <time>2020-06-30T07:33:15Z</time>
      </trkpt>
      <trkpt lat="48.67633" lon="5.35938">
        <ele>279.5</ele>
        <time>2020-06-30T07:33:16Z</time>
      </trkpt>
      <trkpt lat="48.67631" lon="5.35931">
        <ele>279.4</ele>
        <time>2020-06-30T07:33:17Z</time>
      </trkpt>
      <trkpt lat="48.6763" lon="5.35924">
        <ele>279.2</ele>
        <time>2020-06-30T07:33:18Z</time>
      </trkpt>
      <trkpt lat="48.67629" lon="5.35915">
        <ele>279.1</ele>
        <time>2020-06-30T07:33:19Z</time>
      </trkpt>
      <trkpt lat="48.67629" lon="5.35905">
        <ele>278.9</ele>
        <time>2020-06-30T07:33:20Z</time>
      </trkpt>
      <trkpt lat="48.67628" lon="5.35896">
        <ele>278.8</ele>
        <time>2020-06-30T07:33:21Z</time>
      </trkpt>
      <trkpt lat="48.67627" lon="5.3589">
        <ele>278.7</ele>
        <time>2020-06-30T07:33:22Z</time>
      </trkpt>
      <trkpt lat="48.67625" lon="5.35882">
        <ele>278.6</ele>
        <time>2020-06-30T07:33:23Z</time>
      </trkpt>
      <trkpt lat="48.67623" lon="5.35873">
        <ele>278.4</ele>
        <time>2020-06-30T07:33:24Z</time>
      </trkpt>
      <trkpt lat="48.67622" lon="5.35863">
        <ele>278.2</ele>
        <time>2020-06-30T07:33:25Z</time>
      </trkpt>
      <trkpt lat="48.6762" lon="5.35852">
        <ele>277.9</ele>
        <time>2020-06-30T07:33:26Z</time>
      </trkpt>
      <trkpt lat="48.6762" lon="5.35845">
        <ele>277.7</ele>
        <time>2020-06-30T07:33:27Z</time>
      </trkpt>
      <trkpt lat="48.67618" lon="5.35835">
        <ele>277.4</ele>
        <time>2020-06-30T07:33:28Z</time>
      </trkpt>
      <trkpt lat="48.67616" lon="5.35826">
        <ele>277</ele>
        <time>2020-06-30T07:33:29Z</time>
      </trkpt>
      <trkpt lat="48.67614" lon="5.35817">
        <ele>276.6</ele>
        <time>2020-06-30T07:33:30Z</time>
      </trkpt>
      <trkpt lat="48.67613" lon="5.35808">
        <ele>276.3</ele>
        <time>2020-06-30T07:33:31Z</time>
      </trkpt>
      <trkpt lat="48.67611" lon="5.35798">
        <ele>275.8</ele>
        <time>2020-06-30T07:33:32Z</time>
      </trkpt>
      <trkpt lat="48.6761" lon="5.35787">
        <ele>275.4</ele>
        <time>2020-06-30T07:33:33Z</time>
      </trkpt>
      <trkpt lat="48.67608" lon="5.35777">
        <ele>274.8</ele>
        <time>2020-06-30T07:33:34Z</time>
      </trkpt>
      <trkpt lat="48.67606" lon="5.35766">
        <ele>274.2</ele>
        <time>2020-06-30T07:33:35Z</time>
      </trkpt>
      <trkpt lat="48.67605" lon="5.35755">
        <ele>273.6</ele>
        <time>2020-06-30T07:33:36Z</time>
      </trkpt>
      <trkpt lat="48.67603" lon="5.35743">
        <ele>273</ele>
        <time>2020-06-30T07:33:37Z</time>
      </trkpt>
      <trkpt lat="48.67602" lon="5.35731">
        <ele>272.4</ele>
        <time>2020-06-30T07:33:38Z</time>
      </trkpt>
      <trkpt lat="48.676" lon="5.35719">
        <ele>271.9</ele>
        <time>2020-06-30T07:33:39Z</time>
      </trkpt>
      <trkpt lat="48.67598" lon="5.35707">
        <ele>271.3</ele>
        <time>2020-06-30T07:33:40Z</time>
      </trkpt>
      <trkpt lat="48.67597" lon="5.35694">
        <ele>270.9</ele>
        <time>2020-06-30T07:33:41Z</time>
      </trkpt>
      <trkpt lat="48.67596" lon="5.35682">
        <ele>270.6</ele>
        <time>2020-06-30T07:33:42Z</time>
      </trkpt>
      <trkpt lat="48.67594" lon="5.35669">
        <ele>270.2</ele>
        <time>2020-06-30T07:33:43Z</time>
      </trkpt>
      <trkpt lat="48.67592" lon="5.35657">
        <ele>269.8</ele>
        <time>2020-06-30T07:33:44Z</time>
      </trkpt>
      <trkpt lat="48.6759" lon="5.35644">
        <ele>269.4</ele>
        <time>2020-06-30T07:33:45Z</time>
      </trkpt>
      <trkpt lat="48.67587" lon="5.35632">
        <ele>269</ele>
        <time>2020-06-30T07:33:46Z</time>
      </trkpt>
      <trkpt lat="48.67585" lon="5.3562">
        <ele>268.8</ele>
        <time>2020-06-30T07:33:47Z</time>
      </trkpt>
      <trkpt lat="48.67582" lon="5.35609">
        <ele>268.6</ele>
        <time>2020-06-30T07:33:48Z</time>
      </trkpt>
      <trkpt lat="48.67579" lon="5.35598">
        <ele>268.4</ele>
        <time>2020-06-30T07:33:49Z</time>
      </trkpt>
      <trkpt lat="48.67577" lon="5.35588">
        <ele>268.1</ele>
        <time>2020-06-30T07:33:50Z</time>
      </trkpt>
      <trkpt lat="48.67574" lon="5.35577">
        <ele>267.8</ele>
        <time>2020-06-30T07:33:51Z</time>
      </trkpt>
      <trkpt lat="48.67571" lon="5.35567">
        <ele>267.5</ele>
        <time>2020-06-30T07:33:52Z</time>
      </trkpt>
      <trkpt lat="48.67568" lon="5.35557">
        <ele>267.3</ele>
        <time>2020-06-30T07:33:53Z</time>
      </trkpt>
      <trkpt lat="48.67566" lon="5.35547">
        <ele>267</ele>
        <time>2020-06-30T07:33:54Z</time>
      </trkpt>
      <trkpt lat="48.67563" lon="5.35538">
        <ele>266.7</ele>
        <time>2020-06-30T07:33:55Z</time>
      </trkpt>
      <trkpt lat="48.67561" lon="5.35528">
        <ele>266.4</ele>
        <time>2020-06-30T07:33:56Z</time>
      </trkpt>
      <trkpt lat="48.67558" lon="5.35519">
        <ele>266</ele>
        <time>2020-06-30T07:33:57Z</time>
      </trkpt>
      <trkpt lat="48.67555" lon="5.3551">
        <ele>265.5</ele>
        <time>2020-06-30T07:33:58Z</time>
      </trkpt>
      <trkpt lat="48.67552" lon="5.35501">
        <ele>265</ele>
        <time>2020-06-30T07:33:59Z</time>
      </trkpt>
      <trkpt lat="48.67549" lon="5.3549">
        <ele>264.4</ele>
        <time>2020-06-30T07:34:00Z</time>
      </trkpt>
      <trkpt lat="48.67546" lon="5.35481">
        <ele>263.8</ele>
        <time>2020-06-30T07:34:01Z</time>
      </trkpt>
      <trkpt lat="48.67543" lon="5.3547">
        <ele>263.1</ele>
        <time>2020-06-30T07:34:02Z</time>
      </trkpt>
      <trkpt lat="48.67539" lon="5.35459">
        <ele>262.6</ele>
        <time>2020-06-30T07:34:03Z</time>
      </trkpt>
      <trkpt lat="48.67535" lon="5.35448">
        <ele>262</ele>
        <time>2020-06-30T07:34:04Z</time>
      </trkpt>
      <trkpt lat="48.67532" lon="5.35437">
        <ele>261.5</ele>
        <time>2020-06-30T07:34:05Z</time>
      </trkpt>
      <trkpt lat="48.67529" lon="5.35426">
        <ele>261.2</ele>
        <time>2020-06-30T07:34:06Z</time>
      </trkpt>
      <trkpt lat="48.67525" lon="5.35414">
        <ele>260.8</ele>
        <time>2020-06-30T07:34:07Z</time>
      </trkpt>
      <trkpt lat="48.67522" lon="5.35402">
        <ele>260.4</ele>
        <time>2020-06-30T07:34:08Z</time>
      </trkpt>
      <trkpt lat="48.67519" lon="5.3539">
        <ele>260</ele>
        <time>2020-06-30T07:34:09Z</time>
      </trkpt>
      <trkpt lat="48.67516" lon="5.35378">
        <ele>259.6</ele>
        <time>2020-06-30T07:34:10Z</time>
      </trkpt>
      <trkpt lat="48.67512" lon="5.35366">
        <ele>259.2</ele>
        <time>2020-06-30T07:34:11Z</time>
      </trkpt>
      <trkpt lat="48.67508" lon="5.35355">
        <ele>258.7</ele>
        <time>2020-06-30T07:34:12Z</time>
      </trkpt>
      <trkpt lat="48.67503" lon="5.35344">
        <ele>258.3</ele>
        <time>2020-06-30T07:34:13Z</time>
      </trkpt>
      <trkpt lat="48.675" lon="5.35332">
        <ele>257.9</ele>
        <time>2020-06-30T07:34:14Z</time>
      </trkpt>
      <trkpt lat="48.67496" lon="5.35321">
        <ele>257.6</ele>
        <time>2020-06-30T07:34:15Z</time>
      </trkpt>
      <trkpt lat="48.67493" lon="5.35309">
        <ele>257.3</ele>
        <time>2020-06-30T07:34:16Z</time>
      </trkpt>
      <trkpt lat="48.67489" lon="5.35298">
        <ele>256.9</ele>
        <time>2020-06-30T07:34:17Z</time>
      </trkpt>
      <trkpt lat="48.67486" lon="5.35287">
        <ele>256.8</ele>
        <time>2020-06-30T07:34:18Z</time>
      </trkpt>
      <trkpt lat="48.67483" lon="5.35276">
        <ele>256.6</ele>
        <time>2020-06-30T07:34:19Z</time>
      </trkpt>
      <trkpt lat="48.67479" lon="5.35265">
        <ele>256.4</ele>
        <time>2020-06-30T07:34:20Z</time>
      </trkpt>
      <trkpt lat="48.67477" lon="5.35255">
        <ele>256.2</ele>
        <time>2020-06-30T07:34:21Z</time>
      </trkpt>
      <trkpt lat="48.67474" lon="5.35245">
        <ele>255.9</ele>
        <time>2020-06-30T07:34:22Z</time>
      </trkpt>
      <trkpt lat="48.67471" lon="5.35234">
        <ele>255.7</ele>
        <time>2020-06-30T07:34:23Z</time>
      </trkpt>
      <trkpt lat="48.67468" lon="5.35224">
        <ele>255.5</ele>
        <time>2020-06-30T07:34:24Z</time>
      </trkpt>
      <trkpt lat="48.67466" lon="5.35214">
        <ele>255.3</ele>
        <time>2020-06-30T07:34:25Z</time>
      </trkpt>
      <trkpt lat="48.67464" lon="5.35204">
        <ele>255.1</ele>
        <time>2020-06-30T07:34:26Z</time>
      </trkpt>
      <trkpt lat="48.67462" lon="5.35195">
        <ele>255</ele>
        <time>2020-06-30T07:34:27Z</time>
      </trkpt>
      <trkpt lat="48.67461" lon="5.35185">
        <ele>254.8</ele>
        <time>2020-06-30T07:34:28Z</time>
      </trkpt>
      <trkpt lat="48.67459" lon="5.35175">
        <ele>254.7</ele>
        <time>2020-06-30T07:34:29Z</time>
      </trkpt>
      <trkpt lat="48.67458" lon="5.35166">
        <ele>254.5</ele>
        <time>2020-06-30T07:34:30Z</time>
      </trkpt>
      <trkpt lat="48.67457" lon="5.35156">
        <ele>254.3</ele>
        <time>2020-06-30T07:34:31Z</time>
      </trkpt>
      <trkpt lat="48.67456" lon="5.35146">
        <ele>254.1</ele>
        <time>2020-06-30T07:34:32Z</time>
      </trkpt>
      <trkpt lat="48.67455" lon="5.35136">
        <ele>254</ele>
        <time>2020-06-30T07:34:33Z</time>
      </trkpt>
      <trkpt lat="48.67454" lon="5.35125">
        <ele>253.8</ele>
        <time>2020-06-30T07:34:34Z</time>
      </trkpt>
      <trkpt lat="48.67453" lon="5.35115">
        <ele>253.7</ele>
        <time>2020-06-30T07:34:35Z</time>
      </trkpt>
      <trkpt lat="48.67452" lon="5.35104">
        <ele>253.6</ele>
        <time>2020-06-30T07:34:36Z</time>
      </trkpt>
      <trkpt lat="48.67452" lon="5.35094">
        <ele>253.4</ele>
        <time>2020-06-30T07:34:37Z</time>
      </trkpt>
      <trkpt lat="48.67451" lon="5.35083">
        <ele>253.3</ele>
        <time>2020-06-30T07:34:38Z</time>
      </trkpt>
      <trkpt lat="48.67452" lon="5.35072">
        <ele>253.2</ele>
        <time>2020-06-30T07:34:39Z</time>
      </trkpt>
      <trkpt lat="48.67451" lon="5.35062">
        <ele>253.1</ele>
        <time>2020-06-30T07:34:40Z</time>
      </trkpt>
      <trkpt lat="48.67451" lon="5.35051">
        <ele>253</ele>
        <time>2020-06-30T07:34:41Z</time>
      </trkpt>
      <trkpt lat="48.67451" lon="5.35039">
        <ele>252.9</ele>
        <time>2020-06-30T07:34:42Z</time>
      </trkpt>
      <trkpt lat="48.6745" lon="5.35028">
        <ele>252.7</ele>
        <time>2020-06-30T07:34:43Z</time>
      </trkpt>
      <trkpt lat="48.67451" lon="5.35016">
        <ele>252.5</ele>
        <time>2020-06-30T07:34:44Z</time>
      </trkpt>
      <trkpt lat="48.67451" lon="5.35004">
        <ele>252.3</ele>
        <time>2020-06-30T07:34:45Z</time>
      </trkpt>
      <trkpt lat="48.6745" lon="5.34993">
        <ele>252.1</ele>
        <time>2020-06-30T07:34:46Z</time>
      </trkpt>
      <trkpt lat="48.67449" lon="5.34982">
        <ele>252</ele>
        <time>2020-06-30T07:34:47Z</time>
      </trkpt>
      <trkpt lat="48.67447" lon="5.34971">
        <ele>252</ele>
        <time>2020-06-30T07:34:48Z</time>
      </trkpt>
      <trkpt lat="48.67445" lon="5.34961">
        <ele>252</ele>
        <time>2020-06-30T07:34:49Z</time>
      </trkpt>
      <trkpt lat="48.67442" lon="5.34951">
        <ele>252.1</ele>
        <time>2020-06-30T07:34:50Z</time>
      </trkpt>
      <trkpt lat="48.67438" lon="5.34943">
        <ele>252.1</ele>
        <time>2020-06-30T07:34:51Z</time>
      </trkpt>
      <trkpt lat="48.67434" lon="5.34934">
        <ele>252.2</ele>
        <time>2020-06-30T07:34:52Z</time>
      </trkpt>
      <trkpt lat="48.67431" lon="5.34926">
        <ele>252.3</ele>
        <time>2020-06-30T07:34:53Z</time>
      </trkpt>
      <trkpt lat="48.67428" lon="5.34918">
        <ele>252.4</ele>
        <time>2020-06-30T07:34:54Z</time>
      </trkpt>
      <trkpt lat="48.67424" lon="5.34911">
        <ele>252.4</ele>
        <time>2020-06-30T07:34:55Z</time>
      </trkpt>
      <trkpt lat="48.67422" lon="5.34905">
        <ele>252.5</ele>
        <time>2020-06-30T07:34:56Z</time>
      </trkpt>
      <trkpt lat="48.67419" lon="5.34898">
        <ele>252.5</ele>
        <time>2020-06-30T07:34:57Z</time>
      </trkpt>
      <trkpt lat="48.67417" lon="5.34891">
        <ele>252.4</ele>
        <time>2020-06-30T07:34:58Z</time>
      </trkpt>
      <trkpt lat="48.67415" lon="5.34885">
        <ele>252.4</ele>
        <time>2020-06-30T07:34:59Z</time>
      </trkpt>
      <trkpt lat="48.67412" lon="5.34879">
        <ele>252.3</ele>
        <time>2020-06-30T07:35:00Z</time>
      </trkpt>
      <trkpt lat="48.6741" lon="5.34872">
        <ele>252.1</ele>
        <time>2020-06-30T07:35:01Z</time>
      </trkpt>
      <trkpt lat="48.67406" lon="5.34866">
        <ele>252</ele>
        <time>2020-06-30T07:35:02Z</time>
      </trkpt>
      <trkpt lat="48.67404" lon="5.34859">
        <ele>251.9</ele>
        <time>2020-06-30T07:35:03Z</time>
      </trkpt>
      <trkpt lat="48.67402" lon="5.34853">
        <ele>251.8</ele>
        <time>2020-06-30T07:35:04Z</time>
      </trkpt>
      <trkpt lat="48.67399" lon="5.34847">
        <ele>251.7</ele>
        <time>2020-06-30T07:35:05Z</time>
      </trkpt>
      <trkpt lat="48.67396" lon="5.3484">
        <ele>251.5</ele>
        <time>2020-06-30T07:35:06Z</time>
      </trkpt>
      <trkpt lat="48.67394" lon="5.34833">
        <ele>251.3</ele>
        <time>2020-06-30T07:35:07Z</time>
      </trkpt>
      <trkpt lat="48.67391" lon="5.34826">
        <ele>251</ele>
        <time>2020-06-30T07:35:08Z</time>
      </trkpt>
      <trkpt lat="48.67388" lon="5.34817">
        <ele>250.7</ele>
        <time>2020-06-30T07:35:09Z</time>
      </trkpt>
      <trkpt lat="48.67384" lon="5.3481">
        <ele>250.4</ele>
        <time>2020-06-30T07:35:10Z</time>
      </trkpt>
      <trkpt lat="48.67381" lon="5.34801">
        <ele>250.1</ele>
        <time>2020-06-30T07:35:11Z</time>
      </trkpt>
      <trkpt lat="48.67377" lon="5.34792">
        <ele>249.9</ele>
        <time>2020-06-30T07:35:12Z</time>
      </trkpt>
      <trkpt lat="48.67373" lon="5.34783">
        <ele>249.6</ele>
        <time>2020-06-30T07:35:13Z</time>
      </trkpt>
      <trkpt lat="48.6737" lon="5.34773">
        <ele>249.3</ele>
        <time>2020-06-30T07:35:14Z</time>
      </trkpt>
      <trkpt lat="48.67366" lon="5.34763">
        <ele>248.9</ele>
        <time>2020-06-30T07:35:15Z</time>
      </trkpt>
      <trkpt lat="48.67362" lon="5.34754">
        <ele>248.6</ele>
        <time>2020-06-30T07:35:16Z</time>
      </trkpt>
      <trkpt lat="48.67358" lon="5.34744">
        <ele>248.3</ele>
        <time>2020-06-30T07:35:17Z</time>
      </trkpt>
      <trkpt lat="48.67355" lon="5.34734">
        <ele>248.1</ele>
        <time>2020-06-30T07:35:18Z</time>
      </trkpt>
      <trkpt lat="48.67352" lon="5.34723">
        <ele>247.9</ele>
        <time>2020-06-30T07:35:19Z</time>
      </trkpt>
      <trkpt lat="48.67349" lon="5.34712">
        <ele>247.7</ele>
        <time>2020-06-30T07:35:20Z</time>
      </trkpt>
      <trkpt lat="48.67346" lon="5.34702">
        <ele>247.4</ele>
        <time>2020-06-30T07:35:21Z</time>
      </trkpt>
      <trkpt lat="48.67344" lon="5.34691">
        <ele>247.1</ele>
        <time>2020-06-30T07:35:22Z</time>
      </trkpt>
      <trkpt lat="48.67341" lon="5.34681">
        <ele>246.8</ele>
        <time>2020-06-30T07:35:23Z</time>
      </trkpt>
      <trkpt lat="48.67339" lon="5.3467">
        <ele>246.6</ele>
        <time>2020-06-30T07:35:24Z</time>
      </trkpt>
      <trkpt lat="48.67337" lon="5.34659">
        <ele>246.4</ele>
        <time>2020-06-30T07:35:25Z</time>
      </trkpt>
      <trkpt lat="48.67335" lon="5.34648">
        <ele>246.3</ele>
        <time>2020-06-30T07:35:26Z</time>
      </trkpt>
      <trkpt lat="48.67334" lon="5.34637">
        <ele>246.2</ele>
        <time>2020-06-30T07:35:27Z</time>
      </trkpt>
      <trkpt lat="48.67332" lon="5.34626">
        <ele>246.1</ele>
        <time>2020-06-30T07:35:28Z</time>
      </trkpt>
      <trkpt lat="48.67331" lon="5.34615">
        <ele>246</ele>
        <time>2020-06-30T07:35:29Z</time>
      </trkpt>
      <trkpt lat="48.6733" lon="5.34604">
        <ele>246</ele>
        <time>2020-06-30T07:35:30Z</time>
      </trkpt>
      <trkpt lat="48.67329" lon="5.34593">
        <ele>246</ele>
        <time>2020-06-30T07:35:31Z</time>
      </trkpt>
      <trkpt lat="48.67328" lon="5.34582">
        <ele>245.9</ele>
        <time>2020-06-30T07:35:32Z</time>
      </trkpt>
      <trkpt lat="48.67328" lon="5.34572">
        <ele>245.9</ele>
        <time>2020-06-30T07:35:33Z</time>
      </trkpt>
      <trkpt lat="48.67327" lon="5.34561">
        <ele>245.8</ele>
        <time>2020-06-30T07:35:34Z</time>
      </trkpt>
      <trkpt lat="48.67327" lon="5.3455">
        <ele>245.8</ele>
        <time>2020-06-30T07:35:35Z</time>
      </trkpt>
      <trkpt lat="48.67327" lon="5.3454">
        <ele>245.7</ele>
        <time>2020-06-30T07:35:36Z</time>
      </trkpt>
      <trkpt lat="48.67327" lon="5.34529">
        <ele>245.7</ele>
        <time>2020-06-30T07:35:37Z</time>
      </trkpt>
      <trkpt lat="48.67328" lon="5.34519">
        <ele>245.6</ele>
        <time>2020-06-30T07:35:38Z</time>
      </trkpt>
      <trkpt lat="48.67328" lon="5.34508">
        <ele>245.6</ele>
        <time>2020-06-30T07:35:39Z</time>
      </trkpt>
      <trkpt lat="48.67328" lon="5.34498">
        <ele>245.5</ele>
        <time>2020-06-30T07:35:40Z</time>
      </trkpt>
      <trkpt lat="48.67328" lon="5.34487">
        <ele>245.4</ele>
        <time>2020-06-30T07:35:41Z</time>
      </trkpt>
      <trkpt lat="48.67329" lon="5.34477">
        <ele>245.2</ele>
        <time>2020-06-30T07:35:42Z</time>
      </trkpt>
      <trkpt lat="48.6733" lon="5.34467">
        <ele>245</ele>
        <time>2020-06-30T07:35:43Z</time>
      </trkpt>
      <trkpt lat="48.67331" lon="5.34456">
        <ele>244.8</ele>
        <time>2020-06-30T07:35:44Z</time>
      </trkpt>
      <trkpt lat="48.67331" lon="5.34446">
        <ele>244.6</ele>
        <time>2020-06-30T07:35:45Z</time>
      </trkpt>
      <trkpt lat="48.67332" lon="5.34435">
        <ele>244.5</ele>
        <time>2020-06-30T07:35:46Z</time>
      </trkpt>
      <trkpt lat="48.67332" lon="5.34425">
        <ele>244.4</ele>
        <time>2020-06-30T07:35:47Z</time>
      </trkpt>
      <trkpt lat="48.67333" lon="5.34415">
        <ele>244.4</ele>
        <time>2020-06-30T07:35:48Z</time>
      </trkpt>
      <trkpt lat="48.67334" lon="5.34405">
        <ele>244.4</ele>
        <time>2020-06-30T07:35:49Z</time>
      </trkpt>
      <trkpt lat="48.67336" lon="5.34395">
        <ele>244.4</ele>
        <time>2020-06-30T07:35:50Z</time>
      </trkpt>
      <trkpt lat="48.67337" lon="5.34384">
        <ele>244.4</ele>
        <time>2020-06-30T07:35:51Z</time>
      </trkpt>
      <trkpt lat="48.67338" lon="5.34374">
        <ele>244.4</ele>
        <time>2020-06-30T07:35:52Z</time>
      </trkpt>
      <trkpt lat="48.67339" lon="5.34364">
        <ele>244.4</ele>
        <time>2020-06-30T07:35:53Z</time>
      </trkpt>
      <trkpt lat="48.6734" lon="5.34354">
        <ele>244.4</ele>
        <time>2020-06-30T07:35:54Z</time>
      </trkpt>
      <trkpt lat="48.67341" lon="5.34344">
        <ele>244.3</ele>
        <time>2020-06-30T07:35:55Z</time>
      </trkpt>
      <trkpt lat="48.67342" lon="5.34334">
        <ele>244.2</ele>
        <time>2020-06-30T07:35:56Z</time>
      </trkpt>
      <trkpt lat="48.67343" lon="5.34325">
        <ele>244</ele>
        <time>2020-06-30T07:35:57Z</time>
      </trkpt>
      <trkpt lat="48.67345" lon="5.34315">
        <ele>243.8</ele>
        <time>2020-06-30T07:35:58Z</time>
      </trkpt>
      <trkpt lat="48.67346" lon="5.34306">
        <ele>243.6</ele>
        <time>2020-06-30T07:35:59Z</time>
      </trkpt>
      <trkpt lat="48.67347" lon="5.34296">
        <ele>243.4</ele>
        <time>2020-06-30T07:36:00Z</time>
      </trkpt>
      <trkpt lat="48.67349" lon="5.34286">
        <ele>243.2</ele>
        <time>2020-06-30T07:36:01Z</time>
      </trkpt>
      <trkpt lat="48.6735" lon="5.34276">
        <ele>243.1</ele>
        <time>2020-06-30T07:36:02Z</time>
      </trkpt>
      <trkpt lat="48.67352" lon="5.34267">
        <ele>242.9</ele>
        <time>2020-06-30T07:36:03Z</time>
      </trkpt>
      <trkpt lat="48.67353" lon="5.34257">
        <ele>242.7</ele>
        <time>2020-06-30T07:36:04Z</time>
      </trkpt>
      <trkpt lat="48.67355" lon="5.34247">
        <ele>242.6</ele>
        <time>2020-06-30T07:36:05Z</time>
      </trkpt>
      <trkpt lat="48.67356" lon="5.34237">
        <ele>242.5</ele>
        <time>2020-06-30T07:36:06Z</time>
      </trkpt>
      <trkpt lat="48.67358" lon="5.34227">
        <ele>242.3</ele>
        <time>2020-06-30T07:36:07Z</time>
      </trkpt>
      <trkpt lat="48.67359" lon="5.34216">
        <ele>242.1</ele>
        <time>2020-06-30T07:36:08Z</time>
      </trkpt>
      <trkpt lat="48.67361" lon="5.34206">
        <ele>241.8</ele>
        <time>2020-06-30T07:36:09Z</time>
      </trkpt>
      <trkpt lat="48.67363" lon="5.34196">
        <ele>241.6</ele>
        <time>2020-06-30T07:36:10Z</time>
      </trkpt>
      <trkpt lat="48.67364" lon="5.34185">
        <ele>241.4</ele>
        <time>2020-06-30T07:36:11Z</time>
      </trkpt>
      <trkpt lat="48.67366" lon="5.34174">
        <ele>241.3</ele>
        <time>2020-06-30T07:36:12Z</time>
      </trkpt>
      <trkpt lat="48.67367" lon="5.34164">
        <ele>241.3</ele>
        <time>2020-06-30T07:36:13Z</time>
      </trkpt>
      <trkpt lat="48.67369" lon="5.34153">
        <ele>241.3</ele>
        <time>2020-06-30T07:36:14Z</time>
      </trkpt>
      <trkpt lat="48.67371" lon="5.34142">
        <ele>241.4</ele>
        <time>2020-06-30T07:36:15Z</time>
      </trkpt>
      <trkpt lat="48.67373" lon="5.34131">
        <ele>241.5</ele>
        <time>2020-06-30T07:36:16Z</time>
      </trkpt>
      <trkpt lat="48.67375" lon="5.3412">
        <ele>241.5</ele>
        <time>2020-06-30T07:36:17Z</time>
      </trkpt>
      <trkpt lat="48.67377" lon="5.3411">
        <ele>241.5</ele>
        <time>2020-06-30T07:36:18Z</time>
      </trkpt>
      <trkpt lat="48.67379" lon="5.341">
        <ele>241.5</ele>
        <time>2020-06-30T07:36:19Z</time>
      </trkpt>
      <trkpt lat="48.67381" lon="5.3409">
        <ele>241.6</ele>
        <time>2020-06-30T07:36:20Z</time>
      </trkpt>
      <trkpt lat="48.67383" lon="5.3408">
        <ele>241.6</ele>
        <time>2020-06-30T07:36:21Z</time>
      </trkpt>
      <trkpt lat="48.67385" lon="5.3407">
        <ele>241.7</ele>
        <time>2020-06-30T07:36:22Z</time>
      </trkpt>
      <trkpt lat="48.67387" lon="5.34061">
        <ele>241.8</ele>
        <time>2020-06-30T07:36:23Z</time>
      </trkpt>
      <trkpt lat="48.67389" lon="5.34051">
        <ele>241.9</ele>
        <time>2020-06-30T07:36:24Z</time>
      </trkpt>
      <trkpt lat="48.67391" lon="5.34042">
        <ele>242</ele>
        <time>2020-06-30T07:36:25Z</time>
      </trkpt>
      <trkpt lat="48.67393" lon="5.34033">
        <ele>242.1</ele>
        <time>2020-06-30T07:36:26Z</time>
      </trkpt>
      <trkpt lat="48.67395" lon="5.34024">
        <ele>242.3</ele>
        <time>2020-06-30T07:36:27Z</time>
      </trkpt>
      <trkpt lat="48.67397" lon="5.34016">
        <ele>242.4</ele>
        <time>2020-06-30T07:36:28Z</time>
      </trkpt>
      <trkpt lat="48.67398" lon="5.34007">
        <ele>242.6</ele>
        <time>2020-06-30T07:36:29Z</time>
      </trkpt>
      <trkpt lat="48.674" lon="5.33999">
        <ele>242.8</ele>
        <time>2020-06-30T07:36:30Z</time>
      </trkpt>
      <trkpt lat="48.67401" lon="5.33991">
        <ele>242.9</ele>
        <time>2020-06-30T07:36:31Z</time>
      </trkpt>
      <trkpt lat="48.67402" lon="5.33983">
        <ele>243.1</ele>
        <time>2020-06-30T07:36:32Z</time>
      </trkpt>
      <trkpt lat="48.67404" lon="5.33975">
        <ele>243.3</ele>
        <time>2020-06-30T07:36:33Z</time>
      </trkpt>
      <trkpt lat="48.67405" lon="5.33967">
        <ele>243.5</ele>
        <time>2020-06-30T07:36:34Z</time>
      </trkpt>
      <trkpt lat="48.67406" lon="5.3396">
        <ele>243.8</ele>
        <time>2020-06-30T07:36:35Z</time>
      </trkpt>
      <trkpt lat="48.67407" lon="5.33952">
        <ele>244</ele>
        <time>2020-06-30T07:36:36Z</time>
      </trkpt>
      <trkpt lat="48.67408" lon="5.33945">
        <ele>244.2</ele>
        <time>2020-06-30T07:36:37Z</time>
      </trkpt>
      <trkpt lat="48.67409" lon="5.33938">
        <ele>244.4</ele>
        <time>2020-06-30T07:36:38Z</time>
      </trkpt>
      <trkpt lat="48.6741" lon="5.33931">
        <ele>244.6</ele>
        <time>2020-06-30T07:36:39Z</time>
      </trkpt>
      <trkpt lat="48.67412" lon="5.33925">
        <ele>244.8</ele>
        <time>2020-06-30T07:36:40Z</time>
      </trkpt>
      <trkpt lat="48.67414" lon="5.33919">
        <ele>245</ele>
        <time>2020-06-30T07:36:41Z</time>
      </trkpt>
      <trkpt lat="48.67415" lon="5.33914">
        <ele>245.1</ele>
        <time>2020-06-30T07:36:42Z</time>
      </trkpt>
      <trkpt lat="48.67416" lon="5.33909">
        <ele>245.3</ele>
        <time>2020-06-30T07:36:43Z</time>
      </trkpt>
      <trkpt lat="48.67418" lon="5.33904">
        <ele>245.4</ele>
        <time>2020-06-30T07:36:44Z</time>
      </trkpt>
      <trkpt lat="48.67419" lon="5.33897">
        <ele>245.6</ele>
        <time>2020-06-30T07:36:45Z</time>
      </trkpt>
      <trkpt lat="48.6742" lon="5.33893">
        <ele>245.8</ele>
        <time>2020-06-30T07:36:46Z</time>
      </trkpt>
      <trkpt lat="48.67422" lon="5.33888">
        <ele>245.9</ele>
        <time>2020-06-30T07:36:47Z</time>
      </trkpt>
      <trkpt lat="48.67423" lon="5.33882">
        <ele>246.1</ele>
        <time>2020-06-30T07:36:48Z</time>
      </trkpt>
      <trkpt lat="48.67423" lon="5.33879">
        <ele>246.2</ele>
        <time>2020-06-30T07:36:49Z</time>
      </trkpt>
      <trkpt lat="48.67425" lon="5.33875">
        <ele>246.4</ele>
        <time>2020-06-30T07:36:50Z</time>
      </trkpt>
      <trkpt lat="48.67427" lon="5.33869">
        <ele>246.7</ele>
        <time>2020-06-30T07:36:51Z</time>
      </trkpt>
      <trkpt lat="48.67429" lon="5.33863">
        <ele>246.9</ele>
        <time>2020-06-30T07:36:52Z</time>
      </trkpt>
      <trkpt lat="48.67431" lon="5.33859">
        <ele>247</ele>
        <time>2020-06-30T07:36:53Z</time>
      </trkpt>
      <trkpt lat="48.67433" lon="5.33854">
        <ele>247.1</ele>
        <time>2020-06-30T07:36:54Z</time>
      </trkpt>
      <trkpt lat="48.67436" lon="5.33849">
        <ele>247.3</ele>
        <time>2020-06-30T07:36:55Z</time>
      </trkpt>
      <trkpt lat="48.67437" lon="5.33847">
        <ele>247.3</ele>
        <time>2020-06-30T07:36:56Z</time>
      </trkpt>
      <trkpt lat="48.67439" lon="5.33842">
        <ele>247.4</ele>
        <time>2020-06-30T07:36:57Z</time>
      </trkpt>
      <trkpt lat="48.67441" lon="5.33835">
        <ele>247.5</ele>
        <time>2020-06-30T07:36:58Z</time>
      </trkpt>
      <trkpt lat="48.67443" lon="5.33832">
        <ele>247.6</ele>
        <time>2020-06-30T07:36:59Z</time>
      </trkpt>
      <trkpt lat="48.67444" lon="5.33827">
        <ele>247.7</ele>
        <time>2020-06-30T07:37:00Z</time>
      </trkpt>
      <trkpt lat="48.67446" lon="5.33822">
        <ele>247.7</ele>
        <time>2020-06-30T07:37:01Z</time>
      </trkpt>
      <trkpt lat="48.67448" lon="5.33818">
        <ele>247.8</ele>
        <time>2020-06-30T07:37:02Z</time>
      </trkpt>
      <trkpt lat="48.67449" lon="5.33816">
        <ele>247.8</ele>
        <time>2020-06-30T07:37:03Z</time>
      </trkpt>
      <trkpt lat="48.67451" lon="5.33811">
        <ele>247.8</ele>
        <time>2020-06-30T07:37:04Z</time>
      </trkpt>
      <trkpt lat="48.67452" lon="5.33809">
        <ele>247.8</ele>
        <time>2020-06-30T07:37:05Z</time>
      </trkpt>
      <trkpt lat="48.67455" lon="5.33803">
        <ele>247.8</ele>
        <time>2020-06-30T07:37:06Z</time>
      </trkpt>
      <trkpt lat="48.67457" lon="5.33799">
        <ele>247.8</ele>
        <time>2020-06-30T07:37:07Z</time>
      </trkpt>
      <trkpt lat="48.6746" lon="5.33794">
        <ele>247.8</ele>
        <time>2020-06-30T07:37:08Z</time>
      </trkpt>
      <trkpt lat="48.67463" lon="5.33789">
        <ele>247.7</ele>
        <time>2020-06-30T07:37:09Z</time>
      </trkpt>
      <trkpt lat="48.67465" lon="5.33785">
        <ele>247.6</ele>
        <time>2020-06-30T07:37:10Z</time>
      </trkpt>
      <trkpt lat="48.67468" lon="5.33779">
        <ele>247.5</ele>
        <time>2020-06-30T07:37:11Z</time>
      </trkpt>
      <trkpt lat="48.67472" lon="5.33773">
        <ele>247.4</ele>
        <time>2020-06-30T07:37:12Z</time>
      </trkpt>
      <trkpt lat="48.67476" lon="5.33767">
        <ele>247.2</ele>
        <time>2020-06-30T07:37:13Z</time>
      </trkpt>
      <trkpt lat="48.6748" lon="5.33762">
        <ele>247.1</ele>
        <time>2020-06-30T07:37:14Z</time>
      </trkpt>
      <trkpt lat="48.67484" lon="5.33757">
        <ele>246.9</ele>
        <time>2020-06-30T07:37:15Z</time>
      </trkpt>
      <trkpt lat="48.67488" lon="5.33751">
        <ele>246.7</ele>
        <time>2020-06-30T07:37:16Z</time>
      </trkpt>
      <trkpt lat="48.67492" lon="5.33744">
        <ele>246.4</ele>
        <time>2020-06-30T07:37:17Z</time>
      </trkpt>
      <trkpt lat="48.67496" lon="5.33738">
        <ele>246.2</ele>
        <time>2020-06-30T07:37:18Z</time>
      </trkpt>
      <trkpt lat="48.675" lon="5.33732">
        <ele>245.9</ele>
        <time>2020-06-30T07:37:19Z</time>
      </trkpt>
      <trkpt lat="48.67504" lon="5.33727">
        <ele>245.6</ele>
        <time>2020-06-30T07:37:20Z</time>
      </trkpt>
      <trkpt lat="48.67509" lon="5.33721">
        <ele>245.3</ele>
        <time>2020-06-30T07:37:21Z</time>
      </trkpt>
      <trkpt lat="48.67514" lon="5.33716">
        <ele>244.8</ele>
        <time>2020-06-30T07:37:22Z</time>
      </trkpt>
      <trkpt lat="48.6752" lon="5.3371">
        <ele>244.3</ele>
        <time>2020-06-30T07:37:23Z</time>
      </trkpt>
      <trkpt lat="48.67526" lon="5.33704">
        <ele>243.9</ele>
        <time>2020-06-30T07:37:24Z</time>
      </trkpt>
      <trkpt lat="48.67532" lon="5.33697">
        <ele>243.4</ele>
        <time>2020-06-30T07:37:25Z</time>
      </trkpt>
      <trkpt lat="48.67538" lon="5.33691">
        <ele>242.9</ele>
        <time>2020-06-30T07:37:26Z</time>
      </trkpt>
      <trkpt lat="48.67545" lon="5.33684">
        <ele>242.4</ele>
        <time>2020-06-30T07:37:27Z</time>
      </trkpt>
      <trkpt lat="48.67552" lon="5.33678">
        <ele>241.9</ele>
        <time>2020-06-30T07:37:28Z</time>
      </trkpt>
      <trkpt lat="48.67559" lon="5.33671">
        <ele>241.4</ele>
        <time>2020-06-30T07:37:29Z</time>
      </trkpt>
      <trkpt lat="48.67566" lon="5.33664">
        <ele>240.8</ele>
        <time>2020-06-30T07:37:30Z</time>
      </trkpt>
      <trkpt lat="48.67574" lon="5.33658">
        <ele>240.2</ele>
        <time>2020-06-30T07:37:31Z</time>
      </trkpt>
      <trkpt lat="48.67582" lon="5.33651">
        <ele>239.5</ele>
        <time>2020-06-30T07:37:32Z</time>
      </trkpt>
      <trkpt lat="48.6759" lon="5.33646">
        <ele>238.9</ele>
        <time>2020-06-30T07:37:33Z</time>
      </trkpt>
      <trkpt lat="48.67599" lon="5.33641">
        <ele>238.3</ele>
        <time>2020-06-30T07:37:34Z</time>
      </trkpt>
      <trkpt lat="48.67608" lon="5.33636">
        <ele>237.6</ele>
        <time>2020-06-30T07:37:35Z</time>
      </trkpt>
      <trkpt lat="48.67617" lon="5.33631">
        <ele>236.8</ele>
        <time>2020-06-30T07:37:36Z</time>
      </trkpt>
      <trkpt lat="48.67627" lon="5.33626">
        <ele>236</ele>
        <time>2020-06-30T07:37:37Z</time>
      </trkpt>
      <trkpt lat="48.67636" lon="5.33621">
        <ele>235.1</ele>
        <time>2020-06-30T07:37:38Z</time>
      </trkpt>
      <trkpt lat="48.67646" lon="5.33615">
        <ele>234.4</ele>
        <time>2020-06-30T07:37:39Z</time>
      </trkpt>
      <trkpt lat="48.67655" lon="5.33609">
        <ele>233.7</ele>
        <time>2020-06-30T07:37:40Z</time>
      </trkpt>
      <trkpt lat="48.67665" lon="5.33602">
        <ele>233</ele>
        <time>2020-06-30T07:37:41Z</time>
      </trkpt>
      <trkpt lat="48.67674" lon="5.33595">
        <ele>232.4</ele>
        <time>2020-06-30T07:37:42Z</time>
      </trkpt>
      <trkpt lat="48.67683" lon="5.33587">
        <ele>231.9</ele>
        <time>2020-06-30T07:37:43Z</time>
      </trkpt>
      <trkpt lat="48.67691" lon="5.33578">
        <ele>231.4</ele>
        <time>2020-06-30T07:37:44Z</time>
      </trkpt>
      <trkpt lat="48.67699" lon="5.33568">
        <ele>231.1</ele>
        <time>2020-06-30T07:37:45Z</time>
      </trkpt>
      <trkpt lat="48.67706" lon="5.33558">
        <ele>230.7</ele>
        <time>2020-06-30T07:37:46Z</time>
      </trkpt>
      <trkpt lat="48.67713" lon="5.33547">
        <ele>230.2</ele>
        <time>2020-06-30T07:37:47Z</time>
      </trkpt>
      <trkpt lat="48.67719" lon="5.33536">
        <ele>230.1</ele>
        <time>2020-06-30T07:37:48Z</time>
      </trkpt>
      <trkpt lat="48.67724" lon="5.33525">
        <ele>229.9</ele>
        <time>2020-06-30T07:37:49Z</time>
      </trkpt>
      <trkpt lat="48.67729" lon="5.33514">
        <ele>229.7</ele>
        <time>2020-06-30T07:37:50Z</time>
      </trkpt>
      <trkpt lat="48.67734" lon="5.33503">
        <ele>229.5</ele>
        <time>2020-06-30T07:37:51Z</time>
      </trkpt>
      <trkpt lat="48.67738" lon="5.33491">
        <ele>229.4</ele>
        <time>2020-06-30T07:37:52Z</time>
      </trkpt>
      <trkpt lat="48.67744" lon="5.33481">
        <ele>229.2</ele>
        <time>2020-06-30T07:37:53Z</time>
      </trkpt>
      <trkpt lat="48.67749" lon="5.33471">
        <ele>229</ele>
        <time>2020-06-30T07:37:54Z</time>
      </trkpt>
      <trkpt lat="48.67755" lon="5.33462">
        <ele>228.9</ele>
        <time>2020-06-30T07:37:55Z</time>
      </trkpt>
      <trkpt lat="48.67761" lon="5.33453">
        <ele>228.7</ele>
        <time>2020-06-30T07:37:56Z</time>
      </trkpt>
      <trkpt lat="48.67768" lon="5.33446">
        <ele>228.6</ele>
        <time>2020-06-30T07:37:57Z</time>
      </trkpt>
      <trkpt lat="48.67775" lon="5.33438">
        <ele>228.4</ele>
        <time>2020-06-30T07:37:58Z</time>
      </trkpt>
      <trkpt lat="48.67783" lon="5.33432">
        <ele>228.2</ele>
        <time>2020-06-30T07:37:59Z</time>
      </trkpt>
      <trkpt lat="48.67791" lon="5.33426">
        <ele>227.9</ele>
        <time>2020-06-30T07:38:00Z</time>
      </trkpt>
      <trkpt lat="48.67798" lon="5.3342">
        <ele>227.7</ele>
        <time>2020-06-30T07:38:01Z</time>
      </trkpt>
      <trkpt lat="48.67806" lon="5.33415">
        <ele>227.6</ele>
        <time>2020-06-30T07:38:02Z</time>
      </trkpt>
      <trkpt lat="48.67813" lon="5.33409">
        <ele>227.5</ele>
        <time>2020-06-30T07:38:03Z</time>
      </trkpt>
      <trkpt lat="48.67821" lon="5.33404">
        <ele>227.4</ele>
        <time>2020-06-30T07:38:04Z</time>
      </trkpt>
      <trkpt lat="48.67828" lon="5.33399">
        <ele>227.4</ele>
        <time>2020-06-30T07:38:05Z</time>
      </trkpt>
      <trkpt lat="48.67835" lon="5.33394">
        <ele>227.3</ele>
        <time>2020-06-30T07:38:06Z</time>
      </trkpt>
      <trkpt lat="48.67843" lon="5.3339">
        <ele>227.2</ele>
        <time>2020-06-30T07:38:07Z</time>
      </trkpt>
      <trkpt lat="48.6785" lon="5.33385">
        <ele>227</ele>
        <time>2020-06-30T07:38:08Z</time>
      </trkpt>
      <trkpt lat="48.67857" lon="5.33381">
        <ele>226.8</ele>
        <time>2020-06-30T07:38:09Z</time>
      </trkpt>
      <trkpt lat="48.67865" lon="5.33377">
        <ele>226.7</ele>
        <time>2020-06-30T07:38:10Z</time>
      </trkpt>
      <trkpt lat="48.67872" lon="5.33373">
        <ele>226.5</ele>
        <time>2020-06-30T07:38:11Z</time>
      </trkpt>
      <trkpt lat="48.6788" lon="5.3337">
        <ele>226.3</ele>
        <time>2020-06-30T07:38:12Z</time>
      </trkpt>
      <trkpt lat="48.67888" lon="5.33367">
        <ele>226.2</ele>
        <time>2020-06-30T07:38:13Z</time>
      </trkpt>
      <trkpt lat="48.67896" lon="5.33363">
        <ele>226.1</ele>
        <time>2020-06-30T07:38:14Z</time>
      </trkpt>
      <trkpt lat="48.67904" lon="5.3336">
        <ele>226</ele>
        <time>2020-06-30T07:38:15Z</time>
      </trkpt>
      <trkpt lat="48.67912" lon="5.33357">
        <ele>226</ele>
        <time>2020-06-30T07:38:16Z</time>
      </trkpt>
      <trkpt lat="48.6792" lon="5.33354">
        <ele>226</ele>
        <time>2020-06-30T07:38:17Z</time>
      </trkpt>
      <trkpt lat="48.67927" lon="5.33351">
        <ele>225.9</ele>
        <time>2020-06-30T07:38:18Z</time>
      </trkpt>
      <trkpt lat="48.67935" lon="5.33348">
        <ele>225.9</ele>
        <time>2020-06-30T07:38:19Z</time>
      </trkpt>
      <trkpt lat="48.67942" lon="5.33344">
        <ele>225.9</ele>
        <time>2020-06-30T07:38:20Z</time>
      </trkpt>
      <trkpt lat="48.6795" lon="5.3334">
        <ele>225.9</ele>
        <time>2020-06-30T07:38:21Z</time>
      </trkpt>
      <trkpt lat="48.67957" lon="5.33335">
        <ele>226</ele>
        <time>2020-06-30T07:38:22Z</time>
      </trkpt>
      <trkpt lat="48.67964" lon="5.33331">
        <ele>226</ele>
        <time>2020-06-30T07:38:23Z</time>
      </trkpt>
      <trkpt lat="48.67971" lon="5.33326">
        <ele>226</ele>
        <time>2020-06-30T07:38:24Z</time>
      </trkpt>
      <trkpt lat="48.67978" lon="5.3332">
        <ele>226</ele>
        <time>2020-06-30T07:38:25Z</time>
      </trkpt>
      <trkpt lat="48.67985" lon="5.33315">
        <ele>226</ele>
        <time>2020-06-30T07:38:26Z</time>
      </trkpt>
      <trkpt lat="48.67991" lon="5.3331">
        <ele>226</ele>
        <time>2020-06-30T07:38:27Z</time>
      </trkpt>
      <trkpt lat="48.67997" lon="5.33305">
        <ele>226</ele>
        <time>2020-06-30T07:38:28Z</time>
      </trkpt>
      <trkpt lat="48.68004" lon="5.333">
        <ele>226</ele>
        <time>2020-06-30T07:38:29Z</time>
      </trkpt>
      <trkpt lat="48.6801" lon="5.33295">
        <ele>226</ele>
        <time>2020-06-30T07:38:30Z</time>
      </trkpt>
      <trkpt lat="48.68015" lon="5.3329">
        <ele>226</ele>
        <time>2020-06-30T07:38:31Z</time>
      </trkpt>
      <trkpt lat="48.68021" lon="5.33285">
        <ele>226</ele>
        <time>2020-06-30T07:38:32Z</time>
      </trkpt>
      <trkpt lat="48.68027" lon="5.33281">
        <ele>226</ele>
        <time>2020-06-30T07:38:33Z</time>
      </trkpt>
      <trkpt lat="48.68033" lon="5.33276">
        <ele>226</ele>
        <time>2020-06-30T07:38:34Z</time>
      </trkpt>
      <trkpt lat="48.68039" lon="5.33271">
        <ele>226</ele>
        <time>2020-06-30T07:38:35Z</time>
      </trkpt>
      <trkpt lat="48.68045" lon="5.33267">
        <ele>226</ele>
        <time>2020-06-30T07:38:36Z</time>
      </trkpt>
      <trkpt lat="48.68051" lon="5.33262">
        <ele>226</ele>
        <time>2020-06-30T07:38:37Z</time>
      </trkpt>
      <trkpt lat="48.68056" lon="5.33257">
        <ele>226</ele>
        <time>2020-06-30T07:38:38Z</time>
      </trkpt>
      <trkpt lat="48.68062" lon="5.33252">
        <ele>226</ele>
        <time>2020-06-30T07:38:39Z</time>
      </trkpt>
      <trkpt lat="48.68068" lon="5.33247">
        <ele>225.9</ele>
        <time>2020-06-30T07:38:40Z</time>
      </trkpt>
      <trkpt lat="48.68073" lon="5.33242">
        <ele>225.9</ele>
        <time>2020-06-30T07:38:41Z</time>
      </trkpt>
      <trkpt lat="48.68079" lon="5.33237">
        <ele>225.8</ele>
        <time>2020-06-30T07:38:42Z</time>
      </trkpt>
      <trkpt lat="48.68085" lon="5.33233">
        <ele>225.7</ele>
        <time>2020-06-30T07:38:43Z</time>
      </trkpt>
      <trkpt lat="48.68091" lon="5.33228">
        <ele>225.6</ele>
        <time>2020-06-30T07:38:44Z</time>
      </trkpt>
      <trkpt lat="48.68097" lon="5.33224">
        <ele>225.6</ele>
        <time>2020-06-30T07:38:45Z</time>
      </trkpt>
      <trkpt lat="48.68103" lon="5.33219">
        <ele>225.5</ele>
        <time>2020-06-30T07:38:46Z</time>
      </trkpt>
      <trkpt lat="48.68109" lon="5.33214">
        <ele>225.4</ele>
        <time>2020-06-30T07:38:47Z</time>
      </trkpt>
      <trkpt lat="48.68115" lon="5.33209">
        <ele>225.4</ele>
        <time>2020-06-30T07:38:48Z</time>
      </trkpt>
      <trkpt lat="48.68122" lon="5.33203">
        <ele>225.3</ele>
        <time>2020-06-30T07:38:49Z</time>
      </trkpt>
      <trkpt lat="48.68128" lon="5.33198">
        <ele>225.1</ele>
        <time>2020-06-30T07:38:50Z</time>
      </trkpt>
      <trkpt lat="48.68135" lon="5.33193">
        <ele>225</ele>
        <time>2020-06-30T07:38:51Z</time>
      </trkpt>
      <trkpt lat="48.68142" lon="5.33188">
        <ele>224.8</ele>
        <time>2020-06-30T07:38:52Z</time>
      </trkpt>
      <trkpt lat="48.68148" lon="5.33182">
        <ele>224.7</ele>
        <time>2020-06-30T07:38:53Z</time>
      </trkpt>
      <trkpt lat="48.68155" lon="5.33177">
        <ele>224.6</ele>
        <time>2020-06-30T07:38:54Z</time>
      </trkpt>
      <trkpt lat="48.68162" lon="5.33173">
        <ele>224.5</ele>
        <time>2020-06-30T07:38:55Z</time>
      </trkpt>
      <trkpt lat="48.6817" lon="5.33168">
        <ele>224.4</ele>
        <time>2020-06-30T07:38:56Z</time>
      </trkpt>
      <trkpt lat="48.68176" lon="5.33164">
        <ele>224.3</ele>
        <time>2020-06-30T07:38:57Z</time>
      </trkpt>
      <trkpt lat="48.68183" lon="5.3316">
        <ele>224.2</ele>
        <time>2020-06-30T07:38:58Z</time>
      </trkpt>
      <trkpt lat="48.6819" lon="5.33156">
        <ele>224.2</ele>
        <time>2020-06-30T07:38:59Z</time>
      </trkpt>
      <trkpt lat="48.68197" lon="5.33152">
        <ele>224.2</ele>
        <time>2020-06-30T07:39:00Z</time>
      </trkpt>
      <trkpt lat="48.68203" lon="5.33148">
        <ele>224.1</ele>
        <time>2020-06-30T07:39:01Z</time>
      </trkpt>
      <trkpt lat="48.6821" lon="5.33144">
        <ele>224</ele>
        <time>2020-06-30T07:39:02Z</time>
      </trkpt>
      <trkpt lat="48.68216" lon="5.3314">
        <ele>224</ele>
        <time>2020-06-30T07:39:03Z</time>
      </trkpt>
      <trkpt lat="48.68223" lon="5.33138">
        <ele>223.9</ele>
        <time>2020-06-30T07:39:04Z</time>
      </trkpt>
      <trkpt lat="48.6823" lon="5.33135">
        <ele>223.8</ele>
        <time>2020-06-30T07:39:05Z</time>
      </trkpt>
      <trkpt lat="48.68236" lon="5.33132">
        <ele>223.8</ele>
        <time>2020-06-30T07:39:06Z</time>
      </trkpt>
      <trkpt lat="48.68242" lon="5.33131">
        <ele>223.7</ele>
        <time>2020-06-30T07:39:07Z</time>
      </trkpt>
      <trkpt lat="48.68249" lon="5.33129">
        <ele>223.8</ele>
        <time>2020-06-30T07:39:08Z</time>
      </trkpt>
      <trkpt lat="48.68255" lon="5.33126">
        <ele>223.9</ele>
        <time>2020-06-30T07:39:09Z</time>
      </trkpt>
      <trkpt lat="48.68261" lon="5.33124">
        <ele>224</ele>
        <time>2020-06-30T07:39:10Z</time>
      </trkpt>
      <trkpt lat="48.68267" lon="5.33123">
        <ele>224.1</ele>
        <time>2020-06-30T07:39:11Z</time>
      </trkpt>
      <trkpt lat="48.68274" lon="5.33122">
        <ele>224.2</ele>
        <time>2020-06-30T07:39:12Z</time>
      </trkpt>
      <trkpt lat="48.6828" lon="5.33121">
        <ele>224.3</ele>
        <time>2020-06-30T07:39:13Z</time>
      </trkpt>
      <trkpt lat="48.68286" lon="5.3312">
        <ele>224.4</ele>
        <time>2020-06-30T07:39:14Z</time>
      </trkpt>
      <trkpt lat="48.68292" lon="5.33118">
        <ele>224.5</ele>
        <time>2020-06-30T07:39:15Z</time>
      </trkpt>
      <trkpt lat="48.68298" lon="5.33118">
        <ele>224.6</ele>
        <time>2020-06-30T07:39:16Z</time>
      </trkpt>
      <trkpt lat="48.68304" lon="5.33117">
        <ele>224.7</ele>
        <time>2020-06-30T07:39:17Z</time>
      </trkpt>
      <trkpt lat="48.68311" lon="5.33118">
        <ele>224.8</ele>
        <time>2020-06-30T07:39:18Z</time>
      </trkpt>
      <trkpt lat="48.68317" lon="5.33118">
        <ele>224.9</ele>
        <time>2020-06-30T07:39:19Z</time>
      </trkpt>
      <trkpt lat="48.68323" lon="5.33118">
        <ele>225</ele>
        <time>2020-06-30T07:39:20Z</time>
      </trkpt>
      <trkpt lat="48.6833" lon="5.33117">
        <ele>225.1</ele>
        <time>2020-06-30T07:39:21Z</time>
      </trkpt>
      <trkpt lat="48.68336" lon="5.33117">
        <ele>225.1</ele>
        <time>2020-06-30T07:39:22Z</time>
      </trkpt>
      <trkpt lat="48.68341" lon="5.33117">
        <ele>225.2</ele>
        <time>2020-06-30T07:39:23Z</time>
      </trkpt>
      <trkpt lat="48.68347" lon="5.33118">
        <ele>225.3</ele>
        <time>2020-06-30T07:39:24Z</time>
      </trkpt>
      <trkpt lat="48.68353" lon="5.33117">
        <ele>225.3</ele>
        <time>2020-06-30T07:39:25Z</time>
      </trkpt>
      <trkpt lat="48.68358" lon="5.33119">
        <ele>225.3</ele>
        <time>2020-06-30T07:39:26Z</time>
      </trkpt>
      <trkpt lat="48.68363" lon="5.33119">
        <ele>225.3</ele>
        <time>2020-06-30T07:39:27Z</time>
      </trkpt>
      <trkpt lat="48.68368" lon="5.33119">
        <ele>225.3</ele>
        <time>2020-06-30T07:39:28Z</time>
      </trkpt>
      <trkpt lat="48.68373" lon="5.33118">
        <ele>225.3</ele>
        <time>2020-06-30T07:39:29Z</time>
      </trkpt>
      <trkpt lat="48.68378" lon="5.3312">
        <ele>225.3</ele>
        <time>2020-06-30T07:39:30Z</time>
      </trkpt>
      <trkpt lat="48.68383" lon="5.33121">
        <ele>225.4</ele>
        <time>2020-06-30T07:39:31Z</time>
      </trkpt>
      <trkpt lat="48.68386" lon="5.33119">
        <ele>225.4</ele>
        <time>2020-06-30T07:39:32Z</time>
      </trkpt>
      <trkpt lat="48.68389" lon="5.33117">
        <ele>225.4</ele>
        <time>2020-06-30T07:39:33Z</time>
      </trkpt>
      <trkpt lat="48.68392" lon="5.33114">
        <ele>225.4</ele>
        <time>2020-06-30T07:39:34Z</time>
      </trkpt>
      <trkpt lat="48.68391" lon="5.33108">
        <ele>225.4</ele>
        <time>2020-06-30T07:39:35Z</time>
      </trkpt>
      <trkpt lat="48.68391" lon="5.33101">
        <ele>225.5</ele>
        <time>2020-06-30T07:39:36Z</time>
      </trkpt>
      <trkpt lat="48.68391" lon="5.33095">
        <ele>225.5</ele>
        <time>2020-06-30T07:39:37Z</time>
      </trkpt>
      <trkpt lat="48.68391" lon="5.33089">
        <ele>225.5</ele>
        <time>2020-06-30T07:39:38Z</time>
      </trkpt>
      <trkpt lat="48.68391" lon="5.33083">
        <ele>225.5</ele>
        <time>2020-06-30T07:39:39Z</time>
      </trkpt>
      <trkpt lat="48.68391" lon="5.33076">
        <ele>225.5</ele>
        <time>2020-06-30T07:39:40Z</time>
      </trkpt>
      <trkpt lat="48.68391" lon="5.33069">
        <ele>225.5</ele>
        <time>2020-06-30T07:39:41Z</time>
      </trkpt>
      <trkpt lat="48.68391" lon="5.33062">
        <ele>225.5</ele>
        <time>2020-06-30T07:39:42Z</time>
      </trkpt>
      <trkpt lat="48.68392" lon="5.33055">
        <ele>225.5</ele>
        <time>2020-06-30T07:39:43Z</time>
      </trkpt>
      <trkpt lat="48.68393" lon="5.33047">
        <ele>225.5</ele>
        <time>2020-06-30T07:39:44Z</time>
      </trkpt>
      <trkpt lat="48.68394" lon="5.3304">
        <ele>225.5</ele>
        <time>2020-06-30T07:39:45Z</time>
      </trkpt>
      <trkpt lat="48.68394" lon="5.33032">
        <ele>225.5</ele>
        <time>2020-06-30T07:39:46Z</time>
      </trkpt>
      <trkpt lat="48.68394" lon="5.33025">
        <ele>225.5</ele>
        <time>2020-06-30T07:39:47Z</time>
      </trkpt>
      <trkpt lat="48.68394" lon="5.33017">
        <ele>225.5</ele>
        <time>2020-06-30T07:39:48Z</time>
      </trkpt>
      <trkpt lat="48.68395" lon="5.33009">
        <ele>225.4</ele>
        <time>2020-06-30T07:39:49Z</time>
      </trkpt>
      <trkpt lat="48.68395" lon="5.33001">
        <ele>225.4</ele>
        <time>2020-06-30T07:39:50Z</time>
      </trkpt>
      <trkpt lat="48.68396" lon="5.32993">
        <ele>225.4</ele>
        <time>2020-06-30T07:39:51Z</time>
      </trkpt>
      <trkpt lat="48.68396" lon="5.32985">
        <ele>225.4</ele>
        <time>2020-06-30T07:39:52Z</time>
      </trkpt>
      <trkpt lat="48.68396" lon="5.32978">
        <ele>225.4</ele>
        <time>2020-06-30T07:39:53Z</time>
      </trkpt>
      <trkpt lat="48.68397" lon="5.3297">
        <ele>225.4</ele>
        <time>2020-06-30T07:39:54Z</time>
      </trkpt>
      <trkpt lat="48.68398" lon="5.32963">
        <ele>225.3</ele>
        <time>2020-06-30T07:39:55Z</time>
      </trkpt>
      <trkpt lat="48.68398" lon="5.32955">
        <ele>225.3</ele>
        <time>2020-06-30T07:39:56Z</time>
      </trkpt>
      <trkpt lat="48.68398" lon="5.32947">
        <ele>225.4</ele>
        <time>2020-06-30T07:39:57Z</time>
      </trkpt>
      <trkpt lat="48.68399" lon="5.3294">
        <ele>225.4</ele>
        <time>2020-06-30T07:39:58Z</time>
      </trkpt>
      <trkpt lat="48.68398" lon="5.32931">
        <ele>225.4</ele>
        <time>2020-06-30T07:39:59Z</time>
      </trkpt>
      <trkpt lat="48.68399" lon="5.32923">
        <ele>225.3</ele>
        <time>2020-06-30T07:40:00Z</time>
      </trkpt>
      <trkpt lat="48.684" lon="5.32915">
        <ele>225.3</ele>
        <time>2020-06-30T07:40:01Z</time>
      </trkpt>
      <trkpt lat="48.684" lon="5.32907">
        <ele>225.2</ele>
        <time>2020-06-30T07:40:02Z</time>
      </trkpt>
      <trkpt lat="48.68402" lon="5.32899">
        <ele>225.2</ele>
        <time>2020-06-30T07:40:03Z</time>
      </trkpt>
      <trkpt lat="48.68403" lon="5.32891">
        <ele>225.2</ele>
        <time>2020-06-30T07:40:04Z</time>
      </trkpt>
      <trkpt lat="48.68404" lon="5.32883">
        <ele>225.2</ele>
        <time>2020-06-30T07:40:05Z</time>
      </trkpt>
      <trkpt lat="48.68405" lon="5.32875">
        <ele>225.1</ele>
        <time>2020-06-30T07:40:06Z</time>
      </trkpt>
      <trkpt lat="48.68406" lon="5.32867">
        <ele>225.1</ele>
        <time>2020-06-30T07:40:07Z</time>
      </trkpt>
      <trkpt lat="48.68407" lon="5.32858">
        <ele>225.1</ele>
        <time>2020-06-30T07:40:08Z</time>
      </trkpt>
      <trkpt lat="48.68408" lon="5.3285">
        <ele>225.1</ele>
        <time>2020-06-30T07:40:09Z</time>
      </trkpt>
      <trkpt lat="48.68409" lon="5.32841">
        <ele>225</ele>
        <time>2020-06-30T07:40:10Z</time>
      </trkpt>
      <trkpt lat="48.6841" lon="5.32833">
        <ele>225</ele>
        <time>2020-06-30T07:40:11Z</time>
      </trkpt>
      <trkpt lat="48.6841" lon="5.32824">
        <ele>225</ele>
        <time>2020-06-30T07:40:12Z</time>
      </trkpt>
      <trkpt lat="48.6841" lon="5.32816">
        <ele>224.9</ele>
        <time>2020-06-30T07:40:13Z</time>
      </trkpt>
      <trkpt lat="48.6841" lon="5.32807">
        <ele>224.9</ele>
        <time>2020-06-30T07:40:14Z</time>
      </trkpt>
      <trkpt lat="48.68411" lon="5.32799">
        <ele>224.8</ele>
        <time>2020-06-30T07:40:15Z</time>
      </trkpt>
      <trkpt lat="48.68411" lon="5.3279">
        <ele>224.6</ele>
        <time>2020-06-30T07:40:16Z</time>
      </trkpt>
      <trkpt lat="48.68411" lon="5.32782">
        <ele>224.5</ele>
        <time>2020-06-30T07:40:17Z</time>
      </trkpt>
      <trkpt lat="48.68413" lon="5.32773">
        <ele>224.5</ele>
        <time>2020-06-30T07:40:18Z</time>
      </trkpt>
      <trkpt lat="48.68413" lon="5.32764">
        <ele>224.5</ele>
        <time>2020-06-30T07:40:19Z</time>
      </trkpt>
      <trkpt lat="48.68414" lon="5.32755">
        <ele>224.5</ele>
        <time>2020-06-30T07:40:20Z</time>
      </trkpt>
      <trkpt lat="48.68415" lon="5.32746">
        <ele>224.5</ele>
        <time>2020-06-30T07:40:21Z</time>
      </trkpt>
      <trkpt lat="48.68415" lon="5.32736">
        <ele>224.4</ele>
        <time>2020-06-30T07:40:22Z</time>
      </trkpt>
      <trkpt lat="48.68416" lon="5.32727">
        <ele>224.4</ele>
        <time>2020-06-30T07:40:23Z</time>
      </trkpt>
      <trkpt lat="48.68416" lon="5.32718">
        <ele>224.4</ele>
        <time>2020-06-30T07:40:24Z</time>
      </trkpt>
      <trkpt lat="48.68417" lon="5.32709">
        <ele>224.4</ele>
        <time>2020-06-30T07:40:25Z</time>
      </trkpt>
      <trkpt lat="48.68418" lon="5.327">
        <ele>224.4</ele>
        <time>2020-06-30T07:40:26Z</time>
      </trkpt>
      <trkpt lat="48.68419" lon="5.3269">
        <ele>224.4</ele>
        <time>2020-06-30T07:40:27Z</time>
      </trkpt>
      <trkpt lat="48.68419" lon="5.32681">
        <ele>224.4</ele>
        <time>2020-06-30T07:40:28Z</time>
      </trkpt>
      <trkpt lat="48.68421" lon="5.32671">
        <ele>224.4</ele>
        <time>2020-06-30T07:40:29Z</time>
      </trkpt>
      <trkpt lat="48.68423" lon="5.32662">
        <ele>224.5</ele>
        <time>2020-06-30T07:40:30Z</time>
      </trkpt>
      <trkpt lat="48.68424" lon="5.32653">
        <ele>224.5</ele>
        <time>2020-06-30T07:40:31Z</time>
      </trkpt>
      <trkpt lat="48.68425" lon="5.32645">
        <ele>224.5</ele>
        <time>2020-06-30T07:40:32Z</time>
      </trkpt>
      <trkpt lat="48.68427" lon="5.32636">
        <ele>224.6</ele>
        <time>2020-06-30T07:40:33Z</time>
      </trkpt>
      <trkpt lat="48.68429" lon="5.32627">
        <ele>224.6</ele>
        <time>2020-06-30T07:40:34Z</time>
      </trkpt>
      <trkpt lat="48.68431" lon="5.32619">
        <ele>224.6</ele>
        <time>2020-06-30T07:40:35Z</time>
      </trkpt>
      <trkpt lat="48.68433" lon="5.32611">
        <ele>224.6</ele>
        <time>2020-06-30T07:40:36Z</time>
      </trkpt>
      <trkpt lat="48.68434" lon="5.32603">
        <ele>224.7</ele>
        <time>2020-06-30T07:40:37Z</time>
      </trkpt>
      <trkpt lat="48.68435" lon="5.32596">
        <ele>224.7</ele>
        <time>2020-06-30T07:40:38Z</time>
      </trkpt>
      <trkpt lat="48.68437" lon="5.32588">
        <ele>224.8</ele>
        <time>2020-06-30T07:40:39Z</time>
      </trkpt>
      <trkpt lat="48.68439" lon="5.3258">
        <ele>224.8</ele>
        <time>2020-06-30T07:40:40Z</time>
      </trkpt>
      <trkpt lat="48.6844" lon="5.32572">
        <ele>224.9</ele>
        <time>2020-06-30T07:40:41Z</time>
      </trkpt>
      <trkpt lat="48.68441" lon="5.32565">
        <ele>224.9</ele>
        <time>2020-06-30T07:40:42Z</time>
      </trkpt>
      <trkpt lat="48.68443" lon="5.32557">
        <ele>225</ele>
        <time>2020-06-30T07:40:43Z</time>
      </trkpt>
      <trkpt lat="48.68445" lon="5.3255">
        <ele>225.1</ele>
        <time>2020-06-30T07:40:44Z</time>
      </trkpt>
      <trkpt lat="48.68446" lon="5.32542">
        <ele>225.1</ele>
        <time>2020-06-30T07:40:45Z</time>
      </trkpt>
      <trkpt lat="48.68447" lon="5.32534">
        <ele>225.2</ele>
        <time>2020-06-30T07:40:46Z</time>
      </trkpt>
      <trkpt lat="48.68448" lon="5.32526">
        <ele>225.2</ele>
        <time>2020-06-30T07:40:47Z</time>
      </trkpt>
      <trkpt lat="48.6845" lon="5.3252">
        <ele>225.1</ele>
        <time>2020-06-30T07:40:48Z</time>
      </trkpt>
      <trkpt lat="48.68453" lon="5.32514">
        <ele>225</ele>
        <time>2020-06-30T07:40:49Z</time>
      </trkpt>
      <trkpt lat="48.68457" lon="5.32511">
        <ele>225</ele>
        <time>2020-06-30T07:40:50Z</time>
      </trkpt>
      <trkpt lat="48.68461" lon="5.32512">
        <ele>224.8</ele>
        <time>2020-06-30T07:40:51Z</time>
      </trkpt>
      <trkpt lat="48.68466" lon="5.32513">
        <ele>224.8</ele>
        <time>2020-06-30T07:40:52Z</time>
      </trkpt>
      <trkpt lat="48.68471" lon="5.32514">
        <ele>224.8</ele>
        <time>2020-06-30T07:40:53Z</time>
      </trkpt>
      <trkpt lat="48.68476" lon="5.32514">
        <ele>224.8</ele>
        <time>2020-06-30T07:40:54Z</time>
      </trkpt>
      <trkpt lat="48.6848" lon="5.32514">
        <ele>224.8</ele>
        <time>2020-06-30T07:40:55Z</time>
      </trkpt>
      <trkpt lat="48.68485" lon="5.32514">
        <ele>224.8</ele>
        <time>2020-06-30T07:40:56Z</time>
      </trkpt>
      <trkpt lat="48.6849" lon="5.32513">
        <ele>224.8</ele>
        <time>2020-06-30T07:40:57Z</time>
      </trkpt>
      <trkpt lat="48.68495" lon="5.32512">
        <ele>224.8</ele>
        <time>2020-06-30T07:40:58Z</time>
      </trkpt>
      <trkpt lat="48.685" lon="5.32512">
        <ele>224.8</ele>
        <time>2020-06-30T07:40:59Z</time>
      </trkpt>
      <trkpt lat="48.68505" lon="5.32512">
        <ele>224.9</ele>
        <time>2020-06-30T07:41:00Z</time>
      </trkpt>
      <trkpt lat="48.68509" lon="5.32513">
        <ele>224.9</ele>
        <time>2020-06-30T07:41:01Z</time>
      </trkpt>
      <trkpt lat="48.68514" lon="5.32512">
        <ele>224.9</ele>
        <time>2020-06-30T07:41:02Z</time>
      </trkpt>
      <trkpt lat="48.68518" lon="5.32513">
        <ele>224.9</ele>
        <time>2020-06-30T07:41:03Z</time>
      </trkpt>
      <trkpt lat="48.68522" lon="5.32513">
        <ele>224.9</ele>
        <time>2020-06-30T07:41:04Z</time>
      </trkpt>
      <trkpt lat="48.68526" lon="5.32512">
        <ele>224.9</ele>
        <time>2020-06-30T07:41:05Z</time>
      </trkpt>
      <trkpt lat="48.68531" lon="5.32511">
        <ele>225</ele>
        <time>2020-06-30T07:41:06Z</time>
      </trkpt>
      <trkpt lat="48.68535" lon="5.32512">
        <ele>225</ele>
        <time>2020-06-30T07:41:07Z</time>
      </trkpt>
      <trkpt lat="48.6854" lon="5.32511">
        <ele>225</ele>
        <time>2020-06-30T07:41:08Z</time>
      </trkpt>
      <trkpt lat="48.68545" lon="5.32511">
        <ele>225</ele>
        <time>2020-06-30T07:41:09Z</time>
      </trkpt>
      <trkpt lat="48.6855" lon="5.32511">
        <ele>225</ele>
        <time>2020-06-30T07:41:10Z</time>
      </trkpt>
      <trkpt lat="48.68555" lon="5.3251">
        <ele>224.9</ele>
        <time>2020-06-30T07:41:11Z</time>
      </trkpt>
      <trkpt lat="48.68559" lon="5.32511">
        <ele>224.9</ele>
        <time>2020-06-30T07:41:12Z</time>
      </trkpt>
      <trkpt lat="48.68564" lon="5.32511">
        <ele>224.9</ele>
        <time>2020-06-30T07:41:13Z</time>
      </trkpt>
      <trkpt lat="48.68568" lon="5.3251">
        <ele>224.9</ele>
        <time>2020-06-30T07:41:14Z</time>
      </trkpt>
      <trkpt lat="48.68573" lon="5.32509">
        <ele>224.9</ele>
        <time>2020-06-30T07:41:15Z</time>
      </trkpt>
      <trkpt lat="48.68578" lon="5.32506">
        <ele>224.9</ele>
        <time>2020-06-30T07:41:16Z</time>
      </trkpt>
      <trkpt lat="48.68583" lon="5.32503">
        <ele>224.9</ele>
        <time>2020-06-30T07:41:17Z</time>
      </trkpt>
      <trkpt lat="48.68588" lon="5.325">
        <ele>224.9</ele>
        <time>2020-06-30T07:41:18Z</time>
      </trkpt>
      <trkpt lat="48.68594" lon="5.32496">
        <ele>224.8</ele>
        <time>2020-06-30T07:41:19Z</time>
      </trkpt>
      <trkpt lat="48.68599" lon="5.32493">
        <ele>224.8</ele>
        <time>2020-06-30T07:41:20Z</time>
      </trkpt>
      <trkpt lat="48.68604" lon="5.32489">
        <ele>224.8</ele>
        <time>2020-06-30T07:41:21Z</time>
      </trkpt>
      <trkpt lat="48.68608" lon="5.32484">
        <ele>224.8</ele>
        <time>2020-06-30T07:41:22Z</time>
      </trkpt>
      <trkpt lat="48.68613" lon="5.32478">
        <ele>224.8</ele>
        <time>2020-06-30T07:41:23Z</time>
      </trkpt>
      <trkpt lat="48.68617" lon="5.32473">
        <ele>224.8</ele>
        <time>2020-06-30T07:41:24Z</time>
      </trkpt>
      <trkpt lat="48.68621" lon="5.32469">
        <ele>224.8</ele>
        <time>2020-06-30T07:41:25Z</time>
      </trkpt>
      <trkpt lat="48.68625" lon="5.32464">
        <ele>224.8</ele>
        <time>2020-06-30T07:41:26Z</time>
      </trkpt>
      <trkpt lat="48.6863" lon="5.3246">
        <ele>224.8</ele>
        <time>2020-06-30T07:41:27Z</time>
      </trkpt>
      <trkpt lat="48.68636" lon="5.32459">
        <ele>224.8</ele>
        <time>2020-06-30T07:41:28Z</time>
      </trkpt>
      <trkpt lat="48.68641" lon="5.32455">
        <ele>224.8</ele>
        <time>2020-06-30T07:41:29Z</time>
      </trkpt>
      <trkpt lat="48.68645" lon="5.3245">
        <ele>224.8</ele>
        <time>2020-06-30T07:41:30Z</time>
      </trkpt>
      <trkpt lat="48.68651" lon="5.32445">
        <ele>224.9</ele>
        <time>2020-06-30T07:41:31Z</time>
      </trkpt>
      <trkpt lat="48.68655" lon="5.3244">
        <ele>224.9</ele>
        <time>2020-06-30T07:41:32Z</time>
      </trkpt>
      <trkpt lat="48.6866" lon="5.32435">
        <ele>224.9</ele>
        <time>2020-06-30T07:41:33Z</time>
      </trkpt>
      <trkpt lat="48.68664" lon="5.32431">
        <ele>224.9</ele>
        <time>2020-06-30T07:41:34Z</time>
      </trkpt>
      <trkpt lat="48.68668" lon="5.32425">
        <ele>224.9</ele>
        <time>2020-06-30T07:41:35Z</time>
      </trkpt>
      <trkpt lat="48.68673" lon="5.32422">
        <ele>224.9</ele>
        <time>2020-06-30T07:41:36Z</time>
      </trkpt>
      <trkpt lat="48.68677" lon="5.32418">
        <ele>224.9</ele>
        <time>2020-06-30T07:41:37Z</time>
      </trkpt>
      <trkpt lat="48.68682" lon="5.32413">
        <ele>224.8</ele>
        <time>2020-06-30T07:41:38Z</time>
      </trkpt>
      <trkpt lat="48.68685" lon="5.32408">
        <ele>224.8</ele>
        <time>2020-06-30T07:41:39Z</time>
      </trkpt>
      <trkpt lat="48.68689" lon="5.32403">
        <ele>224.8</ele>
        <time>2020-06-30T07:41:40Z</time>
      </trkpt>
      <trkpt lat="48.68694" lon="5.324">
        <ele>224.8</ele>
        <time>2020-06-30T07:41:41Z</time>
      </trkpt>
      <trkpt lat="48.68698" lon="5.32397">
        <ele>224.8</ele>
        <time>2020-06-30T07:41:42Z</time>
      </trkpt>
      <trkpt lat="48.68702" lon="5.32393">
        <ele>224.8</ele>
        <time>2020-06-30T07:41:43Z</time>
      </trkpt>
      <trkpt lat="48.68706" lon="5.3239">
        <ele>224.8</ele>
        <time>2020-06-30T07:41:44Z</time>
      </trkpt>
      <trkpt lat="48.68711" lon="5.32386">
        <ele>224.8</ele>
        <time>2020-06-30T07:41:45Z</time>
      </trkpt>
      <trkpt lat="48.68716" lon="5.32383">
        <ele>224.8</ele>
        <time>2020-06-30T07:41:46Z</time>
      </trkpt>
      <trkpt lat="48.68721" lon="5.32378">
        <ele>224.8</ele>
        <time>2020-06-30T07:41:47Z</time>
      </trkpt>
      <trkpt lat="48.68725" lon="5.32374">
        <ele>224.8</ele>
        <time>2020-06-30T07:41:48Z</time>
      </trkpt>
      <trkpt lat="48.6873" lon="5.32368">
        <ele>224.8</ele>
        <time>2020-06-30T07:41:49Z</time>
      </trkpt>
      <trkpt lat="48.68733" lon="5.32364">
        <ele>224.9</ele>
        <time>2020-06-30T07:41:50Z</time>
      </trkpt>
      <trkpt lat="48.68737" lon="5.32361">
        <ele>224.9</ele>
        <time>2020-06-30T07:41:51Z</time>
      </trkpt>
      <trkpt lat="48.6874" lon="5.32357">
        <ele>224.9</ele>
        <time>2020-06-30T07:41:52Z</time>
      </trkpt>
      <trkpt lat="48.68743" lon="5.32353">
        <ele>224.9</ele>
        <time>2020-06-30T07:41:53Z</time>
      </trkpt>
      <trkpt lat="48.68746" lon="5.32348">
        <ele>224.9</ele>
        <time>2020-06-30T07:41:54Z</time>
      </trkpt>
      <trkpt lat="48.6875" lon="5.32344">
        <ele>224.9</ele>
        <time>2020-06-30T07:41:55Z</time>
      </trkpt>
      <trkpt lat="48.68753" lon="5.32339">
        <ele>224.9</ele>
        <time>2020-06-30T07:41:56Z</time>
      </trkpt>
      <trkpt lat="48.68757" lon="5.32335">
        <ele>224.9</ele>
        <time>2020-06-30T07:41:57Z</time>
      </trkpt>
      <trkpt lat="48.6876" lon="5.32333">
        <ele>224.9</ele>
        <time>2020-06-30T07:41:58Z</time>
      </trkpt>
      <trkpt lat="48.68763" lon="5.3233">
        <ele>224.9</ele>
        <time>2020-06-30T07:41:59Z</time>
      </trkpt>
      <trkpt lat="48.68764" lon="5.32326">
        <ele>225.2</ele>
        <time>2020-06-30T07:42:00Z</time>
      </trkpt>
      <trkpt lat="48.68763" lon="5.32321">
        <ele>225.3</ele>
        <time>2020-06-30T07:42:01Z</time>
      </trkpt>
      <trkpt lat="48.68762" lon="5.32317">
        <ele>225.3</ele>
        <time>2020-06-30T07:42:02Z</time>
      </trkpt>
      <trkpt lat="48.6876" lon="5.32312">
        <ele>225.4</ele>
        <time>2020-06-30T07:42:03Z</time>
      </trkpt>
      <trkpt lat="48.68758" lon="5.32306">
        <ele>225.4</ele>
        <time>2020-06-30T07:42:04Z</time>
      </trkpt>
      <trkpt lat="48.68756" lon="5.32301">
        <ele>225.5</ele>
        <time>2020-06-30T07:42:05Z</time>
      </trkpt>
      <trkpt lat="48.68755" lon="5.32295">
        <ele>225.6</ele>
        <time>2020-06-30T07:42:06Z</time>
      </trkpt>
      <trkpt lat="48.68755" lon="5.32289">
        <ele>225.6</ele>
        <time>2020-06-30T07:42:07Z</time>
      </trkpt>
      <trkpt lat="48.68753" lon="5.32284">
        <ele>225.7</ele>
        <time>2020-06-30T07:42:08Z</time>
      </trkpt>
      <trkpt lat="48.68752" lon="5.3228">
        <ele>225.7</ele>
        <time>2020-06-30T07:42:09Z</time>
      </trkpt>
      <trkpt lat="48.6875" lon="5.32275">
        <ele>225.8</ele>
        <time>2020-06-30T07:42:10Z</time>
      </trkpt>
      <trkpt lat="48.68747" lon="5.3227">
        <ele>225.8</ele>
        <time>2020-06-30T07:42:11Z</time>
      </trkpt>
      <trkpt lat="48.68745" lon="5.32265">
        <ele>225.8</ele>
        <time>2020-06-30T07:42:12Z</time>
      </trkpt>
      <trkpt lat="48.68744" lon="5.32258">
        <ele>225.9</ele>
        <time>2020-06-30T07:42:13Z</time>
      </trkpt>
      <trkpt lat="48.68742" lon="5.32252">
        <ele>225.8</ele>
        <time>2020-06-30T07:42:14Z</time>
      </trkpt>
      <trkpt lat="48.68741" lon="5.32246">
        <ele>225.8</ele>
        <time>2020-06-30T07:42:15Z</time>
      </trkpt>
      <trkpt lat="48.68739" lon="5.3224">
        <ele>225.7</ele>
        <time>2020-06-30T07:42:16Z</time>
      </trkpt>
      <trkpt lat="48.68738" lon="5.32233">
        <ele>225.7</ele>
        <time>2020-06-30T07:42:17Z</time>
      </trkpt>
      <trkpt lat="48.68737" lon="5.32228">
        <ele>225.7</ele>
        <time>2020-06-30T07:42:18Z</time>
      </trkpt>
      <trkpt lat="48.68735" lon="5.32222">
        <ele>225.8</ele>
        <time>2020-06-30T07:42:19Z</time>
      </trkpt>
      <trkpt lat="48.68733" lon="5.32217">
        <ele>225.8</ele>
        <time>2020-06-30T07:42:20Z</time>
      </trkpt>
      <trkpt lat="48.68731" lon="5.32212">
        <ele>225.8</ele>
        <time>2020-06-30T07:42:21Z</time>
      </trkpt>
      <trkpt lat="48.6873" lon="5.32207">
        <ele>225.9</ele>
        <time>2020-06-30T07:42:22Z</time>
      </trkpt>
      <trkpt lat="48.6873" lon="5.32203">
        <ele>225.9</ele>
        <time>2020-06-30T07:42:23Z</time>
      </trkpt>
      <trkpt lat="48.6873" lon="5.32198">
        <ele>225.9</ele>
        <time>2020-06-30T07:42:24Z</time>
      </trkpt>
      <trkpt lat="48.6873" lon="5.32192">
        <ele>225.9</ele>
        <time>2020-06-30T07:42:25Z</time>
      </trkpt>
      <trkpt lat="48.68731" lon="5.3219">
        <ele>225.9</ele>
        <time>2020-06-30T07:42:26Z</time>
      </trkpt>
      <trkpt lat="48.68734" lon="5.32187">
        <ele>225.9</ele>
        <time>2020-06-30T07:42:27Z</time>
      </trkpt>
      <trkpt lat="48.68737" lon="5.32184">
        <ele>225.9</ele>
        <time>2020-06-30T07:42:28Z</time>
      </trkpt>
      <trkpt lat="48.6874" lon="5.32181">
        <ele>225.9</ele>
        <time>2020-06-30T07:42:29Z</time>
      </trkpt>
      <trkpt lat="48.68744" lon="5.32179">
        <ele>225.9</ele>
        <time>2020-06-30T07:42:30Z</time>
      </trkpt>
      <trkpt lat="48.68748" lon="5.32178">
        <ele>225.9</ele>
        <time>2020-06-30T07:42:31Z</time>
      </trkpt>
      <trkpt lat="48.68751" lon="5.32175">
        <ele>225.9</ele>
        <time>2020-06-30T07:42:32Z</time>
      </trkpt>
      <trkpt lat="48.68755" lon="5.32172">
        <ele>225.8</ele>
        <time>2020-06-30T07:42:33Z</time>
      </trkpt>
      <trkpt lat="48.68758" lon="5.32167">
        <ele>225.7</ele>
        <time>2020-06-30T07:42:34Z</time>
      </trkpt>
      <trkpt lat="48.6876" lon="5.32163">
        <ele>225.7</ele>
        <time>2020-06-30T07:42:35Z</time>
      </trkpt>
      <trkpt lat="48.68763" lon="5.3216">
        <ele>225.6</ele>
        <time>2020-06-30T07:42:36Z</time>
      </trkpt>
      <trkpt lat="48.68766" lon="5.32157">
        <ele>225.6</ele>
        <time>2020-06-30T07:42:37Z</time>
      </trkpt>
      <trkpt lat="48.68769" lon="5.32154">
        <ele>225.4</ele>
        <time>2020-06-30T07:42:38Z</time>
      </trkpt>
      <trkpt lat="48.68771" lon="5.32151">
        <ele>225.3</ele>
        <time>2020-06-30T07:42:39Z</time>
      </trkpt>
      <trkpt lat="48.68772" lon="5.32146">
        <ele>224.8</ele>
        <time>2020-06-30T07:42:40Z</time>
      </trkpt>
      <trkpt lat="48.68773" lon="5.32144">
        <ele>224.8</ele>
        <time>2020-06-30T07:42:41Z</time>
      </trkpt>
      <trkpt lat="48.68772" lon="5.32138">
        <ele>224.9</ele>
        <time>2020-06-30T07:42:42Z</time>
      </trkpt>
      <trkpt lat="48.68771" lon="5.32136">
        <ele>224.9</ele>
        <time>2020-06-30T07:42:43Z</time>
      </trkpt>
      <trkpt lat="48.6877" lon="5.32132">
        <ele>224.9</ele>
        <time>2020-06-30T07:42:44Z</time>
      </trkpt>
      <trkpt lat="48.68769" lon="5.32128">
        <ele>224.9</ele>
        <time>2020-06-30T07:42:45Z</time>
      </trkpt>
      <trkpt lat="48.68768" lon="5.32123">
        <ele>225</ele>
        <time>2020-06-30T07:42:46Z</time>
      </trkpt>
      <trkpt lat="48.68767" lon="5.32118">
        <ele>225</ele>
        <time>2020-06-30T07:42:47Z</time>
      </trkpt>
      <trkpt lat="48.68765" lon="5.32113">
        <ele>225</ele>
        <time>2020-06-30T07:42:48Z</time>
      </trkpt>
      <trkpt lat="48.68764" lon="5.32108">
        <ele>225.1</ele>
        <time>2020-06-30T07:42:49Z</time>
      </trkpt>
      <trkpt lat="48.68763" lon="5.32101">
        <ele>225.1</ele>
        <time>2020-06-30T07:42:50Z</time>
      </trkpt>
      <trkpt lat="48.68762" lon="5.32097">
        <ele>225.1</ele>
        <time>2020-06-30T07:42:51Z</time>
      </trkpt>
      <trkpt lat="48.6876" lon="5.32092">
        <ele>225.1</ele>
        <time>2020-06-30T07:42:52Z</time>
      </trkpt>
      <trkpt lat="48.68758" lon="5.32085">
        <ele>225.2</ele>
        <time>2020-06-30T07:42:53Z</time>
      </trkpt>
      <trkpt lat="48.68755" lon="5.32079">
        <ele>225.2</ele>
        <time>2020-06-30T07:42:54Z</time>
      </trkpt>
      <trkpt lat="48.68754" lon="5.32073">
        <ele>225.3</ele>
        <time>2020-06-30T07:42:55Z</time>
      </trkpt>
      <trkpt lat="48.68751" lon="5.32069">
        <ele>225.3</ele>
        <time>2020-06-30T07:42:56Z</time>
      </trkpt>
      <trkpt lat="48.68749" lon="5.32065">
        <ele>225.3</ele>
        <time>2020-06-30T07:42:57Z</time>
      </trkpt>
      <trkpt lat="48.68748" lon="5.3206">
        <ele>225.3</ele>
        <time>2020-06-30T07:42:58Z</time>
      </trkpt>
      <trkpt lat="48.68746" lon="5.32055">
        <ele>225.4</ele>
        <time>2020-06-30T07:42:59Z</time>
      </trkpt>
      <trkpt lat="48.68745" lon="5.3205">
        <ele>225.5</ele>
        <time>2020-06-30T07:43:00Z</time>
      </trkpt>
      <trkpt lat="48.68744" lon="5.32046">
        <ele>225.6</ele>
        <time>2020-06-30T07:43:01Z</time>
      </trkpt>
      <trkpt lat="48.68744" lon="5.3204">
        <ele>225.8</ele>
        <time>2020-06-30T07:43:02Z</time>
      </trkpt>
      <trkpt lat="48.68743" lon="5.32034">
        <ele>225.8</ele>
        <time>2020-06-30T07:43:03Z</time>
      </trkpt>
      <trkpt lat="48.68742" lon="5.32027">
        <ele>225.8</ele>
        <time>2020-06-30T07:43:04Z</time>
      </trkpt>
      <trkpt lat="48.6874" lon="5.3202">
        <ele>225.8</ele>
        <time>2020-06-30T07:43:05Z</time>
      </trkpt>
      <trkpt lat="48.68738" lon="5.32014">
        <ele>225.7</ele>
        <time>2020-06-30T07:43:06Z</time>
      </trkpt>
      <trkpt lat="48.68737" lon="5.32007">
        <ele>225.7</ele>
        <time>2020-06-30T07:43:07Z</time>
      </trkpt>
      <trkpt lat="48.68735" lon="5.32002">
        <ele>225.8</ele>
        <time>2020-06-30T07:43:08Z</time>
      </trkpt>
      <trkpt lat="48.68733" lon="5.31996">
        <ele>225.8</ele>
        <time>2020-06-30T07:43:09Z</time>
      </trkpt>
      <trkpt lat="48.68731" lon="5.31992">
        <ele>225.9</ele>
        <time>2020-06-30T07:43:10Z</time>
      </trkpt>
      <trkpt lat="48.68729" lon="5.31987">
        <ele>226</ele>
        <time>2020-06-30T07:43:11Z</time>
      </trkpt>
      <trkpt lat="48.68727" lon="5.31982">
        <ele>226.1</ele>
        <time>2020-06-30T07:43:12Z</time>
      </trkpt>
      <trkpt lat="48.68724" lon="5.31978">
        <ele>226.2</ele>
        <time>2020-06-30T07:43:13Z</time>
      </trkpt>
      <trkpt lat="48.68722" lon="5.31972">
        <ele>226.3</ele>
        <time>2020-06-30T07:43:14Z</time>
      </trkpt>
      <trkpt lat="48.68721" lon="5.31967">
        <ele>226.4</ele>
        <time>2020-06-30T07:43:15Z</time>
      </trkpt>
      <trkpt lat="48.68719" lon="5.31962">
        <ele>226.5</ele>
        <time>2020-06-30T07:43:16Z</time>
      </trkpt>
      <trkpt lat="48.68717" lon="5.31957">
        <ele>226.6</ele>
        <time>2020-06-30T07:43:17Z</time>
      </trkpt>
      <trkpt lat="48.68715" lon="5.31952">
        <ele>226.7</ele>
        <time>2020-06-30T07:43:18Z</time>
      </trkpt>
      <trkpt lat="48.68713" lon="5.31947">
        <ele>226.8</ele>
        <time>2020-06-30T07:43:19Z</time>
      </trkpt>
      <trkpt lat="48.68712" lon="5.31941">
        <ele>226.9</ele>
        <time>2020-06-30T07:43:20Z</time>
      </trkpt>
      <trkpt lat="48.6871" lon="5.31935">
        <ele>227.1</ele>
        <time>2020-06-30T07:43:21Z</time>
      </trkpt>
      <trkpt lat="48.68708" lon="5.3193">
        <ele>227.2</ele>
        <time>2020-06-30T07:43:22Z</time>
      </trkpt>
      <trkpt lat="48.68706" lon="5.31924">
        <ele>227.4</ele>
        <time>2020-06-30T07:43:23Z</time>
      </trkpt>
      <trkpt lat="48.68705" lon="5.31918">
        <ele>227.5</ele>
        <time>2020-06-30T07:43:24Z</time>
      </trkpt>
      <trkpt lat="48.68703" lon="5.31913">
        <ele>227.6</ele>
        <time>2020-06-30T07:43:25Z</time>
      </trkpt>
      <trkpt lat="48.68701" lon="5.31908">
        <ele>227.7</ele>
        <time>2020-06-30T07:43:26Z</time>
      </trkpt>
      <trkpt lat="48.687" lon="5.31903">
        <ele>227.9</ele>
        <time>2020-06-30T07:43:27Z</time>
      </trkpt>
      <trkpt lat="48.68698" lon="5.31898">
        <ele>228</ele>
        <time>2020-06-30T07:43:28Z</time>
      </trkpt>
      <trkpt lat="48.68696" lon="5.31894">
        <ele>228</ele>
        <time>2020-06-30T07:43:29Z</time>
      </trkpt>
      <trkpt lat="48.68694" lon="5.3189">
        <ele>228.2</ele>
        <time>2020-06-30T07:43:30Z</time>
      </trkpt>
      <trkpt lat="48.68693" lon="5.31885">
        <ele>228.2</ele>
        <time>2020-06-30T07:43:31Z</time>
      </trkpt>
      <trkpt lat="48.68691" lon="5.31881">
        <ele>228.3</ele>
        <time>2020-06-30T07:43:32Z</time>
      </trkpt>
      <trkpt lat="48.68691" lon="5.31876">
        <ele>228.4</ele>
        <time>2020-06-30T07:43:33Z</time>
      </trkpt>
      <trkpt lat="48.68689" lon="5.31871">
        <ele>228.5</ele>
        <time>2020-06-30T07:43:34Z</time>
      </trkpt>
      <trkpt lat="48.68688" lon="5.31866">
        <ele>228.6</ele>
        <time>2020-06-30T07:43:35Z</time>
      </trkpt>
      <trkpt lat="48.68686" lon="5.31862">
        <ele>228.9</ele>
        <time>2020-06-30T07:43:36Z</time>
      </trkpt>
      <trkpt lat="48.68684" lon="5.31857">
        <ele>228.9</ele>
        <time>2020-06-30T07:43:37Z</time>
      </trkpt>
      <trkpt lat="48.68683" lon="5.31852">
        <ele>229</ele>
        <time>2020-06-30T07:43:38Z</time>
      </trkpt>
      <trkpt lat="48.68681" lon="5.31848">
        <ele>229</ele>
        <time>2020-06-30T07:43:39Z</time>
      </trkpt>
      <trkpt lat="48.68679" lon="5.31843">
        <ele>229</ele>
        <time>2020-06-30T07:43:40Z</time>
      </trkpt>
      <trkpt lat="48.68678" lon="5.31838">
        <ele>229.1</ele>
        <time>2020-06-30T07:43:41Z</time>
      </trkpt>
      <trkpt lat="48.68676" lon="5.31833">
        <ele>229.1</ele>
        <time>2020-06-30T07:43:42Z</time>
      </trkpt>
      <trkpt lat="48.68674" lon="5.31827">
        <ele>229.1</ele>
        <time>2020-06-30T07:43:43Z</time>
      </trkpt>
      <trkpt lat="48.68672" lon="5.31821">
        <ele>229.2</ele>
        <time>2020-06-30T07:43:44Z</time>
      </trkpt>
      <trkpt lat="48.68671" lon="5.31814">
        <ele>229.2</ele>
        <time>2020-06-30T07:43:45Z</time>
      </trkpt>
      <trkpt lat="48.68669" lon="5.31807">
        <ele>229.2</ele>
        <time>2020-06-30T07:43:46Z</time>
      </trkpt>
      <trkpt lat="48.68667" lon="5.318">
        <ele>229</ele>
        <time>2020-06-30T07:43:47Z</time>
      </trkpt>
      <trkpt lat="48.68664" lon="5.31794">
        <ele>229</ele>
        <time>2020-06-30T07:43:48Z</time>
      </trkpt>
      <trkpt lat="48.68662" lon="5.31787">
        <ele>229</ele>
        <time>2020-06-30T07:43:49Z</time>
      </trkpt>
      <trkpt lat="48.68659" lon="5.31781">
        <ele>229</ele>
        <time>2020-06-30T07:43:50Z</time>
      </trkpt>
      <trkpt lat="48.68657" lon="5.31773">
        <ele>229</ele>
        <time>2020-06-30T07:43:51Z</time>
      </trkpt>
      <trkpt lat="48.68655" lon="5.31767">
        <ele>229</ele>
        <time>2020-06-30T07:43:52Z</time>
      </trkpt>
      <trkpt lat="48.68652" lon="5.31759">
        <ele>229.1</ele>
        <time>2020-06-30T07:43:53Z</time>
      </trkpt>
      <trkpt lat="48.68649" lon="5.31752">
        <ele>229.1</ele>
        <time>2020-06-30T07:43:54Z</time>
      </trkpt>
      <trkpt lat="48.68647" lon="5.31744">
        <ele>229.2</ele>
        <time>2020-06-30T07:43:55Z</time>
      </trkpt>
      <trkpt lat="48.68644" lon="5.31737">
        <ele>229.3</ele>
        <time>2020-06-30T07:43:56Z</time>
      </trkpt>
      <trkpt lat="48.68641" lon="5.31731">
        <ele>229.4</ele>
        <time>2020-06-30T07:43:57Z</time>
      </trkpt>
      <trkpt lat="48.68639" lon="5.31723">
        <ele>229.5</ele>
        <time>2020-06-30T07:43:58Z</time>
      </trkpt>
      <trkpt lat="48.68637" lon="5.31716">
        <ele>229.6</ele>
        <time>2020-06-30T07:43:59Z</time>
      </trkpt>
      <trkpt lat="48.68634" lon="5.3171">
        <ele>229.7</ele>
        <time>2020-06-30T07:44:00Z</time>
      </trkpt>
      <trkpt lat="48.68631" lon="5.31704">
        <ele>229.8</ele>
        <time>2020-06-30T07:44:01Z</time>
      </trkpt>
      <trkpt lat="48.68629" lon="5.31698">
        <ele>229.9</ele>
        <time>2020-06-30T07:44:02Z</time>
      </trkpt>
      <trkpt lat="48.68627" lon="5.31692">
        <ele>230.1</ele>
        <time>2020-06-30T07:44:03Z</time>
      </trkpt>
      <trkpt lat="48.68625" lon="5.31687">
        <ele>230.2</ele>
        <time>2020-06-30T07:44:04Z</time>
      </trkpt>
      <trkpt lat="48.68623" lon="5.31681">
        <ele>230.4</ele>
        <time>2020-06-30T07:44:05Z</time>
      </trkpt>
      <trkpt lat="48.68621" lon="5.31675">
        <ele>230.4</ele>
        <time>2020-06-30T07:44:06Z</time>
      </trkpt>
      <trkpt lat="48.6862" lon="5.31669">
        <ele>230.5</ele>
        <time>2020-06-30T07:44:07Z</time>
      </trkpt>
      <trkpt lat="48.68618" lon="5.31663">
        <ele>230.7</ele>
        <time>2020-06-30T07:44:08Z</time>
      </trkpt>
      <trkpt lat="48.68617" lon="5.31656">
        <ele>230.8</ele>
        <time>2020-06-30T07:44:09Z</time>
      </trkpt>
      <trkpt lat="48.68616" lon="5.3165">
        <ele>230.9</ele>
        <time>2020-06-30T07:44:10Z</time>
      </trkpt>
      <trkpt lat="48.68615" lon="5.31644">
        <ele>231</ele>
        <time>2020-06-30T07:44:11Z</time>
      </trkpt>
      <trkpt lat="48.68612" lon="5.31639">
        <ele>231.1</ele>
        <time>2020-06-30T07:44:12Z</time>
      </trkpt>
      <trkpt lat="48.68611" lon="5.31633">
        <ele>231.3</ele>
        <time>2020-06-30T07:44:13Z</time>
      </trkpt>
      <trkpt lat="48.68608" lon="5.31628">
        <ele>231.4</ele>
        <time>2020-06-30T07:44:14Z</time>
      </trkpt>
      <trkpt lat="48.68606" lon="5.31622">
        <ele>231.6</ele>
        <time>2020-06-30T07:44:15Z</time>
      </trkpt>
      <trkpt lat="48.68603" lon="5.31612">
        <ele>231.8</ele>
        <time>2020-06-30T07:44:16Z</time>
      </trkpt>
      <trkpt lat="48.68601" lon="5.31607">
        <ele>232</ele>
        <time>2020-06-30T07:44:17Z</time>
      </trkpt>
      <trkpt lat="48.686" lon="5.31603">
        <ele>232.1</ele>
        <time>2020-06-30T07:44:18Z</time>
      </trkpt>
      <trkpt lat="48.68597" lon="5.31599">
        <ele>232.2</ele>
        <time>2020-06-30T07:44:19Z</time>
      </trkpt>
      <trkpt lat="48.68595" lon="5.31593">
        <ele>232.4</ele>
        <time>2020-06-30T07:44:20Z</time>
      </trkpt>
      <trkpt lat="48.68592" lon="5.31586">
        <ele>232.6</ele>
        <time>2020-06-30T07:44:21Z</time>
      </trkpt>
      <trkpt lat="48.68589" lon="5.31579">
        <ele>232.7</ele>
        <time>2020-06-30T07:44:22Z</time>
      </trkpt>
      <trkpt lat="48.68588" lon="5.31573">
        <ele>232.9</ele>
        <time>2020-06-30T07:44:23Z</time>
      </trkpt>
      <trkpt lat="48.68586" lon="5.31567">
        <ele>233.1</ele>
        <time>2020-06-30T07:44:24Z</time>
      </trkpt>
      <trkpt lat="48.68584" lon="5.31562">
        <ele>233.2</ele>
        <time>2020-06-30T07:44:25Z</time>
      </trkpt>
      <trkpt lat="48.68582" lon="5.31556">
        <ele>233.3</ele>
        <time>2020-06-30T07:44:26Z</time>
      </trkpt>
      <trkpt lat="48.6858" lon="5.3155">
        <ele>233.5</ele>
        <time>2020-06-30T07:44:27Z</time>
      </trkpt>
      <trkpt lat="48.68578" lon="5.31543">
        <ele>233.7</ele>
        <time>2020-06-30T07:44:28Z</time>
      </trkpt>
      <trkpt lat="48.68576" lon="5.31537">
        <ele>233.8</ele>
        <time>2020-06-30T07:44:29Z</time>
      </trkpt>
      <trkpt lat="48.68574" lon="5.31531">
        <ele>234</ele>
        <time>2020-06-30T07:44:30Z</time>
      </trkpt>
      <trkpt lat="48.68571" lon="5.31525">
        <ele>234.1</ele>
        <time>2020-06-30T07:44:31Z</time>
      </trkpt>
      <trkpt lat="48.68569" lon="5.31519">
        <ele>234.3</ele>
        <time>2020-06-30T07:44:32Z</time>
      </trkpt>
      <trkpt lat="48.68567" lon="5.31513">
        <ele>234.4</ele>
        <time>2020-06-30T07:44:33Z</time>
      </trkpt>
      <trkpt lat="48.68565" lon="5.31506">
        <ele>234.6</ele>
        <time>2020-06-30T07:44:34Z</time>
      </trkpt>
      <trkpt lat="48.68562" lon="5.315">
        <ele>234.8</ele>
        <time>2020-06-30T07:44:35Z</time>
      </trkpt>
      <trkpt lat="48.68561" lon="5.31494">
        <ele>234.9</ele>
        <time>2020-06-30T07:44:36Z</time>
      </trkpt>
      <trkpt lat="48.68558" lon="5.31488">
        <ele>235.1</ele>
        <time>2020-06-30T07:44:37Z</time>
      </trkpt>
      <trkpt lat="48.68555" lon="5.31483">
        <ele>235.2</ele>
        <time>2020-06-30T07:44:38Z</time>
      </trkpt>
      <trkpt lat="48.68552" lon="5.31477">
        <ele>235.4</ele>
        <time>2020-06-30T07:44:39Z</time>
      </trkpt>
      <trkpt lat="48.6855" lon="5.31473">
        <ele>235.5</ele>
        <time>2020-06-30T07:44:40Z</time>
      </trkpt>
      <trkpt lat="48.68548" lon="5.31469">
        <ele>235.6</ele>
        <time>2020-06-30T07:44:41Z</time>
      </trkpt>
      <trkpt lat="48.68547" lon="5.31463">
        <ele>235.8</ele>
        <time>2020-06-30T07:44:42Z</time>
      </trkpt>
      <trkpt lat="48.68545" lon="5.31457">
        <ele>235.9</ele>
        <time>2020-06-30T07:44:43Z</time>
      </trkpt>
      <trkpt lat="48.68543" lon="5.31451">
        <ele>236.1</ele>
        <time>2020-06-30T07:44:44Z</time>
      </trkpt>
      <trkpt lat="48.6854" lon="5.31446">
        <ele>236.2</ele>
        <time>2020-06-30T07:44:45Z</time>
      </trkpt>
      <trkpt lat="48.68536" lon="5.31437">
        <ele>236.5</ele>
        <time>2020-06-30T07:44:46Z</time>
      </trkpt>
      <trkpt lat="48.68533" lon="5.3143">
        <ele>236.6</ele>
        <time>2020-06-30T07:44:47Z</time>
      </trkpt>
      <trkpt lat="48.68531" lon="5.31426">
        <ele>236.7</ele>
        <time>2020-06-30T07:44:48Z</time>
      </trkpt>
      <trkpt lat="48.6853" lon="5.31422">
        <ele>236.9</ele>
        <time>2020-06-30T07:44:49Z</time>
      </trkpt>
      <trkpt lat="48.68528" lon="5.31417">
        <ele>237</ele>
        <time>2020-06-30T07:44:50Z</time>
      </trkpt>
      <trkpt lat="48.68527" lon="5.31415">
        <ele>237.2</ele>
        <time>2020-06-30T07:44:51Z</time>
      </trkpt>
      <trkpt lat="48.68524" lon="5.31411">
        <ele>237.3</ele>
        <time>2020-06-30T07:44:52Z</time>
      </trkpt>
      <trkpt lat="48.68521" lon="5.31406">
        <ele>237.5</ele>
        <time>2020-06-30T07:44:53Z</time>
      </trkpt>
      <trkpt lat="48.68517" lon="5.314">
        <ele>237.6</ele>
        <time>2020-06-30T07:44:54Z</time>
      </trkpt>
      <trkpt lat="48.68514" lon="5.31395">
        <ele>237.7</ele>
        <time>2020-06-30T07:44:55Z</time>
      </trkpt>
      <trkpt lat="48.68511" lon="5.31389">
        <ele>237.9</ele>
        <time>2020-06-30T07:44:56Z</time>
      </trkpt>
      <trkpt lat="48.68507" lon="5.31383">
        <ele>238.1</ele>
        <time>2020-06-30T07:44:57Z</time>
      </trkpt>
      <trkpt lat="48.68505" lon="5.31377">
        <ele>238.2</ele>
        <time>2020-06-30T07:44:58Z</time>
      </trkpt>
      <trkpt lat="48.68503" lon="5.31374">
        <ele>238.3</ele>
        <time>2020-06-30T07:44:59Z</time>
      </trkpt>
      <trkpt lat="48.68501" lon="5.31371">
        <ele>238.4</ele>
        <time>2020-06-30T07:45:00Z</time>
      </trkpt>
      <trkpt lat="48.68498" lon="5.31366">
        <ele>238.6</ele>
        <time>2020-06-30T07:45:01Z</time>
      </trkpt>
      <trkpt lat="48.68494" lon="5.31359">
        <ele>238.7</ele>
        <time>2020-06-30T07:45:02Z</time>
      </trkpt>
      <trkpt lat="48.68491" lon="5.31353">
        <ele>238.8</ele>
        <time>2020-06-30T07:45:03Z</time>
      </trkpt>
      <trkpt lat="48.68488" lon="5.31347">
        <ele>238.9</ele>
        <time>2020-06-30T07:45:04Z</time>
      </trkpt>
      <trkpt lat="48.68485" lon="5.31341">
        <ele>239</ele>
        <time>2020-06-30T07:45:05Z</time>
      </trkpt>
      <trkpt lat="48.68483" lon="5.31335">
        <ele>239.2</ele>
        <time>2020-06-30T07:45:06Z</time>
      </trkpt>
      <trkpt lat="48.6848" lon="5.3133">
        <ele>239.3</ele>
        <time>2020-06-30T07:45:07Z</time>
      </trkpt>
      <trkpt lat="48.68477" lon="5.31323">
        <ele>239.4</ele>
        <time>2020-06-30T07:45:08Z</time>
      </trkpt>
      <trkpt lat="48.68473" lon="5.31317">
        <ele>239.6</ele>
        <time>2020-06-30T07:45:09Z</time>
      </trkpt>
      <trkpt lat="48.6847" lon="5.31311">
        <ele>239.7</ele>
        <time>2020-06-30T07:45:10Z</time>
      </trkpt>
      <trkpt lat="48.68467" lon="5.31305">
        <ele>239.8</ele>
        <time>2020-06-30T07:45:11Z</time>
      </trkpt>
      <trkpt lat="48.68465" lon="5.31301">
        <ele>239.9</ele>
        <time>2020-06-30T07:45:12Z</time>
      </trkpt>
      <trkpt lat="48.68462" lon="5.31296">
        <ele>240</ele>
        <time>2020-06-30T07:45:13Z</time>
      </trkpt>
      <trkpt lat="48.6846" lon="5.31292">
        <ele>240.1</ele>
        <time>2020-06-30T07:45:14Z</time>
      </trkpt>
      <trkpt lat="48.68457" lon="5.31288">
        <ele>240.1</ele>
        <time>2020-06-30T07:45:15Z</time>
      </trkpt>
      <trkpt lat="48.68456" lon="5.31284">
        <ele>240.1</ele>
        <time>2020-06-30T07:45:16Z</time>
      </trkpt>
      <trkpt lat="48.68453" lon="5.31278">
        <ele>240.2</ele>
        <time>2020-06-30T07:45:17Z</time>
      </trkpt>
      <trkpt lat="48.68451" lon="5.31273">
        <ele>240.3</ele>
        <time>2020-06-30T07:45:18Z</time>
      </trkpt>
      <trkpt lat="48.68448" lon="5.31268">
        <ele>240.3</ele>
        <time>2020-06-30T07:45:19Z</time>
      </trkpt>
      <trkpt lat="48.68445" lon="5.31263">
        <ele>240.3</ele>
        <time>2020-06-30T07:45:20Z</time>
      </trkpt>
      <trkpt lat="48.68442" lon="5.31258">
        <ele>240.4</ele>
        <time>2020-06-30T07:45:21Z</time>
      </trkpt>
      <trkpt lat="48.68438" lon="5.31252">
        <ele>240.5</ele>
        <time>2020-06-30T07:45:22Z</time>
      </trkpt>
      <trkpt lat="48.68436" lon="5.31247">
        <ele>240.5</ele>
        <time>2020-06-30T07:45:23Z</time>
      </trkpt>
      <trkpt lat="48.68433" lon="5.31243">
        <ele>240.6</ele>
        <time>2020-06-30T07:45:24Z</time>
      </trkpt>
      <trkpt lat="48.68431" lon="5.31237">
        <ele>240.7</ele>
        <time>2020-06-30T07:45:25Z</time>
      </trkpt>
      <trkpt lat="48.68429" lon="5.31231">
        <ele>240.8</ele>
        <time>2020-06-30T07:45:26Z</time>
      </trkpt>
      <trkpt lat="48.68426" lon="5.31225">
        <ele>240.9</ele>
        <time>2020-06-30T07:45:27Z</time>
      </trkpt>
      <trkpt lat="48.68423" lon="5.3122">
        <ele>240.9</ele>
        <time>2020-06-30T07:45:28Z</time>
      </trkpt>
      <trkpt lat="48.6842" lon="5.31215">
        <ele>241</ele>
        <time>2020-06-30T07:45:29Z</time>
      </trkpt>
      <trkpt lat="48.68416" lon="5.3121">
        <ele>241.1</ele>
        <time>2020-06-30T07:45:30Z</time>
      </trkpt>
      <trkpt lat="48.68414" lon="5.31205">
        <ele>241.2</ele>
        <time>2020-06-30T07:45:31Z</time>
      </trkpt>
      <trkpt lat="48.68411" lon="5.31199">
        <ele>241.2</ele>
        <time>2020-06-30T07:45:32Z</time>
      </trkpt>
      <trkpt lat="48.68408" lon="5.31193">
        <ele>241.3</ele>
        <time>2020-06-30T07:45:33Z</time>
      </trkpt>
      <trkpt lat="48.68405" lon="5.31187">
        <ele>241.3</ele>
        <time>2020-06-30T07:45:34Z</time>
      </trkpt>
      <trkpt lat="48.68402" lon="5.31181">
        <ele>241.4</ele>
        <time>2020-06-30T07:45:35Z</time>
      </trkpt>
      <trkpt lat="48.68399" lon="5.31175">
        <ele>241.4</ele>
        <time>2020-06-30T07:45:36Z</time>
      </trkpt>
      <trkpt lat="48.68396" lon="5.31169">
        <ele>241.5</ele>
        <time>2020-06-30T07:45:37Z</time>
      </trkpt>
      <trkpt lat="48.68393" lon="5.31163">
        <ele>241.6</ele>
        <time>2020-06-30T07:45:38Z</time>
      </trkpt>
      <trkpt lat="48.6839" lon="5.31158">
        <ele>241.7</ele>
        <time>2020-06-30T07:45:39Z</time>
      </trkpt>
      <trkpt lat="48.68387" lon="5.31153">
        <ele>241.8</ele>
        <time>2020-06-30T07:45:40Z</time>
      </trkpt>
      <trkpt lat="48.68383" lon="5.31146">
        <ele>241.9</ele>
        <time>2020-06-30T07:45:41Z</time>
      </trkpt>
      <trkpt lat="48.6838" lon="5.31141">
        <ele>242</ele>
        <time>2020-06-30T07:45:42Z</time>
      </trkpt>
      <trkpt lat="48.68377" lon="5.31135">
        <ele>242.1</ele>
        <time>2020-06-30T07:45:43Z</time>
      </trkpt>
      <trkpt lat="48.68374" lon="5.31131">
        <ele>242.2</ele>
        <time>2020-06-30T07:45:44Z</time>
      </trkpt>
      <trkpt lat="48.68371" lon="5.31125">
        <ele>242.3</ele>
        <time>2020-06-30T07:45:45Z</time>
      </trkpt>
      <trkpt lat="48.68369" lon="5.3112">
        <ele>242.3</ele>
        <time>2020-06-30T07:45:46Z</time>
      </trkpt>
      <trkpt lat="48.68365" lon="5.31114">
        <ele>242.4</ele>
        <time>2020-06-30T07:45:47Z</time>
      </trkpt>
      <trkpt lat="48.68362" lon="5.31108">
        <ele>242.5</ele>
        <time>2020-06-30T07:45:48Z</time>
      </trkpt>
      <trkpt lat="48.68359" lon="5.31103">
        <ele>242.6</ele>
        <time>2020-06-30T07:45:49Z</time>
      </trkpt>
      <trkpt lat="48.68357" lon="5.31098">
        <ele>242.6</ele>
        <time>2020-06-30T07:45:50Z</time>
      </trkpt>
      <trkpt lat="48.68355" lon="5.31093">
        <ele>242.7</ele>
        <time>2020-06-30T07:45:51Z</time>
      </trkpt>
      <trkpt lat="48.68353" lon="5.31088">
        <ele>242.7</ele>
        <time>2020-06-30T07:45:52Z</time>
      </trkpt>
      <trkpt lat="48.68349" lon="5.31081">
        <ele>242.8</ele>
        <time>2020-06-30T07:45:53Z</time>
      </trkpt>
      <trkpt lat="48.68346" lon="5.31075">
        <ele>242.8</ele>
        <time>2020-06-30T07:45:54Z</time>
      </trkpt>
      <trkpt lat="48.68344" lon="5.31071">
        <ele>242.9</ele>
        <time>2020-06-30T07:45:55Z</time>
      </trkpt>
      <trkpt lat="48.68341" lon="5.31068">
        <ele>242.9</ele>
        <time>2020-06-30T07:45:56Z</time>
      </trkpt>
      <trkpt lat="48.68337" lon="5.31062">
        <ele>243</ele>
        <time>2020-06-30T07:45:57Z</time>
      </trkpt>
      <trkpt lat="48.68335" lon="5.31056">
        <ele>243.1</ele>
        <time>2020-06-30T07:45:58Z</time>
      </trkpt>
      <trkpt lat="48.68332" lon="5.3105">
        <ele>243.1</ele>
        <time>2020-06-30T07:45:59Z</time>
      </trkpt>
      <trkpt lat="48.68328" lon="5.31045">
        <ele>243.2</ele>
        <time>2020-06-30T07:46:00Z</time>
      </trkpt>
      <trkpt lat="48.68325" lon="5.31039">
        <ele>243.3</ele>
        <time>2020-06-30T07:46:01Z</time>
      </trkpt>
      <trkpt lat="48.68323" lon="5.31033">
        <ele>243.3</ele>
        <time>2020-06-30T07:46:02Z</time>
      </trkpt>
      <trkpt lat="48.6832" lon="5.31028">
        <ele>243.3</ele>
        <time>2020-06-30T07:46:03Z</time>
      </trkpt>
      <trkpt lat="48.68317" lon="5.31023">
        <ele>243.6</ele>
        <time>2020-06-30T07:46:04Z</time>
      </trkpt>
      <trkpt lat="48.68315" lon="5.31018">
        <ele>243.7</ele>
        <time>2020-06-30T07:46:05Z</time>
      </trkpt>
      <trkpt lat="48.68312" lon="5.31012">
        <ele>243.9</ele>
        <time>2020-06-30T07:46:06Z</time>
      </trkpt>
      <trkpt lat="48.6831" lon="5.31008">
        <ele>244</ele>
        <time>2020-06-30T07:46:07Z</time>
      </trkpt>
      <trkpt lat="48.68307" lon="5.31003">
        <ele>244.1</ele>
        <time>2020-06-30T07:46:08Z</time>
      </trkpt>
      <trkpt lat="48.68305" lon="5.30997">
        <ele>244.2</ele>
        <time>2020-06-30T07:46:09Z</time>
      </trkpt>
      <trkpt lat="48.68302" lon="5.30992">
        <ele>244.2</ele>
        <time>2020-06-30T07:46:10Z</time>
      </trkpt>
      <trkpt lat="48.68299" lon="5.30987">
        <ele>244.3</ele>
        <time>2020-06-30T07:46:11Z</time>
      </trkpt>
      <trkpt lat="48.68296" lon="5.30982">
        <ele>244.4</ele>
        <time>2020-06-30T07:46:12Z</time>
      </trkpt>
      <trkpt lat="48.68294" lon="5.30977">
        <ele>244.5</ele>
        <time>2020-06-30T07:46:13Z</time>
      </trkpt>
      <trkpt lat="48.68291" lon="5.30972">
        <ele>244.6</ele>
        <time>2020-06-30T07:46:14Z</time>
      </trkpt>
      <trkpt lat="48.68288" lon="5.30967">
        <ele>244.7</ele>
        <time>2020-06-30T07:46:15Z</time>
      </trkpt>
      <trkpt lat="48.68285" lon="5.30962">
        <ele>244.7</ele>
        <time>2020-06-30T07:46:16Z</time>
      </trkpt>
      <trkpt lat="48.68282" lon="5.30957">
        <ele>244.8</ele>
        <time>2020-06-30T07:46:17Z</time>
      </trkpt>
      <trkpt lat="48.6828" lon="5.30951">
        <ele>244.9</ele>
        <time>2020-06-30T07:46:18Z</time>
      </trkpt>
      <trkpt lat="48.68277" lon="5.30944">
        <ele>244.9</ele>
        <time>2020-06-30T07:46:19Z</time>
      </trkpt>
      <trkpt lat="48.68276" lon="5.30939">
        <ele>245</ele>
        <time>2020-06-30T07:46:20Z</time>
      </trkpt>
      <trkpt lat="48.68271" lon="5.30934">
        <ele>245</ele>
        <time>2020-06-30T07:46:21Z</time>
      </trkpt>
      <trkpt lat="48.68269" lon="5.30928">
        <ele>245.1</ele>
        <time>2020-06-30T07:46:22Z</time>
      </trkpt>
      <trkpt lat="48.68265" lon="5.30923">
        <ele>245.1</ele>
        <time>2020-06-30T07:46:23Z</time>
      </trkpt>
      <trkpt lat="48.68262" lon="5.30918">
        <ele>245.1</ele>
        <time>2020-06-30T07:46:24Z</time>
      </trkpt>
      <trkpt lat="48.68259" lon="5.30911">
        <ele>245.1</ele>
        <time>2020-06-30T07:46:25Z</time>
      </trkpt>
      <trkpt lat="48.68256" lon="5.30908">
        <ele>245.1</ele>
        <time>2020-06-30T07:46:26Z</time>
      </trkpt>
      <trkpt lat="48.68253" lon="5.30902">
        <ele>245.1</ele>
        <time>2020-06-30T07:46:27Z</time>
      </trkpt>
      <trkpt lat="48.68252" lon="5.30895">
        <ele>245.1</ele>
        <time>2020-06-30T07:46:28Z</time>
      </trkpt>
      <trkpt lat="48.6825" lon="5.30889">
        <ele>245.2</ele>
        <time>2020-06-30T07:46:29Z</time>
      </trkpt>
      <trkpt lat="48.68248" lon="5.30884">
        <ele>245.2</ele>
        <time>2020-06-30T07:46:30Z</time>
      </trkpt>
      <trkpt lat="48.68244" lon="5.30878">
        <ele>245.2</ele>
        <time>2020-06-30T07:46:31Z</time>
      </trkpt>
      <trkpt lat="48.68242" lon="5.30873">
        <ele>245.3</ele>
        <time>2020-06-30T07:46:32Z</time>
      </trkpt>
      <trkpt lat="48.68239" lon="5.30867">
        <ele>245.3</ele>
        <time>2020-06-30T07:46:33Z</time>
      </trkpt>
      <trkpt lat="48.68236" lon="5.30862">
        <ele>245.4</ele>
        <time>2020-06-30T07:46:34Z</time>
      </trkpt>
      <trkpt lat="48.68233" lon="5.30856">
        <ele>245.5</ele>
        <time>2020-06-30T07:46:35Z</time>
      </trkpt>
      <trkpt lat="48.68229" lon="5.3085">
        <ele>245.5</ele>
        <time>2020-06-30T07:46:36Z</time>
      </trkpt>
      <trkpt lat="48.68225" lon="5.30845">
        <ele>245.6</ele>
        <time>2020-06-30T07:46:37Z</time>
      </trkpt>
      <trkpt lat="48.6822" lon="5.30838">
        <ele>245.7</ele>
        <time>2020-06-30T07:46:38Z</time>
      </trkpt>
      <trkpt lat="48.68217" lon="5.30832">
        <ele>245.7</ele>
        <time>2020-06-30T07:46:39Z</time>
      </trkpt>
      <trkpt lat="48.68213" lon="5.30825">
        <ele>245.8</ele>
        <time>2020-06-30T07:46:40Z</time>
      </trkpt>
      <trkpt lat="48.68211" lon="5.30819">
        <ele>245.9</ele>
        <time>2020-06-30T07:46:41Z</time>
      </trkpt>
      <trkpt lat="48.68208" lon="5.30813">
        <ele>246</ele>
        <time>2020-06-30T07:46:42Z</time>
      </trkpt>
      <trkpt lat="48.68204" lon="5.30807">
        <ele>246.1</ele>
        <time>2020-06-30T07:46:43Z</time>
      </trkpt>
      <trkpt lat="48.68199" lon="5.30802">
        <ele>246.2</ele>
        <time>2020-06-30T07:46:44Z</time>
      </trkpt>
      <trkpt lat="48.68196" lon="5.30798">
        <ele>246.3</ele>
        <time>2020-06-30T07:46:45Z</time>
      </trkpt>
      <trkpt lat="48.68193" lon="5.30792">
        <ele>246.3</ele>
        <time>2020-06-30T07:46:46Z</time>
      </trkpt>
      <trkpt lat="48.68189" lon="5.30786">
        <ele>246.4</ele>
        <time>2020-06-30T07:46:47Z</time>
      </trkpt>
      <trkpt lat="48.68186" lon="5.30779">
        <ele>246.5</ele>
        <time>2020-06-30T07:46:48Z</time>
      </trkpt>
      <trkpt lat="48.68183" lon="5.30774">
        <ele>246.6</ele>
        <time>2020-06-30T07:46:49Z</time>
      </trkpt>
      <trkpt lat="48.6818" lon="5.30769">
        <ele>246.7</ele>
        <time>2020-06-30T07:46:50Z</time>
      </trkpt>
      <trkpt lat="48.68178" lon="5.30764">
        <ele>246.9</ele>
        <time>2020-06-30T07:46:51Z</time>
      </trkpt>
      <trkpt lat="48.68174" lon="5.30759">
        <ele>247</ele>
        <time>2020-06-30T07:46:52Z</time>
      </trkpt>
      <trkpt lat="48.68172" lon="5.30754">
        <ele>247.2</ele>
        <time>2020-06-30T07:46:53Z</time>
      </trkpt>
      <trkpt lat="48.68169" lon="5.3075">
        <ele>247.4</ele>
        <time>2020-06-30T07:46:54Z</time>
      </trkpt>
      <trkpt lat="48.68166" lon="5.30744">
        <ele>247.6</ele>
        <time>2020-06-30T07:46:55Z</time>
      </trkpt>
      <trkpt lat="48.68163" lon="5.30738">
        <ele>247.8</ele>
        <time>2020-06-30T07:46:56Z</time>
      </trkpt>
      <trkpt lat="48.6816" lon="5.30733">
        <ele>248</ele>
        <time>2020-06-30T07:46:57Z</time>
      </trkpt>
      <trkpt lat="48.68157" lon="5.30727">
        <ele>248.2</ele>
        <time>2020-06-30T07:46:58Z</time>
      </trkpt>
      <trkpt lat="48.68156" lon="5.30723">
        <ele>248.3</ele>
        <time>2020-06-30T07:46:59Z</time>
      </trkpt>
      <trkpt lat="48.68153" lon="5.30719">
        <ele>248.5</ele>
        <time>2020-06-30T07:47:00Z</time>
      </trkpt>
      <trkpt lat="48.68151" lon="5.30714">
        <ele>248.7</ele>
        <time>2020-06-30T07:47:01Z</time>
      </trkpt>
      <trkpt lat="48.68149" lon="5.30709">
        <ele>248.9</ele>
        <time>2020-06-30T07:47:02Z</time>
      </trkpt>
      <trkpt lat="48.68146" lon="5.30705">
        <ele>249.1</ele>
        <time>2020-06-30T07:47:03Z</time>
      </trkpt>
      <trkpt lat="48.68145" lon="5.30701">
        <ele>249.2</ele>
        <time>2020-06-30T07:47:04Z</time>
      </trkpt>
      <trkpt lat="48.68142" lon="5.30697">
        <ele>249.4</ele>
        <time>2020-06-30T07:47:05Z</time>
      </trkpt>
      <trkpt lat="48.6814" lon="5.30692">
        <ele>249.6</ele>
        <time>2020-06-30T07:47:06Z</time>
      </trkpt>
      <trkpt lat="48.68138" lon="5.30686">
        <ele>249.9</ele>
        <time>2020-06-30T07:47:07Z</time>
      </trkpt>
      <trkpt lat="48.68136" lon="5.30681">
        <ele>250.1</ele>
        <time>2020-06-30T07:47:08Z</time>
      </trkpt>
      <trkpt lat="48.68132" lon="5.30675">
        <ele>250.3</ele>
        <time>2020-06-30T07:47:09Z</time>
      </trkpt>
      <trkpt lat="48.6813" lon="5.3067">
        <ele>250.6</ele>
        <time>2020-06-30T07:47:10Z</time>
      </trkpt>
      <trkpt lat="48.68127" lon="5.30665">
        <ele>250.8</ele>
        <time>2020-06-30T07:47:11Z</time>
      </trkpt>
      <trkpt lat="48.68125" lon="5.30661">
        <ele>250.9</ele>
        <time>2020-06-30T07:47:12Z</time>
      </trkpt>
      <trkpt lat="48.68122" lon="5.30656">
        <ele>251.2</ele>
        <time>2020-06-30T07:47:13Z</time>
      </trkpt>
      <trkpt lat="48.6812" lon="5.3065">
        <ele>251.4</ele>
        <time>2020-06-30T07:47:14Z</time>
      </trkpt>
      <trkpt lat="48.68118" lon="5.30644">
        <ele>251.6</ele>
        <time>2020-06-30T07:47:15Z</time>
      </trkpt>
      <trkpt lat="48.68116" lon="5.30639">
        <ele>251.8</ele>
        <time>2020-06-30T07:47:16Z</time>
      </trkpt>
      <trkpt lat="48.68116" lon="5.30633">
        <ele>252</ele>
        <time>2020-06-30T07:47:17Z</time>
      </trkpt>
      <trkpt lat="48.68115" lon="5.30628">
        <ele>252.1</ele>
        <time>2020-06-30T07:47:18Z</time>
      </trkpt>
      <trkpt lat="48.68114" lon="5.30623">
        <ele>252.3</ele>
        <time>2020-06-30T07:47:19Z</time>
      </trkpt>
      <trkpt lat="48.68114" lon="5.30618">
        <ele>252.4</ele>
        <time>2020-06-30T07:47:20Z</time>
      </trkpt>
      <trkpt lat="48.68113" lon="5.30611">
        <ele>252.5</ele>
        <time>2020-06-30T07:47:21Z</time>
      </trkpt>
      <trkpt lat="48.68113" lon="5.30604">
        <ele>252.7</ele>
        <time>2020-06-30T07:47:22Z</time>
      </trkpt>
      <trkpt lat="48.68113" lon="5.30598">
        <ele>252.7</ele>
        <time>2020-06-30T07:47:23Z</time>
      </trkpt>
      <trkpt lat="48.68113" lon="5.30591">
        <ele>252.8</ele>
        <time>2020-06-30T07:47:24Z</time>
      </trkpt>
      <trkpt lat="48.68113" lon="5.30585">
        <ele>252.9</ele>
        <time>2020-06-30T07:47:25Z</time>
      </trkpt>
      <trkpt lat="48.68114" lon="5.30579">
        <ele>253</ele>
        <time>2020-06-30T07:47:26Z</time>
      </trkpt>
      <trkpt lat="48.68114" lon="5.30572">
        <ele>253.1</ele>
        <time>2020-06-30T07:47:27Z</time>
      </trkpt>
      <trkpt lat="48.68114" lon="5.30566">
        <ele>253.2</ele>
        <time>2020-06-30T07:47:28Z</time>
      </trkpt>
      <trkpt lat="48.68116" lon="5.3056">
        <ele>253.2</ele>
        <time>2020-06-30T07:47:29Z</time>
      </trkpt>
      <trkpt lat="48.68116" lon="5.30554">
        <ele>253.3</ele>
        <time>2020-06-30T07:47:30Z</time>
      </trkpt>
      <trkpt lat="48.68116" lon="5.30549">
        <ele>253.3</ele>
        <time>2020-06-30T07:47:31Z</time>
      </trkpt>
      <trkpt lat="48.68116" lon="5.30543">
        <ele>253.4</ele>
        <time>2020-06-30T07:47:32Z</time>
      </trkpt>
      <trkpt lat="48.68117" lon="5.30537">
        <ele>253.4</ele>
        <time>2020-06-30T07:47:33Z</time>
      </trkpt>
      <trkpt lat="48.68118" lon="5.3053">
        <ele>253.4</ele>
        <time>2020-06-30T07:47:34Z</time>
      </trkpt>
      <trkpt lat="48.68119" lon="5.30524">
        <ele>253.4</ele>
        <time>2020-06-30T07:47:35Z</time>
      </trkpt>
      <trkpt lat="48.68119" lon="5.30518">
        <ele>253.4</ele>
        <time>2020-06-30T07:47:36Z</time>
      </trkpt>
      <trkpt lat="48.68119" lon="5.3051">
        <ele>253.4</ele>
        <time>2020-06-30T07:47:37Z</time>
      </trkpt>
      <trkpt lat="48.68119" lon="5.30503">
        <ele>253.4</ele>
        <time>2020-06-30T07:47:38Z</time>
      </trkpt>
      <trkpt lat="48.68119" lon="5.30496">
        <ele>253.3</ele>
        <time>2020-06-30T07:47:39Z</time>
      </trkpt>
      <trkpt lat="48.68118" lon="5.30489">
        <ele>253.2</ele>
        <time>2020-06-30T07:47:40Z</time>
      </trkpt>
      <trkpt lat="48.68115" lon="5.30481">
        <ele>253.1</ele>
        <time>2020-06-30T07:47:41Z</time>
      </trkpt>
      <trkpt lat="48.68113" lon="5.30474">
        <ele>253</ele>
        <time>2020-06-30T07:47:42Z</time>
      </trkpt>
      <trkpt lat="48.68109" lon="5.30467">
        <ele>252.8</ele>
        <time>2020-06-30T07:47:43Z</time>
      </trkpt>
      <trkpt lat="48.68104" lon="5.3046">
        <ele>252.6</ele>
        <time>2020-06-30T07:47:44Z</time>
      </trkpt>
      <trkpt lat="48.68099" lon="5.30454">
        <ele>252.4</ele>
        <time>2020-06-30T07:47:45Z</time>
      </trkpt>
      <trkpt lat="48.68094" lon="5.30448">
        <ele>252.3</ele>
        <time>2020-06-30T07:47:46Z</time>
      </trkpt>
      <trkpt lat="48.6809" lon="5.30443">
        <ele>252.1</ele>
        <time>2020-06-30T07:47:47Z</time>
      </trkpt>
      <trkpt lat="48.68085" lon="5.30438">
        <ele>252</ele>
        <time>2020-06-30T07:47:48Z</time>
      </trkpt>
      <trkpt lat="48.68079" lon="5.30433">
        <ele>251.8</ele>
        <time>2020-06-30T07:47:49Z</time>
      </trkpt>
      <trkpt lat="48.68073" lon="5.30429">
        <ele>251.7</ele>
        <time>2020-06-30T07:47:50Z</time>
      </trkpt>
      <trkpt lat="48.68064" lon="5.30425">
        <ele>251.6</ele>
        <time>2020-06-30T07:47:51Z</time>
      </trkpt>
      <trkpt lat="48.68058" lon="5.30422">
        <ele>251.4</ele>
        <time>2020-06-30T07:47:52Z</time>
      </trkpt>
      <trkpt lat="48.68052" lon="5.30419">
        <ele>251.3</ele>
        <time>2020-06-30T07:47:53Z</time>
      </trkpt>
      <trkpt lat="48.68044" lon="5.30416">
        <ele>251.2</ele>
        <time>2020-06-30T07:47:54Z</time>
      </trkpt>
      <trkpt lat="48.68037" lon="5.30415">
        <ele>251.1</ele>
        <time>2020-06-30T07:47:55Z</time>
      </trkpt>
      <trkpt lat="48.6803" lon="5.30414">
        <ele>251.1</ele>
        <time>2020-06-30T07:47:56Z</time>
      </trkpt>
      <trkpt lat="48.68024" lon="5.30412">
        <ele>251.1</ele>
        <time>2020-06-30T07:47:57Z</time>
      </trkpt>
      <trkpt lat="48.68018" lon="5.3041">
        <ele>251.1</ele>
        <time>2020-06-30T07:47:58Z</time>
      </trkpt>
      <trkpt lat="48.68012" lon="5.30408">
        <ele>251.1</ele>
        <time>2020-06-30T07:47:59Z</time>
      </trkpt>
      <trkpt lat="48.68006" lon="5.30407">
        <ele>251.1</ele>
        <time>2020-06-30T07:48:00Z</time>
      </trkpt>
      <trkpt lat="48.68" lon="5.30405">
        <ele>251.1</ele>
        <time>2020-06-30T07:48:01Z</time>
      </trkpt>
      <trkpt lat="48.67994" lon="5.30404">
        <ele>251.2</ele>
        <time>2020-06-30T07:48:02Z</time>
      </trkpt>
      <trkpt lat="48.67988" lon="5.30402">
        <ele>251.2</ele>
        <time>2020-06-30T07:48:03Z</time>
      </trkpt>
      <trkpt lat="48.67982" lon="5.30399">
        <ele>251.3</ele>
        <time>2020-06-30T07:48:04Z</time>
      </trkpt>
      <trkpt lat="48.67975" lon="5.30398">
        <ele>251.4</ele>
        <time>2020-06-30T07:48:05Z</time>
      </trkpt>
      <trkpt lat="48.6797" lon="5.30396">
        <ele>251.5</ele>
        <time>2020-06-30T07:48:06Z</time>
      </trkpt>
      <trkpt lat="48.67965" lon="5.30395">
        <ele>251.6</ele>
        <time>2020-06-30T07:48:07Z</time>
      </trkpt>
      <trkpt lat="48.67959" lon="5.30393">
        <ele>251.7</ele>
        <time>2020-06-30T07:48:08Z</time>
      </trkpt>
      <trkpt lat="48.67955" lon="5.30391">
        <ele>251.8</ele>
        <time>2020-06-30T07:48:09Z</time>
      </trkpt>
      <trkpt lat="48.67949" lon="5.30389">
        <ele>251.9</ele>
        <time>2020-06-30T07:48:10Z</time>
      </trkpt>
      <trkpt lat="48.67945" lon="5.30388">
        <ele>252</ele>
        <time>2020-06-30T07:48:11Z</time>
      </trkpt>
      <trkpt lat="48.6794" lon="5.30387">
        <ele>252.2</ele>
        <time>2020-06-30T07:48:12Z</time>
      </trkpt>
      <trkpt lat="48.67936" lon="5.30385">
        <ele>252.3</ele>
        <time>2020-06-30T07:48:13Z</time>
      </trkpt>
      <trkpt lat="48.67933" lon="5.30384">
        <ele>252.4</ele>
        <time>2020-06-30T07:48:14Z</time>
      </trkpt>
      <trkpt lat="48.67929" lon="5.30382">
        <ele>252.6</ele>
        <time>2020-06-30T07:48:15Z</time>
      </trkpt>
      <trkpt lat="48.67923" lon="5.30381">
        <ele>252.7</ele>
        <time>2020-06-30T07:48:16Z</time>
      </trkpt>
      <trkpt lat="48.6792" lon="5.30379">
        <ele>252.8</ele>
        <time>2020-06-30T07:48:17Z</time>
      </trkpt>
      <trkpt lat="48.67916" lon="5.30376">
        <ele>253</ele>
        <time>2020-06-30T07:48:18Z</time>
      </trkpt>
      <trkpt lat="48.67913" lon="5.30372">
        <ele>253.2</ele>
        <time>2020-06-30T07:48:19Z</time>
      </trkpt>
      <trkpt lat="48.6791" lon="5.30366">
        <ele>253.2</ele>
        <time>2020-06-30T07:48:20Z</time>
      </trkpt>
      <trkpt lat="48.67908" lon="5.3036">
        <ele>253.3</ele>
        <time>2020-06-30T07:48:21Z</time>
      </trkpt>
      <trkpt lat="48.67905" lon="5.30356">
        <ele>253.4</ele>
        <time>2020-06-30T07:48:22Z</time>
      </trkpt>
      <trkpt lat="48.67902" lon="5.30352">
        <ele>253.5</ele>
        <time>2020-06-30T07:48:23Z</time>
      </trkpt>
      <trkpt lat="48.67898" lon="5.30349">
        <ele>253.6</ele>
        <time>2020-06-30T07:48:24Z</time>
      </trkpt>
      <trkpt lat="48.67895" lon="5.30346">
        <ele>253.7</ele>
        <time>2020-06-30T07:48:25Z</time>
      </trkpt>
      <trkpt lat="48.67893" lon="5.30342">
        <ele>253.7</ele>
        <time>2020-06-30T07:48:26Z</time>
      </trkpt>
      <trkpt lat="48.67889" lon="5.30338">
        <ele>253.8</ele>
        <time>2020-06-30T07:48:27Z</time>
      </trkpt>
      <trkpt lat="48.67887" lon="5.30335">
        <ele>253.9</ele>
        <time>2020-06-30T07:48:28Z</time>
      </trkpt>
      <trkpt lat="48.67883" lon="5.30329">
        <ele>254</ele>
        <time>2020-06-30T07:48:29Z</time>
      </trkpt>
      <trkpt lat="48.6788" lon="5.30323">
        <ele>254.2</ele>
        <time>2020-06-30T07:48:30Z</time>
      </trkpt>
      <trkpt lat="48.67876" lon="5.3032">
        <ele>254.3</ele>
        <time>2020-06-30T07:48:31Z</time>
      </trkpt>
      <trkpt lat="48.67872" lon="5.30317">
        <ele>254.4</ele>
        <time>2020-06-30T07:48:32Z</time>
      </trkpt>
      <trkpt lat="48.67869" lon="5.30313">
        <ele>254.5</ele>
        <time>2020-06-30T07:48:33Z</time>
      </trkpt>
      <trkpt lat="48.67865" lon="5.30309">
        <ele>254.6</ele>
        <time>2020-06-30T07:48:34Z</time>
      </trkpt>
      <trkpt lat="48.67862" lon="5.30305">
        <ele>254.7</ele>
        <time>2020-06-30T07:48:35Z</time>
      </trkpt>
      <trkpt lat="48.6786" lon="5.303">
        <ele>254.8</ele>
        <time>2020-06-30T07:48:36Z</time>
      </trkpt>
      <trkpt lat="48.67857" lon="5.30296">
        <ele>254.8</ele>
        <time>2020-06-30T07:48:37Z</time>
      </trkpt>
      <trkpt lat="48.67854" lon="5.3029">
        <ele>254.9</ele>
        <time>2020-06-30T07:48:38Z</time>
      </trkpt>
      <trkpt lat="48.6785" lon="5.30287">
        <ele>255</ele>
        <time>2020-06-30T07:48:39Z</time>
      </trkpt>
      <trkpt lat="48.67849" lon="5.30282">
        <ele>255.1</ele>
        <time>2020-06-30T07:48:40Z</time>
      </trkpt>
      <trkpt lat="48.67845" lon="5.30278">
        <ele>255.2</ele>
        <time>2020-06-30T07:48:41Z</time>
      </trkpt>
      <trkpt lat="48.67843" lon="5.30275">
        <ele>255.3</ele>
        <time>2020-06-30T07:48:42Z</time>
      </trkpt>
      <trkpt lat="48.67838" lon="5.30272">
        <ele>255.4</ele>
        <time>2020-06-30T07:48:43Z</time>
      </trkpt>
      <trkpt lat="48.67834" lon="5.30268">
        <ele>255.5</ele>
        <time>2020-06-30T07:48:44Z</time>
      </trkpt>
      <trkpt lat="48.67831" lon="5.30265">
        <ele>255.6</ele>
        <time>2020-06-30T07:48:45Z</time>
      </trkpt>
      <trkpt lat="48.67828" lon="5.30262">
        <ele>255.7</ele>
        <time>2020-06-30T07:48:46Z</time>
      </trkpt>
      <trkpt lat="48.67826" lon="5.3026">
        <ele>255.8</ele>
        <time>2020-06-30T07:48:47Z</time>
      </trkpt>
      <trkpt lat="48.67822" lon="5.30257">
        <ele>255.9</ele>
        <time>2020-06-30T07:48:48Z</time>
      </trkpt>
      <trkpt lat="48.67818" lon="5.30252">
        <ele>256</ele>
        <time>2020-06-30T07:48:49Z</time>
      </trkpt>
      <trkpt lat="48.67814" lon="5.30247">
        <ele>256.2</ele>
        <time>2020-06-30T07:48:50Z</time>
      </trkpt>
      <trkpt lat="48.67811" lon="5.30243">
        <ele>256.4</ele>
        <time>2020-06-30T07:48:51Z</time>
      </trkpt>
      <trkpt lat="48.67808" lon="5.3024">
        <ele>256.5</ele>
        <time>2020-06-30T07:48:52Z</time>
      </trkpt>
      <trkpt lat="48.67805" lon="5.30238">
        <ele>256.6</ele>
        <time>2020-06-30T07:48:53Z</time>
      </trkpt>
      <trkpt lat="48.67801" lon="5.30233">
        <ele>256.8</ele>
        <time>2020-06-30T07:48:54Z</time>
      </trkpt>
      <trkpt lat="48.67798" lon="5.30229">
        <ele>257</ele>
        <time>2020-06-30T07:48:55Z</time>
      </trkpt>
      <trkpt lat="48.67794" lon="5.30226">
        <ele>257.2</ele>
        <time>2020-06-30T07:48:56Z</time>
      </trkpt>
      <trkpt lat="48.67791" lon="5.30223">
        <ele>257.3</ele>
        <time>2020-06-30T07:48:57Z</time>
      </trkpt>
      <trkpt lat="48.67788" lon="5.30218">
        <ele>257.5</ele>
        <time>2020-06-30T07:48:58Z</time>
      </trkpt>
      <trkpt lat="48.67786" lon="5.30216">
        <ele>257.5</ele>
        <time>2020-06-30T07:48:59Z</time>
      </trkpt>
      <trkpt lat="48.67784" lon="5.30213">
        <ele>257.7</ele>
        <time>2020-06-30T07:49:00Z</time>
      </trkpt>
      <trkpt lat="48.6778" lon="5.30209">
        <ele>257.8</ele>
        <time>2020-06-30T07:49:01Z</time>
      </trkpt>
      <trkpt lat="48.67779" lon="5.30207">
        <ele>257.9</ele>
        <time>2020-06-30T07:49:02Z</time>
      </trkpt>
      <trkpt lat="48.67776" lon="5.30204">
        <ele>258</ele>
        <time>2020-06-30T07:49:03Z</time>
      </trkpt>
      <trkpt lat="48.67774" lon="5.302">
        <ele>258.1</ele>
        <time>2020-06-30T07:49:04Z</time>
      </trkpt>
      <trkpt lat="48.67771" lon="5.30197">
        <ele>258.3</ele>
        <time>2020-06-30T07:49:05Z</time>
      </trkpt>
      <trkpt lat="48.67769" lon="5.30194">
        <ele>258.4</ele>
        <time>2020-06-30T07:49:06Z</time>
      </trkpt>
      <trkpt lat="48.67765" lon="5.3019">
        <ele>258.6</ele>
        <time>2020-06-30T07:49:07Z</time>
      </trkpt>
      <trkpt lat="48.67762" lon="5.30187">
        <ele>258.8</ele>
        <time>2020-06-30T07:49:08Z</time>
      </trkpt>
      <trkpt lat="48.67759" lon="5.30183">
        <ele>259</ele>
        <time>2020-06-30T07:49:09Z</time>
      </trkpt>
      <trkpt lat="48.67756" lon="5.30178">
        <ele>259.3</ele>
        <time>2020-06-30T07:49:10Z</time>
      </trkpt>
      <trkpt lat="48.67753" lon="5.30175">
        <ele>259.5</ele>
        <time>2020-06-30T07:49:11Z</time>
      </trkpt>
      <trkpt lat="48.67748" lon="5.30171">
        <ele>259.7</ele>
        <time>2020-06-30T07:49:12Z</time>
      </trkpt>
      <trkpt lat="48.67745" lon="5.30167">
        <ele>259.9</ele>
        <time>2020-06-30T07:49:13Z</time>
      </trkpt>
      <trkpt lat="48.67741" lon="5.30163">
        <ele>260.2</ele>
        <time>2020-06-30T07:49:14Z</time>
      </trkpt>
      <trkpt lat="48.67738" lon="5.30159">
        <ele>260.4</ele>
        <time>2020-06-30T07:49:15Z</time>
      </trkpt>
      <trkpt lat="48.67735" lon="5.30155">
        <ele>260.7</ele>
        <time>2020-06-30T07:49:16Z</time>
      </trkpt>
      <trkpt lat="48.67731" lon="5.30151">
        <ele>261</ele>
        <time>2020-06-30T07:49:17Z</time>
      </trkpt>
      <trkpt lat="48.67728" lon="5.30147">
        <ele>261.2</ele>
        <time>2020-06-30T07:49:18Z</time>
      </trkpt>
      <trkpt lat="48.67725" lon="5.30143">
        <ele>261.4</ele>
        <time>2020-06-30T07:49:19Z</time>
      </trkpt>
      <trkpt lat="48.67722" lon="5.30139">
        <ele>261.6</ele>
        <time>2020-06-30T07:49:20Z</time>
      </trkpt>
      <trkpt lat="48.67718" lon="5.30136">
        <ele>261.7</ele>
        <time>2020-06-30T07:49:21Z</time>
      </trkpt>
      <trkpt lat="48.67715" lon="5.30132">
        <ele>261.9</ele>
        <time>2020-06-30T07:49:22Z</time>
      </trkpt>
      <trkpt lat="48.67712" lon="5.30129">
        <ele>262.1</ele>
        <time>2020-06-30T07:49:23Z</time>
      </trkpt>
      <trkpt lat="48.67709" lon="5.30127">
        <ele>262.3</ele>
        <time>2020-06-30T07:49:24Z</time>
      </trkpt>
      <trkpt lat="48.67706" lon="5.30124">
        <ele>262.4</ele>
        <time>2020-06-30T07:49:25Z</time>
      </trkpt>
      <trkpt lat="48.67704" lon="5.3012">
        <ele>262.6</ele>
        <time>2020-06-30T07:49:26Z</time>
      </trkpt>
      <trkpt lat="48.67701" lon="5.30117">
        <ele>262.7</ele>
        <time>2020-06-30T07:49:27Z</time>
      </trkpt>
      <trkpt lat="48.67698" lon="5.30113">
        <ele>262.9</ele>
        <time>2020-06-30T07:49:28Z</time>
      </trkpt>
      <trkpt lat="48.67694" lon="5.30109">
        <ele>263.2</ele>
        <time>2020-06-30T07:49:29Z</time>
      </trkpt>
      <trkpt lat="48.6769" lon="5.30105">
        <ele>263.4</ele>
        <time>2020-06-30T07:49:30Z</time>
      </trkpt>
      <trkpt lat="48.67687" lon="5.30102">
        <ele>263.5</ele>
        <time>2020-06-30T07:49:31Z</time>
      </trkpt>
      <trkpt lat="48.67683" lon="5.301">
        <ele>263.7</ele>
        <time>2020-06-30T07:49:32Z</time>
      </trkpt>
      <trkpt lat="48.6768" lon="5.30098">
        <ele>263.8</ele>
        <time>2020-06-30T07:49:33Z</time>
      </trkpt>
      <trkpt lat="48.67676" lon="5.30095">
        <ele>264</ele>
        <time>2020-06-30T07:49:34Z</time>
      </trkpt>
      <trkpt lat="48.67673" lon="5.3009">
        <ele>264.1</ele>
        <time>2020-06-30T07:49:35Z</time>
      </trkpt>
      <trkpt lat="48.6767" lon="5.30085">
        <ele>264.3</ele>
        <time>2020-06-30T07:49:36Z</time>
      </trkpt>
      <trkpt lat="48.67667" lon="5.3008">
        <ele>264.4</ele>
        <time>2020-06-30T07:49:37Z</time>
      </trkpt>
      <trkpt lat="48.67664" lon="5.30076">
        <ele>264.6</ele>
        <time>2020-06-30T07:49:38Z</time>
      </trkpt>
      <trkpt lat="48.67661" lon="5.30073">
        <ele>264.7</ele>
        <time>2020-06-30T07:49:39Z</time>
      </trkpt>
      <trkpt lat="48.67657" lon="5.3007">
        <ele>264.9</ele>
        <time>2020-06-30T07:49:40Z</time>
      </trkpt>
      <trkpt lat="48.67654" lon="5.30066">
        <ele>265</ele>
        <time>2020-06-30T07:49:41Z</time>
      </trkpt>
      <trkpt lat="48.67651" lon="5.30062">
        <ele>265.2</ele>
        <time>2020-06-30T07:49:42Z</time>
      </trkpt>
      <trkpt lat="48.67647" lon="5.3006">
        <ele>265.3</ele>
        <time>2020-06-30T07:49:43Z</time>
      </trkpt>
      <trkpt lat="48.67644" lon="5.30056">
        <ele>265.5</ele>
        <time>2020-06-30T07:49:44Z</time>
      </trkpt>
      <trkpt lat="48.67641" lon="5.30053">
        <ele>265.7</ele>
        <time>2020-06-30T07:49:45Z</time>
      </trkpt>
      <trkpt lat="48.67637" lon="5.30048">
        <ele>265.9</ele>
        <time>2020-06-30T07:49:46Z</time>
      </trkpt>
      <trkpt lat="48.67634" lon="5.30045">
        <ele>266</ele>
        <time>2020-06-30T07:49:47Z</time>
      </trkpt>
      <trkpt lat="48.67629" lon="5.30042">
        <ele>266.3</ele>
        <time>2020-06-30T07:49:48Z</time>
      </trkpt>
      <trkpt lat="48.67626" lon="5.30038">
        <ele>266.4</ele>
        <time>2020-06-30T07:49:49Z</time>
      </trkpt>
      <trkpt lat="48.67624" lon="5.30036">
        <ele>266.5</ele>
        <time>2020-06-30T07:49:50Z</time>
      </trkpt>
      <trkpt lat="48.67621" lon="5.30033">
        <ele>266.7</ele>
        <time>2020-06-30T07:49:51Z</time>
      </trkpt>
      <trkpt lat="48.67619" lon="5.30032">
        <ele>266.7</ele>
        <time>2020-06-30T07:49:52Z</time>
      </trkpt>
      <trkpt lat="48.67615" lon="5.30029">
        <ele>266.9</ele>
        <time>2020-06-30T07:49:53Z</time>
      </trkpt>
      <trkpt lat="48.67611" lon="5.30026">
        <ele>267.1</ele>
        <time>2020-06-30T07:49:54Z</time>
      </trkpt>
      <trkpt lat="48.67608" lon="5.30023">
        <ele>267.3</ele>
        <time>2020-06-30T07:49:55Z</time>
      </trkpt>
      <trkpt lat="48.67606" lon="5.30019">
        <ele>267.4</ele>
        <time>2020-06-30T07:49:56Z</time>
      </trkpt>
      <trkpt lat="48.67603" lon="5.30015">
        <ele>267.6</ele>
        <time>2020-06-30T07:49:57Z</time>
      </trkpt>
      <trkpt lat="48.67599" lon="5.30012">
        <ele>267.8</ele>
        <time>2020-06-30T07:49:58Z</time>
      </trkpt>
      <trkpt lat="48.67597" lon="5.30008">
        <ele>267.9</ele>
        <time>2020-06-30T07:49:59Z</time>
      </trkpt>
      <trkpt lat="48.67594" lon="5.30004">
        <ele>268</ele>
        <time>2020-06-30T07:50:00Z</time>
      </trkpt>
      <trkpt lat="48.67591" lon="5.30001">
        <ele>268.2</ele>
        <time>2020-06-30T07:50:01Z</time>
      </trkpt>
      <trkpt lat="48.67589" lon="5.29996">
        <ele>268.3</ele>
        <time>2020-06-30T07:50:02Z</time>
      </trkpt>
      <trkpt lat="48.67587" lon="5.29993">
        <ele>268.4</ele>
        <time>2020-06-30T07:50:03Z</time>
      </trkpt>
      <trkpt lat="48.67584" lon="5.2999">
        <ele>268.5</ele>
        <time>2020-06-30T07:50:04Z</time>
      </trkpt>
      <trkpt lat="48.67581" lon="5.29986">
        <ele>268.7</ele>
        <time>2020-06-30T07:50:05Z</time>
      </trkpt>
      <trkpt lat="48.67579" lon="5.29982">
        <ele>268.8</ele>
        <time>2020-06-30T07:50:06Z</time>
      </trkpt>
      <trkpt lat="48.67576" lon="5.29979">
        <ele>268.9</ele>
        <time>2020-06-30T07:50:07Z</time>
      </trkpt>
      <trkpt lat="48.67573" lon="5.29975">
        <ele>269.1</ele>
        <time>2020-06-30T07:50:08Z</time>
      </trkpt>
      <trkpt lat="48.67571" lon="5.2997">
        <ele>269.2</ele>
        <time>2020-06-30T07:50:09Z</time>
      </trkpt>
      <trkpt lat="48.67569" lon="5.29965">
        <ele>269.4</ele>
        <time>2020-06-30T07:50:10Z</time>
      </trkpt>
      <trkpt lat="48.67568" lon="5.29961">
        <ele>269.5</ele>
        <time>2020-06-30T07:50:11Z</time>
      </trkpt>
      <trkpt lat="48.67565" lon="5.29957">
        <ele>269.7</ele>
        <time>2020-06-30T07:50:12Z</time>
      </trkpt>
      <trkpt lat="48.67563" lon="5.29952">
        <ele>269.9</ele>
        <time>2020-06-30T07:50:13Z</time>
      </trkpt>
      <trkpt lat="48.67562" lon="5.29946">
        <ele>270.1</ele>
        <time>2020-06-30T07:50:14Z</time>
      </trkpt>
      <trkpt lat="48.67561" lon="5.2994">
        <ele>270.3</ele>
        <time>2020-06-30T07:50:15Z</time>
      </trkpt>
      <trkpt lat="48.67559" lon="5.29934">
        <ele>270.6</ele>
        <time>2020-06-30T07:50:16Z</time>
      </trkpt>
      <trkpt lat="48.67559" lon="5.29929">
        <ele>270.7</ele>
        <time>2020-06-30T07:50:17Z</time>
      </trkpt>
      <trkpt lat="48.67558" lon="5.29924">
        <ele>270.9</ele>
        <time>2020-06-30T07:50:18Z</time>
      </trkpt>
      <trkpt lat="48.67558" lon="5.29919">
        <ele>271.1</ele>
        <time>2020-06-30T07:50:19Z</time>
      </trkpt>
      <trkpt lat="48.67557" lon="5.29913">
        <ele>271.3</ele>
        <time>2020-06-30T07:50:20Z</time>
      </trkpt>
      <trkpt lat="48.67556" lon="5.29907">
        <ele>271.5</ele>
        <time>2020-06-30T07:50:21Z</time>
      </trkpt>
      <trkpt lat="48.67557" lon="5.29902">
        <ele>271.7</ele>
        <time>2020-06-30T07:50:22Z</time>
      </trkpt>
      <trkpt lat="48.67558" lon="5.29897">
        <ele>271.9</ele>
        <time>2020-06-30T07:50:23Z</time>
      </trkpt>
      <trkpt lat="48.67558" lon="5.29892">
        <ele>272</ele>
        <time>2020-06-30T07:50:24Z</time>
      </trkpt>
      <trkpt lat="48.67558" lon="5.29887">
        <ele>272.2</ele>
        <time>2020-06-30T07:50:25Z</time>
      </trkpt>
      <trkpt lat="48.67559" lon="5.29882">
        <ele>272.3</ele>
        <time>2020-06-30T07:50:26Z</time>
      </trkpt>
      <trkpt lat="48.6756" lon="5.29876">
        <ele>272.5</ele>
        <time>2020-06-30T07:50:27Z</time>
      </trkpt>
      <trkpt lat="48.6756" lon="5.29871">
        <ele>272.7</ele>
        <time>2020-06-30T07:50:28Z</time>
      </trkpt>
      <trkpt lat="48.6756" lon="5.29865">
        <ele>272.9</ele>
        <time>2020-06-30T07:50:29Z</time>
      </trkpt>
      <trkpt lat="48.6756" lon="5.2986">
        <ele>273</ele>
        <time>2020-06-30T07:50:30Z</time>
      </trkpt>
      <trkpt lat="48.67561" lon="5.29855">
        <ele>273.2</ele>
        <time>2020-06-30T07:50:31Z</time>
      </trkpt>
      <trkpt lat="48.67561" lon="5.2985">
        <ele>273.3</ele>
        <time>2020-06-30T07:50:32Z</time>
      </trkpt>
      <trkpt lat="48.67563" lon="5.29846">
        <ele>273.4</ele>
        <time>2020-06-30T07:50:33Z</time>
      </trkpt>
      <trkpt lat="48.67563" lon="5.29841">
        <ele>273.6</ele>
        <time>2020-06-30T07:50:34Z</time>
      </trkpt>
      <trkpt lat="48.67565" lon="5.29837">
        <ele>273.7</ele>
        <time>2020-06-30T07:50:35Z</time>
      </trkpt>
      <trkpt lat="48.67567" lon="5.29832">
        <ele>273.8</ele>
        <time>2020-06-30T07:50:36Z</time>
      </trkpt>
      <trkpt lat="48.67567" lon="5.29826">
        <ele>274</ele>
        <time>2020-06-30T07:50:37Z</time>
      </trkpt>
      <trkpt lat="48.67568" lon="5.29821">
        <ele>274.2</ele>
        <time>2020-06-30T07:50:38Z</time>
      </trkpt>
      <trkpt lat="48.67569" lon="5.29817">
        <ele>274.3</ele>
        <time>2020-06-30T07:50:39Z</time>
      </trkpt>
      <trkpt lat="48.6757" lon="5.29812">
        <ele>274.4</ele>
        <time>2020-06-30T07:50:40Z</time>
      </trkpt>
      <trkpt lat="48.67571" lon="5.29807">
        <ele>274.6</ele>
        <time>2020-06-30T07:50:41Z</time>
      </trkpt>
      <trkpt lat="48.67572" lon="5.29801">
        <ele>274.8</ele>
        <time>2020-06-30T07:50:42Z</time>
      </trkpt>
      <trkpt lat="48.67572" lon="5.29796">
        <ele>274.9</ele>
        <time>2020-06-30T07:50:43Z</time>
      </trkpt>
      <trkpt lat="48.67574" lon="5.2979">
        <ele>275.1</ele>
        <time>2020-06-30T07:50:44Z</time>
      </trkpt>
      <trkpt lat="48.67574" lon="5.29786">
        <ele>275.3</ele>
        <time>2020-06-30T07:50:45Z</time>
      </trkpt>
      <trkpt lat="48.67575" lon="5.2978">
        <ele>275.5</ele>
        <time>2020-06-30T07:50:46Z</time>
      </trkpt>
      <trkpt lat="48.67576" lon="5.29774">
        <ele>275.6</ele>
        <time>2020-06-30T07:50:47Z</time>
      </trkpt>
      <trkpt lat="48.67577" lon="5.29769">
        <ele>275.8</ele>
        <time>2020-06-30T07:50:48Z</time>
      </trkpt>
      <trkpt lat="48.67578" lon="5.29764">
        <ele>275.9</ele>
        <time>2020-06-30T07:50:49Z</time>
      </trkpt>
      <trkpt lat="48.6758" lon="5.2976">
        <ele>276.1</ele>
        <time>2020-06-30T07:50:50Z</time>
      </trkpt>
      <trkpt lat="48.67581" lon="5.29755">
        <ele>276.2</ele>
        <time>2020-06-30T07:50:51Z</time>
      </trkpt>
      <trkpt lat="48.67582" lon="5.29751">
        <ele>276.4</ele>
        <time>2020-06-30T07:50:52Z</time>
      </trkpt>
      <trkpt lat="48.67583" lon="5.29746">
        <ele>276.5</ele>
        <time>2020-06-30T07:50:53Z</time>
      </trkpt>
      <trkpt lat="48.67583" lon="5.2974">
        <ele>276.7</ele>
        <time>2020-06-30T07:50:54Z</time>
      </trkpt>
      <trkpt lat="48.67583" lon="5.29737">
        <ele>276.8</ele>
        <time>2020-06-30T07:50:55Z</time>
      </trkpt>
      <trkpt lat="48.67584" lon="5.29732">
        <ele>277</ele>
        <time>2020-06-30T07:50:56Z</time>
      </trkpt>
      <trkpt lat="48.67585" lon="5.29727">
        <ele>277.1</ele>
        <time>2020-06-30T07:50:57Z</time>
      </trkpt>
      <trkpt lat="48.67585" lon="5.29721">
        <ele>277.3</ele>
        <time>2020-06-30T07:50:58Z</time>
      </trkpt>
      <trkpt lat="48.67587" lon="5.29717">
        <ele>277.4</ele>
        <time>2020-06-30T07:50:59Z</time>
      </trkpt>
      <trkpt lat="48.67589" lon="5.29712">
        <ele>277.6</ele>
        <time>2020-06-30T07:51:00Z</time>
      </trkpt>
      <trkpt lat="48.6759" lon="5.2971">
        <ele>277.7</ele>
        <time>2020-06-30T07:51:01Z</time>
      </trkpt>
      <trkpt lat="48.67591" lon="5.29705">
        <ele>277.9</ele>
        <time>2020-06-30T07:51:02Z</time>
      </trkpt>
      <trkpt lat="48.67591" lon="5.29699">
        <ele>278</ele>
        <time>2020-06-30T07:51:03Z</time>
      </trkpt>
      <trkpt lat="48.67592" lon="5.29693">
        <ele>278.2</ele>
        <time>2020-06-30T07:51:04Z</time>
      </trkpt>
      <trkpt lat="48.67593" lon="5.29688">
        <ele>278.4</ele>
        <time>2020-06-30T07:51:05Z</time>
      </trkpt>
      <trkpt lat="48.67593" lon="5.29684">
        <ele>278.5</ele>
        <time>2020-06-30T07:51:06Z</time>
      </trkpt>
      <trkpt lat="48.67594" lon="5.29679">
        <ele>278.7</ele>
        <time>2020-06-30T07:51:07Z</time>
      </trkpt>
      <trkpt lat="48.67595" lon="5.29674">
        <ele>278.8</ele>
        <time>2020-06-30T07:51:08Z</time>
      </trkpt>
      <trkpt lat="48.67596" lon="5.2967">
        <ele>279</ele>
        <time>2020-06-30T07:51:09Z</time>
      </trkpt>
      <trkpt lat="48.67598" lon="5.29665">
        <ele>279.2</ele>
        <time>2020-06-30T07:51:10Z</time>
      </trkpt>
      <trkpt lat="48.67599" lon="5.2966">
        <ele>279.3</ele>
        <time>2020-06-30T07:51:11Z</time>
      </trkpt>
      <trkpt lat="48.676" lon="5.29654">
        <ele>279.6</ele>
        <time>2020-06-30T07:51:12Z</time>
      </trkpt>
      <trkpt lat="48.676" lon="5.29652">
        <ele>279.6</ele>
        <time>2020-06-30T07:51:13Z</time>
      </trkpt>
      <trkpt lat="48.67601" lon="5.29647">
        <ele>279.8</ele>
        <time>2020-06-30T07:51:14Z</time>
      </trkpt>
      <trkpt lat="48.67602" lon="5.29642">
        <ele>280</ele>
        <time>2020-06-30T07:51:15Z</time>
      </trkpt>
      <trkpt lat="48.67602" lon="5.29636">
        <ele>280.2</ele>
        <time>2020-06-30T07:51:16Z</time>
      </trkpt>
      <trkpt lat="48.67603" lon="5.29632">
        <ele>280.3</ele>
        <time>2020-06-30T07:51:17Z</time>
      </trkpt>
      <trkpt lat="48.67603" lon="5.29627">
        <ele>280.5</ele>
        <time>2020-06-30T07:51:18Z</time>
      </trkpt>
      <trkpt lat="48.67604" lon="5.29622">
        <ele>280.6</ele>
        <time>2020-06-30T07:51:19Z</time>
      </trkpt>
      <trkpt lat="48.67604" lon="5.29617">
        <ele>280.8</ele>
        <time>2020-06-30T07:51:20Z</time>
      </trkpt>
      <trkpt lat="48.67605" lon="5.29611">
        <ele>280.9</ele>
        <time>2020-06-30T07:51:21Z</time>
      </trkpt>
      <trkpt lat="48.67605" lon="5.29605">
        <ele>281.1</ele>
        <time>2020-06-30T07:51:22Z</time>
      </trkpt>
      <trkpt lat="48.67605" lon="5.29601">
        <ele>281.3</ele>
        <time>2020-06-30T07:51:23Z</time>
      </trkpt>
      <trkpt lat="48.67606" lon="5.29596">
        <ele>281.4</ele>
        <time>2020-06-30T07:51:24Z</time>
      </trkpt>
      <trkpt lat="48.67607" lon="5.29592">
        <ele>281.6</ele>
        <time>2020-06-30T07:51:25Z</time>
      </trkpt>
      <trkpt lat="48.67607" lon="5.29587">
        <ele>281.7</ele>
        <time>2020-06-30T07:51:26Z</time>
      </trkpt>
      <trkpt lat="48.67608" lon="5.29582">
        <ele>281.9</ele>
        <time>2020-06-30T07:51:27Z</time>
      </trkpt>
      <trkpt lat="48.67608" lon="5.29577">
        <ele>282</ele>
        <time>2020-06-30T07:51:28Z</time>
      </trkpt>
      <trkpt lat="48.67609" lon="5.29572">
        <ele>282.2</ele>
        <time>2020-06-30T07:51:29Z</time>
      </trkpt>
      <trkpt lat="48.67609" lon="5.29567">
        <ele>282.3</ele>
        <time>2020-06-30T07:51:30Z</time>
      </trkpt>
      <trkpt lat="48.6761" lon="5.29562">
        <ele>282.5</ele>
        <time>2020-06-30T07:51:31Z</time>
      </trkpt>
      <trkpt lat="48.67611" lon="5.29557">
        <ele>282.7</ele>
        <time>2020-06-30T07:51:32Z</time>
      </trkpt>
      <trkpt lat="48.67612" lon="5.29553">
        <ele>282.8</ele>
        <time>2020-06-30T07:51:33Z</time>
      </trkpt>
      <trkpt lat="48.67613" lon="5.29548">
        <ele>282.9</ele>
        <time>2020-06-30T07:51:34Z</time>
      </trkpt>
      <trkpt lat="48.67613" lon="5.29543">
        <ele>283.1</ele>
        <time>2020-06-30T07:51:35Z</time>
      </trkpt>
      <trkpt lat="48.67613" lon="5.29538">
        <ele>283.3</ele>
        <time>2020-06-30T07:51:36Z</time>
      </trkpt>
      <trkpt lat="48.67612" lon="5.29533">
        <ele>283.4</ele>
        <time>2020-06-30T07:51:37Z</time>
      </trkpt>
      <trkpt lat="48.67612" lon="5.29529">
        <ele>283.5</ele>
        <time>2020-06-30T07:51:38Z</time>
      </trkpt>
      <trkpt lat="48.67612" lon="5.29524">
        <ele>283.7</ele>
        <time>2020-06-30T07:51:39Z</time>
      </trkpt>
      <trkpt lat="48.67612" lon="5.29518">
        <ele>283.8</ele>
        <time>2020-06-30T07:51:40Z</time>
      </trkpt>
      <trkpt lat="48.67612" lon="5.29512">
        <ele>284</ele>
        <time>2020-06-30T07:51:41Z</time>
      </trkpt>
      <trkpt lat="48.67612" lon="5.29507">
        <ele>284.1</ele>
        <time>2020-06-30T07:51:42Z</time>
      </trkpt>
      <trkpt lat="48.67611" lon="5.29501">
        <ele>284.2</ele>
        <time>2020-06-30T07:51:43Z</time>
      </trkpt>
      <trkpt lat="48.6761" lon="5.29499">
        <ele>284.3</ele>
        <time>2020-06-30T07:51:44Z</time>
      </trkpt>
      <trkpt lat="48.67608" lon="5.29495">
        <ele>284.4</ele>
        <time>2020-06-30T07:51:45Z</time>
      </trkpt>
      <trkpt lat="48.67608" lon="5.2949">
        <ele>284.6</ele>
        <time>2020-06-30T07:51:46Z</time>
      </trkpt>
      <trkpt lat="48.67606" lon="5.29485">
        <ele>284.7</ele>
        <time>2020-06-30T07:51:47Z</time>
      </trkpt>
      <trkpt lat="48.67604" lon="5.29481">
        <ele>284.9</ele>
        <time>2020-06-30T07:51:48Z</time>
      </trkpt>
      <trkpt lat="48.67601" lon="5.29477">
        <ele>285</ele>
        <time>2020-06-30T07:51:49Z</time>
      </trkpt>
      <trkpt lat="48.67599" lon="5.29474">
        <ele>285.1</ele>
        <time>2020-06-30T07:51:50Z</time>
      </trkpt>
      <trkpt lat="48.67596" lon="5.29472">
        <ele>285.3</ele>
        <time>2020-06-30T07:51:51Z</time>
      </trkpt>
      <trkpt lat="48.67593" lon="5.2947">
        <ele>285.4</ele>
        <time>2020-06-30T07:51:52Z</time>
      </trkpt>
      <trkpt lat="48.67589" lon="5.29471">
        <ele>285.6</ele>
        <time>2020-06-30T07:51:53Z</time>
      </trkpt>
      <trkpt lat="48.67587" lon="5.29472">
        <ele>285.6</ele>
        <time>2020-06-30T07:51:54Z</time>
      </trkpt>
      <trkpt lat="48.67584" lon="5.29472">
        <ele>285.8</ele>
        <time>2020-06-30T07:51:55Z</time>
      </trkpt>
      <trkpt lat="48.67581" lon="5.29474">
        <ele>285.9</ele>
        <time>2020-06-30T07:51:56Z</time>
      </trkpt>
      <trkpt lat="48.67578" lon="5.29476">
        <ele>286</ele>
        <time>2020-06-30T07:51:57Z</time>
      </trkpt>
      <trkpt lat="48.67575" lon="5.29478">
        <ele>286.1</ele>
        <time>2020-06-30T07:51:58Z</time>
      </trkpt>
      <trkpt lat="48.67573" lon="5.29481">
        <ele>286.3</ele>
        <time>2020-06-30T07:51:59Z</time>
      </trkpt>
      <trkpt lat="48.6757" lon="5.29486">
        <ele>286.4</ele>
        <time>2020-06-30T07:52:00Z</time>
      </trkpt>
      <trkpt lat="48.67568" lon="5.2949">
        <ele>286.6</ele>
        <time>2020-06-30T07:52:01Z</time>
      </trkpt>
      <trkpt lat="48.67565" lon="5.29494">
        <ele>286.8</ele>
        <time>2020-06-30T07:52:02Z</time>
      </trkpt>
      <trkpt lat="48.67564" lon="5.29499">
        <ele>286.9</ele>
        <time>2020-06-30T07:52:03Z</time>
      </trkpt>
      <trkpt lat="48.67562" lon="5.29503">
        <ele>287.1</ele>
        <time>2020-06-30T07:52:04Z</time>
      </trkpt>
      <trkpt lat="48.67561" lon="5.29508">
        <ele>287.2</ele>
        <time>2020-06-30T07:52:05Z</time>
      </trkpt>
      <trkpt lat="48.6756" lon="5.29513">
        <ele>287.4</ele>
        <time>2020-06-30T07:52:06Z</time>
      </trkpt>
      <trkpt lat="48.67558" lon="5.29519">
        <ele>287.6</ele>
        <time>2020-06-30T07:52:07Z</time>
      </trkpt>
      <trkpt lat="48.67556" lon="5.29525">
        <ele>287.8</ele>
        <time>2020-06-30T07:52:08Z</time>
      </trkpt>
      <trkpt lat="48.67554" lon="5.29529">
        <ele>287.9</ele>
        <time>2020-06-30T07:52:09Z</time>
      </trkpt>
      <trkpt lat="48.67552" lon="5.29534">
        <ele>288.1</ele>
        <time>2020-06-30T07:52:10Z</time>
      </trkpt>
      <trkpt lat="48.6755" lon="5.29539">
        <ele>288.2</ele>
        <time>2020-06-30T07:52:11Z</time>
      </trkpt>
      <trkpt lat="48.67548" lon="5.29545">
        <ele>288.4</ele>
        <time>2020-06-30T07:52:12Z</time>
      </trkpt>
      <trkpt lat="48.67546" lon="5.29549">
        <ele>288.5</ele>
        <time>2020-06-30T07:52:13Z</time>
      </trkpt>
      <trkpt lat="48.67545" lon="5.29553">
        <ele>288.6</ele>
        <time>2020-06-30T07:52:14Z</time>
      </trkpt>
      <trkpt lat="48.67543" lon="5.29558">
        <ele>288.8</ele>
        <time>2020-06-30T07:52:15Z</time>
      </trkpt>
      <trkpt lat="48.67541" lon="5.29563">
        <ele>288.9</ele>
        <time>2020-06-30T07:52:16Z</time>
      </trkpt>
      <trkpt lat="48.67539" lon="5.29567">
        <ele>289</ele>
        <time>2020-06-30T07:52:17Z</time>
      </trkpt>
      <trkpt lat="48.67537" lon="5.29572">
        <ele>289.1</ele>
        <time>2020-06-30T07:52:18Z</time>
      </trkpt>
      <trkpt lat="48.67535" lon="5.29576">
        <ele>289.2</ele>
        <time>2020-06-30T07:52:19Z</time>
      </trkpt>
      <trkpt lat="48.67533" lon="5.29582">
        <ele>289.3</ele>
        <time>2020-06-30T07:52:20Z</time>
      </trkpt>
      <trkpt lat="48.67532" lon="5.29587">
        <ele>289.7</ele>
        <time>2020-06-30T07:52:21Z</time>
      </trkpt>
      <trkpt lat="48.6753" lon="5.29592">
        <ele>290</ele>
        <time>2020-06-30T07:52:22Z</time>
      </trkpt>
      <trkpt lat="48.67528" lon="5.29598">
        <ele>290.2</ele>
        <time>2020-06-30T07:52:23Z</time>
      </trkpt>
      <trkpt lat="48.67527" lon="5.29602">
        <ele>290.3</ele>
        <time>2020-06-30T07:52:24Z</time>
      </trkpt>
      <trkpt lat="48.67525" lon="5.29606">
        <ele>290.5</ele>
        <time>2020-06-30T07:52:25Z</time>
      </trkpt>
      <trkpt lat="48.67523" lon="5.2961">
        <ele>290.6</ele>
        <time>2020-06-30T07:52:26Z</time>
      </trkpt>
      <trkpt lat="48.67521" lon="5.29613">
        <ele>290.8</ele>
        <time>2020-06-30T07:52:27Z</time>
      </trkpt>
      <trkpt lat="48.67519" lon="5.29619">
        <ele>291</ele>
        <time>2020-06-30T07:52:28Z</time>
      </trkpt>
      <trkpt lat="48.67517" lon="5.29625">
        <ele>291.1</ele>
        <time>2020-06-30T07:52:29Z</time>
      </trkpt>
      <trkpt lat="48.67515" lon="5.2963">
        <ele>291.3</ele>
        <time>2020-06-30T07:52:30Z</time>
      </trkpt>
      <trkpt lat="48.67513" lon="5.29635">
        <ele>291.5</ele>
        <time>2020-06-30T07:52:31Z</time>
      </trkpt>
      <trkpt lat="48.67512" lon="5.2964">
        <ele>291.6</ele>
        <time>2020-06-30T07:52:32Z</time>
      </trkpt>
      <trkpt lat="48.67509" lon="5.29645">
        <ele>291.8</ele>
        <time>2020-06-30T07:52:33Z</time>
      </trkpt>
      <trkpt lat="48.67508" lon="5.29648">
        <ele>291.9</ele>
        <time>2020-06-30T07:52:34Z</time>
      </trkpt>
      <trkpt lat="48.67507" lon="5.29653">
        <ele>292.1</ele>
        <time>2020-06-30T07:52:35Z</time>
      </trkpt>
      <trkpt lat="48.67505" lon="5.29658">
        <ele>292.2</ele>
        <time>2020-06-30T07:52:36Z</time>
      </trkpt>
      <trkpt lat="48.67504" lon="5.2966">
        <ele>292.3</ele>
        <time>2020-06-30T07:52:37Z</time>
      </trkpt>
      <trkpt lat="48.67502" lon="5.29666">
        <ele>292.5</ele>
        <time>2020-06-30T07:52:38Z</time>
      </trkpt>
      <trkpt lat="48.675" lon="5.29668">
        <ele>292.6</ele>
        <time>2020-06-30T07:52:39Z</time>
      </trkpt>
      <trkpt lat="48.67499" lon="5.29673">
        <ele>292.8</ele>
        <time>2020-06-30T07:52:40Z</time>
      </trkpt>
      <trkpt lat="48.67497" lon="5.29677">
        <ele>292.9</ele>
        <time>2020-06-30T07:52:41Z</time>
      </trkpt>
      <trkpt lat="48.67495" lon="5.29682">
        <ele>293.1</ele>
        <time>2020-06-30T07:52:42Z</time>
      </trkpt>
      <trkpt lat="48.67493" lon="5.29688">
        <ele>293.3</ele>
        <time>2020-06-30T07:52:43Z</time>
      </trkpt>
      <trkpt lat="48.67492" lon="5.2969">
        <ele>293.4</ele>
        <time>2020-06-30T07:52:44Z</time>
      </trkpt>
      <trkpt lat="48.6749" lon="5.29696">
        <ele>293.6</ele>
        <time>2020-06-30T07:52:45Z</time>
      </trkpt>
      <trkpt lat="48.67488" lon="5.29701">
        <ele>293.7</ele>
        <time>2020-06-30T07:52:46Z</time>
      </trkpt>
      <trkpt lat="48.67487" lon="5.29707">
        <ele>294</ele>
        <time>2020-06-30T07:52:47Z</time>
      </trkpt>
      <trkpt lat="48.67485" lon="5.29712">
        <ele>294.2</ele>
        <time>2020-06-30T07:52:48Z</time>
      </trkpt>
      <trkpt lat="48.67483" lon="5.29716">
        <ele>294.4</ele>
        <time>2020-06-30T07:52:49Z</time>
      </trkpt>
      <trkpt lat="48.67482" lon="5.29721">
        <ele>294.6</ele>
        <time>2020-06-30T07:52:50Z</time>
      </trkpt>
      <trkpt lat="48.6748" lon="5.29727">
        <ele>294.8</ele>
        <time>2020-06-30T07:52:51Z</time>
      </trkpt>
      <trkpt lat="48.67479" lon="5.29729">
        <ele>294.9</ele>
        <time>2020-06-30T07:52:52Z</time>
      </trkpt>
      <trkpt lat="48.67478" lon="5.29733">
        <ele>295</ele>
        <time>2020-06-30T07:52:53Z</time>
      </trkpt>
      <trkpt lat="48.67478" lon="5.29737">
        <ele>295.2</ele>
        <time>2020-06-30T07:52:54Z</time>
      </trkpt>
      <trkpt lat="48.67477" lon="5.29741">
        <ele>295.3</ele>
        <time>2020-06-30T07:52:55Z</time>
      </trkpt>
      <trkpt lat="48.67476" lon="5.29747">
        <ele>295.5</ele>
        <time>2020-06-30T07:52:56Z</time>
      </trkpt>
      <trkpt lat="48.67475" lon="5.29752">
        <ele>295.7</ele>
        <time>2020-06-30T07:52:57Z</time>
      </trkpt>
      <trkpt lat="48.67474" lon="5.29756">
        <ele>295.9</ele>
        <time>2020-06-30T07:52:58Z</time>
      </trkpt>
      <trkpt lat="48.67472" lon="5.2976">
        <ele>296</ele>
        <time>2020-06-30T07:52:59Z</time>
      </trkpt>
      <trkpt lat="48.6747" lon="5.29766">
        <ele>296.2</ele>
        <time>2020-06-30T07:53:00Z</time>
      </trkpt>
      <trkpt lat="48.67469" lon="5.2977">
        <ele>296.4</ele>
        <time>2020-06-30T07:53:01Z</time>
      </trkpt>
      <trkpt lat="48.67467" lon="5.29776">
        <ele>296.6</ele>
        <time>2020-06-30T07:53:02Z</time>
      </trkpt>
      <trkpt lat="48.67465" lon="5.2978">
        <ele>296.8</ele>
        <time>2020-06-30T07:53:03Z</time>
      </trkpt>
      <trkpt lat="48.67463" lon="5.29784">
        <ele>297</ele>
        <time>2020-06-30T07:53:04Z</time>
      </trkpt>
      <trkpt lat="48.67461" lon="5.29787">
        <ele>297.1</ele>
        <time>2020-06-30T07:53:05Z</time>
      </trkpt>
      <trkpt lat="48.67458" lon="5.29791">
        <ele>297.3</ele>
        <time>2020-06-30T07:53:06Z</time>
      </trkpt>
      <trkpt lat="48.67455" lon="5.29794">
        <ele>297.5</ele>
        <time>2020-06-30T07:53:07Z</time>
      </trkpt>
      <trkpt lat="48.67452" lon="5.29797">
        <ele>297.7</ele>
        <time>2020-06-30T07:53:08Z</time>
      </trkpt>
      <trkpt lat="48.67448" lon="5.29799">
        <ele>297.9</ele>
        <time>2020-06-30T07:53:09Z</time>
      </trkpt>
      <trkpt lat="48.67445" lon="5.29802">
        <ele>298.1</ele>
        <time>2020-06-30T07:53:10Z</time>
      </trkpt>
      <trkpt lat="48.67441" lon="5.29803">
        <ele>298.3</ele>
        <time>2020-06-30T07:53:11Z</time>
      </trkpt>
      <trkpt lat="48.67438" lon="5.29803">
        <ele>298.4</ele>
        <time>2020-06-30T07:53:12Z</time>
      </trkpt>
      <trkpt lat="48.67434" lon="5.29804">
        <ele>298.6</ele>
        <time>2020-06-30T07:53:13Z</time>
      </trkpt>
      <trkpt lat="48.6743" lon="5.29804">
        <ele>298.9</ele>
        <time>2020-06-30T07:53:14Z</time>
      </trkpt>
      <trkpt lat="48.67426" lon="5.29802">
        <ele>299</ele>
        <time>2020-06-30T07:53:15Z</time>
      </trkpt>
      <trkpt lat="48.67423" lon="5.298">
        <ele>299.2</ele>
        <time>2020-06-30T07:53:16Z</time>
      </trkpt>
      <trkpt lat="48.6742" lon="5.29799">
        <ele>299.4</ele>
        <time>2020-06-30T07:53:17Z</time>
      </trkpt>
      <trkpt lat="48.67417" lon="5.29796">
        <ele>299.6</ele>
        <time>2020-06-30T07:53:18Z</time>
      </trkpt>
      <trkpt lat="48.67414" lon="5.29793">
        <ele>299.8</ele>
        <time>2020-06-30T07:53:19Z</time>
      </trkpt>
      <trkpt lat="48.67411" lon="5.2979">
        <ele>300</ele>
        <time>2020-06-30T07:53:20Z</time>
      </trkpt>
      <trkpt lat="48.67409" lon="5.29785">
        <ele>300.2</ele>
        <time>2020-06-30T07:53:21Z</time>
      </trkpt>
      <trkpt lat="48.67406" lon="5.29784">
        <ele>300.3</ele>
        <time>2020-06-30T07:53:22Z</time>
      </trkpt>
      <trkpt lat="48.67404" lon="5.29781">
        <ele>300.5</ele>
        <time>2020-06-30T07:53:23Z</time>
      </trkpt>
      <trkpt lat="48.67401" lon="5.29778">
        <ele>300.7</ele>
        <time>2020-06-30T07:53:24Z</time>
      </trkpt>
      <trkpt lat="48.67399" lon="5.29776">
        <ele>300.8</ele>
        <time>2020-06-30T07:53:25Z</time>
      </trkpt>
      <trkpt lat="48.67397" lon="5.29772">
        <ele>301</ele>
        <time>2020-06-30T07:53:26Z</time>
      </trkpt>
      <trkpt lat="48.67394" lon="5.2977">
        <ele>301.2</ele>
        <time>2020-06-30T07:53:27Z</time>
      </trkpt>
      <trkpt lat="48.67392" lon="5.29766">
        <ele>301.4</ele>
        <time>2020-06-30T07:53:28Z</time>
      </trkpt>
      <trkpt lat="48.67389" lon="5.29762">
        <ele>301.6</ele>
        <time>2020-06-30T07:53:29Z</time>
      </trkpt>
      <trkpt lat="48.67389" lon="5.29761">
        <ele>301.6</ele>
        <time>2020-06-30T07:53:30Z</time>
      </trkpt>
      <trkpt lat="48.67385" lon="5.29757">
        <ele>301.9</ele>
        <time>2020-06-30T07:53:31Z</time>
      </trkpt>
      <trkpt lat="48.67384" lon="5.29756">
        <ele>301.9</ele>
        <time>2020-06-30T07:53:32Z</time>
      </trkpt>
      <trkpt lat="48.67382" lon="5.29753">
        <ele>302.1</ele>
        <time>2020-06-30T07:53:33Z</time>
      </trkpt>
      <trkpt lat="48.6738" lon="5.29749">
        <ele>302.2</ele>
        <time>2020-06-30T07:53:34Z</time>
      </trkpt>
      <trkpt lat="48.67378" lon="5.29746">
        <ele>302.4</ele>
        <time>2020-06-30T07:53:35Z</time>
      </trkpt>
      <trkpt lat="48.67376" lon="5.29743">
        <ele>302.5</ele>
        <time>2020-06-30T07:53:36Z</time>
      </trkpt>
      <trkpt lat="48.67374" lon="5.29739">
        <ele>302.7</ele>
        <time>2020-06-30T07:53:37Z</time>
      </trkpt>
      <trkpt lat="48.67372" lon="5.29735">
        <ele>302.8</ele>
        <time>2020-06-30T07:53:38Z</time>
      </trkpt>
      <trkpt lat="48.67369" lon="5.29731">
        <ele>303</ele>
        <time>2020-06-30T07:53:39Z</time>
      </trkpt>
      <trkpt lat="48.67367" lon="5.29727">
        <ele>303.1</ele>
        <time>2020-06-30T07:53:40Z</time>
      </trkpt>
      <trkpt lat="48.67365" lon="5.29723">
        <ele>303.2</ele>
        <time>2020-06-30T07:53:41Z</time>
      </trkpt>
      <trkpt lat="48.67363" lon="5.29719">
        <ele>303.4</ele>
        <time>2020-06-30T07:53:42Z</time>
      </trkpt>
      <trkpt lat="48.6736" lon="5.29716">
        <ele>303.5</ele>
        <time>2020-06-30T07:53:43Z</time>
      </trkpt>
      <trkpt lat="48.67358" lon="5.29712">
        <ele>303.6</ele>
        <time>2020-06-30T07:53:44Z</time>
      </trkpt>
      <trkpt lat="48.67356" lon="5.29707">
        <ele>303.8</ele>
        <time>2020-06-30T07:53:45Z</time>
      </trkpt>
      <trkpt lat="48.67355" lon="5.29703">
        <ele>303.9</ele>
        <time>2020-06-30T07:53:46Z</time>
      </trkpt>
      <trkpt lat="48.67353" lon="5.29699">
        <ele>304</ele>
        <time>2020-06-30T07:53:47Z</time>
      </trkpt>
      <trkpt lat="48.67351" lon="5.29695">
        <ele>304.1</ele>
        <time>2020-06-30T07:53:48Z</time>
      </trkpt>
      <trkpt lat="48.67349" lon="5.2969">
        <ele>304.2</ele>
        <time>2020-06-30T07:53:49Z</time>
      </trkpt>
      <trkpt lat="48.67348" lon="5.29688">
        <ele>304.2</ele>
        <time>2020-06-30T07:53:50Z</time>
      </trkpt>
      <trkpt lat="48.67347" lon="5.29684">
        <ele>304.3</ele>
        <time>2020-06-30T07:53:51Z</time>
      </trkpt>
      <trkpt lat="48.67345" lon="5.2968">
        <ele>304.4</ele>
        <time>2020-06-30T07:53:52Z</time>
      </trkpt>
      <trkpt lat="48.67343" lon="5.29676">
        <ele>304.5</ele>
        <time>2020-06-30T07:53:53Z</time>
      </trkpt>
      <trkpt lat="48.67341" lon="5.2967">
        <ele>304.6</ele>
        <time>2020-06-30T07:53:54Z</time>
      </trkpt>
      <trkpt lat="48.6734" lon="5.29668">
        <ele>304.6</ele>
        <time>2020-06-30T07:53:55Z</time>
      </trkpt>
      <trkpt lat="48.67338" lon="5.29665">
        <ele>304.7</ele>
        <time>2020-06-30T07:53:56Z</time>
      </trkpt>
      <trkpt lat="48.67336" lon="5.2966">
        <ele>304.8</ele>
        <time>2020-06-30T07:53:57Z</time>
      </trkpt>
      <trkpt lat="48.67336" lon="5.29659">
        <ele>304.9</ele>
        <time>2020-06-30T07:53:58Z</time>
      </trkpt>
      <trkpt lat="48.67334" lon="5.29655">
        <ele>304.9</ele>
        <time>2020-06-30T07:53:59Z</time>
      </trkpt>
      <trkpt lat="48.67332" lon="5.29652">
        <ele>305</ele>
        <time>2020-06-30T07:54:00Z</time>
      </trkpt>
      <trkpt lat="48.6733" lon="5.29648">
        <ele>305.1</ele>
        <time>2020-06-30T07:54:01Z</time>
      </trkpt>
      <trkpt lat="48.67328" lon="5.29644">
        <ele>305.2</ele>
        <time>2020-06-30T07:54:02Z</time>
      </trkpt>
      <trkpt lat="48.67326" lon="5.29639">
        <ele>305.3</ele>
        <time>2020-06-30T07:54:03Z</time>
      </trkpt>
      <trkpt lat="48.67324" lon="5.29634">
        <ele>305.4</ele>
        <time>2020-06-30T07:54:04Z</time>
      </trkpt>
      <trkpt lat="48.67321" lon="5.2963">
        <ele>305.5</ele>
        <time>2020-06-30T07:54:05Z</time>
      </trkpt>
      <trkpt lat="48.67318" lon="5.29627">
        <ele>305.6</ele>
        <time>2020-06-30T07:54:06Z</time>
      </trkpt>
      <trkpt lat="48.67316" lon="5.29623">
        <ele>305.7</ele>
        <time>2020-06-30T07:54:07Z</time>
      </trkpt>
      <trkpt lat="48.67314" lon="5.29619">
        <ele>305.9</ele>
        <time>2020-06-30T07:54:08Z</time>
      </trkpt>
      <trkpt lat="48.67311" lon="5.29615">
        <ele>306</ele>
        <time>2020-06-30T07:54:09Z</time>
      </trkpt>
      <trkpt lat="48.67309" lon="5.2961">
        <ele>306.2</ele>
        <time>2020-06-30T07:54:10Z</time>
      </trkpt>
      <trkpt lat="48.67306" lon="5.29605">
        <ele>306.4</ele>
        <time>2020-06-30T07:54:11Z</time>
      </trkpt>
      <trkpt lat="48.67305" lon="5.296">
        <ele>306.5</ele>
        <time>2020-06-30T07:54:12Z</time>
      </trkpt>
      <trkpt lat="48.67303" lon="5.29596">
        <ele>306.6</ele>
        <time>2020-06-30T07:54:13Z</time>
      </trkpt>
      <trkpt lat="48.673" lon="5.29593">
        <ele>306.8</ele>
        <time>2020-06-30T07:54:14Z</time>
      </trkpt>
      <trkpt lat="48.67298" lon="5.29587">
        <ele>306.9</ele>
        <time>2020-06-30T07:54:15Z</time>
      </trkpt>
      <trkpt lat="48.67297" lon="5.29582">
        <ele>307.1</ele>
        <time>2020-06-30T07:54:16Z</time>
      </trkpt>
      <trkpt lat="48.67295" lon="5.29578">
        <ele>307.2</ele>
        <time>2020-06-30T07:54:17Z</time>
      </trkpt>
      <trkpt lat="48.67293" lon="5.29573">
        <ele>307.4</ele>
        <time>2020-06-30T07:54:18Z</time>
      </trkpt>
      <trkpt lat="48.67292" lon="5.29567">
        <ele>307.5</ele>
        <time>2020-06-30T07:54:19Z</time>
      </trkpt>
      <trkpt lat="48.6729" lon="5.29563">
        <ele>307.7</ele>
        <time>2020-06-30T07:54:20Z</time>
      </trkpt>
      <trkpt lat="48.6729" lon="5.29558">
        <ele>307.8</ele>
        <time>2020-06-30T07:54:21Z</time>
      </trkpt>
      <trkpt lat="48.67288" lon="5.29553">
        <ele>308</ele>
        <time>2020-06-30T07:54:22Z</time>
      </trkpt>
      <trkpt lat="48.67287" lon="5.29551">
        <ele>308.1</ele>
        <time>2020-06-30T07:54:23Z</time>
      </trkpt>
      <trkpt lat="48.67285" lon="5.29547">
        <ele>308.2</ele>
        <time>2020-06-30T07:54:24Z</time>
      </trkpt>
      <trkpt lat="48.67283" lon="5.29543">
        <ele>308.4</ele>
        <time>2020-06-30T07:54:25Z</time>
      </trkpt>
      <trkpt lat="48.67281" lon="5.29537">
        <ele>308.6</ele>
        <time>2020-06-30T07:54:26Z</time>
      </trkpt>
      <trkpt lat="48.67279" lon="5.29533">
        <ele>308.8</ele>
        <time>2020-06-30T07:54:27Z</time>
      </trkpt>
      <trkpt lat="48.67277" lon="5.29528">
        <ele>309</ele>
        <time>2020-06-30T07:54:28Z</time>
      </trkpt>
      <trkpt lat="48.67275" lon="5.29524">
        <ele>309.1</ele>
        <time>2020-06-30T07:54:29Z</time>
      </trkpt>
      <trkpt lat="48.67274" lon="5.29519">
        <ele>309.3</ele>
        <time>2020-06-30T07:54:30Z</time>
      </trkpt>
      <trkpt lat="48.67273" lon="5.29516">
        <ele>309.4</ele>
        <time>2020-06-30T07:54:31Z</time>
      </trkpt>
      <trkpt lat="48.67271" lon="5.2951">
        <ele>309.6</ele>
        <time>2020-06-30T07:54:32Z</time>
      </trkpt>
      <trkpt lat="48.67271" lon="5.29508">
        <ele>309.6</ele>
        <time>2020-06-30T07:54:33Z</time>
      </trkpt>
      <trkpt lat="48.67269" lon="5.29504">
        <ele>309.8</ele>
        <time>2020-06-30T07:54:34Z</time>
      </trkpt>
      <trkpt lat="48.67268" lon="5.295">
        <ele>309.9</ele>
        <time>2020-06-30T07:54:35Z</time>
      </trkpt>
      <trkpt lat="48.67267" lon="5.29496">
        <ele>310.1</ele>
        <time>2020-06-30T07:54:36Z</time>
      </trkpt>
      <trkpt lat="48.67266" lon="5.29492">
        <ele>310.2</ele>
        <time>2020-06-30T07:54:37Z</time>
      </trkpt>
      <trkpt lat="48.67263" lon="5.29489">
        <ele>310.4</ele>
        <time>2020-06-30T07:54:38Z</time>
      </trkpt>
      <trkpt lat="48.67262" lon="5.29485">
        <ele>310.5</ele>
        <time>2020-06-30T07:54:39Z</time>
      </trkpt>
      <trkpt lat="48.6726" lon="5.2948">
        <ele>310.7</ele>
        <time>2020-06-30T07:54:40Z</time>
      </trkpt>
      <trkpt lat="48.67258" lon="5.29476">
        <ele>310.8</ele>
        <time>2020-06-30T07:54:41Z</time>
      </trkpt>
      <trkpt lat="48.67256" lon="5.29472">
        <ele>311</ele>
        <time>2020-06-30T07:54:42Z</time>
      </trkpt>
      <trkpt lat="48.67254" lon="5.29468">
        <ele>311.1</ele>
        <time>2020-06-30T07:54:43Z</time>
      </trkpt>
      <trkpt lat="48.67251" lon="5.29462">
        <ele>311.3</ele>
        <time>2020-06-30T07:54:44Z</time>
      </trkpt>
      <trkpt lat="48.6725" lon="5.29457">
        <ele>311.4</ele>
        <time>2020-06-30T07:54:45Z</time>
      </trkpt>
      <trkpt lat="48.67248" lon="5.29452">
        <ele>311.6</ele>
        <time>2020-06-30T07:54:46Z</time>
      </trkpt>
      <trkpt lat="48.67247" lon="5.29447">
        <ele>311.7</ele>
        <time>2020-06-30T07:54:47Z</time>
      </trkpt>
      <trkpt lat="48.67245" lon="5.29443">
        <ele>311.9</ele>
        <time>2020-06-30T07:54:48Z</time>
      </trkpt>
      <trkpt lat="48.67244" lon="5.29438">
        <ele>312</ele>
        <time>2020-06-30T07:54:49Z</time>
      </trkpt>
      <trkpt lat="48.67242" lon="5.29433">
        <ele>312.2</ele>
        <time>2020-06-30T07:54:50Z</time>
      </trkpt>
      <trkpt lat="48.6724" lon="5.29429">
        <ele>312.4</ele>
        <time>2020-06-30T07:54:51Z</time>
      </trkpt>
      <trkpt lat="48.67239" lon="5.29423">
        <ele>312.5</ele>
        <time>2020-06-30T07:54:52Z</time>
      </trkpt>
      <trkpt lat="48.67237" lon="5.29417">
        <ele>312.7</ele>
        <time>2020-06-30T07:54:53Z</time>
      </trkpt>
      <trkpt lat="48.67236" lon="5.29415">
        <ele>312.8</ele>
        <time>2020-06-30T07:54:54Z</time>
      </trkpt>
      <trkpt lat="48.67235" lon="5.29411">
        <ele>313</ele>
        <time>2020-06-30T07:54:55Z</time>
      </trkpt>
      <trkpt lat="48.67233" lon="5.29407">
        <ele>313.1</ele>
        <time>2020-06-30T07:54:56Z</time>
      </trkpt>
      <trkpt lat="48.67231" lon="5.29403">
        <ele>313.3</ele>
        <time>2020-06-30T07:54:57Z</time>
      </trkpt>
      <trkpt lat="48.6723" lon="5.29397">
        <ele>313.4</ele>
        <time>2020-06-30T07:54:58Z</time>
      </trkpt>
      <trkpt lat="48.6723" lon="5.29394">
        <ele>313.5</ele>
        <time>2020-06-30T07:54:59Z</time>
      </trkpt>
      <trkpt lat="48.67229" lon="5.2939">
        <ele>313.7</ele>
        <time>2020-06-30T07:55:00Z</time>
      </trkpt>
      <trkpt lat="48.67227" lon="5.29385">
        <ele>313.9</ele>
        <time>2020-06-30T07:55:01Z</time>
      </trkpt>
      <trkpt lat="48.67226" lon="5.29379">
        <ele>314</ele>
        <time>2020-06-30T07:55:02Z</time>
      </trkpt>
      <trkpt lat="48.67223" lon="5.29373">
        <ele>314.2</ele>
        <time>2020-06-30T07:55:03Z</time>
      </trkpt>
      <trkpt lat="48.67222" lon="5.29367">
        <ele>314.4</ele>
        <time>2020-06-30T07:55:04Z</time>
      </trkpt>
      <trkpt lat="48.67221" lon="5.29362">
        <ele>314.6</ele>
        <time>2020-06-30T07:55:05Z</time>
      </trkpt>
      <trkpt lat="48.6722" lon="5.2936">
        <ele>314.7</ele>
        <time>2020-06-30T07:55:06Z</time>
      </trkpt>
      <trkpt lat="48.67219" lon="5.29356">
        <ele>314.8</ele>
        <time>2020-06-30T07:55:07Z</time>
      </trkpt>
      <trkpt lat="48.67218" lon="5.29351">
        <ele>315</ele>
        <time>2020-06-30T07:55:08Z</time>
      </trkpt>
      <trkpt lat="48.67218" lon="5.29349">
        <ele>315</ele>
        <time>2020-06-30T07:55:09Z</time>
      </trkpt>
      <trkpt lat="48.67217" lon="5.29344">
        <ele>315.2</ele>
        <time>2020-06-30T07:55:10Z</time>
      </trkpt>
      <trkpt lat="48.67215" lon="5.29339">
        <ele>315.4</ele>
        <time>2020-06-30T07:55:11Z</time>
      </trkpt>
      <trkpt lat="48.67213" lon="5.29335">
        <ele>315.6</ele>
        <time>2020-06-30T07:55:12Z</time>
      </trkpt>
      <trkpt lat="48.67211" lon="5.2933">
        <ele>315.7</ele>
        <time>2020-06-30T07:55:13Z</time>
      </trkpt>
      <trkpt lat="48.67209" lon="5.29325">
        <ele>315.9</ele>
        <time>2020-06-30T07:55:14Z</time>
      </trkpt>
      <trkpt lat="48.67208" lon="5.29321">
        <ele>316.1</ele>
        <time>2020-06-30T07:55:15Z</time>
      </trkpt>
      <trkpt lat="48.67207" lon="5.29317">
        <ele>316.2</ele>
        <time>2020-06-30T07:55:16Z</time>
      </trkpt>
      <trkpt lat="48.67206" lon="5.29313">
        <ele>316.4</ele>
        <time>2020-06-30T07:55:17Z</time>
      </trkpt>
      <trkpt lat="48.67205" lon="5.29307">
        <ele>316.6</ele>
        <time>2020-06-30T07:55:18Z</time>
      </trkpt>
      <trkpt lat="48.67203" lon="5.29303">
        <ele>316.8</ele>
        <time>2020-06-30T07:55:19Z</time>
      </trkpt>
      <trkpt lat="48.67201" lon="5.29298">
        <ele>317</ele>
        <time>2020-06-30T07:55:20Z</time>
      </trkpt>
      <trkpt lat="48.672" lon="5.29295">
        <ele>317.1</ele>
        <time>2020-06-30T07:55:21Z</time>
      </trkpt>
      <trkpt lat="48.67199" lon="5.2929">
        <ele>317.3</ele>
        <time>2020-06-30T07:55:22Z</time>
      </trkpt>
      <trkpt lat="48.67197" lon="5.29285">
        <ele>317.5</ele>
        <time>2020-06-30T07:55:23Z</time>
      </trkpt>
      <trkpt lat="48.67197" lon="5.29279">
        <ele>317.6</ele>
        <time>2020-06-30T07:55:24Z</time>
      </trkpt>
      <trkpt lat="48.67195" lon="5.29274">
        <ele>317.8</ele>
        <time>2020-06-30T07:55:25Z</time>
      </trkpt>
      <trkpt lat="48.67195" lon="5.29269">
        <ele>317.9</ele>
        <time>2020-06-30T07:55:26Z</time>
      </trkpt>
      <trkpt lat="48.67193" lon="5.29264">
        <ele>318.1</ele>
        <time>2020-06-30T07:55:27Z</time>
      </trkpt>
      <trkpt lat="48.67192" lon="5.29259">
        <ele>318.2</ele>
        <time>2020-06-30T07:55:28Z</time>
      </trkpt>
      <trkpt lat="48.67192" lon="5.29254">
        <ele>318.4</ele>
        <time>2020-06-30T07:55:29Z</time>
      </trkpt>
      <trkpt lat="48.67191" lon="5.29249">
        <ele>318.6</ele>
        <time>2020-06-30T07:55:30Z</time>
      </trkpt>
      <trkpt lat="48.67191" lon="5.29242">
        <ele>318.8</ele>
        <time>2020-06-30T07:55:31Z</time>
      </trkpt>
      <trkpt lat="48.6719" lon="5.29239">
        <ele>318.9</ele>
        <time>2020-06-30T07:55:32Z</time>
      </trkpt>
      <trkpt lat="48.67189" lon="5.29234">
        <ele>319.1</ele>
        <time>2020-06-30T07:55:33Z</time>
      </trkpt>
      <trkpt lat="48.67188" lon="5.29229">
        <ele>319.2</ele>
        <time>2020-06-30T07:55:34Z</time>
      </trkpt>
      <trkpt lat="48.67187" lon="5.29225">
        <ele>319.4</ele>
        <time>2020-06-30T07:55:35Z</time>
      </trkpt>
      <trkpt lat="48.67186" lon="5.2922">
        <ele>319.6</ele>
        <time>2020-06-30T07:55:36Z</time>
      </trkpt>
      <trkpt lat="48.67184" lon="5.29216">
        <ele>319.7</ele>
        <time>2020-06-30T07:55:37Z</time>
      </trkpt>
      <trkpt lat="48.67182" lon="5.29211">
        <ele>319.9</ele>
        <time>2020-06-30T07:55:38Z</time>
      </trkpt>
      <trkpt lat="48.6718" lon="5.29205">
        <ele>320.1</ele>
        <time>2020-06-30T07:55:39Z</time>
      </trkpt>
      <trkpt lat="48.67179" lon="5.292">
        <ele>320.3</ele>
        <time>2020-06-30T07:55:40Z</time>
      </trkpt>
      <trkpt lat="48.67178" lon="5.29196">
        <ele>320.5</ele>
        <time>2020-06-30T07:55:41Z</time>
      </trkpt>
      <trkpt lat="48.67176" lon="5.29191">
        <ele>320.7</ele>
        <time>2020-06-30T07:55:42Z</time>
      </trkpt>
      <trkpt lat="48.67176" lon="5.29186">
        <ele>320.8</ele>
        <time>2020-06-30T07:55:43Z</time>
      </trkpt>
      <trkpt lat="48.67175" lon="5.29182">
        <ele>321</ele>
        <time>2020-06-30T07:55:44Z</time>
      </trkpt>
      <trkpt lat="48.67173" lon="5.29177">
        <ele>321.1</ele>
        <time>2020-06-30T07:55:45Z</time>
      </trkpt>
      <trkpt lat="48.67172" lon="5.29171">
        <ele>321.3</ele>
        <time>2020-06-30T07:55:46Z</time>
      </trkpt>
      <trkpt lat="48.67172" lon="5.29165">
        <ele>321.6</ele>
        <time>2020-06-30T07:55:47Z</time>
      </trkpt>
      <trkpt lat="48.6717" lon="5.2916">
        <ele>321.7</ele>
        <time>2020-06-30T07:55:48Z</time>
      </trkpt>
      <trkpt lat="48.67168" lon="5.29155">
        <ele>322</ele>
        <time>2020-06-30T07:55:49Z</time>
      </trkpt>
      <trkpt lat="48.67167" lon="5.29151">
        <ele>322.1</ele>
        <time>2020-06-30T07:55:50Z</time>
      </trkpt>
      <trkpt lat="48.67166" lon="5.29146">
        <ele>322.3</ele>
        <time>2020-06-30T07:55:51Z</time>
      </trkpt>
      <trkpt lat="48.67166" lon="5.29141">
        <ele>322.5</ele>
        <time>2020-06-30T07:55:52Z</time>
      </trkpt>
      <trkpt lat="48.67164" lon="5.29135">
        <ele>322.7</ele>
        <time>2020-06-30T07:55:53Z</time>
      </trkpt>
      <trkpt lat="48.67163" lon="5.29133">
        <ele>322.8</ele>
        <time>2020-06-30T07:55:54Z</time>
      </trkpt>
      <trkpt lat="48.67161" lon="5.29128">
        <ele>323.1</ele>
        <time>2020-06-30T07:55:55Z</time>
      </trkpt>
      <trkpt lat="48.67158" lon="5.29124">
        <ele>323.3</ele>
        <time>2020-06-30T07:55:56Z</time>
      </trkpt>
      <trkpt lat="48.67157" lon="5.29119">
        <ele>323.5</ele>
        <time>2020-06-30T07:55:57Z</time>
      </trkpt>
      <trkpt lat="48.67156" lon="5.29115">
        <ele>323.7</ele>
        <time>2020-06-30T07:55:58Z</time>
      </trkpt>
      <trkpt lat="48.67154" lon="5.29111">
        <ele>323.8</ele>
        <time>2020-06-30T07:55:59Z</time>
      </trkpt>
      <trkpt lat="48.67153" lon="5.29106">
        <ele>324</ele>
        <time>2020-06-30T07:56:00Z</time>
      </trkpt>
      <trkpt lat="48.67153" lon="5.29101">
        <ele>324.3</ele>
        <time>2020-06-30T07:56:01Z</time>
      </trkpt>
      <trkpt lat="48.67151" lon="5.29096">
        <ele>324.5</ele>
        <time>2020-06-30T07:56:02Z</time>
      </trkpt>
      <trkpt lat="48.6715" lon="5.29091">
        <ele>324.7</ele>
        <time>2020-06-30T07:56:03Z</time>
      </trkpt>
      <trkpt lat="48.6715" lon="5.29089">
        <ele>324.8</ele>
        <time>2020-06-30T07:56:04Z</time>
      </trkpt>
      <trkpt lat="48.67149" lon="5.29084">
        <ele>325</ele>
        <time>2020-06-30T07:56:05Z</time>
      </trkpt>
      <trkpt lat="48.67148" lon="5.2908">
        <ele>325.2</ele>
        <time>2020-06-30T07:56:06Z</time>
      </trkpt>
      <trkpt lat="48.67146" lon="5.29075">
        <ele>325.4</ele>
        <time>2020-06-30T07:56:07Z</time>
      </trkpt>
      <trkpt lat="48.67144" lon="5.2907">
        <ele>325.7</ele>
        <time>2020-06-30T07:56:08Z</time>
      </trkpt>
      <trkpt lat="48.67143" lon="5.29065">
        <ele>325.9</ele>
        <time>2020-06-30T07:56:09Z</time>
      </trkpt>
      <trkpt lat="48.67142" lon="5.2906">
        <ele>326.1</ele>
        <time>2020-06-30T07:56:10Z</time>
      </trkpt>
      <trkpt lat="48.6714" lon="5.29055">
        <ele>326.3</ele>
        <time>2020-06-30T07:56:11Z</time>
      </trkpt>
      <trkpt lat="48.67139" lon="5.29049">
        <ele>326.5</ele>
        <time>2020-06-30T07:56:12Z</time>
      </trkpt>
      <trkpt lat="48.67138" lon="5.29047">
        <ele>326.6</ele>
        <time>2020-06-30T07:56:13Z</time>
      </trkpt>
      <trkpt lat="48.67137" lon="5.29042">
        <ele>326.8</ele>
        <time>2020-06-30T07:56:14Z</time>
      </trkpt>
      <trkpt lat="48.67137" lon="5.29038">
        <ele>326.9</ele>
        <time>2020-06-30T07:56:15Z</time>
      </trkpt>
      <trkpt lat="48.67136" lon="5.29033">
        <ele>327.1</ele>
        <time>2020-06-30T07:56:16Z</time>
      </trkpt>
      <trkpt lat="48.67136" lon="5.29028">
        <ele>327.2</ele>
        <time>2020-06-30T07:56:17Z</time>
      </trkpt>
      <trkpt lat="48.67134" lon="5.29023">
        <ele>327.5</ele>
        <time>2020-06-30T07:56:18Z</time>
      </trkpt>
      <trkpt lat="48.67134" lon="5.2902">
        <ele>327.5</ele>
        <time>2020-06-30T07:56:19Z</time>
      </trkpt>
      <trkpt lat="48.67132" lon="5.29016">
        <ele>327.7</ele>
        <time>2020-06-30T07:56:20Z</time>
      </trkpt>
      <trkpt lat="48.6713" lon="5.29011">
        <ele>327.9</ele>
        <time>2020-06-30T07:56:21Z</time>
      </trkpt>
      <trkpt lat="48.67128" lon="5.29007">
        <ele>328.1</ele>
        <time>2020-06-30T07:56:22Z</time>
      </trkpt>
      <trkpt lat="48.67126" lon="5.29001">
        <ele>328.3</ele>
        <time>2020-06-30T07:56:23Z</time>
      </trkpt>
      <trkpt lat="48.67125" lon="5.28996">
        <ele>328.4</ele>
        <time>2020-06-30T07:56:24Z</time>
      </trkpt>
      <trkpt lat="48.67123" lon="5.2899">
        <ele>328.6</ele>
        <time>2020-06-30T07:56:25Z</time>
      </trkpt>
      <trkpt lat="48.67121" lon="5.28985">
        <ele>328.8</ele>
        <time>2020-06-30T07:56:26Z</time>
      </trkpt>
      <trkpt lat="48.6712" lon="5.28981">
        <ele>328.9</ele>
        <time>2020-06-30T07:56:27Z</time>
      </trkpt>
      <trkpt lat="48.67119" lon="5.28977">
        <ele>329</ele>
        <time>2020-06-30T07:56:28Z</time>
      </trkpt>
      <trkpt lat="48.67117" lon="5.28972">
        <ele>329.2</ele>
        <time>2020-06-30T07:56:29Z</time>
      </trkpt>
      <trkpt lat="48.67117" lon="5.2897">
        <ele>329.3</ele>
        <time>2020-06-30T07:56:30Z</time>
      </trkpt>
      <trkpt lat="48.67115" lon="5.28965">
        <ele>329.4</ele>
        <time>2020-06-30T07:56:31Z</time>
      </trkpt>
      <trkpt lat="48.67114" lon="5.28961">
        <ele>329.6</ele>
        <time>2020-06-30T07:56:32Z</time>
      </trkpt>
      <trkpt lat="48.67113" lon="5.28956">
        <ele>329.7</ele>
        <time>2020-06-30T07:56:33Z</time>
      </trkpt>
      <trkpt lat="48.67111" lon="5.28951">
        <ele>329.9</ele>
        <time>2020-06-30T07:56:34Z</time>
      </trkpt>
      <trkpt lat="48.67109" lon="5.28945">
        <ele>330.1</ele>
        <time>2020-06-30T07:56:35Z</time>
      </trkpt>
      <trkpt lat="48.67107" lon="5.2894">
        <ele>330.2</ele>
        <time>2020-06-30T07:56:36Z</time>
      </trkpt>
      <trkpt lat="48.67105" lon="5.28935">
        <ele>330.4</ele>
        <time>2020-06-30T07:56:37Z</time>
      </trkpt>
      <trkpt lat="48.67103" lon="5.2893">
        <ele>330.5</ele>
        <time>2020-06-30T07:56:38Z</time>
      </trkpt>
      <trkpt lat="48.67102" lon="5.28925">
        <ele>330.7</ele>
        <time>2020-06-30T07:56:39Z</time>
      </trkpt>
      <trkpt lat="48.671" lon="5.2892">
        <ele>331</ele>
        <time>2020-06-30T07:56:40Z</time>
      </trkpt>
      <trkpt lat="48.671" lon="5.28918">
        <ele>331</ele>
        <time>2020-06-30T07:56:41Z</time>
      </trkpt>
      <trkpt lat="48.67099" lon="5.28913">
        <ele>331.2</ele>
        <time>2020-06-30T07:56:42Z</time>
      </trkpt>
      <trkpt lat="48.67097" lon="5.2891">
        <ele>331.3</ele>
        <time>2020-06-30T07:56:43Z</time>
      </trkpt>
      <trkpt lat="48.67095" lon="5.28907">
        <ele>331.5</ele>
        <time>2020-06-30T07:56:44Z</time>
      </trkpt>
      <trkpt lat="48.67093" lon="5.28902">
        <ele>331.7</ele>
        <time>2020-06-30T07:56:45Z</time>
      </trkpt>
      <trkpt lat="48.67091" lon="5.28898">
        <ele>331.9</ele>
        <time>2020-06-30T07:56:46Z</time>
      </trkpt>
      <trkpt lat="48.67089" lon="5.28893">
        <ele>332.1</ele>
        <time>2020-06-30T07:56:47Z</time>
      </trkpt>
      <trkpt lat="48.67087" lon="5.28888">
        <ele>332.3</ele>
        <time>2020-06-30T07:56:48Z</time>
      </trkpt>
      <trkpt lat="48.67087" lon="5.28886">
        <ele>332.4</ele>
        <time>2020-06-30T07:56:49Z</time>
      </trkpt>
      <trkpt lat="48.67086" lon="5.28881">
        <ele>332.6</ele>
        <time>2020-06-30T07:56:50Z</time>
      </trkpt>
      <trkpt lat="48.67084" lon="5.28876">
        <ele>332.8</ele>
        <time>2020-06-30T07:56:51Z</time>
      </trkpt>
      <trkpt lat="48.67083" lon="5.2887">
        <ele>333</ele>
        <time>2020-06-30T07:56:52Z</time>
      </trkpt>
      <trkpt lat="48.67081" lon="5.28864">
        <ele>333.3</ele>
        <time>2020-06-30T07:56:53Z</time>
      </trkpt>
      <trkpt lat="48.67079" lon="5.28859">
        <ele>333.5</ele>
        <time>2020-06-30T07:56:54Z</time>
      </trkpt>
      <trkpt lat="48.67078" lon="5.28855">
        <ele>333.6</ele>
        <time>2020-06-30T07:56:55Z</time>
      </trkpt>
      <trkpt lat="48.67077" lon="5.28849">
        <ele>333.8</ele>
        <time>2020-06-30T07:56:56Z</time>
      </trkpt>
      <trkpt lat="48.67077" lon="5.28846">
        <ele>333.9</ele>
        <time>2020-06-30T07:56:57Z</time>
      </trkpt>
      <trkpt lat="48.67075" lon="5.28841">
        <ele>334.1</ele>
        <time>2020-06-30T07:56:58Z</time>
      </trkpt>
      <trkpt lat="48.67074" lon="5.28836">
        <ele>334.3</ele>
        <time>2020-06-30T07:56:59Z</time>
      </trkpt>
      <trkpt lat="48.67073" lon="5.28831">
        <ele>334.5</ele>
        <time>2020-06-30T07:57:00Z</time>
      </trkpt>
      <trkpt lat="48.67072" lon="5.2883">
        <ele>334.5</ele>
        <time>2020-06-30T07:57:01Z</time>
      </trkpt>
      <trkpt lat="48.6707" lon="5.28825">
        <ele>334.7</ele>
        <time>2020-06-30T07:57:02Z</time>
      </trkpt>
      <trkpt lat="48.67069" lon="5.28821">
        <ele>334.9</ele>
        <time>2020-06-30T07:57:03Z</time>
      </trkpt>
      <trkpt lat="48.67068" lon="5.28815">
        <ele>335.1</ele>
        <time>2020-06-30T07:57:04Z</time>
      </trkpt>
      <trkpt lat="48.67067" lon="5.2881">
        <ele>335.3</ele>
        <time>2020-06-30T07:57:05Z</time>
      </trkpt>
      <trkpt lat="48.67066" lon="5.28805">
        <ele>335.4</ele>
        <time>2020-06-30T07:57:06Z</time>
      </trkpt>
      <trkpt lat="48.67066" lon="5.288">
        <ele>335.6</ele>
        <time>2020-06-30T07:57:07Z</time>
      </trkpt>
      <trkpt lat="48.67066" lon="5.28795">
        <ele>335.7</ele>
        <time>2020-06-30T07:57:08Z</time>
      </trkpt>
      <trkpt lat="48.67065" lon="5.28789">
        <ele>335.9</ele>
        <time>2020-06-30T07:57:09Z</time>
      </trkpt>
      <trkpt lat="48.67063" lon="5.28785">
        <ele>336</ele>
        <time>2020-06-30T07:57:10Z</time>
      </trkpt>
      <trkpt lat="48.67063" lon="5.2878">
        <ele>336.1</ele>
        <time>2020-06-30T07:57:11Z</time>
      </trkpt>
      <trkpt lat="48.67061" lon="5.28775">
        <ele>336.3</ele>
        <time>2020-06-30T07:57:12Z</time>
      </trkpt>
      <trkpt lat="48.6706" lon="5.2877">
        <ele>336.6</ele>
        <time>2020-06-30T07:57:13Z</time>
      </trkpt>
      <trkpt lat="48.67058" lon="5.28766">
        <ele>336.7</ele>
        <time>2020-06-30T07:57:14Z</time>
      </trkpt>
      <trkpt lat="48.67056" lon="5.28759">
        <ele>336.9</ele>
        <time>2020-06-30T07:57:15Z</time>
      </trkpt>
      <trkpt lat="48.67054" lon="5.28754">
        <ele>337.1</ele>
        <time>2020-06-30T07:57:16Z</time>
      </trkpt>
      <trkpt lat="48.67052" lon="5.28749">
        <ele>337.2</ele>
        <time>2020-06-30T07:57:17Z</time>
      </trkpt>
      <trkpt lat="48.6705" lon="5.28744">
        <ele>337.4</ele>
        <time>2020-06-30T07:57:18Z</time>
      </trkpt>
      <trkpt lat="48.67049" lon="5.28739">
        <ele>337.6</ele>
        <time>2020-06-30T07:57:19Z</time>
      </trkpt>
      <trkpt lat="48.67047" lon="5.28734">
        <ele>337.7</ele>
        <time>2020-06-30T07:57:20Z</time>
      </trkpt>
      <trkpt lat="48.67046" lon="5.28728">
        <ele>337.9</ele>
        <time>2020-06-30T07:57:21Z</time>
      </trkpt>
      <trkpt lat="48.67045" lon="5.28722">
        <ele>338.2</ele>
        <time>2020-06-30T07:57:22Z</time>
      </trkpt>
      <trkpt lat="48.67042" lon="5.28717">
        <ele>338.4</ele>
        <time>2020-06-30T07:57:23Z</time>
      </trkpt>
      <trkpt lat="48.67041" lon="5.28711">
        <ele>338.6</ele>
        <time>2020-06-30T07:57:24Z</time>
      </trkpt>
      <trkpt lat="48.6704" lon="5.28705">
        <ele>338.8</ele>
        <time>2020-06-30T07:57:25Z</time>
      </trkpt>
      <trkpt lat="48.67038" lon="5.287">
        <ele>339</ele>
        <time>2020-06-30T07:57:26Z</time>
      </trkpt>
      <trkpt lat="48.67037" lon="5.28694">
        <ele>339.2</ele>
        <time>2020-06-30T07:57:27Z</time>
      </trkpt>
      <trkpt lat="48.67036" lon="5.28689">
        <ele>339.4</ele>
        <time>2020-06-30T07:57:28Z</time>
      </trkpt>
      <trkpt lat="48.67035" lon="5.28684">
        <ele>339.6</ele>
        <time>2020-06-30T07:57:29Z</time>
      </trkpt>
      <trkpt lat="48.67033" lon="5.28679">
        <ele>339.8</ele>
        <time>2020-06-30T07:57:30Z</time>
      </trkpt>
      <trkpt lat="48.67032" lon="5.28675">
        <ele>339.9</ele>
        <time>2020-06-30T07:57:31Z</time>
      </trkpt>
      <trkpt lat="48.67031" lon="5.2867">
        <ele>340.1</ele>
        <time>2020-06-30T07:57:32Z</time>
      </trkpt>
      <trkpt lat="48.67031" lon="5.28665">
        <ele>340.3</ele>
        <time>2020-06-30T07:57:33Z</time>
      </trkpt>
      <trkpt lat="48.67029" lon="5.2866">
        <ele>340.5</ele>
        <time>2020-06-30T07:57:34Z</time>
      </trkpt>
      <trkpt lat="48.67028" lon="5.28655">
        <ele>340.7</ele>
        <time>2020-06-30T07:57:35Z</time>
      </trkpt>
      <trkpt lat="48.67027" lon="5.28651">
        <ele>340.9</ele>
        <time>2020-06-30T07:57:36Z</time>
      </trkpt>
      <trkpt lat="48.67025" lon="5.28646">
        <ele>341.2</ele>
        <time>2020-06-30T07:57:37Z</time>
      </trkpt>
      <trkpt lat="48.67024" lon="5.2864">
        <ele>341.4</ele>
        <time>2020-06-30T07:57:38Z</time>
      </trkpt>
      <trkpt lat="48.67023" lon="5.28635">
        <ele>341.6</ele>
        <time>2020-06-30T07:57:39Z</time>
      </trkpt>
      <trkpt lat="48.67022" lon="5.28629">
        <ele>341.8</ele>
        <time>2020-06-30T07:57:40Z</time>
      </trkpt>
      <trkpt lat="48.67021" lon="5.28624">
        <ele>342</ele>
        <time>2020-06-30T07:57:41Z</time>
      </trkpt>
      <trkpt lat="48.67021" lon="5.28618">
        <ele>342.2</ele>
        <time>2020-06-30T07:57:42Z</time>
      </trkpt>
      <trkpt lat="48.6702" lon="5.28613">
        <ele>342.4</ele>
        <time>2020-06-30T07:57:43Z</time>
      </trkpt>
      <trkpt lat="48.67019" lon="5.28608">
        <ele>342.6</ele>
        <time>2020-06-30T07:57:44Z</time>
      </trkpt>
      <trkpt lat="48.67018" lon="5.28603">
        <ele>342.7</ele>
        <time>2020-06-30T07:57:45Z</time>
      </trkpt>
      <trkpt lat="48.67016" lon="5.28598">
        <ele>342.9</ele>
        <time>2020-06-30T07:57:46Z</time>
      </trkpt>
      <trkpt lat="48.67015" lon="5.28593">
        <ele>343</ele>
        <time>2020-06-30T07:57:47Z</time>
      </trkpt>
      <trkpt lat="48.67015" lon="5.28589">
        <ele>343.2</ele>
        <time>2020-06-30T07:57:48Z</time>
      </trkpt>
      <trkpt lat="48.67014" lon="5.28584">
        <ele>343.3</ele>
        <time>2020-06-30T07:57:49Z</time>
      </trkpt>
      <trkpt lat="48.67014" lon="5.28578">
        <ele>343.5</ele>
        <time>2020-06-30T07:57:50Z</time>
      </trkpt>
      <trkpt lat="48.67014" lon="5.28573">
        <ele>343.7</ele>
        <time>2020-06-30T07:57:51Z</time>
      </trkpt>
      <trkpt lat="48.67013" lon="5.28567">
        <ele>343.8</ele>
        <time>2020-06-30T07:57:52Z</time>
      </trkpt>
      <trkpt lat="48.67011" lon="5.2856">
        <ele>344.1</ele>
        <time>2020-06-30T07:57:53Z</time>
      </trkpt>
      <trkpt lat="48.6701" lon="5.28555">
        <ele>344.3</ele>
        <time>2020-06-30T07:57:54Z</time>
      </trkpt>
      <trkpt lat="48.67008" lon="5.2855">
        <ele>344.5</ele>
        <time>2020-06-30T07:57:55Z</time>
      </trkpt>
      <trkpt lat="48.67007" lon="5.28544">
        <ele>344.6</ele>
        <time>2020-06-30T07:57:56Z</time>
      </trkpt>
      <trkpt lat="48.67005" lon="5.2854">
        <ele>344.8</ele>
        <time>2020-06-30T07:57:57Z</time>
      </trkpt>
      <trkpt lat="48.67004" lon="5.28536">
        <ele>344.9</ele>
        <time>2020-06-30T07:57:58Z</time>
      </trkpt>
      <trkpt lat="48.67005" lon="5.2853">
        <ele>345.1</ele>
        <time>2020-06-30T07:57:59Z</time>
      </trkpt>
      <trkpt lat="48.67003" lon="5.28524">
        <ele>345.3</ele>
        <time>2020-06-30T07:58:00Z</time>
      </trkpt>
      <trkpt lat="48.67003" lon="5.28518">
        <ele>345.5</ele>
        <time>2020-06-30T07:58:01Z</time>
      </trkpt>
      <trkpt lat="48.67001" lon="5.28512">
        <ele>345.7</ele>
        <time>2020-06-30T07:58:02Z</time>
      </trkpt>
      <trkpt lat="48.66999" lon="5.28507">
        <ele>345.8</ele>
        <time>2020-06-30T07:58:03Z</time>
      </trkpt>
      <trkpt lat="48.66998" lon="5.28503">
        <ele>345.9</ele>
        <time>2020-06-30T07:58:04Z</time>
      </trkpt>
      <trkpt lat="48.66997" lon="5.28499">
        <ele>346.1</ele>
        <time>2020-06-30T07:58:05Z</time>
      </trkpt>
      <trkpt lat="48.66995" lon="5.28494">
        <ele>346.2</ele>
        <time>2020-06-30T07:58:06Z</time>
      </trkpt>
      <trkpt lat="48.66993" lon="5.28489">
        <ele>346.3</ele>
        <time>2020-06-30T07:58:07Z</time>
      </trkpt>
      <trkpt lat="48.66992" lon="5.28483">
        <ele>346.4</ele>
        <time>2020-06-30T07:58:08Z</time>
      </trkpt>
      <trkpt lat="48.6699" lon="5.28478">
        <ele>346.6</ele>
        <time>2020-06-30T07:58:09Z</time>
      </trkpt>
      <trkpt lat="48.66989" lon="5.28473">
        <ele>346.7</ele>
        <time>2020-06-30T07:58:10Z</time>
      </trkpt>
      <trkpt lat="48.66988" lon="5.28467">
        <ele>346.8</ele>
        <time>2020-06-30T07:58:11Z</time>
      </trkpt>
      <trkpt lat="48.66988" lon="5.28461">
        <ele>346.9</ele>
        <time>2020-06-30T07:58:12Z</time>
      </trkpt>
      <trkpt lat="48.66987" lon="5.28456">
        <ele>347</ele>
        <time>2020-06-30T07:58:13Z</time>
      </trkpt>
      <trkpt lat="48.66986" lon="5.28451">
        <ele>347.1</ele>
        <time>2020-06-30T07:58:14Z</time>
      </trkpt>
      <trkpt lat="48.66984" lon="5.28444">
        <ele>347.3</ele>
        <time>2020-06-30T07:58:15Z</time>
      </trkpt>
      <trkpt lat="48.66983" lon="5.28438">
        <ele>347.4</ele>
        <time>2020-06-30T07:58:16Z</time>
      </trkpt>
      <trkpt lat="48.66982" lon="5.28433">
        <ele>347.4</ele>
        <time>2020-06-30T07:58:17Z</time>
      </trkpt>
      <trkpt lat="48.6698" lon="5.28428">
        <ele>347.5</ele>
        <time>2020-06-30T07:58:18Z</time>
      </trkpt>
      <trkpt lat="48.66979" lon="5.28425">
        <ele>347.5</ele>
        <time>2020-06-30T07:58:19Z</time>
      </trkpt>
      <trkpt lat="48.66978" lon="5.2842">
        <ele>347.6</ele>
        <time>2020-06-30T07:58:20Z</time>
      </trkpt>
      <trkpt lat="48.66976" lon="5.28415">
        <ele>347.6</ele>
        <time>2020-06-30T07:58:21Z</time>
      </trkpt>
      <trkpt lat="48.66975" lon="5.2841">
        <ele>347.7</ele>
        <time>2020-06-30T07:58:22Z</time>
      </trkpt>
      <trkpt lat="48.66975" lon="5.28409">
        <ele>347.7</ele>
        <time>2020-06-30T07:58:23Z</time>
      </trkpt>
      <trkpt lat="48.66973" lon="5.28404">
        <ele>347.7</ele>
        <time>2020-06-30T07:58:24Z</time>
      </trkpt>
      <trkpt lat="48.66972" lon="5.28399">
        <ele>347.7</ele>
        <time>2020-06-30T07:58:25Z</time>
      </trkpt>
      <trkpt lat="48.66971" lon="5.28395">
        <ele>347.7</ele>
        <time>2020-06-30T07:58:26Z</time>
      </trkpt>
      <trkpt lat="48.66969" lon="5.2839">
        <ele>347.7</ele>
        <time>2020-06-30T07:58:27Z</time>
      </trkpt>
      <trkpt lat="48.66967" lon="5.28386">
        <ele>347.7</ele>
        <time>2020-06-30T07:58:28Z</time>
      </trkpt>
      <trkpt lat="48.66965" lon="5.28382">
        <ele>347.6</ele>
        <time>2020-06-30T07:58:29Z</time>
      </trkpt>
      <trkpt lat="48.66965" lon="5.28377">
        <ele>347.5</ele>
        <time>2020-06-30T07:58:30Z</time>
      </trkpt>
      <trkpt lat="48.66964" lon="5.28372">
        <ele>347.4</ele>
        <time>2020-06-30T07:58:31Z</time>
      </trkpt>
      <trkpt lat="48.66964" lon="5.28366">
        <ele>347.3</ele>
        <time>2020-06-30T07:58:32Z</time>
      </trkpt>
      <trkpt lat="48.66964" lon="5.2836">
        <ele>347.2</ele>
        <time>2020-06-30T07:58:33Z</time>
      </trkpt>
      <trkpt lat="48.66965" lon="5.28354">
        <ele>347.1</ele>
        <time>2020-06-30T07:58:34Z</time>
      </trkpt>
      <trkpt lat="48.66966" lon="5.28348">
        <ele>346.9</ele>
        <time>2020-06-30T07:58:35Z</time>
      </trkpt>
      <trkpt lat="48.66967" lon="5.28342">
        <ele>346.8</ele>
        <time>2020-06-30T07:58:36Z</time>
      </trkpt>
      <trkpt lat="48.66967" lon="5.28336">
        <ele>346.6</ele>
        <time>2020-06-30T07:58:37Z</time>
      </trkpt>
      <trkpt lat="48.66968" lon="5.28331">
        <ele>346.5</ele>
        <time>2020-06-30T07:58:38Z</time>
      </trkpt>
      <trkpt lat="48.66969" lon="5.28325">
        <ele>346.3</ele>
        <time>2020-06-30T07:58:39Z</time>
      </trkpt>
      <trkpt lat="48.66971" lon="5.2832">
        <ele>346.1</ele>
        <time>2020-06-30T07:58:40Z</time>
      </trkpt>
      <trkpt lat="48.66972" lon="5.28313">
        <ele>345.9</ele>
        <time>2020-06-30T07:58:41Z</time>
      </trkpt>
      <trkpt lat="48.66972" lon="5.28306">
        <ele>345.7</ele>
        <time>2020-06-30T07:58:42Z</time>
      </trkpt>
      <trkpt lat="48.66972" lon="5.283">
        <ele>345.5</ele>
        <time>2020-06-30T07:58:43Z</time>
      </trkpt>
      <trkpt lat="48.66973" lon="5.28294">
        <ele>345.3</ele>
        <time>2020-06-30T07:58:44Z</time>
      </trkpt>
      <trkpt lat="48.66974" lon="5.28286">
        <ele>345</ele>
        <time>2020-06-30T07:58:45Z</time>
      </trkpt>
      <trkpt lat="48.66976" lon="5.28279">
        <ele>344.7</ele>
        <time>2020-06-30T07:58:46Z</time>
      </trkpt>
      <trkpt lat="48.66978" lon="5.28271">
        <ele>344.5</ele>
        <time>2020-06-30T07:58:47Z</time>
      </trkpt>
      <trkpt lat="48.6698" lon="5.28264">
        <ele>344.2</ele>
        <time>2020-06-30T07:58:48Z</time>
      </trkpt>
      <trkpt lat="48.6698" lon="5.28256">
        <ele>344</ele>
        <time>2020-06-30T07:58:49Z</time>
      </trkpt>
      <trkpt lat="48.66982" lon="5.28248">
        <ele>343.7</ele>
        <time>2020-06-30T07:58:50Z</time>
      </trkpt>
      <trkpt lat="48.66984" lon="5.28241">
        <ele>343.4</ele>
        <time>2020-06-30T07:58:51Z</time>
      </trkpt>
      <trkpt lat="48.66986" lon="5.28232">
        <ele>343.2</ele>
        <time>2020-06-30T07:58:52Z</time>
      </trkpt>
      <trkpt lat="48.66987" lon="5.28223">
        <ele>342.8</ele>
        <time>2020-06-30T07:58:53Z</time>
      </trkpt>
      <trkpt lat="48.66989" lon="5.28214">
        <ele>342.5</ele>
        <time>2020-06-30T07:58:54Z</time>
      </trkpt>
      <trkpt lat="48.6699" lon="5.28204">
        <ele>342.1</ele>
        <time>2020-06-30T07:58:55Z</time>
      </trkpt>
      <trkpt lat="48.66993" lon="5.28195">
        <ele>341.8</ele>
        <time>2020-06-30T07:58:56Z</time>
      </trkpt>
      <trkpt lat="48.66994" lon="5.28186">
        <ele>341.6</ele>
        <time>2020-06-30T07:58:57Z</time>
      </trkpt>
      <trkpt lat="48.66995" lon="5.28178">
        <ele>341.3</ele>
        <time>2020-06-30T07:58:58Z</time>
      </trkpt>
      <trkpt lat="48.66997" lon="5.2817">
        <ele>341.1</ele>
        <time>2020-06-30T07:58:59Z</time>
      </trkpt>
      <trkpt lat="48.66997" lon="5.28161">
        <ele>340.8</ele>
        <time>2020-06-30T07:59:00Z</time>
      </trkpt>
      <trkpt lat="48.66997" lon="5.28149">
        <ele>340.6</ele>
        <time>2020-06-30T07:59:01Z</time>
      </trkpt>
      <trkpt lat="48.66996" lon="5.28137">
        <ele>340.4</ele>
        <time>2020-06-30T07:59:02Z</time>
      </trkpt>
      <trkpt lat="48.66993" lon="5.28127">
        <ele>340.1</ele>
        <time>2020-06-30T07:59:03Z</time>
      </trkpt>
      <trkpt lat="48.6699" lon="5.28115">
        <ele>340</ele>
        <time>2020-06-30T07:59:04Z</time>
      </trkpt>
      <trkpt lat="48.66988" lon="5.28105">
        <ele>339.9</ele>
        <time>2020-06-30T07:59:05Z</time>
      </trkpt>
      <trkpt lat="48.66985" lon="5.28096">
        <ele>339.8</ele>
        <time>2020-06-30T07:59:06Z</time>
      </trkpt>
      <trkpt lat="48.66983" lon="5.28088">
        <ele>339.7</ele>
        <time>2020-06-30T07:59:07Z</time>
      </trkpt>
      <trkpt lat="48.6698" lon="5.28078">
        <ele>339.7</ele>
        <time>2020-06-30T07:59:08Z</time>
      </trkpt>
      <trkpt lat="48.66978" lon="5.28069">
        <ele>339.6</ele>
        <time>2020-06-30T07:59:09Z</time>
      </trkpt>
      <trkpt lat="48.66976" lon="5.28061">
        <ele>339.5</ele>
        <time>2020-06-30T07:59:10Z</time>
      </trkpt>
      <trkpt lat="48.66974" lon="5.28055">
        <ele>339.5</ele>
        <time>2020-06-30T07:59:11Z</time>
      </trkpt>
      <trkpt lat="48.66971" lon="5.28048">
        <ele>339.4</ele>
        <time>2020-06-30T07:59:12Z</time>
      </trkpt>
      <trkpt lat="48.66967" lon="5.28039">
        <ele>339.4</ele>
        <time>2020-06-30T07:59:13Z</time>
      </trkpt>
      <trkpt lat="48.66966" lon="5.28033">
        <ele>339.3</ele>
        <time>2020-06-30T07:59:14Z</time>
      </trkpt>
      <trkpt lat="48.66964" lon="5.28025">
        <ele>339.2</ele>
        <time>2020-06-30T07:59:15Z</time>
      </trkpt>
      <trkpt lat="48.66961" lon="5.28017">
        <ele>339.3</ele>
        <time>2020-06-30T07:59:16Z</time>
      </trkpt>
      <trkpt lat="48.66959" lon="5.2801">
        <ele>339.3</ele>
        <time>2020-06-30T07:59:17Z</time>
      </trkpt>
      <trkpt lat="48.66958" lon="5.28002">
        <ele>339.4</ele>
        <time>2020-06-30T07:59:18Z</time>
      </trkpt>
      <trkpt lat="48.66956" lon="5.27995">
        <ele>339.3</ele>
        <time>2020-06-30T07:59:19Z</time>
      </trkpt>
      <trkpt lat="48.66954" lon="5.2799">
        <ele>339.3</ele>
        <time>2020-06-30T07:59:20Z</time>
      </trkpt>
      <trkpt lat="48.66953" lon="5.27984">
        <ele>339.3</ele>
        <time>2020-06-30T07:59:21Z</time>
      </trkpt>
      <trkpt lat="48.66951" lon="5.27977">
        <ele>339.2</ele>
        <time>2020-06-30T07:59:22Z</time>
      </trkpt>
      <trkpt lat="48.6695" lon="5.2797">
        <ele>339.2</ele>
        <time>2020-06-30T07:59:23Z</time>
      </trkpt>
      <trkpt lat="48.66948" lon="5.27962">
        <ele>339.2</ele>
        <time>2020-06-30T07:59:24Z</time>
      </trkpt>
      <trkpt lat="48.66947" lon="5.27955">
        <ele>339.2</ele>
        <time>2020-06-30T07:59:25Z</time>
      </trkpt>
      <trkpt lat="48.66944" lon="5.27946">
        <ele>339.1</ele>
        <time>2020-06-30T07:59:26Z</time>
      </trkpt>
      <trkpt lat="48.66942" lon="5.27939">
        <ele>339.1</ele>
        <time>2020-06-30T07:59:27Z</time>
      </trkpt>
      <trkpt lat="48.66939" lon="5.27932">
        <ele>339.1</ele>
        <time>2020-06-30T07:59:28Z</time>
      </trkpt>
      <trkpt lat="48.66938" lon="5.27924">
        <ele>339.1</ele>
        <time>2020-06-30T07:59:29Z</time>
      </trkpt>
      <trkpt lat="48.66934" lon="5.27916">
        <ele>339.1</ele>
        <time>2020-06-30T07:59:30Z</time>
      </trkpt>
      <trkpt lat="48.66932" lon="5.27906">
        <ele>339</ele>
        <time>2020-06-30T07:59:31Z</time>
      </trkpt>
      <trkpt lat="48.66929" lon="5.27897">
        <ele>339</ele>
        <time>2020-06-30T07:59:32Z</time>
      </trkpt>
      <trkpt lat="48.66926" lon="5.27889">
        <ele>339</ele>
        <time>2020-06-30T07:59:33Z</time>
      </trkpt>
      <trkpt lat="48.66924" lon="5.27882">
        <ele>339</ele>
        <time>2020-06-30T07:59:34Z</time>
      </trkpt>
      <trkpt lat="48.66922" lon="5.27873">
        <ele>339</ele>
        <time>2020-06-30T07:59:35Z</time>
      </trkpt>
      <trkpt lat="48.6692" lon="5.27866">
        <ele>338.9</ele>
        <time>2020-06-30T07:59:36Z</time>
      </trkpt>
      <trkpt lat="48.66918" lon="5.27856">
        <ele>338.9</ele>
        <time>2020-06-30T07:59:37Z</time>
      </trkpt>
      <trkpt lat="48.66916" lon="5.27848">
        <ele>338.9</ele>
        <time>2020-06-30T07:59:38Z</time>
      </trkpt>
      <trkpt lat="48.66915" lon="5.27841">
        <ele>338.9</ele>
        <time>2020-06-30T07:59:39Z</time>
      </trkpt>
      <trkpt lat="48.66913" lon="5.27834">
        <ele>338.8</ele>
        <time>2020-06-30T07:59:40Z</time>
      </trkpt>
      <trkpt lat="48.66911" lon="5.27826">
        <ele>338.8</ele>
        <time>2020-06-30T07:59:41Z</time>
      </trkpt>
      <trkpt lat="48.66908" lon="5.27818">
        <ele>338.8</ele>
        <time>2020-06-30T07:59:42Z</time>
      </trkpt>
      <trkpt lat="48.66907" lon="5.27811">
        <ele>338.7</ele>
        <time>2020-06-30T07:59:43Z</time>
      </trkpt>
      <trkpt lat="48.66904" lon="5.27804">
        <ele>338.7</ele>
        <time>2020-06-30T07:59:44Z</time>
      </trkpt>
      <trkpt lat="48.66902" lon="5.27795">
        <ele>338.6</ele>
        <time>2020-06-30T07:59:45Z</time>
      </trkpt>
      <trkpt lat="48.669" lon="5.27786">
        <ele>338.6</ele>
        <time>2020-06-30T07:59:46Z</time>
      </trkpt>
      <trkpt lat="48.66899" lon="5.27781">
        <ele>338.6</ele>
        <time>2020-06-30T07:59:47Z</time>
      </trkpt>
      <trkpt lat="48.66897" lon="5.27774">
        <ele>338.5</ele>
        <time>2020-06-30T07:59:48Z</time>
      </trkpt>
      <trkpt lat="48.66895" lon="5.27767">
        <ele>338.5</ele>
        <time>2020-06-30T07:59:49Z</time>
      </trkpt>
      <trkpt lat="48.66894" lon="5.27761">
        <ele>338.5</ele>
        <time>2020-06-30T07:59:50Z</time>
      </trkpt>
      <trkpt lat="48.66892" lon="5.27754">
        <ele>338.5</ele>
        <time>2020-06-30T07:59:51Z</time>
      </trkpt>
      <trkpt lat="48.66889" lon="5.27747">
        <ele>338.5</ele>
        <time>2020-06-30T07:59:52Z</time>
      </trkpt>
      <trkpt lat="48.66887" lon="5.2774">
        <ele>338.5</ele>
        <time>2020-06-30T07:59:53Z</time>
      </trkpt>
      <trkpt lat="48.66885" lon="5.27733">
        <ele>338.4</ele>
        <time>2020-06-30T07:59:54Z</time>
      </trkpt>
      <trkpt lat="48.66884" lon="5.27726">
        <ele>338.4</ele>
        <time>2020-06-30T07:59:55Z</time>
      </trkpt>
      <trkpt lat="48.66881" lon="5.27719">
        <ele>338.4</ele>
        <time>2020-06-30T07:59:56Z</time>
      </trkpt>
      <trkpt lat="48.66879" lon="5.27713">
        <ele>338.4</ele>
        <time>2020-06-30T07:59:57Z</time>
      </trkpt>
      <trkpt lat="48.66878" lon="5.27705">
        <ele>338.3</ele>
        <time>2020-06-30T07:59:58Z</time>
      </trkpt>
      <trkpt lat="48.66875" lon="5.27698">
        <ele>338.3</ele>
        <time>2020-06-30T07:59:59Z</time>
      </trkpt>
      <trkpt lat="48.66873" lon="5.27691">
        <ele>338.2</ele>
        <time>2020-06-30T08:00:00Z</time>
      </trkpt>
      <trkpt lat="48.66871" lon="5.27683">
        <ele>338.1</ele>
        <time>2020-06-30T08:00:01Z</time>
      </trkpt>
      <trkpt lat="48.66868" lon="5.27674">
        <ele>338.1</ele>
        <time>2020-06-30T08:00:02Z</time>
      </trkpt>
      <trkpt lat="48.66866" lon="5.27667">
        <ele>338</ele>
        <time>2020-06-30T08:00:03Z</time>
      </trkpt>
      <trkpt lat="48.66863" lon="5.2766">
        <ele>337.9</ele>
        <time>2020-06-30T08:00:04Z</time>
      </trkpt>
      <trkpt lat="48.66863" lon="5.27655">
        <ele>337.9</ele>
        <time>2020-06-30T08:00:05Z</time>
      </trkpt>
      <trkpt lat="48.6686" lon="5.27647">
        <ele>337.8</ele>
        <time>2020-06-30T08:00:06Z</time>
      </trkpt>
      <trkpt lat="48.66859" lon="5.27639">
        <ele>337.7</ele>
        <time>2020-06-30T08:00:07Z</time>
      </trkpt>
      <trkpt lat="48.66858" lon="5.27632">
        <ele>337.6</ele>
        <time>2020-06-30T08:00:08Z</time>
      </trkpt>
      <trkpt lat="48.66856" lon="5.27625">
        <ele>337.5</ele>
        <time>2020-06-30T08:00:09Z</time>
      </trkpt>
      <trkpt lat="48.66854" lon="5.27616">
        <ele>337.4</ele>
        <time>2020-06-30T08:00:10Z</time>
      </trkpt>
      <trkpt lat="48.66853" lon="5.27607">
        <ele>337.3</ele>
        <time>2020-06-30T08:00:11Z</time>
      </trkpt>
      <trkpt lat="48.6685" lon="5.27599">
        <ele>337.2</ele>
        <time>2020-06-30T08:00:12Z</time>
      </trkpt>
      <trkpt lat="48.66848" lon="5.27591">
        <ele>337.1</ele>
        <time>2020-06-30T08:00:13Z</time>
      </trkpt>
      <trkpt lat="48.66845" lon="5.27583">
        <ele>337</ele>
        <time>2020-06-30T08:00:14Z</time>
      </trkpt>
      <trkpt lat="48.66844" lon="5.27577">
        <ele>336.9</ele>
        <time>2020-06-30T08:00:15Z</time>
      </trkpt>
      <trkpt lat="48.66841" lon="5.2757">
        <ele>336.7</ele>
        <time>2020-06-30T08:00:16Z</time>
      </trkpt>
      <trkpt lat="48.66838" lon="5.27561">
        <ele>336.6</ele>
        <time>2020-06-30T08:00:17Z</time>
      </trkpt>
      <trkpt lat="48.66836" lon="5.27554">
        <ele>336.4</ele>
        <time>2020-06-30T08:00:18Z</time>
      </trkpt>
      <trkpt lat="48.66835" lon="5.27547">
        <ele>336.3</ele>
        <time>2020-06-30T08:00:19Z</time>
      </trkpt>
      <trkpt lat="48.66832" lon="5.27538">
        <ele>336.1</ele>
        <time>2020-06-30T08:00:20Z</time>
      </trkpt>
      <trkpt lat="48.6683" lon="5.27529">
        <ele>335.9</ele>
        <time>2020-06-30T08:00:21Z</time>
      </trkpt>
      <trkpt lat="48.66828" lon="5.2752">
        <ele>335.7</ele>
        <time>2020-06-30T08:00:22Z</time>
      </trkpt>
      <trkpt lat="48.66825" lon="5.2751">
        <ele>335.6</ele>
        <time>2020-06-30T08:00:23Z</time>
      </trkpt>
      <trkpt lat="48.66823" lon="5.27502">
        <ele>335.3</ele>
        <time>2020-06-30T08:00:24Z</time>
      </trkpt>
      <trkpt lat="48.66819" lon="5.2749">
        <ele>335.1</ele>
        <time>2020-06-30T08:00:25Z</time>
      </trkpt>
      <trkpt lat="48.66816" lon="5.27483">
        <ele>334.9</ele>
        <time>2020-06-30T08:00:26Z</time>
      </trkpt>
      <trkpt lat="48.66814" lon="5.27475">
        <ele>334.7</ele>
        <time>2020-06-30T08:00:27Z</time>
      </trkpt>
      <trkpt lat="48.66812" lon="5.27468">
        <ele>334.6</ele>
        <time>2020-06-30T08:00:28Z</time>
      </trkpt>
      <trkpt lat="48.66809" lon="5.27459">
        <ele>334.4</ele>
        <time>2020-06-30T08:00:29Z</time>
      </trkpt>
      <trkpt lat="48.66807" lon="5.2745">
        <ele>334.3</ele>
        <time>2020-06-30T08:00:30Z</time>
      </trkpt>
      <trkpt lat="48.66805" lon="5.27443">
        <ele>334.1</ele>
        <time>2020-06-30T08:00:31Z</time>
      </trkpt>
      <trkpt lat="48.66804" lon="5.27436">
        <ele>334</ele>
        <time>2020-06-30T08:00:32Z</time>
      </trkpt>
      <trkpt lat="48.66801" lon="5.27427">
        <ele>333.8</ele>
        <time>2020-06-30T08:00:33Z</time>
      </trkpt>
      <trkpt lat="48.66799" lon="5.27418">
        <ele>333.7</ele>
        <time>2020-06-30T08:00:34Z</time>
      </trkpt>
      <trkpt lat="48.66796" lon="5.27409">
        <ele>333.5</ele>
        <time>2020-06-30T08:00:35Z</time>
      </trkpt>
      <trkpt lat="48.66794" lon="5.274">
        <ele>333.2</ele>
        <time>2020-06-30T08:00:36Z</time>
      </trkpt>
      <trkpt lat="48.6679" lon="5.2739">
        <ele>333</ele>
        <time>2020-06-30T08:00:37Z</time>
      </trkpt>
      <trkpt lat="48.66788" lon="5.27381">
        <ele>332.8</ele>
        <time>2020-06-30T08:00:38Z</time>
      </trkpt>
      <trkpt lat="48.66785" lon="5.27372">
        <ele>332.6</ele>
        <time>2020-06-30T08:00:39Z</time>
      </trkpt>
      <trkpt lat="48.66783" lon="5.27364">
        <ele>332.4</ele>
        <time>2020-06-30T08:00:40Z</time>
      </trkpt>
      <trkpt lat="48.66781" lon="5.27355">
        <ele>332.3</ele>
        <time>2020-06-30T08:00:41Z</time>
      </trkpt>
      <trkpt lat="48.66779" lon="5.27347">
        <ele>332.1</ele>
        <time>2020-06-30T08:00:42Z</time>
      </trkpt>
      <trkpt lat="48.66776" lon="5.27339">
        <ele>331.9</ele>
        <time>2020-06-30T08:00:43Z</time>
      </trkpt>
      <trkpt lat="48.66775" lon="5.27333">
        <ele>331.8</ele>
        <time>2020-06-30T08:00:44Z</time>
      </trkpt>
      <trkpt lat="48.66773" lon="5.27325">
        <ele>331.7</ele>
        <time>2020-06-30T08:00:45Z</time>
      </trkpt>
      <trkpt lat="48.6677" lon="5.27315">
        <ele>331.5</ele>
        <time>2020-06-30T08:00:46Z</time>
      </trkpt>
      <trkpt lat="48.66768" lon="5.27305">
        <ele>331.3</ele>
        <time>2020-06-30T08:00:47Z</time>
      </trkpt>
      <trkpt lat="48.66765" lon="5.27296">
        <ele>331.2</ele>
        <time>2020-06-30T08:00:48Z</time>
      </trkpt>
      <trkpt lat="48.66762" lon="5.27287">
        <ele>331</ele>
        <time>2020-06-30T08:00:49Z</time>
      </trkpt>
      <trkpt lat="48.6676" lon="5.27279">
        <ele>330.8</ele>
        <time>2020-06-30T08:00:50Z</time>
      </trkpt>
      <trkpt lat="48.66757" lon="5.27269">
        <ele>330.6</ele>
        <time>2020-06-30T08:00:51Z</time>
      </trkpt>
      <trkpt lat="48.66755" lon="5.27259">
        <ele>330.4</ele>
        <time>2020-06-30T08:00:52Z</time>
      </trkpt>
      <trkpt lat="48.66752" lon="5.2725">
        <ele>330.2</ele>
        <time>2020-06-30T08:00:53Z</time>
      </trkpt>
      <trkpt lat="48.6675" lon="5.27241">
        <ele>330</ele>
        <time>2020-06-30T08:00:54Z</time>
      </trkpt>
      <trkpt lat="48.66748" lon="5.27233">
        <ele>329.8</ele>
        <time>2020-06-30T08:00:55Z</time>
      </trkpt>
      <trkpt lat="48.66746" lon="5.27225">
        <ele>329.6</ele>
        <time>2020-06-30T08:00:56Z</time>
      </trkpt>
      <trkpt lat="48.66744" lon="5.27217">
        <ele>329.3</ele>
        <time>2020-06-30T08:00:57Z</time>
      </trkpt>
      <trkpt lat="48.66742" lon="5.27209">
        <ele>329.2</ele>
        <time>2020-06-30T08:00:58Z</time>
      </trkpt>
      <trkpt lat="48.6674" lon="5.27202">
        <ele>329</ele>
        <time>2020-06-30T08:00:59Z</time>
      </trkpt>
      <trkpt lat="48.66738" lon="5.27193">
        <ele>328.8</ele>
        <time>2020-06-30T08:01:00Z</time>
      </trkpt>
      <trkpt lat="48.66735" lon="5.27185">
        <ele>328.6</ele>
        <time>2020-06-30T08:01:01Z</time>
      </trkpt>
      <trkpt lat="48.66732" lon="5.27175">
        <ele>328.4</ele>
        <time>2020-06-30T08:01:02Z</time>
      </trkpt>
      <trkpt lat="48.66729" lon="5.27167">
        <ele>328.2</ele>
        <time>2020-06-30T08:01:03Z</time>
      </trkpt>
      <trkpt lat="48.66727" lon="5.27158">
        <ele>328</ele>
        <time>2020-06-30T08:01:04Z</time>
      </trkpt>
      <trkpt lat="48.66724" lon="5.2715">
        <ele>327.8</ele>
        <time>2020-06-30T08:01:05Z</time>
      </trkpt>
      <trkpt lat="48.66722" lon="5.27141">
        <ele>327.6</ele>
        <time>2020-06-30T08:01:06Z</time>
      </trkpt>
      <trkpt lat="48.66721" lon="5.27131">
        <ele>327.5</ele>
        <time>2020-06-30T08:01:07Z</time>
      </trkpt>
      <trkpt lat="48.66718" lon="5.27122">
        <ele>327.3</ele>
        <time>2020-06-30T08:01:08Z</time>
      </trkpt>
      <trkpt lat="48.66716" lon="5.27114">
        <ele>327.1</ele>
        <time>2020-06-30T08:01:09Z</time>
      </trkpt>
      <trkpt lat="48.66713" lon="5.27107">
        <ele>327</ele>
        <time>2020-06-30T08:01:10Z</time>
      </trkpt>
      <trkpt lat="48.66711" lon="5.271">
        <ele>326.8</ele>
        <time>2020-06-30T08:01:11Z</time>
      </trkpt>
      <trkpt lat="48.66708" lon="5.27091">
        <ele>326.7</ele>
        <time>2020-06-30T08:01:12Z</time>
      </trkpt>
      <trkpt lat="48.66705" lon="5.27082">
        <ele>326.5</ele>
        <time>2020-06-30T08:01:13Z</time>
      </trkpt>
      <trkpt lat="48.66703" lon="5.27072">
        <ele>326.4</ele>
        <time>2020-06-30T08:01:14Z</time>
      </trkpt>
      <trkpt lat="48.66701" lon="5.27062">
        <ele>326.2</ele>
        <time>2020-06-30T08:01:15Z</time>
      </trkpt>
      <trkpt lat="48.66698" lon="5.27054">
        <ele>326.1</ele>
        <time>2020-06-30T08:01:16Z</time>
      </trkpt>
      <trkpt lat="48.66696" lon="5.27044">
        <ele>326</ele>
        <time>2020-06-30T08:01:17Z</time>
      </trkpt>
      <trkpt lat="48.66694" lon="5.27035">
        <ele>325.9</ele>
        <time>2020-06-30T08:01:18Z</time>
      </trkpt>
      <trkpt lat="48.66691" lon="5.27026">
        <ele>325.8</ele>
        <time>2020-06-30T08:01:19Z</time>
      </trkpt>
      <trkpt lat="48.66689" lon="5.27017">
        <ele>325.7</ele>
        <time>2020-06-30T08:01:20Z</time>
      </trkpt>
      <trkpt lat="48.66686" lon="5.27008">
        <ele>325.6</ele>
        <time>2020-06-30T08:01:21Z</time>
      </trkpt>
      <trkpt lat="48.66684" lon="5.26999">
        <ele>325.5</ele>
        <time>2020-06-30T08:01:22Z</time>
      </trkpt>
      <trkpt lat="48.66681" lon="5.26989">
        <ele>325.5</ele>
        <time>2020-06-30T08:01:23Z</time>
      </trkpt>
      <trkpt lat="48.66679" lon="5.2698">
        <ele>325.4</ele>
        <time>2020-06-30T08:01:24Z</time>
      </trkpt>
      <trkpt lat="48.66677" lon="5.2697">
        <ele>325.4</ele>
        <time>2020-06-30T08:01:25Z</time>
      </trkpt>
      <trkpt lat="48.66675" lon="5.26961">
        <ele>325.4</ele>
        <time>2020-06-30T08:01:26Z</time>
      </trkpt>
      <trkpt lat="48.66673" lon="5.26952">
        <ele>325.4</ele>
        <time>2020-06-30T08:01:27Z</time>
      </trkpt>
      <trkpt lat="48.6667" lon="5.26944">
        <ele>325.4</ele>
        <time>2020-06-30T08:01:28Z</time>
      </trkpt>
      <trkpt lat="48.66668" lon="5.26935">
        <ele>325.5</ele>
        <time>2020-06-30T08:01:29Z</time>
      </trkpt>
      <trkpt lat="48.66666" lon="5.26926">
        <ele>325.5</ele>
        <time>2020-06-30T08:01:30Z</time>
      </trkpt>
      <trkpt lat="48.66664" lon="5.26919">
        <ele>325.5</ele>
        <time>2020-06-30T08:01:31Z</time>
      </trkpt>
      <trkpt lat="48.66662" lon="5.26911">
        <ele>325.5</ele>
        <time>2020-06-30T08:01:32Z</time>
      </trkpt>
      <trkpt lat="48.6666" lon="5.26902">
        <ele>325.5</ele>
        <time>2020-06-30T08:01:33Z</time>
      </trkpt>
      <trkpt lat="48.66658" lon="5.26893">
        <ele>325.5</ele>
        <time>2020-06-30T08:01:34Z</time>
      </trkpt>
      <trkpt lat="48.66656" lon="5.26888">
        <ele>325.6</ele>
        <time>2020-06-30T08:01:35Z</time>
      </trkpt>
      <trkpt lat="48.66655" lon="5.26879">
        <ele>325.6</ele>
        <time>2020-06-30T08:01:36Z</time>
      </trkpt>
      <trkpt lat="48.66652" lon="5.2687">
        <ele>325.7</ele>
        <time>2020-06-30T08:01:37Z</time>
      </trkpt>
      <trkpt lat="48.66651" lon="5.26862">
        <ele>325.8</ele>
        <time>2020-06-30T08:01:38Z</time>
      </trkpt>
      <trkpt lat="48.66648" lon="5.26854">
        <ele>325.9</ele>
        <time>2020-06-30T08:01:39Z</time>
      </trkpt>
      <trkpt lat="48.66647" lon="5.26849">
        <ele>326.1</ele>
        <time>2020-06-30T08:01:40Z</time>
      </trkpt>
      <trkpt lat="48.66645" lon="5.26841">
        <ele>326.4</ele>
        <time>2020-06-30T08:01:41Z</time>
      </trkpt>
      <trkpt lat="48.66643" lon="5.26832">
        <ele>326.6</ele>
        <time>2020-06-30T08:01:42Z</time>
      </trkpt>
      <trkpt lat="48.6664" lon="5.26823">
        <ele>326.6</ele>
        <time>2020-06-30T08:01:43Z</time>
      </trkpt>
      <trkpt lat="48.66638" lon="5.26816">
        <ele>326.6</ele>
        <time>2020-06-30T08:01:44Z</time>
      </trkpt>
      <trkpt lat="48.66637" lon="5.26809">
        <ele>326.6</ele>
        <time>2020-06-30T08:01:45Z</time>
      </trkpt>
      <trkpt lat="48.66635" lon="5.26799">
        <ele>326.6</ele>
        <time>2020-06-30T08:01:46Z</time>
      </trkpt>
      <trkpt lat="48.66633" lon="5.26792">
        <ele>326.6</ele>
        <time>2020-06-30T08:01:47Z</time>
      </trkpt>
      <trkpt lat="48.66631" lon="5.26786">
        <ele>326.5</ele>
        <time>2020-06-30T08:01:48Z</time>
      </trkpt>
      <trkpt lat="48.6663" lon="5.26779">
        <ele>326.5</ele>
        <time>2020-06-30T08:01:49Z</time>
      </trkpt>
      <trkpt lat="48.66629" lon="5.26772">
        <ele>326.4</ele>
        <time>2020-06-30T08:01:50Z</time>
      </trkpt>
      <trkpt lat="48.66626" lon="5.26763">
        <ele>326.4</ele>
        <time>2020-06-30T08:01:51Z</time>
      </trkpt>
      <trkpt lat="48.66623" lon="5.26754">
        <ele>326.3</ele>
        <time>2020-06-30T08:01:52Z</time>
      </trkpt>
      <trkpt lat="48.6662" lon="5.26746">
        <ele>326.2</ele>
        <time>2020-06-30T08:01:53Z</time>
      </trkpt>
      <trkpt lat="48.66618" lon="5.26739">
        <ele>326.1</ele>
        <time>2020-06-30T08:01:54Z</time>
      </trkpt>
      <trkpt lat="48.66616" lon="5.26731">
        <ele>326.1</ele>
        <time>2020-06-30T08:01:55Z</time>
      </trkpt>
      <trkpt lat="48.66614" lon="5.26725">
        <ele>326</ele>
        <time>2020-06-30T08:01:56Z</time>
      </trkpt>
      <trkpt lat="48.66612" lon="5.26719">
        <ele>325.9</ele>
        <time>2020-06-30T08:01:57Z</time>
      </trkpt>
      <trkpt lat="48.66609" lon="5.26708">
        <ele>325.7</ele>
        <time>2020-06-30T08:01:58Z</time>
      </trkpt>
      <trkpt lat="48.66608" lon="5.267">
        <ele>325.6</ele>
        <time>2020-06-30T08:01:59Z</time>
      </trkpt>
      <trkpt lat="48.66606" lon="5.26692">
        <ele>325.4</ele>
        <time>2020-06-30T08:02:00Z</time>
      </trkpt>
      <trkpt lat="48.66604" lon="5.26683">
        <ele>325.2</ele>
        <time>2020-06-30T08:02:01Z</time>
      </trkpt>
      <trkpt lat="48.66601" lon="5.26674">
        <ele>325</ele>
        <time>2020-06-30T08:02:02Z</time>
      </trkpt>
      <trkpt lat="48.66599" lon="5.26665">
        <ele>324.8</ele>
        <time>2020-06-30T08:02:03Z</time>
      </trkpt>
      <trkpt lat="48.66597" lon="5.26656">
        <ele>324.7</ele>
        <time>2020-06-30T08:02:04Z</time>
      </trkpt>
      <trkpt lat="48.66596" lon="5.2665">
        <ele>324.6</ele>
        <time>2020-06-30T08:02:05Z</time>
      </trkpt>
      <trkpt lat="48.66594" lon="5.2664">
        <ele>324.4</ele>
        <time>2020-06-30T08:02:06Z</time>
      </trkpt>
      <trkpt lat="48.66591" lon="5.2663">
        <ele>324.2</ele>
        <time>2020-06-30T08:02:07Z</time>
      </trkpt>
      <trkpt lat="48.66588" lon="5.26621">
        <ele>323.9</ele>
        <time>2020-06-30T08:02:08Z</time>
      </trkpt>
      <trkpt lat="48.66585" lon="5.26611">
        <ele>323.6</ele>
        <time>2020-06-30T08:02:09Z</time>
      </trkpt>
      <trkpt lat="48.66581" lon="5.266">
        <ele>323.3</ele>
        <time>2020-06-30T08:02:10Z</time>
      </trkpt>
      <trkpt lat="48.66578" lon="5.26589">
        <ele>323</ele>
        <time>2020-06-30T08:02:11Z</time>
      </trkpt>
      <trkpt lat="48.66576" lon="5.26579">
        <ele>322.8</ele>
        <time>2020-06-30T08:02:12Z</time>
      </trkpt>
      <trkpt lat="48.66573" lon="5.2657">
        <ele>322.6</ele>
        <time>2020-06-30T08:02:13Z</time>
      </trkpt>
      <trkpt lat="48.6657" lon="5.26559">
        <ele>322.4</ele>
        <time>2020-06-30T08:02:14Z</time>
      </trkpt>
      <trkpt lat="48.66566" lon="5.26548">
        <ele>322.3</ele>
        <time>2020-06-30T08:02:15Z</time>
      </trkpt>
      <trkpt lat="48.66563" lon="5.26537">
        <ele>322.1</ele>
        <time>2020-06-30T08:02:16Z</time>
      </trkpt>
      <trkpt lat="48.6656" lon="5.26526">
        <ele>322.1</ele>
        <time>2020-06-30T08:02:17Z</time>
      </trkpt>
      <trkpt lat="48.66557" lon="5.26516">
        <ele>322.1</ele>
        <time>2020-06-30T08:02:18Z</time>
      </trkpt>
      <trkpt lat="48.66555" lon="5.26505">
        <ele>322.1</ele>
        <time>2020-06-30T08:02:19Z</time>
      </trkpt>
      <trkpt lat="48.66552" lon="5.26495">
        <ele>322.1</ele>
        <time>2020-06-30T08:02:20Z</time>
      </trkpt>
      <trkpt lat="48.66548" lon="5.26485">
        <ele>322.2</ele>
        <time>2020-06-30T08:02:21Z</time>
      </trkpt>
      <trkpt lat="48.66545" lon="5.26476">
        <ele>322.3</ele>
        <time>2020-06-30T08:02:22Z</time>
      </trkpt>
      <trkpt lat="48.66543" lon="5.26466">
        <ele>322.4</ele>
        <time>2020-06-30T08:02:23Z</time>
      </trkpt>
      <trkpt lat="48.6654" lon="5.26457">
        <ele>322.5</ele>
        <time>2020-06-30T08:02:24Z</time>
      </trkpt>
      <trkpt lat="48.66537" lon="5.26448">
        <ele>322.6</ele>
        <time>2020-06-30T08:02:25Z</time>
      </trkpt>
      <trkpt lat="48.66535" lon="5.2644">
        <ele>322.7</ele>
        <time>2020-06-30T08:02:26Z</time>
      </trkpt>
      <trkpt lat="48.66532" lon="5.26431">
        <ele>322.8</ele>
        <time>2020-06-30T08:02:27Z</time>
      </trkpt>
      <trkpt lat="48.6653" lon="5.26423">
        <ele>322.9</ele>
        <time>2020-06-30T08:02:28Z</time>
      </trkpt>
      <trkpt lat="48.66527" lon="5.26415">
        <ele>323</ele>
        <time>2020-06-30T08:02:29Z</time>
      </trkpt>
      <trkpt lat="48.66524" lon="5.26407">
        <ele>323.2</ele>
        <time>2020-06-30T08:02:30Z</time>
      </trkpt>
      <trkpt lat="48.66522" lon="5.26399">
        <ele>323.3</ele>
        <time>2020-06-30T08:02:31Z</time>
      </trkpt>
      <trkpt lat="48.6652" lon="5.26391">
        <ele>323.4</ele>
        <time>2020-06-30T08:02:32Z</time>
      </trkpt>
      <trkpt lat="48.66519" lon="5.26384">
        <ele>323.5</ele>
        <time>2020-06-30T08:02:33Z</time>
      </trkpt>
      <trkpt lat="48.66517" lon="5.26376">
        <ele>323.6</ele>
        <time>2020-06-30T08:02:34Z</time>
      </trkpt>
      <trkpt lat="48.66515" lon="5.26368">
        <ele>323.6</ele>
        <time>2020-06-30T08:02:35Z</time>
      </trkpt>
      <trkpt lat="48.66513" lon="5.26361">
        <ele>323.7</ele>
        <time>2020-06-30T08:02:36Z</time>
      </trkpt>
      <trkpt lat="48.66511" lon="5.26354">
        <ele>323.7</ele>
        <time>2020-06-30T08:02:37Z</time>
      </trkpt>
      <trkpt lat="48.6651" lon="5.26347">
        <ele>323.8</ele>
        <time>2020-06-30T08:02:38Z</time>
      </trkpt>
      <trkpt lat="48.66508" lon="5.2634">
        <ele>323.9</ele>
        <time>2020-06-30T08:02:39Z</time>
      </trkpt>
      <trkpt lat="48.66506" lon="5.26333">
        <ele>323.9</ele>
        <time>2020-06-30T08:02:40Z</time>
      </trkpt>
      <trkpt lat="48.66504" lon="5.26326">
        <ele>324</ele>
        <time>2020-06-30T08:02:41Z</time>
      </trkpt>
      <trkpt lat="48.66502" lon="5.26318">
        <ele>324.1</ele>
        <time>2020-06-30T08:02:42Z</time>
      </trkpt>
      <trkpt lat="48.665" lon="5.26311">
        <ele>324.2</ele>
        <time>2020-06-30T08:02:43Z</time>
      </trkpt>
      <trkpt lat="48.66499" lon="5.26304">
        <ele>324.3</ele>
        <time>2020-06-30T08:02:44Z</time>
      </trkpt>
      <trkpt lat="48.66497" lon="5.26296">
        <ele>324.4</ele>
        <time>2020-06-30T08:02:45Z</time>
      </trkpt>
      <trkpt lat="48.66496" lon="5.2629">
        <ele>324.4</ele>
        <time>2020-06-30T08:02:46Z</time>
      </trkpt>
      <trkpt lat="48.66495" lon="5.26284">
        <ele>324.4</ele>
        <time>2020-06-30T08:02:47Z</time>
      </trkpt>
      <trkpt lat="48.66493" lon="5.26278">
        <ele>324.5</ele>
        <time>2020-06-30T08:02:48Z</time>
      </trkpt>
      <trkpt lat="48.66491" lon="5.26271">
        <ele>324.6</ele>
        <time>2020-06-30T08:02:49Z</time>
      </trkpt>
      <trkpt lat="48.66488" lon="5.26263">
        <ele>324.6</ele>
        <time>2020-06-30T08:02:50Z</time>
      </trkpt>
      <trkpt lat="48.66487" lon="5.26259">
        <ele>324.7</ele>
        <time>2020-06-30T08:02:51Z</time>
      </trkpt>
      <trkpt lat="48.66485" lon="5.26252">
        <ele>324.7</ele>
        <time>2020-06-30T08:02:52Z</time>
      </trkpt>
      <trkpt lat="48.66482" lon="5.26244">
        <ele>324.8</ele>
        <time>2020-06-30T08:02:53Z</time>
      </trkpt>
      <trkpt lat="48.6648" lon="5.26236">
        <ele>324.8</ele>
        <time>2020-06-30T08:02:54Z</time>
      </trkpt>
      <trkpt lat="48.66478" lon="5.26229">
        <ele>324.8</ele>
        <time>2020-06-30T08:02:55Z</time>
      </trkpt>
      <trkpt lat="48.66476" lon="5.26222">
        <ele>324.8</ele>
        <time>2020-06-30T08:02:56Z</time>
      </trkpt>
      <trkpt lat="48.66474" lon="5.26215">
        <ele>324.8</ele>
        <time>2020-06-30T08:02:57Z</time>
      </trkpt>
      <trkpt lat="48.66473" lon="5.26208">
        <ele>324.8</ele>
        <time>2020-06-30T08:02:58Z</time>
      </trkpt>
      <trkpt lat="48.66471" lon="5.262">
        <ele>324.8</ele>
        <time>2020-06-30T08:02:59Z</time>
      </trkpt>
      <trkpt lat="48.66469" lon="5.26192">
        <ele>324.8</ele>
        <time>2020-06-30T08:03:00Z</time>
      </trkpt>
      <trkpt lat="48.66467" lon="5.26186">
        <ele>324.8</ele>
        <time>2020-06-30T08:03:01Z</time>
      </trkpt>
      <trkpt lat="48.66465" lon="5.2618">
        <ele>324.8</ele>
        <time>2020-06-30T08:03:02Z</time>
      </trkpt>
      <trkpt lat="48.66464" lon="5.26174">
        <ele>324.8</ele>
        <time>2020-06-30T08:03:03Z</time>
      </trkpt>
      <trkpt lat="48.66463" lon="5.2617">
        <ele>324.8</ele>
        <time>2020-06-30T08:03:04Z</time>
      </trkpt>
      <trkpt lat="48.66461" lon="5.26165">
        <ele>324.8</ele>
        <time>2020-06-30T08:03:05Z</time>
      </trkpt>
      <trkpt lat="48.66459" lon="5.26158">
        <ele>324.7</ele>
        <time>2020-06-30T08:03:06Z</time>
      </trkpt>
      <trkpt lat="48.66458" lon="5.26153">
        <ele>324.7</ele>
        <time>2020-06-30T08:03:07Z</time>
      </trkpt>
      <trkpt lat="48.66456" lon="5.26145">
        <ele>324.7</ele>
        <time>2020-06-30T08:03:08Z</time>
      </trkpt>
      <trkpt lat="48.66453" lon="5.26138">
        <ele>324.6</ele>
        <time>2020-06-30T08:03:09Z</time>
      </trkpt>
      <trkpt lat="48.66452" lon="5.26131">
        <ele>324.6</ele>
        <time>2020-06-30T08:03:10Z</time>
      </trkpt>
      <trkpt lat="48.6645" lon="5.26124">
        <ele>324.6</ele>
        <time>2020-06-30T08:03:11Z</time>
      </trkpt>
      <trkpt lat="48.66448" lon="5.26116">
        <ele>324.5</ele>
        <time>2020-06-30T08:03:12Z</time>
      </trkpt>
      <trkpt lat="48.66446" lon="5.2611">
        <ele>324.5</ele>
        <time>2020-06-30T08:03:13Z</time>
      </trkpt>
      <trkpt lat="48.66446" lon="5.26106">
        <ele>324.4</ele>
        <time>2020-06-30T08:03:14Z</time>
      </trkpt>
      <trkpt lat="48.66443" lon="5.26098">
        <ele>324.4</ele>
        <time>2020-06-30T08:03:15Z</time>
      </trkpt>
      <trkpt lat="48.66441" lon="5.26089">
        <ele>324.3</ele>
        <time>2020-06-30T08:03:16Z</time>
      </trkpt>
      <trkpt lat="48.66438" lon="5.26081">
        <ele>324.2</ele>
        <time>2020-06-30T08:03:17Z</time>
      </trkpt>
      <trkpt lat="48.66436" lon="5.26074">
        <ele>324.1</ele>
        <time>2020-06-30T08:03:18Z</time>
      </trkpt>
      <trkpt lat="48.66434" lon="5.26067">
        <ele>324</ele>
        <time>2020-06-30T08:03:19Z</time>
      </trkpt>
      <trkpt lat="48.66432" lon="5.26058">
        <ele>323.9</ele>
        <time>2020-06-30T08:03:20Z</time>
      </trkpt>
      <trkpt lat="48.6643" lon="5.26052">
        <ele>323.8</ele>
        <time>2020-06-30T08:03:21Z</time>
      </trkpt>
      <trkpt lat="48.66428" lon="5.26043">
        <ele>323.7</ele>
        <time>2020-06-30T08:03:22Z</time>
      </trkpt>
      <trkpt lat="48.66426" lon="5.26036">
        <ele>323.6</ele>
        <time>2020-06-30T08:03:23Z</time>
      </trkpt>
      <trkpt lat="48.66424" lon="5.26027">
        <ele>323.5</ele>
        <time>2020-06-30T08:03:24Z</time>
      </trkpt>
      <trkpt lat="48.66422" lon="5.26019">
        <ele>323.4</ele>
        <time>2020-06-30T08:03:25Z</time>
      </trkpt>
      <trkpt lat="48.66421" lon="5.26012">
        <ele>323.3</ele>
        <time>2020-06-30T08:03:26Z</time>
      </trkpt>
      <trkpt lat="48.66419" lon="5.26006">
        <ele>323.3</ele>
        <time>2020-06-30T08:03:27Z</time>
      </trkpt>
      <trkpt lat="48.66418" lon="5.26">
        <ele>323.2</ele>
        <time>2020-06-30T08:03:28Z</time>
      </trkpt>
      <trkpt lat="48.66415" lon="5.25992">
        <ele>323.1</ele>
        <time>2020-06-30T08:03:29Z</time>
      </trkpt>
      <trkpt lat="48.66413" lon="5.25984">
        <ele>323</ele>
        <time>2020-06-30T08:03:30Z</time>
      </trkpt>
      <trkpt lat="48.6641" lon="5.25976">
        <ele>323</ele>
        <time>2020-06-30T08:03:31Z</time>
      </trkpt>
      <trkpt lat="48.66409" lon="5.25968">
        <ele>322.9</ele>
        <time>2020-06-30T08:03:32Z</time>
      </trkpt>
      <trkpt lat="48.66407" lon="5.2596">
        <ele>322.8</ele>
        <time>2020-06-30T08:03:33Z</time>
      </trkpt>
      <trkpt lat="48.66404" lon="5.25953">
        <ele>322.7</ele>
        <time>2020-06-30T08:03:34Z</time>
      </trkpt>
      <trkpt lat="48.66403" lon="5.25946">
        <ele>322.6</ele>
        <time>2020-06-30T08:03:35Z</time>
      </trkpt>
      <trkpt lat="48.664" lon="5.25936">
        <ele>322.5</ele>
        <time>2020-06-30T08:03:36Z</time>
      </trkpt>
      <trkpt lat="48.66397" lon="5.25928">
        <ele>322.4</ele>
        <time>2020-06-30T08:03:37Z</time>
      </trkpt>
      <trkpt lat="48.66395" lon="5.25918">
        <ele>322.3</ele>
        <time>2020-06-30T08:03:38Z</time>
      </trkpt>
      <trkpt lat="48.66394" lon="5.25912">
        <ele>322.2</ele>
        <time>2020-06-30T08:03:39Z</time>
      </trkpt>
      <trkpt lat="48.66391" lon="5.25901">
        <ele>322.1</ele>
        <time>2020-06-30T08:03:40Z</time>
      </trkpt>
      <trkpt lat="48.66389" lon="5.25892">
        <ele>322</ele>
        <time>2020-06-30T08:03:41Z</time>
      </trkpt>
      <trkpt lat="48.66387" lon="5.25884">
        <ele>322</ele>
        <time>2020-06-30T08:03:42Z</time>
      </trkpt>
      <trkpt lat="48.66386" lon="5.25875">
        <ele>321.9</ele>
        <time>2020-06-30T08:03:43Z</time>
      </trkpt>
      <trkpt lat="48.66384" lon="5.25867">
        <ele>322</ele>
        <time>2020-06-30T08:03:44Z</time>
      </trkpt>
      <trkpt lat="48.66382" lon="5.25856">
        <ele>322</ele>
        <time>2020-06-30T08:03:45Z</time>
      </trkpt>
      <trkpt lat="48.66379" lon="5.25846">
        <ele>322.1</ele>
        <time>2020-06-30T08:03:46Z</time>
      </trkpt>
      <trkpt lat="48.66376" lon="5.25837">
        <ele>322.2</ele>
        <time>2020-06-30T08:03:47Z</time>
      </trkpt>
      <trkpt lat="48.66374" lon="5.25829">
        <ele>322.3</ele>
        <time>2020-06-30T08:03:48Z</time>
      </trkpt>
      <trkpt lat="48.66371" lon="5.25821">
        <ele>322.4</ele>
        <time>2020-06-30T08:03:49Z</time>
      </trkpt>
      <trkpt lat="48.66369" lon="5.25814">
        <ele>322.4</ele>
        <time>2020-06-30T08:03:50Z</time>
      </trkpt>
      <trkpt lat="48.66367" lon="5.25805">
        <ele>322.5</ele>
        <time>2020-06-30T08:03:51Z</time>
      </trkpt>
      <trkpt lat="48.66365" lon="5.25798">
        <ele>322.6</ele>
        <time>2020-06-30T08:03:52Z</time>
      </trkpt>
      <trkpt lat="48.66363" lon="5.25791">
        <ele>322.7</ele>
        <time>2020-06-30T08:03:53Z</time>
      </trkpt>
      <trkpt lat="48.66361" lon="5.25783">
        <ele>322.8</ele>
        <time>2020-06-30T08:03:54Z</time>
      </trkpt>
      <trkpt lat="48.66358" lon="5.25774">
        <ele>323</ele>
        <time>2020-06-30T08:03:55Z</time>
      </trkpt>
      <trkpt lat="48.66356" lon="5.25769">
        <ele>323</ele>
        <time>2020-06-30T08:03:56Z</time>
      </trkpt>
      <trkpt lat="48.66355" lon="5.25763">
        <ele>323.1</ele>
        <time>2020-06-30T08:03:57Z</time>
      </trkpt>
      <trkpt lat="48.66353" lon="5.25756">
        <ele>323.1</ele>
        <time>2020-06-30T08:03:58Z</time>
      </trkpt>
      <trkpt lat="48.66352" lon="5.25749">
        <ele>323.2</ele>
        <time>2020-06-30T08:03:59Z</time>
      </trkpt>
      <trkpt lat="48.6635" lon="5.25742">
        <ele>323.2</ele>
        <time>2020-06-30T08:04:00Z</time>
      </trkpt>
      <trkpt lat="48.66349" lon="5.25735">
        <ele>323.3</ele>
        <time>2020-06-30T08:04:01Z</time>
      </trkpt>
      <trkpt lat="48.66348" lon="5.25728">
        <ele>323.4</ele>
        <time>2020-06-30T08:04:02Z</time>
      </trkpt>
      <trkpt lat="48.66346" lon="5.25722">
        <ele>323.4</ele>
        <time>2020-06-30T08:04:03Z</time>
      </trkpt>
      <trkpt lat="48.66344" lon="5.25715">
        <ele>323.4</ele>
        <time>2020-06-30T08:04:04Z</time>
      </trkpt>
      <trkpt lat="48.66343" lon="5.25707">
        <ele>323.5</ele>
        <time>2020-06-30T08:04:05Z</time>
      </trkpt>
      <trkpt lat="48.66342" lon="5.25701">
        <ele>323.5</ele>
        <time>2020-06-30T08:04:06Z</time>
      </trkpt>
      <trkpt lat="48.66341" lon="5.25694">
        <ele>323.5</ele>
        <time>2020-06-30T08:04:07Z</time>
      </trkpt>
      <trkpt lat="48.66337" lon="5.25686">
        <ele>323.5</ele>
        <time>2020-06-30T08:04:08Z</time>
      </trkpt>
      <trkpt lat="48.66335" lon="5.2568">
        <ele>323.5</ele>
        <time>2020-06-30T08:04:09Z</time>
      </trkpt>
      <trkpt lat="48.66335" lon="5.25673">
        <ele>323.5</ele>
        <time>2020-06-30T08:04:10Z</time>
      </trkpt>
      <trkpt lat="48.66334" lon="5.25668">
        <ele>323.5</ele>
        <time>2020-06-30T08:04:11Z</time>
      </trkpt>
      <trkpt lat="48.66333" lon="5.25662">
        <ele>323.5</ele>
        <time>2020-06-30T08:04:12Z</time>
      </trkpt>
      <trkpt lat="48.66333" lon="5.25654">
        <ele>323.5</ele>
        <time>2020-06-30T08:04:13Z</time>
      </trkpt>
      <trkpt lat="48.66332" lon="5.25646">
        <ele>323.5</ele>
        <time>2020-06-30T08:04:14Z</time>
      </trkpt>
      <trkpt lat="48.66331" lon="5.25639">
        <ele>323.4</ele>
        <time>2020-06-30T08:04:15Z</time>
      </trkpt>
      <trkpt lat="48.66331" lon="5.25633">
        <ele>323.4</ele>
        <time>2020-06-30T08:04:16Z</time>
      </trkpt>
      <trkpt lat="48.6633" lon="5.25626">
        <ele>323.3</ele>
        <time>2020-06-30T08:04:17Z</time>
      </trkpt>
      <trkpt lat="48.66329" lon="5.25619">
        <ele>323.2</ele>
        <time>2020-06-30T08:04:18Z</time>
      </trkpt>
      <trkpt lat="48.66328" lon="5.25614">
        <ele>323.1</ele>
        <time>2020-06-30T08:04:19Z</time>
      </trkpt>
      <trkpt lat="48.66327" lon="5.25607">
        <ele>323</ele>
        <time>2020-06-30T08:04:20Z</time>
      </trkpt>
      <trkpt lat="48.66325" lon="5.25597">
        <ele>322.8</ele>
        <time>2020-06-30T08:04:21Z</time>
      </trkpt>
      <trkpt lat="48.66325" lon="5.25589">
        <ele>322.6</ele>
        <time>2020-06-30T08:04:22Z</time>
      </trkpt>
      <trkpt lat="48.66324" lon="5.25579">
        <ele>322.3</ele>
        <time>2020-06-30T08:04:23Z</time>
      </trkpt>
      <trkpt lat="48.66324" lon="5.2557">
        <ele>322.1</ele>
        <time>2020-06-30T08:04:24Z</time>
      </trkpt>
      <trkpt lat="48.66323" lon="5.25561">
        <ele>321.9</ele>
        <time>2020-06-30T08:04:25Z</time>
      </trkpt>
      <trkpt lat="48.66324" lon="5.25554">
        <ele>321.7</ele>
        <time>2020-06-30T08:04:26Z</time>
      </trkpt>
      <trkpt lat="48.66323" lon="5.25547">
        <ele>321.6</ele>
        <time>2020-06-30T08:04:27Z</time>
      </trkpt>
      <trkpt lat="48.66323" lon="5.25535">
        <ele>321.3</ele>
        <time>2020-06-30T08:04:28Z</time>
      </trkpt>
      <trkpt lat="48.66322" lon="5.25528">
        <ele>321.2</ele>
        <time>2020-06-30T08:04:29Z</time>
      </trkpt>
      <trkpt lat="48.66322" lon="5.2552">
        <ele>321</ele>
        <time>2020-06-30T08:04:30Z</time>
      </trkpt>
      <trkpt lat="48.66322" lon="5.25515">
        <ele>320.9</ele>
        <time>2020-06-30T08:04:31Z</time>
      </trkpt>
      <trkpt lat="48.6632" lon="5.25507">
        <ele>320.8</ele>
        <time>2020-06-30T08:04:32Z</time>
      </trkpt>
      <trkpt lat="48.66315" lon="5.25505">
        <ele>320.8</ele>
        <time>2020-06-30T08:04:33Z</time>
      </trkpt>
      <trkpt lat="48.66311" lon="5.25504">
        <ele>320.7</ele>
        <time>2020-06-30T08:04:34Z</time>
      </trkpt>
      <trkpt lat="48.66306" lon="5.25505">
        <ele>320.9</ele>
        <time>2020-06-30T08:04:35Z</time>
      </trkpt>
      <trkpt lat="48.66301" lon="5.25505">
        <ele>321.1</ele>
        <time>2020-06-30T08:04:36Z</time>
      </trkpt>
      <trkpt lat="48.66297" lon="5.25504">
        <ele>321.2</ele>
        <time>2020-06-30T08:04:37Z</time>
      </trkpt>
      <trkpt lat="48.66294" lon="5.25502">
        <ele>321.3</ele>
        <time>2020-06-30T08:04:38Z</time>
      </trkpt>
      <trkpt lat="48.66292" lon="5.25501">
        <ele>321.4</ele>
        <time>2020-06-30T08:04:39Z</time>
      </trkpt>
      <trkpt lat="48.66288" lon="5.25499">
        <ele>321.5</ele>
        <time>2020-06-30T08:04:40Z</time>
      </trkpt>
      <trkpt lat="48.66287" lon="5.25498">
        <ele>321.6</ele>
        <time>2020-06-30T08:04:41Z</time>
      </trkpt>
      <trkpt lat="48.66284" lon="5.25496">
        <ele>321.7</ele>
        <time>2020-06-30T08:04:42Z</time>
      </trkpt>
      <trkpt lat="48.66281" lon="5.25493">
        <ele>321.8</ele>
        <time>2020-06-30T08:04:43Z</time>
      </trkpt>
      <trkpt lat="48.6628" lon="5.25492">
        <ele>321.9</ele>
        <time>2020-06-30T08:04:44Z</time>
      </trkpt>
      <trkpt lat="48.66277" lon="5.2549">
        <ele>322</ele>
        <time>2020-06-30T08:04:45Z</time>
      </trkpt>
      <trkpt lat="48.66274" lon="5.25485">
        <ele>322.1</ele>
        <time>2020-06-30T08:04:46Z</time>
      </trkpt>
      <trkpt lat="48.66272" lon="5.25482">
        <ele>322.2</ele>
        <time>2020-06-30T08:04:47Z</time>
      </trkpt>
      <trkpt lat="48.6627" lon="5.25477">
        <ele>322.4</ele>
        <time>2020-06-30T08:04:48Z</time>
      </trkpt>
      <trkpt lat="48.66269" lon="5.25475">
        <ele>322.4</ele>
        <time>2020-06-30T08:04:49Z</time>
      </trkpt>
      <trkpt lat="48.66267" lon="5.25471">
        <ele>322.5</ele>
        <time>2020-06-30T08:04:50Z</time>
      </trkpt>
      <trkpt lat="48.66266" lon="5.25467">
        <ele>322.6</ele>
        <time>2020-06-30T08:04:51Z</time>
      </trkpt>
      <trkpt lat="48.66264" lon="5.25463">
        <ele>322.7</ele>
        <time>2020-06-30T08:04:52Z</time>
      </trkpt>
      <trkpt lat="48.66262" lon="5.25459">
        <ele>322.9</ele>
        <time>2020-06-30T08:04:53Z</time>
      </trkpt>
      <trkpt lat="48.66262" lon="5.25454">
        <ele>323</ele>
        <time>2020-06-30T08:04:54Z</time>
      </trkpt>
      <trkpt lat="48.66259" lon="5.2545">
        <ele>323.1</ele>
        <time>2020-06-30T08:04:55Z</time>
      </trkpt>
      <trkpt lat="48.66258" lon="5.25446">
        <ele>323.2</ele>
        <time>2020-06-30T08:04:56Z</time>
      </trkpt>
      <trkpt lat="48.66256" lon="5.25442">
        <ele>323.3</ele>
        <time>2020-06-30T08:04:57Z</time>
      </trkpt>
      <trkpt lat="48.66255" lon="5.25438">
        <ele>323.4</ele>
        <time>2020-06-30T08:04:58Z</time>
      </trkpt>
      <trkpt lat="48.66252" lon="5.25434">
        <ele>323.6</ele>
        <time>2020-06-30T08:04:59Z</time>
      </trkpt>
      <trkpt lat="48.66251" lon="5.2543">
        <ele>323.7</ele>
        <time>2020-06-30T08:05:00Z</time>
      </trkpt>
      <trkpt lat="48.66249" lon="5.25425">
        <ele>323.8</ele>
        <time>2020-06-30T08:05:01Z</time>
      </trkpt>
      <trkpt lat="48.66248" lon="5.25423">
        <ele>323.8</ele>
        <time>2020-06-30T08:05:02Z</time>
      </trkpt>
      <trkpt lat="48.66246" lon="5.2542">
        <ele>323.9</ele>
        <time>2020-06-30T08:05:03Z</time>
      </trkpt>
      <trkpt lat="48.66244" lon="5.25416">
        <ele>324</ele>
        <time>2020-06-30T08:05:04Z</time>
      </trkpt>
      <trkpt lat="48.66241" lon="5.25412">
        <ele>324.1</ele>
        <time>2020-06-30T08:05:05Z</time>
      </trkpt>
      <trkpt lat="48.66238" lon="5.25407">
        <ele>324.2</ele>
        <time>2020-06-30T08:05:06Z</time>
      </trkpt>
      <trkpt lat="48.66236" lon="5.25405">
        <ele>324.3</ele>
        <time>2020-06-30T08:05:07Z</time>
      </trkpt>
      <trkpt lat="48.66233" lon="5.25401">
        <ele>324.4</ele>
        <time>2020-06-30T08:05:08Z</time>
      </trkpt>
      <trkpt lat="48.66231" lon="5.25397">
        <ele>324.5</ele>
        <time>2020-06-30T08:05:09Z</time>
      </trkpt>
      <trkpt lat="48.66228" lon="5.25393">
        <ele>324.6</ele>
        <time>2020-06-30T08:05:10Z</time>
      </trkpt>
      <trkpt lat="48.66227" lon="5.25391">
        <ele>324.7</ele>
        <time>2020-06-30T08:05:11Z</time>
      </trkpt>
      <trkpt lat="48.66224" lon="5.25388">
        <ele>324.9</ele>
        <time>2020-06-30T08:05:12Z</time>
      </trkpt>
      <trkpt lat="48.66222" lon="5.25384">
        <ele>325</ele>
        <time>2020-06-30T08:05:13Z</time>
      </trkpt>
      <trkpt lat="48.6622" lon="5.25382">
        <ele>325.1</ele>
        <time>2020-06-30T08:05:14Z</time>
      </trkpt>
      <trkpt lat="48.66217" lon="5.25378">
        <ele>325.3</ele>
        <time>2020-06-30T08:05:15Z</time>
      </trkpt>
      <trkpt lat="48.66215" lon="5.25376">
        <ele>325.4</ele>
        <time>2020-06-30T08:05:16Z</time>
      </trkpt>
      <trkpt lat="48.66212" lon="5.25375">
        <ele>325.5</ele>
        <time>2020-06-30T08:05:17Z</time>
      </trkpt>
      <trkpt lat="48.66209" lon="5.25372">
        <ele>325.7</ele>
        <time>2020-06-30T08:05:18Z</time>
      </trkpt>
      <trkpt lat="48.66208" lon="5.25371">
        <ele>325.7</ele>
        <time>2020-06-30T08:05:19Z</time>
      </trkpt>
      <trkpt lat="48.66205" lon="5.25368">
        <ele>325.9</ele>
        <time>2020-06-30T08:05:20Z</time>
      </trkpt>
      <trkpt lat="48.66203" lon="5.25366">
        <ele>326</ele>
        <time>2020-06-30T08:05:21Z</time>
      </trkpt>
      <trkpt lat="48.662" lon="5.25363">
        <ele>326.1</ele>
        <time>2020-06-30T08:05:22Z</time>
      </trkpt>
      <trkpt lat="48.66197" lon="5.2536">
        <ele>326.2</ele>
        <time>2020-06-30T08:05:23Z</time>
      </trkpt>
      <trkpt lat="48.66194" lon="5.25358">
        <ele>326.4</ele>
        <time>2020-06-30T08:05:24Z</time>
      </trkpt>
      <trkpt lat="48.66188" lon="5.25354">
        <ele>326.6</ele>
        <time>2020-06-30T08:05:25Z</time>
      </trkpt>
      <trkpt lat="48.66186" lon="5.25353">
        <ele>326.6</ele>
        <time>2020-06-30T08:05:26Z</time>
      </trkpt>
      <trkpt lat="48.66182" lon="5.2535">
        <ele>326.8</ele>
        <time>2020-06-30T08:05:27Z</time>
      </trkpt>
      <trkpt lat="48.66178" lon="5.25348">
        <ele>326.9</ele>
        <time>2020-06-30T08:05:28Z</time>
      </trkpt>
      <trkpt lat="48.66173" lon="5.25346">
        <ele>327.1</ele>
        <time>2020-06-30T08:05:29Z</time>
      </trkpt>
      <trkpt lat="48.6617" lon="5.25345">
        <ele>327.2</ele>
        <time>2020-06-30T08:05:30Z</time>
      </trkpt>
      <trkpt lat="48.66167" lon="5.25345">
        <ele>327.3</ele>
        <time>2020-06-30T08:05:31Z</time>
      </trkpt>
      <trkpt lat="48.66163" lon="5.25344">
        <ele>327.5</ele>
        <time>2020-06-30T08:05:32Z</time>
      </trkpt>
      <trkpt lat="48.6616" lon="5.25343">
        <ele>327.6</ele>
        <time>2020-06-30T08:05:33Z</time>
      </trkpt>
      <trkpt lat="48.66156" lon="5.2534">
        <ele>327.8</ele>
        <time>2020-06-30T08:05:34Z</time>
      </trkpt>
      <trkpt lat="48.66153" lon="5.25337">
        <ele>327.9</ele>
        <time>2020-06-30T08:05:35Z</time>
      </trkpt>
      <trkpt lat="48.66149" lon="5.25335">
        <ele>328</ele>
        <time>2020-06-30T08:05:36Z</time>
      </trkpt>
      <trkpt lat="48.66148" lon="5.25334">
        <ele>328.4</ele>
        <time>2020-06-30T08:05:37Z</time>
      </trkpt>
      <trkpt lat="48.66145" lon="5.25331">
        <ele>328.4</ele>
        <time>2020-06-30T08:05:38Z</time>
      </trkpt>
      <trkpt lat="48.66143" lon="5.25327">
        <ele>328.4</ele>
        <time>2020-06-30T08:05:39Z</time>
      </trkpt>
      <trkpt lat="48.66142" lon="5.25326">
        <ele>328.4</ele>
        <time>2020-06-30T08:05:40Z</time>
      </trkpt>
      <trkpt lat="48.66139" lon="5.25323">
        <ele>328.5</ele>
        <time>2020-06-30T08:05:41Z</time>
      </trkpt>
      <trkpt lat="48.66136" lon="5.25321">
        <ele>328.5</ele>
        <time>2020-06-30T08:05:42Z</time>
      </trkpt>
      <trkpt lat="48.66134" lon="5.25317">
        <ele>328.4</ele>
        <time>2020-06-30T08:05:43Z</time>
      </trkpt>
      <trkpt lat="48.66131" lon="5.25316">
        <ele>328.4</ele>
        <time>2020-06-30T08:05:44Z</time>
      </trkpt>
      <trkpt lat="48.66128" lon="5.25313">
        <ele>328.4</ele>
        <time>2020-06-30T08:05:45Z</time>
      </trkpt>
      <trkpt lat="48.66125" lon="5.25313">
        <ele>328.5</ele>
        <time>2020-06-30T08:05:46Z</time>
      </trkpt>
      <trkpt lat="48.66122" lon="5.25313">
        <ele>328.6</ele>
        <time>2020-06-30T08:05:47Z</time>
      </trkpt>
      <trkpt lat="48.66121" lon="5.25314">
        <ele>328.6</ele>
        <time>2020-06-30T08:05:48Z</time>
      </trkpt>
      <trkpt lat="48.66117" lon="5.25314">
        <ele>328.8</ele>
        <time>2020-06-30T08:05:49Z</time>
      </trkpt>
      <trkpt lat="48.66114" lon="5.25315">
        <ele>329.1</ele>
        <time>2020-06-30T08:05:50Z</time>
      </trkpt>
      <trkpt lat="48.66111" lon="5.25314">
        <ele>329.1</ele>
        <time>2020-06-30T08:05:51Z</time>
      </trkpt>
      <trkpt lat="48.66108" lon="5.25313">
        <ele>329.2</ele>
        <time>2020-06-30T08:05:52Z</time>
      </trkpt>
      <trkpt lat="48.66104" lon="5.2531">
        <ele>329.2</ele>
        <time>2020-06-30T08:05:53Z</time>
      </trkpt>
      <trkpt lat="48.66102" lon="5.25304">
        <ele>329.2</ele>
        <time>2020-06-30T08:05:54Z</time>
      </trkpt>
      <trkpt lat="48.661" lon="5.253">
        <ele>329.3</ele>
        <time>2020-06-30T08:05:55Z</time>
      </trkpt>
      <trkpt lat="48.66099" lon="5.25294">
        <ele>329.3</ele>
        <time>2020-06-30T08:05:56Z</time>
      </trkpt>
      <trkpt lat="48.66098" lon="5.25289">
        <ele>329.4</ele>
        <time>2020-06-30T08:05:57Z</time>
      </trkpt>
      <trkpt lat="48.66097" lon="5.25283">
        <ele>329.5</ele>
        <time>2020-06-30T08:05:58Z</time>
      </trkpt>
      <trkpt lat="48.66095" lon="5.25277">
        <ele>329.5</ele>
        <time>2020-06-30T08:05:59Z</time>
      </trkpt>
      <trkpt lat="48.66094" lon="5.25273">
        <ele>329.6</ele>
        <time>2020-06-30T08:06:00Z</time>
      </trkpt>
      <trkpt lat="48.66093" lon="5.25268">
        <ele>329.6</ele>
        <time>2020-06-30T08:06:01Z</time>
      </trkpt>
      <trkpt lat="48.66091" lon="5.25263">
        <ele>329.7</ele>
        <time>2020-06-30T08:06:02Z</time>
      </trkpt>
      <trkpt lat="48.6609" lon="5.25256">
        <ele>329.8</ele>
        <time>2020-06-30T08:06:03Z</time>
      </trkpt>
      <trkpt lat="48.6609" lon="5.2525">
        <ele>329.8</ele>
        <time>2020-06-30T08:06:04Z</time>
      </trkpt>
      <trkpt lat="48.66089" lon="5.25245">
        <ele>329.9</ele>
        <time>2020-06-30T08:06:05Z</time>
      </trkpt>
      <trkpt lat="48.66089" lon="5.2524">
        <ele>329.9</ele>
        <time>2020-06-30T08:06:06Z</time>
      </trkpt>
      <trkpt lat="48.66089" lon="5.25235">
        <ele>330</ele>
        <time>2020-06-30T08:06:07Z</time>
      </trkpt>
      <trkpt lat="48.66088" lon="5.25228">
        <ele>330</ele>
        <time>2020-06-30T08:06:08Z</time>
      </trkpt>
      <trkpt lat="48.66089" lon="5.25221">
        <ele>330.1</ele>
        <time>2020-06-30T08:06:09Z</time>
      </trkpt>
      <trkpt lat="48.66089" lon="5.25215">
        <ele>330.2</ele>
        <time>2020-06-30T08:06:10Z</time>
      </trkpt>
      <trkpt lat="48.6609" lon="5.25209">
        <ele>330.2</ele>
        <time>2020-06-30T08:06:11Z</time>
      </trkpt>
      <trkpt lat="48.66091" lon="5.25203">
        <ele>330.3</ele>
        <time>2020-06-30T08:06:12Z</time>
      </trkpt>
      <trkpt lat="48.66091" lon="5.25197">
        <ele>330.4</ele>
        <time>2020-06-30T08:06:13Z</time>
      </trkpt>
      <trkpt lat="48.66092" lon="5.2519">
        <ele>330.4</ele>
        <time>2020-06-30T08:06:14Z</time>
      </trkpt>
      <trkpt lat="48.66093" lon="5.25183">
        <ele>330.5</ele>
        <time>2020-06-30T08:06:15Z</time>
      </trkpt>
      <trkpt lat="48.66094" lon="5.25177">
        <ele>330.6</ele>
        <time>2020-06-30T08:06:16Z</time>
      </trkpt>
      <trkpt lat="48.66094" lon="5.25172">
        <ele>330.7</ele>
        <time>2020-06-30T08:06:17Z</time>
      </trkpt>
      <trkpt lat="48.66095" lon="5.25166">
        <ele>330.8</ele>
        <time>2020-06-30T08:06:18Z</time>
      </trkpt>
      <trkpt lat="48.66095" lon="5.25161">
        <ele>330.8</ele>
        <time>2020-06-30T08:06:19Z</time>
      </trkpt>
      <trkpt lat="48.66096" lon="5.25155">
        <ele>330.9</ele>
        <time>2020-06-30T08:06:20Z</time>
      </trkpt>
      <trkpt lat="48.66097" lon="5.25149">
        <ele>331</ele>
        <time>2020-06-30T08:06:21Z</time>
      </trkpt>
      <trkpt lat="48.66098" lon="5.25142">
        <ele>331</ele>
        <time>2020-06-30T08:06:22Z</time>
      </trkpt>
      <trkpt lat="48.66098" lon="5.25137">
        <ele>331.1</ele>
        <time>2020-06-30T08:06:23Z</time>
      </trkpt>
      <trkpt lat="48.66098" lon="5.25131">
        <ele>331.1</ele>
        <time>2020-06-30T08:06:24Z</time>
      </trkpt>
      <trkpt lat="48.66099" lon="5.25124">
        <ele>331.2</ele>
        <time>2020-06-30T08:06:25Z</time>
      </trkpt>
      <trkpt lat="48.66099" lon="5.25117">
        <ele>331.3</ele>
        <time>2020-06-30T08:06:26Z</time>
      </trkpt>
      <trkpt lat="48.66099" lon="5.25111">
        <ele>331.4</ele>
        <time>2020-06-30T08:06:27Z</time>
      </trkpt>
      <trkpt lat="48.66099" lon="5.25105">
        <ele>331.4</ele>
        <time>2020-06-30T08:06:28Z</time>
      </trkpt>
      <trkpt lat="48.661" lon="5.25097">
        <ele>331.5</ele>
        <time>2020-06-30T08:06:29Z</time>
      </trkpt>
      <trkpt lat="48.661" lon="5.2509">
        <ele>331.6</ele>
        <time>2020-06-30T08:06:30Z</time>
      </trkpt>
      <trkpt lat="48.66099" lon="5.25083">
        <ele>331.6</ele>
        <time>2020-06-30T08:06:31Z</time>
      </trkpt>
      <trkpt lat="48.66098" lon="5.25077">
        <ele>331.7</ele>
        <time>2020-06-30T08:06:32Z</time>
      </trkpt>
      <trkpt lat="48.66097" lon="5.2507">
        <ele>331.7</ele>
        <time>2020-06-30T08:06:33Z</time>
      </trkpt>
      <trkpt lat="48.66095" lon="5.25065">
        <ele>331.7</ele>
        <time>2020-06-30T08:06:34Z</time>
      </trkpt>
      <trkpt lat="48.66093" lon="5.25059">
        <ele>331.7</ele>
        <time>2020-06-30T08:06:35Z</time>
      </trkpt>
      <trkpt lat="48.66092" lon="5.25052">
        <ele>331.7</ele>
        <time>2020-06-30T08:06:36Z</time>
      </trkpt>
      <trkpt lat="48.6609" lon="5.25046">
        <ele>331.7</ele>
        <time>2020-06-30T08:06:37Z</time>
      </trkpt>
      <trkpt lat="48.66088" lon="5.25039">
        <ele>331.7</ele>
        <time>2020-06-30T08:06:38Z</time>
      </trkpt>
      <trkpt lat="48.66086" lon="5.25031">
        <ele>331.7</ele>
        <time>2020-06-30T08:06:39Z</time>
      </trkpt>
      <trkpt lat="48.66084" lon="5.25025">
        <ele>331.7</ele>
        <time>2020-06-30T08:06:40Z</time>
      </trkpt>
      <trkpt lat="48.66082" lon="5.25019">
        <ele>331.7</ele>
        <time>2020-06-30T08:06:41Z</time>
      </trkpt>
      <trkpt lat="48.6608" lon="5.25012">
        <ele>331.7</ele>
        <time>2020-06-30T08:06:42Z</time>
      </trkpt>
      <trkpt lat="48.66078" lon="5.25006">
        <ele>331.7</ele>
        <time>2020-06-30T08:06:43Z</time>
      </trkpt>
      <trkpt lat="48.66077" lon="5.24999">
        <ele>331.6</ele>
        <time>2020-06-30T08:06:44Z</time>
      </trkpt>
      <trkpt lat="48.66075" lon="5.24993">
        <ele>331.6</ele>
        <time>2020-06-30T08:06:45Z</time>
      </trkpt>
      <trkpt lat="48.66074" lon="5.24985">
        <ele>331.6</ele>
        <time>2020-06-30T08:06:46Z</time>
      </trkpt>
      <trkpt lat="48.66072" lon="5.24977">
        <ele>331.5</ele>
        <time>2020-06-30T08:06:47Z</time>
      </trkpt>
      <trkpt lat="48.6607" lon="5.2497">
        <ele>331.5</ele>
        <time>2020-06-30T08:06:48Z</time>
      </trkpt>
      <trkpt lat="48.66069" lon="5.24961">
        <ele>331.4</ele>
        <time>2020-06-30T08:06:49Z</time>
      </trkpt>
      <trkpt lat="48.66067" lon="5.24954">
        <ele>331.4</ele>
        <time>2020-06-30T08:06:50Z</time>
      </trkpt>
      <trkpt lat="48.66066" lon="5.24947">
        <ele>331.3</ele>
        <time>2020-06-30T08:06:51Z</time>
      </trkpt>
      <trkpt lat="48.66064" lon="5.24941">
        <ele>331.2</ele>
        <time>2020-06-30T08:06:52Z</time>
      </trkpt>
      <trkpt lat="48.66062" lon="5.24934">
        <ele>331.1</ele>
        <time>2020-06-30T08:06:53Z</time>
      </trkpt>
      <trkpt lat="48.66059" lon="5.24928">
        <ele>331</ele>
        <time>2020-06-30T08:06:54Z</time>
      </trkpt>
      <trkpt lat="48.66057" lon="5.24921">
        <ele>330.9</ele>
        <time>2020-06-30T08:06:55Z</time>
      </trkpt>
      <trkpt lat="48.66056" lon="5.24916">
        <ele>330.8</ele>
        <time>2020-06-30T08:06:56Z</time>
      </trkpt>
      <trkpt lat="48.66055" lon="5.24911">
        <ele>330.7</ele>
        <time>2020-06-30T08:06:57Z</time>
      </trkpt>
      <trkpt lat="48.66053" lon="5.24903">
        <ele>330.5</ele>
        <time>2020-06-30T08:06:58Z</time>
      </trkpt>
      <trkpt lat="48.6605" lon="5.24896">
        <ele>330.3</ele>
        <time>2020-06-30T08:06:59Z</time>
      </trkpt>
      <trkpt lat="48.66048" lon="5.24887">
        <ele>330.1</ele>
        <time>2020-06-30T08:07:00Z</time>
      </trkpt>
      <trkpt lat="48.66046" lon="5.24879">
        <ele>330</ele>
        <time>2020-06-30T08:07:01Z</time>
      </trkpt>
      <trkpt lat="48.66044" lon="5.2487">
        <ele>329.9</ele>
        <time>2020-06-30T08:07:02Z</time>
      </trkpt>
      <trkpt lat="48.66042" lon="5.24861">
        <ele>329.7</ele>
        <time>2020-06-30T08:07:03Z</time>
      </trkpt>
      <trkpt lat="48.6604" lon="5.24853">
        <ele>329.7</ele>
        <time>2020-06-30T08:07:04Z</time>
      </trkpt>
      <trkpt lat="48.66038" lon="5.24846">
        <ele>329.6</ele>
        <time>2020-06-30T08:07:05Z</time>
      </trkpt>
      <trkpt lat="48.66036" lon="5.24837">
        <ele>329.5</ele>
        <time>2020-06-30T08:07:06Z</time>
      </trkpt>
      <trkpt lat="48.66034" lon="5.24828">
        <ele>329.4</ele>
        <time>2020-06-30T08:07:07Z</time>
      </trkpt>
      <trkpt lat="48.66032" lon="5.24821">
        <ele>329.4</ele>
        <time>2020-06-30T08:07:08Z</time>
      </trkpt>
      <trkpt lat="48.66031" lon="5.24813">
        <ele>329.3</ele>
        <time>2020-06-30T08:07:09Z</time>
      </trkpt>
      <trkpt lat="48.66029" lon="5.24806">
        <ele>329.3</ele>
        <time>2020-06-30T08:07:10Z</time>
      </trkpt>
      <trkpt lat="48.66027" lon="5.24799">
        <ele>329.3</ele>
        <time>2020-06-30T08:07:11Z</time>
      </trkpt>
      <trkpt lat="48.66026" lon="5.24792">
        <ele>329.3</ele>
        <time>2020-06-30T08:07:12Z</time>
      </trkpt>
      <trkpt lat="48.66023" lon="5.24784">
        <ele>329.2</ele>
        <time>2020-06-30T08:07:13Z</time>
      </trkpt>
      <trkpt lat="48.66022" lon="5.24777">
        <ele>329.2</ele>
        <time>2020-06-30T08:07:14Z</time>
      </trkpt>
      <trkpt lat="48.6602" lon="5.24769">
        <ele>329.2</ele>
        <time>2020-06-30T08:07:15Z</time>
      </trkpt>
      <trkpt lat="48.66019" lon="5.24762">
        <ele>329.1</ele>
        <time>2020-06-30T08:07:16Z</time>
      </trkpt>
      <trkpt lat="48.66018" lon="5.24755">
        <ele>329.1</ele>
        <time>2020-06-30T08:07:17Z</time>
      </trkpt>
      <trkpt lat="48.66017" lon="5.24747">
        <ele>329.1</ele>
        <time>2020-06-30T08:07:18Z</time>
      </trkpt>
      <trkpt lat="48.66016" lon="5.24739">
        <ele>329</ele>
        <time>2020-06-30T08:07:19Z</time>
      </trkpt>
      <trkpt lat="48.66015" lon="5.24732">
        <ele>329</ele>
        <time>2020-06-30T08:07:20Z</time>
      </trkpt>
      <trkpt lat="48.66013" lon="5.24725">
        <ele>328.9</ele>
        <time>2020-06-30T08:07:21Z</time>
      </trkpt>
      <trkpt lat="48.6601" lon="5.24718">
        <ele>328.9</ele>
        <time>2020-06-30T08:07:22Z</time>
      </trkpt>
      <trkpt lat="48.66008" lon="5.24711">
        <ele>328.8</ele>
        <time>2020-06-30T08:07:23Z</time>
      </trkpt>
      <trkpt lat="48.66006" lon="5.24703">
        <ele>328.8</ele>
        <time>2020-06-30T08:07:24Z</time>
      </trkpt>
      <trkpt lat="48.66004" lon="5.24694">
        <ele>328.7</ele>
        <time>2020-06-30T08:07:25Z</time>
      </trkpt>
      <trkpt lat="48.66003" lon="5.24686">
        <ele>328.6</ele>
        <time>2020-06-30T08:07:26Z</time>
      </trkpt>
      <trkpt lat="48.66" lon="5.24679">
        <ele>328.6</ele>
        <time>2020-06-30T08:07:27Z</time>
      </trkpt>
      <trkpt lat="48.65998" lon="5.24672">
        <ele>328.5</ele>
        <time>2020-06-30T08:07:28Z</time>
      </trkpt>
      <trkpt lat="48.65996" lon="5.24665">
        <ele>328.5</ele>
        <time>2020-06-30T08:07:29Z</time>
      </trkpt>
      <trkpt lat="48.65994" lon="5.24657">
        <ele>328.4</ele>
        <time>2020-06-30T08:07:30Z</time>
      </trkpt>
      <trkpt lat="48.65992" lon="5.24649">
        <ele>328.4</ele>
        <time>2020-06-30T08:07:31Z</time>
      </trkpt>
      <trkpt lat="48.6599" lon="5.2464">
        <ele>328.4</ele>
        <time>2020-06-30T08:07:32Z</time>
      </trkpt>
      <trkpt lat="48.65989" lon="5.24633">
        <ele>328.4</ele>
        <time>2020-06-30T08:07:33Z</time>
      </trkpt>
      <trkpt lat="48.65987" lon="5.24624">
        <ele>328.4</ele>
        <time>2020-06-30T08:07:34Z</time>
      </trkpt>
      <trkpt lat="48.65986" lon="5.24616">
        <ele>328.4</ele>
        <time>2020-06-30T08:07:35Z</time>
      </trkpt>
      <trkpt lat="48.65984" lon="5.24607">
        <ele>328.4</ele>
        <time>2020-06-30T08:07:36Z</time>
      </trkpt>
      <trkpt lat="48.65983" lon="5.24599">
        <ele>328.3</ele>
        <time>2020-06-30T08:07:37Z</time>
      </trkpt>
      <trkpt lat="48.65981" lon="5.2459">
        <ele>328.3</ele>
        <time>2020-06-30T08:07:38Z</time>
      </trkpt>
      <trkpt lat="48.65979" lon="5.24582">
        <ele>328.2</ele>
        <time>2020-06-30T08:07:39Z</time>
      </trkpt>
      <trkpt lat="48.65977" lon="5.24575">
        <ele>328.2</ele>
        <time>2020-06-30T08:07:40Z</time>
      </trkpt>
      <trkpt lat="48.65975" lon="5.24567">
        <ele>328.2</ele>
        <time>2020-06-30T08:07:41Z</time>
      </trkpt>
      <trkpt lat="48.65973" lon="5.2456">
        <ele>328.1</ele>
        <time>2020-06-30T08:07:42Z</time>
      </trkpt>
      <trkpt lat="48.65972" lon="5.24552">
        <ele>328.1</ele>
        <time>2020-06-30T08:07:43Z</time>
      </trkpt>
      <trkpt lat="48.6597" lon="5.24544">
        <ele>328.1</ele>
        <time>2020-06-30T08:07:44Z</time>
      </trkpt>
      <trkpt lat="48.65967" lon="5.24536">
        <ele>328</ele>
        <time>2020-06-30T08:07:45Z</time>
      </trkpt>
      <trkpt lat="48.65966" lon="5.24527">
        <ele>328</ele>
        <time>2020-06-30T08:07:46Z</time>
      </trkpt>
      <trkpt lat="48.65964" lon="5.24519">
        <ele>327.9</ele>
        <time>2020-06-30T08:07:47Z</time>
      </trkpt>
      <trkpt lat="48.65961" lon="5.24512">
        <ele>327.9</ele>
        <time>2020-06-30T08:07:48Z</time>
      </trkpt>
      <trkpt lat="48.6596" lon="5.24504">
        <ele>327.9</ele>
        <time>2020-06-30T08:07:49Z</time>
      </trkpt>
      <trkpt lat="48.65958" lon="5.24496">
        <ele>327.8</ele>
        <time>2020-06-30T08:07:50Z</time>
      </trkpt>
      <trkpt lat="48.65956" lon="5.24487">
        <ele>327.8</ele>
        <time>2020-06-30T08:07:51Z</time>
      </trkpt>
      <trkpt lat="48.65954" lon="5.24479">
        <ele>327.8</ele>
        <time>2020-06-30T08:07:52Z</time>
      </trkpt>
      <trkpt lat="48.65952" lon="5.2447">
        <ele>327.8</ele>
        <time>2020-06-30T08:07:53Z</time>
      </trkpt>
      <trkpt lat="48.6595" lon="5.24462">
        <ele>327.8</ele>
        <time>2020-06-30T08:07:54Z</time>
      </trkpt>
      <trkpt lat="48.65948" lon="5.24455">
        <ele>327.8</ele>
        <time>2020-06-30T08:07:55Z</time>
      </trkpt>
      <trkpt lat="48.65946" lon="5.24447">
        <ele>327.8</ele>
        <time>2020-06-30T08:07:56Z</time>
      </trkpt>
      <trkpt lat="48.65945" lon="5.24439">
        <ele>327.8</ele>
        <time>2020-06-30T08:07:57Z</time>
      </trkpt>
      <trkpt lat="48.65943" lon="5.24431">
        <ele>327.8</ele>
        <time>2020-06-30T08:07:58Z</time>
      </trkpt>
      <trkpt lat="48.65941" lon="5.24423">
        <ele>327.7</ele>
        <time>2020-06-30T08:07:59Z</time>
      </trkpt>
      <trkpt lat="48.6594" lon="5.24415">
        <ele>327.7</ele>
        <time>2020-06-30T08:08:00Z</time>
      </trkpt>
      <trkpt lat="48.65938" lon="5.24407">
        <ele>327.7</ele>
        <time>2020-06-30T08:08:01Z</time>
      </trkpt>
      <trkpt lat="48.65936" lon="5.24399">
        <ele>327.7</ele>
        <time>2020-06-30T08:08:02Z</time>
      </trkpt>
      <trkpt lat="48.65934" lon="5.24391">
        <ele>327.7</ele>
        <time>2020-06-30T08:08:03Z</time>
      </trkpt>
      <trkpt lat="48.65932" lon="5.24384">
        <ele>327.7</ele>
        <time>2020-06-30T08:08:04Z</time>
      </trkpt>
      <trkpt lat="48.6593" lon="5.24375">
        <ele>327.7</ele>
        <time>2020-06-30T08:08:05Z</time>
      </trkpt>
      <trkpt lat="48.65928" lon="5.24368">
        <ele>327.7</ele>
        <time>2020-06-30T08:08:06Z</time>
      </trkpt>
      <trkpt lat="48.65926" lon="5.24359">
        <ele>327.7</ele>
        <time>2020-06-30T08:08:07Z</time>
      </trkpt>
      <trkpt lat="48.65924" lon="5.24351">
        <ele>327.7</ele>
        <time>2020-06-30T08:08:08Z</time>
      </trkpt>
      <trkpt lat="48.65922" lon="5.24342">
        <ele>327.7</ele>
        <time>2020-06-30T08:08:09Z</time>
      </trkpt>
      <trkpt lat="48.6592" lon="5.24334">
        <ele>327.7</ele>
        <time>2020-06-30T08:08:10Z</time>
      </trkpt>
      <trkpt lat="48.65918" lon="5.24326">
        <ele>327.7</ele>
        <time>2020-06-30T08:08:11Z</time>
      </trkpt>
      <trkpt lat="48.65916" lon="5.24317">
        <ele>327.7</ele>
        <time>2020-06-30T08:08:12Z</time>
      </trkpt>
      <trkpt lat="48.65915" lon="5.24309">
        <ele>327.6</ele>
        <time>2020-06-30T08:08:13Z</time>
      </trkpt>
      <trkpt lat="48.65913" lon="5.24302">
        <ele>327.6</ele>
        <time>2020-06-30T08:08:14Z</time>
      </trkpt>
      <trkpt lat="48.65911" lon="5.24294">
        <ele>327.6</ele>
        <time>2020-06-30T08:08:15Z</time>
      </trkpt>
      <trkpt lat="48.6591" lon="5.24287">
        <ele>327.6</ele>
        <time>2020-06-30T08:08:16Z</time>
      </trkpt>
      <trkpt lat="48.65908" lon="5.24279">
        <ele>327.5</ele>
        <time>2020-06-30T08:08:17Z</time>
      </trkpt>
      <trkpt lat="48.65906" lon="5.24273">
        <ele>327.5</ele>
        <time>2020-06-30T08:08:18Z</time>
      </trkpt>
      <trkpt lat="48.65904" lon="5.24265">
        <ele>327.5</ele>
        <time>2020-06-30T08:08:19Z</time>
      </trkpt>
      <trkpt lat="48.65902" lon="5.24258">
        <ele>327.5</ele>
        <time>2020-06-30T08:08:20Z</time>
      </trkpt>
      <trkpt lat="48.65901" lon="5.2425">
        <ele>327.5</ele>
        <time>2020-06-30T08:08:21Z</time>
      </trkpt>
      <trkpt lat="48.65899" lon="5.24242">
        <ele>327.4</ele>
        <time>2020-06-30T08:08:22Z</time>
      </trkpt>
      <trkpt lat="48.65897" lon="5.24234">
        <ele>327.4</ele>
        <time>2020-06-30T08:08:23Z</time>
      </trkpt>
      <trkpt lat="48.65895" lon="5.24226">
        <ele>327.4</ele>
        <time>2020-06-30T08:08:24Z</time>
      </trkpt>
      <trkpt lat="48.65893" lon="5.24217">
        <ele>327.4</ele>
        <time>2020-06-30T08:08:25Z</time>
      </trkpt>
      <trkpt lat="48.6589" lon="5.24209">
        <ele>327.4</ele>
        <time>2020-06-30T08:08:26Z</time>
      </trkpt>
      <trkpt lat="48.65889" lon="5.24201">
        <ele>327.4</ele>
        <time>2020-06-30T08:08:27Z</time>
      </trkpt>
      <trkpt lat="48.65887" lon="5.24192">
        <ele>327.3</ele>
        <time>2020-06-30T08:08:28Z</time>
      </trkpt>
      <trkpt lat="48.65885" lon="5.24184">
        <ele>327.3</ele>
        <time>2020-06-30T08:08:29Z</time>
      </trkpt>
      <trkpt lat="48.65883" lon="5.24176">
        <ele>327.3</ele>
        <time>2020-06-30T08:08:30Z</time>
      </trkpt>
      <trkpt lat="48.65881" lon="5.24169">
        <ele>327.2</ele>
        <time>2020-06-30T08:08:31Z</time>
      </trkpt>
      <trkpt lat="48.65879" lon="5.24161">
        <ele>327.1</ele>
        <time>2020-06-30T08:08:32Z</time>
      </trkpt>
      <trkpt lat="48.65877" lon="5.24154">
        <ele>327</ele>
        <time>2020-06-30T08:08:33Z</time>
      </trkpt>
      <trkpt lat="48.65875" lon="5.24145">
        <ele>326.8</ele>
        <time>2020-06-30T08:08:34Z</time>
      </trkpt>
      <trkpt lat="48.65872" lon="5.24137">
        <ele>326.7</ele>
        <time>2020-06-30T08:08:35Z</time>
      </trkpt>
      <trkpt lat="48.6587" lon="5.2413">
        <ele>326.7</ele>
        <time>2020-06-30T08:08:36Z</time>
      </trkpt>
      <trkpt lat="48.65868" lon="5.24121">
        <ele>326.6</ele>
        <time>2020-06-30T08:08:37Z</time>
      </trkpt>
      <trkpt lat="48.65867" lon="5.24113">
        <ele>326.6</ele>
        <time>2020-06-30T08:08:38Z</time>
      </trkpt>
      <trkpt lat="48.65864" lon="5.24105">
        <ele>326.5</ele>
        <time>2020-06-30T08:08:39Z</time>
      </trkpt>
      <trkpt lat="48.65864" lon="5.24095">
        <ele>326.4</ele>
        <time>2020-06-30T08:08:40Z</time>
      </trkpt>
      <trkpt lat="48.65862" lon="5.24087">
        <ele>326.4</ele>
        <time>2020-06-30T08:08:41Z</time>
      </trkpt>
      <trkpt lat="48.65861" lon="5.2408">
        <ele>326.3</ele>
        <time>2020-06-30T08:08:42Z</time>
      </trkpt>
      <trkpt lat="48.65859" lon="5.24072">
        <ele>326.2</ele>
        <time>2020-06-30T08:08:43Z</time>
      </trkpt>
      <trkpt lat="48.65858" lon="5.24064">
        <ele>326.1</ele>
        <time>2020-06-30T08:08:44Z</time>
      </trkpt>
      <trkpt lat="48.65856" lon="5.24056">
        <ele>326</ele>
        <time>2020-06-30T08:08:45Z</time>
      </trkpt>
      <trkpt lat="48.65854" lon="5.24047">
        <ele>326</ele>
        <time>2020-06-30T08:08:46Z</time>
      </trkpt>
      <trkpt lat="48.65853" lon="5.24038">
        <ele>325.9</ele>
        <time>2020-06-30T08:08:47Z</time>
      </trkpt>
      <trkpt lat="48.65851" lon="5.24028">
        <ele>325.9</ele>
        <time>2020-06-30T08:08:48Z</time>
      </trkpt>
      <trkpt lat="48.65849" lon="5.2402">
        <ele>325.9</ele>
        <time>2020-06-30T08:08:49Z</time>
      </trkpt>
      <trkpt lat="48.65847" lon="5.24012">
        <ele>325.9</ele>
        <time>2020-06-30T08:08:50Z</time>
      </trkpt>
      <trkpt lat="48.65845" lon="5.24004">
        <ele>325.9</ele>
        <time>2020-06-30T08:08:51Z</time>
      </trkpt>
      <trkpt lat="48.65843" lon="5.23996">
        <ele>326</ele>
        <time>2020-06-30T08:08:52Z</time>
      </trkpt>
      <trkpt lat="48.65841" lon="5.23988">
        <ele>326</ele>
        <time>2020-06-30T08:08:53Z</time>
      </trkpt>
      <trkpt lat="48.65839" lon="5.23981">
        <ele>325.9</ele>
        <time>2020-06-30T08:08:54Z</time>
      </trkpt>
      <trkpt lat="48.65837" lon="5.23973">
        <ele>325.9</ele>
        <time>2020-06-30T08:08:55Z</time>
      </trkpt>
      <trkpt lat="48.65836" lon="5.23965">
        <ele>325.8</ele>
        <time>2020-06-30T08:08:56Z</time>
      </trkpt>
      <trkpt lat="48.65833" lon="5.23958">
        <ele>325.8</ele>
        <time>2020-06-30T08:08:57Z</time>
      </trkpt>
      <trkpt lat="48.6583" lon="5.2395">
        <ele>325.7</ele>
        <time>2020-06-30T08:08:58Z</time>
      </trkpt>
      <trkpt lat="48.65828" lon="5.23944">
        <ele>325.7</ele>
        <time>2020-06-30T08:08:59Z</time>
      </trkpt>
      <trkpt lat="48.65825" lon="5.23937">
        <ele>325.6</ele>
        <time>2020-06-30T08:09:00Z</time>
      </trkpt>
      <trkpt lat="48.65822" lon="5.2393">
        <ele>325.5</ele>
        <time>2020-06-30T08:09:01Z</time>
      </trkpt>
      <trkpt lat="48.65819" lon="5.23923">
        <ele>325.4</ele>
        <time>2020-06-30T08:09:02Z</time>
      </trkpt>
      <trkpt lat="48.65815" lon="5.23918">
        <ele>325.4</ele>
        <time>2020-06-30T08:09:03Z</time>
      </trkpt>
      <trkpt lat="48.65811" lon="5.23911">
        <ele>325.3</ele>
        <time>2020-06-30T08:09:04Z</time>
      </trkpt>
      <trkpt lat="48.65808" lon="5.23905">
        <ele>325.2</ele>
        <time>2020-06-30T08:09:05Z</time>
      </trkpt>
      <trkpt lat="48.65804" lon="5.23898">
        <ele>325.1</ele>
        <time>2020-06-30T08:09:06Z</time>
      </trkpt>
      <trkpt lat="48.65801" lon="5.23892">
        <ele>325</ele>
        <time>2020-06-30T08:09:07Z</time>
      </trkpt>
      <trkpt lat="48.65797" lon="5.23885">
        <ele>324.8</ele>
        <time>2020-06-30T08:09:08Z</time>
      </trkpt>
      <trkpt lat="48.65794" lon="5.23878">
        <ele>324.7</ele>
        <time>2020-06-30T08:09:09Z</time>
      </trkpt>
      <trkpt lat="48.65789" lon="5.23872">
        <ele>324.6</ele>
        <time>2020-06-30T08:09:10Z</time>
      </trkpt>
      <trkpt lat="48.65785" lon="5.23865">
        <ele>324.4</ele>
        <time>2020-06-30T08:09:11Z</time>
      </trkpt>
      <trkpt lat="48.65781" lon="5.23858">
        <ele>324.3</ele>
        <time>2020-06-30T08:09:12Z</time>
      </trkpt>
      <trkpt lat="48.65777" lon="5.23851">
        <ele>324.2</ele>
        <time>2020-06-30T08:09:13Z</time>
      </trkpt>
      <trkpt lat="48.65774" lon="5.23844">
        <ele>324.1</ele>
        <time>2020-06-30T08:09:14Z</time>
      </trkpt>
      <trkpt lat="48.6577" lon="5.23837">
        <ele>324</ele>
        <time>2020-06-30T08:09:15Z</time>
      </trkpt>
      <trkpt lat="48.65766" lon="5.2383">
        <ele>323.9</ele>
        <time>2020-06-30T08:09:16Z</time>
      </trkpt>
      <trkpt lat="48.65763" lon="5.23823">
        <ele>323.8</ele>
        <time>2020-06-30T08:09:17Z</time>
      </trkpt>
      <trkpt lat="48.6576" lon="5.23816">
        <ele>323.7</ele>
        <time>2020-06-30T08:09:18Z</time>
      </trkpt>
      <trkpt lat="48.65757" lon="5.23808">
        <ele>323.6</ele>
        <time>2020-06-30T08:09:19Z</time>
      </trkpt>
      <trkpt lat="48.65755" lon="5.238">
        <ele>323.5</ele>
        <time>2020-06-30T08:09:20Z</time>
      </trkpt>
      <trkpt lat="48.65752" lon="5.23794">
        <ele>323.4</ele>
        <time>2020-06-30T08:09:21Z</time>
      </trkpt>
      <trkpt lat="48.65749" lon="5.23785">
        <ele>323.3</ele>
        <time>2020-06-30T08:09:22Z</time>
      </trkpt>
      <trkpt lat="48.65747" lon="5.23777">
        <ele>323.2</ele>
        <time>2020-06-30T08:09:23Z</time>
      </trkpt>
      <trkpt lat="48.65745" lon="5.23768">
        <ele>323</ele>
        <time>2020-06-30T08:09:24Z</time>
      </trkpt>
      <trkpt lat="48.65742" lon="5.23761">
        <ele>322.9</ele>
        <time>2020-06-30T08:09:25Z</time>
      </trkpt>
      <trkpt lat="48.6574" lon="5.23752">
        <ele>322.8</ele>
        <time>2020-06-30T08:09:26Z</time>
      </trkpt>
      <trkpt lat="48.65737" lon="5.23745">
        <ele>322.6</ele>
        <time>2020-06-30T08:09:27Z</time>
      </trkpt>
      <trkpt lat="48.65735" lon="5.23737">
        <ele>322.4</ele>
        <time>2020-06-30T08:09:28Z</time>
      </trkpt>
      <trkpt lat="48.65732" lon="5.23729">
        <ele>322.2</ele>
        <time>2020-06-30T08:09:29Z</time>
      </trkpt>
      <trkpt lat="48.6573" lon="5.23721">
        <ele>322.1</ele>
        <time>2020-06-30T08:09:30Z</time>
      </trkpt>
      <trkpt lat="48.65729" lon="5.23713">
        <ele>322</ele>
        <time>2020-06-30T08:09:31Z</time>
      </trkpt>
      <trkpt lat="48.65728" lon="5.23704">
        <ele>321.9</ele>
        <time>2020-06-30T08:09:32Z</time>
      </trkpt>
      <trkpt lat="48.65727" lon="5.23696">
        <ele>321.8</ele>
        <time>2020-06-30T08:09:33Z</time>
      </trkpt>
      <trkpt lat="48.65726" lon="5.23687">
        <ele>321.7</ele>
        <time>2020-06-30T08:09:34Z</time>
      </trkpt>
      <trkpt lat="48.65725" lon="5.2368">
        <ele>321.6</ele>
        <time>2020-06-30T08:09:35Z</time>
      </trkpt>
      <trkpt lat="48.65724" lon="5.23671">
        <ele>321.5</ele>
        <time>2020-06-30T08:09:36Z</time>
      </trkpt>
      <trkpt lat="48.65725" lon="5.23663">
        <ele>321.4</ele>
        <time>2020-06-30T08:09:37Z</time>
      </trkpt>
      <trkpt lat="48.65725" lon="5.23655">
        <ele>321.3</ele>
        <time>2020-06-30T08:09:38Z</time>
      </trkpt>
      <trkpt lat="48.65725" lon="5.23647">
        <ele>321.1</ele>
        <time>2020-06-30T08:09:39Z</time>
      </trkpt>
      <trkpt lat="48.65725" lon="5.23638">
        <ele>321</ele>
        <time>2020-06-30T08:09:40Z</time>
      </trkpt>
      <trkpt lat="48.65726" lon="5.2363">
        <ele>320.9</ele>
        <time>2020-06-30T08:09:41Z</time>
      </trkpt>
      <trkpt lat="48.65726" lon="5.23621">
        <ele>320.7</ele>
        <time>2020-06-30T08:09:42Z</time>
      </trkpt>
      <trkpt lat="48.65726" lon="5.23613">
        <ele>320.6</ele>
        <time>2020-06-30T08:09:43Z</time>
      </trkpt>
      <trkpt lat="48.65726" lon="5.23605">
        <ele>320.5</ele>
        <time>2020-06-30T08:09:44Z</time>
      </trkpt>
      <trkpt lat="48.65726" lon="5.23596">
        <ele>320.4</ele>
        <time>2020-06-30T08:09:45Z</time>
      </trkpt>
      <trkpt lat="48.65726" lon="5.23588">
        <ele>320.3</ele>
        <time>2020-06-30T08:09:46Z</time>
      </trkpt>
      <trkpt lat="48.65727" lon="5.23579">
        <ele>320.1</ele>
        <time>2020-06-30T08:09:47Z</time>
      </trkpt>
      <trkpt lat="48.65727" lon="5.2357">
        <ele>319.9</ele>
        <time>2020-06-30T08:09:48Z</time>
      </trkpt>
      <trkpt lat="48.65728" lon="5.23561">
        <ele>319.8</ele>
        <time>2020-06-30T08:09:49Z</time>
      </trkpt>
      <trkpt lat="48.65728" lon="5.23553">
        <ele>319.6</ele>
        <time>2020-06-30T08:09:50Z</time>
      </trkpt>
      <trkpt lat="48.65728" lon="5.23545">
        <ele>319.5</ele>
        <time>2020-06-30T08:09:51Z</time>
      </trkpt>
      <trkpt lat="48.65727" lon="5.23536">
        <ele>319.3</ele>
        <time>2020-06-30T08:09:52Z</time>
      </trkpt>
      <trkpt lat="48.65726" lon="5.23528">
        <ele>319.1</ele>
        <time>2020-06-30T08:09:53Z</time>
      </trkpt>
      <trkpt lat="48.65725" lon="5.23519">
        <ele>318.9</ele>
        <time>2020-06-30T08:09:54Z</time>
      </trkpt>
      <trkpt lat="48.65724" lon="5.2351">
        <ele>318.7</ele>
        <time>2020-06-30T08:09:55Z</time>
      </trkpt>
      <trkpt lat="48.65722" lon="5.23501">
        <ele>318.4</ele>
        <time>2020-06-30T08:09:56Z</time>
      </trkpt>
      <trkpt lat="48.65721" lon="5.23493">
        <ele>318.2</ele>
        <time>2020-06-30T08:09:57Z</time>
      </trkpt>
      <trkpt lat="48.65719" lon="5.23483">
        <ele>317.9</ele>
        <time>2020-06-30T08:09:58Z</time>
      </trkpt>
      <trkpt lat="48.65718" lon="5.23474">
        <ele>317.7</ele>
        <time>2020-06-30T08:09:59Z</time>
      </trkpt>
      <trkpt lat="48.65716" lon="5.23466">
        <ele>317.3</ele>
        <time>2020-06-30T08:10:00Z</time>
      </trkpt>
      <trkpt lat="48.65713" lon="5.23457">
        <ele>317</ele>
        <time>2020-06-30T08:10:01Z</time>
      </trkpt>
      <trkpt lat="48.65711" lon="5.23449">
        <ele>316.7</ele>
        <time>2020-06-30T08:10:02Z</time>
      </trkpt>
      <trkpt lat="48.6571" lon="5.23441">
        <ele>316.4</ele>
        <time>2020-06-30T08:10:03Z</time>
      </trkpt>
      <trkpt lat="48.65708" lon="5.23433">
        <ele>316.1</ele>
        <time>2020-06-30T08:10:04Z</time>
      </trkpt>
      <trkpt lat="48.65706" lon="5.23424">
        <ele>315.8</ele>
        <time>2020-06-30T08:10:05Z</time>
      </trkpt>
      <trkpt lat="48.65704" lon="5.23415">
        <ele>315.5</ele>
        <time>2020-06-30T08:10:06Z</time>
      </trkpt>
      <trkpt lat="48.65702" lon="5.23406">
        <ele>315.2</ele>
        <time>2020-06-30T08:10:07Z</time>
      </trkpt>
      <trkpt lat="48.657" lon="5.23399">
        <ele>314.9</ele>
        <time>2020-06-30T08:10:08Z</time>
      </trkpt>
      <trkpt lat="48.65697" lon="5.23391">
        <ele>314.7</ele>
        <time>2020-06-30T08:10:09Z</time>
      </trkpt>
      <trkpt lat="48.65696" lon="5.23382">
        <ele>313.6</ele>
        <time>2020-06-30T08:10:10Z</time>
      </trkpt>
      <trkpt lat="48.65694" lon="5.23373">
        <ele>312.9</ele>
        <time>2020-06-30T08:10:11Z</time>
      </trkpt>
      <trkpt lat="48.65691" lon="5.23366">
        <ele>312.4</ele>
        <time>2020-06-30T08:10:12Z</time>
      </trkpt>
      <trkpt lat="48.65689" lon="5.23357">
        <ele>311.9</ele>
        <time>2020-06-30T08:10:13Z</time>
      </trkpt>
      <trkpt lat="48.65687" lon="5.23346">
        <ele>311.4</ele>
        <time>2020-06-30T08:10:14Z</time>
      </trkpt>
      <trkpt lat="48.65685" lon="5.23337">
        <ele>310.9</ele>
        <time>2020-06-30T08:10:15Z</time>
      </trkpt>
      <trkpt lat="48.65683" lon="5.23328">
        <ele>310.5</ele>
        <time>2020-06-30T08:10:16Z</time>
      </trkpt>
      <trkpt lat="48.65681" lon="5.23318">
        <ele>310.1</ele>
        <time>2020-06-30T08:10:17Z</time>
      </trkpt>
      <trkpt lat="48.65679" lon="5.23308">
        <ele>309.8</ele>
        <time>2020-06-30T08:10:18Z</time>
      </trkpt>
      <trkpt lat="48.65677" lon="5.23299">
        <ele>309.4</ele>
        <time>2020-06-30T08:10:19Z</time>
      </trkpt>
      <trkpt lat="48.65675" lon="5.23289">
        <ele>309</ele>
        <time>2020-06-30T08:10:20Z</time>
      </trkpt>
      <trkpt lat="48.65672" lon="5.2328">
        <ele>308.5</ele>
        <time>2020-06-30T08:10:21Z</time>
      </trkpt>
      <trkpt lat="48.6567" lon="5.2327">
        <ele>308</ele>
        <time>2020-06-30T08:10:22Z</time>
      </trkpt>
      <trkpt lat="48.65668" lon="5.2326">
        <ele>307.6</ele>
        <time>2020-06-30T08:10:23Z</time>
      </trkpt>
      <trkpt lat="48.65666" lon="5.23251">
        <ele>307.2</ele>
        <time>2020-06-30T08:10:24Z</time>
      </trkpt>
      <trkpt lat="48.65664" lon="5.23241">
        <ele>306.9</ele>
        <time>2020-06-30T08:10:25Z</time>
      </trkpt>
      <trkpt lat="48.65662" lon="5.23231">
        <ele>306.5</ele>
        <time>2020-06-30T08:10:26Z</time>
      </trkpt>
      <trkpt lat="48.65659" lon="5.23221">
        <ele>306.2</ele>
        <time>2020-06-30T08:10:27Z</time>
      </trkpt>
      <trkpt lat="48.65657" lon="5.23212">
        <ele>305.7</ele>
        <time>2020-06-30T08:10:28Z</time>
      </trkpt>
      <trkpt lat="48.65655" lon="5.23202">
        <ele>305.3</ele>
        <time>2020-06-30T08:10:29Z</time>
      </trkpt>
      <trkpt lat="48.65653" lon="5.23193">
        <ele>304.9</ele>
        <time>2020-06-30T08:10:30Z</time>
      </trkpt>
      <trkpt lat="48.6565" lon="5.23183">
        <ele>304.5</ele>
        <time>2020-06-30T08:10:31Z</time>
      </trkpt>
      <trkpt lat="48.65649" lon="5.23173">
        <ele>304.1</ele>
        <time>2020-06-30T08:10:32Z</time>
      </trkpt>
      <trkpt lat="48.65647" lon="5.23163">
        <ele>303.8</ele>
        <time>2020-06-30T08:10:33Z</time>
      </trkpt>
      <trkpt lat="48.65645" lon="5.23153">
        <ele>303.5</ele>
        <time>2020-06-30T08:10:34Z</time>
      </trkpt>
      <trkpt lat="48.65643" lon="5.23143">
        <ele>303.1</ele>
        <time>2020-06-30T08:10:35Z</time>
      </trkpt>
      <trkpt lat="48.65641" lon="5.23133">
        <ele>302.7</ele>
        <time>2020-06-30T08:10:36Z</time>
      </trkpt>
      <trkpt lat="48.65639" lon="5.23123">
        <ele>302.3</ele>
        <time>2020-06-30T08:10:37Z</time>
      </trkpt>
      <trkpt lat="48.65636" lon="5.23113">
        <ele>301.9</ele>
        <time>2020-06-30T08:10:38Z</time>
      </trkpt>
      <trkpt lat="48.65634" lon="5.23103">
        <ele>301.5</ele>
        <time>2020-06-30T08:10:39Z</time>
      </trkpt>
      <trkpt lat="48.65631" lon="5.23093">
        <ele>301</ele>
        <time>2020-06-30T08:10:40Z</time>
      </trkpt>
      <trkpt lat="48.65629" lon="5.23083">
        <ele>300.6</ele>
        <time>2020-06-30T08:10:41Z</time>
      </trkpt>
      <trkpt lat="48.65627" lon="5.23072">
        <ele>300.2</ele>
        <time>2020-06-30T08:10:42Z</time>
      </trkpt>
      <trkpt lat="48.65625" lon="5.23062">
        <ele>299.7</ele>
        <time>2020-06-30T08:10:43Z</time>
      </trkpt>
      <trkpt lat="48.65623" lon="5.23052">
        <ele>299.4</ele>
        <time>2020-06-30T08:10:44Z</time>
      </trkpt>
      <trkpt lat="48.6562" lon="5.23042">
        <ele>299</ele>
        <time>2020-06-30T08:10:45Z</time>
      </trkpt>
      <trkpt lat="48.65618" lon="5.23032">
        <ele>298.6</ele>
        <time>2020-06-30T08:10:46Z</time>
      </trkpt>
      <trkpt lat="48.65616" lon="5.23022">
        <ele>298.3</ele>
        <time>2020-06-30T08:10:47Z</time>
      </trkpt>
      <trkpt lat="48.65614" lon="5.23012">
        <ele>298</ele>
        <time>2020-06-30T08:10:48Z</time>
      </trkpt>
      <trkpt lat="48.65611" lon="5.23002">
        <ele>297.7</ele>
        <time>2020-06-30T08:10:49Z</time>
      </trkpt>
      <trkpt lat="48.65608" lon="5.22993">
        <ele>297.5</ele>
        <time>2020-06-30T08:10:50Z</time>
      </trkpt>
      <trkpt lat="48.65606" lon="5.22983">
        <ele>297.3</ele>
        <time>2020-06-30T08:10:51Z</time>
      </trkpt>
      <trkpt lat="48.65604" lon="5.22974">
        <ele>297.1</ele>
        <time>2020-06-30T08:10:52Z</time>
      </trkpt>
      <trkpt lat="48.65602" lon="5.22963">
        <ele>296.9</ele>
        <time>2020-06-30T08:10:53Z</time>
      </trkpt>
      <trkpt lat="48.656" lon="5.22953">
        <ele>296.8</ele>
        <time>2020-06-30T08:10:54Z</time>
      </trkpt>
      <trkpt lat="48.65599" lon="5.22944">
        <ele>296.6</ele>
        <time>2020-06-30T08:10:55Z</time>
      </trkpt>
      <trkpt lat="48.65597" lon="5.22934">
        <ele>296.4</ele>
        <time>2020-06-30T08:10:56Z</time>
      </trkpt>
      <trkpt lat="48.65595" lon="5.22924">
        <ele>296.3</ele>
        <time>2020-06-30T08:10:57Z</time>
      </trkpt>
      <trkpt lat="48.65593" lon="5.22915">
        <ele>296.1</ele>
        <time>2020-06-30T08:10:58Z</time>
      </trkpt>
      <trkpt lat="48.6559" lon="5.22905">
        <ele>295.9</ele>
        <time>2020-06-30T08:10:59Z</time>
      </trkpt>
      <trkpt lat="48.65588" lon="5.22896">
        <ele>295.6</ele>
        <time>2020-06-30T08:11:00Z</time>
      </trkpt>
      <trkpt lat="48.65585" lon="5.22887">
        <ele>295.3</ele>
        <time>2020-06-30T08:11:01Z</time>
      </trkpt>
      <trkpt lat="48.65582" lon="5.22879">
        <ele>295</ele>
        <time>2020-06-30T08:11:02Z</time>
      </trkpt>
      <trkpt lat="48.65579" lon="5.2287">
        <ele>294.7</ele>
        <time>2020-06-30T08:11:03Z</time>
      </trkpt>
      <trkpt lat="48.65576" lon="5.2286">
        <ele>294.5</ele>
        <time>2020-06-30T08:11:04Z</time>
      </trkpt>
      <trkpt lat="48.65573" lon="5.22851">
        <ele>294.1</ele>
        <time>2020-06-30T08:11:05Z</time>
      </trkpt>
      <trkpt lat="48.6557" lon="5.22842">
        <ele>293.8</ele>
        <time>2020-06-30T08:11:06Z</time>
      </trkpt>
      <trkpt lat="48.65568" lon="5.22833">
        <ele>293.4</ele>
        <time>2020-06-30T08:11:07Z</time>
      </trkpt>
      <trkpt lat="48.65565" lon="5.22824">
        <ele>293.2</ele>
        <time>2020-06-30T08:11:08Z</time>
      </trkpt>
      <trkpt lat="48.65562" lon="5.22815">
        <ele>292.9</ele>
        <time>2020-06-30T08:11:09Z</time>
      </trkpt>
      <trkpt lat="48.6556" lon="5.22806">
        <ele>292.7</ele>
        <time>2020-06-30T08:11:10Z</time>
      </trkpt>
      <trkpt lat="48.65557" lon="5.22796">
        <ele>292.5</ele>
        <time>2020-06-30T08:11:11Z</time>
      </trkpt>
      <trkpt lat="48.65554" lon="5.22787">
        <ele>292.1</ele>
        <time>2020-06-30T08:11:12Z</time>
      </trkpt>
      <trkpt lat="48.65552" lon="5.22777">
        <ele>291.8</ele>
        <time>2020-06-30T08:11:13Z</time>
      </trkpt>
      <trkpt lat="48.65549" lon="5.22768">
        <ele>291.4</ele>
        <time>2020-06-30T08:11:14Z</time>
      </trkpt>
      <trkpt lat="48.65547" lon="5.22758">
        <ele>291.1</ele>
        <time>2020-06-30T08:11:15Z</time>
      </trkpt>
      <trkpt lat="48.65545" lon="5.22748">
        <ele>290.9</ele>
        <time>2020-06-30T08:11:16Z</time>
      </trkpt>
      <trkpt lat="48.65543" lon="5.22738">
        <ele>290.6</ele>
        <time>2020-06-30T08:11:17Z</time>
      </trkpt>
      <trkpt lat="48.65541" lon="5.22729">
        <ele>290.4</ele>
        <time>2020-06-30T08:11:18Z</time>
      </trkpt>
      <trkpt lat="48.65539" lon="5.22719">
        <ele>290.1</ele>
        <time>2020-06-30T08:11:19Z</time>
      </trkpt>
      <trkpt lat="48.65537" lon="5.22709">
        <ele>289.8</ele>
        <time>2020-06-30T08:11:20Z</time>
      </trkpt>
      <trkpt lat="48.65535" lon="5.227">
        <ele>289.5</ele>
        <time>2020-06-30T08:11:21Z</time>
      </trkpt>
      <trkpt lat="48.65533" lon="5.2269">
        <ele>289.1</ele>
        <time>2020-06-30T08:11:22Z</time>
      </trkpt>
      <trkpt lat="48.65531" lon="5.22681">
        <ele>288.8</ele>
        <time>2020-06-30T08:11:23Z</time>
      </trkpt>
      <trkpt lat="48.65528" lon="5.22671">
        <ele>288.5</ele>
        <time>2020-06-30T08:11:24Z</time>
      </trkpt>
      <trkpt lat="48.65526" lon="5.22662">
        <ele>288.2</ele>
        <time>2020-06-30T08:11:25Z</time>
      </trkpt>
      <trkpt lat="48.65524" lon="5.22653">
        <ele>287.9</ele>
        <time>2020-06-30T08:11:26Z</time>
      </trkpt>
      <trkpt lat="48.65522" lon="5.22643">
        <ele>287.7</ele>
        <time>2020-06-30T08:11:27Z</time>
      </trkpt>
      <trkpt lat="48.6552" lon="5.22634">
        <ele>287.5</ele>
        <time>2020-06-30T08:11:28Z</time>
      </trkpt>
      <trkpt lat="48.65518" lon="5.22625">
        <ele>287.3</ele>
        <time>2020-06-30T08:11:29Z</time>
      </trkpt>
      <trkpt lat="48.65515" lon="5.22616">
        <ele>287.1</ele>
        <time>2020-06-30T08:11:30Z</time>
      </trkpt>
      <trkpt lat="48.65513" lon="5.22607">
        <ele>286.8</ele>
        <time>2020-06-30T08:11:31Z</time>
      </trkpt>
      <trkpt lat="48.6551" lon="5.22598">
        <ele>286.5</ele>
        <time>2020-06-30T08:11:32Z</time>
      </trkpt>
      <trkpt lat="48.65508" lon="5.22589">
        <ele>286.2</ele>
        <time>2020-06-30T08:11:33Z</time>
      </trkpt>
      <trkpt lat="48.65504" lon="5.22581">
        <ele>285.9</ele>
        <time>2020-06-30T08:11:34Z</time>
      </trkpt>
      <trkpt lat="48.65502" lon="5.22572">
        <ele>285.7</ele>
        <time>2020-06-30T08:11:35Z</time>
      </trkpt>
      <trkpt lat="48.65499" lon="5.22563">
        <ele>285.4</ele>
        <time>2020-06-30T08:11:36Z</time>
      </trkpt>
      <trkpt lat="48.65497" lon="5.22554">
        <ele>285</ele>
        <time>2020-06-30T08:11:37Z</time>
      </trkpt>
      <trkpt lat="48.65494" lon="5.22544">
        <ele>284.6</ele>
        <time>2020-06-30T08:11:38Z</time>
      </trkpt>
      <trkpt lat="48.65491" lon="5.22535">
        <ele>284.3</ele>
        <time>2020-06-30T08:11:39Z</time>
      </trkpt>
      <trkpt lat="48.65488" lon="5.22527">
        <ele>283.9</ele>
        <time>2020-06-30T08:11:40Z</time>
      </trkpt>
      <trkpt lat="48.65486" lon="5.22517">
        <ele>283.6</ele>
        <time>2020-06-30T08:11:41Z</time>
      </trkpt>
      <trkpt lat="48.65483" lon="5.22509">
        <ele>283.3</ele>
        <time>2020-06-30T08:11:42Z</time>
      </trkpt>
      <trkpt lat="48.65479" lon="5.225">
        <ele>283</ele>
        <time>2020-06-30T08:11:43Z</time>
      </trkpt>
      <trkpt lat="48.65476" lon="5.2249">
        <ele>282.6</ele>
        <time>2020-06-30T08:11:44Z</time>
      </trkpt>
      <trkpt lat="48.65472" lon="5.2248">
        <ele>282.2</ele>
        <time>2020-06-30T08:11:45Z</time>
      </trkpt>
      <trkpt lat="48.65469" lon="5.22471">
        <ele>281.8</ele>
        <time>2020-06-30T08:11:46Z</time>
      </trkpt>
      <trkpt lat="48.65466" lon="5.22461">
        <ele>281.5</ele>
        <time>2020-06-30T08:11:47Z</time>
      </trkpt>
      <trkpt lat="48.65462" lon="5.22451">
        <ele>281.2</ele>
        <time>2020-06-30T08:11:48Z</time>
      </trkpt>
      <trkpt lat="48.65459" lon="5.22441">
        <ele>281</ele>
        <time>2020-06-30T08:11:49Z</time>
      </trkpt>
      <trkpt lat="48.65455" lon="5.22431">
        <ele>280.7</ele>
        <time>2020-06-30T08:11:50Z</time>
      </trkpt>
      <trkpt lat="48.65452" lon="5.22421">
        <ele>280.3</ele>
        <time>2020-06-30T08:11:51Z</time>
      </trkpt>
      <trkpt lat="48.65448" lon="5.22411">
        <ele>279.9</ele>
        <time>2020-06-30T08:11:52Z</time>
      </trkpt>
      <trkpt lat="48.65444" lon="5.22401">
        <ele>279.6</ele>
        <time>2020-06-30T08:11:53Z</time>
      </trkpt>
      <trkpt lat="48.65441" lon="5.2239">
        <ele>279.3</ele>
        <time>2020-06-30T08:11:54Z</time>
      </trkpt>
      <trkpt lat="48.65437" lon="5.2238">
        <ele>279</ele>
        <time>2020-06-30T08:11:55Z</time>
      </trkpt>
      <trkpt lat="48.65433" lon="5.22371">
        <ele>278.7</ele>
        <time>2020-06-30T08:11:56Z</time>
      </trkpt>
      <trkpt lat="48.6543" lon="5.22361">
        <ele>278.4</ele>
        <time>2020-06-30T08:11:57Z</time>
      </trkpt>
      <trkpt lat="48.65426" lon="5.22351">
        <ele>278.1</ele>
        <time>2020-06-30T08:11:58Z</time>
      </trkpt>
      <trkpt lat="48.65422" lon="5.22342">
        <ele>277.7</ele>
        <time>2020-06-30T08:11:59Z</time>
      </trkpt>
      <trkpt lat="48.65419" lon="5.22332">
        <ele>277.5</ele>
        <time>2020-06-30T08:12:00Z</time>
      </trkpt>
      <trkpt lat="48.65415" lon="5.22322">
        <ele>277.2</ele>
        <time>2020-06-30T08:12:01Z</time>
      </trkpt>
      <trkpt lat="48.65411" lon="5.22312">
        <ele>277</ele>
        <time>2020-06-30T08:12:02Z</time>
      </trkpt>
      <trkpt lat="48.65407" lon="5.22303">
        <ele>276.7</ele>
        <time>2020-06-30T08:12:03Z</time>
      </trkpt>
      <trkpt lat="48.65403" lon="5.22293">
        <ele>276.5</ele>
        <time>2020-06-30T08:12:04Z</time>
      </trkpt>
      <trkpt lat="48.654" lon="5.22284">
        <ele>276.2</ele>
        <time>2020-06-30T08:12:05Z</time>
      </trkpt>
      <trkpt lat="48.65396" lon="5.22275">
        <ele>276</ele>
        <time>2020-06-30T08:12:06Z</time>
      </trkpt>
      <trkpt lat="48.65392" lon="5.22265">
        <ele>275.9</ele>
        <time>2020-06-30T08:12:07Z</time>
      </trkpt>
      <trkpt lat="48.65389" lon="5.22256">
        <ele>275.9</ele>
        <time>2020-06-30T08:12:08Z</time>
      </trkpt>
      <trkpt lat="48.65385" lon="5.22247">
        <ele>276</ele>
        <time>2020-06-30T08:12:09Z</time>
      </trkpt>
      <trkpt lat="48.65381" lon="5.22238">
        <ele>276</ele>
        <time>2020-06-30T08:12:10Z</time>
      </trkpt>
      <trkpt lat="48.65378" lon="5.22228">
        <ele>276</ele>
        <time>2020-06-30T08:12:11Z</time>
      </trkpt>
      <trkpt lat="48.65374" lon="5.22219">
        <ele>275.7</ele>
        <time>2020-06-30T08:12:12Z</time>
      </trkpt>
      <trkpt lat="48.65371" lon="5.2221">
        <ele>275.5</ele>
        <time>2020-06-30T08:12:13Z</time>
      </trkpt>
      <trkpt lat="48.65367" lon="5.22202">
        <ele>275.4</ele>
        <time>2020-06-30T08:12:14Z</time>
      </trkpt>
      <trkpt lat="48.65364" lon="5.22193">
        <ele>275.2</ele>
        <time>2020-06-30T08:12:15Z</time>
      </trkpt>
      <trkpt lat="48.6536" lon="5.22185">
        <ele>275.2</ele>
        <time>2020-06-30T08:12:16Z</time>
      </trkpt>
      <trkpt lat="48.65356" lon="5.22177">
        <ele>275.1</ele>
        <time>2020-06-30T08:12:17Z</time>
      </trkpt>
      <trkpt lat="48.65351" lon="5.22169">
        <ele>275</ele>
        <time>2020-06-30T08:12:18Z</time>
      </trkpt>
      <trkpt lat="48.65347" lon="5.22161">
        <ele>274.9</ele>
        <time>2020-06-30T08:12:19Z</time>
      </trkpt>
      <trkpt lat="48.65342" lon="5.22154">
        <ele>274.8</ele>
        <time>2020-06-30T08:12:20Z</time>
      </trkpt>
      <trkpt lat="48.65338" lon="5.22147">
        <ele>274.7</ele>
        <time>2020-06-30T08:12:21Z</time>
      </trkpt>
      <trkpt lat="48.65333" lon="5.22139">
        <ele>274.7</ele>
        <time>2020-06-30T08:12:22Z</time>
      </trkpt>
      <trkpt lat="48.65329" lon="5.22131">
        <ele>274.7</ele>
        <time>2020-06-30T08:12:23Z</time>
      </trkpt>
      <trkpt lat="48.65325" lon="5.22123">
        <ele>274.7</ele>
        <time>2020-06-30T08:12:24Z</time>
      </trkpt>
      <trkpt lat="48.65322" lon="5.22115">
        <ele>274.7</ele>
        <time>2020-06-30T08:12:25Z</time>
      </trkpt>
      <trkpt lat="48.65318" lon="5.22107">
        <ele>274.7</ele>
        <time>2020-06-30T08:12:26Z</time>
      </trkpt>
      <trkpt lat="48.65314" lon="5.22099">
        <ele>274.7</ele>
        <time>2020-06-30T08:12:27Z</time>
      </trkpt>
      <trkpt lat="48.65311" lon="5.22092">
        <ele>274.7</ele>
        <time>2020-06-30T08:12:28Z</time>
      </trkpt>
      <trkpt lat="48.65307" lon="5.22084">
        <ele>274.7</ele>
        <time>2020-06-30T08:12:29Z</time>
      </trkpt>
      <trkpt lat="48.65303" lon="5.22077">
        <ele>274.7</ele>
        <time>2020-06-30T08:12:30Z</time>
      </trkpt>
      <trkpt lat="48.65299" lon="5.2207">
        <ele>274.7</ele>
        <time>2020-06-30T08:12:31Z</time>
      </trkpt>
      <trkpt lat="48.65295" lon="5.22064">
        <ele>274.8</ele>
        <time>2020-06-30T08:12:32Z</time>
      </trkpt>
      <trkpt lat="48.65292" lon="5.22057">
        <ele>274.8</ele>
        <time>2020-06-30T08:12:33Z</time>
      </trkpt>
      <trkpt lat="48.65288" lon="5.2205">
        <ele>274.8</ele>
        <time>2020-06-30T08:12:34Z</time>
      </trkpt>
      <trkpt lat="48.65284" lon="5.22044">
        <ele>274.8</ele>
        <time>2020-06-30T08:12:35Z</time>
      </trkpt>
      <trkpt lat="48.65281" lon="5.22039">
        <ele>274.8</ele>
        <time>2020-06-30T08:12:36Z</time>
      </trkpt>
      <trkpt lat="48.65278" lon="5.22032">
        <ele>274.8</ele>
        <time>2020-06-30T08:12:37Z</time>
      </trkpt>
      <trkpt lat="48.65275" lon="5.22027">
        <ele>274.9</ele>
        <time>2020-06-30T08:12:38Z</time>
      </trkpt>
      <trkpt lat="48.65271" lon="5.22022">
        <ele>274.9</ele>
        <time>2020-06-30T08:12:39Z</time>
      </trkpt>
      <trkpt lat="48.65267" lon="5.22016">
        <ele>274.9</ele>
        <time>2020-06-30T08:12:40Z</time>
      </trkpt>
      <trkpt lat="48.65263" lon="5.22011">
        <ele>274.9</ele>
        <time>2020-06-30T08:12:41Z</time>
      </trkpt>
      <trkpt lat="48.6526" lon="5.22005">
        <ele>274.9</ele>
        <time>2020-06-30T08:12:42Z</time>
      </trkpt>
      <trkpt lat="48.65256" lon="5.21999">
        <ele>275</ele>
        <time>2020-06-30T08:12:43Z</time>
      </trkpt>
      <trkpt lat="48.65252" lon="5.21993">
        <ele>275</ele>
        <time>2020-06-30T08:12:44Z</time>
      </trkpt>
      <trkpt lat="48.65248" lon="5.21988">
        <ele>275</ele>
        <time>2020-06-30T08:12:45Z</time>
      </trkpt>
      <trkpt lat="48.65244" lon="5.21983">
        <ele>275</ele>
        <time>2020-06-30T08:12:46Z</time>
      </trkpt>
      <trkpt lat="48.65241" lon="5.21977">
        <ele>275</ele>
        <time>2020-06-30T08:12:47Z</time>
      </trkpt>
      <trkpt lat="48.65237" lon="5.21971">
        <ele>275</ele>
        <time>2020-06-30T08:12:48Z</time>
      </trkpt>
      <trkpt lat="48.65235" lon="5.21964">
        <ele>275</ele>
        <time>2020-06-30T08:12:49Z</time>
      </trkpt>
      <trkpt lat="48.6523" lon="5.21959">
        <ele>275</ele>
        <time>2020-06-30T08:12:50Z</time>
      </trkpt>
      <trkpt lat="48.65227" lon="5.21953">
        <ele>274.9</ele>
        <time>2020-06-30T08:12:51Z</time>
      </trkpt>
      <trkpt lat="48.65224" lon="5.21947">
        <ele>274.9</ele>
        <time>2020-06-30T08:12:52Z</time>
      </trkpt>
      <trkpt lat="48.6522" lon="5.21941">
        <ele>274.8</ele>
        <time>2020-06-30T08:12:53Z</time>
      </trkpt>
      <trkpt lat="48.65217" lon="5.21935">
        <ele>274.7</ele>
        <time>2020-06-30T08:12:54Z</time>
      </trkpt>
      <trkpt lat="48.65213" lon="5.21929">
        <ele>274.7</ele>
        <time>2020-06-30T08:12:55Z</time>
      </trkpt>
      <trkpt lat="48.65211" lon="5.21923">
        <ele>274.6</ele>
        <time>2020-06-30T08:12:56Z</time>
      </trkpt>
      <trkpt lat="48.65208" lon="5.21917">
        <ele>274.5</ele>
        <time>2020-06-30T08:12:57Z</time>
      </trkpt>
      <trkpt lat="48.65205" lon="5.21912">
        <ele>274.5</ele>
        <time>2020-06-30T08:12:58Z</time>
      </trkpt>
      <trkpt lat="48.65201" lon="5.21906">
        <ele>274.4</ele>
        <time>2020-06-30T08:12:59Z</time>
      </trkpt>
      <trkpt lat="48.65197" lon="5.21901">
        <ele>274.3</ele>
        <time>2020-06-30T08:13:00Z</time>
      </trkpt>
      <trkpt lat="48.65193" lon="5.21895">
        <ele>274.2</ele>
        <time>2020-06-30T08:13:01Z</time>
      </trkpt>
      <trkpt lat="48.6519" lon="5.21889">
        <ele>274.1</ele>
        <time>2020-06-30T08:13:02Z</time>
      </trkpt>
      <trkpt lat="48.65186" lon="5.21883">
        <ele>274.1</ele>
        <time>2020-06-30T08:13:03Z</time>
      </trkpt>
      <trkpt lat="48.65181" lon="5.21877">
        <ele>274</ele>
        <time>2020-06-30T08:13:04Z</time>
      </trkpt>
      <trkpt lat="48.65178" lon="5.2187">
        <ele>273.9</ele>
        <time>2020-06-30T08:13:05Z</time>
      </trkpt>
      <trkpt lat="48.65174" lon="5.21864">
        <ele>273.8</ele>
        <time>2020-06-30T08:13:06Z</time>
      </trkpt>
      <trkpt lat="48.65171" lon="5.21856">
        <ele>273.7</ele>
        <time>2020-06-30T08:13:07Z</time>
      </trkpt>
      <trkpt lat="48.65166" lon="5.21851">
        <ele>273.6</ele>
        <time>2020-06-30T08:13:08Z</time>
      </trkpt>
      <trkpt lat="48.65162" lon="5.21844">
        <ele>273.4</ele>
        <time>2020-06-30T08:13:09Z</time>
      </trkpt>
      <trkpt lat="48.65158" lon="5.21837">
        <ele>273.3</ele>
        <time>2020-06-30T08:13:10Z</time>
      </trkpt>
      <trkpt lat="48.65154" lon="5.2183">
        <ele>273.1</ele>
        <time>2020-06-30T08:13:11Z</time>
      </trkpt>
      <trkpt lat="48.65149" lon="5.21823">
        <ele>272.9</ele>
        <time>2020-06-30T08:13:12Z</time>
      </trkpt>
      <trkpt lat="48.65145" lon="5.21816">
        <ele>272.7</ele>
        <time>2020-06-30T08:13:13Z</time>
      </trkpt>
      <trkpt lat="48.65141" lon="5.21808">
        <ele>272.5</ele>
        <time>2020-06-30T08:13:14Z</time>
      </trkpt>
      <trkpt lat="48.65137" lon="5.21801">
        <ele>272.3</ele>
        <time>2020-06-30T08:13:15Z</time>
      </trkpt>
      <trkpt lat="48.65132" lon="5.21794">
        <ele>272.1</ele>
        <time>2020-06-30T08:13:16Z</time>
      </trkpt>
      <trkpt lat="48.65127" lon="5.21787">
        <ele>271.9</ele>
        <time>2020-06-30T08:13:17Z</time>
      </trkpt>
      <trkpt lat="48.65122" lon="5.21781">
        <ele>271.8</ele>
        <time>2020-06-30T08:13:18Z</time>
      </trkpt>
      <trkpt lat="48.65116" lon="5.21775">
        <ele>271.6</ele>
        <time>2020-06-30T08:13:19Z</time>
      </trkpt>
      <trkpt lat="48.65111" lon="5.2177">
        <ele>271.4</ele>
        <time>2020-06-30T08:13:20Z</time>
      </trkpt>
      <trkpt lat="48.65106" lon="5.21764">
        <ele>271.2</ele>
        <time>2020-06-30T08:13:21Z</time>
      </trkpt>
      <trkpt lat="48.651" lon="5.21759">
        <ele>271</ele>
        <time>2020-06-30T08:13:22Z</time>
      </trkpt>
      <trkpt lat="48.65095" lon="5.21754">
        <ele>270.9</ele>
        <time>2020-06-30T08:13:23Z</time>
      </trkpt>
      <trkpt lat="48.65089" lon="5.21749">
        <ele>270.7</ele>
        <time>2020-06-30T08:13:24Z</time>
      </trkpt>
      <trkpt lat="48.65083" lon="5.21744">
        <ele>270.5</ele>
        <time>2020-06-30T08:13:25Z</time>
      </trkpt>
      <trkpt lat="48.65078" lon="5.2174">
        <ele>270.3</ele>
        <time>2020-06-30T08:13:26Z</time>
      </trkpt>
      <trkpt lat="48.65072" lon="5.21735">
        <ele>270.1</ele>
        <time>2020-06-30T08:13:27Z</time>
      </trkpt>
      <trkpt lat="48.65066" lon="5.2173">
        <ele>269.9</ele>
        <time>2020-06-30T08:13:28Z</time>
      </trkpt>
      <trkpt lat="48.6506" lon="5.21726">
        <ele>269.7</ele>
        <time>2020-06-30T08:13:29Z</time>
      </trkpt>
      <trkpt lat="48.65054" lon="5.2172">
        <ele>269.5</ele>
        <time>2020-06-30T08:13:30Z</time>
      </trkpt>
      <trkpt lat="48.65048" lon="5.21715">
        <ele>269.3</ele>
        <time>2020-06-30T08:13:31Z</time>
      </trkpt>
      <trkpt lat="48.65043" lon="5.2171">
        <ele>269.1</ele>
        <time>2020-06-30T08:13:32Z</time>
      </trkpt>
      <trkpt lat="48.65037" lon="5.21705">
        <ele>268.9</ele>
        <time>2020-06-30T08:13:33Z</time>
      </trkpt>
      <trkpt lat="48.65031" lon="5.217">
        <ele>268.7</ele>
        <time>2020-06-30T08:13:34Z</time>
      </trkpt>
      <trkpt lat="48.65026" lon="5.21696">
        <ele>268.5</ele>
        <time>2020-06-30T08:13:35Z</time>
      </trkpt>
      <trkpt lat="48.6502" lon="5.2169">
        <ele>268.2</ele>
        <time>2020-06-30T08:13:36Z</time>
      </trkpt>
      <trkpt lat="48.65014" lon="5.21685">
        <ele>268</ele>
        <time>2020-06-30T08:13:37Z</time>
      </trkpt>
      <trkpt lat="48.65009" lon="5.21678">
        <ele>267.7</ele>
        <time>2020-06-30T08:13:38Z</time>
      </trkpt>
      <trkpt lat="48.65003" lon="5.21672">
        <ele>267.3</ele>
        <time>2020-06-30T08:13:39Z</time>
      </trkpt>
      <trkpt lat="48.64998" lon="5.21665">
        <ele>266.9</ele>
        <time>2020-06-30T08:13:40Z</time>
      </trkpt>
      <trkpt lat="48.64993" lon="5.21658">
        <ele>266.4</ele>
        <time>2020-06-30T08:13:41Z</time>
      </trkpt>
      <trkpt lat="48.64988" lon="5.2165">
        <ele>265.9</ele>
        <time>2020-06-30T08:13:42Z</time>
      </trkpt>
      <trkpt lat="48.64984" lon="5.21641">
        <ele>265.3</ele>
        <time>2020-06-30T08:13:43Z</time>
      </trkpt>
      <trkpt lat="48.64982" lon="5.21629">
        <ele>264.6</ele>
        <time>2020-06-30T08:13:44Z</time>
      </trkpt>
      <trkpt lat="48.6498" lon="5.21617">
        <ele>263.9</ele>
        <time>2020-06-30T08:13:45Z</time>
      </trkpt>
      <trkpt lat="48.6498" lon="5.21606">
        <ele>263.1</ele>
        <time>2020-06-30T08:13:46Z</time>
      </trkpt>
      <trkpt lat="48.64981" lon="5.21597">
        <ele>262.4</ele>
        <time>2020-06-30T08:13:47Z</time>
      </trkpt>
      <trkpt lat="48.64983" lon="5.2159">
        <ele>262.3</ele>
        <time>2020-06-30T08:13:48Z</time>
      </trkpt>
      <trkpt lat="48.64985" lon="5.21586">
        <ele>262.2</ele>
        <time>2020-06-30T08:13:49Z</time>
      </trkpt>
      <trkpt lat="48.64987" lon="5.21581">
        <ele>262</ele>
        <time>2020-06-30T08:13:50Z</time>
      </trkpt>
      <trkpt lat="48.64991" lon="5.21576">
        <ele>261.6</ele>
        <time>2020-06-30T08:13:51Z</time>
      </trkpt>
      <trkpt lat="48.64995" lon="5.21572">
        <ele>261.1</ele>
        <time>2020-06-30T08:13:52Z</time>
      </trkpt>
      <trkpt lat="48.64999" lon="5.21569">
        <ele>260.8</ele>
        <time>2020-06-30T08:13:53Z</time>
      </trkpt>
      <trkpt lat="48.65001" lon="5.21567">
        <ele>260.6</ele>
        <time>2020-06-30T08:13:54Z</time>
      </trkpt>
      <trkpt lat="48.65002" lon="5.21566">
        <ele>260.5</ele>
        <time>2020-06-30T08:13:55Z</time>
      </trkpt>
      <trkpt lat="48.65005" lon="5.21563">
        <ele>260.1</ele>
        <time>2020-06-30T08:13:56Z</time>
      </trkpt>
      <trkpt lat="48.65008" lon="5.21555">
        <ele>259.6</ele>
        <time>2020-06-30T08:13:57Z</time>
      </trkpt>
      <trkpt lat="48.65012" lon="5.21547">
        <ele>258.9</ele>
        <time>2020-06-30T08:13:58Z</time>
      </trkpt>
      <trkpt lat="48.65017" lon="5.21539">
        <ele>258.1</ele>
        <time>2020-06-30T08:13:59Z</time>
      </trkpt>
      <trkpt lat="48.65022" lon="5.21531">
        <ele>257.2</ele>
        <time>2020-06-30T08:14:00Z</time>
      </trkpt>
      <trkpt lat="48.65027" lon="5.21528">
        <ele>256.9</ele>
        <time>2020-06-30T08:14:01Z</time>
      </trkpt>
      <trkpt lat="48.65031" lon="5.21525">
        <ele>256.6</ele>
        <time>2020-06-30T08:14:02Z</time>
      </trkpt>
      <trkpt lat="48.65033" lon="5.21524">
        <ele>256.5</ele>
        <time>2020-06-30T08:14:03Z</time>
      </trkpt>
      <trkpt lat="48.65034" lon="5.21524">
        <ele>256.4</ele>
        <time>2020-06-30T08:14:04Z</time>
      </trkpt>
      <trkpt lat="48.65036" lon="5.21525">
        <ele>256.3</ele>
        <time>2020-06-30T08:14:05Z</time>
      </trkpt>
      <trkpt lat="48.65037" lon="5.21526">
        <ele>256.2</ele>
        <time>2020-06-30T08:14:06Z</time>
      </trkpt>
      <trkpt lat="48.65038" lon="5.21527">
        <ele>256.1</ele>
        <time>2020-06-30T08:14:07Z</time>
      </trkpt>
      <trkpt lat="48.65039" lon="5.21528">
        <ele>256.1</ele>
        <time>2020-06-30T08:14:08Z</time>
      </trkpt>
      <trkpt lat="48.65039" lon="5.21527">
        <ele>256.1</ele>
        <time>2020-06-30T08:14:09Z</time>
      </trkpt>
      <trkpt lat="48.65039" lon="5.21527">
        <ele>256</ele>
        <time>2020-06-30T08:14:10Z</time>
      </trkpt>
      <trkpt lat="48.65039" lon="5.21527">
        <ele>256</ele>
        <time>2020-06-30T08:14:11Z</time>
      </trkpt>
      <trkpt lat="48.65039" lon="5.21526">
        <ele>256</ele>
        <time>2020-06-30T08:14:12Z</time>
      </trkpt>
      <trkpt lat="48.65038" lon="5.21524">
        <ele>255.9</ele>
        <time>2020-06-30T08:14:13Z</time>
      </trkpt>
      <trkpt lat="48.65039" lon="5.21525">
        <ele>255.9</ele>
        <time>2020-06-30T08:14:14Z</time>
      </trkpt>
      <trkpt lat="48.65039" lon="5.21524">
        <ele>255.9</ele>
        <time>2020-06-30T08:14:15Z</time>
      </trkpt>
      <trkpt lat="48.65039" lon="5.21524">
        <ele>255.8</ele>
        <time>2020-06-30T08:14:16Z</time>
      </trkpt>
      <trkpt lat="48.6504" lon="5.21524">
        <ele>255.8</ele>
        <time>2020-06-30T08:14:17Z</time>
      </trkpt>
      <trkpt lat="48.6504" lon="5.21523">
        <ele>255.8</ele>
        <time>2020-06-30T08:14:18Z</time>
      </trkpt>
      <trkpt lat="48.6504" lon="5.21523">
        <ele>255.8</ele>
        <time>2020-06-30T08:14:19Z</time>
      </trkpt>
      <trkpt lat="48.65041" lon="5.21523">
        <ele>255.7</ele>
        <time>2020-06-30T08:14:20Z</time>
      </trkpt>
      <trkpt lat="48.65043" lon="5.21519">
        <ele>255.5</ele>
        <time>2020-06-30T08:14:24Z</time>
      </trkpt>
      <trkpt lat="48.65043" lon="5.21515">
        <ele>254.1</ele>
        <time>2020-06-30T08:14:25Z</time>
      </trkpt>
      <trkpt lat="48.65042" lon="5.21511">
        <ele>254.1</ele>
        <time>2020-06-30T08:14:26Z</time>
      </trkpt>
      <trkpt lat="48.6504" lon="5.21508">
        <ele>254</ele>
        <time>2020-06-30T08:14:27Z</time>
      </trkpt>
      <trkpt lat="48.65039" lon="5.21502">
        <ele>253.9</ele>
        <time>2020-06-30T08:14:28Z</time>
      </trkpt>
      <trkpt lat="48.65036" lon="5.21498">
        <ele>253.8</ele>
        <time>2020-06-30T08:14:29Z</time>
      </trkpt>
      <trkpt lat="48.65033" lon="5.21493">
        <ele>253.6</ele>
        <time>2020-06-30T08:14:30Z</time>
      </trkpt>
      <trkpt lat="48.6503" lon="5.21488">
        <ele>253.4</ele>
        <time>2020-06-30T08:14:31Z</time>
      </trkpt>
      <trkpt lat="48.65028" lon="5.21482">
        <ele>253.2</ele>
        <time>2020-06-30T08:14:32Z</time>
      </trkpt>
      <trkpt lat="48.65026" lon="5.21477">
        <ele>253</ele>
        <time>2020-06-30T08:14:33Z</time>
      </trkpt>
      <trkpt lat="48.65025" lon="5.21473">
        <ele>252.9</ele>
        <time>2020-06-30T08:14:34Z</time>
      </trkpt>
      <trkpt lat="48.65026" lon="5.21471">
        <ele>252.8</ele>
        <time>2020-06-30T08:14:35Z</time>
      </trkpt>
      <trkpt lat="48.65027" lon="5.21472">
        <ele>252.7</ele>
        <time>2020-06-30T08:14:36Z</time>
      </trkpt>
      <trkpt lat="48.65028" lon="5.21472">
        <ele>252.7</ele>
        <time>2020-06-30T08:14:37Z</time>
      </trkpt>
      <trkpt lat="48.65027" lon="5.21473">
        <ele>252.7</ele>
        <time>2020-06-30T08:14:38Z</time>
      </trkpt>
      <trkpt lat="48.65027" lon="5.21473">
        <ele>252.6</ele>
        <time>2020-06-30T08:14:39Z</time>
      </trkpt>
      <trkpt lat="48.65026" lon="5.21472">
        <ele>252.6</ele>
        <time>2020-06-30T08:14:40Z</time>
      </trkpt>
      <trkpt lat="48.65026" lon="5.21473">
        <ele>252.5</ele>
        <time>2020-06-30T08:14:41Z</time>
      </trkpt>
      <trkpt lat="48.65025" lon="5.21472">
        <ele>252.5</ele>
        <time>2020-06-30T08:14:42Z</time>
      </trkpt>
      <trkpt lat="48.65025" lon="5.21473">
        <ele>252.5</ele>
        <time>2020-06-30T08:14:43Z</time>
      </trkpt>
      <trkpt lat="48.65025" lon="5.21473">
        <ele>252.4</ele>
        <time>2020-06-30T08:14:44Z</time>
      </trkpt>
      <trkpt lat="48.65025" lon="5.21473">
        <ele>252.4</ele>
        <time>2020-06-30T08:14:45Z</time>
      </trkpt>
      <trkpt lat="48.65025" lon="5.21471">
        <ele>252.4</ele>
        <time>2020-06-30T08:14:46Z</time>
      </trkpt>
      <trkpt lat="48.65026" lon="5.21468">
        <ele>252.2</ele>
        <time>2020-06-30T08:14:47Z</time>
      </trkpt>
      <trkpt lat="48.65027" lon="5.21467">
        <ele>252.2</ele>
        <time>2020-06-30T08:14:48Z</time>
      </trkpt>
      <trkpt lat="48.65027" lon="5.21467">
        <ele>252.2</ele>
        <time>2020-06-30T08:14:49Z</time>
      </trkpt>
      <trkpt lat="48.65028" lon="5.21466">
        <ele>252.1</ele>
        <time>2020-06-30T08:14:50Z</time>
      </trkpt>
      <trkpt lat="48.65028" lon="5.21466">
        <ele>252.1</ele>
        <time>2020-06-30T08:14:51Z</time>
      </trkpt>
      <trkpt lat="48.65029" lon="5.21465">
        <ele>252.1</ele>
        <time>2020-06-30T08:14:52Z</time>
      </trkpt>
      <trkpt lat="48.65029" lon="5.21465">
        <ele>252</ele>
        <time>2020-06-30T08:14:53Z</time>
      </trkpt>
      <trkpt lat="48.6503" lon="5.21464">
        <ele>252</ele>
        <time>2020-06-30T08:14:54Z</time>
      </trkpt>
      <trkpt lat="48.6503" lon="5.21463">
        <ele>252</ele>
        <time>2020-06-30T08:14:55Z</time>
      </trkpt>
      <trkpt lat="48.6503" lon="5.21463">
        <ele>252</ele>
        <time>2020-06-30T08:14:56Z</time>
      </trkpt>
      <trkpt lat="48.65031" lon="5.21463">
        <ele>252</ele>
        <time>2020-06-30T08:14:57Z</time>
      </trkpt>
      <trkpt lat="48.65031" lon="5.21463">
        <ele>251.9</ele>
        <time>2020-06-30T08:14:58Z</time>
      </trkpt>
      <trkpt lat="48.65031" lon="5.21463">
        <ele>251.9</ele>
        <time>2020-06-30T08:14:59Z</time>
      </trkpt>
      <trkpt lat="48.65031" lon="5.21463">
        <ele>251.9</ele>
        <time>2020-06-30T08:15:00Z</time>
      </trkpt>
      <trkpt lat="48.6503" lon="5.21464">
        <ele>251.9</ele>
        <time>2020-06-30T08:15:01Z</time>
      </trkpt>
      <trkpt lat="48.65031" lon="5.21463">
        <ele>251.8</ele>
        <time>2020-06-30T08:15:02Z</time>
      </trkpt>
      <trkpt lat="48.65032" lon="5.21462">
        <ele>251.8</ele>
        <time>2020-06-30T08:15:03Z</time>
      </trkpt>
      <trkpt lat="48.65033" lon="5.21461">
        <ele>251.7</ele>
        <time>2020-06-30T08:15:04Z</time>
      </trkpt>
      <trkpt lat="48.65033" lon="5.21461">
        <ele>251.7</ele>
        <time>2020-06-30T08:15:05Z</time>
      </trkpt>
      <trkpt lat="48.65034" lon="5.2146">
        <ele>251.7</ele>
        <time>2020-06-30T08:15:06Z</time>
      </trkpt>
      <trkpt lat="48.65034" lon="5.21459">
        <ele>251.6</ele>
        <time>2020-06-30T08:15:07Z</time>
      </trkpt>
      <trkpt lat="48.65035" lon="5.21458">
        <ele>251.6</ele>
        <time>2020-06-30T08:15:08Z</time>
      </trkpt>
      <trkpt lat="48.65034" lon="5.21457">
        <ele>251.5</ele>
        <time>2020-06-30T08:15:09Z</time>
      </trkpt>
      <trkpt lat="48.65034" lon="5.21455">
        <ele>251.5</ele>
        <time>2020-06-30T08:15:10Z</time>
      </trkpt>
      <trkpt lat="48.65034" lon="5.21454">
        <ele>251.5</ele>
        <time>2020-06-30T08:15:11Z</time>
      </trkpt>
      <trkpt lat="48.65034" lon="5.21452">
        <ele>251.4</ele>
        <time>2020-06-30T08:15:12Z</time>
      </trkpt>
      <trkpt lat="48.65033" lon="5.21451">
        <ele>251.4</ele>
        <time>2020-06-30T08:15:13Z</time>
      </trkpt>
      <trkpt lat="48.65033" lon="5.2145">
        <ele>251.3</ele>
        <time>2020-06-30T08:15:14Z</time>
      </trkpt>
      <trkpt lat="48.65033" lon="5.21448">
        <ele>251.3</ele>
        <time>2020-06-30T08:15:15Z</time>
      </trkpt>
      <trkpt lat="48.65033" lon="5.21447">
        <ele>251.2</ele>
        <time>2020-06-30T08:15:16Z</time>
      </trkpt>
      <trkpt lat="48.65033" lon="5.21445">
        <ele>251.2</ele>
        <time>2020-06-30T08:15:17Z</time>
      </trkpt>
      <trkpt lat="48.65033" lon="5.21444">
        <ele>251.1</ele>
        <time>2020-06-30T08:15:18Z</time>
      </trkpt>
      <trkpt lat="48.65032" lon="5.21442">
        <ele>251.1</ele>
        <time>2020-06-30T08:15:19Z</time>
      </trkpt>
      <trkpt lat="48.65032" lon="5.21441">
        <ele>251</ele>
        <time>2020-06-30T08:15:53Z</time>
      </trkpt>
      <trkpt lat="48.65032" lon="5.2144">
        <ele>251</ele>
        <time>2020-06-30T08:15:54Z</time>
      </trkpt>
      <trkpt lat="48.6503" lon="5.21434">
        <ele>250.8</ele>
        <time>2020-06-30T08:15:55Z</time>
      </trkpt>
      <trkpt lat="48.6503" lon="5.21433">
        <ele>250.7</ele>
        <time>2020-06-30T08:15:56Z</time>
      </trkpt>
      <trkpt lat="48.65028" lon="5.21427">
        <ele>250.5</ele>
        <time>2020-06-30T08:15:57Z</time>
      </trkpt>
      <trkpt lat="48.65027" lon="5.21416">
        <ele>250.2</ele>
        <time>2020-06-30T08:15:58Z</time>
      </trkpt>
      <trkpt lat="48.65025" lon="5.21406">
        <ele>249.9</ele>
        <time>2020-06-30T08:15:59Z</time>
      </trkpt>
      <trkpt lat="48.65022" lon="5.21398">
        <ele>249.6</ele>
        <time>2020-06-30T08:16:00Z</time>
      </trkpt>
      <trkpt lat="48.6502" lon="5.2139">
        <ele>249.3</ele>
        <time>2020-06-30T08:16:01Z</time>
      </trkpt>
      <trkpt lat="48.65018" lon="5.21382">
        <ele>249</ele>
        <time>2020-06-30T08:16:02Z</time>
      </trkpt>
      <trkpt lat="48.65015" lon="5.21373">
        <ele>248.6</ele>
        <time>2020-06-30T08:16:03Z</time>
      </trkpt>
      <trkpt lat="48.65013" lon="5.21365">
        <ele>248.3</ele>
        <time>2020-06-30T08:16:04Z</time>
      </trkpt>
      <trkpt lat="48.65012" lon="5.21356">
        <ele>248</ele>
        <time>2020-06-30T08:16:05Z</time>
      </trkpt>
      <trkpt lat="48.6501" lon="5.21347">
        <ele>247.7</ele>
        <time>2020-06-30T08:16:06Z</time>
      </trkpt>
      <trkpt lat="48.65008" lon="5.21339">
        <ele>247.4</ele>
        <time>2020-06-30T08:16:07Z</time>
      </trkpt>
      <trkpt lat="48.65006" lon="5.21329">
        <ele>247.1</ele>
        <time>2020-06-30T08:16:08Z</time>
      </trkpt>
      <trkpt lat="48.65003" lon="5.2132">
        <ele>246.8</ele>
        <time>2020-06-30T08:16:09Z</time>
      </trkpt>
      <trkpt lat="48.65001" lon="5.21309">
        <ele>246.4</ele>
        <time>2020-06-30T08:16:10Z</time>
      </trkpt>
      <trkpt lat="48.64999" lon="5.21301">
        <ele>246.1</ele>
        <time>2020-06-30T08:16:11Z</time>
      </trkpt>
      <trkpt lat="48.64996" lon="5.21289">
        <ele>245.7</ele>
        <time>2020-06-30T08:16:12Z</time>
      </trkpt>
      <trkpt lat="48.64993" lon="5.21279">
        <ele>245.3</ele>
        <time>2020-06-30T08:16:13Z</time>
      </trkpt>
      <trkpt lat="48.64989" lon="5.21268">
        <ele>244.9</ele>
        <time>2020-06-30T08:16:14Z</time>
      </trkpt>
      <trkpt lat="48.64986" lon="5.21257">
        <ele>244.5</ele>
        <time>2020-06-30T08:16:15Z</time>
      </trkpt>
      <trkpt lat="48.64982" lon="5.21247">
        <ele>244.2</ele>
        <time>2020-06-30T08:16:16Z</time>
      </trkpt>
      <trkpt lat="48.64978" lon="5.21235">
        <ele>243.8</ele>
        <time>2020-06-30T08:16:17Z</time>
      </trkpt>
      <trkpt lat="48.64975" lon="5.21225">
        <ele>243.5</ele>
        <time>2020-06-30T08:16:18Z</time>
      </trkpt>
      <trkpt lat="48.6497" lon="5.21214">
        <ele>243.1</ele>
        <time>2020-06-30T08:16:19Z</time>
      </trkpt>
      <trkpt lat="48.64966" lon="5.21205">
        <ele>242.8</ele>
        <time>2020-06-30T08:16:20Z</time>
      </trkpt>
      <trkpt lat="48.64961" lon="5.21194">
        <ele>242.4</ele>
        <time>2020-06-30T08:16:21Z</time>
      </trkpt>
      <trkpt lat="48.64957" lon="5.21183">
        <ele>242.1</ele>
        <time>2020-06-30T08:16:22Z</time>
      </trkpt>
      <trkpt lat="48.64953" lon="5.21173">
        <ele>241.7</ele>
        <time>2020-06-30T08:16:23Z</time>
      </trkpt>
      <trkpt lat="48.64949" lon="5.21163">
        <ele>241.4</ele>
        <time>2020-06-30T08:16:24Z</time>
      </trkpt>
      <trkpt lat="48.64945" lon="5.21153">
        <ele>241.1</ele>
        <time>2020-06-30T08:16:25Z</time>
      </trkpt>
      <trkpt lat="48.64941" lon="5.21144">
        <ele>240.7</ele>
        <time>2020-06-30T08:16:26Z</time>
      </trkpt>
      <trkpt lat="48.64936" lon="5.21133">
        <ele>240.4</ele>
        <time>2020-06-30T08:16:27Z</time>
      </trkpt>
      <trkpt lat="48.64932" lon="5.21123">
        <ele>240</ele>
        <time>2020-06-30T08:16:28Z</time>
      </trkpt>
      <trkpt lat="48.64928" lon="5.21113">
        <ele>239.5</ele>
        <time>2020-06-30T08:16:29Z</time>
      </trkpt>
      <trkpt lat="48.64923" lon="5.21103">
        <ele>239.1</ele>
        <time>2020-06-30T08:16:30Z</time>
      </trkpt>
      <trkpt lat="48.64918" lon="5.21092">
        <ele>238.7</ele>
        <time>2020-06-30T08:16:31Z</time>
      </trkpt>
      <trkpt lat="48.64914" lon="5.21082">
        <ele>238.3</ele>
        <time>2020-06-30T08:16:32Z</time>
      </trkpt>
      <trkpt lat="48.64908" lon="5.21072">
        <ele>237.9</ele>
        <time>2020-06-30T08:16:33Z</time>
      </trkpt>
      <trkpt lat="48.64903" lon="5.21062">
        <ele>237.4</ele>
        <time>2020-06-30T08:16:34Z</time>
      </trkpt>
      <trkpt lat="48.64899" lon="5.2105">
        <ele>237</ele>
        <time>2020-06-30T08:16:35Z</time>
      </trkpt>
      <trkpt lat="48.64895" lon="5.21037">
        <ele>236.5</ele>
        <time>2020-06-30T08:16:36Z</time>
      </trkpt>
      <trkpt lat="48.64891" lon="5.21025">
        <ele>236.1</ele>
        <time>2020-06-30T08:16:37Z</time>
      </trkpt>
      <trkpt lat="48.64887" lon="5.21013">
        <ele>235.7</ele>
        <time>2020-06-30T08:16:38Z</time>
      </trkpt>
      <trkpt lat="48.64884" lon="5.20999">
        <ele>235.3</ele>
        <time>2020-06-30T08:16:39Z</time>
      </trkpt>
      <trkpt lat="48.6488" lon="5.20987">
        <ele>234.9</ele>
        <time>2020-06-30T08:16:40Z</time>
      </trkpt>
      <trkpt lat="48.64875" lon="5.20974">
        <ele>234.5</ele>
        <time>2020-06-30T08:16:41Z</time>
      </trkpt>
      <trkpt lat="48.64871" lon="5.20961">
        <ele>234.1</ele>
        <time>2020-06-30T08:16:42Z</time>
      </trkpt>
      <trkpt lat="48.64868" lon="5.20948">
        <ele>233.8</ele>
        <time>2020-06-30T08:16:43Z</time>
      </trkpt>
      <trkpt lat="48.64864" lon="5.20936">
        <ele>233.4</ele>
        <time>2020-06-30T08:16:44Z</time>
      </trkpt>
      <trkpt lat="48.64861" lon="5.20924">
        <ele>233.1</ele>
        <time>2020-06-30T08:16:45Z</time>
      </trkpt>
      <trkpt lat="48.64857" lon="5.20911">
        <ele>232.7</ele>
        <time>2020-06-30T08:16:46Z</time>
      </trkpt>
      <trkpt lat="48.64855" lon="5.20899">
        <ele>232.3</ele>
        <time>2020-06-30T08:16:47Z</time>
      </trkpt>
      <trkpt lat="48.64851" lon="5.20886">
        <ele>232</ele>
        <time>2020-06-30T08:16:48Z</time>
      </trkpt>
      <trkpt lat="48.64848" lon="5.20873">
        <ele>231.6</ele>
        <time>2020-06-30T08:16:49Z</time>
      </trkpt>
      <trkpt lat="48.64846" lon="5.2086">
        <ele>231.2</ele>
        <time>2020-06-30T08:16:50Z</time>
      </trkpt>
      <trkpt lat="48.64845" lon="5.20846">
        <ele>230.8</ele>
        <time>2020-06-30T08:16:51Z</time>
      </trkpt>
      <trkpt lat="48.64844" lon="5.20832">
        <ele>230.4</ele>
        <time>2020-06-30T08:16:52Z</time>
      </trkpt>
      <trkpt lat="48.64842" lon="5.20818">
        <ele>230</ele>
        <time>2020-06-30T08:16:53Z</time>
      </trkpt>
      <trkpt lat="48.64843" lon="5.20804">
        <ele>229.7</ele>
        <time>2020-06-30T08:16:54Z</time>
      </trkpt>
      <trkpt lat="48.64843" lon="5.20791">
        <ele>229.3</ele>
        <time>2020-06-30T08:16:55Z</time>
      </trkpt>
      <trkpt lat="48.64844" lon="5.20777">
        <ele>228.9</ele>
        <time>2020-06-30T08:16:56Z</time>
      </trkpt>
      <trkpt lat="48.64843" lon="5.20764">
        <ele>228.5</ele>
        <time>2020-06-30T08:16:57Z</time>
      </trkpt>
      <trkpt lat="48.64845" lon="5.20751">
        <ele>228</ele>
        <time>2020-06-30T08:16:58Z</time>
      </trkpt>
      <trkpt lat="48.64845" lon="5.20737">
        <ele>227.5</ele>
        <time>2020-06-30T08:16:59Z</time>
      </trkpt>
      <trkpt lat="48.64845" lon="5.20724">
        <ele>227.1</ele>
        <time>2020-06-30T08:17:00Z</time>
      </trkpt>
      <trkpt lat="48.64844" lon="5.20711">
        <ele>226.7</ele>
        <time>2020-06-30T08:17:01Z</time>
      </trkpt>
      <trkpt lat="48.64843" lon="5.20698">
        <ele>226.3</ele>
        <time>2020-06-30T08:17:02Z</time>
      </trkpt>
      <trkpt lat="48.64841" lon="5.20684">
        <ele>226</ele>
        <time>2020-06-30T08:17:03Z</time>
      </trkpt>
      <trkpt lat="48.64839" lon="5.20671">
        <ele>225.7</ele>
        <time>2020-06-30T08:17:04Z</time>
      </trkpt>
      <trkpt lat="48.64837" lon="5.20658">
        <ele>225.3</ele>
        <time>2020-06-30T08:17:05Z</time>
      </trkpt>
      <trkpt lat="48.64834" lon="5.20645">
        <ele>224.9</ele>
        <time>2020-06-30T08:17:06Z</time>
      </trkpt>
      <trkpt lat="48.64831" lon="5.20633">
        <ele>224.6</ele>
        <time>2020-06-30T08:17:07Z</time>
      </trkpt>
      <trkpt lat="48.64828" lon="5.2062">
        <ele>224.2</ele>
        <time>2020-06-30T08:17:08Z</time>
      </trkpt>
      <trkpt lat="48.64824" lon="5.20608">
        <ele>223.9</ele>
        <time>2020-06-30T08:17:09Z</time>
      </trkpt>
      <trkpt lat="48.64821" lon="5.20597">
        <ele>223.6</ele>
        <time>2020-06-30T08:17:10Z</time>
      </trkpt>
      <trkpt lat="48.64817" lon="5.20585">
        <ele>223.3</ele>
        <time>2020-06-30T08:17:11Z</time>
      </trkpt>
      <trkpt lat="48.64813" lon="5.20574">
        <ele>223</ele>
        <time>2020-06-30T08:17:12Z</time>
      </trkpt>
      <trkpt lat="48.6481" lon="5.20563">
        <ele>222.7</ele>
        <time>2020-06-30T08:17:13Z</time>
      </trkpt>
      <trkpt lat="48.64806" lon="5.20552">
        <ele>222.5</ele>
        <time>2020-06-30T08:17:14Z</time>
      </trkpt>
      <trkpt lat="48.64803" lon="5.20541">
        <ele>222.2</ele>
        <time>2020-06-30T08:17:15Z</time>
      </trkpt>
      <trkpt lat="48.648" lon="5.20531">
        <ele>222</ele>
        <time>2020-06-30T08:17:16Z</time>
      </trkpt>
      <trkpt lat="48.64797" lon="5.2052">
        <ele>221.8</ele>
        <time>2020-06-30T08:17:17Z</time>
      </trkpt>
      <trkpt lat="48.64793" lon="5.2051">
        <ele>221.6</ele>
        <time>2020-06-30T08:17:18Z</time>
      </trkpt>
      <trkpt lat="48.64788" lon="5.20501">
        <ele>221.4</ele>
        <time>2020-06-30T08:17:19Z</time>
      </trkpt>
      <trkpt lat="48.64783" lon="5.20491">
        <ele>221.2</ele>
        <time>2020-06-30T08:17:20Z</time>
      </trkpt>
      <trkpt lat="48.64779" lon="5.20482">
        <ele>221</ele>
        <time>2020-06-30T08:17:21Z</time>
      </trkpt>
      <trkpt lat="48.64775" lon="5.20472">
        <ele>220.9</ele>
        <time>2020-06-30T08:17:22Z</time>
      </trkpt>
      <trkpt lat="48.64772" lon="5.20463">
        <ele>220.8</ele>
        <time>2020-06-30T08:17:23Z</time>
      </trkpt>
      <trkpt lat="48.64769" lon="5.20454">
        <ele>220.6</ele>
        <time>2020-06-30T08:17:24Z</time>
      </trkpt>
      <trkpt lat="48.64765" lon="5.20445">
        <ele>220.6</ele>
        <time>2020-06-30T08:17:25Z</time>
      </trkpt>
      <trkpt lat="48.64761" lon="5.20436">
        <ele>220.5</ele>
        <time>2020-06-30T08:17:26Z</time>
      </trkpt>
      <trkpt lat="48.64758" lon="5.20429">
        <ele>220.4</ele>
        <time>2020-06-30T08:17:27Z</time>
      </trkpt>
      <trkpt lat="48.64755" lon="5.20421">
        <ele>220.4</ele>
        <time>2020-06-30T08:17:28Z</time>
      </trkpt>
      <trkpt lat="48.64752" lon="5.20414">
        <ele>220.5</ele>
        <time>2020-06-30T08:17:29Z</time>
      </trkpt>
      <trkpt lat="48.64749" lon="5.20407">
        <ele>220.5</ele>
        <time>2020-06-30T08:17:30Z</time>
      </trkpt>
      <trkpt lat="48.64745" lon="5.204">
        <ele>220.5</ele>
        <time>2020-06-30T08:17:31Z</time>
      </trkpt>
      <trkpt lat="48.64741" lon="5.20394">
        <ele>220.5</ele>
        <time>2020-06-30T08:17:32Z</time>
      </trkpt>
      <trkpt lat="48.64738" lon="5.20387">
        <ele>220.5</ele>
        <time>2020-06-30T08:17:33Z</time>
      </trkpt>
      <trkpt lat="48.64735" lon="5.2038">
        <ele>220.4</ele>
        <time>2020-06-30T08:17:34Z</time>
      </trkpt>
      <trkpt lat="48.6473" lon="5.20375">
        <ele>220.4</ele>
        <time>2020-06-30T08:17:35Z</time>
      </trkpt>
      <trkpt lat="48.64727" lon="5.20367">
        <ele>220.4</ele>
        <time>2020-06-30T08:17:36Z</time>
      </trkpt>
      <trkpt lat="48.64725" lon="5.20361">
        <ele>220.4</ele>
        <time>2020-06-30T08:17:37Z</time>
      </trkpt>
      <trkpt lat="48.64722" lon="5.20355">
        <ele>220.4</ele>
        <time>2020-06-30T08:17:38Z</time>
      </trkpt>
      <trkpt lat="48.6472" lon="5.20349">
        <ele>220.4</ele>
        <time>2020-06-30T08:17:39Z</time>
      </trkpt>
      <trkpt lat="48.64719" lon="5.20343">
        <ele>220.4</ele>
        <time>2020-06-30T08:17:40Z</time>
      </trkpt>
      <trkpt lat="48.64717" lon="5.20337">
        <ele>220.4</ele>
        <time>2020-06-30T08:17:41Z</time>
      </trkpt>
      <trkpt lat="48.64716" lon="5.2033">
        <ele>220.3</ele>
        <time>2020-06-30T08:17:42Z</time>
      </trkpt>
      <trkpt lat="48.64715" lon="5.20323">
        <ele>220.2</ele>
        <time>2020-06-30T08:17:43Z</time>
      </trkpt>
      <trkpt lat="48.64713" lon="5.20317">
        <ele>220.2</ele>
        <time>2020-06-30T08:17:44Z</time>
      </trkpt>
      <trkpt lat="48.64713" lon="5.20312">
        <ele>220.1</ele>
        <time>2020-06-30T08:17:45Z</time>
      </trkpt>
      <trkpt lat="48.64714" lon="5.20306">
        <ele>220</ele>
        <time>2020-06-30T08:17:46Z</time>
      </trkpt>
      <trkpt lat="48.64716" lon="5.20301">
        <ele>219.9</ele>
        <time>2020-06-30T08:17:47Z</time>
      </trkpt>
      <trkpt lat="48.64716" lon="5.20293">
        <ele>219.8</ele>
        <time>2020-06-30T08:17:48Z</time>
      </trkpt>
      <trkpt lat="48.64717" lon="5.20284">
        <ele>219.6</ele>
        <time>2020-06-30T08:17:49Z</time>
      </trkpt>
      <trkpt lat="48.64718" lon="5.20276">
        <ele>219.5</ele>
        <time>2020-06-30T08:17:50Z</time>
      </trkpt>
      <trkpt lat="48.6472" lon="5.20267">
        <ele>219.3</ele>
        <time>2020-06-30T08:17:51Z</time>
      </trkpt>
      <trkpt lat="48.64722" lon="5.20258">
        <ele>219.1</ele>
        <time>2020-06-30T08:17:52Z</time>
      </trkpt>
      <trkpt lat="48.64724" lon="5.20248">
        <ele>218.8</ele>
        <time>2020-06-30T08:17:53Z</time>
      </trkpt>
      <trkpt lat="48.64727" lon="5.20239">
        <ele>218.6</ele>
        <time>2020-06-30T08:17:54Z</time>
      </trkpt>
      <trkpt lat="48.64731" lon="5.2023">
        <ele>218.4</ele>
        <time>2020-06-30T08:17:55Z</time>
      </trkpt>
      <trkpt lat="48.64735" lon="5.20222">
        <ele>218.2</ele>
        <time>2020-06-30T08:17:56Z</time>
      </trkpt>
      <trkpt lat="48.64738" lon="5.20214">
        <ele>218</ele>
        <time>2020-06-30T08:17:57Z</time>
      </trkpt>
      <trkpt lat="48.64742" lon="5.20205">
        <ele>217.7</ele>
        <time>2020-06-30T08:17:58Z</time>
      </trkpt>
      <trkpt lat="48.64746" lon="5.20197">
        <ele>217.5</ele>
        <time>2020-06-30T08:17:59Z</time>
      </trkpt>
      <trkpt lat="48.64749" lon="5.20189">
        <ele>217.2</ele>
        <time>2020-06-30T08:18:00Z</time>
      </trkpt>
      <trkpt lat="48.64752" lon="5.2018">
        <ele>217</ele>
        <time>2020-06-30T08:18:01Z</time>
      </trkpt>
      <trkpt lat="48.64755" lon="5.20171">
        <ele>216.7</ele>
        <time>2020-06-30T08:18:02Z</time>
      </trkpt>
      <trkpt lat="48.64759" lon="5.20164">
        <ele>216.4</ele>
        <time>2020-06-30T08:18:03Z</time>
      </trkpt>
      <trkpt lat="48.64763" lon="5.20155">
        <ele>216.2</ele>
        <time>2020-06-30T08:18:04Z</time>
      </trkpt>
      <trkpt lat="48.64768" lon="5.20148">
        <ele>215.9</ele>
        <time>2020-06-30T08:18:05Z</time>
      </trkpt>
      <trkpt lat="48.64772" lon="5.2014">
        <ele>215.7</ele>
        <time>2020-06-30T08:18:06Z</time>
      </trkpt>
      <trkpt lat="48.64776" lon="5.20131">
        <ele>215.5</ele>
        <time>2020-06-30T08:18:07Z</time>
      </trkpt>
      <trkpt lat="48.64781" lon="5.20123">
        <ele>215.3</ele>
        <time>2020-06-30T08:18:08Z</time>
      </trkpt>
      <trkpt lat="48.64785" lon="5.20115">
        <ele>215</ele>
        <time>2020-06-30T08:18:09Z</time>
      </trkpt>
      <trkpt lat="48.64789" lon="5.20107">
        <ele>214.8</ele>
        <time>2020-06-30T08:18:10Z</time>
      </trkpt>
      <trkpt lat="48.64794" lon="5.20099">
        <ele>214.6</ele>
        <time>2020-06-30T08:18:11Z</time>
      </trkpt>
      <trkpt lat="48.648" lon="5.20093">
        <ele>214.4</ele>
        <time>2020-06-30T08:18:12Z</time>
      </trkpt>
      <trkpt lat="48.64806" lon="5.20087">
        <ele>214.1</ele>
        <time>2020-06-30T08:18:13Z</time>
      </trkpt>
      <trkpt lat="48.64812" lon="5.20081">
        <ele>213.9</ele>
        <time>2020-06-30T08:18:14Z</time>
      </trkpt>
      <trkpt lat="48.64818" lon="5.20076">
        <ele>213.7</ele>
        <time>2020-06-30T08:18:15Z</time>
      </trkpt>
      <trkpt lat="48.64824" lon="5.2007">
        <ele>213.5</ele>
        <time>2020-06-30T08:18:16Z</time>
      </trkpt>
      <trkpt lat="48.6483" lon="5.20064">
        <ele>213.3</ele>
        <time>2020-06-30T08:18:17Z</time>
      </trkpt>
      <trkpt lat="48.64837" lon="5.2006">
        <ele>213.1</ele>
        <time>2020-06-30T08:18:18Z</time>
      </trkpt>
      <trkpt lat="48.64844" lon="5.20056">
        <ele>212.9</ele>
        <time>2020-06-30T08:18:19Z</time>
      </trkpt>
      <trkpt lat="48.6485" lon="5.2005">
        <ele>212.9</ele>
        <time>2020-06-30T08:18:20Z</time>
      </trkpt>
      <trkpt lat="48.64856" lon="5.20046">
        <ele>212.8</ele>
        <time>2020-06-30T08:18:21Z</time>
      </trkpt>
      <trkpt lat="48.64862" lon="5.2004">
        <ele>212.7</ele>
        <time>2020-06-30T08:18:22Z</time>
      </trkpt>
      <trkpt lat="48.64868" lon="5.20035">
        <ele>212.6</ele>
        <time>2020-06-30T08:18:23Z</time>
      </trkpt>
      <trkpt lat="48.64874" lon="5.2003">
        <ele>212.4</ele>
        <time>2020-06-30T08:18:24Z</time>
      </trkpt>
      <trkpt lat="48.6488" lon="5.20025">
        <ele>212.2</ele>
        <time>2020-06-30T08:18:25Z</time>
      </trkpt>
      <trkpt lat="48.64886" lon="5.2002">
        <ele>212</ele>
        <time>2020-06-30T08:18:26Z</time>
      </trkpt>
      <trkpt lat="48.64893" lon="5.20015">
        <ele>211.9</ele>
        <time>2020-06-30T08:18:27Z</time>
      </trkpt>
      <trkpt lat="48.64899" lon="5.2001">
        <ele>211.7</ele>
        <time>2020-06-30T08:18:28Z</time>
      </trkpt>
      <trkpt lat="48.64906" lon="5.20004">
        <ele>211.5</ele>
        <time>2020-06-30T08:18:29Z</time>
      </trkpt>
      <trkpt lat="48.64912" lon="5.19999">
        <ele>211.4</ele>
        <time>2020-06-30T08:18:30Z</time>
      </trkpt>
      <trkpt lat="48.64918" lon="5.19994">
        <ele>211.3</ele>
        <time>2020-06-30T08:18:31Z</time>
      </trkpt>
      <trkpt lat="48.64924" lon="5.1999">
        <ele>211.2</ele>
        <time>2020-06-30T08:18:32Z</time>
      </trkpt>
      <trkpt lat="48.64931" lon="5.19984">
        <ele>211.1</ele>
        <time>2020-06-30T08:18:33Z</time>
      </trkpt>
      <trkpt lat="48.64937" lon="5.19979">
        <ele>211</ele>
        <time>2020-06-30T08:18:34Z</time>
      </trkpt>
      <trkpt lat="48.64943" lon="5.19975">
        <ele>210.9</ele>
        <time>2020-06-30T08:18:35Z</time>
      </trkpt>
      <trkpt lat="48.64949" lon="5.1997">
        <ele>210.8</ele>
        <time>2020-06-30T08:18:36Z</time>
      </trkpt>
      <trkpt lat="48.64956" lon="5.19966">
        <ele>210.7</ele>
        <time>2020-06-30T08:18:37Z</time>
      </trkpt>
      <trkpt lat="48.64962" lon="5.19962">
        <ele>210.6</ele>
        <time>2020-06-30T08:18:38Z</time>
      </trkpt>
      <trkpt lat="48.64969" lon="5.19957">
        <ele>210.5</ele>
        <time>2020-06-30T08:18:39Z</time>
      </trkpt>
      <trkpt lat="48.64975" lon="5.19952">
        <ele>210.4</ele>
        <time>2020-06-30T08:18:40Z</time>
      </trkpt>
      <trkpt lat="48.64982" lon="5.19948">
        <ele>210.3</ele>
        <time>2020-06-30T08:18:41Z</time>
      </trkpt>
      <trkpt lat="48.64988" lon="5.19943">
        <ele>210.2</ele>
        <time>2020-06-30T08:18:42Z</time>
      </trkpt>
      <trkpt lat="48.64994" lon="5.19938">
        <ele>210.1</ele>
        <time>2020-06-30T08:18:43Z</time>
      </trkpt>
      <trkpt lat="48.65001" lon="5.19933">
        <ele>210</ele>
        <time>2020-06-30T08:18:44Z</time>
      </trkpt>
      <trkpt lat="48.65008" lon="5.19929">
        <ele>210</ele>
        <time>2020-06-30T08:18:45Z</time>
      </trkpt>
      <trkpt lat="48.65014" lon="5.19924">
        <ele>209.9</ele>
        <time>2020-06-30T08:18:46Z</time>
      </trkpt>
      <trkpt lat="48.6502" lon="5.1992">
        <ele>209.9</ele>
        <time>2020-06-30T08:18:47Z</time>
      </trkpt>
      <trkpt lat="48.65027" lon="5.19914">
        <ele>209.9</ele>
        <time>2020-06-30T08:18:48Z</time>
      </trkpt>
      <trkpt lat="48.65033" lon="5.1991">
        <ele>209.8</ele>
        <time>2020-06-30T08:18:49Z</time>
      </trkpt>
      <trkpt lat="48.65039" lon="5.19905">
        <ele>209.8</ele>
        <time>2020-06-30T08:18:50Z</time>
      </trkpt>
      <trkpt lat="48.65045" lon="5.199">
        <ele>209.8</ele>
        <time>2020-06-30T08:18:51Z</time>
      </trkpt>
      <trkpt lat="48.6505" lon="5.19895">
        <ele>209.7</ele>
        <time>2020-06-30T08:18:52Z</time>
      </trkpt>
      <trkpt lat="48.65056" lon="5.1989">
        <ele>209.7</ele>
        <time>2020-06-30T08:18:53Z</time>
      </trkpt>
      <trkpt lat="48.65062" lon="5.19885">
        <ele>209.7</ele>
        <time>2020-06-30T08:18:54Z</time>
      </trkpt>
      <trkpt lat="48.65068" lon="5.1988">
        <ele>209.7</ele>
        <time>2020-06-30T08:18:55Z</time>
      </trkpt>
      <trkpt lat="48.65073" lon="5.19875">
        <ele>209.6</ele>
        <time>2020-06-30T08:18:56Z</time>
      </trkpt>
      <trkpt lat="48.65079" lon="5.19871">
        <ele>209.6</ele>
        <time>2020-06-30T08:18:57Z</time>
      </trkpt>
      <trkpt lat="48.65084" lon="5.19866">
        <ele>209.6</ele>
        <time>2020-06-30T08:18:58Z</time>
      </trkpt>
      <trkpt lat="48.65089" lon="5.19862">
        <ele>209.5</ele>
        <time>2020-06-30T08:18:59Z</time>
      </trkpt>
      <trkpt lat="48.65094" lon="5.19858">
        <ele>209.5</ele>
        <time>2020-06-30T08:19:00Z</time>
      </trkpt>
      <trkpt lat="48.651" lon="5.19854">
        <ele>209.5</ele>
        <time>2020-06-30T08:19:01Z</time>
      </trkpt>
      <trkpt lat="48.65106" lon="5.19851">
        <ele>209.5</ele>
        <time>2020-06-30T08:19:02Z</time>
      </trkpt>
      <trkpt lat="48.65111" lon="5.19847">
        <ele>209.5</ele>
        <time>2020-06-30T08:19:03Z</time>
      </trkpt>
      <trkpt lat="48.65116" lon="5.19843">
        <ele>209.5</ele>
        <time>2020-06-30T08:19:04Z</time>
      </trkpt>
      <trkpt lat="48.65121" lon="5.19838">
        <ele>209.5</ele>
        <time>2020-06-30T08:19:05Z</time>
      </trkpt>
      <trkpt lat="48.65126" lon="5.19832">
        <ele>209.5</ele>
        <time>2020-06-30T08:19:06Z</time>
      </trkpt>
      <trkpt lat="48.65131" lon="5.19828">
        <ele>209.4</ele>
        <time>2020-06-30T08:19:07Z</time>
      </trkpt>
      <trkpt lat="48.65136" lon="5.19822">
        <ele>209.4</ele>
        <time>2020-06-30T08:19:08Z</time>
      </trkpt>
      <trkpt lat="48.65141" lon="5.19816">
        <ele>209.4</ele>
        <time>2020-06-30T08:19:09Z</time>
      </trkpt>
      <trkpt lat="48.65146" lon="5.19811">
        <ele>209.3</ele>
        <time>2020-06-30T08:19:10Z</time>
      </trkpt>
      <trkpt lat="48.65152" lon="5.19807">
        <ele>209.3</ele>
        <time>2020-06-30T08:19:11Z</time>
      </trkpt>
      <trkpt lat="48.65157" lon="5.19801">
        <ele>209.2</ele>
        <time>2020-06-30T08:19:12Z</time>
      </trkpt>
      <trkpt lat="48.65162" lon="5.19795">
        <ele>209.2</ele>
        <time>2020-06-30T08:19:13Z</time>
      </trkpt>
      <trkpt lat="48.65166" lon="5.19789">
        <ele>209.1</ele>
        <time>2020-06-30T08:19:14Z</time>
      </trkpt>
      <trkpt lat="48.65171" lon="5.19783">
        <ele>209.1</ele>
        <time>2020-06-30T08:19:15Z</time>
      </trkpt>
      <trkpt lat="48.65176" lon="5.19775">
        <ele>209.1</ele>
        <time>2020-06-30T08:19:16Z</time>
      </trkpt>
      <trkpt lat="48.65181" lon="5.19768">
        <ele>209.1</ele>
        <time>2020-06-30T08:19:17Z</time>
      </trkpt>
      <trkpt lat="48.65185" lon="5.19761">
        <ele>209</ele>
        <time>2020-06-30T08:19:18Z</time>
      </trkpt>
      <trkpt lat="48.6519" lon="5.19754">
        <ele>209</ele>
        <time>2020-06-30T08:19:19Z</time>
      </trkpt>
      <trkpt lat="48.65195" lon="5.19747">
        <ele>208.9</ele>
        <time>2020-06-30T08:19:20Z</time>
      </trkpt>
      <trkpt lat="48.65199" lon="5.19739">
        <ele>208.9</ele>
        <time>2020-06-30T08:19:21Z</time>
      </trkpt>
      <trkpt lat="48.65204" lon="5.19733">
        <ele>208.8</ele>
        <time>2020-06-30T08:19:22Z</time>
      </trkpt>
      <trkpt lat="48.65208" lon="5.19726">
        <ele>208.8</ele>
        <time>2020-06-30T08:19:23Z</time>
      </trkpt>
      <trkpt lat="48.65213" lon="5.19718">
        <ele>208.8</ele>
        <time>2020-06-30T08:19:24Z</time>
      </trkpt>
      <trkpt lat="48.65217" lon="5.19711">
        <ele>208.7</ele>
        <time>2020-06-30T08:19:25Z</time>
      </trkpt>
      <trkpt lat="48.65221" lon="5.19704">
        <ele>208.7</ele>
        <time>2020-06-30T08:19:26Z</time>
      </trkpt>
      <trkpt lat="48.65226" lon="5.19697">
        <ele>208.7</ele>
        <time>2020-06-30T08:19:27Z</time>
      </trkpt>
      <trkpt lat="48.6523" lon="5.1969">
        <ele>208.6</ele>
        <time>2020-06-30T08:19:28Z</time>
      </trkpt>
      <trkpt lat="48.65234" lon="5.19683">
        <ele>208.6</ele>
        <time>2020-06-30T08:19:29Z</time>
      </trkpt>
      <trkpt lat="48.65239" lon="5.19677">
        <ele>208.6</ele>
        <time>2020-06-30T08:19:30Z</time>
      </trkpt>
      <trkpt lat="48.65243" lon="5.1967">
        <ele>208.6</ele>
        <time>2020-06-30T08:19:31Z</time>
      </trkpt>
      <trkpt lat="48.65248" lon="5.19663">
        <ele>208.6</ele>
        <time>2020-06-30T08:19:32Z</time>
      </trkpt>
      <trkpt lat="48.65252" lon="5.19656">
        <ele>208.5</ele>
        <time>2020-06-30T08:19:33Z</time>
      </trkpt>
      <trkpt lat="48.65257" lon="5.19649">
        <ele>208.5</ele>
        <time>2020-06-30T08:19:34Z</time>
      </trkpt>
      <trkpt lat="48.65261" lon="5.19642">
        <ele>208.5</ele>
        <time>2020-06-30T08:19:35Z</time>
      </trkpt>
      <trkpt lat="48.65265" lon="5.19635">
        <ele>208.5</ele>
        <time>2020-06-30T08:19:36Z</time>
      </trkpt>
      <trkpt lat="48.65269" lon="5.19629">
        <ele>208.5</ele>
        <time>2020-06-30T08:19:37Z</time>
      </trkpt>
      <trkpt lat="48.65273" lon="5.19622">
        <ele>208.5</ele>
        <time>2020-06-30T08:19:38Z</time>
      </trkpt>
      <trkpt lat="48.65277" lon="5.19615">
        <ele>208.5</ele>
        <time>2020-06-30T08:19:39Z</time>
      </trkpt>
      <trkpt lat="48.6528" lon="5.19607">
        <ele>208.5</ele>
        <time>2020-06-30T08:19:40Z</time>
      </trkpt>
      <trkpt lat="48.65284" lon="5.19601">
        <ele>208.5</ele>
        <time>2020-06-30T08:19:41Z</time>
      </trkpt>
      <trkpt lat="48.65288" lon="5.19594">
        <ele>208.5</ele>
        <time>2020-06-30T08:19:42Z</time>
      </trkpt>
      <trkpt lat="48.65292" lon="5.19587">
        <ele>208.5</ele>
        <time>2020-06-30T08:19:43Z</time>
      </trkpt>
      <trkpt lat="48.65297" lon="5.19581">
        <ele>208.4</ele>
        <time>2020-06-30T08:19:44Z</time>
      </trkpt>
      <trkpt lat="48.653" lon="5.19575">
        <ele>208.4</ele>
        <time>2020-06-30T08:19:45Z</time>
      </trkpt>
      <trkpt lat="48.65304" lon="5.19569">
        <ele>208.4</ele>
        <time>2020-06-30T08:19:46Z</time>
      </trkpt>
      <trkpt lat="48.65308" lon="5.19563">
        <ele>208.4</ele>
        <time>2020-06-30T08:19:47Z</time>
      </trkpt>
      <trkpt lat="48.65312" lon="5.19556">
        <ele>208.4</ele>
        <time>2020-06-30T08:19:48Z</time>
      </trkpt>
      <trkpt lat="48.65316" lon="5.1955">
        <ele>208.4</ele>
        <time>2020-06-30T08:19:49Z</time>
      </trkpt>
      <trkpt lat="48.65319" lon="5.19544">
        <ele>208.3</ele>
        <time>2020-06-30T08:19:50Z</time>
      </trkpt>
      <trkpt lat="48.65324" lon="5.19538">
        <ele>208.3</ele>
        <time>2020-06-30T08:19:51Z</time>
      </trkpt>
      <trkpt lat="48.65328" lon="5.19531">
        <ele>208.3</ele>
        <time>2020-06-30T08:19:52Z</time>
      </trkpt>
      <trkpt lat="48.65331" lon="5.19524">
        <ele>208.2</ele>
        <time>2020-06-30T08:19:53Z</time>
      </trkpt>
      <trkpt lat="48.65335" lon="5.19517">
        <ele>208.2</ele>
        <time>2020-06-30T08:19:54Z</time>
      </trkpt>
      <trkpt lat="48.65339" lon="5.1951">
        <ele>208.1</ele>
        <time>2020-06-30T08:19:55Z</time>
      </trkpt>
      <trkpt lat="48.65343" lon="5.19503">
        <ele>208.1</ele>
        <time>2020-06-30T08:19:56Z</time>
      </trkpt>
      <trkpt lat="48.65347" lon="5.19496">
        <ele>208</ele>
        <time>2020-06-30T08:19:57Z</time>
      </trkpt>
      <trkpt lat="48.65351" lon="5.1949">
        <ele>208</ele>
        <time>2020-06-30T08:19:58Z</time>
      </trkpt>
      <trkpt lat="48.65354" lon="5.19483">
        <ele>208</ele>
        <time>2020-06-30T08:19:59Z</time>
      </trkpt>
      <trkpt lat="48.65358" lon="5.19476">
        <ele>208</ele>
        <time>2020-06-30T08:20:00Z</time>
      </trkpt>
      <trkpt lat="48.65362" lon="5.1947">
        <ele>208</ele>
        <time>2020-06-30T08:20:01Z</time>
      </trkpt>
      <trkpt lat="48.65365" lon="5.19463">
        <ele>208</ele>
        <time>2020-06-30T08:20:02Z</time>
      </trkpt>
      <trkpt lat="48.65369" lon="5.19457">
        <ele>208</ele>
        <time>2020-06-30T08:20:03Z</time>
      </trkpt>
      <trkpt lat="48.65372" lon="5.1945">
        <ele>207.9</ele>
        <time>2020-06-30T08:20:04Z</time>
      </trkpt>
      <trkpt lat="48.65376" lon="5.19443">
        <ele>207.9</ele>
        <time>2020-06-30T08:20:05Z</time>
      </trkpt>
      <trkpt lat="48.6538" lon="5.19437">
        <ele>207.8</ele>
        <time>2020-06-30T08:20:06Z</time>
      </trkpt>
      <trkpt lat="48.65384" lon="5.1943">
        <ele>207.8</ele>
        <time>2020-06-30T08:20:07Z</time>
      </trkpt>
      <trkpt lat="48.65389" lon="5.19423">
        <ele>207.8</ele>
        <time>2020-06-30T08:20:08Z</time>
      </trkpt>
      <trkpt lat="48.65393" lon="5.19416">
        <ele>207.8</ele>
        <time>2020-06-30T08:20:09Z</time>
      </trkpt>
      <trkpt lat="48.65397" lon="5.19409">
        <ele>207.8</ele>
        <time>2020-06-30T08:20:10Z</time>
      </trkpt>
      <trkpt lat="48.65401" lon="5.19402">
        <ele>207.7</ele>
        <time>2020-06-30T08:20:11Z</time>
      </trkpt>
      <trkpt lat="48.65406" lon="5.19396">
        <ele>207.7</ele>
        <time>2020-06-30T08:20:12Z</time>
      </trkpt>
      <trkpt lat="48.6541" lon="5.19389">
        <ele>207.7</ele>
        <time>2020-06-30T08:20:13Z</time>
      </trkpt>
      <trkpt lat="48.65415" lon="5.19382">
        <ele>207.7</ele>
        <time>2020-06-30T08:20:14Z</time>
      </trkpt>
      <trkpt lat="48.6542" lon="5.19376">
        <ele>207.7</ele>
        <time>2020-06-30T08:20:15Z</time>
      </trkpt>
      <trkpt lat="48.65425" lon="5.1937">
        <ele>207.6</ele>
        <time>2020-06-30T08:20:16Z</time>
      </trkpt>
      <trkpt lat="48.65429" lon="5.19363">
        <ele>207.6</ele>
        <time>2020-06-30T08:20:17Z</time>
      </trkpt>
      <trkpt lat="48.65432" lon="5.19355">
        <ele>207.6</ele>
        <time>2020-06-30T08:20:18Z</time>
      </trkpt>
      <trkpt lat="48.65437" lon="5.19347">
        <ele>207.5</ele>
        <time>2020-06-30T08:20:19Z</time>
      </trkpt>
      <trkpt lat="48.65442" lon="5.19341">
        <ele>207.4</ele>
        <time>2020-06-30T08:20:20Z</time>
      </trkpt>
      <trkpt lat="48.65446" lon="5.19333">
        <ele>207.4</ele>
        <time>2020-06-30T08:20:21Z</time>
      </trkpt>
      <trkpt lat="48.6545" lon="5.19326">
        <ele>207.3</ele>
        <time>2020-06-30T08:20:22Z</time>
      </trkpt>
      <trkpt lat="48.65454" lon="5.19319">
        <ele>207.3</ele>
        <time>2020-06-30T08:20:23Z</time>
      </trkpt>
      <trkpt lat="48.65458" lon="5.19311">
        <ele>207.2</ele>
        <time>2020-06-30T08:20:24Z</time>
      </trkpt>
      <trkpt lat="48.65462" lon="5.19304">
        <ele>207.2</ele>
        <time>2020-06-30T08:20:25Z</time>
      </trkpt>
      <trkpt lat="48.65466" lon="5.19297">
        <ele>207.2</ele>
        <time>2020-06-30T08:20:26Z</time>
      </trkpt>
      <trkpt lat="48.6547" lon="5.1929">
        <ele>207.2</ele>
        <time>2020-06-30T08:20:27Z</time>
      </trkpt>
      <trkpt lat="48.65474" lon="5.19282">
        <ele>207.2</ele>
        <time>2020-06-30T08:20:28Z</time>
      </trkpt>
      <trkpt lat="48.65478" lon="5.19275">
        <ele>207.2</ele>
        <time>2020-06-30T08:20:29Z</time>
      </trkpt>
      <trkpt lat="48.65481" lon="5.19267">
        <ele>207.1</ele>
        <time>2020-06-30T08:20:30Z</time>
      </trkpt>
      <trkpt lat="48.65485" lon="5.1926">
        <ele>207.1</ele>
        <time>2020-06-30T08:20:31Z</time>
      </trkpt>
      <trkpt lat="48.65489" lon="5.19252">
        <ele>207.1</ele>
        <time>2020-06-30T08:20:32Z</time>
      </trkpt>
      <trkpt lat="48.65493" lon="5.19245">
        <ele>207</ele>
        <time>2020-06-30T08:20:33Z</time>
      </trkpt>
      <trkpt lat="48.65497" lon="5.19238">
        <ele>206.9</ele>
        <time>2020-06-30T08:20:34Z</time>
      </trkpt>
      <trkpt lat="48.655" lon="5.1923">
        <ele>206.9</ele>
        <time>2020-06-30T08:20:35Z</time>
      </trkpt>
      <trkpt lat="48.65503" lon="5.19223">
        <ele>206.9</ele>
        <time>2020-06-30T08:20:36Z</time>
      </trkpt>
      <trkpt lat="48.65507" lon="5.19215">
        <ele>206.8</ele>
        <time>2020-06-30T08:20:37Z</time>
      </trkpt>
      <trkpt lat="48.6551" lon="5.19208">
        <ele>206.8</ele>
        <time>2020-06-30T08:20:38Z</time>
      </trkpt>
      <trkpt lat="48.65512" lon="5.192">
        <ele>206.8</ele>
        <time>2020-06-30T08:20:39Z</time>
      </trkpt>
      <trkpt lat="48.65515" lon="5.19193">
        <ele>206.8</ele>
        <time>2020-06-30T08:20:40Z</time>
      </trkpt>
      <trkpt lat="48.65518" lon="5.19185">
        <ele>206.8</ele>
        <time>2020-06-30T08:20:41Z</time>
      </trkpt>
      <trkpt lat="48.6552" lon="5.19178">
        <ele>206.8</ele>
        <time>2020-06-30T08:20:42Z</time>
      </trkpt>
      <trkpt lat="48.65522" lon="5.1917">
        <ele>206.8</ele>
        <time>2020-06-30T08:20:43Z</time>
      </trkpt>
      <trkpt lat="48.65524" lon="5.19162">
        <ele>206.7</ele>
        <time>2020-06-30T08:20:44Z</time>
      </trkpt>
      <trkpt lat="48.65527" lon="5.19154">
        <ele>206.7</ele>
        <time>2020-06-30T08:20:45Z</time>
      </trkpt>
      <trkpt lat="48.65529" lon="5.19146">
        <ele>206.7</ele>
        <time>2020-06-30T08:20:46Z</time>
      </trkpt>
      <trkpt lat="48.65532" lon="5.19137">
        <ele>206.7</ele>
        <time>2020-06-30T08:20:47Z</time>
      </trkpt>
      <trkpt lat="48.65534" lon="5.19129">
        <ele>206.6</ele>
        <time>2020-06-30T08:20:48Z</time>
      </trkpt>
      <trkpt lat="48.65537" lon="5.1912">
        <ele>206.6</ele>
        <time>2020-06-30T08:20:49Z</time>
      </trkpt>
      <trkpt lat="48.65539" lon="5.19111">
        <ele>206.6</ele>
        <time>2020-06-30T08:20:50Z</time>
      </trkpt>
      <trkpt lat="48.65541" lon="5.19103">
        <ele>206.5</ele>
        <time>2020-06-30T08:20:51Z</time>
      </trkpt>
      <trkpt lat="48.65542" lon="5.19094">
        <ele>206.5</ele>
        <time>2020-06-30T08:20:52Z</time>
      </trkpt>
      <trkpt lat="48.65544" lon="5.19085">
        <ele>206.5</ele>
        <time>2020-06-30T08:20:53Z</time>
      </trkpt>
      <trkpt lat="48.65545" lon="5.19076">
        <ele>206.5</ele>
        <time>2020-06-30T08:20:54Z</time>
      </trkpt>
      <trkpt lat="48.65547" lon="5.19068">
        <ele>206.4</ele>
        <time>2020-06-30T08:20:55Z</time>
      </trkpt>
      <trkpt lat="48.6555" lon="5.19059">
        <ele>206.4</ele>
        <time>2020-06-30T08:20:56Z</time>
      </trkpt>
      <trkpt lat="48.65552" lon="5.19051">
        <ele>206.3</ele>
        <time>2020-06-30T08:20:57Z</time>
      </trkpt>
      <trkpt lat="48.65553" lon="5.19042">
        <ele>206.3</ele>
        <time>2020-06-30T08:20:58Z</time>
      </trkpt>
      <trkpt lat="48.65555" lon="5.19034">
        <ele>206.3</ele>
        <time>2020-06-30T08:20:59Z</time>
      </trkpt>
      <trkpt lat="48.65557" lon="5.19026">
        <ele>206.3</ele>
        <time>2020-06-30T08:21:00Z</time>
      </trkpt>
      <trkpt lat="48.65559" lon="5.19018">
        <ele>206.3</ele>
        <time>2020-06-30T08:21:01Z</time>
      </trkpt>
      <trkpt lat="48.65561" lon="5.1901">
        <ele>206.3</ele>
        <time>2020-06-30T08:21:02Z</time>
      </trkpt>
      <trkpt lat="48.6556" lon="5.19002">
        <ele>206.3</ele>
        <time>2020-06-30T08:21:03Z</time>
      </trkpt>
      <trkpt lat="48.65561" lon="5.18994">
        <ele>206.2</ele>
        <time>2020-06-30T08:21:04Z</time>
      </trkpt>
      <trkpt lat="48.65563" lon="5.18986">
        <ele>206.2</ele>
        <time>2020-06-30T08:21:05Z</time>
      </trkpt>
      <trkpt lat="48.65564" lon="5.18978">
        <ele>206.2</ele>
        <time>2020-06-30T08:21:06Z</time>
      </trkpt>
      <trkpt lat="48.65564" lon="5.18969">
        <ele>206.1</ele>
        <time>2020-06-30T08:21:07Z</time>
      </trkpt>
      <trkpt lat="48.65565" lon="5.18961">
        <ele>206.1</ele>
        <time>2020-06-30T08:21:08Z</time>
      </trkpt>
      <trkpt lat="48.65564" lon="5.18954">
        <ele>206.1</ele>
        <time>2020-06-30T08:21:09Z</time>
      </trkpt>
      <trkpt lat="48.65563" lon="5.18946">
        <ele>206.1</ele>
        <time>2020-06-30T08:21:10Z</time>
      </trkpt>
      <trkpt lat="48.65562" lon="5.18938">
        <ele>206.1</ele>
        <time>2020-06-30T08:21:11Z</time>
      </trkpt>
      <trkpt lat="48.65562" lon="5.1893">
        <ele>206.1</ele>
        <time>2020-06-30T08:21:12Z</time>
      </trkpt>
      <trkpt lat="48.6556" lon="5.18923">
        <ele>206.1</ele>
        <time>2020-06-30T08:21:13Z</time>
      </trkpt>
      <trkpt lat="48.65559" lon="5.18915">
        <ele>206.2</ele>
        <time>2020-06-30T08:21:14Z</time>
      </trkpt>
      <trkpt lat="48.65557" lon="5.18909">
        <ele>206.2</ele>
        <time>2020-06-30T08:21:15Z</time>
      </trkpt>
      <trkpt lat="48.65556" lon="5.18902">
        <ele>206.3</ele>
        <time>2020-06-30T08:21:16Z</time>
      </trkpt>
      <trkpt lat="48.65553" lon="5.18895">
        <ele>206.3</ele>
        <time>2020-06-30T08:21:17Z</time>
      </trkpt>
      <trkpt lat="48.65552" lon="5.18889">
        <ele>206.4</ele>
        <time>2020-06-30T08:21:18Z</time>
      </trkpt>
      <trkpt lat="48.6555" lon="5.18882">
        <ele>206.5</ele>
        <time>2020-06-30T08:21:19Z</time>
      </trkpt>
      <trkpt lat="48.65548" lon="5.18876">
        <ele>206.5</ele>
        <time>2020-06-30T08:21:20Z</time>
      </trkpt>
      <trkpt lat="48.65546" lon="5.1887">
        <ele>206.6</ele>
        <time>2020-06-30T08:21:21Z</time>
      </trkpt>
      <trkpt lat="48.65544" lon="5.18864">
        <ele>206.7</ele>
        <time>2020-06-30T08:21:22Z</time>
      </trkpt>
      <trkpt lat="48.65542" lon="5.18858">
        <ele>206.7</ele>
        <time>2020-06-30T08:21:23Z</time>
      </trkpt>
      <trkpt lat="48.65539" lon="5.18853">
        <ele>206.8</ele>
        <time>2020-06-30T08:21:24Z</time>
      </trkpt>
      <trkpt lat="48.65536" lon="5.18848">
        <ele>206.9</ele>
        <time>2020-06-30T08:21:25Z</time>
      </trkpt>
      <trkpt lat="48.65534" lon="5.18842">
        <ele>206.9</ele>
        <time>2020-06-30T08:21:26Z</time>
      </trkpt>
      <trkpt lat="48.65532" lon="5.18836">
        <ele>207</ele>
        <time>2020-06-30T08:21:27Z</time>
      </trkpt>
      <trkpt lat="48.6553" lon="5.1883">
        <ele>207</ele>
        <time>2020-06-30T08:21:28Z</time>
      </trkpt>
      <trkpt lat="48.65528" lon="5.18824">
        <ele>207</ele>
        <time>2020-06-30T08:21:29Z</time>
      </trkpt>
      <trkpt lat="48.65525" lon="5.18819">
        <ele>207.1</ele>
        <time>2020-06-30T08:21:30Z</time>
      </trkpt>
      <trkpt lat="48.65523" lon="5.18814">
        <ele>207.1</ele>
        <time>2020-06-30T08:21:31Z</time>
      </trkpt>
      <trkpt lat="48.65521" lon="5.18809">
        <ele>207.1</ele>
        <time>2020-06-30T08:21:32Z</time>
      </trkpt>
      <trkpt lat="48.65519" lon="5.18803">
        <ele>207.2</ele>
        <time>2020-06-30T08:21:33Z</time>
      </trkpt>
      <trkpt lat="48.65516" lon="5.18799">
        <ele>207.2</ele>
        <time>2020-06-30T08:21:34Z</time>
      </trkpt>
      <trkpt lat="48.65513" lon="5.18795">
        <ele>207.2</ele>
        <time>2020-06-30T08:21:35Z</time>
      </trkpt>
      <trkpt lat="48.6551" lon="5.18791">
        <ele>207.3</ele>
        <time>2020-06-30T08:21:36Z</time>
      </trkpt>
      <trkpt lat="48.65506" lon="5.18788">
        <ele>207.3</ele>
        <time>2020-06-30T08:21:37Z</time>
      </trkpt>
      <trkpt lat="48.65503" lon="5.18785">
        <ele>207.3</ele>
        <time>2020-06-30T08:21:38Z</time>
      </trkpt>
      <trkpt lat="48.655" lon="5.1878">
        <ele>207.4</ele>
        <time>2020-06-30T08:21:39Z</time>
      </trkpt>
      <trkpt lat="48.65497" lon="5.18776">
        <ele>207.5</ele>
        <time>2020-06-30T08:21:40Z</time>
      </trkpt>
      <trkpt lat="48.65494" lon="5.18772">
        <ele>207.5</ele>
        <time>2020-06-30T08:21:41Z</time>
      </trkpt>
      <trkpt lat="48.65492" lon="5.18766">
        <ele>207.4</ele>
        <time>2020-06-30T08:21:42Z</time>
      </trkpt>
      <trkpt lat="48.65489" lon="5.18761">
        <ele>207.3</ele>
        <time>2020-06-30T08:21:43Z</time>
      </trkpt>
      <trkpt lat="48.65486" lon="5.18755">
        <ele>207.2</ele>
        <time>2020-06-30T08:21:44Z</time>
      </trkpt>
      <trkpt lat="48.65484" lon="5.18749">
        <ele>207.2</ele>
        <time>2020-06-30T08:21:45Z</time>
      </trkpt>
      <trkpt lat="48.65483" lon="5.18743">
        <ele>207.1</ele>
        <time>2020-06-30T08:21:46Z</time>
      </trkpt>
      <trkpt lat="48.65481" lon="5.18737">
        <ele>207</ele>
        <time>2020-06-30T08:21:47Z</time>
      </trkpt>
      <trkpt lat="48.65479" lon="5.18732">
        <ele>207</ele>
        <time>2020-06-30T08:21:48Z</time>
      </trkpt>
      <trkpt lat="48.65477" lon="5.18726">
        <ele>207</ele>
        <time>2020-06-30T08:21:49Z</time>
      </trkpt>
      <trkpt lat="48.65475" lon="5.18721">
        <ele>206.9</ele>
        <time>2020-06-30T08:21:50Z</time>
      </trkpt>
      <trkpt lat="48.65472" lon="5.18716">
        <ele>206.9</ele>
        <time>2020-06-30T08:21:51Z</time>
      </trkpt>
      <trkpt lat="48.65469" lon="5.18711">
        <ele>206.9</ele>
        <time>2020-06-30T08:21:52Z</time>
      </trkpt>
      <trkpt lat="48.65467" lon="5.18706">
        <ele>206.9</ele>
        <time>2020-06-30T08:21:53Z</time>
      </trkpt>
      <trkpt lat="48.65464" lon="5.18701">
        <ele>206.9</ele>
        <time>2020-06-30T08:21:54Z</time>
      </trkpt>
      <trkpt lat="48.65461" lon="5.18697">
        <ele>206.9</ele>
        <time>2020-06-30T08:21:55Z</time>
      </trkpt>
      <trkpt lat="48.65458" lon="5.18693">
        <ele>207</ele>
        <time>2020-06-30T08:21:56Z</time>
      </trkpt>
      <trkpt lat="48.65456" lon="5.18688">
        <ele>207</ele>
        <time>2020-06-30T08:21:57Z</time>
      </trkpt>
      <trkpt lat="48.65453" lon="5.18684">
        <ele>207</ele>
        <time>2020-06-30T08:21:58Z</time>
      </trkpt>
      <trkpt lat="48.65451" lon="5.1868">
        <ele>207</ele>
        <time>2020-06-30T08:21:59Z</time>
      </trkpt>
      <trkpt lat="48.65449" lon="5.18676">
        <ele>207.1</ele>
        <time>2020-06-30T08:22:00Z</time>
      </trkpt>
      <trkpt lat="48.65446" lon="5.18673">
        <ele>207.1</ele>
        <time>2020-06-30T08:22:01Z</time>
      </trkpt>
      <trkpt lat="48.65443" lon="5.1867">
        <ele>207.1</ele>
        <time>2020-06-30T08:22:02Z</time>
      </trkpt>
      <trkpt lat="48.65438" lon="5.18667">
        <ele>207.2</ele>
        <time>2020-06-30T08:22:03Z</time>
      </trkpt>
      <trkpt lat="48.65434" lon="5.18664">
        <ele>207.3</ele>
        <time>2020-06-30T08:22:04Z</time>
      </trkpt>
      <trkpt lat="48.65429" lon="5.18662">
        <ele>207.4</ele>
        <time>2020-06-30T08:22:05Z</time>
      </trkpt>
      <trkpt lat="48.65425" lon="5.18657">
        <ele>207.4</ele>
        <time>2020-06-30T08:22:06Z</time>
      </trkpt>
      <trkpt lat="48.6542" lon="5.18656">
        <ele>207.5</ele>
        <time>2020-06-30T08:22:07Z</time>
      </trkpt>
      <trkpt lat="48.65416" lon="5.18651">
        <ele>207.6</ele>
        <time>2020-06-30T08:22:08Z</time>
      </trkpt>
      <trkpt lat="48.65413" lon="5.18647">
        <ele>207.7</ele>
        <time>2020-06-30T08:22:09Z</time>
      </trkpt>
      <trkpt lat="48.6541" lon="5.18642">
        <ele>207.7</ele>
        <time>2020-06-30T08:22:10Z</time>
      </trkpt>
      <trkpt lat="48.65406" lon="5.18639">
        <ele>207.8</ele>
        <time>2020-06-30T08:22:11Z</time>
      </trkpt>
      <trkpt lat="48.65403" lon="5.18636">
        <ele>207.9</ele>
        <time>2020-06-30T08:22:12Z</time>
      </trkpt>
      <trkpt lat="48.654" lon="5.18632">
        <ele>207.9</ele>
        <time>2020-06-30T08:22:13Z</time>
      </trkpt>
      <trkpt lat="48.65397" lon="5.18626">
        <ele>207.9</ele>
        <time>2020-06-30T08:22:14Z</time>
      </trkpt>
      <trkpt lat="48.65393" lon="5.18623">
        <ele>207.9</ele>
        <time>2020-06-30T08:22:15Z</time>
      </trkpt>
      <trkpt lat="48.65388" lon="5.1862">
        <ele>208</ele>
        <time>2020-06-30T08:22:16Z</time>
      </trkpt>
      <trkpt lat="48.65384" lon="5.18617">
        <ele>208</ele>
        <time>2020-06-30T08:22:17Z</time>
      </trkpt>
      <trkpt lat="48.65379" lon="5.18615">
        <ele>208</ele>
        <time>2020-06-30T08:22:18Z</time>
      </trkpt>
      <trkpt lat="48.65374" lon="5.18612">
        <ele>208.1</ele>
        <time>2020-06-30T08:22:19Z</time>
      </trkpt>
      <trkpt lat="48.6537" lon="5.18608">
        <ele>208.1</ele>
        <time>2020-06-30T08:22:20Z</time>
      </trkpt>
      <trkpt lat="48.65365" lon="5.18606">
        <ele>208.2</ele>
        <time>2020-06-30T08:22:21Z</time>
      </trkpt>
      <trkpt lat="48.6536" lon="5.18604">
        <ele>208.2</ele>
        <time>2020-06-30T08:22:22Z</time>
      </trkpt>
      <trkpt lat="48.65355" lon="5.18602">
        <ele>208.3</ele>
        <time>2020-06-30T08:22:23Z</time>
      </trkpt>
      <trkpt lat="48.6535" lon="5.186">
        <ele>208.3</ele>
        <time>2020-06-30T08:22:24Z</time>
      </trkpt>
      <trkpt lat="48.65346" lon="5.18596">
        <ele>208.4</ele>
        <time>2020-06-30T08:22:25Z</time>
      </trkpt>
      <trkpt lat="48.65341" lon="5.18594">
        <ele>208.4</ele>
        <time>2020-06-30T08:22:26Z</time>
      </trkpt>
      <trkpt lat="48.65337" lon="5.18591">
        <ele>208.4</ele>
        <time>2020-06-30T08:22:27Z</time>
      </trkpt>
      <trkpt lat="48.65333" lon="5.18588">
        <ele>208.5</ele>
        <time>2020-06-30T08:22:28Z</time>
      </trkpt>
      <trkpt lat="48.65328" lon="5.18585">
        <ele>208.5</ele>
        <time>2020-06-30T08:22:29Z</time>
      </trkpt>
      <trkpt lat="48.65324" lon="5.18583">
        <ele>208.6</ele>
        <time>2020-06-30T08:22:30Z</time>
      </trkpt>
      <trkpt lat="48.65319" lon="5.18581">
        <ele>208.7</ele>
        <time>2020-06-30T08:22:31Z</time>
      </trkpt>
      <trkpt lat="48.65314" lon="5.18578">
        <ele>208.7</ele>
        <time>2020-06-30T08:22:32Z</time>
      </trkpt>
      <trkpt lat="48.6531" lon="5.18574">
        <ele>208.8</ele>
        <time>2020-06-30T08:22:33Z</time>
      </trkpt>
      <trkpt lat="48.65305" lon="5.18572">
        <ele>208.8</ele>
        <time>2020-06-30T08:22:34Z</time>
      </trkpt>
      <trkpt lat="48.65301" lon="5.18569">
        <ele>208.9</ele>
        <time>2020-06-30T08:22:35Z</time>
      </trkpt>
      <trkpt lat="48.65296" lon="5.18565">
        <ele>209</ele>
        <time>2020-06-30T08:22:36Z</time>
      </trkpt>
      <trkpt lat="48.65292" lon="5.18562">
        <ele>209</ele>
        <time>2020-06-30T08:22:37Z</time>
      </trkpt>
      <trkpt lat="48.65287" lon="5.18561">
        <ele>209</ele>
        <time>2020-06-30T08:22:38Z</time>
      </trkpt>
      <trkpt lat="48.65282" lon="5.18561">
        <ele>209</ele>
        <time>2020-06-30T08:22:39Z</time>
      </trkpt>
      <trkpt lat="48.65277" lon="5.1856">
        <ele>209.1</ele>
        <time>2020-06-30T08:22:40Z</time>
      </trkpt>
      <trkpt lat="48.65272" lon="5.18558">
        <ele>209.1</ele>
        <time>2020-06-30T08:22:41Z</time>
      </trkpt>
      <trkpt lat="48.65268" lon="5.18555">
        <ele>209.1</ele>
        <time>2020-06-30T08:22:42Z</time>
      </trkpt>
      <trkpt lat="48.65263" lon="5.18554">
        <ele>209.1</ele>
        <time>2020-06-30T08:22:43Z</time>
      </trkpt>
      <trkpt lat="48.65258" lon="5.18551">
        <ele>209.2</ele>
        <time>2020-06-30T08:22:44Z</time>
      </trkpt>
      <trkpt lat="48.65254" lon="5.18546">
        <ele>209.2</ele>
        <time>2020-06-30T08:22:45Z</time>
      </trkpt>
      <trkpt lat="48.6525" lon="5.18544">
        <ele>209.3</ele>
        <time>2020-06-30T08:22:46Z</time>
      </trkpt>
      <trkpt lat="48.65245" lon="5.18542">
        <ele>209.4</ele>
        <time>2020-06-30T08:22:47Z</time>
      </trkpt>
      <trkpt lat="48.65241" lon="5.1854">
        <ele>209.4</ele>
        <time>2020-06-30T08:22:48Z</time>
      </trkpt>
      <trkpt lat="48.65236" lon="5.18538">
        <ele>209.5</ele>
        <time>2020-06-30T08:22:49Z</time>
      </trkpt>
      <trkpt lat="48.65232" lon="5.18535">
        <ele>209.5</ele>
        <time>2020-06-30T08:22:50Z</time>
      </trkpt>
      <trkpt lat="48.65227" lon="5.18533">
        <ele>209.6</ele>
        <time>2020-06-30T08:22:51Z</time>
      </trkpt>
      <trkpt lat="48.65223" lon="5.18529">
        <ele>209.6</ele>
        <time>2020-06-30T08:22:52Z</time>
      </trkpt>
      <trkpt lat="48.65218" lon="5.18527">
        <ele>209.6</ele>
        <time>2020-06-30T08:22:53Z</time>
      </trkpt>
      <trkpt lat="48.65214" lon="5.18522">
        <ele>209.6</ele>
        <time>2020-06-30T08:22:54Z</time>
      </trkpt>
      <trkpt lat="48.65211" lon="5.18517">
        <ele>209.6</ele>
        <time>2020-06-30T08:22:55Z</time>
      </trkpt>
      <trkpt lat="48.65208" lon="5.18512">
        <ele>209.6</ele>
        <time>2020-06-30T08:22:56Z</time>
      </trkpt>
      <trkpt lat="48.65208" lon="5.18504">
        <ele>209.3</ele>
        <time>2020-06-30T08:22:57Z</time>
      </trkpt>
      <trkpt lat="48.65209" lon="5.18497">
        <ele>209.2</ele>
        <time>2020-06-30T08:22:58Z</time>
      </trkpt>
      <trkpt lat="48.6521" lon="5.18488">
        <ele>209</ele>
        <time>2020-06-30T08:22:59Z</time>
      </trkpt>
      <trkpt lat="48.65212" lon="5.18481">
        <ele>208.8</ele>
        <time>2020-06-30T08:23:00Z</time>
      </trkpt>
      <trkpt lat="48.65214" lon="5.18474">
        <ele>208.6</ele>
        <time>2020-06-30T08:23:01Z</time>
      </trkpt>
      <trkpt lat="48.65214" lon="5.18467">
        <ele>208.4</ele>
        <time>2020-06-30T08:23:02Z</time>
      </trkpt>
      <trkpt lat="48.65215" lon="5.1846">
        <ele>208.3</ele>
        <time>2020-06-30T08:23:03Z</time>
      </trkpt>
      <trkpt lat="48.65216" lon="5.18455">
        <ele>208.1</ele>
        <time>2020-06-30T08:23:04Z</time>
      </trkpt>
      <trkpt lat="48.65216" lon="5.1845">
        <ele>208</ele>
        <time>2020-06-30T08:23:05Z</time>
      </trkpt>
      <trkpt lat="48.65215" lon="5.18444">
        <ele>207.9</ele>
        <time>2020-06-30T08:23:06Z</time>
      </trkpt>
      <trkpt lat="48.65215" lon="5.18437">
        <ele>208</ele>
        <time>2020-06-30T08:23:07Z</time>
      </trkpt>
      <trkpt lat="48.65215" lon="5.18431">
        <ele>208.1</ele>
        <time>2020-06-30T08:23:08Z</time>
      </trkpt>
      <trkpt lat="48.65215" lon="5.18426">
        <ele>208.1</ele>
        <time>2020-06-30T08:23:09Z</time>
      </trkpt>
      <trkpt lat="48.65215" lon="5.1842">
        <ele>208.2</ele>
        <time>2020-06-30T08:23:10Z</time>
      </trkpt>
      <trkpt lat="48.65214" lon="5.18414">
        <ele>208.3</ele>
        <time>2020-06-30T08:23:11Z</time>
      </trkpt>
      <trkpt lat="48.65214" lon="5.18409">
        <ele>208.3</ele>
        <time>2020-06-30T08:23:12Z</time>
      </trkpt>
      <trkpt lat="48.65215" lon="5.18403">
        <ele>208.4</ele>
        <time>2020-06-30T08:23:13Z</time>
      </trkpt>
      <trkpt lat="48.65214" lon="5.18397">
        <ele>208.5</ele>
        <time>2020-06-30T08:23:14Z</time>
      </trkpt>
      <trkpt lat="48.65215" lon="5.18391">
        <ele>208.6</ele>
        <time>2020-06-30T08:23:15Z</time>
      </trkpt>
      <trkpt lat="48.65215" lon="5.18385">
        <ele>208.7</ele>
        <time>2020-06-30T08:23:16Z</time>
      </trkpt>
      <trkpt lat="48.65214" lon="5.18379">
        <ele>208.8</ele>
        <time>2020-06-30T08:23:17Z</time>
      </trkpt>
      <trkpt lat="48.65214" lon="5.18373">
        <ele>208.9</ele>
        <time>2020-06-30T08:23:18Z</time>
      </trkpt>
      <trkpt lat="48.65212" lon="5.18367">
        <ele>209</ele>
        <time>2020-06-30T08:23:19Z</time>
      </trkpt>
      <trkpt lat="48.65211" lon="5.18362">
        <ele>209.1</ele>
        <time>2020-06-30T08:23:20Z</time>
      </trkpt>
      <trkpt lat="48.6521" lon="5.18356">
        <ele>209.3</ele>
        <time>2020-06-30T08:23:21Z</time>
      </trkpt>
      <trkpt lat="48.65209" lon="5.1835">
        <ele>209.4</ele>
        <time>2020-06-30T08:23:22Z</time>
      </trkpt>
      <trkpt lat="48.65208" lon="5.18344">
        <ele>209.5</ele>
        <time>2020-06-30T08:23:23Z</time>
      </trkpt>
      <trkpt lat="48.65206" lon="5.18338">
        <ele>209.7</ele>
        <time>2020-06-30T08:23:24Z</time>
      </trkpt>
      <trkpt lat="48.65205" lon="5.18333">
        <ele>209.8</ele>
        <time>2020-06-30T08:23:25Z</time>
      </trkpt>
      <trkpt lat="48.65205" lon="5.18328">
        <ele>210</ele>
        <time>2020-06-30T08:23:26Z</time>
      </trkpt>
      <trkpt lat="48.65202" lon="5.18325">
        <ele>210.2</ele>
        <time>2020-06-30T08:23:27Z</time>
      </trkpt>
      <trkpt lat="48.65201" lon="5.18321">
        <ele>210.3</ele>
        <time>2020-06-30T08:23:28Z</time>
      </trkpt>
      <trkpt lat="48.652" lon="5.18316">
        <ele>210.5</ele>
        <time>2020-06-30T08:23:29Z</time>
      </trkpt>
      <trkpt lat="48.65198" lon="5.18312">
        <ele>210.7</ele>
        <time>2020-06-30T08:23:30Z</time>
      </trkpt>
      <trkpt lat="48.65198" lon="5.18307">
        <ele>210.8</ele>
        <time>2020-06-30T08:23:31Z</time>
      </trkpt>
      <trkpt lat="48.65196" lon="5.18303">
        <ele>211</ele>
        <time>2020-06-30T08:23:32Z</time>
      </trkpt>
      <trkpt lat="48.65195" lon="5.18299">
        <ele>211.1</ele>
        <time>2020-06-30T08:23:33Z</time>
      </trkpt>
      <trkpt lat="48.65192" lon="5.18296">
        <ele>211.3</ele>
        <time>2020-06-30T08:23:34Z</time>
      </trkpt>
      <trkpt lat="48.65192" lon="5.1829">
        <ele>211.4</ele>
        <time>2020-06-30T08:23:35Z</time>
      </trkpt>
      <trkpt lat="48.65192" lon="5.18289">
        <ele>211.5</ele>
        <time>2020-06-30T08:23:36Z</time>
      </trkpt>
      <trkpt lat="48.65191" lon="5.18284">
        <ele>211.8</ele>
        <time>2020-06-30T08:23:37Z</time>
      </trkpt>
      <trkpt lat="48.65191" lon="5.18282">
        <ele>211.8</ele>
        <time>2020-06-30T08:23:38Z</time>
      </trkpt>
      <trkpt lat="48.65191" lon="5.18277">
        <ele>211.9</ele>
        <time>2020-06-30T08:23:39Z</time>
      </trkpt>
      <trkpt lat="48.65191" lon="5.18275">
        <ele>211.9</ele>
        <time>2020-06-30T08:23:40Z</time>
      </trkpt>
      <trkpt lat="48.65191" lon="5.1827">
        <ele>212</ele>
        <time>2020-06-30T08:23:41Z</time>
      </trkpt>
      <trkpt lat="48.65191" lon="5.18266">
        <ele>212.5</ele>
        <time>2020-06-30T08:23:42Z</time>
      </trkpt>
      <trkpt lat="48.65192" lon="5.18262">
        <ele>212.8</ele>
        <time>2020-06-30T08:23:43Z</time>
      </trkpt>
      <trkpt lat="48.65191" lon="5.18257">
        <ele>213.1</ele>
        <time>2020-06-30T08:23:44Z</time>
      </trkpt>
      <trkpt lat="48.65191" lon="5.18252">
        <ele>213.4</ele>
        <time>2020-06-30T08:23:45Z</time>
      </trkpt>
      <trkpt lat="48.65191" lon="5.18248">
        <ele>213.7</ele>
        <time>2020-06-30T08:23:46Z</time>
      </trkpt>
      <trkpt lat="48.65192" lon="5.18243">
        <ele>214</ele>
        <time>2020-06-30T08:23:47Z</time>
      </trkpt>
      <trkpt lat="48.65192" lon="5.18237">
        <ele>214.3</ele>
        <time>2020-06-30T08:23:48Z</time>
      </trkpt>
      <trkpt lat="48.65193" lon="5.18232">
        <ele>214.6</ele>
        <time>2020-06-30T08:23:49Z</time>
      </trkpt>
      <trkpt lat="48.65194" lon="5.18227">
        <ele>214.9</ele>
        <time>2020-06-30T08:23:50Z</time>
      </trkpt>
      <trkpt lat="48.65195" lon="5.18223">
        <ele>215.2</ele>
        <time>2020-06-30T08:23:51Z</time>
      </trkpt>
      <trkpt lat="48.65196" lon="5.18218">
        <ele>215.4</ele>
        <time>2020-06-30T08:23:52Z</time>
      </trkpt>
      <trkpt lat="48.65197" lon="5.18214">
        <ele>215.7</ele>
        <time>2020-06-30T08:23:53Z</time>
      </trkpt>
      <trkpt lat="48.65198" lon="5.18209">
        <ele>216</ele>
        <time>2020-06-30T08:23:54Z</time>
      </trkpt>
      <trkpt lat="48.65198" lon="5.18205">
        <ele>216.2</ele>
        <time>2020-06-30T08:23:55Z</time>
      </trkpt>
      <trkpt lat="48.65198" lon="5.182">
        <ele>216.5</ele>
        <time>2020-06-30T08:23:56Z</time>
      </trkpt>
      <trkpt lat="48.652" lon="5.18196">
        <ele>216.9</ele>
        <time>2020-06-30T08:23:57Z</time>
      </trkpt>
      <trkpt lat="48.65201" lon="5.18194">
        <ele>217</ele>
        <time>2020-06-30T08:23:58Z</time>
      </trkpt>
      <trkpt lat="48.65202" lon="5.18191">
        <ele>217.2</ele>
        <time>2020-06-30T08:23:59Z</time>
      </trkpt>
      <trkpt lat="48.65202" lon="5.18189">
        <ele>217.3</ele>
        <time>2020-06-30T08:24:00Z</time>
      </trkpt>
      <trkpt lat="48.65203" lon="5.18187">
        <ele>217.5</ele>
        <time>2020-06-30T08:24:01Z</time>
      </trkpt>
      <trkpt lat="48.65204" lon="5.18185">
        <ele>217.7</ele>
        <time>2020-06-30T08:24:02Z</time>
      </trkpt>
      <trkpt lat="48.65205" lon="5.18183">
        <ele>217.8</ele>
        <time>2020-06-30T08:24:03Z</time>
      </trkpt>
      <trkpt lat="48.65206" lon="5.18181">
        <ele>218</ele>
        <time>2020-06-30T08:24:04Z</time>
      </trkpt>
      <trkpt lat="48.65209" lon="5.18176">
        <ele>218.4</ele>
        <time>2020-06-30T08:24:05Z</time>
      </trkpt>
      <trkpt lat="48.6521" lon="5.18175">
        <ele>218.5</ele>
        <time>2020-06-30T08:24:06Z</time>
      </trkpt>
      <trkpt lat="48.65211" lon="5.18171">
        <ele>218.9</ele>
        <time>2020-06-30T08:24:07Z</time>
      </trkpt>
      <trkpt lat="48.65211" lon="5.1817">
        <ele>218.9</ele>
        <time>2020-06-30T08:24:08Z</time>
      </trkpt>
      <trkpt lat="48.65213" lon="5.18165">
        <ele>219.3</ele>
        <time>2020-06-30T08:24:09Z</time>
      </trkpt>
      <trkpt lat="48.65213" lon="5.18164">
        <ele>219.4</ele>
        <time>2020-06-30T08:24:10Z</time>
      </trkpt>
      <trkpt lat="48.65215" lon="5.1816">
        <ele>219.8</ele>
        <time>2020-06-30T08:24:11Z</time>
      </trkpt>
      <trkpt lat="48.65216" lon="5.18159">
        <ele>219.9</ele>
        <time>2020-06-30T08:24:12Z</time>
      </trkpt>
      <trkpt lat="48.65216" lon="5.18154">
        <ele>220.3</ele>
        <time>2020-06-30T08:24:13Z</time>
      </trkpt>
      <trkpt lat="48.65217" lon="5.18152">
        <ele>220.4</ele>
        <time>2020-06-30T08:24:14Z</time>
      </trkpt>
      <trkpt lat="48.65218" lon="5.18148">
        <ele>220.7</ele>
        <time>2020-06-30T08:24:15Z</time>
      </trkpt>
      <trkpt lat="48.65218" lon="5.18143">
        <ele>221</ele>
        <time>2020-06-30T08:24:16Z</time>
      </trkpt>
      <trkpt lat="48.65218" lon="5.18142">
        <ele>221.2</ele>
        <time>2020-06-30T08:24:17Z</time>
      </trkpt>
      <trkpt lat="48.65219" lon="5.18136">
        <ele>221.6</ele>
        <time>2020-06-30T08:24:18Z</time>
      </trkpt>
      <trkpt lat="48.65219" lon="5.18134">
        <ele>221.7</ele>
        <time>2020-06-30T08:24:19Z</time>
      </trkpt>
      <trkpt lat="48.65219" lon="5.1813">
        <ele>222.1</ele>
        <time>2020-06-30T08:24:20Z</time>
      </trkpt>
      <trkpt lat="48.65219" lon="5.18128">
        <ele>222.2</ele>
        <time>2020-06-30T08:24:21Z</time>
      </trkpt>
      <trkpt lat="48.6522" lon="5.18124">
        <ele>222.6</ele>
        <time>2020-06-30T08:24:22Z</time>
      </trkpt>
      <trkpt lat="48.6522" lon="5.18122">
        <ele>222.7</ele>
        <time>2020-06-30T08:24:23Z</time>
      </trkpt>
      <trkpt lat="48.6522" lon="5.18119">
        <ele>223</ele>
        <time>2020-06-30T08:24:24Z</time>
      </trkpt>
      <trkpt lat="48.65219" lon="5.18117">
        <ele>223.2</ele>
        <time>2020-06-30T08:24:25Z</time>
      </trkpt>
      <trkpt lat="48.65219" lon="5.18113">
        <ele>223.5</ele>
        <time>2020-06-30T08:24:26Z</time>
      </trkpt>
      <trkpt lat="48.65218" lon="5.18111">
        <ele>223.6</ele>
        <time>2020-06-30T08:24:27Z</time>
      </trkpt>
      <trkpt lat="48.65219" lon="5.18106">
        <ele>224</ele>
        <time>2020-06-30T08:24:28Z</time>
      </trkpt>
      <trkpt lat="48.65219" lon="5.18104">
        <ele>224.1</ele>
        <time>2020-06-30T08:24:29Z</time>
      </trkpt>
      <trkpt lat="48.65219" lon="5.18102">
        <ele>224.3</ele>
        <time>2020-06-30T08:24:30Z</time>
      </trkpt>
      <trkpt lat="48.65219" lon="5.18099">
        <ele>224.5</ele>
        <time>2020-06-30T08:24:31Z</time>
      </trkpt>
      <trkpt lat="48.65219" lon="5.18095">
        <ele>224.8</ele>
        <time>2020-06-30T08:24:32Z</time>
      </trkpt>
      <trkpt lat="48.65219" lon="5.18094">
        <ele>224.9</ele>
        <time>2020-06-30T08:24:33Z</time>
      </trkpt>
      <trkpt lat="48.6522" lon="5.18091">
        <ele>225.2</ele>
        <time>2020-06-30T08:24:34Z</time>
      </trkpt>
      <trkpt lat="48.6522" lon="5.18089">
        <ele>225.4</ele>
        <time>2020-06-30T08:24:35Z</time>
      </trkpt>
      <trkpt lat="48.65219" lon="5.18086">
        <ele>225.6</ele>
        <time>2020-06-30T08:24:36Z</time>
      </trkpt>
      <trkpt lat="48.65219" lon="5.18084">
        <ele>225.8</ele>
        <time>2020-06-30T08:24:37Z</time>
      </trkpt>
      <trkpt lat="48.65219" lon="5.18082">
        <ele>226</ele>
        <time>2020-06-30T08:24:38Z</time>
      </trkpt>
      <trkpt lat="48.65218" lon="5.18079">
        <ele>226.2</ele>
        <time>2020-06-30T08:24:39Z</time>
      </trkpt>
      <trkpt lat="48.65217" lon="5.18075">
        <ele>226.7</ele>
        <time>2020-06-30T08:24:40Z</time>
      </trkpt>
      <trkpt lat="48.65217" lon="5.18073">
        <ele>226.8</ele>
        <time>2020-06-30T08:24:41Z</time>
      </trkpt>
      <trkpt lat="48.65217" lon="5.18071">
        <ele>227</ele>
        <time>2020-06-30T08:24:42Z</time>
      </trkpt>
      <trkpt lat="48.65217" lon="5.18069">
        <ele>227.2</ele>
        <time>2020-06-30T08:24:43Z</time>
      </trkpt>
      <trkpt lat="48.65217" lon="5.18064">
        <ele>227.7</ele>
        <time>2020-06-30T08:24:44Z</time>
      </trkpt>
      <trkpt lat="48.65216" lon="5.18062">
        <ele>227.9</ele>
        <time>2020-06-30T08:24:45Z</time>
      </trkpt>
      <trkpt lat="48.65216" lon="5.18057">
        <ele>228.3</ele>
        <time>2020-06-30T08:24:46Z</time>
      </trkpt>
      <trkpt lat="48.65216" lon="5.18055">
        <ele>228.4</ele>
        <time>2020-06-30T08:24:47Z</time>
      </trkpt>
      <trkpt lat="48.65216" lon="5.1805">
        <ele>228.9</ele>
        <time>2020-06-30T08:24:48Z</time>
      </trkpt>
      <trkpt lat="48.65215" lon="5.18048">
        <ele>229.1</ele>
        <time>2020-06-30T08:24:49Z</time>
      </trkpt>
      <trkpt lat="48.65213" lon="5.18045">
        <ele>229.5</ele>
        <time>2020-06-30T08:24:50Z</time>
      </trkpt>
      <trkpt lat="48.65212" lon="5.18044">
        <ele>229.6</ele>
        <time>2020-06-30T08:24:51Z</time>
      </trkpt>
      <trkpt lat="48.6521" lon="5.18041">
        <ele>230.1</ele>
        <time>2020-06-30T08:24:52Z</time>
      </trkpt>
      <trkpt lat="48.6521" lon="5.1804">
        <ele>230.2</ele>
        <time>2020-06-30T08:24:53Z</time>
      </trkpt>
      <trkpt lat="48.65208" lon="5.18037">
        <ele>230.6</ele>
        <time>2020-06-30T08:24:54Z</time>
      </trkpt>
      <trkpt lat="48.65207" lon="5.18036">
        <ele>230.7</ele>
        <time>2020-06-30T08:24:55Z</time>
      </trkpt>
      <trkpt lat="48.65206" lon="5.18032">
        <ele>231.1</ele>
        <time>2020-06-30T08:24:56Z</time>
      </trkpt>
      <trkpt lat="48.65205" lon="5.1803">
        <ele>231.3</ele>
        <time>2020-06-30T08:24:57Z</time>
      </trkpt>
      <trkpt lat="48.65205" lon="5.18028">
        <ele>231.5</ele>
        <time>2020-06-30T08:24:58Z</time>
      </trkpt>
      <trkpt lat="48.65204" lon="5.18026">
        <ele>231.7</ele>
        <time>2020-06-30T08:24:59Z</time>
      </trkpt>
      <trkpt lat="48.65204" lon="5.18024">
        <ele>231.9</ele>
        <time>2020-06-30T08:25:00Z</time>
      </trkpt>
      <trkpt lat="48.65203" lon="5.18022">
        <ele>232</ele>
        <time>2020-06-30T08:25:01Z</time>
      </trkpt>
      <trkpt lat="48.65203" lon="5.18021">
        <ele>232.2</ele>
        <time>2020-06-30T08:25:02Z</time>
      </trkpt>
      <trkpt lat="48.65202" lon="5.18019">
        <ele>232.4</ele>
        <time>2020-06-30T08:25:03Z</time>
      </trkpt>
      <trkpt lat="48.65201" lon="5.18015">
        <ele>232.8</ele>
        <time>2020-06-30T08:25:04Z</time>
      </trkpt>
      <trkpt lat="48.652" lon="5.18014">
        <ele>232.9</ele>
        <time>2020-06-30T08:25:05Z</time>
      </trkpt>
      <trkpt lat="48.65199" lon="5.18009">
        <ele>233.4</ele>
        <time>2020-06-30T08:25:06Z</time>
      </trkpt>
      <trkpt lat="48.65199" lon="5.18008">
        <ele>233.5</ele>
        <time>2020-06-30T08:25:07Z</time>
      </trkpt>
      <trkpt lat="48.65197" lon="5.18004">
        <ele>233.9</ele>
        <time>2020-06-30T08:25:08Z</time>
      </trkpt>
      <trkpt lat="48.65197" lon="5.18003">
        <ele>234</ele>
        <time>2020-06-30T08:25:09Z</time>
      </trkpt>
      <trkpt lat="48.65196" lon="5.17999">
        <ele>234.4</ele>
        <time>2020-06-30T08:25:10Z</time>
      </trkpt>
      <trkpt lat="48.65195" lon="5.17998">
        <ele>234.5</ele>
        <time>2020-06-30T08:25:11Z</time>
      </trkpt>
      <trkpt lat="48.65194" lon="5.17994">
        <ele>234.9</ele>
        <time>2020-06-30T08:25:12Z</time>
      </trkpt>
      <trkpt lat="48.65193" lon="5.17993">
        <ele>235</ele>
        <time>2020-06-30T08:25:13Z</time>
      </trkpt>
      <trkpt lat="48.65192" lon="5.17991">
        <ele>235.2</ele>
        <time>2020-06-30T08:25:14Z</time>
      </trkpt>
      <trkpt lat="48.65192" lon="5.17988">
        <ele>235.4</ele>
        <time>2020-06-30T08:25:15Z</time>
      </trkpt>
      <trkpt lat="48.65191" lon="5.17984">
        <ele>235.8</ele>
        <time>2020-06-30T08:25:16Z</time>
      </trkpt>
      <trkpt lat="48.6519" lon="5.17983">
        <ele>235.9</ele>
        <time>2020-06-30T08:25:17Z</time>
      </trkpt>
      <trkpt lat="48.65189" lon="5.17978">
        <ele>236.3</ele>
        <time>2020-06-30T08:25:18Z</time>
      </trkpt>
      <trkpt lat="48.65188" lon="5.17977">
        <ele>236.4</ele>
        <time>2020-06-30T08:25:19Z</time>
      </trkpt>
      <trkpt lat="48.65187" lon="5.17972">
        <ele>236.7</ele>
        <time>2020-06-30T08:25:20Z</time>
      </trkpt>
      <trkpt lat="48.65185" lon="5.17967">
        <ele>237</ele>
        <time>2020-06-30T08:25:21Z</time>
      </trkpt>
      <trkpt lat="48.65185" lon="5.17966">
        <ele>237.1</ele>
        <time>2020-06-30T08:25:22Z</time>
      </trkpt>
      <trkpt lat="48.65183" lon="5.17962">
        <ele>237.4</ele>
        <time>2020-06-30T08:25:23Z</time>
      </trkpt>
      <trkpt lat="48.65183" lon="5.1796">
        <ele>237.4</ele>
        <time>2020-06-30T08:25:24Z</time>
      </trkpt>
      <trkpt lat="48.65182" lon="5.17957">
        <ele>237.6</ele>
        <time>2020-06-30T08:25:25Z</time>
      </trkpt>
      <trkpt lat="48.65181" lon="5.17955">
        <ele>237.7</ele>
        <time>2020-06-30T08:25:26Z</time>
      </trkpt>
      <trkpt lat="48.6518" lon="5.17951">
        <ele>237.9</ele>
        <time>2020-06-30T08:25:27Z</time>
      </trkpt>
      <trkpt lat="48.6518" lon="5.1795">
        <ele>238</ele>
        <time>2020-06-30T08:25:28Z</time>
      </trkpt>
      <trkpt lat="48.65179" lon="5.17946">
        <ele>238.2</ele>
        <time>2020-06-30T08:25:29Z</time>
      </trkpt>
      <trkpt lat="48.65178" lon="5.17944">
        <ele>238.2</ele>
        <time>2020-06-30T08:25:30Z</time>
      </trkpt>
      <trkpt lat="48.65177" lon="5.1794">
        <ele>238.4</ele>
        <time>2020-06-30T08:25:31Z</time>
      </trkpt>
      <trkpt lat="48.65177" lon="5.17939">
        <ele>238.5</ele>
        <time>2020-06-30T08:25:32Z</time>
      </trkpt>
      <trkpt lat="48.65175" lon="5.17935">
        <ele>238.6</ele>
        <time>2020-06-30T08:25:33Z</time>
      </trkpt>
      <trkpt lat="48.65175" lon="5.17934">
        <ele>238.7</ele>
        <time>2020-06-30T08:25:34Z</time>
      </trkpt>
      <trkpt lat="48.65174" lon="5.17929">
        <ele>238.8</ele>
        <time>2020-06-30T08:25:35Z</time>
      </trkpt>
      <trkpt lat="48.65173" lon="5.17927">
        <ele>238.9</ele>
        <time>2020-06-30T08:25:36Z</time>
      </trkpt>
      <trkpt lat="48.65172" lon="5.17922">
        <ele>239</ele>
        <time>2020-06-30T08:25:37Z</time>
      </trkpt>
      <trkpt lat="48.65172" lon="5.1792">
        <ele>239</ele>
        <time>2020-06-30T08:25:38Z</time>
      </trkpt>
      <trkpt lat="48.6517" lon="5.17915">
        <ele>239.1</ele>
        <time>2020-06-30T08:25:39Z</time>
      </trkpt>
      <trkpt lat="48.65169" lon="5.17914">
        <ele>239.1</ele>
        <time>2020-06-30T08:25:40Z</time>
      </trkpt>
      <trkpt lat="48.65168" lon="5.17912">
        <ele>239.1</ele>
        <time>2020-06-30T08:25:41Z</time>
      </trkpt>
      <trkpt lat="48.65167" lon="5.1791">
        <ele>239.1</ele>
        <time>2020-06-30T08:25:42Z</time>
      </trkpt>
      <trkpt lat="48.65166" lon="5.17908">
        <ele>239.2</ele>
        <time>2020-06-30T08:25:43Z</time>
      </trkpt>
      <trkpt lat="48.65165" lon="5.17906">
        <ele>239.2</ele>
        <time>2020-06-30T08:25:44Z</time>
      </trkpt>
      <trkpt lat="48.65162" lon="5.17902">
        <ele>239.2</ele>
        <time>2020-06-30T08:25:45Z</time>
      </trkpt>
      <trkpt lat="48.65161" lon="5.179">
        <ele>238.9</ele>
        <time>2020-06-30T08:25:46Z</time>
      </trkpt>
      <trkpt lat="48.65158" lon="5.17897">
        <ele>238.2</ele>
        <time>2020-06-30T08:25:47Z</time>
      </trkpt>
      <trkpt lat="48.65157" lon="5.17896">
        <ele>238</ele>
        <time>2020-06-30T08:25:48Z</time>
      </trkpt>
      <trkpt lat="48.65155" lon="5.17893">
        <ele>237.4</ele>
        <time>2020-06-30T08:25:49Z</time>
      </trkpt>
      <trkpt lat="48.65152" lon="5.17891">
        <ele>236.9</ele>
        <time>2020-06-30T08:25:50Z</time>
      </trkpt>
      <trkpt lat="48.6515" lon="5.17886">
        <ele>236.2</ele>
        <time>2020-06-30T08:25:51Z</time>
      </trkpt>
      <trkpt lat="48.65149" lon="5.17885">
        <ele>236</ele>
        <time>2020-06-30T08:25:52Z</time>
      </trkpt>
      <trkpt lat="48.65147" lon="5.17881">
        <ele>235.5</ele>
        <time>2020-06-30T08:25:53Z</time>
      </trkpt>
      <trkpt lat="48.65145" lon="5.17876">
        <ele>235</ele>
        <time>2020-06-30T08:25:54Z</time>
      </trkpt>
      <trkpt lat="48.65144" lon="5.17875">
        <ele>235.1</ele>
        <time>2020-06-30T08:25:55Z</time>
      </trkpt>
      <trkpt lat="48.65143" lon="5.17872">
        <ele>235.2</ele>
        <time>2020-06-30T08:25:56Z</time>
      </trkpt>
      <trkpt lat="48.65141" lon="5.17868">
        <ele>235.3</ele>
        <time>2020-06-30T08:25:57Z</time>
      </trkpt>
      <trkpt lat="48.65139" lon="5.17863">
        <ele>235.5</ele>
        <time>2020-06-30T08:25:58Z</time>
      </trkpt>
      <trkpt lat="48.65139" lon="5.17861">
        <ele>235.6</ele>
        <time>2020-06-30T08:25:59Z</time>
      </trkpt>
      <trkpt lat="48.65139" lon="5.17857">
        <ele>235.7</ele>
        <time>2020-06-30T08:26:00Z</time>
      </trkpt>
      <trkpt lat="48.65138" lon="5.17852">
        <ele>235.8</ele>
        <time>2020-06-30T08:26:01Z</time>
      </trkpt>
      <trkpt lat="48.65137" lon="5.1785">
        <ele>235.9</ele>
        <time>2020-06-30T08:26:02Z</time>
      </trkpt>
      <trkpt lat="48.65136" lon="5.17846">
        <ele>236</ele>
        <time>2020-06-30T08:26:03Z</time>
      </trkpt>
      <trkpt lat="48.65135" lon="5.17842">
        <ele>236.1</ele>
        <time>2020-06-30T08:26:04Z</time>
      </trkpt>
      <trkpt lat="48.65134" lon="5.17838">
        <ele>236.3</ele>
        <time>2020-06-30T08:26:05Z</time>
      </trkpt>
      <trkpt lat="48.65132" lon="5.17832">
        <ele>236.5</ele>
        <time>2020-06-30T08:26:06Z</time>
      </trkpt>
      <trkpt lat="48.65132" lon="5.1783">
        <ele>236.6</ele>
        <time>2020-06-30T08:26:07Z</time>
      </trkpt>
      <trkpt lat="48.65131" lon="5.17828">
        <ele>236.6</ele>
        <time>2020-06-30T08:26:08Z</time>
      </trkpt>
      <trkpt lat="48.6513" lon="5.17826">
        <ele>236.7</ele>
        <time>2020-06-30T08:26:09Z</time>
      </trkpt>
      <trkpt lat="48.65129" lon="5.17823">
        <ele>236.9</ele>
        <time>2020-06-30T08:26:10Z</time>
      </trkpt>
      <trkpt lat="48.65127" lon="5.17817">
        <ele>237.1</ele>
        <time>2020-06-30T08:26:11Z</time>
      </trkpt>
      <trkpt lat="48.65126" lon="5.17815">
        <ele>237.2</ele>
        <time>2020-06-30T08:26:12Z</time>
      </trkpt>
      <trkpt lat="48.65124" lon="5.17811">
        <ele>237.4</ele>
        <time>2020-06-30T08:26:13Z</time>
      </trkpt>
      <trkpt lat="48.65123" lon="5.17807">
        <ele>237.6</ele>
        <time>2020-06-30T08:26:14Z</time>
      </trkpt>
      <trkpt lat="48.65123" lon="5.17805">
        <ele>237.6</ele>
        <time>2020-06-30T08:26:15Z</time>
      </trkpt>
      <trkpt lat="48.65121" lon="5.17801">
        <ele>237.8</ele>
        <time>2020-06-30T08:26:16Z</time>
      </trkpt>
      <trkpt lat="48.6512" lon="5.17797">
        <ele>237.9</ele>
        <time>2020-06-30T08:26:17Z</time>
      </trkpt>
      <trkpt lat="48.65119" lon="5.17792">
        <ele>238.1</ele>
        <time>2020-06-30T08:26:18Z</time>
      </trkpt>
      <trkpt lat="48.65119" lon="5.1779">
        <ele>238.1</ele>
        <time>2020-06-30T08:26:19Z</time>
      </trkpt>
      <trkpt lat="48.65118" lon="5.17785">
        <ele>238.3</ele>
        <time>2020-06-30T08:26:20Z</time>
      </trkpt>
      <trkpt lat="48.65117" lon="5.17783">
        <ele>238.4</ele>
        <time>2020-06-30T08:26:21Z</time>
      </trkpt>
      <trkpt lat="48.65116" lon="5.17779">
        <ele>238.5</ele>
        <time>2020-06-30T08:26:22Z</time>
      </trkpt>
      <trkpt lat="48.65116" lon="5.17778">
        <ele>238.6</ele>
        <time>2020-06-30T08:26:23Z</time>
      </trkpt>
      <trkpt lat="48.65114" lon="5.17773">
        <ele>238.7</ele>
        <time>2020-06-30T08:26:24Z</time>
      </trkpt>
      <trkpt lat="48.65114" lon="5.17771">
        <ele>238.8</ele>
        <time>2020-06-30T08:26:25Z</time>
      </trkpt>
      <trkpt lat="48.65112" lon="5.17766">
        <ele>238.9</ele>
        <time>2020-06-30T08:26:26Z</time>
      </trkpt>
      <trkpt lat="48.65112" lon="5.17764">
        <ele>239.2</ele>
        <time>2020-06-30T08:26:27Z</time>
      </trkpt>
      <trkpt lat="48.6511" lon="5.1776">
        <ele>239.5</ele>
        <time>2020-06-30T08:26:28Z</time>
      </trkpt>
      <trkpt lat="48.65109" lon="5.17759">
        <ele>239.6</ele>
        <time>2020-06-30T08:26:29Z</time>
      </trkpt>
      <trkpt lat="48.65108" lon="5.17754">
        <ele>239.8</ele>
        <time>2020-06-30T08:26:30Z</time>
      </trkpt>
      <trkpt lat="48.65107" lon="5.17753">
        <ele>239.8</ele>
        <time>2020-06-30T08:26:31Z</time>
      </trkpt>
      <trkpt lat="48.65105" lon="5.17748">
        <ele>240.1</ele>
        <time>2020-06-30T08:26:32Z</time>
      </trkpt>
      <trkpt lat="48.65105" lon="5.17746">
        <ele>240.1</ele>
        <time>2020-06-30T08:26:33Z</time>
      </trkpt>
      <trkpt lat="48.65104" lon="5.17742">
        <ele>240.3</ele>
        <time>2020-06-30T08:26:34Z</time>
      </trkpt>
      <trkpt lat="48.65102" lon="5.17738">
        <ele>240.5</ele>
        <time>2020-06-30T08:26:35Z</time>
      </trkpt>
      <trkpt lat="48.65101" lon="5.17733">
        <ele>240.7</ele>
        <time>2020-06-30T08:26:36Z</time>
      </trkpt>
      <trkpt lat="48.651" lon="5.17731">
        <ele>240.8</ele>
        <time>2020-06-30T08:26:37Z</time>
      </trkpt>
      <trkpt lat="48.65099" lon="5.17727">
        <ele>241</ele>
        <time>2020-06-30T08:26:38Z</time>
      </trkpt>
      <trkpt lat="48.65098" lon="5.17723">
        <ele>241.2</ele>
        <time>2020-06-30T08:26:39Z</time>
      </trkpt>
      <trkpt lat="48.65097" lon="5.17718">
        <ele>241.4</ele>
        <time>2020-06-30T08:26:40Z</time>
      </trkpt>
      <trkpt lat="48.65096" lon="5.17713">
        <ele>241.6</ele>
        <time>2020-06-30T08:26:41Z</time>
      </trkpt>
      <trkpt lat="48.65095" lon="5.17711">
        <ele>241.7</ele>
        <time>2020-06-30T08:26:42Z</time>
      </trkpt>
      <trkpt lat="48.65093" lon="5.17706">
        <ele>241.9</ele>
        <time>2020-06-30T08:26:43Z</time>
      </trkpt>
      <trkpt lat="48.65092" lon="5.17704">
        <ele>242</ele>
        <time>2020-06-30T08:26:44Z</time>
      </trkpt>
      <trkpt lat="48.65091" lon="5.17699">
        <ele>242.2</ele>
        <time>2020-06-30T08:26:45Z</time>
      </trkpt>
      <trkpt lat="48.65091" lon="5.17693">
        <ele>242.4</ele>
        <time>2020-06-30T08:26:46Z</time>
      </trkpt>
      <trkpt lat="48.6509" lon="5.17689">
        <ele>242.5</ele>
        <time>2020-06-30T08:26:47Z</time>
      </trkpt>
      <trkpt lat="48.65088" lon="5.17685">
        <ele>242.7</ele>
        <time>2020-06-30T08:26:48Z</time>
      </trkpt>
      <trkpt lat="48.65087" lon="5.17681">
        <ele>242.9</ele>
        <time>2020-06-30T08:26:49Z</time>
      </trkpt>
      <trkpt lat="48.65086" lon="5.17677">
        <ele>243</ele>
        <time>2020-06-30T08:26:50Z</time>
      </trkpt>
      <trkpt lat="48.65085" lon="5.17676">
        <ele>243.1</ele>
        <time>2020-06-30T08:26:51Z</time>
      </trkpt>
      <trkpt lat="48.65083" lon="5.1767">
        <ele>243.3</ele>
        <time>2020-06-30T08:26:52Z</time>
      </trkpt>
      <trkpt lat="48.65083" lon="5.17668">
        <ele>243.4</ele>
        <time>2020-06-30T08:26:53Z</time>
      </trkpt>
      <trkpt lat="48.65082" lon="5.17664">
        <ele>243.5</ele>
        <time>2020-06-30T08:26:54Z</time>
      </trkpt>
      <trkpt lat="48.6508" lon="5.1766">
        <ele>243.7</ele>
        <time>2020-06-30T08:26:55Z</time>
      </trkpt>
      <trkpt lat="48.65079" lon="5.17655">
        <ele>243.9</ele>
        <time>2020-06-30T08:26:56Z</time>
      </trkpt>
      <trkpt lat="48.65078" lon="5.17654">
        <ele>243.9</ele>
        <time>2020-06-30T08:26:57Z</time>
      </trkpt>
      <trkpt lat="48.65077" lon="5.17649">
        <ele>244.1</ele>
        <time>2020-06-30T08:26:58Z</time>
      </trkpt>
      <trkpt lat="48.65077" lon="5.17644">
        <ele>244.3</ele>
        <time>2020-06-30T08:26:59Z</time>
      </trkpt>
      <trkpt lat="48.65076" lon="5.17642">
        <ele>244.3</ele>
        <time>2020-06-30T08:27:00Z</time>
      </trkpt>
      <trkpt lat="48.65076" lon="5.17637">
        <ele>244.5</ele>
        <time>2020-06-30T08:27:01Z</time>
      </trkpt>
      <trkpt lat="48.65075" lon="5.17633">
        <ele>244.7</ele>
        <time>2020-06-30T08:27:02Z</time>
      </trkpt>
      <trkpt lat="48.65075" lon="5.17632">
        <ele>244.7</ele>
        <time>2020-06-30T08:27:03Z</time>
      </trkpt>
      <trkpt lat="48.65073" lon="5.17628">
        <ele>244.9</ele>
        <time>2020-06-30T08:27:04Z</time>
      </trkpt>
      <trkpt lat="48.65071" lon="5.17625">
        <ele>245</ele>
        <time>2020-06-30T08:27:05Z</time>
      </trkpt>
      <trkpt lat="48.6507" lon="5.17621">
        <ele>245.2</ele>
        <time>2020-06-30T08:27:06Z</time>
      </trkpt>
      <trkpt lat="48.6507" lon="5.17617">
        <ele>245.4</ele>
        <time>2020-06-30T08:27:07Z</time>
      </trkpt>
      <trkpt lat="48.65069" lon="5.17613">
        <ele>245.5</ele>
        <time>2020-06-30T08:27:08Z</time>
      </trkpt>
      <trkpt lat="48.65068" lon="5.17608">
        <ele>245.7</ele>
        <time>2020-06-30T08:27:09Z</time>
      </trkpt>
      <trkpt lat="48.65066" lon="5.17604">
        <ele>245.9</ele>
        <time>2020-06-30T08:27:10Z</time>
      </trkpt>
      <trkpt lat="48.65065" lon="5.17599">
        <ele>246.1</ele>
        <time>2020-06-30T08:27:11Z</time>
      </trkpt>
      <trkpt lat="48.65064" lon="5.17595">
        <ele>246.2</ele>
        <time>2020-06-30T08:27:12Z</time>
      </trkpt>
      <trkpt lat="48.65063" lon="5.17591">
        <ele>246.4</ele>
        <time>2020-06-30T08:27:13Z</time>
      </trkpt>
      <trkpt lat="48.65062" lon="5.17587">
        <ele>246.6</ele>
        <time>2020-06-30T08:27:14Z</time>
      </trkpt>
      <trkpt lat="48.65061" lon="5.17583">
        <ele>246.7</ele>
        <time>2020-06-30T08:27:15Z</time>
      </trkpt>
      <trkpt lat="48.65059" lon="5.17578">
        <ele>246.9</ele>
        <time>2020-06-30T08:27:16Z</time>
      </trkpt>
      <trkpt lat="48.65059" lon="5.17577">
        <ele>247</ele>
        <time>2020-06-30T08:27:17Z</time>
      </trkpt>
      <trkpt lat="48.65057" lon="5.17571">
        <ele>247.2</ele>
        <time>2020-06-30T08:27:18Z</time>
      </trkpt>
      <trkpt lat="48.65056" lon="5.17569">
        <ele>247.3</ele>
        <time>2020-06-30T08:27:19Z</time>
      </trkpt>
      <trkpt lat="48.65055" lon="5.17565">
        <ele>247.4</ele>
        <time>2020-06-30T08:27:20Z</time>
      </trkpt>
      <trkpt lat="48.65053" lon="5.17561">
        <ele>247.6</ele>
        <time>2020-06-30T08:27:21Z</time>
      </trkpt>
      <trkpt lat="48.65052" lon="5.17556">
        <ele>247.7</ele>
        <time>2020-06-30T08:27:22Z</time>
      </trkpt>
      <trkpt lat="48.65051" lon="5.17551">
        <ele>247.9</ele>
        <time>2020-06-30T08:27:23Z</time>
      </trkpt>
      <trkpt lat="48.65049" lon="5.17547">
        <ele>248</ele>
        <time>2020-06-30T08:27:24Z</time>
      </trkpt>
      <trkpt lat="48.65048" lon="5.17543">
        <ele>248.2</ele>
        <time>2020-06-30T08:27:25Z</time>
      </trkpt>
      <trkpt lat="48.65046" lon="5.17538">
        <ele>248.4</ele>
        <time>2020-06-30T08:27:26Z</time>
      </trkpt>
      <trkpt lat="48.65045" lon="5.17536">
        <ele>248.4</ele>
        <time>2020-06-30T08:27:27Z</time>
      </trkpt>
      <trkpt lat="48.65044" lon="5.17532">
        <ele>248.6</ele>
        <time>2020-06-30T08:27:28Z</time>
      </trkpt>
      <trkpt lat="48.65043" lon="5.17528">
        <ele>248.7</ele>
        <time>2020-06-30T08:27:29Z</time>
      </trkpt>
      <trkpt lat="48.65042" lon="5.17524">
        <ele>248.9</ele>
        <time>2020-06-30T08:27:30Z</time>
      </trkpt>
      <trkpt lat="48.6504" lon="5.1752">
        <ele>249</ele>
        <time>2020-06-30T08:27:31Z</time>
      </trkpt>
      <trkpt lat="48.6504" lon="5.17518">
        <ele>249.1</ele>
        <time>2020-06-30T08:27:32Z</time>
      </trkpt>
      <trkpt lat="48.65037" lon="5.17514">
        <ele>249.3</ele>
        <time>2020-06-30T08:27:33Z</time>
      </trkpt>
      <trkpt lat="48.65036" lon="5.17508">
        <ele>249.5</ele>
        <time>2020-06-30T08:27:34Z</time>
      </trkpt>
      <trkpt lat="48.65034" lon="5.17504">
        <ele>249.6</ele>
        <time>2020-06-30T08:27:35Z</time>
      </trkpt>
      <trkpt lat="48.65031" lon="5.17499">
        <ele>249.8</ele>
        <time>2020-06-30T08:27:36Z</time>
      </trkpt>
      <trkpt lat="48.6503" lon="5.17497">
        <ele>249.9</ele>
        <time>2020-06-30T08:27:37Z</time>
      </trkpt>
      <trkpt lat="48.65029" lon="5.17492">
        <ele>250.1</ele>
        <time>2020-06-30T08:27:38Z</time>
      </trkpt>
      <trkpt lat="48.65028" lon="5.1749">
        <ele>250.2</ele>
        <time>2020-06-30T08:27:39Z</time>
      </trkpt>
      <trkpt lat="48.65027" lon="5.17487">
        <ele>250.3</ele>
        <time>2020-06-30T08:27:40Z</time>
      </trkpt>
      <trkpt lat="48.65025" lon="5.17482">
        <ele>250.5</ele>
        <time>2020-06-30T08:27:41Z</time>
      </trkpt>
      <trkpt lat="48.65025" lon="5.1748">
        <ele>250.5</ele>
        <time>2020-06-30T08:27:42Z</time>
      </trkpt>
      <trkpt lat="48.65023" lon="5.17476">
        <ele>250.7</ele>
        <time>2020-06-30T08:27:43Z</time>
      </trkpt>
      <trkpt lat="48.65022" lon="5.17471">
        <ele>250.9</ele>
        <time>2020-06-30T08:27:44Z</time>
      </trkpt>
      <trkpt lat="48.65021" lon="5.17467">
        <ele>251</ele>
        <time>2020-06-30T08:27:45Z</time>
      </trkpt>
      <trkpt lat="48.6502" lon="5.17463">
        <ele>251.2</ele>
        <time>2020-06-30T08:27:46Z</time>
      </trkpt>
      <trkpt lat="48.65019" lon="5.17459">
        <ele>251.3</ele>
        <time>2020-06-30T08:27:47Z</time>
      </trkpt>
      <trkpt lat="48.65018" lon="5.17455">
        <ele>251.4</ele>
        <time>2020-06-30T08:27:48Z</time>
      </trkpt>
      <trkpt lat="48.65017" lon="5.17454">
        <ele>251.5</ele>
        <time>2020-06-30T08:27:49Z</time>
      </trkpt>
      <trkpt lat="48.65016" lon="5.1745">
        <ele>251.7</ele>
        <time>2020-06-30T08:27:50Z</time>
      </trkpt>
      <trkpt lat="48.65015" lon="5.17446">
        <ele>251.8</ele>
        <time>2020-06-30T08:27:51Z</time>
      </trkpt>
      <trkpt lat="48.65014" lon="5.17442">
        <ele>252</ele>
        <time>2020-06-30T08:27:52Z</time>
      </trkpt>
      <trkpt lat="48.65014" lon="5.17437">
        <ele>252.1</ele>
        <time>2020-06-30T08:27:53Z</time>
      </trkpt>
      <trkpt lat="48.65013" lon="5.17432">
        <ele>252.3</ele>
        <time>2020-06-30T08:27:54Z</time>
      </trkpt>
      <trkpt lat="48.65012" lon="5.17426">
        <ele>252.6</ele>
        <time>2020-06-30T08:27:55Z</time>
      </trkpt>
      <trkpt lat="48.65011" lon="5.17424">
        <ele>252.6</ele>
        <time>2020-06-30T08:27:56Z</time>
      </trkpt>
      <trkpt lat="48.65009" lon="5.1742">
        <ele>252.8</ele>
        <time>2020-06-30T08:27:57Z</time>
      </trkpt>
      <trkpt lat="48.65008" lon="5.17416">
        <ele>253</ele>
        <time>2020-06-30T08:27:58Z</time>
      </trkpt>
      <trkpt lat="48.65006" lon="5.17413">
        <ele>253.2</ele>
        <time>2020-06-30T08:27:59Z</time>
      </trkpt>
      <trkpt lat="48.65005" lon="5.17408">
        <ele>253.4</ele>
        <time>2020-06-30T08:28:00Z</time>
      </trkpt>
      <trkpt lat="48.65004" lon="5.17404">
        <ele>253.6</ele>
        <time>2020-06-30T08:28:01Z</time>
      </trkpt>
      <trkpt lat="48.65002" lon="5.17399">
        <ele>253.8</ele>
        <time>2020-06-30T08:28:02Z</time>
      </trkpt>
      <trkpt lat="48.65002" lon="5.17397">
        <ele>253.9</ele>
        <time>2020-06-30T08:28:03Z</time>
      </trkpt>
      <trkpt lat="48.65" lon="5.17393">
        <ele>254</ele>
        <time>2020-06-30T08:28:04Z</time>
      </trkpt>
      <trkpt lat="48.65" lon="5.17388">
        <ele>254.2</ele>
        <time>2020-06-30T08:28:05Z</time>
      </trkpt>
      <trkpt lat="48.64999" lon="5.17383">
        <ele>254.4</ele>
        <time>2020-06-30T08:28:06Z</time>
      </trkpt>
      <trkpt lat="48.64998" lon="5.17378">
        <ele>254.6</ele>
        <time>2020-06-30T08:28:07Z</time>
      </trkpt>
      <trkpt lat="48.64997" lon="5.17377">
        <ele>254.7</ele>
        <time>2020-06-30T08:28:08Z</time>
      </trkpt>
      <trkpt lat="48.64996" lon="5.17373">
        <ele>254.8</ele>
        <time>2020-06-30T08:28:09Z</time>
      </trkpt>
      <trkpt lat="48.64994" lon="5.1737">
        <ele>255</ele>
        <time>2020-06-30T08:28:10Z</time>
      </trkpt>
      <trkpt lat="48.64993" lon="5.17364">
        <ele>255.2</ele>
        <time>2020-06-30T08:28:11Z</time>
      </trkpt>
      <trkpt lat="48.64992" lon="5.17362">
        <ele>255.3</ele>
        <time>2020-06-30T08:28:12Z</time>
      </trkpt>
      <trkpt lat="48.6499" lon="5.17357">
        <ele>255.5</ele>
        <time>2020-06-30T08:28:13Z</time>
      </trkpt>
      <trkpt lat="48.64989" lon="5.17353">
        <ele>255.6</ele>
        <time>2020-06-30T08:28:14Z</time>
      </trkpt>
      <trkpt lat="48.64988" lon="5.17349">
        <ele>255.8</ele>
        <time>2020-06-30T08:28:15Z</time>
      </trkpt>
      <trkpt lat="48.64987" lon="5.17346">
        <ele>256</ele>
        <time>2020-06-30T08:28:16Z</time>
      </trkpt>
      <trkpt lat="48.64985" lon="5.17342">
        <ele>256.1</ele>
        <time>2020-06-30T08:28:17Z</time>
      </trkpt>
      <trkpt lat="48.64984" lon="5.17338">
        <ele>256.3</ele>
        <time>2020-06-30T08:28:18Z</time>
      </trkpt>
      <trkpt lat="48.64983" lon="5.17334">
        <ele>256.4</ele>
        <time>2020-06-30T08:28:19Z</time>
      </trkpt>
      <trkpt lat="48.64982" lon="5.1733">
        <ele>256.6</ele>
        <time>2020-06-30T08:28:20Z</time>
      </trkpt>
      <trkpt lat="48.6498" lon="5.17326">
        <ele>256.7</ele>
        <time>2020-06-30T08:28:21Z</time>
      </trkpt>
      <trkpt lat="48.64979" lon="5.17321">
        <ele>256.9</ele>
        <time>2020-06-30T08:28:22Z</time>
      </trkpt>
      <trkpt lat="48.64978" lon="5.1732">
        <ele>257</ele>
        <time>2020-06-30T08:28:23Z</time>
      </trkpt>
      <trkpt lat="48.64977" lon="5.17315">
        <ele>257.2</ele>
        <time>2020-06-30T08:28:24Z</time>
      </trkpt>
      <trkpt lat="48.64976" lon="5.1731">
        <ele>257.3</ele>
        <time>2020-06-30T08:28:25Z</time>
      </trkpt>
      <trkpt lat="48.64976" lon="5.17309">
        <ele>257.4</ele>
        <time>2020-06-30T08:28:26Z</time>
      </trkpt>
      <trkpt lat="48.64975" lon="5.17304">
        <ele>257.6</ele>
        <time>2020-06-30T08:28:27Z</time>
      </trkpt>
      <trkpt lat="48.64974" lon="5.17302">
        <ele>257.6</ele>
        <time>2020-06-30T08:28:28Z</time>
      </trkpt>
      <trkpt lat="48.64973" lon="5.17298">
        <ele>257.8</ele>
        <time>2020-06-30T08:28:29Z</time>
      </trkpt>
      <trkpt lat="48.64972" lon="5.17293">
        <ele>257.9</ele>
        <time>2020-06-30T08:28:30Z</time>
      </trkpt>
      <trkpt lat="48.64971" lon="5.17288">
        <ele>258.1</ele>
        <time>2020-06-30T08:28:31Z</time>
      </trkpt>
      <trkpt lat="48.64969" lon="5.17285">
        <ele>258.2</ele>
        <time>2020-06-30T08:28:32Z</time>
      </trkpt>
      <trkpt lat="48.64968" lon="5.17281">
        <ele>258.4</ele>
        <time>2020-06-30T08:28:33Z</time>
      </trkpt>
      <trkpt lat="48.64967" lon="5.17277">
        <ele>258.5</ele>
        <time>2020-06-30T08:28:34Z</time>
      </trkpt>
      <trkpt lat="48.64965" lon="5.17273">
        <ele>258.7</ele>
        <time>2020-06-30T08:28:35Z</time>
      </trkpt>
      <trkpt lat="48.64963" lon="5.17269">
        <ele>258.8</ele>
        <time>2020-06-30T08:28:36Z</time>
      </trkpt>
      <trkpt lat="48.64962" lon="5.17265">
        <ele>259</ele>
        <time>2020-06-30T08:28:37Z</time>
      </trkpt>
      <trkpt lat="48.64962" lon="5.1726">
        <ele>259.1</ele>
        <time>2020-06-30T08:28:38Z</time>
      </trkpt>
      <trkpt lat="48.64961" lon="5.17258">
        <ele>259.2</ele>
        <time>2020-06-30T08:28:39Z</time>
      </trkpt>
      <trkpt lat="48.6496" lon="5.17254">
        <ele>259.3</ele>
        <time>2020-06-30T08:28:40Z</time>
      </trkpt>
      <trkpt lat="48.64959" lon="5.1725">
        <ele>259.4</ele>
        <time>2020-06-30T08:28:41Z</time>
      </trkpt>
      <trkpt lat="48.64959" lon="5.17245">
        <ele>259.5</ele>
        <time>2020-06-30T08:28:42Z</time>
      </trkpt>
      <trkpt lat="48.64958" lon="5.17241">
        <ele>259.6</ele>
        <time>2020-06-30T08:28:43Z</time>
      </trkpt>
      <trkpt lat="48.64956" lon="5.17237">
        <ele>259.8</ele>
        <time>2020-06-30T08:28:44Z</time>
      </trkpt>
      <trkpt lat="48.64955" lon="5.17231">
        <ele>259.9</ele>
        <time>2020-06-30T08:28:45Z</time>
      </trkpt>
      <trkpt lat="48.64954" lon="5.17227">
        <ele>259.9</ele>
        <time>2020-06-30T08:28:46Z</time>
      </trkpt>
      <trkpt lat="48.64953" lon="5.17223">
        <ele>260</ele>
        <time>2020-06-30T08:28:47Z</time>
      </trkpt>
      <trkpt lat="48.64952" lon="5.17219">
        <ele>260.1</ele>
        <time>2020-06-30T08:28:48Z</time>
      </trkpt>
      <trkpt lat="48.64951" lon="5.17215">
        <ele>260.2</ele>
        <time>2020-06-30T08:28:49Z</time>
      </trkpt>
      <trkpt lat="48.64949" lon="5.17212">
        <ele>260.3</ele>
        <time>2020-06-30T08:28:50Z</time>
      </trkpt>
      <trkpt lat="48.64947" lon="5.17208">
        <ele>260.4</ele>
        <time>2020-06-30T08:28:51Z</time>
      </trkpt>
      <trkpt lat="48.64947" lon="5.17203">
        <ele>260.5</ele>
        <time>2020-06-30T08:28:52Z</time>
      </trkpt>
      <trkpt lat="48.64946" lon="5.17198">
        <ele>260.7</ele>
        <time>2020-06-30T08:28:53Z</time>
      </trkpt>
      <trkpt lat="48.64944" lon="5.17193">
        <ele>260.8</ele>
        <time>2020-06-30T08:28:54Z</time>
      </trkpt>
      <trkpt lat="48.64944" lon="5.17188">
        <ele>260.9</ele>
        <time>2020-06-30T08:28:55Z</time>
      </trkpt>
      <trkpt lat="48.64942" lon="5.17183">
        <ele>261.1</ele>
        <time>2020-06-30T08:28:56Z</time>
      </trkpt>
      <trkpt lat="48.6494" lon="5.1718">
        <ele>261.2</ele>
        <time>2020-06-30T08:28:57Z</time>
      </trkpt>
      <trkpt lat="48.64939" lon="5.17176">
        <ele>261.3</ele>
        <time>2020-06-30T08:28:58Z</time>
      </trkpt>
      <trkpt lat="48.64937" lon="5.1717">
        <ele>261.5</ele>
        <time>2020-06-30T08:28:59Z</time>
      </trkpt>
      <trkpt lat="48.64936" lon="5.17166">
        <ele>261.6</ele>
        <time>2020-06-30T08:29:00Z</time>
      </trkpt>
      <trkpt lat="48.64935" lon="5.1716">
        <ele>261.7</ele>
        <time>2020-06-30T08:29:01Z</time>
      </trkpt>
      <trkpt lat="48.64933" lon="5.17156">
        <ele>261.8</ele>
        <time>2020-06-30T08:29:02Z</time>
      </trkpt>
      <trkpt lat="48.64933" lon="5.17152">
        <ele>261.9</ele>
        <time>2020-06-30T08:29:03Z</time>
      </trkpt>
      <trkpt lat="48.64931" lon="5.17148">
        <ele>262</ele>
        <time>2020-06-30T08:29:04Z</time>
      </trkpt>
      <trkpt lat="48.6493" lon="5.17143">
        <ele>262.1</ele>
        <time>2020-06-30T08:29:05Z</time>
      </trkpt>
      <trkpt lat="48.64928" lon="5.17138">
        <ele>262.3</ele>
        <time>2020-06-30T08:29:06Z</time>
      </trkpt>
      <trkpt lat="48.64926" lon="5.17132">
        <ele>262.4</ele>
        <time>2020-06-30T08:29:07Z</time>
      </trkpt>
      <trkpt lat="48.64924" lon="5.17128">
        <ele>262.5</ele>
        <time>2020-06-30T08:29:08Z</time>
      </trkpt>
      <trkpt lat="48.64922" lon="5.17123">
        <ele>262.7</ele>
        <time>2020-06-30T08:29:09Z</time>
      </trkpt>
      <trkpt lat="48.6492" lon="5.17118">
        <ele>262.8</ele>
        <time>2020-06-30T08:29:10Z</time>
      </trkpt>
      <trkpt lat="48.64918" lon="5.17114">
        <ele>262.9</ele>
        <time>2020-06-30T08:29:11Z</time>
      </trkpt>
      <trkpt lat="48.64916" lon="5.17109">
        <ele>263.1</ele>
        <time>2020-06-30T08:29:12Z</time>
      </trkpt>
      <trkpt lat="48.64914" lon="5.17104">
        <ele>263.2</ele>
        <time>2020-06-30T08:29:13Z</time>
      </trkpt>
      <trkpt lat="48.64913" lon="5.171">
        <ele>263.3</ele>
        <time>2020-06-30T08:29:14Z</time>
      </trkpt>
      <trkpt lat="48.64912" lon="5.17095">
        <ele>263.4</ele>
        <time>2020-06-30T08:29:15Z</time>
      </trkpt>
      <trkpt lat="48.64911" lon="5.1709">
        <ele>263.5</ele>
        <time>2020-06-30T08:29:16Z</time>
      </trkpt>
      <trkpt lat="48.64909" lon="5.17085">
        <ele>263.6</ele>
        <time>2020-06-30T08:29:17Z</time>
      </trkpt>
      <trkpt lat="48.64908" lon="5.17079">
        <ele>263.7</ele>
        <time>2020-06-30T08:29:18Z</time>
      </trkpt>
      <trkpt lat="48.64907" lon="5.17074">
        <ele>263.8</ele>
        <time>2020-06-30T08:29:19Z</time>
      </trkpt>
      <trkpt lat="48.64905" lon="5.17069">
        <ele>263.9</ele>
        <time>2020-06-30T08:29:20Z</time>
      </trkpt>
      <trkpt lat="48.64904" lon="5.17065">
        <ele>264</ele>
        <time>2020-06-30T08:29:21Z</time>
      </trkpt>
      <trkpt lat="48.64903" lon="5.1706">
        <ele>264</ele>
        <time>2020-06-30T08:29:22Z</time>
      </trkpt>
      <trkpt lat="48.64901" lon="5.17054">
        <ele>264.1</ele>
        <time>2020-06-30T08:29:23Z</time>
      </trkpt>
      <trkpt lat="48.64899" lon="5.1705">
        <ele>264.2</ele>
        <time>2020-06-30T08:29:24Z</time>
      </trkpt>
      <trkpt lat="48.64897" lon="5.17046">
        <ele>264.3</ele>
        <time>2020-06-30T08:29:25Z</time>
      </trkpt>
      <trkpt lat="48.64895" lon="5.17041">
        <ele>264.3</ele>
        <time>2020-06-30T08:29:26Z</time>
      </trkpt>
      <trkpt lat="48.64893" lon="5.17037">
        <ele>264.4</ele>
        <time>2020-06-30T08:29:27Z</time>
      </trkpt>
      <trkpt lat="48.64893" lon="5.17033">
        <ele>264.4</ele>
        <time>2020-06-30T08:29:28Z</time>
      </trkpt>
      <trkpt lat="48.64891" lon="5.17028">
        <ele>264.5</ele>
        <time>2020-06-30T08:29:29Z</time>
      </trkpt>
      <trkpt lat="48.6489" lon="5.17022">
        <ele>264.6</ele>
        <time>2020-06-30T08:29:30Z</time>
      </trkpt>
      <trkpt lat="48.64888" lon="5.17016">
        <ele>264.7</ele>
        <time>2020-06-30T08:29:31Z</time>
      </trkpt>
      <trkpt lat="48.64887" lon="5.1701">
        <ele>264.8</ele>
        <time>2020-06-30T08:29:32Z</time>
      </trkpt>
      <trkpt lat="48.64885" lon="5.17003">
        <ele>265</ele>
        <time>2020-06-30T08:29:33Z</time>
      </trkpt>
      <trkpt lat="48.64883" lon="5.16998">
        <ele>265.1</ele>
        <time>2020-06-30T08:29:34Z</time>
      </trkpt>
      <trkpt lat="48.64882" lon="5.16993">
        <ele>265.1</ele>
        <time>2020-06-30T08:29:35Z</time>
      </trkpt>
      <trkpt lat="48.64881" lon="5.16988">
        <ele>265.2</ele>
        <time>2020-06-30T08:29:36Z</time>
      </trkpt>
      <trkpt lat="48.6488" lon="5.16983">
        <ele>265.3</ele>
        <time>2020-06-30T08:29:37Z</time>
      </trkpt>
      <trkpt lat="48.64878" lon="5.16977">
        <ele>265.4</ele>
        <time>2020-06-30T08:29:38Z</time>
      </trkpt>
      <trkpt lat="48.64877" lon="5.16971">
        <ele>265.5</ele>
        <time>2020-06-30T08:29:39Z</time>
      </trkpt>
      <trkpt lat="48.64875" lon="5.16965">
        <ele>265.5</ele>
        <time>2020-06-30T08:29:40Z</time>
      </trkpt>
      <trkpt lat="48.64873" lon="5.1696">
        <ele>265.6</ele>
        <time>2020-06-30T08:29:41Z</time>
      </trkpt>
      <trkpt lat="48.64871" lon="5.16954">
        <ele>265.6</ele>
        <time>2020-06-30T08:29:42Z</time>
      </trkpt>
      <trkpt lat="48.6487" lon="5.16948">
        <ele>265.6</ele>
        <time>2020-06-30T08:29:43Z</time>
      </trkpt>
      <trkpt lat="48.64869" lon="5.16942">
        <ele>265.6</ele>
        <time>2020-06-30T08:29:44Z</time>
      </trkpt>
      <trkpt lat="48.64867" lon="5.16936">
        <ele>265.6</ele>
        <time>2020-06-30T08:29:45Z</time>
      </trkpt>
      <trkpt lat="48.64865" lon="5.16931">
        <ele>265.7</ele>
        <time>2020-06-30T08:29:46Z</time>
      </trkpt>
      <trkpt lat="48.64863" lon="5.16924">
        <ele>265.7</ele>
        <time>2020-06-30T08:29:47Z</time>
      </trkpt>
      <trkpt lat="48.64862" lon="5.16917">
        <ele>265.7</ele>
        <time>2020-06-30T08:29:48Z</time>
      </trkpt>
      <trkpt lat="48.64861" lon="5.16911">
        <ele>265.7</ele>
        <time>2020-06-30T08:29:49Z</time>
      </trkpt>
      <trkpt lat="48.6486" lon="5.16904">
        <ele>265.8</ele>
        <time>2020-06-30T08:29:50Z</time>
      </trkpt>
      <trkpt lat="48.6486" lon="5.16899">
        <ele>265.8</ele>
        <time>2020-06-30T08:29:51Z</time>
      </trkpt>
      <trkpt lat="48.64859" lon="5.16893">
        <ele>265.9</ele>
        <time>2020-06-30T08:29:52Z</time>
      </trkpt>
      <trkpt lat="48.64857" lon="5.16886">
        <ele>265.9</ele>
        <time>2020-06-30T08:29:53Z</time>
      </trkpt>
      <trkpt lat="48.64857" lon="5.16879">
        <ele>265.9</ele>
        <time>2020-06-30T08:29:54Z</time>
      </trkpt>
      <trkpt lat="48.64857" lon="5.16873">
        <ele>266</ele>
        <time>2020-06-30T08:29:55Z</time>
      </trkpt>
      <trkpt lat="48.64856" lon="5.16866">
        <ele>266</ele>
        <time>2020-06-30T08:29:56Z</time>
      </trkpt>
      <trkpt lat="48.64856" lon="5.16859">
        <ele>266</ele>
        <time>2020-06-30T08:29:57Z</time>
      </trkpt>
      <trkpt lat="48.64856" lon="5.16854">
        <ele>266</ele>
        <time>2020-06-30T08:29:58Z</time>
      </trkpt>
      <trkpt lat="48.64855" lon="5.16848">
        <ele>266</ele>
        <time>2020-06-30T08:29:59Z</time>
      </trkpt>
      <trkpt lat="48.64854" lon="5.16842">
        <ele>266</ele>
        <time>2020-06-30T08:30:00Z</time>
      </trkpt>
      <trkpt lat="48.64853" lon="5.16836">
        <ele>265.9</ele>
        <time>2020-06-30T08:30:01Z</time>
      </trkpt>
      <trkpt lat="48.64852" lon="5.1683">
        <ele>265.9</ele>
        <time>2020-06-30T08:30:02Z</time>
      </trkpt>
      <trkpt lat="48.64851" lon="5.16822">
        <ele>265.8</ele>
        <time>2020-06-30T08:30:03Z</time>
      </trkpt>
      <trkpt lat="48.6485" lon="5.16815">
        <ele>265.7</ele>
        <time>2020-06-30T08:30:04Z</time>
      </trkpt>
      <trkpt lat="48.6485" lon="5.16808">
        <ele>265.6</ele>
        <time>2020-06-30T08:30:05Z</time>
      </trkpt>
      <trkpt lat="48.64849" lon="5.16802">
        <ele>265.5</ele>
        <time>2020-06-30T08:30:06Z</time>
      </trkpt>
      <trkpt lat="48.64849" lon="5.16796">
        <ele>265.3</ele>
        <time>2020-06-30T08:30:07Z</time>
      </trkpt>
      <trkpt lat="48.64848" lon="5.16789">
        <ele>265.2</ele>
        <time>2020-06-30T08:30:08Z</time>
      </trkpt>
      <trkpt lat="48.64847" lon="5.1678">
        <ele>265</ele>
        <time>2020-06-30T08:30:09Z</time>
      </trkpt>
      <trkpt lat="48.64846" lon="5.16772">
        <ele>264.8</ele>
        <time>2020-06-30T08:30:10Z</time>
      </trkpt>
      <trkpt lat="48.64845" lon="5.16762">
        <ele>264.5</ele>
        <time>2020-06-30T08:30:11Z</time>
      </trkpt>
      <trkpt lat="48.64844" lon="5.16751">
        <ele>264.2</ele>
        <time>2020-06-30T08:30:12Z</time>
      </trkpt>
      <trkpt lat="48.64843" lon="5.16741">
        <ele>263.9</ele>
        <time>2020-06-30T08:30:13Z</time>
      </trkpt>
      <trkpt lat="48.64842" lon="5.16731">
        <ele>263.6</ele>
        <time>2020-06-30T08:30:14Z</time>
      </trkpt>
      <trkpt lat="48.64841" lon="5.1672">
        <ele>263.2</ele>
        <time>2020-06-30T08:30:15Z</time>
      </trkpt>
      <trkpt lat="48.64839" lon="5.16708">
        <ele>262.9</ele>
        <time>2020-06-30T08:30:16Z</time>
      </trkpt>
      <trkpt lat="48.64838" lon="5.16695">
        <ele>262.5</ele>
        <time>2020-06-30T08:30:17Z</time>
      </trkpt>
      <trkpt lat="48.64837" lon="5.16683">
        <ele>262.2</ele>
        <time>2020-06-30T08:30:18Z</time>
      </trkpt>
      <trkpt lat="48.64835" lon="5.16671">
        <ele>261.9</ele>
        <time>2020-06-30T08:30:19Z</time>
      </trkpt>
      <trkpt lat="48.64834" lon="5.16658">
        <ele>261.8</ele>
        <time>2020-06-30T08:30:20Z</time>
      </trkpt>
      <trkpt lat="48.64833" lon="5.16645">
        <ele>261.7</ele>
        <time>2020-06-30T08:30:21Z</time>
      </trkpt>
      <trkpt lat="48.64831" lon="5.16632">
        <ele>261.7</ele>
        <time>2020-06-30T08:30:22Z</time>
      </trkpt>
      <trkpt lat="48.64829" lon="5.16619">
        <ele>261.7</ele>
        <time>2020-06-30T08:30:23Z</time>
      </trkpt>
      <trkpt lat="48.64827" lon="5.16607">
        <ele>261.6</ele>
        <time>2020-06-30T08:30:24Z</time>
      </trkpt>
      <trkpt lat="48.64825" lon="5.16595">
        <ele>261.6</ele>
        <time>2020-06-30T08:30:25Z</time>
      </trkpt>
      <trkpt lat="48.64824" lon="5.16583">
        <ele>261.6</ele>
        <time>2020-06-30T08:30:26Z</time>
      </trkpt>
      <trkpt lat="48.64821" lon="5.16571">
        <ele>261.7</ele>
        <time>2020-06-30T08:30:27Z</time>
      </trkpt>
      <trkpt lat="48.64819" lon="5.16558">
        <ele>261.8</ele>
        <time>2020-06-30T08:30:28Z</time>
      </trkpt>
      <trkpt lat="48.64818" lon="5.16546">
        <ele>261.9</ele>
        <time>2020-06-30T08:30:29Z</time>
      </trkpt>
      <trkpt lat="48.64817" lon="5.16534">
        <ele>262</ele>
        <time>2020-06-30T08:30:30Z</time>
      </trkpt>
      <trkpt lat="48.64815" lon="5.16522">
        <ele>262.2</ele>
        <time>2020-06-30T08:30:31Z</time>
      </trkpt>
      <trkpt lat="48.64814" lon="5.16511">
        <ele>262.4</ele>
        <time>2020-06-30T08:30:32Z</time>
      </trkpt>
      <trkpt lat="48.6481" lon="5.165">
        <ele>262.6</ele>
        <time>2020-06-30T08:30:33Z</time>
      </trkpt>
      <trkpt lat="48.64808" lon="5.16489">
        <ele>262.8</ele>
        <time>2020-06-30T08:30:34Z</time>
      </trkpt>
      <trkpt lat="48.64805" lon="5.16478">
        <ele>263.1</ele>
        <time>2020-06-30T08:30:35Z</time>
      </trkpt>
      <trkpt lat="48.64802" lon="5.16468">
        <ele>263.4</ele>
        <time>2020-06-30T08:30:36Z</time>
      </trkpt>
      <trkpt lat="48.648" lon="5.16457">
        <ele>263.8</ele>
        <time>2020-06-30T08:30:37Z</time>
      </trkpt>
      <trkpt lat="48.64798" lon="5.16448">
        <ele>264.1</ele>
        <time>2020-06-30T08:30:38Z</time>
      </trkpt>
      <trkpt lat="48.64797" lon="5.16439">
        <ele>264.4</ele>
        <time>2020-06-30T08:30:39Z</time>
      </trkpt>
      <trkpt lat="48.64795" lon="5.16431">
        <ele>264.7</ele>
        <time>2020-06-30T08:30:40Z</time>
      </trkpt>
      <trkpt lat="48.64794" lon="5.16424">
        <ele>264.8</ele>
        <time>2020-06-30T08:30:41Z</time>
      </trkpt>
      <trkpt lat="48.64792" lon="5.16419">
        <ele>265</ele>
        <time>2020-06-30T08:30:42Z</time>
      </trkpt>
      <trkpt lat="48.6479" lon="5.16413">
        <ele>265.2</ele>
        <time>2020-06-30T08:30:43Z</time>
      </trkpt>
      <trkpt lat="48.64787" lon="5.16409">
        <ele>265.3</ele>
        <time>2020-06-30T08:30:44Z</time>
      </trkpt>
      <trkpt lat="48.64785" lon="5.16405">
        <ele>265.4</ele>
        <time>2020-06-30T08:30:45Z</time>
      </trkpt>
      <trkpt lat="48.64784" lon="5.164">
        <ele>265.6</ele>
        <time>2020-06-30T08:30:46Z</time>
      </trkpt>
      <trkpt lat="48.64783" lon="5.16396">
        <ele>265.6</ele>
        <time>2020-06-30T08:30:47Z</time>
      </trkpt>
      <trkpt lat="48.64781" lon="5.16391">
        <ele>265.7</ele>
        <time>2020-06-30T08:30:48Z</time>
      </trkpt>
      <trkpt lat="48.6478" lon="5.16386">
        <ele>265.8</ele>
        <time>2020-06-30T08:30:49Z</time>
      </trkpt>
      <trkpt lat="48.64779" lon="5.1638">
        <ele>265.9</ele>
        <time>2020-06-30T08:30:50Z</time>
      </trkpt>
      <trkpt lat="48.64778" lon="5.16374">
        <ele>266</ele>
        <time>2020-06-30T08:30:51Z</time>
      </trkpt>
      <trkpt lat="48.64777" lon="5.16368">
        <ele>266.1</ele>
        <time>2020-06-30T08:30:52Z</time>
      </trkpt>
      <trkpt lat="48.64775" lon="5.16361">
        <ele>266.2</ele>
        <time>2020-06-30T08:30:53Z</time>
      </trkpt>
      <trkpt lat="48.64773" lon="5.16354">
        <ele>266.2</ele>
        <time>2020-06-30T08:30:54Z</time>
      </trkpt>
      <trkpt lat="48.64772" lon="5.16348">
        <ele>266.3</ele>
        <time>2020-06-30T08:30:55Z</time>
      </trkpt>
      <trkpt lat="48.6477" lon="5.16342">
        <ele>266.3</ele>
        <time>2020-06-30T08:30:56Z</time>
      </trkpt>
      <trkpt lat="48.64768" lon="5.16336">
        <ele>266.4</ele>
        <time>2020-06-30T08:30:57Z</time>
      </trkpt>
      <trkpt lat="48.64766" lon="5.1633">
        <ele>266.4</ele>
        <time>2020-06-30T08:30:58Z</time>
      </trkpt>
      <trkpt lat="48.64765" lon="5.16324">
        <ele>266.4</ele>
        <time>2020-06-30T08:30:59Z</time>
      </trkpt>
      <trkpt lat="48.64763" lon="5.16319">
        <ele>266.4</ele>
        <time>2020-06-30T08:31:00Z</time>
      </trkpt>
      <trkpt lat="48.64761" lon="5.16314">
        <ele>266.4</ele>
        <time>2020-06-30T08:31:01Z</time>
      </trkpt>
      <trkpt lat="48.6476" lon="5.16309">
        <ele>266.4</ele>
        <time>2020-06-30T08:31:02Z</time>
      </trkpt>
      <trkpt lat="48.64758" lon="5.16302">
        <ele>266.5</ele>
        <time>2020-06-30T08:31:03Z</time>
      </trkpt>
      <trkpt lat="48.64755" lon="5.16296">
        <ele>266.5</ele>
        <time>2020-06-30T08:31:04Z</time>
      </trkpt>
      <trkpt lat="48.64754" lon="5.16289">
        <ele>266.6</ele>
        <time>2020-06-30T08:31:05Z</time>
      </trkpt>
      <trkpt lat="48.64752" lon="5.16282">
        <ele>266.7</ele>
        <time>2020-06-30T08:31:06Z</time>
      </trkpt>
      <trkpt lat="48.6475" lon="5.16275">
        <ele>266.7</ele>
        <time>2020-06-30T08:31:07Z</time>
      </trkpt>
      <trkpt lat="48.64749" lon="5.1627">
        <ele>266.8</ele>
        <time>2020-06-30T08:31:08Z</time>
      </trkpt>
      <trkpt lat="48.64747" lon="5.16262">
        <ele>266.8</ele>
        <time>2020-06-30T08:31:09Z</time>
      </trkpt>
      <trkpt lat="48.64746" lon="5.16256">
        <ele>266.8</ele>
        <time>2020-06-30T08:31:10Z</time>
      </trkpt>
      <trkpt lat="48.64746" lon="5.16249">
        <ele>266.8</ele>
        <time>2020-06-30T08:31:11Z</time>
      </trkpt>
      <trkpt lat="48.64744" lon="5.16242">
        <ele>266.8</ele>
        <time>2020-06-30T08:31:12Z</time>
      </trkpt>
      <trkpt lat="48.64743" lon="5.16235">
        <ele>266.8</ele>
        <time>2020-06-30T08:31:13Z</time>
      </trkpt>
      <trkpt lat="48.64742" lon="5.16228">
        <ele>266.8</ele>
        <time>2020-06-30T08:31:14Z</time>
      </trkpt>
      <trkpt lat="48.64741" lon="5.1622">
        <ele>266.9</ele>
        <time>2020-06-30T08:31:15Z</time>
      </trkpt>
      <trkpt lat="48.64739" lon="5.16213">
        <ele>266.9</ele>
        <time>2020-06-30T08:31:16Z</time>
      </trkpt>
      <trkpt lat="48.64738" lon="5.16205">
        <ele>266.9</ele>
        <time>2020-06-30T08:31:17Z</time>
      </trkpt>
      <trkpt lat="48.64736" lon="5.16198">
        <ele>266.9</ele>
        <time>2020-06-30T08:31:18Z</time>
      </trkpt>
      <trkpt lat="48.64734" lon="5.16191">
        <ele>267</ele>
        <time>2020-06-30T08:31:19Z</time>
      </trkpt>
      <trkpt lat="48.64732" lon="5.16183">
        <ele>267</ele>
        <time>2020-06-30T08:31:20Z</time>
      </trkpt>
      <trkpt lat="48.6473" lon="5.16176">
        <ele>267</ele>
        <time>2020-06-30T08:31:21Z</time>
      </trkpt>
      <trkpt lat="48.64728" lon="5.16169">
        <ele>267.1</ele>
        <time>2020-06-30T08:31:22Z</time>
      </trkpt>
      <trkpt lat="48.64726" lon="5.16161">
        <ele>267.1</ele>
        <time>2020-06-30T08:31:23Z</time>
      </trkpt>
      <trkpt lat="48.64724" lon="5.16153">
        <ele>267.2</ele>
        <time>2020-06-30T08:31:24Z</time>
      </trkpt>
      <trkpt lat="48.64722" lon="5.16145">
        <ele>267.2</ele>
        <time>2020-06-30T08:31:25Z</time>
      </trkpt>
      <trkpt lat="48.6472" lon="5.16137">
        <ele>267.3</ele>
        <time>2020-06-30T08:31:26Z</time>
      </trkpt>
      <trkpt lat="48.64717" lon="5.1613">
        <ele>267.4</ele>
        <time>2020-06-30T08:31:27Z</time>
      </trkpt>
      <trkpt lat="48.64716" lon="5.16122">
        <ele>267.4</ele>
        <time>2020-06-30T08:31:28Z</time>
      </trkpt>
      <trkpt lat="48.64714" lon="5.16115">
        <ele>267.5</ele>
        <time>2020-06-30T08:31:29Z</time>
      </trkpt>
      <trkpt lat="48.64713" lon="5.16107">
        <ele>267.5</ele>
        <time>2020-06-30T08:31:30Z</time>
      </trkpt>
      <trkpt lat="48.64711" lon="5.16099">
        <ele>267.6</ele>
        <time>2020-06-30T08:31:31Z</time>
      </trkpt>
      <trkpt lat="48.64709" lon="5.16091">
        <ele>267.7</ele>
        <time>2020-06-30T08:31:32Z</time>
      </trkpt>
      <trkpt lat="48.64707" lon="5.16085">
        <ele>267.7</ele>
        <time>2020-06-30T08:31:33Z</time>
      </trkpt>
      <trkpt lat="48.64705" lon="5.16078">
        <ele>267.7</ele>
        <time>2020-06-30T08:31:34Z</time>
      </trkpt>
      <trkpt lat="48.64704" lon="5.16072">
        <ele>267.8</ele>
        <time>2020-06-30T08:31:35Z</time>
      </trkpt>
      <trkpt lat="48.64703" lon="5.16066">
        <ele>267.8</ele>
        <time>2020-06-30T08:31:36Z</time>
      </trkpt>
      <trkpt lat="48.64702" lon="5.1606">
        <ele>267.8</ele>
        <time>2020-06-30T08:31:37Z</time>
      </trkpt>
      <trkpt lat="48.64702" lon="5.16052">
        <ele>267.9</ele>
        <time>2020-06-30T08:31:38Z</time>
      </trkpt>
      <trkpt lat="48.647" lon="5.16044">
        <ele>267.9</ele>
        <time>2020-06-30T08:31:39Z</time>
      </trkpt>
      <trkpt lat="48.64698" lon="5.16037">
        <ele>268</ele>
        <time>2020-06-30T08:31:40Z</time>
      </trkpt>
      <trkpt lat="48.64697" lon="5.16029">
        <ele>268.1</ele>
        <time>2020-06-30T08:31:41Z</time>
      </trkpt>
      <trkpt lat="48.64695" lon="5.16023">
        <ele>268.1</ele>
        <time>2020-06-30T08:31:42Z</time>
      </trkpt>
      <trkpt lat="48.64693" lon="5.16016">
        <ele>268.2</ele>
        <time>2020-06-30T08:31:43Z</time>
      </trkpt>
      <trkpt lat="48.64692" lon="5.16009">
        <ele>268.3</ele>
        <time>2020-06-30T08:31:44Z</time>
      </trkpt>
      <trkpt lat="48.6469" lon="5.16003">
        <ele>268.3</ele>
        <time>2020-06-30T08:31:45Z</time>
      </trkpt>
      <trkpt lat="48.64689" lon="5.15997">
        <ele>268.4</ele>
        <time>2020-06-30T08:31:46Z</time>
      </trkpt>
      <trkpt lat="48.64687" lon="5.1599">
        <ele>268.5</ele>
        <time>2020-06-30T08:31:47Z</time>
      </trkpt>
      <trkpt lat="48.64685" lon="5.15983">
        <ele>268.5</ele>
        <time>2020-06-30T08:31:48Z</time>
      </trkpt>
      <trkpt lat="48.64683" lon="5.15976">
        <ele>268.6</ele>
        <time>2020-06-30T08:31:49Z</time>
      </trkpt>
      <trkpt lat="48.64681" lon="5.15969">
        <ele>268.6</ele>
        <time>2020-06-30T08:31:50Z</time>
      </trkpt>
      <trkpt lat="48.6468" lon="5.15964">
        <ele>268.6</ele>
        <time>2020-06-30T08:31:51Z</time>
      </trkpt>
      <trkpt lat="48.64678" lon="5.15958">
        <ele>268.7</ele>
        <time>2020-06-30T08:31:52Z</time>
      </trkpt>
      <trkpt lat="48.64676" lon="5.15951">
        <ele>268.7</ele>
        <time>2020-06-30T08:31:53Z</time>
      </trkpt>
      <trkpt lat="48.64674" lon="5.15945">
        <ele>268.7</ele>
        <time>2020-06-30T08:31:54Z</time>
      </trkpt>
      <trkpt lat="48.64673" lon="5.15939">
        <ele>268.7</ele>
        <time>2020-06-30T08:31:55Z</time>
      </trkpt>
      <trkpt lat="48.64671" lon="5.15932">
        <ele>268.7</ele>
        <time>2020-06-30T08:31:56Z</time>
      </trkpt>
      <trkpt lat="48.64669" lon="5.15926">
        <ele>268.7</ele>
        <time>2020-06-30T08:31:57Z</time>
      </trkpt>
      <trkpt lat="48.64669" lon="5.1592">
        <ele>268.6</ele>
        <time>2020-06-30T08:31:58Z</time>
      </trkpt>
      <trkpt lat="48.64668" lon="5.15914">
        <ele>268.6</ele>
        <time>2020-06-30T08:31:59Z</time>
      </trkpt>
      <trkpt lat="48.64667" lon="5.15907">
        <ele>268.6</ele>
        <time>2020-06-30T08:32:00Z</time>
      </trkpt>
      <trkpt lat="48.64666" lon="5.15902">
        <ele>268.6</ele>
        <time>2020-06-30T08:32:01Z</time>
      </trkpt>
      <trkpt lat="48.64665" lon="5.15895">
        <ele>268.5</ele>
        <time>2020-06-30T08:32:02Z</time>
      </trkpt>
      <trkpt lat="48.64664" lon="5.15888">
        <ele>268.5</ele>
        <time>2020-06-30T08:32:03Z</time>
      </trkpt>
      <trkpt lat="48.64662" lon="5.15882">
        <ele>268.4</ele>
        <time>2020-06-30T08:32:04Z</time>
      </trkpt>
      <trkpt lat="48.6466" lon="5.15874">
        <ele>268.4</ele>
        <time>2020-06-30T08:32:05Z</time>
      </trkpt>
      <trkpt lat="48.64657" lon="5.15868">
        <ele>268.4</ele>
        <time>2020-06-30T08:32:06Z</time>
      </trkpt>
      <trkpt lat="48.64656" lon="5.1586">
        <ele>268.3</ele>
        <time>2020-06-30T08:32:07Z</time>
      </trkpt>
      <trkpt lat="48.64654" lon="5.15853">
        <ele>268.3</ele>
        <time>2020-06-30T08:32:08Z</time>
      </trkpt>
      <trkpt lat="48.64653" lon="5.15846">
        <ele>268.2</ele>
        <time>2020-06-30T08:32:09Z</time>
      </trkpt>
      <trkpt lat="48.64651" lon="5.15838">
        <ele>268.1</ele>
        <time>2020-06-30T08:32:10Z</time>
      </trkpt>
      <trkpt lat="48.6465" lon="5.15831">
        <ele>268.1</ele>
        <time>2020-06-30T08:32:11Z</time>
      </trkpt>
      <trkpt lat="48.64647" lon="5.15824">
        <ele>267.9</ele>
        <time>2020-06-30T08:32:12Z</time>
      </trkpt>
      <trkpt lat="48.64646" lon="5.15818">
        <ele>267.8</ele>
        <time>2020-06-30T08:32:13Z</time>
      </trkpt>
      <trkpt lat="48.64644" lon="5.15811">
        <ele>267.7</ele>
        <time>2020-06-30T08:32:14Z</time>
      </trkpt>
      <trkpt lat="48.64643" lon="5.15804">
        <ele>267.6</ele>
        <time>2020-06-30T08:32:15Z</time>
      </trkpt>
      <trkpt lat="48.64642" lon="5.15797">
        <ele>267.5</ele>
        <time>2020-06-30T08:32:16Z</time>
      </trkpt>
      <trkpt lat="48.6464" lon="5.15791">
        <ele>267.4</ele>
        <time>2020-06-30T08:32:17Z</time>
      </trkpt>
      <trkpt lat="48.64639" lon="5.15783">
        <ele>267.3</ele>
        <time>2020-06-30T08:32:18Z</time>
      </trkpt>
      <trkpt lat="48.64637" lon="5.15776">
        <ele>267.2</ele>
        <time>2020-06-30T08:32:19Z</time>
      </trkpt>
      <trkpt lat="48.64635" lon="5.15768">
        <ele>267</ele>
        <time>2020-06-30T08:32:20Z</time>
      </trkpt>
      <trkpt lat="48.64634" lon="5.15761">
        <ele>266.9</ele>
        <time>2020-06-30T08:32:21Z</time>
      </trkpt>
      <trkpt lat="48.64632" lon="5.15753">
        <ele>266.8</ele>
        <time>2020-06-30T08:32:22Z</time>
      </trkpt>
      <trkpt lat="48.6463" lon="5.15746">
        <ele>266.7</ele>
        <time>2020-06-30T08:32:23Z</time>
      </trkpt>
      <trkpt lat="48.64628" lon="5.15739">
        <ele>266.6</ele>
        <time>2020-06-30T08:32:24Z</time>
      </trkpt>
      <trkpt lat="48.64626" lon="5.15732">
        <ele>266.5</ele>
        <time>2020-06-30T08:32:25Z</time>
      </trkpt>
      <trkpt lat="48.64625" lon="5.15724">
        <ele>266.4</ele>
        <time>2020-06-30T08:32:26Z</time>
      </trkpt>
      <trkpt lat="48.64624" lon="5.15717">
        <ele>266.3</ele>
        <time>2020-06-30T08:32:27Z</time>
      </trkpt>
      <trkpt lat="48.64622" lon="5.1571">
        <ele>266.2</ele>
        <time>2020-06-30T08:32:28Z</time>
      </trkpt>
      <trkpt lat="48.6462" lon="5.15703">
        <ele>266.2</ele>
        <time>2020-06-30T08:32:29Z</time>
      </trkpt>
      <trkpt lat="48.64619" lon="5.15695">
        <ele>266</ele>
        <time>2020-06-30T08:32:30Z</time>
      </trkpt>
      <trkpt lat="48.64618" lon="5.15688">
        <ele>265.9</ele>
        <time>2020-06-30T08:32:31Z</time>
      </trkpt>
      <trkpt lat="48.64616" lon="5.15681">
        <ele>265.8</ele>
        <time>2020-06-30T08:32:32Z</time>
      </trkpt>
      <trkpt lat="48.64614" lon="5.15672">
        <ele>265.7</ele>
        <time>2020-06-30T08:32:33Z</time>
      </trkpt>
      <trkpt lat="48.64613" lon="5.15665">
        <ele>265.5</ele>
        <time>2020-06-30T08:32:34Z</time>
      </trkpt>
      <trkpt lat="48.64612" lon="5.15658">
        <ele>265.4</ele>
        <time>2020-06-30T08:32:35Z</time>
      </trkpt>
      <trkpt lat="48.64611" lon="5.1565">
        <ele>265.2</ele>
        <time>2020-06-30T08:32:36Z</time>
      </trkpt>
      <trkpt lat="48.64609" lon="5.15643">
        <ele>265.1</ele>
        <time>2020-06-30T08:32:37Z</time>
      </trkpt>
      <trkpt lat="48.64607" lon="5.15634">
        <ele>264.9</ele>
        <time>2020-06-30T08:32:38Z</time>
      </trkpt>
      <trkpt lat="48.64605" lon="5.15626">
        <ele>264.8</ele>
        <time>2020-06-30T08:32:39Z</time>
      </trkpt>
      <trkpt lat="48.64603" lon="5.15618">
        <ele>264.7</ele>
        <time>2020-06-30T08:32:40Z</time>
      </trkpt>
      <trkpt lat="48.64602" lon="5.1561">
        <ele>264.6</ele>
        <time>2020-06-30T08:32:41Z</time>
      </trkpt>
      <trkpt lat="48.64601" lon="5.15603">
        <ele>264.6</ele>
        <time>2020-06-30T08:32:42Z</time>
      </trkpt>
      <trkpt lat="48.64599" lon="5.15597">
        <ele>264.5</ele>
        <time>2020-06-30T08:32:43Z</time>
      </trkpt>
      <trkpt lat="48.64598" lon="5.15589">
        <ele>264.4</ele>
        <time>2020-06-30T08:32:44Z</time>
      </trkpt>
      <trkpt lat="48.64596" lon="5.15582">
        <ele>264.3</ele>
        <time>2020-06-30T08:32:45Z</time>
      </trkpt>
      <trkpt lat="48.64594" lon="5.15575">
        <ele>264.2</ele>
        <time>2020-06-30T08:32:46Z</time>
      </trkpt>
      <trkpt lat="48.64593" lon="5.15568">
        <ele>264.1</ele>
        <time>2020-06-30T08:32:47Z</time>
      </trkpt>
      <trkpt lat="48.64591" lon="5.15559">
        <ele>264</ele>
        <time>2020-06-30T08:32:48Z</time>
      </trkpt>
      <trkpt lat="48.64588" lon="5.15551">
        <ele>263.9</ele>
        <time>2020-06-30T08:32:49Z</time>
      </trkpt>
      <trkpt lat="48.64586" lon="5.15543">
        <ele>263.8</ele>
        <time>2020-06-30T08:32:50Z</time>
      </trkpt>
      <trkpt lat="48.64584" lon="5.15534">
        <ele>263.7</ele>
        <time>2020-06-30T08:32:51Z</time>
      </trkpt>
      <trkpt lat="48.64582" lon="5.15525">
        <ele>263.6</ele>
        <time>2020-06-30T08:32:52Z</time>
      </trkpt>
      <trkpt lat="48.6458" lon="5.15518">
        <ele>263.5</ele>
        <time>2020-06-30T08:32:53Z</time>
      </trkpt>
      <trkpt lat="48.64578" lon="5.15511">
        <ele>263.4</ele>
        <time>2020-06-30T08:32:54Z</time>
      </trkpt>
      <trkpt lat="48.64576" lon="5.15503">
        <ele>263.4</ele>
        <time>2020-06-30T08:32:55Z</time>
      </trkpt>
      <trkpt lat="48.64575" lon="5.15495">
        <ele>263.4</ele>
        <time>2020-06-30T08:32:56Z</time>
      </trkpt>
      <trkpt lat="48.64574" lon="5.15487">
        <ele>263.4</ele>
        <time>2020-06-30T08:32:57Z</time>
      </trkpt>
      <trkpt lat="48.64572" lon="5.15479">
        <ele>263.3</ele>
        <time>2020-06-30T08:32:58Z</time>
      </trkpt>
      <trkpt lat="48.64571" lon="5.1547">
        <ele>263.1</ele>
        <time>2020-06-30T08:32:59Z</time>
      </trkpt>
      <trkpt lat="48.64569" lon="5.15462">
        <ele>263</ele>
        <time>2020-06-30T08:33:00Z</time>
      </trkpt>
      <trkpt lat="48.64566" lon="5.15454">
        <ele>262.7</ele>
        <time>2020-06-30T08:33:01Z</time>
      </trkpt>
      <trkpt lat="48.64564" lon="5.15446">
        <ele>262.5</ele>
        <time>2020-06-30T08:33:02Z</time>
      </trkpt>
      <trkpt lat="48.64562" lon="5.15439">
        <ele>262.3</ele>
        <time>2020-06-30T08:33:03Z</time>
      </trkpt>
      <trkpt lat="48.6456" lon="5.15431">
        <ele>262.1</ele>
        <time>2020-06-30T08:33:04Z</time>
      </trkpt>
      <trkpt lat="48.64559" lon="5.15421">
        <ele>261.7</ele>
        <time>2020-06-30T08:33:05Z</time>
      </trkpt>
      <trkpt lat="48.64557" lon="5.15412">
        <ele>261.4</ele>
        <time>2020-06-30T08:33:06Z</time>
      </trkpt>
      <trkpt lat="48.64555" lon="5.15403">
        <ele>261.1</ele>
        <time>2020-06-30T08:33:07Z</time>
      </trkpt>
      <trkpt lat="48.64554" lon="5.15393">
        <ele>260.7</ele>
        <time>2020-06-30T08:33:08Z</time>
      </trkpt>
      <trkpt lat="48.64552" lon="5.15386">
        <ele>260.4</ele>
        <time>2020-06-30T08:33:09Z</time>
      </trkpt>
      <trkpt lat="48.64549" lon="5.15377">
        <ele>260.1</ele>
        <time>2020-06-30T08:33:10Z</time>
      </trkpt>
      <trkpt lat="48.64546" lon="5.15368">
        <ele>259.7</ele>
        <time>2020-06-30T08:33:11Z</time>
      </trkpt>
      <trkpt lat="48.64543" lon="5.15358">
        <ele>259.3</ele>
        <time>2020-06-30T08:33:12Z</time>
      </trkpt>
      <trkpt lat="48.64541" lon="5.15348">
        <ele>258.9</ele>
        <time>2020-06-30T08:33:13Z</time>
      </trkpt>
      <trkpt lat="48.64539" lon="5.15337">
        <ele>258.5</ele>
        <time>2020-06-30T08:33:14Z</time>
      </trkpt>
      <trkpt lat="48.64537" lon="5.15326">
        <ele>258</ele>
        <time>2020-06-30T08:33:15Z</time>
      </trkpt>
      <trkpt lat="48.64536" lon="5.15315">
        <ele>257.5</ele>
        <time>2020-06-30T08:33:16Z</time>
      </trkpt>
      <trkpt lat="48.64534" lon="5.15303">
        <ele>257</ele>
        <time>2020-06-30T08:33:17Z</time>
      </trkpt>
      <trkpt lat="48.64532" lon="5.15292">
        <ele>256.4</ele>
        <time>2020-06-30T08:33:18Z</time>
      </trkpt>
      <trkpt lat="48.64529" lon="5.15281">
        <ele>255.8</ele>
        <time>2020-06-30T08:33:19Z</time>
      </trkpt>
      <trkpt lat="48.64527" lon="5.15269">
        <ele>255.2</ele>
        <time>2020-06-30T08:33:20Z</time>
      </trkpt>
      <trkpt lat="48.64524" lon="5.15258">
        <ele>254.6</ele>
        <time>2020-06-30T08:33:21Z</time>
      </trkpt>
      <trkpt lat="48.64522" lon="5.15246">
        <ele>254</ele>
        <time>2020-06-30T08:33:22Z</time>
      </trkpt>
      <trkpt lat="48.64519" lon="5.15233">
        <ele>253.4</ele>
        <time>2020-06-30T08:33:23Z</time>
      </trkpt>
      <trkpt lat="48.64517" lon="5.15221">
        <ele>252.7</ele>
        <time>2020-06-30T08:33:24Z</time>
      </trkpt>
      <trkpt lat="48.64515" lon="5.15208">
        <ele>252</ele>
        <time>2020-06-30T08:33:25Z</time>
      </trkpt>
      <trkpt lat="48.64511" lon="5.15196">
        <ele>251.3</ele>
        <time>2020-06-30T08:33:26Z</time>
      </trkpt>
      <trkpt lat="48.64507" lon="5.15184">
        <ele>250.8</ele>
        <time>2020-06-30T08:33:27Z</time>
      </trkpt>
      <trkpt lat="48.64503" lon="5.15172">
        <ele>250.3</ele>
        <time>2020-06-30T08:33:28Z</time>
      </trkpt>
      <trkpt lat="48.645" lon="5.15161">
        <ele>249.8</ele>
        <time>2020-06-30T08:33:29Z</time>
      </trkpt>
      <trkpt lat="48.64497" lon="5.15149">
        <ele>249.4</ele>
        <time>2020-06-30T08:33:30Z</time>
      </trkpt>
      <trkpt lat="48.64494" lon="5.15136">
        <ele>248.9</ele>
        <time>2020-06-30T08:33:31Z</time>
      </trkpt>
      <trkpt lat="48.64491" lon="5.15124">
        <ele>248.5</ele>
        <time>2020-06-30T08:33:32Z</time>
      </trkpt>
      <trkpt lat="48.64488" lon="5.15112">
        <ele>248.2</ele>
        <time>2020-06-30T08:33:33Z</time>
      </trkpt>
      <trkpt lat="48.64485" lon="5.151">
        <ele>247.8</ele>
        <time>2020-06-30T08:33:34Z</time>
      </trkpt>
      <trkpt lat="48.64482" lon="5.15088">
        <ele>247.6</ele>
        <time>2020-06-30T08:33:35Z</time>
      </trkpt>
      <trkpt lat="48.64479" lon="5.15076">
        <ele>247.4</ele>
        <time>2020-06-30T08:33:36Z</time>
      </trkpt>
      <trkpt lat="48.64476" lon="5.15063">
        <ele>247.2</ele>
        <time>2020-06-30T08:33:37Z</time>
      </trkpt>
      <trkpt lat="48.64473" lon="5.15051">
        <ele>247</ele>
        <time>2020-06-30T08:33:38Z</time>
      </trkpt>
      <trkpt lat="48.64469" lon="5.1504">
        <ele>246.9</ele>
        <time>2020-06-30T08:33:39Z</time>
      </trkpt>
      <trkpt lat="48.64466" lon="5.15028">
        <ele>246.8</ele>
        <time>2020-06-30T08:33:40Z</time>
      </trkpt>
      <trkpt lat="48.64463" lon="5.15017">
        <ele>246.6</ele>
        <time>2020-06-30T08:33:41Z</time>
      </trkpt>
      <trkpt lat="48.6446" lon="5.15005">
        <ele>246.5</ele>
        <time>2020-06-30T08:33:42Z</time>
      </trkpt>
      <trkpt lat="48.64458" lon="5.14994">
        <ele>246.4</ele>
        <time>2020-06-30T08:33:43Z</time>
      </trkpt>
      <trkpt lat="48.64455" lon="5.14983">
        <ele>246.4</ele>
        <time>2020-06-30T08:33:44Z</time>
      </trkpt>
      <trkpt lat="48.64453" lon="5.14972">
        <ele>246.3</ele>
        <time>2020-06-30T08:33:45Z</time>
      </trkpt>
      <trkpt lat="48.64451" lon="5.14962">
        <ele>246.3</ele>
        <time>2020-06-30T08:33:46Z</time>
      </trkpt>
      <trkpt lat="48.6445" lon="5.14951">
        <ele>246.3</ele>
        <time>2020-06-30T08:33:47Z</time>
      </trkpt>
      <trkpt lat="48.64448" lon="5.14941">
        <ele>246.4</ele>
        <time>2020-06-30T08:33:48Z</time>
      </trkpt>
      <trkpt lat="48.64446" lon="5.1493">
        <ele>246.5</ele>
        <time>2020-06-30T08:33:49Z</time>
      </trkpt>
      <trkpt lat="48.64444" lon="5.14921">
        <ele>246.6</ele>
        <time>2020-06-30T08:33:50Z</time>
      </trkpt>
      <trkpt lat="48.64443" lon="5.14911">
        <ele>246.7</ele>
        <time>2020-06-30T08:33:51Z</time>
      </trkpt>
      <trkpt lat="48.6444" lon="5.14901">
        <ele>246.9</ele>
        <time>2020-06-30T08:33:52Z</time>
      </trkpt>
      <trkpt lat="48.64439" lon="5.14892">
        <ele>247.1</ele>
        <time>2020-06-30T08:33:53Z</time>
      </trkpt>
      <trkpt lat="48.64437" lon="5.14883">
        <ele>247.3</ele>
        <time>2020-06-30T08:33:54Z</time>
      </trkpt>
      <trkpt lat="48.64436" lon="5.14874">
        <ele>247.5</ele>
        <time>2020-06-30T08:33:55Z</time>
      </trkpt>
      <trkpt lat="48.64435" lon="5.14865">
        <ele>247.7</ele>
        <time>2020-06-30T08:33:56Z</time>
      </trkpt>
      <trkpt lat="48.64433" lon="5.14857">
        <ele>247.8</ele>
        <time>2020-06-30T08:33:57Z</time>
      </trkpt>
      <trkpt lat="48.64432" lon="5.14849">
        <ele>248.1</ele>
        <time>2020-06-30T08:33:58Z</time>
      </trkpt>
      <trkpt lat="48.64431" lon="5.14842">
        <ele>248.3</ele>
        <time>2020-06-30T08:33:59Z</time>
      </trkpt>
      <trkpt lat="48.6443" lon="5.14835">
        <ele>248.5</ele>
        <time>2020-06-30T08:34:00Z</time>
      </trkpt>
      <trkpt lat="48.64429" lon="5.14827">
        <ele>248.7</ele>
        <time>2020-06-30T08:34:01Z</time>
      </trkpt>
      <trkpt lat="48.64428" lon="5.1482">
        <ele>248.9</ele>
        <time>2020-06-30T08:34:02Z</time>
      </trkpt>
      <trkpt lat="48.64427" lon="5.14814">
        <ele>249.1</ele>
        <time>2020-06-30T08:34:03Z</time>
      </trkpt>
      <trkpt lat="48.64427" lon="5.14808">
        <ele>249.2</ele>
        <time>2020-06-30T08:34:04Z</time>
      </trkpt>
      <trkpt lat="48.64426" lon="5.14802">
        <ele>249.4</ele>
        <time>2020-06-30T08:34:05Z</time>
      </trkpt>
      <trkpt lat="48.64425" lon="5.14796">
        <ele>249.6</ele>
        <time>2020-06-30T08:34:06Z</time>
      </trkpt>
      <trkpt lat="48.64425" lon="5.1479">
        <ele>249.8</ele>
        <time>2020-06-30T08:34:07Z</time>
      </trkpt>
      <trkpt lat="48.64425" lon="5.14784">
        <ele>250</ele>
        <time>2020-06-30T08:34:08Z</time>
      </trkpt>
      <trkpt lat="48.64425" lon="5.14778">
        <ele>250.2</ele>
        <time>2020-06-30T08:34:09Z</time>
      </trkpt>
      <trkpt lat="48.64424" lon="5.14772">
        <ele>250.3</ele>
        <time>2020-06-30T08:34:10Z</time>
      </trkpt>
      <trkpt lat="48.64423" lon="5.14767">
        <ele>250.5</ele>
        <time>2020-06-30T08:34:11Z</time>
      </trkpt>
      <trkpt lat="48.64422" lon="5.14762">
        <ele>250.6</ele>
        <time>2020-06-30T08:34:12Z</time>
      </trkpt>
      <trkpt lat="48.64421" lon="5.14757">
        <ele>250.8</ele>
        <time>2020-06-30T08:34:13Z</time>
      </trkpt>
      <trkpt lat="48.64419" lon="5.14752">
        <ele>250.9</ele>
        <time>2020-06-30T08:34:14Z</time>
      </trkpt>
      <trkpt lat="48.64417" lon="5.14748">
        <ele>251</ele>
        <time>2020-06-30T08:34:15Z</time>
      </trkpt>
      <trkpt lat="48.64417" lon="5.14743">
        <ele>251.1</ele>
        <time>2020-06-30T08:34:16Z</time>
      </trkpt>
      <trkpt lat="48.64416" lon="5.14737">
        <ele>251.2</ele>
        <time>2020-06-30T08:34:17Z</time>
      </trkpt>
      <trkpt lat="48.64414" lon="5.14731">
        <ele>251.4</ele>
        <time>2020-06-30T08:34:18Z</time>
      </trkpt>
      <trkpt lat="48.64412" lon="5.14725">
        <ele>251.5</ele>
        <time>2020-06-30T08:34:19Z</time>
      </trkpt>
      <trkpt lat="48.6441" lon="5.14719">
        <ele>251.6</ele>
        <time>2020-06-30T08:34:20Z</time>
      </trkpt>
      <trkpt lat="48.64409" lon="5.14712">
        <ele>251.8</ele>
        <time>2020-06-30T08:34:21Z</time>
      </trkpt>
      <trkpt lat="48.64407" lon="5.14706">
        <ele>251.9</ele>
        <time>2020-06-30T08:34:22Z</time>
      </trkpt>
      <trkpt lat="48.64406" lon="5.14701">
        <ele>252</ele>
        <time>2020-06-30T08:34:23Z</time>
      </trkpt>
      <trkpt lat="48.64403" lon="5.14694">
        <ele>252.1</ele>
        <time>2020-06-30T08:34:24Z</time>
      </trkpt>
      <trkpt lat="48.64401" lon="5.14687">
        <ele>252.2</ele>
        <time>2020-06-30T08:34:25Z</time>
      </trkpt>
      <trkpt lat="48.644" lon="5.14681">
        <ele>252.3</ele>
        <time>2020-06-30T08:34:26Z</time>
      </trkpt>
      <trkpt lat="48.64399" lon="5.14675">
        <ele>252.4</ele>
        <time>2020-06-30T08:34:27Z</time>
      </trkpt>
      <trkpt lat="48.64397" lon="5.1467">
        <ele>252.5</ele>
        <time>2020-06-30T08:34:28Z</time>
      </trkpt>
      <trkpt lat="48.64396" lon="5.14668">
        <ele>252.5</ele>
        <time>2020-06-30T08:34:29Z</time>
      </trkpt>
      <trkpt lat="48.64394" lon="5.1466">
        <ele>252.6</ele>
        <time>2020-06-30T08:34:30Z</time>
      </trkpt>
      <trkpt lat="48.64392" lon="5.14654">
        <ele>252.6</ele>
        <time>2020-06-30T08:34:31Z</time>
      </trkpt>
      <trkpt lat="48.6439" lon="5.14648">
        <ele>252.6</ele>
        <time>2020-06-30T08:34:32Z</time>
      </trkpt>
      <trkpt lat="48.64389" lon="5.14644">
        <ele>252.6</ele>
        <time>2020-06-30T08:34:33Z</time>
      </trkpt>
      <trkpt lat="48.64387" lon="5.14638">
        <ele>252.6</ele>
        <time>2020-06-30T08:34:34Z</time>
      </trkpt>
      <trkpt lat="48.64386" lon="5.14631">
        <ele>252.6</ele>
        <time>2020-06-30T08:34:35Z</time>
      </trkpt>
      <trkpt lat="48.64385" lon="5.14626">
        <ele>252.6</ele>
        <time>2020-06-30T08:34:36Z</time>
      </trkpt>
      <trkpt lat="48.64385" lon="5.14622">
        <ele>252.6</ele>
        <time>2020-06-30T08:34:37Z</time>
      </trkpt>
      <trkpt lat="48.64385" lon="5.14617">
        <ele>252.5</ele>
        <time>2020-06-30T08:34:38Z</time>
      </trkpt>
      <trkpt lat="48.64383" lon="5.1461">
        <ele>252.5</ele>
        <time>2020-06-30T08:34:39Z</time>
      </trkpt>
      <trkpt lat="48.64382" lon="5.14603">
        <ele>252.4</ele>
        <time>2020-06-30T08:34:40Z</time>
      </trkpt>
      <trkpt lat="48.64381" lon="5.14599">
        <ele>252.3</ele>
        <time>2020-06-30T08:34:41Z</time>
      </trkpt>
      <trkpt lat="48.64379" lon="5.14593">
        <ele>252.3</ele>
        <time>2020-06-30T08:34:42Z</time>
      </trkpt>
      <trkpt lat="48.64377" lon="5.14585">
        <ele>252.2</ele>
        <time>2020-06-30T08:34:43Z</time>
      </trkpt>
      <trkpt lat="48.64375" lon="5.14577">
        <ele>252.1</ele>
        <time>2020-06-30T08:34:44Z</time>
      </trkpt>
      <trkpt lat="48.64373" lon="5.14569">
        <ele>252</ele>
        <time>2020-06-30T08:34:45Z</time>
      </trkpt>
      <trkpt lat="48.64372" lon="5.14563">
        <ele>251.9</ele>
        <time>2020-06-30T08:34:46Z</time>
      </trkpt>
      <trkpt lat="48.64371" lon="5.14556">
        <ele>251.8</ele>
        <time>2020-06-30T08:34:47Z</time>
      </trkpt>
      <trkpt lat="48.64369" lon="5.14548">
        <ele>251.7</ele>
        <time>2020-06-30T08:34:48Z</time>
      </trkpt>
      <trkpt lat="48.64367" lon="5.14541">
        <ele>251.6</ele>
        <time>2020-06-30T08:34:49Z</time>
      </trkpt>
      <trkpt lat="48.64364" lon="5.14533">
        <ele>251.5</ele>
        <time>2020-06-30T08:34:50Z</time>
      </trkpt>
      <trkpt lat="48.64363" lon="5.14526">
        <ele>251.3</ele>
        <time>2020-06-30T08:34:51Z</time>
      </trkpt>
      <trkpt lat="48.64361" lon="5.1452">
        <ele>251.2</ele>
        <time>2020-06-30T08:34:52Z</time>
      </trkpt>
      <trkpt lat="48.64359" lon="5.14513">
        <ele>251.1</ele>
        <time>2020-06-30T08:34:53Z</time>
      </trkpt>
      <trkpt lat="48.64357" lon="5.14505">
        <ele>250.9</ele>
        <time>2020-06-30T08:34:54Z</time>
      </trkpt>
      <trkpt lat="48.64356" lon="5.14495">
        <ele>250.8</ele>
        <time>2020-06-30T08:34:55Z</time>
      </trkpt>
      <trkpt lat="48.64353" lon="5.14486">
        <ele>250.6</ele>
        <time>2020-06-30T08:34:56Z</time>
      </trkpt>
      <trkpt lat="48.64351" lon="5.14477">
        <ele>250.5</ele>
        <time>2020-06-30T08:34:57Z</time>
      </trkpt>
      <trkpt lat="48.6435" lon="5.14469">
        <ele>250.5</ele>
        <time>2020-06-30T08:34:58Z</time>
      </trkpt>
      <trkpt lat="48.64348" lon="5.14461">
        <ele>250.4</ele>
        <time>2020-06-30T08:34:59Z</time>
      </trkpt>
      <trkpt lat="48.64347" lon="5.14452">
        <ele>250.5</ele>
        <time>2020-06-30T08:35:00Z</time>
      </trkpt>
      <trkpt lat="48.64345" lon="5.14442">
        <ele>250.5</ele>
        <time>2020-06-30T08:35:01Z</time>
      </trkpt>
      <trkpt lat="48.64343" lon="5.14433">
        <ele>250.7</ele>
        <time>2020-06-30T08:35:02Z</time>
      </trkpt>
      <trkpt lat="48.64341" lon="5.14423">
        <ele>250.7</ele>
        <time>2020-06-30T08:35:03Z</time>
      </trkpt>
      <trkpt lat="48.64339" lon="5.14414">
        <ele>250.6</ele>
        <time>2020-06-30T08:35:04Z</time>
      </trkpt>
      <trkpt lat="48.64338" lon="5.14407">
        <ele>250.5</ele>
        <time>2020-06-30T08:35:05Z</time>
      </trkpt>
      <trkpt lat="48.64336" lon="5.14399">
        <ele>250.4</ele>
        <time>2020-06-30T08:35:06Z</time>
      </trkpt>
      <trkpt lat="48.64334" lon="5.14391">
        <ele>250.3</ele>
        <time>2020-06-30T08:35:07Z</time>
      </trkpt>
      <trkpt lat="48.64334" lon="5.14385">
        <ele>250.2</ele>
        <time>2020-06-30T08:35:08Z</time>
      </trkpt>
      <trkpt lat="48.64332" lon="5.14375">
        <ele>250.2</ele>
        <time>2020-06-30T08:35:09Z</time>
      </trkpt>
      <trkpt lat="48.6433" lon="5.14367">
        <ele>250.1</ele>
        <time>2020-06-30T08:35:10Z</time>
      </trkpt>
      <trkpt lat="48.64329" lon="5.14359">
        <ele>250.1</ele>
        <time>2020-06-30T08:35:11Z</time>
      </trkpt>
      <trkpt lat="48.64327" lon="5.1435">
        <ele>250</ele>
        <time>2020-06-30T08:35:12Z</time>
      </trkpt>
      <trkpt lat="48.64325" lon="5.14341">
        <ele>250</ele>
        <time>2020-06-30T08:35:13Z</time>
      </trkpt>
      <trkpt lat="48.64324" lon="5.14337">
        <ele>250</ele>
        <time>2020-06-30T08:35:14Z</time>
      </trkpt>
      <trkpt lat="48.64322" lon="5.14327">
        <ele>249.9</ele>
        <time>2020-06-30T08:35:15Z</time>
      </trkpt>
      <trkpt lat="48.64321" lon="5.14317">
        <ele>249.9</ele>
        <time>2020-06-30T08:35:16Z</time>
      </trkpt>
      <trkpt lat="48.64318" lon="5.14309">
        <ele>250</ele>
        <time>2020-06-30T08:35:17Z</time>
      </trkpt>
      <trkpt lat="48.64316" lon="5.14301">
        <ele>250</ele>
        <time>2020-06-30T08:35:18Z</time>
      </trkpt>
      <trkpt lat="48.64314" lon="5.14294">
        <ele>250.1</ele>
        <time>2020-06-30T08:35:19Z</time>
      </trkpt>
      <trkpt lat="48.64314" lon="5.14288">
        <ele>250.1</ele>
        <time>2020-06-30T08:35:20Z</time>
      </trkpt>
      <trkpt lat="48.64312" lon="5.1428">
        <ele>250.1</ele>
        <time>2020-06-30T08:35:21Z</time>
      </trkpt>
      <trkpt lat="48.64311" lon="5.14273">
        <ele>250.1</ele>
        <time>2020-06-30T08:35:22Z</time>
      </trkpt>
      <trkpt lat="48.64308" lon="5.14267">
        <ele>250.2</ele>
        <time>2020-06-30T08:35:23Z</time>
      </trkpt>
      <trkpt lat="48.64306" lon="5.14259">
        <ele>250.2</ele>
        <time>2020-06-30T08:35:24Z</time>
      </trkpt>
      <trkpt lat="48.64303" lon="5.14253">
        <ele>250.2</ele>
        <time>2020-06-30T08:35:25Z</time>
      </trkpt>
      <trkpt lat="48.643" lon="5.14246">
        <ele>250.3</ele>
        <time>2020-06-30T08:35:26Z</time>
      </trkpt>
      <trkpt lat="48.64297" lon="5.14237">
        <ele>250.3</ele>
        <time>2020-06-30T08:35:27Z</time>
      </trkpt>
      <trkpt lat="48.64293" lon="5.14228">
        <ele>250.3</ele>
        <time>2020-06-30T08:35:28Z</time>
      </trkpt>
      <trkpt lat="48.64291" lon="5.1422">
        <ele>250.3</ele>
        <time>2020-06-30T08:35:29Z</time>
      </trkpt>
      <trkpt lat="48.64289" lon="5.14212">
        <ele>250.3</ele>
        <time>2020-06-30T08:35:30Z</time>
      </trkpt>
      <trkpt lat="48.64287" lon="5.14202">
        <ele>250.2</ele>
        <time>2020-06-30T08:35:31Z</time>
      </trkpt>
      <trkpt lat="48.64285" lon="5.14194">
        <ele>250.2</ele>
        <time>2020-06-30T08:35:32Z</time>
      </trkpt>
      <trkpt lat="48.64283" lon="5.14186">
        <ele>250.1</ele>
        <time>2020-06-30T08:35:33Z</time>
      </trkpt>
      <trkpt lat="48.64281" lon="5.14177">
        <ele>250</ele>
        <time>2020-06-30T08:35:34Z</time>
      </trkpt>
      <trkpt lat="48.64279" lon="5.14169">
        <ele>250</ele>
        <time>2020-06-30T08:35:35Z</time>
      </trkpt>
      <trkpt lat="48.64278" lon="5.14165">
        <ele>250</ele>
        <time>2020-06-30T08:35:36Z</time>
      </trkpt>
      <trkpt lat="48.64277" lon="5.14159">
        <ele>249.9</ele>
        <time>2020-06-30T08:35:37Z</time>
      </trkpt>
      <trkpt lat="48.64276" lon="5.14151">
        <ele>249.9</ele>
        <time>2020-06-30T08:35:38Z</time>
      </trkpt>
      <trkpt lat="48.64275" lon="5.14143">
        <ele>249.9</ele>
        <time>2020-06-30T08:35:39Z</time>
      </trkpt>
      <trkpt lat="48.64274" lon="5.14133">
        <ele>249.9</ele>
        <time>2020-06-30T08:35:40Z</time>
      </trkpt>
      <trkpt lat="48.64272" lon="5.14124">
        <ele>249.9</ele>
        <time>2020-06-30T08:35:41Z</time>
      </trkpt>
      <trkpt lat="48.64269" lon="5.14114">
        <ele>249.8</ele>
        <time>2020-06-30T08:35:42Z</time>
      </trkpt>
      <trkpt lat="48.64266" lon="5.14105">
        <ele>249.7</ele>
        <time>2020-06-30T08:35:43Z</time>
      </trkpt>
      <trkpt lat="48.64264" lon="5.14095">
        <ele>249.7</ele>
        <time>2020-06-30T08:35:44Z</time>
      </trkpt>
      <trkpt lat="48.64262" lon="5.14085">
        <ele>249.6</ele>
        <time>2020-06-30T08:35:45Z</time>
      </trkpt>
      <trkpt lat="48.6426" lon="5.14075">
        <ele>249.6</ele>
        <time>2020-06-30T08:35:46Z</time>
      </trkpt>
      <trkpt lat="48.64258" lon="5.14067">
        <ele>249.6</ele>
        <time>2020-06-30T08:35:47Z</time>
      </trkpt>
      <trkpt lat="48.64257" lon="5.14059">
        <ele>249.6</ele>
        <time>2020-06-30T08:35:48Z</time>
      </trkpt>
      <trkpt lat="48.64256" lon="5.14053">
        <ele>249.6</ele>
        <time>2020-06-30T08:35:49Z</time>
      </trkpt>
      <trkpt lat="48.64255" lon="5.14046">
        <ele>249.7</ele>
        <time>2020-06-30T08:35:50Z</time>
      </trkpt>
      <trkpt lat="48.64253" lon="5.14039">
        <ele>249.7</ele>
        <time>2020-06-30T08:35:51Z</time>
      </trkpt>
      <trkpt lat="48.6425" lon="5.14031">
        <ele>249.7</ele>
        <time>2020-06-30T08:35:52Z</time>
      </trkpt>
      <trkpt lat="48.64248" lon="5.14023">
        <ele>249.7</ele>
        <time>2020-06-30T08:35:53Z</time>
      </trkpt>
      <trkpt lat="48.64246" lon="5.14014">
        <ele>249.8</ele>
        <time>2020-06-30T08:35:54Z</time>
      </trkpt>
      <trkpt lat="48.64244" lon="5.14006">
        <ele>249.8</ele>
        <time>2020-06-30T08:35:55Z</time>
      </trkpt>
      <trkpt lat="48.64241" lon="5.13996">
        <ele>249.9</ele>
        <time>2020-06-30T08:35:56Z</time>
      </trkpt>
      <trkpt lat="48.64239" lon="5.13986">
        <ele>250</ele>
        <time>2020-06-30T08:35:57Z</time>
      </trkpt>
      <trkpt lat="48.64238" lon="5.13978">
        <ele>250</ele>
        <time>2020-06-30T08:35:58Z</time>
      </trkpt>
      <trkpt lat="48.64236" lon="5.13969">
        <ele>250.1</ele>
        <time>2020-06-30T08:35:59Z</time>
      </trkpt>
      <trkpt lat="48.64234" lon="5.1396">
        <ele>250.2</ele>
        <time>2020-06-30T08:36:00Z</time>
      </trkpt>
      <trkpt lat="48.64233" lon="5.13951">
        <ele>250.3</ele>
        <time>2020-06-30T08:36:01Z</time>
      </trkpt>
      <trkpt lat="48.64231" lon="5.13944">
        <ele>250.5</ele>
        <time>2020-06-30T08:36:02Z</time>
      </trkpt>
      <trkpt lat="48.64229" lon="5.13936">
        <ele>250.6</ele>
        <time>2020-06-30T08:36:03Z</time>
      </trkpt>
      <trkpt lat="48.64227" lon="5.13927">
        <ele>250.8</ele>
        <time>2020-06-30T08:36:04Z</time>
      </trkpt>
      <trkpt lat="48.64225" lon="5.13919">
        <ele>250.9</ele>
        <time>2020-06-30T08:36:05Z</time>
      </trkpt>
      <trkpt lat="48.64224" lon="5.13912">
        <ele>251</ele>
        <time>2020-06-30T08:36:06Z</time>
      </trkpt>
      <trkpt lat="48.64223" lon="5.13903">
        <ele>251.2</ele>
        <time>2020-06-30T08:36:07Z</time>
      </trkpt>
      <trkpt lat="48.64223" lon="5.13898">
        <ele>251.3</ele>
        <time>2020-06-30T08:36:08Z</time>
      </trkpt>
      <trkpt lat="48.64222" lon="5.13891">
        <ele>251.4</ele>
        <time>2020-06-30T08:36:09Z</time>
      </trkpt>
      <trkpt lat="48.64222" lon="5.13886">
        <ele>251.5</ele>
        <time>2020-06-30T08:36:10Z</time>
      </trkpt>
      <trkpt lat="48.6422" lon="5.13879">
        <ele>251.6</ele>
        <time>2020-06-30T08:36:11Z</time>
      </trkpt>
      <trkpt lat="48.6422" lon="5.13872">
        <ele>251.7</ele>
        <time>2020-06-30T08:36:12Z</time>
      </trkpt>
      <trkpt lat="48.64218" lon="5.13867">
        <ele>251.8</ele>
        <time>2020-06-30T08:36:13Z</time>
      </trkpt>
      <trkpt lat="48.64217" lon="5.13861">
        <ele>251.9</ele>
        <time>2020-06-30T08:36:14Z</time>
      </trkpt>
      <trkpt lat="48.64217" lon="5.13855">
        <ele>252</ele>
        <time>2020-06-30T08:36:15Z</time>
      </trkpt>
      <trkpt lat="48.64216" lon="5.13846">
        <ele>252.1</ele>
        <time>2020-06-30T08:36:16Z</time>
      </trkpt>
      <trkpt lat="48.64215" lon="5.13839">
        <ele>252.2</ele>
        <time>2020-06-30T08:36:17Z</time>
      </trkpt>
      <trkpt lat="48.64214" lon="5.13832">
        <ele>252.2</ele>
        <time>2020-06-30T08:36:18Z</time>
      </trkpt>
      <trkpt lat="48.64213" lon="5.13823">
        <ele>252.3</ele>
        <time>2020-06-30T08:36:19Z</time>
      </trkpt>
      <trkpt lat="48.64213" lon="5.13817">
        <ele>252.3</ele>
        <time>2020-06-30T08:36:20Z</time>
      </trkpt>
      <trkpt lat="48.64212" lon="5.13811">
        <ele>252.3</ele>
        <time>2020-06-30T08:36:21Z</time>
      </trkpt>
      <trkpt lat="48.64212" lon="5.13805">
        <ele>252.3</ele>
        <time>2020-06-30T08:36:22Z</time>
      </trkpt>
      <trkpt lat="48.64211" lon="5.138">
        <ele>252.3</ele>
        <time>2020-06-30T08:36:23Z</time>
      </trkpt>
      <trkpt lat="48.6421" lon="5.13791">
        <ele>252.4</ele>
        <time>2020-06-30T08:36:24Z</time>
      </trkpt>
      <trkpt lat="48.6421" lon="5.13784">
        <ele>252.4</ele>
        <time>2020-06-30T08:36:25Z</time>
      </trkpt>
      <trkpt lat="48.64209" lon="5.13777">
        <ele>252.4</ele>
        <time>2020-06-30T08:36:26Z</time>
      </trkpt>
      <trkpt lat="48.64208" lon="5.1377">
        <ele>252.4</ele>
        <time>2020-06-30T08:36:27Z</time>
      </trkpt>
      <trkpt lat="48.64208" lon="5.13763">
        <ele>252.3</ele>
        <time>2020-06-30T08:36:28Z</time>
      </trkpt>
      <trkpt lat="48.64207" lon="5.13757">
        <ele>252.3</ele>
        <time>2020-06-30T08:36:29Z</time>
      </trkpt>
      <trkpt lat="48.64207" lon="5.13751">
        <ele>252.2</ele>
        <time>2020-06-30T08:36:30Z</time>
      </trkpt>
      <trkpt lat="48.64207" lon="5.13746">
        <ele>252.2</ele>
        <time>2020-06-30T08:36:31Z</time>
      </trkpt>
      <trkpt lat="48.64207" lon="5.13739">
        <ele>252.1</ele>
        <time>2020-06-30T08:36:32Z</time>
      </trkpt>
      <trkpt lat="48.64207" lon="5.13732">
        <ele>252.1</ele>
        <time>2020-06-30T08:36:33Z</time>
      </trkpt>
      <trkpt lat="48.64208" lon="5.13727">
        <ele>252</ele>
        <time>2020-06-30T08:36:34Z</time>
      </trkpt>
      <trkpt lat="48.64208" lon="5.1372">
        <ele>251.9</ele>
        <time>2020-06-30T08:36:35Z</time>
      </trkpt>
      <trkpt lat="48.64207" lon="5.13712">
        <ele>251.8</ele>
        <time>2020-06-30T08:36:36Z</time>
      </trkpt>
      <trkpt lat="48.64207" lon="5.13703">
        <ele>251.7</ele>
        <time>2020-06-30T08:36:37Z</time>
      </trkpt>
      <trkpt lat="48.64207" lon="5.13694">
        <ele>251.6</ele>
        <time>2020-06-30T08:36:38Z</time>
      </trkpt>
      <trkpt lat="48.64207" lon="5.13687">
        <ele>251.5</ele>
        <time>2020-06-30T08:36:39Z</time>
      </trkpt>
      <trkpt lat="48.64207" lon="5.13679">
        <ele>251.4</ele>
        <time>2020-06-30T08:36:40Z</time>
      </trkpt>
      <trkpt lat="48.64206" lon="5.1367">
        <ele>251.3</ele>
        <time>2020-06-30T08:36:41Z</time>
      </trkpt>
      <trkpt lat="48.64206" lon="5.13661">
        <ele>251.3</ele>
        <time>2020-06-30T08:36:42Z</time>
      </trkpt>
      <trkpt lat="48.64206" lon="5.13653">
        <ele>251.2</ele>
        <time>2020-06-30T08:36:43Z</time>
      </trkpt>
      <trkpt lat="48.64206" lon="5.13646">
        <ele>251.1</ele>
        <time>2020-06-30T08:36:44Z</time>
      </trkpt>
      <trkpt lat="48.64206" lon="5.13637">
        <ele>251</ele>
        <time>2020-06-30T08:36:45Z</time>
      </trkpt>
      <trkpt lat="48.64207" lon="5.13632">
        <ele>250.9</ele>
        <time>2020-06-30T08:36:46Z</time>
      </trkpt>
      <trkpt lat="48.64207" lon="5.13623">
        <ele>250.8</ele>
        <time>2020-06-30T08:36:47Z</time>
      </trkpt>
      <trkpt lat="48.64207" lon="5.13614">
        <ele>250.7</ele>
        <time>2020-06-30T08:36:48Z</time>
      </trkpt>
      <trkpt lat="48.64207" lon="5.13603">
        <ele>250.6</ele>
        <time>2020-06-30T08:36:49Z</time>
      </trkpt>
      <trkpt lat="48.64207" lon="5.13594">
        <ele>250.5</ele>
        <time>2020-06-30T08:36:50Z</time>
      </trkpt>
      <trkpt lat="48.64207" lon="5.13584">
        <ele>250.5</ele>
        <time>2020-06-30T08:36:51Z</time>
      </trkpt>
      <trkpt lat="48.64206" lon="5.13574">
        <ele>250.4</ele>
        <time>2020-06-30T08:36:52Z</time>
      </trkpt>
      <trkpt lat="48.64206" lon="5.13565">
        <ele>250.3</ele>
        <time>2020-06-30T08:36:53Z</time>
      </trkpt>
      <trkpt lat="48.64206" lon="5.13556">
        <ele>250.2</ele>
        <time>2020-06-30T08:36:54Z</time>
      </trkpt>
      <trkpt lat="48.64206" lon="5.13545">
        <ele>250.2</ele>
        <time>2020-06-30T08:36:55Z</time>
      </trkpt>
      <trkpt lat="48.64206" lon="5.13535">
        <ele>250.2</ele>
        <time>2020-06-30T08:36:56Z</time>
      </trkpt>
      <trkpt lat="48.64206" lon="5.13527">
        <ele>250.2</ele>
        <time>2020-06-30T08:36:57Z</time>
      </trkpt>
      <trkpt lat="48.64206" lon="5.13518">
        <ele>250.1</ele>
        <time>2020-06-30T08:36:58Z</time>
      </trkpt>
      <trkpt lat="48.64206" lon="5.13508">
        <ele>250.1</ele>
        <time>2020-06-30T08:36:59Z</time>
      </trkpt>
      <trkpt lat="48.64207" lon="5.13499">
        <ele>250.2</ele>
        <time>2020-06-30T08:37:00Z</time>
      </trkpt>
      <trkpt lat="48.64207" lon="5.1349">
        <ele>250.3</ele>
        <time>2020-06-30T08:37:01Z</time>
      </trkpt>
      <trkpt lat="48.64209" lon="5.13481">
        <ele>250.5</ele>
        <time>2020-06-30T08:37:02Z</time>
      </trkpt>
      <trkpt lat="48.6421" lon="5.13473">
        <ele>250.6</ele>
        <time>2020-06-30T08:37:03Z</time>
      </trkpt>
      <trkpt lat="48.64211" lon="5.13467">
        <ele>250.7</ele>
        <time>2020-06-30T08:37:04Z</time>
      </trkpt>
      <trkpt lat="48.64212" lon="5.1346">
        <ele>250.9</ele>
        <time>2020-06-30T08:37:05Z</time>
      </trkpt>
      <trkpt lat="48.64213" lon="5.13452">
        <ele>251.1</ele>
        <time>2020-06-30T08:37:06Z</time>
      </trkpt>
      <trkpt lat="48.64214" lon="5.13446">
        <ele>251.2</ele>
        <time>2020-06-30T08:37:07Z</time>
      </trkpt>
      <trkpt lat="48.64215" lon="5.13439">
        <ele>251.4</ele>
        <time>2020-06-30T08:37:08Z</time>
      </trkpt>
      <trkpt lat="48.64217" lon="5.13431">
        <ele>251.6</ele>
        <time>2020-06-30T08:37:09Z</time>
      </trkpt>
      <trkpt lat="48.64219" lon="5.13425">
        <ele>251.8</ele>
        <time>2020-06-30T08:37:10Z</time>
      </trkpt>
      <trkpt lat="48.6422" lon="5.13416">
        <ele>252.1</ele>
        <time>2020-06-30T08:37:11Z</time>
      </trkpt>
      <trkpt lat="48.64222" lon="5.13408">
        <ele>252.4</ele>
        <time>2020-06-30T08:37:12Z</time>
      </trkpt>
      <trkpt lat="48.64223" lon="5.13402">
        <ele>252.7</ele>
        <time>2020-06-30T08:37:13Z</time>
      </trkpt>
      <trkpt lat="48.64224" lon="5.13397">
        <ele>252.8</ele>
        <time>2020-06-30T08:37:14Z</time>
      </trkpt>
      <trkpt lat="48.64225" lon="5.13392">
        <ele>253</ele>
        <time>2020-06-30T08:37:15Z</time>
      </trkpt>
      <trkpt lat="48.64227" lon="5.13386">
        <ele>253.3</ele>
        <time>2020-06-30T08:37:16Z</time>
      </trkpt>
      <trkpt lat="48.64228" lon="5.1338">
        <ele>253.6</ele>
        <time>2020-06-30T08:37:17Z</time>
      </trkpt>
      <trkpt lat="48.6423" lon="5.13373">
        <ele>253.9</ele>
        <time>2020-06-30T08:37:18Z</time>
      </trkpt>
      <trkpt lat="48.64232" lon="5.13368">
        <ele>254.1</ele>
        <time>2020-06-30T08:37:19Z</time>
      </trkpt>
      <trkpt lat="48.64235" lon="5.13365">
        <ele>254.3</ele>
        <time>2020-06-30T08:37:20Z</time>
      </trkpt>
      <trkpt lat="48.64237" lon="5.13359">
        <ele>254.7</ele>
        <time>2020-06-30T08:37:21Z</time>
      </trkpt>
      <trkpt lat="48.6424" lon="5.13352">
        <ele>255</ele>
        <time>2020-06-30T08:37:22Z</time>
      </trkpt>
      <trkpt lat="48.64243" lon="5.13347">
        <ele>255.3</ele>
        <time>2020-06-30T08:37:23Z</time>
      </trkpt>
      <trkpt lat="48.64246" lon="5.13341">
        <ele>255.6</ele>
        <time>2020-06-30T08:37:24Z</time>
      </trkpt>
      <trkpt lat="48.64249" lon="5.13335">
        <ele>255.9</ele>
        <time>2020-06-30T08:37:25Z</time>
      </trkpt>
      <trkpt lat="48.64252" lon="5.13331">
        <ele>256.1</ele>
        <time>2020-06-30T08:37:26Z</time>
      </trkpt>
      <trkpt lat="48.64254" lon="5.13326">
        <ele>256.4</ele>
        <time>2020-06-30T08:37:27Z</time>
      </trkpt>
      <trkpt lat="48.64258" lon="5.13321">
        <ele>256.6</ele>
        <time>2020-06-30T08:37:28Z</time>
      </trkpt>
      <trkpt lat="48.64262" lon="5.13316">
        <ele>256.9</ele>
        <time>2020-06-30T08:37:29Z</time>
      </trkpt>
      <trkpt lat="48.64265" lon="5.1331">
        <ele>257.2</ele>
        <time>2020-06-30T08:37:30Z</time>
      </trkpt>
      <trkpt lat="48.64269" lon="5.13305">
        <ele>257.6</ele>
        <time>2020-06-30T08:37:31Z</time>
      </trkpt>
      <trkpt lat="48.64273" lon="5.13301">
        <ele>257.9</ele>
        <time>2020-06-30T08:37:32Z</time>
      </trkpt>
      <trkpt lat="48.64276" lon="5.13297">
        <ele>258.1</ele>
        <time>2020-06-30T08:37:33Z</time>
      </trkpt>
      <trkpt lat="48.6428" lon="5.13291">
        <ele>258.3</ele>
        <time>2020-06-30T08:37:34Z</time>
      </trkpt>
      <trkpt lat="48.64284" lon="5.13285">
        <ele>258.5</ele>
        <time>2020-06-30T08:37:35Z</time>
      </trkpt>
      <trkpt lat="48.64287" lon="5.1328">
        <ele>258.6</ele>
        <time>2020-06-30T08:37:36Z</time>
      </trkpt>
      <trkpt lat="48.64289" lon="5.13277">
        <ele>258.7</ele>
        <time>2020-06-30T08:37:37Z</time>
      </trkpt>
      <trkpt lat="48.64291" lon="5.13273">
        <ele>258.8</ele>
        <time>2020-06-30T08:37:38Z</time>
      </trkpt>
      <trkpt lat="48.64294" lon="5.13269">
        <ele>258.9</ele>
        <time>2020-06-30T08:37:39Z</time>
      </trkpt>
      <trkpt lat="48.64296" lon="5.13265">
        <ele>259</ele>
        <time>2020-06-30T08:37:40Z</time>
      </trkpt>
      <trkpt lat="48.64298" lon="5.13261">
        <ele>259.1</ele>
        <time>2020-06-30T08:37:41Z</time>
      </trkpt>
      <trkpt lat="48.643" lon="5.13256">
        <ele>259.3</ele>
        <time>2020-06-30T08:37:42Z</time>
      </trkpt>
      <trkpt lat="48.64302" lon="5.13252">
        <ele>259.4</ele>
        <time>2020-06-30T08:37:43Z</time>
      </trkpt>
      <trkpt lat="48.64304" lon="5.13247">
        <ele>259.6</ele>
        <time>2020-06-30T08:37:44Z</time>
      </trkpt>
      <trkpt lat="48.64307" lon="5.13241">
        <ele>259.7</ele>
        <time>2020-06-30T08:37:45Z</time>
      </trkpt>
      <trkpt lat="48.64309" lon="5.13235">
        <ele>259.9</ele>
        <time>2020-06-30T08:37:46Z</time>
      </trkpt>
      <trkpt lat="48.6431" lon="5.1323">
        <ele>260</ele>
        <time>2020-06-30T08:37:47Z</time>
      </trkpt>
      <trkpt lat="48.64311" lon="5.13224">
        <ele>260.1</ele>
        <time>2020-06-30T08:37:48Z</time>
      </trkpt>
      <trkpt lat="48.64311" lon="5.1322">
        <ele>260.1</ele>
        <time>2020-06-30T08:37:49Z</time>
      </trkpt>
      <trkpt lat="48.64311" lon="5.13214">
        <ele>260.3</ele>
        <time>2020-06-30T08:37:50Z</time>
      </trkpt>
      <trkpt lat="48.64312" lon="5.13208">
        <ele>260.4</ele>
        <time>2020-06-30T08:37:51Z</time>
      </trkpt>
      <trkpt lat="48.64313" lon="5.13206">
        <ele>260.4</ele>
        <time>2020-06-30T08:37:52Z</time>
      </trkpt>
      <trkpt lat="48.64313" lon="5.13203">
        <ele>260.4</ele>
        <time>2020-06-30T08:37:53Z</time>
      </trkpt>
      <trkpt lat="48.64312" lon="5.13201">
        <ele>260.5</ele>
        <time>2020-06-30T08:37:54Z</time>
      </trkpt>
      <trkpt lat="48.64312" lon="5.13198">
        <ele>260.5</ele>
        <time>2020-06-30T08:37:55Z</time>
      </trkpt>
      <trkpt lat="48.6431" lon="5.13193">
        <ele>260.7</ele>
        <time>2020-06-30T08:37:56Z</time>
      </trkpt>
      <trkpt lat="48.6431" lon="5.13191">
        <ele>260.6</ele>
        <time>2020-06-30T08:37:57Z</time>
      </trkpt>
      <trkpt lat="48.64309" lon="5.13187">
        <ele>260.6</ele>
        <time>2020-06-30T08:37:58Z</time>
      </trkpt>
      <trkpt lat="48.64308" lon="5.13186">
        <ele>260.5</ele>
        <time>2020-06-30T08:37:59Z</time>
      </trkpt>
      <trkpt lat="48.64305" lon="5.13186">
        <ele>260.4</ele>
        <time>2020-06-30T08:38:00Z</time>
      </trkpt>
      <trkpt lat="48.64302" lon="5.13184">
        <ele>260.4</ele>
        <time>2020-06-30T08:38:01Z</time>
      </trkpt>
      <trkpt lat="48.64298" lon="5.13184">
        <ele>260.3</ele>
        <time>2020-06-30T08:38:02Z</time>
      </trkpt>
      <trkpt lat="48.64295" lon="5.13184">
        <ele>260.2</ele>
        <time>2020-06-30T08:38:03Z</time>
      </trkpt>
      <trkpt lat="48.64291" lon="5.13184">
        <ele>260.1</ele>
        <time>2020-06-30T08:38:04Z</time>
      </trkpt>
      <trkpt lat="48.64286" lon="5.13183">
        <ele>260</ele>
        <time>2020-06-30T08:38:05Z</time>
      </trkpt>
      <trkpt lat="48.64282" lon="5.13183">
        <ele>259.9</ele>
        <time>2020-06-30T08:38:06Z</time>
      </trkpt>
      <trkpt lat="48.64277" lon="5.13182">
        <ele>259.7</ele>
        <time>2020-06-30T08:38:07Z</time>
      </trkpt>
      <trkpt lat="48.64273" lon="5.13182">
        <ele>259.7</ele>
        <time>2020-06-30T08:38:08Z</time>
      </trkpt>
      <trkpt lat="48.64269" lon="5.13181">
        <ele>259.6</ele>
        <time>2020-06-30T08:38:09Z</time>
      </trkpt>
      <trkpt lat="48.64265" lon="5.13181">
        <ele>259.5</ele>
        <time>2020-06-30T08:38:10Z</time>
      </trkpt>
      <trkpt lat="48.64261" lon="5.1318">
        <ele>259.4</ele>
        <time>2020-06-30T08:38:11Z</time>
      </trkpt>
      <trkpt lat="48.64256" lon="5.13179">
        <ele>259.2</ele>
        <time>2020-06-30T08:38:12Z</time>
      </trkpt>
      <trkpt lat="48.64251" lon="5.13179">
        <ele>259.2</ele>
        <time>2020-06-30T08:38:13Z</time>
      </trkpt>
      <trkpt lat="48.64247" lon="5.1318">
        <ele>259.1</ele>
        <time>2020-06-30T08:38:14Z</time>
      </trkpt>
      <trkpt lat="48.64243" lon="5.13181">
        <ele>259</ele>
        <time>2020-06-30T08:38:15Z</time>
      </trkpt>
      <trkpt lat="48.64238" lon="5.1318">
        <ele>258.9</ele>
        <time>2020-06-30T08:38:16Z</time>
      </trkpt>
      <trkpt lat="48.64233" lon="5.1318">
        <ele>258.8</ele>
        <time>2020-06-30T08:38:17Z</time>
      </trkpt>
      <trkpt lat="48.64229" lon="5.13179">
        <ele>258.7</ele>
        <time>2020-06-30T08:38:18Z</time>
      </trkpt>
      <trkpt lat="48.64224" lon="5.13178">
        <ele>258.6</ele>
        <time>2020-06-30T08:38:19Z</time>
      </trkpt>
      <trkpt lat="48.64219" lon="5.13178">
        <ele>258.4</ele>
        <time>2020-06-30T08:38:20Z</time>
      </trkpt>
      <trkpt lat="48.64212" lon="5.13177">
        <ele>258.3</ele>
        <time>2020-06-30T08:38:21Z</time>
      </trkpt>
      <trkpt lat="48.64206" lon="5.13177">
        <ele>258.2</ele>
        <time>2020-06-30T08:38:22Z</time>
      </trkpt>
      <trkpt lat="48.642" lon="5.13176">
        <ele>258.1</ele>
        <time>2020-06-30T08:38:23Z</time>
      </trkpt>
      <trkpt lat="48.64195" lon="5.13176">
        <ele>258</ele>
        <time>2020-06-30T08:38:24Z</time>
      </trkpt>
      <trkpt lat="48.6419" lon="5.13175">
        <ele>257.9</ele>
        <time>2020-06-30T08:38:25Z</time>
      </trkpt>
      <trkpt lat="48.64185" lon="5.13176">
        <ele>257.9</ele>
        <time>2020-06-30T08:38:26Z</time>
      </trkpt>
      <trkpt lat="48.6418" lon="5.13177">
        <ele>257.8</ele>
        <time>2020-06-30T08:38:27Z</time>
      </trkpt>
      <trkpt lat="48.64174" lon="5.13177">
        <ele>257.7</ele>
        <time>2020-06-30T08:38:28Z</time>
      </trkpt>
      <trkpt lat="48.64168" lon="5.13176">
        <ele>257.6</ele>
        <time>2020-06-30T08:38:29Z</time>
      </trkpt>
      <trkpt lat="48.64163" lon="5.13175">
        <ele>257.5</ele>
        <time>2020-06-30T08:38:30Z</time>
      </trkpt>
      <trkpt lat="48.64157" lon="5.13174">
        <ele>257.5</ele>
        <time>2020-06-30T08:38:31Z</time>
      </trkpt>
      <trkpt lat="48.64152" lon="5.13172">
        <ele>257.4</ele>
        <time>2020-06-30T08:38:32Z</time>
      </trkpt>
      <trkpt lat="48.64145" lon="5.13172">
        <ele>257.3</ele>
        <time>2020-06-30T08:38:33Z</time>
      </trkpt>
      <trkpt lat="48.64139" lon="5.1317">
        <ele>257.2</ele>
        <time>2020-06-30T08:38:34Z</time>
      </trkpt>
      <trkpt lat="48.64134" lon="5.13169">
        <ele>257.2</ele>
        <time>2020-06-30T08:38:35Z</time>
      </trkpt>
      <trkpt lat="48.64129" lon="5.13166">
        <ele>257.1</ele>
        <time>2020-06-30T08:38:36Z</time>
      </trkpt>
      <trkpt lat="48.64123" lon="5.13164">
        <ele>257</ele>
        <time>2020-06-30T08:38:37Z</time>
      </trkpt>
      <trkpt lat="48.64117" lon="5.13162">
        <ele>256.9</ele>
        <time>2020-06-30T08:38:38Z</time>
      </trkpt>
      <trkpt lat="48.64112" lon="5.1316">
        <ele>256.9</ele>
        <time>2020-06-30T08:38:39Z</time>
      </trkpt>
      <trkpt lat="48.64106" lon="5.13157">
        <ele>256.8</ele>
        <time>2020-06-30T08:38:40Z</time>
      </trkpt>
      <trkpt lat="48.64101" lon="5.13153">
        <ele>256.7</ele>
        <time>2020-06-30T08:38:41Z</time>
      </trkpt>
      <trkpt lat="48.64094" lon="5.13151">
        <ele>256.7</ele>
        <time>2020-06-30T08:38:42Z</time>
      </trkpt>
      <trkpt lat="48.64088" lon="5.13148">
        <ele>256.7</ele>
        <time>2020-06-30T08:38:43Z</time>
      </trkpt>
      <trkpt lat="48.64083" lon="5.13145">
        <ele>256.8</ele>
        <time>2020-06-30T08:38:44Z</time>
      </trkpt>
      <trkpt lat="48.64077" lon="5.13141">
        <ele>256.8</ele>
        <time>2020-06-30T08:38:45Z</time>
      </trkpt>
      <trkpt lat="48.64072" lon="5.13139">
        <ele>256.8</ele>
        <time>2020-06-30T08:38:46Z</time>
      </trkpt>
      <trkpt lat="48.64066" lon="5.13135">
        <ele>256.9</ele>
        <time>2020-06-30T08:38:47Z</time>
      </trkpt>
      <trkpt lat="48.6406" lon="5.13133">
        <ele>257</ele>
        <time>2020-06-30T08:38:48Z</time>
      </trkpt>
      <trkpt lat="48.64055" lon="5.13131">
        <ele>257.1</ele>
        <time>2020-06-30T08:38:49Z</time>
      </trkpt>
      <trkpt lat="48.6405" lon="5.1313">
        <ele>257.1</ele>
        <time>2020-06-30T08:38:50Z</time>
      </trkpt>
      <trkpt lat="48.64044" lon="5.13127">
        <ele>257.2</ele>
        <time>2020-06-30T08:38:51Z</time>
      </trkpt>
      <trkpt lat="48.6404" lon="5.13126">
        <ele>257.3</ele>
        <time>2020-06-30T08:38:52Z</time>
      </trkpt>
      <trkpt lat="48.64035" lon="5.13123">
        <ele>257.4</ele>
        <time>2020-06-30T08:38:53Z</time>
      </trkpt>
      <trkpt lat="48.64031" lon="5.13121">
        <ele>257.5</ele>
        <time>2020-06-30T08:38:54Z</time>
      </trkpt>
      <trkpt lat="48.64027" lon="5.13118">
        <ele>257.6</ele>
        <time>2020-06-30T08:38:55Z</time>
      </trkpt>
      <trkpt lat="48.64024" lon="5.13116">
        <ele>257.7</ele>
        <time>2020-06-30T08:38:56Z</time>
      </trkpt>
      <trkpt lat="48.64022" lon="5.13115">
        <ele>257.7</ele>
        <time>2020-06-30T08:38:57Z</time>
      </trkpt>
      <trkpt lat="48.6402" lon="5.13114">
        <ele>257.7</ele>
        <time>2020-06-30T08:38:58Z</time>
      </trkpt>
      <trkpt lat="48.64021" lon="5.13114">
        <ele>257.7</ele>
        <time>2020-06-30T08:38:59Z</time>
      </trkpt>
      <trkpt lat="48.64019" lon="5.13112">
        <ele>257.7</ele>
        <time>2020-06-30T08:39:00Z</time>
      </trkpt>
      <trkpt lat="48.64018" lon="5.13111">
        <ele>257.7</ele>
        <time>2020-06-30T08:39:01Z</time>
      </trkpt>
      <trkpt lat="48.64016" lon="5.13107">
        <ele>257.7</ele>
        <time>2020-06-30T08:39:02Z</time>
      </trkpt>
      <trkpt lat="48.64017" lon="5.13107">
        <ele>257.7</ele>
        <time>2020-06-30T08:39:03Z</time>
      </trkpt>
      <trkpt lat="48.64017" lon="5.13108">
        <ele>257.7</ele>
        <time>2020-06-30T08:39:04Z</time>
      </trkpt>
      <trkpt lat="48.64017" lon="5.13109">
        <ele>257.7</ele>
        <time>2020-06-30T08:39:05Z</time>
      </trkpt>
      <trkpt lat="48.64017" lon="5.13109">
        <ele>257.7</ele>
        <time>2020-06-30T08:39:06Z</time>
      </trkpt>
      <trkpt lat="48.64017" lon="5.13109">
        <ele>257.7</ele>
        <time>2020-06-30T08:39:07Z</time>
      </trkpt>
      <trkpt lat="48.64017" lon="5.13109">
        <ele>257.7</ele>
        <time>2020-06-30T08:39:08Z</time>
      </trkpt>
      <trkpt lat="48.64017" lon="5.13109">
        <ele>257.7</ele>
        <time>2020-06-30T08:39:09Z</time>
      </trkpt>
      <trkpt lat="48.64017" lon="5.13109">
        <ele>257.7</ele>
        <time>2020-06-30T08:39:10Z</time>
      </trkpt>
      <trkpt lat="48.64017" lon="5.13108">
        <ele>257.7</ele>
        <time>2020-06-30T08:39:11Z</time>
      </trkpt>
      <trkpt lat="48.64017" lon="5.13109">
        <ele>257.7</ele>
        <time>2020-06-30T08:39:12Z</time>
      </trkpt>
      <trkpt lat="48.64015" lon="5.13101">
        <ele>257.7</ele>
        <time>2020-06-30T08:40:01Z</time>
      </trkpt>
      <trkpt lat="48.64014" lon="5.131">
        <ele>257.7</ele>
        <time>2020-06-30T08:40:02Z</time>
      </trkpt>
      <trkpt lat="48.64013" lon="5.13097">
        <ele>257.8</ele>
        <time>2020-06-30T08:40:03Z</time>
      </trkpt>
      <trkpt lat="48.64013" lon="5.13095">
        <ele>257.8</ele>
        <time>2020-06-30T08:40:04Z</time>
      </trkpt>
      <trkpt lat="48.64012" lon="5.13091">
        <ele>257.8</ele>
        <time>2020-06-30T08:40:05Z</time>
      </trkpt>
      <trkpt lat="48.64012" lon="5.13089">
        <ele>257.8</ele>
        <time>2020-06-30T08:40:06Z</time>
      </trkpt>
      <trkpt lat="48.64011" lon="5.13084">
        <ele>257.8</ele>
        <time>2020-06-30T08:40:07Z</time>
      </trkpt>
      <trkpt lat="48.6401" lon="5.13078">
        <ele>257.8</ele>
        <time>2020-06-30T08:40:08Z</time>
      </trkpt>
      <trkpt lat="48.64009" lon="5.13072">
        <ele>257.8</ele>
        <time>2020-06-30T08:40:09Z</time>
      </trkpt>
      <trkpt lat="48.64007" lon="5.13066">
        <ele>257.8</ele>
        <time>2020-06-30T08:40:10Z</time>
      </trkpt>
      <trkpt lat="48.64006" lon="5.13061">
        <ele>257.9</ele>
        <time>2020-06-30T08:40:11Z</time>
      </trkpt>
      <trkpt lat="48.64004" lon="5.13055">
        <ele>257.9</ele>
        <time>2020-06-30T08:40:12Z</time>
      </trkpt>
      <trkpt lat="48.64004" lon="5.13053">
        <ele>257.9</ele>
        <time>2020-06-30T08:40:13Z</time>
      </trkpt>
      <trkpt lat="48.64003" lon="5.13048">
        <ele>257.9</ele>
        <time>2020-06-30T08:40:14Z</time>
      </trkpt>
      <trkpt lat="48.64002" lon="5.13046">
        <ele>257.9</ele>
        <time>2020-06-30T08:40:15Z</time>
      </trkpt>
      <trkpt lat="48.64001" lon="5.13039">
        <ele>258</ele>
        <time>2020-06-30T08:40:16Z</time>
      </trkpt>
      <trkpt lat="48.64001" lon="5.13037">
        <ele>258</ele>
        <time>2020-06-30T08:40:17Z</time>
      </trkpt>
      <trkpt lat="48.63999" lon="5.13031">
        <ele>258</ele>
        <time>2020-06-30T08:40:18Z</time>
      </trkpt>
      <trkpt lat="48.63998" lon="5.13025">
        <ele>258</ele>
        <time>2020-06-30T08:40:19Z</time>
      </trkpt>
      <trkpt lat="48.63997" lon="5.13019">
        <ele>258.1</ele>
        <time>2020-06-30T08:40:20Z</time>
      </trkpt>
      <trkpt lat="48.63995" lon="5.13014">
        <ele>258.1</ele>
        <time>2020-06-30T08:40:21Z</time>
      </trkpt>
      <trkpt lat="48.63994" lon="5.13009">
        <ele>258.2</ele>
        <time>2020-06-30T08:40:22Z</time>
      </trkpt>
      <trkpt lat="48.63994" lon="5.13005">
        <ele>258.2</ele>
        <time>2020-06-30T08:40:23Z</time>
      </trkpt>
      <trkpt lat="48.63993" lon="5.12999">
        <ele>258.3</ele>
        <time>2020-06-30T08:40:24Z</time>
      </trkpt>
      <trkpt lat="48.63993" lon="5.12997">
        <ele>258.3</ele>
        <time>2020-06-30T08:40:25Z</time>
      </trkpt>
      <trkpt lat="48.63991" lon="5.12991">
        <ele>258.5</ele>
        <time>2020-06-30T08:40:26Z</time>
      </trkpt>
      <trkpt lat="48.6399" lon="5.12989">
        <ele>258.5</ele>
        <time>2020-06-30T08:40:27Z</time>
      </trkpt>
      <trkpt lat="48.63988" lon="5.12985">
        <ele>258.6</ele>
        <time>2020-06-30T08:40:28Z</time>
      </trkpt>
      <trkpt lat="48.63987" lon="5.1298">
        <ele>258.7</ele>
        <time>2020-06-30T08:40:29Z</time>
      </trkpt>
      <trkpt lat="48.63986" lon="5.12974">
        <ele>258.8</ele>
        <time>2020-06-30T08:40:30Z</time>
      </trkpt>
      <trkpt lat="48.63985" lon="5.12971">
        <ele>258.9</ele>
        <time>2020-06-30T08:40:31Z</time>
      </trkpt>
      <trkpt lat="48.63983" lon="5.12966">
        <ele>259</ele>
        <time>2020-06-30T08:40:32Z</time>
      </trkpt>
      <trkpt lat="48.63982" lon="5.12961">
        <ele>259.1</ele>
        <time>2020-06-30T08:40:33Z</time>
      </trkpt>
      <trkpt lat="48.6398" lon="5.12955">
        <ele>259.2</ele>
        <time>2020-06-30T08:40:34Z</time>
      </trkpt>
      <trkpt lat="48.6398" lon="5.12949">
        <ele>259.2</ele>
        <time>2020-06-30T08:40:35Z</time>
      </trkpt>
      <trkpt lat="48.6398" lon="5.12947">
        <ele>259.3</ele>
        <time>2020-06-30T08:40:36Z</time>
      </trkpt>
      <trkpt lat="48.63979" lon="5.12942">
        <ele>259.3</ele>
        <time>2020-06-30T08:40:37Z</time>
      </trkpt>
      <trkpt lat="48.63979" lon="5.12939">
        <ele>259.4</ele>
        <time>2020-06-30T08:40:38Z</time>
      </trkpt>
      <trkpt lat="48.63978" lon="5.12933">
        <ele>259.5</ele>
        <time>2020-06-30T08:40:39Z</time>
      </trkpt>
      <trkpt lat="48.63976" lon="5.12928">
        <ele>259.6</ele>
        <time>2020-06-30T08:40:40Z</time>
      </trkpt>
      <trkpt lat="48.63976" lon="5.12926">
        <ele>259.7</ele>
        <time>2020-06-30T08:40:41Z</time>
      </trkpt>
      <trkpt lat="48.63975" lon="5.1292">
        <ele>259.8</ele>
        <time>2020-06-30T08:40:42Z</time>
      </trkpt>
      <trkpt lat="48.63975" lon="5.12917">
        <ele>259.9</ele>
        <time>2020-06-30T08:40:43Z</time>
      </trkpt>
      <trkpt lat="48.63974" lon="5.12912">
        <ele>260</ele>
        <time>2020-06-30T08:40:44Z</time>
      </trkpt>
      <trkpt lat="48.63972" lon="5.12906">
        <ele>260.2</ele>
        <time>2020-06-30T08:40:45Z</time>
      </trkpt>
      <trkpt lat="48.63972" lon="5.12904">
        <ele>260.3</ele>
        <time>2020-06-30T08:40:46Z</time>
      </trkpt>
      <trkpt lat="48.63971" lon="5.12899">
        <ele>260.4</ele>
        <time>2020-06-30T08:40:47Z</time>
      </trkpt>
      <trkpt lat="48.6397" lon="5.12894">
        <ele>260.5</ele>
        <time>2020-06-30T08:40:48Z</time>
      </trkpt>
      <trkpt lat="48.63969" lon="5.12889">
        <ele>260.6</ele>
        <time>2020-06-30T08:40:49Z</time>
      </trkpt>
      <trkpt lat="48.63968" lon="5.12884">
        <ele>260.6</ele>
        <time>2020-06-30T08:40:50Z</time>
      </trkpt>
      <trkpt lat="48.63967" lon="5.1288">
        <ele>260.6</ele>
        <time>2020-06-30T08:40:51Z</time>
      </trkpt>
      <trkpt lat="48.63965" lon="5.12874">
        <ele>260.7</ele>
        <time>2020-06-30T08:40:52Z</time>
      </trkpt>
      <trkpt lat="48.63964" lon="5.1287">
        <ele>260.8</ele>
        <time>2020-06-30T08:40:53Z</time>
      </trkpt>
      <trkpt lat="48.63962" lon="5.12865">
        <ele>260.8</ele>
        <time>2020-06-30T08:40:54Z</time>
      </trkpt>
      <trkpt lat="48.63961" lon="5.1286">
        <ele>260.9</ele>
        <time>2020-06-30T08:40:55Z</time>
      </trkpt>
      <trkpt lat="48.6396" lon="5.12855">
        <ele>261</ele>
        <time>2020-06-30T08:40:56Z</time>
      </trkpt>
      <trkpt lat="48.63959" lon="5.1285">
        <ele>261.1</ele>
        <time>2020-06-30T08:40:57Z</time>
      </trkpt>
      <trkpt lat="48.63958" lon="5.12845">
        <ele>261.2</ele>
        <time>2020-06-30T08:40:58Z</time>
      </trkpt>
      <trkpt lat="48.63957" lon="5.12839">
        <ele>261.3</ele>
        <time>2020-06-30T08:40:59Z</time>
      </trkpt>
      <trkpt lat="48.63956" lon="5.12835">
        <ele>261.4</ele>
        <time>2020-06-30T08:41:00Z</time>
      </trkpt>
      <trkpt lat="48.63954" lon="5.12829">
        <ele>261.6</ele>
        <time>2020-06-30T08:41:01Z</time>
      </trkpt>
      <trkpt lat="48.63954" lon="5.12827">
        <ele>261.6</ele>
        <time>2020-06-30T08:41:02Z</time>
      </trkpt>
      <trkpt lat="48.63952" lon="5.12822">
        <ele>261.7</ele>
        <time>2020-06-30T08:41:03Z</time>
      </trkpt>
      <trkpt lat="48.63951" lon="5.12816">
        <ele>261.9</ele>
        <time>2020-06-30T08:41:04Z</time>
      </trkpt>
      <trkpt lat="48.6395" lon="5.12812">
        <ele>262</ele>
        <time>2020-06-30T08:41:05Z</time>
      </trkpt>
      <trkpt lat="48.63949" lon="5.12807">
        <ele>262.1</ele>
        <time>2020-06-30T08:41:06Z</time>
      </trkpt>
      <trkpt lat="48.63948" lon="5.12802">
        <ele>262.1</ele>
        <time>2020-06-30T08:41:07Z</time>
      </trkpt>
      <trkpt lat="48.63947" lon="5.12796">
        <ele>262.3</ele>
        <time>2020-06-30T08:41:08Z</time>
      </trkpt>
      <trkpt lat="48.63947" lon="5.12794">
        <ele>262.3</ele>
        <time>2020-06-30T08:41:09Z</time>
      </trkpt>
      <trkpt lat="48.63946" lon="5.1279">
        <ele>262.4</ele>
        <time>2020-06-30T08:41:10Z</time>
      </trkpt>
      <trkpt lat="48.63945" lon="5.12785">
        <ele>262.5</ele>
        <time>2020-06-30T08:41:11Z</time>
      </trkpt>
      <trkpt lat="48.63944" lon="5.12779">
        <ele>262.6</ele>
        <time>2020-06-30T08:41:12Z</time>
      </trkpt>
      <trkpt lat="48.63943" lon="5.12773">
        <ele>262.7</ele>
        <time>2020-06-30T08:41:13Z</time>
      </trkpt>
      <trkpt lat="48.63941" lon="5.12768">
        <ele>262.8</ele>
        <time>2020-06-30T08:41:14Z</time>
      </trkpt>
      <trkpt lat="48.6394" lon="5.12763">
        <ele>262.9</ele>
        <time>2020-06-30T08:41:15Z</time>
      </trkpt>
      <trkpt lat="48.63939" lon="5.12759">
        <ele>263</ele>
        <time>2020-06-30T08:41:16Z</time>
      </trkpt>
      <trkpt lat="48.63939" lon="5.12753">
        <ele>263</ele>
        <time>2020-06-30T08:41:17Z</time>
      </trkpt>
      <trkpt lat="48.63938" lon="5.12747">
        <ele>263.1</ele>
        <time>2020-06-30T08:41:18Z</time>
      </trkpt>
      <trkpt lat="48.63938" lon="5.12744">
        <ele>263.2</ele>
        <time>2020-06-30T08:41:19Z</time>
      </trkpt>
      <trkpt lat="48.63938" lon="5.1274">
        <ele>263.2</ele>
        <time>2020-06-30T08:41:20Z</time>
      </trkpt>
      <trkpt lat="48.63938" lon="5.12737">
        <ele>263.3</ele>
        <time>2020-06-30T08:41:21Z</time>
      </trkpt>
      <trkpt lat="48.63938" lon="5.12732">
        <ele>263.3</ele>
        <time>2020-06-30T08:41:22Z</time>
      </trkpt>
      <trkpt lat="48.63938" lon="5.12726">
        <ele>263.4</ele>
        <time>2020-06-30T08:41:23Z</time>
      </trkpt>
      <trkpt lat="48.63938" lon="5.12723">
        <ele>263.4</ele>
        <time>2020-06-30T08:41:24Z</time>
      </trkpt>
      <trkpt lat="48.63937" lon="5.12716">
        <ele>263.5</ele>
        <time>2020-06-30T08:41:25Z</time>
      </trkpt>
      <trkpt lat="48.63936" lon="5.1271">
        <ele>263.6</ele>
        <time>2020-06-30T08:41:26Z</time>
      </trkpt>
      <trkpt lat="48.63938" lon="5.12705">
        <ele>263.6</ele>
        <time>2020-06-30T08:41:27Z</time>
      </trkpt>
      <trkpt lat="48.63936" lon="5.12696">
        <ele>263.7</ele>
        <time>2020-06-30T08:41:28Z</time>
      </trkpt>
      <trkpt lat="48.63937" lon="5.12691">
        <ele>263.7</ele>
        <time>2020-06-30T08:41:29Z</time>
      </trkpt>
      <trkpt lat="48.63937" lon="5.12686">
        <ele>263.7</ele>
        <time>2020-06-30T08:41:30Z</time>
      </trkpt>
      <trkpt lat="48.63937" lon="5.1268">
        <ele>263.8</ele>
        <time>2020-06-30T08:41:31Z</time>
      </trkpt>
      <trkpt lat="48.63937" lon="5.12675">
        <ele>263.8</ele>
        <time>2020-06-30T08:41:32Z</time>
      </trkpt>
      <trkpt lat="48.63937" lon="5.12669">
        <ele>263.8</ele>
        <time>2020-06-30T08:41:33Z</time>
      </trkpt>
      <trkpt lat="48.63938" lon="5.12663">
        <ele>263.8</ele>
        <time>2020-06-30T08:41:34Z</time>
      </trkpt>
      <trkpt lat="48.63939" lon="5.12656">
        <ele>263.8</ele>
        <time>2020-06-30T08:41:35Z</time>
      </trkpt>
      <trkpt lat="48.6394" lon="5.12649">
        <ele>263.9</ele>
        <time>2020-06-30T08:41:36Z</time>
      </trkpt>
      <trkpt lat="48.63941" lon="5.12642">
        <ele>263.9</ele>
        <time>2020-06-30T08:41:37Z</time>
      </trkpt>
      <trkpt lat="48.63943" lon="5.12635">
        <ele>263.9</ele>
        <time>2020-06-30T08:41:38Z</time>
      </trkpt>
      <trkpt lat="48.63944" lon="5.12629">
        <ele>263.9</ele>
        <time>2020-06-30T08:41:39Z</time>
      </trkpt>
      <trkpt lat="48.63946" lon="5.12621">
        <ele>263.9</ele>
        <time>2020-06-30T08:41:40Z</time>
      </trkpt>
      <trkpt lat="48.63947" lon="5.12615">
        <ele>263.9</ele>
        <time>2020-06-30T08:41:41Z</time>
      </trkpt>
      <trkpt lat="48.63948" lon="5.12608">
        <ele>263.9</ele>
        <time>2020-06-30T08:41:42Z</time>
      </trkpt>
      <trkpt lat="48.63948" lon="5.12601">
        <ele>264</ele>
        <time>2020-06-30T08:41:43Z</time>
      </trkpt>
      <trkpt lat="48.63949" lon="5.12593">
        <ele>264</ele>
        <time>2020-06-30T08:41:44Z</time>
      </trkpt>
      <trkpt lat="48.6395" lon="5.12585">
        <ele>264</ele>
        <time>2020-06-30T08:41:45Z</time>
      </trkpt>
      <trkpt lat="48.63951" lon="5.12576">
        <ele>264</ele>
        <time>2020-06-30T08:41:46Z</time>
      </trkpt>
      <trkpt lat="48.63952" lon="5.1257">
        <ele>264</ele>
        <time>2020-06-30T08:41:47Z</time>
      </trkpt>
      <trkpt lat="48.63953" lon="5.12562">
        <ele>264</ele>
        <time>2020-06-30T08:41:48Z</time>
      </trkpt>
      <trkpt lat="48.63954" lon="5.12553">
        <ele>264</ele>
        <time>2020-06-30T08:41:49Z</time>
      </trkpt>
      <trkpt lat="48.63956" lon="5.12545">
        <ele>264</ele>
        <time>2020-06-30T08:41:50Z</time>
      </trkpt>
      <trkpt lat="48.63956" lon="5.12537">
        <ele>264</ele>
        <time>2020-06-30T08:41:51Z</time>
      </trkpt>
      <trkpt lat="48.63958" lon="5.12527">
        <ele>264</ele>
        <time>2020-06-30T08:41:52Z</time>
      </trkpt>
      <trkpt lat="48.63958" lon="5.12521">
        <ele>264</ele>
        <time>2020-06-30T08:41:53Z</time>
      </trkpt>
      <trkpt lat="48.63961" lon="5.12513">
        <ele>264</ele>
        <time>2020-06-30T08:41:54Z</time>
      </trkpt>
      <trkpt lat="48.63962" lon="5.12506">
        <ele>264</ele>
        <time>2020-06-30T08:41:55Z</time>
      </trkpt>
      <trkpt lat="48.63963" lon="5.12499">
        <ele>264</ele>
        <time>2020-06-30T08:41:56Z</time>
      </trkpt>
      <trkpt lat="48.63963" lon="5.12492">
        <ele>264</ele>
        <time>2020-06-30T08:41:57Z</time>
      </trkpt>
      <trkpt lat="48.63965" lon="5.12485">
        <ele>264</ele>
        <time>2020-06-30T08:41:58Z</time>
      </trkpt>
      <trkpt lat="48.63965" lon="5.12476">
        <ele>264.1</ele>
        <time>2020-06-30T08:41:59Z</time>
      </trkpt>
      <trkpt lat="48.63966" lon="5.12467">
        <ele>264.1</ele>
        <time>2020-06-30T08:42:00Z</time>
      </trkpt>
      <trkpt lat="48.63967" lon="5.12459">
        <ele>264.1</ele>
        <time>2020-06-30T08:42:01Z</time>
      </trkpt>
      <trkpt lat="48.63968" lon="5.12451">
        <ele>264.1</ele>
        <time>2020-06-30T08:42:02Z</time>
      </trkpt>
      <trkpt lat="48.63968" lon="5.12443">
        <ele>264.1</ele>
        <time>2020-06-30T08:42:03Z</time>
      </trkpt>
      <trkpt lat="48.63969" lon="5.12434">
        <ele>264.1</ele>
        <time>2020-06-30T08:42:04Z</time>
      </trkpt>
      <trkpt lat="48.63969" lon="5.12425">
        <ele>264.1</ele>
        <time>2020-06-30T08:42:05Z</time>
      </trkpt>
      <trkpt lat="48.6397" lon="5.12416">
        <ele>264.2</ele>
        <time>2020-06-30T08:42:06Z</time>
      </trkpt>
      <trkpt lat="48.63971" lon="5.12407">
        <ele>264.2</ele>
        <time>2020-06-30T08:42:07Z</time>
      </trkpt>
      <trkpt lat="48.63971" lon="5.12399">
        <ele>264.2</ele>
        <time>2020-06-30T08:42:08Z</time>
      </trkpt>
      <trkpt lat="48.63972" lon="5.1239">
        <ele>264.3</ele>
        <time>2020-06-30T08:42:09Z</time>
      </trkpt>
      <trkpt lat="48.63973" lon="5.12382">
        <ele>264.3</ele>
        <time>2020-06-30T08:42:10Z</time>
      </trkpt>
      <trkpt lat="48.63976" lon="5.12377">
        <ele>264.4</ele>
        <time>2020-06-30T08:42:11Z</time>
      </trkpt>
      <trkpt lat="48.63977" lon="5.12368">
        <ele>264.4</ele>
        <time>2020-06-30T08:42:12Z</time>
      </trkpt>
      <trkpt lat="48.63978" lon="5.12361">
        <ele>264.4</ele>
        <time>2020-06-30T08:42:13Z</time>
      </trkpt>
      <trkpt lat="48.63979" lon="5.12354">
        <ele>264.5</ele>
        <time>2020-06-30T08:42:14Z</time>
      </trkpt>
      <trkpt lat="48.63981" lon="5.12346">
        <ele>264.5</ele>
        <time>2020-06-30T08:42:15Z</time>
      </trkpt>
      <trkpt lat="48.63982" lon="5.12338">
        <ele>264.6</ele>
        <time>2020-06-30T08:42:16Z</time>
      </trkpt>
      <trkpt lat="48.63983" lon="5.12331">
        <ele>264.7</ele>
        <time>2020-06-30T08:42:17Z</time>
      </trkpt>
      <trkpt lat="48.63984" lon="5.12323">
        <ele>264.8</ele>
        <time>2020-06-30T08:42:18Z</time>
      </trkpt>
      <trkpt lat="48.63985" lon="5.12315">
        <ele>264.9</ele>
        <time>2020-06-30T08:42:19Z</time>
      </trkpt>
      <trkpt lat="48.63985" lon="5.12307">
        <ele>265</ele>
        <time>2020-06-30T08:42:20Z</time>
      </trkpt>
      <trkpt lat="48.63986" lon="5.123">
        <ele>265.1</ele>
        <time>2020-06-30T08:42:21Z</time>
      </trkpt>
      <trkpt lat="48.63987" lon="5.12292">
        <ele>265.2</ele>
        <time>2020-06-30T08:42:22Z</time>
      </trkpt>
      <trkpt lat="48.63988" lon="5.12284">
        <ele>265.2</ele>
        <time>2020-06-30T08:42:23Z</time>
      </trkpt>
      <trkpt lat="48.63989" lon="5.12278">
        <ele>265.3</ele>
        <time>2020-06-30T08:42:24Z</time>
      </trkpt>
      <trkpt lat="48.6399" lon="5.1227">
        <ele>265.4</ele>
        <time>2020-06-30T08:42:25Z</time>
      </trkpt>
      <trkpt lat="48.63991" lon="5.12262">
        <ele>265.5</ele>
        <time>2020-06-30T08:42:26Z</time>
      </trkpt>
      <trkpt lat="48.63992" lon="5.12254">
        <ele>265.6</ele>
        <time>2020-06-30T08:42:27Z</time>
      </trkpt>
      <trkpt lat="48.63992" lon="5.12247">
        <ele>265.7</ele>
        <time>2020-06-30T08:42:28Z</time>
      </trkpt>
      <trkpt lat="48.63993" lon="5.12239">
        <ele>265.9</ele>
        <time>2020-06-30T08:42:29Z</time>
      </trkpt>
      <trkpt lat="48.63994" lon="5.12232">
        <ele>266</ele>
        <time>2020-06-30T08:42:30Z</time>
      </trkpt>
      <trkpt lat="48.63995" lon="5.12225">
        <ele>266.1</ele>
        <time>2020-06-30T08:42:31Z</time>
      </trkpt>
      <trkpt lat="48.63996" lon="5.12219">
        <ele>266.2</ele>
        <time>2020-06-30T08:42:32Z</time>
      </trkpt>
      <trkpt lat="48.63996" lon="5.12214">
        <ele>266.3</ele>
        <time>2020-06-30T08:42:33Z</time>
      </trkpt>
      <trkpt lat="48.63996" lon="5.12208">
        <ele>266.5</ele>
        <time>2020-06-30T08:42:34Z</time>
      </trkpt>
      <trkpt lat="48.63996" lon="5.12201">
        <ele>266.6</ele>
        <time>2020-06-30T08:42:35Z</time>
      </trkpt>
      <trkpt lat="48.63996" lon="5.12196">
        <ele>266.6</ele>
        <time>2020-06-30T08:42:36Z</time>
      </trkpt>
      <trkpt lat="48.63996" lon="5.1219">
        <ele>266.7</ele>
        <time>2020-06-30T08:42:37Z</time>
      </trkpt>
      <trkpt lat="48.63995" lon="5.12184">
        <ele>266.8</ele>
        <time>2020-06-30T08:42:38Z</time>
      </trkpt>
      <trkpt lat="48.63995" lon="5.12178">
        <ele>266.9</ele>
        <time>2020-06-30T08:42:39Z</time>
      </trkpt>
      <trkpt lat="48.63993" lon="5.1217">
        <ele>266.9</ele>
        <time>2020-06-30T08:42:40Z</time>
      </trkpt>
      <trkpt lat="48.63992" lon="5.12163">
        <ele>267</ele>
        <time>2020-06-30T08:42:41Z</time>
      </trkpt>
      <trkpt lat="48.63992" lon="5.12157">
        <ele>267.1</ele>
        <time>2020-06-30T08:42:42Z</time>
      </trkpt>
      <trkpt lat="48.63992" lon="5.12149">
        <ele>267.2</ele>
        <time>2020-06-30T08:42:43Z</time>
      </trkpt>
      <trkpt lat="48.63992" lon="5.12142">
        <ele>267.2</ele>
        <time>2020-06-30T08:42:44Z</time>
      </trkpt>
      <trkpt lat="48.63994" lon="5.12136">
        <ele>267.3</ele>
        <time>2020-06-30T08:42:45Z</time>
      </trkpt>
      <trkpt lat="48.63995" lon="5.12129">
        <ele>267.4</ele>
        <time>2020-06-30T08:42:46Z</time>
      </trkpt>
      <trkpt lat="48.63994" lon="5.12122">
        <ele>267.4</ele>
        <time>2020-06-30T08:42:47Z</time>
      </trkpt>
      <trkpt lat="48.63994" lon="5.12115">
        <ele>267.5</ele>
        <time>2020-06-30T08:42:48Z</time>
      </trkpt>
      <trkpt lat="48.63993" lon="5.12109">
        <ele>267.5</ele>
        <time>2020-06-30T08:42:49Z</time>
      </trkpt>
      <trkpt lat="48.63993" lon="5.12102">
        <ele>267.6</ele>
        <time>2020-06-30T08:42:50Z</time>
      </trkpt>
      <trkpt lat="48.63993" lon="5.12094">
        <ele>267.6</ele>
        <time>2020-06-30T08:42:51Z</time>
      </trkpt>
      <trkpt lat="48.63994" lon="5.12087">
        <ele>267.7</ele>
        <time>2020-06-30T08:42:52Z</time>
      </trkpt>
      <trkpt lat="48.63994" lon="5.12079">
        <ele>267.7</ele>
        <time>2020-06-30T08:42:53Z</time>
      </trkpt>
      <trkpt lat="48.63994" lon="5.12073">
        <ele>267.8</ele>
        <time>2020-06-30T08:42:54Z</time>
      </trkpt>
      <trkpt lat="48.63997" lon="5.12067">
        <ele>267.8</ele>
        <time>2020-06-30T08:42:55Z</time>
      </trkpt>
      <trkpt lat="48.63997" lon="5.1206">
        <ele>267.8</ele>
        <time>2020-06-30T08:42:56Z</time>
      </trkpt>
      <trkpt lat="48.63998" lon="5.12054">
        <ele>267.8</ele>
        <time>2020-06-30T08:42:57Z</time>
      </trkpt>
      <trkpt lat="48.63999" lon="5.12048">
        <ele>267.8</ele>
        <time>2020-06-30T08:42:58Z</time>
      </trkpt>
      <trkpt lat="48.64" lon="5.12041">
        <ele>267.8</ele>
        <time>2020-06-30T08:42:59Z</time>
      </trkpt>
      <trkpt lat="48.64001" lon="5.12035">
        <ele>267.8</ele>
        <time>2020-06-30T08:43:00Z</time>
      </trkpt>
      <trkpt lat="48.64001" lon="5.12026">
        <ele>267.8</ele>
        <time>2020-06-30T08:43:01Z</time>
      </trkpt>
      <trkpt lat="48.64002" lon="5.12019">
        <ele>267.7</ele>
        <time>2020-06-30T08:43:02Z</time>
      </trkpt>
      <trkpt lat="48.64002" lon="5.12013">
        <ele>267.7</ele>
        <time>2020-06-30T08:43:03Z</time>
      </trkpt>
      <trkpt lat="48.64002" lon="5.12006">
        <ele>267.7</ele>
        <time>2020-06-30T08:43:04Z</time>
      </trkpt>
      <trkpt lat="48.64002" lon="5.11999">
        <ele>267.6</ele>
        <time>2020-06-30T08:43:05Z</time>
      </trkpt>
      <trkpt lat="48.64002" lon="5.11993">
        <ele>267.5</ele>
        <time>2020-06-30T08:43:06Z</time>
      </trkpt>
      <trkpt lat="48.64003" lon="5.11987">
        <ele>267.4</ele>
        <time>2020-06-30T08:43:07Z</time>
      </trkpt>
      <trkpt lat="48.64004" lon="5.1198">
        <ele>267.3</ele>
        <time>2020-06-30T08:43:08Z</time>
      </trkpt>
      <trkpt lat="48.64004" lon="5.11973">
        <ele>267.2</ele>
        <time>2020-06-30T08:43:09Z</time>
      </trkpt>
      <trkpt lat="48.64005" lon="5.11967">
        <ele>267</ele>
        <time>2020-06-30T08:43:10Z</time>
      </trkpt>
      <trkpt lat="48.64005" lon="5.11961">
        <ele>266.8</ele>
        <time>2020-06-30T08:43:11Z</time>
      </trkpt>
      <trkpt lat="48.64006" lon="5.11955">
        <ele>266.6</ele>
        <time>2020-06-30T08:43:12Z</time>
      </trkpt>
      <trkpt lat="48.64007" lon="5.11948">
        <ele>266.4</ele>
        <time>2020-06-30T08:43:13Z</time>
      </trkpt>
      <trkpt lat="48.64008" lon="5.1194">
        <ele>266.1</ele>
        <time>2020-06-30T08:43:14Z</time>
      </trkpt>
      <trkpt lat="48.64009" lon="5.11933">
        <ele>265.8</ele>
        <time>2020-06-30T08:43:15Z</time>
      </trkpt>
      <trkpt lat="48.6401" lon="5.11924">
        <ele>265.5</ele>
        <time>2020-06-30T08:43:16Z</time>
      </trkpt>
      <trkpt lat="48.64011" lon="5.11915">
        <ele>265.2</ele>
        <time>2020-06-30T08:43:17Z</time>
      </trkpt>
      <trkpt lat="48.64013" lon="5.11904">
        <ele>264.9</ele>
        <time>2020-06-30T08:43:18Z</time>
      </trkpt>
      <trkpt lat="48.64014" lon="5.11894">
        <ele>264.6</ele>
        <time>2020-06-30T08:43:19Z</time>
      </trkpt>
      <trkpt lat="48.64014" lon="5.11882">
        <ele>264.3</ele>
        <time>2020-06-30T08:43:20Z</time>
      </trkpt>
      <trkpt lat="48.64016" lon="5.11871">
        <ele>264</ele>
        <time>2020-06-30T08:43:21Z</time>
      </trkpt>
      <trkpt lat="48.64017" lon="5.11861">
        <ele>263.8</ele>
        <time>2020-06-30T08:43:22Z</time>
      </trkpt>
      <trkpt lat="48.64018" lon="5.11851">
        <ele>263.6</ele>
        <time>2020-06-30T08:43:23Z</time>
      </trkpt>
      <trkpt lat="48.6402" lon="5.1184">
        <ele>263.4</ele>
        <time>2020-06-30T08:43:24Z</time>
      </trkpt>
      <trkpt lat="48.6402" lon="5.11831">
        <ele>263.2</ele>
        <time>2020-06-30T08:43:25Z</time>
      </trkpt>
      <trkpt lat="48.64021" lon="5.1182">
        <ele>263</ele>
        <time>2020-06-30T08:43:26Z</time>
      </trkpt>
      <trkpt lat="48.64021" lon="5.1181">
        <ele>262.9</ele>
        <time>2020-06-30T08:43:27Z</time>
      </trkpt>
      <trkpt lat="48.64023" lon="5.11801">
        <ele>262.8</ele>
        <time>2020-06-30T08:43:28Z</time>
      </trkpt>
      <trkpt lat="48.64024" lon="5.11791">
        <ele>262.7</ele>
        <time>2020-06-30T08:43:29Z</time>
      </trkpt>
      <trkpt lat="48.64025" lon="5.11783">
        <ele>262.7</ele>
        <time>2020-06-30T08:43:30Z</time>
      </trkpt>
      <trkpt lat="48.64026" lon="5.11774">
        <ele>262.6</ele>
        <time>2020-06-30T08:43:31Z</time>
      </trkpt>
      <trkpt lat="48.64027" lon="5.11765">
        <ele>262.5</ele>
        <time>2020-06-30T08:43:32Z</time>
      </trkpt>
      <trkpt lat="48.64029" lon="5.11756">
        <ele>262.5</ele>
        <time>2020-06-30T08:43:33Z</time>
      </trkpt>
      <trkpt lat="48.6403" lon="5.11748">
        <ele>262.5</ele>
        <time>2020-06-30T08:43:34Z</time>
      </trkpt>
      <trkpt lat="48.6403" lon="5.11739">
        <ele>262.4</ele>
        <time>2020-06-30T08:43:35Z</time>
      </trkpt>
      <trkpt lat="48.64031" lon="5.11731">
        <ele>262.9</ele>
        <time>2020-06-30T08:43:36Z</time>
      </trkpt>
      <trkpt lat="48.64031" lon="5.11722">
        <ele>263.2</ele>
        <time>2020-06-30T08:43:37Z</time>
      </trkpt>
      <trkpt lat="48.64031" lon="5.11713">
        <ele>263.5</ele>
        <time>2020-06-30T08:43:38Z</time>
      </trkpt>
      <trkpt lat="48.64033" lon="5.11704">
        <ele>263.6</ele>
        <time>2020-06-30T08:43:39Z</time>
      </trkpt>
      <trkpt lat="48.64035" lon="5.11695">
        <ele>263.7</ele>
        <time>2020-06-30T08:43:40Z</time>
      </trkpt>
      <trkpt lat="48.64034" lon="5.11686">
        <ele>263.8</ele>
        <time>2020-06-30T08:43:41Z</time>
      </trkpt>
      <trkpt lat="48.64035" lon="5.11677">
        <ele>263.9</ele>
        <time>2020-06-30T08:43:42Z</time>
      </trkpt>
      <trkpt lat="48.64037" lon="5.11669">
        <ele>264.1</ele>
        <time>2020-06-30T08:43:43Z</time>
      </trkpt>
      <trkpt lat="48.64037" lon="5.11661">
        <ele>264.3</ele>
        <time>2020-06-30T08:43:44Z</time>
      </trkpt>
      <trkpt lat="48.64038" lon="5.11653">
        <ele>264.4</ele>
        <time>2020-06-30T08:43:45Z</time>
      </trkpt>
      <trkpt lat="48.64038" lon="5.11644">
        <ele>264.6</ele>
        <time>2020-06-30T08:43:46Z</time>
      </trkpt>
      <trkpt lat="48.64039" lon="5.11636">
        <ele>264.8</ele>
        <time>2020-06-30T08:43:47Z</time>
      </trkpt>
      <trkpt lat="48.64039" lon="5.11628">
        <ele>264.9</ele>
        <time>2020-06-30T08:43:48Z</time>
      </trkpt>
      <trkpt lat="48.6404" lon="5.11621">
        <ele>265.1</ele>
        <time>2020-06-30T08:43:49Z</time>
      </trkpt>
      <trkpt lat="48.64042" lon="5.11614">
        <ele>265.2</ele>
        <time>2020-06-30T08:43:50Z</time>
      </trkpt>
      <trkpt lat="48.64044" lon="5.11608">
        <ele>265.3</ele>
        <time>2020-06-30T08:43:51Z</time>
      </trkpt>
      <trkpt lat="48.64045" lon="5.11602">
        <ele>265.3</ele>
        <time>2020-06-30T08:43:52Z</time>
      </trkpt>
      <trkpt lat="48.64045" lon="5.11595">
        <ele>265.4</ele>
        <time>2020-06-30T08:43:53Z</time>
      </trkpt>
      <trkpt lat="48.64045" lon="5.11588">
        <ele>265.4</ele>
        <time>2020-06-30T08:43:54Z</time>
      </trkpt>
      <trkpt lat="48.64045" lon="5.11582">
        <ele>265.5</ele>
        <time>2020-06-30T08:43:55Z</time>
      </trkpt>
      <trkpt lat="48.64046" lon="5.11575">
        <ele>265.5</ele>
        <time>2020-06-30T08:43:56Z</time>
      </trkpt>
      <trkpt lat="48.64046" lon="5.11567">
        <ele>265.5</ele>
        <time>2020-06-30T08:43:57Z</time>
      </trkpt>
      <trkpt lat="48.64048" lon="5.1156">
        <ele>265.5</ele>
        <time>2020-06-30T08:43:58Z</time>
      </trkpt>
      <trkpt lat="48.64049" lon="5.11553">
        <ele>265.4</ele>
        <time>2020-06-30T08:43:59Z</time>
      </trkpt>
      <trkpt lat="48.6405" lon="5.11546">
        <ele>265.4</ele>
        <time>2020-06-30T08:44:00Z</time>
      </trkpt>
      <trkpt lat="48.64052" lon="5.11539">
        <ele>265.3</ele>
        <time>2020-06-30T08:44:01Z</time>
      </trkpt>
      <trkpt lat="48.64052" lon="5.11532">
        <ele>265.2</ele>
        <time>2020-06-30T08:44:02Z</time>
      </trkpt>
      <trkpt lat="48.64053" lon="5.11525">
        <ele>265.1</ele>
        <time>2020-06-30T08:44:03Z</time>
      </trkpt>
      <trkpt lat="48.64054" lon="5.11518">
        <ele>265</ele>
        <time>2020-06-30T08:44:04Z</time>
      </trkpt>
      <trkpt lat="48.64054" lon="5.1151">
        <ele>264.9</ele>
        <time>2020-06-30T08:44:05Z</time>
      </trkpt>
      <trkpt lat="48.64056" lon="5.11503">
        <ele>264.9</ele>
        <time>2020-06-30T08:44:06Z</time>
      </trkpt>
      <trkpt lat="48.64057" lon="5.11496">
        <ele>264.8</ele>
        <time>2020-06-30T08:44:07Z</time>
      </trkpt>
      <trkpt lat="48.64059" lon="5.11489">
        <ele>264.7</ele>
        <time>2020-06-30T08:44:08Z</time>
      </trkpt>
      <trkpt lat="48.6406" lon="5.11482">
        <ele>264.5</ele>
        <time>2020-06-30T08:44:09Z</time>
      </trkpt>
      <trkpt lat="48.6406" lon="5.11474">
        <ele>264.4</ele>
        <time>2020-06-30T08:44:10Z</time>
      </trkpt>
      <trkpt lat="48.64061" lon="5.11467">
        <ele>264.3</ele>
        <time>2020-06-30T08:44:11Z</time>
      </trkpt>
      <trkpt lat="48.64063" lon="5.11459">
        <ele>264.1</ele>
        <time>2020-06-30T08:44:12Z</time>
      </trkpt>
      <trkpt lat="48.64065" lon="5.11452">
        <ele>264</ele>
        <time>2020-06-30T08:44:13Z</time>
      </trkpt>
      <trkpt lat="48.64066" lon="5.11444">
        <ele>263.8</ele>
        <time>2020-06-30T08:44:14Z</time>
      </trkpt>
      <trkpt lat="48.64067" lon="5.11435">
        <ele>263.6</ele>
        <time>2020-06-30T08:44:15Z</time>
      </trkpt>
      <trkpt lat="48.64068" lon="5.11427">
        <ele>263.5</ele>
        <time>2020-06-30T08:44:16Z</time>
      </trkpt>
      <trkpt lat="48.64068" lon="5.11419">
        <ele>263.3</ele>
        <time>2020-06-30T08:44:17Z</time>
      </trkpt>
      <trkpt lat="48.64069" lon="5.1141">
        <ele>263.1</ele>
        <time>2020-06-30T08:44:18Z</time>
      </trkpt>
      <trkpt lat="48.64069" lon="5.11401">
        <ele>263</ele>
        <time>2020-06-30T08:44:19Z</time>
      </trkpt>
      <trkpt lat="48.6407" lon="5.11392">
        <ele>262.8</ele>
        <time>2020-06-30T08:44:20Z</time>
      </trkpt>
      <trkpt lat="48.64072" lon="5.11384">
        <ele>262.6</ele>
        <time>2020-06-30T08:44:21Z</time>
      </trkpt>
      <trkpt lat="48.64073" lon="5.11375">
        <ele>262.4</ele>
        <time>2020-06-30T08:44:22Z</time>
      </trkpt>
      <trkpt lat="48.64073" lon="5.11366">
        <ele>262.3</ele>
        <time>2020-06-30T08:44:23Z</time>
      </trkpt>
      <trkpt lat="48.64075" lon="5.11357">
        <ele>262.1</ele>
        <time>2020-06-30T08:44:24Z</time>
      </trkpt>
      <trkpt lat="48.64077" lon="5.11348">
        <ele>261.9</ele>
        <time>2020-06-30T08:44:25Z</time>
      </trkpt>
      <trkpt lat="48.64077" lon="5.11339">
        <ele>261.8</ele>
        <time>2020-06-30T08:44:26Z</time>
      </trkpt>
      <trkpt lat="48.64078" lon="5.1133">
        <ele>261.7</ele>
        <time>2020-06-30T08:44:27Z</time>
      </trkpt>
      <trkpt lat="48.64079" lon="5.11321">
        <ele>261.5</ele>
        <time>2020-06-30T08:44:28Z</time>
      </trkpt>
      <trkpt lat="48.64081" lon="5.11312">
        <ele>261.4</ele>
        <time>2020-06-30T08:44:29Z</time>
      </trkpt>
      <trkpt lat="48.64081" lon="5.11303">
        <ele>261.2</ele>
        <time>2020-06-30T08:44:30Z</time>
      </trkpt>
      <trkpt lat="48.64082" lon="5.11293">
        <ele>261</ele>
        <time>2020-06-30T08:44:31Z</time>
      </trkpt>
      <trkpt lat="48.64083" lon="5.11283">
        <ele>260.8</ele>
        <time>2020-06-30T08:44:32Z</time>
      </trkpt>
      <trkpt lat="48.64084" lon="5.11273">
        <ele>260.6</ele>
        <time>2020-06-30T08:44:33Z</time>
      </trkpt>
      <trkpt lat="48.64085" lon="5.11263">
        <ele>260.4</ele>
        <time>2020-06-30T08:44:34Z</time>
      </trkpt>
      <trkpt lat="48.64086" lon="5.11253">
        <ele>260.2</ele>
        <time>2020-06-30T08:44:35Z</time>
      </trkpt>
      <trkpt lat="48.64087" lon="5.11243">
        <ele>260.1</ele>
        <time>2020-06-30T08:44:36Z</time>
      </trkpt>
      <trkpt lat="48.64087" lon="5.11233">
        <ele>259.9</ele>
        <time>2020-06-30T08:44:37Z</time>
      </trkpt>
      <trkpt lat="48.64088" lon="5.11223">
        <ele>259.8</ele>
        <time>2020-06-30T08:44:38Z</time>
      </trkpt>
      <trkpt lat="48.64089" lon="5.11213">
        <ele>259.7</ele>
        <time>2020-06-30T08:44:39Z</time>
      </trkpt>
      <trkpt lat="48.6409" lon="5.11204">
        <ele>259.6</ele>
        <time>2020-06-30T08:44:40Z</time>
      </trkpt>
      <trkpt lat="48.64091" lon="5.11194">
        <ele>259.5</ele>
        <time>2020-06-30T08:44:41Z</time>
      </trkpt>
      <trkpt lat="48.64093" lon="5.11184">
        <ele>259.5</ele>
        <time>2020-06-30T08:44:42Z</time>
      </trkpt>
      <trkpt lat="48.64094" lon="5.11175">
        <ele>259.4</ele>
        <time>2020-06-30T08:44:43Z</time>
      </trkpt>
      <trkpt lat="48.64095" lon="5.11165">
        <ele>259.3</ele>
        <time>2020-06-30T08:44:44Z</time>
      </trkpt>
      <trkpt lat="48.64096" lon="5.11156">
        <ele>259.3</ele>
        <time>2020-06-30T08:44:45Z</time>
      </trkpt>
      <trkpt lat="48.64096" lon="5.11147">
        <ele>259.2</ele>
        <time>2020-06-30T08:44:46Z</time>
      </trkpt>
      <trkpt lat="48.64097" lon="5.11138">
        <ele>259.2</ele>
        <time>2020-06-30T08:44:47Z</time>
      </trkpt>
      <trkpt lat="48.64098" lon="5.11129">
        <ele>259.1</ele>
        <time>2020-06-30T08:44:48Z</time>
      </trkpt>
      <trkpt lat="48.64099" lon="5.11119">
        <ele>259.1</ele>
        <time>2020-06-30T08:44:49Z</time>
      </trkpt>
      <trkpt lat="48.641" lon="5.1111">
        <ele>259.1</ele>
        <time>2020-06-30T08:44:50Z</time>
      </trkpt>
      <trkpt lat="48.64099" lon="5.111">
        <ele>259</ele>
        <time>2020-06-30T08:44:51Z</time>
      </trkpt>
      <trkpt lat="48.641" lon="5.11091">
        <ele>259</ele>
        <time>2020-06-30T08:44:52Z</time>
      </trkpt>
      <trkpt lat="48.64101" lon="5.11082">
        <ele>258.9</ele>
        <time>2020-06-30T08:44:53Z</time>
      </trkpt>
      <trkpt lat="48.64101" lon="5.11073">
        <ele>258.9</ele>
        <time>2020-06-30T08:44:54Z</time>
      </trkpt>
      <trkpt lat="48.64102" lon="5.11064">
        <ele>258.8</ele>
        <time>2020-06-30T08:44:55Z</time>
      </trkpt>
      <trkpt lat="48.64103" lon="5.11056">
        <ele>258.7</ele>
        <time>2020-06-30T08:44:56Z</time>
      </trkpt>
      <trkpt lat="48.64104" lon="5.11048">
        <ele>258.7</ele>
        <time>2020-06-30T08:44:57Z</time>
      </trkpt>
      <trkpt lat="48.64105" lon="5.11039">
        <ele>258.6</ele>
        <time>2020-06-30T08:44:58Z</time>
      </trkpt>
      <trkpt lat="48.64107" lon="5.11031">
        <ele>258.6</ele>
        <time>2020-06-30T08:44:59Z</time>
      </trkpt>
      <trkpt lat="48.64108" lon="5.11023">
        <ele>258.5</ele>
        <time>2020-06-30T08:45:00Z</time>
      </trkpt>
      <trkpt lat="48.6411" lon="5.11014">
        <ele>258.5</ele>
        <time>2020-06-30T08:45:01Z</time>
      </trkpt>
      <trkpt lat="48.64111" lon="5.11006">
        <ele>258.5</ele>
        <time>2020-06-30T08:45:02Z</time>
      </trkpt>
      <trkpt lat="48.64112" lon="5.10998">
        <ele>258.5</ele>
        <time>2020-06-30T08:45:03Z</time>
      </trkpt>
      <trkpt lat="48.64113" lon="5.1099">
        <ele>258.4</ele>
        <time>2020-06-30T08:45:04Z</time>
      </trkpt>
      <trkpt lat="48.64114" lon="5.10982">
        <ele>258.4</ele>
        <time>2020-06-30T08:45:05Z</time>
      </trkpt>
      <trkpt lat="48.64115" lon="5.10973">
        <ele>258.4</ele>
        <time>2020-06-30T08:45:06Z</time>
      </trkpt>
      <trkpt lat="48.64116" lon="5.10965">
        <ele>258.4</ele>
        <time>2020-06-30T08:45:07Z</time>
      </trkpt>
      <trkpt lat="48.64117" lon="5.10957">
        <ele>258.4</ele>
        <time>2020-06-30T08:45:08Z</time>
      </trkpt>
      <trkpt lat="48.64118" lon="5.10949">
        <ele>258.4</ele>
        <time>2020-06-30T08:45:09Z</time>
      </trkpt>
      <trkpt lat="48.6412" lon="5.10941">
        <ele>258.3</ele>
        <time>2020-06-30T08:45:10Z</time>
      </trkpt>
      <trkpt lat="48.6412" lon="5.10933">
        <ele>258.3</ele>
        <time>2020-06-30T08:45:11Z</time>
      </trkpt>
      <trkpt lat="48.64121" lon="5.10925">
        <ele>258.3</ele>
        <time>2020-06-30T08:45:12Z</time>
      </trkpt>
      <trkpt lat="48.64121" lon="5.10916">
        <ele>258.3</ele>
        <time>2020-06-30T08:45:13Z</time>
      </trkpt>
      <trkpt lat="48.64121" lon="5.10908">
        <ele>258.3</ele>
        <time>2020-06-30T08:45:14Z</time>
      </trkpt>
      <trkpt lat="48.6412" lon="5.109">
        <ele>258.2</ele>
        <time>2020-06-30T08:45:15Z</time>
      </trkpt>
      <trkpt lat="48.64117" lon="5.10893">
        <ele>258.2</ele>
        <time>2020-06-30T08:45:16Z</time>
      </trkpt>
      <trkpt lat="48.64114" lon="5.10886">
        <ele>258.2</ele>
        <time>2020-06-30T08:45:17Z</time>
      </trkpt>
      <trkpt lat="48.64113" lon="5.10878">
        <ele>258.2</ele>
        <time>2020-06-30T08:45:18Z</time>
      </trkpt>
      <trkpt lat="48.64111" lon="5.10871">
        <ele>258.2</ele>
        <time>2020-06-30T08:45:19Z</time>
      </trkpt>
      <trkpt lat="48.64109" lon="5.10865">
        <ele>258.2</ele>
        <time>2020-06-30T08:45:20Z</time>
      </trkpt>
      <trkpt lat="48.64107" lon="5.10858">
        <ele>258.2</ele>
        <time>2020-06-30T08:45:21Z</time>
      </trkpt>
      <trkpt lat="48.64105" lon="5.10851">
        <ele>258.3</ele>
        <time>2020-06-30T08:45:22Z</time>
      </trkpt>
      <trkpt lat="48.64103" lon="5.10843">
        <ele>258.3</ele>
        <time>2020-06-30T08:45:23Z</time>
      </trkpt>
      <trkpt lat="48.641" lon="5.10837">
        <ele>258.3</ele>
        <time>2020-06-30T08:45:24Z</time>
      </trkpt>
      <trkpt lat="48.64098" lon="5.1083">
        <ele>258.3</ele>
        <time>2020-06-30T08:45:25Z</time>
      </trkpt>
      <trkpt lat="48.64096" lon="5.10823">
        <ele>258.3</ele>
        <time>2020-06-30T08:45:26Z</time>
      </trkpt>
      <trkpt lat="48.64095" lon="5.10816">
        <ele>258.3</ele>
        <time>2020-06-30T08:45:27Z</time>
      </trkpt>
      <trkpt lat="48.64094" lon="5.10808">
        <ele>258.2</ele>
        <time>2020-06-30T08:45:28Z</time>
      </trkpt>
      <trkpt lat="48.64092" lon="5.108">
        <ele>258.2</ele>
        <time>2020-06-30T08:45:29Z</time>
      </trkpt>
      <trkpt lat="48.64091" lon="5.10793">
        <ele>258</ele>
        <time>2020-06-30T08:45:30Z</time>
      </trkpt>
      <trkpt lat="48.6409" lon="5.10785">
        <ele>257.9</ele>
        <time>2020-06-30T08:45:31Z</time>
      </trkpt>
      <trkpt lat="48.64089" lon="5.10777">
        <ele>257.8</ele>
        <time>2020-06-30T08:45:32Z</time>
      </trkpt>
      <trkpt lat="48.64087" lon="5.10768">
        <ele>257.6</ele>
        <time>2020-06-30T08:45:33Z</time>
      </trkpt>
      <trkpt lat="48.64087" lon="5.10759">
        <ele>257.5</ele>
        <time>2020-06-30T08:45:34Z</time>
      </trkpt>
      <trkpt lat="48.64088" lon="5.1075">
        <ele>257.3</ele>
        <time>2020-06-30T08:45:35Z</time>
      </trkpt>
      <trkpt lat="48.64089" lon="5.10741">
        <ele>257.2</ele>
        <time>2020-06-30T08:45:36Z</time>
      </trkpt>
      <trkpt lat="48.6409" lon="5.10732">
        <ele>257</ele>
        <time>2020-06-30T08:45:37Z</time>
      </trkpt>
      <trkpt lat="48.64091" lon="5.10723">
        <ele>256.8</ele>
        <time>2020-06-30T08:45:38Z</time>
      </trkpt>
      <trkpt lat="48.64092" lon="5.10715">
        <ele>256.6</ele>
        <time>2020-06-30T08:45:39Z</time>
      </trkpt>
      <trkpt lat="48.64093" lon="5.10706">
        <ele>256.4</ele>
        <time>2020-06-30T08:45:40Z</time>
      </trkpt>
      <trkpt lat="48.64094" lon="5.10696">
        <ele>256.2</ele>
        <time>2020-06-30T08:45:41Z</time>
      </trkpt>
      <trkpt lat="48.64095" lon="5.10687">
        <ele>256</ele>
        <time>2020-06-30T08:45:42Z</time>
      </trkpt>
      <trkpt lat="48.64096" lon="5.10677">
        <ele>255.8</ele>
        <time>2020-06-30T08:45:43Z</time>
      </trkpt>
      <trkpt lat="48.64098" lon="5.10668">
        <ele>255.6</ele>
        <time>2020-06-30T08:45:44Z</time>
      </trkpt>
      <trkpt lat="48.64098" lon="5.10658">
        <ele>255.3</ele>
        <time>2020-06-30T08:45:45Z</time>
      </trkpt>
      <trkpt lat="48.64098" lon="5.10648">
        <ele>255.1</ele>
        <time>2020-06-30T08:45:46Z</time>
      </trkpt>
      <trkpt lat="48.641" lon="5.10638">
        <ele>254.9</ele>
        <time>2020-06-30T08:45:47Z</time>
      </trkpt>
      <trkpt lat="48.641" lon="5.10628">
        <ele>254.7</ele>
        <time>2020-06-30T08:45:48Z</time>
      </trkpt>
      <trkpt lat="48.64101" lon="5.10618">
        <ele>254.4</ele>
        <time>2020-06-30T08:45:49Z</time>
      </trkpt>
      <trkpt lat="48.64102" lon="5.10608">
        <ele>254.2</ele>
        <time>2020-06-30T08:45:50Z</time>
      </trkpt>
      <trkpt lat="48.64103" lon="5.10599">
        <ele>254</ele>
        <time>2020-06-30T08:45:51Z</time>
      </trkpt>
      <trkpt lat="48.64104" lon="5.10589">
        <ele>253.7</ele>
        <time>2020-06-30T08:45:52Z</time>
      </trkpt>
      <trkpt lat="48.64105" lon="5.10579">
        <ele>253.4</ele>
        <time>2020-06-30T08:45:53Z</time>
      </trkpt>
      <trkpt lat="48.64106" lon="5.1057">
        <ele>253.1</ele>
        <time>2020-06-30T08:45:54Z</time>
      </trkpt>
      <trkpt lat="48.64107" lon="5.10561">
        <ele>252.8</ele>
        <time>2020-06-30T08:45:55Z</time>
      </trkpt>
      <trkpt lat="48.64108" lon="5.10552">
        <ele>252.6</ele>
        <time>2020-06-30T08:45:56Z</time>
      </trkpt>
      <trkpt lat="48.64109" lon="5.10542">
        <ele>252.3</ele>
        <time>2020-06-30T08:45:57Z</time>
      </trkpt>
      <trkpt lat="48.64111" lon="5.10533">
        <ele>252</ele>
        <time>2020-06-30T08:45:58Z</time>
      </trkpt>
      <trkpt lat="48.64112" lon="5.10523">
        <ele>251.7</ele>
        <time>2020-06-30T08:45:59Z</time>
      </trkpt>
      <trkpt lat="48.64113" lon="5.10513">
        <ele>251.4</ele>
        <time>2020-06-30T08:46:00Z</time>
      </trkpt>
      <trkpt lat="48.64114" lon="5.10503">
        <ele>251.2</ele>
        <time>2020-06-30T08:46:01Z</time>
      </trkpt>
      <trkpt lat="48.64115" lon="5.10493">
        <ele>250.9</ele>
        <time>2020-06-30T08:46:02Z</time>
      </trkpt>
      <trkpt lat="48.64117" lon="5.10482">
        <ele>250.8</ele>
        <time>2020-06-30T08:46:03Z</time>
      </trkpt>
      <trkpt lat="48.64118" lon="5.10471">
        <ele>250.5</ele>
        <time>2020-06-30T08:46:04Z</time>
      </trkpt>
      <trkpt lat="48.64119" lon="5.10459">
        <ele>250</ele>
        <time>2020-06-30T08:46:05Z</time>
      </trkpt>
      <trkpt lat="48.6412" lon="5.10447">
        <ele>249.6</ele>
        <time>2020-06-30T08:46:06Z</time>
      </trkpt>
      <trkpt lat="48.64121" lon="5.10435">
        <ele>249.2</ele>
        <time>2020-06-30T08:46:07Z</time>
      </trkpt>
      <trkpt lat="48.64123" lon="5.10423">
        <ele>248.8</ele>
        <time>2020-06-30T08:46:08Z</time>
      </trkpt>
      <trkpt lat="48.64124" lon="5.1041">
        <ele>248.4</ele>
        <time>2020-06-30T08:46:09Z</time>
      </trkpt>
      <trkpt lat="48.64126" lon="5.10398">
        <ele>248.1</ele>
        <time>2020-06-30T08:46:10Z</time>
      </trkpt>
      <trkpt lat="48.64129" lon="5.10387">
        <ele>247.8</ele>
        <time>2020-06-30T08:46:11Z</time>
      </trkpt>
      <trkpt lat="48.64132" lon="5.10376">
        <ele>247.5</ele>
        <time>2020-06-30T08:46:12Z</time>
      </trkpt>
      <trkpt lat="48.64136" lon="5.10366">
        <ele>247.3</ele>
        <time>2020-06-30T08:46:13Z</time>
      </trkpt>
      <trkpt lat="48.64141" lon="5.10357">
        <ele>247.1</ele>
        <time>2020-06-30T08:46:14Z</time>
      </trkpt>
      <trkpt lat="48.64146" lon="5.10349">
        <ele>246.9</ele>
        <time>2020-06-30T08:46:15Z</time>
      </trkpt>
      <trkpt lat="48.64152" lon="5.10342">
        <ele>246.8</ele>
        <time>2020-06-30T08:46:16Z</time>
      </trkpt>
      <trkpt lat="48.64158" lon="5.10336">
        <ele>246.8</ele>
        <time>2020-06-30T08:46:17Z</time>
      </trkpt>
      <trkpt lat="48.64163" lon="5.1033">
        <ele>246.8</ele>
        <time>2020-06-30T08:46:18Z</time>
      </trkpt>
      <trkpt lat="48.64169" lon="5.10323">
        <ele>246.9</ele>
        <time>2020-06-30T08:46:19Z</time>
      </trkpt>
      <trkpt lat="48.64173" lon="5.10317">
        <ele>246.9</ele>
        <time>2020-06-30T08:46:20Z</time>
      </trkpt>
      <trkpt lat="48.64178" lon="5.1031">
        <ele>246.9</ele>
        <time>2020-06-30T08:46:21Z</time>
      </trkpt>
      <trkpt lat="48.64182" lon="5.10304">
        <ele>246.9</ele>
        <time>2020-06-30T08:46:22Z</time>
      </trkpt>
      <trkpt lat="48.64185" lon="5.10297">
        <ele>247</ele>
        <time>2020-06-30T08:46:23Z</time>
      </trkpt>
      <trkpt lat="48.64188" lon="5.10291">
        <ele>247</ele>
        <time>2020-06-30T08:46:24Z</time>
      </trkpt>
      <trkpt lat="48.64191" lon="5.10284">
        <ele>247</ele>
        <time>2020-06-30T08:46:25Z</time>
      </trkpt>
      <trkpt lat="48.64193" lon="5.10278">
        <ele>247</ele>
        <time>2020-06-30T08:46:26Z</time>
      </trkpt>
      <trkpt lat="48.64195" lon="5.10272">
        <ele>247</ele>
        <time>2020-06-30T08:46:27Z</time>
      </trkpt>
      <trkpt lat="48.64196" lon="5.10266">
        <ele>247</ele>
        <time>2020-06-30T08:46:28Z</time>
      </trkpt>
      <trkpt lat="48.64197" lon="5.10259">
        <ele>247</ele>
        <time>2020-06-30T08:46:29Z</time>
      </trkpt>
      <trkpt lat="48.64196" lon="5.10252">
        <ele>247</ele>
        <time>2020-06-30T08:46:30Z</time>
      </trkpt>
      <trkpt lat="48.64196" lon="5.10245">
        <ele>247</ele>
        <time>2020-06-30T08:46:31Z</time>
      </trkpt>
      <trkpt lat="48.64197" lon="5.10238">
        <ele>246.9</ele>
        <time>2020-06-30T08:46:32Z</time>
      </trkpt>
      <trkpt lat="48.64198" lon="5.10231">
        <ele>246.9</ele>
        <time>2020-06-30T08:46:33Z</time>
      </trkpt>
      <trkpt lat="48.64198" lon="5.10224">
        <ele>246.9</ele>
        <time>2020-06-30T08:46:34Z</time>
      </trkpt>
      <trkpt lat="48.64199" lon="5.10217">
        <ele>246.8</ele>
        <time>2020-06-30T08:46:35Z</time>
      </trkpt>
      <trkpt lat="48.642" lon="5.10211">
        <ele>246.8</ele>
        <time>2020-06-30T08:46:36Z</time>
      </trkpt>
      <trkpt lat="48.642" lon="5.10205">
        <ele>246.8</ele>
        <time>2020-06-30T08:46:37Z</time>
      </trkpt>
      <trkpt lat="48.64201" lon="5.10199">
        <ele>246.7</ele>
        <time>2020-06-30T08:46:38Z</time>
      </trkpt>
      <trkpt lat="48.64201" lon="5.10193">
        <ele>246.7</ele>
        <time>2020-06-30T08:46:39Z</time>
      </trkpt>
      <trkpt lat="48.64201" lon="5.10187">
        <ele>246.7</ele>
        <time>2020-06-30T08:46:40Z</time>
      </trkpt>
      <trkpt lat="48.64202" lon="5.10182">
        <ele>246.6</ele>
        <time>2020-06-30T08:46:41Z</time>
      </trkpt>
      <trkpt lat="48.64202" lon="5.10176">
        <ele>246.6</ele>
        <time>2020-06-30T08:46:42Z</time>
      </trkpt>
      <trkpt lat="48.64203" lon="5.1017">
        <ele>246.6</ele>
        <time>2020-06-30T08:46:43Z</time>
      </trkpt>
      <trkpt lat="48.64204" lon="5.10164">
        <ele>246.6</ele>
        <time>2020-06-30T08:46:44Z</time>
      </trkpt>
      <trkpt lat="48.64205" lon="5.10159">
        <ele>246.6</ele>
        <time>2020-06-30T08:46:45Z</time>
      </trkpt>
      <trkpt lat="48.64207" lon="5.10154">
        <ele>246.5</ele>
        <time>2020-06-30T08:46:46Z</time>
      </trkpt>
      <trkpt lat="48.64208" lon="5.10148">
        <ele>246.5</ele>
        <time>2020-06-30T08:46:47Z</time>
      </trkpt>
      <trkpt lat="48.64208" lon="5.10143">
        <ele>246.5</ele>
        <time>2020-06-30T08:46:48Z</time>
      </trkpt>
      <trkpt lat="48.6421" lon="5.10139">
        <ele>246.5</ele>
        <time>2020-06-30T08:46:49Z</time>
      </trkpt>
      <trkpt lat="48.64211" lon="5.10133">
        <ele>246.5</ele>
        <time>2020-06-30T08:46:50Z</time>
      </trkpt>
      <trkpt lat="48.64212" lon="5.10128">
        <ele>246.4</ele>
        <time>2020-06-30T08:46:51Z</time>
      </trkpt>
      <trkpt lat="48.64212" lon="5.10123">
        <ele>246.4</ele>
        <time>2020-06-30T08:46:52Z</time>
      </trkpt>
      <trkpt lat="48.64212" lon="5.10118">
        <ele>246.4</ele>
        <time>2020-06-30T08:46:53Z</time>
      </trkpt>
      <trkpt lat="48.64212" lon="5.10114">
        <ele>246.3</ele>
        <time>2020-06-30T08:46:54Z</time>
      </trkpt>
      <trkpt lat="48.64213" lon="5.10109">
        <ele>246.3</ele>
        <time>2020-06-30T08:46:55Z</time>
      </trkpt>
      <trkpt lat="48.64213" lon="5.10104">
        <ele>246.3</ele>
        <time>2020-06-30T08:46:56Z</time>
      </trkpt>
      <trkpt lat="48.64213" lon="5.101">
        <ele>246.2</ele>
        <time>2020-06-30T08:46:57Z</time>
      </trkpt>
      <trkpt lat="48.64213" lon="5.10095">
        <ele>246.2</ele>
        <time>2020-06-30T08:46:58Z</time>
      </trkpt>
      <trkpt lat="48.64213" lon="5.1009">
        <ele>246.1</ele>
        <time>2020-06-30T08:46:59Z</time>
      </trkpt>
      <trkpt lat="48.64213" lon="5.10086">
        <ele>246.1</ele>
        <time>2020-06-30T08:47:00Z</time>
      </trkpt>
      <trkpt lat="48.64213" lon="5.10081">
        <ele>246</ele>
        <time>2020-06-30T08:47:01Z</time>
      </trkpt>
      <trkpt lat="48.64213" lon="5.10077">
        <ele>246</ele>
        <time>2020-06-30T08:47:02Z</time>
      </trkpt>
      <trkpt lat="48.64214" lon="5.10071">
        <ele>245.9</ele>
        <time>2020-06-30T08:47:03Z</time>
      </trkpt>
      <trkpt lat="48.64215" lon="5.10069">
        <ele>245.9</ele>
        <time>2020-06-30T08:47:04Z</time>
      </trkpt>
      <trkpt lat="48.64216" lon="5.10063">
        <ele>245.8</ele>
        <time>2020-06-30T08:47:05Z</time>
      </trkpt>
      <trkpt lat="48.64217" lon="5.10061">
        <ele>245.8</ele>
        <time>2020-06-30T08:47:06Z</time>
      </trkpt>
      <trkpt lat="48.64218" lon="5.10058">
        <ele>245.8</ele>
        <time>2020-06-30T08:47:07Z</time>
      </trkpt>
      <trkpt lat="48.64218" lon="5.10053">
        <ele>245.7</ele>
        <time>2020-06-30T08:47:08Z</time>
      </trkpt>
      <trkpt lat="48.64219" lon="5.10049">
        <ele>245.6</ele>
        <time>2020-06-30T08:47:09Z</time>
      </trkpt>
      <trkpt lat="48.64219" lon="5.10044">
        <ele>245.5</ele>
        <time>2020-06-30T08:47:10Z</time>
      </trkpt>
      <trkpt lat="48.6422" lon="5.1004">
        <ele>245.4</ele>
        <time>2020-06-30T08:47:11Z</time>
      </trkpt>
      <trkpt lat="48.64221" lon="5.10034">
        <ele>245.3</ele>
        <time>2020-06-30T08:47:12Z</time>
      </trkpt>
      <trkpt lat="48.64222" lon="5.10028">
        <ele>245.2</ele>
        <time>2020-06-30T08:47:13Z</time>
      </trkpt>
      <trkpt lat="48.64222" lon="5.10022">
        <ele>245.1</ele>
        <time>2020-06-30T08:47:14Z</time>
      </trkpt>
      <trkpt lat="48.64223" lon="5.10016">
        <ele>245</ele>
        <time>2020-06-30T08:47:15Z</time>
      </trkpt>
      <trkpt lat="48.64223" lon="5.10009">
        <ele>244.8</ele>
        <time>2020-06-30T08:47:16Z</time>
      </trkpt>
      <trkpt lat="48.64225" lon="5.10002">
        <ele>244.7</ele>
        <time>2020-06-30T08:47:17Z</time>
      </trkpt>
      <trkpt lat="48.64226" lon="5.09995">
        <ele>244.6</ele>
        <time>2020-06-30T08:47:18Z</time>
      </trkpt>
      <trkpt lat="48.64227" lon="5.09987">
        <ele>244.5</ele>
        <time>2020-06-30T08:47:19Z</time>
      </trkpt>
      <trkpt lat="48.64228" lon="5.0998">
        <ele>244.4</ele>
        <time>2020-06-30T08:47:20Z</time>
      </trkpt>
      <trkpt lat="48.64228" lon="5.09973">
        <ele>244.2</ele>
        <time>2020-06-30T08:47:21Z</time>
      </trkpt>
      <trkpt lat="48.64229" lon="5.09967">
        <ele>244.1</ele>
        <time>2020-06-30T08:47:22Z</time>
      </trkpt>
      <trkpt lat="48.64231" lon="5.0996">
        <ele>244</ele>
        <time>2020-06-30T08:47:23Z</time>
      </trkpt>
      <trkpt lat="48.6423" lon="5.09952">
        <ele>243.8</ele>
        <time>2020-06-30T08:47:24Z</time>
      </trkpt>
      <trkpt lat="48.6423" lon="5.09945">
        <ele>243.6</ele>
        <time>2020-06-30T08:47:25Z</time>
      </trkpt>
      <trkpt lat="48.64232" lon="5.09938">
        <ele>243.5</ele>
        <time>2020-06-30T08:47:26Z</time>
      </trkpt>
      <trkpt lat="48.64233" lon="5.09931">
        <ele>243.3</ele>
        <time>2020-06-30T08:47:27Z</time>
      </trkpt>
      <trkpt lat="48.64234" lon="5.09923">
        <ele>243.1</ele>
        <time>2020-06-30T08:47:28Z</time>
      </trkpt>
      <trkpt lat="48.64234" lon="5.09916">
        <ele>243</ele>
        <time>2020-06-30T08:47:29Z</time>
      </trkpt>
      <trkpt lat="48.64235" lon="5.09909">
        <ele>242.8</ele>
        <time>2020-06-30T08:47:30Z</time>
      </trkpt>
      <trkpt lat="48.64236" lon="5.09901">
        <ele>242.6</ele>
        <time>2020-06-30T08:47:31Z</time>
      </trkpt>
      <trkpt lat="48.64236" lon="5.09893">
        <ele>242.4</ele>
        <time>2020-06-30T08:47:32Z</time>
      </trkpt>
      <trkpt lat="48.64237" lon="5.09885">
        <ele>242.2</ele>
        <time>2020-06-30T08:47:33Z</time>
      </trkpt>
      <trkpt lat="48.64238" lon="5.09878">
        <ele>241.9</ele>
        <time>2020-06-30T08:47:34Z</time>
      </trkpt>
      <trkpt lat="48.64239" lon="5.09869">
        <ele>241.6</ele>
        <time>2020-06-30T08:47:35Z</time>
      </trkpt>
      <trkpt lat="48.64241" lon="5.09861">
        <ele>241.3</ele>
        <time>2020-06-30T08:47:36Z</time>
      </trkpt>
      <trkpt lat="48.64243" lon="5.09853">
        <ele>241</ele>
        <time>2020-06-30T08:47:37Z</time>
      </trkpt>
      <trkpt lat="48.64243" lon="5.09843">
        <ele>240.7</ele>
        <time>2020-06-30T08:47:38Z</time>
      </trkpt>
      <trkpt lat="48.64244" lon="5.09834">
        <ele>240.3</ele>
        <time>2020-06-30T08:47:39Z</time>
      </trkpt>
      <trkpt lat="48.64244" lon="5.09825">
        <ele>240</ele>
        <time>2020-06-30T08:47:40Z</time>
      </trkpt>
      <trkpt lat="48.64246" lon="5.09816">
        <ele>239.7</ele>
        <time>2020-06-30T08:47:41Z</time>
      </trkpt>
      <trkpt lat="48.64248" lon="5.09808">
        <ele>239.3</ele>
        <time>2020-06-30T08:47:42Z</time>
      </trkpt>
      <trkpt lat="48.64249" lon="5.09798">
        <ele>239</ele>
        <time>2020-06-30T08:47:43Z</time>
      </trkpt>
      <trkpt lat="48.6425" lon="5.09789">
        <ele>238.7</ele>
        <time>2020-06-30T08:47:44Z</time>
      </trkpt>
      <trkpt lat="48.64251" lon="5.0978">
        <ele>238.4</ele>
        <time>2020-06-30T08:47:45Z</time>
      </trkpt>
      <trkpt lat="48.64252" lon="5.0977">
        <ele>238.2</ele>
        <time>2020-06-30T08:47:46Z</time>
      </trkpt>
      <trkpt lat="48.64254" lon="5.09761">
        <ele>237.9</ele>
        <time>2020-06-30T08:47:47Z</time>
      </trkpt>
      <trkpt lat="48.64256" lon="5.09752">
        <ele>237.7</ele>
        <time>2020-06-30T08:47:48Z</time>
      </trkpt>
      <trkpt lat="48.64257" lon="5.09742">
        <ele>237.4</ele>
        <time>2020-06-30T08:47:49Z</time>
      </trkpt>
      <trkpt lat="48.64259" lon="5.09731">
        <ele>237.2</ele>
        <time>2020-06-30T08:47:50Z</time>
      </trkpt>
      <trkpt lat="48.6426" lon="5.0972">
        <ele>236.7</ele>
        <time>2020-06-30T08:47:51Z</time>
      </trkpt>
      <trkpt lat="48.64262" lon="5.09709">
        <ele>236.3</ele>
        <time>2020-06-30T08:47:52Z</time>
      </trkpt>
      <trkpt lat="48.64263" lon="5.09697">
        <ele>235.8</ele>
        <time>2020-06-30T08:47:53Z</time>
      </trkpt>
      <trkpt lat="48.64265" lon="5.09686">
        <ele>235.3</ele>
        <time>2020-06-30T08:47:54Z</time>
      </trkpt>
      <trkpt lat="48.64266" lon="5.09674">
        <ele>235</ele>
        <time>2020-06-30T08:47:55Z</time>
      </trkpt>
      <trkpt lat="48.64268" lon="5.09662">
        <ele>234.6</ele>
        <time>2020-06-30T08:47:56Z</time>
      </trkpt>
      <trkpt lat="48.64269" lon="5.0965">
        <ele>234.3</ele>
        <time>2020-06-30T08:47:57Z</time>
      </trkpt>
      <trkpt lat="48.64271" lon="5.09638">
        <ele>233.9</ele>
        <time>2020-06-30T08:47:58Z</time>
      </trkpt>
      <trkpt lat="48.64273" lon="5.09625">
        <ele>233.6</ele>
        <time>2020-06-30T08:47:59Z</time>
      </trkpt>
      <trkpt lat="48.64274" lon="5.09612">
        <ele>233.3</ele>
        <time>2020-06-30T08:48:00Z</time>
      </trkpt>
      <trkpt lat="48.64275" lon="5.09599">
        <ele>233.1</ele>
        <time>2020-06-30T08:48:01Z</time>
      </trkpt>
      <trkpt lat="48.64277" lon="5.09586">
        <ele>232.9</ele>
        <time>2020-06-30T08:48:02Z</time>
      </trkpt>
      <trkpt lat="48.64278" lon="5.09573">
        <ele>232.8</ele>
        <time>2020-06-30T08:48:03Z</time>
      </trkpt>
      <trkpt lat="48.6428" lon="5.09561">
        <ele>232.6</ele>
        <time>2020-06-30T08:48:04Z</time>
      </trkpt>
      <trkpt lat="48.64281" lon="5.09549">
        <ele>232.5</ele>
        <time>2020-06-30T08:48:05Z</time>
      </trkpt>
      <trkpt lat="48.64282" lon="5.09537">
        <ele>232.4</ele>
        <time>2020-06-30T08:48:06Z</time>
      </trkpt>
      <trkpt lat="48.64283" lon="5.09526">
        <ele>232.4</ele>
        <time>2020-06-30T08:48:07Z</time>
      </trkpt>
      <trkpt lat="48.64284" lon="5.09515">
        <ele>232.3</ele>
        <time>2020-06-30T08:48:08Z</time>
      </trkpt>
      <trkpt lat="48.64285" lon="5.09504">
        <ele>232.3</ele>
        <time>2020-06-30T08:48:09Z</time>
      </trkpt>
      <trkpt lat="48.64286" lon="5.09493">
        <ele>232.2</ele>
        <time>2020-06-30T08:48:10Z</time>
      </trkpt>
      <trkpt lat="48.64287" lon="5.09483">
        <ele>232.2</ele>
        <time>2020-06-30T08:48:11Z</time>
      </trkpt>
      <trkpt lat="48.64289" lon="5.09473">
        <ele>232.1</ele>
        <time>2020-06-30T08:48:12Z</time>
      </trkpt>
      <trkpt lat="48.6429" lon="5.09463">
        <ele>232.1</ele>
        <time>2020-06-30T08:48:13Z</time>
      </trkpt>
      <trkpt lat="48.64291" lon="5.09453">
        <ele>232</ele>
        <time>2020-06-30T08:48:14Z</time>
      </trkpt>
      <trkpt lat="48.64292" lon="5.09444">
        <ele>232</ele>
        <time>2020-06-30T08:48:15Z</time>
      </trkpt>
      <trkpt lat="48.64293" lon="5.09434">
        <ele>232</ele>
        <time>2020-06-30T08:48:16Z</time>
      </trkpt>
      <trkpt lat="48.64294" lon="5.09424">
        <ele>231.9</ele>
        <time>2020-06-30T08:48:17Z</time>
      </trkpt>
      <trkpt lat="48.64295" lon="5.09415">
        <ele>231.9</ele>
        <time>2020-06-30T08:48:18Z</time>
      </trkpt>
      <trkpt lat="48.64296" lon="5.09405">
        <ele>231.9</ele>
        <time>2020-06-30T08:48:19Z</time>
      </trkpt>
      <trkpt lat="48.64297" lon="5.09395">
        <ele>231.8</ele>
        <time>2020-06-30T08:48:20Z</time>
      </trkpt>
      <trkpt lat="48.64297" lon="5.09386">
        <ele>231.8</ele>
        <time>2020-06-30T08:48:21Z</time>
      </trkpt>
      <trkpt lat="48.64299" lon="5.09376">
        <ele>231.7</ele>
        <time>2020-06-30T08:48:22Z</time>
      </trkpt>
      <trkpt lat="48.64299" lon="5.09366">
        <ele>231.6</ele>
        <time>2020-06-30T08:48:23Z</time>
      </trkpt>
      <trkpt lat="48.643" lon="5.09357">
        <ele>231.5</ele>
        <time>2020-06-30T08:48:24Z</time>
      </trkpt>
      <trkpt lat="48.64301" lon="5.09346">
        <ele>231.4</ele>
        <time>2020-06-30T08:48:25Z</time>
      </trkpt>
      <trkpt lat="48.64301" lon="5.09337">
        <ele>231.2</ele>
        <time>2020-06-30T08:48:26Z</time>
      </trkpt>
      <trkpt lat="48.64302" lon="5.09327">
        <ele>231.1</ele>
        <time>2020-06-30T08:48:27Z</time>
      </trkpt>
      <trkpt lat="48.64304" lon="5.09317">
        <ele>230.9</ele>
        <time>2020-06-30T08:48:28Z</time>
      </trkpt>
      <trkpt lat="48.64305" lon="5.09307">
        <ele>230.8</ele>
        <time>2020-06-30T08:48:29Z</time>
      </trkpt>
      <trkpt lat="48.64306" lon="5.09296">
        <ele>230.7</ele>
        <time>2020-06-30T08:48:30Z</time>
      </trkpt>
      <trkpt lat="48.64308" lon="5.09286">
        <ele>230.6</ele>
        <time>2020-06-30T08:48:31Z</time>
      </trkpt>
      <trkpt lat="48.64309" lon="5.09275">
        <ele>230.5</ele>
        <time>2020-06-30T08:48:32Z</time>
      </trkpt>
      <trkpt lat="48.64311" lon="5.09264">
        <ele>230.5</ele>
        <time>2020-06-30T08:48:33Z</time>
      </trkpt>
      <trkpt lat="48.64312" lon="5.09254">
        <ele>230.5</ele>
        <time>2020-06-30T08:48:34Z</time>
      </trkpt>
      <trkpt lat="48.64313" lon="5.09244">
        <ele>230.6</ele>
        <time>2020-06-30T08:48:35Z</time>
      </trkpt>
      <trkpt lat="48.64315" lon="5.09234">
        <ele>230.7</ele>
        <time>2020-06-30T08:48:36Z</time>
      </trkpt>
      <trkpt lat="48.64316" lon="5.09224">
        <ele>230.8</ele>
        <time>2020-06-30T08:48:37Z</time>
      </trkpt>
      <trkpt lat="48.64318" lon="5.09214">
        <ele>230.9</ele>
        <time>2020-06-30T08:48:38Z</time>
      </trkpt>
      <trkpt lat="48.64319" lon="5.09205">
        <ele>231.1</ele>
        <time>2020-06-30T08:48:39Z</time>
      </trkpt>
      <trkpt lat="48.64319" lon="5.09196">
        <ele>231.3</ele>
        <time>2020-06-30T08:48:40Z</time>
      </trkpt>
      <trkpt lat="48.6432" lon="5.09188">
        <ele>231.5</ele>
        <time>2020-06-30T08:48:41Z</time>
      </trkpt>
      <trkpt lat="48.64321" lon="5.0918">
        <ele>231.7</ele>
        <time>2020-06-30T08:48:42Z</time>
      </trkpt>
      <trkpt lat="48.64323" lon="5.09172">
        <ele>231.9</ele>
        <time>2020-06-30T08:48:43Z</time>
      </trkpt>
      <trkpt lat="48.64324" lon="5.09165">
        <ele>232.1</ele>
        <time>2020-06-30T08:48:44Z</time>
      </trkpt>
      <trkpt lat="48.64325" lon="5.09156">
        <ele>232.3</ele>
        <time>2020-06-30T08:48:45Z</time>
      </trkpt>
      <trkpt lat="48.64327" lon="5.09148">
        <ele>232.5</ele>
        <time>2020-06-30T08:48:46Z</time>
      </trkpt>
      <trkpt lat="48.64328" lon="5.09139">
        <ele>232.7</ele>
        <time>2020-06-30T08:48:47Z</time>
      </trkpt>
      <trkpt lat="48.64328" lon="5.09129">
        <ele>232.9</ele>
        <time>2020-06-30T08:48:48Z</time>
      </trkpt>
      <trkpt lat="48.64329" lon="5.0912">
        <ele>233.1</ele>
        <time>2020-06-30T08:48:49Z</time>
      </trkpt>
      <trkpt lat="48.6433" lon="5.09112">
        <ele>233.3</ele>
        <time>2020-06-30T08:48:50Z</time>
      </trkpt>
      <trkpt lat="48.6433" lon="5.09103">
        <ele>233.5</ele>
        <time>2020-06-30T08:48:51Z</time>
      </trkpt>
      <trkpt lat="48.64331" lon="5.09095">
        <ele>233.6</ele>
        <time>2020-06-30T08:48:52Z</time>
      </trkpt>
      <trkpt lat="48.64331" lon="5.09089">
        <ele>233.7</ele>
        <time>2020-06-30T08:48:53Z</time>
      </trkpt>
      <trkpt lat="48.64331" lon="5.09082">
        <ele>233.8</ele>
        <time>2020-06-30T08:48:54Z</time>
      </trkpt>
      <trkpt lat="48.64333" lon="5.09076">
        <ele>233.9</ele>
        <time>2020-06-30T08:48:55Z</time>
      </trkpt>
      <trkpt lat="48.64334" lon="5.09071">
        <ele>234</ele>
        <time>2020-06-30T08:48:56Z</time>
      </trkpt>
      <trkpt lat="48.64334" lon="5.09064">
        <ele>234.1</ele>
        <time>2020-06-30T08:48:57Z</time>
      </trkpt>
      <trkpt lat="48.64334" lon="5.09055">
        <ele>234.2</ele>
        <time>2020-06-30T08:48:58Z</time>
      </trkpt>
      <trkpt lat="48.64335" lon="5.09046">
        <ele>234.2</ele>
        <time>2020-06-30T08:48:59Z</time>
      </trkpt>
      <trkpt lat="48.64336" lon="5.09039">
        <ele>234.2</ele>
        <time>2020-06-30T08:49:00Z</time>
      </trkpt>
      <trkpt lat="48.64337" lon="5.09029">
        <ele>234.2</ele>
        <time>2020-06-30T08:49:01Z</time>
      </trkpt>
      <trkpt lat="48.64339" lon="5.09022">
        <ele>234.2</ele>
        <time>2020-06-30T08:49:02Z</time>
      </trkpt>
      <trkpt lat="48.64341" lon="5.09016">
        <ele>234.2</ele>
        <time>2020-06-30T08:49:03Z</time>
      </trkpt>
      <trkpt lat="48.64342" lon="5.09008">
        <ele>234.2</ele>
        <time>2020-06-30T08:49:04Z</time>
      </trkpt>
      <trkpt lat="48.64343" lon="5.08998">
        <ele>234.2</ele>
        <time>2020-06-30T08:49:05Z</time>
      </trkpt>
      <trkpt lat="48.64344" lon="5.08989">
        <ele>234.5</ele>
        <time>2020-06-30T08:49:06Z</time>
      </trkpt>
      <trkpt lat="48.64345" lon="5.08979">
        <ele>234.8</ele>
        <time>2020-06-30T08:49:07Z</time>
      </trkpt>
      <trkpt lat="48.64345" lon="5.0897">
        <ele>234.8</ele>
        <time>2020-06-30T08:49:08Z</time>
      </trkpt>
      <trkpt lat="48.64346" lon="5.08963">
        <ele>234.8</ele>
        <time>2020-06-30T08:49:09Z</time>
      </trkpt>
      <trkpt lat="48.64347" lon="5.08952">
        <ele>234.7</ele>
        <time>2020-06-30T08:49:10Z</time>
      </trkpt>
      <trkpt lat="48.64348" lon="5.08943">
        <ele>234.6</ele>
        <time>2020-06-30T08:49:11Z</time>
      </trkpt>
      <trkpt lat="48.64349" lon="5.08935">
        <ele>234.6</ele>
        <time>2020-06-30T08:49:12Z</time>
      </trkpt>
      <trkpt lat="48.64349" lon="5.08926">
        <ele>234.5</ele>
        <time>2020-06-30T08:49:13Z</time>
      </trkpt>
      <trkpt lat="48.6435" lon="5.08917">
        <ele>234.3</ele>
        <time>2020-06-30T08:49:14Z</time>
      </trkpt>
      <trkpt lat="48.64353" lon="5.08906">
        <ele>234.2</ele>
        <time>2020-06-30T08:49:15Z</time>
      </trkpt>
      <trkpt lat="48.64355" lon="5.08899">
        <ele>234.1</ele>
        <time>2020-06-30T08:49:16Z</time>
      </trkpt>
      <trkpt lat="48.64356" lon="5.0889">
        <ele>233.9</ele>
        <time>2020-06-30T08:49:17Z</time>
      </trkpt>
      <trkpt lat="48.64356" lon="5.08881">
        <ele>233.8</ele>
        <time>2020-06-30T08:49:18Z</time>
      </trkpt>
      <trkpt lat="48.64357" lon="5.08871">
        <ele>233.7</ele>
        <time>2020-06-30T08:49:19Z</time>
      </trkpt>
      <trkpt lat="48.64358" lon="5.08864">
        <ele>233.6</ele>
        <time>2020-06-30T08:49:20Z</time>
      </trkpt>
      <trkpt lat="48.64359" lon="5.08853">
        <ele>233.4</ele>
        <time>2020-06-30T08:49:21Z</time>
      </trkpt>
      <trkpt lat="48.64361" lon="5.08844">
        <ele>233.3</ele>
        <time>2020-06-30T08:49:22Z</time>
      </trkpt>
      <trkpt lat="48.64362" lon="5.08833">
        <ele>233.1</ele>
        <time>2020-06-30T08:49:23Z</time>
      </trkpt>
      <trkpt lat="48.64363" lon="5.08823">
        <ele>232.9</ele>
        <time>2020-06-30T08:49:24Z</time>
      </trkpt>
      <trkpt lat="48.64363" lon="5.08813">
        <ele>232.7</ele>
        <time>2020-06-30T08:49:25Z</time>
      </trkpt>
      <trkpt lat="48.64364" lon="5.08803">
        <ele>232.4</ele>
        <time>2020-06-30T08:49:26Z</time>
      </trkpt>
      <trkpt lat="48.64364" lon="5.08792">
        <ele>232.1</ele>
        <time>2020-06-30T08:49:27Z</time>
      </trkpt>
      <trkpt lat="48.64365" lon="5.08781">
        <ele>231.8</ele>
        <time>2020-06-30T08:49:28Z</time>
      </trkpt>
      <trkpt lat="48.64365" lon="5.08771">
        <ele>231.5</ele>
        <time>2020-06-30T08:49:29Z</time>
      </trkpt>
      <trkpt lat="48.64366" lon="5.0876">
        <ele>231.2</ele>
        <time>2020-06-30T08:49:30Z</time>
      </trkpt>
      <trkpt lat="48.64367" lon="5.08749">
        <ele>230.9</ele>
        <time>2020-06-30T08:49:31Z</time>
      </trkpt>
      <trkpt lat="48.64368" lon="5.08738">
        <ele>230.5</ele>
        <time>2020-06-30T08:49:32Z</time>
      </trkpt>
      <trkpt lat="48.64369" lon="5.08727">
        <ele>230</ele>
        <time>2020-06-30T08:49:33Z</time>
      </trkpt>
      <trkpt lat="48.64369" lon="5.08717">
        <ele>229.7</ele>
        <time>2020-06-30T08:49:34Z</time>
      </trkpt>
      <trkpt lat="48.64369" lon="5.08706">
        <ele>229.3</ele>
        <time>2020-06-30T08:49:35Z</time>
      </trkpt>
      <trkpt lat="48.64369" lon="5.08696">
        <ele>229</ele>
        <time>2020-06-30T08:49:36Z</time>
      </trkpt>
      <trkpt lat="48.6437" lon="5.08684">
        <ele>228.6</ele>
        <time>2020-06-30T08:49:37Z</time>
      </trkpt>
      <trkpt lat="48.6437" lon="5.08674">
        <ele>228.3</ele>
        <time>2020-06-30T08:49:38Z</time>
      </trkpt>
      <trkpt lat="48.64371" lon="5.08663">
        <ele>227.9</ele>
        <time>2020-06-30T08:49:39Z</time>
      </trkpt>
      <trkpt lat="48.64371" lon="5.08653">
        <ele>227.6</ele>
        <time>2020-06-30T08:49:40Z</time>
      </trkpt>
      <trkpt lat="48.64372" lon="5.08641">
        <ele>227.2</ele>
        <time>2020-06-30T08:49:41Z</time>
      </trkpt>
      <trkpt lat="48.64372" lon="5.0863">
        <ele>226.8</ele>
        <time>2020-06-30T08:49:42Z</time>
      </trkpt>
      <trkpt lat="48.64371" lon="5.08619">
        <ele>226.5</ele>
        <time>2020-06-30T08:49:43Z</time>
      </trkpt>
      <trkpt lat="48.6437" lon="5.08608">
        <ele>226.1</ele>
        <time>2020-06-30T08:49:44Z</time>
      </trkpt>
      <trkpt lat="48.64369" lon="5.08596">
        <ele>225.8</ele>
        <time>2020-06-30T08:49:45Z</time>
      </trkpt>
      <trkpt lat="48.64368" lon="5.08585">
        <ele>225.4</ele>
        <time>2020-06-30T08:49:46Z</time>
      </trkpt>
      <trkpt lat="48.64368" lon="5.08573">
        <ele>225.1</ele>
        <time>2020-06-30T08:49:47Z</time>
      </trkpt>
      <trkpt lat="48.64366" lon="5.08562">
        <ele>224.8</ele>
        <time>2020-06-30T08:49:48Z</time>
      </trkpt>
      <trkpt lat="48.64364" lon="5.08552">
        <ele>224.5</ele>
        <time>2020-06-30T08:49:49Z</time>
      </trkpt>
      <trkpt lat="48.64362" lon="5.08542">
        <ele>224.1</ele>
        <time>2020-06-30T08:49:50Z</time>
      </trkpt>
      <trkpt lat="48.64359" lon="5.08532">
        <ele>223.8</ele>
        <time>2020-06-30T08:49:51Z</time>
      </trkpt>
      <trkpt lat="48.64358" lon="5.08522">
        <ele>223.5</ele>
        <time>2020-06-30T08:49:52Z</time>
      </trkpt>
      <trkpt lat="48.64356" lon="5.08512">
        <ele>223.1</ele>
        <time>2020-06-30T08:49:53Z</time>
      </trkpt>
      <trkpt lat="48.64354" lon="5.08502">
        <ele>222.8</ele>
        <time>2020-06-30T08:49:54Z</time>
      </trkpt>
      <trkpt lat="48.64352" lon="5.08492">
        <ele>222.5</ele>
        <time>2020-06-30T08:49:55Z</time>
      </trkpt>
      <trkpt lat="48.6435" lon="5.08481">
        <ele>222.3</ele>
        <time>2020-06-30T08:49:56Z</time>
      </trkpt>
      <trkpt lat="48.64348" lon="5.0847">
        <ele>222</ele>
        <time>2020-06-30T08:49:57Z</time>
      </trkpt>
      <trkpt lat="48.64346" lon="5.0846">
        <ele>221.6</ele>
        <time>2020-06-30T08:49:58Z</time>
      </trkpt>
      <trkpt lat="48.64344" lon="5.08449">
        <ele>221.3</ele>
        <time>2020-06-30T08:49:59Z</time>
      </trkpt>
      <trkpt lat="48.64342" lon="5.08438">
        <ele>221</ele>
        <time>2020-06-30T08:50:00Z</time>
      </trkpt>
      <trkpt lat="48.64339" lon="5.08428">
        <ele>220.7</ele>
        <time>2020-06-30T08:50:01Z</time>
      </trkpt>
      <trkpt lat="48.64337" lon="5.08418">
        <ele>220.5</ele>
        <time>2020-06-30T08:50:02Z</time>
      </trkpt>
      <trkpt lat="48.64335" lon="5.08407">
        <ele>220.2</ele>
        <time>2020-06-30T08:50:03Z</time>
      </trkpt>
      <trkpt lat="48.64333" lon="5.08396">
        <ele>220</ele>
        <time>2020-06-30T08:50:04Z</time>
      </trkpt>
      <trkpt lat="48.64331" lon="5.08385">
        <ele>219.7</ele>
        <time>2020-06-30T08:50:05Z</time>
      </trkpt>
      <trkpt lat="48.64329" lon="5.08375">
        <ele>219.4</ele>
        <time>2020-06-30T08:50:06Z</time>
      </trkpt>
      <trkpt lat="48.64327" lon="5.08364">
        <ele>219.2</ele>
        <time>2020-06-30T08:50:07Z</time>
      </trkpt>
      <trkpt lat="48.64325" lon="5.08354">
        <ele>218.9</ele>
        <time>2020-06-30T08:50:08Z</time>
      </trkpt>
      <trkpt lat="48.64324" lon="5.08343">
        <ele>218.6</ele>
        <time>2020-06-30T08:50:09Z</time>
      </trkpt>
      <trkpt lat="48.64323" lon="5.08332">
        <ele>218.4</ele>
        <time>2020-06-30T08:50:10Z</time>
      </trkpt>
      <trkpt lat="48.64323" lon="5.08321">
        <ele>218.1</ele>
        <time>2020-06-30T08:50:11Z</time>
      </trkpt>
      <trkpt lat="48.64322" lon="5.08311">
        <ele>217.9</ele>
        <time>2020-06-30T08:50:12Z</time>
      </trkpt>
      <trkpt lat="48.6432" lon="5.08301">
        <ele>217.6</ele>
        <time>2020-06-30T08:50:13Z</time>
      </trkpt>
      <trkpt lat="48.64318" lon="5.08291">
        <ele>217.4</ele>
        <time>2020-06-30T08:50:14Z</time>
      </trkpt>
      <trkpt lat="48.64317" lon="5.08281">
        <ele>217.1</ele>
        <time>2020-06-30T08:50:15Z</time>
      </trkpt>
      <trkpt lat="48.64316" lon="5.08271">
        <ele>216.9</ele>
        <time>2020-06-30T08:50:16Z</time>
      </trkpt>
      <trkpt lat="48.64315" lon="5.08262">
        <ele>216.6</ele>
        <time>2020-06-30T08:50:17Z</time>
      </trkpt>
      <trkpt lat="48.64314" lon="5.08252">
        <ele>216.3</ele>
        <time>2020-06-30T08:50:18Z</time>
      </trkpt>
      <trkpt lat="48.64314" lon="5.08244">
        <ele>216.1</ele>
        <time>2020-06-30T08:50:19Z</time>
      </trkpt>
      <trkpt lat="48.64312" lon="5.08235">
        <ele>215.8</ele>
        <time>2020-06-30T08:50:20Z</time>
      </trkpt>
      <trkpt lat="48.64311" lon="5.08226">
        <ele>215.5</ele>
        <time>2020-06-30T08:50:21Z</time>
      </trkpt>
      <trkpt lat="48.64309" lon="5.08217">
        <ele>215.2</ele>
        <time>2020-06-30T08:50:22Z</time>
      </trkpt>
      <trkpt lat="48.64308" lon="5.08208">
        <ele>214.9</ele>
        <time>2020-06-30T08:50:23Z</time>
      </trkpt>
      <trkpt lat="48.64306" lon="5.08198">
        <ele>214.6</ele>
        <time>2020-06-30T08:50:24Z</time>
      </trkpt>
      <trkpt lat="48.64304" lon="5.08189">
        <ele>214.3</ele>
        <time>2020-06-30T08:50:25Z</time>
      </trkpt>
      <trkpt lat="48.64302" lon="5.08179">
        <ele>213.6</ele>
        <time>2020-06-30T08:50:26Z</time>
      </trkpt>
      <trkpt lat="48.643" lon="5.08169">
        <ele>213.1</ele>
        <time>2020-06-30T08:50:27Z</time>
      </trkpt>
      <trkpt lat="48.64298" lon="5.08159">
        <ele>212.6</ele>
        <time>2020-06-30T08:50:28Z</time>
      </trkpt>
      <trkpt lat="48.64296" lon="5.08148">
        <ele>212.2</ele>
        <time>2020-06-30T08:50:29Z</time>
      </trkpt>
      <trkpt lat="48.64295" lon="5.08137">
        <ele>211.8</ele>
        <time>2020-06-30T08:50:30Z</time>
      </trkpt>
      <trkpt lat="48.64293" lon="5.08126">
        <ele>211.4</ele>
        <time>2020-06-30T08:50:31Z</time>
      </trkpt>
      <trkpt lat="48.64292" lon="5.08115">
        <ele>210.9</ele>
        <time>2020-06-30T08:50:32Z</time>
      </trkpt>
      <trkpt lat="48.64289" lon="5.08105">
        <ele>210.5</ele>
        <time>2020-06-30T08:50:33Z</time>
      </trkpt>
      <trkpt lat="48.64287" lon="5.08094">
        <ele>210</ele>
        <time>2020-06-30T08:50:34Z</time>
      </trkpt>
      <trkpt lat="48.64285" lon="5.08084">
        <ele>209.6</ele>
        <time>2020-06-30T08:50:35Z</time>
      </trkpt>
      <trkpt lat="48.64284" lon="5.08073">
        <ele>209.1</ele>
        <time>2020-06-30T08:50:36Z</time>
      </trkpt>
      <trkpt lat="48.64282" lon="5.08063">
        <ele>208.7</ele>
        <time>2020-06-30T08:50:37Z</time>
      </trkpt>
      <trkpt lat="48.64279" lon="5.08053">
        <ele>208.2</ele>
        <time>2020-06-30T08:50:38Z</time>
      </trkpt>
      <trkpt lat="48.64275" lon="5.08044">
        <ele>207.7</ele>
        <time>2020-06-30T08:50:39Z</time>
      </trkpt>
      <trkpt lat="48.64271" lon="5.08034">
        <ele>207.3</ele>
        <time>2020-06-30T08:50:40Z</time>
      </trkpt>
      <trkpt lat="48.64267" lon="5.08025">
        <ele>206.9</ele>
        <time>2020-06-30T08:50:41Z</time>
      </trkpt>
      <trkpt lat="48.64263" lon="5.08015">
        <ele>206.6</ele>
        <time>2020-06-30T08:50:42Z</time>
      </trkpt>
      <trkpt lat="48.64259" lon="5.08005">
        <ele>206.3</ele>
        <time>2020-06-30T08:50:43Z</time>
      </trkpt>
      <trkpt lat="48.64257" lon="5.07994">
        <ele>206</ele>
        <time>2020-06-30T08:50:44Z</time>
      </trkpt>
      <trkpt lat="48.64255" lon="5.07983">
        <ele>205.7</ele>
        <time>2020-06-30T08:50:45Z</time>
      </trkpt>
      <trkpt lat="48.64256" lon="5.07972">
        <ele>205.5</ele>
        <time>2020-06-30T08:50:46Z</time>
      </trkpt>
      <trkpt lat="48.64256" lon="5.0796">
        <ele>205.3</ele>
        <time>2020-06-30T08:50:47Z</time>
      </trkpt>
      <trkpt lat="48.64256" lon="5.07949">
        <ele>205.2</ele>
        <time>2020-06-30T08:50:48Z</time>
      </trkpt>
      <trkpt lat="48.64257" lon="5.07937">
        <ele>205.2</ele>
        <time>2020-06-30T08:50:49Z</time>
      </trkpt>
      <trkpt lat="48.64257" lon="5.07926">
        <ele>205.2</ele>
        <time>2020-06-30T08:50:50Z</time>
      </trkpt>
      <trkpt lat="48.64259" lon="5.07916">
        <ele>205.2</ele>
        <time>2020-06-30T08:50:51Z</time>
      </trkpt>
      <trkpt lat="48.64262" lon="5.07906">
        <ele>205.2</ele>
        <time>2020-06-30T08:50:52Z</time>
      </trkpt>
      <trkpt lat="48.64266" lon="5.07898">
        <ele>205.2</ele>
        <time>2020-06-30T08:50:53Z</time>
      </trkpt>
      <trkpt lat="48.64271" lon="5.07896">
        <ele>205.3</ele>
        <time>2020-06-30T08:50:54Z</time>
      </trkpt>
      <trkpt lat="48.64277" lon="5.07896">
        <ele>205.4</ele>
        <time>2020-06-30T08:50:55Z</time>
      </trkpt>
      <trkpt lat="48.64282" lon="5.07896">
        <ele>205.5</ele>
        <time>2020-06-30T08:50:56Z</time>
      </trkpt>
      <trkpt lat="48.64287" lon="5.07895">
        <ele>205.7</ele>
        <time>2020-06-30T08:50:57Z</time>
      </trkpt>
      <trkpt lat="48.64291" lon="5.07893">
        <ele>205.9</ele>
        <time>2020-06-30T08:50:58Z</time>
      </trkpt>
      <trkpt lat="48.64294" lon="5.07888">
        <ele>206</ele>
        <time>2020-06-30T08:50:59Z</time>
      </trkpt>
      <trkpt lat="48.64296" lon="5.07884">
        <ele>206.2</ele>
        <time>2020-06-30T08:51:00Z</time>
      </trkpt>
      <trkpt lat="48.64299" lon="5.07881">
        <ele>206.3</ele>
        <time>2020-06-30T08:51:01Z</time>
      </trkpt>
      <trkpt lat="48.643" lon="5.07877">
        <ele>206.5</ele>
        <time>2020-06-30T08:51:02Z</time>
      </trkpt>
      <trkpt lat="48.64301" lon="5.07873">
        <ele>206.6</ele>
        <time>2020-06-30T08:51:03Z</time>
      </trkpt>
      <trkpt lat="48.64302" lon="5.07869">
        <ele>206.6</ele>
        <time>2020-06-30T08:51:04Z</time>
      </trkpt>
      <trkpt lat="48.64302" lon="5.07864">
        <ele>206.6</ele>
        <time>2020-06-30T08:51:05Z</time>
      </trkpt>
      <trkpt lat="48.643" lon="5.07859">
        <ele>206.6</ele>
        <time>2020-06-30T08:51:06Z</time>
      </trkpt>
      <trkpt lat="48.64298" lon="5.07855">
        <ele>206.6</ele>
        <time>2020-06-30T08:51:07Z</time>
      </trkpt>
      <trkpt lat="48.64296" lon="5.0785">
        <ele>206.6</ele>
        <time>2020-06-30T08:51:08Z</time>
      </trkpt>
      <trkpt lat="48.64294" lon="5.07846">
        <ele>206.7</ele>
        <time>2020-06-30T08:51:09Z</time>
      </trkpt>
      <trkpt lat="48.64291" lon="5.07843">
        <ele>206.7</ele>
        <time>2020-06-30T08:51:10Z</time>
      </trkpt>
      <trkpt lat="48.64288" lon="5.07838">
        <ele>206.6</ele>
        <time>2020-06-30T08:51:11Z</time>
      </trkpt>
      <trkpt lat="48.64284" lon="5.07834">
        <ele>206.6</ele>
        <time>2020-06-30T08:51:12Z</time>
      </trkpt>
      <trkpt lat="48.6428" lon="5.07831">
        <ele>206.6</ele>
        <time>2020-06-30T08:51:13Z</time>
      </trkpt>
      <trkpt lat="48.64277" lon="5.07827">
        <ele>206.4</ele>
        <time>2020-06-30T08:51:14Z</time>
      </trkpt>
      <trkpt lat="48.64273" lon="5.07822">
        <ele>206.4</ele>
        <time>2020-06-30T08:51:15Z</time>
      </trkpt>
      <trkpt lat="48.64271" lon="5.07816">
        <ele>206.3</ele>
        <time>2020-06-30T08:51:16Z</time>
      </trkpt>
      <trkpt lat="48.6427" lon="5.0781">
        <ele>206.3</ele>
        <time>2020-06-30T08:51:17Z</time>
      </trkpt>
      <trkpt lat="48.6427" lon="5.07804">
        <ele>206.3</ele>
        <time>2020-06-30T08:51:18Z</time>
      </trkpt>
      <trkpt lat="48.6427" lon="5.07798">
        <ele>206.2</ele>
        <time>2020-06-30T08:51:19Z</time>
      </trkpt>
      <trkpt lat="48.6427" lon="5.07792">
        <ele>206.2</ele>
        <time>2020-06-30T08:51:20Z</time>
      </trkpt>
      <trkpt lat="48.6427" lon="5.07787">
        <ele>206.2</ele>
        <time>2020-06-30T08:51:21Z</time>
      </trkpt>
      <trkpt lat="48.64271" lon="5.07783">
        <ele>206.1</ele>
        <time>2020-06-30T08:51:22Z</time>
      </trkpt>
      <trkpt lat="48.64272" lon="5.07778">
        <ele>206.1</ele>
        <time>2020-06-30T08:51:23Z</time>
      </trkpt>
      <trkpt lat="48.64272" lon="5.07773">
        <ele>206.1</ele>
        <time>2020-06-30T08:51:24Z</time>
      </trkpt>
      <trkpt lat="48.64272" lon="5.07768">
        <ele>206</ele>
        <time>2020-06-30T08:51:25Z</time>
      </trkpt>
      <trkpt lat="48.64274" lon="5.07764">
        <ele>206</ele>
        <time>2020-06-30T08:51:26Z</time>
      </trkpt>
      <trkpt lat="48.64276" lon="5.0776">
        <ele>206</ele>
        <time>2020-06-30T08:51:27Z</time>
      </trkpt>
      <trkpt lat="48.64277" lon="5.07757">
        <ele>206</ele>
        <time>2020-06-30T08:51:28Z</time>
      </trkpt>
      <trkpt lat="48.64279" lon="5.07752">
        <ele>205.9</ele>
        <time>2020-06-30T08:51:29Z</time>
      </trkpt>
      <trkpt lat="48.6428" lon="5.07751">
        <ele>205.9</ele>
        <time>2020-06-30T08:51:30Z</time>
      </trkpt>
      <trkpt lat="48.64282" lon="5.07748">
        <ele>205.9</ele>
        <time>2020-06-30T08:51:31Z</time>
      </trkpt>
      <trkpt lat="48.64283" lon="5.07742">
        <ele>205.9</ele>
        <time>2020-06-30T08:51:32Z</time>
      </trkpt>
      <trkpt lat="48.64283" lon="5.07736">
        <ele>205.9</ele>
        <time>2020-06-30T08:51:33Z</time>
      </trkpt>
      <trkpt lat="48.64284" lon="5.0773">
        <ele>205.8</ele>
        <time>2020-06-30T08:51:34Z</time>
      </trkpt>
      <trkpt lat="48.64286" lon="5.07725">
        <ele>205.8</ele>
        <time>2020-06-30T08:51:35Z</time>
      </trkpt>
      <trkpt lat="48.64288" lon="5.07721">
        <ele>205.8</ele>
        <time>2020-06-30T08:51:36Z</time>
      </trkpt>
      <trkpt lat="48.64291" lon="5.07716">
        <ele>205.7</ele>
        <time>2020-06-30T08:51:37Z</time>
      </trkpt>
      <trkpt lat="48.64293" lon="5.0771">
        <ele>205.7</ele>
        <time>2020-06-30T08:51:38Z</time>
      </trkpt>
      <trkpt lat="48.64296" lon="5.07707">
        <ele>205.7</ele>
        <time>2020-06-30T08:51:39Z</time>
      </trkpt>
      <trkpt lat="48.64298" lon="5.07701">
        <ele>205.6</ele>
        <time>2020-06-30T08:51:40Z</time>
      </trkpt>
      <trkpt lat="48.64301" lon="5.07696">
        <ele>205.5</ele>
        <time>2020-06-30T08:51:41Z</time>
      </trkpt>
      <trkpt lat="48.64304" lon="5.07692">
        <ele>205.5</ele>
        <time>2020-06-30T08:51:42Z</time>
      </trkpt>
      <trkpt lat="48.64306" lon="5.07687">
        <ele>205.4</ele>
        <time>2020-06-30T08:51:43Z</time>
      </trkpt>
      <trkpt lat="48.64308" lon="5.07681">
        <ele>205.3</ele>
        <time>2020-06-30T08:51:44Z</time>
      </trkpt>
      <trkpt lat="48.64311" lon="5.07676">
        <ele>205.2</ele>
        <time>2020-06-30T08:51:45Z</time>
      </trkpt>
      <trkpt lat="48.64313" lon="5.07672">
        <ele>205.1</ele>
        <time>2020-06-30T08:51:46Z</time>
      </trkpt>
      <trkpt lat="48.64316" lon="5.07666">
        <ele>205</ele>
        <time>2020-06-30T08:51:47Z</time>
      </trkpt>
      <trkpt lat="48.64318" lon="5.07659">
        <ele>204.8</ele>
        <time>2020-06-30T08:51:48Z</time>
      </trkpt>
      <trkpt lat="48.6432" lon="5.07652">
        <ele>204.7</ele>
        <time>2020-06-30T08:51:49Z</time>
      </trkpt>
      <trkpt lat="48.64322" lon="5.07645">
        <ele>204.5</ele>
        <time>2020-06-30T08:51:50Z</time>
      </trkpt>
      <trkpt lat="48.64325" lon="5.07638">
        <ele>204.3</ele>
        <time>2020-06-30T08:51:51Z</time>
      </trkpt>
      <trkpt lat="48.64328" lon="5.07631">
        <ele>204</ele>
        <time>2020-06-30T08:51:52Z</time>
      </trkpt>
      <trkpt lat="48.64331" lon="5.07624">
        <ele>203.8</ele>
        <time>2020-06-30T08:51:53Z</time>
      </trkpt>
      <trkpt lat="48.64333" lon="5.07617">
        <ele>203.6</ele>
        <time>2020-06-30T08:51:54Z</time>
      </trkpt>
      <trkpt lat="48.64336" lon="5.07609">
        <ele>203.3</ele>
        <time>2020-06-30T08:51:55Z</time>
      </trkpt>
      <trkpt lat="48.64339" lon="5.07601">
        <ele>203</ele>
        <time>2020-06-30T08:51:56Z</time>
      </trkpt>
      <trkpt lat="48.64341" lon="5.07592">
        <ele>202.7</ele>
        <time>2020-06-30T08:51:57Z</time>
      </trkpt>
      <trkpt lat="48.64343" lon="5.07584">
        <ele>202.3</ele>
        <time>2020-06-30T08:51:58Z</time>
      </trkpt>
      <trkpt lat="48.64346" lon="5.07575">
        <ele>202</ele>
        <time>2020-06-30T08:51:59Z</time>
      </trkpt>
      <trkpt lat="48.64349" lon="5.07565">
        <ele>201.6</ele>
        <time>2020-06-30T08:52:00Z</time>
      </trkpt>
      <trkpt lat="48.64351" lon="5.07555">
        <ele>201.1</ele>
        <time>2020-06-30T08:52:01Z</time>
      </trkpt>
      <trkpt lat="48.64352" lon="5.07545">
        <ele>200.7</ele>
        <time>2020-06-30T08:52:02Z</time>
      </trkpt>
      <trkpt lat="48.64353" lon="5.07534">
        <ele>200.2</ele>
        <time>2020-06-30T08:52:03Z</time>
      </trkpt>
      <trkpt lat="48.64356" lon="5.07522">
        <ele>199.6</ele>
        <time>2020-06-30T08:52:04Z</time>
      </trkpt>
      <trkpt lat="48.64358" lon="5.07511">
        <ele>199.1</ele>
        <time>2020-06-30T08:52:05Z</time>
      </trkpt>
      <trkpt lat="48.64359" lon="5.07499">
        <ele>198.6</ele>
        <time>2020-06-30T08:52:06Z</time>
      </trkpt>
      <trkpt lat="48.64361" lon="5.07486">
        <ele>198</ele>
        <time>2020-06-30T08:52:07Z</time>
      </trkpt>
      <trkpt lat="48.64362" lon="5.07474">
        <ele>197.5</ele>
        <time>2020-06-30T08:52:08Z</time>
      </trkpt>
      <trkpt lat="48.64363" lon="5.07461">
        <ele>197</ele>
        <time>2020-06-30T08:52:09Z</time>
      </trkpt>
      <trkpt lat="48.64365" lon="5.07448">
        <ele>196.6</ele>
        <time>2020-06-30T08:52:10Z</time>
      </trkpt>
      <trkpt lat="48.64367" lon="5.07436">
        <ele>196.2</ele>
        <time>2020-06-30T08:52:11Z</time>
      </trkpt>
      <trkpt lat="48.64369" lon="5.07423">
        <ele>195.9</ele>
        <time>2020-06-30T08:52:12Z</time>
      </trkpt>
      <trkpt lat="48.64371" lon="5.07411">
        <ele>195.5</ele>
        <time>2020-06-30T08:52:13Z</time>
      </trkpt>
      <trkpt lat="48.64372" lon="5.07399">
        <ele>195.2</ele>
        <time>2020-06-30T08:52:14Z</time>
      </trkpt>
      <trkpt lat="48.64373" lon="5.07387">
        <ele>194.9</ele>
        <time>2020-06-30T08:52:15Z</time>
      </trkpt>
      <trkpt lat="48.64375" lon="5.07375">
        <ele>194.7</ele>
        <time>2020-06-30T08:52:16Z</time>
      </trkpt>
      <trkpt lat="48.64376" lon="5.07362">
        <ele>194.4</ele>
        <time>2020-06-30T08:52:17Z</time>
      </trkpt>
      <trkpt lat="48.64377" lon="5.0735">
        <ele>194.2</ele>
        <time>2020-06-30T08:52:18Z</time>
      </trkpt>
      <trkpt lat="48.64379" lon="5.07338">
        <ele>194</ele>
        <time>2020-06-30T08:52:19Z</time>
      </trkpt>
      <trkpt lat="48.6438" lon="5.07326">
        <ele>193.8</ele>
        <time>2020-06-30T08:52:20Z</time>
      </trkpt>
      <trkpt lat="48.64382" lon="5.07314">
        <ele>193.7</ele>
        <time>2020-06-30T08:52:21Z</time>
      </trkpt>
      <trkpt lat="48.64383" lon="5.07303">
        <ele>193.5</ele>
        <time>2020-06-30T08:52:22Z</time>
      </trkpt>
      <trkpt lat="48.64384" lon="5.07292">
        <ele>193.4</ele>
        <time>2020-06-30T08:52:23Z</time>
      </trkpt>
      <trkpt lat="48.64385" lon="5.07281">
        <ele>193.4</ele>
        <time>2020-06-30T08:52:24Z</time>
      </trkpt>
      <trkpt lat="48.64386" lon="5.0727">
        <ele>193.4</ele>
        <time>2020-06-30T08:52:25Z</time>
      </trkpt>
      <trkpt lat="48.64387" lon="5.0726">
        <ele>193.4</ele>
        <time>2020-06-30T08:52:26Z</time>
      </trkpt>
      <trkpt lat="48.64388" lon="5.07249">
        <ele>193.4</ele>
        <time>2020-06-30T08:52:27Z</time>
      </trkpt>
      <trkpt lat="48.64389" lon="5.07239">
        <ele>193.5</ele>
        <time>2020-06-30T08:52:28Z</time>
      </trkpt>
      <trkpt lat="48.6439" lon="5.07229">
        <ele>193.5</ele>
        <time>2020-06-30T08:52:29Z</time>
      </trkpt>
      <trkpt lat="48.64391" lon="5.07219">
        <ele>193.6</ele>
        <time>2020-06-30T08:52:30Z</time>
      </trkpt>
      <trkpt lat="48.64392" lon="5.07209">
        <ele>193.7</ele>
        <time>2020-06-30T08:52:31Z</time>
      </trkpt>
      <trkpt lat="48.64393" lon="5.072">
        <ele>193.8</ele>
        <time>2020-06-30T08:52:32Z</time>
      </trkpt>
      <trkpt lat="48.64393" lon="5.0719">
        <ele>193.9</ele>
        <time>2020-06-30T08:52:33Z</time>
      </trkpt>
      <trkpt lat="48.64393" lon="5.0718">
        <ele>194.1</ele>
        <time>2020-06-30T08:52:34Z</time>
      </trkpt>
      <trkpt lat="48.64393" lon="5.0717">
        <ele>194.2</ele>
        <time>2020-06-30T08:52:35Z</time>
      </trkpt>
      <trkpt lat="48.64394" lon="5.07162">
        <ele>194.4</ele>
        <time>2020-06-30T08:52:36Z</time>
      </trkpt>
      <trkpt lat="48.64394" lon="5.07153">
        <ele>194.6</ele>
        <time>2020-06-30T08:52:37Z</time>
      </trkpt>
      <trkpt lat="48.64392" lon="5.07145">
        <ele>194.8</ele>
        <time>2020-06-30T08:52:38Z</time>
      </trkpt>
      <trkpt lat="48.64393" lon="5.07137">
        <ele>195</ele>
        <time>2020-06-30T08:52:39Z</time>
      </trkpt>
      <trkpt lat="48.64392" lon="5.0713">
        <ele>195.2</ele>
        <time>2020-06-30T08:52:40Z</time>
      </trkpt>
      <trkpt lat="48.64392" lon="5.07125">
        <ele>195.4</ele>
        <time>2020-06-30T08:52:41Z</time>
      </trkpt>
      <trkpt lat="48.64393" lon="5.07119">
        <ele>195.5</ele>
        <time>2020-06-30T08:52:42Z</time>
      </trkpt>
      <trkpt lat="48.64392" lon="5.07114">
        <ele>195.7</ele>
        <time>2020-06-30T08:52:43Z</time>
      </trkpt>
      <trkpt lat="48.64392" lon="5.07109">
        <ele>195.8</ele>
        <time>2020-06-30T08:52:44Z</time>
      </trkpt>
      <trkpt lat="48.64391" lon="5.07103">
        <ele>196</ele>
        <time>2020-06-30T08:52:45Z</time>
      </trkpt>
      <trkpt lat="48.6439" lon="5.07097">
        <ele>196.2</ele>
        <time>2020-06-30T08:52:46Z</time>
      </trkpt>
      <trkpt lat="48.6439" lon="5.07092">
        <ele>196.4</ele>
        <time>2020-06-30T08:52:47Z</time>
      </trkpt>
      <trkpt lat="48.64389" lon="5.07086">
        <ele>196.6</ele>
        <time>2020-06-30T08:52:48Z</time>
      </trkpt>
      <trkpt lat="48.64388" lon="5.0708">
        <ele>196.8</ele>
        <time>2020-06-30T08:52:49Z</time>
      </trkpt>
      <trkpt lat="48.64388" lon="5.07074">
        <ele>197</ele>
        <time>2020-06-30T08:52:50Z</time>
      </trkpt>
      <trkpt lat="48.64387" lon="5.07068">
        <ele>197.2</ele>
        <time>2020-06-30T08:52:51Z</time>
      </trkpt>
      <trkpt lat="48.64388" lon="5.07062">
        <ele>197.4</ele>
        <time>2020-06-30T08:52:52Z</time>
      </trkpt>
      <trkpt lat="48.64387" lon="5.07056">
        <ele>197.6</ele>
        <time>2020-06-30T08:52:53Z</time>
      </trkpt>
      <trkpt lat="48.64387" lon="5.07051">
        <ele>197.8</ele>
        <time>2020-06-30T08:52:54Z</time>
      </trkpt>
      <trkpt lat="48.64388" lon="5.07047">
        <ele>198</ele>
        <time>2020-06-30T08:52:55Z</time>
      </trkpt>
      <trkpt lat="48.64388" lon="5.07042">
        <ele>198.1</ele>
        <time>2020-06-30T08:52:56Z</time>
      </trkpt>
      <trkpt lat="48.64387" lon="5.07038">
        <ele>198.3</ele>
        <time>2020-06-30T08:52:57Z</time>
      </trkpt>
      <trkpt lat="48.64386" lon="5.07032">
        <ele>198.5</ele>
        <time>2020-06-30T08:52:58Z</time>
      </trkpt>
      <trkpt lat="48.64385" lon="5.07027">
        <ele>198.7</ele>
        <time>2020-06-30T08:52:59Z</time>
      </trkpt>
      <trkpt lat="48.64384" lon="5.0702">
        <ele>198.9</ele>
        <time>2020-06-30T08:53:00Z</time>
      </trkpt>
      <trkpt lat="48.64384" lon="5.07014">
        <ele>199</ele>
        <time>2020-06-30T08:53:01Z</time>
      </trkpt>
      <trkpt lat="48.64384" lon="5.07007">
        <ele>199.2</ele>
        <time>2020-06-30T08:53:02Z</time>
      </trkpt>
      <trkpt lat="48.64383" lon="5.07">
        <ele>199.4</ele>
        <time>2020-06-30T08:53:03Z</time>
      </trkpt>
      <trkpt lat="48.64382" lon="5.06993">
        <ele>199.6</ele>
        <time>2020-06-30T08:53:04Z</time>
      </trkpt>
      <trkpt lat="48.64381" lon="5.06986">
        <ele>199.7</ele>
        <time>2020-06-30T08:53:05Z</time>
      </trkpt>
      <trkpt lat="48.64379" lon="5.06981">
        <ele>199.9</ele>
        <time>2020-06-30T08:53:06Z</time>
      </trkpt>
      <trkpt lat="48.64378" lon="5.06974">
        <ele>200.1</ele>
        <time>2020-06-30T08:53:07Z</time>
      </trkpt>
      <trkpt lat="48.64377" lon="5.06967">
        <ele>200.2</ele>
        <time>2020-06-30T08:53:08Z</time>
      </trkpt>
      <trkpt lat="48.64376" lon="5.0696">
        <ele>200.4</ele>
        <time>2020-06-30T08:53:09Z</time>
      </trkpt>
      <trkpt lat="48.64375" lon="5.06955">
        <ele>200.5</ele>
        <time>2020-06-30T08:53:10Z</time>
      </trkpt>
      <trkpt lat="48.64375" lon="5.0695">
        <ele>200.6</ele>
        <time>2020-06-30T08:53:11Z</time>
      </trkpt>
      <trkpt lat="48.64373" lon="5.06946">
        <ele>200.7</ele>
        <time>2020-06-30T08:53:12Z</time>
      </trkpt>
      <trkpt lat="48.64372" lon="5.06942">
        <ele>200.8</ele>
        <time>2020-06-30T08:53:13Z</time>
      </trkpt>
      <trkpt lat="48.64372" lon="5.06936">
        <ele>200.9</ele>
        <time>2020-06-30T08:53:14Z</time>
      </trkpt>
      <trkpt lat="48.64372" lon="5.06931">
        <ele>201</ele>
        <time>2020-06-30T08:53:15Z</time>
      </trkpt>
      <trkpt lat="48.64372" lon="5.06924">
        <ele>201.1</ele>
        <time>2020-06-30T08:53:16Z</time>
      </trkpt>
      <trkpt lat="48.64372" lon="5.06916">
        <ele>201.1</ele>
        <time>2020-06-30T08:53:17Z</time>
      </trkpt>
      <trkpt lat="48.64372" lon="5.06909">
        <ele>201.1</ele>
        <time>2020-06-30T08:53:18Z</time>
      </trkpt>
      <trkpt lat="48.64371" lon="5.06902">
        <ele>201.1</ele>
        <time>2020-06-30T08:53:19Z</time>
      </trkpt>
      <trkpt lat="48.64371" lon="5.06895">
        <ele>201</ele>
        <time>2020-06-30T08:53:20Z</time>
      </trkpt>
      <trkpt lat="48.6437" lon="5.0689">
        <ele>201</ele>
        <time>2020-06-30T08:53:21Z</time>
      </trkpt>
      <trkpt lat="48.64369" lon="5.06883">
        <ele>200.9</ele>
        <time>2020-06-30T08:53:22Z</time>
      </trkpt>
      <trkpt lat="48.64367" lon="5.06875">
        <ele>200.9</ele>
        <time>2020-06-30T08:53:23Z</time>
      </trkpt>
      <trkpt lat="48.64365" lon="5.06868">
        <ele>200.8</ele>
        <time>2020-06-30T08:53:24Z</time>
      </trkpt>
      <trkpt lat="48.64363" lon="5.06861">
        <ele>200.7</ele>
        <time>2020-06-30T08:53:25Z</time>
      </trkpt>
      <trkpt lat="48.64361" lon="5.06853">
        <ele>200.6</ele>
        <time>2020-06-30T08:53:26Z</time>
      </trkpt>
      <trkpt lat="48.64359" lon="5.06847">
        <ele>200.6</ele>
        <time>2020-06-30T08:53:27Z</time>
      </trkpt>
      <trkpt lat="48.64357" lon="5.06839">
        <ele>200.5</ele>
        <time>2020-06-30T08:53:28Z</time>
      </trkpt>
      <trkpt lat="48.64356" lon="5.06831">
        <ele>200.4</ele>
        <time>2020-06-30T08:53:29Z</time>
      </trkpt>
      <trkpt lat="48.64354" lon="5.06823">
        <ele>200.3</ele>
        <time>2020-06-30T08:53:30Z</time>
      </trkpt>
      <trkpt lat="48.64353" lon="5.06815">
        <ele>200.3</ele>
        <time>2020-06-30T08:53:31Z</time>
      </trkpt>
      <trkpt lat="48.64351" lon="5.06808">
        <ele>200.2</ele>
        <time>2020-06-30T08:53:32Z</time>
      </trkpt>
      <trkpt lat="48.6435" lon="5.068">
        <ele>200.2</ele>
        <time>2020-06-30T08:53:33Z</time>
      </trkpt>
      <trkpt lat="48.64348" lon="5.06791">
        <ele>200.1</ele>
        <time>2020-06-30T08:53:34Z</time>
      </trkpt>
      <trkpt lat="48.64346" lon="5.06784">
        <ele>200</ele>
        <time>2020-06-30T08:53:35Z</time>
      </trkpt>
      <trkpt lat="48.64344" lon="5.06775">
        <ele>200</ele>
        <time>2020-06-30T08:53:36Z</time>
      </trkpt>
      <trkpt lat="48.64342" lon="5.06767">
        <ele>199.9</ele>
        <time>2020-06-30T08:53:37Z</time>
      </trkpt>
      <trkpt lat="48.6434" lon="5.06759">
        <ele>199.9</ele>
        <time>2020-06-30T08:53:38Z</time>
      </trkpt>
      <trkpt lat="48.64338" lon="5.0675">
        <ele>199.9</ele>
        <time>2020-06-30T08:53:39Z</time>
      </trkpt>
      <trkpt lat="48.64335" lon="5.06742">
        <ele>199.9</ele>
        <time>2020-06-30T08:53:40Z</time>
      </trkpt>
      <trkpt lat="48.64333" lon="5.06735">
        <ele>199.8</ele>
        <time>2020-06-30T08:53:41Z</time>
      </trkpt>
      <trkpt lat="48.6433" lon="5.06727">
        <ele>199.8</ele>
        <time>2020-06-30T08:53:42Z</time>
      </trkpt>
      <trkpt lat="48.64327" lon="5.06718">
        <ele>199.8</ele>
        <time>2020-06-30T08:53:43Z</time>
      </trkpt>
      <trkpt lat="48.64325" lon="5.06709">
        <ele>199.8</ele>
        <time>2020-06-30T08:53:44Z</time>
      </trkpt>
      <trkpt lat="48.64323" lon="5.06702">
        <ele>199.7</ele>
        <time>2020-06-30T08:53:45Z</time>
      </trkpt>
      <trkpt lat="48.64321" lon="5.06695">
        <ele>199.7</ele>
        <time>2020-06-30T08:53:46Z</time>
      </trkpt>
      <trkpt lat="48.64319" lon="5.06688">
        <ele>199.7</ele>
        <time>2020-06-30T08:53:47Z</time>
      </trkpt>
      <trkpt lat="48.64317" lon="5.06681">
        <ele>199.7</ele>
        <time>2020-06-30T08:53:48Z</time>
      </trkpt>
      <trkpt lat="48.64316" lon="5.06675">
        <ele>199.6</ele>
        <time>2020-06-30T08:53:49Z</time>
      </trkpt>
      <trkpt lat="48.64314" lon="5.06668">
        <ele>199.6</ele>
        <time>2020-06-30T08:53:50Z</time>
      </trkpt>
      <trkpt lat="48.64313" lon="5.06661">
        <ele>199.6</ele>
        <time>2020-06-30T08:53:51Z</time>
      </trkpt>
      <trkpt lat="48.64311" lon="5.06653">
        <ele>199.5</ele>
        <time>2020-06-30T08:53:52Z</time>
      </trkpt>
      <trkpt lat="48.64309" lon="5.06647">
        <ele>199.5</ele>
        <time>2020-06-30T08:53:53Z</time>
      </trkpt>
      <trkpt lat="48.64307" lon="5.0664">
        <ele>199.4</ele>
        <time>2020-06-30T08:53:54Z</time>
      </trkpt>
      <trkpt lat="48.64305" lon="5.06632">
        <ele>199.3</ele>
        <time>2020-06-30T08:53:55Z</time>
      </trkpt>
      <trkpt lat="48.64303" lon="5.06626">
        <ele>199.3</ele>
        <time>2020-06-30T08:53:56Z</time>
      </trkpt>
      <trkpt lat="48.64302" lon="5.06618">
        <ele>199.3</ele>
        <time>2020-06-30T08:53:57Z</time>
      </trkpt>
      <trkpt lat="48.64299" lon="5.0661">
        <ele>199.2</ele>
        <time>2020-06-30T08:53:58Z</time>
      </trkpt>
      <trkpt lat="48.64297" lon="5.06602">
        <ele>199.2</ele>
        <time>2020-06-30T08:53:59Z</time>
      </trkpt>
      <trkpt lat="48.64296" lon="5.06595">
        <ele>199.1</ele>
        <time>2020-06-30T08:54:00Z</time>
      </trkpt>
      <trkpt lat="48.64294" lon="5.06589">
        <ele>199</ele>
        <time>2020-06-30T08:54:01Z</time>
      </trkpt>
      <trkpt lat="48.64293" lon="5.06582">
        <ele>198.8</ele>
        <time>2020-06-30T08:54:02Z</time>
      </trkpt>
      <trkpt lat="48.64291" lon="5.06575">
        <ele>198.6</ele>
        <time>2020-06-30T08:54:03Z</time>
      </trkpt>
      <trkpt lat="48.6429" lon="5.06571">
        <ele>198.4</ele>
        <time>2020-06-30T08:54:04Z</time>
      </trkpt>
      <trkpt lat="48.64289" lon="5.06565">
        <ele>198.2</ele>
        <time>2020-06-30T08:54:05Z</time>
      </trkpt>
      <trkpt lat="48.64288" lon="5.06561">
        <ele>198.1</ele>
        <time>2020-06-30T08:54:06Z</time>
      </trkpt>
      <trkpt lat="48.64287" lon="5.06556">
        <ele>198</ele>
        <time>2020-06-30T08:54:07Z</time>
      </trkpt>
      <trkpt lat="48.64284" lon="5.0655">
        <ele>197.9</ele>
        <time>2020-06-30T08:54:08Z</time>
      </trkpt>
      <trkpt lat="48.64284" lon="5.06545">
        <ele>197.8</ele>
        <time>2020-06-30T08:54:09Z</time>
      </trkpt>
      <trkpt lat="48.64283" lon="5.0654">
        <ele>197.7</ele>
        <time>2020-06-30T08:54:10Z</time>
      </trkpt>
      <trkpt lat="48.64283" lon="5.06533">
        <ele>197.6</ele>
        <time>2020-06-30T08:54:11Z</time>
      </trkpt>
      <trkpt lat="48.64282" lon="5.06527">
        <ele>197.5</ele>
        <time>2020-06-30T08:54:12Z</time>
      </trkpt>
      <trkpt lat="48.6428" lon="5.06518">
        <ele>197.3</ele>
        <time>2020-06-30T08:54:13Z</time>
      </trkpt>
      <trkpt lat="48.64278" lon="5.06509">
        <ele>197.1</ele>
        <time>2020-06-30T08:54:14Z</time>
      </trkpt>
      <trkpt lat="48.64275" lon="5.065">
        <ele>196.9</ele>
        <time>2020-06-30T08:54:15Z</time>
      </trkpt>
      <trkpt lat="48.64273" lon="5.06491">
        <ele>196.7</ele>
        <time>2020-06-30T08:54:16Z</time>
      </trkpt>
      <trkpt lat="48.64271" lon="5.06483">
        <ele>196.5</ele>
        <time>2020-06-30T08:54:17Z</time>
      </trkpt>
      <trkpt lat="48.64269" lon="5.06473">
        <ele>196.3</ele>
        <time>2020-06-30T08:54:18Z</time>
      </trkpt>
      <trkpt lat="48.64267" lon="5.06464">
        <ele>196.1</ele>
        <time>2020-06-30T08:54:19Z</time>
      </trkpt>
      <trkpt lat="48.64266" lon="5.06456">
        <ele>196</ele>
        <time>2020-06-30T08:54:20Z</time>
      </trkpt>
      <trkpt lat="48.64265" lon="5.06447">
        <ele>195.9</ele>
        <time>2020-06-30T08:54:21Z</time>
      </trkpt>
      <trkpt lat="48.64262" lon="5.06437">
        <ele>195.8</ele>
        <time>2020-06-30T08:54:22Z</time>
      </trkpt>
      <trkpt lat="48.64261" lon="5.06428">
        <ele>195.7</ele>
        <time>2020-06-30T08:54:23Z</time>
      </trkpt>
      <trkpt lat="48.64259" lon="5.06419">
        <ele>195.6</ele>
        <time>2020-06-30T08:54:24Z</time>
      </trkpt>
      <trkpt lat="48.64258" lon="5.06409">
        <ele>195.6</ele>
        <time>2020-06-30T08:54:25Z</time>
      </trkpt>
      <trkpt lat="48.64255" lon="5.06399">
        <ele>195.6</ele>
        <time>2020-06-30T08:54:26Z</time>
      </trkpt>
      <trkpt lat="48.64253" lon="5.06391">
        <ele>195.6</ele>
        <time>2020-06-30T08:54:27Z</time>
      </trkpt>
      <trkpt lat="48.64252" lon="5.06383">
        <ele>195.6</ele>
        <time>2020-06-30T08:54:28Z</time>
      </trkpt>
      <trkpt lat="48.64249" lon="5.06377">
        <ele>195.6</ele>
        <time>2020-06-30T08:54:29Z</time>
      </trkpt>
      <trkpt lat="48.64246" lon="5.0637">
        <ele>195.6</ele>
        <time>2020-06-30T08:54:30Z</time>
      </trkpt>
      <trkpt lat="48.64244" lon="5.0636">
        <ele>195.6</ele>
        <time>2020-06-30T08:54:31Z</time>
      </trkpt>
      <trkpt lat="48.64242" lon="5.06353">
        <ele>195.6</ele>
        <time>2020-06-30T08:54:32Z</time>
      </trkpt>
      <trkpt lat="48.64241" lon="5.06344">
        <ele>195.6</ele>
        <time>2020-06-30T08:54:33Z</time>
      </trkpt>
      <trkpt lat="48.6424" lon="5.06335">
        <ele>195.6</ele>
        <time>2020-06-30T08:54:34Z</time>
      </trkpt>
      <trkpt lat="48.64239" lon="5.06327">
        <ele>195.6</ele>
        <time>2020-06-30T08:54:35Z</time>
      </trkpt>
      <trkpt lat="48.64237" lon="5.0632">
        <ele>195.5</ele>
        <time>2020-06-30T08:54:36Z</time>
      </trkpt>
      <trkpt lat="48.64235" lon="5.06311">
        <ele>195.5</ele>
        <time>2020-06-30T08:54:37Z</time>
      </trkpt>
      <trkpt lat="48.64234" lon="5.06303">
        <ele>195.5</ele>
        <time>2020-06-30T08:54:38Z</time>
      </trkpt>
      <trkpt lat="48.64231" lon="5.06295">
        <ele>195.5</ele>
        <time>2020-06-30T08:54:39Z</time>
      </trkpt>
      <trkpt lat="48.64229" lon="5.06286">
        <ele>195.5</ele>
        <time>2020-06-30T08:54:40Z</time>
      </trkpt>
      <trkpt lat="48.64227" lon="5.06278">
        <ele>195.6</ele>
        <time>2020-06-30T08:54:41Z</time>
      </trkpt>
      <trkpt lat="48.64224" lon="5.0627">
        <ele>195.6</ele>
        <time>2020-06-30T08:54:42Z</time>
      </trkpt>
      <trkpt lat="48.64223" lon="5.06262">
        <ele>195.7</ele>
        <time>2020-06-30T08:54:43Z</time>
      </trkpt>
      <trkpt lat="48.64221" lon="5.06255">
        <ele>195.8</ele>
        <time>2020-06-30T08:54:44Z</time>
      </trkpt>
      <trkpt lat="48.6422" lon="5.06249">
        <ele>195.9</ele>
        <time>2020-06-30T08:54:45Z</time>
      </trkpt>
      <trkpt lat="48.64218" lon="5.06241">
        <ele>196</ele>
        <time>2020-06-30T08:54:46Z</time>
      </trkpt>
      <trkpt lat="48.64217" lon="5.06235">
        <ele>196.1</ele>
        <time>2020-06-30T08:54:47Z</time>
      </trkpt>
      <trkpt lat="48.64215" lon="5.06228">
        <ele>196.1</ele>
        <time>2020-06-30T08:54:48Z</time>
      </trkpt>
      <trkpt lat="48.64213" lon="5.06221">
        <ele>196.2</ele>
        <time>2020-06-30T08:54:49Z</time>
      </trkpt>
      <trkpt lat="48.64211" lon="5.06217">
        <ele>196.2</ele>
        <time>2020-06-30T08:54:50Z</time>
      </trkpt>
      <trkpt lat="48.64209" lon="5.06211">
        <ele>196.3</ele>
        <time>2020-06-30T08:54:51Z</time>
      </trkpt>
      <trkpt lat="48.64207" lon="5.06205">
        <ele>196.3</ele>
        <time>2020-06-30T08:54:52Z</time>
      </trkpt>
      <trkpt lat="48.64207" lon="5.06198">
        <ele>196.4</ele>
        <time>2020-06-30T08:54:53Z</time>
      </trkpt>
      <trkpt lat="48.64205" lon="5.06189">
        <ele>196.5</ele>
        <time>2020-06-30T08:54:54Z</time>
      </trkpt>
      <trkpt lat="48.64202" lon="5.06181">
        <ele>196.5</ele>
        <time>2020-06-30T08:54:55Z</time>
      </trkpt>
      <trkpt lat="48.642" lon="5.06173">
        <ele>196.6</ele>
        <time>2020-06-30T08:54:56Z</time>
      </trkpt>
      <trkpt lat="48.64198" lon="5.06166">
        <ele>196.7</ele>
        <time>2020-06-30T08:54:57Z</time>
      </trkpt>
      <trkpt lat="48.64196" lon="5.06159">
        <ele>196.7</ele>
        <time>2020-06-30T08:54:58Z</time>
      </trkpt>
      <trkpt lat="48.64193" lon="5.06153">
        <ele>196.8</ele>
        <time>2020-06-30T08:54:59Z</time>
      </trkpt>
      <trkpt lat="48.64191" lon="5.06146">
        <ele>196.9</ele>
        <time>2020-06-30T08:55:00Z</time>
      </trkpt>
      <trkpt lat="48.64189" lon="5.06138">
        <ele>197</ele>
        <time>2020-06-30T08:55:01Z</time>
      </trkpt>
      <trkpt lat="48.64186" lon="5.06131">
        <ele>197.1</ele>
        <time>2020-06-30T08:55:02Z</time>
      </trkpt>
      <trkpt lat="48.64184" lon="5.06127">
        <ele>197.2</ele>
        <time>2020-06-30T08:55:03Z</time>
      </trkpt>
      <trkpt lat="48.64182" lon="5.0612">
        <ele>197.3</ele>
        <time>2020-06-30T08:55:04Z</time>
      </trkpt>
      <trkpt lat="48.6418" lon="5.06113">
        <ele>197.5</ele>
        <time>2020-06-30T08:55:05Z</time>
      </trkpt>
      <trkpt lat="48.64179" lon="5.06107">
        <ele>197.6</ele>
        <time>2020-06-30T08:55:06Z</time>
      </trkpt>
      <trkpt lat="48.64177" lon="5.06099">
        <ele>197.6</ele>
        <time>2020-06-30T08:55:07Z</time>
      </trkpt>
      <trkpt lat="48.64176" lon="5.06094">
        <ele>197.7</ele>
        <time>2020-06-30T08:55:08Z</time>
      </trkpt>
      <trkpt lat="48.64173" lon="5.0609">
        <ele>197.8</ele>
        <time>2020-06-30T08:55:09Z</time>
      </trkpt>
      <trkpt lat="48.64172" lon="5.06085">
        <ele>197.8</ele>
        <time>2020-06-30T08:55:10Z</time>
      </trkpt>
      <trkpt lat="48.64169" lon="5.0608">
        <ele>197.9</ele>
        <time>2020-06-30T08:55:11Z</time>
      </trkpt>
      <trkpt lat="48.64167" lon="5.06073">
        <ele>198</ele>
        <time>2020-06-30T08:55:12Z</time>
      </trkpt>
      <trkpt lat="48.64166" lon="5.06068">
        <ele>198.1</ele>
        <time>2020-06-30T08:55:13Z</time>
      </trkpt>
      <trkpt lat="48.64162" lon="5.06064">
        <ele>198.2</ele>
        <time>2020-06-30T08:55:14Z</time>
      </trkpt>
      <trkpt lat="48.6416" lon="5.06059">
        <ele>198.3</ele>
        <time>2020-06-30T08:55:15Z</time>
      </trkpt>
      <trkpt lat="48.64157" lon="5.06055">
        <ele>198.4</ele>
        <time>2020-06-30T08:55:16Z</time>
      </trkpt>
      <trkpt lat="48.64152" lon="5.0605">
        <ele>198.5</ele>
        <time>2020-06-30T08:55:17Z</time>
      </trkpt>
      <trkpt lat="48.64149" lon="5.06045">
        <ele>198.6</ele>
        <time>2020-06-30T08:55:18Z</time>
      </trkpt>
      <trkpt lat="48.64145" lon="5.06041">
        <ele>198.7</ele>
        <time>2020-06-30T08:55:19Z</time>
      </trkpt>
      <trkpt lat="48.64141" lon="5.06039">
        <ele>198.8</ele>
        <time>2020-06-30T08:55:20Z</time>
      </trkpt>
      <trkpt lat="48.64136" lon="5.06037">
        <ele>198.9</ele>
        <time>2020-06-30T08:55:21Z</time>
      </trkpt>
      <trkpt lat="48.64131" lon="5.06037">
        <ele>199</ele>
        <time>2020-06-30T08:55:22Z</time>
      </trkpt>
      <trkpt lat="48.64126" lon="5.06037">
        <ele>199.1</ele>
        <time>2020-06-30T08:55:23Z</time>
      </trkpt>
      <trkpt lat="48.64121" lon="5.06036">
        <ele>199.2</ele>
        <time>2020-06-30T08:55:24Z</time>
      </trkpt>
      <trkpt lat="48.64116" lon="5.06035">
        <ele>199.3</ele>
        <time>2020-06-30T08:55:25Z</time>
      </trkpt>
      <trkpt lat="48.64113" lon="5.06034">
        <ele>199.4</ele>
        <time>2020-06-30T08:55:26Z</time>
      </trkpt>
      <trkpt lat="48.64108" lon="5.06031">
        <ele>199.6</ele>
        <time>2020-06-30T08:55:27Z</time>
      </trkpt>
      <trkpt lat="48.64106" lon="5.0603">
        <ele>199.6</ele>
        <time>2020-06-30T08:55:28Z</time>
      </trkpt>
      <trkpt lat="48.64103" lon="5.06029">
        <ele>199.7</ele>
        <time>2020-06-30T08:55:29Z</time>
      </trkpt>
      <trkpt lat="48.641" lon="5.06029">
        <ele>199.8</ele>
        <time>2020-06-30T08:55:30Z</time>
      </trkpt>
      <trkpt lat="48.64097" lon="5.06028">
        <ele>200</ele>
        <time>2020-06-30T08:55:31Z</time>
      </trkpt>
      <trkpt lat="48.64093" lon="5.06028">
        <ele>200.1</ele>
        <time>2020-06-30T08:55:32Z</time>
      </trkpt>
      <trkpt lat="48.64089" lon="5.06027">
        <ele>200.3</ele>
        <time>2020-06-30T08:55:33Z</time>
      </trkpt>
      <trkpt lat="48.64087" lon="5.06027">
        <ele>200.4</ele>
        <time>2020-06-30T08:55:34Z</time>
      </trkpt>
      <trkpt lat="48.64082" lon="5.06026">
        <ele>200.6</ele>
        <time>2020-06-30T08:55:35Z</time>
      </trkpt>
      <trkpt lat="48.64079" lon="5.06025">
        <ele>200.7</ele>
        <time>2020-06-30T08:55:36Z</time>
      </trkpt>
      <trkpt lat="48.64076" lon="5.06025">
        <ele>200.8</ele>
        <time>2020-06-30T08:55:37Z</time>
      </trkpt>
      <trkpt lat="48.64073" lon="5.06023">
        <ele>201</ele>
        <time>2020-06-30T08:55:38Z</time>
      </trkpt>
      <trkpt lat="48.64069" lon="5.06022">
        <ele>201.2</ele>
        <time>2020-06-30T08:55:39Z</time>
      </trkpt>
      <trkpt lat="48.64066" lon="5.06021">
        <ele>201.3</ele>
        <time>2020-06-30T08:55:40Z</time>
      </trkpt>
      <trkpt lat="48.64062" lon="5.06021">
        <ele>201.5</ele>
        <time>2020-06-30T08:55:41Z</time>
      </trkpt>
      <trkpt lat="48.6406" lon="5.0602">
        <ele>201.6</ele>
        <time>2020-06-30T08:55:42Z</time>
      </trkpt>
      <trkpt lat="48.64058" lon="5.06019">
        <ele>201.8</ele>
        <time>2020-06-30T08:55:43Z</time>
      </trkpt>
      <trkpt lat="48.64053" lon="5.06017">
        <ele>202</ele>
        <time>2020-06-30T08:55:44Z</time>
      </trkpt>
      <trkpt lat="48.64049" lon="5.06016">
        <ele>202.2</ele>
        <time>2020-06-30T08:55:45Z</time>
      </trkpt>
      <trkpt lat="48.64046" lon="5.06016">
        <ele>202.4</ele>
        <time>2020-06-30T08:55:46Z</time>
      </trkpt>
      <trkpt lat="48.64042" lon="5.06015">
        <ele>202.6</ele>
        <time>2020-06-30T08:55:47Z</time>
      </trkpt>
      <trkpt lat="48.64038" lon="5.06014">
        <ele>202.9</ele>
        <time>2020-06-30T08:55:48Z</time>
      </trkpt>
      <trkpt lat="48.64037" lon="5.06013">
        <ele>203</ele>
        <time>2020-06-30T08:55:49Z</time>
      </trkpt>
      <trkpt lat="48.64035" lon="5.06013">
        <ele>203.1</ele>
        <time>2020-06-30T08:55:50Z</time>
      </trkpt>
      <trkpt lat="48.64033" lon="5.06013">
        <ele>203.2</ele>
        <time>2020-06-30T08:55:51Z</time>
      </trkpt>
      <trkpt lat="48.64029" lon="5.06013">
        <ele>203.4</ele>
        <time>2020-06-30T08:55:52Z</time>
      </trkpt>
      <trkpt lat="48.64025" lon="5.06013">
        <ele>203.6</ele>
        <time>2020-06-30T08:55:53Z</time>
      </trkpt>
      <trkpt lat="48.64022" lon="5.06013">
        <ele>203.8</ele>
        <time>2020-06-30T08:55:54Z</time>
      </trkpt>
      <trkpt lat="48.64018" lon="5.06013">
        <ele>204</ele>
        <time>2020-06-30T08:55:55Z</time>
      </trkpt>
      <trkpt lat="48.64017" lon="5.06013">
        <ele>204.1</ele>
        <time>2020-06-30T08:55:56Z</time>
      </trkpt>
      <trkpt lat="48.64014" lon="5.06012">
        <ele>204.2</ele>
        <time>2020-06-30T08:55:57Z</time>
      </trkpt>
      <trkpt lat="48.64011" lon="5.06011">
        <ele>204.4</ele>
        <time>2020-06-30T08:55:58Z</time>
      </trkpt>
      <trkpt lat="48.64007" lon="5.06011">
        <ele>204.6</ele>
        <time>2020-06-30T08:55:59Z</time>
      </trkpt>
      <trkpt lat="48.64004" lon="5.0601">
        <ele>204.8</ele>
        <time>2020-06-30T08:56:00Z</time>
      </trkpt>
      <trkpt lat="48.64" lon="5.06009">
        <ele>204.9</ele>
        <time>2020-06-30T08:56:01Z</time>
      </trkpt>
      <trkpt lat="48.63996" lon="5.06008">
        <ele>205.1</ele>
        <time>2020-06-30T08:56:02Z</time>
      </trkpt>
      <trkpt lat="48.63993" lon="5.06008">
        <ele>205.3</ele>
        <time>2020-06-30T08:56:03Z</time>
      </trkpt>
      <trkpt lat="48.6399" lon="5.06007">
        <ele>205.4</ele>
        <time>2020-06-30T08:56:04Z</time>
      </trkpt>
      <trkpt lat="48.63987" lon="5.06006">
        <ele>205.6</ele>
        <time>2020-06-30T08:56:05Z</time>
      </trkpt>
      <trkpt lat="48.63985" lon="5.06006">
        <ele>205.7</ele>
        <time>2020-06-30T08:56:06Z</time>
      </trkpt>
      <trkpt lat="48.63981" lon="5.06005">
        <ele>205.9</ele>
        <time>2020-06-30T08:56:07Z</time>
      </trkpt>
      <trkpt lat="48.63976" lon="5.06005">
        <ele>206.2</ele>
        <time>2020-06-30T08:56:08Z</time>
      </trkpt>
      <trkpt lat="48.63972" lon="5.06005">
        <ele>206.4</ele>
        <time>2020-06-30T08:56:09Z</time>
      </trkpt>
      <trkpt lat="48.63969" lon="5.06002">
        <ele>206.6</ele>
        <time>2020-06-30T08:56:10Z</time>
      </trkpt>
      <trkpt lat="48.63965" lon="5.06002">
        <ele>206.9</ele>
        <time>2020-06-30T08:56:11Z</time>
      </trkpt>
      <trkpt lat="48.63961" lon="5.06001">
        <ele>207.1</ele>
        <time>2020-06-30T08:56:12Z</time>
      </trkpt>
      <trkpt lat="48.63959" lon="5.06001">
        <ele>207.2</ele>
        <time>2020-06-30T08:56:13Z</time>
      </trkpt>
      <trkpt lat="48.63955" lon="5.06">
        <ele>207.5</ele>
        <time>2020-06-30T08:56:14Z</time>
      </trkpt>
      <trkpt lat="48.63951" lon="5.05999">
        <ele>207.8</ele>
        <time>2020-06-30T08:56:15Z</time>
      </trkpt>
      <trkpt lat="48.63949" lon="5.05998">
        <ele>207.9</ele>
        <time>2020-06-30T08:56:16Z</time>
      </trkpt>
      <trkpt lat="48.63947" lon="5.05997">
        <ele>208</ele>
        <time>2020-06-30T08:56:17Z</time>
      </trkpt>
      <trkpt lat="48.63944" lon="5.05997">
        <ele>208.2</ele>
        <time>2020-06-30T08:56:18Z</time>
      </trkpt>
      <trkpt lat="48.63941" lon="5.05996">
        <ele>208.4</ele>
        <time>2020-06-30T08:56:19Z</time>
      </trkpt>
      <trkpt lat="48.63937" lon="5.05994">
        <ele>208.7</ele>
        <time>2020-06-30T08:56:20Z</time>
      </trkpt>
      <trkpt lat="48.63934" lon="5.05993">
        <ele>208.9</ele>
        <time>2020-06-30T08:56:21Z</time>
      </trkpt>
      <trkpt lat="48.63932" lon="5.05993">
        <ele>209</ele>
        <time>2020-06-30T08:56:22Z</time>
      </trkpt>
      <trkpt lat="48.63929" lon="5.05989">
        <ele>209.2</ele>
        <time>2020-06-30T08:56:23Z</time>
      </trkpt>
      <trkpt lat="48.63927" lon="5.05986">
        <ele>209.4</ele>
        <time>2020-06-30T08:56:24Z</time>
      </trkpt>
      <trkpt lat="48.63925" lon="5.05981">
        <ele>209.6</ele>
        <time>2020-06-30T08:56:25Z</time>
      </trkpt>
      <trkpt lat="48.63925" lon="5.0598">
        <ele>209.7</ele>
        <time>2020-06-30T08:56:26Z</time>
      </trkpt>
      <trkpt lat="48.63924" lon="5.05974">
        <ele>209.9</ele>
        <time>2020-06-30T08:56:27Z</time>
      </trkpt>
      <trkpt lat="48.63924" lon="5.05969">
        <ele>210.1</ele>
        <time>2020-06-30T08:56:28Z</time>
      </trkpt>
      <trkpt lat="48.63924" lon="5.05966">
        <ele>210.2</ele>
        <time>2020-06-30T08:56:29Z</time>
      </trkpt>
      <trkpt lat="48.63924" lon="5.05962">
        <ele>210.3</ele>
        <time>2020-06-30T08:56:30Z</time>
      </trkpt>
      <trkpt lat="48.63926" lon="5.05956">
        <ele>210.5</ele>
        <time>2020-06-30T08:56:31Z</time>
      </trkpt>
      <trkpt lat="48.63928" lon="5.05953">
        <ele>210.6</ele>
        <time>2020-06-30T08:56:32Z</time>
      </trkpt>
      <trkpt lat="48.6393" lon="5.05949">
        <ele>210.7</ele>
        <time>2020-06-30T08:56:33Z</time>
      </trkpt>
      <trkpt lat="48.63932" lon="5.05946">
        <ele>210.9</ele>
        <time>2020-06-30T08:56:34Z</time>
      </trkpt>
      <trkpt lat="48.63933" lon="5.05945">
        <ele>210.9</ele>
        <time>2020-06-30T08:56:35Z</time>
      </trkpt>
      <trkpt lat="48.63936" lon="5.05943">
        <ele>211.1</ele>
        <time>2020-06-30T08:56:36Z</time>
      </trkpt>
      <trkpt lat="48.63937" lon="5.05943">
        <ele>211.1</ele>
        <time>2020-06-30T08:56:37Z</time>
      </trkpt>
      <trkpt lat="48.63941" lon="5.05943">
        <ele>211.3</ele>
        <time>2020-06-30T08:56:38Z</time>
      </trkpt>
      <trkpt lat="48.63944" lon="5.05942">
        <ele>211.4</ele>
        <time>2020-06-30T08:56:39Z</time>
      </trkpt>
      <trkpt lat="48.63949" lon="5.0594">
        <ele>211.7</ele>
        <time>2020-06-30T08:56:40Z</time>
      </trkpt>
      <trkpt lat="48.63952" lon="5.0594">
        <ele>211.8</ele>
        <time>2020-06-30T08:56:41Z</time>
      </trkpt>
      <trkpt lat="48.63955" lon="5.05939">
        <ele>212</ele>
        <time>2020-06-30T08:56:42Z</time>
      </trkpt>
      <trkpt lat="48.63956" lon="5.05939">
        <ele>212</ele>
        <time>2020-06-30T08:56:43Z</time>
      </trkpt>
      <trkpt lat="48.6396" lon="5.05938">
        <ele>212.1</ele>
        <time>2020-06-30T08:56:44Z</time>
      </trkpt>
      <trkpt lat="48.63961" lon="5.05937">
        <ele>212.2</ele>
        <time>2020-06-30T08:56:45Z</time>
      </trkpt>
      <trkpt lat="48.63964" lon="5.05935">
        <ele>212.3</ele>
        <time>2020-06-30T08:56:46Z</time>
      </trkpt>
      <trkpt lat="48.63966" lon="5.05934">
        <ele>212.4</ele>
        <time>2020-06-30T08:56:47Z</time>
      </trkpt>
      <trkpt lat="48.63969" lon="5.05933">
        <ele>212.5</ele>
        <time>2020-06-30T08:56:48Z</time>
      </trkpt>
      <trkpt lat="48.63972" lon="5.05932">
        <ele>212.6</ele>
        <time>2020-06-30T08:56:49Z</time>
      </trkpt>
      <trkpt lat="48.63973" lon="5.05932">
        <ele>212.7</ele>
        <time>2020-06-30T08:56:50Z</time>
      </trkpt>
      <trkpt lat="48.63976" lon="5.05932">
        <ele>212.8</ele>
        <time>2020-06-30T08:56:51Z</time>
      </trkpt>
      <trkpt lat="48.6398" lon="5.05931">
        <ele>212.9</ele>
        <time>2020-06-30T08:56:52Z</time>
      </trkpt>
      <trkpt lat="48.63984" lon="5.05929">
        <ele>213.1</ele>
        <time>2020-06-30T08:56:53Z</time>
      </trkpt>
      <trkpt lat="48.63986" lon="5.05928">
        <ele>213.2</ele>
        <time>2020-06-30T08:56:54Z</time>
      </trkpt>
      <trkpt lat="48.63989" lon="5.05928">
        <ele>213.3</ele>
        <time>2020-06-30T08:56:55Z</time>
      </trkpt>
      <trkpt lat="48.63994" lon="5.05927">
        <ele>213.5</ele>
        <time>2020-06-30T08:56:56Z</time>
      </trkpt>
      <trkpt lat="48.63997" lon="5.05926">
        <ele>213.6</ele>
        <time>2020-06-30T08:56:57Z</time>
      </trkpt>
      <trkpt lat="48.64" lon="5.05926">
        <ele>213.8</ele>
        <time>2020-06-30T08:56:58Z</time>
      </trkpt>
      <trkpt lat="48.64003" lon="5.05925">
        <ele>213.9</ele>
        <time>2020-06-30T08:56:59Z</time>
      </trkpt>
      <trkpt lat="48.64006" lon="5.05923">
        <ele>214.1</ele>
        <time>2020-06-30T08:57:00Z</time>
      </trkpt>
      <trkpt lat="48.64009" lon="5.05921">
        <ele>214.2</ele>
        <time>2020-06-30T08:57:01Z</time>
      </trkpt>
      <trkpt lat="48.64012" lon="5.0592">
        <ele>214.4</ele>
        <time>2020-06-30T08:57:02Z</time>
      </trkpt>
      <trkpt lat="48.64015" lon="5.05919">
        <ele>214.5</ele>
        <time>2020-06-30T08:57:03Z</time>
      </trkpt>
      <trkpt lat="48.64019" lon="5.05917">
        <ele>214.7</ele>
        <time>2020-06-30T08:57:04Z</time>
      </trkpt>
      <trkpt lat="48.64023" lon="5.05916">
        <ele>214.9</ele>
        <time>2020-06-30T08:57:05Z</time>
      </trkpt>
      <trkpt lat="48.64026" lon="5.05915">
        <ele>215</ele>
        <time>2020-06-30T08:57:06Z</time>
      </trkpt>
      <trkpt lat="48.64029" lon="5.05915">
        <ele>215.1</ele>
        <time>2020-06-30T08:57:07Z</time>
      </trkpt>
      <trkpt lat="48.64031" lon="5.05915">
        <ele>215.2</ele>
        <time>2020-06-30T08:57:08Z</time>
      </trkpt>
      <trkpt lat="48.64034" lon="5.05913">
        <ele>215.4</ele>
        <time>2020-06-30T08:57:09Z</time>
      </trkpt>
      <trkpt lat="48.64037" lon="5.05912">
        <ele>215.5</ele>
        <time>2020-06-30T08:57:10Z</time>
      </trkpt>
      <trkpt lat="48.6404" lon="5.0591">
        <ele>215.7</ele>
        <time>2020-06-30T08:57:11Z</time>
      </trkpt>
      <trkpt lat="48.64044" lon="5.05909">
        <ele>215.9</ele>
        <time>2020-06-30T08:57:12Z</time>
      </trkpt>
      <trkpt lat="48.64047" lon="5.05909">
        <ele>216.1</ele>
        <time>2020-06-30T08:57:13Z</time>
      </trkpt>
      <trkpt lat="48.6405" lon="5.05909">
        <ele>216.3</ele>
        <time>2020-06-30T08:57:14Z</time>
      </trkpt>
      <trkpt lat="48.64054" lon="5.05907">
        <ele>216.6</ele>
        <time>2020-06-30T08:57:15Z</time>
      </trkpt>
      <trkpt lat="48.64058" lon="5.05905">
        <ele>216.8</ele>
        <time>2020-06-30T08:57:16Z</time>
      </trkpt>
      <trkpt lat="48.64061" lon="5.05905">
        <ele>217.1</ele>
        <time>2020-06-30T08:57:17Z</time>
      </trkpt>
      <trkpt lat="48.64064" lon="5.05903">
        <ele>217.3</ele>
        <time>2020-06-30T08:57:18Z</time>
      </trkpt>
      <trkpt lat="48.64069" lon="5.05903">
        <ele>217.5</ele>
        <time>2020-06-30T08:57:19Z</time>
      </trkpt>
      <trkpt lat="48.64071" lon="5.05903">
        <ele>217.6</ele>
        <time>2020-06-30T08:57:20Z</time>
      </trkpt>
      <trkpt lat="48.64075" lon="5.05903">
        <ele>217.9</ele>
        <time>2020-06-30T08:57:21Z</time>
      </trkpt>
      <trkpt lat="48.64076" lon="5.05903">
        <ele>217.9</ele>
        <time>2020-06-30T08:57:22Z</time>
      </trkpt>
      <trkpt lat="48.64079" lon="5.05901">
        <ele>218.1</ele>
        <time>2020-06-30T08:57:23Z</time>
      </trkpt>
      <trkpt lat="48.64081" lon="5.05899">
        <ele>218.2</ele>
        <time>2020-06-30T08:57:24Z</time>
      </trkpt>
      <trkpt lat="48.64084" lon="5.05896">
        <ele>218.4</ele>
        <time>2020-06-30T08:57:25Z</time>
      </trkpt>
      <trkpt lat="48.64087" lon="5.05892">
        <ele>218.7</ele>
        <time>2020-06-30T08:57:26Z</time>
      </trkpt>
      <trkpt lat="48.6409" lon="5.05888">
        <ele>218.9</ele>
        <time>2020-06-30T08:57:27Z</time>
      </trkpt>
      <trkpt lat="48.64092" lon="5.05884">
        <ele>219.1</ele>
        <time>2020-06-30T08:57:28Z</time>
      </trkpt>
      <trkpt lat="48.64094" lon="5.0588">
        <ele>219.3</ele>
        <time>2020-06-30T08:57:29Z</time>
      </trkpt>
      <trkpt lat="48.64096" lon="5.05874">
        <ele>219.5</ele>
        <time>2020-06-30T08:57:30Z</time>
      </trkpt>
      <trkpt lat="48.64097" lon="5.05872">
        <ele>219.7</ele>
        <time>2020-06-30T08:57:31Z</time>
      </trkpt>
      <trkpt lat="48.64098" lon="5.05866">
        <ele>220</ele>
        <time>2020-06-30T08:57:32Z</time>
      </trkpt>
      <trkpt lat="48.64099" lon="5.05862">
        <ele>220.2</ele>
        <time>2020-06-30T08:57:33Z</time>
      </trkpt>
      <trkpt lat="48.641" lon="5.05857">
        <ele>220.5</ele>
        <time>2020-06-30T08:57:34Z</time>
      </trkpt>
      <trkpt lat="48.64101" lon="5.05852">
        <ele>220.8</ele>
        <time>2020-06-30T08:57:35Z</time>
      </trkpt>
      <trkpt lat="48.641" lon="5.05847">
        <ele>221.1</ele>
        <time>2020-06-30T08:57:36Z</time>
      </trkpt>
      <trkpt lat="48.641" lon="5.05842">
        <ele>221.3</ele>
        <time>2020-06-30T08:57:37Z</time>
      </trkpt>
      <trkpt lat="48.641" lon="5.05837">
        <ele>221.8</ele>
        <time>2020-06-30T08:57:38Z</time>
      </trkpt>
      <trkpt lat="48.64099" lon="5.05831">
        <ele>222.1</ele>
        <time>2020-06-30T08:57:39Z</time>
      </trkpt>
      <trkpt lat="48.64099" lon="5.05829">
        <ele>222.2</ele>
        <time>2020-06-30T08:57:40Z</time>
      </trkpt>
      <trkpt lat="48.64097" lon="5.05825">
        <ele>222.5</ele>
        <time>2020-06-30T08:57:41Z</time>
      </trkpt>
      <trkpt lat="48.64095" lon="5.05818">
        <ele>222.8</ele>
        <time>2020-06-30T08:57:42Z</time>
      </trkpt>
      <trkpt lat="48.64095" lon="5.05816">
        <ele>222.9</ele>
        <time>2020-06-30T08:57:43Z</time>
      </trkpt>
      <trkpt lat="48.64093" lon="5.0581">
        <ele>223.2</ele>
        <time>2020-06-30T08:57:44Z</time>
      </trkpt>
      <trkpt lat="48.64093" lon="5.05806">
        <ele>223.4</ele>
        <time>2020-06-30T08:57:45Z</time>
      </trkpt>
      <trkpt lat="48.64092" lon="5.05802">
        <ele>223.7</ele>
        <time>2020-06-30T08:57:46Z</time>
      </trkpt>
      <trkpt lat="48.6409" lon="5.05797">
        <ele>224</ele>
        <time>2020-06-30T08:57:47Z</time>
      </trkpt>
      <trkpt lat="48.64088" lon="5.05792">
        <ele>224.2</ele>
        <time>2020-06-30T08:57:48Z</time>
      </trkpt>
      <trkpt lat="48.64087" lon="5.05787">
        <ele>224.5</ele>
        <time>2020-06-30T08:57:49Z</time>
      </trkpt>
      <trkpt lat="48.64086" lon="5.05781">
        <ele>224.8</ele>
        <time>2020-06-30T08:57:50Z</time>
      </trkpt>
      <trkpt lat="48.64084" lon="5.05776">
        <ele>225.1</ele>
        <time>2020-06-30T08:57:51Z</time>
      </trkpt>
      <trkpt lat="48.64083" lon="5.05772">
        <ele>225.4</ele>
        <time>2020-06-30T08:57:52Z</time>
      </trkpt>
      <trkpt lat="48.64081" lon="5.05767">
        <ele>225.7</ele>
        <time>2020-06-30T08:57:53Z</time>
      </trkpt>
      <trkpt lat="48.6408" lon="5.05765">
        <ele>225.8</ele>
        <time>2020-06-30T08:57:54Z</time>
      </trkpt>
      <trkpt lat="48.6408" lon="5.0576">
        <ele>226.1</ele>
        <time>2020-06-30T08:57:55Z</time>
      </trkpt>
      <trkpt lat="48.6408" lon="5.05758">
        <ele>226.2</ele>
        <time>2020-06-30T08:57:56Z</time>
      </trkpt>
      <trkpt lat="48.64079" lon="5.05754">
        <ele>226.4</ele>
        <time>2020-06-30T08:57:57Z</time>
      </trkpt>
      <trkpt lat="48.64079" lon="5.05749">
        <ele>226.6</ele>
        <time>2020-06-30T08:57:58Z</time>
      </trkpt>
      <trkpt lat="48.64079" lon="5.05747">
        <ele>226.7</ele>
        <time>2020-06-30T08:57:59Z</time>
      </trkpt>
      <trkpt lat="48.64079" lon="5.05742">
        <ele>226.9</ele>
        <time>2020-06-30T08:58:00Z</time>
      </trkpt>
      <trkpt lat="48.64077" lon="5.05738">
        <ele>227.2</ele>
        <time>2020-06-30T08:58:01Z</time>
      </trkpt>
      <trkpt lat="48.64075" lon="5.05733">
        <ele>227.5</ele>
        <time>2020-06-30T08:58:02Z</time>
      </trkpt>
      <trkpt lat="48.64075" lon="5.05732">
        <ele>227.5</ele>
        <time>2020-06-30T08:58:03Z</time>
      </trkpt>
      <trkpt lat="48.64074" lon="5.05726">
        <ele>227.9</ele>
        <time>2020-06-30T08:58:04Z</time>
      </trkpt>
      <trkpt lat="48.64073" lon="5.05724">
        <ele>228</ele>
        <time>2020-06-30T08:58:05Z</time>
      </trkpt>
      <trkpt lat="48.64071" lon="5.0572">
        <ele>228.3</ele>
        <time>2020-06-30T08:58:06Z</time>
      </trkpt>
      <trkpt lat="48.6407" lon="5.05716">
        <ele>228.5</ele>
        <time>2020-06-30T08:58:07Z</time>
      </trkpt>
      <trkpt lat="48.64068" lon="5.05711">
        <ele>228.9</ele>
        <time>2020-06-30T08:58:08Z</time>
      </trkpt>
      <trkpt lat="48.64067" lon="5.05706">
        <ele>229.2</ele>
        <time>2020-06-30T08:58:09Z</time>
      </trkpt>
      <trkpt lat="48.64067" lon="5.05704">
        <ele>229.4</ele>
        <time>2020-06-30T08:58:10Z</time>
      </trkpt>
      <trkpt lat="48.64066" lon="5.05699">
        <ele>229.6</ele>
        <time>2020-06-30T08:58:11Z</time>
      </trkpt>
      <trkpt lat="48.64066" lon="5.05697">
        <ele>229.7</ele>
        <time>2020-06-30T08:58:12Z</time>
      </trkpt>
      <trkpt lat="48.64063" lon="5.05693">
        <ele>230</ele>
        <time>2020-06-30T08:58:13Z</time>
      </trkpt>
      <trkpt lat="48.64063" lon="5.05692">
        <ele>230.1</ele>
        <time>2020-06-30T08:58:14Z</time>
      </trkpt>
      <trkpt lat="48.64062" lon="5.05688">
        <ele>230.3</ele>
        <time>2020-06-30T08:58:15Z</time>
      </trkpt>
      <trkpt lat="48.64061" lon="5.05684">
        <ele>230.5</ele>
        <time>2020-06-30T08:58:16Z</time>
      </trkpt>
      <trkpt lat="48.64061" lon="5.05682">
        <ele>230.6</ele>
        <time>2020-06-30T08:58:17Z</time>
      </trkpt>
      <trkpt lat="48.6406" lon="5.05678">
        <ele>230.8</ele>
        <time>2020-06-30T08:58:18Z</time>
      </trkpt>
      <trkpt lat="48.64059" lon="5.05676">
        <ele>230.9</ele>
        <time>2020-06-30T08:58:19Z</time>
      </trkpt>
      <trkpt lat="48.64059" lon="5.05671">
        <ele>231.2</ele>
        <time>2020-06-30T08:58:20Z</time>
      </trkpt>
      <trkpt lat="48.64058" lon="5.05669">
        <ele>231.2</ele>
        <time>2020-06-30T08:58:21Z</time>
      </trkpt>
      <trkpt lat="48.64057" lon="5.05665">
        <ele>231.5</ele>
        <time>2020-06-30T08:58:22Z</time>
      </trkpt>
      <trkpt lat="48.64057" lon="5.05663">
        <ele>231.6</ele>
        <time>2020-06-30T08:58:23Z</time>
      </trkpt>
      <trkpt lat="48.64057" lon="5.05658">
        <ele>231.8</ele>
        <time>2020-06-30T08:58:24Z</time>
      </trkpt>
      <trkpt lat="48.64057" lon="5.05656">
        <ele>231.9</ele>
        <time>2020-06-30T08:58:25Z</time>
      </trkpt>
      <trkpt lat="48.64057" lon="5.05651">
        <ele>232.2</ele>
        <time>2020-06-30T08:58:26Z</time>
      </trkpt>
      <trkpt lat="48.64057" lon="5.05649">
        <ele>232.3</ele>
        <time>2020-06-30T08:58:27Z</time>
      </trkpt>
      <trkpt lat="48.64056" lon="5.05644">
        <ele>232.5</ele>
        <time>2020-06-30T08:58:28Z</time>
      </trkpt>
      <trkpt lat="48.64056" lon="5.05642">
        <ele>232.6</ele>
        <time>2020-06-30T08:58:29Z</time>
      </trkpt>
      <trkpt lat="48.64055" lon="5.05638">
        <ele>232.9</ele>
        <time>2020-06-30T08:58:30Z</time>
      </trkpt>
      <trkpt lat="48.64054" lon="5.05637">
        <ele>232.9</ele>
        <time>2020-06-30T08:58:31Z</time>
      </trkpt>
      <trkpt lat="48.64053" lon="5.05632">
        <ele>233.2</ele>
        <time>2020-06-30T08:58:32Z</time>
      </trkpt>
      <trkpt lat="48.64053" lon="5.05631">
        <ele>233.2</ele>
        <time>2020-06-30T08:58:33Z</time>
      </trkpt>
      <trkpt lat="48.64053" lon="5.05625">
        <ele>233.5</ele>
        <time>2020-06-30T08:58:34Z</time>
      </trkpt>
      <trkpt lat="48.64053" lon="5.05623">
        <ele>233.6</ele>
        <time>2020-06-30T08:58:35Z</time>
      </trkpt>
      <trkpt lat="48.64053" lon="5.05618">
        <ele>233.8</ele>
        <time>2020-06-30T08:58:36Z</time>
      </trkpt>
      <trkpt lat="48.64052" lon="5.05617">
        <ele>233.9</ele>
        <time>2020-06-30T08:58:37Z</time>
      </trkpt>
      <trkpt lat="48.64053" lon="5.05612">
        <ele>234.1</ele>
        <time>2020-06-30T08:58:38Z</time>
      </trkpt>
      <trkpt lat="48.64053" lon="5.0561">
        <ele>234.2</ele>
        <time>2020-06-30T08:58:39Z</time>
      </trkpt>
      <trkpt lat="48.64053" lon="5.05604">
        <ele>234.4</ele>
        <time>2020-06-30T08:58:40Z</time>
      </trkpt>
      <trkpt lat="48.64053" lon="5.05602">
        <ele>234.5</ele>
        <time>2020-06-30T08:58:41Z</time>
      </trkpt>
      <trkpt lat="48.64054" lon="5.05598">
        <ele>234.7</ele>
        <time>2020-06-30T08:58:42Z</time>
      </trkpt>
      <trkpt lat="48.64053" lon="5.05595">
        <ele>234.8</ele>
        <time>2020-06-30T08:58:43Z</time>
      </trkpt>
      <trkpt lat="48.64053" lon="5.05593">
        <ele>234.9</ele>
        <time>2020-06-30T08:58:44Z</time>
      </trkpt>
      <trkpt lat="48.64052" lon="5.05589">
        <ele>235</ele>
        <time>2020-06-30T08:58:45Z</time>
      </trkpt>
      <trkpt lat="48.64051" lon="5.05587">
        <ele>235.1</ele>
        <time>2020-06-30T08:58:46Z</time>
      </trkpt>
      <trkpt lat="48.64051" lon="5.05583">
        <ele>235.3</ele>
        <time>2020-06-30T08:58:47Z</time>
      </trkpt>
      <trkpt lat="48.64051" lon="5.05578">
        <ele>235.5</ele>
        <time>2020-06-30T08:58:48Z</time>
      </trkpt>
      <trkpt lat="48.64051" lon="5.05573">
        <ele>235.7</ele>
        <time>2020-06-30T08:58:49Z</time>
      </trkpt>
      <trkpt lat="48.6405" lon="5.05568">
        <ele>235.8</ele>
        <time>2020-06-30T08:58:50Z</time>
      </trkpt>
      <trkpt lat="48.64049" lon="5.05562">
        <ele>236</ele>
        <time>2020-06-30T08:58:51Z</time>
      </trkpt>
      <trkpt lat="48.64049" lon="5.05559">
        <ele>236.1</ele>
        <time>2020-06-30T08:58:52Z</time>
      </trkpt>
      <trkpt lat="48.64048" lon="5.05555">
        <ele>236.2</ele>
        <time>2020-06-30T08:58:53Z</time>
      </trkpt>
      <trkpt lat="48.64047" lon="5.05549">
        <ele>236.4</ele>
        <time>2020-06-30T08:58:54Z</time>
      </trkpt>
      <trkpt lat="48.64047" lon="5.05547">
        <ele>236.4</ele>
        <time>2020-06-30T08:58:55Z</time>
      </trkpt>
      <trkpt lat="48.64047" lon="5.05542">
        <ele>236.5</ele>
        <time>2020-06-30T08:58:56Z</time>
      </trkpt>
      <trkpt lat="48.64047" lon="5.05536">
        <ele>236.7</ele>
        <time>2020-06-30T08:58:57Z</time>
      </trkpt>
      <trkpt lat="48.64046" lon="5.05529">
        <ele>236.8</ele>
        <time>2020-06-30T08:58:58Z</time>
      </trkpt>
      <trkpt lat="48.64045" lon="5.05523">
        <ele>236.9</ele>
        <time>2020-06-30T08:58:59Z</time>
      </trkpt>
      <trkpt lat="48.64044" lon="5.05519">
        <ele>237</ele>
        <time>2020-06-30T08:59:00Z</time>
      </trkpt>
      <trkpt lat="48.64043" lon="5.05513">
        <ele>237.1</ele>
        <time>2020-06-30T08:59:01Z</time>
      </trkpt>
      <trkpt lat="48.64044" lon="5.05506">
        <ele>237.2</ele>
        <time>2020-06-30T08:59:02Z</time>
      </trkpt>
      <trkpt lat="48.64044" lon="5.05499">
        <ele>237.3</ele>
        <time>2020-06-30T08:59:03Z</time>
      </trkpt>
      <trkpt lat="48.64044" lon="5.05492">
        <ele>237.4</ele>
        <time>2020-06-30T08:59:04Z</time>
      </trkpt>
      <trkpt lat="48.64043" lon="5.05486">
        <ele>237.5</ele>
        <time>2020-06-30T08:59:05Z</time>
      </trkpt>
      <trkpt lat="48.64043" lon="5.0548">
        <ele>237.5</ele>
        <time>2020-06-30T08:59:06Z</time>
      </trkpt>
      <trkpt lat="48.64043" lon="5.05475">
        <ele>237.6</ele>
        <time>2020-06-30T08:59:07Z</time>
      </trkpt>
      <trkpt lat="48.64043" lon="5.05468">
        <ele>237.6</ele>
        <time>2020-06-30T08:59:08Z</time>
      </trkpt>
      <trkpt lat="48.64043" lon="5.05461">
        <ele>237.7</ele>
        <time>2020-06-30T08:59:09Z</time>
      </trkpt>
      <trkpt lat="48.64043" lon="5.05455">
        <ele>237.7</ele>
        <time>2020-06-30T08:59:10Z</time>
      </trkpt>
      <trkpt lat="48.64044" lon="5.05448">
        <ele>237.7</ele>
        <time>2020-06-30T08:59:11Z</time>
      </trkpt>
      <trkpt lat="48.64044" lon="5.05442">
        <ele>237.7</ele>
        <time>2020-06-30T08:59:12Z</time>
      </trkpt>
      <trkpt lat="48.64044" lon="5.05435">
        <ele>237.7</ele>
        <time>2020-06-30T08:59:13Z</time>
      </trkpt>
      <trkpt lat="48.64044" lon="5.05428">
        <ele>237.7</ele>
        <time>2020-06-30T08:59:14Z</time>
      </trkpt>
      <trkpt lat="48.64044" lon="5.0542">
        <ele>237.7</ele>
        <time>2020-06-30T08:59:15Z</time>
      </trkpt>
      <trkpt lat="48.64044" lon="5.05413">
        <ele>237.6</ele>
        <time>2020-06-30T08:59:16Z</time>
      </trkpt>
      <trkpt lat="48.64044" lon="5.05406">
        <ele>237.6</ele>
        <time>2020-06-30T08:59:17Z</time>
      </trkpt>
      <trkpt lat="48.64044" lon="5.05399">
        <ele>237.6</ele>
        <time>2020-06-30T08:59:18Z</time>
      </trkpt>
      <trkpt lat="48.64044" lon="5.05391">
        <ele>237.5</ele>
        <time>2020-06-30T08:59:19Z</time>
      </trkpt>
      <trkpt lat="48.64044" lon="5.05384">
        <ele>237.4</ele>
        <time>2020-06-30T08:59:20Z</time>
      </trkpt>
      <trkpt lat="48.64044" lon="5.05377">
        <ele>237.4</ele>
        <time>2020-06-30T08:59:21Z</time>
      </trkpt>
      <trkpt lat="48.64044" lon="5.05368">
        <ele>237.3</ele>
        <time>2020-06-30T08:59:22Z</time>
      </trkpt>
      <trkpt lat="48.64044" lon="5.0536">
        <ele>237.2</ele>
        <time>2020-06-30T08:59:23Z</time>
      </trkpt>
      <trkpt lat="48.64044" lon="5.05352">
        <ele>237.1</ele>
        <time>2020-06-30T08:59:24Z</time>
      </trkpt>
      <trkpt lat="48.64044" lon="5.05344">
        <ele>236.9</ele>
        <time>2020-06-30T08:59:25Z</time>
      </trkpt>
      <trkpt lat="48.64044" lon="5.05337">
        <ele>236.8</ele>
        <time>2020-06-30T08:59:26Z</time>
      </trkpt>
      <trkpt lat="48.64045" lon="5.0533">
        <ele>236.6</ele>
        <time>2020-06-30T08:59:27Z</time>
      </trkpt>
      <trkpt lat="48.64046" lon="5.05323">
        <ele>236.5</ele>
        <time>2020-06-30T08:59:28Z</time>
      </trkpt>
      <trkpt lat="48.64047" lon="5.05314">
        <ele>236.2</ele>
        <time>2020-06-30T08:59:29Z</time>
      </trkpt>
      <trkpt lat="48.64047" lon="5.05305">
        <ele>236</ele>
        <time>2020-06-30T08:59:30Z</time>
      </trkpt>
      <trkpt lat="48.64046" lon="5.05295">
        <ele>235.7</ele>
        <time>2020-06-30T08:59:31Z</time>
      </trkpt>
      <trkpt lat="48.64046" lon="5.05284">
        <ele>235.4</ele>
        <time>2020-06-30T08:59:32Z</time>
      </trkpt>
      <trkpt lat="48.64045" lon="5.05273">
        <ele>235.1</ele>
        <time>2020-06-30T08:59:33Z</time>
      </trkpt>
      <trkpt lat="48.64045" lon="5.05262">
        <ele>234.8</ele>
        <time>2020-06-30T08:59:34Z</time>
      </trkpt>
      <trkpt lat="48.64045" lon="5.05249">
        <ele>234.5</ele>
        <time>2020-06-30T08:59:35Z</time>
      </trkpt>
      <trkpt lat="48.64045" lon="5.05237">
        <ele>234.2</ele>
        <time>2020-06-30T08:59:36Z</time>
      </trkpt>
      <trkpt lat="48.64044" lon="5.05228">
        <ele>233.9</ele>
        <time>2020-06-30T08:59:37Z</time>
      </trkpt>
      <trkpt lat="48.64045" lon="5.05219">
        <ele>233.6</ele>
        <time>2020-06-30T08:59:38Z</time>
      </trkpt>
      <trkpt lat="48.64045" lon="5.05207">
        <ele>233.3</ele>
        <time>2020-06-30T08:59:39Z</time>
      </trkpt>
      <trkpt lat="48.64045" lon="5.05194">
        <ele>233</ele>
        <time>2020-06-30T08:59:40Z</time>
      </trkpt>
      <trkpt lat="48.64046" lon="5.05181">
        <ele>232.6</ele>
        <time>2020-06-30T08:59:41Z</time>
      </trkpt>
      <trkpt lat="48.64045" lon="5.05168">
        <ele>232.2</ele>
        <time>2020-06-30T08:59:42Z</time>
      </trkpt>
      <trkpt lat="48.64045" lon="5.05156">
        <ele>231.9</ele>
        <time>2020-06-30T08:59:43Z</time>
      </trkpt>
      <trkpt lat="48.64044" lon="5.05144">
        <ele>231.5</ele>
        <time>2020-06-30T08:59:44Z</time>
      </trkpt>
      <trkpt lat="48.64043" lon="5.05132">
        <ele>231.2</ele>
        <time>2020-06-30T08:59:45Z</time>
      </trkpt>
      <trkpt lat="48.64043" lon="5.0512">
        <ele>230.8</ele>
        <time>2020-06-30T08:59:46Z</time>
      </trkpt>
      <trkpt lat="48.64042" lon="5.05108">
        <ele>230.5</ele>
        <time>2020-06-30T08:59:47Z</time>
      </trkpt>
      <trkpt lat="48.64042" lon="5.05096">
        <ele>230.2</ele>
        <time>2020-06-30T08:59:48Z</time>
      </trkpt>
      <trkpt lat="48.64041" lon="5.05085">
        <ele>230</ele>
        <time>2020-06-30T08:59:49Z</time>
      </trkpt>
      <trkpt lat="48.64041" lon="5.05073">
        <ele>229.8</ele>
        <time>2020-06-30T08:59:50Z</time>
      </trkpt>
      <trkpt lat="48.6404" lon="5.05062">
        <ele>229.7</ele>
        <time>2020-06-30T08:59:51Z</time>
      </trkpt>
      <trkpt lat="48.6404" lon="5.05051">
        <ele>229.6</ele>
        <time>2020-06-30T08:59:52Z</time>
      </trkpt>
      <trkpt lat="48.64039" lon="5.0504">
        <ele>229.5</ele>
        <time>2020-06-30T08:59:53Z</time>
      </trkpt>
      <trkpt lat="48.64038" lon="5.05029">
        <ele>229.5</ele>
        <time>2020-06-30T08:59:54Z</time>
      </trkpt>
      <trkpt lat="48.64036" lon="5.05018">
        <ele>229.5</ele>
        <time>2020-06-30T08:59:55Z</time>
      </trkpt>
      <trkpt lat="48.64035" lon="5.05008">
        <ele>229.5</ele>
        <time>2020-06-30T08:59:56Z</time>
      </trkpt>
      <trkpt lat="48.64034" lon="5.04998">
        <ele>229.7</ele>
        <time>2020-06-30T08:59:57Z</time>
      </trkpt>
      <trkpt lat="48.64033" lon="5.04987">
        <ele>229.8</ele>
        <time>2020-06-30T08:59:58Z</time>
      </trkpt>
      <trkpt lat="48.64032" lon="5.04977">
        <ele>230</ele>
        <time>2020-06-30T08:59:59Z</time>
      </trkpt>
      <trkpt lat="48.64031" lon="5.04968">
        <ele>230.1</ele>
        <time>2020-06-30T09:00:00Z</time>
      </trkpt>
      <trkpt lat="48.6403" lon="5.04959">
        <ele>230.3</ele>
        <time>2020-06-30T09:00:01Z</time>
      </trkpt>
      <trkpt lat="48.64029" lon="5.04951">
        <ele>230.5</ele>
        <time>2020-06-30T09:00:02Z</time>
      </trkpt>
      <trkpt lat="48.64028" lon="5.04942">
        <ele>230.7</ele>
        <time>2020-06-30T09:00:03Z</time>
      </trkpt>
      <trkpt lat="48.64027" lon="5.04934">
        <ele>230.9</ele>
        <time>2020-06-30T09:00:04Z</time>
      </trkpt>
      <trkpt lat="48.64027" lon="5.04925">
        <ele>231.1</ele>
        <time>2020-06-30T09:00:05Z</time>
      </trkpt>
      <trkpt lat="48.64027" lon="5.04918">
        <ele>231.3</ele>
        <time>2020-06-30T09:00:06Z</time>
      </trkpt>
      <trkpt lat="48.64025" lon="5.04911">
        <ele>231.5</ele>
        <time>2020-06-30T09:00:07Z</time>
      </trkpt>
      <trkpt lat="48.64025" lon="5.04905">
        <ele>231.7</ele>
        <time>2020-06-30T09:00:08Z</time>
      </trkpt>
      <trkpt lat="48.64025" lon="5.04898">
        <ele>231.9</ele>
        <time>2020-06-30T09:00:09Z</time>
      </trkpt>
      <trkpt lat="48.64024" lon="5.04892">
        <ele>232</ele>
        <time>2020-06-30T09:00:10Z</time>
      </trkpt>
      <trkpt lat="48.64023" lon="5.04885">
        <ele>232.2</ele>
        <time>2020-06-30T09:00:11Z</time>
      </trkpt>
      <trkpt lat="48.64022" lon="5.04879">
        <ele>232.3</ele>
        <time>2020-06-30T09:00:12Z</time>
      </trkpt>
      <trkpt lat="48.64022" lon="5.04872">
        <ele>232.5</ele>
        <time>2020-06-30T09:00:13Z</time>
      </trkpt>
      <trkpt lat="48.64021" lon="5.04865">
        <ele>232.6</ele>
        <time>2020-06-30T09:00:14Z</time>
      </trkpt>
      <trkpt lat="48.6402" lon="5.04858">
        <ele>232.8</ele>
        <time>2020-06-30T09:00:15Z</time>
      </trkpt>
      <trkpt lat="48.6402" lon="5.04851">
        <ele>232.9</ele>
        <time>2020-06-30T09:00:16Z</time>
      </trkpt>
      <trkpt lat="48.64019" lon="5.04844">
        <ele>233.1</ele>
        <time>2020-06-30T09:00:17Z</time>
      </trkpt>
      <trkpt lat="48.64019" lon="5.04838">
        <ele>233.2</ele>
        <time>2020-06-30T09:00:18Z</time>
      </trkpt>
      <trkpt lat="48.64018" lon="5.04831">
        <ele>233.3</ele>
        <time>2020-06-30T09:00:19Z</time>
      </trkpt>
      <trkpt lat="48.64018" lon="5.04825">
        <ele>233.4</ele>
        <time>2020-06-30T09:00:20Z</time>
      </trkpt>
      <trkpt lat="48.64017" lon="5.04819">
        <ele>233.5</ele>
        <time>2020-06-30T09:00:21Z</time>
      </trkpt>
      <trkpt lat="48.64016" lon="5.04812">
        <ele>233.6</ele>
        <time>2020-06-30T09:00:22Z</time>
      </trkpt>
      <trkpt lat="48.64015" lon="5.04805">
        <ele>233.7</ele>
        <time>2020-06-30T09:00:23Z</time>
      </trkpt>
      <trkpt lat="48.64014" lon="5.04798">
        <ele>233.8</ele>
        <time>2020-06-30T09:00:24Z</time>
      </trkpt>
      <trkpt lat="48.64013" lon="5.0479">
        <ele>233.9</ele>
        <time>2020-06-30T09:00:25Z</time>
      </trkpt>
      <trkpt lat="48.64012" lon="5.0478">
        <ele>234</ele>
        <time>2020-06-30T09:00:26Z</time>
      </trkpt>
      <trkpt lat="48.64011" lon="5.04774">
        <ele>234.1</ele>
        <time>2020-06-30T09:00:27Z</time>
      </trkpt>
      <trkpt lat="48.64011" lon="5.04767">
        <ele>234.1</ele>
        <time>2020-06-30T09:00:28Z</time>
      </trkpt>
      <trkpt lat="48.6401" lon="5.0476">
        <ele>234.1</ele>
        <time>2020-06-30T09:00:29Z</time>
      </trkpt>
      <trkpt lat="48.6401" lon="5.04753">
        <ele>234.1</ele>
        <time>2020-06-30T09:00:30Z</time>
      </trkpt>
      <trkpt lat="48.6401" lon="5.04745">
        <ele>234.1</ele>
        <time>2020-06-30T09:00:31Z</time>
      </trkpt>
      <trkpt lat="48.64009" lon="5.04738">
        <ele>234.1</ele>
        <time>2020-06-30T09:00:32Z</time>
      </trkpt>
      <trkpt lat="48.64009" lon="5.04731">
        <ele>234.1</ele>
        <time>2020-06-30T09:00:33Z</time>
      </trkpt>
      <trkpt lat="48.64008" lon="5.04724">
        <ele>234</ele>
        <time>2020-06-30T09:00:34Z</time>
      </trkpt>
      <trkpt lat="48.64007" lon="5.04716">
        <ele>234</ele>
        <time>2020-06-30T09:00:35Z</time>
      </trkpt>
      <trkpt lat="48.64006" lon="5.04706">
        <ele>233.9</ele>
        <time>2020-06-30T09:00:36Z</time>
      </trkpt>
      <trkpt lat="48.64005" lon="5.04697">
        <ele>233.8</ele>
        <time>2020-06-30T09:00:37Z</time>
      </trkpt>
      <trkpt lat="48.64005" lon="5.04688">
        <ele>233.7</ele>
        <time>2020-06-30T09:00:38Z</time>
      </trkpt>
      <trkpt lat="48.64005" lon="5.0468">
        <ele>233.5</ele>
        <time>2020-06-30T09:00:39Z</time>
      </trkpt>
      <trkpt lat="48.64004" lon="5.04673">
        <ele>233.4</ele>
        <time>2020-06-30T09:00:40Z</time>
      </trkpt>
      <trkpt lat="48.64004" lon="5.04665">
        <ele>233.3</ele>
        <time>2020-06-30T09:00:41Z</time>
      </trkpt>
      <trkpt lat="48.64004" lon="5.04657">
        <ele>233.1</ele>
        <time>2020-06-30T09:00:42Z</time>
      </trkpt>
      <trkpt lat="48.64003" lon="5.04647">
        <ele>233</ele>
        <time>2020-06-30T09:00:43Z</time>
      </trkpt>
      <trkpt lat="48.64002" lon="5.04638">
        <ele>232.8</ele>
        <time>2020-06-30T09:00:44Z</time>
      </trkpt>
      <trkpt lat="48.64002" lon="5.04628">
        <ele>232.7</ele>
        <time>2020-06-30T09:00:45Z</time>
      </trkpt>
      <trkpt lat="48.64001" lon="5.04619">
        <ele>232.5</ele>
        <time>2020-06-30T09:00:46Z</time>
      </trkpt>
      <trkpt lat="48.64" lon="5.04609">
        <ele>232.2</ele>
        <time>2020-06-30T09:00:47Z</time>
      </trkpt>
      <trkpt lat="48.63999" lon="5.04597">
        <ele>231.7</ele>
        <time>2020-06-30T09:00:48Z</time>
      </trkpt>
      <trkpt lat="48.63998" lon="5.04585">
        <ele>231.2</ele>
        <time>2020-06-30T09:00:49Z</time>
      </trkpt>
      <trkpt lat="48.63997" lon="5.04574">
        <ele>231</ele>
        <time>2020-06-30T09:00:50Z</time>
      </trkpt>
      <trkpt lat="48.63995" lon="5.04564">
        <ele>230.8</ele>
        <time>2020-06-30T09:00:51Z</time>
      </trkpt>
      <trkpt lat="48.63994" lon="5.04553">
        <ele>230.6</ele>
        <time>2020-06-30T09:00:52Z</time>
      </trkpt>
      <trkpt lat="48.63994" lon="5.04542">
        <ele>230.5</ele>
        <time>2020-06-30T09:00:53Z</time>
      </trkpt>
      <trkpt lat="48.63993" lon="5.04531">
        <ele>230.4</ele>
        <time>2020-06-30T09:00:54Z</time>
      </trkpt>
      <trkpt lat="48.63992" lon="5.0452">
        <ele>230.4</ele>
        <time>2020-06-30T09:00:55Z</time>
      </trkpt>
      <trkpt lat="48.63991" lon="5.04508">
        <ele>230.3</ele>
        <time>2020-06-30T09:00:56Z</time>
      </trkpt>
      <trkpt lat="48.6399" lon="5.04495">
        <ele>230.4</ele>
        <time>2020-06-30T09:00:57Z</time>
      </trkpt>
      <trkpt lat="48.63989" lon="5.04483">
        <ele>230.4</ele>
        <time>2020-06-30T09:00:58Z</time>
      </trkpt>
      <trkpt lat="48.63988" lon="5.04471">
        <ele>230.5</ele>
        <time>2020-06-30T09:00:59Z</time>
      </trkpt>
      <trkpt lat="48.63987" lon="5.04458">
        <ele>230.7</ele>
        <time>2020-06-30T09:01:00Z</time>
      </trkpt>
      <trkpt lat="48.63986" lon="5.04446">
        <ele>230.8</ele>
        <time>2020-06-30T09:01:01Z</time>
      </trkpt>
      <trkpt lat="48.63984" lon="5.04434">
        <ele>231</ele>
        <time>2020-06-30T09:01:02Z</time>
      </trkpt>
      <trkpt lat="48.63983" lon="5.04423">
        <ele>231.2</ele>
        <time>2020-06-30T09:01:03Z</time>
      </trkpt>
      <trkpt lat="48.63982" lon="5.04411">
        <ele>231.4</ele>
        <time>2020-06-30T09:01:04Z</time>
      </trkpt>
      <trkpt lat="48.63982" lon="5.04399">
        <ele>231.6</ele>
        <time>2020-06-30T09:01:05Z</time>
      </trkpt>
      <trkpt lat="48.63981" lon="5.04388">
        <ele>231.9</ele>
        <time>2020-06-30T09:01:06Z</time>
      </trkpt>
      <trkpt lat="48.6398" lon="5.04377">
        <ele>232.1</ele>
        <time>2020-06-30T09:01:07Z</time>
      </trkpt>
      <trkpt lat="48.63979" lon="5.04367">
        <ele>232.4</ele>
        <time>2020-06-30T09:01:08Z</time>
      </trkpt>
      <trkpt lat="48.63978" lon="5.04356">
        <ele>232.6</ele>
        <time>2020-06-30T09:01:09Z</time>
      </trkpt>
      <trkpt lat="48.63977" lon="5.04346">
        <ele>232.9</ele>
        <time>2020-06-30T09:01:10Z</time>
      </trkpt>
      <trkpt lat="48.63976" lon="5.04336">
        <ele>233.2</ele>
        <time>2020-06-30T09:01:11Z</time>
      </trkpt>
      <trkpt lat="48.63974" lon="5.04328">
        <ele>233.5</ele>
        <time>2020-06-30T09:01:12Z</time>
      </trkpt>
      <trkpt lat="48.63973" lon="5.04319">
        <ele>233.8</ele>
        <time>2020-06-30T09:01:13Z</time>
      </trkpt>
      <trkpt lat="48.63973" lon="5.04311">
        <ele>234.1</ele>
        <time>2020-06-30T09:01:14Z</time>
      </trkpt>
      <trkpt lat="48.63972" lon="5.04304">
        <ele>234.4</ele>
        <time>2020-06-30T09:01:15Z</time>
      </trkpt>
      <trkpt lat="48.63971" lon="5.04296">
        <ele>234.6</ele>
        <time>2020-06-30T09:01:16Z</time>
      </trkpt>
      <trkpt lat="48.6397" lon="5.04289">
        <ele>234.8</ele>
        <time>2020-06-30T09:01:17Z</time>
      </trkpt>
      <trkpt lat="48.63969" lon="5.04283">
        <ele>235</ele>
        <time>2020-06-30T09:01:18Z</time>
      </trkpt>
      <trkpt lat="48.63969" lon="5.04277">
        <ele>235.1</ele>
        <time>2020-06-30T09:01:19Z</time>
      </trkpt>
      <trkpt lat="48.63968" lon="5.04272">
        <ele>235.3</ele>
        <time>2020-06-30T09:01:20Z</time>
      </trkpt>
      <trkpt lat="48.63968" lon="5.04266">
        <ele>235.4</ele>
        <time>2020-06-30T09:01:21Z</time>
      </trkpt>
      <trkpt lat="48.63967" lon="5.04261">
        <ele>235.6</ele>
        <time>2020-06-30T09:01:22Z</time>
      </trkpt>
      <trkpt lat="48.63967" lon="5.04255">
        <ele>235.8</ele>
        <time>2020-06-30T09:01:23Z</time>
      </trkpt>
      <trkpt lat="48.63967" lon="5.04248">
        <ele>236</ele>
        <time>2020-06-30T09:01:24Z</time>
      </trkpt>
      <trkpt lat="48.63965" lon="5.04243">
        <ele>236.1</ele>
        <time>2020-06-30T09:01:25Z</time>
      </trkpt>
      <trkpt lat="48.63964" lon="5.04236">
        <ele>236.3</ele>
        <time>2020-06-30T09:01:26Z</time>
      </trkpt>
      <trkpt lat="48.63963" lon="5.0423">
        <ele>236.4</ele>
        <time>2020-06-30T09:01:27Z</time>
      </trkpt>
      <trkpt lat="48.63962" lon="5.04223">
        <ele>236.5</ele>
        <time>2020-06-30T09:01:28Z</time>
      </trkpt>
      <trkpt lat="48.63961" lon="5.04216">
        <ele>236.6</ele>
        <time>2020-06-30T09:01:29Z</time>
      </trkpt>
      <trkpt lat="48.6396" lon="5.04209">
        <ele>236.7</ele>
        <time>2020-06-30T09:01:30Z</time>
      </trkpt>
      <trkpt lat="48.6396" lon="5.04202">
        <ele>236.8</ele>
        <time>2020-06-30T09:01:31Z</time>
      </trkpt>
      <trkpt lat="48.63959" lon="5.04195">
        <ele>236.9</ele>
        <time>2020-06-30T09:01:32Z</time>
      </trkpt>
      <trkpt lat="48.63958" lon="5.04188">
        <ele>237</ele>
        <time>2020-06-30T09:01:33Z</time>
      </trkpt>
      <trkpt lat="48.63957" lon="5.04182">
        <ele>237</ele>
        <time>2020-06-30T09:01:34Z</time>
      </trkpt>
      <trkpt lat="48.63957" lon="5.04175">
        <ele>237.1</ele>
        <time>2020-06-30T09:01:35Z</time>
      </trkpt>
      <trkpt lat="48.63956" lon="5.04168">
        <ele>237.2</ele>
        <time>2020-06-30T09:01:36Z</time>
      </trkpt>
      <trkpt lat="48.63954" lon="5.04161">
        <ele>237.2</ele>
        <time>2020-06-30T09:01:37Z</time>
      </trkpt>
      <trkpt lat="48.63953" lon="5.04153">
        <ele>237.3</ele>
        <time>2020-06-30T09:01:38Z</time>
      </trkpt>
      <trkpt lat="48.63952" lon="5.04146">
        <ele>237.3</ele>
        <time>2020-06-30T09:01:39Z</time>
      </trkpt>
      <trkpt lat="48.63952" lon="5.04139">
        <ele>237.4</ele>
        <time>2020-06-30T09:01:40Z</time>
      </trkpt>
      <trkpt lat="48.6395" lon="5.04132">
        <ele>237.4</ele>
        <time>2020-06-30T09:01:41Z</time>
      </trkpt>
      <trkpt lat="48.63949" lon="5.04125">
        <ele>237.3</ele>
        <time>2020-06-30T09:01:42Z</time>
      </trkpt>
      <trkpt lat="48.63948" lon="5.04118">
        <ele>237.3</ele>
        <time>2020-06-30T09:01:43Z</time>
      </trkpt>
      <trkpt lat="48.63948" lon="5.0411">
        <ele>237.2</ele>
        <time>2020-06-30T09:01:44Z</time>
      </trkpt>
      <trkpt lat="48.63947" lon="5.04103">
        <ele>237.2</ele>
        <time>2020-06-30T09:01:45Z</time>
      </trkpt>
      <trkpt lat="48.63946" lon="5.04096">
        <ele>237.1</ele>
        <time>2020-06-30T09:01:46Z</time>
      </trkpt>
      <trkpt lat="48.63946" lon="5.04089">
        <ele>237</ele>
        <time>2020-06-30T09:01:47Z</time>
      </trkpt>
      <trkpt lat="48.63945" lon="5.04081">
        <ele>236.9</ele>
        <time>2020-06-30T09:01:48Z</time>
      </trkpt>
      <trkpt lat="48.63945" lon="5.04074">
        <ele>236.8</ele>
        <time>2020-06-30T09:01:49Z</time>
      </trkpt>
      <trkpt lat="48.63944" lon="5.04066">
        <ele>236.7</ele>
        <time>2020-06-30T09:01:50Z</time>
      </trkpt>
      <trkpt lat="48.63943" lon="5.04057">
        <ele>236.6</ele>
        <time>2020-06-30T09:01:51Z</time>
      </trkpt>
      <trkpt lat="48.63942" lon="5.04049">
        <ele>236.5</ele>
        <time>2020-06-30T09:01:52Z</time>
      </trkpt>
      <trkpt lat="48.63941" lon="5.04041">
        <ele>236.4</ele>
        <time>2020-06-30T09:01:53Z</time>
      </trkpt>
      <trkpt lat="48.6394" lon="5.04033">
        <ele>236.3</ele>
        <time>2020-06-30T09:01:54Z</time>
      </trkpt>
      <trkpt lat="48.6394" lon="5.04025">
        <ele>236.1</ele>
        <time>2020-06-30T09:01:55Z</time>
      </trkpt>
      <trkpt lat="48.6394" lon="5.04017">
        <ele>236</ele>
        <time>2020-06-30T09:01:56Z</time>
      </trkpt>
      <trkpt lat="48.63939" lon="5.04008">
        <ele>235.8</ele>
        <time>2020-06-30T09:01:57Z</time>
      </trkpt>
      <trkpt lat="48.63938" lon="5.04">
        <ele>235.6</ele>
        <time>2020-06-30T09:01:58Z</time>
      </trkpt>
      <trkpt lat="48.63937" lon="5.03991">
        <ele>235.4</ele>
        <time>2020-06-30T09:01:59Z</time>
      </trkpt>
      <trkpt lat="48.63937" lon="5.03981">
        <ele>235.2</ele>
        <time>2020-06-30T09:02:00Z</time>
      </trkpt>
      <trkpt lat="48.63936" lon="5.03972">
        <ele>235</ele>
        <time>2020-06-30T09:02:01Z</time>
      </trkpt>
      <trkpt lat="48.63935" lon="5.03963">
        <ele>234.8</ele>
        <time>2020-06-30T09:02:02Z</time>
      </trkpt>
      <trkpt lat="48.63935" lon="5.03953">
        <ele>234.7</ele>
        <time>2020-06-30T09:02:03Z</time>
      </trkpt>
      <trkpt lat="48.63934" lon="5.03944">
        <ele>234.5</ele>
        <time>2020-06-30T09:02:04Z</time>
      </trkpt>
      <trkpt lat="48.63934" lon="5.03934">
        <ele>234.3</ele>
        <time>2020-06-30T09:02:05Z</time>
      </trkpt>
      <trkpt lat="48.63933" lon="5.03924">
        <ele>234.1</ele>
        <time>2020-06-30T09:02:06Z</time>
      </trkpt>
      <trkpt lat="48.63933" lon="5.03914">
        <ele>233.9</ele>
        <time>2020-06-30T09:02:07Z</time>
      </trkpt>
      <trkpt lat="48.63932" lon="5.03904">
        <ele>233.7</ele>
        <time>2020-06-30T09:02:08Z</time>
      </trkpt>
      <trkpt lat="48.63931" lon="5.03894">
        <ele>233.5</ele>
        <time>2020-06-30T09:02:09Z</time>
      </trkpt>
      <trkpt lat="48.6393" lon="5.03884">
        <ele>233.3</ele>
        <time>2020-06-30T09:02:10Z</time>
      </trkpt>
      <trkpt lat="48.6393" lon="5.03874">
        <ele>233</ele>
        <time>2020-06-30T09:02:11Z</time>
      </trkpt>
      <trkpt lat="48.6393" lon="5.03864">
        <ele>232.8</ele>
        <time>2020-06-30T09:02:12Z</time>
      </trkpt>
      <trkpt lat="48.63929" lon="5.03854">
        <ele>232.6</ele>
        <time>2020-06-30T09:02:13Z</time>
      </trkpt>
      <trkpt lat="48.63929" lon="5.03845">
        <ele>232.5</ele>
        <time>2020-06-30T09:02:14Z</time>
      </trkpt>
      <trkpt lat="48.63928" lon="5.03835">
        <ele>232.3</ele>
        <time>2020-06-30T09:02:15Z</time>
      </trkpt>
      <trkpt lat="48.63927" lon="5.03824">
        <ele>232.1</ele>
        <time>2020-06-30T09:02:16Z</time>
      </trkpt>
      <trkpt lat="48.63926" lon="5.03814">
        <ele>231.9</ele>
        <time>2020-06-30T09:02:17Z</time>
      </trkpt>
      <trkpt lat="48.63925" lon="5.03804">
        <ele>231.7</ele>
        <time>2020-06-30T09:02:18Z</time>
      </trkpt>
      <trkpt lat="48.63924" lon="5.03793">
        <ele>231.6</ele>
        <time>2020-06-30T09:02:19Z</time>
      </trkpt>
      <trkpt lat="48.63923" lon="5.03783">
        <ele>231.4</ele>
        <time>2020-06-30T09:02:20Z</time>
      </trkpt>
      <trkpt lat="48.63922" lon="5.03772">
        <ele>231.3</ele>
        <time>2020-06-30T09:02:21Z</time>
      </trkpt>
      <trkpt lat="48.63921" lon="5.03762">
        <ele>231.3</ele>
        <time>2020-06-30T09:02:22Z</time>
      </trkpt>
      <trkpt lat="48.6392" lon="5.03752">
        <ele>231.1</ele>
        <time>2020-06-30T09:02:23Z</time>
      </trkpt>
      <trkpt lat="48.63919" lon="5.03743">
        <ele>231</ele>
        <time>2020-06-30T09:02:24Z</time>
      </trkpt>
      <trkpt lat="48.63918" lon="5.03732">
        <ele>230.9</ele>
        <time>2020-06-30T09:02:25Z</time>
      </trkpt>
      <trkpt lat="48.63917" lon="5.03722">
        <ele>230.9</ele>
        <time>2020-06-30T09:02:26Z</time>
      </trkpt>
      <trkpt lat="48.63916" lon="5.03713">
        <ele>230.8</ele>
        <time>2020-06-30T09:02:27Z</time>
      </trkpt>
      <trkpt lat="48.63915" lon="5.03703">
        <ele>230.7</ele>
        <time>2020-06-30T09:02:28Z</time>
      </trkpt>
      <trkpt lat="48.63914" lon="5.03693">
        <ele>230.7</ele>
        <time>2020-06-30T09:02:29Z</time>
      </trkpt>
      <trkpt lat="48.63914" lon="5.03683">
        <ele>230.6</ele>
        <time>2020-06-30T09:02:30Z</time>
      </trkpt>
      <trkpt lat="48.63912" lon="5.03674">
        <ele>230.5</ele>
        <time>2020-06-30T09:02:31Z</time>
      </trkpt>
      <trkpt lat="48.63912" lon="5.03664">
        <ele>230.4</ele>
        <time>2020-06-30T09:02:32Z</time>
      </trkpt>
      <trkpt lat="48.63911" lon="5.03654">
        <ele>230.3</ele>
        <time>2020-06-30T09:02:33Z</time>
      </trkpt>
      <trkpt lat="48.6391" lon="5.03644">
        <ele>230.2</ele>
        <time>2020-06-30T09:02:34Z</time>
      </trkpt>
      <trkpt lat="48.63909" lon="5.03635">
        <ele>230.1</ele>
        <time>2020-06-30T09:02:35Z</time>
      </trkpt>
      <trkpt lat="48.63908" lon="5.03625">
        <ele>230.1</ele>
        <time>2020-06-30T09:02:36Z</time>
      </trkpt>
      <trkpt lat="48.63907" lon="5.03616">
        <ele>230</ele>
        <time>2020-06-30T09:02:37Z</time>
      </trkpt>
      <trkpt lat="48.63906" lon="5.03607">
        <ele>229.9</ele>
        <time>2020-06-30T09:02:38Z</time>
      </trkpt>
      <trkpt lat="48.63905" lon="5.03598">
        <ele>229.8</ele>
        <time>2020-06-30T09:02:39Z</time>
      </trkpt>
      <trkpt lat="48.63904" lon="5.03589">
        <ele>229.7</ele>
        <time>2020-06-30T09:02:40Z</time>
      </trkpt>
      <trkpt lat="48.63903" lon="5.0358">
        <ele>229.6</ele>
        <time>2020-06-30T09:02:41Z</time>
      </trkpt>
      <trkpt lat="48.63902" lon="5.03572">
        <ele>229.5</ele>
        <time>2020-06-30T09:02:42Z</time>
      </trkpt>
      <trkpt lat="48.63901" lon="5.03563">
        <ele>229.4</ele>
        <time>2020-06-30T09:02:43Z</time>
      </trkpt>
      <trkpt lat="48.639" lon="5.03554">
        <ele>229.3</ele>
        <time>2020-06-30T09:02:44Z</time>
      </trkpt>
      <trkpt lat="48.63899" lon="5.03546">
        <ele>229.3</ele>
        <time>2020-06-30T09:02:45Z</time>
      </trkpt>
      <trkpt lat="48.63899" lon="5.03536">
        <ele>229.2</ele>
        <time>2020-06-30T09:02:46Z</time>
      </trkpt>
      <trkpt lat="48.63898" lon="5.03527">
        <ele>229.1</ele>
        <time>2020-06-30T09:02:47Z</time>
      </trkpt>
      <trkpt lat="48.63897" lon="5.03518">
        <ele>229</ele>
        <time>2020-06-30T09:02:48Z</time>
      </trkpt>
      <trkpt lat="48.63896" lon="5.03509">
        <ele>228.9</ele>
        <time>2020-06-30T09:02:49Z</time>
      </trkpt>
      <trkpt lat="48.63895" lon="5.035">
        <ele>228.8</ele>
        <time>2020-06-30T09:02:50Z</time>
      </trkpt>
      <trkpt lat="48.63895" lon="5.03491">
        <ele>228.7</ele>
        <time>2020-06-30T09:02:51Z</time>
      </trkpt>
      <trkpt lat="48.63895" lon="5.03482">
        <ele>228.6</ele>
        <time>2020-06-30T09:02:52Z</time>
      </trkpt>
      <trkpt lat="48.63895" lon="5.03473">
        <ele>228.4</ele>
        <time>2020-06-30T09:02:53Z</time>
      </trkpt>
      <trkpt lat="48.63894" lon="5.03465">
        <ele>228.2</ele>
        <time>2020-06-30T09:02:54Z</time>
      </trkpt>
      <trkpt lat="48.63892" lon="5.03456">
        <ele>228.1</ele>
        <time>2020-06-30T09:02:55Z</time>
      </trkpt>
      <trkpt lat="48.63892" lon="5.03448">
        <ele>227.9</ele>
        <time>2020-06-30T09:02:56Z</time>
      </trkpt>
      <trkpt lat="48.63891" lon="5.03439">
        <ele>227.8</ele>
        <time>2020-06-30T09:02:57Z</time>
      </trkpt>
      <trkpt lat="48.6389" lon="5.0343">
        <ele>227.6</ele>
        <time>2020-06-30T09:02:58Z</time>
      </trkpt>
      <trkpt lat="48.63889" lon="5.03421">
        <ele>227.4</ele>
        <time>2020-06-30T09:02:59Z</time>
      </trkpt>
      <trkpt lat="48.63888" lon="5.03413">
        <ele>227.2</ele>
        <time>2020-06-30T09:03:00Z</time>
      </trkpt>
      <trkpt lat="48.63887" lon="5.03405">
        <ele>227</ele>
        <time>2020-06-30T09:03:01Z</time>
      </trkpt>
      <trkpt lat="48.63887" lon="5.03396">
        <ele>226.7</ele>
        <time>2020-06-30T09:03:02Z</time>
      </trkpt>
      <trkpt lat="48.63888" lon="5.03386">
        <ele>226.3</ele>
        <time>2020-06-30T09:03:03Z</time>
      </trkpt>
      <trkpt lat="48.63888" lon="5.03376">
        <ele>225.8</ele>
        <time>2020-06-30T09:03:04Z</time>
      </trkpt>
      <trkpt lat="48.63888" lon="5.03366">
        <ele>224.9</ele>
        <time>2020-06-30T09:03:05Z</time>
      </trkpt>
      <trkpt lat="48.63888" lon="5.03356">
        <ele>224.3</ele>
        <time>2020-06-30T09:03:06Z</time>
      </trkpt>
      <trkpt lat="48.63887" lon="5.03345">
        <ele>223.9</ele>
        <time>2020-06-30T09:03:07Z</time>
      </trkpt>
      <trkpt lat="48.63887" lon="5.03335">
        <ele>223.4</ele>
        <time>2020-06-30T09:03:08Z</time>
      </trkpt>
      <trkpt lat="48.63886" lon="5.03324">
        <ele>222.9</ele>
        <time>2020-06-30T09:03:09Z</time>
      </trkpt>
      <trkpt lat="48.63886" lon="5.03313">
        <ele>222.4</ele>
        <time>2020-06-30T09:03:10Z</time>
      </trkpt>
      <trkpt lat="48.63885" lon="5.03301">
        <ele>221.9</ele>
        <time>2020-06-30T09:03:11Z</time>
      </trkpt>
      <trkpt lat="48.63886" lon="5.03289">
        <ele>221.4</ele>
        <time>2020-06-30T09:03:12Z</time>
      </trkpt>
      <trkpt lat="48.63886" lon="5.03277">
        <ele>220.9</ele>
        <time>2020-06-30T09:03:13Z</time>
      </trkpt>
      <trkpt lat="48.63886" lon="5.03264">
        <ele>220.5</ele>
        <time>2020-06-30T09:03:14Z</time>
      </trkpt>
      <trkpt lat="48.63886" lon="5.03252">
        <ele>220</ele>
        <time>2020-06-30T09:03:15Z</time>
      </trkpt>
      <trkpt lat="48.63886" lon="5.03239">
        <ele>219.6</ele>
        <time>2020-06-30T09:03:16Z</time>
      </trkpt>
      <trkpt lat="48.63887" lon="5.03226">
        <ele>219.2</ele>
        <time>2020-06-30T09:03:17Z</time>
      </trkpt>
      <trkpt lat="48.63887" lon="5.03214">
        <ele>218.9</ele>
        <time>2020-06-30T09:03:18Z</time>
      </trkpt>
      <trkpt lat="48.63887" lon="5.03201">
        <ele>218.5</ele>
        <time>2020-06-30T09:03:19Z</time>
      </trkpt>
      <trkpt lat="48.63887" lon="5.03188">
        <ele>218.2</ele>
        <time>2020-06-30T09:03:20Z</time>
      </trkpt>
      <trkpt lat="48.63887" lon="5.03176">
        <ele>217.9</ele>
        <time>2020-06-30T09:03:21Z</time>
      </trkpt>
      <trkpt lat="48.63887" lon="5.03164">
        <ele>217.6</ele>
        <time>2020-06-30T09:03:22Z</time>
      </trkpt>
      <trkpt lat="48.63888" lon="5.03152">
        <ele>217.3</ele>
        <time>2020-06-30T09:03:23Z</time>
      </trkpt>
      <trkpt lat="48.63888" lon="5.0314">
        <ele>217.1</ele>
        <time>2020-06-30T09:03:24Z</time>
      </trkpt>
      <trkpt lat="48.63888" lon="5.03128">
        <ele>216.8</ele>
        <time>2020-06-30T09:03:25Z</time>
      </trkpt>
      <trkpt lat="48.63887" lon="5.03117">
        <ele>216.6</ele>
        <time>2020-06-30T09:03:26Z</time>
      </trkpt>
      <trkpt lat="48.63887" lon="5.03105">
        <ele>216.4</ele>
        <time>2020-06-30T09:03:27Z</time>
      </trkpt>
      <trkpt lat="48.63887" lon="5.03093">
        <ele>216.1</ele>
        <time>2020-06-30T09:03:28Z</time>
      </trkpt>
      <trkpt lat="48.63887" lon="5.03082">
        <ele>215.9</ele>
        <time>2020-06-30T09:03:29Z</time>
      </trkpt>
      <trkpt lat="48.63888" lon="5.03071">
        <ele>215.6</ele>
        <time>2020-06-30T09:03:30Z</time>
      </trkpt>
      <trkpt lat="48.63888" lon="5.0306">
        <ele>215.4</ele>
        <time>2020-06-30T09:03:31Z</time>
      </trkpt>
      <trkpt lat="48.63888" lon="5.03049">
        <ele>215.2</ele>
        <time>2020-06-30T09:03:32Z</time>
      </trkpt>
      <trkpt lat="48.63887" lon="5.03038">
        <ele>215</ele>
        <time>2020-06-30T09:03:33Z</time>
      </trkpt>
      <trkpt lat="48.63886" lon="5.03027">
        <ele>214.8</ele>
        <time>2020-06-30T09:03:34Z</time>
      </trkpt>
      <trkpt lat="48.63886" lon="5.03016">
        <ele>214.5</ele>
        <time>2020-06-30T09:03:35Z</time>
      </trkpt>
      <trkpt lat="48.63885" lon="5.03005">
        <ele>214.3</ele>
        <time>2020-06-30T09:03:36Z</time>
      </trkpt>
      <trkpt lat="48.63883" lon="5.02994">
        <ele>214.1</ele>
        <time>2020-06-30T09:03:37Z</time>
      </trkpt>
      <trkpt lat="48.63881" lon="5.02983">
        <ele>213.9</ele>
        <time>2020-06-30T09:03:38Z</time>
      </trkpt>
      <trkpt lat="48.6388" lon="5.02972">
        <ele>213.7</ele>
        <time>2020-06-30T09:03:39Z</time>
      </trkpt>
      <trkpt lat="48.63879" lon="5.02961">
        <ele>213.4</ele>
        <time>2020-06-30T09:03:40Z</time>
      </trkpt>
      <trkpt lat="48.63878" lon="5.02951">
        <ele>213.1</ele>
        <time>2020-06-30T09:03:41Z</time>
      </trkpt>
      <trkpt lat="48.63876" lon="5.02941">
        <ele>213</ele>
        <time>2020-06-30T09:03:42Z</time>
      </trkpt>
      <trkpt lat="48.63875" lon="5.02931">
        <ele>212.8</ele>
        <time>2020-06-30T09:03:43Z</time>
      </trkpt>
      <trkpt lat="48.63875" lon="5.0292">
        <ele>212.7</ele>
        <time>2020-06-30T09:03:44Z</time>
      </trkpt>
      <trkpt lat="48.63875" lon="5.0291">
        <ele>212.6</ele>
        <time>2020-06-30T09:03:45Z</time>
      </trkpt>
      <trkpt lat="48.63873" lon="5.029">
        <ele>212.5</ele>
        <time>2020-06-30T09:03:46Z</time>
      </trkpt>
      <trkpt lat="48.63872" lon="5.02889">
        <ele>212.4</ele>
        <time>2020-06-30T09:03:47Z</time>
      </trkpt>
      <trkpt lat="48.63872" lon="5.02879">
        <ele>212.3</ele>
        <time>2020-06-30T09:03:48Z</time>
      </trkpt>
      <trkpt lat="48.63871" lon="5.02869">
        <ele>212.2</ele>
        <time>2020-06-30T09:03:49Z</time>
      </trkpt>
      <trkpt lat="48.6387" lon="5.0286">
        <ele>212.1</ele>
        <time>2020-06-30T09:03:50Z</time>
      </trkpt>
      <trkpt lat="48.63869" lon="5.02851">
        <ele>212.1</ele>
        <time>2020-06-30T09:03:51Z</time>
      </trkpt>
      <trkpt lat="48.63868" lon="5.02842">
        <ele>212</ele>
        <time>2020-06-30T09:03:52Z</time>
      </trkpt>
      <trkpt lat="48.63868" lon="5.02833">
        <ele>212</ele>
        <time>2020-06-30T09:03:53Z</time>
      </trkpt>
      <trkpt lat="48.63867" lon="5.02824">
        <ele>211.9</ele>
        <time>2020-06-30T09:03:54Z</time>
      </trkpt>
      <trkpt lat="48.63866" lon="5.02815">
        <ele>211.9</ele>
        <time>2020-06-30T09:03:55Z</time>
      </trkpt>
      <trkpt lat="48.63865" lon="5.02806">
        <ele>211.8</ele>
        <time>2020-06-30T09:03:56Z</time>
      </trkpt>
      <trkpt lat="48.63864" lon="5.02797">
        <ele>211.7</ele>
        <time>2020-06-30T09:03:57Z</time>
      </trkpt>
      <trkpt lat="48.63863" lon="5.02787">
        <ele>211.7</ele>
        <time>2020-06-30T09:03:58Z</time>
      </trkpt>
      <trkpt lat="48.63861" lon="5.02778">
        <ele>211.6</ele>
        <time>2020-06-30T09:03:59Z</time>
      </trkpt>
      <trkpt lat="48.6386" lon="5.02768">
        <ele>211.5</ele>
        <time>2020-06-30T09:04:00Z</time>
      </trkpt>
      <trkpt lat="48.6386" lon="5.02758">
        <ele>211.4</ele>
        <time>2020-06-30T09:04:01Z</time>
      </trkpt>
      <trkpt lat="48.6386" lon="5.02749">
        <ele>211.4</ele>
        <time>2020-06-30T09:04:02Z</time>
      </trkpt>
      <trkpt lat="48.63859" lon="5.02739">
        <ele>211.2</ele>
        <time>2020-06-30T09:04:03Z</time>
      </trkpt>
      <trkpt lat="48.63859" lon="5.0273">
        <ele>211</ele>
        <time>2020-06-30T09:04:04Z</time>
      </trkpt>
      <trkpt lat="48.63858" lon="5.02721">
        <ele>210.9</ele>
        <time>2020-06-30T09:04:05Z</time>
      </trkpt>
      <trkpt lat="48.63857" lon="5.02713">
        <ele>210.7</ele>
        <time>2020-06-30T09:04:06Z</time>
      </trkpt>
      <trkpt lat="48.63857" lon="5.02704">
        <ele>210.6</ele>
        <time>2020-06-30T09:04:07Z</time>
      </trkpt>
      <trkpt lat="48.63857" lon="5.02696">
        <ele>210.4</ele>
        <time>2020-06-30T09:04:08Z</time>
      </trkpt>
      <trkpt lat="48.63856" lon="5.02687">
        <ele>210.2</ele>
        <time>2020-06-30T09:04:09Z</time>
      </trkpt>
      <trkpt lat="48.63856" lon="5.02679">
        <ele>210.1</ele>
        <time>2020-06-30T09:04:10Z</time>
      </trkpt>
      <trkpt lat="48.63855" lon="5.02671">
        <ele>210</ele>
        <time>2020-06-30T09:04:11Z</time>
      </trkpt>
      <trkpt lat="48.63854" lon="5.02663">
        <ele>209.9</ele>
        <time>2020-06-30T09:04:12Z</time>
      </trkpt>
      <trkpt lat="48.63852" lon="5.02655">
        <ele>209.8</ele>
        <time>2020-06-30T09:04:13Z</time>
      </trkpt>
      <trkpt lat="48.63851" lon="5.02647">
        <ele>209.7</ele>
        <time>2020-06-30T09:04:14Z</time>
      </trkpt>
      <trkpt lat="48.63849" lon="5.02639">
        <ele>209.5</ele>
        <time>2020-06-30T09:04:15Z</time>
      </trkpt>
      <trkpt lat="48.63847" lon="5.02632">
        <ele>209.4</ele>
        <time>2020-06-30T09:04:16Z</time>
      </trkpt>
      <trkpt lat="48.63847" lon="5.02624">
        <ele>209.3</ele>
        <time>2020-06-30T09:04:17Z</time>
      </trkpt>
      <trkpt lat="48.63847" lon="5.02617">
        <ele>209.2</ele>
        <time>2020-06-30T09:04:18Z</time>
      </trkpt>
      <trkpt lat="48.63845" lon="5.02611">
        <ele>209.1</ele>
        <time>2020-06-30T09:04:19Z</time>
      </trkpt>
      <trkpt lat="48.63845" lon="5.02604">
        <ele>208.9</ele>
        <time>2020-06-30T09:04:20Z</time>
      </trkpt>
      <trkpt lat="48.63845" lon="5.02598">
        <ele>208.8</ele>
        <time>2020-06-30T09:04:21Z</time>
      </trkpt>
      <trkpt lat="48.63845" lon="5.02591">
        <ele>208.7</ele>
        <time>2020-06-30T09:04:22Z</time>
      </trkpt>
      <trkpt lat="48.63846" lon="5.02585">
        <ele>208.5</ele>
        <time>2020-06-30T09:04:23Z</time>
      </trkpt>
      <trkpt lat="48.63847" lon="5.02578">
        <ele>208.4</ele>
        <time>2020-06-30T09:04:24Z</time>
      </trkpt>
      <trkpt lat="48.63846" lon="5.02571">
        <ele>208.3</ele>
        <time>2020-06-30T09:04:25Z</time>
      </trkpt>
      <trkpt lat="48.63847" lon="5.02564">
        <ele>208.2</ele>
        <time>2020-06-30T09:04:26Z</time>
      </trkpt>
      <trkpt lat="48.63846" lon="5.02558">
        <ele>208.1</ele>
        <time>2020-06-30T09:04:27Z</time>
      </trkpt>
      <trkpt lat="48.63845" lon="5.02551">
        <ele>208</ele>
        <time>2020-06-30T09:04:28Z</time>
      </trkpt>
      <trkpt lat="48.63844" lon="5.02544">
        <ele>207.9</ele>
        <time>2020-06-30T09:04:29Z</time>
      </trkpt>
      <trkpt lat="48.63844" lon="5.02538">
        <ele>207.8</ele>
        <time>2020-06-30T09:04:30Z</time>
      </trkpt>
      <trkpt lat="48.63843" lon="5.02531">
        <ele>207.7</ele>
        <time>2020-06-30T09:04:31Z</time>
      </trkpt>
      <trkpt lat="48.63842" lon="5.02524">
        <ele>207.6</ele>
        <time>2020-06-30T09:04:32Z</time>
      </trkpt>
      <trkpt lat="48.63842" lon="5.02517">
        <ele>207.5</ele>
        <time>2020-06-30T09:04:33Z</time>
      </trkpt>
      <trkpt lat="48.63841" lon="5.02509">
        <ele>207.3</ele>
        <time>2020-06-30T09:04:34Z</time>
      </trkpt>
      <trkpt lat="48.6384" lon="5.02501">
        <ele>207.2</ele>
        <time>2020-06-30T09:04:35Z</time>
      </trkpt>
      <trkpt lat="48.6384" lon="5.02494">
        <ele>207.1</ele>
        <time>2020-06-30T09:04:36Z</time>
      </trkpt>
      <trkpt lat="48.6384" lon="5.02487">
        <ele>207</ele>
        <time>2020-06-30T09:04:37Z</time>
      </trkpt>
      <trkpt lat="48.63839" lon="5.02479">
        <ele>206.9</ele>
        <time>2020-06-30T09:04:38Z</time>
      </trkpt>
      <trkpt lat="48.63838" lon="5.02471">
        <ele>206.7</ele>
        <time>2020-06-30T09:04:39Z</time>
      </trkpt>
      <trkpt lat="48.63838" lon="5.02464">
        <ele>206.6</ele>
        <time>2020-06-30T09:04:40Z</time>
      </trkpt>
      <trkpt lat="48.63837" lon="5.02456">
        <ele>206.5</ele>
        <time>2020-06-30T09:04:41Z</time>
      </trkpt>
      <trkpt lat="48.63837" lon="5.02448">
        <ele>206.4</ele>
        <time>2020-06-30T09:04:42Z</time>
      </trkpt>
      <trkpt lat="48.63837" lon="5.02441">
        <ele>206.2</ele>
        <time>2020-06-30T09:04:43Z</time>
      </trkpt>
      <trkpt lat="48.63837" lon="5.02433">
        <ele>206.1</ele>
        <time>2020-06-30T09:04:44Z</time>
      </trkpt>
      <trkpt lat="48.63836" lon="5.02425">
        <ele>206</ele>
        <time>2020-06-30T09:04:45Z</time>
      </trkpt>
      <trkpt lat="48.63835" lon="5.02417">
        <ele>205.8</ele>
        <time>2020-06-30T09:04:46Z</time>
      </trkpt>
      <trkpt lat="48.63835" lon="5.02409">
        <ele>205.7</ele>
        <time>2020-06-30T09:04:47Z</time>
      </trkpt>
      <trkpt lat="48.63833" lon="5.024">
        <ele>205.5</ele>
        <time>2020-06-30T09:04:48Z</time>
      </trkpt>
      <trkpt lat="48.63833" lon="5.02392">
        <ele>205.3</ele>
        <time>2020-06-30T09:04:49Z</time>
      </trkpt>
      <trkpt lat="48.63831" lon="5.02384">
        <ele>205.2</ele>
        <time>2020-06-30T09:04:50Z</time>
      </trkpt>
      <trkpt lat="48.6383" lon="5.02376">
        <ele>205.1</ele>
        <time>2020-06-30T09:04:51Z</time>
      </trkpt>
      <trkpt lat="48.63827" lon="5.02369">
        <ele>204.9</ele>
        <time>2020-06-30T09:04:52Z</time>
      </trkpt>
      <trkpt lat="48.63826" lon="5.02361">
        <ele>204.8</ele>
        <time>2020-06-30T09:04:53Z</time>
      </trkpt>
      <trkpt lat="48.63826" lon="5.02353">
        <ele>204.6</ele>
        <time>2020-06-30T09:04:54Z</time>
      </trkpt>
      <trkpt lat="48.63824" lon="5.02345">
        <ele>204.4</ele>
        <time>2020-06-30T09:04:55Z</time>
      </trkpt>
      <trkpt lat="48.63823" lon="5.02337">
        <ele>204.2</ele>
        <time>2020-06-30T09:04:56Z</time>
      </trkpt>
      <trkpt lat="48.63822" lon="5.0233">
        <ele>204.1</ele>
        <time>2020-06-30T09:04:57Z</time>
      </trkpt>
      <trkpt lat="48.63822" lon="5.02322">
        <ele>203.9</ele>
        <time>2020-06-30T09:04:58Z</time>
      </trkpt>
      <trkpt lat="48.63822" lon="5.02314">
        <ele>203.7</ele>
        <time>2020-06-30T09:04:59Z</time>
      </trkpt>
      <trkpt lat="48.63821" lon="5.02306">
        <ele>203.6</ele>
        <time>2020-06-30T09:05:00Z</time>
      </trkpt>
      <trkpt lat="48.63821" lon="5.02298">
        <ele>203.4</ele>
        <time>2020-06-30T09:05:01Z</time>
      </trkpt>
      <trkpt lat="48.6382" lon="5.0229">
        <ele>203.2</ele>
        <time>2020-06-30T09:05:02Z</time>
      </trkpt>
      <trkpt lat="48.6382" lon="5.02282">
        <ele>203</ele>
        <time>2020-06-30T09:05:03Z</time>
      </trkpt>
      <trkpt lat="48.63821" lon="5.02274">
        <ele>202.8</ele>
        <time>2020-06-30T09:05:04Z</time>
      </trkpt>
      <trkpt lat="48.63819" lon="5.02266">
        <ele>202.6</ele>
        <time>2020-06-30T09:05:05Z</time>
      </trkpt>
      <trkpt lat="48.63819" lon="5.02257">
        <ele>202.4</ele>
        <time>2020-06-30T09:05:06Z</time>
      </trkpt>
      <trkpt lat="48.63819" lon="5.02249">
        <ele>202.2</ele>
        <time>2020-06-30T09:05:07Z</time>
      </trkpt>
      <trkpt lat="48.63818" lon="5.0224">
        <ele>202</ele>
        <time>2020-06-30T09:05:08Z</time>
      </trkpt>
      <trkpt lat="48.63818" lon="5.02233">
        <ele>201.8</ele>
        <time>2020-06-30T09:05:09Z</time>
      </trkpt>
      <trkpt lat="48.63818" lon="5.02225">
        <ele>201.6</ele>
        <time>2020-06-30T09:05:10Z</time>
      </trkpt>
      <trkpt lat="48.63818" lon="5.02218">
        <ele>201.4</ele>
        <time>2020-06-30T09:05:11Z</time>
      </trkpt>
      <trkpt lat="48.63818" lon="5.02211">
        <ele>201.3</ele>
        <time>2020-06-30T09:05:12Z</time>
      </trkpt>
      <trkpt lat="48.63816" lon="5.02205">
        <ele>201.3</ele>
        <time>2020-06-30T09:05:13Z</time>
      </trkpt>
      <trkpt lat="48.63815" lon="5.022">
        <ele>201.2</ele>
        <time>2020-06-30T09:05:14Z</time>
      </trkpt>
      <trkpt lat="48.63814" lon="5.02196">
        <ele>201.1</ele>
        <time>2020-06-30T09:05:15Z</time>
      </trkpt>
      <trkpt lat="48.63813" lon="5.02194">
        <ele>201.1</ele>
        <time>2020-06-30T09:05:16Z</time>
      </trkpt>
      <trkpt lat="48.63812" lon="5.02192">
        <ele>201.1</ele>
        <time>2020-06-30T09:05:17Z</time>
      </trkpt>
      <trkpt lat="48.6381" lon="5.02192">
        <ele>201</ele>
        <time>2020-06-30T09:05:18Z</time>
      </trkpt>
      <trkpt lat="48.63809" lon="5.02192">
        <ele>201</ele>
        <time>2020-06-30T09:05:19Z</time>
      </trkpt>
      <trkpt lat="48.63808" lon="5.02193">
        <ele>201</ele>
        <time>2020-06-30T09:05:20Z</time>
      </trkpt>
      <trkpt lat="48.63808" lon="5.02193">
        <ele>201</ele>
        <time>2020-06-30T09:05:21Z</time>
      </trkpt>
      <trkpt lat="48.63808" lon="5.02193">
        <ele>201</ele>
        <time>2020-06-30T09:05:22Z</time>
      </trkpt>
      <trkpt lat="48.63809" lon="5.02193">
        <ele>201</ele>
        <time>2020-06-30T09:05:23Z</time>
      </trkpt>
      <trkpt lat="48.6381" lon="5.02192">
        <ele>201</ele>
        <time>2020-06-30T09:05:24Z</time>
      </trkpt>
      <trkpt lat="48.6381" lon="5.0219">
        <ele>200.9</ele>
        <time>2020-06-30T09:05:25Z</time>
      </trkpt>
      <trkpt lat="48.63809" lon="5.02188">
        <ele>200.9</ele>
        <time>2020-06-30T09:05:26Z</time>
      </trkpt>
      <trkpt lat="48.63807" lon="5.02183">
        <ele>200.9</ele>
        <time>2020-06-30T09:05:27Z</time>
      </trkpt>
      <trkpt lat="48.63806" lon="5.0218">
        <ele>200.8</ele>
        <time>2020-06-30T09:05:28Z</time>
      </trkpt>
      <trkpt lat="48.63804" lon="5.02177">
        <ele>200.8</ele>
        <time>2020-06-30T09:05:29Z</time>
      </trkpt>
      <trkpt lat="48.63801" lon="5.02175">
        <ele>200.6</ele>
        <time>2020-06-30T09:05:30Z</time>
      </trkpt>
      <trkpt lat="48.63798" lon="5.02173">
        <ele>200.4</ele>
        <time>2020-06-30T09:05:31Z</time>
      </trkpt>
      <trkpt lat="48.63794" lon="5.02169">
        <ele>200.2</ele>
        <time>2020-06-30T09:05:32Z</time>
      </trkpt>
      <trkpt lat="48.63791" lon="5.02166">
        <ele>199.9</ele>
        <time>2020-06-30T09:05:33Z</time>
      </trkpt>
      <trkpt lat="48.63787" lon="5.02162">
        <ele>199.7</ele>
        <time>2020-06-30T09:05:34Z</time>
      </trkpt>
      <trkpt lat="48.63782" lon="5.02159">
        <ele>199.5</ele>
        <time>2020-06-30T09:05:35Z</time>
      </trkpt>
      <trkpt lat="48.63778" lon="5.02155">
        <ele>199.4</ele>
        <time>2020-06-30T09:05:36Z</time>
      </trkpt>
      <trkpt lat="48.63773" lon="5.02152">
        <ele>199.2</ele>
        <time>2020-06-30T09:05:37Z</time>
      </trkpt>
      <trkpt lat="48.63769" lon="5.02148">
        <ele>199.1</ele>
        <time>2020-06-30T09:05:38Z</time>
      </trkpt>
      <trkpt lat="48.63764" lon="5.02144">
        <ele>198.9</ele>
        <time>2020-06-30T09:05:39Z</time>
      </trkpt>
      <trkpt lat="48.6376" lon="5.02142">
        <ele>198.8</ele>
        <time>2020-06-30T09:05:40Z</time>
      </trkpt>
      <trkpt lat="48.63757" lon="5.02138">
        <ele>198.6</ele>
        <time>2020-06-30T09:05:41Z</time>
      </trkpt>
      <trkpt lat="48.63753" lon="5.02135">
        <ele>198.4</ele>
        <time>2020-06-30T09:05:42Z</time>
      </trkpt>
      <trkpt lat="48.6375" lon="5.02132">
        <ele>198.2</ele>
        <time>2020-06-30T09:05:43Z</time>
      </trkpt>
      <trkpt lat="48.63747" lon="5.02129">
        <ele>198</ele>
        <time>2020-06-30T09:05:44Z</time>
      </trkpt>
      <trkpt lat="48.63744" lon="5.02126">
        <ele>197.8</ele>
        <time>2020-06-30T09:05:45Z</time>
      </trkpt>
      <trkpt lat="48.63741" lon="5.02122">
        <ele>197.6</ele>
        <time>2020-06-30T09:05:46Z</time>
      </trkpt>
      <trkpt lat="48.63737" lon="5.02119">
        <ele>197.3</ele>
        <time>2020-06-30T09:05:47Z</time>
      </trkpt>
      <trkpt lat="48.63733" lon="5.02116">
        <ele>197</ele>
        <time>2020-06-30T09:05:48Z</time>
      </trkpt>
      <trkpt lat="48.63729" lon="5.02112">
        <ele>196.7</ele>
        <time>2020-06-30T09:05:49Z</time>
      </trkpt>
      <trkpt lat="48.63726" lon="5.02108">
        <ele>196.5</ele>
        <time>2020-06-30T09:05:50Z</time>
      </trkpt>
      <trkpt lat="48.63724" lon="5.02104">
        <ele>196.2</ele>
        <time>2020-06-30T09:05:51Z</time>
      </trkpt>
      <trkpt lat="48.6372" lon="5.021">
        <ele>195.9</ele>
        <time>2020-06-30T09:05:52Z</time>
      </trkpt>
      <trkpt lat="48.63716" lon="5.02097">
        <ele>195.6</ele>
        <time>2020-06-30T09:05:53Z</time>
      </trkpt>
      <trkpt lat="48.63712" lon="5.02092">
        <ele>195.3</ele>
        <time>2020-06-30T09:05:54Z</time>
      </trkpt>
      <trkpt lat="48.63708" lon="5.02088">
        <ele>195.1</ele>
        <time>2020-06-30T09:05:55Z</time>
      </trkpt>
      <trkpt lat="48.63704" lon="5.02085">
        <ele>194.8</ele>
        <time>2020-06-30T09:05:56Z</time>
      </trkpt>
      <trkpt lat="48.63699" lon="5.0208">
        <ele>194.4</ele>
        <time>2020-06-30T09:05:57Z</time>
      </trkpt>
      <trkpt lat="48.63695" lon="5.02075">
        <ele>194.2</ele>
        <time>2020-06-30T09:05:58Z</time>
      </trkpt>
      <trkpt lat="48.63691" lon="5.0207">
        <ele>194</ele>
        <time>2020-06-30T09:05:59Z</time>
      </trkpt>
      <trkpt lat="48.63687" lon="5.02065">
        <ele>193.7</ele>
        <time>2020-06-30T09:06:00Z</time>
      </trkpt>
      <trkpt lat="48.63684" lon="5.02058">
        <ele>193.6</ele>
        <time>2020-06-30T09:06:01Z</time>
      </trkpt>
      <trkpt lat="48.6368" lon="5.02053">
        <ele>193.4</ele>
        <time>2020-06-30T09:06:02Z</time>
      </trkpt>
      <trkpt lat="48.63676" lon="5.02048">
        <ele>193.2</ele>
        <time>2020-06-30T09:06:03Z</time>
      </trkpt>
      <trkpt lat="48.63672" lon="5.02044">
        <ele>193.1</ele>
        <time>2020-06-30T09:06:04Z</time>
      </trkpt>
      <trkpt lat="48.6367" lon="5.02039">
        <ele>193</ele>
        <time>2020-06-30T09:06:05Z</time>
      </trkpt>
      <trkpt lat="48.63668" lon="5.02033">
        <ele>192.9</ele>
        <time>2020-06-30T09:06:06Z</time>
      </trkpt>
      <trkpt lat="48.63666" lon="5.02029">
        <ele>192.8</ele>
        <time>2020-06-30T09:06:07Z</time>
      </trkpt>
      <trkpt lat="48.63664" lon="5.02025">
        <ele>192.7</ele>
        <time>2020-06-30T09:06:08Z</time>
      </trkpt>
      <trkpt lat="48.63662" lon="5.02023">
        <ele>192.7</ele>
        <time>2020-06-30T09:06:09Z</time>
      </trkpt>
      <trkpt lat="48.63659" lon="5.02019">
        <ele>192.6</ele>
        <time>2020-06-30T09:06:10Z</time>
      </trkpt>
      <trkpt lat="48.63658" lon="5.02018">
        <ele>192.6</ele>
        <time>2020-06-30T09:06:11Z</time>
      </trkpt>
      <trkpt lat="48.63656" lon="5.02015">
        <ele>192.6</ele>
        <time>2020-06-30T09:06:12Z</time>
      </trkpt>
      <trkpt lat="48.63655" lon="5.0201">
        <ele>192.5</ele>
        <time>2020-06-30T09:06:13Z</time>
      </trkpt>
      <trkpt lat="48.63653" lon="5.02006">
        <ele>192.5</ele>
        <time>2020-06-30T09:06:14Z</time>
      </trkpt>
      <trkpt lat="48.63652" lon="5.02006">
        <ele>192.5</ele>
        <time>2020-06-30T09:06:15Z</time>
      </trkpt>
      <trkpt lat="48.63649" lon="5.02003">
        <ele>192.5</ele>
        <time>2020-06-30T09:06:16Z</time>
      </trkpt>
      <trkpt lat="48.63649" lon="5.02002">
        <ele>192.5</ele>
        <time>2020-06-30T09:06:17Z</time>
      </trkpt>
      <trkpt lat="48.63645" lon="5.01999">
        <ele>192.5</ele>
        <time>2020-06-30T09:06:18Z</time>
      </trkpt>
      <trkpt lat="48.63644" lon="5.01998">
        <ele>192.6</ele>
        <time>2020-06-30T09:06:19Z</time>
      </trkpt>
      <trkpt lat="48.63642" lon="5.01995">
        <ele>192.6</ele>
        <time>2020-06-30T09:06:20Z</time>
      </trkpt>
      <trkpt lat="48.63639" lon="5.01991">
        <ele>192.6</ele>
        <time>2020-06-30T09:06:21Z</time>
      </trkpt>
      <trkpt lat="48.63636" lon="5.01988">
        <ele>192.7</ele>
        <time>2020-06-30T09:06:22Z</time>
      </trkpt>
      <trkpt lat="48.63633" lon="5.01984">
        <ele>192.7</ele>
        <time>2020-06-30T09:06:23Z</time>
      </trkpt>
      <trkpt lat="48.63629" lon="5.01981">
        <ele>192.8</ele>
        <time>2020-06-30T09:06:24Z</time>
      </trkpt>
      <trkpt lat="48.63625" lon="5.01979">
        <ele>192.9</ele>
        <time>2020-06-30T09:06:25Z</time>
      </trkpt>
      <trkpt lat="48.63621" lon="5.01975">
        <ele>193</ele>
        <time>2020-06-30T09:06:26Z</time>
      </trkpt>
      <trkpt lat="48.63616" lon="5.01973">
        <ele>193.4</ele>
        <time>2020-06-30T09:06:27Z</time>
      </trkpt>
      <trkpt lat="48.63611" lon="5.0197">
        <ele>193.7</ele>
        <time>2020-06-30T09:06:28Z</time>
      </trkpt>
      <trkpt lat="48.63606" lon="5.01967">
        <ele>193.9</ele>
        <time>2020-06-30T09:06:29Z</time>
      </trkpt>
      <trkpt lat="48.63601" lon="5.01965">
        <ele>194.2</ele>
        <time>2020-06-30T09:06:30Z</time>
      </trkpt>
      <trkpt lat="48.63596" lon="5.01961">
        <ele>194.5</ele>
        <time>2020-06-30T09:06:31Z</time>
      </trkpt>
      <trkpt lat="48.63591" lon="5.01958">
        <ele>194.8</ele>
        <time>2020-06-30T09:06:32Z</time>
      </trkpt>
      <trkpt lat="48.63588" lon="5.01957">
        <ele>195</ele>
        <time>2020-06-30T09:06:33Z</time>
      </trkpt>
      <trkpt lat="48.63584" lon="5.01954">
        <ele>195.2</ele>
        <time>2020-06-30T09:06:34Z</time>
      </trkpt>
      <trkpt lat="48.63581" lon="5.01953">
        <ele>195.4</ele>
        <time>2020-06-30T09:06:35Z</time>
      </trkpt>
      <trkpt lat="48.63578" lon="5.01953">
        <ele>195.6</ele>
        <time>2020-06-30T09:06:36Z</time>
      </trkpt>
      <trkpt lat="48.63573" lon="5.01953">
        <ele>195.8</ele>
        <time>2020-06-30T09:06:37Z</time>
      </trkpt>
      <trkpt lat="48.6357" lon="5.01955">
        <ele>196</ele>
        <time>2020-06-30T09:06:38Z</time>
      </trkpt>
      <trkpt lat="48.63569" lon="5.01955">
        <ele>196.1</ele>
        <time>2020-06-30T09:06:39Z</time>
      </trkpt>
      <trkpt lat="48.63568" lon="5.01955">
        <ele>196.1</ele>
        <time>2020-06-30T09:06:40Z</time>
      </trkpt>
      <trkpt lat="48.63567" lon="5.01955">
        <ele>196.2</ele>
        <time>2020-06-30T09:06:41Z</time>
      </trkpt>
      <trkpt lat="48.63566" lon="5.01956">
        <ele>196.3</ele>
        <time>2020-06-30T09:06:42Z</time>
      </trkpt>
      <trkpt lat="48.63565" lon="5.01956">
        <ele>196.3</ele>
        <time>2020-06-30T09:06:43Z</time>
      </trkpt>
      <trkpt lat="48.63563" lon="5.01955">
        <ele>196.4</ele>
        <time>2020-06-30T09:06:44Z</time>
      </trkpt>
      <trkpt lat="48.6356" lon="5.01955">
        <ele>196.5</ele>
        <time>2020-06-30T09:06:45Z</time>
      </trkpt>
      <trkpt lat="48.63559" lon="5.01955">
        <ele>196.5</ele>
        <time>2020-06-30T09:06:46Z</time>
      </trkpt>
      <trkpt lat="48.63555" lon="5.01953">
        <ele>196.5</ele>
        <time>2020-06-30T09:06:47Z</time>
      </trkpt>
      <trkpt lat="48.63554" lon="5.01952">
        <ele>196.5</ele>
        <time>2020-06-30T09:06:48Z</time>
      </trkpt>
      <trkpt lat="48.63552" lon="5.0195">
        <ele>196.5</ele>
        <time>2020-06-30T09:06:49Z</time>
      </trkpt>
      <trkpt lat="48.63551" lon="5.01949">
        <ele>196.5</ele>
        <time>2020-06-30T09:06:50Z</time>
      </trkpt>
      <trkpt lat="48.63551" lon="5.01949">
        <ele>196.5</ele>
        <time>2020-06-30T09:06:51Z</time>
      </trkpt>
      <trkpt lat="48.63549" lon="5.01946">
        <ele>196.5</ele>
        <time>2020-06-30T09:06:52Z</time>
      </trkpt>
      <trkpt lat="48.63547" lon="5.01944">
        <ele>196.5</ele>
        <time>2020-06-30T09:06:53Z</time>
      </trkpt>
      <trkpt lat="48.63548" lon="5.01944">
        <ele>196.5</ele>
        <time>2020-06-30T09:06:54Z</time>
      </trkpt>
      <trkpt lat="48.63548" lon="5.01942">
        <ele>196.5</ele>
        <time>2020-06-30T09:06:55Z</time>
      </trkpt>
      <trkpt lat="48.63547" lon="5.01942">
        <ele>196.5</ele>
        <time>2020-06-30T09:06:56Z</time>
      </trkpt>
      <trkpt lat="48.63547" lon="5.01942">
        <ele>196.5</ele>
        <time>2020-06-30T09:06:57Z</time>
      </trkpt>
      <trkpt lat="48.63547" lon="5.01941">
        <ele>196.5</ele>
        <time>2020-06-30T09:06:58Z</time>
      </trkpt>
      <trkpt lat="48.63546" lon="5.0194">
        <ele>196.5</ele>
        <time>2020-06-30T09:06:59Z</time>
      </trkpt>
      <trkpt lat="48.63546" lon="5.01939">
        <ele>196.5</ele>
        <time>2020-06-30T09:07:00Z</time>
      </trkpt>
      <trkpt lat="48.63545" lon="5.01938">
        <ele>196.5</ele>
        <time>2020-06-30T09:07:01Z</time>
      </trkpt>
      <trkpt lat="48.63545" lon="5.01938">
        <ele>196.5</ele>
        <time>2020-06-30T09:07:02Z</time>
      </trkpt>
      <trkpt lat="48.63544" lon="5.01938">
        <ele>196.5</ele>
        <time>2020-06-30T09:07:03Z</time>
      </trkpt>
      <trkpt lat="48.63544" lon="5.01938">
        <ele>196.5</ele>
        <time>2020-06-30T09:07:04Z</time>
      </trkpt>
      <trkpt lat="48.63544" lon="5.01938">
        <ele>196.5</ele>
        <time>2020-06-30T09:07:05Z</time>
      </trkpt>
      <trkpt lat="48.63544" lon="5.01958">
        <ele>196.5</ele>
        <time>2020-06-30T09:14:22Z</time>
      </trkpt>
      <trkpt lat="48.63545" lon="5.01957">
        <ele>196.5</ele>
        <time>2020-06-30T09:14:23Z</time>
      </trkpt>
      <trkpt lat="48.63545" lon="5.01955">
        <ele>196.5</ele>
        <time>2020-06-30T09:14:24Z</time>
      </trkpt>
      <trkpt lat="48.63546" lon="5.01955">
        <ele>196.5</ele>
        <time>2020-06-30T09:14:25Z</time>
      </trkpt>
      <trkpt lat="48.63546" lon="5.01954">
        <ele>196.5</ele>
        <time>2020-06-30T09:14:26Z</time>
      </trkpt>
      <trkpt lat="48.63546" lon="5.01954">
        <ele>196.5</ele>
        <time>2020-06-30T09:14:27Z</time>
      </trkpt>
      <trkpt lat="48.63546" lon="5.01953">
        <ele>196.5</ele>
        <time>2020-06-30T09:14:28Z</time>
      </trkpt>
      <trkpt lat="48.63547" lon="5.01952">
        <ele>196.5</ele>
        <time>2020-06-30T09:14:29Z</time>
      </trkpt>
      <trkpt lat="48.63547" lon="5.0195">
        <ele>196.5</ele>
        <time>2020-06-30T09:14:30Z</time>
      </trkpt>
      <trkpt lat="48.63547" lon="5.01949">
        <ele>196.5</ele>
        <time>2020-06-30T09:14:31Z</time>
      </trkpt>
      <trkpt lat="48.63546" lon="5.01949">
        <ele>196.5</ele>
        <time>2020-06-30T09:14:32Z</time>
      </trkpt>
      <trkpt lat="48.63546" lon="5.01949">
        <ele>196.5</ele>
        <time>2020-06-30T09:14:33Z</time>
      </trkpt>
      <trkpt lat="48.63546" lon="5.01949">
        <ele>196.5</ele>
        <time>2020-06-30T09:15:18Z</time>
      </trkpt>
      <trkpt lat="48.63546" lon="5.01949">
        <ele>196.5</ele>
        <time>2020-06-30T09:15:19Z</time>
      </trkpt>
      <trkpt lat="48.63546" lon="5.01949">
        <ele>196.5</ele>
        <time>2020-06-30T09:15:20Z</time>
      </trkpt>
      <trkpt lat="48.63545" lon="5.01949">
        <ele>196.5</ele>
        <time>2020-06-30T09:15:21Z</time>
      </trkpt>
      <trkpt lat="48.63545" lon="5.01949">
        <ele>196.5</ele>
        <time>2020-06-30T09:15:22Z</time>
      </trkpt>
      <trkpt lat="48.63545" lon="5.01949">
        <ele>196.5</ele>
        <time>2020-06-30T09:15:23Z</time>
      </trkpt>
      <trkpt lat="48.63545" lon="5.01949">
        <ele>196.5</ele>
        <time>2020-06-30T09:15:24Z</time>
      </trkpt>
      <trkpt lat="48.63544" lon="5.01949">
        <ele>196.5</ele>
        <time>2020-06-30T09:15:25Z</time>
      </trkpt>
      <trkpt lat="48.63544" lon="5.01949">
        <ele>196.5</ele>
        <time>2020-06-30T09:15:26Z</time>
      </trkpt>
      <trkpt lat="48.63544" lon="5.01949">
        <ele>196.5</ele>
        <time>2020-06-30T09:15:27Z</time>
      </trkpt>
      <trkpt lat="48.63544" lon="5.01949">
        <ele>196.5</ele>
        <time>2020-06-30T09:15:28Z</time>
      </trkpt>
      <trkpt lat="48.63544" lon="5.01949">
        <ele>196.5</ele>
        <time>2020-06-30T09:15:29Z</time>
      </trkpt>
      <trkpt lat="48.63543" lon="5.01949">
        <ele>196.5</ele>
        <time>2020-06-30T09:15:30Z</time>
      </trkpt>
      <trkpt lat="48.63543" lon="5.01949">
        <ele>196.5</ele>
        <time>2020-06-30T09:15:31Z</time>
      </trkpt>
      <trkpt lat="48.63543" lon="5.01949">
        <ele>196.5</ele>
        <time>2020-06-30T09:20:43Z</time>
      </trkpt>
      <trkpt lat="48.63543" lon="5.01949">
        <ele>196.5</ele>
        <time>2020-06-30T09:20:44Z</time>
      </trkpt>
      <trkpt lat="48.63543" lon="5.01949">
        <ele>196.5</ele>
        <time>2020-06-30T09:20:45Z</time>
      </trkpt>
      <trkpt lat="48.63542" lon="5.01949">
        <ele>196.5</ele>
        <time>2020-06-30T09:20:46Z</time>
      </trkpt>
      <trkpt lat="48.63542" lon="5.01949">
        <ele>196.5</ele>
        <time>2020-06-30T09:20:47Z</time>
      </trkpt>
      <trkpt lat="48.63542" lon="5.01949">
        <ele>196.5</ele>
        <time>2020-06-30T09:20:48Z</time>
      </trkpt>
      <trkpt lat="48.63542" lon="5.01949">
        <ele>196.5</ele>
        <time>2020-06-30T09:20:49Z</time>
      </trkpt>
      <trkpt lat="48.63541" lon="5.01949">
        <ele>196.5</ele>
        <time>2020-06-30T09:20:50Z</time>
      </trkpt>
      <trkpt lat="48.63541" lon="5.01949">
        <ele>196.5</ele>
        <time>2020-06-30T09:20:51Z</time>
      </trkpt>
      <trkpt lat="48.63541" lon="5.01949">
        <ele>196.5</ele>
        <time>2020-06-30T09:20:52Z</time>
      </trkpt>
      <trkpt lat="48.63542" lon="5.01949">
        <ele>196.5</ele>
        <time>2020-06-30T09:20:53Z</time>
      </trkpt>
      <trkpt lat="48.63543" lon="5.01948">
        <ele>196.5</ele>
        <time>2020-06-30T09:20:54Z</time>
      </trkpt>
      <trkpt lat="48.63543" lon="5.01948">
        <ele>196.5</ele>
        <time>2020-06-30T09:20:55Z</time>
      </trkpt>
      <trkpt lat="48.63543" lon="5.01948">
        <ele>196.5</ele>
        <time>2020-06-30T09:20:56Z</time>
      </trkpt>
      <trkpt lat="48.63543" lon="5.01948">
        <ele>196.5</ele>
        <time>2020-06-30T09:20:57Z</time>
      </trkpt>
      <trkpt lat="48.63543" lon="5.01948">
        <ele>196.5</ele>
        <time>2020-06-30T09:20:58Z</time>
      </trkpt>
      <trkpt lat="48.63544" lon="5.01948">
        <ele>196.5</ele>
        <time>2020-06-30T09:20:59Z</time>
      </trkpt>
      <trkpt lat="48.63545" lon="5.01949">
        <ele>196.5</ele>
        <time>2020-06-30T09:21:00Z</time>
      </trkpt>
      <trkpt lat="48.63546" lon="5.0195">
        <ele>196.5</ele>
        <time>2020-06-30T09:21:01Z</time>
      </trkpt>
      <trkpt lat="48.63547" lon="5.01951">
        <ele>196.5</ele>
        <time>2020-06-30T09:21:02Z</time>
      </trkpt>
      <trkpt lat="48.63549" lon="5.01953">
        <ele>196.5</ele>
        <time>2020-06-30T09:21:03Z</time>
      </trkpt>
      <trkpt lat="48.6355" lon="5.01954">
        <ele>196.5</ele>
        <time>2020-06-30T09:21:04Z</time>
      </trkpt>
      <trkpt lat="48.63551" lon="5.01955">
        <ele>196.5</ele>
        <time>2020-06-30T09:21:05Z</time>
      </trkpt>
      <trkpt lat="48.63552" lon="5.01956">
        <ele>196.5</ele>
        <time>2020-06-30T09:22:13Z</time>
      </trkpt>
      <trkpt lat="48.63553" lon="5.01957">
        <ele>196.5</ele>
        <time>2020-06-30T09:22:14Z</time>
      </trkpt>
      <trkpt lat="48.63554" lon="5.01959">
        <ele>196.5</ele>
        <time>2020-06-30T09:22:15Z</time>
      </trkpt>
      <trkpt lat="48.63556" lon="5.01963">
        <ele>196.5</ele>
        <time>2020-06-30T09:22:16Z</time>
      </trkpt>
      <trkpt lat="48.63557" lon="5.01964">
        <ele>196.4</ele>
        <time>2020-06-30T09:22:17Z</time>
      </trkpt>
      <trkpt lat="48.63558" lon="5.0197">
        <ele>196.4</ele>
        <time>2020-06-30T09:22:18Z</time>
      </trkpt>
      <trkpt lat="48.63558" lon="5.01972">
        <ele>196.4</ele>
        <time>2020-06-30T09:22:19Z</time>
      </trkpt>
      <trkpt lat="48.63559" lon="5.01974">
        <ele>196.4</ele>
        <time>2020-06-30T09:22:20Z</time>
      </trkpt>
      <trkpt lat="48.63559" lon="5.01976">
        <ele>196.4</ele>
        <time>2020-06-30T09:22:21Z</time>
      </trkpt>
      <trkpt lat="48.6356" lon="5.01978">
        <ele>196.4</ele>
        <time>2020-06-30T09:22:22Z</time>
      </trkpt>
      <trkpt lat="48.63559" lon="5.0198">
        <ele>196.4</ele>
        <time>2020-06-30T09:22:23Z</time>
      </trkpt>
      <trkpt lat="48.63558" lon="5.01981">
        <ele>196.4</ele>
        <time>2020-06-30T09:22:24Z</time>
      </trkpt>
      <trkpt lat="48.63558" lon="5.01982">
        <ele>196.4</ele>
        <time>2020-06-30T09:22:25Z</time>
      </trkpt>
      <trkpt lat="48.63556" lon="5.01983">
        <ele>196.4</ele>
        <time>2020-06-30T09:22:26Z</time>
      </trkpt>
      <trkpt lat="48.63557" lon="5.01986">
        <ele>196.4</ele>
        <time>2020-06-30T09:22:27Z</time>
      </trkpt>
      <trkpt lat="48.63556" lon="5.01986">
        <ele>196.4</ele>
        <time>2020-06-30T09:22:28Z</time>
      </trkpt>
      <trkpt lat="48.63555" lon="5.01986">
        <ele>196.4</ele>
        <time>2020-06-30T09:22:29Z</time>
      </trkpt>
      <trkpt lat="48.63555" lon="5.01985">
        <ele>196.4</ele>
        <time>2020-06-30T09:22:30Z</time>
      </trkpt>
      <trkpt lat="48.63555" lon="5.01984">
        <ele>196.4</ele>
        <time>2020-06-30T09:22:31Z</time>
      </trkpt>
      <trkpt lat="48.63555" lon="5.01984">
        <ele>196.4</ele>
        <time>2020-06-30T09:22:32Z</time>
      </trkpt>
      <trkpt lat="48.63555" lon="5.01983">
        <ele>196.4</ele>
        <time>2020-06-30T09:22:33Z</time>
      </trkpt>
      <trkpt lat="48.63555" lon="5.01982">
        <ele>196.4</ele>
        <time>2020-06-30T09:22:34Z</time>
      </trkpt>
      <trkpt lat="48.63555" lon="5.01981">
        <ele>196.4</ele>
        <time>2020-06-30T09:22:35Z</time>
      </trkpt>
      <trkpt lat="48.63555" lon="5.01981">
        <ele>196.4</ele>
        <time>2020-06-30T09:22:36Z</time>
      </trkpt>
      <trkpt lat="48.63555" lon="5.0198">
        <ele>196.4</ele>
        <time>2020-06-30T09:22:37Z</time>
      </trkpt>
      <trkpt lat="48.63555" lon="5.01978">
        <ele>196.4</ele>
        <time>2020-06-30T09:22:38Z</time>
      </trkpt>
      <trkpt lat="48.63554" lon="5.01975">
        <ele>196.4</ele>
        <time>2020-06-30T09:22:39Z</time>
      </trkpt>
      <trkpt lat="48.63554" lon="5.01973">
        <ele>196.4</ele>
        <time>2020-06-30T09:22:40Z</time>
      </trkpt>
      <trkpt lat="48.63553" lon="5.01973">
        <ele>196.4</ele>
        <time>2020-06-30T09:22:41Z</time>
      </trkpt>
      <trkpt lat="48.63554" lon="5.01974">
        <ele>196.5</ele>
        <time>2020-06-30T09:22:42Z</time>
      </trkpt>
      <trkpt lat="48.63553" lon="5.01973">
        <ele>196.5</ele>
        <time>2020-06-30T09:22:43Z</time>
      </trkpt>
      <trkpt lat="48.63553" lon="5.01972">
        <ele>196.5</ele>
        <time>2020-06-30T09:22:44Z</time>
      </trkpt>
      <trkpt lat="48.63553" lon="5.0197">
        <ele>196.5</ele>
        <time>2020-06-30T09:22:45Z</time>
      </trkpt>
      <trkpt lat="48.63553" lon="5.01967">
        <ele>196.5</ele>
        <time>2020-06-30T09:22:46Z</time>
      </trkpt>
      <trkpt lat="48.63554" lon="5.01967">
        <ele>196.5</ele>
        <time>2020-06-30T09:22:47Z</time>
      </trkpt>
      <trkpt lat="48.63554" lon="5.01966">
        <ele>196.5</ele>
        <time>2020-06-30T09:22:48Z</time>
      </trkpt>
      <trkpt lat="48.63555" lon="5.01966">
        <ele>196.5</ele>
        <time>2020-06-30T09:22:49Z</time>
      </trkpt>
      <trkpt lat="48.63555" lon="5.01965">
        <ele>196.5</ele>
        <time>2020-06-30T09:22:50Z</time>
      </trkpt>
      <trkpt lat="48.63555" lon="5.01964">
        <ele>196.5</ele>
        <time>2020-06-30T09:22:51Z</time>
      </trkpt>
      <trkpt lat="48.63555" lon="5.01963">
        <ele>196.5</ele>
        <time>2020-06-30T09:22:52Z</time>
      </trkpt>
      <trkpt lat="48.63556" lon="5.01962">
        <ele>196.5</ele>
        <time>2020-06-30T09:22:53Z</time>
      </trkpt>
      <trkpt lat="48.63558" lon="5.01962">
        <ele>196.5</ele>
        <time>2020-06-30T09:22:54Z</time>
      </trkpt>
      <trkpt lat="48.63559" lon="5.01961">
        <ele>196.5</ele>
        <time>2020-06-30T09:22:55Z</time>
      </trkpt>
      <trkpt lat="48.63562" lon="5.01961">
        <ele>196.5</ele>
        <time>2020-06-30T09:22:56Z</time>
      </trkpt>
      <trkpt lat="48.63563" lon="5.01961">
        <ele>196.5</ele>
        <time>2020-06-30T09:22:57Z</time>
      </trkpt>
      <trkpt lat="48.63566" lon="5.01961">
        <ele>196.5</ele>
        <time>2020-06-30T09:22:58Z</time>
      </trkpt>
      <trkpt lat="48.63569" lon="5.01962">
        <ele>196.4</ele>
        <time>2020-06-30T09:22:59Z</time>
      </trkpt>
      <trkpt lat="48.63573" lon="5.01964">
        <ele>196.4</ele>
        <time>2020-06-30T09:23:00Z</time>
      </trkpt>
      <trkpt lat="48.63577" lon="5.01966">
        <ele>196.1</ele>
        <time>2020-06-30T09:23:01Z</time>
      </trkpt>
      <trkpt lat="48.63581" lon="5.01967">
        <ele>195.8</ele>
        <time>2020-06-30T09:23:02Z</time>
      </trkpt>
      <trkpt lat="48.63585" lon="5.01969">
        <ele>195.5</ele>
        <time>2020-06-30T09:23:03Z</time>
      </trkpt>
      <trkpt lat="48.6359" lon="5.01971">
        <ele>195.1</ele>
        <time>2020-06-30T09:23:04Z</time>
      </trkpt>
      <trkpt lat="48.63594" lon="5.01973">
        <ele>194.8</ele>
        <time>2020-06-30T09:23:05Z</time>
      </trkpt>
      <trkpt lat="48.63601" lon="5.01976">
        <ele>194.3</ele>
        <time>2020-06-30T09:23:06Z</time>
      </trkpt>
      <trkpt lat="48.63607" lon="5.0198">
        <ele>193.8</ele>
        <time>2020-06-30T09:23:07Z</time>
      </trkpt>
      <trkpt lat="48.63614" lon="5.01983">
        <ele>193.4</ele>
        <time>2020-06-30T09:23:08Z</time>
      </trkpt>
      <trkpt lat="48.6362" lon="5.01986">
        <ele>193</ele>
        <time>2020-06-30T09:23:09Z</time>
      </trkpt>
      <trkpt lat="48.63626" lon="5.0199">
        <ele>192.8</ele>
        <time>2020-06-30T09:23:10Z</time>
      </trkpt>
      <trkpt lat="48.63631" lon="5.01994">
        <ele>192.7</ele>
        <time>2020-06-30T09:23:11Z</time>
      </trkpt>
      <trkpt lat="48.63637" lon="5.01998">
        <ele>192.6</ele>
        <time>2020-06-30T09:23:12Z</time>
      </trkpt>
      <trkpt lat="48.63643" lon="5.02004">
        <ele>192.5</ele>
        <time>2020-06-30T09:23:13Z</time>
      </trkpt>
      <trkpt lat="48.63648" lon="5.02008">
        <ele>192.5</ele>
        <time>2020-06-30T09:23:14Z</time>
      </trkpt>
      <trkpt lat="48.63654" lon="5.02013">
        <ele>192.5</ele>
        <time>2020-06-30T09:23:15Z</time>
      </trkpt>
      <trkpt lat="48.63658" lon="5.02018">
        <ele>192.6</ele>
        <time>2020-06-30T09:23:16Z</time>
      </trkpt>
      <trkpt lat="48.63662" lon="5.02026">
        <ele>192.7</ele>
        <time>2020-06-30T09:23:17Z</time>
      </trkpt>
      <trkpt lat="48.63667" lon="5.02033">
        <ele>192.8</ele>
        <time>2020-06-30T09:23:18Z</time>
      </trkpt>
      <trkpt lat="48.63672" lon="5.0204">
        <ele>193</ele>
        <time>2020-06-30T09:23:19Z</time>
      </trkpt>
      <trkpt lat="48.63677" lon="5.02046">
        <ele>193.2</ele>
        <time>2020-06-30T09:23:20Z</time>
      </trkpt>
      <trkpt lat="48.63682" lon="5.02052">
        <ele>193.4</ele>
        <time>2020-06-30T09:23:21Z</time>
      </trkpt>
      <trkpt lat="48.63686" lon="5.02058">
        <ele>193.6</ele>
        <time>2020-06-30T09:23:22Z</time>
      </trkpt>
      <trkpt lat="48.63689" lon="5.02062">
        <ele>193.7</ele>
        <time>2020-06-30T09:23:23Z</time>
      </trkpt>
      <trkpt lat="48.63691" lon="5.02066">
        <ele>193.9</ele>
        <time>2020-06-30T09:23:24Z</time>
      </trkpt>
      <trkpt lat="48.63695" lon="5.02071">
        <ele>194.1</ele>
        <time>2020-06-30T09:23:25Z</time>
      </trkpt>
      <trkpt lat="48.63698" lon="5.02076">
        <ele>194.3</ele>
        <time>2020-06-30T09:23:26Z</time>
      </trkpt>
      <trkpt lat="48.63701" lon="5.02081">
        <ele>194.5</ele>
        <time>2020-06-30T09:23:27Z</time>
      </trkpt>
      <trkpt lat="48.63705" lon="5.02086">
        <ele>194.7</ele>
        <time>2020-06-30T09:23:28Z</time>
      </trkpt>
      <trkpt lat="48.63708" lon="5.02088">
        <ele>194.9</ele>
        <time>2020-06-30T09:23:29Z</time>
      </trkpt>
      <trkpt lat="48.63709" lon="5.02089">
        <ele>195</ele>
        <time>2020-06-30T09:23:30Z</time>
      </trkpt>
      <trkpt lat="48.63712" lon="5.02093">
        <ele>195.2</ele>
        <time>2020-06-30T09:23:31Z</time>
      </trkpt>
      <trkpt lat="48.63716" lon="5.02097">
        <ele>195.4</ele>
        <time>2020-06-30T09:23:32Z</time>
      </trkpt>
      <trkpt lat="48.63719" lon="5.021">
        <ele>195.7</ele>
        <time>2020-06-30T09:23:33Z</time>
      </trkpt>
      <trkpt lat="48.63721" lon="5.02103">
        <ele>195.9</ele>
        <time>2020-06-30T09:23:34Z</time>
      </trkpt>
      <trkpt lat="48.63721" lon="5.02104">
        <ele>195.9</ele>
        <time>2020-06-30T09:23:35Z</time>
      </trkpt>
      <trkpt lat="48.63724" lon="5.02106">
        <ele>196.1</ele>
        <time>2020-06-30T09:23:36Z</time>
      </trkpt>
      <trkpt lat="48.63725" lon="5.02106">
        <ele>196.2</ele>
        <time>2020-06-30T09:23:37Z</time>
      </trkpt>
      <trkpt lat="48.63728" lon="5.02107">
        <ele>196.4</ele>
        <time>2020-06-30T09:23:38Z</time>
      </trkpt>
      <trkpt lat="48.63731" lon="5.02109">
        <ele>196.6</ele>
        <time>2020-06-30T09:23:39Z</time>
      </trkpt>
      <trkpt lat="48.63734" lon="5.02111">
        <ele>196.8</ele>
        <time>2020-06-30T09:23:40Z</time>
      </trkpt>
      <trkpt lat="48.63737" lon="5.02113">
        <ele>197</ele>
        <time>2020-06-30T09:23:41Z</time>
      </trkpt>
      <trkpt lat="48.6374" lon="5.02115">
        <ele>197.3</ele>
        <time>2020-06-30T09:23:42Z</time>
      </trkpt>
      <trkpt lat="48.63743" lon="5.02118">
        <ele>197.5</ele>
        <time>2020-06-30T09:23:43Z</time>
      </trkpt>
      <trkpt lat="48.63745" lon="5.02121">
        <ele>197.7</ele>
        <time>2020-06-30T09:23:44Z</time>
      </trkpt>
      <trkpt lat="48.63746" lon="5.02123">
        <ele>197.8</ele>
        <time>2020-06-30T09:23:45Z</time>
      </trkpt>
      <trkpt lat="48.63748" lon="5.02126">
        <ele>198</ele>
        <time>2020-06-30T09:23:46Z</time>
      </trkpt>
      <trkpt lat="48.63751" lon="5.02128">
        <ele>198.1</ele>
        <time>2020-06-30T09:23:47Z</time>
      </trkpt>
      <trkpt lat="48.63754" lon="5.0213">
        <ele>198.3</ele>
        <time>2020-06-30T09:23:48Z</time>
      </trkpt>
      <trkpt lat="48.63757" lon="5.02133">
        <ele>198.5</ele>
        <time>2020-06-30T09:23:49Z</time>
      </trkpt>
      <trkpt lat="48.63762" lon="5.02137">
        <ele>198.7</ele>
        <time>2020-06-30T09:23:50Z</time>
      </trkpt>
      <trkpt lat="48.63765" lon="5.0214">
        <ele>198.9</ele>
        <time>2020-06-30T09:23:51Z</time>
      </trkpt>
      <trkpt lat="48.63769" lon="5.02144">
        <ele>199</ele>
        <time>2020-06-30T09:23:52Z</time>
      </trkpt>
      <trkpt lat="48.63772" lon="5.02146">
        <ele>199.7</ele>
        <time>2020-06-30T09:23:53Z</time>
      </trkpt>
      <trkpt lat="48.63775" lon="5.0215">
        <ele>200.2</ele>
        <time>2020-06-30T09:23:54Z</time>
      </trkpt>
      <trkpt lat="48.63779" lon="5.02154">
        <ele>200.7</ele>
        <time>2020-06-30T09:23:55Z</time>
      </trkpt>
      <trkpt lat="48.63781" lon="5.02158">
        <ele>201.1</ele>
        <time>2020-06-30T09:23:56Z</time>
      </trkpt>
      <trkpt lat="48.63784" lon="5.02162">
        <ele>201.5</ele>
        <time>2020-06-30T09:23:57Z</time>
      </trkpt>
      <trkpt lat="48.63786" lon="5.02165">
        <ele>201.8</ele>
        <time>2020-06-30T09:23:58Z</time>
      </trkpt>
      <trkpt lat="48.63789" lon="5.02168">
        <ele>202.5</ele>
        <time>2020-06-30T09:23:59Z</time>
      </trkpt>
      <trkpt lat="48.63791" lon="5.02169">
        <ele>202.5</ele>
        <time>2020-06-30T09:24:00Z</time>
      </trkpt>
      <trkpt lat="48.63793" lon="5.02173">
        <ele>202.5</ele>
        <time>2020-06-30T09:24:01Z</time>
      </trkpt>
      <trkpt lat="48.63794" lon="5.02175">
        <ele>202.5</ele>
        <time>2020-06-30T09:24:02Z</time>
      </trkpt>
      <trkpt lat="48.63797" lon="5.02178">
        <ele>202.5</ele>
        <time>2020-06-30T09:24:03Z</time>
      </trkpt>
      <trkpt lat="48.63798" lon="5.02179">
        <ele>202.5</ele>
        <time>2020-06-30T09:24:04Z</time>
      </trkpt>
      <trkpt lat="48.63801" lon="5.02182">
        <ele>202.5</ele>
        <time>2020-06-30T09:24:05Z</time>
      </trkpt>
      <trkpt lat="48.63802" lon="5.02183">
        <ele>202.5</ele>
        <time>2020-06-30T09:24:06Z</time>
      </trkpt>
      <trkpt lat="48.63803" lon="5.0218">
        <ele>202.5</ele>
        <time>2020-06-30T09:24:07Z</time>
      </trkpt>
      <trkpt lat="48.63804" lon="5.02179">
        <ele>202.5</ele>
        <time>2020-06-30T09:24:08Z</time>
      </trkpt>
      <trkpt lat="48.63804" lon="5.02174">
        <ele>202.5</ele>
        <time>2020-06-30T09:24:09Z</time>
      </trkpt>
      <trkpt lat="48.63806" lon="5.02168">
        <ele>202.5</ele>
        <time>2020-06-30T09:24:10Z</time>
      </trkpt>
      <trkpt lat="48.63807" lon="5.02161">
        <ele>202.2</ele>
        <time>2020-06-30T09:24:11Z</time>
      </trkpt>
      <trkpt lat="48.63807" lon="5.02156">
        <ele>202</ele>
        <time>2020-06-30T09:24:12Z</time>
      </trkpt>
      <trkpt lat="48.63806" lon="5.0215">
        <ele>201.8</ele>
        <time>2020-06-30T09:24:13Z</time>
      </trkpt>
      <trkpt lat="48.63805" lon="5.02144">
        <ele>201.5</ele>
        <time>2020-06-30T09:24:14Z</time>
      </trkpt>
      <trkpt lat="48.63805" lon="5.02138">
        <ele>200.9</ele>
        <time>2020-06-30T09:24:15Z</time>
      </trkpt>
      <trkpt lat="48.63805" lon="5.02129">
        <ele>200.8</ele>
        <time>2020-06-30T09:24:16Z</time>
      </trkpt>
      <trkpt lat="48.63804" lon="5.02121">
        <ele>200.7</ele>
        <time>2020-06-30T09:24:17Z</time>
      </trkpt>
      <trkpt lat="48.63803" lon="5.0211">
        <ele>200.6</ele>
        <time>2020-06-30T09:24:18Z</time>
      </trkpt>
      <trkpt lat="48.63802" lon="5.02105">
        <ele>200.5</ele>
        <time>2020-06-30T09:24:19Z</time>
      </trkpt>
      <trkpt lat="48.63801" lon="5.02096">
        <ele>200.3</ele>
        <time>2020-06-30T09:24:20Z</time>
      </trkpt>
      <trkpt lat="48.63801" lon="5.02086">
        <ele>200.2</ele>
        <time>2020-06-30T09:24:21Z</time>
      </trkpt>
      <trkpt lat="48.63802" lon="5.02078">
        <ele>200</ele>
        <time>2020-06-30T09:24:22Z</time>
      </trkpt>
      <trkpt lat="48.63802" lon="5.0207">
        <ele>199.9</ele>
        <time>2020-06-30T09:24:23Z</time>
      </trkpt>
      <trkpt lat="48.63803" lon="5.02063">
        <ele>199.7</ele>
        <time>2020-06-30T09:24:24Z</time>
      </trkpt>
      <trkpt lat="48.63803" lon="5.02055">
        <ele>199.6</ele>
        <time>2020-06-30T09:24:25Z</time>
      </trkpt>
      <trkpt lat="48.63803" lon="5.02045">
        <ele>199.4</ele>
        <time>2020-06-30T09:24:26Z</time>
      </trkpt>
      <trkpt lat="48.63803" lon="5.02037">
        <ele>199.3</ele>
        <time>2020-06-30T09:24:27Z</time>
      </trkpt>
      <trkpt lat="48.63803" lon="5.02028">
        <ele>199.2</ele>
        <time>2020-06-30T09:24:28Z</time>
      </trkpt>
      <trkpt lat="48.63803" lon="5.02021">
        <ele>199.2</ele>
        <time>2020-06-30T09:24:29Z</time>
      </trkpt>
      <trkpt lat="48.63804" lon="5.02015">
        <ele>199.1</ele>
        <time>2020-06-30T09:24:30Z</time>
      </trkpt>
      <trkpt lat="48.63804" lon="5.02008">
        <ele>199</ele>
        <time>2020-06-30T09:24:31Z</time>
      </trkpt>
      <trkpt lat="48.63804" lon="5.01998">
        <ele>198.9</ele>
        <time>2020-06-30T09:24:32Z</time>
      </trkpt>
      <trkpt lat="48.63803" lon="5.01989">
        <ele>198.8</ele>
        <time>2020-06-30T09:24:33Z</time>
      </trkpt>
      <trkpt lat="48.63803" lon="5.01981">
        <ele>198.7</ele>
        <time>2020-06-30T09:24:34Z</time>
      </trkpt>
      <trkpt lat="48.63803" lon="5.01973">
        <ele>198.6</ele>
        <time>2020-06-30T09:24:35Z</time>
      </trkpt>
      <trkpt lat="48.63804" lon="5.01965">
        <ele>198.4</ele>
        <time>2020-06-30T09:24:36Z</time>
      </trkpt>
      <trkpt lat="48.63804" lon="5.01958">
        <ele>198.3</ele>
        <time>2020-06-30T09:24:37Z</time>
      </trkpt>
      <trkpt lat="48.63804" lon="5.0195">
        <ele>198.2</ele>
        <time>2020-06-30T09:24:38Z</time>
      </trkpt>
      <trkpt lat="48.63804" lon="5.01941">
        <ele>198.1</ele>
        <time>2020-06-30T09:24:39Z</time>
      </trkpt>
      <trkpt lat="48.63804" lon="5.01932">
        <ele>198</ele>
        <time>2020-06-30T09:24:40Z</time>
      </trkpt>
      <trkpt lat="48.63804" lon="5.01924">
        <ele>197.9</ele>
        <time>2020-06-30T09:24:41Z</time>
      </trkpt>
      <trkpt lat="48.63803" lon="5.01918">
        <ele>197.8</ele>
        <time>2020-06-30T09:24:42Z</time>
      </trkpt>
      <trkpt lat="48.63803" lon="5.01909">
        <ele>197.7</ele>
        <time>2020-06-30T09:24:43Z</time>
      </trkpt>
      <trkpt lat="48.63804" lon="5.019">
        <ele>197.5</ele>
        <time>2020-06-30T09:24:44Z</time>
      </trkpt>
      <trkpt lat="48.63803" lon="5.01893">
        <ele>197.4</ele>
        <time>2020-06-30T09:24:45Z</time>
      </trkpt>
      <trkpt lat="48.63803" lon="5.01884">
        <ele>197.3</ele>
        <time>2020-06-30T09:24:46Z</time>
      </trkpt>
      <trkpt lat="48.63802" lon="5.01875">
        <ele>197.2</ele>
        <time>2020-06-30T09:24:47Z</time>
      </trkpt>
      <trkpt lat="48.63801" lon="5.01865">
        <ele>197</ele>
        <time>2020-06-30T09:24:48Z</time>
      </trkpt>
      <trkpt lat="48.638" lon="5.01855">
        <ele>196.8</ele>
        <time>2020-06-30T09:24:49Z</time>
      </trkpt>
      <trkpt lat="48.638" lon="5.01845">
        <ele>196.6</ele>
        <time>2020-06-30T09:24:50Z</time>
      </trkpt>
      <trkpt lat="48.63799" lon="5.01837">
        <ele>196.5</ele>
        <time>2020-06-30T09:24:51Z</time>
      </trkpt>
      <trkpt lat="48.63799" lon="5.01827">
        <ele>196.3</ele>
        <time>2020-06-30T09:24:52Z</time>
      </trkpt>
      <trkpt lat="48.63799" lon="5.01819">
        <ele>196.2</ele>
        <time>2020-06-30T09:24:53Z</time>
      </trkpt>
      <trkpt lat="48.63798" lon="5.0181">
        <ele>196.1</ele>
        <time>2020-06-30T09:24:54Z</time>
      </trkpt>
      <trkpt lat="48.63797" lon="5.01801">
        <ele>195.9</ele>
        <time>2020-06-30T09:24:55Z</time>
      </trkpt>
      <trkpt lat="48.63796" lon="5.01793">
        <ele>195.8</ele>
        <time>2020-06-30T09:24:56Z</time>
      </trkpt>
      <trkpt lat="48.63795" lon="5.01783">
        <ele>195.7</ele>
        <time>2020-06-30T09:24:57Z</time>
      </trkpt>
      <trkpt lat="48.63795" lon="5.01775">
        <ele>195.6</ele>
        <time>2020-06-30T09:24:58Z</time>
      </trkpt>
      <trkpt lat="48.63795" lon="5.01766">
        <ele>195.4</ele>
        <time>2020-06-30T09:24:59Z</time>
      </trkpt>
      <trkpt lat="48.63795" lon="5.01757">
        <ele>195.3</ele>
        <time>2020-06-30T09:25:00Z</time>
      </trkpt>
      <trkpt lat="48.63794" lon="5.01748">
        <ele>195.2</ele>
        <time>2020-06-30T09:25:01Z</time>
      </trkpt>
      <trkpt lat="48.63793" lon="5.0174">
        <ele>195.1</ele>
        <time>2020-06-30T09:25:02Z</time>
      </trkpt>
      <trkpt lat="48.63793" lon="5.01732">
        <ele>195</ele>
        <time>2020-06-30T09:25:03Z</time>
      </trkpt>
      <trkpt lat="48.63793" lon="5.01723">
        <ele>194.8</ele>
        <time>2020-06-30T09:25:04Z</time>
      </trkpt>
      <trkpt lat="48.63793" lon="5.01714">
        <ele>194.7</ele>
        <time>2020-06-30T09:25:05Z</time>
      </trkpt>
      <trkpt lat="48.63793" lon="5.01705">
        <ele>194.6</ele>
        <time>2020-06-30T09:25:06Z</time>
      </trkpt>
      <trkpt lat="48.63792" lon="5.01694">
        <ele>194.4</ele>
        <time>2020-06-30T09:25:07Z</time>
      </trkpt>
      <trkpt lat="48.63792" lon="5.01686">
        <ele>194.3</ele>
        <time>2020-06-30T09:25:08Z</time>
      </trkpt>
      <trkpt lat="48.63792" lon="5.01677">
        <ele>194.2</ele>
        <time>2020-06-30T09:25:09Z</time>
      </trkpt>
      <trkpt lat="48.63791" lon="5.01668">
        <ele>194</ele>
        <time>2020-06-30T09:25:10Z</time>
      </trkpt>
      <trkpt lat="48.6379" lon="5.01659">
        <ele>193.9</ele>
        <time>2020-06-30T09:25:11Z</time>
      </trkpt>
      <trkpt lat="48.63791" lon="5.0165">
        <ele>193.8</ele>
        <time>2020-06-30T09:25:12Z</time>
      </trkpt>
      <trkpt lat="48.63791" lon="5.0164">
        <ele>193.6</ele>
        <time>2020-06-30T09:25:13Z</time>
      </trkpt>
      <trkpt lat="48.63791" lon="5.01631">
        <ele>193.5</ele>
        <time>2020-06-30T09:25:14Z</time>
      </trkpt>
      <trkpt lat="48.63791" lon="5.01621">
        <ele>193.5</ele>
        <time>2020-06-30T09:25:15Z</time>
      </trkpt>
      <trkpt lat="48.6379" lon="5.01612">
        <ele>193.4</ele>
        <time>2020-06-30T09:25:16Z</time>
      </trkpt>
      <trkpt lat="48.63789" lon="5.01604">
        <ele>193.4</ele>
        <time>2020-06-30T09:25:17Z</time>
      </trkpt>
      <trkpt lat="48.63789" lon="5.01595">
        <ele>193.4</ele>
        <time>2020-06-30T09:25:18Z</time>
      </trkpt>
      <trkpt lat="48.63789" lon="5.01585">
        <ele>193.2</ele>
        <time>2020-06-30T09:25:19Z</time>
      </trkpt>
      <trkpt lat="48.63789" lon="5.01576">
        <ele>193.1</ele>
        <time>2020-06-30T09:25:20Z</time>
      </trkpt>
      <trkpt lat="48.63789" lon="5.01567">
        <ele>193</ele>
        <time>2020-06-30T09:25:21Z</time>
      </trkpt>
      <trkpt lat="48.63789" lon="5.01558">
        <ele>192.8</ele>
        <time>2020-06-30T09:25:22Z</time>
      </trkpt>
      <trkpt lat="48.63789" lon="5.0155">
        <ele>192.7</ele>
        <time>2020-06-30T09:25:23Z</time>
      </trkpt>
      <trkpt lat="48.63789" lon="5.0154">
        <ele>192.6</ele>
        <time>2020-06-30T09:25:24Z</time>
      </trkpt>
      <trkpt lat="48.63788" lon="5.01529">
        <ele>192.4</ele>
        <time>2020-06-30T09:25:25Z</time>
      </trkpt>
      <trkpt lat="48.63788" lon="5.01522">
        <ele>192.3</ele>
        <time>2020-06-30T09:25:26Z</time>
      </trkpt>
      <trkpt lat="48.63787" lon="5.01514">
        <ele>192</ele>
        <time>2020-06-30T09:25:27Z</time>
      </trkpt>
      <trkpt lat="48.63787" lon="5.01503">
        <ele>191.8</ele>
        <time>2020-06-30T09:25:28Z</time>
      </trkpt>
      <trkpt lat="48.63787" lon="5.01493">
        <ele>191.6</ele>
        <time>2020-06-30T09:25:29Z</time>
      </trkpt>
      <trkpt lat="48.63787" lon="5.01482">
        <ele>191.4</ele>
        <time>2020-06-30T09:25:30Z</time>
      </trkpt>
      <trkpt lat="48.63787" lon="5.01472">
        <ele>191.1</ele>
        <time>2020-06-30T09:25:31Z</time>
      </trkpt>
      <trkpt lat="48.63786" lon="5.01463">
        <ele>191</ele>
        <time>2020-06-30T09:25:32Z</time>
      </trkpt>
      <trkpt lat="48.63786" lon="5.01454">
        <ele>190.8</ele>
        <time>2020-06-30T09:25:33Z</time>
      </trkpt>
      <trkpt lat="48.63786" lon="5.01445">
        <ele>190.7</ele>
        <time>2020-06-30T09:25:34Z</time>
      </trkpt>
      <trkpt lat="48.63785" lon="5.01436">
        <ele>190.6</ele>
        <time>2020-06-30T09:25:35Z</time>
      </trkpt>
      <trkpt lat="48.63785" lon="5.01427">
        <ele>190.4</ele>
        <time>2020-06-30T09:25:36Z</time>
      </trkpt>
      <trkpt lat="48.63783" lon="5.01419">
        <ele>190.3</ele>
        <time>2020-06-30T09:25:37Z</time>
      </trkpt>
      <trkpt lat="48.63784" lon="5.01411">
        <ele>190.2</ele>
        <time>2020-06-30T09:25:38Z</time>
      </trkpt>
      <trkpt lat="48.63784" lon="5.01402">
        <ele>190.1</ele>
        <time>2020-06-30T09:25:39Z</time>
      </trkpt>
      <trkpt lat="48.63783" lon="5.01394">
        <ele>190</ele>
        <time>2020-06-30T09:25:40Z</time>
      </trkpt>
      <trkpt lat="48.63783" lon="5.01386">
        <ele>189.9</ele>
        <time>2020-06-30T09:25:41Z</time>
      </trkpt>
      <trkpt lat="48.63783" lon="5.01377">
        <ele>189.8</ele>
        <time>2020-06-30T09:25:42Z</time>
      </trkpt>
      <trkpt lat="48.63783" lon="5.01369">
        <ele>189.6</ele>
        <time>2020-06-30T09:25:43Z</time>
      </trkpt>
      <trkpt lat="48.63783" lon="5.01361">
        <ele>189.5</ele>
        <time>2020-06-30T09:25:44Z</time>
      </trkpt>
      <trkpt lat="48.63784" lon="5.01355">
        <ele>189.4</ele>
        <time>2020-06-30T09:25:45Z</time>
      </trkpt>
      <trkpt lat="48.63784" lon="5.01351">
        <ele>189.3</ele>
        <time>2020-06-30T09:25:46Z</time>
      </trkpt>
      <trkpt lat="48.63785" lon="5.01346">
        <ele>189.3</ele>
        <time>2020-06-30T09:25:47Z</time>
      </trkpt>
      <trkpt lat="48.63786" lon="5.01345">
        <ele>189.5</ele>
        <time>2020-06-30T09:25:48Z</time>
      </trkpt>
      <trkpt lat="48.63789" lon="5.01341">
        <ele>190</ele>
        <time>2020-06-30T09:25:49Z</time>
      </trkpt>
      <trkpt lat="48.63791" lon="5.01337">
        <ele>190.5</ele>
        <time>2020-06-30T09:25:50Z</time>
      </trkpt>
      <trkpt lat="48.63793" lon="5.01334">
        <ele>190.2</ele>
        <time>2020-06-30T09:25:51Z</time>
      </trkpt>
      <trkpt lat="48.63796" lon="5.01331">
        <ele>190.1</ele>
        <time>2020-06-30T09:25:52Z</time>
      </trkpt>
      <trkpt lat="48.63798" lon="5.01328">
        <ele>190</ele>
        <time>2020-06-30T09:25:53Z</time>
      </trkpt>
      <trkpt lat="48.638" lon="5.01321">
        <ele>189.7</ele>
        <time>2020-06-30T09:25:54Z</time>
      </trkpt>
      <trkpt lat="48.638" lon="5.01314">
        <ele>189.5</ele>
        <time>2020-06-30T09:25:55Z</time>
      </trkpt>
      <trkpt lat="48.638" lon="5.01308">
        <ele>189.3</ele>
        <time>2020-06-30T09:25:56Z</time>
      </trkpt>
      <trkpt lat="48.638" lon="5.01303">
        <ele>189.2</ele>
        <time>2020-06-30T09:25:57Z</time>
      </trkpt>
      <trkpt lat="48.63799" lon="5.01296">
        <ele>189</ele>
        <time>2020-06-30T09:25:58Z</time>
      </trkpt>
      <trkpt lat="48.63798" lon="5.01291">
        <ele>188.8</ele>
        <time>2020-06-30T09:25:59Z</time>
      </trkpt>
      <trkpt lat="48.63794" lon="5.01285">
        <ele>188.6</ele>
        <time>2020-06-30T09:26:00Z</time>
      </trkpt>
      <trkpt lat="48.6379" lon="5.0128">
        <ele>188.3</ele>
        <time>2020-06-30T09:26:01Z</time>
      </trkpt>
      <trkpt lat="48.63786" lon="5.01275">
        <ele>188</ele>
        <time>2020-06-30T09:26:02Z</time>
      </trkpt>
      <trkpt lat="48.63783" lon="5.01269">
        <ele>187.6</ele>
        <time>2020-06-30T09:26:03Z</time>
      </trkpt>
      <trkpt lat="48.63782" lon="5.01263">
        <ele>187.4</ele>
        <time>2020-06-30T09:26:04Z</time>
      </trkpt>
      <trkpt lat="48.6378" lon="5.01257">
        <ele>187.2</ele>
        <time>2020-06-30T09:26:05Z</time>
      </trkpt>
      <trkpt lat="48.63779" lon="5.0125">
        <ele>187.1</ele>
        <time>2020-06-30T09:26:06Z</time>
      </trkpt>
      <trkpt lat="48.63777" lon="5.01244">
        <ele>187</ele>
        <time>2020-06-30T09:26:07Z</time>
      </trkpt>
      <trkpt lat="48.63778" lon="5.01235">
        <ele>186.8</ele>
        <time>2020-06-30T09:26:08Z</time>
      </trkpt>
      <trkpt lat="48.63778" lon="5.01226">
        <ele>186.7</ele>
        <time>2020-06-30T09:26:09Z</time>
      </trkpt>
      <trkpt lat="48.63778" lon="5.01215">
        <ele>186.5</ele>
        <time>2020-06-30T09:26:10Z</time>
      </trkpt>
      <trkpt lat="48.63777" lon="5.01206">
        <ele>186.3</ele>
        <time>2020-06-30T09:26:11Z</time>
      </trkpt>
      <trkpt lat="48.63776" lon="5.01196">
        <ele>186.1</ele>
        <time>2020-06-30T09:26:12Z</time>
      </trkpt>
      <trkpt lat="48.63775" lon="5.01187">
        <ele>185.9</ele>
        <time>2020-06-30T09:26:13Z</time>
      </trkpt>
      <trkpt lat="48.63774" lon="5.01177">
        <ele>185.6</ele>
        <time>2020-06-30T09:26:14Z</time>
      </trkpt>
      <trkpt lat="48.63774" lon="5.01168">
        <ele>185.4</ele>
        <time>2020-06-30T09:26:15Z</time>
      </trkpt>
      <trkpt lat="48.63773" lon="5.01157">
        <ele>185.1</ele>
        <time>2020-06-30T09:26:16Z</time>
      </trkpt>
      <trkpt lat="48.63774" lon="5.01147">
        <ele>184.9</ele>
        <time>2020-06-30T09:26:17Z</time>
      </trkpt>
      <trkpt lat="48.63774" lon="5.01137">
        <ele>184.7</ele>
        <time>2020-06-30T09:26:18Z</time>
      </trkpt>
      <trkpt lat="48.63773" lon="5.01126">
        <ele>184.4</ele>
        <time>2020-06-30T09:26:19Z</time>
      </trkpt>
      <trkpt lat="48.63772" lon="5.01115">
        <ele>184.2</ele>
        <time>2020-06-30T09:26:20Z</time>
      </trkpt>
      <trkpt lat="48.63772" lon="5.01105">
        <ele>184</ele>
        <time>2020-06-30T09:26:21Z</time>
      </trkpt>
      <trkpt lat="48.63771" lon="5.01096">
        <ele>183.9</ele>
        <time>2020-06-30T09:26:22Z</time>
      </trkpt>
      <trkpt lat="48.63771" lon="5.01087">
        <ele>183.7</ele>
        <time>2020-06-30T09:26:23Z</time>
      </trkpt>
      <trkpt lat="48.63772" lon="5.01077">
        <ele>183.6</ele>
        <time>2020-06-30T09:26:24Z</time>
      </trkpt>
      <trkpt lat="48.63772" lon="5.01067">
        <ele>183.4</ele>
        <time>2020-06-30T09:26:25Z</time>
      </trkpt>
      <trkpt lat="48.63772" lon="5.01057">
        <ele>183.2</ele>
        <time>2020-06-30T09:26:26Z</time>
      </trkpt>
      <trkpt lat="48.63771" lon="5.01047">
        <ele>183</ele>
        <time>2020-06-30T09:26:27Z</time>
      </trkpt>
      <trkpt lat="48.63771" lon="5.01037">
        <ele>182.8</ele>
        <time>2020-06-30T09:26:28Z</time>
      </trkpt>
      <trkpt lat="48.63771" lon="5.01027">
        <ele>182.7</ele>
        <time>2020-06-30T09:26:29Z</time>
      </trkpt>
      <trkpt lat="48.6377" lon="5.01016">
        <ele>182.5</ele>
        <time>2020-06-30T09:26:30Z</time>
      </trkpt>
      <trkpt lat="48.63769" lon="5.01006">
        <ele>182.4</ele>
        <time>2020-06-30T09:26:31Z</time>
      </trkpt>
      <trkpt lat="48.63768" lon="5.00997">
        <ele>182.2</ele>
        <time>2020-06-30T09:26:32Z</time>
      </trkpt>
      <trkpt lat="48.63768" lon="5.00987">
        <ele>182</ele>
        <time>2020-06-30T09:26:33Z</time>
      </trkpt>
      <trkpt lat="48.63769" lon="5.00977">
        <ele>181.9</ele>
        <time>2020-06-30T09:26:34Z</time>
      </trkpt>
      <trkpt lat="48.6377" lon="5.00968">
        <ele>181.8</ele>
        <time>2020-06-30T09:26:35Z</time>
      </trkpt>
      <trkpt lat="48.63772" lon="5.00959">
        <ele>181.8</ele>
        <time>2020-06-30T09:26:36Z</time>
      </trkpt>
      <trkpt lat="48.63774" lon="5.0095">
        <ele>181.7</ele>
        <time>2020-06-30T09:26:37Z</time>
      </trkpt>
      <trkpt lat="48.63776" lon="5.00942">
        <ele>181.8</ele>
        <time>2020-06-30T09:26:38Z</time>
      </trkpt>
      <trkpt lat="48.6378" lon="5.00934">
        <ele>181.8</ele>
        <time>2020-06-30T09:26:39Z</time>
      </trkpt>
      <trkpt lat="48.63784" lon="5.00927">
        <ele>181.9</ele>
        <time>2020-06-30T09:26:40Z</time>
      </trkpt>
      <trkpt lat="48.63786" lon="5.00919">
        <ele>182</ele>
        <time>2020-06-30T09:26:41Z</time>
      </trkpt>
      <trkpt lat="48.63787" lon="5.00911">
        <ele>182</ele>
        <time>2020-06-30T09:26:42Z</time>
      </trkpt>
      <trkpt lat="48.63786" lon="5.00903">
        <ele>182.1</ele>
        <time>2020-06-30T09:26:43Z</time>
      </trkpt>
      <trkpt lat="48.63786" lon="5.00894">
        <ele>182.2</ele>
        <time>2020-06-30T09:26:44Z</time>
      </trkpt>
      <trkpt lat="48.63783" lon="5.00887">
        <ele>182.3</ele>
        <time>2020-06-30T09:26:45Z</time>
      </trkpt>
      <trkpt lat="48.6378" lon="5.00881">
        <ele>182.2</ele>
        <time>2020-06-30T09:26:46Z</time>
      </trkpt>
      <trkpt lat="48.63776" lon="5.00875">
        <ele>182.2</ele>
        <time>2020-06-30T09:26:47Z</time>
      </trkpt>
      <trkpt lat="48.63773" lon="5.00868">
        <ele>182</ele>
        <time>2020-06-30T09:26:48Z</time>
      </trkpt>
      <trkpt lat="48.6377" lon="5.0086">
        <ele>181.9</ele>
        <time>2020-06-30T09:26:49Z</time>
      </trkpt>
      <trkpt lat="48.63768" lon="5.00853">
        <ele>181.7</ele>
        <time>2020-06-30T09:26:50Z</time>
      </trkpt>
      <trkpt lat="48.63767" lon="5.00844">
        <ele>181.5</ele>
        <time>2020-06-30T09:26:51Z</time>
      </trkpt>
      <trkpt lat="48.63766" lon="5.00836">
        <ele>181.3</ele>
        <time>2020-06-30T09:26:52Z</time>
      </trkpt>
      <trkpt lat="48.63767" lon="5.00827">
        <ele>181.2</ele>
        <time>2020-06-30T09:26:53Z</time>
      </trkpt>
      <trkpt lat="48.63767" lon="5.00819">
        <ele>181.1</ele>
        <time>2020-06-30T09:26:54Z</time>
      </trkpt>
      <trkpt lat="48.63766" lon="5.00811">
        <ele>181.1</ele>
        <time>2020-06-30T09:26:55Z</time>
      </trkpt>
      <trkpt lat="48.63765" lon="5.00802">
        <ele>181</ele>
        <time>2020-06-30T09:26:56Z</time>
      </trkpt>
      <trkpt lat="48.63765" lon="5.00794">
        <ele>181</ele>
        <time>2020-06-30T09:26:57Z</time>
      </trkpt>
      <trkpt lat="48.63764" lon="5.00786">
        <ele>181</ele>
        <time>2020-06-30T09:26:58Z</time>
      </trkpt>
      <trkpt lat="48.63764" lon="5.00778">
        <ele>180.9</ele>
        <time>2020-06-30T09:26:59Z</time>
      </trkpt>
      <trkpt lat="48.63764" lon="5.0077">
        <ele>180.8</ele>
        <time>2020-06-30T09:27:00Z</time>
      </trkpt>
      <trkpt lat="48.63764" lon="5.00762">
        <ele>180.8</ele>
        <time>2020-06-30T09:27:01Z</time>
      </trkpt>
      <trkpt lat="48.63764" lon="5.00754">
        <ele>180.7</ele>
        <time>2020-06-30T09:27:02Z</time>
      </trkpt>
      <trkpt lat="48.63763" lon="5.00746">
        <ele>180.7</ele>
        <time>2020-06-30T09:27:03Z</time>
      </trkpt>
      <trkpt lat="48.63762" lon="5.00737">
        <ele>180.7</ele>
        <time>2020-06-30T09:27:04Z</time>
      </trkpt>
      <trkpt lat="48.63762" lon="5.00729">
        <ele>180.7</ele>
        <time>2020-06-30T09:27:05Z</time>
      </trkpt>
      <trkpt lat="48.63762" lon="5.00721">
        <ele>180.8</ele>
        <time>2020-06-30T09:27:06Z</time>
      </trkpt>
      <trkpt lat="48.63761" lon="5.00713">
        <ele>180.8</ele>
        <time>2020-06-30T09:27:07Z</time>
      </trkpt>
      <trkpt lat="48.6376" lon="5.00705">
        <ele>180.9</ele>
        <time>2020-06-30T09:27:08Z</time>
      </trkpt>
      <trkpt lat="48.63761" lon="5.00697">
        <ele>181</ele>
        <time>2020-06-30T09:27:09Z</time>
      </trkpt>
      <trkpt lat="48.6376" lon="5.00689">
        <ele>181</ele>
        <time>2020-06-30T09:27:10Z</time>
      </trkpt>
      <trkpt lat="48.6376" lon="5.00681">
        <ele>181.1</ele>
        <time>2020-06-30T09:27:11Z</time>
      </trkpt>
      <trkpt lat="48.6376" lon="5.00673">
        <ele>181.2</ele>
        <time>2020-06-30T09:27:12Z</time>
      </trkpt>
      <trkpt lat="48.63759" lon="5.00666">
        <ele>181.3</ele>
        <time>2020-06-30T09:27:13Z</time>
      </trkpt>
      <trkpt lat="48.63759" lon="5.00658">
        <ele>181.4</ele>
        <time>2020-06-30T09:27:14Z</time>
      </trkpt>
      <trkpt lat="48.63759" lon="5.00651">
        <ele>181.5</ele>
        <time>2020-06-30T09:27:15Z</time>
      </trkpt>
      <trkpt lat="48.63758" lon="5.00643">
        <ele>181.6</ele>
        <time>2020-06-30T09:27:16Z</time>
      </trkpt>
      <trkpt lat="48.63758" lon="5.00636">
        <ele>181.6</ele>
        <time>2020-06-30T09:27:17Z</time>
      </trkpt>
      <trkpt lat="48.63758" lon="5.00628">
        <ele>181.7</ele>
        <time>2020-06-30T09:27:18Z</time>
      </trkpt>
      <trkpt lat="48.63757" lon="5.00621">
        <ele>181.7</ele>
        <time>2020-06-30T09:27:19Z</time>
      </trkpt>
      <trkpt lat="48.63757" lon="5.00614">
        <ele>181.8</ele>
        <time>2020-06-30T09:27:20Z</time>
      </trkpt>
      <trkpt lat="48.63756" lon="5.00607">
        <ele>181.9</ele>
        <time>2020-06-30T09:27:21Z</time>
      </trkpt>
      <trkpt lat="48.63755" lon="5.00601">
        <ele>182</ele>
        <time>2020-06-30T09:27:22Z</time>
      </trkpt>
      <trkpt lat="48.63754" lon="5.00594">
        <ele>182.1</ele>
        <time>2020-06-30T09:27:23Z</time>
      </trkpt>
      <trkpt lat="48.63754" lon="5.00587">
        <ele>182.2</ele>
        <time>2020-06-30T09:27:24Z</time>
      </trkpt>
      <trkpt lat="48.63754" lon="5.00579">
        <ele>182.4</ele>
        <time>2020-06-30T09:27:25Z</time>
      </trkpt>
      <trkpt lat="48.63755" lon="5.00573">
        <ele>182.5</ele>
        <time>2020-06-30T09:27:26Z</time>
      </trkpt>
      <trkpt lat="48.63755" lon="5.00567">
        <ele>182.6</ele>
        <time>2020-06-30T09:27:27Z</time>
      </trkpt>
      <trkpt lat="48.63755" lon="5.00561">
        <ele>182.7</ele>
        <time>2020-06-30T09:27:28Z</time>
      </trkpt>
      <trkpt lat="48.63755" lon="5.00555">
        <ele>182.8</ele>
        <time>2020-06-30T09:27:29Z</time>
      </trkpt>
      <trkpt lat="48.63755" lon="5.0055">
        <ele>182.9</ele>
        <time>2020-06-30T09:27:30Z</time>
      </trkpt>
      <trkpt lat="48.63756" lon="5.00545">
        <ele>183</ele>
        <time>2020-06-30T09:27:31Z</time>
      </trkpt>
      <trkpt lat="48.63756" lon="5.0054">
        <ele>183.1</ele>
        <time>2020-06-30T09:27:32Z</time>
      </trkpt>
      <trkpt lat="48.63755" lon="5.00535">
        <ele>183.2</ele>
        <time>2020-06-30T09:27:33Z</time>
      </trkpt>
      <trkpt lat="48.63754" lon="5.00528">
        <ele>183.4</ele>
        <time>2020-06-30T09:27:34Z</time>
      </trkpt>
      <trkpt lat="48.63754" lon="5.00522">
        <ele>183.5</ele>
        <time>2020-06-30T09:27:35Z</time>
      </trkpt>
      <trkpt lat="48.63754" lon="5.00517">
        <ele>183.7</ele>
        <time>2020-06-30T09:27:36Z</time>
      </trkpt>
      <trkpt lat="48.63754" lon="5.00509">
        <ele>183.9</ele>
        <time>2020-06-30T09:27:37Z</time>
      </trkpt>
      <trkpt lat="48.63755" lon="5.00502">
        <ele>184.1</ele>
        <time>2020-06-30T09:27:38Z</time>
      </trkpt>
      <trkpt lat="48.63755" lon="5.00495">
        <ele>184.2</ele>
        <time>2020-06-30T09:27:39Z</time>
      </trkpt>
      <trkpt lat="48.63754" lon="5.00489">
        <ele>184.4</ele>
        <time>2020-06-30T09:27:40Z</time>
      </trkpt>
      <trkpt lat="48.63754" lon="5.00483">
        <ele>184.8</ele>
        <time>2020-06-30T09:27:41Z</time>
      </trkpt>
      <trkpt lat="48.63754" lon="5.00477">
        <ele>184.9</ele>
        <time>2020-06-30T09:27:42Z</time>
      </trkpt>
      <trkpt lat="48.63754" lon="5.00475">
        <ele>185</ele>
        <time>2020-06-30T09:27:43Z</time>
      </trkpt>
      <trkpt lat="48.63754" lon="5.0047">
        <ele>185.1</ele>
        <time>2020-06-30T09:27:44Z</time>
      </trkpt>
      <trkpt lat="48.63753" lon="5.00463">
        <ele>185.3</ele>
        <time>2020-06-30T09:27:45Z</time>
      </trkpt>
      <trkpt lat="48.63753" lon="5.0046">
        <ele>185.3</ele>
        <time>2020-06-30T09:27:46Z</time>
      </trkpt>
      <trkpt lat="48.63753" lon="5.00455">
        <ele>185.4</ele>
        <time>2020-06-30T09:27:47Z</time>
      </trkpt>
      <trkpt lat="48.63753" lon="5.00449">
        <ele>185.6</ele>
        <time>2020-06-30T09:27:48Z</time>
      </trkpt>
      <trkpt lat="48.63753" lon="5.00444">
        <ele>185.7</ele>
        <time>2020-06-30T09:27:49Z</time>
      </trkpt>
      <trkpt lat="48.63752" lon="5.00439">
        <ele>185.8</ele>
        <time>2020-06-30T09:27:50Z</time>
      </trkpt>
      <trkpt lat="48.63751" lon="5.00433">
        <ele>185.9</ele>
        <time>2020-06-30T09:27:51Z</time>
      </trkpt>
      <trkpt lat="48.63751" lon="5.00428">
        <ele>186</ele>
        <time>2020-06-30T09:27:52Z</time>
      </trkpt>
      <trkpt lat="48.6375" lon="5.00423">
        <ele>186.1</ele>
        <time>2020-06-30T09:27:53Z</time>
      </trkpt>
      <trkpt lat="48.63751" lon="5.00418">
        <ele>186.2</ele>
        <time>2020-06-30T09:27:54Z</time>
      </trkpt>
      <trkpt lat="48.63751" lon="5.00412">
        <ele>186.4</ele>
        <time>2020-06-30T09:27:55Z</time>
      </trkpt>
      <trkpt lat="48.63751" lon="5.00404">
        <ele>186.5</ele>
        <time>2020-06-30T09:27:56Z</time>
      </trkpt>
      <trkpt lat="48.63751" lon="5.00397">
        <ele>186.6</ele>
        <time>2020-06-30T09:27:57Z</time>
      </trkpt>
      <trkpt lat="48.6375" lon="5.00391">
        <ele>186.8</ele>
        <time>2020-06-30T09:27:58Z</time>
      </trkpt>
      <trkpt lat="48.6375" lon="5.00386">
        <ele>186.9</ele>
        <time>2020-06-30T09:27:59Z</time>
      </trkpt>
      <trkpt lat="48.63749" lon="5.00382">
        <ele>187</ele>
        <time>2020-06-30T09:28:00Z</time>
      </trkpt>
      <trkpt lat="48.63749" lon="5.00377">
        <ele>187.1</ele>
        <time>2020-06-30T09:28:01Z</time>
      </trkpt>
      <trkpt lat="48.63749" lon="5.00371">
        <ele>187.2</ele>
        <time>2020-06-30T09:28:02Z</time>
      </trkpt>
      <trkpt lat="48.63749" lon="5.00368">
        <ele>187.3</ele>
        <time>2020-06-30T09:28:03Z</time>
      </trkpt>
      <trkpt lat="48.63749" lon="5.00362">
        <ele>187.4</ele>
        <time>2020-06-30T09:28:04Z</time>
      </trkpt>
      <trkpt lat="48.6375" lon="5.00356">
        <ele>187.5</ele>
        <time>2020-06-30T09:28:05Z</time>
      </trkpt>
      <trkpt lat="48.6375" lon="5.00349">
        <ele>187.7</ele>
        <time>2020-06-30T09:28:06Z</time>
      </trkpt>
      <trkpt lat="48.63751" lon="5.00341">
        <ele>187.9</ele>
        <time>2020-06-30T09:28:07Z</time>
      </trkpt>
      <trkpt lat="48.63751" lon="5.00336">
        <ele>188</ele>
        <time>2020-06-30T09:28:08Z</time>
      </trkpt>
      <trkpt lat="48.63751" lon="5.00329">
        <ele>188.1</ele>
        <time>2020-06-30T09:28:09Z</time>
      </trkpt>
      <trkpt lat="48.63751" lon="5.00322">
        <ele>188.3</ele>
        <time>2020-06-30T09:28:10Z</time>
      </trkpt>
      <trkpt lat="48.63751" lon="5.00318">
        <ele>188.4</ele>
        <time>2020-06-30T09:28:11Z</time>
      </trkpt>
      <trkpt lat="48.63751" lon="5.00316">
        <ele>188.4</ele>
        <time>2020-06-30T09:28:12Z</time>
      </trkpt>
      <trkpt lat="48.63752" lon="5.00307">
        <ele>188.6</ele>
        <time>2020-06-30T09:28:13Z</time>
      </trkpt>
      <trkpt lat="48.63752" lon="5.003">
        <ele>188.8</ele>
        <time>2020-06-30T09:28:14Z</time>
      </trkpt>
      <trkpt lat="48.63751" lon="5.00294">
        <ele>189.1</ele>
        <time>2020-06-30T09:28:15Z</time>
      </trkpt>
      <trkpt lat="48.63751" lon="5.00289">
        <ele>189.2</ele>
        <time>2020-06-30T09:28:16Z</time>
      </trkpt>
      <trkpt lat="48.6375" lon="5.00283">
        <ele>189.4</ele>
        <time>2020-06-30T09:28:17Z</time>
      </trkpt>
      <trkpt lat="48.6375" lon="5.00277">
        <ele>189.5</ele>
        <time>2020-06-30T09:28:18Z</time>
      </trkpt>
      <trkpt lat="48.6375" lon="5.00272">
        <ele>189.6</ele>
        <time>2020-06-30T09:28:19Z</time>
      </trkpt>
      <trkpt lat="48.63749" lon="5.00264">
        <ele>189.7</ele>
        <time>2020-06-30T09:28:20Z</time>
      </trkpt>
      <trkpt lat="48.63749" lon="5.00257">
        <ele>189.9</ele>
        <time>2020-06-30T09:28:21Z</time>
      </trkpt>
      <trkpt lat="48.63748" lon="5.0025">
        <ele>190</ele>
        <time>2020-06-30T09:28:22Z</time>
      </trkpt>
      <trkpt lat="48.63748" lon="5.00244">
        <ele>190.1</ele>
        <time>2020-06-30T09:28:23Z</time>
      </trkpt>
      <trkpt lat="48.63747" lon="5.00239">
        <ele>190.2</ele>
        <time>2020-06-30T09:28:24Z</time>
      </trkpt>
      <trkpt lat="48.63747" lon="5.00235">
        <ele>190.3</ele>
        <time>2020-06-30T09:28:25Z</time>
      </trkpt>
      <trkpt lat="48.63747" lon="5.00228">
        <ele>190.4</ele>
        <time>2020-06-30T09:28:26Z</time>
      </trkpt>
      <trkpt lat="48.63746" lon="5.00222">
        <ele>190.6</ele>
        <time>2020-06-30T09:28:27Z</time>
      </trkpt>
      <trkpt lat="48.63746" lon="5.00215">
        <ele>190.7</ele>
        <time>2020-06-30T09:28:28Z</time>
      </trkpt>
      <trkpt lat="48.63746" lon="5.0021">
        <ele>190.8</ele>
        <time>2020-06-30T09:28:29Z</time>
      </trkpt>
      <trkpt lat="48.63746" lon="5.00202">
        <ele>190.9</ele>
        <time>2020-06-30T09:28:30Z</time>
      </trkpt>
      <trkpt lat="48.63746" lon="5.00197">
        <ele>191.1</ele>
        <time>2020-06-30T09:28:31Z</time>
      </trkpt>
      <trkpt lat="48.63745" lon="5.00192">
        <ele>191.2</ele>
        <time>2020-06-30T09:28:32Z</time>
      </trkpt>
      <trkpt lat="48.63745" lon="5.00186">
        <ele>191.4</ele>
        <time>2020-06-30T09:28:33Z</time>
      </trkpt>
      <trkpt lat="48.63746" lon="5.00181">
        <ele>191.5</ele>
        <time>2020-06-30T09:28:34Z</time>
      </trkpt>
      <trkpt lat="48.63746" lon="5.00179">
        <ele>191.6</ele>
        <time>2020-06-30T09:28:35Z</time>
      </trkpt>
      <trkpt lat="48.63745" lon="5.00171">
        <ele>191.9</ele>
        <time>2020-06-30T09:28:36Z</time>
      </trkpt>
      <trkpt lat="48.63744" lon="5.00167">
        <ele>192</ele>
        <time>2020-06-30T09:28:37Z</time>
      </trkpt>
      <trkpt lat="48.63743" lon="5.00161">
        <ele>192.1</ele>
        <time>2020-06-30T09:28:38Z</time>
      </trkpt>
      <trkpt lat="48.63742" lon="5.00154">
        <ele>192.3</ele>
        <time>2020-06-30T09:28:39Z</time>
      </trkpt>
      <trkpt lat="48.63742" lon="5.00148">
        <ele>192.5</ele>
        <time>2020-06-30T09:28:40Z</time>
      </trkpt>
      <trkpt lat="48.63742" lon="5.00143">
        <ele>192.6</ele>
        <time>2020-06-30T09:28:41Z</time>
      </trkpt>
      <trkpt lat="48.63743" lon="5.00139">
        <ele>192.7</ele>
        <time>2020-06-30T09:28:42Z</time>
      </trkpt>
      <trkpt lat="48.63742" lon="5.00133">
        <ele>192.9</ele>
        <time>2020-06-30T09:28:43Z</time>
      </trkpt>
      <trkpt lat="48.63741" lon="5.0013">
        <ele>192.9</ele>
        <time>2020-06-30T09:28:44Z</time>
      </trkpt>
      <trkpt lat="48.63741" lon="5.00124">
        <ele>193.1</ele>
        <time>2020-06-30T09:28:45Z</time>
      </trkpt>
      <trkpt lat="48.63741" lon="5.00117">
        <ele>193.3</ele>
        <time>2020-06-30T09:28:46Z</time>
      </trkpt>
      <trkpt lat="48.6374" lon="5.00111">
        <ele>193.5</ele>
        <time>2020-06-30T09:28:47Z</time>
      </trkpt>
      <trkpt lat="48.6374" lon="5.00102">
        <ele>193.8</ele>
        <time>2020-06-30T09:28:48Z</time>
      </trkpt>
      <trkpt lat="48.63739" lon="5.00095">
        <ele>194</ele>
        <time>2020-06-30T09:28:49Z</time>
      </trkpt>
      <trkpt lat="48.63739" lon="5.00091">
        <ele>194.1</ele>
        <time>2020-06-30T09:28:50Z</time>
      </trkpt>
      <trkpt lat="48.63739" lon="5.00084">
        <ele>194.3</ele>
        <time>2020-06-30T09:28:51Z</time>
      </trkpt>
      <trkpt lat="48.63739" lon="5.00079">
        <ele>194.4</ele>
        <time>2020-06-30T09:28:52Z</time>
      </trkpt>
      <trkpt lat="48.63739" lon="5.00072">
        <ele>194.6</ele>
        <time>2020-06-30T09:28:53Z</time>
      </trkpt>
      <trkpt lat="48.63739" lon="5.00066">
        <ele>194.7</ele>
        <time>2020-06-30T09:28:54Z</time>
      </trkpt>
      <trkpt lat="48.63738" lon="5.0006">
        <ele>194.8</ele>
        <time>2020-06-30T09:28:55Z</time>
      </trkpt>
      <trkpt lat="48.63738" lon="5.00052">
        <ele>194.9</ele>
        <time>2020-06-30T09:28:56Z</time>
      </trkpt>
      <trkpt lat="48.63738" lon="5.00046">
        <ele>195</ele>
        <time>2020-06-30T09:28:57Z</time>
      </trkpt>
      <trkpt lat="48.63738" lon="5.00041">
        <ele>195</ele>
        <time>2020-06-30T09:28:58Z</time>
      </trkpt>
      <trkpt lat="48.63738" lon="5.00035">
        <ele>195.1</ele>
        <time>2020-06-30T09:28:59Z</time>
      </trkpt>
      <trkpt lat="48.63738" lon="5.00028">
        <ele>195.1</ele>
        <time>2020-06-30T09:29:00Z</time>
      </trkpt>
      <trkpt lat="48.63738" lon="5.00022">
        <ele>195.1</ele>
        <time>2020-06-30T09:29:01Z</time>
      </trkpt>
      <trkpt lat="48.63738" lon="5.00018">
        <ele>195.2</ele>
        <time>2020-06-30T09:29:02Z</time>
      </trkpt>
      <trkpt lat="48.63739" lon="5.00011">
        <ele>195.2</ele>
        <time>2020-06-30T09:29:03Z</time>
      </trkpt>
      <trkpt lat="48.63739" lon="5.00004">
        <ele>195.2</ele>
        <time>2020-06-30T09:29:04Z</time>
      </trkpt>
      <trkpt lat="48.63739" lon="4.99997">
        <ele>195.2</ele>
        <time>2020-06-30T09:29:05Z</time>
      </trkpt>
      <trkpt lat="48.63739" lon="4.99989">
        <ele>195.2</ele>
        <time>2020-06-30T09:29:06Z</time>
      </trkpt>
      <trkpt lat="48.63739" lon="4.99981">
        <ele>195.2</ele>
        <time>2020-06-30T09:29:07Z</time>
      </trkpt>
      <trkpt lat="48.63739" lon="4.99973">
        <ele>195.1</ele>
        <time>2020-06-30T09:29:08Z</time>
      </trkpt>
      <trkpt lat="48.63739" lon="4.99965">
        <ele>195.1</ele>
        <time>2020-06-30T09:29:09Z</time>
      </trkpt>
      <trkpt lat="48.63739" lon="4.99957">
        <ele>195</ele>
        <time>2020-06-30T09:29:10Z</time>
      </trkpt>
      <trkpt lat="48.63739" lon="4.9995">
        <ele>195</ele>
        <time>2020-06-30T09:29:11Z</time>
      </trkpt>
      <trkpt lat="48.6374" lon="4.99942">
        <ele>194.9</ele>
        <time>2020-06-30T09:29:12Z</time>
      </trkpt>
      <trkpt lat="48.63739" lon="4.99933">
        <ele>194.9</ele>
        <time>2020-06-30T09:29:13Z</time>
      </trkpt>
      <trkpt lat="48.63739" lon="4.99926">
        <ele>194.8</ele>
        <time>2020-06-30T09:29:14Z</time>
      </trkpt>
      <trkpt lat="48.6374" lon="4.99917">
        <ele>194.9</ele>
        <time>2020-06-30T09:29:15Z</time>
      </trkpt>
      <trkpt lat="48.6374" lon="4.9991">
        <ele>195</ele>
        <time>2020-06-30T09:29:16Z</time>
      </trkpt>
      <trkpt lat="48.6374" lon="4.99902">
        <ele>195.1</ele>
        <time>2020-06-30T09:29:17Z</time>
      </trkpt>
      <trkpt lat="48.63741" lon="4.99895">
        <ele>195.1</ele>
        <time>2020-06-30T09:29:18Z</time>
      </trkpt>
      <trkpt lat="48.63741" lon="4.99887">
        <ele>195.1</ele>
        <time>2020-06-30T09:29:19Z</time>
      </trkpt>
      <trkpt lat="48.63741" lon="4.99881">
        <ele>195.1</ele>
        <time>2020-06-30T09:29:20Z</time>
      </trkpt>
      <trkpt lat="48.63741" lon="4.99874">
        <ele>195.1</ele>
        <time>2020-06-30T09:29:21Z</time>
      </trkpt>
      <trkpt lat="48.63741" lon="4.99866">
        <ele>195</ele>
        <time>2020-06-30T09:29:22Z</time>
      </trkpt>
      <trkpt lat="48.63741" lon="4.99859">
        <ele>195</ele>
        <time>2020-06-30T09:29:23Z</time>
      </trkpt>
      <trkpt lat="48.6374" lon="4.99854">
        <ele>195</ele>
        <time>2020-06-30T09:29:24Z</time>
      </trkpt>
      <trkpt lat="48.63739" lon="4.99846">
        <ele>194.9</ele>
        <time>2020-06-30T09:29:25Z</time>
      </trkpt>
      <trkpt lat="48.63739" lon="4.99836">
        <ele>194.9</ele>
        <time>2020-06-30T09:29:26Z</time>
      </trkpt>
      <trkpt lat="48.63739" lon="4.99828">
        <ele>194.9</ele>
        <time>2020-06-30T09:29:27Z</time>
      </trkpt>
      <trkpt lat="48.63739" lon="4.9982">
        <ele>194.9</ele>
        <time>2020-06-30T09:29:28Z</time>
      </trkpt>
      <trkpt lat="48.63738" lon="4.99812">
        <ele>194.8</ele>
        <time>2020-06-30T09:29:29Z</time>
      </trkpt>
      <trkpt lat="48.63738" lon="4.99804">
        <ele>194.8</ele>
        <time>2020-06-30T09:29:30Z</time>
      </trkpt>
      <trkpt lat="48.63737" lon="4.99796">
        <ele>194.8</ele>
        <time>2020-06-30T09:29:31Z</time>
      </trkpt>
      <trkpt lat="48.63737" lon="4.99787">
        <ele>194.8</ele>
        <time>2020-06-30T09:29:32Z</time>
      </trkpt>
      <trkpt lat="48.63737" lon="4.99779">
        <ele>194.8</ele>
        <time>2020-06-30T09:29:33Z</time>
      </trkpt>
      <trkpt lat="48.63737" lon="4.9977">
        <ele>194.8</ele>
        <time>2020-06-30T09:29:34Z</time>
      </trkpt>
      <trkpt lat="48.63737" lon="4.99764">
        <ele>194.8</ele>
        <time>2020-06-30T09:29:35Z</time>
      </trkpt>
      <trkpt lat="48.63736" lon="4.99756">
        <ele>194.7</ele>
        <time>2020-06-30T09:29:36Z</time>
      </trkpt>
      <trkpt lat="48.63735" lon="4.99748">
        <ele>194.7</ele>
        <time>2020-06-30T09:29:37Z</time>
      </trkpt>
      <trkpt lat="48.63734" lon="4.99741">
        <ele>194.7</ele>
        <time>2020-06-30T09:29:38Z</time>
      </trkpt>
      <trkpt lat="48.63733" lon="4.99733">
        <ele>194.6</ele>
        <time>2020-06-30T09:29:39Z</time>
      </trkpt>
      <trkpt lat="48.63733" lon="4.99724">
        <ele>194.6</ele>
        <time>2020-06-30T09:29:40Z</time>
      </trkpt>
      <trkpt lat="48.63733" lon="4.99717">
        <ele>194.6</ele>
        <time>2020-06-30T09:29:41Z</time>
      </trkpt>
      <trkpt lat="48.63733" lon="4.99707">
        <ele>194.7</ele>
        <time>2020-06-30T09:29:42Z</time>
      </trkpt>
      <trkpt lat="48.63733" lon="4.99698">
        <ele>194.7</ele>
        <time>2020-06-30T09:29:43Z</time>
      </trkpt>
      <trkpt lat="48.63733" lon="4.99691">
        <ele>194.7</ele>
        <time>2020-06-30T09:29:44Z</time>
      </trkpt>
      <trkpt lat="48.63734" lon="4.99686">
        <ele>194.7</ele>
        <time>2020-06-30T09:29:45Z</time>
      </trkpt>
      <trkpt lat="48.63734" lon="4.99678">
        <ele>194.8</ele>
        <time>2020-06-30T09:29:46Z</time>
      </trkpt>
      <trkpt lat="48.63734" lon="4.99669">
        <ele>194.8</ele>
        <time>2020-06-30T09:29:47Z</time>
      </trkpt>
      <trkpt lat="48.63734" lon="4.99662">
        <ele>194.8</ele>
        <time>2020-06-30T09:29:48Z</time>
      </trkpt>
      <trkpt lat="48.63734" lon="4.99654">
        <ele>194.9</ele>
        <time>2020-06-30T09:29:49Z</time>
      </trkpt>
      <trkpt lat="48.63734" lon="4.99646">
        <ele>194.9</ele>
        <time>2020-06-30T09:29:50Z</time>
      </trkpt>
      <trkpt lat="48.63734" lon="4.99638">
        <ele>194.9</ele>
        <time>2020-06-30T09:29:51Z</time>
      </trkpt>
      <trkpt lat="48.63735" lon="4.99628">
        <ele>195</ele>
        <time>2020-06-30T09:29:52Z</time>
      </trkpt>
      <trkpt lat="48.63736" lon="4.99619">
        <ele>195</ele>
        <time>2020-06-30T09:29:53Z</time>
      </trkpt>
      <trkpt lat="48.63736" lon="4.99612">
        <ele>195.1</ele>
        <time>2020-06-30T09:29:54Z</time>
      </trkpt>
      <trkpt lat="48.63736" lon="4.99604">
        <ele>195.1</ele>
        <time>2020-06-30T09:29:55Z</time>
      </trkpt>
      <trkpt lat="48.63737" lon="4.99593">
        <ele>195.2</ele>
        <time>2020-06-30T09:29:56Z</time>
      </trkpt>
      <trkpt lat="48.63737" lon="4.99583">
        <ele>195.3</ele>
        <time>2020-06-30T09:29:57Z</time>
      </trkpt>
      <trkpt lat="48.63737" lon="4.99573">
        <ele>195.3</ele>
        <time>2020-06-30T09:29:58Z</time>
      </trkpt>
      <trkpt lat="48.63738" lon="4.99567">
        <ele>195.3</ele>
        <time>2020-06-30T09:29:59Z</time>
      </trkpt>
      <trkpt lat="48.63738" lon="4.9956">
        <ele>195.4</ele>
        <time>2020-06-30T09:30:00Z</time>
      </trkpt>
      <trkpt lat="48.63739" lon="4.99549">
        <ele>195.5</ele>
        <time>2020-06-30T09:30:01Z</time>
      </trkpt>
      <trkpt lat="48.63738" lon="4.99542">
        <ele>195.6</ele>
        <time>2020-06-30T09:30:02Z</time>
      </trkpt>
      <trkpt lat="48.63739" lon="4.99534">
        <ele>195.7</ele>
        <time>2020-06-30T09:30:03Z</time>
      </trkpt>
      <trkpt lat="48.63738" lon="4.99528">
        <ele>195.7</ele>
        <time>2020-06-30T09:30:04Z</time>
      </trkpt>
      <trkpt lat="48.63738" lon="4.99521">
        <ele>195.8</ele>
        <time>2020-06-30T09:30:05Z</time>
      </trkpt>
      <trkpt lat="48.63738" lon="4.99513">
        <ele>195.8</ele>
        <time>2020-06-30T09:30:06Z</time>
      </trkpt>
      <trkpt lat="48.63738" lon="4.99504">
        <ele>195.9</ele>
        <time>2020-06-30T09:30:07Z</time>
      </trkpt>
      <trkpt lat="48.63738" lon="4.99495">
        <ele>195.9</ele>
        <time>2020-06-30T09:30:08Z</time>
      </trkpt>
      <trkpt lat="48.63738" lon="4.99487">
        <ele>195.9</ele>
        <time>2020-06-30T09:30:09Z</time>
      </trkpt>
      <trkpt lat="48.63738" lon="4.99479">
        <ele>195.9</ele>
        <time>2020-06-30T09:30:10Z</time>
      </trkpt>
      <trkpt lat="48.63738" lon="4.99473">
        <ele>196</ele>
        <time>2020-06-30T09:30:11Z</time>
      </trkpt>
      <trkpt lat="48.63739" lon="4.99466">
        <ele>196</ele>
        <time>2020-06-30T09:30:12Z</time>
      </trkpt>
      <trkpt lat="48.63739" lon="4.99458">
        <ele>196</ele>
        <time>2020-06-30T09:30:13Z</time>
      </trkpt>
      <trkpt lat="48.63739" lon="4.99448">
        <ele>196</ele>
        <time>2020-06-30T09:30:14Z</time>
      </trkpt>
      <trkpt lat="48.63739" lon="4.99439">
        <ele>196</ele>
        <time>2020-06-30T09:30:15Z</time>
      </trkpt>
      <trkpt lat="48.6374" lon="4.99431">
        <ele>196.1</ele>
        <time>2020-06-30T09:30:16Z</time>
      </trkpt>
      <trkpt lat="48.6374" lon="4.99424">
        <ele>196.1</ele>
        <time>2020-06-30T09:30:17Z</time>
      </trkpt>
      <trkpt lat="48.6374" lon="4.99416">
        <ele>196.1</ele>
        <time>2020-06-30T09:30:18Z</time>
      </trkpt>
      <trkpt lat="48.63741" lon="4.99407">
        <ele>196.1</ele>
        <time>2020-06-30T09:30:19Z</time>
      </trkpt>
      <trkpt lat="48.6374" lon="4.994">
        <ele>196.2</ele>
        <time>2020-06-30T09:30:20Z</time>
      </trkpt>
      <trkpt lat="48.63741" lon="4.99393">
        <ele>196.2</ele>
        <time>2020-06-30T09:30:21Z</time>
      </trkpt>
      <trkpt lat="48.63741" lon="4.99385">
        <ele>196.1</ele>
        <time>2020-06-30T09:30:22Z</time>
      </trkpt>
      <trkpt lat="48.63741" lon="4.99379">
        <ele>196.1</ele>
        <time>2020-06-30T09:30:23Z</time>
      </trkpt>
      <trkpt lat="48.63741" lon="4.99372">
        <ele>196</ele>
        <time>2020-06-30T09:30:24Z</time>
      </trkpt>
      <trkpt lat="48.6374" lon="4.99364">
        <ele>196</ele>
        <time>2020-06-30T09:30:25Z</time>
      </trkpt>
      <trkpt lat="48.6374" lon="4.99357">
        <ele>195.9</ele>
        <time>2020-06-30T09:30:26Z</time>
      </trkpt>
      <trkpt lat="48.63741" lon="4.99348">
        <ele>195.8</ele>
        <time>2020-06-30T09:30:27Z</time>
      </trkpt>
      <trkpt lat="48.63741" lon="4.99338">
        <ele>195.7</ele>
        <time>2020-06-30T09:30:28Z</time>
      </trkpt>
      <trkpt lat="48.63741" lon="4.99329">
        <ele>195.6</ele>
        <time>2020-06-30T09:30:29Z</time>
      </trkpt>
      <trkpt lat="48.63741" lon="4.9932">
        <ele>195.5</ele>
        <time>2020-06-30T09:30:30Z</time>
      </trkpt>
      <trkpt lat="48.6374" lon="4.99307">
        <ele>195.3</ele>
        <time>2020-06-30T09:30:31Z</time>
      </trkpt>
      <trkpt lat="48.6374" lon="4.99297">
        <ele>195.1</ele>
        <time>2020-06-30T09:30:32Z</time>
      </trkpt>
      <trkpt lat="48.6374" lon="4.99287">
        <ele>194.9</ele>
        <time>2020-06-30T09:30:33Z</time>
      </trkpt>
      <trkpt lat="48.6374" lon="4.99278">
        <ele>194.7</ele>
        <time>2020-06-30T09:30:34Z</time>
      </trkpt>
      <trkpt lat="48.6374" lon="4.99267">
        <ele>194.5</ele>
        <time>2020-06-30T09:30:35Z</time>
      </trkpt>
      <trkpt lat="48.63739" lon="4.99257">
        <ele>194.3</ele>
        <time>2020-06-30T09:30:36Z</time>
      </trkpt>
      <trkpt lat="48.63739" lon="4.99247">
        <ele>194.1</ele>
        <time>2020-06-30T09:30:37Z</time>
      </trkpt>
      <trkpt lat="48.63738" lon="4.99237">
        <ele>193.9</ele>
        <time>2020-06-30T09:30:38Z</time>
      </trkpt>
      <trkpt lat="48.63737" lon="4.99228">
        <ele>193.6</ele>
        <time>2020-06-30T09:30:39Z</time>
      </trkpt>
      <trkpt lat="48.63737" lon="4.99217">
        <ele>193.3</ele>
        <time>2020-06-30T09:30:40Z</time>
      </trkpt>
      <trkpt lat="48.63738" lon="4.99207">
        <ele>193.1</ele>
        <time>2020-06-30T09:30:41Z</time>
      </trkpt>
      <trkpt lat="48.63737" lon="4.99197">
        <ele>192.8</ele>
        <time>2020-06-30T09:30:42Z</time>
      </trkpt>
      <trkpt lat="48.63736" lon="4.99187">
        <ele>192.6</ele>
        <time>2020-06-30T09:30:43Z</time>
      </trkpt>
      <trkpt lat="48.63735" lon="4.99175">
        <ele>192.3</ele>
        <time>2020-06-30T09:30:44Z</time>
      </trkpt>
      <trkpt lat="48.63734" lon="4.99163">
        <ele>192</ele>
        <time>2020-06-30T09:30:45Z</time>
      </trkpt>
      <trkpt lat="48.63734" lon="4.99153">
        <ele>191.6</ele>
        <time>2020-06-30T09:30:46Z</time>
      </trkpt>
      <trkpt lat="48.63733" lon="4.99143">
        <ele>191.3</ele>
        <time>2020-06-30T09:30:47Z</time>
      </trkpt>
      <trkpt lat="48.63733" lon="4.99133">
        <ele>191.1</ele>
        <time>2020-06-30T09:30:48Z</time>
      </trkpt>
      <trkpt lat="48.63734" lon="4.99122">
        <ele>190.8</ele>
        <time>2020-06-30T09:30:49Z</time>
      </trkpt>
      <trkpt lat="48.63734" lon="4.99112">
        <ele>190.7</ele>
        <time>2020-06-30T09:30:50Z</time>
      </trkpt>
      <trkpt lat="48.63735" lon="4.99101">
        <ele>190.6</ele>
        <time>2020-06-30T09:30:51Z</time>
      </trkpt>
      <trkpt lat="48.63735" lon="4.9909">
        <ele>190.4</ele>
        <time>2020-06-30T09:30:52Z</time>
      </trkpt>
      <trkpt lat="48.63735" lon="4.99079">
        <ele>190.2</ele>
        <time>2020-06-30T09:30:53Z</time>
      </trkpt>
      <trkpt lat="48.63734" lon="4.99068">
        <ele>189.8</ele>
        <time>2020-06-30T09:30:54Z</time>
      </trkpt>
      <trkpt lat="48.63733" lon="4.99057">
        <ele>189.5</ele>
        <time>2020-06-30T09:30:55Z</time>
      </trkpt>
      <trkpt lat="48.63732" lon="4.99046">
        <ele>189.2</ele>
        <time>2020-06-30T09:30:56Z</time>
      </trkpt>
      <trkpt lat="48.6373" lon="4.99034">
        <ele>188.8</ele>
        <time>2020-06-30T09:30:57Z</time>
      </trkpt>
      <trkpt lat="48.63728" lon="4.99023">
        <ele>188.4</ele>
        <time>2020-06-30T09:30:58Z</time>
      </trkpt>
      <trkpt lat="48.63727" lon="4.99011">
        <ele>188</ele>
        <time>2020-06-30T09:30:59Z</time>
      </trkpt>
      <trkpt lat="48.63725" lon="4.99">
        <ele>187.7</ele>
        <time>2020-06-30T09:31:00Z</time>
      </trkpt>
      <trkpt lat="48.63725" lon="4.98988">
        <ele>187.3</ele>
        <time>2020-06-30T09:31:01Z</time>
      </trkpt>
      <trkpt lat="48.63723" lon="4.98977">
        <ele>186.8</ele>
        <time>2020-06-30T09:31:02Z</time>
      </trkpt>
      <trkpt lat="48.63723" lon="4.98965">
        <ele>186.3</ele>
        <time>2020-06-30T09:31:03Z</time>
      </trkpt>
      <trkpt lat="48.63722" lon="4.98953">
        <ele>185.8</ele>
        <time>2020-06-30T09:31:04Z</time>
      </trkpt>
      <trkpt lat="48.63722" lon="4.9894">
        <ele>185.3</ele>
        <time>2020-06-30T09:31:05Z</time>
      </trkpt>
      <trkpt lat="48.6372" lon="4.98927">
        <ele>184.9</ele>
        <time>2020-06-30T09:31:06Z</time>
      </trkpt>
      <trkpt lat="48.6372" lon="4.98914">
        <ele>184.4</ele>
        <time>2020-06-30T09:31:07Z</time>
      </trkpt>
      <trkpt lat="48.63719" lon="4.98901">
        <ele>184</ele>
        <time>2020-06-30T09:31:08Z</time>
      </trkpt>
      <trkpt lat="48.63717" lon="4.98889">
        <ele>183.6</ele>
        <time>2020-06-30T09:31:09Z</time>
      </trkpt>
      <trkpt lat="48.63716" lon="4.98875">
        <ele>183.1</ele>
        <time>2020-06-30T09:31:10Z</time>
      </trkpt>
      <trkpt lat="48.63714" lon="4.98862">
        <ele>182.7</ele>
        <time>2020-06-30T09:31:11Z</time>
      </trkpt>
      <trkpt lat="48.63713" lon="4.98849">
        <ele>182.2</ele>
        <time>2020-06-30T09:31:12Z</time>
      </trkpt>
      <trkpt lat="48.63712" lon="4.98836">
        <ele>181.8</ele>
        <time>2020-06-30T09:31:13Z</time>
      </trkpt>
      <trkpt lat="48.63712" lon="4.98823">
        <ele>181.3</ele>
        <time>2020-06-30T09:31:14Z</time>
      </trkpt>
      <trkpt lat="48.63711" lon="4.9881">
        <ele>180.9</ele>
        <time>2020-06-30T09:31:15Z</time>
      </trkpt>
      <trkpt lat="48.6371" lon="4.98797">
        <ele>180.4</ele>
        <time>2020-06-30T09:31:16Z</time>
      </trkpt>
      <trkpt lat="48.63709" lon="4.98783">
        <ele>179.9</ele>
        <time>2020-06-30T09:31:17Z</time>
      </trkpt>
      <trkpt lat="48.63708" lon="4.9877">
        <ele>179.4</ele>
        <time>2020-06-30T09:31:18Z</time>
      </trkpt>
      <trkpt lat="48.63708" lon="4.98756">
        <ele>178.9</ele>
        <time>2020-06-30T09:31:19Z</time>
      </trkpt>
      <trkpt lat="48.63707" lon="4.98742">
        <ele>178.4</ele>
        <time>2020-06-30T09:31:20Z</time>
      </trkpt>
      <trkpt lat="48.63707" lon="4.98727">
        <ele>177.9</ele>
        <time>2020-06-30T09:31:21Z</time>
      </trkpt>
      <trkpt lat="48.63706" lon="4.98713">
        <ele>177.4</ele>
        <time>2020-06-30T09:31:22Z</time>
      </trkpt>
      <trkpt lat="48.63705" lon="4.98698">
        <ele>176.8</ele>
        <time>2020-06-30T09:31:23Z</time>
      </trkpt>
      <trkpt lat="48.63704" lon="4.98684">
        <ele>176.3</ele>
        <time>2020-06-30T09:31:24Z</time>
      </trkpt>
      <trkpt lat="48.63704" lon="4.9867">
        <ele>175.8</ele>
        <time>2020-06-30T09:31:25Z</time>
      </trkpt>
      <trkpt lat="48.63703" lon="4.98655">
        <ele>175.4</ele>
        <time>2020-06-30T09:31:26Z</time>
      </trkpt>
      <trkpt lat="48.63702" lon="4.98641">
        <ele>174.9</ele>
        <time>2020-06-30T09:31:27Z</time>
      </trkpt>
      <trkpt lat="48.63702" lon="4.98626">
        <ele>174.4</ele>
        <time>2020-06-30T09:31:28Z</time>
      </trkpt>
      <trkpt lat="48.63701" lon="4.98612">
        <ele>173.9</ele>
        <time>2020-06-30T09:31:29Z</time>
      </trkpt>
      <trkpt lat="48.637" lon="4.98598">
        <ele>173.5</ele>
        <time>2020-06-30T09:31:30Z</time>
      </trkpt>
      <trkpt lat="48.63698" lon="4.98583">
        <ele>173</ele>
        <time>2020-06-30T09:31:31Z</time>
      </trkpt>
      <trkpt lat="48.63697" lon="4.98569">
        <ele>172.5</ele>
        <time>2020-06-30T09:31:32Z</time>
      </trkpt>
      <trkpt lat="48.63697" lon="4.98555">
        <ele>171.9</ele>
        <time>2020-06-30T09:31:33Z</time>
      </trkpt>
      <trkpt lat="48.63696" lon="4.9854">
        <ele>171.4</ele>
        <time>2020-06-30T09:31:34Z</time>
      </trkpt>
      <trkpt lat="48.63696" lon="4.98526">
        <ele>170.8</ele>
        <time>2020-06-30T09:31:35Z</time>
      </trkpt>
      <trkpt lat="48.63696" lon="4.98511">
        <ele>170.2</ele>
        <time>2020-06-30T09:31:36Z</time>
      </trkpt>
      <trkpt lat="48.63696" lon="4.98497">
        <ele>169.4</ele>
        <time>2020-06-30T09:31:37Z</time>
      </trkpt>
      <trkpt lat="48.63696" lon="4.98482">
        <ele>168.9</ele>
        <time>2020-06-30T09:31:38Z</time>
      </trkpt>
      <trkpt lat="48.63696" lon="4.98467">
        <ele>168.4</ele>
        <time>2020-06-30T09:31:39Z</time>
      </trkpt>
      <trkpt lat="48.63695" lon="4.98453">
        <ele>168</ele>
        <time>2020-06-30T09:31:40Z</time>
      </trkpt>
      <trkpt lat="48.63694" lon="4.98438">
        <ele>167.6</ele>
        <time>2020-06-30T09:31:41Z</time>
      </trkpt>
      <trkpt lat="48.63694" lon="4.98425">
        <ele>167.2</ele>
        <time>2020-06-30T09:31:42Z</time>
      </trkpt>
      <trkpt lat="48.63693" lon="4.98412">
        <ele>166.9</ele>
        <time>2020-06-30T09:31:43Z</time>
      </trkpt>
      <trkpt lat="48.63692" lon="4.98399">
        <ele>166.6</ele>
        <time>2020-06-30T09:31:44Z</time>
      </trkpt>
      <trkpt lat="48.6369" lon="4.98386">
        <ele>166.3</ele>
        <time>2020-06-30T09:31:45Z</time>
      </trkpt>
      <trkpt lat="48.63687" lon="4.98374">
        <ele>166</ele>
        <time>2020-06-30T09:31:46Z</time>
      </trkpt>
      <trkpt lat="48.63684" lon="4.98362">
        <ele>165.8</ele>
        <time>2020-06-30T09:31:47Z</time>
      </trkpt>
      <trkpt lat="48.6368" lon="4.9835">
        <ele>165.6</ele>
        <time>2020-06-30T09:31:48Z</time>
      </trkpt>
      <trkpt lat="48.63678" lon="4.98338">
        <ele>165.4</ele>
        <time>2020-06-30T09:31:49Z</time>
      </trkpt>
      <trkpt lat="48.63678" lon="4.98325">
        <ele>164.9</ele>
        <time>2020-06-30T09:31:50Z</time>
      </trkpt>
      <trkpt lat="48.63679" lon="4.98312">
        <ele>164.4</ele>
        <time>2020-06-30T09:31:51Z</time>
      </trkpt>
      <trkpt lat="48.6368" lon="4.98299">
        <ele>164</ele>
        <time>2020-06-30T09:31:52Z</time>
      </trkpt>
      <trkpt lat="48.63679" lon="4.98286">
        <ele>163.7</ele>
        <time>2020-06-30T09:31:53Z</time>
      </trkpt>
      <trkpt lat="48.63679" lon="4.98273">
        <ele>163</ele>
        <time>2020-06-30T09:31:54Z</time>
      </trkpt>
      <trkpt lat="48.63679" lon="4.9826">
        <ele>162.4</ele>
        <time>2020-06-30T09:31:55Z</time>
      </trkpt>
      <trkpt lat="48.63679" lon="4.98247">
        <ele>161.9</ele>
        <time>2020-06-30T09:31:56Z</time>
      </trkpt>
      <trkpt lat="48.63679" lon="4.98235">
        <ele>161.4</ele>
        <time>2020-06-30T09:31:57Z</time>
      </trkpt>
      <trkpt lat="48.63678" lon="4.98222">
        <ele>161</ele>
        <time>2020-06-30T09:31:58Z</time>
      </trkpt>
      <trkpt lat="48.63678" lon="4.98209">
        <ele>160.6</ele>
        <time>2020-06-30T09:31:59Z</time>
      </trkpt>
      <trkpt lat="48.63678" lon="4.98197">
        <ele>160.2</ele>
        <time>2020-06-30T09:32:00Z</time>
      </trkpt>
      <trkpt lat="48.63678" lon="4.98184">
        <ele>159.8</ele>
        <time>2020-06-30T09:32:01Z</time>
      </trkpt>
      <trkpt lat="48.63678" lon="4.98171">
        <ele>159.5</ele>
        <time>2020-06-30T09:32:02Z</time>
      </trkpt>
      <trkpt lat="48.63677" lon="4.98158">
        <ele>159.2</ele>
        <time>2020-06-30T09:32:03Z</time>
      </trkpt>
      <trkpt lat="48.63677" lon="4.98144">
        <ele>158.5</ele>
        <time>2020-06-30T09:32:04Z</time>
      </trkpt>
      <trkpt lat="48.63676" lon="4.98131">
        <ele>157.9</ele>
        <time>2020-06-30T09:32:05Z</time>
      </trkpt>
      <trkpt lat="48.63675" lon="4.98118">
        <ele>157.4</ele>
        <time>2020-06-30T09:32:06Z</time>
      </trkpt>
      <trkpt lat="48.63675" lon="4.98105">
        <ele>156.9</ele>
        <time>2020-06-30T09:32:07Z</time>
      </trkpt>
      <trkpt lat="48.63675" lon="4.98092">
        <ele>156.6</ele>
        <time>2020-06-30T09:32:08Z</time>
      </trkpt>
      <trkpt lat="48.63674" lon="4.98079">
        <ele>156.7</ele>
        <time>2020-06-30T09:32:09Z</time>
      </trkpt>
      <trkpt lat="48.63673" lon="4.98066">
        <ele>156.2</ele>
        <time>2020-06-30T09:32:10Z</time>
      </trkpt>
      <trkpt lat="48.63672" lon="4.98053">
        <ele>155.7</ele>
        <time>2020-06-30T09:32:11Z</time>
      </trkpt>
      <trkpt lat="48.63671" lon="4.98041">
        <ele>155.2</ele>
        <time>2020-06-30T09:32:12Z</time>
      </trkpt>
      <trkpt lat="48.6367" lon="4.98028">
        <ele>154.8</ele>
        <time>2020-06-30T09:32:13Z</time>
      </trkpt>
      <trkpt lat="48.6367" lon="4.98015">
        <ele>154.3</ele>
        <time>2020-06-30T09:32:14Z</time>
      </trkpt>
      <trkpt lat="48.63669" lon="4.98002">
        <ele>153.9</ele>
        <time>2020-06-30T09:32:15Z</time>
      </trkpt>
      <trkpt lat="48.63668" lon="4.9799">
        <ele>153.6</ele>
        <time>2020-06-30T09:32:16Z</time>
      </trkpt>
      <trkpt lat="48.63667" lon="4.97978">
        <ele>153.3</ele>
        <time>2020-06-30T09:32:17Z</time>
      </trkpt>
      <trkpt lat="48.63665" lon="4.97965">
        <ele>153</ele>
        <time>2020-06-30T09:32:18Z</time>
      </trkpt>
      <trkpt lat="48.63664" lon="4.97953">
        <ele>152.8</ele>
        <time>2020-06-30T09:32:19Z</time>
      </trkpt>
      <trkpt lat="48.63663" lon="4.97941">
        <ele>151.9</ele>
        <time>2020-06-30T09:32:20Z</time>
      </trkpt>
      <trkpt lat="48.63663" lon="4.97928">
        <ele>151.4</ele>
        <time>2020-06-30T09:32:21Z</time>
      </trkpt>
      <trkpt lat="48.63662" lon="4.97916">
        <ele>151</ele>
        <time>2020-06-30T09:32:22Z</time>
      </trkpt>
      <trkpt lat="48.63662" lon="4.97903">
        <ele>150.6</ele>
        <time>2020-06-30T09:32:23Z</time>
      </trkpt>
      <trkpt lat="48.63661" lon="4.97891">
        <ele>150.4</ele>
        <time>2020-06-30T09:32:24Z</time>
      </trkpt>
      <trkpt lat="48.6366" lon="4.97878">
        <ele>150.2</ele>
        <time>2020-06-30T09:32:25Z</time>
      </trkpt>
      <trkpt lat="48.6366" lon="4.97866">
        <ele>150</ele>
        <time>2020-06-30T09:32:26Z</time>
      </trkpt>
      <trkpt lat="48.63659" lon="4.97854">
        <ele>149.7</ele>
        <time>2020-06-30T09:32:27Z</time>
      </trkpt>
      <trkpt lat="48.63658" lon="4.97841">
        <ele>149.5</ele>
        <time>2020-06-30T09:32:28Z</time>
      </trkpt>
      <trkpt lat="48.63658" lon="4.97829">
        <ele>149.3</ele>
        <time>2020-06-30T09:32:29Z</time>
      </trkpt>
      <trkpt lat="48.63657" lon="4.97817">
        <ele>148.9</ele>
        <time>2020-06-30T09:32:30Z</time>
      </trkpt>
      <trkpt lat="48.63657" lon="4.97805">
        <ele>148.6</ele>
        <time>2020-06-30T09:32:31Z</time>
      </trkpt>
      <trkpt lat="48.63656" lon="4.97792">
        <ele>148.3</ele>
        <time>2020-06-30T09:32:32Z</time>
      </trkpt>
      <trkpt lat="48.63656" lon="4.9778">
        <ele>148.1</ele>
        <time>2020-06-30T09:32:33Z</time>
      </trkpt>
      <trkpt lat="48.63656" lon="4.97768">
        <ele>147.9</ele>
        <time>2020-06-30T09:32:34Z</time>
      </trkpt>
      <trkpt lat="48.63658" lon="4.97756">
        <ele>147.8</ele>
        <time>2020-06-30T09:32:35Z</time>
      </trkpt>
      <trkpt lat="48.63659" lon="4.97745">
        <ele>147.6</ele>
        <time>2020-06-30T09:32:36Z</time>
      </trkpt>
      <trkpt lat="48.6366" lon="4.97733">
        <ele>147.5</ele>
        <time>2020-06-30T09:32:37Z</time>
      </trkpt>
      <trkpt lat="48.63662" lon="4.97722">
        <ele>147.4</ele>
        <time>2020-06-30T09:32:38Z</time>
      </trkpt>
      <trkpt lat="48.63662" lon="4.97711">
        <ele>147.4</ele>
        <time>2020-06-30T09:32:39Z</time>
      </trkpt>
      <trkpt lat="48.63662" lon="4.977">
        <ele>147.3</ele>
        <time>2020-06-30T09:32:40Z</time>
      </trkpt>
      <trkpt lat="48.63662" lon="4.97689">
        <ele>147.3</ele>
        <time>2020-06-30T09:32:41Z</time>
      </trkpt>
      <trkpt lat="48.63663" lon="4.97679">
        <ele>147.1</ele>
        <time>2020-06-30T09:32:42Z</time>
      </trkpt>
      <trkpt lat="48.63664" lon="4.97668">
        <ele>147</ele>
        <time>2020-06-30T09:32:43Z</time>
      </trkpt>
      <trkpt lat="48.63663" lon="4.97658">
        <ele>146.9</ele>
        <time>2020-06-30T09:32:44Z</time>
      </trkpt>
      <trkpt lat="48.63664" lon="4.97649">
        <ele>146.8</ele>
        <time>2020-06-30T09:32:45Z</time>
      </trkpt>
      <trkpt lat="48.63665" lon="4.9764">
        <ele>146.8</ele>
        <time>2020-06-30T09:32:46Z</time>
      </trkpt>
      <trkpt lat="48.63663" lon="4.97632">
        <ele>147</ele>
        <time>2020-06-30T09:32:47Z</time>
      </trkpt>
      <trkpt lat="48.63659" lon="4.97626">
        <ele>147.4</ele>
        <time>2020-06-30T09:32:48Z</time>
      </trkpt>
      <trkpt lat="48.63654" lon="4.97621">
        <ele>147.6</ele>
        <time>2020-06-30T09:32:49Z</time>
      </trkpt>
      <trkpt lat="48.63649" lon="4.97616">
        <ele>147</ele>
        <time>2020-06-30T09:32:50Z</time>
      </trkpt>
      <trkpt lat="48.63645" lon="4.97608">
        <ele>146.5</ele>
        <time>2020-06-30T09:32:51Z</time>
      </trkpt>
      <trkpt lat="48.63645" lon="4.976">
        <ele>146.3</ele>
        <time>2020-06-30T09:32:52Z</time>
      </trkpt>
      <trkpt lat="48.63645" lon="4.9759">
        <ele>146.2</ele>
        <time>2020-06-30T09:32:53Z</time>
      </trkpt>
      <trkpt lat="48.63644" lon="4.9758">
        <ele>146</ele>
        <time>2020-06-30T09:32:54Z</time>
      </trkpt>
      <trkpt lat="48.63645" lon="4.97569">
        <ele>145.9</ele>
        <time>2020-06-30T09:32:55Z</time>
      </trkpt>
      <trkpt lat="48.63645" lon="4.97559">
        <ele>145.8</ele>
        <time>2020-06-30T09:32:56Z</time>
      </trkpt>
      <trkpt lat="48.63644" lon="4.97549">
        <ele>145.7</ele>
        <time>2020-06-30T09:32:57Z</time>
      </trkpt>
      <trkpt lat="48.63644" lon="4.97539">
        <ele>145.6</ele>
        <time>2020-06-30T09:32:58Z</time>
      </trkpt>
      <trkpt lat="48.63643" lon="4.9753">
        <ele>145.4</ele>
        <time>2020-06-30T09:32:59Z</time>
      </trkpt>
      <trkpt lat="48.63643" lon="4.9752">
        <ele>145.3</ele>
        <time>2020-06-30T09:33:00Z</time>
      </trkpt>
      <trkpt lat="48.63642" lon="4.97511">
        <ele>145.3</ele>
        <time>2020-06-30T09:33:01Z</time>
      </trkpt>
      <trkpt lat="48.63641" lon="4.97503">
        <ele>145.2</ele>
        <time>2020-06-30T09:33:02Z</time>
      </trkpt>
      <trkpt lat="48.63641" lon="4.97494">
        <ele>145.2</ele>
        <time>2020-06-30T09:33:03Z</time>
      </trkpt>
      <trkpt lat="48.6364" lon="4.97485">
        <ele>145.1</ele>
        <time>2020-06-30T09:33:04Z</time>
      </trkpt>
      <trkpt lat="48.6364" lon="4.97476">
        <ele>145</ele>
        <time>2020-06-30T09:33:05Z</time>
      </trkpt>
      <trkpt lat="48.6364" lon="4.97467">
        <ele>145</ele>
        <time>2020-06-30T09:33:06Z</time>
      </trkpt>
      <trkpt lat="48.6364" lon="4.97459">
        <ele>144.9</ele>
        <time>2020-06-30T09:33:07Z</time>
      </trkpt>
      <trkpt lat="48.63639" lon="4.9745">
        <ele>144.9</ele>
        <time>2020-06-30T09:33:08Z</time>
      </trkpt>
      <trkpt lat="48.63639" lon="4.97442">
        <ele>144.9</ele>
        <time>2020-06-30T09:33:09Z</time>
      </trkpt>
      <trkpt lat="48.63639" lon="4.97433">
        <ele>144.8</ele>
        <time>2020-06-30T09:33:10Z</time>
      </trkpt>
      <trkpt lat="48.63638" lon="4.97426">
        <ele>144.8</ele>
        <time>2020-06-30T09:33:11Z</time>
      </trkpt>
      <trkpt lat="48.63638" lon="4.97418">
        <ele>144.8</ele>
        <time>2020-06-30T09:33:12Z</time>
      </trkpt>
      <trkpt lat="48.63637" lon="4.9741">
        <ele>144.8</ele>
        <time>2020-06-30T09:33:13Z</time>
      </trkpt>
      <trkpt lat="48.63637" lon="4.97401">
        <ele>144.7</ele>
        <time>2020-06-30T09:33:14Z</time>
      </trkpt>
      <trkpt lat="48.63636" lon="4.97392">
        <ele>144.6</ele>
        <time>2020-06-30T09:33:15Z</time>
      </trkpt>
      <trkpt lat="48.63635" lon="4.97383">
        <ele>144.6</ele>
        <time>2020-06-30T09:33:16Z</time>
      </trkpt>
      <trkpt lat="48.63635" lon="4.97375">
        <ele>144.4</ele>
        <time>2020-06-30T09:33:17Z</time>
      </trkpt>
      <trkpt lat="48.63634" lon="4.97368">
        <ele>144.4</ele>
        <time>2020-06-30T09:33:18Z</time>
      </trkpt>
      <trkpt lat="48.63632" lon="4.9736">
        <ele>144.4</ele>
        <time>2020-06-30T09:33:19Z</time>
      </trkpt>
      <trkpt lat="48.63631" lon="4.97353">
        <ele>144.3</ele>
        <time>2020-06-30T09:33:20Z</time>
      </trkpt>
      <trkpt lat="48.63629" lon="4.97346">
        <ele>144.3</ele>
        <time>2020-06-30T09:33:21Z</time>
      </trkpt>
      <trkpt lat="48.63627" lon="4.9734">
        <ele>144.4</ele>
        <time>2020-06-30T09:33:22Z</time>
      </trkpt>
      <trkpt lat="48.63625" lon="4.97333">
        <ele>144.5</ele>
        <time>2020-06-30T09:33:23Z</time>
      </trkpt>
      <trkpt lat="48.63623" lon="4.97327">
        <ele>144.6</ele>
        <time>2020-06-30T09:33:24Z</time>
      </trkpt>
      <trkpt lat="48.63621" lon="4.97322">
        <ele>144.7</ele>
        <time>2020-06-30T09:33:25Z</time>
      </trkpt>
      <trkpt lat="48.63619" lon="4.97318">
        <ele>144.8</ele>
        <time>2020-06-30T09:33:26Z</time>
      </trkpt>
      <trkpt lat="48.63617" lon="4.97313">
        <ele>144.9</ele>
        <time>2020-06-30T09:33:27Z</time>
      </trkpt>
      <trkpt lat="48.63615" lon="4.97309">
        <ele>145</ele>
        <time>2020-06-30T09:33:28Z</time>
      </trkpt>
      <trkpt lat="48.63615" lon="4.97304">
        <ele>145.1</ele>
        <time>2020-06-30T09:33:29Z</time>
      </trkpt>
      <trkpt lat="48.63616" lon="4.97299">
        <ele>145.3</ele>
        <time>2020-06-30T09:33:30Z</time>
      </trkpt>
      <trkpt lat="48.63617" lon="4.97294">
        <ele>145.3</ele>
        <time>2020-06-30T09:33:31Z</time>
      </trkpt>
      <trkpt lat="48.63618" lon="4.9729">
        <ele>145.4</ele>
        <time>2020-06-30T09:33:32Z</time>
      </trkpt>
      <trkpt lat="48.63618" lon="4.97285">
        <ele>145.5</ele>
        <time>2020-06-30T09:33:33Z</time>
      </trkpt>
      <trkpt lat="48.63618" lon="4.97283">
        <ele>145.4</ele>
        <time>2020-06-30T09:33:34Z</time>
      </trkpt>
      <trkpt lat="48.6362" lon="4.97278">
        <ele>145.4</ele>
        <time>2020-06-30T09:33:35Z</time>
      </trkpt>
      <trkpt lat="48.6362" lon="4.97276">
        <ele>145.4</ele>
        <time>2020-06-30T09:33:36Z</time>
      </trkpt>
      <trkpt lat="48.6362" lon="4.97275">
        <ele>145.4</ele>
        <time>2020-06-30T09:33:37Z</time>
      </trkpt>
      <trkpt lat="48.6362" lon="4.97275">
        <ele>145.4</ele>
        <time>2020-06-30T09:33:38Z</time>
      </trkpt>
      <trkpt lat="48.6362" lon="4.97275">
        <ele>145.4</ele>
        <time>2020-06-30T09:33:39Z</time>
      </trkpt>
      <trkpt lat="48.6362" lon="4.97274">
        <ele>145.4</ele>
        <time>2020-06-30T09:33:40Z</time>
      </trkpt>
      <trkpt lat="48.6362" lon="4.97274">
        <ele>145.4</ele>
        <time>2020-06-30T09:33:41Z</time>
      </trkpt>
      <trkpt lat="48.6362" lon="4.97274">
        <ele>145.4</ele>
        <time>2020-06-30T09:33:42Z</time>
      </trkpt>
      <trkpt lat="48.63621" lon="4.97274">
        <ele>145.4</ele>
        <time>2020-06-30T09:33:43Z</time>
      </trkpt>
      <trkpt lat="48.63621" lon="4.97274">
        <ele>145.4</ele>
        <time>2020-06-30T09:33:44Z</time>
      </trkpt>
      <trkpt lat="48.63621" lon="4.97274">
        <ele>145.4</ele>
        <time>2020-06-30T09:33:45Z</time>
      </trkpt>
      <trkpt lat="48.63621" lon="4.97274">
        <ele>145.4</ele>
        <time>2020-06-30T09:33:46Z</time>
      </trkpt>
      <trkpt lat="48.63621" lon="4.97274">
        <ele>145.4</ele>
        <time>2020-06-30T09:33:47Z</time>
      </trkpt>
      <trkpt lat="48.63621" lon="4.97274">
        <ele>145.4</ele>
        <time>2020-06-30T09:33:48Z</time>
      </trkpt>
      <trkpt lat="48.63621" lon="4.97274">
        <ele>145.4</ele>
        <time>2020-06-30T09:33:49Z</time>
      </trkpt>
      <trkpt lat="48.63622" lon="4.97274">
        <ele>145.4</ele>
        <time>2020-06-30T09:33:50Z</time>
      </trkpt>
      <trkpt lat="48.63621" lon="4.97274">
        <ele>145.4</ele>
        <time>2020-06-30T09:33:51Z</time>
      </trkpt>
      <trkpt lat="48.63621" lon="4.97274">
        <ele>145.4</ele>
        <time>2020-06-30T09:33:52Z</time>
      </trkpt>
      <trkpt lat="48.63621" lon="4.97273">
        <ele>145.4</ele>
        <time>2020-06-30T09:33:53Z</time>
      </trkpt>
      <trkpt lat="48.63621" lon="4.97273">
        <ele>145.4</ele>
        <time>2020-06-30T09:33:54Z</time>
      </trkpt>
      <trkpt lat="48.63622" lon="4.97271">
        <ele>145.4</ele>
        <time>2020-06-30T09:33:55Z</time>
      </trkpt>
      <trkpt lat="48.63622" lon="4.97269">
        <ele>145.4</ele>
        <time>2020-06-30T09:33:56Z</time>
      </trkpt>
      <trkpt lat="48.63622" lon="4.97268">
        <ele>145.4</ele>
        <time>2020-06-30T09:33:57Z</time>
      </trkpt>
      <trkpt lat="48.63622" lon="4.97266">
        <ele>145.4</ele>
        <time>2020-06-30T09:33:58Z</time>
      </trkpt>
      <trkpt lat="48.63622" lon="4.97264">
        <ele>145.4</ele>
        <time>2020-06-30T09:33:59Z</time>
      </trkpt>
      <trkpt lat="48.63623" lon="4.97263">
        <ele>145.4</ele>
        <time>2020-06-30T09:34:00Z</time>
      </trkpt>
      <trkpt lat="48.63623" lon="4.97261">
        <ele>145.4</ele>
        <time>2020-06-30T09:34:01Z</time>
      </trkpt>
      <trkpt lat="48.63623" lon="4.97259">
        <ele>145.4</ele>
        <time>2020-06-30T09:34:02Z</time>
      </trkpt>
      <trkpt lat="48.63623" lon="4.97258">
        <ele>145.4</ele>
        <time>2020-06-30T09:34:03Z</time>
      </trkpt>
      <trkpt lat="48.63623" lon="4.97256">
        <ele>145.4</ele>
        <time>2020-06-30T09:34:04Z</time>
      </trkpt>
      <trkpt lat="48.63623" lon="4.97254">
        <ele>145.4</ele>
        <time>2020-06-30T09:34:05Z</time>
      </trkpt>
      <trkpt lat="48.63624" lon="4.97253">
        <ele>145.4</ele>
        <time>2020-06-30T09:40:16Z</time>
      </trkpt>
      <trkpt lat="48.63624" lon="4.97251">
        <ele>145.4</ele>
        <time>2020-06-30T09:40:17Z</time>
      </trkpt>
      <trkpt lat="48.63625" lon="4.97247">
        <ele>145.4</ele>
        <time>2020-06-30T09:40:18Z</time>
      </trkpt>
      <trkpt lat="48.63627" lon="4.97243">
        <ele>145.4</ele>
        <time>2020-06-30T09:40:19Z</time>
      </trkpt>
      <trkpt lat="48.63628" lon="4.97238">
        <ele>145.5</ele>
        <time>2020-06-30T09:40:20Z</time>
      </trkpt>
      <trkpt lat="48.6363" lon="4.97233">
        <ele>145.5</ele>
        <time>2020-06-30T09:40:21Z</time>
      </trkpt>
      <trkpt lat="48.6363" lon="4.97228">
        <ele>145.5</ele>
        <time>2020-06-30T09:40:22Z</time>
      </trkpt>
      <trkpt lat="48.63629" lon="4.97222">
        <ele>145.6</ele>
        <time>2020-06-30T09:40:23Z</time>
      </trkpt>
      <trkpt lat="48.63628" lon="4.97217">
        <ele>145.8</ele>
        <time>2020-06-30T09:40:24Z</time>
      </trkpt>
      <trkpt lat="48.63628" lon="4.97211">
        <ele>146</ele>
        <time>2020-06-30T09:40:25Z</time>
      </trkpt>
      <trkpt lat="48.63627" lon="4.97205">
        <ele>146.2</ele>
        <time>2020-06-30T09:40:26Z</time>
      </trkpt>
      <trkpt lat="48.63627" lon="4.97199">
        <ele>146.5</ele>
        <time>2020-06-30T09:40:27Z</time>
      </trkpt>
      <trkpt lat="48.63627" lon="4.97194">
        <ele>146.7</ele>
        <time>2020-06-30T09:40:28Z</time>
      </trkpt>
      <trkpt lat="48.63627" lon="4.97189">
        <ele>146.9</ele>
        <time>2020-06-30T09:40:29Z</time>
      </trkpt>
      <trkpt lat="48.63627" lon="4.97184">
        <ele>147.1</ele>
        <time>2020-06-30T09:40:30Z</time>
      </trkpt>
      <trkpt lat="48.63626" lon="4.97179">
        <ele>147.4</ele>
        <time>2020-06-30T09:40:31Z</time>
      </trkpt>
      <trkpt lat="48.63626" lon="4.97174">
        <ele>147.6</ele>
        <time>2020-06-30T09:40:32Z</time>
      </trkpt>
      <trkpt lat="48.63625" lon="4.9717">
        <ele>147.8</ele>
        <time>2020-06-30T09:40:33Z</time>
      </trkpt>
      <trkpt lat="48.63625" lon="4.97165">
        <ele>148</ele>
        <time>2020-06-30T09:40:34Z</time>
      </trkpt>
      <trkpt lat="48.63625" lon="4.97161">
        <ele>148.2</ele>
        <time>2020-06-30T09:40:35Z</time>
      </trkpt>
      <trkpt lat="48.63625" lon="4.97157">
        <ele>148.4</ele>
        <time>2020-06-30T09:40:36Z</time>
      </trkpt>
      <trkpt lat="48.63624" lon="4.97151">
        <ele>148.7</ele>
        <time>2020-06-30T09:40:37Z</time>
      </trkpt>
      <trkpt lat="48.63624" lon="4.97149">
        <ele>148.8</ele>
        <time>2020-06-30T09:40:38Z</time>
      </trkpt>
      <trkpt lat="48.63624" lon="4.97145">
        <ele>149</ele>
        <time>2020-06-30T09:40:39Z</time>
      </trkpt>
      <trkpt lat="48.63623" lon="4.97141">
        <ele>149.3</ele>
        <time>2020-06-30T09:40:40Z</time>
      </trkpt>
      <trkpt lat="48.63622" lon="4.97136">
        <ele>149.5</ele>
        <time>2020-06-30T09:40:41Z</time>
      </trkpt>
      <trkpt lat="48.63622" lon="4.97134">
        <ele>149.6</ele>
        <time>2020-06-30T09:40:42Z</time>
      </trkpt>
      <trkpt lat="48.63622" lon="4.97131">
        <ele>149.8</ele>
        <time>2020-06-30T09:40:43Z</time>
      </trkpt>
      <trkpt lat="48.63621" lon="4.97129">
        <ele>149.9</ele>
        <time>2020-06-30T09:40:44Z</time>
      </trkpt>
      <trkpt lat="48.63621" lon="4.97124">
        <ele>150.1</ele>
        <time>2020-06-30T09:40:45Z</time>
      </trkpt>
      <trkpt lat="48.63621" lon="4.9712">
        <ele>150.3</ele>
        <time>2020-06-30T09:40:46Z</time>
      </trkpt>
      <trkpt lat="48.6362" lon="4.97116">
        <ele>150.5</ele>
        <time>2020-06-30T09:40:47Z</time>
      </trkpt>
      <trkpt lat="48.6362" lon="4.97114">
        <ele>150.5</ele>
        <time>2020-06-30T09:40:48Z</time>
      </trkpt>
      <trkpt lat="48.6362" lon="4.97113">
        <ele>150.6</ele>
        <time>2020-06-30T09:40:49Z</time>
      </trkpt>
      <trkpt lat="48.63619" lon="4.9711">
        <ele>150.7</ele>
        <time>2020-06-30T09:40:50Z</time>
      </trkpt>
      <trkpt lat="48.63619" lon="4.97105">
        <ele>150.9</ele>
        <time>2020-06-30T09:40:51Z</time>
      </trkpt>
      <trkpt lat="48.63619" lon="4.97103">
        <ele>151</ele>
        <time>2020-06-30T09:40:52Z</time>
      </trkpt>
      <trkpt lat="48.63619" lon="4.97097">
        <ele>151.2</ele>
        <time>2020-06-30T09:40:53Z</time>
      </trkpt>
      <trkpt lat="48.63619" lon="4.97095">
        <ele>151.2</ele>
        <time>2020-06-30T09:40:54Z</time>
      </trkpt>
      <trkpt lat="48.63619" lon="4.97089">
        <ele>151.4</ele>
        <time>2020-06-30T09:40:55Z</time>
      </trkpt>
      <trkpt lat="48.63619" lon="4.97087">
        <ele>151.5</ele>
        <time>2020-06-30T09:40:56Z</time>
      </trkpt>
      <trkpt lat="48.6362" lon="4.97082">
        <ele>151.6</ele>
        <time>2020-06-30T09:40:57Z</time>
      </trkpt>
      <trkpt lat="48.6362" lon="4.9708">
        <ele>151.6</ele>
        <time>2020-06-30T09:40:58Z</time>
      </trkpt>
      <trkpt lat="48.6362" lon="4.97076">
        <ele>151.7</ele>
        <time>2020-06-30T09:40:59Z</time>
      </trkpt>
      <trkpt lat="48.63621" lon="4.97071">
        <ele>151.8</ele>
        <time>2020-06-30T09:41:00Z</time>
      </trkpt>
      <trkpt lat="48.6362" lon="4.97067">
        <ele>151.9</ele>
        <time>2020-06-30T09:41:01Z</time>
      </trkpt>
      <trkpt lat="48.63619" lon="4.97063">
        <ele>151.9</ele>
        <time>2020-06-30T09:41:02Z</time>
      </trkpt>
      <trkpt lat="48.63619" lon="4.97057">
        <ele>152</ele>
        <time>2020-06-30T09:41:03Z</time>
      </trkpt>
      <trkpt lat="48.63619" lon="4.97052">
        <ele>152.1</ele>
        <time>2020-06-30T09:41:04Z</time>
      </trkpt>
      <trkpt lat="48.63619" lon="4.97048">
        <ele>152.1</ele>
        <time>2020-06-30T09:41:05Z</time>
      </trkpt>
      <trkpt lat="48.63619" lon="4.97043">
        <ele>152.1</ele>
        <time>2020-06-30T09:41:06Z</time>
      </trkpt>
      <trkpt lat="48.63619" lon="4.97038">
        <ele>152.1</ele>
        <time>2020-06-30T09:41:07Z</time>
      </trkpt>
      <trkpt lat="48.63619" lon="4.97032">
        <ele>152.1</ele>
        <time>2020-06-30T09:41:08Z</time>
      </trkpt>
      <trkpt lat="48.63619" lon="4.97027">
        <ele>152.1</ele>
        <time>2020-06-30T09:41:09Z</time>
      </trkpt>
      <trkpt lat="48.63619" lon="4.97022">
        <ele>152</ele>
        <time>2020-06-30T09:41:10Z</time>
      </trkpt>
      <trkpt lat="48.63619" lon="4.97016">
        <ele>151.9</ele>
        <time>2020-06-30T09:41:11Z</time>
      </trkpt>
      <trkpt lat="48.63618" lon="4.9701">
        <ele>151.8</ele>
        <time>2020-06-30T09:41:12Z</time>
      </trkpt>
      <trkpt lat="48.63617" lon="4.97005">
        <ele>151.6</ele>
        <time>2020-06-30T09:41:13Z</time>
      </trkpt>
      <trkpt lat="48.63619" lon="4.96998">
        <ele>151.4</ele>
        <time>2020-06-30T09:41:14Z</time>
      </trkpt>
      <trkpt lat="48.63618" lon="4.96992">
        <ele>151.2</ele>
        <time>2020-06-30T09:41:15Z</time>
      </trkpt>
      <trkpt lat="48.63616" lon="4.96985">
        <ele>150.9</ele>
        <time>2020-06-30T09:41:16Z</time>
      </trkpt>
      <trkpt lat="48.63615" lon="4.96978">
        <ele>150.5</ele>
        <time>2020-06-30T09:41:17Z</time>
      </trkpt>
      <trkpt lat="48.63614" lon="4.96968">
        <ele>150.1</ele>
        <time>2020-06-30T09:41:18Z</time>
      </trkpt>
      <trkpt lat="48.63613" lon="4.96959">
        <ele>149.5</ele>
        <time>2020-06-30T09:41:19Z</time>
      </trkpt>
      <trkpt lat="48.63614" lon="4.96948">
        <ele>149.1</ele>
        <time>2020-06-30T09:41:20Z</time>
      </trkpt>
      <trkpt lat="48.63613" lon="4.96938">
        <ele>148.5</ele>
        <time>2020-06-30T09:41:21Z</time>
      </trkpt>
      <trkpt lat="48.63612" lon="4.96929">
        <ele>148</ele>
        <time>2020-06-30T09:41:22Z</time>
      </trkpt>
      <trkpt lat="48.63612" lon="4.96917">
        <ele>147.4</ele>
        <time>2020-06-30T09:41:23Z</time>
      </trkpt>
      <trkpt lat="48.63611" lon="4.96904">
        <ele>146.7</ele>
        <time>2020-06-30T09:41:24Z</time>
      </trkpt>
      <trkpt lat="48.6361" lon="4.96889">
        <ele>146.2</ele>
        <time>2020-06-30T09:41:25Z</time>
      </trkpt>
      <trkpt lat="48.63609" lon="4.96875">
        <ele>145.7</ele>
        <time>2020-06-30T09:41:26Z</time>
      </trkpt>
      <trkpt lat="48.63608" lon="4.96861">
        <ele>145.2</ele>
        <time>2020-06-30T09:41:27Z</time>
      </trkpt>
      <trkpt lat="48.63607" lon="4.96848">
        <ele>145.1</ele>
        <time>2020-06-30T09:41:28Z</time>
      </trkpt>
      <trkpt lat="48.63607" lon="4.96836">
        <ele>145</ele>
        <time>2020-06-30T09:41:29Z</time>
      </trkpt>
      <trkpt lat="48.63606" lon="4.96824">
        <ele>144.9</ele>
        <time>2020-06-30T09:41:30Z</time>
      </trkpt>
      <trkpt lat="48.63606" lon="4.96812">
        <ele>144.9</ele>
        <time>2020-06-30T09:41:31Z</time>
      </trkpt>
      <trkpt lat="48.63605" lon="4.96801">
        <ele>144.9</ele>
        <time>2020-06-30T09:41:32Z</time>
      </trkpt>
      <trkpt lat="48.63605" lon="4.96791">
        <ele>144.9</ele>
        <time>2020-06-30T09:41:33Z</time>
      </trkpt>
      <trkpt lat="48.63605" lon="4.9678">
        <ele>144.9</ele>
        <time>2020-06-30T09:41:34Z</time>
      </trkpt>
      <trkpt lat="48.63604" lon="4.96771">
        <ele>144.9</ele>
        <time>2020-06-30T09:41:35Z</time>
      </trkpt>
      <trkpt lat="48.63604" lon="4.96761">
        <ele>144.9</ele>
        <time>2020-06-30T09:41:36Z</time>
      </trkpt>
      <trkpt lat="48.63603" lon="4.96752">
        <ele>145</ele>
        <time>2020-06-30T09:41:37Z</time>
      </trkpt>
      <trkpt lat="48.63602" lon="4.96743">
        <ele>145</ele>
        <time>2020-06-30T09:41:38Z</time>
      </trkpt>
      <trkpt lat="48.63602" lon="4.96734">
        <ele>145.1</ele>
        <time>2020-06-30T09:41:39Z</time>
      </trkpt>
      <trkpt lat="48.63601" lon="4.96726">
        <ele>145.2</ele>
        <time>2020-06-30T09:41:40Z</time>
      </trkpt>
      <trkpt lat="48.636" lon="4.96717">
        <ele>145.3</ele>
        <time>2020-06-30T09:41:41Z</time>
      </trkpt>
      <trkpt lat="48.636" lon="4.96709">
        <ele>145.4</ele>
        <time>2020-06-30T09:41:42Z</time>
      </trkpt>
      <trkpt lat="48.63599" lon="4.96701">
        <ele>145.5</ele>
        <time>2020-06-30T09:41:43Z</time>
      </trkpt>
      <trkpt lat="48.63599" lon="4.96692">
        <ele>145.6</ele>
        <time>2020-06-30T09:41:44Z</time>
      </trkpt>
      <trkpt lat="48.63599" lon="4.96683">
        <ele>145.8</ele>
        <time>2020-06-30T09:41:45Z</time>
      </trkpt>
      <trkpt lat="48.63598" lon="4.96675">
        <ele>145.9</ele>
        <time>2020-06-30T09:41:46Z</time>
      </trkpt>
      <trkpt lat="48.63597" lon="4.96667">
        <ele>146.1</ele>
        <time>2020-06-30T09:41:47Z</time>
      </trkpt>
      <trkpt lat="48.63597" lon="4.96659">
        <ele>146.2</ele>
        <time>2020-06-30T09:41:48Z</time>
      </trkpt>
      <trkpt lat="48.63596" lon="4.96652">
        <ele>146.4</ele>
        <time>2020-06-30T09:41:49Z</time>
      </trkpt>
      <trkpt lat="48.63595" lon="4.96644">
        <ele>146.6</ele>
        <time>2020-06-30T09:41:50Z</time>
      </trkpt>
      <trkpt lat="48.63595" lon="4.96637">
        <ele>146.7</ele>
        <time>2020-06-30T09:41:51Z</time>
      </trkpt>
      <trkpt lat="48.63595" lon="4.96629">
        <ele>146.8</ele>
        <time>2020-06-30T09:41:52Z</time>
      </trkpt>
      <trkpt lat="48.63594" lon="4.96621">
        <ele>146.9</ele>
        <time>2020-06-30T09:41:53Z</time>
      </trkpt>
      <trkpt lat="48.63594" lon="4.96614">
        <ele>147</ele>
        <time>2020-06-30T09:41:54Z</time>
      </trkpt>
      <trkpt lat="48.63593" lon="4.96607">
        <ele>147.1</ele>
        <time>2020-06-30T09:41:55Z</time>
      </trkpt>
      <trkpt lat="48.63594" lon="4.966">
        <ele>147.2</ele>
        <time>2020-06-30T09:41:56Z</time>
      </trkpt>
      <trkpt lat="48.63594" lon="4.96593">
        <ele>147.3</ele>
        <time>2020-06-30T09:41:57Z</time>
      </trkpt>
      <trkpt lat="48.63593" lon="4.96586">
        <ele>147.4</ele>
        <time>2020-06-30T09:41:58Z</time>
      </trkpt>
      <trkpt lat="48.63593" lon="4.96578">
        <ele>147.5</ele>
        <time>2020-06-30T09:41:59Z</time>
      </trkpt>
      <trkpt lat="48.63592" lon="4.96572">
        <ele>147.6</ele>
        <time>2020-06-30T09:42:00Z</time>
      </trkpt>
      <trkpt lat="48.63592" lon="4.96565">
        <ele>147.7</ele>
        <time>2020-06-30T09:42:01Z</time>
      </trkpt>
      <trkpt lat="48.63592" lon="4.96558">
        <ele>147.8</ele>
        <time>2020-06-30T09:42:02Z</time>
      </trkpt>
      <trkpt lat="48.63591" lon="4.9655">
        <ele>147.8</ele>
        <time>2020-06-30T09:42:03Z</time>
      </trkpt>
      <trkpt lat="48.63591" lon="4.96543">
        <ele>148</ele>
        <time>2020-06-30T09:42:04Z</time>
      </trkpt>
      <trkpt lat="48.6359" lon="4.96535">
        <ele>148</ele>
        <time>2020-06-30T09:42:05Z</time>
      </trkpt>
      <trkpt lat="48.6359" lon="4.96529">
        <ele>148.1</ele>
        <time>2020-06-30T09:42:06Z</time>
      </trkpt>
      <trkpt lat="48.6359" lon="4.9652">
        <ele>148.3</ele>
        <time>2020-06-30T09:42:07Z</time>
      </trkpt>
      <trkpt lat="48.6359" lon="4.96513">
        <ele>148.3</ele>
        <time>2020-06-30T09:42:08Z</time>
      </trkpt>
      <trkpt lat="48.63588" lon="4.96506">
        <ele>148.4</ele>
        <time>2020-06-30T09:42:09Z</time>
      </trkpt>
      <trkpt lat="48.63587" lon="4.96499">
        <ele>148.4</ele>
        <time>2020-06-30T09:42:10Z</time>
      </trkpt>
      <trkpt lat="48.63585" lon="4.96494">
        <ele>148.4</ele>
        <time>2020-06-30T09:42:11Z</time>
      </trkpt>
      <trkpt lat="48.63585" lon="4.96489">
        <ele>148.4</ele>
        <time>2020-06-30T09:42:12Z</time>
      </trkpt>
      <trkpt lat="48.63584" lon="4.96482">
        <ele>148.5</ele>
        <time>2020-06-30T09:42:13Z</time>
      </trkpt>
      <trkpt lat="48.63583" lon="4.96476">
        <ele>148.5</ele>
        <time>2020-06-30T09:42:14Z</time>
      </trkpt>
      <trkpt lat="48.63582" lon="4.96471">
        <ele>148.5</ele>
        <time>2020-06-30T09:42:15Z</time>
      </trkpt>
      <trkpt lat="48.63581" lon="4.96465">
        <ele>148.5</ele>
        <time>2020-06-30T09:42:16Z</time>
      </trkpt>
      <trkpt lat="48.63578" lon="4.9646">
        <ele>148.4</ele>
        <time>2020-06-30T09:42:17Z</time>
      </trkpt>
      <trkpt lat="48.63575" lon="4.96456">
        <ele>148.4</ele>
        <time>2020-06-30T09:42:18Z</time>
      </trkpt>
      <trkpt lat="48.63571" lon="4.96453">
        <ele>147.7</ele>
        <time>2020-06-30T09:42:19Z</time>
      </trkpt>
      <trkpt lat="48.63566" lon="4.96454">
        <ele>147.5</ele>
        <time>2020-06-30T09:42:20Z</time>
      </trkpt>
      <trkpt lat="48.63562" lon="4.96457">
        <ele>147.3</ele>
        <time>2020-06-30T09:42:21Z</time>
      </trkpt>
      <trkpt lat="48.63558" lon="4.9646">
        <ele>146.9</ele>
        <time>2020-06-30T09:42:22Z</time>
      </trkpt>
      <trkpt lat="48.63554" lon="4.96463">
        <ele>146.8</ele>
        <time>2020-06-30T09:42:23Z</time>
      </trkpt>
      <trkpt lat="48.6355" lon="4.96468">
        <ele>146.6</ele>
        <time>2020-06-30T09:42:24Z</time>
      </trkpt>
      <trkpt lat="48.63547" lon="4.96474">
        <ele>146.4</ele>
        <time>2020-06-30T09:42:25Z</time>
      </trkpt>
      <trkpt lat="48.63545" lon="4.96482">
        <ele>146.2</ele>
        <time>2020-06-30T09:42:26Z</time>
      </trkpt>
      <trkpt lat="48.6354" lon="4.96487">
        <ele>145.9</ele>
        <time>2020-06-30T09:42:27Z</time>
      </trkpt>
      <trkpt lat="48.63535" lon="4.96493">
        <ele>145.6</ele>
        <time>2020-06-30T09:42:28Z</time>
      </trkpt>
      <trkpt lat="48.6353" lon="4.965">
        <ele>145.4</ele>
        <time>2020-06-30T09:42:29Z</time>
      </trkpt>
      <trkpt lat="48.63526" lon="4.96506">
        <ele>145.1</ele>
        <time>2020-06-30T09:42:30Z</time>
      </trkpt>
      <trkpt lat="48.63521" lon="4.96512">
        <ele>144.9</ele>
        <time>2020-06-30T09:42:31Z</time>
      </trkpt>
      <trkpt lat="48.63518" lon="4.9652">
        <ele>144.7</ele>
        <time>2020-06-30T09:42:32Z</time>
      </trkpt>
      <trkpt lat="48.63514" lon="4.96527">
        <ele>144.6</ele>
        <time>2020-06-30T09:42:33Z</time>
      </trkpt>
      <trkpt lat="48.63509" lon="4.96534">
        <ele>144.5</ele>
        <time>2020-06-30T09:42:34Z</time>
      </trkpt>
      <trkpt lat="48.63504" lon="4.96545">
        <ele>144.3</ele>
        <time>2020-06-30T09:42:35Z</time>
      </trkpt>
      <trkpt lat="48.635" lon="4.96555">
        <ele>144.2</ele>
        <time>2020-06-30T09:42:36Z</time>
      </trkpt>
      <trkpt lat="48.63498" lon="4.96566">
        <ele>144.2</ele>
        <time>2020-06-30T09:42:37Z</time>
      </trkpt>
      <trkpt lat="48.63496" lon="4.96575">
        <ele>144.1</ele>
        <time>2020-06-30T09:42:38Z</time>
      </trkpt>
      <trkpt lat="48.63494" lon="4.96584">
        <ele>143.9</ele>
        <time>2020-06-30T09:42:39Z</time>
      </trkpt>
      <trkpt lat="48.63492" lon="4.96595">
        <ele>143.8</ele>
        <time>2020-06-30T09:42:40Z</time>
      </trkpt>
      <trkpt lat="48.6349" lon="4.96604">
        <ele>143.7</ele>
        <time>2020-06-30T09:42:41Z</time>
      </trkpt>
      <trkpt lat="48.63488" lon="4.96614">
        <ele>143.6</ele>
        <time>2020-06-30T09:42:42Z</time>
      </trkpt>
      <trkpt lat="48.63486" lon="4.96623">
        <ele>143.5</ele>
        <time>2020-06-30T09:42:43Z</time>
      </trkpt>
      <trkpt lat="48.63485" lon="4.96633">
        <ele>143.5</ele>
        <time>2020-06-30T09:42:44Z</time>
      </trkpt>
      <trkpt lat="48.63483" lon="4.96643">
        <ele>143.4</ele>
        <time>2020-06-30T09:42:45Z</time>
      </trkpt>
      <trkpt lat="48.6348" lon="4.96654">
        <ele>143.3</ele>
        <time>2020-06-30T09:42:46Z</time>
      </trkpt>
      <trkpt lat="48.63478" lon="4.96663">
        <ele>143.3</ele>
        <time>2020-06-30T09:42:47Z</time>
      </trkpt>
      <trkpt lat="48.63476" lon="4.96673">
        <ele>143.3</ele>
        <time>2020-06-30T09:42:48Z</time>
      </trkpt>
      <trkpt lat="48.63474" lon="4.96684">
        <ele>143.3</ele>
        <time>2020-06-30T09:42:49Z</time>
      </trkpt>
      <trkpt lat="48.63472" lon="4.96694">
        <ele>143.3</ele>
        <time>2020-06-30T09:42:50Z</time>
      </trkpt>
      <trkpt lat="48.6347" lon="4.96703">
        <ele>143.3</ele>
        <time>2020-06-30T09:42:51Z</time>
      </trkpt>
      <trkpt lat="48.63468" lon="4.96713">
        <ele>143.3</ele>
        <time>2020-06-30T09:42:52Z</time>
      </trkpt>
      <trkpt lat="48.63465" lon="4.96722">
        <ele>143.4</ele>
        <time>2020-06-30T09:42:53Z</time>
      </trkpt>
      <trkpt lat="48.63463" lon="4.96732">
        <ele>143.4</ele>
        <time>2020-06-30T09:42:54Z</time>
      </trkpt>
      <trkpt lat="48.63461" lon="4.96741">
        <ele>143.4</ele>
        <time>2020-06-30T09:42:55Z</time>
      </trkpt>
      <trkpt lat="48.63459" lon="4.96751">
        <ele>143.4</ele>
        <time>2020-06-30T09:42:56Z</time>
      </trkpt>
      <trkpt lat="48.63457" lon="4.9676">
        <ele>143.4</ele>
        <time>2020-06-30T09:42:57Z</time>
      </trkpt>
      <trkpt lat="48.63455" lon="4.96769">
        <ele>143.4</ele>
        <time>2020-06-30T09:42:58Z</time>
      </trkpt>
      <trkpt lat="48.63453" lon="4.96778">
        <ele>143.3</ele>
        <time>2020-06-30T09:42:59Z</time>
      </trkpt>
      <trkpt lat="48.63451" lon="4.96787">
        <ele>143.3</ele>
        <time>2020-06-30T09:43:00Z</time>
      </trkpt>
      <trkpt lat="48.63449" lon="4.96797">
        <ele>143.3</ele>
        <time>2020-06-30T09:43:01Z</time>
      </trkpt>
      <trkpt lat="48.63447" lon="4.96806">
        <ele>143.3</ele>
        <time>2020-06-30T09:43:02Z</time>
      </trkpt>
      <trkpt lat="48.63444" lon="4.96816">
        <ele>143.3</ele>
        <time>2020-06-30T09:43:03Z</time>
      </trkpt>
      <trkpt lat="48.63442" lon="4.96825">
        <ele>143.3</ele>
        <time>2020-06-30T09:43:04Z</time>
      </trkpt>
      <trkpt lat="48.6344" lon="4.96834">
        <ele>143.3</ele>
        <time>2020-06-30T09:43:05Z</time>
      </trkpt>
      <trkpt lat="48.63439" lon="4.96843">
        <ele>143.3</ele>
        <time>2020-06-30T09:43:06Z</time>
      </trkpt>
      <trkpt lat="48.63437" lon="4.96852">
        <ele>143.3</ele>
        <time>2020-06-30T09:43:07Z</time>
      </trkpt>
      <trkpt lat="48.63435" lon="4.96861">
        <ele>143.3</ele>
        <time>2020-06-30T09:43:08Z</time>
      </trkpt>
      <trkpt lat="48.63434" lon="4.96869">
        <ele>143.3</ele>
        <time>2020-06-30T09:43:09Z</time>
      </trkpt>
      <trkpt lat="48.63432" lon="4.96878">
        <ele>143.4</ele>
        <time>2020-06-30T09:43:10Z</time>
      </trkpt>
      <trkpt lat="48.6343" lon="4.96887">
        <ele>143.4</ele>
        <time>2020-06-30T09:43:11Z</time>
      </trkpt>
      <trkpt lat="48.63429" lon="4.96896">
        <ele>143.5</ele>
        <time>2020-06-30T09:43:12Z</time>
      </trkpt>
      <trkpt lat="48.63427" lon="4.96904">
        <ele>143.6</ele>
        <time>2020-06-30T09:43:13Z</time>
      </trkpt>
      <trkpt lat="48.63425" lon="4.96912">
        <ele>143.7</ele>
        <time>2020-06-30T09:43:14Z</time>
      </trkpt>
      <trkpt lat="48.63424" lon="4.9692">
        <ele>143.7</ele>
        <time>2020-06-30T09:43:15Z</time>
      </trkpt>
      <trkpt lat="48.63423" lon="4.96928">
        <ele>143.8</ele>
        <time>2020-06-30T09:43:16Z</time>
      </trkpt>
      <trkpt lat="48.63421" lon="4.96936">
        <ele>143.9</ele>
        <time>2020-06-30T09:43:17Z</time>
      </trkpt>
      <trkpt lat="48.63418" lon="4.9694">
        <ele>143.9</ele>
        <time>2020-06-30T09:43:18Z</time>
      </trkpt>
      <trkpt lat="48.63414" lon="4.96943">
        <ele>143.9</ele>
        <time>2020-06-30T09:43:19Z</time>
      </trkpt>
      <trkpt lat="48.63409" lon="4.96938">
        <ele>143.8</ele>
        <time>2020-06-30T09:43:20Z</time>
      </trkpt>
      <trkpt lat="48.63405" lon="4.96933">
        <ele>143.7</ele>
        <time>2020-06-30T09:43:21Z</time>
      </trkpt>
      <trkpt lat="48.63401" lon="4.96927">
        <ele>143.7</ele>
        <time>2020-06-30T09:43:22Z</time>
      </trkpt>
      <trkpt lat="48.63397" lon="4.96922">
        <ele>143.6</ele>
        <time>2020-06-30T09:43:23Z</time>
      </trkpt>
      <trkpt lat="48.63391" lon="4.96919">
        <ele>143.6</ele>
        <time>2020-06-30T09:43:24Z</time>
      </trkpt>
      <trkpt lat="48.63385" lon="4.96915">
        <ele>143.6</ele>
        <time>2020-06-30T09:43:25Z</time>
      </trkpt>
      <trkpt lat="48.6338" lon="4.96911">
        <ele>143.5</ele>
        <time>2020-06-30T09:43:26Z</time>
      </trkpt>
      <trkpt lat="48.63374" lon="4.96906">
        <ele>143.5</ele>
        <time>2020-06-30T09:43:27Z</time>
      </trkpt>
      <trkpt lat="48.63369" lon="4.96902">
        <ele>143.5</ele>
        <time>2020-06-30T09:43:28Z</time>
      </trkpt>
      <trkpt lat="48.63364" lon="4.96898">
        <ele>143.5</ele>
        <time>2020-06-30T09:43:29Z</time>
      </trkpt>
      <trkpt lat="48.63358" lon="4.96894">
        <ele>143.5</ele>
        <time>2020-06-30T09:43:30Z</time>
      </trkpt>
      <trkpt lat="48.63352" lon="4.96889">
        <ele>143.5</ele>
        <time>2020-06-30T09:43:31Z</time>
      </trkpt>
      <trkpt lat="48.63347" lon="4.96885">
        <ele>143.5</ele>
        <time>2020-06-30T09:43:32Z</time>
      </trkpt>
      <trkpt lat="48.63341" lon="4.96882">
        <ele>143.5</ele>
        <time>2020-06-30T09:43:33Z</time>
      </trkpt>
      <trkpt lat="48.63334" lon="4.96879">
        <ele>143.5</ele>
        <time>2020-06-30T09:43:34Z</time>
      </trkpt>
      <trkpt lat="48.63328" lon="4.96876">
        <ele>143.5</ele>
        <time>2020-06-30T09:43:35Z</time>
      </trkpt>
      <trkpt lat="48.63322" lon="4.96872">
        <ele>143.5</ele>
        <time>2020-06-30T09:43:36Z</time>
      </trkpt>
      <trkpt lat="48.63316" lon="4.96868">
        <ele>143.4</ele>
        <time>2020-06-30T09:43:37Z</time>
      </trkpt>
      <trkpt lat="48.6331" lon="4.96864">
        <ele>143.4</ele>
        <time>2020-06-30T09:43:38Z</time>
      </trkpt>
      <trkpt lat="48.63305" lon="4.96861">
        <ele>143.4</ele>
        <time>2020-06-30T09:43:39Z</time>
      </trkpt>
      <trkpt lat="48.63299" lon="4.96858">
        <ele>143.3</ele>
        <time>2020-06-30T09:43:40Z</time>
      </trkpt>
      <trkpt lat="48.63293" lon="4.96855">
        <ele>143.3</ele>
        <time>2020-06-30T09:43:41Z</time>
      </trkpt>
      <trkpt lat="48.63287" lon="4.96851">
        <ele>143.2</ele>
        <time>2020-06-30T09:43:42Z</time>
      </trkpt>
      <trkpt lat="48.6328" lon="4.96849">
        <ele>143.1</ele>
        <time>2020-06-30T09:43:43Z</time>
      </trkpt>
      <trkpt lat="48.63274" lon="4.96846">
        <ele>143.1</ele>
        <time>2020-06-30T09:43:44Z</time>
      </trkpt>
      <trkpt lat="48.63268" lon="4.96842">
        <ele>143</ele>
        <time>2020-06-30T09:43:45Z</time>
      </trkpt>
      <trkpt lat="48.63262" lon="4.96839">
        <ele>143</ele>
        <time>2020-06-30T09:43:46Z</time>
      </trkpt>
      <trkpt lat="48.63257" lon="4.96836">
        <ele>143</ele>
        <time>2020-06-30T09:43:47Z</time>
      </trkpt>
      <trkpt lat="48.63251" lon="4.96833">
        <ele>142.9</ele>
        <time>2020-06-30T09:43:48Z</time>
      </trkpt>
      <trkpt lat="48.63245" lon="4.96831">
        <ele>142.9</ele>
        <time>2020-06-30T09:43:49Z</time>
      </trkpt>
      <trkpt lat="48.63239" lon="4.96828">
        <ele>142.9</ele>
        <time>2020-06-30T09:43:50Z</time>
      </trkpt>
      <trkpt lat="48.63233" lon="4.96825">
        <ele>142.9</ele>
        <time>2020-06-30T09:43:51Z</time>
      </trkpt>
      <trkpt lat="48.63227" lon="4.96823">
        <ele>142.9</ele>
        <time>2020-06-30T09:43:52Z</time>
      </trkpt>
      <trkpt lat="48.6322" lon="4.96821">
        <ele>142.9</ele>
        <time>2020-06-30T09:43:53Z</time>
      </trkpt>
      <trkpt lat="48.63214" lon="4.96819">
        <ele>142.9</ele>
        <time>2020-06-30T09:43:54Z</time>
      </trkpt>
      <trkpt lat="48.63208" lon="4.96816">
        <ele>142.8</ele>
        <time>2020-06-30T09:43:55Z</time>
      </trkpt>
      <trkpt lat="48.63201" lon="4.96814">
        <ele>142.8</ele>
        <time>2020-06-30T09:43:56Z</time>
      </trkpt>
      <trkpt lat="48.63195" lon="4.96811">
        <ele>142.8</ele>
        <time>2020-06-30T09:43:57Z</time>
      </trkpt>
      <trkpt lat="48.63188" lon="4.96809">
        <ele>142.8</ele>
        <time>2020-06-30T09:43:58Z</time>
      </trkpt>
      <trkpt lat="48.63182" lon="4.96806">
        <ele>142.8</ele>
        <time>2020-06-30T09:43:59Z</time>
      </trkpt>
      <trkpt lat="48.63176" lon="4.96803">
        <ele>142.8</ele>
        <time>2020-06-30T09:44:00Z</time>
      </trkpt>
      <trkpt lat="48.6317" lon="4.96801">
        <ele>142.8</ele>
        <time>2020-06-30T09:44:01Z</time>
      </trkpt>
      <trkpt lat="48.63164" lon="4.96799">
        <ele>142.8</ele>
        <time>2020-06-30T09:44:02Z</time>
      </trkpt>
      <trkpt lat="48.63158" lon="4.96796">
        <ele>142.8</ele>
        <time>2020-06-30T09:44:03Z</time>
      </trkpt>
      <trkpt lat="48.63152" lon="4.96795">
        <ele>142.7</ele>
        <time>2020-06-30T09:44:04Z</time>
      </trkpt>
      <trkpt lat="48.63147" lon="4.96793">
        <ele>142.7</ele>
        <time>2020-06-30T09:44:05Z</time>
      </trkpt>
      <trkpt lat="48.63141" lon="4.96791">
        <ele>142.7</ele>
        <time>2020-06-30T09:44:06Z</time>
      </trkpt>
      <trkpt lat="48.63135" lon="4.96789">
        <ele>142.8</ele>
        <time>2020-06-30T09:44:07Z</time>
      </trkpt>
      <trkpt lat="48.63129" lon="4.96787">
        <ele>142.8</ele>
        <time>2020-06-30T09:44:08Z</time>
      </trkpt>
      <trkpt lat="48.63123" lon="4.96784">
        <ele>142.8</ele>
        <time>2020-06-30T09:44:09Z</time>
      </trkpt>
      <trkpt lat="48.63117" lon="4.96781">
        <ele>142.8</ele>
        <time>2020-06-30T09:44:10Z</time>
      </trkpt>
      <trkpt lat="48.63111" lon="4.96779">
        <ele>142.8</ele>
        <time>2020-06-30T09:44:11Z</time>
      </trkpt>
      <trkpt lat="48.63105" lon="4.96776">
        <ele>142.8</ele>
        <time>2020-06-30T09:44:12Z</time>
      </trkpt>
      <trkpt lat="48.631" lon="4.96772">
        <ele>142.7</ele>
        <time>2020-06-30T09:44:13Z</time>
      </trkpt>
      <trkpt lat="48.63094" lon="4.96771">
        <ele>142.7</ele>
        <time>2020-06-30T09:44:14Z</time>
      </trkpt>
      <trkpt lat="48.63088" lon="4.96769">
        <ele>142.7</ele>
        <time>2020-06-30T09:44:15Z</time>
      </trkpt>
      <trkpt lat="48.63082" lon="4.96766">
        <ele>142.7</ele>
        <time>2020-06-30T09:44:16Z</time>
      </trkpt>
      <trkpt lat="48.63077" lon="4.96765">
        <ele>142.8</ele>
        <time>2020-06-30T09:44:17Z</time>
      </trkpt>
      <trkpt lat="48.63071" lon="4.96762">
        <ele>142.8</ele>
        <time>2020-06-30T09:44:18Z</time>
      </trkpt>
      <trkpt lat="48.63067" lon="4.96759">
        <ele>142.8</ele>
        <time>2020-06-30T09:44:19Z</time>
      </trkpt>
      <trkpt lat="48.63062" lon="4.96757">
        <ele>142.9</ele>
        <time>2020-06-30T09:44:20Z</time>
      </trkpt>
      <trkpt lat="48.63057" lon="4.96755">
        <ele>142.9</ele>
        <time>2020-06-30T09:44:21Z</time>
      </trkpt>
      <trkpt lat="48.63052" lon="4.96752">
        <ele>142.9</ele>
        <time>2020-06-30T09:44:22Z</time>
      </trkpt>
      <trkpt lat="48.63048" lon="4.9675">
        <ele>143</ele>
        <time>2020-06-30T09:44:23Z</time>
      </trkpt>
      <trkpt lat="48.63045" lon="4.96749">
        <ele>143</ele>
        <time>2020-06-30T09:44:24Z</time>
      </trkpt>
      <trkpt lat="48.63042" lon="4.96747">
        <ele>143.3</ele>
        <time>2020-06-30T09:44:25Z</time>
      </trkpt>
      <trkpt lat="48.63039" lon="4.96745">
        <ele>143.3</ele>
        <time>2020-06-30T09:44:26Z</time>
      </trkpt>
      <trkpt lat="48.63038" lon="4.96745">
        <ele>143.3</ele>
        <time>2020-06-30T09:44:27Z</time>
      </trkpt>
      <trkpt lat="48.63035" lon="4.96749">
        <ele>143.3</ele>
        <time>2020-06-30T09:44:28Z</time>
      </trkpt>
      <trkpt lat="48.63034" lon="4.96751">
        <ele>143.1</ele>
        <time>2020-06-30T09:44:29Z</time>
      </trkpt>
      <trkpt lat="48.63032" lon="4.96755">
        <ele>143</ele>
        <time>2020-06-30T09:44:30Z</time>
      </trkpt>
      <trkpt lat="48.63031" lon="4.9676">
        <ele>143</ele>
        <time>2020-06-30T09:44:31Z</time>
      </trkpt>
      <trkpt lat="48.63029" lon="4.96764">
        <ele>142.9</ele>
        <time>2020-06-30T09:44:32Z</time>
      </trkpt>
      <trkpt lat="48.63028" lon="4.96769">
        <ele>142.9</ele>
        <time>2020-06-30T09:44:33Z</time>
      </trkpt>
      <trkpt lat="48.63027" lon="4.96774">
        <ele>142.9</ele>
        <time>2020-06-30T09:44:34Z</time>
      </trkpt>
      <trkpt lat="48.63024" lon="4.96779">
        <ele>142.9</ele>
        <time>2020-06-30T09:44:35Z</time>
      </trkpt>
      <trkpt lat="48.63023" lon="4.96784">
        <ele>142.9</ele>
        <time>2020-06-30T09:44:36Z</time>
      </trkpt>
      <trkpt lat="48.63021" lon="4.9679">
        <ele>142.9</ele>
        <time>2020-06-30T09:44:37Z</time>
      </trkpt>
      <trkpt lat="48.63019" lon="4.96795">
        <ele>142.9</ele>
        <time>2020-06-30T09:44:38Z</time>
      </trkpt>
      <trkpt lat="48.63018" lon="4.96801">
        <ele>143</ele>
        <time>2020-06-30T09:44:39Z</time>
      </trkpt>
      <trkpt lat="48.63017" lon="4.96807">
        <ele>143</ele>
        <time>2020-06-30T09:44:40Z</time>
      </trkpt>
      <trkpt lat="48.63015" lon="4.96814">
        <ele>143.1</ele>
        <time>2020-06-30T09:44:41Z</time>
      </trkpt>
      <trkpt lat="48.63014" lon="4.96822">
        <ele>143.1</ele>
        <time>2020-06-30T09:44:42Z</time>
      </trkpt>
      <trkpt lat="48.63012" lon="4.96829">
        <ele>143.2</ele>
        <time>2020-06-30T09:44:43Z</time>
      </trkpt>
      <trkpt lat="48.6301" lon="4.96836">
        <ele>143.3</ele>
        <time>2020-06-30T09:44:44Z</time>
      </trkpt>
      <trkpt lat="48.63008" lon="4.96843">
        <ele>143.3</ele>
        <time>2020-06-30T09:44:45Z</time>
      </trkpt>
      <trkpt lat="48.63006" lon="4.9685">
        <ele>143.4</ele>
        <time>2020-06-30T09:44:46Z</time>
      </trkpt>
      <trkpt lat="48.63004" lon="4.96856">
        <ele>143.5</ele>
        <time>2020-06-30T09:44:47Z</time>
      </trkpt>
      <trkpt lat="48.63001" lon="4.96863">
        <ele>143.6</ele>
        <time>2020-06-30T09:44:48Z</time>
      </trkpt>
      <trkpt lat="48.62999" lon="4.96869">
        <ele>143.7</ele>
        <time>2020-06-30T09:44:49Z</time>
      </trkpt>
      <trkpt lat="48.62996" lon="4.96876">
        <ele>143.7</ele>
        <time>2020-06-30T09:44:50Z</time>
      </trkpt>
      <trkpt lat="48.62992" lon="4.9688">
        <ele>143.8</ele>
        <time>2020-06-30T09:44:51Z</time>
      </trkpt>
      <trkpt lat="48.6299" lon="4.96885">
        <ele>143.9</ele>
        <time>2020-06-30T09:44:52Z</time>
      </trkpt>
      <trkpt lat="48.62987" lon="4.96888">
        <ele>143.9</ele>
        <time>2020-06-30T09:44:53Z</time>
      </trkpt>
      <trkpt lat="48.62986" lon="4.96888">
        <ele>143.9</ele>
        <time>2020-06-30T09:44:54Z</time>
      </trkpt>
      <trkpt lat="48.62985" lon="4.96889">
        <ele>143.9</ele>
        <time>2020-06-30T09:44:55Z</time>
      </trkpt>
      <trkpt lat="48.62983" lon="4.9689">
        <ele>143.9</ele>
        <time>2020-06-30T09:44:56Z</time>
      </trkpt>
      <trkpt lat="48.6298" lon="4.9689">
        <ele>144</ele>
        <time>2020-06-30T09:44:57Z</time>
      </trkpt>
      <trkpt lat="48.62979" lon="4.9689">
        <ele>144</ele>
        <time>2020-06-30T09:44:58Z</time>
      </trkpt>
      <trkpt lat="48.62976" lon="4.96894">
        <ele>144</ele>
        <time>2020-06-30T09:44:59Z</time>
      </trkpt>
      <trkpt lat="48.62975" lon="4.96895">
        <ele>144</ele>
        <time>2020-06-30T09:45:00Z</time>
      </trkpt>
      <trkpt lat="48.62972" lon="4.96899">
        <ele>144.1</ele>
        <time>2020-06-30T09:45:01Z</time>
      </trkpt>
      <trkpt lat="48.6297" lon="4.96903">
        <ele>144.1</ele>
        <time>2020-06-30T09:45:02Z</time>
      </trkpt>
      <trkpt lat="48.62967" lon="4.96906">
        <ele>144.1</ele>
        <time>2020-06-30T09:45:03Z</time>
      </trkpt>
      <trkpt lat="48.62964" lon="4.9691">
        <ele>144.2</ele>
        <time>2020-06-30T09:45:04Z</time>
      </trkpt>
      <trkpt lat="48.62961" lon="4.96915">
        <ele>144.2</ele>
        <time>2020-06-30T09:45:05Z</time>
      </trkpt>
      <trkpt lat="48.62958" lon="4.9692">
        <ele>144.2</ele>
        <time>2020-06-30T09:45:06Z</time>
      </trkpt>
      <trkpt lat="48.62954" lon="4.96924">
        <ele>144.2</ele>
        <time>2020-06-30T09:45:07Z</time>
      </trkpt>
      <trkpt lat="48.6295" lon="4.96927">
        <ele>144.2</ele>
        <time>2020-06-30T09:45:08Z</time>
      </trkpt>
      <trkpt lat="48.62946" lon="4.96931">
        <ele>144.3</ele>
        <time>2020-06-30T09:45:09Z</time>
      </trkpt>
      <trkpt lat="48.62942" lon="4.96935">
        <ele>144.3</ele>
        <time>2020-06-30T09:45:10Z</time>
      </trkpt>
      <trkpt lat="48.62939" lon="4.96938">
        <ele>144.3</ele>
        <time>2020-06-30T09:45:11Z</time>
      </trkpt>
      <trkpt lat="48.62935" lon="4.96941">
        <ele>144.3</ele>
        <time>2020-06-30T09:45:12Z</time>
      </trkpt>
      <trkpt lat="48.62931" lon="4.96945">
        <ele>144.3</ele>
        <time>2020-06-30T09:45:13Z</time>
      </trkpt>
      <trkpt lat="48.62927" lon="4.96948">
        <ele>144.3</ele>
        <time>2020-06-30T09:45:14Z</time>
      </trkpt>
      <trkpt lat="48.62923" lon="4.96951">
        <ele>144.4</ele>
        <time>2020-06-30T09:45:15Z</time>
      </trkpt>
      <trkpt lat="48.62918" lon="4.96954">
        <ele>144.3</ele>
        <time>2020-06-30T09:45:16Z</time>
      </trkpt>
      <trkpt lat="48.62914" lon="4.96957">
        <ele>144.2</ele>
        <time>2020-06-30T09:45:17Z</time>
      </trkpt>
      <trkpt lat="48.6291" lon="4.9696">
        <ele>144.3</ele>
        <time>2020-06-30T09:45:18Z</time>
      </trkpt>
      <trkpt lat="48.62905" lon="4.96963">
        <ele>144.3</ele>
        <time>2020-06-30T09:45:19Z</time>
      </trkpt>
      <trkpt lat="48.629" lon="4.96965">
        <ele>144.3</ele>
        <time>2020-06-30T09:45:20Z</time>
      </trkpt>
      <trkpt lat="48.62896" lon="4.96965">
        <ele>144.3</ele>
        <time>2020-06-30T09:45:21Z</time>
      </trkpt>
      <trkpt lat="48.62893" lon="4.96965">
        <ele>144.3</ele>
        <time>2020-06-30T09:45:22Z</time>
      </trkpt>
      <trkpt lat="48.62889" lon="4.96965">
        <ele>144.3</ele>
        <time>2020-06-30T09:45:23Z</time>
      </trkpt>
      <trkpt lat="48.62886" lon="4.96965">
        <ele>144.3</ele>
        <time>2020-06-30T09:45:24Z</time>
      </trkpt>
      <trkpt lat="48.62883" lon="4.96965">
        <ele>144.3</ele>
        <time>2020-06-30T09:45:25Z</time>
      </trkpt>
      <trkpt lat="48.62881" lon="4.96965">
        <ele>144.3</ele>
        <time>2020-06-30T09:45:26Z</time>
      </trkpt>
      <trkpt lat="48.62878" lon="4.96965">
        <ele>144.3</ele>
        <time>2020-06-30T09:45:27Z</time>
      </trkpt>
      <trkpt lat="48.62877" lon="4.96965">
        <ele>144.3</ele>
        <time>2020-06-30T09:45:28Z</time>
      </trkpt>
      <trkpt lat="48.62875" lon="4.96965">
        <ele>144.3</ele>
        <time>2020-06-30T09:45:29Z</time>
      </trkpt>
      <trkpt lat="48.62873" lon="4.96964">
        <ele>144.3</ele>
        <time>2020-06-30T09:45:30Z</time>
      </trkpt>
      <trkpt lat="48.62871" lon="4.96964">
        <ele>144.3</ele>
        <time>2020-06-30T09:45:31Z</time>
      </trkpt>
      <trkpt lat="48.62869" lon="4.96963">
        <ele>144.3</ele>
        <time>2020-06-30T09:45:32Z</time>
      </trkpt>
      <trkpt lat="48.62868" lon="4.96962">
        <ele>144.3</ele>
        <time>2020-06-30T09:45:33Z</time>
      </trkpt>
      <trkpt lat="48.62866" lon="4.96961">
        <ele>144.3</ele>
        <time>2020-06-30T09:45:34Z</time>
      </trkpt>
      <trkpt lat="48.62865" lon="4.9696">
        <ele>144.3</ele>
        <time>2020-06-30T09:45:35Z</time>
      </trkpt>
      <trkpt lat="48.62863" lon="4.96959">
        <ele>144.3</ele>
        <time>2020-06-30T09:45:36Z</time>
      </trkpt>
      <trkpt lat="48.62862" lon="4.96958">
        <ele>144.3</ele>
        <time>2020-06-30T09:45:37Z</time>
      </trkpt>
      <trkpt lat="48.62861" lon="4.96957">
        <ele>144.3</ele>
        <time>2020-06-30T09:45:38Z</time>
      </trkpt>
      <trkpt lat="48.6286" lon="4.96957">
        <ele>144.3</ele>
        <time>2020-06-30T09:45:39Z</time>
      </trkpt>
      <trkpt lat="48.62857" lon="4.96956">
        <ele>144.4</ele>
        <time>2020-06-30T09:45:40Z</time>
      </trkpt>
      <trkpt lat="48.62855" lon="4.96955">
        <ele>144.4</ele>
        <time>2020-06-30T09:45:41Z</time>
      </trkpt>
      <trkpt lat="48.62852" lon="4.96954">
        <ele>144.4</ele>
        <time>2020-06-30T09:45:42Z</time>
      </trkpt>
      <trkpt lat="48.62849" lon="4.96952">
        <ele>144.5</ele>
        <time>2020-06-30T09:45:43Z</time>
      </trkpt>
      <trkpt lat="48.62846" lon="4.96949">
        <ele>144.5</ele>
        <time>2020-06-30T09:45:44Z</time>
      </trkpt>
      <trkpt lat="48.62842" lon="4.96945">
        <ele>144.6</ele>
        <time>2020-06-30T09:45:45Z</time>
      </trkpt>
      <trkpt lat="48.62839" lon="4.96942">
        <ele>144.7</ele>
        <time>2020-06-30T09:45:46Z</time>
      </trkpt>
      <trkpt lat="48.62836" lon="4.96939">
        <ele>144.9</ele>
        <time>2020-06-30T09:45:47Z</time>
      </trkpt>
      <trkpt lat="48.62833" lon="4.96937">
        <ele>145</ele>
        <time>2020-06-30T09:45:48Z</time>
      </trkpt>
      <trkpt lat="48.62829" lon="4.96934">
        <ele>145.2</ele>
        <time>2020-06-30T09:45:49Z</time>
      </trkpt>
      <trkpt lat="48.62826" lon="4.96931">
        <ele>145.3</ele>
        <time>2020-06-30T09:45:50Z</time>
      </trkpt>
      <trkpt lat="48.62823" lon="4.9693">
        <ele>145.5</ele>
        <time>2020-06-30T09:45:51Z</time>
      </trkpt>
      <trkpt lat="48.6282" lon="4.96927">
        <ele>145.7</ele>
        <time>2020-06-30T09:45:52Z</time>
      </trkpt>
      <trkpt lat="48.62817" lon="4.96925">
        <ele>145.9</ele>
        <time>2020-06-30T09:45:53Z</time>
      </trkpt>
      <trkpt lat="48.62814" lon="4.96922">
        <ele>146.1</ele>
        <time>2020-06-30T09:45:54Z</time>
      </trkpt>
      <trkpt lat="48.62812" lon="4.9692">
        <ele>146.2</ele>
        <time>2020-06-30T09:45:55Z</time>
      </trkpt>
      <trkpt lat="48.6281" lon="4.96918">
        <ele>146.4</ele>
        <time>2020-06-30T09:45:56Z</time>
      </trkpt>
      <trkpt lat="48.62808" lon="4.96914">
        <ele>146.5</ele>
        <time>2020-06-30T09:45:57Z</time>
      </trkpt>
      <trkpt lat="48.62806" lon="4.9691">
        <ele>146.8</ele>
        <time>2020-06-30T09:45:58Z</time>
      </trkpt>
      <trkpt lat="48.62805" lon="4.96909">
        <ele>146.9</ele>
        <time>2020-06-30T09:45:59Z</time>
      </trkpt>
      <trkpt lat="48.62804" lon="4.96905">
        <ele>147</ele>
        <time>2020-06-30T09:46:00Z</time>
      </trkpt>
      <trkpt lat="48.62802" lon="4.96902">
        <ele>147.2</ele>
        <time>2020-06-30T09:46:01Z</time>
      </trkpt>
      <trkpt lat="48.62798" lon="4.969">
        <ele>147.5</ele>
        <time>2020-06-30T09:46:02Z</time>
      </trkpt>
      <trkpt lat="48.62797" lon="4.96899">
        <ele>147.6</ele>
        <time>2020-06-30T09:46:03Z</time>
      </trkpt>
      <trkpt lat="48.62794" lon="4.96898">
        <ele>147.7</ele>
        <time>2020-06-30T09:46:04Z</time>
      </trkpt>
      <trkpt lat="48.62791" lon="4.96896">
        <ele>148</ele>
        <time>2020-06-30T09:46:05Z</time>
      </trkpt>
      <trkpt lat="48.62789" lon="4.96895">
        <ele>148</ele>
        <time>2020-06-30T09:46:06Z</time>
      </trkpt>
      <trkpt lat="48.62787" lon="4.96894">
        <ele>148.2</ele>
        <time>2020-06-30T09:46:07Z</time>
      </trkpt>
      <trkpt lat="48.62783" lon="4.96891">
        <ele>148.6</ele>
        <time>2020-06-30T09:46:08Z</time>
      </trkpt>
      <trkpt lat="48.62782" lon="4.9689">
        <ele>148.7</ele>
        <time>2020-06-30T09:46:09Z</time>
      </trkpt>
      <trkpt lat="48.62779" lon="4.96887">
        <ele>149</ele>
        <time>2020-06-30T09:46:10Z</time>
      </trkpt>
      <trkpt lat="48.62777" lon="4.96887">
        <ele>149.1</ele>
        <time>2020-06-30T09:46:11Z</time>
      </trkpt>
      <trkpt lat="48.62774" lon="4.96886">
        <ele>149.3</ele>
        <time>2020-06-30T09:46:12Z</time>
      </trkpt>
      <trkpt lat="48.62773" lon="4.96886">
        <ele>149.4</ele>
        <time>2020-06-30T09:46:13Z</time>
      </trkpt>
      <trkpt lat="48.62768" lon="4.96885">
        <ele>149.7</ele>
        <time>2020-06-30T09:46:14Z</time>
      </trkpt>
      <trkpt lat="48.62767" lon="4.96884">
        <ele>149.8</ele>
        <time>2020-06-30T09:46:15Z</time>
      </trkpt>
      <trkpt lat="48.62764" lon="4.96882">
        <ele>150</ele>
        <time>2020-06-30T09:46:16Z</time>
      </trkpt>
      <trkpt lat="48.6276" lon="4.96881">
        <ele>150.2</ele>
        <time>2020-06-30T09:46:17Z</time>
      </trkpt>
      <trkpt lat="48.62757" lon="4.9688">
        <ele>150.4</ele>
        <time>2020-06-30T09:46:18Z</time>
      </trkpt>
      <trkpt lat="48.62753" lon="4.96877">
        <ele>150.6</ele>
        <time>2020-06-30T09:46:19Z</time>
      </trkpt>
      <trkpt lat="48.62749" lon="4.96876">
        <ele>150.9</ele>
        <time>2020-06-30T09:46:20Z</time>
      </trkpt>
      <trkpt lat="48.62748" lon="4.96875">
        <ele>150.9</ele>
        <time>2020-06-30T09:46:21Z</time>
      </trkpt>
      <trkpt lat="48.62744" lon="4.96873">
        <ele>151.2</ele>
        <time>2020-06-30T09:46:22Z</time>
      </trkpt>
      <trkpt lat="48.62743" lon="4.96872">
        <ele>151.2</ele>
        <time>2020-06-30T09:46:23Z</time>
      </trkpt>
      <trkpt lat="48.6274" lon="4.9687">
        <ele>151.4</ele>
        <time>2020-06-30T09:46:24Z</time>
      </trkpt>
      <trkpt lat="48.62737" lon="4.96869">
        <ele>151.6</ele>
        <time>2020-06-30T09:46:25Z</time>
      </trkpt>
      <trkpt lat="48.62736" lon="4.96868">
        <ele>151.7</ele>
        <time>2020-06-30T09:46:26Z</time>
      </trkpt>
      <trkpt lat="48.62733" lon="4.96868">
        <ele>151.9</ele>
        <time>2020-06-30T09:46:27Z</time>
      </trkpt>
      <trkpt lat="48.62732" lon="4.96868">
        <ele>152</ele>
        <time>2020-06-30T09:46:28Z</time>
      </trkpt>
      <trkpt lat="48.6273" lon="4.96868">
        <ele>152.1</ele>
        <time>2020-06-30T09:46:29Z</time>
      </trkpt>
      <trkpt lat="48.62729" lon="4.96867">
        <ele>152.2</ele>
        <time>2020-06-30T09:46:30Z</time>
      </trkpt>
      <trkpt lat="48.62727" lon="4.96866">
        <ele>152.4</ele>
        <time>2020-06-30T09:46:31Z</time>
      </trkpt>
      <trkpt lat="48.62726" lon="4.96866">
        <ele>152.5</ele>
        <time>2020-06-30T09:46:32Z</time>
      </trkpt>
      <trkpt lat="48.62725" lon="4.96865">
        <ele>152.5</ele>
        <time>2020-06-30T09:46:33Z</time>
      </trkpt>
      <trkpt lat="48.62724" lon="4.96865">
        <ele>152.6</ele>
        <time>2020-06-30T09:46:34Z</time>
      </trkpt>
      <trkpt lat="48.62724" lon="4.96864">
        <ele>153.3</ele>
        <time>2020-06-30T09:46:35Z</time>
      </trkpt>
      <trkpt lat="48.62723" lon="4.96862">
        <ele>153.3</ele>
        <time>2020-06-30T09:46:36Z</time>
      </trkpt>
      <trkpt lat="48.62723" lon="4.9686">
        <ele>153.3</ele>
        <time>2020-06-30T09:46:37Z</time>
      </trkpt>
      <trkpt lat="48.62722" lon="4.96858">
        <ele>153.3</ele>
        <time>2020-06-30T09:46:38Z</time>
      </trkpt>
      <trkpt lat="48.62722" lon="4.96856">
        <ele>153.3</ele>
        <time>2020-06-30T09:46:39Z</time>
      </trkpt>
      <trkpt lat="48.62721" lon="4.96856">
        <ele>153.3</ele>
        <time>2020-06-30T09:46:40Z</time>
      </trkpt>
      <trkpt lat="48.62721" lon="4.96856">
        <ele>153.3</ele>
        <time>2020-06-30T09:46:41Z</time>
      </trkpt>
      <trkpt lat="48.62721" lon="4.96856">
        <ele>153.3</ele>
        <time>2020-06-30T09:46:42Z</time>
      </trkpt>
      <trkpt lat="48.62721" lon="4.96856">
        <ele>153.3</ele>
        <time>2020-06-30T09:46:43Z</time>
      </trkpt>
      <trkpt lat="48.62721" lon="4.96856">
        <ele>153.3</ele>
        <time>2020-06-30T09:46:44Z</time>
      </trkpt>
      <trkpt lat="48.62721" lon="4.96856">
        <ele>153.3</ele>
        <time>2020-06-30T09:46:45Z</time>
      </trkpt>
      <trkpt lat="48.62721" lon="4.96856">
        <ele>153.3</ele>
        <time>2020-06-30T09:46:46Z</time>
      </trkpt>
      <trkpt lat="48.62721" lon="4.96856">
        <ele>153.3</ele>
        <time>2020-06-30T09:46:47Z</time>
      </trkpt>
      <trkpt lat="48.62721" lon="4.96856">
        <ele>153.3</ele>
        <time>2020-06-30T09:46:48Z</time>
      </trkpt>
      <trkpt lat="48.62721" lon="4.96856">
        <ele>153.3</ele>
        <time>2020-06-30T09:46:49Z</time>
      </trkpt>
      <trkpt lat="48.62721" lon="4.96856">
        <ele>153.3</ele>
        <time>2020-06-30T09:46:50Z</time>
      </trkpt>
      <trkpt lat="48.62723" lon="4.96843">
        <ele>153.2</ele>
        <time>2020-06-30T09:46:54Z</time>
      </trkpt>
      <trkpt lat="48.62724" lon="4.96838">
        <ele>153.2</ele>
        <time>2020-06-30T09:46:55Z</time>
      </trkpt>
      <trkpt lat="48.62725" lon="4.96832">
        <ele>153.2</ele>
        <time>2020-06-30T09:46:56Z</time>
      </trkpt>
      <trkpt lat="48.62726" lon="4.96827">
        <ele>153.2</ele>
        <time>2020-06-30T09:46:57Z</time>
      </trkpt>
      <trkpt lat="48.62726" lon="4.96821">
        <ele>153.3</ele>
        <time>2020-06-30T09:46:58Z</time>
      </trkpt>
      <trkpt lat="48.62727" lon="4.96815">
        <ele>153.3</ele>
        <time>2020-06-30T09:46:59Z</time>
      </trkpt>
      <trkpt lat="48.62727" lon="4.96809">
        <ele>153.3</ele>
        <time>2020-06-30T09:47:00Z</time>
      </trkpt>
      <trkpt lat="48.62728" lon="4.96802">
        <ele>153.3</ele>
        <time>2020-06-30T09:47:01Z</time>
      </trkpt>
      <trkpt lat="48.62727" lon="4.96796">
        <ele>153.4</ele>
        <time>2020-06-30T09:47:02Z</time>
      </trkpt>
      <trkpt lat="48.62728" lon="4.9679">
        <ele>153.4</ele>
        <time>2020-06-30T09:47:03Z</time>
      </trkpt>
      <trkpt lat="48.62729" lon="4.96784">
        <ele>153.4</ele>
        <time>2020-06-30T09:47:04Z</time>
      </trkpt>
      <trkpt lat="48.62729" lon="4.96778">
        <ele>153.4</ele>
        <time>2020-06-30T09:47:05Z</time>
      </trkpt>
      <trkpt lat="48.62729" lon="4.96771">
        <ele>153.4</ele>
        <time>2020-06-30T09:47:06Z</time>
      </trkpt>
      <trkpt lat="48.62728" lon="4.96764">
        <ele>153.4</ele>
        <time>2020-06-30T09:47:07Z</time>
      </trkpt>
      <trkpt lat="48.62729" lon="4.96757">
        <ele>153.4</ele>
        <time>2020-06-30T09:47:08Z</time>
      </trkpt>
      <trkpt lat="48.62729" lon="4.96749">
        <ele>153.4</ele>
        <time>2020-06-30T09:47:09Z</time>
      </trkpt>
      <trkpt lat="48.62729" lon="4.96743">
        <ele>153.4</ele>
        <time>2020-06-30T09:47:10Z</time>
      </trkpt>
      <trkpt lat="48.62729" lon="4.96737">
        <ele>153.5</ele>
        <time>2020-06-30T09:47:11Z</time>
      </trkpt>
      <trkpt lat="48.6273" lon="4.9673">
        <ele>153.5</ele>
        <time>2020-06-30T09:47:12Z</time>
      </trkpt>
      <trkpt lat="48.6273" lon="4.96723">
        <ele>153.5</ele>
        <time>2020-06-30T09:47:13Z</time>
      </trkpt>
      <trkpt lat="48.62729" lon="4.96716">
        <ele>153.6</ele>
        <time>2020-06-30T09:47:14Z</time>
      </trkpt>
      <trkpt lat="48.62729" lon="4.9671">
        <ele>153.6</ele>
        <time>2020-06-30T09:47:15Z</time>
      </trkpt>
      <trkpt lat="48.62728" lon="4.96703">
        <ele>153.6</ele>
        <time>2020-06-30T09:47:16Z</time>
      </trkpt>
      <trkpt lat="48.62728" lon="4.96697">
        <ele>153.6</ele>
        <time>2020-06-30T09:47:17Z</time>
      </trkpt>
      <trkpt lat="48.62728" lon="4.9669">
        <ele>153.7</ele>
        <time>2020-06-30T09:47:18Z</time>
      </trkpt>
      <trkpt lat="48.62725" lon="4.96685">
        <ele>153.7</ele>
        <time>2020-06-30T09:47:19Z</time>
      </trkpt>
      <trkpt lat="48.62724" lon="4.96678">
        <ele>153.7</ele>
        <time>2020-06-30T09:47:20Z</time>
      </trkpt>
      <trkpt lat="48.62724" lon="4.96671">
        <ele>153.7</ele>
        <time>2020-06-30T09:47:21Z</time>
      </trkpt>
      <trkpt lat="48.62723" lon="4.96665">
        <ele>153.7</ele>
        <time>2020-06-30T09:47:22Z</time>
      </trkpt>
      <trkpt lat="48.62723" lon="4.96659">
        <ele>153.7</ele>
        <time>2020-06-30T09:47:23Z</time>
      </trkpt>
      <trkpt lat="48.62723" lon="4.96652">
        <ele>153.7</ele>
        <time>2020-06-30T09:47:24Z</time>
      </trkpt>
      <trkpt lat="48.6272" lon="4.96647">
        <ele>153.7</ele>
        <time>2020-06-30T09:47:25Z</time>
      </trkpt>
      <trkpt lat="48.62719" lon="4.96639">
        <ele>153.7</ele>
        <time>2020-06-30T09:47:26Z</time>
      </trkpt>
      <trkpt lat="48.62718" lon="4.96633">
        <ele>153.7</ele>
        <time>2020-06-30T09:47:27Z</time>
      </trkpt>
      <trkpt lat="48.62718" lon="4.96625">
        <ele>153.7</ele>
        <time>2020-06-30T09:47:28Z</time>
      </trkpt>
      <trkpt lat="48.62717" lon="4.96618">
        <ele>153.7</ele>
        <time>2020-06-30T09:47:29Z</time>
      </trkpt>
      <trkpt lat="48.62716" lon="4.96612">
        <ele>153.7</ele>
        <time>2020-06-30T09:47:30Z</time>
      </trkpt>
      <trkpt lat="48.62713" lon="4.96605">
        <ele>153.7</ele>
        <time>2020-06-30T09:47:31Z</time>
      </trkpt>
      <trkpt lat="48.62713" lon="4.96599">
        <ele>153.7</ele>
        <time>2020-06-30T09:47:32Z</time>
      </trkpt>
      <trkpt lat="48.62712" lon="4.96591">
        <ele>153.7</ele>
        <time>2020-06-30T09:47:33Z</time>
      </trkpt>
      <trkpt lat="48.62712" lon="4.96584">
        <ele>153.8</ele>
        <time>2020-06-30T09:47:34Z</time>
      </trkpt>
      <trkpt lat="48.62711" lon="4.96576">
        <ele>153.8</ele>
        <time>2020-06-30T09:47:35Z</time>
      </trkpt>
      <trkpt lat="48.6271" lon="4.96569">
        <ele>153.8</ele>
        <time>2020-06-30T09:47:36Z</time>
      </trkpt>
      <trkpt lat="48.62707" lon="4.96564">
        <ele>153.8</ele>
        <time>2020-06-30T09:47:37Z</time>
      </trkpt>
      <trkpt lat="48.62707" lon="4.96557">
        <ele>153.8</ele>
        <time>2020-06-30T09:47:38Z</time>
      </trkpt>
      <trkpt lat="48.62706" lon="4.96551">
        <ele>153.8</ele>
        <time>2020-06-30T09:47:39Z</time>
      </trkpt>
      <trkpt lat="48.62704" lon="4.96544">
        <ele>153.8</ele>
        <time>2020-06-30T09:47:40Z</time>
      </trkpt>
      <trkpt lat="48.62704" lon="4.96538">
        <ele>153.8</ele>
        <time>2020-06-30T09:47:41Z</time>
      </trkpt>
      <trkpt lat="48.62703" lon="4.96532">
        <ele>153.8</ele>
        <time>2020-06-30T09:47:42Z</time>
      </trkpt>
      <trkpt lat="48.62703" lon="4.96525">
        <ele>153.8</ele>
        <time>2020-06-30T09:47:43Z</time>
      </trkpt>
      <trkpt lat="48.62702" lon="4.96519">
        <ele>153.7</ele>
        <time>2020-06-30T09:47:44Z</time>
      </trkpt>
      <trkpt lat="48.62699" lon="4.96514">
        <ele>153.7</ele>
        <time>2020-06-30T09:47:45Z</time>
      </trkpt>
      <trkpt lat="48.62699" lon="4.96508">
        <ele>153.7</ele>
        <time>2020-06-30T09:47:46Z</time>
      </trkpt>
      <trkpt lat="48.62699" lon="4.96502">
        <ele>153.6</ele>
        <time>2020-06-30T09:47:47Z</time>
      </trkpt>
      <trkpt lat="48.62699" lon="4.96496">
        <ele>153.6</ele>
        <time>2020-06-30T09:47:48Z</time>
      </trkpt>
      <trkpt lat="48.62698" lon="4.9649">
        <ele>153.6</ele>
        <time>2020-06-30T09:47:49Z</time>
      </trkpt>
      <trkpt lat="48.62697" lon="4.96485">
        <ele>153.6</ele>
        <time>2020-06-30T09:47:50Z</time>
      </trkpt>
      <trkpt lat="48.62694" lon="4.96481">
        <ele>153.5</ele>
        <time>2020-06-30T09:47:51Z</time>
      </trkpt>
      <trkpt lat="48.62693" lon="4.96474">
        <ele>153.5</ele>
        <time>2020-06-30T09:47:52Z</time>
      </trkpt>
      <trkpt lat="48.62691" lon="4.96468">
        <ele>153.4</ele>
        <time>2020-06-30T09:47:53Z</time>
      </trkpt>
      <trkpt lat="48.6269" lon="4.96462">
        <ele>153.4</ele>
        <time>2020-06-30T09:47:54Z</time>
      </trkpt>
      <trkpt lat="48.62689" lon="4.96456">
        <ele>153.4</ele>
        <time>2020-06-30T09:47:55Z</time>
      </trkpt>
      <trkpt lat="48.62687" lon="4.96449">
        <ele>153.3</ele>
        <time>2020-06-30T09:47:56Z</time>
      </trkpt>
      <trkpt lat="48.62686" lon="4.96444">
        <ele>153.2</ele>
        <time>2020-06-30T09:47:57Z</time>
      </trkpt>
      <trkpt lat="48.62685" lon="4.96438">
        <ele>153.2</ele>
        <time>2020-06-30T09:47:58Z</time>
      </trkpt>
      <trkpt lat="48.62685" lon="4.96431">
        <ele>153.1</ele>
        <time>2020-06-30T09:47:59Z</time>
      </trkpt>
      <trkpt lat="48.62681" lon="4.96426">
        <ele>153.1</ele>
        <time>2020-06-30T09:48:00Z</time>
      </trkpt>
      <trkpt lat="48.62681" lon="4.96419">
        <ele>153</ele>
        <time>2020-06-30T09:48:01Z</time>
      </trkpt>
      <trkpt lat="48.6268" lon="4.96412">
        <ele>153</ele>
        <time>2020-06-30T09:48:02Z</time>
      </trkpt>
      <trkpt lat="48.62679" lon="4.96405">
        <ele>152.9</ele>
        <time>2020-06-30T09:48:03Z</time>
      </trkpt>
      <trkpt lat="48.62678" lon="4.96399">
        <ele>152.9</ele>
        <time>2020-06-30T09:48:04Z</time>
      </trkpt>
      <trkpt lat="48.62677" lon="4.96391">
        <ele>152.8</ele>
        <time>2020-06-30T09:48:05Z</time>
      </trkpt>
      <trkpt lat="48.62676" lon="4.96385">
        <ele>152.8</ele>
        <time>2020-06-30T09:48:06Z</time>
      </trkpt>
      <trkpt lat="48.62675" lon="4.96378">
        <ele>152.8</ele>
        <time>2020-06-30T09:48:07Z</time>
      </trkpt>
      <trkpt lat="48.62674" lon="4.96372">
        <ele>152.8</ele>
        <time>2020-06-30T09:48:08Z</time>
      </trkpt>
      <trkpt lat="48.62672" lon="4.96366">
        <ele>152.7</ele>
        <time>2020-06-30T09:48:09Z</time>
      </trkpt>
      <trkpt lat="48.62671" lon="4.9636">
        <ele>152.5</ele>
        <time>2020-06-30T09:48:10Z</time>
      </trkpt>
      <trkpt lat="48.6267" lon="4.96354">
        <ele>152.4</ele>
        <time>2020-06-30T09:48:11Z</time>
      </trkpt>
      <trkpt lat="48.62671" lon="4.96347">
        <ele>152.2</ele>
        <time>2020-06-30T09:48:12Z</time>
      </trkpt>
      <trkpt lat="48.62671" lon="4.96341">
        <ele>152</ele>
        <time>2020-06-30T09:48:13Z</time>
      </trkpt>
      <trkpt lat="48.62671" lon="4.96335">
        <ele>151.9</ele>
        <time>2020-06-30T09:48:14Z</time>
      </trkpt>
      <trkpt lat="48.62671" lon="4.96329">
        <ele>151.7</ele>
        <time>2020-06-30T09:48:15Z</time>
      </trkpt>
      <trkpt lat="48.6267" lon="4.96324">
        <ele>151.6</ele>
        <time>2020-06-30T09:48:16Z</time>
      </trkpt>
      <trkpt lat="48.62667" lon="4.96317">
        <ele>151.4</ele>
        <time>2020-06-30T09:48:17Z</time>
      </trkpt>
      <trkpt lat="48.62665" lon="4.9631">
        <ele>151.2</ele>
        <time>2020-06-30T09:48:18Z</time>
      </trkpt>
      <trkpt lat="48.62663" lon="4.96303">
        <ele>151</ele>
        <time>2020-06-30T09:48:19Z</time>
      </trkpt>
      <trkpt lat="48.62661" lon="4.96297">
        <ele>150.8</ele>
        <time>2020-06-30T09:48:20Z</time>
      </trkpt>
      <trkpt lat="48.62658" lon="4.96291">
        <ele>150.7</ele>
        <time>2020-06-30T09:48:21Z</time>
      </trkpt>
      <trkpt lat="48.62653" lon="4.96287">
        <ele>150.5</ele>
        <time>2020-06-30T09:48:22Z</time>
      </trkpt>
      <trkpt lat="48.62648" lon="4.96285">
        <ele>150.4</ele>
        <time>2020-06-30T09:48:23Z</time>
      </trkpt>
      <trkpt lat="48.62643" lon="4.96284">
        <ele>150.3</ele>
        <time>2020-06-30T09:48:24Z</time>
      </trkpt>
      <trkpt lat="48.62637" lon="4.96286">
        <ele>150.3</ele>
        <time>2020-06-30T09:48:25Z</time>
      </trkpt>
      <trkpt lat="48.62631" lon="4.96287">
        <ele>150.2</ele>
        <time>2020-06-30T09:48:26Z</time>
      </trkpt>
      <trkpt lat="48.62626" lon="4.96289">
        <ele>150.3</ele>
        <time>2020-06-30T09:48:27Z</time>
      </trkpt>
      <trkpt lat="48.6262" lon="4.96292">
        <ele>150.3</ele>
        <time>2020-06-30T09:48:28Z</time>
      </trkpt>
      <trkpt lat="48.62616" lon="4.96296">
        <ele>150.4</ele>
        <time>2020-06-30T09:48:29Z</time>
      </trkpt>
      <trkpt lat="48.62611" lon="4.963">
        <ele>150.4</ele>
        <time>2020-06-30T09:48:30Z</time>
      </trkpt>
      <trkpt lat="48.62607" lon="4.96305">
        <ele>150.5</ele>
        <time>2020-06-30T09:48:31Z</time>
      </trkpt>
      <trkpt lat="48.62603" lon="4.96306">
        <ele>151.2</ele>
        <time>2020-06-30T09:48:32Z</time>
      </trkpt>
      <trkpt lat="48.62599" lon="4.96307">
        <ele>151.1</ele>
        <time>2020-06-30T09:48:33Z</time>
      </trkpt>
      <trkpt lat="48.62596" lon="4.96308">
        <ele>151.1</ele>
        <time>2020-06-30T09:48:34Z</time>
      </trkpt>
      <trkpt lat="48.62593" lon="4.9631">
        <ele>151.1</ele>
        <time>2020-06-30T09:48:35Z</time>
      </trkpt>
      <trkpt lat="48.62589" lon="4.96312">
        <ele>151</ele>
        <time>2020-06-30T09:48:36Z</time>
      </trkpt>
      <trkpt lat="48.62586" lon="4.96309">
        <ele>151</ele>
        <time>2020-06-30T09:48:37Z</time>
      </trkpt>
      <trkpt lat="48.62582" lon="4.96306">
        <ele>150.9</ele>
        <time>2020-06-30T09:48:38Z</time>
      </trkpt>
      <trkpt lat="48.62579" lon="4.96301">
        <ele>150.9</ele>
        <time>2020-06-30T09:48:39Z</time>
      </trkpt>
      <trkpt lat="48.62576" lon="4.96298">
        <ele>150.9</ele>
        <time>2020-06-30T09:48:40Z</time>
      </trkpt>
      <trkpt lat="48.62572" lon="4.96295">
        <ele>150.8</ele>
        <time>2020-06-30T09:48:41Z</time>
      </trkpt>
      <trkpt lat="48.62569" lon="4.96294">
        <ele>150.9</ele>
        <time>2020-06-30T09:48:42Z</time>
      </trkpt>
      <trkpt lat="48.62566" lon="4.96293">
        <ele>151</ele>
        <time>2020-06-30T09:48:43Z</time>
      </trkpt>
      <trkpt lat="48.62562" lon="4.96293">
        <ele>151</ele>
        <time>2020-06-30T09:48:44Z</time>
      </trkpt>
      <trkpt lat="48.62558" lon="4.96295">
        <ele>151.1</ele>
        <time>2020-06-30T09:48:45Z</time>
      </trkpt>
      <trkpt lat="48.62554" lon="4.96297">
        <ele>151.2</ele>
        <time>2020-06-30T09:48:46Z</time>
      </trkpt>
      <trkpt lat="48.62551" lon="4.96301">
        <ele>151.5</ele>
        <time>2020-06-30T09:48:47Z</time>
      </trkpt>
      <trkpt lat="48.62547" lon="4.96305">
        <ele>151.8</ele>
        <time>2020-06-30T09:48:48Z</time>
      </trkpt>
      <trkpt lat="48.62544" lon="4.9631">
        <ele>152</ele>
        <time>2020-06-30T09:48:49Z</time>
      </trkpt>
      <trkpt lat="48.62541" lon="4.96314">
        <ele>152.2</ele>
        <time>2020-06-30T09:48:50Z</time>
      </trkpt>
      <trkpt lat="48.62539" lon="4.96319">
        <ele>152.4</ele>
        <time>2020-06-30T09:48:51Z</time>
      </trkpt>
      <trkpt lat="48.62535" lon="4.96323">
        <ele>152.6</ele>
        <time>2020-06-30T09:48:52Z</time>
      </trkpt>
      <trkpt lat="48.62532" lon="4.96327">
        <ele>152.8</ele>
        <time>2020-06-30T09:48:53Z</time>
      </trkpt>
      <trkpt lat="48.62529" lon="4.96331">
        <ele>152.9</ele>
        <time>2020-06-30T09:48:54Z</time>
      </trkpt>
      <trkpt lat="48.62527" lon="4.96336">
        <ele>153</ele>
        <time>2020-06-30T09:48:55Z</time>
      </trkpt>
      <trkpt lat="48.62526" lon="4.96345">
        <ele>153.3</ele>
        <time>2020-06-30T09:48:56Z</time>
      </trkpt>
      <trkpt lat="48.62528" lon="4.96352">
        <ele>153.5</ele>
        <time>2020-06-30T09:48:57Z</time>
      </trkpt>
      <trkpt lat="48.62527" lon="4.96361">
        <ele>153.8</ele>
        <time>2020-06-30T09:48:58Z</time>
      </trkpt>
      <trkpt lat="48.62526" lon="4.96368">
        <ele>154.1</ele>
        <time>2020-06-30T09:48:59Z</time>
      </trkpt>
      <trkpt lat="48.62524" lon="4.96374">
        <ele>154.3</ele>
        <time>2020-06-30T09:49:00Z</time>
      </trkpt>
      <trkpt lat="48.62522" lon="4.9638">
        <ele>154.5</ele>
        <time>2020-06-30T09:49:01Z</time>
      </trkpt>
      <trkpt lat="48.6252" lon="4.96386">
        <ele>154.6</ele>
        <time>2020-06-30T09:49:02Z</time>
      </trkpt>
      <trkpt lat="48.62518" lon="4.96393">
        <ele>154.6</ele>
        <time>2020-06-30T09:49:03Z</time>
      </trkpt>
      <trkpt lat="48.62516" lon="4.96398">
        <ele>154.5</ele>
        <time>2020-06-30T09:49:04Z</time>
      </trkpt>
      <trkpt lat="48.62512" lon="4.96403">
        <ele>154.5</ele>
        <time>2020-06-30T09:49:05Z</time>
      </trkpt>
      <trkpt lat="48.62507" lon="4.96407">
        <ele>154.5</ele>
        <time>2020-06-30T09:49:06Z</time>
      </trkpt>
      <trkpt lat="48.62503" lon="4.96411">
        <ele>154.5</ele>
        <time>2020-06-30T09:49:07Z</time>
      </trkpt>
      <trkpt lat="48.625" lon="4.96415">
        <ele>154.5</ele>
        <time>2020-06-30T09:49:08Z</time>
      </trkpt>
      <trkpt lat="48.62496" lon="4.96419">
        <ele>154.4</ele>
        <time>2020-06-30T09:49:09Z</time>
      </trkpt>
      <trkpt lat="48.62493" lon="4.96423">
        <ele>154.4</ele>
        <time>2020-06-30T09:49:10Z</time>
      </trkpt>
      <trkpt lat="48.6249" lon="4.96428">
        <ele>154.3</ele>
        <time>2020-06-30T09:49:11Z</time>
      </trkpt>
      <trkpt lat="48.62487" lon="4.96432">
        <ele>154.3</ele>
        <time>2020-06-30T09:49:12Z</time>
      </trkpt>
      <trkpt lat="48.62485" lon="4.96438">
        <ele>154.2</ele>
        <time>2020-06-30T09:49:13Z</time>
      </trkpt>
      <trkpt lat="48.62483" lon="4.96446">
        <ele>154.1</ele>
        <time>2020-06-30T09:49:14Z</time>
      </trkpt>
      <trkpt lat="48.62482" lon="4.96451">
        <ele>154.1</ele>
        <time>2020-06-30T09:49:15Z</time>
      </trkpt>
      <trkpt lat="48.6248" lon="4.96457">
        <ele>154</ele>
        <time>2020-06-30T09:49:16Z</time>
      </trkpt>
      <trkpt lat="48.62479" lon="4.96463">
        <ele>153.9</ele>
        <time>2020-06-30T09:49:17Z</time>
      </trkpt>
      <trkpt lat="48.62477" lon="4.96469">
        <ele>153.9</ele>
        <time>2020-06-30T09:49:18Z</time>
      </trkpt>
      <trkpt lat="48.62475" lon="4.96473">
        <ele>153.8</ele>
        <time>2020-06-30T09:49:19Z</time>
      </trkpt>
      <trkpt lat="48.62472" lon="4.96477">
        <ele>153.8</ele>
        <time>2020-06-30T09:49:20Z</time>
      </trkpt>
      <trkpt lat="48.6247" lon="4.96481">
        <ele>153.8</ele>
        <time>2020-06-30T09:49:21Z</time>
      </trkpt>
      <trkpt lat="48.62468" lon="4.96485">
        <ele>154</ele>
        <time>2020-06-30T09:49:22Z</time>
      </trkpt>
      <trkpt lat="48.62467" lon="4.96491">
        <ele>153.9</ele>
        <time>2020-06-30T09:49:23Z</time>
      </trkpt>
      <trkpt lat="48.62466" lon="4.96496">
        <ele>153.9</ele>
        <time>2020-06-30T09:49:24Z</time>
      </trkpt>
      <trkpt lat="48.62464" lon="4.96501">
        <ele>153.8</ele>
        <time>2020-06-30T09:49:25Z</time>
      </trkpt>
      <trkpt lat="48.62461" lon="4.96502">
        <ele>153.8</ele>
        <time>2020-06-30T09:49:26Z</time>
      </trkpt>
      <trkpt lat="48.62459" lon="4.96503">
        <ele>153.8</ele>
        <time>2020-06-30T09:49:27Z</time>
      </trkpt>
      <trkpt lat="48.62455" lon="4.96502">
        <ele>153.5</ele>
        <time>2020-06-30T09:49:28Z</time>
      </trkpt>
      <trkpt lat="48.62451" lon="4.96502">
        <ele>153.5</ele>
        <time>2020-06-30T09:49:29Z</time>
      </trkpt>
      <trkpt lat="48.62446" lon="4.965">
        <ele>153.4</ele>
        <time>2020-06-30T09:49:30Z</time>
      </trkpt>
      <trkpt lat="48.62443" lon="4.96499">
        <ele>153.4</ele>
        <time>2020-06-30T09:49:31Z</time>
      </trkpt>
      <trkpt lat="48.62439" lon="4.96497">
        <ele>153.4</ele>
        <time>2020-06-30T09:49:32Z</time>
      </trkpt>
      <trkpt lat="48.62435" lon="4.96495">
        <ele>153.3</ele>
        <time>2020-06-30T09:49:33Z</time>
      </trkpt>
      <trkpt lat="48.62431" lon="4.96492">
        <ele>153.2</ele>
        <time>2020-06-30T09:49:34Z</time>
      </trkpt>
      <trkpt lat="48.62427" lon="4.9649">
        <ele>153</ele>
        <time>2020-06-30T09:49:35Z</time>
      </trkpt>
      <trkpt lat="48.62423" lon="4.96485">
        <ele>152.8</ele>
        <time>2020-06-30T09:49:36Z</time>
      </trkpt>
      <trkpt lat="48.62419" lon="4.96482">
        <ele>152.6</ele>
        <time>2020-06-30T09:49:37Z</time>
      </trkpt>
      <trkpt lat="48.62416" lon="4.96479">
        <ele>152.4</ele>
        <time>2020-06-30T09:49:38Z</time>
      </trkpt>
      <trkpt lat="48.62412" lon="4.96476">
        <ele>152.1</ele>
        <time>2020-06-30T09:49:39Z</time>
      </trkpt>
      <trkpt lat="48.62407" lon="4.96473">
        <ele>152.1</ele>
        <time>2020-06-30T09:49:40Z</time>
      </trkpt>
      <trkpt lat="48.62403" lon="4.96471">
        <ele>152.1</ele>
        <time>2020-06-30T09:49:41Z</time>
      </trkpt>
      <trkpt lat="48.62399" lon="4.96467">
        <ele>152</ele>
        <time>2020-06-30T09:49:42Z</time>
      </trkpt>
      <trkpt lat="48.62396" lon="4.96464">
        <ele>152</ele>
        <time>2020-06-30T09:49:43Z</time>
      </trkpt>
      <trkpt lat="48.62392" lon="4.9646">
        <ele>152</ele>
        <time>2020-06-30T09:49:44Z</time>
      </trkpt>
      <trkpt lat="48.6239" lon="4.96454">
        <ele>152</ele>
        <time>2020-06-30T09:49:45Z</time>
      </trkpt>
      <trkpt lat="48.62387" lon="4.96449">
        <ele>151.9</ele>
        <time>2020-06-30T09:49:46Z</time>
      </trkpt>
      <trkpt lat="48.62383" lon="4.96445">
        <ele>151.9</ele>
        <time>2020-06-30T09:49:47Z</time>
      </trkpt>
      <trkpt lat="48.62379" lon="4.96443">
        <ele>151.9</ele>
        <time>2020-06-30T09:49:48Z</time>
      </trkpt>
      <trkpt lat="48.62375" lon="4.96441">
        <ele>152</ele>
        <time>2020-06-30T09:49:49Z</time>
      </trkpt>
      <trkpt lat="48.62371" lon="4.96442">
        <ele>152.1</ele>
        <time>2020-06-30T09:49:50Z</time>
      </trkpt>
      <trkpt lat="48.62367" lon="4.96443">
        <ele>152.7</ele>
        <time>2020-06-30T09:49:51Z</time>
      </trkpt>
      <trkpt lat="48.62363" lon="4.96442">
        <ele>152.6</ele>
        <time>2020-06-30T09:49:52Z</time>
      </trkpt>
      <trkpt lat="48.62361" lon="4.96438">
        <ele>152.5</ele>
        <time>2020-06-30T09:49:53Z</time>
      </trkpt>
      <trkpt lat="48.62359" lon="4.96433">
        <ele>152.5</ele>
        <time>2020-06-30T09:49:54Z</time>
      </trkpt>
      <trkpt lat="48.62358" lon="4.96428">
        <ele>152.4</ele>
        <time>2020-06-30T09:49:55Z</time>
      </trkpt>
      <trkpt lat="48.62357" lon="4.96424">
        <ele>152.4</ele>
        <time>2020-06-30T09:49:56Z</time>
      </trkpt>
      <trkpt lat="48.62354" lon="4.9642">
        <ele>152.3</ele>
        <time>2020-06-30T09:49:57Z</time>
      </trkpt>
      <trkpt lat="48.62353" lon="4.96416">
        <ele>152.3</ele>
        <time>2020-06-30T09:49:58Z</time>
      </trkpt>
      <trkpt lat="48.62351" lon="4.96412">
        <ele>152.3</ele>
        <time>2020-06-30T09:49:59Z</time>
      </trkpt>
      <trkpt lat="48.6235" lon="4.96407">
        <ele>152.3</ele>
        <time>2020-06-30T09:50:00Z</time>
      </trkpt>
      <trkpt lat="48.62348" lon="4.96403">
        <ele>152.3</ele>
        <time>2020-06-30T09:50:01Z</time>
      </trkpt>
      <trkpt lat="48.62346" lon="4.96398">
        <ele>152.3</ele>
        <time>2020-06-30T09:50:02Z</time>
      </trkpt>
      <trkpt lat="48.62345" lon="4.96392">
        <ele>152.4</ele>
        <time>2020-06-30T09:50:03Z</time>
      </trkpt>
      <trkpt lat="48.62345" lon="4.96387">
        <ele>152.5</ele>
        <time>2020-06-30T09:50:04Z</time>
      </trkpt>
      <trkpt lat="48.62344" lon="4.96383">
        <ele>152.5</ele>
        <time>2020-06-30T09:50:05Z</time>
      </trkpt>
      <trkpt lat="48.62341" lon="4.96381">
        <ele>152.5</ele>
        <time>2020-06-30T09:50:06Z</time>
      </trkpt>
      <trkpt lat="48.62341" lon="4.96382">
        <ele>151.6</ele>
        <time>2020-06-30T09:50:07Z</time>
      </trkpt>
      <trkpt lat="48.6234" lon="4.96382">
        <ele>151.6</ele>
        <time>2020-06-30T09:50:08Z</time>
      </trkpt>
      <trkpt lat="48.62337" lon="4.96384">
        <ele>151.6</ele>
        <time>2020-06-30T09:50:09Z</time>
      </trkpt>
      <trkpt lat="48.62334" lon="4.96387">
        <ele>151.5</ele>
        <time>2020-06-30T09:50:10Z</time>
      </trkpt>
      <trkpt lat="48.62333" lon="4.96391">
        <ele>151.5</ele>
        <time>2020-06-30T09:50:11Z</time>
      </trkpt>
      <trkpt lat="48.6233" lon="4.96392">
        <ele>151.5</ele>
        <time>2020-06-30T09:50:12Z</time>
      </trkpt>
      <trkpt lat="48.62327" lon="4.96393">
        <ele>151.3</ele>
        <time>2020-06-30T09:50:13Z</time>
      </trkpt>
      <trkpt lat="48.62323" lon="4.9639">
        <ele>151.3</ele>
        <time>2020-06-30T09:50:14Z</time>
      </trkpt>
      <trkpt lat="48.62319" lon="4.96388">
        <ele>151.2</ele>
        <time>2020-06-30T09:50:15Z</time>
      </trkpt>
      <trkpt lat="48.62316" lon="4.96386">
        <ele>151.2</ele>
        <time>2020-06-30T09:50:16Z</time>
      </trkpt>
      <trkpt lat="48.62312" lon="4.96386">
        <ele>151.2</ele>
        <time>2020-06-30T09:50:17Z</time>
      </trkpt>
      <trkpt lat="48.62309" lon="4.96383">
        <ele>151.2</ele>
        <time>2020-06-30T09:50:18Z</time>
      </trkpt>
      <trkpt lat="48.62305" lon="4.96381">
        <ele>151.2</ele>
        <time>2020-06-30T09:50:19Z</time>
      </trkpt>
      <trkpt lat="48.62301" lon="4.96379">
        <ele>151.2</ele>
        <time>2020-06-30T09:50:20Z</time>
      </trkpt>
      <trkpt lat="48.62298" lon="4.96378">
        <ele>151.2</ele>
        <time>2020-06-30T09:50:21Z</time>
      </trkpt>
      <trkpt lat="48.62294" lon="4.96377">
        <ele>151.2</ele>
        <time>2020-06-30T09:50:22Z</time>
      </trkpt>
      <trkpt lat="48.62294" lon="4.96376">
        <ele>151.2</ele>
        <time>2020-06-30T09:50:23Z</time>
      </trkpt>
      <trkpt lat="48.62292" lon="4.96374">
        <ele>151.2</ele>
        <time>2020-06-30T09:50:24Z</time>
      </trkpt>
      <trkpt lat="48.62291" lon="4.96372">
        <ele>151.2</ele>
        <time>2020-06-30T09:50:25Z</time>
      </trkpt>
      <trkpt lat="48.6229" lon="4.96375">
        <ele>151.2</ele>
        <time>2020-06-30T09:50:26Z</time>
      </trkpt>
      <trkpt lat="48.62289" lon="4.96377">
        <ele>151.2</ele>
        <time>2020-06-30T09:50:27Z</time>
      </trkpt>
      <trkpt lat="48.62289" lon="4.96379">
        <ele>151.2</ele>
        <time>2020-06-30T09:50:28Z</time>
      </trkpt>
      <trkpt lat="48.62292" lon="4.96382">
        <ele>151.2</ele>
        <time>2020-06-30T09:50:29Z</time>
      </trkpt>
      <trkpt lat="48.62293" lon="4.96383">
        <ele>151.2</ele>
        <time>2020-06-30T09:50:30Z</time>
      </trkpt>
      <trkpt lat="48.62297" lon="4.96386">
        <ele>151.2</ele>
        <time>2020-06-30T09:50:31Z</time>
      </trkpt>
      <trkpt lat="48.62301" lon="4.9639">
        <ele>151.2</ele>
        <time>2020-06-30T09:50:32Z</time>
      </trkpt>
      <trkpt lat="48.62304" lon="4.96393">
        <ele>151.2</ele>
        <time>2020-06-30T09:50:33Z</time>
      </trkpt>
      <trkpt lat="48.62308" lon="4.96396">
        <ele>151.2</ele>
        <time>2020-06-30T09:50:34Z</time>
      </trkpt>
      <trkpt lat="48.62312" lon="4.96398">
        <ele>151.2</ele>
        <time>2020-06-30T09:50:35Z</time>
      </trkpt>
      <trkpt lat="48.62317" lon="4.964">
        <ele>151.2</ele>
        <time>2020-06-30T09:50:36Z</time>
      </trkpt>
      <trkpt lat="48.62321" lon="4.96401">
        <ele>151.3</ele>
        <time>2020-06-30T09:50:37Z</time>
      </trkpt>
      <trkpt lat="48.62324" lon="4.96404">
        <ele>151.3</ele>
        <time>2020-06-30T09:50:38Z</time>
      </trkpt>
      <trkpt lat="48.62326" lon="4.96406">
        <ele>151.3</ele>
        <time>2020-06-30T09:50:39Z</time>
      </trkpt>
      <trkpt lat="48.62326" lon="4.96408">
        <ele>151.3</ele>
        <time>2020-06-30T09:50:40Z</time>
      </trkpt>
      <trkpt lat="48.62323" lon="4.96411">
        <ele>151.3</ele>
        <time>2020-06-30T09:50:41Z</time>
      </trkpt>
      <trkpt lat="48.62321" lon="4.96412">
        <ele>151.3</ele>
        <time>2020-06-30T09:50:42Z</time>
      </trkpt>
      <trkpt lat="48.62319" lon="4.96415">
        <ele>151.3</ele>
        <time>2020-06-30T09:50:43Z</time>
      </trkpt>
      <trkpt lat="48.62317" lon="4.96418">
        <ele>151.3</ele>
        <time>2020-06-30T09:50:44Z</time>
      </trkpt>
      <trkpt lat="48.62315" lon="4.96423">
        <ele>151.4</ele>
        <time>2020-06-30T09:50:45Z</time>
      </trkpt>
      <trkpt lat="48.62312" lon="4.96427">
        <ele>151.4</ele>
        <time>2020-06-30T09:50:46Z</time>
      </trkpt>
      <trkpt lat="48.62312" lon="4.96429">
        <ele>151.4</ele>
        <time>2020-06-30T09:50:47Z</time>
      </trkpt>
      <trkpt lat="48.6231" lon="4.96434">
        <ele>151.5</ele>
        <time>2020-06-30T09:50:48Z</time>
      </trkpt>
      <trkpt lat="48.62309" lon="4.96439">
        <ele>151.5</ele>
        <time>2020-06-30T09:50:49Z</time>
      </trkpt>
      <trkpt lat="48.62308" lon="4.96443">
        <ele>151.6</ele>
        <time>2020-06-30T09:50:50Z</time>
      </trkpt>
      <trkpt lat="48.62307" lon="4.96444">
        <ele>151.6</ele>
        <time>2020-06-30T09:50:51Z</time>
      </trkpt>
      <trkpt lat="48.62307" lon="4.96445">
        <ele>151.6</ele>
        <time>2020-06-30T09:50:52Z</time>
      </trkpt>
      <trkpt lat="48.62306" lon="4.96448">
        <ele>151.7</ele>
        <time>2020-06-30T09:50:53Z</time>
      </trkpt>
      <trkpt lat="48.62305" lon="4.96452">
        <ele>151.8</ele>
        <time>2020-06-30T09:50:54Z</time>
      </trkpt>
      <trkpt lat="48.62305" lon="4.96457">
        <ele>151.8</ele>
        <time>2020-06-30T09:50:55Z</time>
      </trkpt>
      <trkpt lat="48.62305" lon="4.96458">
        <ele>151.8</ele>
        <time>2020-06-30T09:50:56Z</time>
      </trkpt>
      <trkpt lat="48.62304" lon="4.96462">
        <ele>151.9</ele>
        <time>2020-06-30T09:50:57Z</time>
      </trkpt>
      <trkpt lat="48.62303" lon="4.96464">
        <ele>151.9</ele>
        <time>2020-06-30T09:50:58Z</time>
      </trkpt>
      <trkpt lat="48.62302" lon="4.96468">
        <ele>151.9</ele>
        <time>2020-06-30T09:50:59Z</time>
      </trkpt>
      <trkpt lat="48.62302" lon="4.96469">
        <ele>152</ele>
        <time>2020-06-30T09:51:00Z</time>
      </trkpt>
      <trkpt lat="48.623" lon="4.96474">
        <ele>152</ele>
        <time>2020-06-30T09:51:01Z</time>
      </trkpt>
      <trkpt lat="48.62299" lon="4.96475">
        <ele>152.1</ele>
        <time>2020-06-30T09:51:02Z</time>
      </trkpt>
      <trkpt lat="48.62297" lon="4.96478">
        <ele>152.1</ele>
        <time>2020-06-30T09:51:03Z</time>
      </trkpt>
      <trkpt lat="48.62295" lon="4.96482">
        <ele>152.2</ele>
        <time>2020-06-30T09:51:04Z</time>
      </trkpt>
      <trkpt lat="48.62294" lon="4.96483">
        <ele>152.2</ele>
        <time>2020-06-30T09:51:05Z</time>
      </trkpt>
      <trkpt lat="48.62293" lon="4.96485">
        <ele>152.2</ele>
        <time>2020-06-30T09:51:06Z</time>
      </trkpt>
      <trkpt lat="48.62294" lon="4.96487">
        <ele>152.2</ele>
        <time>2020-06-30T09:51:07Z</time>
      </trkpt>
      <trkpt lat="48.62293" lon="4.96488">
        <ele>152.3</ele>
        <time>2020-06-30T09:51:08Z</time>
      </trkpt>
      <trkpt lat="48.62292" lon="4.9649">
        <ele>152.3</ele>
        <time>2020-06-30T09:51:09Z</time>
      </trkpt>
      <trkpt lat="48.62292" lon="4.96491">
        <ele>152.3</ele>
        <time>2020-06-30T09:51:10Z</time>
      </trkpt>
      <trkpt lat="48.62292" lon="4.9649">
        <ele>152.3</ele>
        <time>2020-06-30T09:51:11Z</time>
      </trkpt>
      <trkpt lat="48.62292" lon="4.9649">
        <ele>152.3</ele>
        <time>2020-06-30T09:51:12Z</time>
      </trkpt>
      <trkpt lat="48.62291" lon="4.96492">
        <ele>152.3</ele>
        <time>2020-06-30T09:51:13Z</time>
      </trkpt>
      <trkpt lat="48.62291" lon="4.96493">
        <ele>152.3</ele>
        <time>2020-06-30T09:51:14Z</time>
      </trkpt>
      <trkpt lat="48.62291" lon="4.96493">
        <ele>152.3</ele>
        <time>2020-06-30T09:51:15Z</time>
      </trkpt>
      <trkpt lat="48.62291" lon="4.96495">
        <ele>152.3</ele>
        <time>2020-06-30T09:51:16Z</time>
      </trkpt>
      <trkpt lat="48.62291" lon="4.96496">
        <ele>152.4</ele>
        <time>2020-06-30T09:51:17Z</time>
      </trkpt>
      <trkpt lat="48.62291" lon="4.96496">
        <ele>152.4</ele>
        <time>2020-06-30T09:51:18Z</time>
      </trkpt>
      <trkpt lat="48.62291" lon="4.96496">
        <ele>152.4</ele>
        <time>2020-06-30T09:51:19Z</time>
      </trkpt>
      <trkpt lat="48.62291" lon="4.96495">
        <ele>152.4</ele>
        <time>2020-06-30T09:51:20Z</time>
      </trkpt>
      <trkpt lat="48.62291" lon="4.96496">
        <ele>152.4</ele>
        <time>2020-06-30T09:51:21Z</time>
      </trkpt>
      <trkpt lat="48.62291" lon="4.96496">
        <ele>152.4</ele>
        <time>2020-06-30T09:51:22Z</time>
      </trkpt>
      <trkpt lat="48.62291" lon="4.96496">
        <ele>152.4</ele>
        <time>2020-06-30T09:51:23Z</time>
      </trkpt>
      <trkpt lat="48.62291" lon="4.96495">
        <ele>152.4</ele>
        <time>2020-06-30T09:51:24Z</time>
      </trkpt>
      <trkpt lat="48.62291" lon="4.96498">
        <ele>152.4</ele>
        <time>2020-06-30T09:52:19Z</time>
      </trkpt>
      <trkpt lat="48.6229" lon="4.96497">
        <ele>152.4</ele>
        <time>2020-06-30T09:52:20Z</time>
      </trkpt>
      <trkpt lat="48.6229" lon="4.96498">
        <ele>152.4</ele>
        <time>2020-06-30T09:52:21Z</time>
      </trkpt>
      <trkpt lat="48.6229" lon="4.96498">
        <ele>152.4</ele>
        <time>2020-06-30T09:52:22Z</time>
      </trkpt>
      <trkpt lat="48.62289" lon="4.96499">
        <ele>152.4</ele>
        <time>2020-06-30T09:52:23Z</time>
      </trkpt>
      <trkpt lat="48.62289" lon="4.965">
        <ele>152.4</ele>
        <time>2020-06-30T09:52:24Z</time>
      </trkpt>
      <trkpt lat="48.62288" lon="4.96499">
        <ele>152.4</ele>
        <time>2020-06-30T09:52:25Z</time>
      </trkpt>
      <trkpt lat="48.62288" lon="4.96499">
        <ele>152.4</ele>
        <time>2020-06-30T09:52:26Z</time>
      </trkpt>
      <trkpt lat="48.62288" lon="4.96499">
        <ele>152.4</ele>
        <time>2020-06-30T09:52:27Z</time>
      </trkpt>
      <trkpt lat="48.62288" lon="4.96498">
        <ele>152.4</ele>
        <time>2020-06-30T09:52:28Z</time>
      </trkpt>
      <trkpt lat="48.62289" lon="4.96498">
        <ele>152.4</ele>
        <time>2020-06-30T09:52:29Z</time>
      </trkpt>
      <trkpt lat="48.62289" lon="4.96498">
        <ele>152.4</ele>
        <time>2020-06-30T09:52:30Z</time>
      </trkpt>
      <trkpt lat="48.62289" lon="4.96498">
        <ele>152.4</ele>
        <time>2020-06-30T09:52:31Z</time>
      </trkpt>
      <trkpt lat="48.62289" lon="4.96498">
        <ele>152.4</ele>
        <time>2020-06-30T09:52:32Z</time>
      </trkpt>
      <trkpt lat="48.6229" lon="4.96498">
        <ele>152.4</ele>
        <time>2020-06-30T09:52:33Z</time>
      </trkpt>
      <trkpt lat="48.6229" lon="4.96497">
        <ele>152.4</ele>
        <time>2020-06-30T09:52:34Z</time>
      </trkpt>
      <trkpt lat="48.6229" lon="4.96497">
        <ele>152.4</ele>
        <time>2020-06-30T09:52:35Z</time>
      </trkpt>
      <trkpt lat="48.62291" lon="4.96497">
        <ele>152.4</ele>
        <time>2020-06-30T09:52:36Z</time>
      </trkpt>
      <trkpt lat="48.62291" lon="4.96498">
        <ele>152.4</ele>
        <time>2020-06-30T09:52:37Z</time>
      </trkpt>
      <trkpt lat="48.62291" lon="4.96498">
        <ele>152.4</ele>
        <time>2020-06-30T09:52:38Z</time>
      </trkpt>
      <trkpt lat="48.6229" lon="4.96497">
        <ele>152.4</ele>
        <time>2020-06-30T09:52:39Z</time>
      </trkpt>
      <trkpt lat="48.62289" lon="4.96496">
        <ele>152.4</ele>
        <time>2020-06-30T09:52:40Z</time>
      </trkpt>
      <trkpt lat="48.62289" lon="4.96496">
        <ele>152.4</ele>
        <time>2020-06-30T09:52:41Z</time>
      </trkpt>
      <trkpt lat="48.62288" lon="4.96495">
        <ele>152.4</ele>
        <time>2020-06-30T09:52:42Z</time>
      </trkpt>
      <trkpt lat="48.62287" lon="4.96495">
        <ele>152.4</ele>
        <time>2020-06-30T09:52:43Z</time>
      </trkpt>
      <trkpt lat="48.62286" lon="4.96495">
        <ele>152.4</ele>
        <time>2020-06-30T09:52:44Z</time>
      </trkpt>
      <trkpt lat="48.62286" lon="4.96494">
        <ele>152.4</ele>
        <time>2020-06-30T09:52:45Z</time>
      </trkpt>
      <trkpt lat="48.62285" lon="4.96494">
        <ele>152.4</ele>
        <time>2020-06-30T09:52:46Z</time>
      </trkpt>
      <trkpt lat="48.62284" lon="4.96494">
        <ele>152.4</ele>
        <time>2020-06-30T09:57:11Z</time>
      </trkpt>
      <trkpt lat="48.62283" lon="4.96493">
        <ele>152.4</ele>
        <time>2020-06-30T09:57:12Z</time>
      </trkpt>
      <trkpt lat="48.62283" lon="4.96493">
        <ele>152.4</ele>
        <time>2020-06-30T09:57:13Z</time>
      </trkpt>
      <trkpt lat="48.62282" lon="4.96493">
        <ele>152.4</ele>
        <time>2020-06-30T09:57:14Z</time>
      </trkpt>
      <trkpt lat="48.62282" lon="4.96493">
        <ele>152.4</ele>
        <time>2020-06-30T09:57:15Z</time>
      </trkpt>
      <trkpt lat="48.62282" lon="4.96493">
        <ele>152.4</ele>
        <time>2020-06-30T09:57:16Z</time>
      </trkpt>
      <trkpt lat="48.62282" lon="4.96493">
        <ele>152.4</ele>
        <time>2020-06-30T09:57:17Z</time>
      </trkpt>
      <trkpt lat="48.62281" lon="4.96494">
        <ele>152.4</ele>
        <time>2020-06-30T09:57:18Z</time>
      </trkpt>
      <trkpt lat="48.62281" lon="4.96494">
        <ele>152.4</ele>
        <time>2020-06-30T09:57:19Z</time>
      </trkpt>
      <trkpt lat="48.62281" lon="4.96495">
        <ele>152.4</ele>
        <time>2020-06-30T09:57:20Z</time>
      </trkpt>
      <trkpt lat="48.62281" lon="4.96495">
        <ele>152.4</ele>
        <time>2020-06-30T09:57:21Z</time>
      </trkpt>
      <trkpt lat="48.62281" lon="4.96495">
        <ele>152.4</ele>
        <time>2020-06-30T09:57:22Z</time>
      </trkpt>
      <trkpt lat="48.62281" lon="4.96495">
        <ele>152.4</ele>
        <time>2020-06-30T09:57:23Z</time>
      </trkpt>
      <trkpt lat="48.62281" lon="4.96495">
        <ele>152.4</ele>
        <time>2020-06-30T09:57:24Z</time>
      </trkpt>
      <trkpt lat="48.62281" lon="4.96493">
        <ele>152.4</ele>
        <time>2020-06-30T09:57:25Z</time>
      </trkpt>
      <trkpt lat="48.6228" lon="4.96493">
        <ele>152.4</ele>
        <time>2020-06-30T09:57:26Z</time>
      </trkpt>
      <trkpt lat="48.6228" lon="4.96493">
        <ele>152.4</ele>
        <time>2020-06-30T09:57:27Z</time>
      </trkpt>
      <trkpt lat="48.62279" lon="4.96493">
        <ele>152.4</ele>
        <time>2020-06-30T09:57:28Z</time>
      </trkpt>
      <trkpt lat="48.6228" lon="4.96494">
        <ele>152.4</ele>
        <time>2020-06-30T09:57:29Z</time>
      </trkpt>
      <trkpt lat="48.6228" lon="4.96494">
        <ele>152.3</ele>
        <time>2020-06-30T09:57:30Z</time>
      </trkpt>
      <trkpt lat="48.6228" lon="4.96494">
        <ele>152.3</ele>
        <time>2020-06-30T09:57:31Z</time>
      </trkpt>
      <trkpt lat="48.6228" lon="4.96494">
        <ele>152.3</ele>
        <time>2020-06-30T09:57:32Z</time>
      </trkpt>
      <trkpt lat="48.6228" lon="4.96494">
        <ele>152.3</ele>
        <time>2020-06-30T09:57:33Z</time>
      </trkpt>
      <trkpt lat="48.62281" lon="4.96495">
        <ele>152.3</ele>
        <time>2020-06-30T09:57:34Z</time>
      </trkpt>
      <trkpt lat="48.62282" lon="4.96496">
        <ele>152.3</ele>
        <time>2020-06-30T09:57:35Z</time>
      </trkpt>
      <trkpt lat="48.62282" lon="4.96493">
        <ele>152.3</ele>
        <time>2020-06-30T09:57:36Z</time>
      </trkpt>
      <trkpt lat="48.62282" lon="4.9649">
        <ele>152.3</ele>
        <time>2020-06-30T09:57:37Z</time>
      </trkpt>
      <trkpt lat="48.62282" lon="4.96486">
        <ele>152.3</ele>
        <time>2020-06-30T09:57:38Z</time>
      </trkpt>
      <trkpt lat="48.62282" lon="4.96482">
        <ele>152.2</ele>
        <time>2020-06-30T09:57:39Z</time>
      </trkpt>
      <trkpt lat="48.62282" lon="4.96479">
        <ele>152.2</ele>
        <time>2020-06-30T10:12:39Z</time>
      </trkpt>
      <trkpt lat="48.62282" lon="4.96475">
        <ele>152.2</ele>
        <time>2020-06-30T10:12:40Z</time>
      </trkpt>
      <trkpt lat="48.62284" lon="4.96468">
        <ele>152.1</ele>
        <time>2020-06-30T10:12:41Z</time>
      </trkpt>
      <trkpt lat="48.62286" lon="4.96462">
        <ele>152</ele>
        <time>2020-06-30T10:12:42Z</time>
      </trkpt>
      <trkpt lat="48.62288" lon="4.96457">
        <ele>151.9</ele>
        <time>2020-06-30T10:12:43Z</time>
      </trkpt>
      <trkpt lat="48.6229" lon="4.9645">
        <ele>151.8</ele>
        <time>2020-06-30T10:12:44Z</time>
      </trkpt>
      <trkpt lat="48.62292" lon="4.96444">
        <ele>151.8</ele>
        <time>2020-06-30T10:12:45Z</time>
      </trkpt>
      <trkpt lat="48.62294" lon="4.96437">
        <ele>151.6</ele>
        <time>2020-06-30T10:12:46Z</time>
      </trkpt>
      <trkpt lat="48.62296" lon="4.9643">
        <ele>151.5</ele>
        <time>2020-06-30T10:12:47Z</time>
      </trkpt>
      <trkpt lat="48.62299" lon="4.96424">
        <ele>151.5</ele>
        <time>2020-06-30T10:12:48Z</time>
      </trkpt>
      <trkpt lat="48.62301" lon="4.96418">
        <ele>151.4</ele>
        <time>2020-06-30T10:12:49Z</time>
      </trkpt>
      <trkpt lat="48.62303" lon="4.96414">
        <ele>151.4</ele>
        <time>2020-06-30T10:12:50Z</time>
      </trkpt>
      <trkpt lat="48.62306" lon="4.96411">
        <ele>151.4</ele>
        <time>2020-06-30T10:12:51Z</time>
      </trkpt>
      <trkpt lat="48.62309" lon="4.96409">
        <ele>151.4</ele>
        <time>2020-06-30T10:12:52Z</time>
      </trkpt>
      <trkpt lat="48.62312" lon="4.96406">
        <ele>151.3</ele>
        <time>2020-06-30T10:12:53Z</time>
      </trkpt>
      <trkpt lat="48.62313" lon="4.96402">
        <ele>151.3</ele>
        <time>2020-06-30T10:12:54Z</time>
      </trkpt>
      <trkpt lat="48.62314" lon="4.96397">
        <ele>151.3</ele>
        <time>2020-06-30T10:12:55Z</time>
      </trkpt>
      <trkpt lat="48.6231" lon="4.96393">
        <ele>151.4</ele>
        <time>2020-06-30T10:12:56Z</time>
      </trkpt>
      <trkpt lat="48.62309" lon="4.96391">
        <ele>151.4</ele>
        <time>2020-06-30T10:12:57Z</time>
      </trkpt>
      <trkpt lat="48.62306" lon="4.96388">
        <ele>151.5</ele>
        <time>2020-06-30T10:12:58Z</time>
      </trkpt>
      <trkpt lat="48.62303" lon="4.96385">
        <ele>151.5</ele>
        <time>2020-06-30T10:12:59Z</time>
      </trkpt>
      <trkpt lat="48.623" lon="4.96382">
        <ele>151.5</ele>
        <time>2020-06-30T10:13:00Z</time>
      </trkpt>
      <trkpt lat="48.62297" lon="4.96379">
        <ele>151.6</ele>
        <time>2020-06-30T10:13:01Z</time>
      </trkpt>
      <trkpt lat="48.62294" lon="4.96378">
        <ele>151.5</ele>
        <time>2020-06-30T10:13:02Z</time>
      </trkpt>
      <trkpt lat="48.6229" lon="4.96375">
        <ele>151.5</ele>
        <time>2020-06-30T10:13:03Z</time>
      </trkpt>
      <trkpt lat="48.62289" lon="4.96374">
        <ele>151.5</ele>
        <time>2020-06-30T10:13:04Z</time>
      </trkpt>
      <trkpt lat="48.62288" lon="4.96372">
        <ele>151.5</ele>
        <time>2020-06-30T10:13:05Z</time>
      </trkpt>
      <trkpt lat="48.62286" lon="4.96371">
        <ele>151.4</ele>
        <time>2020-06-30T10:13:06Z</time>
      </trkpt>
      <trkpt lat="48.62287" lon="4.96368">
        <ele>151.4</ele>
        <time>2020-06-30T10:13:07Z</time>
      </trkpt>
      <trkpt lat="48.62286" lon="4.96366">
        <ele>151.4</ele>
        <time>2020-06-30T10:13:08Z</time>
      </trkpt>
      <trkpt lat="48.62285" lon="4.96365">
        <ele>151.4</ele>
        <time>2020-06-30T10:13:09Z</time>
      </trkpt>
      <trkpt lat="48.62284" lon="4.96367">
        <ele>151.4</ele>
        <time>2020-06-30T10:13:10Z</time>
      </trkpt>
      <trkpt lat="48.62284" lon="4.96369">
        <ele>151.4</ele>
        <time>2020-06-30T10:13:11Z</time>
      </trkpt>
      <trkpt lat="48.62284" lon="4.96369">
        <ele>151.4</ele>
        <time>2020-06-30T10:13:12Z</time>
      </trkpt>
      <trkpt lat="48.62284" lon="4.96368">
        <ele>151.4</ele>
        <time>2020-06-30T10:13:13Z</time>
      </trkpt>
      <trkpt lat="48.62284" lon="4.96368">
        <ele>151.4</ele>
        <time>2020-06-30T10:13:14Z</time>
      </trkpt>
      <trkpt lat="48.62284" lon="4.96367">
        <ele>151.4</ele>
        <time>2020-06-30T10:13:15Z</time>
      </trkpt>
      <trkpt lat="48.62284" lon="4.96366">
        <ele>151.4</ele>
        <time>2020-06-30T10:13:16Z</time>
      </trkpt>
      <trkpt lat="48.62284" lon="4.96365">
        <ele>151.4</ele>
        <time>2020-06-30T10:13:17Z</time>
      </trkpt>
      <trkpt lat="48.62284" lon="4.96365">
        <ele>151.4</ele>
        <time>2020-06-30T10:13:18Z</time>
      </trkpt>
      <trkpt lat="48.62284" lon="4.96364">
        <ele>151.4</ele>
        <time>2020-06-30T10:13:19Z</time>
      </trkpt>
      <trkpt lat="48.62284" lon="4.96363">
        <ele>151.4</ele>
        <time>2020-06-30T10:13:20Z</time>
      </trkpt>
      <trkpt lat="48.62285" lon="4.96362">
        <ele>151.4</ele>
        <time>2020-06-30T10:13:21Z</time>
      </trkpt>
      <trkpt lat="48.62285" lon="4.96362">
        <ele>151.4</ele>
        <time>2020-06-30T10:13:22Z</time>
      </trkpt>
      <trkpt lat="48.62285" lon="4.96361">
        <ele>151.4</ele>
        <time>2020-06-30T10:13:23Z</time>
      </trkpt>
      <trkpt lat="48.62285" lon="4.9636">
        <ele>151.4</ele>
        <time>2020-06-30T10:13:24Z</time>
      </trkpt>
      <trkpt lat="48.62285" lon="4.9636">
        <ele>151.4</ele>
        <time>2020-06-30T10:13:25Z</time>
      </trkpt>
      <trkpt lat="48.62285" lon="4.96359">
        <ele>151.4</ele>
        <time>2020-06-30T10:13:26Z</time>
      </trkpt>
      <trkpt lat="48.62285" lon="4.96358">
        <ele>151.4</ele>
        <time>2020-06-30T10:13:27Z</time>
      </trkpt>
      <trkpt lat="48.62285" lon="4.96357">
        <ele>151.4</ele>
        <time>2020-06-30T10:13:28Z</time>
      </trkpt>
      <trkpt lat="48.62285" lon="4.96357">
        <ele>151.4</ele>
        <time>2020-06-30T10:13:29Z</time>
      </trkpt>
      <trkpt lat="48.62285" lon="4.96356">
        <ele>151.4</ele>
        <time>2020-06-30T10:15:30Z</time>
      </trkpt>
      <trkpt lat="48.62285" lon="4.96355">
        <ele>151.4</ele>
        <time>2020-06-30T10:15:31Z</time>
      </trkpt>
      <trkpt lat="48.62285" lon="4.96354">
        <ele>151.4</ele>
        <time>2020-06-30T10:15:32Z</time>
      </trkpt>
      <trkpt lat="48.62285" lon="4.96354">
        <ele>151.4</ele>
        <time>2020-06-30T10:15:33Z</time>
      </trkpt>
      <trkpt lat="48.62285" lon="4.96353">
        <ele>151.4</ele>
        <time>2020-06-30T10:15:34Z</time>
      </trkpt>
      <trkpt lat="48.62286" lon="4.96352">
        <ele>151.4</ele>
        <time>2020-06-30T10:15:35Z</time>
      </trkpt>
      <trkpt lat="48.62286" lon="4.96351">
        <ele>151.4</ele>
        <time>2020-06-30T10:15:36Z</time>
      </trkpt>
      <trkpt lat="48.62286" lon="4.96349">
        <ele>151.3</ele>
        <time>2020-06-30T10:15:37Z</time>
      </trkpt>
      <trkpt lat="48.62286" lon="4.96348">
        <ele>151.3</ele>
        <time>2020-06-30T10:15:38Z</time>
      </trkpt>
      <trkpt lat="48.62286" lon="4.96347">
        <ele>151.3</ele>
        <time>2020-06-30T10:15:39Z</time>
      </trkpt>
      <trkpt lat="48.62287" lon="4.96346">
        <ele>151.3</ele>
        <time>2020-06-30T10:15:40Z</time>
      </trkpt>
      <trkpt lat="48.62287" lon="4.96345">
        <ele>151.3</ele>
        <time>2020-06-30T10:15:41Z</time>
      </trkpt>
      <trkpt lat="48.62287" lon="4.96344">
        <ele>151.4</ele>
        <time>2020-06-30T10:15:42Z</time>
      </trkpt>
      <trkpt lat="48.62287" lon="4.96342">
        <ele>151.4</ele>
        <time>2020-06-30T10:15:43Z</time>
      </trkpt>
      <trkpt lat="48.62288" lon="4.96341">
        <ele>151.4</ele>
        <time>2020-06-30T10:15:44Z</time>
      </trkpt>
      <trkpt lat="48.62288" lon="4.96339">
        <ele>151.4</ele>
        <time>2020-06-30T10:15:45Z</time>
      </trkpt>
      <trkpt lat="48.62288" lon="4.96338">
        <ele>151.4</ele>
        <time>2020-06-30T10:15:46Z</time>
      </trkpt>
      <trkpt lat="48.62288" lon="4.96336">
        <ele>151.4</ele>
        <time>2020-06-30T10:15:47Z</time>
      </trkpt>
      <trkpt lat="48.62289" lon="4.96335">
        <ele>151.4</ele>
        <time>2020-06-30T10:15:48Z</time>
      </trkpt>
      <trkpt lat="48.62289" lon="4.96333">
        <ele>151.4</ele>
        <time>2020-06-30T10:15:49Z</time>
      </trkpt>
      <trkpt lat="48.62289" lon="4.96332">
        <ele>151.4</ele>
        <time>2020-06-30T10:15:50Z</time>
      </trkpt>
      <trkpt lat="48.62289" lon="4.96331">
        <ele>151.4</ele>
        <time>2020-06-30T10:15:51Z</time>
      </trkpt>
      <trkpt lat="48.62289" lon="4.9633">
        <ele>151.4</ele>
        <time>2020-06-30T10:15:52Z</time>
      </trkpt>
      <trkpt lat="48.6229" lon="4.96328">
        <ele>151.4</ele>
        <time>2020-06-30T10:15:53Z</time>
      </trkpt>
      <trkpt lat="48.6229" lon="4.96327">
        <ele>151.4</ele>
        <time>2020-06-30T10:15:54Z</time>
      </trkpt>
      <trkpt lat="48.6229" lon="4.96325">
        <ele>151.4</ele>
        <time>2020-06-30T10:15:55Z</time>
      </trkpt>
      <trkpt lat="48.6229" lon="4.96324">
        <ele>151.4</ele>
        <time>2020-06-30T10:15:56Z</time>
      </trkpt>
      <trkpt lat="48.6229" lon="4.96323">
        <ele>151.4</ele>
        <time>2020-06-30T10:15:57Z</time>
      </trkpt>
      <trkpt lat="48.6229" lon="4.96322">
        <ele>151.4</ele>
        <time>2020-06-30T10:15:58Z</time>
      </trkpt>
      <trkpt lat="48.6229" lon="4.96322">
        <ele>151.4</ele>
        <time>2020-06-30T10:15:59Z</time>
      </trkpt>
      <trkpt lat="48.6229" lon="4.96321">
        <ele>151.4</ele>
        <time>2020-06-30T10:16:00Z</time>
      </trkpt>
      <trkpt lat="48.6229" lon="4.9632">
        <ele>151.4</ele>
        <time>2020-06-30T10:16:01Z</time>
      </trkpt>
      <trkpt lat="48.6229" lon="4.9632">
        <ele>151.4</ele>
        <time>2020-06-30T10:16:02Z</time>
      </trkpt>
      <trkpt lat="48.6229" lon="4.96318">
        <ele>151.4</ele>
        <time>2020-06-30T10:16:03Z</time>
      </trkpt>
      <trkpt lat="48.6229" lon="4.96317">
        <ele>151.4</ele>
        <time>2020-06-30T10:16:04Z</time>
      </trkpt>
      <trkpt lat="48.6229" lon="4.96316">
        <ele>151.4</ele>
        <time>2020-06-30T10:16:05Z</time>
      </trkpt>
      <trkpt lat="48.6229" lon="4.96314">
        <ele>151.4</ele>
        <time>2020-06-30T10:16:06Z</time>
      </trkpt>
      <trkpt lat="48.62291" lon="4.96312">
        <ele>151.4</ele>
        <time>2020-06-30T10:16:07Z</time>
      </trkpt>
      <trkpt lat="48.62291" lon="4.9631">
        <ele>151.5</ele>
        <time>2020-06-30T10:16:08Z</time>
      </trkpt>
      <trkpt lat="48.62291" lon="4.96309">
        <ele>151.5</ele>
        <time>2020-06-30T10:16:09Z</time>
      </trkpt>
      <trkpt lat="48.62291" lon="4.96308">
        <ele>151.5</ele>
        <time>2020-06-30T10:16:10Z</time>
      </trkpt>
      <trkpt lat="48.62291" lon="4.96307">
        <ele>151.5</ele>
        <time>2020-06-30T10:16:11Z</time>
      </trkpt>
      <trkpt lat="48.62291" lon="4.96305">
        <ele>151.5</ele>
        <time>2020-06-30T10:16:12Z</time>
      </trkpt>
      <trkpt lat="48.62292" lon="4.96304">
        <ele>151.5</ele>
        <time>2020-06-30T10:16:13Z</time>
      </trkpt>
      <trkpt lat="48.62292" lon="4.96302">
        <ele>151.5</ele>
        <time>2020-06-30T10:16:14Z</time>
      </trkpt>
      <trkpt lat="48.62292" lon="4.96301">
        <ele>151.5</ele>
        <time>2020-06-30T10:16:15Z</time>
      </trkpt>
      <trkpt lat="48.62292" lon="4.96299">
        <ele>151.5</ele>
        <time>2020-06-30T10:16:16Z</time>
      </trkpt>
      <trkpt lat="48.62292" lon="4.96298">
        <ele>151.5</ele>
        <time>2020-06-30T10:16:17Z</time>
      </trkpt>
      <trkpt lat="48.62292" lon="4.96299">
        <ele>151.5</ele>
        <time>2020-06-30T10:16:18Z</time>
      </trkpt>
      <trkpt lat="48.62292" lon="4.963">
        <ele>151.5</ele>
        <time>2020-06-30T10:16:19Z</time>
      </trkpt>
      <trkpt lat="48.62293" lon="4.96301">
        <ele>151.5</ele>
        <time>2020-06-30T10:16:20Z</time>
      </trkpt>
      <trkpt lat="48.62293" lon="4.96303">
        <ele>151.5</ele>
        <time>2020-06-30T10:16:21Z</time>
      </trkpt>
      <trkpt lat="48.62294" lon="4.96304">
        <ele>151.5</ele>
        <time>2020-06-30T10:16:22Z</time>
      </trkpt>
      <trkpt lat="48.62294" lon="4.96304">
        <ele>151.5</ele>
        <time>2020-06-30T10:16:23Z</time>
      </trkpt>
      <trkpt lat="48.62294" lon="4.96305">
        <ele>151.5</ele>
        <time>2020-06-30T10:16:24Z</time>
      </trkpt>
      <trkpt lat="48.62294" lon="4.96305">
        <ele>151.5</ele>
        <time>2020-06-30T10:16:25Z</time>
      </trkpt>
      <trkpt lat="48.62294" lon="4.96306">
        <ele>151.5</ele>
        <time>2020-06-30T10:16:26Z</time>
      </trkpt>
      <trkpt lat="48.62294" lon="4.96307">
        <ele>151.5</ele>
        <time>2020-06-30T10:16:27Z</time>
      </trkpt>
      <trkpt lat="48.62295" lon="4.96307">
        <ele>151.5</ele>
        <time>2020-06-30T10:16:28Z</time>
      </trkpt>
      <trkpt lat="48.62295" lon="4.96308">
        <ele>151.5</ele>
        <time>2020-06-30T10:16:29Z</time>
      </trkpt>
      <trkpt lat="48.62298" lon="4.96308">
        <ele>151.5</ele>
        <time>2020-06-30T10:16:41Z</time>
      </trkpt>
      <trkpt lat="48.62298" lon="4.96307">
        <ele>151.5</ele>
        <time>2020-06-30T10:16:42Z</time>
      </trkpt>
      <trkpt lat="48.62298" lon="4.96307">
        <ele>151.6</ele>
        <time>2020-06-30T10:16:43Z</time>
      </trkpt>
      <trkpt lat="48.62298" lon="4.96307">
        <ele>151.6</ele>
        <time>2020-06-30T10:16:44Z</time>
      </trkpt>
      <trkpt lat="48.62299" lon="4.96307">
        <ele>151.6</ele>
        <time>2020-06-30T10:16:45Z</time>
      </trkpt>
      <trkpt lat="48.62299" lon="4.96307">
        <ele>151.6</ele>
        <time>2020-06-30T10:16:46Z</time>
      </trkpt>
      <trkpt lat="48.623" lon="4.96307">
        <ele>151.6</ele>
        <time>2020-06-30T10:16:47Z</time>
      </trkpt>
      <trkpt lat="48.623" lon="4.96307">
        <ele>151.6</ele>
        <time>2020-06-30T10:16:48Z</time>
      </trkpt>
      <trkpt lat="48.623" lon="4.96307">
        <ele>151.6</ele>
        <time>2020-06-30T10:16:49Z</time>
      </trkpt>
      <trkpt lat="48.623" lon="4.96307">
        <ele>151.6</ele>
        <time>2020-06-30T10:16:50Z</time>
      </trkpt>
      <trkpt lat="48.623" lon="4.96307">
        <ele>151.6</ele>
        <time>2020-06-30T10:16:51Z</time>
      </trkpt>
      <trkpt lat="48.623" lon="4.96307">
        <ele>151.6</ele>
        <time>2020-06-30T10:16:52Z</time>
      </trkpt>
      <trkpt lat="48.623" lon="4.96307">
        <ele>151.6</ele>
        <time>2020-06-30T10:16:53Z</time>
      </trkpt>
      <trkpt lat="48.623" lon="4.96307">
        <ele>151.6</ele>
        <time>2020-06-30T10:16:54Z</time>
      </trkpt>
      <trkpt lat="48.623" lon="4.96307">
        <ele>151.6</ele>
        <time>2020-06-30T10:16:55Z</time>
      </trkpt>
      <trkpt lat="48.623" lon="4.96307">
        <ele>151.6</ele>
        <time>2020-06-30T10:16:56Z</time>
      </trkpt>
      <trkpt lat="48.62301" lon="4.96308">
        <ele>151.5</ele>
        <time>2020-06-30T10:16:57Z</time>
      </trkpt>
      <trkpt lat="48.62301" lon="4.96308">
        <ele>151.5</ele>
        <time>2020-06-30T10:16:58Z</time>
      </trkpt>
      <trkpt lat="48.62301" lon="4.96309">
        <ele>151.5</ele>
        <time>2020-06-30T10:16:59Z</time>
      </trkpt>
      <trkpt lat="48.62301" lon="4.96309">
        <ele>151.6</ele>
        <time>2020-06-30T10:17:00Z</time>
      </trkpt>
      <trkpt lat="48.62301" lon="4.96309">
        <ele>151.6</ele>
        <time>2020-06-30T10:17:01Z</time>
      </trkpt>
      <trkpt lat="48.62302" lon="4.96309">
        <ele>151.6</ele>
        <time>2020-06-30T10:17:02Z</time>
      </trkpt>
      <trkpt lat="48.62303" lon="4.96308">
        <ele>151.6</ele>
        <time>2020-06-30T10:17:03Z</time>
      </trkpt>
      <trkpt lat="48.62304" lon="4.96307">
        <ele>151.6</ele>
        <time>2020-06-30T10:17:04Z</time>
      </trkpt>
      <trkpt lat="48.62304" lon="4.96307">
        <ele>151.6</ele>
        <time>2020-06-30T10:17:05Z</time>
      </trkpt>
      <trkpt lat="48.62304" lon="4.96307">
        <ele>151.6</ele>
        <time>2020-06-30T10:17:06Z</time>
      </trkpt>
      <trkpt lat="48.62304" lon="4.96307">
        <ele>151.6</ele>
        <time>2020-06-30T10:17:07Z</time>
      </trkpt>
      <trkpt lat="48.62305" lon="4.96307">
        <ele>151.6</ele>
        <time>2020-06-30T10:17:08Z</time>
      </trkpt>
      <trkpt lat="48.62305" lon="4.96307">
        <ele>151.6</ele>
        <time>2020-06-30T10:17:09Z</time>
      </trkpt>
      <trkpt lat="48.62306" lon="4.96309">
        <ele>151.6</ele>
        <time>2020-06-30T10:17:10Z</time>
      </trkpt>
      <trkpt lat="48.62308" lon="4.96308">
        <ele>151.6</ele>
        <time>2020-06-30T10:17:11Z</time>
      </trkpt>
      <trkpt lat="48.62309" lon="4.96309">
        <ele>151.6</ele>
        <time>2020-06-30T10:17:12Z</time>
      </trkpt>
      <trkpt lat="48.6231" lon="4.96309">
        <ele>151.7</ele>
        <time>2020-06-30T10:17:13Z</time>
      </trkpt>
      <trkpt lat="48.6231" lon="4.96309">
        <ele>151.7</ele>
        <time>2020-06-30T10:17:14Z</time>
      </trkpt>
      <trkpt lat="48.6231" lon="4.96309">
        <ele>151.7</ele>
        <time>2020-06-30T10:17:15Z</time>
      </trkpt>
      <trkpt lat="48.6231" lon="4.96309">
        <ele>151.7</ele>
        <time>2020-06-30T10:17:16Z</time>
      </trkpt>
      <trkpt lat="48.6231" lon="4.96309">
        <ele>151.7</ele>
        <time>2020-06-30T10:17:17Z</time>
      </trkpt>
      <trkpt lat="48.6231" lon="4.96309">
        <ele>151.7</ele>
        <time>2020-06-30T10:17:18Z</time>
      </trkpt>
      <trkpt lat="48.6231" lon="4.96309">
        <ele>151.7</ele>
        <time>2020-06-30T10:17:19Z</time>
      </trkpt>
      <trkpt lat="48.6231" lon="4.96309">
        <ele>151.7</ele>
        <time>2020-06-30T10:17:20Z</time>
      </trkpt>
      <trkpt lat="48.6231" lon="4.96309">
        <ele>151.7</ele>
        <time>2020-06-30T10:17:21Z</time>
      </trkpt>
      <trkpt lat="48.6231" lon="4.96309">
        <ele>151.7</ele>
        <time>2020-06-30T10:17:22Z</time>
      </trkpt>
      <trkpt lat="48.6231" lon="4.96309">
        <ele>151.7</ele>
        <time>2020-06-30T10:17:23Z</time>
      </trkpt>
      <trkpt lat="48.6231" lon="4.96309">
        <ele>151.7</ele>
        <time>2020-06-30T10:17:24Z</time>
      </trkpt>
      <trkpt lat="48.6231" lon="4.96309">
        <ele>151.7</ele>
        <time>2020-06-30T10:17:25Z</time>
      </trkpt>
      <trkpt lat="48.62318" lon="4.96309">
        <ele>151.7</ele>
        <time>2020-06-30T10:19:47Z</time>
      </trkpt>
      <trkpt lat="48.6232" lon="4.96309">
        <ele>151.8</ele>
        <time>2020-06-30T10:19:48Z</time>
      </trkpt>
      <trkpt lat="48.62323" lon="4.96309">
        <ele>151.8</ele>
        <time>2020-06-30T10:19:49Z</time>
      </trkpt>
      <trkpt lat="48.62323" lon="4.96309">
        <ele>151.8</ele>
        <time>2020-06-30T10:19:50Z</time>
      </trkpt>
      <trkpt lat="48.62326" lon="4.9631">
        <ele>151.8</ele>
        <time>2020-06-30T10:19:51Z</time>
      </trkpt>
      <trkpt lat="48.62328" lon="4.9631">
        <ele>151.9</ele>
        <time>2020-06-30T10:19:52Z</time>
      </trkpt>
      <trkpt lat="48.6233" lon="4.96311">
        <ele>151.9</ele>
        <time>2020-06-30T10:19:53Z</time>
      </trkpt>
      <trkpt lat="48.62331" lon="4.96311">
        <ele>151.9</ele>
        <time>2020-06-30T10:19:54Z</time>
      </trkpt>
      <trkpt lat="48.62333" lon="4.96312">
        <ele>152</ele>
        <time>2020-06-30T10:19:55Z</time>
      </trkpt>
      <trkpt lat="48.62334" lon="4.96313">
        <ele>152</ele>
        <time>2020-06-30T10:19:56Z</time>
      </trkpt>
      <trkpt lat="48.62338" lon="4.96313">
        <ele>152</ele>
        <time>2020-06-30T10:19:57Z</time>
      </trkpt>
      <trkpt lat="48.62339" lon="4.96314">
        <ele>152.1</ele>
        <time>2020-06-30T10:19:58Z</time>
      </trkpt>
      <trkpt lat="48.6234" lon="4.96315">
        <ele>152.1</ele>
        <time>2020-06-30T10:19:59Z</time>
      </trkpt>
      <trkpt lat="48.62342" lon="4.96315">
        <ele>152.1</ele>
        <time>2020-06-30T10:20:00Z</time>
      </trkpt>
      <trkpt lat="48.62343" lon="4.96316">
        <ele>152.1</ele>
        <time>2020-06-30T10:20:01Z</time>
      </trkpt>
      <trkpt lat="48.62345" lon="4.96316">
        <ele>152.2</ele>
        <time>2020-06-30T10:20:02Z</time>
      </trkpt>
      <trkpt lat="48.62346" lon="4.96317">
        <ele>152.2</ele>
        <time>2020-06-30T10:20:03Z</time>
      </trkpt>
      <trkpt lat="48.62347" lon="4.96317">
        <ele>152.2</ele>
        <time>2020-06-30T10:20:04Z</time>
      </trkpt>
      <trkpt lat="48.62349" lon="4.96318">
        <ele>152.2</ele>
        <time>2020-06-30T10:20:05Z</time>
      </trkpt>
      <trkpt lat="48.6235" lon="4.96319">
        <ele>152.3</ele>
        <time>2020-06-30T10:20:06Z</time>
      </trkpt>
      <trkpt lat="48.62351" lon="4.96318">
        <ele>152.3</ele>
        <time>2020-06-30T10:20:07Z</time>
      </trkpt>
      <trkpt lat="48.62353" lon="4.96318">
        <ele>152.3</ele>
        <time>2020-06-30T10:20:08Z</time>
      </trkpt>
      <trkpt lat="48.62354" lon="4.96318">
        <ele>152.3</ele>
        <time>2020-06-30T10:20:09Z</time>
      </trkpt>
      <trkpt lat="48.62355" lon="4.96319">
        <ele>152.3</ele>
        <time>2020-06-30T10:20:10Z</time>
      </trkpt>
      <trkpt lat="48.62356" lon="4.96319">
        <ele>152.4</ele>
        <time>2020-06-30T10:20:11Z</time>
      </trkpt>
      <trkpt lat="48.62357" lon="4.96318">
        <ele>152.4</ele>
        <time>2020-06-30T10:20:12Z</time>
      </trkpt>
      <trkpt lat="48.62359" lon="4.96318">
        <ele>152.5</ele>
        <time>2020-06-30T10:20:13Z</time>
      </trkpt>
      <trkpt lat="48.6236" lon="4.96318">
        <ele>152.5</ele>
        <time>2020-06-30T10:20:14Z</time>
      </trkpt>
      <trkpt lat="48.62361" lon="4.96318">
        <ele>152.5</ele>
        <time>2020-06-30T10:20:15Z</time>
      </trkpt>
      <trkpt lat="48.62362" lon="4.96321">
        <ele>152.5</ele>
        <time>2020-06-30T10:20:16Z</time>
      </trkpt>
      <trkpt lat="48.62363" lon="4.96321">
        <ele>152.5</ele>
        <time>2020-06-30T10:20:17Z</time>
      </trkpt>
      <trkpt lat="48.62364" lon="4.9632">
        <ele>152.6</ele>
        <time>2020-06-30T10:20:18Z</time>
      </trkpt>
      <trkpt lat="48.62373" lon="4.96318">
        <ele>152.7</ele>
        <time>2020-06-30T10:20:27Z</time>
      </trkpt>
      <trkpt lat="48.6237" lon="4.96319">
        <ele>152.7</ele>
        <time>2020-06-30T10:20:28Z</time>
      </trkpt>
      <trkpt lat="48.62368" lon="4.9632">
        <ele>152.7</ele>
        <time>2020-06-30T10:20:29Z</time>
      </trkpt>
      <trkpt lat="48.62367" lon="4.96321">
        <ele>152.7</ele>
        <time>2020-06-30T10:20:30Z</time>
      </trkpt>
      <trkpt lat="48.62366" lon="4.96323">
        <ele>152.6</ele>
        <time>2020-06-30T10:20:31Z</time>
      </trkpt>
      <trkpt lat="48.62364" lon="4.96324">
        <ele>152.6</ele>
        <time>2020-06-30T10:20:32Z</time>
      </trkpt>
      <trkpt lat="48.62363" lon="4.96325">
        <ele>152.6</ele>
        <time>2020-06-30T10:20:33Z</time>
      </trkpt>
      <trkpt lat="48.62362" lon="4.96326">
        <ele>152.6</ele>
        <time>2020-06-30T10:20:34Z</time>
      </trkpt>
      <trkpt lat="48.6236" lon="4.96327">
        <ele>152.5</ele>
        <time>2020-06-30T10:20:35Z</time>
      </trkpt>
      <trkpt lat="48.62359" lon="4.96328">
        <ele>152.5</ele>
        <time>2020-06-30T10:20:36Z</time>
      </trkpt>
      <trkpt lat="48.62357" lon="4.96329">
        <ele>152.4</ele>
        <time>2020-06-30T10:20:37Z</time>
      </trkpt>
      <trkpt lat="48.62356" lon="4.9633">
        <ele>152.4</ele>
        <time>2020-06-30T10:20:38Z</time>
      </trkpt>
      <trkpt lat="48.62355" lon="4.96331">
        <ele>152.4</ele>
        <time>2020-06-30T10:24:06Z</time>
      </trkpt>
      <trkpt lat="48.62353" lon="4.96332">
        <ele>152.4</ele>
        <time>2020-06-30T10:24:07Z</time>
      </trkpt>
      <trkpt lat="48.62352" lon="4.96333">
        <ele>152.3</ele>
        <time>2020-06-30T10:24:08Z</time>
      </trkpt>
      <trkpt lat="48.6235" lon="4.96334">
        <ele>152.3</ele>
        <time>2020-06-30T10:24:09Z</time>
      </trkpt>
      <trkpt lat="48.62349" lon="4.96336">
        <ele>152.3</ele>
        <time>2020-06-30T10:24:10Z</time>
      </trkpt>
      <trkpt lat="48.62352" lon="4.96334">
        <ele>152.4</ele>
        <time>2020-06-30T10:24:11Z</time>
      </trkpt>
      <trkpt lat="48.62353" lon="4.96334">
        <ele>152.4</ele>
        <time>2020-06-30T10:24:12Z</time>
      </trkpt>
      <trkpt lat="48.62356" lon="4.96332">
        <ele>152.4</ele>
        <time>2020-06-30T10:24:13Z</time>
      </trkpt>
      <trkpt lat="48.62357" lon="4.96332">
        <ele>152.4</ele>
        <time>2020-06-30T10:24:14Z</time>
      </trkpt>
      <trkpt lat="48.62358" lon="4.9633">
        <ele>152.5</ele>
        <time>2020-06-30T10:24:15Z</time>
      </trkpt>
      <trkpt lat="48.62359" lon="4.96328">
        <ele>152.5</ele>
        <time>2020-06-30T10:24:16Z</time>
      </trkpt>
      <trkpt lat="48.6236" lon="4.96326">
        <ele>152.5</ele>
        <time>2020-06-30T10:24:17Z</time>
      </trkpt>
      <trkpt lat="48.62362" lon="4.96325">
        <ele>152.6</ele>
        <time>2020-06-30T10:24:18Z</time>
      </trkpt>
      <trkpt lat="48.62363" lon="4.96325">
        <ele>152.6</ele>
        <time>2020-06-30T10:24:19Z</time>
      </trkpt>
      <trkpt lat="48.62364" lon="4.96324">
        <ele>152.6</ele>
        <time>2020-06-30T10:24:20Z</time>
      </trkpt>
      <trkpt lat="48.62365" lon="4.96324">
        <ele>152.6</ele>
        <time>2020-06-30T10:24:21Z</time>
      </trkpt>
      <trkpt lat="48.62366" lon="4.96324">
        <ele>152.6</ele>
        <time>2020-06-30T10:24:22Z</time>
      </trkpt>
      <trkpt lat="48.62367" lon="4.96323">
        <ele>152.7</ele>
        <time>2020-06-30T10:24:23Z</time>
      </trkpt>
      <trkpt lat="48.62368" lon="4.96323">
        <ele>152.7</ele>
        <time>2020-06-30T10:24:24Z</time>
      </trkpt>
      <trkpt lat="48.62368" lon="4.96323">
        <ele>152.7</ele>
        <time>2020-06-30T10:24:25Z</time>
      </trkpt>
      <trkpt lat="48.62369" lon="4.96323">
        <ele>152.7</ele>
        <time>2020-06-30T10:24:26Z</time>
      </trkpt>
      <trkpt lat="48.62371" lon="4.96322">
        <ele>152.7</ele>
        <time>2020-06-30T10:24:27Z</time>
      </trkpt>
      <trkpt lat="48.62373" lon="4.96321">
        <ele>152.8</ele>
        <time>2020-06-30T10:24:28Z</time>
      </trkpt>
      <trkpt lat="48.62373" lon="4.96307">
        <ele>152.7</ele>
        <time>2020-06-30T10:24:29Z</time>
      </trkpt>
      <trkpt lat="48.62376" lon="4.96306">
        <ele>152.7</ele>
        <time>2020-06-30T10:24:30Z</time>
      </trkpt>
      <trkpt lat="48.62378" lon="4.96305">
        <ele>152.7</ele>
        <time>2020-06-30T10:24:31Z</time>
      </trkpt>
      <trkpt lat="48.6238" lon="4.96304">
        <ele>152.7</ele>
        <time>2020-06-30T10:24:32Z</time>
      </trkpt>
      <trkpt lat="48.62382" lon="4.96304">
        <ele>152.8</ele>
        <time>2020-06-30T10:24:33Z</time>
      </trkpt>
      <trkpt lat="48.62384" lon="4.96303">
        <ele>152.8</ele>
        <time>2020-06-30T10:24:34Z</time>
      </trkpt>
      <trkpt lat="48.62387" lon="4.96309">
        <ele>152.9</ele>
        <time>2020-06-30T10:24:35Z</time>
      </trkpt>
      <trkpt lat="48.62389" lon="4.96309">
        <ele>152.9</ele>
        <time>2020-06-30T10:24:36Z</time>
      </trkpt>
      <trkpt lat="48.62407" lon="4.9631">
        <ele>153.2</ele>
        <time>2020-06-30T10:24:47Z</time>
      </trkpt>
      <trkpt lat="48.62408" lon="4.9631">
        <ele>153.2</ele>
        <time>2020-06-30T10:24:48Z</time>
      </trkpt>
      <trkpt lat="48.62411" lon="4.9631">
        <ele>153.2</ele>
        <time>2020-06-30T10:24:49Z</time>
      </trkpt>
      <trkpt lat="48.62413" lon="4.9631">
        <ele>153.3</ele>
        <time>2020-06-30T10:24:50Z</time>
      </trkpt>
      <trkpt lat="48.62415" lon="4.96309">
        <ele>153.3</ele>
        <time>2020-06-30T10:24:51Z</time>
      </trkpt>
      <trkpt lat="48.62417" lon="4.96308">
        <ele>153.3</ele>
        <time>2020-06-30T10:24:52Z</time>
      </trkpt>
      <trkpt lat="48.62419" lon="4.96307">
        <ele>153.2</ele>
        <time>2020-06-30T10:24:53Z</time>
      </trkpt>
      <trkpt lat="48.62421" lon="4.96306">
        <ele>153.3</ele>
        <time>2020-06-30T10:24:54Z</time>
      </trkpt>
      <trkpt lat="48.62422" lon="4.96305">
        <ele>153.3</ele>
        <time>2020-06-30T10:24:55Z</time>
      </trkpt>
      <trkpt lat="48.62423" lon="4.96305">
        <ele>153.3</ele>
        <time>2020-06-30T10:24:56Z</time>
      </trkpt>
      <trkpt lat="48.62425" lon="4.96304">
        <ele>153.3</ele>
        <time>2020-06-30T10:24:57Z</time>
      </trkpt>
      <trkpt lat="48.62455" lon="4.96284">
        <ele>152.7</ele>
        <time>2020-06-30T10:25:12Z</time>
      </trkpt>
      <trkpt lat="48.62454" lon="4.96284">
        <ele>152.7</ele>
        <time>2020-06-30T10:25:13Z</time>
      </trkpt>
      <trkpt lat="48.62464" lon="4.96278">
        <ele>152.5</ele>
        <time>2020-06-30T10:25:14Z</time>
      </trkpt>
      <trkpt lat="48.62466" lon="4.96276">
        <ele>152.4</ele>
        <time>2020-06-30T10:25:15Z</time>
      </trkpt>
      <trkpt lat="48.62468" lon="4.96274">
        <ele>152.4</ele>
        <time>2020-06-30T10:25:16Z</time>
      </trkpt>
      <trkpt lat="48.62466" lon="4.96276">
        <ele>152.4</ele>
        <time>2020-06-30T10:25:17Z</time>
      </trkpt>
      <trkpt lat="48.62467" lon="4.96275">
        <ele>152.4</ele>
        <time>2020-06-30T10:25:18Z</time>
      </trkpt>
      <trkpt lat="48.62466" lon="4.96275">
        <ele>152.4</ele>
        <time>2020-06-30T10:25:19Z</time>
      </trkpt>
      <trkpt lat="48.62467" lon="4.96275">
        <ele>152.4</ele>
        <time>2020-06-30T10:25:20Z</time>
      </trkpt>
      <trkpt lat="48.62468" lon="4.96274">
        <ele>152.4</ele>
        <time>2020-06-30T10:25:21Z</time>
      </trkpt>
      <trkpt lat="48.62468" lon="4.96274">
        <ele>152.4</ele>
        <time>2020-06-30T10:25:22Z</time>
      </trkpt>
      <trkpt lat="48.62469" lon="4.96273">
        <ele>152.4</ele>
        <time>2020-06-30T10:25:23Z</time>
      </trkpt>
      <trkpt lat="48.62469" lon="4.96273">
        <ele>152.3</ele>
        <time>2020-06-30T10:25:24Z</time>
      </trkpt>
      <trkpt lat="48.62342" lon="4.96357">
        <ele>152.2</ele>
        <time>2020-06-30T10:32:31Z</time>
      </trkpt>
      <trkpt lat="48.62342" lon="4.96359">
        <ele>152.2</ele>
        <time>2020-06-30T10:32:32Z</time>
      </trkpt>
      <trkpt lat="48.62342" lon="4.9636">
        <ele>152.2</ele>
        <time>2020-06-30T10:32:33Z</time>
      </trkpt>
      <trkpt lat="48.62342" lon="4.96361">
        <ele>152.2</ele>
        <time>2020-06-30T10:32:34Z</time>
      </trkpt>
      <trkpt lat="48.62342" lon="4.96362">
        <ele>152.2</ele>
        <time>2020-06-30T10:32:35Z</time>
      </trkpt>
      <trkpt lat="48.62341" lon="4.96363">
        <ele>152.2</ele>
        <time>2020-06-30T10:32:36Z</time>
      </trkpt>
      <trkpt lat="48.62341" lon="4.96364">
        <ele>152.2</ele>
        <time>2020-06-30T10:32:37Z</time>
      </trkpt>
      <trkpt lat="48.62341" lon="4.96365">
        <ele>152.2</ele>
        <time>2020-06-30T10:32:38Z</time>
      </trkpt>
      <trkpt lat="48.62341" lon="4.96366">
        <ele>152.1</ele>
        <time>2020-06-30T10:32:39Z</time>
      </trkpt>
      <trkpt lat="48.6234" lon="4.96367">
        <ele>152.1</ele>
        <time>2020-06-30T10:32:40Z</time>
      </trkpt>
      <trkpt lat="48.6234" lon="4.96367">
        <ele>152.1</ele>
        <time>2020-06-30T10:32:41Z</time>
      </trkpt>
      <trkpt lat="48.6234" lon="4.96369">
        <ele>152.1</ele>
        <time>2020-06-30T10:32:42Z</time>
      </trkpt>
      <trkpt lat="48.62341" lon="4.9637">
        <ele>152.1</ele>
        <time>2020-06-30T10:32:43Z</time>
      </trkpt>
      <trkpt lat="48.6234" lon="4.96371">
        <ele>152.1</ele>
        <time>2020-06-30T10:32:44Z</time>
      </trkpt>
      <trkpt lat="48.62339" lon="4.96372">
        <ele>152.1</ele>
        <time>2020-06-30T10:32:45Z</time>
      </trkpt>
      <trkpt lat="48.62338" lon="4.9637">
        <ele>152.1</ele>
        <time>2020-06-30T10:32:46Z</time>
      </trkpt>
      <trkpt lat="48.62337" lon="4.96369">
        <ele>152.1</ele>
        <time>2020-06-30T10:32:47Z</time>
      </trkpt>
      <trkpt lat="48.62336" lon="4.96367">
        <ele>152.1</ele>
        <time>2020-06-30T10:32:48Z</time>
      </trkpt>
      <trkpt lat="48.62335" lon="4.96367">
        <ele>152.1</ele>
        <time>2020-06-30T10:32:49Z</time>
      </trkpt>
      <trkpt lat="48.62317" lon="4.96395">
        <ele>151.8</ele>
        <time>2020-06-30T10:37:29Z</time>
      </trkpt>
      <trkpt lat="48.62317" lon="4.96395">
        <ele>151.8</ele>
        <time>2020-06-30T10:37:30Z</time>
      </trkpt>
      <trkpt lat="48.62318" lon="4.96395">
        <ele>151.8</ele>
        <time>2020-06-30T10:37:31Z</time>
      </trkpt>
      <trkpt lat="48.62318" lon="4.96394">
        <ele>151.8</ele>
        <time>2020-06-30T10:37:32Z</time>
      </trkpt>
      <trkpt lat="48.62317" lon="4.96394">
        <ele>151.8</ele>
        <time>2020-06-30T10:37:33Z</time>
      </trkpt>
      <trkpt lat="48.62317" lon="4.96393">
        <ele>151.8</ele>
        <time>2020-06-30T10:37:34Z</time>
      </trkpt>
      <trkpt lat="48.62317" lon="4.96392">
        <ele>151.8</ele>
        <time>2020-06-30T10:37:35Z</time>
      </trkpt>
      <trkpt lat="48.62317" lon="4.96392">
        <ele>151.8</ele>
        <time>2020-06-30T10:37:36Z</time>
      </trkpt>
      <trkpt lat="48.62317" lon="4.96392">
        <ele>151.8</ele>
        <time>2020-06-30T10:37:37Z</time>
      </trkpt>
      <trkpt lat="48.62317" lon="4.96392">
        <ele>151.8</ele>
        <time>2020-06-30T10:37:38Z</time>
      </trkpt>
      <trkpt lat="48.62317" lon="4.96392">
        <ele>151.8</ele>
        <time>2020-06-30T10:37:39Z</time>
      </trkpt>
      <trkpt lat="48.62272" lon="4.96347">
        <ele>151.3</ele>
        <time>2020-06-30T10:37:48Z</time>
      </trkpt>
      <trkpt lat="48.62293" lon="4.96368">
        <ele>151.6</ele>
        <time>2020-06-30T11:08:29Z</time>
      </trkpt>
      <trkpt lat="48.62293" lon="4.96369">
        <ele>151.6</ele>
        <time>2020-06-30T11:08:30Z</time>
      </trkpt>
      <trkpt lat="48.62292" lon="4.9637">
        <ele>151.6</ele>
        <time>2020-06-30T11:08:31Z</time>
      </trkpt>
      <trkpt lat="48.62292" lon="4.96371">
        <ele>151.6</ele>
        <time>2020-06-30T11:08:32Z</time>
      </trkpt>
      <trkpt lat="48.62292" lon="4.96372">
        <ele>151.6</ele>
        <time>2020-06-30T11:08:33Z</time>
      </trkpt>
      <trkpt lat="48.62293" lon="4.96372">
        <ele>151.6</ele>
        <time>2020-06-30T11:08:34Z</time>
      </trkpt>
      <trkpt lat="48.62293" lon="4.96373">
        <ele>151.6</ele>
        <time>2020-06-30T11:08:35Z</time>
      </trkpt>
      <trkpt lat="48.62293" lon="4.96373">
        <ele>151.6</ele>
        <time>2020-06-30T11:08:36Z</time>
      </trkpt>
      <trkpt lat="48.62294" lon="4.96373">
        <ele>151.6</ele>
        <time>2020-06-30T11:08:37Z</time>
      </trkpt>
      <trkpt lat="48.62294" lon="4.96372">
        <ele>151.6</ele>
        <time>2020-06-30T11:08:38Z</time>
      </trkpt>
      <trkpt lat="48.62295" lon="4.96372">
        <ele>151.6</ele>
        <time>2020-06-30T11:08:39Z</time>
      </trkpt>
      <trkpt lat="48.62295" lon="4.96372">
        <ele>151.6</ele>
        <time>2020-06-30T11:08:40Z</time>
      </trkpt>
      <trkpt lat="48.62293" lon="4.9637">
        <ele>151.6</ele>
        <time>2020-06-30T11:08:41Z</time>
      </trkpt>
      <trkpt lat="48.62294" lon="4.9637">
        <ele>151.6</ele>
        <time>2020-06-30T11:08:42Z</time>
      </trkpt>
      <trkpt lat="48.62294" lon="4.96369">
        <ele>151.6</ele>
        <time>2020-06-30T11:08:43Z</time>
      </trkpt>
      <trkpt lat="48.62294" lon="4.96369">
        <ele>151.6</ele>
        <time>2020-06-30T11:08:44Z</time>
      </trkpt>
      <trkpt lat="48.62295" lon="4.96369">
        <ele>151.6</ele>
        <time>2020-06-30T11:08:45Z</time>
      </trkpt>
      <trkpt lat="48.62296" lon="4.96368">
        <ele>151.6</ele>
        <time>2020-06-30T11:08:46Z</time>
      </trkpt>
      <trkpt lat="48.62294" lon="4.96366">
        <ele>151.6</ele>
        <time>2020-06-30T11:08:47Z</time>
      </trkpt>
      <trkpt lat="48.62294" lon="4.96366">
        <ele>151.6</ele>
        <time>2020-06-30T11:08:48Z</time>
      </trkpt>
      <trkpt lat="48.62298" lon="4.96363">
        <ele>151.6</ele>
        <time>2020-06-30T11:08:57Z</time>
      </trkpt>
      <trkpt lat="48.62299" lon="4.96363">
        <ele>151.6</ele>
        <time>2020-06-30T11:08:58Z</time>
      </trkpt>
      <trkpt lat="48.62299" lon="4.96362">
        <ele>151.6</ele>
        <time>2020-06-30T11:08:59Z</time>
      </trkpt>
      <trkpt lat="48.62299" lon="4.96361">
        <ele>151.6</ele>
        <time>2020-06-30T11:09:00Z</time>
      </trkpt>
      <trkpt lat="48.62299" lon="4.96361">
        <ele>151.6</ele>
        <time>2020-06-30T11:09:01Z</time>
      </trkpt>
      <trkpt lat="48.62297" lon="4.96362">
        <ele>151.6</ele>
        <time>2020-06-30T11:09:02Z</time>
      </trkpt>
      <trkpt lat="48.62297" lon="4.96362">
        <ele>151.6</ele>
        <time>2020-06-30T11:09:03Z</time>
      </trkpt>
      <trkpt lat="48.62297" lon="4.96363">
        <ele>151.6</ele>
        <time>2020-06-30T11:09:04Z</time>
      </trkpt>
      <trkpt lat="48.62296" lon="4.96362">
        <ele>151.6</ele>
        <time>2020-06-30T11:09:05Z</time>
      </trkpt>
      <trkpt lat="48.62296" lon="4.96362">
        <ele>151.6</ele>
        <time>2020-06-30T11:09:06Z</time>
      </trkpt>
      <trkpt lat="48.62296" lon="4.96362">
        <ele>151.6</ele>
        <time>2020-06-30T11:09:07Z</time>
      </trkpt>
      <trkpt lat="48.62297" lon="4.96361">
        <ele>151.6</ele>
        <time>2020-06-30T11:09:08Z</time>
      </trkpt>
      <trkpt lat="48.62298" lon="4.96361">
        <ele>151.6</ele>
        <time>2020-06-30T11:09:09Z</time>
      </trkpt>
      <trkpt lat="48.62299" lon="4.96361">
        <ele>151.6</ele>
        <time>2020-06-30T11:09:10Z</time>
      </trkpt>
      <trkpt lat="48.623" lon="4.9636">
        <ele>151.6</ele>
        <time>2020-06-30T11:09:11Z</time>
      </trkpt>
      <trkpt lat="48.62301" lon="4.9636">
        <ele>151.6</ele>
        <time>2020-06-30T11:09:12Z</time>
      </trkpt>
      <trkpt lat="48.62302" lon="4.96359">
        <ele>151.6</ele>
        <time>2020-06-30T11:09:13Z</time>
      </trkpt>
      <trkpt lat="48.62303" lon="4.96359">
        <ele>151.6</ele>
        <time>2020-06-30T11:09:14Z</time>
      </trkpt>
      <trkpt lat="48.62297" lon="4.96369">
        <ele>151.6</ele>
        <time>2020-06-30T11:11:29Z</time>
      </trkpt>
      <trkpt lat="48.62297" lon="4.9637">
        <ele>151.6</ele>
        <time>2020-06-30T11:11:30Z</time>
      </trkpt>
      <trkpt lat="48.62297" lon="4.96371">
        <ele>151.6</ele>
        <time>2020-06-30T11:11:31Z</time>
      </trkpt>
      <trkpt lat="48.62293" lon="4.96373">
        <ele>151.6</ele>
        <time>2020-06-30T11:11:32Z</time>
      </trkpt>
      <trkpt lat="48.62292" lon="4.96374">
        <ele>151.6</ele>
        <time>2020-06-30T11:11:33Z</time>
      </trkpt>
      <trkpt lat="48.62291" lon="4.96377">
        <ele>151.6</ele>
        <time>2020-06-30T11:11:34Z</time>
      </trkpt>
      <trkpt lat="48.62291" lon="4.96378">
        <ele>151.6</ele>
        <time>2020-06-30T11:11:35Z</time>
      </trkpt>
      <trkpt lat="48.6229" lon="4.96379">
        <ele>151.6</ele>
        <time>2020-06-30T11:11:36Z</time>
      </trkpt>
      <trkpt lat="48.6229" lon="4.96377">
        <ele>151.6</ele>
        <time>2020-06-30T11:11:37Z</time>
      </trkpt>
      <trkpt lat="48.62291" lon="4.96376">
        <ele>151.6</ele>
        <time>2020-06-30T11:11:38Z</time>
      </trkpt>
      <trkpt lat="48.62291" lon="4.96374">
        <ele>151.6</ele>
        <time>2020-06-30T11:11:39Z</time>
      </trkpt>
      <trkpt lat="48.62292" lon="4.96372">
        <ele>151.6</ele>
        <time>2020-06-30T11:11:40Z</time>
      </trkpt>
      <trkpt lat="48.62292" lon="4.9637">
        <ele>151.6</ele>
        <time>2020-06-30T11:11:41Z</time>
      </trkpt>
      <trkpt lat="48.62292" lon="4.96368">
        <ele>151.6</ele>
        <time>2020-06-30T11:11:42Z</time>
      </trkpt>
      <trkpt lat="48.62293" lon="4.96366">
        <ele>151.6</ele>
        <time>2020-06-30T11:11:43Z</time>
      </trkpt>
      <trkpt lat="48.62293" lon="4.96365">
        <ele>151.6</ele>
        <time>2020-06-30T11:11:44Z</time>
      </trkpt>
      <trkpt lat="48.62293" lon="4.96363">
        <ele>151.6</ele>
        <time>2020-06-30T11:11:57Z</time>
      </trkpt>
      <trkpt lat="48.62294" lon="4.96361">
        <ele>151.6</ele>
        <time>2020-06-30T11:11:58Z</time>
      </trkpt>
      <trkpt lat="48.62294" lon="4.96359">
        <ele>151.6</ele>
        <time>2020-06-30T11:11:59Z</time>
      </trkpt>
      <trkpt lat="48.62295" lon="4.96357">
        <ele>151.5</ele>
        <time>2020-06-30T11:12:00Z</time>
      </trkpt>
      <trkpt lat="48.62295" lon="4.96355">
        <ele>151.5</ele>
        <time>2020-06-30T11:12:01Z</time>
      </trkpt>
      <trkpt lat="48.62295" lon="4.96353">
        <ele>151.5</ele>
        <time>2020-06-30T11:12:02Z</time>
      </trkpt>
      <trkpt lat="48.62296" lon="4.96352">
        <ele>151.5</ele>
        <time>2020-06-30T11:12:03Z</time>
      </trkpt>
      <trkpt lat="48.62296" lon="4.96351">
        <ele>151.5</ele>
        <time>2020-06-30T11:12:04Z</time>
      </trkpt>
      <trkpt lat="48.62296" lon="4.9635">
        <ele>151.5</ele>
        <time>2020-06-30T11:12:05Z</time>
      </trkpt>
      <trkpt lat="48.62297" lon="4.96349">
        <ele>151.5</ele>
        <time>2020-06-30T11:12:06Z</time>
      </trkpt>
      <trkpt lat="48.62297" lon="4.96348">
        <ele>151.5</ele>
        <time>2020-06-30T11:12:07Z</time>
      </trkpt>
      <trkpt lat="48.62298" lon="4.96346">
        <ele>151.6</ele>
        <time>2020-06-30T11:12:08Z</time>
      </trkpt>
      <trkpt lat="48.62297" lon="4.96343">
        <ele>151.5</ele>
        <time>2020-06-30T11:12:09Z</time>
      </trkpt>
      <trkpt lat="48.62298" lon="4.96342">
        <ele>151.5</ele>
        <time>2020-06-30T11:12:10Z</time>
      </trkpt>
      <trkpt lat="48.62298" lon="4.96341">
        <ele>151.6</ele>
        <time>2020-06-30T11:12:11Z</time>
      </trkpt>
      <trkpt lat="48.62298" lon="4.9634">
        <ele>151.6</ele>
        <time>2020-06-30T11:12:12Z</time>
      </trkpt>
      <trkpt lat="48.62298" lon="4.9634">
        <ele>151.6</ele>
        <time>2020-06-30T11:12:13Z</time>
      </trkpt>
      <trkpt lat="48.62298" lon="4.9634">
        <ele>151.6</ele>
        <time>2020-06-30T11:12:14Z</time>
      </trkpt>
      <trkpt lat="48.62299" lon="4.9634">
        <ele>151.6</ele>
        <time>2020-06-30T11:12:15Z</time>
      </trkpt>
      <trkpt lat="48.62298" lon="4.96341">
        <ele>151.6</ele>
        <time>2020-06-30T11:12:16Z</time>
      </trkpt>
      <trkpt lat="48.62278" lon="4.96387">
        <ele>151.7</ele>
        <time>2020-06-30T11:14:32Z</time>
      </trkpt>
      <trkpt lat="48.62278" lon="4.96387">
        <ele>151.7</ele>
        <time>2020-06-30T11:14:33Z</time>
      </trkpt>
      <trkpt lat="48.62279" lon="4.9639">
        <ele>151.7</ele>
        <time>2020-06-30T11:14:34Z</time>
      </trkpt>
      <trkpt lat="48.62278" lon="4.9639">
        <ele>151.7</ele>
        <time>2020-06-30T11:14:35Z</time>
      </trkpt>
      <trkpt lat="48.62278" lon="4.9639">
        <ele>151.7</ele>
        <time>2020-06-30T11:14:36Z</time>
      </trkpt>
      <trkpt lat="48.62279" lon="4.9639">
        <ele>151.7</ele>
        <time>2020-06-30T11:14:37Z</time>
      </trkpt>
      <trkpt lat="48.62279" lon="4.9639">
        <ele>151.7</ele>
        <time>2020-06-30T11:14:38Z</time>
      </trkpt>
      <trkpt lat="48.62279" lon="4.96391">
        <ele>151.7</ele>
        <time>2020-06-30T11:14:39Z</time>
      </trkpt>
      <trkpt lat="48.62279" lon="4.96391">
        <ele>151.7</ele>
        <time>2020-06-30T11:14:40Z</time>
      </trkpt>
      <trkpt lat="48.62279" lon="4.96391">
        <ele>151.7</ele>
        <time>2020-06-30T11:14:41Z</time>
      </trkpt>
      <trkpt lat="48.62279" lon="4.96392">
        <ele>151.7</ele>
        <time>2020-06-30T11:14:42Z</time>
      </trkpt>
      <trkpt lat="48.62279" lon="4.96392">
        <ele>151.7</ele>
        <time>2020-06-30T11:14:43Z</time>
      </trkpt>
      <trkpt lat="48.62279" lon="4.96392">
        <ele>151.7</ele>
        <time>2020-06-30T11:14:44Z</time>
      </trkpt>
      <trkpt lat="48.62279" lon="4.96392">
        <ele>151.7</ele>
        <time>2020-06-30T11:14:45Z</time>
      </trkpt>
      <trkpt lat="48.62279" lon="4.96393">
        <ele>151.7</ele>
        <time>2020-06-30T11:14:46Z</time>
      </trkpt>
      <trkpt lat="48.62279" lon="4.96393">
        <ele>151.7</ele>
        <time>2020-06-30T11:14:47Z</time>
      </trkpt>
      <trkpt lat="48.62279" lon="4.96393">
        <ele>151.7</ele>
        <time>2020-06-30T11:14:48Z</time>
      </trkpt>
      <trkpt lat="48.62279" lon="4.96394">
        <ele>151.7</ele>
        <time>2020-06-30T11:14:49Z</time>
      </trkpt>
      <trkpt lat="48.62279" lon="4.96394">
        <ele>151.7</ele>
        <time>2020-06-30T11:14:50Z</time>
      </trkpt>
      <trkpt lat="48.62279" lon="4.96394">
        <ele>151.7</ele>
        <time>2020-06-30T11:14:51Z</time>
      </trkpt>
      <trkpt lat="48.62279" lon="4.96395">
        <ele>151.7</ele>
        <time>2020-06-30T11:14:52Z</time>
      </trkpt>
      <trkpt lat="48.62279" lon="4.96395">
        <ele>151.7</ele>
        <time>2020-06-30T11:14:53Z</time>
      </trkpt>
      <trkpt lat="48.62279" lon="4.96395">
        <ele>151.7</ele>
        <time>2020-06-30T11:14:54Z</time>
      </trkpt>
      <trkpt lat="48.62279" lon="4.96395">
        <ele>151.7</ele>
        <time>2020-06-30T11:14:55Z</time>
      </trkpt>
      <trkpt lat="48.62279" lon="4.96396">
        <ele>151.7</ele>
        <time>2020-06-30T11:16:17Z</time>
      </trkpt>
      <trkpt lat="48.62279" lon="4.96396">
        <ele>151.7</ele>
        <time>2020-06-30T11:16:18Z</time>
      </trkpt>
      <trkpt lat="48.62279" lon="4.96396">
        <ele>151.7</ele>
        <time>2020-06-30T11:16:19Z</time>
      </trkpt>
      <trkpt lat="48.62279" lon="4.96397">
        <ele>151.7</ele>
        <time>2020-06-30T11:16:20Z</time>
      </trkpt>
      <trkpt lat="48.62279" lon="4.96397">
        <ele>151.7</ele>
        <time>2020-06-30T11:16:21Z</time>
      </trkpt>
      <trkpt lat="48.62279" lon="4.96397">
        <ele>151.7</ele>
        <time>2020-06-30T11:16:22Z</time>
      </trkpt>
      <trkpt lat="48.6228" lon="4.96397">
        <ele>151.7</ele>
        <time>2020-06-30T11:16:23Z</time>
      </trkpt>
      <trkpt lat="48.6228" lon="4.96397">
        <ele>151.7</ele>
        <time>2020-06-30T11:16:24Z</time>
      </trkpt>
      <trkpt lat="48.62281" lon="4.96397">
        <ele>151.6</ele>
        <time>2020-06-30T11:16:25Z</time>
      </trkpt>
      <trkpt lat="48.62281" lon="4.96397">
        <ele>151.6</ele>
        <time>2020-06-30T11:16:26Z</time>
      </trkpt>
      <trkpt lat="48.62281" lon="4.96397">
        <ele>151.6</ele>
        <time>2020-06-30T11:16:27Z</time>
      </trkpt>
      <trkpt lat="48.62282" lon="4.96397">
        <ele>151.6</ele>
        <time>2020-06-30T11:16:28Z</time>
      </trkpt>
      <trkpt lat="48.62282" lon="4.96397">
        <ele>151.6</ele>
        <time>2020-06-30T11:16:29Z</time>
      </trkpt>
      <trkpt lat="48.62283" lon="4.96397">
        <ele>151.6</ele>
        <time>2020-06-30T11:16:30Z</time>
      </trkpt>
      <trkpt lat="48.62283" lon="4.96397">
        <ele>151.6</ele>
        <time>2020-06-30T11:16:31Z</time>
      </trkpt>
      <trkpt lat="48.62283" lon="4.96397">
        <ele>151.6</ele>
        <time>2020-06-30T11:16:32Z</time>
      </trkpt>
      <trkpt lat="48.62284" lon="4.96397">
        <ele>151.6</ele>
        <time>2020-06-30T11:16:33Z</time>
      </trkpt>
      <trkpt lat="48.62284" lon="4.96397">
        <ele>151.6</ele>
        <time>2020-06-30T11:16:34Z</time>
      </trkpt>
      <trkpt lat="48.62285" lon="4.96397">
        <ele>151.6</ele>
        <time>2020-06-30T11:16:35Z</time>
      </trkpt>
      <trkpt lat="48.62285" lon="4.96397">
        <ele>151.6</ele>
        <time>2020-06-30T11:16:36Z</time>
      </trkpt>
      <trkpt lat="48.62285" lon="4.96397">
        <ele>151.6</ele>
        <time>2020-06-30T11:16:37Z</time>
      </trkpt>
      <trkpt lat="48.62286" lon="4.96397">
        <ele>151.6</ele>
        <time>2020-06-30T11:16:38Z</time>
      </trkpt>
      <trkpt lat="48.62286" lon="4.96397">
        <ele>151.6</ele>
        <time>2020-06-30T11:16:39Z</time>
      </trkpt>
      <trkpt lat="48.62287" lon="4.96397">
        <ele>151.6</ele>
        <time>2020-06-30T11:16:40Z</time>
      </trkpt>
      <trkpt lat="48.62287" lon="4.96397">
        <ele>151.6</ele>
        <time>2020-06-30T11:17:36Z</time>
      </trkpt>
      <trkpt lat="48.62287" lon="4.96397">
        <ele>151.6</ele>
        <time>2020-06-30T11:17:37Z</time>
      </trkpt>
      <trkpt lat="48.62288" lon="4.96397">
        <ele>151.6</ele>
        <time>2020-06-30T11:17:38Z</time>
      </trkpt>
      <trkpt lat="48.62288" lon="4.96397">
        <ele>151.6</ele>
        <time>2020-06-30T11:17:39Z</time>
      </trkpt>
      <trkpt lat="48.62288" lon="4.96397">
        <ele>151.6</ele>
        <time>2020-06-30T11:17:40Z</time>
      </trkpt>
      <trkpt lat="48.62289" lon="4.96397">
        <ele>151.6</ele>
        <time>2020-06-30T11:17:41Z</time>
      </trkpt>
      <trkpt lat="48.62289" lon="4.96397">
        <ele>151.6</ele>
        <time>2020-06-30T11:17:42Z</time>
      </trkpt>
      <trkpt lat="48.6229" lon="4.96397">
        <ele>151.6</ele>
        <time>2020-06-30T11:17:43Z</time>
      </trkpt>
      <trkpt lat="48.6229" lon="4.96397">
        <ele>151.6</ele>
        <time>2020-06-30T11:17:44Z</time>
      </trkpt>
      <trkpt lat="48.6229" lon="4.96397">
        <ele>151.6</ele>
        <time>2020-06-30T11:17:45Z</time>
      </trkpt>
      <trkpt lat="48.6229" lon="4.96397">
        <ele>151.6</ele>
        <time>2020-06-30T11:17:46Z</time>
      </trkpt>
      <trkpt lat="48.6229" lon="4.96397">
        <ele>151.6</ele>
        <time>2020-06-30T11:17:47Z</time>
      </trkpt>
      <trkpt lat="48.6228" lon="4.96376">
        <ele>151.5</ele>
        <time>2020-06-30T11:25:06Z</time>
      </trkpt>
      <trkpt lat="48.62279" lon="4.96376">
        <ele>151.5</ele>
        <time>2020-06-30T11:25:07Z</time>
      </trkpt>
      <trkpt lat="48.62278" lon="4.96375">
        <ele>151.5</ele>
        <time>2020-06-30T11:25:08Z</time>
      </trkpt>
      <trkpt lat="48.62278" lon="4.96375">
        <ele>151.5</ele>
        <time>2020-06-30T11:25:09Z</time>
      </trkpt>
      <trkpt lat="48.62278" lon="4.96375">
        <ele>151.5</ele>
        <time>2020-06-30T11:25:10Z</time>
      </trkpt>
      <trkpt lat="48.62278" lon="4.96375">
        <ele>151.5</ele>
        <time>2020-06-30T11:25:11Z</time>
      </trkpt>
      <trkpt lat="48.62277" lon="4.96374">
        <ele>151.5</ele>
        <time>2020-06-30T11:25:12Z</time>
      </trkpt>
      <trkpt lat="48.62277" lon="4.96374">
        <ele>151.5</ele>
        <time>2020-06-30T11:25:13Z</time>
      </trkpt>
      <trkpt lat="48.62277" lon="4.96374">
        <ele>151.5</ele>
        <time>2020-06-30T11:25:14Z</time>
      </trkpt>
      <trkpt lat="48.62277" lon="4.96374">
        <ele>151.5</ele>
        <time>2020-06-30T11:25:15Z</time>
      </trkpt>
      <trkpt lat="48.62277" lon="4.96374">
        <ele>151.5</ele>
        <time>2020-06-30T11:25:16Z</time>
      </trkpt>
      <trkpt lat="48.62277" lon="4.96374">
        <ele>151.5</ele>
        <time>2020-06-30T11:25:17Z</time>
      </trkpt>
      <trkpt lat="48.62273" lon="4.96369">
        <ele>151.5</ele>
        <time>2020-06-30T11:35:28Z</time>
      </trkpt>
      <trkpt lat="48.62273" lon="4.96367">
        <ele>151.5</ele>
        <time>2020-06-30T11:35:29Z</time>
      </trkpt>
      <trkpt lat="48.62273" lon="4.96366">
        <ele>151.5</ele>
        <time>2020-06-30T11:35:30Z</time>
      </trkpt>
      <trkpt lat="48.62276" lon="4.96367">
        <ele>151.5</ele>
        <time>2020-06-30T11:35:31Z</time>
      </trkpt>
      <trkpt lat="48.62278" lon="4.96369">
        <ele>151.5</ele>
        <time>2020-06-30T11:35:32Z</time>
      </trkpt>
      <trkpt lat="48.62279" lon="4.96371">
        <ele>151.5</ele>
        <time>2020-06-30T11:35:33Z</time>
      </trkpt>
      <trkpt lat="48.6228" lon="4.96375">
        <ele>151.5</ele>
        <time>2020-06-30T11:35:34Z</time>
      </trkpt>
      <trkpt lat="48.62283" lon="4.96374">
        <ele>151.5</ele>
        <time>2020-06-30T11:35:35Z</time>
      </trkpt>
      <trkpt lat="48.62284" lon="4.96374">
        <ele>151.5</ele>
        <time>2020-06-30T11:35:36Z</time>
      </trkpt>
      <trkpt lat="48.62284" lon="4.96374">
        <ele>151.5</ele>
        <time>2020-06-30T11:35:37Z</time>
      </trkpt>
      <trkpt lat="48.62285" lon="4.96375">
        <ele>151.5</ele>
        <time>2020-06-30T11:35:38Z</time>
      </trkpt>
      <trkpt lat="48.62285" lon="4.96375">
        <ele>151.5</ele>
        <time>2020-06-30T11:35:39Z</time>
      </trkpt>
      <trkpt lat="48.62286" lon="4.96376">
        <ele>151.5</ele>
        <time>2020-06-30T11:35:40Z</time>
      </trkpt>
      <trkpt lat="48.62286" lon="4.96376">
        <ele>151.4</ele>
        <time>2020-06-30T11:35:41Z</time>
      </trkpt>
      <trkpt lat="48.62286" lon="4.96377">
        <ele>151.4</ele>
        <time>2020-06-30T11:35:42Z</time>
      </trkpt>
      <trkpt lat="48.62287" lon="4.96377">
        <ele>151.4</ele>
        <time>2020-06-30T11:35:43Z</time>
      </trkpt>
      <trkpt lat="48.62288" lon="4.96378">
        <ele>151.4</ele>
        <time>2020-06-30T11:35:44Z</time>
      </trkpt>
      <trkpt lat="48.62288" lon="4.96378">
        <ele>151.4</ele>
        <time>2020-06-30T11:35:45Z</time>
      </trkpt>
      <trkpt lat="48.62289" lon="4.96378">
        <ele>151.4</ele>
        <time>2020-06-30T11:35:46Z</time>
      </trkpt>
      <trkpt lat="48.62289" lon="4.96378">
        <ele>151.4</ele>
        <time>2020-06-30T11:35:47Z</time>
      </trkpt>
      <trkpt lat="48.62289" lon="4.96379">
        <ele>151.4</ele>
        <time>2020-06-30T11:35:48Z</time>
      </trkpt>
      <trkpt lat="48.6229" lon="4.96379">
        <ele>151.4</ele>
        <time>2020-06-30T11:35:49Z</time>
      </trkpt>
      <trkpt lat="48.6229" lon="4.96379">
        <ele>151.4</ele>
        <time>2020-06-30T11:35:50Z</time>
      </trkpt>
      <trkpt lat="48.6229" lon="4.96379">
        <ele>151.4</ele>
        <time>2020-06-30T11:35:51Z</time>
      </trkpt>
      <trkpt lat="48.6229" lon="4.96379">
        <ele>151.4</ele>
        <time>2020-06-30T11:35:52Z</time>
      </trkpt>
      <trkpt lat="48.62291" lon="4.96379">
        <ele>151.4</ele>
        <time>2020-06-30T11:35:53Z</time>
      </trkpt>
      <trkpt lat="48.62291" lon="4.96379">
        <ele>151.4</ele>
        <time>2020-06-30T11:35:54Z</time>
      </trkpt>
      <trkpt lat="48.62291" lon="4.9638">
        <ele>151.4</ele>
        <time>2020-06-30T11:38:43Z</time>
      </trkpt>
      <trkpt lat="48.62292" lon="4.96381">
        <ele>151.4</ele>
        <time>2020-06-30T11:38:44Z</time>
      </trkpt>
      <trkpt lat="48.62295" lon="4.96382">
        <ele>151.4</ele>
        <time>2020-06-30T11:38:45Z</time>
      </trkpt>
      <trkpt lat="48.62296" lon="4.96382">
        <ele>151.4</ele>
        <time>2020-06-30T11:38:46Z</time>
      </trkpt>
      <trkpt lat="48.62299" lon="4.96384">
        <ele>151.4</ele>
        <time>2020-06-30T11:38:47Z</time>
      </trkpt>
      <trkpt lat="48.623" lon="4.96385">
        <ele>151.4</ele>
        <time>2020-06-30T11:38:48Z</time>
      </trkpt>
      <trkpt lat="48.62304" lon="4.96386">
        <ele>151.4</ele>
        <time>2020-06-30T11:38:49Z</time>
      </trkpt>
      <trkpt lat="48.62306" lon="4.96387">
        <ele>151.4</ele>
        <time>2020-06-30T11:38:50Z</time>
      </trkpt>
      <trkpt lat="48.62309" lon="4.96388">
        <ele>151.4</ele>
        <time>2020-06-30T11:38:51Z</time>
      </trkpt>
      <trkpt lat="48.62311" lon="4.9639">
        <ele>151.3</ele>
        <time>2020-06-30T11:38:52Z</time>
      </trkpt>
      <trkpt lat="48.62314" lon="4.96392">
        <ele>151.3</ele>
        <time>2020-06-30T11:38:53Z</time>
      </trkpt>
      <trkpt lat="48.62317" lon="4.96395">
        <ele>151.3</ele>
        <time>2020-06-30T11:38:54Z</time>
      </trkpt>
      <trkpt lat="48.62318" lon="4.96396">
        <ele>151.3</ele>
        <time>2020-06-30T11:38:55Z</time>
      </trkpt>
      <trkpt lat="48.6232" lon="4.96401">
        <ele>151.3</ele>
        <time>2020-06-30T11:38:56Z</time>
      </trkpt>
      <trkpt lat="48.62321" lon="4.96403">
        <ele>151.3</ele>
        <time>2020-06-30T11:38:57Z</time>
      </trkpt>
      <trkpt lat="48.62324" lon="4.96407">
        <ele>151.3</ele>
        <time>2020-06-30T11:38:58Z</time>
      </trkpt>
      <trkpt lat="48.62324" lon="4.96408">
        <ele>151.3</ele>
        <time>2020-06-30T11:38:59Z</time>
      </trkpt>
      <trkpt lat="48.62322" lon="4.96414">
        <ele>151.4</ele>
        <time>2020-06-30T11:39:00Z</time>
      </trkpt>
      <trkpt lat="48.62322" lon="4.96416">
        <ele>151.4</ele>
        <time>2020-06-30T11:39:01Z</time>
      </trkpt>
      <trkpt lat="48.62319" lon="4.96419">
        <ele>151.4</ele>
        <time>2020-06-30T11:39:02Z</time>
      </trkpt>
      <trkpt lat="48.62317" lon="4.96422">
        <ele>151.4</ele>
        <time>2020-06-30T11:39:03Z</time>
      </trkpt>
      <trkpt lat="48.62315" lon="4.96426">
        <ele>151.4</ele>
        <time>2020-06-30T11:39:04Z</time>
      </trkpt>
      <trkpt lat="48.62313" lon="4.9643">
        <ele>151.4</ele>
        <time>2020-06-30T11:39:05Z</time>
      </trkpt>
      <trkpt lat="48.62312" lon="4.96433">
        <ele>151.5</ele>
        <time>2020-06-30T11:39:06Z</time>
      </trkpt>
      <trkpt lat="48.6231" lon="4.96437">
        <ele>151.5</ele>
        <time>2020-06-30T11:39:07Z</time>
      </trkpt>
      <trkpt lat="48.62309" lon="4.96438">
        <ele>151.5</ele>
        <time>2020-06-30T11:39:08Z</time>
      </trkpt>
      <trkpt lat="48.62308" lon="4.96443">
        <ele>151.6</ele>
        <time>2020-06-30T11:39:09Z</time>
      </trkpt>
      <trkpt lat="48.62308" lon="4.96444">
        <ele>151.6</ele>
        <time>2020-06-30T11:39:10Z</time>
      </trkpt>
      <trkpt lat="48.62307" lon="4.96448">
        <ele>151.7</ele>
        <time>2020-06-30T11:39:11Z</time>
      </trkpt>
      <trkpt lat="48.62306" lon="4.9645">
        <ele>151.8</ele>
        <time>2020-06-30T11:39:12Z</time>
      </trkpt>
      <trkpt lat="48.62305" lon="4.96454">
        <ele>151.8</ele>
        <time>2020-06-30T11:39:13Z</time>
      </trkpt>
      <trkpt lat="48.62304" lon="4.96456">
        <ele>151.8</ele>
        <time>2020-06-30T11:39:14Z</time>
      </trkpt>
      <trkpt lat="48.62303" lon="4.96461">
        <ele>151.9</ele>
        <time>2020-06-30T11:39:15Z</time>
      </trkpt>
      <trkpt lat="48.62302" lon="4.96463">
        <ele>151.9</ele>
        <time>2020-06-30T11:39:16Z</time>
      </trkpt>
      <trkpt lat="48.62301" lon="4.96467">
        <ele>152</ele>
        <time>2020-06-30T11:39:17Z</time>
      </trkpt>
      <trkpt lat="48.623" lon="4.96472">
        <ele>152</ele>
        <time>2020-06-30T11:39:18Z</time>
      </trkpt>
      <trkpt lat="48.623" lon="4.96474">
        <ele>152</ele>
        <time>2020-06-30T11:39:19Z</time>
      </trkpt>
      <trkpt lat="48.62299" lon="4.96478">
        <ele>152.1</ele>
        <time>2020-06-30T11:39:20Z</time>
      </trkpt>
      <trkpt lat="48.62298" lon="4.9648">
        <ele>152.1</ele>
        <time>2020-06-30T11:39:21Z</time>
      </trkpt>
      <trkpt lat="48.62297" lon="4.96483">
        <ele>152.1</ele>
        <time>2020-06-30T11:39:22Z</time>
      </trkpt>
      <trkpt lat="48.62296" lon="4.96485">
        <ele>152.1</ele>
        <time>2020-06-30T11:39:23Z</time>
      </trkpt>
      <trkpt lat="48.62295" lon="4.96487">
        <ele>152.1</ele>
        <time>2020-06-30T11:39:24Z</time>
      </trkpt>
      <trkpt lat="48.62295" lon="4.96489">
        <ele>152</ele>
        <time>2020-06-30T11:39:25Z</time>
      </trkpt>
      <trkpt lat="48.62294" lon="4.96489">
        <ele>152</ele>
        <time>2020-06-30T11:39:26Z</time>
      </trkpt>
      <trkpt lat="48.62295" lon="4.9649">
        <ele>152</ele>
        <time>2020-06-30T11:39:27Z</time>
      </trkpt>
      <trkpt lat="48.62296" lon="4.96491">
        <ele>152</ele>
        <time>2020-06-30T11:39:28Z</time>
      </trkpt>
      <trkpt lat="48.62296" lon="4.96491">
        <ele>152</ele>
        <time>2020-06-30T11:39:29Z</time>
      </trkpt>
      <trkpt lat="48.62296" lon="4.96491">
        <ele>152</ele>
        <time>2020-06-30T11:39:30Z</time>
      </trkpt>
      <trkpt lat="48.62297" lon="4.96491">
        <ele>152</ele>
        <time>2020-06-30T11:39:31Z</time>
      </trkpt>
      <trkpt lat="48.62297" lon="4.96491">
        <ele>152</ele>
        <time>2020-06-30T11:39:32Z</time>
      </trkpt>
      <trkpt lat="48.623" lon="4.96486">
        <ele>152</ele>
        <time>2020-06-30T11:39:33Z</time>
      </trkpt>
      <trkpt lat="48.62301" lon="4.96481">
        <ele>152</ele>
        <time>2020-06-30T11:39:34Z</time>
      </trkpt>
      <trkpt lat="48.62303" lon="4.96476">
        <ele>151.9</ele>
        <time>2020-06-30T11:39:35Z</time>
      </trkpt>
      <trkpt lat="48.62305" lon="4.96472">
        <ele>151.9</ele>
        <time>2020-06-30T11:39:36Z</time>
      </trkpt>
      <trkpt lat="48.62307" lon="4.96467">
        <ele>151.9</ele>
        <time>2020-06-30T11:39:37Z</time>
      </trkpt>
      <trkpt lat="48.62308" lon="4.96462">
        <ele>151.8</ele>
        <time>2020-06-30T11:53:27Z</time>
      </trkpt>
      <trkpt lat="48.6231" lon="4.96458">
        <ele>151.7</ele>
        <time>2020-06-30T11:53:28Z</time>
      </trkpt>
      <trkpt lat="48.62312" lon="4.96452">
        <ele>151.6</ele>
        <time>2020-06-30T11:53:29Z</time>
      </trkpt>
      <trkpt lat="48.62313" lon="4.96446">
        <ele>151.6</ele>
        <time>2020-06-30T11:53:30Z</time>
      </trkpt>
      <trkpt lat="48.62314" lon="4.96441">
        <ele>151.5</ele>
        <time>2020-06-30T11:53:31Z</time>
      </trkpt>
      <trkpt lat="48.62314" lon="4.96433">
        <ele>151.5</ele>
        <time>2020-06-30T11:53:32Z</time>
      </trkpt>
      <trkpt lat="48.62315" lon="4.96427">
        <ele>151.4</ele>
        <time>2020-06-30T11:53:33Z</time>
      </trkpt>
      <trkpt lat="48.62317" lon="4.96421">
        <ele>151.4</ele>
        <time>2020-06-30T11:53:34Z</time>
      </trkpt>
      <trkpt lat="48.6232" lon="4.9642">
        <ele>151.3</ele>
        <time>2020-06-30T11:53:35Z</time>
      </trkpt>
      <trkpt lat="48.62324" lon="4.96419">
        <ele>151.3</ele>
        <time>2020-06-30T11:53:36Z</time>
      </trkpt>
      <trkpt lat="48.62328" lon="4.96421">
        <ele>151.3</ele>
        <time>2020-06-30T11:53:37Z</time>
      </trkpt>
      <trkpt lat="48.62331" lon="4.96423">
        <ele>151.3</ele>
        <time>2020-06-30T11:53:38Z</time>
      </trkpt>
      <trkpt lat="48.62335" lon="4.96426">
        <ele>151.3</ele>
        <time>2020-06-30T11:53:39Z</time>
      </trkpt>
      <trkpt lat="48.62338" lon="4.96429">
        <ele>151.3</ele>
        <time>2020-06-30T11:53:40Z</time>
      </trkpt>
      <trkpt lat="48.6234" lon="4.96433">
        <ele>151.4</ele>
        <time>2020-06-30T11:53:41Z</time>
      </trkpt>
      <trkpt lat="48.62345" lon="4.96435">
        <ele>151.4</ele>
        <time>2020-06-30T11:53:42Z</time>
      </trkpt>
      <trkpt lat="48.62346" lon="4.9644">
        <ele>151.5</ele>
        <time>2020-06-30T11:53:43Z</time>
      </trkpt>
      <trkpt lat="48.62345" lon="4.96447">
        <ele>151.6</ele>
        <time>2020-06-30T11:53:44Z</time>
      </trkpt>
      <trkpt lat="48.62344" lon="4.96454">
        <ele>151.6</ele>
        <time>2020-06-30T11:53:45Z</time>
      </trkpt>
      <trkpt lat="48.62344" lon="4.9646">
        <ele>151.7</ele>
        <time>2020-06-30T11:53:46Z</time>
      </trkpt>
      <trkpt lat="48.62344" lon="4.96466">
        <ele>151.8</ele>
        <time>2020-06-30T11:53:47Z</time>
      </trkpt>
      <trkpt lat="48.62345" lon="4.96473">
        <ele>151.9</ele>
        <time>2020-06-30T11:53:48Z</time>
      </trkpt>
      <trkpt lat="48.62346" lon="4.96478">
        <ele>152</ele>
        <time>2020-06-30T11:53:49Z</time>
      </trkpt>
      <trkpt lat="48.62346" lon="4.96483">
        <ele>152</ele>
        <time>2020-06-30T11:53:50Z</time>
      </trkpt>
      <trkpt lat="48.62346" lon="4.96487">
        <ele>152.1</ele>
        <time>2020-06-30T11:53:51Z</time>
      </trkpt>
      <trkpt lat="48.62346" lon="4.96492">
        <ele>152.1</ele>
        <time>2020-06-30T11:53:52Z</time>
      </trkpt>
      <trkpt lat="48.62346" lon="4.96498">
        <ele>152.2</ele>
        <time>2020-06-30T11:53:53Z</time>
      </trkpt>
      <trkpt lat="48.62345" lon="4.96503">
        <ele>152.2</ele>
        <time>2020-06-30T11:53:54Z</time>
      </trkpt>
      <trkpt lat="48.62344" lon="4.96509">
        <ele>152.3</ele>
        <time>2020-06-30T11:53:55Z</time>
      </trkpt>
      <trkpt lat="48.62344" lon="4.96512">
        <ele>152.3</ele>
        <time>2020-06-30T11:53:56Z</time>
      </trkpt>
      <trkpt lat="48.62343" lon="4.96516">
        <ele>152.4</ele>
        <time>2020-06-30T11:53:57Z</time>
      </trkpt>
      <trkpt lat="48.62341" lon="4.9652">
        <ele>152.5</ele>
        <time>2020-06-30T11:53:58Z</time>
      </trkpt>
      <trkpt lat="48.62339" lon="4.96525">
        <ele>152.6</ele>
        <time>2020-06-30T11:53:59Z</time>
      </trkpt>
      <trkpt lat="48.62339" lon="4.96527">
        <ele>152.6</ele>
        <time>2020-06-30T11:54:00Z</time>
      </trkpt>
      <trkpt lat="48.62337" lon="4.96531">
        <ele>152.8</ele>
        <time>2020-06-30T11:54:01Z</time>
      </trkpt>
      <trkpt lat="48.62337" lon="4.96535">
        <ele>152.8</ele>
        <time>2020-06-30T11:54:02Z</time>
      </trkpt>
      <trkpt lat="48.62337" lon="4.9654">
        <ele>152.8</ele>
        <time>2020-06-30T11:54:03Z</time>
      </trkpt>
      <trkpt lat="48.62335" lon="4.96545">
        <ele>152.9</ele>
        <time>2020-06-30T11:54:04Z</time>
      </trkpt>
      <trkpt lat="48.62335" lon="4.96551">
        <ele>153</ele>
        <time>2020-06-30T11:54:05Z</time>
      </trkpt>
      <trkpt lat="48.62335" lon="4.96553">
        <ele>153</ele>
        <time>2020-06-30T11:54:06Z</time>
      </trkpt>
      <trkpt lat="48.62338" lon="4.96555">
        <ele>153.3</ele>
        <time>2020-06-30T11:54:07Z</time>
      </trkpt>
      <trkpt lat="48.6234" lon="4.96555">
        <ele>153.4</ele>
        <time>2020-06-30T11:54:08Z</time>
      </trkpt>
      <trkpt lat="48.62344" lon="4.96556">
        <ele>153.5</ele>
        <time>2020-06-30T11:54:09Z</time>
      </trkpt>
      <trkpt lat="48.62345" lon="4.96557">
        <ele>153.6</ele>
        <time>2020-06-30T11:54:10Z</time>
      </trkpt>
      <trkpt lat="48.62349" lon="4.96556">
        <ele>154</ele>
        <time>2020-06-30T11:54:11Z</time>
      </trkpt>
      <trkpt lat="48.6235" lon="4.96554">
        <ele>153.9</ele>
        <time>2020-06-30T11:54:12Z</time>
      </trkpt>
      <trkpt lat="48.62353" lon="4.96549">
        <ele>153.9</ele>
        <time>2020-06-30T11:54:13Z</time>
      </trkpt>
      <trkpt lat="48.62355" lon="4.96542">
        <ele>153.9</ele>
        <time>2020-06-30T11:54:14Z</time>
      </trkpt>
      <trkpt lat="48.62357" lon="4.96537">
        <ele>153.8</ele>
        <time>2020-06-30T11:54:15Z</time>
      </trkpt>
      <trkpt lat="48.62358" lon="4.96531">
        <ele>153.8</ele>
        <time>2020-06-30T11:54:16Z</time>
      </trkpt>
      <trkpt lat="48.6236" lon="4.96525">
        <ele>153.8</ele>
        <time>2020-06-30T11:54:17Z</time>
      </trkpt>
      <trkpt lat="48.62362" lon="4.9652">
        <ele>153.7</ele>
        <time>2020-06-30T11:54:18Z</time>
      </trkpt>
      <trkpt lat="48.62364" lon="4.96515">
        <ele>153.7</ele>
        <time>2020-06-30T11:54:19Z</time>
      </trkpt>
      <trkpt lat="48.62366" lon="4.96511">
        <ele>153.6</ele>
        <time>2020-06-30T11:54:20Z</time>
      </trkpt>
      <trkpt lat="48.62367" lon="4.96506">
        <ele>153.6</ele>
        <time>2020-06-30T11:54:21Z</time>
      </trkpt>
      <trkpt lat="48.62368" lon="4.96501">
        <ele>153.6</ele>
        <time>2020-06-30T11:54:22Z</time>
      </trkpt>
      <trkpt lat="48.6237" lon="4.96496">
        <ele>153.5</ele>
        <time>2020-06-30T11:54:23Z</time>
      </trkpt>
      <trkpt lat="48.62373" lon="4.96491">
        <ele>153.5</ele>
        <time>2020-06-30T11:54:24Z</time>
      </trkpt>
      <trkpt lat="48.62375" lon="4.96488">
        <ele>153.5</ele>
        <time>2020-06-30T11:54:25Z</time>
      </trkpt>
      <trkpt lat="48.62378" lon="4.96485">
        <ele>153.4</ele>
        <time>2020-06-30T11:54:26Z</time>
      </trkpt>
      <trkpt lat="48.62382" lon="4.96484">
        <ele>153.4</ele>
        <time>2020-06-30T11:54:27Z</time>
      </trkpt>
      <trkpt lat="48.62387" lon="4.96482">
        <ele>153.2</ele>
        <time>2020-06-30T11:54:28Z</time>
      </trkpt>
      <trkpt lat="48.62391" lon="4.96483">
        <ele>153.1</ele>
        <time>2020-06-30T11:54:29Z</time>
      </trkpt>
      <trkpt lat="48.62396" lon="4.96484">
        <ele>152.9</ele>
        <time>2020-06-30T11:54:30Z</time>
      </trkpt>
      <trkpt lat="48.624" lon="4.96485">
        <ele>152.8</ele>
        <time>2020-06-30T11:54:31Z</time>
      </trkpt>
      <trkpt lat="48.62405" lon="4.96487">
        <ele>152.6</ele>
        <time>2020-06-30T11:54:32Z</time>
      </trkpt>
      <trkpt lat="48.62408" lon="4.96489">
        <ele>152.5</ele>
        <time>2020-06-30T11:54:33Z</time>
      </trkpt>
      <trkpt lat="48.62412" lon="4.96491">
        <ele>152.4</ele>
        <time>2020-06-30T11:54:34Z</time>
      </trkpt>
      <trkpt lat="48.62415" lon="4.96492">
        <ele>152.2</ele>
        <time>2020-06-30T11:54:35Z</time>
      </trkpt>
      <trkpt lat="48.62419" lon="4.96494">
        <ele>152.3</ele>
        <time>2020-06-30T11:54:36Z</time>
      </trkpt>
      <trkpt lat="48.62423" lon="4.96497">
        <ele>152.3</ele>
        <time>2020-06-30T11:54:37Z</time>
      </trkpt>
      <trkpt lat="48.62427" lon="4.96501">
        <ele>152.4</ele>
        <time>2020-06-30T11:54:38Z</time>
      </trkpt>
      <trkpt lat="48.62431" lon="4.96503">
        <ele>152.5</ele>
        <time>2020-06-30T11:54:39Z</time>
      </trkpt>
      <trkpt lat="48.62436" lon="4.96507">
        <ele>152.6</ele>
        <time>2020-06-30T11:54:40Z</time>
      </trkpt>
      <trkpt lat="48.62442" lon="4.9651">
        <ele>152.7</ele>
        <time>2020-06-30T11:54:41Z</time>
      </trkpt>
      <trkpt lat="48.62447" lon="4.96514">
        <ele>152.8</ele>
        <time>2020-06-30T11:54:42Z</time>
      </trkpt>
      <trkpt lat="48.62452" lon="4.96516">
        <ele>152.8</ele>
        <time>2020-06-30T11:54:43Z</time>
      </trkpt>
      <trkpt lat="48.62457" lon="4.9652">
        <ele>152.9</ele>
        <time>2020-06-30T11:54:44Z</time>
      </trkpt>
      <trkpt lat="48.62462" lon="4.96521">
        <ele>153</ele>
        <time>2020-06-30T11:54:45Z</time>
      </trkpt>
      <trkpt lat="48.62466" lon="4.96524">
        <ele>153.1</ele>
        <time>2020-06-30T11:54:46Z</time>
      </trkpt>
      <trkpt lat="48.6247" lon="4.96527">
        <ele>153.2</ele>
        <time>2020-06-30T11:54:47Z</time>
      </trkpt>
      <trkpt lat="48.62475" lon="4.96532">
        <ele>153.3</ele>
        <time>2020-06-30T11:54:48Z</time>
      </trkpt>
      <trkpt lat="48.62479" lon="4.96535">
        <ele>153.4</ele>
        <time>2020-06-30T11:54:49Z</time>
      </trkpt>
      <trkpt lat="48.62484" lon="4.96537">
        <ele>153.5</ele>
        <time>2020-06-30T11:54:50Z</time>
      </trkpt>
      <trkpt lat="48.62489" lon="4.96541">
        <ele>153.6</ele>
        <time>2020-06-30T11:54:51Z</time>
      </trkpt>
      <trkpt lat="48.62495" lon="4.96544">
        <ele>153.7</ele>
        <time>2020-06-30T11:54:52Z</time>
      </trkpt>
      <trkpt lat="48.625" lon="4.96546">
        <ele>153.9</ele>
        <time>2020-06-30T11:54:53Z</time>
      </trkpt>
      <trkpt lat="48.62505" lon="4.96549">
        <ele>154</ele>
        <time>2020-06-30T11:54:54Z</time>
      </trkpt>
      <trkpt lat="48.62509" lon="4.9655">
        <ele>154</ele>
        <time>2020-06-30T11:54:55Z</time>
      </trkpt>
      <trkpt lat="48.62514" lon="4.96552">
        <ele>154</ele>
        <time>2020-06-30T11:54:56Z</time>
      </trkpt>
      <trkpt lat="48.62518" lon="4.96555">
        <ele>153.9</ele>
        <time>2020-06-30T11:54:57Z</time>
      </trkpt>
      <trkpt lat="48.62522" lon="4.96558">
        <ele>153.9</ele>
        <time>2020-06-30T11:54:58Z</time>
      </trkpt>
      <trkpt lat="48.62526" lon="4.96559">
        <ele>153.9</ele>
        <time>2020-06-30T11:54:59Z</time>
      </trkpt>
      <trkpt lat="48.6253" lon="4.9656">
        <ele>153.9</ele>
        <time>2020-06-30T11:55:00Z</time>
      </trkpt>
      <trkpt lat="48.62534" lon="4.96564">
        <ele>153.9</ele>
        <time>2020-06-30T11:55:01Z</time>
      </trkpt>
      <trkpt lat="48.62537" lon="4.96566">
        <ele>154</ele>
        <time>2020-06-30T11:55:02Z</time>
      </trkpt>
      <trkpt lat="48.62542" lon="4.96569">
        <ele>154</ele>
        <time>2020-06-30T11:55:03Z</time>
      </trkpt>
      <trkpt lat="48.62545" lon="4.96573">
        <ele>154.1</ele>
        <time>2020-06-30T11:55:04Z</time>
      </trkpt>
      <trkpt lat="48.62548" lon="4.96578">
        <ele>154.2</ele>
        <time>2020-06-30T11:55:05Z</time>
      </trkpt>
      <trkpt lat="48.62549" lon="4.96583">
        <ele>154.2</ele>
        <time>2020-06-30T11:55:06Z</time>
      </trkpt>
      <trkpt lat="48.62552" lon="4.96588">
        <ele>154.2</ele>
        <time>2020-06-30T11:55:07Z</time>
      </trkpt>
      <trkpt lat="48.62555" lon="4.96593">
        <ele>154.2</ele>
        <time>2020-06-30T11:55:08Z</time>
      </trkpt>
      <trkpt lat="48.62558" lon="4.96598">
        <ele>154.2</ele>
        <time>2020-06-30T11:55:09Z</time>
      </trkpt>
      <trkpt lat="48.62562" lon="4.966">
        <ele>154.2</ele>
        <time>2020-06-30T11:55:10Z</time>
      </trkpt>
      <trkpt lat="48.62567" lon="4.96599">
        <ele>154.2</ele>
        <time>2020-06-30T11:55:11Z</time>
      </trkpt>
      <trkpt lat="48.62571" lon="4.96597">
        <ele>154.2</ele>
        <time>2020-06-30T11:55:12Z</time>
      </trkpt>
      <trkpt lat="48.62574" lon="4.96597">
        <ele>154.2</ele>
        <time>2020-06-30T11:55:13Z</time>
      </trkpt>
      <trkpt lat="48.62579" lon="4.96598">
        <ele>154.2</ele>
        <time>2020-06-30T11:55:14Z</time>
      </trkpt>
      <trkpt lat="48.62583" lon="4.96598">
        <ele>154.1</ele>
        <time>2020-06-30T11:55:15Z</time>
      </trkpt>
      <trkpt lat="48.62587" lon="4.96599">
        <ele>154.1</ele>
        <time>2020-06-30T11:55:16Z</time>
      </trkpt>
      <trkpt lat="48.62592" lon="4.966">
        <ele>154.1</ele>
        <time>2020-06-30T11:55:17Z</time>
      </trkpt>
      <trkpt lat="48.62594" lon="4.96601">
        <ele>154.1</ele>
        <time>2020-06-30T11:55:18Z</time>
      </trkpt>
      <trkpt lat="48.62597" lon="4.96604">
        <ele>154.1</ele>
        <time>2020-06-30T11:55:19Z</time>
      </trkpt>
      <trkpt lat="48.62599" lon="4.96605">
        <ele>154.1</ele>
        <time>2020-06-30T11:55:20Z</time>
      </trkpt>
      <trkpt lat="48.62602" lon="4.96608">
        <ele>154</ele>
        <time>2020-06-30T11:55:21Z</time>
      </trkpt>
      <trkpt lat="48.62606" lon="4.96612">
        <ele>154</ele>
        <time>2020-06-30T11:55:22Z</time>
      </trkpt>
      <trkpt lat="48.6261" lon="4.96614">
        <ele>153.9</ele>
        <time>2020-06-30T11:55:23Z</time>
      </trkpt>
      <trkpt lat="48.62612" lon="4.96617">
        <ele>153.9</ele>
        <time>2020-06-30T11:55:24Z</time>
      </trkpt>
      <trkpt lat="48.62615" lon="4.9662">
        <ele>153.9</ele>
        <time>2020-06-30T11:55:25Z</time>
      </trkpt>
      <trkpt lat="48.62619" lon="4.96624">
        <ele>153.8</ele>
        <time>2020-06-30T11:55:26Z</time>
      </trkpt>
      <trkpt lat="48.6262" lon="4.96626">
        <ele>153.8</ele>
        <time>2020-06-30T11:55:27Z</time>
      </trkpt>
      <trkpt lat="48.62622" lon="4.9663">
        <ele>153.8</ele>
        <time>2020-06-30T11:55:28Z</time>
      </trkpt>
      <trkpt lat="48.62625" lon="4.96633">
        <ele>153.8</ele>
        <time>2020-06-30T11:55:29Z</time>
      </trkpt>
      <trkpt lat="48.62628" lon="4.96636">
        <ele>153.8</ele>
        <time>2020-06-30T11:55:30Z</time>
      </trkpt>
      <trkpt lat="48.62631" lon="4.96639">
        <ele>153.8</ele>
        <time>2020-06-30T11:55:31Z</time>
      </trkpt>
      <trkpt lat="48.62633" lon="4.96639">
        <ele>153.8</ele>
        <time>2020-06-30T11:55:32Z</time>
      </trkpt>
      <trkpt lat="48.62636" lon="4.96636">
        <ele>153.8</ele>
        <time>2020-06-30T11:55:33Z</time>
      </trkpt>
      <trkpt lat="48.62637" lon="4.96629">
        <ele>153.8</ele>
        <time>2020-06-30T11:55:34Z</time>
      </trkpt>
      <trkpt lat="48.62637" lon="4.96622">
        <ele>153.7</ele>
        <time>2020-06-30T11:55:35Z</time>
      </trkpt>
      <trkpt lat="48.62638" lon="4.96617">
        <ele>153.7</ele>
        <time>2020-06-30T11:55:36Z</time>
      </trkpt>
      <trkpt lat="48.62639" lon="4.96615">
        <ele>153.7</ele>
        <time>2020-06-30T11:55:37Z</time>
      </trkpt>
      <trkpt lat="48.6264" lon="4.96613">
        <ele>153.7</ele>
        <time>2020-06-30T11:55:38Z</time>
      </trkpt>
      <trkpt lat="48.62642" lon="4.96609">
        <ele>153.6</ele>
        <time>2020-06-30T11:55:39Z</time>
      </trkpt>
      <trkpt lat="48.62643" lon="4.96608">
        <ele>153.6</ele>
        <time>2020-06-30T11:55:40Z</time>
      </trkpt>
      <trkpt lat="48.62644" lon="4.96603">
        <ele>153.6</ele>
        <time>2020-06-30T11:55:41Z</time>
      </trkpt>
      <trkpt lat="48.62645" lon="4.96601">
        <ele>153.6</ele>
        <time>2020-06-30T11:55:42Z</time>
      </trkpt>
      <trkpt lat="48.62646" lon="4.96597">
        <ele>153.5</ele>
        <time>2020-06-30T11:55:43Z</time>
      </trkpt>
      <trkpt lat="48.62647" lon="4.96596">
        <ele>153.5</ele>
        <time>2020-06-30T11:55:44Z</time>
      </trkpt>
      <trkpt lat="48.62648" lon="4.96591">
        <ele>153.5</ele>
        <time>2020-06-30T11:55:45Z</time>
      </trkpt>
      <trkpt lat="48.62648" lon="4.9659">
        <ele>153.5</ele>
        <time>2020-06-30T11:55:46Z</time>
      </trkpt>
      <trkpt lat="48.62649" lon="4.96586">
        <ele>153.4</ele>
        <time>2020-06-30T11:55:47Z</time>
      </trkpt>
      <trkpt lat="48.62651" lon="4.9658">
        <ele>153.4</ele>
        <time>2020-06-30T11:55:48Z</time>
      </trkpt>
      <trkpt lat="48.62652" lon="4.96576">
        <ele>153.4</ele>
        <time>2020-06-30T11:55:49Z</time>
      </trkpt>
      <trkpt lat="48.62654" lon="4.9657">
        <ele>153.3</ele>
        <time>2020-06-30T11:55:50Z</time>
      </trkpt>
      <trkpt lat="48.62656" lon="4.96564">
        <ele>153.3</ele>
        <time>2020-06-30T11:55:51Z</time>
      </trkpt>
      <trkpt lat="48.62657" lon="4.96558">
        <ele>153.2</ele>
        <time>2020-06-30T11:55:52Z</time>
      </trkpt>
      <trkpt lat="48.62657" lon="4.96556">
        <ele>153.2</ele>
        <time>2020-06-30T11:55:53Z</time>
      </trkpt>
      <trkpt lat="48.62657" lon="4.96554">
        <ele>153.2</ele>
        <time>2020-06-30T11:55:54Z</time>
      </trkpt>
      <trkpt lat="48.62658" lon="4.96551">
        <ele>153.2</ele>
        <time>2020-06-30T11:55:55Z</time>
      </trkpt>
      <trkpt lat="48.62657" lon="4.9655">
        <ele>153.2</ele>
        <time>2020-06-30T11:55:56Z</time>
      </trkpt>
      <trkpt lat="48.62657" lon="4.96549">
        <ele>153.2</ele>
        <time>2020-06-30T11:55:57Z</time>
      </trkpt>
      <trkpt lat="48.62656" lon="4.96548">
        <ele>153.2</ele>
        <time>2020-06-30T11:55:58Z</time>
      </trkpt>
      <trkpt lat="48.62655" lon="4.96546">
        <ele>153.2</ele>
        <time>2020-06-30T11:55:59Z</time>
      </trkpt>
      <trkpt lat="48.62655" lon="4.96544">
        <ele>153.2</ele>
        <time>2020-06-30T11:56:00Z</time>
      </trkpt>
      <trkpt lat="48.62655" lon="4.96545">
        <ele>153.2</ele>
        <time>2020-06-30T11:56:01Z</time>
      </trkpt>
      <trkpt lat="48.62656" lon="4.96545">
        <ele>153.2</ele>
        <time>2020-06-30T11:56:02Z</time>
      </trkpt>
      <trkpt lat="48.62656" lon="4.96545">
        <ele>153.2</ele>
        <time>2020-06-30T11:56:03Z</time>
      </trkpt>
      <trkpt lat="48.62656" lon="4.96545">
        <ele>153.2</ele>
        <time>2020-06-30T11:56:04Z</time>
      </trkpt>
      <trkpt lat="48.62656" lon="4.96548">
        <ele>153.3</ele>
        <time>2020-06-30T11:56:05Z</time>
      </trkpt>
      <trkpt lat="48.62656" lon="4.9655">
        <ele>153.3</ele>
        <time>2020-06-30T11:56:06Z</time>
      </trkpt>
      <trkpt lat="48.62656" lon="4.96553">
        <ele>153.3</ele>
        <time>2020-06-30T11:56:07Z</time>
      </trkpt>
      <trkpt lat="48.62654" lon="4.96556">
        <ele>153.3</ele>
        <time>2020-06-30T11:56:08Z</time>
      </trkpt>
      <trkpt lat="48.62653" lon="4.9656">
        <ele>153.3</ele>
        <time>2020-06-30T11:56:09Z</time>
      </trkpt>
      <trkpt lat="48.62651" lon="4.96564">
        <ele>153.4</ele>
        <time>2020-06-30T11:56:10Z</time>
      </trkpt>
      <trkpt lat="48.62651" lon="4.96566">
        <ele>153.4</ele>
        <time>2020-06-30T11:56:11Z</time>
      </trkpt>
      <trkpt lat="48.62649" lon="4.96572">
        <ele>153.4</ele>
        <time>2020-06-30T11:56:12Z</time>
      </trkpt>
      <trkpt lat="48.62649" lon="4.96575">
        <ele>153.4</ele>
        <time>2020-06-30T11:56:13Z</time>
      </trkpt>
      <trkpt lat="48.62648" lon="4.9658">
        <ele>153.4</ele>
        <time>2020-06-30T11:56:14Z</time>
      </trkpt>
      <trkpt lat="48.62648" lon="4.96585">
        <ele>153.5</ele>
        <time>2020-06-30T11:56:15Z</time>
      </trkpt>
      <trkpt lat="48.62648" lon="4.9659">
        <ele>153.5</ele>
        <time>2020-06-30T11:56:16Z</time>
      </trkpt>
      <trkpt lat="48.6265" lon="4.96596">
        <ele>153.5</ele>
        <time>2020-06-30T11:56:17Z</time>
      </trkpt>
      <trkpt lat="48.62653" lon="4.966">
        <ele>153.5</ele>
        <time>2020-06-30T11:56:18Z</time>
      </trkpt>
      <trkpt lat="48.62656" lon="4.96603">
        <ele>153.5</ele>
        <time>2020-06-30T11:56:19Z</time>
      </trkpt>
      <trkpt lat="48.62661" lon="4.96603">
        <ele>153.4</ele>
        <time>2020-06-30T11:56:20Z</time>
      </trkpt>
      <trkpt lat="48.62664" lon="4.96603">
        <ele>153.4</ele>
        <time>2020-06-30T11:56:21Z</time>
      </trkpt>
      <trkpt lat="48.62668" lon="4.96603">
        <ele>153.4</ele>
        <time>2020-06-30T11:56:22Z</time>
      </trkpt>
      <trkpt lat="48.62673" lon="4.96603">
        <ele>153.4</ele>
        <time>2020-06-30T11:56:23Z</time>
      </trkpt>
      <trkpt lat="48.62677" lon="4.96602">
        <ele>153.3</ele>
        <time>2020-06-30T11:56:24Z</time>
      </trkpt>
      <trkpt lat="48.6268" lon="4.96599">
        <ele>153.3</ele>
        <time>2020-06-30T11:56:25Z</time>
      </trkpt>
      <trkpt lat="48.62683" lon="4.96597">
        <ele>153.3</ele>
        <time>2020-06-30T11:56:26Z</time>
      </trkpt>
      <trkpt lat="48.62685" lon="4.96594">
        <ele>153.2</ele>
        <time>2020-06-30T11:56:27Z</time>
      </trkpt>
      <trkpt lat="48.62687" lon="4.9659">
        <ele>153.2</ele>
        <time>2020-06-30T11:56:28Z</time>
      </trkpt>
      <trkpt lat="48.62687" lon="4.96584">
        <ele>153.2</ele>
        <time>2020-06-30T11:56:29Z</time>
      </trkpt>
      <trkpt lat="48.62687" lon="4.96578">
        <ele>153.2</ele>
        <time>2020-06-30T11:56:30Z</time>
      </trkpt>
      <trkpt lat="48.62687" lon="4.96572">
        <ele>153.1</ele>
        <time>2020-06-30T11:56:31Z</time>
      </trkpt>
      <trkpt lat="48.62687" lon="4.96566">
        <ele>153.1</ele>
        <time>2020-06-30T11:56:32Z</time>
      </trkpt>
      <trkpt lat="48.62686" lon="4.9656">
        <ele>153.1</ele>
        <time>2020-06-30T11:56:33Z</time>
      </trkpt>
      <trkpt lat="48.62686" lon="4.96554">
        <ele>153</ele>
        <time>2020-06-30T11:56:34Z</time>
      </trkpt>
      <trkpt lat="48.62685" lon="4.9655">
        <ele>153</ele>
        <time>2020-06-30T11:56:35Z</time>
      </trkpt>
      <trkpt lat="48.62685" lon="4.96546">
        <ele>153</ele>
        <time>2020-06-30T11:56:36Z</time>
      </trkpt>
      <trkpt lat="48.62684" lon="4.9654">
        <ele>153</ele>
        <time>2020-06-30T11:56:37Z</time>
      </trkpt>
      <trkpt lat="48.62684" lon="4.96538">
        <ele>153</ele>
        <time>2020-06-30T11:56:38Z</time>
      </trkpt>
      <trkpt lat="48.62683" lon="4.96534">
        <ele>152.9</ele>
        <time>2020-06-30T11:56:39Z</time>
      </trkpt>
      <trkpt lat="48.62683" lon="4.96528">
        <ele>152.9</ele>
        <time>2020-06-30T11:56:40Z</time>
      </trkpt>
      <trkpt lat="48.62683" lon="4.96527">
        <ele>152.9</ele>
        <time>2020-06-30T11:56:41Z</time>
      </trkpt>
      <trkpt lat="48.62683" lon="4.96526">
        <ele>152.9</ele>
        <time>2020-06-30T11:56:42Z</time>
      </trkpt>
      <trkpt lat="48.62683" lon="4.96527">
        <ele>152.9</ele>
        <time>2020-06-30T11:56:43Z</time>
      </trkpt>
      <trkpt lat="48.62683" lon="4.96525">
        <ele>152.9</ele>
        <time>2020-06-30T11:56:44Z</time>
      </trkpt>
      <trkpt lat="48.62683" lon="4.96525">
        <ele>152.9</ele>
        <time>2020-06-30T11:56:45Z</time>
      </trkpt>
      <trkpt lat="48.62683" lon="4.96524">
        <ele>152.9</ele>
        <time>2020-06-30T11:56:46Z</time>
      </trkpt>
      <trkpt lat="48.62684" lon="4.96523">
        <ele>152.9</ele>
        <time>2020-06-30T11:56:47Z</time>
      </trkpt>
      <trkpt lat="48.62685" lon="4.9652">
        <ele>153.7</ele>
        <time>2020-06-30T11:56:48Z</time>
      </trkpt>
      <trkpt lat="48.62686" lon="4.96515">
        <ele>153.7</ele>
        <time>2020-06-30T11:56:49Z</time>
      </trkpt>
      <trkpt lat="48.62686" lon="4.96511">
        <ele>153.6</ele>
        <time>2020-06-30T11:56:50Z</time>
      </trkpt>
      <trkpt lat="48.62686" lon="4.9651">
        <ele>153.6</ele>
        <time>2020-06-30T11:56:51Z</time>
      </trkpt>
      <trkpt lat="48.62685" lon="4.96509">
        <ele>153.6</ele>
        <time>2020-06-30T11:56:52Z</time>
      </trkpt>
      <trkpt lat="48.62683" lon="4.96508">
        <ele>153.6</ele>
        <time>2020-06-30T11:56:53Z</time>
      </trkpt>
      <trkpt lat="48.62682" lon="4.96507">
        <ele>153.6</ele>
        <time>2020-06-30T11:56:54Z</time>
      </trkpt>
      <trkpt lat="48.62682" lon="4.96502">
        <ele>153.6</ele>
        <time>2020-06-30T11:56:55Z</time>
      </trkpt>
      <trkpt lat="48.62682" lon="4.96501">
        <ele>153.6</ele>
        <time>2020-06-30T11:56:56Z</time>
      </trkpt>
      <trkpt lat="48.62681" lon="4.96499">
        <ele>153.6</ele>
        <time>2020-06-30T11:56:57Z</time>
      </trkpt>
      <trkpt lat="48.62681" lon="4.96497">
        <ele>153.6</ele>
        <time>2020-06-30T11:56:58Z</time>
      </trkpt>
      <trkpt lat="48.62681" lon="4.96495">
        <ele>153.6</ele>
        <time>2020-06-30T11:56:59Z</time>
      </trkpt>
      <trkpt lat="48.62681" lon="4.96494">
        <ele>153.6</ele>
        <time>2020-06-30T11:57:00Z</time>
      </trkpt>
      <trkpt lat="48.62679" lon="4.96493">
        <ele>153.5</ele>
        <time>2020-06-30T11:57:01Z</time>
      </trkpt>
      <trkpt lat="48.62679" lon="4.96489">
        <ele>153.5</ele>
        <time>2020-06-30T11:57:02Z</time>
      </trkpt>
      <trkpt lat="48.62678" lon="4.96486">
        <ele>153.5</ele>
        <time>2020-06-30T11:57:03Z</time>
      </trkpt>
      <trkpt lat="48.62677" lon="4.96485">
        <ele>153.5</ele>
        <time>2020-06-30T11:57:04Z</time>
      </trkpt>
      <trkpt lat="48.62676" lon="4.96481">
        <ele>153.5</ele>
        <time>2020-06-30T11:57:05Z</time>
      </trkpt>
      <trkpt lat="48.62676" lon="4.96476">
        <ele>153.4</ele>
        <time>2020-06-30T11:57:06Z</time>
      </trkpt>
      <trkpt lat="48.62673" lon="4.9647">
        <ele>153.4</ele>
        <time>2020-06-30T11:57:07Z</time>
      </trkpt>
      <trkpt lat="48.62671" lon="4.96466">
        <ele>153.4</ele>
        <time>2020-06-30T11:57:08Z</time>
      </trkpt>
      <trkpt lat="48.62669" lon="4.96461">
        <ele>153.3</ele>
        <time>2020-06-30T11:57:09Z</time>
      </trkpt>
      <trkpt lat="48.62667" lon="4.96455">
        <ele>153.3</ele>
        <time>2020-06-30T11:57:10Z</time>
      </trkpt>
      <trkpt lat="48.62665" lon="4.96451">
        <ele>153.2</ele>
        <time>2020-06-30T11:57:11Z</time>
      </trkpt>
      <trkpt lat="48.62664" lon="4.96446">
        <ele>153.2</ele>
        <time>2020-06-30T11:57:12Z</time>
      </trkpt>
      <trkpt lat="48.62662" lon="4.96442">
        <ele>153.2</ele>
        <time>2020-06-30T11:57:13Z</time>
      </trkpt>
      <trkpt lat="48.6266" lon="4.96438">
        <ele>153.1</ele>
        <time>2020-06-30T11:57:14Z</time>
      </trkpt>
      <trkpt lat="48.62659" lon="4.96433">
        <ele>153.1</ele>
        <time>2020-06-30T11:57:15Z</time>
      </trkpt>
      <trkpt lat="48.62658" lon="4.96431">
        <ele>153.1</ele>
        <time>2020-06-30T11:57:16Z</time>
      </trkpt>
      <trkpt lat="48.62657" lon="4.96427">
        <ele>153.1</ele>
        <time>2020-06-30T11:57:17Z</time>
      </trkpt>
      <trkpt lat="48.62655" lon="4.96423">
        <ele>153</ele>
        <time>2020-06-30T11:57:18Z</time>
      </trkpt>
      <trkpt lat="48.62654" lon="4.96419">
        <ele>153</ele>
        <time>2020-06-30T11:57:19Z</time>
      </trkpt>
      <trkpt lat="48.62652" lon="4.96414">
        <ele>153</ele>
        <time>2020-06-30T11:57:20Z</time>
      </trkpt>
      <trkpt lat="48.6265" lon="4.96409">
        <ele>152.9</ele>
        <time>2020-06-30T11:57:21Z</time>
      </trkpt>
      <trkpt lat="48.62648" lon="4.96405">
        <ele>152.9</ele>
        <time>2020-06-30T11:57:22Z</time>
      </trkpt>
      <trkpt lat="48.62646" lon="4.96404">
        <ele>152.9</ele>
        <time>2020-06-30T11:57:23Z</time>
      </trkpt>
      <trkpt lat="48.62646" lon="4.96404">
        <ele>152.9</ele>
        <time>2020-06-30T11:57:24Z</time>
      </trkpt>
      <trkpt lat="48.62645" lon="4.96403">
        <ele>152.9</ele>
        <time>2020-06-30T11:57:25Z</time>
      </trkpt>
      <trkpt lat="48.62646" lon="4.96402">
        <ele>152.9</ele>
        <time>2020-06-30T11:57:26Z</time>
      </trkpt>
      <trkpt lat="48.62647" lon="4.96398">
        <ele>152.9</ele>
        <time>2020-06-30T11:57:27Z</time>
      </trkpt>
      <trkpt lat="48.62647" lon="4.96393">
        <ele>152.9</ele>
        <time>2020-06-30T11:57:28Z</time>
      </trkpt>
      <trkpt lat="48.62647" lon="4.96392">
        <ele>152.9</ele>
        <time>2020-06-30T11:57:29Z</time>
      </trkpt>
      <trkpt lat="48.62648" lon="4.96387">
        <ele>152.8</ele>
        <time>2020-06-30T11:57:30Z</time>
      </trkpt>
      <trkpt lat="48.62649" lon="4.96386">
        <ele>152.8</ele>
        <time>2020-06-30T11:57:31Z</time>
      </trkpt>
      <trkpt lat="48.62652" lon="4.96383">
        <ele>152.8</ele>
        <time>2020-06-30T11:57:32Z</time>
      </trkpt>
      <trkpt lat="48.62654" lon="4.96381">
        <ele>152.8</ele>
        <time>2020-06-30T11:57:33Z</time>
      </trkpt>
      <trkpt lat="48.62656" lon="4.96377">
        <ele>152.8</ele>
        <time>2020-06-30T11:57:34Z</time>
      </trkpt>
      <trkpt lat="48.62658" lon="4.96374">
        <ele>152.8</ele>
        <time>2020-06-30T11:57:35Z</time>
      </trkpt>
      <trkpt lat="48.62661" lon="4.9637">
        <ele>152.8</ele>
        <time>2020-06-30T11:57:36Z</time>
      </trkpt>
      <trkpt lat="48.62665" lon="4.96367">
        <ele>152.8</ele>
        <time>2020-06-30T11:57:37Z</time>
      </trkpt>
      <trkpt lat="48.62667" lon="4.9636">
        <ele>152.7</ele>
        <time>2020-06-30T11:57:38Z</time>
      </trkpt>
      <trkpt lat="48.62669" lon="4.96354">
        <ele>152.5</ele>
        <time>2020-06-30T11:57:39Z</time>
      </trkpt>
      <trkpt lat="48.62671" lon="4.96348">
        <ele>152.3</ele>
        <time>2020-06-30T11:57:40Z</time>
      </trkpt>
      <trkpt lat="48.62671" lon="4.96341">
        <ele>152.1</ele>
        <time>2020-06-30T11:57:41Z</time>
      </trkpt>
      <trkpt lat="48.62671" lon="4.96335">
        <ele>151.9</ele>
        <time>2020-06-30T11:57:42Z</time>
      </trkpt>
      <trkpt lat="48.6267" lon="4.96327">
        <ele>151.7</ele>
        <time>2020-06-30T11:57:43Z</time>
      </trkpt>
      <trkpt lat="48.62669" lon="4.9632">
        <ele>151.5</ele>
        <time>2020-06-30T11:57:44Z</time>
      </trkpt>
      <trkpt lat="48.62666" lon="4.96313">
        <ele>151.3</ele>
        <time>2020-06-30T11:57:45Z</time>
      </trkpt>
      <trkpt lat="48.62663" lon="4.96307">
        <ele>151</ele>
        <time>2020-06-30T11:57:46Z</time>
      </trkpt>
      <trkpt lat="48.6266" lon="4.96301">
        <ele>150.8</ele>
        <time>2020-06-30T11:57:47Z</time>
      </trkpt>
      <trkpt lat="48.62657" lon="4.96296">
        <ele>150.6</ele>
        <time>2020-06-30T11:57:48Z</time>
      </trkpt>
      <trkpt lat="48.62655" lon="4.96288">
        <ele>150.4</ele>
        <time>2020-06-30T11:57:49Z</time>
      </trkpt>
      <trkpt lat="48.62653" lon="4.96278">
        <ele>150.1</ele>
        <time>2020-06-30T11:57:50Z</time>
      </trkpt>
      <trkpt lat="48.62653" lon="4.96269">
        <ele>149.8</ele>
        <time>2020-06-30T11:57:51Z</time>
      </trkpt>
      <trkpt lat="48.62653" lon="4.9626">
        <ele>149.5</ele>
        <time>2020-06-30T11:57:52Z</time>
      </trkpt>
      <trkpt lat="48.62654" lon="4.96251">
        <ele>149.3</ele>
        <time>2020-06-30T11:57:53Z</time>
      </trkpt>
      <trkpt lat="48.62655" lon="4.96243">
        <ele>149</ele>
        <time>2020-06-30T11:57:54Z</time>
      </trkpt>
      <trkpt lat="48.62657" lon="4.96233">
        <ele>148.6</ele>
        <time>2020-06-30T11:57:55Z</time>
      </trkpt>
      <trkpt lat="48.62659" lon="4.96223">
        <ele>148.2</ele>
        <time>2020-06-30T11:57:56Z</time>
      </trkpt>
      <trkpt lat="48.62662" lon="4.96211">
        <ele>147.8</ele>
        <time>2020-06-30T11:57:57Z</time>
      </trkpt>
      <trkpt lat="48.62664" lon="4.96201">
        <ele>147.3</ele>
        <time>2020-06-30T11:57:58Z</time>
      </trkpt>
      <trkpt lat="48.62666" lon="4.96189">
        <ele>146.9</ele>
        <time>2020-06-30T11:57:59Z</time>
      </trkpt>
      <trkpt lat="48.62669" lon="4.96179">
        <ele>146.5</ele>
        <time>2020-06-30T11:58:00Z</time>
      </trkpt>
      <trkpt lat="48.62671" lon="4.96167">
        <ele>146.1</ele>
        <time>2020-06-30T11:58:01Z</time>
      </trkpt>
      <trkpt lat="48.62674" lon="4.96155">
        <ele>145.6</ele>
        <time>2020-06-30T11:58:02Z</time>
      </trkpt>
      <trkpt lat="48.62677" lon="4.96143">
        <ele>145.2</ele>
        <time>2020-06-30T11:58:03Z</time>
      </trkpt>
      <trkpt lat="48.62681" lon="4.96131">
        <ele>144.8</ele>
        <time>2020-06-30T11:58:04Z</time>
      </trkpt>
      <trkpt lat="48.62685" lon="4.9612">
        <ele>144.5</ele>
        <time>2020-06-30T11:58:05Z</time>
      </trkpt>
      <trkpt lat="48.6269" lon="4.96109">
        <ele>144.5</ele>
        <time>2020-06-30T11:58:06Z</time>
      </trkpt>
      <trkpt lat="48.62694" lon="4.96098">
        <ele>144.3</ele>
        <time>2020-06-30T11:58:07Z</time>
      </trkpt>
      <trkpt lat="48.62698" lon="4.96088">
        <ele>144.1</ele>
        <time>2020-06-30T11:58:08Z</time>
      </trkpt>
      <trkpt lat="48.62703" lon="4.96078">
        <ele>144</ele>
        <time>2020-06-30T11:58:09Z</time>
      </trkpt>
      <trkpt lat="48.62707" lon="4.96068">
        <ele>143.9</ele>
        <time>2020-06-30T11:58:10Z</time>
      </trkpt>
      <trkpt lat="48.62712" lon="4.96058">
        <ele>143.9</ele>
        <time>2020-06-30T11:58:11Z</time>
      </trkpt>
      <trkpt lat="48.62716" lon="4.96049">
        <ele>143.8</ele>
        <time>2020-06-30T11:58:12Z</time>
      </trkpt>
      <trkpt lat="48.6272" lon="4.96041">
        <ele>143.8</ele>
        <time>2020-06-30T11:58:13Z</time>
      </trkpt>
      <trkpt lat="48.62725" lon="4.96032">
        <ele>143.8</ele>
        <time>2020-06-30T11:58:14Z</time>
      </trkpt>
      <trkpt lat="48.62729" lon="4.96024">
        <ele>143.8</ele>
        <time>2020-06-30T11:58:15Z</time>
      </trkpt>
      <trkpt lat="48.62733" lon="4.96016">
        <ele>143.8</ele>
        <time>2020-06-30T11:58:16Z</time>
      </trkpt>
      <trkpt lat="48.62737" lon="4.96007">
        <ele>143.8</ele>
        <time>2020-06-30T11:58:17Z</time>
      </trkpt>
      <trkpt lat="48.62741" lon="4.95999">
        <ele>143.7</ele>
        <time>2020-06-30T11:58:18Z</time>
      </trkpt>
      <trkpt lat="48.62745" lon="4.95991">
        <ele>143.7</ele>
        <time>2020-06-30T11:58:19Z</time>
      </trkpt>
      <trkpt lat="48.62749" lon="4.95983">
        <ele>143.7</ele>
        <time>2020-06-30T11:58:20Z</time>
      </trkpt>
      <trkpt lat="48.62752" lon="4.95975">
        <ele>143.6</ele>
        <time>2020-06-30T11:58:21Z</time>
      </trkpt>
      <trkpt lat="48.62756" lon="4.95967">
        <ele>143.6</ele>
        <time>2020-06-30T11:58:22Z</time>
      </trkpt>
      <trkpt lat="48.62759" lon="4.95959">
        <ele>143.6</ele>
        <time>2020-06-30T11:58:23Z</time>
      </trkpt>
      <trkpt lat="48.62764" lon="4.95952">
        <ele>143.5</ele>
        <time>2020-06-30T11:58:24Z</time>
      </trkpt>
      <trkpt lat="48.62768" lon="4.95944">
        <ele>143.5</ele>
        <time>2020-06-30T11:58:25Z</time>
      </trkpt>
      <trkpt lat="48.62772" lon="4.95936">
        <ele>143.4</ele>
        <time>2020-06-30T11:58:26Z</time>
      </trkpt>
      <trkpt lat="48.62776" lon="4.95928">
        <ele>143.3</ele>
        <time>2020-06-30T11:58:27Z</time>
      </trkpt>
      <trkpt lat="48.62781" lon="4.9592">
        <ele>143.2</ele>
        <time>2020-06-30T11:58:28Z</time>
      </trkpt>
      <trkpt lat="48.62785" lon="4.95911">
        <ele>143</ele>
        <time>2020-06-30T11:58:29Z</time>
      </trkpt>
      <trkpt lat="48.62789" lon="4.95903">
        <ele>142.9</ele>
        <time>2020-06-30T11:58:30Z</time>
      </trkpt>
      <trkpt lat="48.62793" lon="4.95894">
        <ele>142.9</ele>
        <time>2020-06-30T11:58:31Z</time>
      </trkpt>
      <trkpt lat="48.62797" lon="4.95886">
        <ele>142.9</ele>
        <time>2020-06-30T11:58:32Z</time>
      </trkpt>
      <trkpt lat="48.62801" lon="4.95878">
        <ele>142.8</ele>
        <time>2020-06-30T11:58:33Z</time>
      </trkpt>
      <trkpt lat="48.62805" lon="4.9587">
        <ele>142.8</ele>
        <time>2020-06-30T11:58:34Z</time>
      </trkpt>
      <trkpt lat="48.62809" lon="4.95862">
        <ele>142.7</ele>
        <time>2020-06-30T11:58:35Z</time>
      </trkpt>
      <trkpt lat="48.62813" lon="4.95854">
        <ele>142.7</ele>
        <time>2020-06-30T11:58:36Z</time>
      </trkpt>
      <trkpt lat="48.62817" lon="4.95846">
        <ele>142.7</ele>
        <time>2020-06-30T11:58:37Z</time>
      </trkpt>
      <trkpt lat="48.6282" lon="4.95838">
        <ele>142.6</ele>
        <time>2020-06-30T11:58:38Z</time>
      </trkpt>
      <trkpt lat="48.62824" lon="4.95831">
        <ele>142.6</ele>
        <time>2020-06-30T11:58:39Z</time>
      </trkpt>
      <trkpt lat="48.62828" lon="4.95823">
        <ele>142.5</ele>
        <time>2020-06-30T11:58:40Z</time>
      </trkpt>
      <trkpt lat="48.62832" lon="4.95815">
        <ele>142.5</ele>
        <time>2020-06-30T11:58:41Z</time>
      </trkpt>
      <trkpt lat="48.62835" lon="4.95807">
        <ele>142.5</ele>
        <time>2020-06-30T11:58:42Z</time>
      </trkpt>
      <trkpt lat="48.62839" lon="4.95799">
        <ele>142.5</ele>
        <time>2020-06-30T11:58:43Z</time>
      </trkpt>
      <trkpt lat="48.62843" lon="4.95791">
        <ele>142.4</ele>
        <time>2020-06-30T11:58:44Z</time>
      </trkpt>
      <trkpt lat="48.62847" lon="4.95784">
        <ele>142.4</ele>
        <time>2020-06-30T11:58:45Z</time>
      </trkpt>
      <trkpt lat="48.62851" lon="4.95776">
        <ele>142.4</ele>
        <time>2020-06-30T11:58:46Z</time>
      </trkpt>
      <trkpt lat="48.62855" lon="4.95769">
        <ele>142.4</ele>
        <time>2020-06-30T11:58:47Z</time>
      </trkpt>
      <trkpt lat="48.62858" lon="4.95761">
        <ele>142.3</ele>
        <time>2020-06-30T11:58:48Z</time>
      </trkpt>
      <trkpt lat="48.62862" lon="4.95753">
        <ele>142.3</ele>
        <time>2020-06-30T11:58:49Z</time>
      </trkpt>
      <trkpt lat="48.62866" lon="4.95745">
        <ele>142.2</ele>
        <time>2020-06-30T11:58:50Z</time>
      </trkpt>
      <trkpt lat="48.6287" lon="4.95737">
        <ele>142.2</ele>
        <time>2020-06-30T11:58:51Z</time>
      </trkpt>
      <trkpt lat="48.62873" lon="4.9573">
        <ele>142.1</ele>
        <time>2020-06-30T11:58:52Z</time>
      </trkpt>
      <trkpt lat="48.62877" lon="4.95722">
        <ele>142.1</ele>
        <time>2020-06-30T11:58:53Z</time>
      </trkpt>
      <trkpt lat="48.62881" lon="4.95715">
        <ele>142</ele>
        <time>2020-06-30T11:58:54Z</time>
      </trkpt>
      <trkpt lat="48.62884" lon="4.95708">
        <ele>142</ele>
        <time>2020-06-30T11:58:55Z</time>
      </trkpt>
      <trkpt lat="48.62887" lon="4.95702">
        <ele>141.9</ele>
        <time>2020-06-30T11:58:56Z</time>
      </trkpt>
      <trkpt lat="48.6289" lon="4.95697">
        <ele>141.9</ele>
        <time>2020-06-30T11:58:57Z</time>
      </trkpt>
      <trkpt lat="48.62892" lon="4.95693">
        <ele>141.9</ele>
        <time>2020-06-30T11:58:58Z</time>
      </trkpt>
      <trkpt lat="48.62894" lon="4.95689">
        <ele>141.9</ele>
        <time>2020-06-30T11:58:59Z</time>
      </trkpt>
      <trkpt lat="48.62897" lon="4.95692">
        <ele>141.9</ele>
        <time>2020-06-30T11:59:00Z</time>
      </trkpt>
      <trkpt lat="48.62899" lon="4.95693">
        <ele>141.9</ele>
        <time>2020-06-30T11:59:01Z</time>
      </trkpt>
      <trkpt lat="48.62899" lon="4.95695">
        <ele>141.9</ele>
        <time>2020-06-30T11:59:02Z</time>
      </trkpt>
      <trkpt lat="48.629" lon="4.95696">
        <ele>141.9</ele>
        <time>2020-06-30T11:59:03Z</time>
      </trkpt>
      <trkpt lat="48.62901" lon="4.957">
        <ele>141.9</ele>
        <time>2020-06-30T11:59:04Z</time>
      </trkpt>
      <trkpt lat="48.62902" lon="4.95701">
        <ele>141.9</ele>
        <time>2020-06-30T11:59:05Z</time>
      </trkpt>
      <trkpt lat="48.62904" lon="4.95706">
        <ele>141.9</ele>
        <time>2020-06-30T11:59:06Z</time>
      </trkpt>
      <trkpt lat="48.62905" lon="4.95707">
        <ele>141.9</ele>
        <time>2020-06-30T11:59:07Z</time>
      </trkpt>
      <trkpt lat="48.62907" lon="4.95712">
        <ele>141.9</ele>
        <time>2020-06-30T11:59:08Z</time>
      </trkpt>
      <trkpt lat="48.62908" lon="4.95713">
        <ele>141.9</ele>
        <time>2020-06-30T11:59:09Z</time>
      </trkpt>
      <trkpt lat="48.62909" lon="4.95718">
        <ele>141.9</ele>
        <time>2020-06-30T11:59:10Z</time>
      </trkpt>
      <trkpt lat="48.6291" lon="4.9572">
        <ele>141.9</ele>
        <time>2020-06-30T11:59:11Z</time>
      </trkpt>
      <trkpt lat="48.62911" lon="4.95725">
        <ele>141.9</ele>
        <time>2020-06-30T11:59:12Z</time>
      </trkpt>
      <trkpt lat="48.62911" lon="4.95727">
        <ele>141.9</ele>
        <time>2020-06-30T11:59:13Z</time>
      </trkpt>
      <trkpt lat="48.62913" lon="4.9573">
        <ele>141.9</ele>
        <time>2020-06-30T11:59:14Z</time>
      </trkpt>
      <trkpt lat="48.62914" lon="4.95731">
        <ele>141.9</ele>
        <time>2020-06-30T11:59:15Z</time>
      </trkpt>
      <trkpt lat="48.62916" lon="4.95734">
        <ele>141.9</ele>
        <time>2020-06-30T11:59:16Z</time>
      </trkpt>
      <trkpt lat="48.62916" lon="4.95735">
        <ele>141.9</ele>
        <time>2020-06-30T11:59:17Z</time>
      </trkpt>
      <trkpt lat="48.62917" lon="4.95736">
        <ele>141.9</ele>
        <time>2020-06-30T11:59:18Z</time>
      </trkpt>
      <trkpt lat="48.62918" lon="4.95735">
        <ele>141.9</ele>
        <time>2020-06-30T11:59:19Z</time>
      </trkpt>
      <trkpt lat="48.62918" lon="4.95735">
        <ele>141.9</ele>
        <time>2020-06-30T11:59:20Z</time>
      </trkpt>
      <trkpt lat="48.62917" lon="4.95733">
        <ele>141.9</ele>
        <time>2020-06-30T11:59:21Z</time>
      </trkpt>
      <trkpt lat="48.62917" lon="4.95731">
        <ele>141.9</ele>
        <time>2020-06-30T11:59:22Z</time>
      </trkpt>
      <trkpt lat="48.62915" lon="4.95726">
        <ele>141.9</ele>
        <time>2020-06-30T11:59:23Z</time>
      </trkpt>
      <trkpt lat="48.62914" lon="4.95725">
        <ele>141.9</ele>
        <time>2020-06-30T11:59:24Z</time>
      </trkpt>
      <trkpt lat="48.62913" lon="4.95724">
        <ele>141.9</ele>
        <time>2020-06-30T11:59:25Z</time>
      </trkpt>
      <trkpt lat="48.62911" lon="4.95723">
        <ele>141.9</ele>
        <time>2020-06-30T11:59:26Z</time>
      </trkpt>
      <trkpt lat="48.6291" lon="4.95719">
        <ele>141.9</ele>
        <time>2020-06-30T11:59:27Z</time>
      </trkpt>
      <trkpt lat="48.62909" lon="4.95717">
        <ele>141.9</ele>
        <time>2020-06-30T11:59:28Z</time>
      </trkpt>
      <trkpt lat="48.62909" lon="4.95715">
        <ele>141.9</ele>
        <time>2020-06-30T11:59:29Z</time>
      </trkpt>
      <trkpt lat="48.62908" lon="4.95713">
        <ele>141.9</ele>
        <time>2020-06-30T11:59:30Z</time>
      </trkpt>
      <trkpt lat="48.62908" lon="4.95709">
        <ele>141.9</ele>
        <time>2020-06-30T11:59:31Z</time>
      </trkpt>
      <trkpt lat="48.62908" lon="4.95707">
        <ele>141.9</ele>
        <time>2020-06-30T11:59:32Z</time>
      </trkpt>
      <trkpt lat="48.62908" lon="4.95702">
        <ele>141.9</ele>
        <time>2020-06-30T11:59:33Z</time>
      </trkpt>
      <trkpt lat="48.62907" lon="4.95699">
        <ele>141.9</ele>
        <time>2020-06-30T11:59:34Z</time>
      </trkpt>
      <trkpt lat="48.62909" lon="4.95695">
        <ele>142</ele>
        <time>2020-06-30T11:59:35Z</time>
      </trkpt>
      <trkpt lat="48.6291" lon="4.9569">
        <ele>142</ele>
        <time>2020-06-30T11:59:36Z</time>
      </trkpt>
      <trkpt lat="48.62912" lon="4.95685">
        <ele>142</ele>
        <time>2020-06-30T11:59:37Z</time>
      </trkpt>
      <trkpt lat="48.62914" lon="4.95678">
        <ele>142</ele>
        <time>2020-06-30T11:59:38Z</time>
      </trkpt>
      <trkpt lat="48.62915" lon="4.95673">
        <ele>142</ele>
        <time>2020-06-30T11:59:39Z</time>
      </trkpt>
      <trkpt lat="48.62916" lon="4.95666">
        <ele>142</ele>
        <time>2020-06-30T11:59:40Z</time>
      </trkpt>
      <trkpt lat="48.62917" lon="4.95659">
        <ele>142</ele>
        <time>2020-06-30T11:59:41Z</time>
      </trkpt>
      <trkpt lat="48.62919" lon="4.95652">
        <ele>142</ele>
        <time>2020-06-30T11:59:42Z</time>
      </trkpt>
      <trkpt lat="48.6292" lon="4.95648">
        <ele>142.1</ele>
        <time>2020-06-30T11:59:43Z</time>
      </trkpt>
      <trkpt lat="48.62922" lon="4.95643">
        <ele>142.1</ele>
        <time>2020-06-30T11:59:44Z</time>
      </trkpt>
      <trkpt lat="48.62923" lon="4.95639">
        <ele>142.1</ele>
        <time>2020-06-30T11:59:45Z</time>
      </trkpt>
      <trkpt lat="48.62925" lon="4.95636">
        <ele>142.1</ele>
        <time>2020-06-30T11:59:46Z</time>
      </trkpt>
      <trkpt lat="48.62928" lon="4.95632">
        <ele>142.1</ele>
        <time>2020-06-30T11:59:47Z</time>
      </trkpt>
      <trkpt lat="48.62932" lon="4.95627">
        <ele>142.1</ele>
        <time>2020-06-30T11:59:48Z</time>
      </trkpt>
      <trkpt lat="48.62934" lon="4.95621">
        <ele>142.1</ele>
        <time>2020-06-30T11:59:49Z</time>
      </trkpt>
      <trkpt lat="48.62937" lon="4.95616">
        <ele>142.2</ele>
        <time>2020-06-30T11:59:50Z</time>
      </trkpt>
      <trkpt lat="48.62939" lon="4.95611">
        <ele>142.2</ele>
        <time>2020-06-30T11:59:51Z</time>
      </trkpt>
      <trkpt lat="48.6294" lon="4.95606">
        <ele>142.2</ele>
        <time>2020-06-30T11:59:52Z</time>
      </trkpt>
      <trkpt lat="48.62941" lon="4.95605">
        <ele>142.2</ele>
        <time>2020-06-30T11:59:53Z</time>
      </trkpt>
      <trkpt lat="48.62944" lon="4.95602">
        <ele>142.2</ele>
        <time>2020-06-30T11:59:54Z</time>
      </trkpt>
      <trkpt lat="48.62946" lon="4.95601">
        <ele>142.2</ele>
        <time>2020-06-30T11:59:55Z</time>
      </trkpt>
      <trkpt lat="48.62948" lon="4.95596">
        <ele>142.2</ele>
        <time>2020-06-30T11:59:56Z</time>
      </trkpt>
      <trkpt lat="48.62949" lon="4.95593">
        <ele>142.2</ele>
        <time>2020-06-30T11:59:57Z</time>
      </trkpt>
      <trkpt lat="48.62948" lon="4.95582">
        <ele>142.3</ele>
        <time>2020-06-30T11:59:58Z</time>
      </trkpt>
      <trkpt lat="48.6295" lon="4.95576">
        <ele>142.3</ele>
        <time>2020-06-30T11:59:59Z</time>
      </trkpt>
      <trkpt lat="48.62952" lon="4.95571">
        <ele>142.3</ele>
        <time>2020-06-30T12:00:00Z</time>
      </trkpt>
      <trkpt lat="48.62955" lon="4.95565">
        <ele>142.4</ele>
        <time>2020-06-30T12:00:01Z</time>
      </trkpt>
      <trkpt lat="48.62958" lon="4.9556">
        <ele>142.3</ele>
        <time>2020-06-30T12:00:02Z</time>
      </trkpt>
      <trkpt lat="48.6296" lon="4.95555">
        <ele>142.3</ele>
        <time>2020-06-30T12:00:03Z</time>
      </trkpt>
      <trkpt lat="48.62963" lon="4.95552">
        <ele>142.3</ele>
        <time>2020-06-30T12:00:04Z</time>
      </trkpt>
      <trkpt lat="48.62966" lon="4.9555">
        <ele>142.2</ele>
        <time>2020-06-30T12:00:05Z</time>
      </trkpt>
      <trkpt lat="48.62969" lon="4.95548">
        <ele>142.2</ele>
        <time>2020-06-30T12:00:06Z</time>
      </trkpt>
      <trkpt lat="48.62972" lon="4.95546">
        <ele>142.2</ele>
        <time>2020-06-30T12:00:07Z</time>
      </trkpt>
      <trkpt lat="48.62977" lon="4.95542">
        <ele>142.2</ele>
        <time>2020-06-30T12:00:08Z</time>
      </trkpt>
      <trkpt lat="48.6298" lon="4.95537">
        <ele>142.1</ele>
        <time>2020-06-30T12:00:09Z</time>
      </trkpt>
      <trkpt lat="48.62984" lon="4.95535">
        <ele>142.1</ele>
        <time>2020-06-30T12:00:10Z</time>
      </trkpt>
      <trkpt lat="48.62988" lon="4.95532">
        <ele>142.1</ele>
        <time>2020-06-30T12:00:11Z</time>
      </trkpt>
      <trkpt lat="48.62993" lon="4.9553">
        <ele>142.1</ele>
        <time>2020-06-30T12:00:12Z</time>
      </trkpt>
      <trkpt lat="48.62998" lon="4.95526">
        <ele>142.1</ele>
        <time>2020-06-30T12:00:13Z</time>
      </trkpt>
      <trkpt lat="48.63002" lon="4.95522">
        <ele>142.1</ele>
        <time>2020-06-30T12:00:14Z</time>
      </trkpt>
      <trkpt lat="48.63008" lon="4.95525">
        <ele>142.1</ele>
        <time>2020-06-30T12:00:15Z</time>
      </trkpt>
      <trkpt lat="48.63013" lon="4.95523">
        <ele>142.1</ele>
        <time>2020-06-30T12:00:16Z</time>
      </trkpt>
      <trkpt lat="48.63017" lon="4.9552">
        <ele>142.1</ele>
        <time>2020-06-30T12:00:17Z</time>
      </trkpt>
      <trkpt lat="48.63021" lon="4.95519">
        <ele>142.1</ele>
        <time>2020-06-30T12:00:18Z</time>
      </trkpt>
      <trkpt lat="48.63026" lon="4.95517">
        <ele>142.2</ele>
        <time>2020-06-30T12:00:19Z</time>
      </trkpt>
      <trkpt lat="48.63032" lon="4.95514">
        <ele>142.2</ele>
        <time>2020-06-30T12:00:20Z</time>
      </trkpt>
      <trkpt lat="48.63037" lon="4.9551">
        <ele>142.1</ele>
        <time>2020-06-30T12:00:21Z</time>
      </trkpt>
      <trkpt lat="48.63042" lon="4.95506">
        <ele>142.1</ele>
        <time>2020-06-30T12:00:22Z</time>
      </trkpt>
      <trkpt lat="48.63046" lon="4.95503">
        <ele>142.1</ele>
        <time>2020-06-30T12:00:23Z</time>
      </trkpt>
      <trkpt lat="48.63051" lon="4.955">
        <ele>142.1</ele>
        <time>2020-06-30T12:00:24Z</time>
      </trkpt>
      <trkpt lat="48.63055" lon="4.95498">
        <ele>142.1</ele>
        <time>2020-06-30T12:00:25Z</time>
      </trkpt>
      <trkpt lat="48.6306" lon="4.95497">
        <ele>142.1</ele>
        <time>2020-06-30T12:00:26Z</time>
      </trkpt>
      <trkpt lat="48.63065" lon="4.95495">
        <ele>142.1</ele>
        <time>2020-06-30T12:00:27Z</time>
      </trkpt>
      <trkpt lat="48.6307" lon="4.95492">
        <ele>142</ele>
        <time>2020-06-30T12:00:28Z</time>
      </trkpt>
      <trkpt lat="48.63074" lon="4.95489">
        <ele>142</ele>
        <time>2020-06-30T12:00:29Z</time>
      </trkpt>
      <trkpt lat="48.63079" lon="4.95487">
        <ele>142</ele>
        <time>2020-06-30T12:00:30Z</time>
      </trkpt>
      <trkpt lat="48.63084" lon="4.95484">
        <ele>142</ele>
        <time>2020-06-30T12:00:31Z</time>
      </trkpt>
      <trkpt lat="48.63089" lon="4.95483">
        <ele>142</ele>
        <time>2020-06-30T12:00:32Z</time>
      </trkpt>
      <trkpt lat="48.63092" lon="4.95478">
        <ele>142</ele>
        <time>2020-06-30T12:00:33Z</time>
      </trkpt>
      <trkpt lat="48.63096" lon="4.95477">
        <ele>142</ele>
        <time>2020-06-30T12:00:34Z</time>
      </trkpt>
      <trkpt lat="48.63098" lon="4.95475">
        <ele>142</ele>
        <time>2020-06-30T12:00:35Z</time>
      </trkpt>
      <trkpt lat="48.631" lon="4.95474">
        <ele>142</ele>
        <time>2020-06-30T12:00:36Z</time>
      </trkpt>
      <trkpt lat="48.63102" lon="4.95475">
        <ele>142</ele>
        <time>2020-06-30T12:00:37Z</time>
      </trkpt>
      <trkpt lat="48.63103" lon="4.95474">
        <ele>142</ele>
        <time>2020-06-30T12:00:38Z</time>
      </trkpt>
      <trkpt lat="48.63105" lon="4.95472">
        <ele>142</ele>
        <time>2020-06-30T12:00:39Z</time>
      </trkpt>
      <trkpt lat="48.63106" lon="4.95468">
        <ele>142</ele>
        <time>2020-06-30T12:00:40Z</time>
      </trkpt>
      <trkpt lat="48.63107" lon="4.95465">
        <ele>142</ele>
        <time>2020-06-30T12:00:41Z</time>
      </trkpt>
      <trkpt lat="48.63108" lon="4.95463">
        <ele>142</ele>
        <time>2020-06-30T12:00:42Z</time>
      </trkpt>
      <trkpt lat="48.63109" lon="4.95463">
        <ele>142</ele>
        <time>2020-06-30T12:00:43Z</time>
      </trkpt>
      <trkpt lat="48.6311" lon="4.95462">
        <ele>142</ele>
        <time>2020-06-30T12:00:44Z</time>
      </trkpt>
      <trkpt lat="48.63111" lon="4.95462">
        <ele>142</ele>
        <time>2020-06-30T12:00:45Z</time>
      </trkpt>
      <trkpt lat="48.63112" lon="4.95461">
        <ele>141.9</ele>
        <time>2020-06-30T12:00:46Z</time>
      </trkpt>
      <trkpt lat="48.63113" lon="4.95462">
        <ele>141.9</ele>
        <time>2020-06-30T12:00:47Z</time>
      </trkpt>
      <trkpt lat="48.63115" lon="4.95462">
        <ele>141.9</ele>
        <time>2020-06-30T12:00:48Z</time>
      </trkpt>
      <trkpt lat="48.63117" lon="4.95463">
        <ele>141.9</ele>
        <time>2020-06-30T12:00:49Z</time>
      </trkpt>
      <trkpt lat="48.63119" lon="4.95462">
        <ele>141.9</ele>
        <time>2020-06-30T12:00:50Z</time>
      </trkpt>
      <trkpt lat="48.6312" lon="4.95461">
        <ele>141.9</ele>
        <time>2020-06-30T12:00:51Z</time>
      </trkpt>
      <trkpt lat="48.63123" lon="4.9546">
        <ele>141.9</ele>
        <time>2020-06-30T12:00:52Z</time>
      </trkpt>
      <trkpt lat="48.63126" lon="4.95458">
        <ele>141.9</ele>
        <time>2020-06-30T12:00:53Z</time>
      </trkpt>
      <trkpt lat="48.63129" lon="4.95456">
        <ele>141.9</ele>
        <time>2020-06-30T12:00:54Z</time>
      </trkpt>
      <trkpt lat="48.63131" lon="4.95454">
        <ele>141.9</ele>
        <time>2020-06-30T12:00:55Z</time>
      </trkpt>
      <trkpt lat="48.63134" lon="4.95452">
        <ele>141.8</ele>
        <time>2020-06-30T12:00:56Z</time>
      </trkpt>
      <trkpt lat="48.63137" lon="4.9545">
        <ele>141.8</ele>
        <time>2020-06-30T12:00:57Z</time>
      </trkpt>
      <trkpt lat="48.6314" lon="4.95451">
        <ele>141.8</ele>
        <time>2020-06-30T12:00:58Z</time>
      </trkpt>
      <trkpt lat="48.63144" lon="4.95451">
        <ele>141.8</ele>
        <time>2020-06-30T12:00:59Z</time>
      </trkpt>
      <trkpt lat="48.63148" lon="4.95451">
        <ele>141.8</ele>
        <time>2020-06-30T12:01:00Z</time>
      </trkpt>
      <trkpt lat="48.63151" lon="4.95449">
        <ele>141.8</ele>
        <time>2020-06-30T12:01:01Z</time>
      </trkpt>
      <trkpt lat="48.63155" lon="4.95448">
        <ele>141.8</ele>
        <time>2020-06-30T12:01:02Z</time>
      </trkpt>
      <trkpt lat="48.63158" lon="4.95447">
        <ele>141.8</ele>
        <time>2020-06-30T12:01:03Z</time>
      </trkpt>
      <trkpt lat="48.63162" lon="4.95446">
        <ele>141.9</ele>
        <time>2020-06-30T12:01:04Z</time>
      </trkpt>
      <trkpt lat="48.63166" lon="4.95447">
        <ele>141.9</ele>
        <time>2020-06-30T12:01:05Z</time>
      </trkpt>
      <trkpt lat="48.63171" lon="4.95449">
        <ele>141.8</ele>
        <time>2020-06-30T12:01:06Z</time>
      </trkpt>
      <trkpt lat="48.63176" lon="4.95449">
        <ele>141.8</ele>
        <time>2020-06-30T12:01:07Z</time>
      </trkpt>
      <trkpt lat="48.6318" lon="4.9545">
        <ele>141.8</ele>
        <time>2020-06-30T12:01:08Z</time>
      </trkpt>
      <trkpt lat="48.63185" lon="4.95452">
        <ele>141.7</ele>
        <time>2020-06-30T12:01:09Z</time>
      </trkpt>
      <trkpt lat="48.63189" lon="4.95453">
        <ele>141.6</ele>
        <time>2020-06-30T12:01:10Z</time>
      </trkpt>
      <trkpt lat="48.63193" lon="4.95453">
        <ele>141.5</ele>
        <time>2020-06-30T12:01:11Z</time>
      </trkpt>
      <trkpt lat="48.63198" lon="4.95455">
        <ele>141.4</ele>
        <time>2020-06-30T12:01:12Z</time>
      </trkpt>
      <trkpt lat="48.63203" lon="4.95457">
        <ele>141.3</ele>
        <time>2020-06-30T12:01:13Z</time>
      </trkpt>
      <trkpt lat="48.63208" lon="4.95459">
        <ele>141.1</ele>
        <time>2020-06-30T12:01:14Z</time>
      </trkpt>
      <trkpt lat="48.63214" lon="4.95462">
        <ele>140.9</ele>
        <time>2020-06-30T12:01:15Z</time>
      </trkpt>
      <trkpt lat="48.63219" lon="4.95463">
        <ele>140.7</ele>
        <time>2020-06-30T12:01:16Z</time>
      </trkpt>
      <trkpt lat="48.63225" lon="4.95465">
        <ele>140.4</ele>
        <time>2020-06-30T12:01:17Z</time>
      </trkpt>
      <trkpt lat="48.63232" lon="4.95467">
        <ele>140.2</ele>
        <time>2020-06-30T12:01:18Z</time>
      </trkpt>
      <trkpt lat="48.63239" lon="4.95469">
        <ele>139.9</ele>
        <time>2020-06-30T12:01:19Z</time>
      </trkpt>
      <trkpt lat="48.63246" lon="4.95473">
        <ele>139.7</ele>
        <time>2020-06-30T12:01:20Z</time>
      </trkpt>
      <trkpt lat="48.63251" lon="4.95475">
        <ele>139.5</ele>
        <time>2020-06-30T12:01:21Z</time>
      </trkpt>
      <trkpt lat="48.63255" lon="4.95477">
        <ele>139.4</ele>
        <time>2020-06-30T12:01:22Z</time>
      </trkpt>
      <trkpt lat="48.6326" lon="4.95478">
        <ele>139.2</ele>
        <time>2020-06-30T12:01:23Z</time>
      </trkpt>
      <trkpt lat="48.63265" lon="4.9548">
        <ele>139.1</ele>
        <time>2020-06-30T12:01:24Z</time>
      </trkpt>
      <trkpt lat="48.6327" lon="4.95482">
        <ele>139</ele>
        <time>2020-06-30T12:01:25Z</time>
      </trkpt>
      <trkpt lat="48.63274" lon="4.95485">
        <ele>139</ele>
        <time>2020-06-30T12:01:26Z</time>
      </trkpt>
      <trkpt lat="48.63278" lon="4.95486">
        <ele>139</ele>
        <time>2020-06-30T12:01:27Z</time>
      </trkpt>
      <trkpt lat="48.63282" lon="4.95487">
        <ele>139</ele>
        <time>2020-06-30T12:01:28Z</time>
      </trkpt>
      <trkpt lat="48.63287" lon="4.95488">
        <ele>139</ele>
        <time>2020-06-30T12:01:29Z</time>
      </trkpt>
      <trkpt lat="48.63292" lon="4.95489">
        <ele>139</ele>
        <time>2020-06-30T12:01:30Z</time>
      </trkpt>
      <trkpt lat="48.63297" lon="4.9549">
        <ele>139</ele>
        <time>2020-06-30T12:01:31Z</time>
      </trkpt>
      <trkpt lat="48.63302" lon="4.95492">
        <ele>139</ele>
        <time>2020-06-30T12:01:32Z</time>
      </trkpt>
      <trkpt lat="48.63308" lon="4.95493">
        <ele>139</ele>
        <time>2020-06-30T12:01:33Z</time>
      </trkpt>
      <trkpt lat="48.63314" lon="4.95495">
        <ele>138.9</ele>
        <time>2020-06-30T12:01:34Z</time>
      </trkpt>
      <trkpt lat="48.6332" lon="4.95496">
        <ele>138.9</ele>
        <time>2020-06-30T12:01:35Z</time>
      </trkpt>
      <trkpt lat="48.63327" lon="4.95499">
        <ele>138.9</ele>
        <time>2020-06-30T12:01:36Z</time>
      </trkpt>
      <trkpt lat="48.63334" lon="4.95501">
        <ele>138.8</ele>
        <time>2020-06-30T12:01:37Z</time>
      </trkpt>
      <trkpt lat="48.63342" lon="4.95504">
        <ele>138.8</ele>
        <time>2020-06-30T12:01:38Z</time>
      </trkpt>
      <trkpt lat="48.63349" lon="4.95507">
        <ele>138.7</ele>
        <time>2020-06-30T12:01:39Z</time>
      </trkpt>
      <trkpt lat="48.63356" lon="4.95511">
        <ele>138.6</ele>
        <time>2020-06-30T12:01:40Z</time>
      </trkpt>
      <trkpt lat="48.63362" lon="4.95513">
        <ele>138.6</ele>
        <time>2020-06-30T12:01:41Z</time>
      </trkpt>
      <trkpt lat="48.63367" lon="4.95517">
        <ele>138.6</ele>
        <time>2020-06-30T12:01:42Z</time>
      </trkpt>
      <trkpt lat="48.63373" lon="4.95521">
        <ele>138.7</ele>
        <time>2020-06-30T12:01:43Z</time>
      </trkpt>
      <trkpt lat="48.6338" lon="4.95526">
        <ele>138.7</ele>
        <time>2020-06-30T12:01:44Z</time>
      </trkpt>
      <trkpt lat="48.63384" lon="4.95528">
        <ele>138.7</ele>
        <time>2020-06-30T12:01:45Z</time>
      </trkpt>
      <trkpt lat="48.63389" lon="4.95531">
        <ele>138.8</ele>
        <time>2020-06-30T12:01:46Z</time>
      </trkpt>
      <trkpt lat="48.63395" lon="4.95532">
        <ele>138.9</ele>
        <time>2020-06-30T12:01:47Z</time>
      </trkpt>
      <trkpt lat="48.63401" lon="4.95535">
        <ele>138.5</ele>
        <time>2020-06-30T12:01:48Z</time>
      </trkpt>
      <trkpt lat="48.63407" lon="4.95536">
        <ele>138.5</ele>
        <time>2020-06-30T12:01:49Z</time>
      </trkpt>
      <trkpt lat="48.63413" lon="4.95538">
        <ele>138.5</ele>
        <time>2020-06-30T12:01:50Z</time>
      </trkpt>
      <trkpt lat="48.6342" lon="4.95541">
        <ele>138.6</ele>
        <time>2020-06-30T12:01:51Z</time>
      </trkpt>
      <trkpt lat="48.63424" lon="4.95544">
        <ele>138.6</ele>
        <time>2020-06-30T12:01:52Z</time>
      </trkpt>
      <trkpt lat="48.63434" lon="4.95546">
        <ele>138.8</ele>
        <time>2020-06-30T12:01:53Z</time>
      </trkpt>
      <trkpt lat="48.63441" lon="4.95546">
        <ele>138.9</ele>
        <time>2020-06-30T12:01:54Z</time>
      </trkpt>
      <trkpt lat="48.6345" lon="4.95545">
        <ele>139.1</ele>
        <time>2020-06-30T12:01:55Z</time>
      </trkpt>
      <trkpt lat="48.63457" lon="4.95543">
        <ele>139.2</ele>
        <time>2020-06-30T12:01:56Z</time>
      </trkpt>
      <trkpt lat="48.63466" lon="4.95544">
        <ele>140</ele>
        <time>2020-06-30T12:01:57Z</time>
      </trkpt>
      <trkpt lat="48.63471" lon="4.95544">
        <ele>140</ele>
        <time>2020-06-30T12:01:58Z</time>
      </trkpt>
      <trkpt lat="48.63479" lon="4.95545">
        <ele>140.2</ele>
        <time>2020-06-30T12:01:59Z</time>
      </trkpt>
      <trkpt lat="48.63487" lon="4.95547">
        <ele>140.4</ele>
        <time>2020-06-30T12:02:00Z</time>
      </trkpt>
      <trkpt lat="48.63493" lon="4.95547">
        <ele>140.5</ele>
        <time>2020-06-30T12:02:01Z</time>
      </trkpt>
      <trkpt lat="48.63498" lon="4.95548">
        <ele>140.8</ele>
        <time>2020-06-30T12:02:02Z</time>
      </trkpt>
      <trkpt lat="48.63503" lon="4.95549">
        <ele>140.9</ele>
        <time>2020-06-30T12:02:03Z</time>
      </trkpt>
      <trkpt lat="48.63507" lon="4.9555">
        <ele>140.9</ele>
        <time>2020-06-30T12:02:04Z</time>
      </trkpt>
      <trkpt lat="48.6351" lon="4.95552">
        <ele>141</ele>
        <time>2020-06-30T12:02:05Z</time>
      </trkpt>
      <trkpt lat="48.63513" lon="4.95552">
        <ele>141</ele>
        <time>2020-06-30T12:02:06Z</time>
      </trkpt>
      <trkpt lat="48.63516" lon="4.95553">
        <ele>141.1</ele>
        <time>2020-06-30T12:02:07Z</time>
      </trkpt>
      <trkpt lat="48.6352" lon="4.95553">
        <ele>141.1</ele>
        <time>2020-06-30T12:02:08Z</time>
      </trkpt>
      <trkpt lat="48.63522" lon="4.95554">
        <ele>141.1</ele>
        <time>2020-06-30T12:02:09Z</time>
      </trkpt>
      <trkpt lat="48.63526" lon="4.95556">
        <ele>141.2</ele>
        <time>2020-06-30T12:02:10Z</time>
      </trkpt>
      <trkpt lat="48.63529" lon="4.95557">
        <ele>141.3</ele>
        <time>2020-06-30T12:02:11Z</time>
      </trkpt>
      <trkpt lat="48.6353" lon="4.95558">
        <ele>141.3</ele>
        <time>2020-06-30T12:02:12Z</time>
      </trkpt>
      <trkpt lat="48.63532" lon="4.95557">
        <ele>141.4</ele>
        <time>2020-06-30T12:02:13Z</time>
      </trkpt>
      <trkpt lat="48.63533" lon="4.95558">
        <ele>141.4</ele>
        <time>2020-06-30T12:02:14Z</time>
      </trkpt>
      <trkpt lat="48.63533" lon="4.95559">
        <ele>141.4</ele>
        <time>2020-06-30T12:02:15Z</time>
      </trkpt>
      <trkpt lat="48.63535" lon="4.95556">
        <ele>141.4</ele>
        <time>2020-06-30T12:02:16Z</time>
      </trkpt>
      <trkpt lat="48.63535" lon="4.95554">
        <ele>141.5</ele>
        <time>2020-06-30T12:02:17Z</time>
      </trkpt>
      <trkpt lat="48.63535" lon="4.95554">
        <ele>141.5</ele>
        <time>2020-06-30T12:02:18Z</time>
      </trkpt>
      <trkpt lat="48.63534" lon="4.95553">
        <ele>141.5</ele>
        <time>2020-06-30T12:02:19Z</time>
      </trkpt>
      <trkpt lat="48.63534" lon="4.95553">
        <ele>141.5</ele>
        <time>2020-06-30T12:02:20Z</time>
      </trkpt>
      <trkpt lat="48.63533" lon="4.95557">
        <ele>141.6</ele>
        <time>2020-06-30T12:02:21Z</time>
      </trkpt>
      <trkpt lat="48.63533" lon="4.95558">
        <ele>141.6</ele>
        <time>2020-06-30T12:02:22Z</time>
      </trkpt>
      <trkpt lat="48.63532" lon="4.95558">
        <ele>141.6</ele>
        <time>2020-06-30T12:02:23Z</time>
      </trkpt>
      <trkpt lat="48.63531" lon="4.95558">
        <ele>141.6</ele>
        <time>2020-06-30T12:02:24Z</time>
      </trkpt>
      <trkpt lat="48.63531" lon="4.95558">
        <ele>141.6</ele>
        <time>2020-06-30T12:02:25Z</time>
      </trkpt>
      <trkpt lat="48.63531" lon="4.95558">
        <ele>141.6</ele>
        <time>2020-06-30T12:02:26Z</time>
      </trkpt>
      <trkpt lat="48.63531" lon="4.95558">
        <ele>141.6</ele>
        <time>2020-06-30T12:02:27Z</time>
      </trkpt>
      <trkpt lat="48.6353" lon="4.95558">
        <ele>141.6</ele>
        <time>2020-06-30T12:02:28Z</time>
      </trkpt>
      <trkpt lat="48.6353" lon="4.95558">
        <ele>141.6</ele>
        <time>2020-06-30T12:02:29Z</time>
      </trkpt>
      <trkpt lat="48.6353" lon="4.95557">
        <ele>141.6</ele>
        <time>2020-06-30T12:02:30Z</time>
      </trkpt>
      <trkpt lat="48.63529" lon="4.95557">
        <ele>141.6</ele>
        <time>2020-06-30T12:02:31Z</time>
      </trkpt>
      <trkpt lat="48.63529" lon="4.95557">
        <ele>141.6</ele>
        <time>2020-06-30T12:02:32Z</time>
      </trkpt>
      <trkpt lat="48.63529" lon="4.95557">
        <ele>141.6</ele>
        <time>2020-06-30T12:02:33Z</time>
      </trkpt>
      <trkpt lat="48.63526" lon="4.95556">
        <ele>141.5</ele>
        <time>2020-06-30T12:02:34Z</time>
      </trkpt>
      <trkpt lat="48.63525" lon="4.95555">
        <ele>141.4</ele>
        <time>2020-06-30T12:02:35Z</time>
      </trkpt>
      <trkpt lat="48.63522" lon="4.95553">
        <ele>141.3</ele>
        <time>2020-06-30T12:02:36Z</time>
      </trkpt>
      <trkpt lat="48.6352" lon="4.95552">
        <ele>141.2</ele>
        <time>2020-06-30T12:02:37Z</time>
      </trkpt>
      <trkpt lat="48.63517" lon="4.95551">
        <ele>141.1</ele>
        <time>2020-06-30T12:02:38Z</time>
      </trkpt>
      <trkpt lat="48.63513" lon="4.95551">
        <ele>141</ele>
        <time>2020-06-30T12:02:39Z</time>
      </trkpt>
      <trkpt lat="48.63511" lon="4.95551">
        <ele>141</ele>
        <time>2020-06-30T12:02:40Z</time>
      </trkpt>
      <trkpt lat="48.63506" lon="4.9555">
        <ele>140.9</ele>
        <time>2020-06-30T12:02:41Z</time>
      </trkpt>
      <trkpt lat="48.63502" lon="4.95549">
        <ele>140.8</ele>
        <time>2020-06-30T12:02:42Z</time>
      </trkpt>
      <trkpt lat="48.63498" lon="4.9555">
        <ele>140.7</ele>
        <time>2020-06-30T12:02:43Z</time>
      </trkpt>
      <trkpt lat="48.63494" lon="4.95551">
        <ele>140.6</ele>
        <time>2020-06-30T12:02:44Z</time>
      </trkpt>
      <trkpt lat="48.63491" lon="4.95549">
        <ele>140.5</ele>
        <time>2020-06-30T12:02:45Z</time>
      </trkpt>
      <trkpt lat="48.63487" lon="4.95548">
        <ele>140.4</ele>
        <time>2020-06-30T12:02:46Z</time>
      </trkpt>
      <trkpt lat="48.63484" lon="4.95546">
        <ele>140.3</ele>
        <time>2020-06-30T12:02:47Z</time>
      </trkpt>
      <trkpt lat="48.63481" lon="4.95544">
        <ele>140.3</ele>
        <time>2020-06-30T12:02:48Z</time>
      </trkpt>
      <trkpt lat="48.63478" lon="4.95542">
        <ele>140</ele>
        <time>2020-06-30T12:02:49Z</time>
      </trkpt>
      <trkpt lat="48.63475" lon="4.95539">
        <ele>140.1</ele>
        <time>2020-06-30T12:02:50Z</time>
      </trkpt>
      <trkpt lat="48.63476" lon="4.95533">
        <ele>140.1</ele>
        <time>2020-06-30T12:02:51Z</time>
      </trkpt>
      <trkpt lat="48.63476" lon="4.9553">
        <ele>140.2</ele>
        <time>2020-06-30T12:02:52Z</time>
      </trkpt>
      <trkpt lat="48.63477" lon="4.95528">
        <ele>140.2</ele>
        <time>2020-06-30T12:02:53Z</time>
      </trkpt>
      <trkpt lat="48.63477" lon="4.95526">
        <ele>140.3</ele>
        <time>2020-06-30T12:02:54Z</time>
      </trkpt>
      <trkpt lat="48.63477" lon="4.95524">
        <ele>140.3</ele>
        <time>2020-06-30T12:02:55Z</time>
      </trkpt>
      <trkpt lat="48.63477" lon="4.95523">
        <ele>140.3</ele>
        <time>2020-06-30T12:02:56Z</time>
      </trkpt>
      <trkpt lat="48.63477" lon="4.95522">
        <ele>140.4</ele>
        <time>2020-06-30T12:02:57Z</time>
      </trkpt>
      <trkpt lat="48.63478" lon="4.95519">
        <ele>140.5</ele>
        <time>2020-06-30T12:02:58Z</time>
      </trkpt>
      <trkpt lat="48.63477" lon="4.95517">
        <ele>140.6</ele>
        <time>2020-06-30T12:02:59Z</time>
      </trkpt>
      <trkpt lat="48.63473" lon="4.95517">
        <ele>140.5</ele>
        <time>2020-06-30T12:03:00Z</time>
      </trkpt>
      <trkpt lat="48.6347" lon="4.95515">
        <ele>140.4</ele>
        <time>2020-06-30T12:03:01Z</time>
      </trkpt>
      <trkpt lat="48.63467" lon="4.95513">
        <ele>140.2</ele>
        <time>2020-06-30T12:03:02Z</time>
      </trkpt>
      <trkpt lat="48.63462" lon="4.95511">
        <ele>140.1</ele>
        <time>2020-06-30T12:03:03Z</time>
      </trkpt>
      <trkpt lat="48.63458" lon="4.9551">
        <ele>140</ele>
        <time>2020-06-30T12:03:04Z</time>
      </trkpt>
      <trkpt lat="48.63453" lon="4.95509">
        <ele>139.8</ele>
        <time>2020-06-30T12:03:05Z</time>
      </trkpt>
      <trkpt lat="48.63449" lon="4.95506">
        <ele>139.7</ele>
        <time>2020-06-30T12:03:06Z</time>
      </trkpt>
      <trkpt lat="48.63444" lon="4.95503">
        <ele>139.6</ele>
        <time>2020-06-30T12:03:07Z</time>
      </trkpt>
      <trkpt lat="48.6344" lon="4.95501">
        <ele>139.4</ele>
        <time>2020-06-30T12:03:08Z</time>
      </trkpt>
      <trkpt lat="48.63436" lon="4.95498">
        <ele>139.3</ele>
        <time>2020-06-30T12:03:09Z</time>
      </trkpt>
      <trkpt lat="48.63432" lon="4.95494">
        <ele>139</ele>
        <time>2020-06-30T12:03:10Z</time>
      </trkpt>
      <trkpt lat="48.63432" lon="4.95486">
        <ele>138.9</ele>
        <time>2020-06-30T12:03:11Z</time>
      </trkpt>
      <trkpt lat="48.63431" lon="4.95478">
        <ele>138.2</ele>
        <time>2020-06-30T12:03:12Z</time>
      </trkpt>
      <trkpt lat="48.63431" lon="4.9547">
        <ele>138.1</ele>
        <time>2020-06-30T12:03:13Z</time>
      </trkpt>
      <trkpt lat="48.63431" lon="4.95461">
        <ele>138</ele>
        <time>2020-06-30T12:03:14Z</time>
      </trkpt>
      <trkpt lat="48.63431" lon="4.95453">
        <ele>137.9</ele>
        <time>2020-06-30T12:03:15Z</time>
      </trkpt>
      <trkpt lat="48.63431" lon="4.95444">
        <ele>137.8</ele>
        <time>2020-06-30T12:03:16Z</time>
      </trkpt>
      <trkpt lat="48.63431" lon="4.95435">
        <ele>137.8</ele>
        <time>2020-06-30T12:03:17Z</time>
      </trkpt>
      <trkpt lat="48.63432" lon="4.95425">
        <ele>137.7</ele>
        <time>2020-06-30T12:03:18Z</time>
      </trkpt>
      <trkpt lat="48.63433" lon="4.95416">
        <ele>137.7</ele>
        <time>2020-06-30T12:03:19Z</time>
      </trkpt>
      <trkpt lat="48.63434" lon="4.95407">
        <ele>137.7</ele>
        <time>2020-06-30T12:03:20Z</time>
      </trkpt>
      <trkpt lat="48.63436" lon="4.95398">
        <ele>137.7</ele>
        <time>2020-06-30T12:03:21Z</time>
      </trkpt>
      <trkpt lat="48.63438" lon="4.9539">
        <ele>137.7</ele>
        <time>2020-06-30T12:03:22Z</time>
      </trkpt>
      <trkpt lat="48.6344" lon="4.95382">
        <ele>137.7</ele>
        <time>2020-06-30T12:03:23Z</time>
      </trkpt>
      <trkpt lat="48.63442" lon="4.95374">
        <ele>137.7</ele>
        <time>2020-06-30T12:03:24Z</time>
      </trkpt>
      <trkpt lat="48.63444" lon="4.95366">
        <ele>137.6</ele>
        <time>2020-06-30T12:03:25Z</time>
      </trkpt>
      <trkpt lat="48.63447" lon="4.95358">
        <ele>137.6</ele>
        <time>2020-06-30T12:03:26Z</time>
      </trkpt>
      <trkpt lat="48.63449" lon="4.95351">
        <ele>137.6</ele>
        <time>2020-06-30T12:03:27Z</time>
      </trkpt>
      <trkpt lat="48.63452" lon="4.95343">
        <ele>137.6</ele>
        <time>2020-06-30T12:03:28Z</time>
      </trkpt>
      <trkpt lat="48.63453" lon="4.95335">
        <ele>137.6</ele>
        <time>2020-06-30T12:03:29Z</time>
      </trkpt>
      <trkpt lat="48.63455" lon="4.95327">
        <ele>137.6</ele>
        <time>2020-06-30T12:03:30Z</time>
      </trkpt>
      <trkpt lat="48.63457" lon="4.95318">
        <ele>137.6</ele>
        <time>2020-06-30T12:03:31Z</time>
      </trkpt>
      <trkpt lat="48.63459" lon="4.9531">
        <ele>137.6</ele>
        <time>2020-06-30T12:03:32Z</time>
      </trkpt>
      <trkpt lat="48.63463" lon="4.95302">
        <ele>137.6</ele>
        <time>2020-06-30T12:03:33Z</time>
      </trkpt>
      <trkpt lat="48.63466" lon="4.95294">
        <ele>137.6</ele>
        <time>2020-06-30T12:03:34Z</time>
      </trkpt>
      <trkpt lat="48.63469" lon="4.95286">
        <ele>137.7</ele>
        <time>2020-06-30T12:03:35Z</time>
      </trkpt>
      <trkpt lat="48.63471" lon="4.95278">
        <ele>137.7</ele>
        <time>2020-06-30T12:03:36Z</time>
      </trkpt>
      <trkpt lat="48.63472" lon="4.95269">
        <ele>137.7</ele>
        <time>2020-06-30T12:03:37Z</time>
      </trkpt>
      <trkpt lat="48.63474" lon="4.95261">
        <ele>137.8</ele>
        <time>2020-06-30T12:03:38Z</time>
      </trkpt>
      <trkpt lat="48.63476" lon="4.95253">
        <ele>137.8</ele>
        <time>2020-06-30T12:03:39Z</time>
      </trkpt>
      <trkpt lat="48.63477" lon="4.95245">
        <ele>137.8</ele>
        <time>2020-06-30T12:03:40Z</time>
      </trkpt>
      <trkpt lat="48.63479" lon="4.95237">
        <ele>137.9</ele>
        <time>2020-06-30T12:03:41Z</time>
      </trkpt>
      <trkpt lat="48.63482" lon="4.95229">
        <ele>137.9</ele>
        <time>2020-06-30T12:03:42Z</time>
      </trkpt>
      <trkpt lat="48.63486" lon="4.95222">
        <ele>137.9</ele>
        <time>2020-06-30T12:03:43Z</time>
      </trkpt>
      <trkpt lat="48.63488" lon="4.95214">
        <ele>137.9</ele>
        <time>2020-06-30T12:03:44Z</time>
      </trkpt>
      <trkpt lat="48.63491" lon="4.95206">
        <ele>138</ele>
        <time>2020-06-30T12:03:45Z</time>
      </trkpt>
      <trkpt lat="48.63494" lon="4.95199">
        <ele>138</ele>
        <time>2020-06-30T12:03:46Z</time>
      </trkpt>
      <trkpt lat="48.63497" lon="4.95191">
        <ele>138</ele>
        <time>2020-06-30T12:03:47Z</time>
      </trkpt>
      <trkpt lat="48.63499" lon="4.95183">
        <ele>138</ele>
        <time>2020-06-30T12:03:48Z</time>
      </trkpt>
      <trkpt lat="48.635" lon="4.95175">
        <ele>138</ele>
        <time>2020-06-30T12:03:49Z</time>
      </trkpt>
      <trkpt lat="48.63502" lon="4.95167">
        <ele>138</ele>
        <time>2020-06-30T12:03:50Z</time>
      </trkpt>
      <trkpt lat="48.63505" lon="4.95159">
        <ele>138</ele>
        <time>2020-06-30T12:03:51Z</time>
      </trkpt>
      <trkpt lat="48.63507" lon="4.95151">
        <ele>138</ele>
        <time>2020-06-30T12:03:52Z</time>
      </trkpt>
      <trkpt lat="48.63508" lon="4.95142">
        <ele>138</ele>
        <time>2020-06-30T12:03:53Z</time>
      </trkpt>
      <trkpt lat="48.63511" lon="4.95134">
        <ele>138</ele>
        <time>2020-06-30T12:03:54Z</time>
      </trkpt>
      <trkpt lat="48.63512" lon="4.95126">
        <ele>138</ele>
        <time>2020-06-30T12:03:55Z</time>
      </trkpt>
      <trkpt lat="48.63515" lon="4.95119">
        <ele>138</ele>
        <time>2020-06-30T12:03:56Z</time>
      </trkpt>
      <trkpt lat="48.63517" lon="4.95111">
        <ele>138</ele>
        <time>2020-06-30T12:03:57Z</time>
      </trkpt>
      <trkpt lat="48.63519" lon="4.95104">
        <ele>138.1</ele>
        <time>2020-06-30T12:03:58Z</time>
      </trkpt>
      <trkpt lat="48.63522" lon="4.95096">
        <ele>138.2</ele>
        <time>2020-06-30T12:03:59Z</time>
      </trkpt>
      <trkpt lat="48.63523" lon="4.95089">
        <ele>138.3</ele>
        <time>2020-06-30T12:04:00Z</time>
      </trkpt>
      <trkpt lat="48.63524" lon="4.95082">
        <ele>138.3</ele>
        <time>2020-06-30T12:04:01Z</time>
      </trkpt>
      <trkpt lat="48.63526" lon="4.95074">
        <ele>138.4</ele>
        <time>2020-06-30T12:04:02Z</time>
      </trkpt>
      <trkpt lat="48.63526" lon="4.95066">
        <ele>138.5</ele>
        <time>2020-06-30T12:04:03Z</time>
      </trkpt>
      <trkpt lat="48.63524" lon="4.95058">
        <ele>138.6</ele>
        <time>2020-06-30T12:04:04Z</time>
      </trkpt>
      <trkpt lat="48.63524" lon="4.95048">
        <ele>138.7</ele>
        <time>2020-06-30T12:04:05Z</time>
      </trkpt>
      <trkpt lat="48.63524" lon="4.95039">
        <ele>138.8</ele>
        <time>2020-06-30T12:04:06Z</time>
      </trkpt>
      <trkpt lat="48.63524" lon="4.9503">
        <ele>138.9</ele>
        <time>2020-06-30T12:04:07Z</time>
      </trkpt>
      <trkpt lat="48.63524" lon="4.95021">
        <ele>138.9</ele>
        <time>2020-06-30T12:04:08Z</time>
      </trkpt>
      <trkpt lat="48.63524" lon="4.95013">
        <ele>138.9</ele>
        <time>2020-06-30T12:04:09Z</time>
      </trkpt>
      <trkpt lat="48.63524" lon="4.95005">
        <ele>138.9</ele>
        <time>2020-06-30T12:04:10Z</time>
      </trkpt>
      <trkpt lat="48.63524" lon="4.94996">
        <ele>139</ele>
        <time>2020-06-30T12:04:11Z</time>
      </trkpt>
      <trkpt lat="48.63524" lon="4.94987">
        <ele>139</ele>
        <time>2020-06-30T12:04:12Z</time>
      </trkpt>
      <trkpt lat="48.63524" lon="4.94978">
        <ele>139.1</ele>
        <time>2020-06-30T12:04:13Z</time>
      </trkpt>
      <trkpt lat="48.63524" lon="4.94969">
        <ele>139.1</ele>
        <time>2020-06-30T12:04:14Z</time>
      </trkpt>
      <trkpt lat="48.63524" lon="4.94961">
        <ele>139.1</ele>
        <time>2020-06-30T12:04:15Z</time>
      </trkpt>
      <trkpt lat="48.63524" lon="4.94953">
        <ele>139.1</ele>
        <time>2020-06-30T12:04:16Z</time>
      </trkpt>
      <trkpt lat="48.63524" lon="4.94945">
        <ele>139.1</ele>
        <time>2020-06-30T12:04:17Z</time>
      </trkpt>
      <trkpt lat="48.63524" lon="4.94937">
        <ele>139.1</ele>
        <time>2020-06-30T12:04:18Z</time>
      </trkpt>
      <trkpt lat="48.63524" lon="4.94928">
        <ele>139.1</ele>
        <time>2020-06-30T12:04:19Z</time>
      </trkpt>
      <trkpt lat="48.63525" lon="4.94919">
        <ele>139.3</ele>
        <time>2020-06-30T12:04:20Z</time>
      </trkpt>
      <trkpt lat="48.63525" lon="4.9491">
        <ele>139.4</ele>
        <time>2020-06-30T12:04:21Z</time>
      </trkpt>
      <trkpt lat="48.63525" lon="4.94902">
        <ele>139.5</ele>
        <time>2020-06-30T12:04:22Z</time>
      </trkpt>
      <trkpt lat="48.63523" lon="4.94893">
        <ele>139.6</ele>
        <time>2020-06-30T12:04:23Z</time>
      </trkpt>
      <trkpt lat="48.63523" lon="4.94885">
        <ele>139.7</ele>
        <time>2020-06-30T12:04:24Z</time>
      </trkpt>
      <trkpt lat="48.63524" lon="4.94877">
        <ele>139.8</ele>
        <time>2020-06-30T12:04:25Z</time>
      </trkpt>
      <trkpt lat="48.63524" lon="4.94869">
        <ele>140</ele>
        <time>2020-06-30T12:04:26Z</time>
      </trkpt>
      <trkpt lat="48.63527" lon="4.94864">
        <ele>140.2</ele>
        <time>2020-06-30T12:04:27Z</time>
      </trkpt>
      <trkpt lat="48.6353" lon="4.94858">
        <ele>140.6</ele>
        <time>2020-06-30T12:04:28Z</time>
      </trkpt>
      <trkpt lat="48.63534" lon="4.94852">
        <ele>140.8</ele>
        <time>2020-06-30T12:04:29Z</time>
      </trkpt>
      <trkpt lat="48.63538" lon="4.94846">
        <ele>141.1</ele>
        <time>2020-06-30T12:04:30Z</time>
      </trkpt>
      <trkpt lat="48.63543" lon="4.94841">
        <ele>141.2</ele>
        <time>2020-06-30T12:04:31Z</time>
      </trkpt>
      <trkpt lat="48.63547" lon="4.94835">
        <ele>141.3</ele>
        <time>2020-06-30T12:04:32Z</time>
      </trkpt>
      <trkpt lat="48.63552" lon="4.9483">
        <ele>141.3</ele>
        <time>2020-06-30T12:04:33Z</time>
      </trkpt>
      <trkpt lat="48.63557" lon="4.94826">
        <ele>141.5</ele>
        <time>2020-06-30T12:04:34Z</time>
      </trkpt>
      <trkpt lat="48.63563" lon="4.94825">
        <ele>141.7</ele>
        <time>2020-06-30T12:04:35Z</time>
      </trkpt>
      <trkpt lat="48.63567" lon="4.94821">
        <ele>141.8</ele>
        <time>2020-06-30T12:04:36Z</time>
      </trkpt>
      <trkpt lat="48.63572" lon="4.94817">
        <ele>142</ele>
        <time>2020-06-30T12:04:37Z</time>
      </trkpt>
      <trkpt lat="48.63576" lon="4.94811">
        <ele>142.1</ele>
        <time>2020-06-30T12:04:38Z</time>
      </trkpt>
      <trkpt lat="48.6358" lon="4.94804">
        <ele>142.2</ele>
        <time>2020-06-30T12:04:39Z</time>
      </trkpt>
      <trkpt lat="48.63585" lon="4.94798">
        <ele>142.3</ele>
        <time>2020-06-30T12:04:40Z</time>
      </trkpt>
      <trkpt lat="48.63591" lon="4.94797">
        <ele>142.4</ele>
        <time>2020-06-30T12:04:41Z</time>
      </trkpt>
      <trkpt lat="48.63595" lon="4.94793">
        <ele>142.5</ele>
        <time>2020-06-30T12:04:42Z</time>
      </trkpt>
      <trkpt lat="48.636" lon="4.94789">
        <ele>142.5</ele>
        <time>2020-06-30T12:04:43Z</time>
      </trkpt>
      <trkpt lat="48.63605" lon="4.94785">
        <ele>142.6</ele>
        <time>2020-06-30T12:04:44Z</time>
      </trkpt>
      <trkpt lat="48.63609" lon="4.94781">
        <ele>142.7</ele>
        <time>2020-06-30T12:04:45Z</time>
      </trkpt>
      <trkpt lat="48.63613" lon="4.94779">
        <ele>142.8</ele>
        <time>2020-06-30T12:04:46Z</time>
      </trkpt>
      <trkpt lat="48.63617" lon="4.94775">
        <ele>142.9</ele>
        <time>2020-06-30T12:04:47Z</time>
      </trkpt>
      <trkpt lat="48.6362" lon="4.94771">
        <ele>143.1</ele>
        <time>2020-06-30T12:04:48Z</time>
      </trkpt>
      <trkpt lat="48.63623" lon="4.94766">
        <ele>143.2</ele>
        <time>2020-06-30T12:04:49Z</time>
      </trkpt>
      <trkpt lat="48.63628" lon="4.94759">
        <ele>143.3</ele>
        <time>2020-06-30T12:04:50Z</time>
      </trkpt>
      <trkpt lat="48.63631" lon="4.94753">
        <ele>143.5</ele>
        <time>2020-06-30T12:04:51Z</time>
      </trkpt>
      <trkpt lat="48.63635" lon="4.94746">
        <ele>143.6</ele>
        <time>2020-06-30T12:04:52Z</time>
      </trkpt>
      <trkpt lat="48.63637" lon="4.9474">
        <ele>143.6</ele>
        <time>2020-06-30T12:04:53Z</time>
      </trkpt>
      <trkpt lat="48.6364" lon="4.94734">
        <ele>143.7</ele>
        <time>2020-06-30T12:04:54Z</time>
      </trkpt>
      <trkpt lat="48.63643" lon="4.94729">
        <ele>143.8</ele>
        <time>2020-06-30T12:04:55Z</time>
      </trkpt>
      <trkpt lat="48.63646" lon="4.94721">
        <ele>143.9</ele>
        <time>2020-06-30T12:04:56Z</time>
      </trkpt>
      <trkpt lat="48.63649" lon="4.94716">
        <ele>143.9</ele>
        <time>2020-06-30T12:04:57Z</time>
      </trkpt>
      <trkpt lat="48.63653" lon="4.94709">
        <ele>144.1</ele>
        <time>2020-06-30T12:04:58Z</time>
      </trkpt>
      <trkpt lat="48.63656" lon="4.94703">
        <ele>144.3</ele>
        <time>2020-06-30T12:04:59Z</time>
      </trkpt>
      <trkpt lat="48.63659" lon="4.94698">
        <ele>144.4</ele>
        <time>2020-06-30T12:05:00Z</time>
      </trkpt>
      <trkpt lat="48.63662" lon="4.94691">
        <ele>144.6</ele>
        <time>2020-06-30T12:05:01Z</time>
      </trkpt>
      <trkpt lat="48.63665" lon="4.94686">
        <ele>144.8</ele>
        <time>2020-06-30T12:05:02Z</time>
      </trkpt>
      <trkpt lat="48.63668" lon="4.9468">
        <ele>144.9</ele>
        <time>2020-06-30T12:05:03Z</time>
      </trkpt>
      <trkpt lat="48.63672" lon="4.94674">
        <ele>144.9</ele>
        <time>2020-06-30T12:05:04Z</time>
      </trkpt>
      <trkpt lat="48.63674" lon="4.94668">
        <ele>144.9</ele>
        <time>2020-06-30T12:05:05Z</time>
      </trkpt>
      <trkpt lat="48.63678" lon="4.94661">
        <ele>144.7</ele>
        <time>2020-06-30T12:05:06Z</time>
      </trkpt>
      <trkpt lat="48.63682" lon="4.94656">
        <ele>144.6</ele>
        <time>2020-06-30T12:05:07Z</time>
      </trkpt>
      <trkpt lat="48.63684" lon="4.94651">
        <ele>144.6</ele>
        <time>2020-06-30T12:05:08Z</time>
      </trkpt>
      <trkpt lat="48.63688" lon="4.94648">
        <ele>144.5</ele>
        <time>2020-06-30T12:05:09Z</time>
      </trkpt>
      <trkpt lat="48.63691" lon="4.94646">
        <ele>144.4</ele>
        <time>2020-06-30T12:05:10Z</time>
      </trkpt>
      <trkpt lat="48.63695" lon="4.94644">
        <ele>144.4</ele>
        <time>2020-06-30T12:05:11Z</time>
      </trkpt>
      <trkpt lat="48.63699" lon="4.94642">
        <ele>144.3</ele>
        <time>2020-06-30T12:05:12Z</time>
      </trkpt>
      <trkpt lat="48.63704" lon="4.9464">
        <ele>144.2</ele>
        <time>2020-06-30T12:05:13Z</time>
      </trkpt>
      <trkpt lat="48.63708" lon="4.94638">
        <ele>144.2</ele>
        <time>2020-06-30T12:05:14Z</time>
      </trkpt>
      <trkpt lat="48.63712" lon="4.94637">
        <ele>144.2</ele>
        <time>2020-06-30T12:05:15Z</time>
      </trkpt>
      <trkpt lat="48.63714" lon="4.94637">
        <ele>144.2</ele>
        <time>2020-06-30T12:05:16Z</time>
      </trkpt>
      <trkpt lat="48.63718" lon="4.94636">
        <ele>144.1</ele>
        <time>2020-06-30T12:05:17Z</time>
      </trkpt>
      <trkpt lat="48.63723" lon="4.94635">
        <ele>144.1</ele>
        <time>2020-06-30T12:05:18Z</time>
      </trkpt>
      <trkpt lat="48.63727" lon="4.94632">
        <ele>143.8</ele>
        <time>2020-06-30T12:05:19Z</time>
      </trkpt>
      <trkpt lat="48.6373" lon="4.94629">
        <ele>143.7</ele>
        <time>2020-06-30T12:05:20Z</time>
      </trkpt>
      <trkpt lat="48.63732" lon="4.94625">
        <ele>143.6</ele>
        <time>2020-06-30T12:05:21Z</time>
      </trkpt>
      <trkpt lat="48.63734" lon="4.9462">
        <ele>143.6</ele>
        <time>2020-06-30T12:05:22Z</time>
      </trkpt>
      <trkpt lat="48.63735" lon="4.94614">
        <ele>143.5</ele>
        <time>2020-06-30T12:05:23Z</time>
      </trkpt>
      <trkpt lat="48.63737" lon="4.94607">
        <ele>143.4</ele>
        <time>2020-06-30T12:05:24Z</time>
      </trkpt>
      <trkpt lat="48.63738" lon="4.946">
        <ele>143.3</ele>
        <time>2020-06-30T12:05:25Z</time>
      </trkpt>
      <trkpt lat="48.63738" lon="4.94594">
        <ele>143.1</ele>
        <time>2020-06-30T12:05:26Z</time>
      </trkpt>
      <trkpt lat="48.63738" lon="4.94586">
        <ele>143.1</ele>
        <time>2020-06-30T12:05:27Z</time>
      </trkpt>
      <trkpt lat="48.63738" lon="4.9458">
        <ele>143.1</ele>
        <time>2020-06-30T12:05:28Z</time>
      </trkpt>
      <trkpt lat="48.63739" lon="4.94571">
        <ele>143</ele>
        <time>2020-06-30T12:05:29Z</time>
      </trkpt>
      <trkpt lat="48.6374" lon="4.94563">
        <ele>143</ele>
        <time>2020-06-30T12:05:30Z</time>
      </trkpt>
      <trkpt lat="48.6374" lon="4.94555">
        <ele>143</ele>
        <time>2020-06-30T12:05:31Z</time>
      </trkpt>
      <trkpt lat="48.6374" lon="4.94547">
        <ele>143</ele>
        <time>2020-06-30T12:05:32Z</time>
      </trkpt>
      <trkpt lat="48.6374" lon="4.94539">
        <ele>142.9</ele>
        <time>2020-06-30T12:05:33Z</time>
      </trkpt>
      <trkpt lat="48.6374" lon="4.94531">
        <ele>142.9</ele>
        <time>2020-06-30T12:05:34Z</time>
      </trkpt>
      <trkpt lat="48.63741" lon="4.94523">
        <ele>143.4</ele>
        <time>2020-06-30T12:05:35Z</time>
      </trkpt>
      <trkpt lat="48.63741" lon="4.94514">
        <ele>143.4</ele>
        <time>2020-06-30T12:05:36Z</time>
      </trkpt>
      <trkpt lat="48.63741" lon="4.94505">
        <ele>143.3</ele>
        <time>2020-06-30T12:05:37Z</time>
      </trkpt>
      <trkpt lat="48.63741" lon="4.94497">
        <ele>143.2</ele>
        <time>2020-06-30T12:05:38Z</time>
      </trkpt>
      <trkpt lat="48.63741" lon="4.94489">
        <ele>143.1</ele>
        <time>2020-06-30T12:05:39Z</time>
      </trkpt>
      <trkpt lat="48.63742" lon="4.9448">
        <ele>143.5</ele>
        <time>2020-06-30T12:05:40Z</time>
      </trkpt>
      <trkpt lat="48.63742" lon="4.94472">
        <ele>143.6</ele>
        <time>2020-06-30T12:05:41Z</time>
      </trkpt>
      <trkpt lat="48.63743" lon="4.94463">
        <ele>143.6</ele>
        <time>2020-06-30T12:05:42Z</time>
      </trkpt>
      <trkpt lat="48.63744" lon="4.94455">
        <ele>143.5</ele>
        <time>2020-06-30T12:05:43Z</time>
      </trkpt>
      <trkpt lat="48.63744" lon="4.94448">
        <ele>143.5</ele>
        <time>2020-06-30T12:05:44Z</time>
      </trkpt>
      <trkpt lat="48.63745" lon="4.94439">
        <ele>143.4</ele>
        <time>2020-06-30T12:05:45Z</time>
      </trkpt>
      <trkpt lat="48.63746" lon="4.94429">
        <ele>143.3</ele>
        <time>2020-06-30T12:05:46Z</time>
      </trkpt>
      <trkpt lat="48.63747" lon="4.94421">
        <ele>143.2</ele>
        <time>2020-06-30T12:05:47Z</time>
      </trkpt>
      <trkpt lat="48.63747" lon="4.94413">
        <ele>143.1</ele>
        <time>2020-06-30T12:05:48Z</time>
      </trkpt>
      <trkpt lat="48.63747" lon="4.94404">
        <ele>142.9</ele>
        <time>2020-06-30T12:05:49Z</time>
      </trkpt>
      <trkpt lat="48.63747" lon="4.94394">
        <ele>142.8</ele>
        <time>2020-06-30T12:05:50Z</time>
      </trkpt>
      <trkpt lat="48.63747" lon="4.94384">
        <ele>142.7</ele>
        <time>2020-06-30T12:05:51Z</time>
      </trkpt>
      <trkpt lat="48.63747" lon="4.94377">
        <ele>142.6</ele>
        <time>2020-06-30T12:05:52Z</time>
      </trkpt>
      <trkpt lat="48.63747" lon="4.9437">
        <ele>142.6</ele>
        <time>2020-06-30T12:05:53Z</time>
      </trkpt>
      <trkpt lat="48.63747" lon="4.94364">
        <ele>142.5</ele>
        <time>2020-06-30T12:05:54Z</time>
      </trkpt>
      <trkpt lat="48.63747" lon="4.94357">
        <ele>142.5</ele>
        <time>2020-06-30T12:05:55Z</time>
      </trkpt>
      <trkpt lat="48.63746" lon="4.94349">
        <ele>142.5</ele>
        <time>2020-06-30T12:05:56Z</time>
      </trkpt>
      <trkpt lat="48.63746" lon="4.94342">
        <ele>142.5</ele>
        <time>2020-06-30T12:05:57Z</time>
      </trkpt>
      <trkpt lat="48.63746" lon="4.94338">
        <ele>142.5</ele>
        <time>2020-06-30T12:05:58Z</time>
      </trkpt>
      <trkpt lat="48.63746" lon="4.94337">
        <ele>142.5</ele>
        <time>2020-06-30T12:05:59Z</time>
      </trkpt>
      <trkpt lat="48.63747" lon="4.94337">
        <ele>142.6</ele>
        <time>2020-06-30T12:06:00Z</time>
      </trkpt>
      <trkpt lat="48.63747" lon="4.94337">
        <ele>142.6</ele>
        <time>2020-06-30T12:06:01Z</time>
      </trkpt>
      <trkpt lat="48.63747" lon="4.94333">
        <ele>142.6</ele>
        <time>2020-06-30T12:06:02Z</time>
      </trkpt>
      <trkpt lat="48.63747" lon="4.94331">
        <ele>142.6</ele>
        <time>2020-06-30T12:06:03Z</time>
      </trkpt>
      <trkpt lat="48.63747" lon="4.94323">
        <ele>142.8</ele>
        <time>2020-06-30T12:06:04Z</time>
      </trkpt>
      <trkpt lat="48.63747" lon="4.94316">
        <ele>142.8</ele>
        <time>2020-06-30T12:06:05Z</time>
      </trkpt>
      <trkpt lat="48.63747" lon="4.94308">
        <ele>142.8</ele>
        <time>2020-06-30T12:06:06Z</time>
      </trkpt>
      <trkpt lat="48.63746" lon="4.94299">
        <ele>142.8</ele>
        <time>2020-06-30T12:06:07Z</time>
      </trkpt>
      <trkpt lat="48.63746" lon="4.94289">
        <ele>142.7</ele>
        <time>2020-06-30T12:06:08Z</time>
      </trkpt>
      <trkpt lat="48.63745" lon="4.94281">
        <ele>142.7</ele>
        <time>2020-06-30T12:06:09Z</time>
      </trkpt>
      <trkpt lat="48.63744" lon="4.94274">
        <ele>142.6</ele>
        <time>2020-06-30T12:06:10Z</time>
      </trkpt>
      <trkpt lat="48.63743" lon="4.94267">
        <ele>142.4</ele>
        <time>2020-06-30T12:06:11Z</time>
      </trkpt>
      <trkpt lat="48.63742" lon="4.9426">
        <ele>142.3</ele>
        <time>2020-06-30T12:06:12Z</time>
      </trkpt>
      <trkpt lat="48.63742" lon="4.9425">
        <ele>142.2</ele>
        <time>2020-06-30T12:06:13Z</time>
      </trkpt>
      <trkpt lat="48.63741" lon="4.94241">
        <ele>142.1</ele>
        <time>2020-06-30T12:06:14Z</time>
      </trkpt>
      <trkpt lat="48.63741" lon="4.94235">
        <ele>142.1</ele>
        <time>2020-06-30T12:06:15Z</time>
      </trkpt>
      <trkpt lat="48.63741" lon="4.94228">
        <ele>142.1</ele>
        <time>2020-06-30T12:06:16Z</time>
      </trkpt>
      <trkpt lat="48.63741" lon="4.94221">
        <ele>142.1</ele>
        <time>2020-06-30T12:06:17Z</time>
      </trkpt>
      <trkpt lat="48.63741" lon="4.94215">
        <ele>142</ele>
        <time>2020-06-30T12:06:18Z</time>
      </trkpt>
      <trkpt lat="48.63741" lon="4.94207">
        <ele>142</ele>
        <time>2020-06-30T12:06:19Z</time>
      </trkpt>
      <trkpt lat="48.63741" lon="4.942">
        <ele>141.9</ele>
        <time>2020-06-30T12:06:20Z</time>
      </trkpt>
      <trkpt lat="48.63742" lon="4.94194">
        <ele>141.9</ele>
        <time>2020-06-30T12:06:21Z</time>
      </trkpt>
      <trkpt lat="48.63743" lon="4.94188">
        <ele>141.8</ele>
        <time>2020-06-30T12:06:22Z</time>
      </trkpt>
      <trkpt lat="48.63744" lon="4.94182">
        <ele>141.8</ele>
        <time>2020-06-30T12:06:23Z</time>
      </trkpt>
      <trkpt lat="48.63744" lon="4.94175">
        <ele>141.8</ele>
        <time>2020-06-30T12:06:24Z</time>
      </trkpt>
      <trkpt lat="48.63744" lon="4.9417">
        <ele>141.8</ele>
        <time>2020-06-30T12:06:25Z</time>
      </trkpt>
      <trkpt lat="48.63744" lon="4.94161">
        <ele>141.7</ele>
        <time>2020-06-30T12:06:26Z</time>
      </trkpt>
      <trkpt lat="48.63744" lon="4.94151">
        <ele>141.8</ele>
        <time>2020-06-30T12:06:27Z</time>
      </trkpt>
      <trkpt lat="48.63744" lon="4.94144">
        <ele>141.8</ele>
        <time>2020-06-30T12:06:28Z</time>
      </trkpt>
      <trkpt lat="48.63744" lon="4.94138">
        <ele>141.8</ele>
        <time>2020-06-30T12:06:29Z</time>
      </trkpt>
      <trkpt lat="48.63744" lon="4.94129">
        <ele>141.8</ele>
        <time>2020-06-30T12:06:30Z</time>
      </trkpt>
      <trkpt lat="48.63745" lon="4.94123">
        <ele>141.8</ele>
        <time>2020-06-30T12:06:31Z</time>
      </trkpt>
      <trkpt lat="48.63745" lon="4.94115">
        <ele>141.7</ele>
        <time>2020-06-30T12:06:32Z</time>
      </trkpt>
      <trkpt lat="48.63745" lon="4.94107">
        <ele>141.7</ele>
        <time>2020-06-30T12:06:33Z</time>
      </trkpt>
      <trkpt lat="48.63746" lon="4.94099">
        <ele>141.6</ele>
        <time>2020-06-30T12:06:34Z</time>
      </trkpt>
      <trkpt lat="48.63747" lon="4.94091">
        <ele>141.6</ele>
        <time>2020-06-30T12:06:35Z</time>
      </trkpt>
      <trkpt lat="48.63748" lon="4.94084">
        <ele>141.7</ele>
        <time>2020-06-30T12:06:36Z</time>
      </trkpt>
      <trkpt lat="48.63749" lon="4.94078">
        <ele>141.7</ele>
        <time>2020-06-30T12:06:37Z</time>
      </trkpt>
      <trkpt lat="48.6375" lon="4.94068">
        <ele>141.8</ele>
        <time>2020-06-30T12:06:38Z</time>
      </trkpt>
      <trkpt lat="48.6375" lon="4.94059">
        <ele>141.8</ele>
        <time>2020-06-30T12:06:39Z</time>
      </trkpt>
      <trkpt lat="48.63751" lon="4.94052">
        <ele>141.9</ele>
        <time>2020-06-30T12:06:40Z</time>
      </trkpt>
      <trkpt lat="48.63751" lon="4.94044">
        <ele>141.9</ele>
        <time>2020-06-30T12:06:41Z</time>
      </trkpt>
      <trkpt lat="48.63752" lon="4.94038">
        <ele>141.9</ele>
        <time>2020-06-30T12:06:42Z</time>
      </trkpt>
      <trkpt lat="48.63753" lon="4.94031">
        <ele>141.9</ele>
        <time>2020-06-30T12:06:43Z</time>
      </trkpt>
      <trkpt lat="48.63755" lon="4.94024">
        <ele>141.9</ele>
        <time>2020-06-30T12:06:44Z</time>
      </trkpt>
      <trkpt lat="48.63757" lon="4.94017">
        <ele>141.8</ele>
        <time>2020-06-30T12:06:45Z</time>
      </trkpt>
      <trkpt lat="48.63757" lon="4.9401">
        <ele>141.8</ele>
        <time>2020-06-30T12:06:46Z</time>
      </trkpt>
      <trkpt lat="48.63757" lon="4.94003">
        <ele>141.8</ele>
        <time>2020-06-30T12:06:47Z</time>
      </trkpt>
      <trkpt lat="48.63758" lon="4.93995">
        <ele>141.8</ele>
        <time>2020-06-30T12:06:48Z</time>
      </trkpt>
      <trkpt lat="48.63759" lon="4.93987">
        <ele>141.9</ele>
        <time>2020-06-30T12:06:49Z</time>
      </trkpt>
      <trkpt lat="48.63759" lon="4.9398">
        <ele>141.9</ele>
        <time>2020-06-30T12:06:50Z</time>
      </trkpt>
      <trkpt lat="48.6376" lon="4.93972">
        <ele>141.8</ele>
        <time>2020-06-30T12:06:51Z</time>
      </trkpt>
      <trkpt lat="48.63761" lon="4.93966">
        <ele>141.8</ele>
        <time>2020-06-30T12:06:52Z</time>
      </trkpt>
      <trkpt lat="48.63762" lon="4.93959">
        <ele>141.8</ele>
        <time>2020-06-30T12:06:53Z</time>
      </trkpt>
      <trkpt lat="48.63763" lon="4.93953">
        <ele>141.8</ele>
        <time>2020-06-30T12:06:54Z</time>
      </trkpt>
      <trkpt lat="48.63764" lon="4.93946">
        <ele>141.9</ele>
        <time>2020-06-30T12:06:55Z</time>
      </trkpt>
      <trkpt lat="48.63766" lon="4.93937">
        <ele>141.9</ele>
        <time>2020-06-30T12:06:56Z</time>
      </trkpt>
      <trkpt lat="48.63767" lon="4.9393">
        <ele>141.9</ele>
        <time>2020-06-30T12:06:57Z</time>
      </trkpt>
      <trkpt lat="48.63768" lon="4.93923">
        <ele>141.9</ele>
        <time>2020-06-30T12:06:58Z</time>
      </trkpt>
      <trkpt lat="48.6377" lon="4.93915">
        <ele>141.9</ele>
        <time>2020-06-30T12:06:59Z</time>
      </trkpt>
      <trkpt lat="48.6377" lon="4.93908">
        <ele>141.9</ele>
        <time>2020-06-30T12:07:00Z</time>
      </trkpt>
      <trkpt lat="48.63771" lon="4.93901">
        <ele>141.9</ele>
        <time>2020-06-30T12:07:01Z</time>
      </trkpt>
      <trkpt lat="48.63772" lon="4.93894">
        <ele>142</ele>
        <time>2020-06-30T12:07:02Z</time>
      </trkpt>
      <trkpt lat="48.63772" lon="4.93888">
        <ele>142</ele>
        <time>2020-06-30T12:07:03Z</time>
      </trkpt>
      <trkpt lat="48.63773" lon="4.93882">
        <ele>142</ele>
        <time>2020-06-30T12:07:04Z</time>
      </trkpt>
      <trkpt lat="48.63773" lon="4.93874">
        <ele>142</ele>
        <time>2020-06-30T12:07:05Z</time>
      </trkpt>
      <trkpt lat="48.63774" lon="4.93866">
        <ele>142</ele>
        <time>2020-06-30T12:07:06Z</time>
      </trkpt>
      <trkpt lat="48.63776" lon="4.9386">
        <ele>142.1</ele>
        <time>2020-06-30T12:07:07Z</time>
      </trkpt>
      <trkpt lat="48.63777" lon="4.93851">
        <ele>142.1</ele>
        <time>2020-06-30T12:07:08Z</time>
      </trkpt>
      <trkpt lat="48.63778" lon="4.93844">
        <ele>142.1</ele>
        <time>2020-06-30T12:07:09Z</time>
      </trkpt>
      <trkpt lat="48.63779" lon="4.93838">
        <ele>142.2</ele>
        <time>2020-06-30T12:07:10Z</time>
      </trkpt>
      <trkpt lat="48.6378" lon="4.93831">
        <ele>142.2</ele>
        <time>2020-06-30T12:07:11Z</time>
      </trkpt>
      <trkpt lat="48.6378" lon="4.93824">
        <ele>142.2</ele>
        <time>2020-06-30T12:07:12Z</time>
      </trkpt>
      <trkpt lat="48.63781" lon="4.93818">
        <ele>142.2</ele>
        <time>2020-06-30T12:07:13Z</time>
      </trkpt>
      <trkpt lat="48.63782" lon="4.93811">
        <ele>142.2</ele>
        <time>2020-06-30T12:07:14Z</time>
      </trkpt>
      <trkpt lat="48.63783" lon="4.93802">
        <ele>142.2</ele>
        <time>2020-06-30T12:07:15Z</time>
      </trkpt>
      <trkpt lat="48.63785" lon="4.93795">
        <ele>142.2</ele>
        <time>2020-06-30T12:07:16Z</time>
      </trkpt>
      <trkpt lat="48.63786" lon="4.93787">
        <ele>142.2</ele>
        <time>2020-06-30T12:07:17Z</time>
      </trkpt>
      <trkpt lat="48.63787" lon="4.93779">
        <ele>142.2</ele>
        <time>2020-06-30T12:07:18Z</time>
      </trkpt>
      <trkpt lat="48.63786" lon="4.93771">
        <ele>142</ele>
        <time>2020-06-30T12:07:19Z</time>
      </trkpt>
      <trkpt lat="48.63785" lon="4.93762">
        <ele>141.5</ele>
        <time>2020-06-30T12:07:20Z</time>
      </trkpt>
      <trkpt lat="48.63783" lon="4.93754">
        <ele>141.4</ele>
        <time>2020-06-30T12:07:21Z</time>
      </trkpt>
      <trkpt lat="48.63782" lon="4.93746">
        <ele>141.3</ele>
        <time>2020-06-30T12:07:22Z</time>
      </trkpt>
      <trkpt lat="48.63781" lon="4.93738">
        <ele>141.2</ele>
        <time>2020-06-30T12:07:23Z</time>
      </trkpt>
      <trkpt lat="48.6378" lon="4.9373">
        <ele>141.1</ele>
        <time>2020-06-30T12:07:24Z</time>
      </trkpt>
      <trkpt lat="48.63779" lon="4.93723">
        <ele>141.1</ele>
        <time>2020-06-30T12:07:25Z</time>
      </trkpt>
      <trkpt lat="48.63778" lon="4.93714">
        <ele>140.9</ele>
        <time>2020-06-30T12:07:26Z</time>
      </trkpt>
      <trkpt lat="48.63777" lon="4.93707">
        <ele>140.9</ele>
        <time>2020-06-30T12:07:27Z</time>
      </trkpt>
      <trkpt lat="48.63777" lon="4.93698">
        <ele>140.8</ele>
        <time>2020-06-30T12:07:28Z</time>
      </trkpt>
      <trkpt lat="48.63777" lon="4.9369">
        <ele>140.8</ele>
        <time>2020-06-30T12:07:29Z</time>
      </trkpt>
      <trkpt lat="48.63777" lon="4.93682">
        <ele>140.7</ele>
        <time>2020-06-30T12:07:30Z</time>
      </trkpt>
      <trkpt lat="48.63776" lon="4.93673">
        <ele>140.7</ele>
        <time>2020-06-30T12:07:31Z</time>
      </trkpt>
      <trkpt lat="48.63775" lon="4.93665">
        <ele>140.6</ele>
        <time>2020-06-30T12:07:32Z</time>
      </trkpt>
      <trkpt lat="48.63774" lon="4.93658">
        <ele>140.6</ele>
        <time>2020-06-30T12:07:33Z</time>
      </trkpt>
      <trkpt lat="48.63774" lon="4.93649">
        <ele>140.6</ele>
        <time>2020-06-30T12:07:34Z</time>
      </trkpt>
      <trkpt lat="48.63773" lon="4.93642">
        <ele>140.6</ele>
        <time>2020-06-30T12:07:35Z</time>
      </trkpt>
      <trkpt lat="48.63773" lon="4.93633">
        <ele>140.6</ele>
        <time>2020-06-30T12:07:36Z</time>
      </trkpt>
      <trkpt lat="48.63771" lon="4.93626">
        <ele>140.6</ele>
        <time>2020-06-30T12:07:37Z</time>
      </trkpt>
      <trkpt lat="48.6377" lon="4.93617">
        <ele>140.6</ele>
        <time>2020-06-30T12:07:38Z</time>
      </trkpt>
      <trkpt lat="48.6377" lon="4.93608">
        <ele>140.5</ele>
        <time>2020-06-30T12:07:39Z</time>
      </trkpt>
      <trkpt lat="48.63769" lon="4.93599">
        <ele>140.4</ele>
        <time>2020-06-30T12:07:40Z</time>
      </trkpt>
      <trkpt lat="48.63769" lon="4.93591">
        <ele>140.3</ele>
        <time>2020-06-30T12:07:41Z</time>
      </trkpt>
      <trkpt lat="48.63768" lon="4.93582">
        <ele>140.2</ele>
        <time>2020-06-30T12:07:42Z</time>
      </trkpt>
      <trkpt lat="48.63766" lon="4.93572">
        <ele>140.1</ele>
        <time>2020-06-30T12:07:43Z</time>
      </trkpt>
      <trkpt lat="48.63764" lon="4.93565">
        <ele>140.1</ele>
        <time>2020-06-30T12:07:44Z</time>
      </trkpt>
      <trkpt lat="48.63764" lon="4.93555">
        <ele>140</ele>
        <time>2020-06-30T12:07:45Z</time>
      </trkpt>
      <trkpt lat="48.63763" lon="4.93547">
        <ele>140</ele>
        <time>2020-06-30T12:07:46Z</time>
      </trkpt>
      <trkpt lat="48.63762" lon="4.93537">
        <ele>139.9</ele>
        <time>2020-06-30T12:07:47Z</time>
      </trkpt>
      <trkpt lat="48.63762" lon="4.93528">
        <ele>139.9</ele>
        <time>2020-06-30T12:07:48Z</time>
      </trkpt>
      <trkpt lat="48.6376" lon="4.93518">
        <ele>139.9</ele>
        <time>2020-06-30T12:07:49Z</time>
      </trkpt>
      <trkpt lat="48.63759" lon="4.93509">
        <ele>139.8</ele>
        <time>2020-06-30T12:07:50Z</time>
      </trkpt>
      <trkpt lat="48.63758" lon="4.93501">
        <ele>139.8</ele>
        <time>2020-06-30T12:07:51Z</time>
      </trkpt>
      <trkpt lat="48.63759" lon="4.93492">
        <ele>139.8</ele>
        <time>2020-06-30T12:07:52Z</time>
      </trkpt>
      <trkpt lat="48.63758" lon="4.93483">
        <ele>139.8</ele>
        <time>2020-06-30T12:07:53Z</time>
      </trkpt>
      <trkpt lat="48.63758" lon="4.93475">
        <ele>139.7</ele>
        <time>2020-06-30T12:07:54Z</time>
      </trkpt>
      <trkpt lat="48.63759" lon="4.93466">
        <ele>139.7</ele>
        <time>2020-06-30T12:07:55Z</time>
      </trkpt>
      <trkpt lat="48.6376" lon="4.93457">
        <ele>139.6</ele>
        <time>2020-06-30T12:07:56Z</time>
      </trkpt>
      <trkpt lat="48.63761" lon="4.93449">
        <ele>139.6</ele>
        <time>2020-06-30T12:07:57Z</time>
      </trkpt>
      <trkpt lat="48.63763" lon="4.93439">
        <ele>139.5</ele>
        <time>2020-06-30T12:07:58Z</time>
      </trkpt>
      <trkpt lat="48.63765" lon="4.93431">
        <ele>139.4</ele>
        <time>2020-06-30T12:07:59Z</time>
      </trkpt>
      <trkpt lat="48.63766" lon="4.93421">
        <ele>139.3</ele>
        <time>2020-06-30T12:08:00Z</time>
      </trkpt>
      <trkpt lat="48.63766" lon="4.93411">
        <ele>139.4</ele>
        <time>2020-06-30T12:08:01Z</time>
      </trkpt>
      <trkpt lat="48.63768" lon="4.93403">
        <ele>139.4</ele>
        <time>2020-06-30T12:08:02Z</time>
      </trkpt>
      <trkpt lat="48.6377" lon="4.93394">
        <ele>139.4</ele>
        <time>2020-06-30T12:08:03Z</time>
      </trkpt>
      <trkpt lat="48.63772" lon="4.93385">
        <ele>139.5</ele>
        <time>2020-06-30T12:08:04Z</time>
      </trkpt>
      <trkpt lat="48.63773" lon="4.93377">
        <ele>139.5</ele>
        <time>2020-06-30T12:08:05Z</time>
      </trkpt>
      <trkpt lat="48.63775" lon="4.9337">
        <ele>139.6</ele>
        <time>2020-06-30T12:08:06Z</time>
      </trkpt>
      <trkpt lat="48.63777" lon="4.93363">
        <ele>139.7</ele>
        <time>2020-06-30T12:08:07Z</time>
      </trkpt>
      <trkpt lat="48.63779" lon="4.93354">
        <ele>139.8</ele>
        <time>2020-06-30T12:08:08Z</time>
      </trkpt>
      <trkpt lat="48.63781" lon="4.93345">
        <ele>140</ele>
        <time>2020-06-30T12:08:09Z</time>
      </trkpt>
      <trkpt lat="48.63783" lon="4.93337">
        <ele>140.1</ele>
        <time>2020-06-30T12:08:10Z</time>
      </trkpt>
      <trkpt lat="48.63785" lon="4.93327">
        <ele>140</ele>
        <time>2020-06-30T12:08:11Z</time>
      </trkpt>
      <trkpt lat="48.63787" lon="4.93318">
        <ele>140</ele>
        <time>2020-06-30T12:08:12Z</time>
      </trkpt>
      <trkpt lat="48.63789" lon="4.93309">
        <ele>140</ele>
        <time>2020-06-30T12:08:13Z</time>
      </trkpt>
      <trkpt lat="48.63791" lon="4.93299">
        <ele>140.1</ele>
        <time>2020-06-30T12:08:14Z</time>
      </trkpt>
      <trkpt lat="48.63793" lon="4.93289">
        <ele>140.1</ele>
        <time>2020-06-30T12:08:15Z</time>
      </trkpt>
      <trkpt lat="48.63795" lon="4.9328">
        <ele>140.2</ele>
        <time>2020-06-30T12:08:16Z</time>
      </trkpt>
      <trkpt lat="48.63795" lon="4.9327">
        <ele>140.2</ele>
        <time>2020-06-30T12:08:17Z</time>
      </trkpt>
      <trkpt lat="48.63795" lon="4.93259">
        <ele>140.3</ele>
        <time>2020-06-30T12:08:18Z</time>
      </trkpt>
      <trkpt lat="48.63795" lon="4.9325">
        <ele>140.3</ele>
        <time>2020-06-30T12:08:19Z</time>
      </trkpt>
      <trkpt lat="48.63797" lon="4.9324">
        <ele>140.3</ele>
        <time>2020-06-30T12:08:20Z</time>
      </trkpt>
      <trkpt lat="48.63797" lon="4.93232">
        <ele>140.3</ele>
        <time>2020-06-30T12:08:21Z</time>
      </trkpt>
      <trkpt lat="48.63796" lon="4.93223">
        <ele>140.3</ele>
        <time>2020-06-30T12:08:22Z</time>
      </trkpt>
      <trkpt lat="48.63797" lon="4.93216">
        <ele>140.3</ele>
        <time>2020-06-30T12:08:23Z</time>
      </trkpt>
      <trkpt lat="48.63797" lon="4.93211">
        <ele>140.3</ele>
        <time>2020-06-30T12:08:24Z</time>
      </trkpt>
      <trkpt lat="48.63797" lon="4.93201">
        <ele>140.2</ele>
        <time>2020-06-30T12:08:25Z</time>
      </trkpt>
      <trkpt lat="48.63797" lon="4.93193">
        <ele>140.2</ele>
        <time>2020-06-30T12:08:26Z</time>
      </trkpt>
      <trkpt lat="48.63798" lon="4.93184">
        <ele>140.1</ele>
        <time>2020-06-30T12:08:27Z</time>
      </trkpt>
      <trkpt lat="48.63797" lon="4.93176">
        <ele>140.1</ele>
        <time>2020-06-30T12:08:28Z</time>
      </trkpt>
      <trkpt lat="48.63798" lon="4.93167">
        <ele>140.1</ele>
        <time>2020-06-30T12:08:29Z</time>
      </trkpt>
      <trkpt lat="48.63797" lon="4.93158">
        <ele>140.1</ele>
        <time>2020-06-30T12:08:30Z</time>
      </trkpt>
      <trkpt lat="48.63798" lon="4.93149">
        <ele>140.1</ele>
        <time>2020-06-30T12:08:31Z</time>
      </trkpt>
      <trkpt lat="48.63797" lon="4.93142">
        <ele>140.1</ele>
        <time>2020-06-30T12:08:32Z</time>
      </trkpt>
      <trkpt lat="48.63797" lon="4.93134">
        <ele>140.1</ele>
        <time>2020-06-30T12:08:33Z</time>
      </trkpt>
      <trkpt lat="48.63798" lon="4.93125">
        <ele>140.1</ele>
        <time>2020-06-30T12:08:34Z</time>
      </trkpt>
      <trkpt lat="48.63799" lon="4.93116">
        <ele>140.1</ele>
        <time>2020-06-30T12:08:35Z</time>
      </trkpt>
      <trkpt lat="48.638" lon="4.93108">
        <ele>140.1</ele>
        <time>2020-06-30T12:08:36Z</time>
      </trkpt>
      <trkpt lat="48.63803" lon="4.93102">
        <ele>140.1</ele>
        <time>2020-06-30T12:08:37Z</time>
      </trkpt>
      <trkpt lat="48.63804" lon="4.93093">
        <ele>140.1</ele>
        <time>2020-06-30T12:08:38Z</time>
      </trkpt>
      <trkpt lat="48.63805" lon="4.93084">
        <ele>140.1</ele>
        <time>2020-06-30T12:08:39Z</time>
      </trkpt>
      <trkpt lat="48.63805" lon="4.93077">
        <ele>140</ele>
        <time>2020-06-30T12:08:40Z</time>
      </trkpt>
      <trkpt lat="48.63806" lon="4.93069">
        <ele>140</ele>
        <time>2020-06-30T12:08:41Z</time>
      </trkpt>
      <trkpt lat="48.63807" lon="4.93059">
        <ele>140</ele>
        <time>2020-06-30T12:08:42Z</time>
      </trkpt>
      <trkpt lat="48.63808" lon="4.93052">
        <ele>139.9</ele>
        <time>2020-06-30T12:08:43Z</time>
      </trkpt>
      <trkpt lat="48.63809" lon="4.93045">
        <ele>139.9</ele>
        <time>2020-06-30T12:08:44Z</time>
      </trkpt>
      <trkpt lat="48.6381" lon="4.93037">
        <ele>139.9</ele>
        <time>2020-06-30T12:08:45Z</time>
      </trkpt>
      <trkpt lat="48.63812" lon="4.93028">
        <ele>139.9</ele>
        <time>2020-06-30T12:08:46Z</time>
      </trkpt>
      <trkpt lat="48.63814" lon="4.9302">
        <ele>139.9</ele>
        <time>2020-06-30T12:08:47Z</time>
      </trkpt>
      <trkpt lat="48.63815" lon="4.93013">
        <ele>139.9</ele>
        <time>2020-06-30T12:08:48Z</time>
      </trkpt>
      <trkpt lat="48.63816" lon="4.93003">
        <ele>139.9</ele>
        <time>2020-06-30T12:08:49Z</time>
      </trkpt>
      <trkpt lat="48.63817" lon="4.92993">
        <ele>139.9</ele>
        <time>2020-06-30T12:08:50Z</time>
      </trkpt>
      <trkpt lat="48.63818" lon="4.92984">
        <ele>139.9</ele>
        <time>2020-06-30T12:08:51Z</time>
      </trkpt>
      <trkpt lat="48.63819" lon="4.92976">
        <ele>139.9</ele>
        <time>2020-06-30T12:08:52Z</time>
      </trkpt>
      <trkpt lat="48.63821" lon="4.92967">
        <ele>140</ele>
        <time>2020-06-30T12:08:53Z</time>
      </trkpt>
      <trkpt lat="48.63822" lon="4.92958">
        <ele>140</ele>
        <time>2020-06-30T12:08:54Z</time>
      </trkpt>
      <trkpt lat="48.63824" lon="4.9295">
        <ele>140</ele>
        <time>2020-06-30T12:08:55Z</time>
      </trkpt>
      <trkpt lat="48.63825" lon="4.92941">
        <ele>140</ele>
        <time>2020-06-30T12:08:56Z</time>
      </trkpt>
      <trkpt lat="48.63826" lon="4.92931">
        <ele>140</ele>
        <time>2020-06-30T12:08:57Z</time>
      </trkpt>
      <trkpt lat="48.63827" lon="4.92924">
        <ele>140</ele>
        <time>2020-06-30T12:08:58Z</time>
      </trkpt>
      <trkpt lat="48.63829" lon="4.92916">
        <ele>140</ele>
        <time>2020-06-30T12:08:59Z</time>
      </trkpt>
      <trkpt lat="48.63829" lon="4.92908">
        <ele>140.1</ele>
        <time>2020-06-30T12:09:00Z</time>
      </trkpt>
      <trkpt lat="48.63831" lon="4.92899">
        <ele>140.1</ele>
        <time>2020-06-30T12:09:01Z</time>
      </trkpt>
      <trkpt lat="48.63832" lon="4.92891">
        <ele>140.1</ele>
        <time>2020-06-30T12:09:02Z</time>
      </trkpt>
      <trkpt lat="48.63835" lon="4.92883">
        <ele>140.1</ele>
        <time>2020-06-30T12:09:03Z</time>
      </trkpt>
      <trkpt lat="48.63836" lon="4.92874">
        <ele>140.1</ele>
        <time>2020-06-30T12:09:04Z</time>
      </trkpt>
      <trkpt lat="48.63838" lon="4.92866">
        <ele>140.1</ele>
        <time>2020-06-30T12:09:05Z</time>
      </trkpt>
      <trkpt lat="48.63839" lon="4.92857">
        <ele>140.1</ele>
        <time>2020-06-30T12:09:06Z</time>
      </trkpt>
      <trkpt lat="48.6384" lon="4.92849">
        <ele>140</ele>
        <time>2020-06-30T12:09:07Z</time>
      </trkpt>
      <trkpt lat="48.63842" lon="4.92839">
        <ele>140</ele>
        <time>2020-06-30T12:09:08Z</time>
      </trkpt>
      <trkpt lat="48.63843" lon="4.92832">
        <ele>140</ele>
        <time>2020-06-30T12:09:09Z</time>
      </trkpt>
      <trkpt lat="48.63844" lon="4.92824">
        <ele>140.1</ele>
        <time>2020-06-30T12:09:10Z</time>
      </trkpt>
      <trkpt lat="48.63845" lon="4.92815">
        <ele>140.1</ele>
        <time>2020-06-30T12:09:11Z</time>
      </trkpt>
      <trkpt lat="48.63846" lon="4.92807">
        <ele>140.1</ele>
        <time>2020-06-30T12:09:12Z</time>
      </trkpt>
      <trkpt lat="48.63848" lon="4.92797">
        <ele>140.2</ele>
        <time>2020-06-30T12:09:13Z</time>
      </trkpt>
      <trkpt lat="48.63848" lon="4.92788">
        <ele>140.2</ele>
        <time>2020-06-30T12:09:14Z</time>
      </trkpt>
      <trkpt lat="48.6385" lon="4.92779">
        <ele>140.3</ele>
        <time>2020-06-30T12:09:15Z</time>
      </trkpt>
      <trkpt lat="48.6385" lon="4.92769">
        <ele>140.4</ele>
        <time>2020-06-30T12:09:16Z</time>
      </trkpt>
      <trkpt lat="48.63851" lon="4.92761">
        <ele>140.5</ele>
        <time>2020-06-30T12:09:17Z</time>
      </trkpt>
      <trkpt lat="48.63852" lon="4.92751">
        <ele>140.6</ele>
        <time>2020-06-30T12:09:18Z</time>
      </trkpt>
      <trkpt lat="48.63853" lon="4.92741">
        <ele>140.7</ele>
        <time>2020-06-30T12:09:19Z</time>
      </trkpt>
      <trkpt lat="48.63855" lon="4.92732">
        <ele>140.9</ele>
        <time>2020-06-30T12:09:20Z</time>
      </trkpt>
      <trkpt lat="48.63856" lon="4.92727">
        <ele>140.9</ele>
        <time>2020-06-30T12:09:21Z</time>
      </trkpt>
      <trkpt lat="48.63857" lon="4.9272">
        <ele>141</ele>
        <time>2020-06-30T12:09:22Z</time>
      </trkpt>
      <trkpt lat="48.63858" lon="4.92716">
        <ele>141.1</ele>
        <time>2020-06-30T12:09:23Z</time>
      </trkpt>
      <trkpt lat="48.63858" lon="4.92711">
        <ele>141.2</ele>
        <time>2020-06-30T12:09:24Z</time>
      </trkpt>
      <trkpt lat="48.63858" lon="4.92705">
        <ele>141.2</ele>
        <time>2020-06-30T12:09:25Z</time>
      </trkpt>
      <trkpt lat="48.63858" lon="4.92699">
        <ele>141.3</ele>
        <time>2020-06-30T12:09:26Z</time>
      </trkpt>
      <trkpt lat="48.63858" lon="4.92697">
        <ele>141.3</ele>
        <time>2020-06-30T12:09:27Z</time>
      </trkpt>
      <trkpt lat="48.63855" lon="4.92694">
        <ele>141.4</ele>
        <time>2020-06-30T12:09:28Z</time>
      </trkpt>
      <trkpt lat="48.63854" lon="4.92694">
        <ele>141.4</ele>
        <time>2020-06-30T12:09:29Z</time>
      </trkpt>
      <trkpt lat="48.63853" lon="4.92694">
        <ele>141.4</ele>
        <time>2020-06-30T12:09:30Z</time>
      </trkpt>
      <trkpt lat="48.63852" lon="4.92691">
        <ele>141.4</ele>
        <time>2020-06-30T12:09:31Z</time>
      </trkpt>
      <trkpt lat="48.63853" lon="4.92691">
        <ele>141.4</ele>
        <time>2020-06-30T12:09:32Z</time>
      </trkpt>
      <trkpt lat="48.63853" lon="4.9269">
        <ele>141.4</ele>
        <time>2020-06-30T12:09:33Z</time>
      </trkpt>
      <trkpt lat="48.63854" lon="4.9269">
        <ele>141.5</ele>
        <time>2020-06-30T12:09:34Z</time>
      </trkpt>
      <trkpt lat="48.63854" lon="4.92689">
        <ele>141.5</ele>
        <time>2020-06-30T12:09:35Z</time>
      </trkpt>
      <trkpt lat="48.63854" lon="4.92688">
        <ele>141.5</ele>
        <time>2020-06-30T12:09:36Z</time>
      </trkpt>
      <trkpt lat="48.63855" lon="4.92687">
        <ele>141.5</ele>
        <time>2020-06-30T12:09:37Z</time>
      </trkpt>
      <trkpt lat="48.63855" lon="4.92686">
        <ele>141.5</ele>
        <time>2020-06-30T12:09:38Z</time>
      </trkpt>
      <trkpt lat="48.63855" lon="4.92685">
        <ele>141.5</ele>
        <time>2020-06-30T12:09:39Z</time>
      </trkpt>
      <trkpt lat="48.63856" lon="4.92685">
        <ele>141.5</ele>
        <time>2020-06-30T12:09:40Z</time>
      </trkpt>
      <trkpt lat="48.63856" lon="4.92684">
        <ele>141.5</ele>
        <time>2020-06-30T12:09:44Z</time>
      </trkpt>
      <trkpt lat="48.63857" lon="4.92683">
        <ele>141.5</ele>
        <time>2020-06-30T12:09:45Z</time>
      </trkpt>
      <trkpt lat="48.63857" lon="4.92682">
        <ele>141.5</ele>
        <time>2020-06-30T12:09:46Z</time>
      </trkpt>
      <trkpt lat="48.63857" lon="4.92679">
        <ele>141.5</ele>
        <time>2020-06-30T12:09:47Z</time>
      </trkpt>
      <trkpt lat="48.63857" lon="4.92678">
        <ele>141.5</ele>
        <time>2020-06-30T12:09:48Z</time>
      </trkpt>
      <trkpt lat="48.63858" lon="4.92672">
        <ele>141.5</ele>
        <time>2020-06-30T12:09:49Z</time>
      </trkpt>
      <trkpt lat="48.63858" lon="4.9267">
        <ele>141.5</ele>
        <time>2020-06-30T12:09:50Z</time>
      </trkpt>
      <trkpt lat="48.63859" lon="4.92666">
        <ele>141.4</ele>
        <time>2020-06-30T12:09:51Z</time>
      </trkpt>
      <trkpt lat="48.63859" lon="4.92665">
        <ele>141.4</ele>
        <time>2020-06-30T12:09:52Z</time>
      </trkpt>
      <trkpt lat="48.63859" lon="4.92659">
        <ele>141.4</ele>
        <time>2020-06-30T12:09:53Z</time>
      </trkpt>
      <trkpt lat="48.63858" lon="4.92658">
        <ele>141.4</ele>
        <time>2020-06-30T12:09:54Z</time>
      </trkpt>
      <trkpt lat="48.63854" lon="4.92659">
        <ele>140.8</ele>
        <time>2020-06-30T12:09:55Z</time>
      </trkpt>
      <trkpt lat="48.63853" lon="4.92659">
        <ele>140.7</ele>
        <time>2020-06-30T12:09:56Z</time>
      </trkpt>
      <trkpt lat="48.63849" lon="4.92657">
        <ele>140.5</ele>
        <time>2020-06-30T12:09:57Z</time>
      </trkpt>
      <trkpt lat="48.63844" lon="4.92655">
        <ele>140.2</ele>
        <time>2020-06-30T12:09:58Z</time>
      </trkpt>
      <trkpt lat="48.63839" lon="4.92652">
        <ele>139.9</ele>
        <time>2020-06-30T12:09:59Z</time>
      </trkpt>
      <trkpt lat="48.63834" lon="4.92649">
        <ele>139.5</ele>
        <time>2020-06-30T12:10:00Z</time>
      </trkpt>
      <trkpt lat="48.63829" lon="4.92645">
        <ele>139.3</ele>
        <time>2020-06-30T12:10:01Z</time>
      </trkpt>
      <trkpt lat="48.63825" lon="4.9264">
        <ele>139.1</ele>
        <time>2020-06-30T12:10:02Z</time>
      </trkpt>
      <trkpt lat="48.63821" lon="4.92635">
        <ele>138.9</ele>
        <time>2020-06-30T12:10:03Z</time>
      </trkpt>
      <trkpt lat="48.63816" lon="4.92629">
        <ele>138.7</ele>
        <time>2020-06-30T12:10:04Z</time>
      </trkpt>
      <trkpt lat="48.63812" lon="4.92624">
        <ele>138.6</ele>
        <time>2020-06-30T12:10:05Z</time>
      </trkpt>
      <trkpt lat="48.63808" lon="4.92619">
        <ele>138.5</ele>
        <time>2020-06-30T12:10:06Z</time>
      </trkpt>
      <trkpt lat="48.63805" lon="4.92612">
        <ele>138.4</ele>
        <time>2020-06-30T12:10:07Z</time>
      </trkpt>
      <trkpt lat="48.63802" lon="4.92604">
        <ele>138.4</ele>
        <time>2020-06-30T12:10:08Z</time>
      </trkpt>
      <trkpt lat="48.63799" lon="4.92596">
        <ele>138.3</ele>
        <time>2020-06-30T12:10:09Z</time>
      </trkpt>
      <trkpt lat="48.63798" lon="4.9259">
        <ele>138.2</ele>
        <time>2020-06-30T12:10:10Z</time>
      </trkpt>
      <trkpt lat="48.63796" lon="4.92581">
        <ele>138.1</ele>
        <time>2020-06-30T12:10:11Z</time>
      </trkpt>
      <trkpt lat="48.63795" lon="4.92573">
        <ele>138.1</ele>
        <time>2020-06-30T12:10:12Z</time>
      </trkpt>
      <trkpt lat="48.63794" lon="4.92565">
        <ele>138</ele>
        <time>2020-06-30T12:10:13Z</time>
      </trkpt>
      <trkpt lat="48.63794" lon="4.92555">
        <ele>137.9</ele>
        <time>2020-06-30T12:10:14Z</time>
      </trkpt>
      <trkpt lat="48.63794" lon="4.92547">
        <ele>137.8</ele>
        <time>2020-06-30T12:10:15Z</time>
      </trkpt>
      <trkpt lat="48.63794" lon="4.92539">
        <ele>137.8</ele>
        <time>2020-06-30T12:10:16Z</time>
      </trkpt>
      <trkpt lat="48.63795" lon="4.92529">
        <ele>137.8</ele>
        <time>2020-06-30T12:10:17Z</time>
      </trkpt>
      <trkpt lat="48.63796" lon="4.92521">
        <ele>137.7</ele>
        <time>2020-06-30T12:10:18Z</time>
      </trkpt>
      <trkpt lat="48.63797" lon="4.92514">
        <ele>137.7</ele>
        <time>2020-06-30T12:10:19Z</time>
      </trkpt>
      <trkpt lat="48.63798" lon="4.92506">
        <ele>137.7</ele>
        <time>2020-06-30T12:10:20Z</time>
      </trkpt>
      <trkpt lat="48.63799" lon="4.92497">
        <ele>137.7</ele>
        <time>2020-06-30T12:10:21Z</time>
      </trkpt>
      <trkpt lat="48.63801" lon="4.92489">
        <ele>137.6</ele>
        <time>2020-06-30T12:10:22Z</time>
      </trkpt>
      <trkpt lat="48.63802" lon="4.92482">
        <ele>137.6</ele>
        <time>2020-06-30T12:10:23Z</time>
      </trkpt>
      <trkpt lat="48.63804" lon="4.92475">
        <ele>137.6</ele>
        <time>2020-06-30T12:10:24Z</time>
      </trkpt>
      <trkpt lat="48.63806" lon="4.92467">
        <ele>137.6</ele>
        <time>2020-06-30T12:10:25Z</time>
      </trkpt>
      <trkpt lat="48.63806" lon="4.92458">
        <ele>137.6</ele>
        <time>2020-06-30T12:10:26Z</time>
      </trkpt>
      <trkpt lat="48.63809" lon="4.92446">
        <ele>137.6</ele>
        <time>2020-06-30T12:10:27Z</time>
      </trkpt>
      <trkpt lat="48.63811" lon="4.92437">
        <ele>137.6</ele>
        <time>2020-06-30T12:10:28Z</time>
      </trkpt>
      <trkpt lat="48.63812" lon="4.92428">
        <ele>137.5</ele>
        <time>2020-06-30T12:10:29Z</time>
      </trkpt>
      <trkpt lat="48.63813" lon="4.92418">
        <ele>137.5</ele>
        <time>2020-06-30T12:10:30Z</time>
      </trkpt>
      <trkpt lat="48.63815" lon="4.92408">
        <ele>137.4</ele>
        <time>2020-06-30T12:10:31Z</time>
      </trkpt>
      <trkpt lat="48.63816" lon="4.924">
        <ele>137.4</ele>
        <time>2020-06-30T12:10:32Z</time>
      </trkpt>
      <trkpt lat="48.63817" lon="4.92392">
        <ele>137.4</ele>
        <time>2020-06-30T12:10:33Z</time>
      </trkpt>
      <trkpt lat="48.63818" lon="4.92381">
        <ele>137.4</ele>
        <time>2020-06-30T12:10:34Z</time>
      </trkpt>
      <trkpt lat="48.6382" lon="4.92372">
        <ele>137.4</ele>
        <time>2020-06-30T12:10:35Z</time>
      </trkpt>
      <trkpt lat="48.6382" lon="4.92363">
        <ele>137.4</ele>
        <time>2020-06-30T12:10:36Z</time>
      </trkpt>
      <trkpt lat="48.63822" lon="4.92354">
        <ele>137.4</ele>
        <time>2020-06-30T12:10:37Z</time>
      </trkpt>
      <trkpt lat="48.63823" lon="4.92347">
        <ele>137.4</ele>
        <time>2020-06-30T12:10:38Z</time>
      </trkpt>
      <trkpt lat="48.63825" lon="4.92337">
        <ele>137.3</ele>
        <time>2020-06-30T12:10:39Z</time>
      </trkpt>
      <trkpt lat="48.63826" lon="4.92329">
        <ele>137.3</ele>
        <time>2020-06-30T12:10:40Z</time>
      </trkpt>
      <trkpt lat="48.63827" lon="4.92322">
        <ele>137.3</ele>
        <time>2020-06-30T12:10:41Z</time>
      </trkpt>
      <trkpt lat="48.63828" lon="4.92314">
        <ele>137.3</ele>
        <time>2020-06-30T12:10:42Z</time>
      </trkpt>
      <trkpt lat="48.63829" lon="4.92306">
        <ele>137.3</ele>
        <time>2020-06-30T12:10:43Z</time>
      </trkpt>
      <trkpt lat="48.63831" lon="4.92298">
        <ele>137.3</ele>
        <time>2020-06-30T12:10:44Z</time>
      </trkpt>
      <trkpt lat="48.63832" lon="4.9229">
        <ele>137.3</ele>
        <time>2020-06-30T12:10:45Z</time>
      </trkpt>
      <trkpt lat="48.63833" lon="4.92282">
        <ele>137.3</ele>
        <time>2020-06-30T12:10:46Z</time>
      </trkpt>
      <trkpt lat="48.63834" lon="4.92275">
        <ele>137.2</ele>
        <time>2020-06-30T12:10:47Z</time>
      </trkpt>
      <trkpt lat="48.63835" lon="4.92266">
        <ele>137.2</ele>
        <time>2020-06-30T12:10:48Z</time>
      </trkpt>
      <trkpt lat="48.63835" lon="4.92258">
        <ele>137.2</ele>
        <time>2020-06-30T12:10:49Z</time>
      </trkpt>
      <trkpt lat="48.63837" lon="4.92247">
        <ele>137.2</ele>
        <time>2020-06-30T12:10:50Z</time>
      </trkpt>
      <trkpt lat="48.63838" lon="4.92238">
        <ele>137.1</ele>
        <time>2020-06-30T12:10:51Z</time>
      </trkpt>
      <trkpt lat="48.63839" lon="4.92229">
        <ele>137.1</ele>
        <time>2020-06-30T12:10:52Z</time>
      </trkpt>
      <trkpt lat="48.63841" lon="4.9222">
        <ele>137.1</ele>
        <time>2020-06-30T12:10:53Z</time>
      </trkpt>
      <trkpt lat="48.63843" lon="4.92213">
        <ele>137.1</ele>
        <time>2020-06-30T12:10:54Z</time>
      </trkpt>
      <trkpt lat="48.63844" lon="4.92205">
        <ele>137.1</ele>
        <time>2020-06-30T12:10:55Z</time>
      </trkpt>
      <trkpt lat="48.63845" lon="4.92195">
        <ele>137.2</ele>
        <time>2020-06-30T12:10:56Z</time>
      </trkpt>
      <trkpt lat="48.63846" lon="4.92187">
        <ele>137.2</ele>
        <time>2020-06-30T12:10:57Z</time>
      </trkpt>
      <trkpt lat="48.63847" lon="4.92179">
        <ele>137.2</ele>
        <time>2020-06-30T12:10:58Z</time>
      </trkpt>
      <trkpt lat="48.63848" lon="4.9217">
        <ele>137.2</ele>
        <time>2020-06-30T12:10:59Z</time>
      </trkpt>
      <trkpt lat="48.63849" lon="4.9216">
        <ele>137.2</ele>
        <time>2020-06-30T12:11:00Z</time>
      </trkpt>
      <trkpt lat="48.63851" lon="4.92152">
        <ele>137.2</ele>
        <time>2020-06-30T12:11:01Z</time>
      </trkpt>
      <trkpt lat="48.63852" lon="4.92144">
        <ele>137.2</ele>
        <time>2020-06-30T12:11:02Z</time>
      </trkpt>
      <trkpt lat="48.63854" lon="4.92137">
        <ele>137.2</ele>
        <time>2020-06-30T12:11:03Z</time>
      </trkpt>
      <trkpt lat="48.63855" lon="4.92126">
        <ele>137.2</ele>
        <time>2020-06-30T12:11:04Z</time>
      </trkpt>
      <trkpt lat="48.63856" lon="4.92117">
        <ele>137.2</ele>
        <time>2020-06-30T12:11:05Z</time>
      </trkpt>
      <trkpt lat="48.63856" lon="4.92108">
        <ele>137.2</ele>
        <time>2020-06-30T12:11:06Z</time>
      </trkpt>
      <trkpt lat="48.63859" lon="4.92098">
        <ele>137.2</ele>
        <time>2020-06-30T12:11:07Z</time>
      </trkpt>
      <trkpt lat="48.6386" lon="4.9209">
        <ele>137.2</ele>
        <time>2020-06-30T12:11:08Z</time>
      </trkpt>
      <trkpt lat="48.63861" lon="4.92082">
        <ele>137.2</ele>
        <time>2020-06-30T12:11:09Z</time>
      </trkpt>
      <trkpt lat="48.63862" lon="4.92075">
        <ele>137.2</ele>
        <time>2020-06-30T12:11:10Z</time>
      </trkpt>
      <trkpt lat="48.63862" lon="4.92066">
        <ele>137.2</ele>
        <time>2020-06-30T12:11:11Z</time>
      </trkpt>
      <trkpt lat="48.63864" lon="4.92058">
        <ele>137.2</ele>
        <time>2020-06-30T12:11:12Z</time>
      </trkpt>
      <trkpt lat="48.63866" lon="4.92048">
        <ele>137.2</ele>
        <time>2020-06-30T12:11:13Z</time>
      </trkpt>
      <trkpt lat="48.63867" lon="4.92039">
        <ele>137.2</ele>
        <time>2020-06-30T12:11:14Z</time>
      </trkpt>
      <trkpt lat="48.63868" lon="4.9203">
        <ele>137.2</ele>
        <time>2020-06-30T12:11:15Z</time>
      </trkpt>
      <trkpt lat="48.63869" lon="4.92022">
        <ele>137.2</ele>
        <time>2020-06-30T12:11:16Z</time>
      </trkpt>
      <trkpt lat="48.63871" lon="4.92014">
        <ele>137.2</ele>
        <time>2020-06-30T12:11:17Z</time>
      </trkpt>
      <trkpt lat="48.63872" lon="4.92005">
        <ele>137.2</ele>
        <time>2020-06-30T12:11:18Z</time>
      </trkpt>
      <trkpt lat="48.63873" lon="4.91997">
        <ele>137.2</ele>
        <time>2020-06-30T12:11:19Z</time>
      </trkpt>
      <trkpt lat="48.63875" lon="4.9199">
        <ele>137.2</ele>
        <time>2020-06-30T12:11:20Z</time>
      </trkpt>
      <trkpt lat="48.63876" lon="4.91984">
        <ele>137.2</ele>
        <time>2020-06-30T12:11:21Z</time>
      </trkpt>
      <trkpt lat="48.63877" lon="4.91976">
        <ele>137.2</ele>
        <time>2020-06-30T12:11:22Z</time>
      </trkpt>
      <trkpt lat="48.63879" lon="4.91967">
        <ele>137.2</ele>
        <time>2020-06-30T12:11:23Z</time>
      </trkpt>
      <trkpt lat="48.6388" lon="4.91959">
        <ele>137.2</ele>
        <time>2020-06-30T12:11:24Z</time>
      </trkpt>
      <trkpt lat="48.63881" lon="4.91951">
        <ele>137.2</ele>
        <time>2020-06-30T12:11:25Z</time>
      </trkpt>
      <trkpt lat="48.63881" lon="4.91941">
        <ele>137.2</ele>
        <time>2020-06-30T12:11:26Z</time>
      </trkpt>
      <trkpt lat="48.63882" lon="4.91933">
        <ele>137.2</ele>
        <time>2020-06-30T12:11:27Z</time>
      </trkpt>
      <trkpt lat="48.63883" lon="4.91924">
        <ele>137.2</ele>
        <time>2020-06-30T12:11:28Z</time>
      </trkpt>
      <trkpt lat="48.63884" lon="4.91915">
        <ele>137.3</ele>
        <time>2020-06-30T12:11:29Z</time>
      </trkpt>
      <trkpt lat="48.63885" lon="4.91906">
        <ele>137.3</ele>
        <time>2020-06-30T12:11:30Z</time>
      </trkpt>
      <trkpt lat="48.63886" lon="4.91896">
        <ele>137.3</ele>
        <time>2020-06-30T12:11:31Z</time>
      </trkpt>
      <trkpt lat="48.63887" lon="4.91889">
        <ele>137.3</ele>
        <time>2020-06-30T12:11:32Z</time>
      </trkpt>
      <trkpt lat="48.63888" lon="4.91881">
        <ele>137.4</ele>
        <time>2020-06-30T12:11:33Z</time>
      </trkpt>
      <trkpt lat="48.63889" lon="4.91873">
        <ele>137.4</ele>
        <time>2020-06-30T12:11:34Z</time>
      </trkpt>
      <trkpt lat="48.63889" lon="4.91863">
        <ele>137.4</ele>
        <time>2020-06-30T12:11:35Z</time>
      </trkpt>
      <trkpt lat="48.6389" lon="4.91856">
        <ele>137.4</ele>
        <time>2020-06-30T12:11:36Z</time>
      </trkpt>
      <trkpt lat="48.6389" lon="4.91849">
        <ele>137.3</ele>
        <time>2020-06-30T12:11:37Z</time>
      </trkpt>
      <trkpt lat="48.63891" lon="4.91843">
        <ele>137.3</ele>
        <time>2020-06-30T12:11:38Z</time>
      </trkpt>
      <trkpt lat="48.63892" lon="4.91837">
        <ele>137.3</ele>
        <time>2020-06-30T12:11:39Z</time>
      </trkpt>
      <trkpt lat="48.63895" lon="4.91827">
        <ele>137.2</ele>
        <time>2020-06-30T12:11:40Z</time>
      </trkpt>
      <trkpt lat="48.63896" lon="4.91824">
        <ele>137.2</ele>
        <time>2020-06-30T12:11:41Z</time>
      </trkpt>
      <trkpt lat="48.63895" lon="4.9182">
        <ele>137.1</ele>
        <time>2020-06-30T12:11:42Z</time>
      </trkpt>
      <trkpt lat="48.63899" lon="4.91812">
        <ele>137.1</ele>
        <time>2020-06-30T12:11:43Z</time>
      </trkpt>
      <trkpt lat="48.63901" lon="4.91803">
        <ele>137</ele>
        <time>2020-06-30T12:11:44Z</time>
      </trkpt>
      <trkpt lat="48.63901" lon="4.91791">
        <ele>137</ele>
        <time>2020-06-30T12:11:45Z</time>
      </trkpt>
      <trkpt lat="48.63902" lon="4.91779">
        <ele>137</ele>
        <time>2020-06-30T12:11:46Z</time>
      </trkpt>
      <trkpt lat="48.63902" lon="4.91769">
        <ele>137</ele>
        <time>2020-06-30T12:11:47Z</time>
      </trkpt>
      <trkpt lat="48.63903" lon="4.9176">
        <ele>137</ele>
        <time>2020-06-30T12:11:48Z</time>
      </trkpt>
      <trkpt lat="48.63904" lon="4.91752">
        <ele>137</ele>
        <time>2020-06-30T12:11:49Z</time>
      </trkpt>
      <trkpt lat="48.63907" lon="4.91744">
        <ele>137</ele>
        <time>2020-06-30T12:11:50Z</time>
      </trkpt>
      <trkpt lat="48.63909" lon="4.91737">
        <ele>136.9</ele>
        <time>2020-06-30T12:11:51Z</time>
      </trkpt>
      <trkpt lat="48.63911" lon="4.91728">
        <ele>136.9</ele>
        <time>2020-06-30T12:11:52Z</time>
      </trkpt>
      <trkpt lat="48.63914" lon="4.9172">
        <ele>136.9</ele>
        <time>2020-06-30T12:11:53Z</time>
      </trkpt>
      <trkpt lat="48.63917" lon="4.91711">
        <ele>137</ele>
        <time>2020-06-30T12:11:54Z</time>
      </trkpt>
      <trkpt lat="48.63918" lon="4.91704">
        <ele>137</ele>
        <time>2020-06-30T12:11:55Z</time>
      </trkpt>
      <trkpt lat="48.63919" lon="4.91697">
        <ele>137</ele>
        <time>2020-06-30T12:11:56Z</time>
      </trkpt>
      <trkpt lat="48.63919" lon="4.91689">
        <ele>137</ele>
        <time>2020-06-30T12:11:57Z</time>
      </trkpt>
      <trkpt lat="48.63921" lon="4.91681">
        <ele>137</ele>
        <time>2020-06-30T12:11:58Z</time>
      </trkpt>
      <trkpt lat="48.63922" lon="4.91675">
        <ele>137</ele>
        <time>2020-06-30T12:11:59Z</time>
      </trkpt>
      <trkpt lat="48.63923" lon="4.91666">
        <ele>137</ele>
        <time>2020-06-30T12:12:00Z</time>
      </trkpt>
      <trkpt lat="48.63924" lon="4.91657">
        <ele>137</ele>
        <time>2020-06-30T12:12:01Z</time>
      </trkpt>
      <trkpt lat="48.63924" lon="4.9165">
        <ele>137</ele>
        <time>2020-06-30T12:12:02Z</time>
      </trkpt>
      <trkpt lat="48.63926" lon="4.91642">
        <ele>137</ele>
        <time>2020-06-30T12:12:03Z</time>
      </trkpt>
      <trkpt lat="48.63927" lon="4.91635">
        <ele>137</ele>
        <time>2020-06-30T12:12:04Z</time>
      </trkpt>
      <trkpt lat="48.63928" lon="4.91624">
        <ele>137</ele>
        <time>2020-06-30T12:12:05Z</time>
      </trkpt>
      <trkpt lat="48.63929" lon="4.91616">
        <ele>137</ele>
        <time>2020-06-30T12:12:06Z</time>
      </trkpt>
      <trkpt lat="48.63931" lon="4.91607">
        <ele>136.9</ele>
        <time>2020-06-30T12:12:07Z</time>
      </trkpt>
      <trkpt lat="48.63932" lon="4.91599">
        <ele>136.9</ele>
        <time>2020-06-30T12:12:08Z</time>
      </trkpt>
      <trkpt lat="48.63933" lon="4.91593">
        <ele>136.9</ele>
        <time>2020-06-30T12:12:09Z</time>
      </trkpt>
      <trkpt lat="48.63934" lon="4.91585">
        <ele>136.9</ele>
        <time>2020-06-30T12:12:10Z</time>
      </trkpt>
      <trkpt lat="48.63936" lon="4.91576">
        <ele>136.9</ele>
        <time>2020-06-30T12:12:11Z</time>
      </trkpt>
      <trkpt lat="48.63937" lon="4.91567">
        <ele>136.9</ele>
        <time>2020-06-30T12:12:12Z</time>
      </trkpt>
      <trkpt lat="48.63938" lon="4.91559">
        <ele>136.9</ele>
        <time>2020-06-30T12:12:13Z</time>
      </trkpt>
      <trkpt lat="48.63938" lon="4.91551">
        <ele>136.9</ele>
        <time>2020-06-30T12:12:14Z</time>
      </trkpt>
      <trkpt lat="48.6394" lon="4.91543">
        <ele>136.9</ele>
        <time>2020-06-30T12:12:15Z</time>
      </trkpt>
      <trkpt lat="48.63941" lon="4.91535">
        <ele>136.9</ele>
        <time>2020-06-30T12:12:16Z</time>
      </trkpt>
      <trkpt lat="48.63942" lon="4.91526">
        <ele>136.8</ele>
        <time>2020-06-30T12:12:17Z</time>
      </trkpt>
      <trkpt lat="48.63944" lon="4.91516">
        <ele>136.8</ele>
        <time>2020-06-30T12:12:18Z</time>
      </trkpt>
      <trkpt lat="48.63946" lon="4.91507">
        <ele>136.8</ele>
        <time>2020-06-30T12:12:19Z</time>
      </trkpt>
      <trkpt lat="48.63947" lon="4.91498">
        <ele>136.8</ele>
        <time>2020-06-30T12:12:20Z</time>
      </trkpt>
      <trkpt lat="48.63948" lon="4.91489">
        <ele>136.8</ele>
        <time>2020-06-30T12:12:21Z</time>
      </trkpt>
      <trkpt lat="48.6395" lon="4.91481">
        <ele>136.8</ele>
        <time>2020-06-30T12:12:22Z</time>
      </trkpt>
      <trkpt lat="48.63951" lon="4.91473">
        <ele>136.8</ele>
        <time>2020-06-30T12:12:23Z</time>
      </trkpt>
      <trkpt lat="48.63953" lon="4.91465">
        <ele>136.8</ele>
        <time>2020-06-30T12:12:24Z</time>
      </trkpt>
      <trkpt lat="48.63953" lon="4.91459">
        <ele>136.8</ele>
        <time>2020-06-30T12:12:25Z</time>
      </trkpt>
      <trkpt lat="48.63954" lon="4.9145">
        <ele>136.8</ele>
        <time>2020-06-30T12:12:26Z</time>
      </trkpt>
      <trkpt lat="48.63955" lon="4.91442">
        <ele>136.8</ele>
        <time>2020-06-30T12:12:27Z</time>
      </trkpt>
      <trkpt lat="48.63955" lon="4.91436">
        <ele>136.8</ele>
        <time>2020-06-30T12:12:28Z</time>
      </trkpt>
      <trkpt lat="48.63957" lon="4.91425">
        <ele>136.8</ele>
        <time>2020-06-30T12:12:29Z</time>
      </trkpt>
      <trkpt lat="48.63959" lon="4.91416">
        <ele>136.7</ele>
        <time>2020-06-30T12:12:30Z</time>
      </trkpt>
      <trkpt lat="48.6396" lon="4.91407">
        <ele>136.8</ele>
        <time>2020-06-30T12:12:31Z</time>
      </trkpt>
      <trkpt lat="48.63962" lon="4.91399">
        <ele>136.8</ele>
        <time>2020-06-30T12:12:32Z</time>
      </trkpt>
      <trkpt lat="48.63963" lon="4.91392">
        <ele>136.8</ele>
        <time>2020-06-30T12:12:33Z</time>
      </trkpt>
      <trkpt lat="48.63964" lon="4.91383">
        <ele>136.9</ele>
        <time>2020-06-30T12:12:34Z</time>
      </trkpt>
      <trkpt lat="48.63965" lon="4.91373">
        <ele>136.9</ele>
        <time>2020-06-30T12:12:35Z</time>
      </trkpt>
      <trkpt lat="48.63966" lon="4.91365">
        <ele>136.9</ele>
        <time>2020-06-30T12:12:36Z</time>
      </trkpt>
      <trkpt lat="48.63967" lon="4.91356">
        <ele>136.9</ele>
        <time>2020-06-30T12:12:37Z</time>
      </trkpt>
      <trkpt lat="48.63968" lon="4.91348">
        <ele>136.9</ele>
        <time>2020-06-30T12:12:38Z</time>
      </trkpt>
      <trkpt lat="48.6397" lon="4.9134">
        <ele>136.9</ele>
        <time>2020-06-30T12:12:39Z</time>
      </trkpt>
      <trkpt lat="48.63972" lon="4.91332">
        <ele>136.8</ele>
        <time>2020-06-30T12:12:40Z</time>
      </trkpt>
      <trkpt lat="48.63973" lon="4.91322">
        <ele>136.8</ele>
        <time>2020-06-30T12:12:41Z</time>
      </trkpt>
      <trkpt lat="48.63974" lon="4.91313">
        <ele>136.8</ele>
        <time>2020-06-30T12:12:42Z</time>
      </trkpt>
      <trkpt lat="48.63975" lon="4.91303">
        <ele>136.8</ele>
        <time>2020-06-30T12:12:43Z</time>
      </trkpt>
      <trkpt lat="48.63975" lon="4.91294">
        <ele>136.8</ele>
        <time>2020-06-30T12:12:44Z</time>
      </trkpt>
      <trkpt lat="48.63976" lon="4.91286">
        <ele>136.9</ele>
        <time>2020-06-30T12:12:45Z</time>
      </trkpt>
      <trkpt lat="48.63977" lon="4.91277">
        <ele>136.9</ele>
        <time>2020-06-30T12:12:46Z</time>
      </trkpt>
      <trkpt lat="48.63978" lon="4.91271">
        <ele>136.9</ele>
        <time>2020-06-30T12:12:47Z</time>
      </trkpt>
      <trkpt lat="48.6398" lon="4.91265">
        <ele>136.9</ele>
        <time>2020-06-30T12:12:48Z</time>
      </trkpt>
      <trkpt lat="48.63982" lon="4.91255">
        <ele>137</ele>
        <time>2020-06-30T12:12:49Z</time>
      </trkpt>
      <trkpt lat="48.63984" lon="4.91247">
        <ele>137</ele>
        <time>2020-06-30T12:12:50Z</time>
      </trkpt>
      <trkpt lat="48.63986" lon="4.91241">
        <ele>137</ele>
        <time>2020-06-30T12:12:51Z</time>
      </trkpt>
      <trkpt lat="48.63986" lon="4.91231">
        <ele>137</ele>
        <time>2020-06-30T12:12:52Z</time>
      </trkpt>
      <trkpt lat="48.63987" lon="4.91223">
        <ele>136.9</ele>
        <time>2020-06-30T12:12:53Z</time>
      </trkpt>
      <trkpt lat="48.63989" lon="4.91213">
        <ele>136.9</ele>
        <time>2020-06-30T12:12:54Z</time>
      </trkpt>
      <trkpt lat="48.6399" lon="4.91206">
        <ele>136.8</ele>
        <time>2020-06-30T12:12:55Z</time>
      </trkpt>
      <trkpt lat="48.63991" lon="4.91197">
        <ele>136.8</ele>
        <time>2020-06-30T12:12:56Z</time>
      </trkpt>
      <trkpt lat="48.63992" lon="4.9119">
        <ele>136.8</ele>
        <time>2020-06-30T12:12:57Z</time>
      </trkpt>
      <trkpt lat="48.63994" lon="4.9118">
        <ele>136.8</ele>
        <time>2020-06-30T12:12:58Z</time>
      </trkpt>
      <trkpt lat="48.63996" lon="4.91171">
        <ele>136.8</ele>
        <time>2020-06-30T12:12:59Z</time>
      </trkpt>
      <trkpt lat="48.63997" lon="4.91163">
        <ele>136.9</ele>
        <time>2020-06-30T12:13:00Z</time>
      </trkpt>
      <trkpt lat="48.63998" lon="4.91152">
        <ele>136.9</ele>
        <time>2020-06-30T12:13:01Z</time>
      </trkpt>
      <trkpt lat="48.63999" lon="4.91145">
        <ele>136.9</ele>
        <time>2020-06-30T12:13:02Z</time>
      </trkpt>
      <trkpt lat="48.64" lon="4.91137">
        <ele>136.9</ele>
        <time>2020-06-30T12:13:03Z</time>
      </trkpt>
      <trkpt lat="48.64001" lon="4.91129">
        <ele>136.9</ele>
        <time>2020-06-30T12:13:04Z</time>
      </trkpt>
      <trkpt lat="48.64002" lon="4.91119">
        <ele>136.9</ele>
        <time>2020-06-30T12:13:05Z</time>
      </trkpt>
      <trkpt lat="48.64003" lon="4.91112">
        <ele>136.9</ele>
        <time>2020-06-30T12:13:06Z</time>
      </trkpt>
      <trkpt lat="48.64004" lon="4.91102">
        <ele>136.9</ele>
        <time>2020-06-30T12:13:07Z</time>
      </trkpt>
      <trkpt lat="48.64005" lon="4.91094">
        <ele>136.9</ele>
        <time>2020-06-30T12:13:08Z</time>
      </trkpt>
      <trkpt lat="48.64006" lon="4.91085">
        <ele>136.9</ele>
        <time>2020-06-30T12:13:09Z</time>
      </trkpt>
      <trkpt lat="48.64007" lon="4.91076">
        <ele>136.9</ele>
        <time>2020-06-30T12:13:10Z</time>
      </trkpt>
      <trkpt lat="48.64008" lon="4.91067">
        <ele>136.9</ele>
        <time>2020-06-30T12:13:11Z</time>
      </trkpt>
      <trkpt lat="48.6401" lon="4.9106">
        <ele>136.9</ele>
        <time>2020-06-30T12:13:12Z</time>
      </trkpt>
      <trkpt lat="48.64012" lon="4.9105">
        <ele>136.9</ele>
        <time>2020-06-30T12:13:13Z</time>
      </trkpt>
      <trkpt lat="48.64014" lon="4.9104">
        <ele>136.9</ele>
        <time>2020-06-30T12:13:14Z</time>
      </trkpt>
      <trkpt lat="48.64015" lon="4.91032">
        <ele>136.9</ele>
        <time>2020-06-30T12:13:15Z</time>
      </trkpt>
      <trkpt lat="48.64016" lon="4.91023">
        <ele>136.9</ele>
        <time>2020-06-30T12:13:16Z</time>
      </trkpt>
      <trkpt lat="48.64017" lon="4.91014">
        <ele>136.9</ele>
        <time>2020-06-30T12:13:17Z</time>
      </trkpt>
      <trkpt lat="48.64017" lon="4.91005">
        <ele>136.9</ele>
        <time>2020-06-30T12:13:18Z</time>
      </trkpt>
      <trkpt lat="48.64019" lon="4.90995">
        <ele>136.9</ele>
        <time>2020-06-30T12:13:19Z</time>
      </trkpt>
      <trkpt lat="48.6402" lon="4.90986">
        <ele>136.9</ele>
        <time>2020-06-30T12:13:20Z</time>
      </trkpt>
      <trkpt lat="48.64021" lon="4.90978">
        <ele>136.9</ele>
        <time>2020-06-30T12:13:21Z</time>
      </trkpt>
      <trkpt lat="48.64023" lon="4.90969">
        <ele>136.9</ele>
        <time>2020-06-30T12:13:22Z</time>
      </trkpt>
      <trkpt lat="48.64024" lon="4.9096">
        <ele>136.9</ele>
        <time>2020-06-30T12:13:23Z</time>
      </trkpt>
      <trkpt lat="48.64026" lon="4.90951">
        <ele>137</ele>
        <time>2020-06-30T12:13:24Z</time>
      </trkpt>
      <trkpt lat="48.64027" lon="4.90943">
        <ele>137</ele>
        <time>2020-06-30T12:13:25Z</time>
      </trkpt>
      <trkpt lat="48.64029" lon="4.90935">
        <ele>137</ele>
        <time>2020-06-30T12:13:26Z</time>
      </trkpt>
      <trkpt lat="48.64031" lon="4.90927">
        <ele>137</ele>
        <time>2020-06-30T12:13:27Z</time>
      </trkpt>
      <trkpt lat="48.64032" lon="4.90917">
        <ele>136.9</ele>
        <time>2020-06-30T12:13:28Z</time>
      </trkpt>
      <trkpt lat="48.64034" lon="4.90908">
        <ele>136.9</ele>
        <time>2020-06-30T12:13:29Z</time>
      </trkpt>
      <trkpt lat="48.64035" lon="4.90899">
        <ele>136.9</ele>
        <time>2020-06-30T12:13:30Z</time>
      </trkpt>
      <trkpt lat="48.64036" lon="4.9089">
        <ele>136.8</ele>
        <time>2020-06-30T12:13:31Z</time>
      </trkpt>
      <trkpt lat="48.64037" lon="4.90883">
        <ele>136.8</ele>
        <time>2020-06-30T12:13:32Z</time>
      </trkpt>
      <trkpt lat="48.64038" lon="4.90874">
        <ele>136.8</ele>
        <time>2020-06-30T12:13:33Z</time>
      </trkpt>
      <trkpt lat="48.64039" lon="4.90865">
        <ele>136.8</ele>
        <time>2020-06-30T12:13:34Z</time>
      </trkpt>
      <trkpt lat="48.64041" lon="4.90856">
        <ele>136.8</ele>
        <time>2020-06-30T12:13:35Z</time>
      </trkpt>
      <trkpt lat="48.64042" lon="4.90847">
        <ele>136.8</ele>
        <time>2020-06-30T12:13:36Z</time>
      </trkpt>
      <trkpt lat="48.64044" lon="4.90839">
        <ele>136.8</ele>
        <time>2020-06-30T12:13:37Z</time>
      </trkpt>
      <trkpt lat="48.64045" lon="4.90829">
        <ele>136.8</ele>
        <time>2020-06-30T12:13:38Z</time>
      </trkpt>
      <trkpt lat="48.64046" lon="4.9082">
        <ele>136.8</ele>
        <time>2020-06-30T12:13:39Z</time>
      </trkpt>
      <trkpt lat="48.64046" lon="4.90811">
        <ele>136.9</ele>
        <time>2020-06-30T12:13:40Z</time>
      </trkpt>
      <trkpt lat="48.64047" lon="4.90802">
        <ele>136.9</ele>
        <time>2020-06-30T12:13:41Z</time>
      </trkpt>
      <trkpt lat="48.64048" lon="4.90794">
        <ele>136.9</ele>
        <time>2020-06-30T12:13:42Z</time>
      </trkpt>
      <trkpt lat="48.64049" lon="4.90785">
        <ele>136.9</ele>
        <time>2020-06-30T12:13:43Z</time>
      </trkpt>
      <trkpt lat="48.64051" lon="4.90776">
        <ele>136.9</ele>
        <time>2020-06-30T12:13:44Z</time>
      </trkpt>
      <trkpt lat="48.64052" lon="4.90767">
        <ele>137</ele>
        <time>2020-06-30T12:13:45Z</time>
      </trkpt>
      <trkpt lat="48.64053" lon="4.9076">
        <ele>137</ele>
        <time>2020-06-30T12:13:46Z</time>
      </trkpt>
      <trkpt lat="48.64054" lon="4.90751">
        <ele>137</ele>
        <time>2020-06-30T12:13:47Z</time>
      </trkpt>
      <trkpt lat="48.64056" lon="4.90743">
        <ele>137</ele>
        <time>2020-06-30T12:13:48Z</time>
      </trkpt>
      <trkpt lat="48.64057" lon="4.90734">
        <ele>137</ele>
        <time>2020-06-30T12:13:49Z</time>
      </trkpt>
      <trkpt lat="48.64059" lon="4.90725">
        <ele>137</ele>
        <time>2020-06-30T12:13:50Z</time>
      </trkpt>
      <trkpt lat="48.64061" lon="4.90716">
        <ele>137</ele>
        <time>2020-06-30T12:13:51Z</time>
      </trkpt>
      <trkpt lat="48.64063" lon="4.90706">
        <ele>137.1</ele>
        <time>2020-06-30T12:13:52Z</time>
      </trkpt>
      <trkpt lat="48.64064" lon="4.90698">
        <ele>137.1</ele>
        <time>2020-06-30T12:13:53Z</time>
      </trkpt>
      <trkpt lat="48.64065" lon="4.90689">
        <ele>137.1</ele>
        <time>2020-06-30T12:13:54Z</time>
      </trkpt>
      <trkpt lat="48.64067" lon="4.9068">
        <ele>137.1</ele>
        <time>2020-06-30T12:13:55Z</time>
      </trkpt>
      <trkpt lat="48.64068" lon="4.90672">
        <ele>137.1</ele>
        <time>2020-06-30T12:13:56Z</time>
      </trkpt>
      <trkpt lat="48.64069" lon="4.90662">
        <ele>137.1</ele>
        <time>2020-06-30T12:13:57Z</time>
      </trkpt>
      <trkpt lat="48.6407" lon="4.90654">
        <ele>137.1</ele>
        <time>2020-06-30T12:13:58Z</time>
      </trkpt>
      <trkpt lat="48.64071" lon="4.90644">
        <ele>137.1</ele>
        <time>2020-06-30T12:13:59Z</time>
      </trkpt>
      <trkpt lat="48.64072" lon="4.90636">
        <ele>137.2</ele>
        <time>2020-06-30T12:14:00Z</time>
      </trkpt>
      <trkpt lat="48.64073" lon="4.9063">
        <ele>137.2</ele>
        <time>2020-06-30T12:14:01Z</time>
      </trkpt>
      <trkpt lat="48.64074" lon="4.90622">
        <ele>137.2</ele>
        <time>2020-06-30T12:14:02Z</time>
      </trkpt>
      <trkpt lat="48.64075" lon="4.90613">
        <ele>137.2</ele>
        <time>2020-06-30T12:14:03Z</time>
      </trkpt>
      <trkpt lat="48.64076" lon="4.90604">
        <ele>137.2</ele>
        <time>2020-06-30T12:14:04Z</time>
      </trkpt>
      <trkpt lat="48.64078" lon="4.90596">
        <ele>137.2</ele>
        <time>2020-06-30T12:14:05Z</time>
      </trkpt>
      <trkpt lat="48.64079" lon="4.90586">
        <ele>137.2</ele>
        <time>2020-06-30T12:14:06Z</time>
      </trkpt>
      <trkpt lat="48.6408" lon="4.90576">
        <ele>137.2</ele>
        <time>2020-06-30T12:14:07Z</time>
      </trkpt>
      <trkpt lat="48.64082" lon="4.90568">
        <ele>137.2</ele>
        <time>2020-06-30T12:14:08Z</time>
      </trkpt>
      <trkpt lat="48.64083" lon="4.9056">
        <ele>137.2</ele>
        <time>2020-06-30T12:14:09Z</time>
      </trkpt>
      <trkpt lat="48.64084" lon="4.90552">
        <ele>137.2</ele>
        <time>2020-06-30T12:14:10Z</time>
      </trkpt>
      <trkpt lat="48.64086" lon="4.90544">
        <ele>137.2</ele>
        <time>2020-06-30T12:14:11Z</time>
      </trkpt>
      <trkpt lat="48.64088" lon="4.90537">
        <ele>137.2</ele>
        <time>2020-06-30T12:14:12Z</time>
      </trkpt>
      <trkpt lat="48.64088" lon="4.90526">
        <ele>137.1</ele>
        <time>2020-06-30T12:14:13Z</time>
      </trkpt>
      <trkpt lat="48.6409" lon="4.90517">
        <ele>137.1</ele>
        <time>2020-06-30T12:14:14Z</time>
      </trkpt>
      <trkpt lat="48.64092" lon="4.90508">
        <ele>137.1</ele>
        <time>2020-06-30T12:14:15Z</time>
      </trkpt>
      <trkpt lat="48.64092" lon="4.90498">
        <ele>137.1</ele>
        <time>2020-06-30T12:14:16Z</time>
      </trkpt>
      <trkpt lat="48.64093" lon="4.9049">
        <ele>137</ele>
        <time>2020-06-30T12:14:17Z</time>
      </trkpt>
      <trkpt lat="48.64096" lon="4.90483">
        <ele>137</ele>
        <time>2020-06-30T12:14:18Z</time>
      </trkpt>
      <trkpt lat="48.64097" lon="4.90475">
        <ele>137</ele>
        <time>2020-06-30T12:14:19Z</time>
      </trkpt>
      <trkpt lat="48.64098" lon="4.90467">
        <ele>137</ele>
        <time>2020-06-30T12:14:20Z</time>
      </trkpt>
      <trkpt lat="48.64099" lon="4.90459">
        <ele>136.9</ele>
        <time>2020-06-30T12:14:21Z</time>
      </trkpt>
      <trkpt lat="48.64099" lon="4.90451">
        <ele>136.9</ele>
        <time>2020-06-30T12:14:22Z</time>
      </trkpt>
      <trkpt lat="48.641" lon="4.90444">
        <ele>136.9</ele>
        <time>2020-06-30T12:14:23Z</time>
      </trkpt>
      <trkpt lat="48.641" lon="4.9044">
        <ele>136.9</ele>
        <time>2020-06-30T12:14:24Z</time>
      </trkpt>
      <trkpt lat="48.641" lon="4.90433">
        <ele>136.9</ele>
        <time>2020-06-30T12:14:25Z</time>
      </trkpt>
      <trkpt lat="48.64101" lon="4.9043">
        <ele>136.9</ele>
        <time>2020-06-30T12:14:26Z</time>
      </trkpt>
      <trkpt lat="48.64101" lon="4.90426">
        <ele>136.9</ele>
        <time>2020-06-30T12:14:27Z</time>
      </trkpt>
      <trkpt lat="48.64101" lon="4.90424">
        <ele>136.9</ele>
        <time>2020-06-30T12:14:28Z</time>
      </trkpt>
      <trkpt lat="48.641" lon="4.90418">
        <ele>136.9</ele>
        <time>2020-06-30T12:14:29Z</time>
      </trkpt>
      <trkpt lat="48.641" lon="4.90411">
        <ele>136.8</ele>
        <time>2020-06-30T12:14:30Z</time>
      </trkpt>
      <trkpt lat="48.64101" lon="4.90404">
        <ele>136.8</ele>
        <time>2020-06-30T12:14:31Z</time>
      </trkpt>
      <trkpt lat="48.64102" lon="4.90399">
        <ele>136.8</ele>
        <time>2020-06-30T12:14:32Z</time>
      </trkpt>
      <trkpt lat="48.64104" lon="4.90394">
        <ele>136.8</ele>
        <time>2020-06-30T12:14:33Z</time>
      </trkpt>
      <trkpt lat="48.64104" lon="4.9039">
        <ele>136.8</ele>
        <time>2020-06-30T12:14:34Z</time>
      </trkpt>
      <trkpt lat="48.64106" lon="4.90384">
        <ele>136.7</ele>
        <time>2020-06-30T12:14:35Z</time>
      </trkpt>
      <trkpt lat="48.64106" lon="4.90382">
        <ele>136.7</ele>
        <time>2020-06-30T12:14:36Z</time>
      </trkpt>
      <trkpt lat="48.64107" lon="4.9038">
        <ele>136.7</ele>
        <time>2020-06-30T12:14:37Z</time>
      </trkpt>
      <trkpt lat="48.64108" lon="4.90377">
        <ele>136.7</ele>
        <time>2020-06-30T12:14:38Z</time>
      </trkpt>
      <trkpt lat="48.64108" lon="4.90372">
        <ele>136.6</ele>
        <time>2020-06-30T12:14:39Z</time>
      </trkpt>
      <trkpt lat="48.64109" lon="4.90368">
        <ele>136.5</ele>
        <time>2020-06-30T12:14:40Z</time>
      </trkpt>
      <trkpt lat="48.64109" lon="4.90366">
        <ele>136.4</ele>
        <time>2020-06-30T12:14:41Z</time>
      </trkpt>
      <trkpt lat="48.6411" lon="4.90363">
        <ele>136.3</ele>
        <time>2020-06-30T12:14:42Z</time>
      </trkpt>
      <trkpt lat="48.6411" lon="4.90361">
        <ele>136.3</ele>
        <time>2020-06-30T12:14:43Z</time>
      </trkpt>
      <trkpt lat="48.64111" lon="4.90357">
        <ele>136.2</ele>
        <time>2020-06-30T12:14:44Z</time>
      </trkpt>
      <trkpt lat="48.64112" lon="4.90353">
        <ele>136</ele>
        <time>2020-06-30T12:14:45Z</time>
      </trkpt>
      <trkpt lat="48.64113" lon="4.90346">
        <ele>135.8</ele>
        <time>2020-06-30T12:14:46Z</time>
      </trkpt>
      <trkpt lat="48.64115" lon="4.90338">
        <ele>135.5</ele>
        <time>2020-06-30T12:14:47Z</time>
      </trkpt>
      <trkpt lat="48.64116" lon="4.90329">
        <ele>135.3</ele>
        <time>2020-06-30T12:14:48Z</time>
      </trkpt>
      <trkpt lat="48.64118" lon="4.90322">
        <ele>135.1</ele>
        <time>2020-06-30T12:14:49Z</time>
      </trkpt>
      <trkpt lat="48.6412" lon="4.90314">
        <ele>134.9</ele>
        <time>2020-06-30T12:14:50Z</time>
      </trkpt>
      <trkpt lat="48.64121" lon="4.90305">
        <ele>134.7</ele>
        <time>2020-06-30T12:14:51Z</time>
      </trkpt>
      <trkpt lat="48.64124" lon="4.90296">
        <ele>134.6</ele>
        <time>2020-06-30T12:14:52Z</time>
      </trkpt>
      <trkpt lat="48.64126" lon="4.90287">
        <ele>134.6</ele>
        <time>2020-06-30T12:14:53Z</time>
      </trkpt>
      <trkpt lat="48.64126" lon="4.90278">
        <ele>134.5</ele>
        <time>2020-06-30T12:14:54Z</time>
      </trkpt>
      <trkpt lat="48.64128" lon="4.90271">
        <ele>134.5</ele>
        <time>2020-06-30T12:14:55Z</time>
      </trkpt>
      <trkpt lat="48.6413" lon="4.90261">
        <ele>134.5</ele>
        <time>2020-06-30T12:14:56Z</time>
      </trkpt>
      <trkpt lat="48.6413" lon="4.90253">
        <ele>134.4</ele>
        <time>2020-06-30T12:14:57Z</time>
      </trkpt>
      <trkpt lat="48.6413" lon="4.90245">
        <ele>134.4</ele>
        <time>2020-06-30T12:14:58Z</time>
      </trkpt>
      <trkpt lat="48.64132" lon="4.90238">
        <ele>134.4</ele>
        <time>2020-06-30T12:14:59Z</time>
      </trkpt>
      <trkpt lat="48.64133" lon="4.9023">
        <ele>134.3</ele>
        <time>2020-06-30T12:15:00Z</time>
      </trkpt>
      <trkpt lat="48.64134" lon="4.90224">
        <ele>134.3</ele>
        <time>2020-06-30T12:15:01Z</time>
      </trkpt>
      <trkpt lat="48.64135" lon="4.90216">
        <ele>134.2</ele>
        <time>2020-06-30T12:15:02Z</time>
      </trkpt>
      <trkpt lat="48.64136" lon="4.90209">
        <ele>134.2</ele>
        <time>2020-06-30T12:15:03Z</time>
      </trkpt>
      <trkpt lat="48.64137" lon="4.90201">
        <ele>134.2</ele>
        <time>2020-06-30T12:15:04Z</time>
      </trkpt>
      <trkpt lat="48.64138" lon="4.90194">
        <ele>134.2</ele>
        <time>2020-06-30T12:15:05Z</time>
      </trkpt>
      <trkpt lat="48.64138" lon="4.90187">
        <ele>134.2</ele>
        <time>2020-06-30T12:15:06Z</time>
      </trkpt>
      <trkpt lat="48.64139" lon="4.90179">
        <ele>134.2</ele>
        <time>2020-06-30T12:15:07Z</time>
      </trkpt>
      <trkpt lat="48.64141" lon="4.90171">
        <ele>134.2</ele>
        <time>2020-06-30T12:15:08Z</time>
      </trkpt>
      <trkpt lat="48.64143" lon="4.90162">
        <ele>134.2</ele>
        <time>2020-06-30T12:15:09Z</time>
      </trkpt>
      <trkpt lat="48.64143" lon="4.90153">
        <ele>134.2</ele>
        <time>2020-06-30T12:15:10Z</time>
      </trkpt>
      <trkpt lat="48.64144" lon="4.90146">
        <ele>134.2</ele>
        <time>2020-06-30T12:15:11Z</time>
      </trkpt>
      <trkpt lat="48.64145" lon="4.90138">
        <ele>134.2</ele>
        <time>2020-06-30T12:15:12Z</time>
      </trkpt>
      <trkpt lat="48.64146" lon="4.9013">
        <ele>134.2</ele>
        <time>2020-06-30T12:15:13Z</time>
      </trkpt>
      <trkpt lat="48.64148" lon="4.90119">
        <ele>134.1</ele>
        <time>2020-06-30T12:15:14Z</time>
      </trkpt>
      <trkpt lat="48.6415" lon="4.90111">
        <ele>134.1</ele>
        <time>2020-06-30T12:15:15Z</time>
      </trkpt>
      <trkpt lat="48.64152" lon="4.90101">
        <ele>134</ele>
        <time>2020-06-30T12:15:16Z</time>
      </trkpt>
      <trkpt lat="48.64154" lon="4.90091">
        <ele>134</ele>
        <time>2020-06-30T12:15:17Z</time>
      </trkpt>
      <trkpt lat="48.64156" lon="4.90081">
        <ele>134</ele>
        <time>2020-06-30T12:15:18Z</time>
      </trkpt>
      <trkpt lat="48.64156" lon="4.90073">
        <ele>134</ele>
        <time>2020-06-30T12:15:19Z</time>
      </trkpt>
      <trkpt lat="48.64157" lon="4.90063">
        <ele>134</ele>
        <time>2020-06-30T12:15:20Z</time>
      </trkpt>
      <trkpt lat="48.64157" lon="4.90054">
        <ele>134</ele>
        <time>2020-06-30T12:15:21Z</time>
      </trkpt>
      <trkpt lat="48.64159" lon="4.90045">
        <ele>134</ele>
        <time>2020-06-30T12:15:22Z</time>
      </trkpt>
      <trkpt lat="48.64161" lon="4.90037">
        <ele>134</ele>
        <time>2020-06-30T12:15:23Z</time>
      </trkpt>
      <trkpt lat="48.64162" lon="4.90028">
        <ele>134</ele>
        <time>2020-06-30T12:15:24Z</time>
      </trkpt>
      <trkpt lat="48.64164" lon="4.90018">
        <ele>134</ele>
        <time>2020-06-30T12:15:25Z</time>
      </trkpt>
      <trkpt lat="48.64166" lon="4.90009">
        <ele>134</ele>
        <time>2020-06-30T12:15:26Z</time>
      </trkpt>
      <trkpt lat="48.64167" lon="4.9">
        <ele>134</ele>
        <time>2020-06-30T12:15:27Z</time>
      </trkpt>
      <trkpt lat="48.64168" lon="4.89992">
        <ele>134.1</ele>
        <time>2020-06-30T12:15:28Z</time>
      </trkpt>
      <trkpt lat="48.64169" lon="4.89983">
        <ele>134.1</ele>
        <time>2020-06-30T12:15:29Z</time>
      </trkpt>
      <trkpt lat="48.6417" lon="4.89973">
        <ele>134.1</ele>
        <time>2020-06-30T12:15:30Z</time>
      </trkpt>
      <trkpt lat="48.64171" lon="4.89965">
        <ele>134.2</ele>
        <time>2020-06-30T12:15:31Z</time>
      </trkpt>
      <trkpt lat="48.64172" lon="4.89957">
        <ele>134.2</ele>
        <time>2020-06-30T12:15:32Z</time>
      </trkpt>
      <trkpt lat="48.64173" lon="4.89949">
        <ele>134.2</ele>
        <time>2020-06-30T12:15:33Z</time>
      </trkpt>
      <trkpt lat="48.64174" lon="4.89939">
        <ele>134.2</ele>
        <time>2020-06-30T12:15:34Z</time>
      </trkpt>
      <trkpt lat="48.64175" lon="4.89931">
        <ele>134.2</ele>
        <time>2020-06-30T12:15:35Z</time>
      </trkpt>
      <trkpt lat="48.64176" lon="4.89921">
        <ele>134.2</ele>
        <time>2020-06-30T12:15:36Z</time>
      </trkpt>
      <trkpt lat="48.64177" lon="4.89912">
        <ele>134.2</ele>
        <time>2020-06-30T12:15:37Z</time>
      </trkpt>
      <trkpt lat="48.64178" lon="4.89903">
        <ele>134.2</ele>
        <time>2020-06-30T12:15:38Z</time>
      </trkpt>
      <trkpt lat="48.6418" lon="4.89895">
        <ele>134.2</ele>
        <time>2020-06-30T12:15:39Z</time>
      </trkpt>
      <trkpt lat="48.64181" lon="4.89886">
        <ele>134.2</ele>
        <time>2020-06-30T12:15:40Z</time>
      </trkpt>
      <trkpt lat="48.64182" lon="4.89878">
        <ele>134.2</ele>
        <time>2020-06-30T12:15:41Z</time>
      </trkpt>
      <trkpt lat="48.64183" lon="4.8987">
        <ele>134.2</ele>
        <time>2020-06-30T12:15:42Z</time>
      </trkpt>
      <trkpt lat="48.64184" lon="4.89861">
        <ele>134.2</ele>
        <time>2020-06-30T12:15:43Z</time>
      </trkpt>
      <trkpt lat="48.64186" lon="4.89852">
        <ele>134.2</ele>
        <time>2020-06-30T12:15:44Z</time>
      </trkpt>
      <trkpt lat="48.64187" lon="4.89844">
        <ele>134.1</ele>
        <time>2020-06-30T12:15:45Z</time>
      </trkpt>
      <trkpt lat="48.64189" lon="4.89833">
        <ele>134.2</ele>
        <time>2020-06-30T12:15:46Z</time>
      </trkpt>
      <trkpt lat="48.6419" lon="4.89823">
        <ele>134.2</ele>
        <time>2020-06-30T12:15:47Z</time>
      </trkpt>
      <trkpt lat="48.64191" lon="4.89813">
        <ele>134.2</ele>
        <time>2020-06-30T12:15:48Z</time>
      </trkpt>
      <trkpt lat="48.64193" lon="4.89804">
        <ele>134.2</ele>
        <time>2020-06-30T12:15:49Z</time>
      </trkpt>
      <trkpt lat="48.64194" lon="4.89795">
        <ele>134.2</ele>
        <time>2020-06-30T12:15:50Z</time>
      </trkpt>
      <trkpt lat="48.64196" lon="4.89785">
        <ele>134.2</ele>
        <time>2020-06-30T12:15:51Z</time>
      </trkpt>
      <trkpt lat="48.64197" lon="4.89776">
        <ele>134.2</ele>
        <time>2020-06-30T12:15:52Z</time>
      </trkpt>
      <trkpt lat="48.64198" lon="4.89766">
        <ele>134.2</ele>
        <time>2020-06-30T12:15:53Z</time>
      </trkpt>
      <trkpt lat="48.64199" lon="4.89757">
        <ele>134.1</ele>
        <time>2020-06-30T12:15:54Z</time>
      </trkpt>
      <trkpt lat="48.642" lon="4.89748">
        <ele>134.1</ele>
        <time>2020-06-30T12:15:55Z</time>
      </trkpt>
      <trkpt lat="48.64202" lon="4.8974">
        <ele>134.1</ele>
        <time>2020-06-30T12:15:56Z</time>
      </trkpt>
      <trkpt lat="48.64203" lon="4.89731">
        <ele>134.1</ele>
        <time>2020-06-30T12:15:57Z</time>
      </trkpt>
      <trkpt lat="48.64205" lon="4.89722">
        <ele>134.1</ele>
        <time>2020-06-30T12:15:58Z</time>
      </trkpt>
      <trkpt lat="48.64205" lon="4.89713">
        <ele>134.1</ele>
        <time>2020-06-30T12:15:59Z</time>
      </trkpt>
      <trkpt lat="48.64206" lon="4.89704">
        <ele>134.1</ele>
        <time>2020-06-30T12:16:00Z</time>
      </trkpt>
      <trkpt lat="48.64208" lon="4.89693">
        <ele>134.1</ele>
        <time>2020-06-30T12:16:01Z</time>
      </trkpt>
      <trkpt lat="48.64208" lon="4.89684">
        <ele>134.1</ele>
        <time>2020-06-30T12:16:02Z</time>
      </trkpt>
      <trkpt lat="48.6421" lon="4.89673">
        <ele>134.1</ele>
        <time>2020-06-30T12:16:03Z</time>
      </trkpt>
      <trkpt lat="48.64212" lon="4.89665">
        <ele>134.1</ele>
        <time>2020-06-30T12:16:04Z</time>
      </trkpt>
      <trkpt lat="48.64214" lon="4.89658">
        <ele>134.1</ele>
        <time>2020-06-30T12:16:05Z</time>
      </trkpt>
      <trkpt lat="48.64216" lon="4.89649">
        <ele>134.1</ele>
        <time>2020-06-30T12:16:06Z</time>
      </trkpt>
      <trkpt lat="48.64216" lon="4.89641">
        <ele>134.1</ele>
        <time>2020-06-30T12:16:07Z</time>
      </trkpt>
      <trkpt lat="48.64218" lon="4.89632">
        <ele>134.1</ele>
        <time>2020-06-30T12:16:08Z</time>
      </trkpt>
      <trkpt lat="48.64219" lon="4.89625">
        <ele>134.1</ele>
        <time>2020-06-30T12:16:09Z</time>
      </trkpt>
      <trkpt lat="48.64221" lon="4.89617">
        <ele>134.1</ele>
        <time>2020-06-30T12:16:10Z</time>
      </trkpt>
      <trkpt lat="48.64223" lon="4.89607">
        <ele>134.1</ele>
        <time>2020-06-30T12:16:11Z</time>
      </trkpt>
      <trkpt lat="48.64224" lon="4.89596">
        <ele>134.1</ele>
        <time>2020-06-30T12:16:12Z</time>
      </trkpt>
      <trkpt lat="48.64226" lon="4.89587">
        <ele>134.1</ele>
        <time>2020-06-30T12:16:13Z</time>
      </trkpt>
      <trkpt lat="48.64227" lon="4.89577">
        <ele>134.1</ele>
        <time>2020-06-30T12:16:14Z</time>
      </trkpt>
      <trkpt lat="48.64228" lon="4.89568">
        <ele>134</ele>
        <time>2020-06-30T12:16:15Z</time>
      </trkpt>
      <trkpt lat="48.64229" lon="4.89559">
        <ele>134</ele>
        <time>2020-06-30T12:16:16Z</time>
      </trkpt>
      <trkpt lat="48.64231" lon="4.89549">
        <ele>134</ele>
        <time>2020-06-30T12:16:17Z</time>
      </trkpt>
      <trkpt lat="48.64232" lon="4.8954">
        <ele>134</ele>
        <time>2020-06-30T12:16:18Z</time>
      </trkpt>
      <trkpt lat="48.64233" lon="4.89531">
        <ele>134</ele>
        <time>2020-06-30T12:16:19Z</time>
      </trkpt>
      <trkpt lat="48.64235" lon="4.89522">
        <ele>134</ele>
        <time>2020-06-30T12:16:20Z</time>
      </trkpt>
      <trkpt lat="48.64236" lon="4.89513">
        <ele>134</ele>
        <time>2020-06-30T12:16:21Z</time>
      </trkpt>
      <trkpt lat="48.64237" lon="4.89505">
        <ele>134</ele>
        <time>2020-06-30T12:16:22Z</time>
      </trkpt>
      <trkpt lat="48.64238" lon="4.89496">
        <ele>134.1</ele>
        <time>2020-06-30T12:16:23Z</time>
      </trkpt>
      <trkpt lat="48.64239" lon="4.89487">
        <ele>134.1</ele>
        <time>2020-06-30T12:16:24Z</time>
      </trkpt>
      <trkpt lat="48.64241" lon="4.8948">
        <ele>134.1</ele>
        <time>2020-06-30T12:16:25Z</time>
      </trkpt>
      <trkpt lat="48.64243" lon="4.89471">
        <ele>134.1</ele>
        <time>2020-06-30T12:16:26Z</time>
      </trkpt>
      <trkpt lat="48.64244" lon="4.89461">
        <ele>134.1</ele>
        <time>2020-06-30T12:16:27Z</time>
      </trkpt>
      <trkpt lat="48.64245" lon="4.8945">
        <ele>134.2</ele>
        <time>2020-06-30T12:16:28Z</time>
      </trkpt>
      <trkpt lat="48.64246" lon="4.89443">
        <ele>134.2</ele>
        <time>2020-06-30T12:16:29Z</time>
      </trkpt>
      <trkpt lat="48.64248" lon="4.89431">
        <ele>134.2</ele>
        <time>2020-06-30T12:16:30Z</time>
      </trkpt>
      <trkpt lat="48.64249" lon="4.89424">
        <ele>134.2</ele>
        <time>2020-06-30T12:16:31Z</time>
      </trkpt>
      <trkpt lat="48.6425" lon="4.89415">
        <ele>134.2</ele>
        <time>2020-06-30T12:16:32Z</time>
      </trkpt>
      <trkpt lat="48.64252" lon="4.89409">
        <ele>134.2</ele>
        <time>2020-06-30T12:16:33Z</time>
      </trkpt>
      <trkpt lat="48.64253" lon="4.894">
        <ele>134.2</ele>
        <time>2020-06-30T12:16:34Z</time>
      </trkpt>
      <trkpt lat="48.64254" lon="4.89393">
        <ele>134.1</ele>
        <time>2020-06-30T12:16:35Z</time>
      </trkpt>
      <trkpt lat="48.64256" lon="4.89384">
        <ele>134.1</ele>
        <time>2020-06-30T12:16:36Z</time>
      </trkpt>
      <trkpt lat="48.64257" lon="4.89374">
        <ele>134.2</ele>
        <time>2020-06-30T12:16:37Z</time>
      </trkpt>
      <trkpt lat="48.64259" lon="4.89365">
        <ele>134.2</ele>
        <time>2020-06-30T12:16:38Z</time>
      </trkpt>
      <trkpt lat="48.6426" lon="4.89356">
        <ele>134.2</ele>
        <time>2020-06-30T12:16:39Z</time>
      </trkpt>
      <trkpt lat="48.64261" lon="4.89345">
        <ele>134.2</ele>
        <time>2020-06-30T12:16:40Z</time>
      </trkpt>
      <trkpt lat="48.64261" lon="4.89335">
        <ele>134.2</ele>
        <time>2020-06-30T12:16:41Z</time>
      </trkpt>
      <trkpt lat="48.64261" lon="4.89325">
        <ele>134.2</ele>
        <time>2020-06-30T12:16:42Z</time>
      </trkpt>
      <trkpt lat="48.64263" lon="4.89318">
        <ele>134.2</ele>
        <time>2020-06-30T12:16:43Z</time>
      </trkpt>
      <trkpt lat="48.64265" lon="4.8931">
        <ele>134.2</ele>
        <time>2020-06-30T12:16:44Z</time>
      </trkpt>
      <trkpt lat="48.64266" lon="4.89302">
        <ele>134.2</ele>
        <time>2020-06-30T12:16:45Z</time>
      </trkpt>
      <trkpt lat="48.64267" lon="4.89292">
        <ele>134.2</ele>
        <time>2020-06-30T12:16:46Z</time>
      </trkpt>
      <trkpt lat="48.64268" lon="4.89282">
        <ele>134.2</ele>
        <time>2020-06-30T12:16:47Z</time>
      </trkpt>
      <trkpt lat="48.64269" lon="4.89273">
        <ele>134.2</ele>
        <time>2020-06-30T12:16:48Z</time>
      </trkpt>
      <trkpt lat="48.64271" lon="4.89265">
        <ele>134.2</ele>
        <time>2020-06-30T12:16:49Z</time>
      </trkpt>
      <trkpt lat="48.64273" lon="4.89255">
        <ele>134.3</ele>
        <time>2020-06-30T12:16:50Z</time>
      </trkpt>
      <trkpt lat="48.64273" lon="4.89249">
        <ele>134.3</ele>
        <time>2020-06-30T12:16:51Z</time>
      </trkpt>
      <trkpt lat="48.64275" lon="4.8924">
        <ele>134.2</ele>
        <time>2020-06-30T12:16:52Z</time>
      </trkpt>
      <trkpt lat="48.64276" lon="4.8923">
        <ele>134.2</ele>
        <time>2020-06-30T12:16:53Z</time>
      </trkpt>
      <trkpt lat="48.64277" lon="4.89222">
        <ele>134.2</ele>
        <time>2020-06-30T12:16:54Z</time>
      </trkpt>
      <trkpt lat="48.64279" lon="4.89214">
        <ele>134.2</ele>
        <time>2020-06-30T12:16:55Z</time>
      </trkpt>
      <trkpt lat="48.6428" lon="4.89206">
        <ele>134.2</ele>
        <time>2020-06-30T12:16:56Z</time>
      </trkpt>
      <trkpt lat="48.64281" lon="4.89196">
        <ele>134.2</ele>
        <time>2020-06-30T12:16:57Z</time>
      </trkpt>
      <trkpt lat="48.64283" lon="4.89187">
        <ele>134.3</ele>
        <time>2020-06-30T12:16:58Z</time>
      </trkpt>
      <trkpt lat="48.64285" lon="4.89178">
        <ele>134.3</ele>
        <time>2020-06-30T12:16:59Z</time>
      </trkpt>
      <trkpt lat="48.64286" lon="4.89167">
        <ele>134.3</ele>
        <time>2020-06-30T12:17:00Z</time>
      </trkpt>
      <trkpt lat="48.64287" lon="4.89158">
        <ele>134.3</ele>
        <time>2020-06-30T12:17:01Z</time>
      </trkpt>
      <trkpt lat="48.64288" lon="4.89151">
        <ele>134.3</ele>
        <time>2020-06-30T12:17:02Z</time>
      </trkpt>
      <trkpt lat="48.6429" lon="4.89142">
        <ele>134.3</ele>
        <time>2020-06-30T12:17:03Z</time>
      </trkpt>
      <trkpt lat="48.64291" lon="4.89132">
        <ele>134.3</ele>
        <time>2020-06-30T12:17:04Z</time>
      </trkpt>
      <trkpt lat="48.64292" lon="4.89124">
        <ele>134.2</ele>
        <time>2020-06-30T12:17:05Z</time>
      </trkpt>
      <trkpt lat="48.64294" lon="4.89114">
        <ele>134.2</ele>
        <time>2020-06-30T12:17:06Z</time>
      </trkpt>
      <trkpt lat="48.64296" lon="4.89106">
        <ele>134.2</ele>
        <time>2020-06-30T12:17:07Z</time>
      </trkpt>
      <trkpt lat="48.64297" lon="4.89098">
        <ele>134.2</ele>
        <time>2020-06-30T12:17:08Z</time>
      </trkpt>
      <trkpt lat="48.64298" lon="4.89089">
        <ele>134.2</ele>
        <time>2020-06-30T12:17:09Z</time>
      </trkpt>
      <trkpt lat="48.643" lon="4.89079">
        <ele>134.3</ele>
        <time>2020-06-30T12:17:10Z</time>
      </trkpt>
      <trkpt lat="48.64301" lon="4.89071">
        <ele>134.2</ele>
        <time>2020-06-30T12:17:11Z</time>
      </trkpt>
      <trkpt lat="48.64302" lon="4.89062">
        <ele>134.1</ele>
        <time>2020-06-30T12:17:12Z</time>
      </trkpt>
      <trkpt lat="48.64303" lon="4.89052">
        <ele>134.1</ele>
        <time>2020-06-30T12:17:13Z</time>
      </trkpt>
      <trkpt lat="48.64304" lon="4.89044">
        <ele>134.1</ele>
        <time>2020-06-30T12:17:14Z</time>
      </trkpt>
      <trkpt lat="48.64305" lon="4.89035">
        <ele>134.1</ele>
        <time>2020-06-30T12:17:15Z</time>
      </trkpt>
      <trkpt lat="48.64307" lon="4.89025">
        <ele>134.1</ele>
        <time>2020-06-30T12:17:16Z</time>
      </trkpt>
      <trkpt lat="48.64308" lon="4.89016">
        <ele>134</ele>
        <time>2020-06-30T12:17:17Z</time>
      </trkpt>
      <trkpt lat="48.6431" lon="4.89007">
        <ele>134</ele>
        <time>2020-06-30T12:17:18Z</time>
      </trkpt>
      <trkpt lat="48.64311" lon="4.88999">
        <ele>134.1</ele>
        <time>2020-06-30T12:17:19Z</time>
      </trkpt>
      <trkpt lat="48.64313" lon="4.88989">
        <ele>134.1</ele>
        <time>2020-06-30T12:17:20Z</time>
      </trkpt>
      <trkpt lat="48.64314" lon="4.88978">
        <ele>134.1</ele>
        <time>2020-06-30T12:17:21Z</time>
      </trkpt>
      <trkpt lat="48.64315" lon="4.8897">
        <ele>134.1</ele>
        <time>2020-06-30T12:17:22Z</time>
      </trkpt>
      <trkpt lat="48.64316" lon="4.88961">
        <ele>134.1</ele>
        <time>2020-06-30T12:17:23Z</time>
      </trkpt>
      <trkpt lat="48.64317" lon="4.88954">
        <ele>134.1</ele>
        <time>2020-06-30T12:17:24Z</time>
      </trkpt>
      <trkpt lat="48.64318" lon="4.88945">
        <ele>134.1</ele>
        <time>2020-06-30T12:17:25Z</time>
      </trkpt>
      <trkpt lat="48.64319" lon="4.88937">
        <ele>134.1</ele>
        <time>2020-06-30T12:17:26Z</time>
      </trkpt>
      <trkpt lat="48.64321" lon="4.88927">
        <ele>134.1</ele>
        <time>2020-06-30T12:17:27Z</time>
      </trkpt>
      <trkpt lat="48.64322" lon="4.8892">
        <ele>134.1</ele>
        <time>2020-06-30T12:17:28Z</time>
      </trkpt>
      <trkpt lat="48.64323" lon="4.88911">
        <ele>134</ele>
        <time>2020-06-30T12:17:29Z</time>
      </trkpt>
      <trkpt lat="48.64325" lon="4.88902">
        <ele>134</ele>
        <time>2020-06-30T12:17:30Z</time>
      </trkpt>
      <trkpt lat="48.64326" lon="4.88893">
        <ele>134</ele>
        <time>2020-06-30T12:17:31Z</time>
      </trkpt>
      <trkpt lat="48.64327" lon="4.88883">
        <ele>134</ele>
        <time>2020-06-30T12:17:32Z</time>
      </trkpt>
      <trkpt lat="48.64329" lon="4.88874">
        <ele>133.9</ele>
        <time>2020-06-30T12:17:33Z</time>
      </trkpt>
      <trkpt lat="48.6433" lon="4.88865">
        <ele>133.9</ele>
        <time>2020-06-30T12:17:34Z</time>
      </trkpt>
      <trkpt lat="48.6433" lon="4.88856">
        <ele>133.9</ele>
        <time>2020-06-30T12:17:35Z</time>
      </trkpt>
      <trkpt lat="48.64331" lon="4.88846">
        <ele>133.9</ele>
        <time>2020-06-30T12:17:36Z</time>
      </trkpt>
      <trkpt lat="48.64332" lon="4.88834">
        <ele>133.9</ele>
        <time>2020-06-30T12:17:37Z</time>
      </trkpt>
      <trkpt lat="48.64334" lon="4.88826">
        <ele>133.9</ele>
        <time>2020-06-30T12:17:38Z</time>
      </trkpt>
      <trkpt lat="48.64336" lon="4.88816">
        <ele>133.9</ele>
        <time>2020-06-30T12:17:39Z</time>
      </trkpt>
      <trkpt lat="48.64337" lon="4.88807">
        <ele>133.9</ele>
        <time>2020-06-30T12:17:40Z</time>
      </trkpt>
      <trkpt lat="48.64338" lon="4.88799">
        <ele>133.9</ele>
        <time>2020-06-30T12:17:41Z</time>
      </trkpt>
      <trkpt lat="48.6434" lon="4.88791">
        <ele>133.9</ele>
        <time>2020-06-30T12:17:42Z</time>
      </trkpt>
      <trkpt lat="48.64341" lon="4.88783">
        <ele>133.9</ele>
        <time>2020-06-30T12:17:43Z</time>
      </trkpt>
      <trkpt lat="48.64342" lon="4.88775">
        <ele>133.9</ele>
        <time>2020-06-30T12:17:44Z</time>
      </trkpt>
      <trkpt lat="48.64344" lon="4.88767">
        <ele>133.9</ele>
        <time>2020-06-30T12:17:45Z</time>
      </trkpt>
      <trkpt lat="48.64345" lon="4.88758">
        <ele>133.9</ele>
        <time>2020-06-30T12:17:46Z</time>
      </trkpt>
      <trkpt lat="48.64347" lon="4.8875">
        <ele>133.9</ele>
        <time>2020-06-30T12:17:47Z</time>
      </trkpt>
      <trkpt lat="48.64349" lon="4.88742">
        <ele>133.9</ele>
        <time>2020-06-30T12:17:48Z</time>
      </trkpt>
      <trkpt lat="48.6435" lon="4.88733">
        <ele>133.8</ele>
        <time>2020-06-30T12:17:49Z</time>
      </trkpt>
      <trkpt lat="48.64352" lon="4.88724">
        <ele>133.8</ele>
        <time>2020-06-30T12:17:50Z</time>
      </trkpt>
      <trkpt lat="48.64353" lon="4.88715">
        <ele>133.8</ele>
        <time>2020-06-30T12:17:51Z</time>
      </trkpt>
      <trkpt lat="48.64354" lon="4.88706">
        <ele>133.9</ele>
        <time>2020-06-30T12:17:52Z</time>
      </trkpt>
      <trkpt lat="48.64356" lon="4.88696">
        <ele>133.9</ele>
        <time>2020-06-30T12:17:53Z</time>
      </trkpt>
      <trkpt lat="48.64357" lon="4.88687">
        <ele>133.9</ele>
        <time>2020-06-30T12:17:54Z</time>
      </trkpt>
      <trkpt lat="48.64358" lon="4.88677">
        <ele>133.9</ele>
        <time>2020-06-30T12:17:55Z</time>
      </trkpt>
      <trkpt lat="48.64359" lon="4.88668">
        <ele>133.9</ele>
        <time>2020-06-30T12:17:56Z</time>
      </trkpt>
      <trkpt lat="48.6436" lon="4.88659">
        <ele>133.9</ele>
        <time>2020-06-30T12:17:57Z</time>
      </trkpt>
      <trkpt lat="48.64362" lon="4.8865">
        <ele>133.9</ele>
        <time>2020-06-30T12:17:58Z</time>
      </trkpt>
      <trkpt lat="48.64362" lon="4.88644">
        <ele>133.9</ele>
        <time>2020-06-30T12:17:59Z</time>
      </trkpt>
      <trkpt lat="48.64363" lon="4.88635">
        <ele>133.9</ele>
        <time>2020-06-30T12:18:00Z</time>
      </trkpt>
      <trkpt lat="48.64364" lon="4.88626">
        <ele>133.9</ele>
        <time>2020-06-30T12:18:01Z</time>
      </trkpt>
      <trkpt lat="48.64366" lon="4.88617">
        <ele>133.9</ele>
        <time>2020-06-30T12:18:02Z</time>
      </trkpt>
      <trkpt lat="48.64368" lon="4.88607">
        <ele>133.9</ele>
        <time>2020-06-30T12:18:03Z</time>
      </trkpt>
      <trkpt lat="48.6437" lon="4.88599">
        <ele>133.9</ele>
        <time>2020-06-30T12:18:04Z</time>
      </trkpt>
      <trkpt lat="48.64371" lon="4.88588">
        <ele>133.9</ele>
        <time>2020-06-30T12:18:05Z</time>
      </trkpt>
      <trkpt lat="48.64372" lon="4.8858">
        <ele>134</ele>
        <time>2020-06-30T12:18:06Z</time>
      </trkpt>
      <trkpt lat="48.64374" lon="4.8857">
        <ele>134</ele>
        <time>2020-06-30T12:18:07Z</time>
      </trkpt>
      <trkpt lat="48.64375" lon="4.88561">
        <ele>134</ele>
        <time>2020-06-30T12:18:08Z</time>
      </trkpt>
      <trkpt lat="48.64376" lon="4.88551">
        <ele>134</ele>
        <time>2020-06-30T12:18:09Z</time>
      </trkpt>
      <trkpt lat="48.64377" lon="4.88542">
        <ele>134</ele>
        <time>2020-06-30T12:18:10Z</time>
      </trkpt>
      <trkpt lat="48.64379" lon="4.88535">
        <ele>134</ele>
        <time>2020-06-30T12:18:11Z</time>
      </trkpt>
      <trkpt lat="48.64379" lon="4.88526">
        <ele>134.1</ele>
        <time>2020-06-30T12:18:12Z</time>
      </trkpt>
      <trkpt lat="48.64381" lon="4.88517">
        <ele>134.1</ele>
        <time>2020-06-30T12:18:13Z</time>
      </trkpt>
      <trkpt lat="48.64382" lon="4.88509">
        <ele>134.1</ele>
        <time>2020-06-30T12:18:14Z</time>
      </trkpt>
      <trkpt lat="48.64383" lon="4.88498">
        <ele>134.1</ele>
        <time>2020-06-30T12:18:15Z</time>
      </trkpt>
      <trkpt lat="48.64383" lon="4.88489">
        <ele>134.1</ele>
        <time>2020-06-30T12:18:16Z</time>
      </trkpt>
      <trkpt lat="48.64385" lon="4.88479">
        <ele>134.1</ele>
        <time>2020-06-30T12:18:17Z</time>
      </trkpt>
      <trkpt lat="48.64386" lon="4.88471">
        <ele>134.1</ele>
        <time>2020-06-30T12:18:18Z</time>
      </trkpt>
      <trkpt lat="48.64387" lon="4.88462">
        <ele>134.1</ele>
        <time>2020-06-30T12:18:19Z</time>
      </trkpt>
      <trkpt lat="48.64389" lon="4.88453">
        <ele>134.1</ele>
        <time>2020-06-30T12:18:20Z</time>
      </trkpt>
      <trkpt lat="48.6439" lon="4.88443">
        <ele>134.1</ele>
        <time>2020-06-30T12:18:21Z</time>
      </trkpt>
      <trkpt lat="48.64393" lon="4.88435">
        <ele>134.1</ele>
        <time>2020-06-30T12:18:22Z</time>
      </trkpt>
      <trkpt lat="48.64394" lon="4.88426">
        <ele>134.1</ele>
        <time>2020-06-30T12:18:23Z</time>
      </trkpt>
      <trkpt lat="48.64396" lon="4.88418">
        <ele>134.1</ele>
        <time>2020-06-30T12:18:24Z</time>
      </trkpt>
      <trkpt lat="48.64397" lon="4.8841">
        <ele>134.2</ele>
        <time>2020-06-30T12:18:25Z</time>
      </trkpt>
      <trkpt lat="48.64398" lon="4.88402">
        <ele>134.2</ele>
        <time>2020-06-30T12:18:26Z</time>
      </trkpt>
      <trkpt lat="48.64399" lon="4.88394">
        <ele>134.2</ele>
        <time>2020-06-30T12:18:27Z</time>
      </trkpt>
      <trkpt lat="48.644" lon="4.88385">
        <ele>134.2</ele>
        <time>2020-06-30T12:18:28Z</time>
      </trkpt>
      <trkpt lat="48.64402" lon="4.88376">
        <ele>134.2</ele>
        <time>2020-06-30T12:18:29Z</time>
      </trkpt>
      <trkpt lat="48.64403" lon="4.88368">
        <ele>134.2</ele>
        <time>2020-06-30T12:18:30Z</time>
      </trkpt>
      <trkpt lat="48.64405" lon="4.88357">
        <ele>134.1</ele>
        <time>2020-06-30T12:18:31Z</time>
      </trkpt>
      <trkpt lat="48.64405" lon="4.88349">
        <ele>134.1</ele>
        <time>2020-06-30T12:18:32Z</time>
      </trkpt>
      <trkpt lat="48.64406" lon="4.88343">
        <ele>134.1</ele>
        <time>2020-06-30T12:18:33Z</time>
      </trkpt>
      <trkpt lat="48.64407" lon="4.88334">
        <ele>134.1</ele>
        <time>2020-06-30T12:18:34Z</time>
      </trkpt>
      <trkpt lat="48.64408" lon="4.88324">
        <ele>134.1</ele>
        <time>2020-06-30T12:18:35Z</time>
      </trkpt>
      <trkpt lat="48.64409" lon="4.88315">
        <ele>134.1</ele>
        <time>2020-06-30T12:18:36Z</time>
      </trkpt>
      <trkpt lat="48.6441" lon="4.88304">
        <ele>134.1</ele>
        <time>2020-06-30T12:18:37Z</time>
      </trkpt>
      <trkpt lat="48.64411" lon="4.88296">
        <ele>134.2</ele>
        <time>2020-06-30T12:18:38Z</time>
      </trkpt>
      <trkpt lat="48.64412" lon="4.88288">
        <ele>134.2</ele>
        <time>2020-06-30T12:18:39Z</time>
      </trkpt>
      <trkpt lat="48.64413" lon="4.88278">
        <ele>134.2</ele>
        <time>2020-06-30T12:18:40Z</time>
      </trkpt>
      <trkpt lat="48.64415" lon="4.88266">
        <ele>134.1</ele>
        <time>2020-06-30T12:18:41Z</time>
      </trkpt>
      <trkpt lat="48.64417" lon="4.88256">
        <ele>134.1</ele>
        <time>2020-06-30T12:18:42Z</time>
      </trkpt>
      <trkpt lat="48.64418" lon="4.88248">
        <ele>134.1</ele>
        <time>2020-06-30T12:18:43Z</time>
      </trkpt>
      <trkpt lat="48.64419" lon="4.88241">
        <ele>134.1</ele>
        <time>2020-06-30T12:18:44Z</time>
      </trkpt>
      <trkpt lat="48.6442" lon="4.88234">
        <ele>134.1</ele>
        <time>2020-06-30T12:18:45Z</time>
      </trkpt>
      <trkpt lat="48.64421" lon="4.88228">
        <ele>134.1</ele>
        <time>2020-06-30T12:18:46Z</time>
      </trkpt>
      <trkpt lat="48.64423" lon="4.88219">
        <ele>134.1</ele>
        <time>2020-06-30T12:18:47Z</time>
      </trkpt>
      <trkpt lat="48.64425" lon="4.8821">
        <ele>134.1</ele>
        <time>2020-06-30T12:18:48Z</time>
      </trkpt>
      <trkpt lat="48.64427" lon="4.88202">
        <ele>134.1</ele>
        <time>2020-06-30T12:18:49Z</time>
      </trkpt>
      <trkpt lat="48.64428" lon="4.88193">
        <ele>134.1</ele>
        <time>2020-06-30T12:18:50Z</time>
      </trkpt>
      <trkpt lat="48.64429" lon="4.88184">
        <ele>134.2</ele>
        <time>2020-06-30T12:18:51Z</time>
      </trkpt>
      <trkpt lat="48.6443" lon="4.88175">
        <ele>134.2</ele>
        <time>2020-06-30T12:18:52Z</time>
      </trkpt>
      <trkpt lat="48.64431" lon="4.88166">
        <ele>134.2</ele>
        <time>2020-06-30T12:18:53Z</time>
      </trkpt>
      <trkpt lat="48.64431" lon="4.88158">
        <ele>134.2</ele>
        <time>2020-06-30T12:18:54Z</time>
      </trkpt>
      <trkpt lat="48.64433" lon="4.88151">
        <ele>134.1</ele>
        <time>2020-06-30T12:18:55Z</time>
      </trkpt>
      <trkpt lat="48.64433" lon="4.88142">
        <ele>134.1</ele>
        <time>2020-06-30T12:18:56Z</time>
      </trkpt>
      <trkpt lat="48.64435" lon="4.88134">
        <ele>134.1</ele>
        <time>2020-06-30T12:18:57Z</time>
      </trkpt>
      <trkpt lat="48.64437" lon="4.88126">
        <ele>134.1</ele>
        <time>2020-06-30T12:18:58Z</time>
      </trkpt>
      <trkpt lat="48.64439" lon="4.88117">
        <ele>134.1</ele>
        <time>2020-06-30T12:18:59Z</time>
      </trkpt>
      <trkpt lat="48.6444" lon="4.88109">
        <ele>134.1</ele>
        <time>2020-06-30T12:19:00Z</time>
      </trkpt>
      <trkpt lat="48.64441" lon="4.88099">
        <ele>134.1</ele>
        <time>2020-06-30T12:19:01Z</time>
      </trkpt>
      <trkpt lat="48.64442" lon="4.8809">
        <ele>134.1</ele>
        <time>2020-06-30T12:19:02Z</time>
      </trkpt>
      <trkpt lat="48.64444" lon="4.88081">
        <ele>134</ele>
        <time>2020-06-30T12:19:03Z</time>
      </trkpt>
      <trkpt lat="48.64445" lon="4.88074">
        <ele>134</ele>
        <time>2020-06-30T12:19:04Z</time>
      </trkpt>
      <trkpt lat="48.64446" lon="4.88065">
        <ele>134</ele>
        <time>2020-06-30T12:19:05Z</time>
      </trkpt>
      <trkpt lat="48.64447" lon="4.88058">
        <ele>133.9</ele>
        <time>2020-06-30T12:19:06Z</time>
      </trkpt>
      <trkpt lat="48.64447" lon="4.88048">
        <ele>133.9</ele>
        <time>2020-06-30T12:19:07Z</time>
      </trkpt>
      <trkpt lat="48.64448" lon="4.88038">
        <ele>133.9</ele>
        <time>2020-06-30T12:19:08Z</time>
      </trkpt>
      <trkpt lat="48.64449" lon="4.88027">
        <ele>133.9</ele>
        <time>2020-06-30T12:19:09Z</time>
      </trkpt>
      <trkpt lat="48.6445" lon="4.88017">
        <ele>133.9</ele>
        <time>2020-06-30T12:19:10Z</time>
      </trkpt>
      <trkpt lat="48.64452" lon="4.88007">
        <ele>133.9</ele>
        <time>2020-06-30T12:19:11Z</time>
      </trkpt>
      <trkpt lat="48.64453" lon="4.87999">
        <ele>133.9</ele>
        <time>2020-06-30T12:19:12Z</time>
      </trkpt>
      <trkpt lat="48.64454" lon="4.87991">
        <ele>133.9</ele>
        <time>2020-06-30T12:19:13Z</time>
      </trkpt>
      <trkpt lat="48.64456" lon="4.87983">
        <ele>133.9</ele>
        <time>2020-06-30T12:19:14Z</time>
      </trkpt>
      <trkpt lat="48.64457" lon="4.87976">
        <ele>133.9</ele>
        <time>2020-06-30T12:19:15Z</time>
      </trkpt>
      <trkpt lat="48.64458" lon="4.87967">
        <ele>133.9</ele>
        <time>2020-06-30T12:19:16Z</time>
      </trkpt>
      <trkpt lat="48.64459" lon="4.87957">
        <ele>133.9</ele>
        <time>2020-06-30T12:19:17Z</time>
      </trkpt>
      <trkpt lat="48.64461" lon="4.87949">
        <ele>133.9</ele>
        <time>2020-06-30T12:19:18Z</time>
      </trkpt>
      <trkpt lat="48.64462" lon="4.87938">
        <ele>133.9</ele>
        <time>2020-06-30T12:19:19Z</time>
      </trkpt>
      <trkpt lat="48.64463" lon="4.87929">
        <ele>133.9</ele>
        <time>2020-06-30T12:19:20Z</time>
      </trkpt>
      <trkpt lat="48.64465" lon="4.8792">
        <ele>133.9</ele>
        <time>2020-06-30T12:19:21Z</time>
      </trkpt>
      <trkpt lat="48.64466" lon="4.87912">
        <ele>133.9</ele>
        <time>2020-06-30T12:19:22Z</time>
      </trkpt>
      <trkpt lat="48.64467" lon="4.87903">
        <ele>133.9</ele>
        <time>2020-06-30T12:19:23Z</time>
      </trkpt>
      <trkpt lat="48.64469" lon="4.87895">
        <ele>133.9</ele>
        <time>2020-06-30T12:19:24Z</time>
      </trkpt>
      <trkpt lat="48.6447" lon="4.87886">
        <ele>133.9</ele>
        <time>2020-06-30T12:19:25Z</time>
      </trkpt>
      <trkpt lat="48.64472" lon="4.87874">
        <ele>133.9</ele>
        <time>2020-06-30T12:19:26Z</time>
      </trkpt>
      <trkpt lat="48.64474" lon="4.87865">
        <ele>133.9</ele>
        <time>2020-06-30T12:19:27Z</time>
      </trkpt>
      <trkpt lat="48.64474" lon="4.87857">
        <ele>133.9</ele>
        <time>2020-06-30T12:19:28Z</time>
      </trkpt>
      <trkpt lat="48.64476" lon="4.87848">
        <ele>133.9</ele>
        <time>2020-06-30T12:19:29Z</time>
      </trkpt>
      <trkpt lat="48.64477" lon="4.87839">
        <ele>133.9</ele>
        <time>2020-06-30T12:19:30Z</time>
      </trkpt>
      <trkpt lat="48.64478" lon="4.87829">
        <ele>133.9</ele>
        <time>2020-06-30T12:19:31Z</time>
      </trkpt>
      <trkpt lat="48.6448" lon="4.8782">
        <ele>133.9</ele>
        <time>2020-06-30T12:19:32Z</time>
      </trkpt>
      <trkpt lat="48.64481" lon="4.87812">
        <ele>133.9</ele>
        <time>2020-06-30T12:19:33Z</time>
      </trkpt>
      <trkpt lat="48.64481" lon="4.87803">
        <ele>133.9</ele>
        <time>2020-06-30T12:19:34Z</time>
      </trkpt>
      <trkpt lat="48.64483" lon="4.87794">
        <ele>133.9</ele>
        <time>2020-06-30T12:19:35Z</time>
      </trkpt>
      <trkpt lat="48.64484" lon="4.87786">
        <ele>133.9</ele>
        <time>2020-06-30T12:19:36Z</time>
      </trkpt>
      <trkpt lat="48.64486" lon="4.87779">
        <ele>133.9</ele>
        <time>2020-06-30T12:19:37Z</time>
      </trkpt>
      <trkpt lat="48.64487" lon="4.87769">
        <ele>133.9</ele>
        <time>2020-06-30T12:19:38Z</time>
      </trkpt>
      <trkpt lat="48.64488" lon="4.8776">
        <ele>133.9</ele>
        <time>2020-06-30T12:19:39Z</time>
      </trkpt>
      <trkpt lat="48.6449" lon="4.87752">
        <ele>133.9</ele>
        <time>2020-06-30T12:19:40Z</time>
      </trkpt>
      <trkpt lat="48.64491" lon="4.87743">
        <ele>133.9</ele>
        <time>2020-06-30T12:19:41Z</time>
      </trkpt>
      <trkpt lat="48.64493" lon="4.87732">
        <ele>133.9</ele>
        <time>2020-06-30T12:19:42Z</time>
      </trkpt>
      <trkpt lat="48.64494" lon="4.87725">
        <ele>133.9</ele>
        <time>2020-06-30T12:19:43Z</time>
      </trkpt>
      <trkpt lat="48.64495" lon="4.87717">
        <ele>133.8</ele>
        <time>2020-06-30T12:19:44Z</time>
      </trkpt>
      <trkpt lat="48.64496" lon="4.87707">
        <ele>133.8</ele>
        <time>2020-06-30T12:19:45Z</time>
      </trkpt>
      <trkpt lat="48.64498" lon="4.87698">
        <ele>133.8</ele>
        <time>2020-06-30T12:19:46Z</time>
      </trkpt>
      <trkpt lat="48.64499" lon="4.87689">
        <ele>133.8</ele>
        <time>2020-06-30T12:19:47Z</time>
      </trkpt>
      <trkpt lat="48.64501" lon="4.8768">
        <ele>133.8</ele>
        <time>2020-06-30T12:19:48Z</time>
      </trkpt>
      <trkpt lat="48.64502" lon="4.87672">
        <ele>133.8</ele>
        <time>2020-06-30T12:19:49Z</time>
      </trkpt>
      <trkpt lat="48.64503" lon="4.87663">
        <ele>133.8</ele>
        <time>2020-06-30T12:19:50Z</time>
      </trkpt>
      <trkpt lat="48.64503" lon="4.87652">
        <ele>133.8</ele>
        <time>2020-06-30T12:19:51Z</time>
      </trkpt>
      <trkpt lat="48.64505" lon="4.87643">
        <ele>133.8</ele>
        <time>2020-06-30T12:19:52Z</time>
      </trkpt>
      <trkpt lat="48.64505" lon="4.87635">
        <ele>133.7</ele>
        <time>2020-06-30T12:19:53Z</time>
      </trkpt>
      <trkpt lat="48.64507" lon="4.87626">
        <ele>133.7</ele>
        <time>2020-06-30T12:19:54Z</time>
      </trkpt>
      <trkpt lat="48.64508" lon="4.87618">
        <ele>133.7</ele>
        <time>2020-06-30T12:19:55Z</time>
      </trkpt>
      <trkpt lat="48.6451" lon="4.8761">
        <ele>133.8</ele>
        <time>2020-06-30T12:19:56Z</time>
      </trkpt>
      <trkpt lat="48.64511" lon="4.87602">
        <ele>133.8</ele>
        <time>2020-06-30T12:19:57Z</time>
      </trkpt>
      <trkpt lat="48.64513" lon="4.87594">
        <ele>133.8</ele>
        <time>2020-06-30T12:19:58Z</time>
      </trkpt>
      <trkpt lat="48.64514" lon="4.87586">
        <ele>133.8</ele>
        <time>2020-06-30T12:19:59Z</time>
      </trkpt>
      <trkpt lat="48.64516" lon="4.87578">
        <ele>133.8</ele>
        <time>2020-06-30T12:20:00Z</time>
      </trkpt>
      <trkpt lat="48.64517" lon="4.87569">
        <ele>133.9</ele>
        <time>2020-06-30T12:20:01Z</time>
      </trkpt>
      <trkpt lat="48.64518" lon="4.87561">
        <ele>133.9</ele>
        <time>2020-06-30T12:20:02Z</time>
      </trkpt>
      <trkpt lat="48.64519" lon="4.87554">
        <ele>133.9</ele>
        <time>2020-06-30T12:20:03Z</time>
      </trkpt>
      <trkpt lat="48.6452" lon="4.87547">
        <ele>133.9</ele>
        <time>2020-06-30T12:20:04Z</time>
      </trkpt>
      <trkpt lat="48.64522" lon="4.87539">
        <ele>133.9</ele>
        <time>2020-06-30T12:20:05Z</time>
      </trkpt>
      <trkpt lat="48.64524" lon="4.87531">
        <ele>134</ele>
        <time>2020-06-30T12:20:06Z</time>
      </trkpt>
      <trkpt lat="48.64526" lon="4.87521">
        <ele>134</ele>
        <time>2020-06-30T12:20:07Z</time>
      </trkpt>
      <trkpt lat="48.64528" lon="4.87511">
        <ele>134</ele>
        <time>2020-06-30T12:20:08Z</time>
      </trkpt>
      <trkpt lat="48.64529" lon="4.87502">
        <ele>134</ele>
        <time>2020-06-30T12:20:09Z</time>
      </trkpt>
      <trkpt lat="48.6453" lon="4.87494">
        <ele>134</ele>
        <time>2020-06-30T12:20:10Z</time>
      </trkpt>
      <trkpt lat="48.64531" lon="4.87485">
        <ele>134.1</ele>
        <time>2020-06-30T12:20:11Z</time>
      </trkpt>
      <trkpt lat="48.64533" lon="4.87477">
        <ele>134.1</ele>
        <time>2020-06-30T12:20:12Z</time>
      </trkpt>
      <trkpt lat="48.64534" lon="4.87468">
        <ele>134.1</ele>
        <time>2020-06-30T12:20:13Z</time>
      </trkpt>
      <trkpt lat="48.64535" lon="4.87459">
        <ele>134.1</ele>
        <time>2020-06-30T12:20:14Z</time>
      </trkpt>
      <trkpt lat="48.64536" lon="4.87451">
        <ele>134.1</ele>
        <time>2020-06-30T12:20:15Z</time>
      </trkpt>
      <trkpt lat="48.64537" lon="4.87442">
        <ele>134.1</ele>
        <time>2020-06-30T12:20:16Z</time>
      </trkpt>
      <trkpt lat="48.64538" lon="4.87433">
        <ele>134.1</ele>
        <time>2020-06-30T12:20:17Z</time>
      </trkpt>
      <trkpt lat="48.64539" lon="4.87423">
        <ele>134.1</ele>
        <time>2020-06-30T12:20:18Z</time>
      </trkpt>
      <trkpt lat="48.64541" lon="4.87414">
        <ele>134.1</ele>
        <time>2020-06-30T12:20:19Z</time>
      </trkpt>
      <trkpt lat="48.64542" lon="4.87404">
        <ele>134.1</ele>
        <time>2020-06-30T12:20:20Z</time>
      </trkpt>
      <trkpt lat="48.64543" lon="4.87395">
        <ele>134.1</ele>
        <time>2020-06-30T12:20:21Z</time>
      </trkpt>
      <trkpt lat="48.64543" lon="4.87388">
        <ele>134</ele>
        <time>2020-06-30T12:20:22Z</time>
      </trkpt>
      <trkpt lat="48.64544" lon="4.87381">
        <ele>134</ele>
        <time>2020-06-30T12:20:23Z</time>
      </trkpt>
      <trkpt lat="48.64545" lon="4.87372">
        <ele>134</ele>
        <time>2020-06-30T12:20:24Z</time>
      </trkpt>
      <trkpt lat="48.64546" lon="4.87364">
        <ele>134</ele>
        <time>2020-06-30T12:20:25Z</time>
      </trkpt>
      <trkpt lat="48.64546" lon="4.87356">
        <ele>134</ele>
        <time>2020-06-30T12:20:26Z</time>
      </trkpt>
      <trkpt lat="48.64548" lon="4.87348">
        <ele>134</ele>
        <time>2020-06-30T12:20:27Z</time>
      </trkpt>
      <trkpt lat="48.64549" lon="4.87339">
        <ele>134.1</ele>
        <time>2020-06-30T12:20:28Z</time>
      </trkpt>
      <trkpt lat="48.64551" lon="4.87331">
        <ele>134.1</ele>
        <time>2020-06-30T12:20:29Z</time>
      </trkpt>
      <trkpt lat="48.64551" lon="4.87324">
        <ele>134.2</ele>
        <time>2020-06-30T12:20:30Z</time>
      </trkpt>
      <trkpt lat="48.64552" lon="4.87317">
        <ele>134.3</ele>
        <time>2020-06-30T12:20:31Z</time>
      </trkpt>
      <trkpt lat="48.64553" lon="4.8731">
        <ele>134.4</ele>
        <time>2020-06-30T12:20:32Z</time>
      </trkpt>
      <trkpt lat="48.64554" lon="4.87305">
        <ele>134.5</ele>
        <time>2020-06-30T12:20:33Z</time>
      </trkpt>
      <trkpt lat="48.64555" lon="4.873">
        <ele>134.5</ele>
        <time>2020-06-30T12:20:34Z</time>
      </trkpt>
      <trkpt lat="48.64555" lon="4.87298">
        <ele>134.5</ele>
        <time>2020-06-30T12:20:35Z</time>
      </trkpt>
      <trkpt lat="48.64556" lon="4.87294">
        <ele>134.5</ele>
        <time>2020-06-30T12:20:36Z</time>
      </trkpt>
      <trkpt lat="48.64556" lon="4.87292">
        <ele>134.5</ele>
        <time>2020-06-30T12:20:37Z</time>
      </trkpt>
      <trkpt lat="48.64557" lon="4.87289">
        <ele>134.4</ele>
        <time>2020-06-30T12:20:38Z</time>
      </trkpt>
      <trkpt lat="48.64557" lon="4.87287">
        <ele>134.3</ele>
        <time>2020-06-30T12:20:39Z</time>
      </trkpt>
      <trkpt lat="48.64558" lon="4.87285">
        <ele>134.2</ele>
        <time>2020-06-30T12:20:40Z</time>
      </trkpt>
      <trkpt lat="48.64557" lon="4.87282">
        <ele>134.1</ele>
        <time>2020-06-30T12:20:41Z</time>
      </trkpt>
      <trkpt lat="48.64557" lon="4.87281">
        <ele>134.1</ele>
        <time>2020-06-30T12:20:42Z</time>
      </trkpt>
      <trkpt lat="48.64557" lon="4.87277">
        <ele>133.9</ele>
        <time>2020-06-30T12:20:43Z</time>
      </trkpt>
      <trkpt lat="48.64558" lon="4.87273">
        <ele>133.7</ele>
        <time>2020-06-30T12:20:44Z</time>
      </trkpt>
      <trkpt lat="48.64559" lon="4.87271">
        <ele>133.6</ele>
        <time>2020-06-30T12:20:45Z</time>
      </trkpt>
      <trkpt lat="48.6456" lon="4.87266">
        <ele>133.3</ele>
        <time>2020-06-30T12:20:46Z</time>
      </trkpt>
      <trkpt lat="48.6456" lon="4.87259">
        <ele>133</ele>
        <time>2020-06-30T12:20:47Z</time>
      </trkpt>
      <trkpt lat="48.64561" lon="4.87253">
        <ele>132.7</ele>
        <time>2020-06-30T12:20:48Z</time>
      </trkpt>
      <trkpt lat="48.64562" lon="4.87246">
        <ele>132.4</ele>
        <time>2020-06-30T12:20:49Z</time>
      </trkpt>
      <trkpt lat="48.64563" lon="4.87238">
        <ele>132.1</ele>
        <time>2020-06-30T12:20:50Z</time>
      </trkpt>
      <trkpt lat="48.64565" lon="4.87231">
        <ele>131.8</ele>
        <time>2020-06-30T12:20:51Z</time>
      </trkpt>
      <trkpt lat="48.64566" lon="4.87224">
        <ele>131.6</ele>
        <time>2020-06-30T12:20:52Z</time>
      </trkpt>
      <trkpt lat="48.64567" lon="4.87215">
        <ele>131.5</ele>
        <time>2020-06-30T12:20:53Z</time>
      </trkpt>
      <trkpt lat="48.64568" lon="4.87209">
        <ele>131.4</ele>
        <time>2020-06-30T12:20:54Z</time>
      </trkpt>
      <trkpt lat="48.6457" lon="4.87201">
        <ele>131.2</ele>
        <time>2020-06-30T12:20:55Z</time>
      </trkpt>
      <trkpt lat="48.64571" lon="4.87194">
        <ele>131.2</ele>
        <time>2020-06-30T12:20:56Z</time>
      </trkpt>
      <trkpt lat="48.64572" lon="4.87186">
        <ele>131.1</ele>
        <time>2020-06-30T12:20:57Z</time>
      </trkpt>
      <trkpt lat="48.64574" lon="4.8718">
        <ele>131</ele>
        <time>2020-06-30T12:20:58Z</time>
      </trkpt>
      <trkpt lat="48.64574" lon="4.87175">
        <ele>131</ele>
        <time>2020-06-30T12:20:59Z</time>
      </trkpt>
      <trkpt lat="48.64574" lon="4.87166">
        <ele>130.9</ele>
        <time>2020-06-30T12:21:00Z</time>
      </trkpt>
      <trkpt lat="48.64575" lon="4.8716">
        <ele>130.8</ele>
        <time>2020-06-30T12:21:01Z</time>
      </trkpt>
      <trkpt lat="48.64577" lon="4.87151">
        <ele>130.8</ele>
        <time>2020-06-30T12:21:02Z</time>
      </trkpt>
      <trkpt lat="48.64578" lon="4.87143">
        <ele>130.7</ele>
        <time>2020-06-30T12:21:03Z</time>
      </trkpt>
      <trkpt lat="48.64578" lon="4.87134">
        <ele>130.7</ele>
        <time>2020-06-30T12:21:04Z</time>
      </trkpt>
      <trkpt lat="48.64579" lon="4.87126">
        <ele>130.7</ele>
        <time>2020-06-30T12:21:05Z</time>
      </trkpt>
      <trkpt lat="48.64581" lon="4.87118">
        <ele>130.6</ele>
        <time>2020-06-30T12:21:06Z</time>
      </trkpt>
      <trkpt lat="48.64582" lon="4.87108">
        <ele>130.6</ele>
        <time>2020-06-30T12:21:07Z</time>
      </trkpt>
      <trkpt lat="48.64583" lon="4.871">
        <ele>130.5</ele>
        <time>2020-06-30T12:21:08Z</time>
      </trkpt>
      <trkpt lat="48.64585" lon="4.87094">
        <ele>130.5</ele>
        <time>2020-06-30T12:21:09Z</time>
      </trkpt>
      <trkpt lat="48.64586" lon="4.87085">
        <ele>130.5</ele>
        <time>2020-06-30T12:21:10Z</time>
      </trkpt>
      <trkpt lat="48.64587" lon="4.87078">
        <ele>130.5</ele>
        <time>2020-06-30T12:21:11Z</time>
      </trkpt>
      <trkpt lat="48.64589" lon="4.8707">
        <ele>130.5</ele>
        <time>2020-06-30T12:21:12Z</time>
      </trkpt>
      <trkpt lat="48.6459" lon="4.87061">
        <ele>130.5</ele>
        <time>2020-06-30T12:21:13Z</time>
      </trkpt>
      <trkpt lat="48.64592" lon="4.87051">
        <ele>130.5</ele>
        <time>2020-06-30T12:21:14Z</time>
      </trkpt>
      <trkpt lat="48.64593" lon="4.87039">
        <ele>130.5</ele>
        <time>2020-06-30T12:21:15Z</time>
      </trkpt>
      <trkpt lat="48.64594" lon="4.87031">
        <ele>130.5</ele>
        <time>2020-06-30T12:21:16Z</time>
      </trkpt>
      <trkpt lat="48.64595" lon="4.87021">
        <ele>130.5</ele>
        <time>2020-06-30T12:21:17Z</time>
      </trkpt>
      <trkpt lat="48.64597" lon="4.87014">
        <ele>130.5</ele>
        <time>2020-06-30T12:21:18Z</time>
      </trkpt>
      <trkpt lat="48.64599" lon="4.87004">
        <ele>130.5</ele>
        <time>2020-06-30T12:21:19Z</time>
      </trkpt>
      <trkpt lat="48.646" lon="4.86995">
        <ele>130.5</ele>
        <time>2020-06-30T12:21:20Z</time>
      </trkpt>
      <trkpt lat="48.646" lon="4.86985">
        <ele>130.5</ele>
        <time>2020-06-30T12:21:21Z</time>
      </trkpt>
      <trkpt lat="48.64601" lon="4.86976">
        <ele>130.5</ele>
        <time>2020-06-30T12:21:22Z</time>
      </trkpt>
      <trkpt lat="48.64602" lon="4.86968">
        <ele>130.5</ele>
        <time>2020-06-30T12:21:23Z</time>
      </trkpt>
      <trkpt lat="48.64603" lon="4.86959">
        <ele>130.5</ele>
        <time>2020-06-30T12:21:24Z</time>
      </trkpt>
      <trkpt lat="48.64605" lon="4.86951">
        <ele>130.5</ele>
        <time>2020-06-30T12:21:25Z</time>
      </trkpt>
      <trkpt lat="48.64605" lon="4.86941">
        <ele>130.5</ele>
        <time>2020-06-30T12:21:26Z</time>
      </trkpt>
      <trkpt lat="48.64606" lon="4.86932">
        <ele>130.4</ele>
        <time>2020-06-30T12:21:27Z</time>
      </trkpt>
      <trkpt lat="48.64608" lon="4.86924">
        <ele>130.4</ele>
        <time>2020-06-30T12:21:28Z</time>
      </trkpt>
      <trkpt lat="48.6461" lon="4.86914">
        <ele>130.3</ele>
        <time>2020-06-30T12:21:29Z</time>
      </trkpt>
      <trkpt lat="48.64611" lon="4.86903">
        <ele>130.3</ele>
        <time>2020-06-30T12:21:30Z</time>
      </trkpt>
      <trkpt lat="48.64613" lon="4.86893">
        <ele>130.3</ele>
        <time>2020-06-30T12:21:31Z</time>
      </trkpt>
      <trkpt lat="48.64613" lon="4.86882">
        <ele>130.2</ele>
        <time>2020-06-30T12:21:32Z</time>
      </trkpt>
      <trkpt lat="48.64615" lon="4.86871">
        <ele>130.2</ele>
        <time>2020-06-30T12:21:33Z</time>
      </trkpt>
      <trkpt lat="48.64616" lon="4.86861">
        <ele>130.2</ele>
        <time>2020-06-30T12:21:34Z</time>
      </trkpt>
      <trkpt lat="48.64618" lon="4.86853">
        <ele>130.2</ele>
        <time>2020-06-30T12:21:35Z</time>
      </trkpt>
      <trkpt lat="48.64619" lon="4.86842">
        <ele>130.2</ele>
        <time>2020-06-30T12:21:36Z</time>
      </trkpt>
      <trkpt lat="48.64621" lon="4.86832">
        <ele>130.3</ele>
        <time>2020-06-30T12:21:37Z</time>
      </trkpt>
      <trkpt lat="48.64623" lon="4.86822">
        <ele>130.3</ele>
        <time>2020-06-30T12:21:38Z</time>
      </trkpt>
      <trkpt lat="48.64623" lon="4.86812">
        <ele>130.3</ele>
        <time>2020-06-30T12:21:39Z</time>
      </trkpt>
      <trkpt lat="48.64625" lon="4.86802">
        <ele>130.3</ele>
        <time>2020-06-30T12:21:40Z</time>
      </trkpt>
      <trkpt lat="48.64626" lon="4.86793">
        <ele>130.3</ele>
        <time>2020-06-30T12:21:41Z</time>
      </trkpt>
      <trkpt lat="48.64628" lon="4.86783">
        <ele>130.3</ele>
        <time>2020-06-30T12:21:42Z</time>
      </trkpt>
      <trkpt lat="48.6463" lon="4.86774">
        <ele>130.3</ele>
        <time>2020-06-30T12:21:43Z</time>
      </trkpt>
      <trkpt lat="48.64631" lon="4.86764">
        <ele>130.3</ele>
        <time>2020-06-30T12:21:44Z</time>
      </trkpt>
      <trkpt lat="48.64633" lon="4.86754">
        <ele>130.3</ele>
        <time>2020-06-30T12:21:45Z</time>
      </trkpt>
      <trkpt lat="48.64634" lon="4.86744">
        <ele>130.3</ele>
        <time>2020-06-30T12:21:46Z</time>
      </trkpt>
      <trkpt lat="48.64636" lon="4.86734">
        <ele>130.3</ele>
        <time>2020-06-30T12:21:47Z</time>
      </trkpt>
      <trkpt lat="48.64637" lon="4.86724">
        <ele>130.3</ele>
        <time>2020-06-30T12:21:48Z</time>
      </trkpt>
      <trkpt lat="48.64639" lon="4.86714">
        <ele>130.3</ele>
        <time>2020-06-30T12:21:49Z</time>
      </trkpt>
      <trkpt lat="48.64641" lon="4.86704">
        <ele>130.3</ele>
        <time>2020-06-30T12:21:50Z</time>
      </trkpt>
      <trkpt lat="48.64643" lon="4.86694">
        <ele>130.3</ele>
        <time>2020-06-30T12:21:51Z</time>
      </trkpt>
      <trkpt lat="48.64644" lon="4.86685">
        <ele>130.3</ele>
        <time>2020-06-30T12:21:52Z</time>
      </trkpt>
      <trkpt lat="48.64646" lon="4.86675">
        <ele>130.3</ele>
        <time>2020-06-30T12:21:53Z</time>
      </trkpt>
      <trkpt lat="48.64647" lon="4.86666">
        <ele>130.3</ele>
        <time>2020-06-30T12:21:54Z</time>
      </trkpt>
      <trkpt lat="48.64649" lon="4.86656">
        <ele>130.3</ele>
        <time>2020-06-30T12:21:55Z</time>
      </trkpt>
      <trkpt lat="48.64649" lon="4.86646">
        <ele>130.3</ele>
        <time>2020-06-30T12:21:56Z</time>
      </trkpt>
      <trkpt lat="48.6465" lon="4.86637">
        <ele>130.2</ele>
        <time>2020-06-30T12:21:57Z</time>
      </trkpt>
      <trkpt lat="48.64651" lon="4.86627">
        <ele>130.2</ele>
        <time>2020-06-30T12:21:58Z</time>
      </trkpt>
      <trkpt lat="48.64653" lon="4.86619">
        <ele>130.2</ele>
        <time>2020-06-30T12:21:59Z</time>
      </trkpt>
      <trkpt lat="48.64654" lon="4.8661">
        <ele>130.1</ele>
        <time>2020-06-30T12:22:00Z</time>
      </trkpt>
      <trkpt lat="48.64655" lon="4.866">
        <ele>130.1</ele>
        <time>2020-06-30T12:22:01Z</time>
      </trkpt>
      <trkpt lat="48.64656" lon="4.86591">
        <ele>130.1</ele>
        <time>2020-06-30T12:22:02Z</time>
      </trkpt>
      <trkpt lat="48.64658" lon="4.86582">
        <ele>130.1</ele>
        <time>2020-06-30T12:22:03Z</time>
      </trkpt>
      <trkpt lat="48.64658" lon="4.86573">
        <ele>130.2</ele>
        <time>2020-06-30T12:22:04Z</time>
      </trkpt>
      <trkpt lat="48.64659" lon="4.86564">
        <ele>130.2</ele>
        <time>2020-06-30T12:22:05Z</time>
      </trkpt>
      <trkpt lat="48.64659" lon="4.86556">
        <ele>130.2</ele>
        <time>2020-06-30T12:22:06Z</time>
      </trkpt>
      <trkpt lat="48.64659" lon="4.86547">
        <ele>130.1</ele>
        <time>2020-06-30T12:22:07Z</time>
      </trkpt>
      <trkpt lat="48.64661" lon="4.86539">
        <ele>130.1</ele>
        <time>2020-06-30T12:22:08Z</time>
      </trkpt>
      <trkpt lat="48.64663" lon="4.86531">
        <ele>130.1</ele>
        <time>2020-06-30T12:22:09Z</time>
      </trkpt>
      <trkpt lat="48.64665" lon="4.86522">
        <ele>130.1</ele>
        <time>2020-06-30T12:22:10Z</time>
      </trkpt>
      <trkpt lat="48.64666" lon="4.86513">
        <ele>130.1</ele>
        <time>2020-06-30T12:22:11Z</time>
      </trkpt>
      <trkpt lat="48.64668" lon="4.86504">
        <ele>130.1</ele>
        <time>2020-06-30T12:22:12Z</time>
      </trkpt>
      <trkpt lat="48.64669" lon="4.86496">
        <ele>130.1</ele>
        <time>2020-06-30T12:22:13Z</time>
      </trkpt>
      <trkpt lat="48.64671" lon="4.86487">
        <ele>130.1</ele>
        <time>2020-06-30T12:22:14Z</time>
      </trkpt>
      <trkpt lat="48.64672" lon="4.86478">
        <ele>130.1</ele>
        <time>2020-06-30T12:22:15Z</time>
      </trkpt>
      <trkpt lat="48.64674" lon="4.8647">
        <ele>130.1</ele>
        <time>2020-06-30T12:22:16Z</time>
      </trkpt>
      <trkpt lat="48.64676" lon="4.86461">
        <ele>130.1</ele>
        <time>2020-06-30T12:22:17Z</time>
      </trkpt>
      <trkpt lat="48.64677" lon="4.86453">
        <ele>130.2</ele>
        <time>2020-06-30T12:22:18Z</time>
      </trkpt>
      <trkpt lat="48.64678" lon="4.86445">
        <ele>130.2</ele>
        <time>2020-06-30T12:22:19Z</time>
      </trkpt>
      <trkpt lat="48.64679" lon="4.86437">
        <ele>130.2</ele>
        <time>2020-06-30T12:22:20Z</time>
      </trkpt>
      <trkpt lat="48.6468" lon="4.86428">
        <ele>130.3</ele>
        <time>2020-06-30T12:22:21Z</time>
      </trkpt>
      <trkpt lat="48.64682" lon="4.86419">
        <ele>130.3</ele>
        <time>2020-06-30T12:22:22Z</time>
      </trkpt>
      <trkpt lat="48.64684" lon="4.86411">
        <ele>130.3</ele>
        <time>2020-06-30T12:22:23Z</time>
      </trkpt>
      <trkpt lat="48.64685" lon="4.86402">
        <ele>130.3</ele>
        <time>2020-06-30T12:22:24Z</time>
      </trkpt>
      <trkpt lat="48.64686" lon="4.86393">
        <ele>130.3</ele>
        <time>2020-06-30T12:22:25Z</time>
      </trkpt>
      <trkpt lat="48.64687" lon="4.86384">
        <ele>130.3</ele>
        <time>2020-06-30T12:22:26Z</time>
      </trkpt>
      <trkpt lat="48.64688" lon="4.86376">
        <ele>130.3</ele>
        <time>2020-06-30T12:22:27Z</time>
      </trkpt>
      <trkpt lat="48.6469" lon="4.86368">
        <ele>130.3</ele>
        <time>2020-06-30T12:22:28Z</time>
      </trkpt>
      <trkpt lat="48.64692" lon="4.86359">
        <ele>130.3</ele>
        <time>2020-06-30T12:22:29Z</time>
      </trkpt>
      <trkpt lat="48.64693" lon="4.8635">
        <ele>130.4</ele>
        <time>2020-06-30T12:22:30Z</time>
      </trkpt>
      <trkpt lat="48.64694" lon="4.86342">
        <ele>130.4</ele>
        <time>2020-06-30T12:22:31Z</time>
      </trkpt>
      <trkpt lat="48.64695" lon="4.86333">
        <ele>130.4</ele>
        <time>2020-06-30T12:22:32Z</time>
      </trkpt>
      <trkpt lat="48.64696" lon="4.86325">
        <ele>130.4</ele>
        <time>2020-06-30T12:22:33Z</time>
      </trkpt>
      <trkpt lat="48.64698" lon="4.86316">
        <ele>130.4</ele>
        <time>2020-06-30T12:22:34Z</time>
      </trkpt>
      <trkpt lat="48.647" lon="4.86307">
        <ele>130.3</ele>
        <time>2020-06-30T12:22:35Z</time>
      </trkpt>
      <trkpt lat="48.64701" lon="4.86298">
        <ele>130.3</ele>
        <time>2020-06-30T12:22:36Z</time>
      </trkpt>
      <trkpt lat="48.64703" lon="4.86289">
        <ele>130.3</ele>
        <time>2020-06-30T12:22:37Z</time>
      </trkpt>
      <trkpt lat="48.64704" lon="4.86278">
        <ele>130.3</ele>
        <time>2020-06-30T12:22:38Z</time>
      </trkpt>
      <trkpt lat="48.64704" lon="4.86268">
        <ele>130.3</ele>
        <time>2020-06-30T12:22:39Z</time>
      </trkpt>
      <trkpt lat="48.64706" lon="4.86259">
        <ele>130.3</ele>
        <time>2020-06-30T12:22:40Z</time>
      </trkpt>
      <trkpt lat="48.64707" lon="4.8625">
        <ele>130.2</ele>
        <time>2020-06-30T12:22:41Z</time>
      </trkpt>
      <trkpt lat="48.64708" lon="4.86241">
        <ele>130.2</ele>
        <time>2020-06-30T12:22:42Z</time>
      </trkpt>
      <trkpt lat="48.64707" lon="4.86232">
        <ele>130.2</ele>
        <time>2020-06-30T12:22:43Z</time>
      </trkpt>
      <trkpt lat="48.64709" lon="4.86223">
        <ele>130.2</ele>
        <time>2020-06-30T12:22:44Z</time>
      </trkpt>
      <trkpt lat="48.6471" lon="4.86214">
        <ele>130.2</ele>
        <time>2020-06-30T12:22:45Z</time>
      </trkpt>
      <trkpt lat="48.64712" lon="4.86205">
        <ele>130.1</ele>
        <time>2020-06-30T12:22:46Z</time>
      </trkpt>
      <trkpt lat="48.64715" lon="4.86196">
        <ele>130.1</ele>
        <time>2020-06-30T12:22:47Z</time>
      </trkpt>
      <trkpt lat="48.64716" lon="4.86187">
        <ele>130.1</ele>
        <time>2020-06-30T12:22:48Z</time>
      </trkpt>
      <trkpt lat="48.64718" lon="4.86177">
        <ele>130.1</ele>
        <time>2020-06-30T12:22:49Z</time>
      </trkpt>
      <trkpt lat="48.64719" lon="4.86168">
        <ele>130.1</ele>
        <time>2020-06-30T12:22:50Z</time>
      </trkpt>
      <trkpt lat="48.6472" lon="4.86161">
        <ele>130.1</ele>
        <time>2020-06-30T12:22:51Z</time>
      </trkpt>
      <trkpt lat="48.6472" lon="4.86152">
        <ele>130.1</ele>
        <time>2020-06-30T12:22:52Z</time>
      </trkpt>
      <trkpt lat="48.6472" lon="4.86144">
        <ele>130.1</ele>
        <time>2020-06-30T12:22:53Z</time>
      </trkpt>
      <trkpt lat="48.64722" lon="4.86135">
        <ele>130.1</ele>
        <time>2020-06-30T12:22:54Z</time>
      </trkpt>
      <trkpt lat="48.64722" lon="4.86127">
        <ele>130.1</ele>
        <time>2020-06-30T12:22:55Z</time>
      </trkpt>
      <trkpt lat="48.64724" lon="4.86119">
        <ele>130.1</ele>
        <time>2020-06-30T12:22:56Z</time>
      </trkpt>
      <trkpt lat="48.64725" lon="4.8611">
        <ele>130.1</ele>
        <time>2020-06-30T12:22:57Z</time>
      </trkpt>
      <trkpt lat="48.64728" lon="4.86102">
        <ele>130.1</ele>
        <time>2020-06-30T12:22:58Z</time>
      </trkpt>
      <trkpt lat="48.6473" lon="4.86093">
        <ele>130.1</ele>
        <time>2020-06-30T12:22:59Z</time>
      </trkpt>
      <trkpt lat="48.6473" lon="4.86083">
        <ele>130</ele>
        <time>2020-06-30T12:23:00Z</time>
      </trkpt>
      <trkpt lat="48.6473" lon="4.86072">
        <ele>130</ele>
        <time>2020-06-30T12:23:01Z</time>
      </trkpt>
      <trkpt lat="48.64732" lon="4.86062">
        <ele>130</ele>
        <time>2020-06-30T12:23:02Z</time>
      </trkpt>
      <trkpt lat="48.64735" lon="4.86054">
        <ele>130</ele>
        <time>2020-06-30T12:23:03Z</time>
      </trkpt>
      <trkpt lat="48.64736" lon="4.86044">
        <ele>130</ele>
        <time>2020-06-30T12:23:04Z</time>
      </trkpt>
      <trkpt lat="48.64738" lon="4.86035">
        <ele>130</ele>
        <time>2020-06-30T12:23:05Z</time>
      </trkpt>
      <trkpt lat="48.64738" lon="4.86026">
        <ele>130</ele>
        <time>2020-06-30T12:23:06Z</time>
      </trkpt>
      <trkpt lat="48.64738" lon="4.86018">
        <ele>130</ele>
        <time>2020-06-30T12:23:07Z</time>
      </trkpt>
      <trkpt lat="48.64737" lon="4.8601">
        <ele>130</ele>
        <time>2020-06-30T12:23:08Z</time>
      </trkpt>
      <trkpt lat="48.64739" lon="4.86002">
        <ele>130</ele>
        <time>2020-06-30T12:23:09Z</time>
      </trkpt>
      <trkpt lat="48.64741" lon="4.85993">
        <ele>130.1</ele>
        <time>2020-06-30T12:23:10Z</time>
      </trkpt>
      <trkpt lat="48.64742" lon="4.85985">
        <ele>130.2</ele>
        <time>2020-06-30T12:23:11Z</time>
      </trkpt>
      <trkpt lat="48.64744" lon="4.85976">
        <ele>130.2</ele>
        <time>2020-06-30T12:23:12Z</time>
      </trkpt>
      <trkpt lat="48.64744" lon="4.85966">
        <ele>130.3</ele>
        <time>2020-06-30T12:23:13Z</time>
      </trkpt>
      <trkpt lat="48.64746" lon="4.85956">
        <ele>130.3</ele>
        <time>2020-06-30T12:23:14Z</time>
      </trkpt>
      <trkpt lat="48.64745" lon="4.85946">
        <ele>130.2</ele>
        <time>2020-06-30T12:23:15Z</time>
      </trkpt>
      <trkpt lat="48.64746" lon="4.85938">
        <ele>130.2</ele>
        <time>2020-06-30T12:23:16Z</time>
      </trkpt>
      <trkpt lat="48.64746" lon="4.85929">
        <ele>130.2</ele>
        <time>2020-06-30T12:23:17Z</time>
      </trkpt>
      <trkpt lat="48.64746" lon="4.85921">
        <ele>130.2</ele>
        <time>2020-06-30T12:23:18Z</time>
      </trkpt>
      <trkpt lat="48.64746" lon="4.85913">
        <ele>130.2</ele>
        <time>2020-06-30T12:23:19Z</time>
      </trkpt>
      <trkpt lat="48.64746" lon="4.85905">
        <ele>130.2</ele>
        <time>2020-06-30T12:23:20Z</time>
      </trkpt>
      <trkpt lat="48.64748" lon="4.85897">
        <ele>130.2</ele>
        <time>2020-06-30T12:23:21Z</time>
      </trkpt>
      <trkpt lat="48.64747" lon="4.85888">
        <ele>130.2</ele>
        <time>2020-06-30T12:23:22Z</time>
      </trkpt>
      <trkpt lat="48.64748" lon="4.85879">
        <ele>130.2</ele>
        <time>2020-06-30T12:23:23Z</time>
      </trkpt>
      <trkpt lat="48.64748" lon="4.85869">
        <ele>130.1</ele>
        <time>2020-06-30T12:23:24Z</time>
      </trkpt>
      <trkpt lat="48.64749" lon="4.85859">
        <ele>130.1</ele>
        <time>2020-06-30T12:23:25Z</time>
      </trkpt>
      <trkpt lat="48.64749" lon="4.85849">
        <ele>130.1</ele>
        <time>2020-06-30T12:23:26Z</time>
      </trkpt>
      <trkpt lat="48.64751" lon="4.8584">
        <ele>130.1</ele>
        <time>2020-06-30T12:23:27Z</time>
      </trkpt>
      <trkpt lat="48.64752" lon="4.85831">
        <ele>130.1</ele>
        <time>2020-06-30T12:23:28Z</time>
      </trkpt>
      <trkpt lat="48.64753" lon="4.85821">
        <ele>130.1</ele>
        <time>2020-06-30T12:23:29Z</time>
      </trkpt>
      <trkpt lat="48.64754" lon="4.85812">
        <ele>130.1</ele>
        <time>2020-06-30T12:23:30Z</time>
      </trkpt>
      <trkpt lat="48.64754" lon="4.85802">
        <ele>130.1</ele>
        <time>2020-06-30T12:23:31Z</time>
      </trkpt>
      <trkpt lat="48.64755" lon="4.85792">
        <ele>130.1</ele>
        <time>2020-06-30T12:23:32Z</time>
      </trkpt>
      <trkpt lat="48.64757" lon="4.85782">
        <ele>130.1</ele>
        <time>2020-06-30T12:23:33Z</time>
      </trkpt>
      <trkpt lat="48.64757" lon="4.85772">
        <ele>130</ele>
        <time>2020-06-30T12:23:34Z</time>
      </trkpt>
      <trkpt lat="48.64758" lon="4.85762">
        <ele>130</ele>
        <time>2020-06-30T12:23:35Z</time>
      </trkpt>
      <trkpt lat="48.64759" lon="4.85751">
        <ele>130</ele>
        <time>2020-06-30T12:23:36Z</time>
      </trkpt>
      <trkpt lat="48.64759" lon="4.85741">
        <ele>130</ele>
        <time>2020-06-30T12:23:37Z</time>
      </trkpt>
      <trkpt lat="48.6476" lon="4.85732">
        <ele>130.1</ele>
        <time>2020-06-30T12:23:38Z</time>
      </trkpt>
      <trkpt lat="48.64761" lon="4.85722">
        <ele>130.1</ele>
        <time>2020-06-30T12:23:39Z</time>
      </trkpt>
      <trkpt lat="48.64762" lon="4.85712">
        <ele>130.1</ele>
        <time>2020-06-30T12:23:40Z</time>
      </trkpt>
      <trkpt lat="48.64763" lon="4.85703">
        <ele>130.1</ele>
        <time>2020-06-30T12:23:41Z</time>
      </trkpt>
      <trkpt lat="48.64764" lon="4.85694">
        <ele>130.2</ele>
        <time>2020-06-30T12:23:42Z</time>
      </trkpt>
      <trkpt lat="48.64765" lon="4.85685">
        <ele>130.2</ele>
        <time>2020-06-30T12:23:43Z</time>
      </trkpt>
      <trkpt lat="48.64767" lon="4.85677">
        <ele>130.2</ele>
        <time>2020-06-30T12:23:44Z</time>
      </trkpt>
      <trkpt lat="48.64768" lon="4.85669">
        <ele>130.2</ele>
        <time>2020-06-30T12:23:45Z</time>
      </trkpt>
      <trkpt lat="48.64769" lon="4.8566">
        <ele>130.2</ele>
        <time>2020-06-30T12:23:46Z</time>
      </trkpt>
      <trkpt lat="48.6477" lon="4.85652">
        <ele>130.2</ele>
        <time>2020-06-30T12:23:47Z</time>
      </trkpt>
      <trkpt lat="48.64771" lon="4.85643">
        <ele>130.2</ele>
        <time>2020-06-30T12:23:48Z</time>
      </trkpt>
      <trkpt lat="48.64768" lon="4.85632">
        <ele>130.2</ele>
        <time>2020-06-30T12:23:49Z</time>
      </trkpt>
      <trkpt lat="48.64768" lon="4.85622">
        <ele>130.3</ele>
        <time>2020-06-30T12:23:50Z</time>
      </trkpt>
      <trkpt lat="48.64768" lon="4.85611">
        <ele>130.3</ele>
        <time>2020-06-30T12:23:51Z</time>
      </trkpt>
      <trkpt lat="48.64769" lon="4.85601">
        <ele>130.3</ele>
        <time>2020-06-30T12:23:52Z</time>
      </trkpt>
      <trkpt lat="48.64771" lon="4.85592">
        <ele>130.3</ele>
        <time>2020-06-30T12:23:53Z</time>
      </trkpt>
      <trkpt lat="48.64773" lon="4.85579">
        <ele>130.3</ele>
        <time>2020-06-30T12:23:54Z</time>
      </trkpt>
      <trkpt lat="48.64774" lon="4.85567">
        <ele>130.4</ele>
        <time>2020-06-30T12:23:55Z</time>
      </trkpt>
      <trkpt lat="48.64776" lon="4.85558">
        <ele>130.4</ele>
        <time>2020-06-30T12:23:56Z</time>
      </trkpt>
      <trkpt lat="48.64777" lon="4.85548">
        <ele>130.4</ele>
        <time>2020-06-30T12:23:57Z</time>
      </trkpt>
      <trkpt lat="48.64778" lon="4.85537">
        <ele>130.4</ele>
        <time>2020-06-30T12:23:58Z</time>
      </trkpt>
      <trkpt lat="48.6478" lon="4.85527">
        <ele>130.4</ele>
        <time>2020-06-30T12:23:59Z</time>
      </trkpt>
      <trkpt lat="48.64782" lon="4.85515">
        <ele>130.5</ele>
        <time>2020-06-30T12:24:00Z</time>
      </trkpt>
      <trkpt lat="48.64784" lon="4.85506">
        <ele>130.5</ele>
        <time>2020-06-30T12:24:01Z</time>
      </trkpt>
      <trkpt lat="48.64787" lon="4.85496">
        <ele>130.5</ele>
        <time>2020-06-30T12:24:02Z</time>
      </trkpt>
      <trkpt lat="48.64789" lon="4.85485">
        <ele>130.4</ele>
        <time>2020-06-30T12:24:03Z</time>
      </trkpt>
      <trkpt lat="48.64791" lon="4.85474">
        <ele>130.4</ele>
        <time>2020-06-30T12:24:04Z</time>
      </trkpt>
      <trkpt lat="48.64795" lon="4.85463">
        <ele>130.4</ele>
        <time>2020-06-30T12:24:05Z</time>
      </trkpt>
      <trkpt lat="48.64798" lon="4.85452">
        <ele>130.4</ele>
        <time>2020-06-30T12:24:06Z</time>
      </trkpt>
      <trkpt lat="48.648" lon="4.85442">
        <ele>130.4</ele>
        <time>2020-06-30T12:24:07Z</time>
      </trkpt>
      <trkpt lat="48.64802" lon="4.85433">
        <ele>130.4</ele>
        <time>2020-06-30T12:24:08Z</time>
      </trkpt>
      <trkpt lat="48.64804" lon="4.85424">
        <ele>130.4</ele>
        <time>2020-06-30T12:24:09Z</time>
      </trkpt>
      <trkpt lat="48.64807" lon="4.85415">
        <ele>130.5</ele>
        <time>2020-06-30T12:24:10Z</time>
      </trkpt>
      <trkpt lat="48.64809" lon="4.85406">
        <ele>130.5</ele>
        <time>2020-06-30T12:24:11Z</time>
      </trkpt>
      <trkpt lat="48.64816" lon="4.85397">
        <ele>130.5</ele>
        <time>2020-06-30T12:24:12Z</time>
      </trkpt>
      <trkpt lat="48.64819" lon="4.8539">
        <ele>130.6</ele>
        <time>2020-06-30T12:24:13Z</time>
      </trkpt>
      <trkpt lat="48.64824" lon="4.85383">
        <ele>130.6</ele>
        <time>2020-06-30T12:24:14Z</time>
      </trkpt>
      <trkpt lat="48.64827" lon="4.85375">
        <ele>130.6</ele>
        <time>2020-06-30T12:24:15Z</time>
      </trkpt>
      <trkpt lat="48.64829" lon="4.85367">
        <ele>130.7</ele>
        <time>2020-06-30T12:24:16Z</time>
      </trkpt>
      <trkpt lat="48.6483" lon="4.85359">
        <ele>130.7</ele>
        <time>2020-06-30T12:24:17Z</time>
      </trkpt>
      <trkpt lat="48.64831" lon="4.85352">
        <ele>130.8</ele>
        <time>2020-06-30T12:24:18Z</time>
      </trkpt>
      <trkpt lat="48.64831" lon="4.85346">
        <ele>130.9</ele>
        <time>2020-06-30T12:24:19Z</time>
      </trkpt>
      <trkpt lat="48.64831" lon="4.8534">
        <ele>131</ele>
        <time>2020-06-30T12:24:20Z</time>
      </trkpt>
      <trkpt lat="48.64832" lon="4.85334">
        <ele>131</ele>
        <time>2020-06-30T12:24:21Z</time>
      </trkpt>
      <trkpt lat="48.64832" lon="4.85329">
        <ele>131.1</ele>
        <time>2020-06-30T12:24:22Z</time>
      </trkpt>
      <trkpt lat="48.64832" lon="4.85324">
        <ele>131.2</ele>
        <time>2020-06-30T12:24:23Z</time>
      </trkpt>
      <trkpt lat="48.64833" lon="4.85321">
        <ele>131.2</ele>
        <time>2020-06-30T12:24:24Z</time>
      </trkpt>
      <trkpt lat="48.64833" lon="4.85319">
        <ele>131.2</ele>
        <time>2020-06-30T12:24:25Z</time>
      </trkpt>
      <trkpt lat="48.64834" lon="4.85316">
        <ele>131.3</ele>
        <time>2020-06-30T12:24:26Z</time>
      </trkpt>
      <trkpt lat="48.64834" lon="4.85315">
        <ele>131.3</ele>
        <time>2020-06-30T12:24:27Z</time>
      </trkpt>
      <trkpt lat="48.64835" lon="4.85315">
        <ele>131.3</ele>
        <time>2020-06-30T12:24:28Z</time>
      </trkpt>
      <trkpt lat="48.64835" lon="4.85316">
        <ele>131.3</ele>
        <time>2020-06-30T12:24:29Z</time>
      </trkpt>
      <trkpt lat="48.64835" lon="4.85316">
        <ele>131.3</ele>
        <time>2020-06-30T12:24:30Z</time>
      </trkpt>
      <trkpt lat="48.64835" lon="4.85316">
        <ele>131.3</ele>
        <time>2020-06-30T12:24:31Z</time>
      </trkpt>
      <trkpt lat="48.64835" lon="4.85316">
        <ele>131.3</ele>
        <time>2020-06-30T12:24:32Z</time>
      </trkpt>
      <trkpt lat="48.64836" lon="4.85316">
        <ele>131.3</ele>
        <time>2020-06-30T12:24:33Z</time>
      </trkpt>
      <trkpt lat="48.64836" lon="4.85316">
        <ele>131.3</ele>
        <time>2020-06-30T12:24:34Z</time>
      </trkpt>
      <trkpt lat="48.64835" lon="4.85316">
        <ele>131.3</ele>
        <time>2020-06-30T12:24:35Z</time>
      </trkpt>
      <trkpt lat="48.64835" lon="4.85317">
        <ele>131.3</ele>
        <time>2020-06-30T12:24:36Z</time>
      </trkpt>
      <trkpt lat="48.64835" lon="4.85316">
        <ele>131.3</ele>
        <time>2020-06-30T12:24:37Z</time>
      </trkpt>
      <trkpt lat="48.64836" lon="4.85317">
        <ele>131.3</ele>
        <time>2020-06-30T12:24:38Z</time>
      </trkpt>
      <trkpt lat="48.64837" lon="4.85328">
        <ele>131.3</ele>
        <time>2020-06-30T12:24:54Z</time>
      </trkpt>
      <trkpt lat="48.64836" lon="4.85331">
        <ele>131.3</ele>
        <time>2020-06-30T12:24:55Z</time>
      </trkpt>
      <trkpt lat="48.64836" lon="4.85332">
        <ele>131.3</ele>
        <time>2020-06-30T12:24:56Z</time>
      </trkpt>
      <trkpt lat="48.64836" lon="4.85334">
        <ele>131.3</ele>
        <time>2020-06-30T12:24:57Z</time>
      </trkpt>
      <trkpt lat="48.64835" lon="4.85335">
        <ele>131.3</ele>
        <time>2020-06-30T12:24:58Z</time>
      </trkpt>
      <trkpt lat="48.64835" lon="4.85336">
        <ele>131.3</ele>
        <time>2020-06-30T12:24:59Z</time>
      </trkpt>
      <trkpt lat="48.64835" lon="4.85336">
        <ele>131.3</ele>
        <time>2020-06-30T12:25:00Z</time>
      </trkpt>
      <trkpt lat="48.64835" lon="4.85336">
        <ele>131.3</ele>
        <time>2020-06-30T12:25:01Z</time>
      </trkpt>
      <trkpt lat="48.64835" lon="4.85336">
        <ele>131.3</ele>
        <time>2020-06-30T12:25:02Z</time>
      </trkpt>
      <trkpt lat="48.64835" lon="4.85337">
        <ele>131.3</ele>
        <time>2020-06-30T12:25:03Z</time>
      </trkpt>
      <trkpt lat="48.64836" lon="4.85337">
        <ele>131.3</ele>
        <time>2020-06-30T12:25:04Z</time>
      </trkpt>
      <trkpt lat="48.64834" lon="4.85337">
        <ele>131.3</ele>
        <time>2020-06-30T12:25:05Z</time>
      </trkpt>
      <trkpt lat="48.64833" lon="4.85337">
        <ele>131.3</ele>
        <time>2020-06-30T12:25:06Z</time>
      </trkpt>
      <trkpt lat="48.64831" lon="4.85336">
        <ele>131.3</ele>
        <time>2020-06-30T12:25:07Z</time>
      </trkpt>
      <trkpt lat="48.64832" lon="4.85337">
        <ele>131.3</ele>
        <time>2020-06-30T12:25:08Z</time>
      </trkpt>
      <trkpt lat="48.64832" lon="4.85338">
        <ele>131.3</ele>
        <time>2020-06-30T12:25:09Z</time>
      </trkpt>
      <trkpt lat="48.64831" lon="4.85329">
        <ele>131.2</ele>
        <time>2020-06-30T12:25:17Z</time>
      </trkpt>
      <trkpt lat="48.64832" lon="4.85327">
        <ele>131.2</ele>
        <time>2020-06-30T12:25:18Z</time>
      </trkpt>
      <trkpt lat="48.64832" lon="4.85325">
        <ele>131.2</ele>
        <time>2020-06-30T12:25:19Z</time>
      </trkpt>
      <trkpt lat="48.64832" lon="4.85323">
        <ele>131.2</ele>
        <time>2020-06-30T12:25:20Z</time>
      </trkpt>
      <trkpt lat="48.64835" lon="4.85322">
        <ele>131.2</ele>
        <time>2020-06-30T12:25:21Z</time>
      </trkpt>
      <trkpt lat="48.64835" lon="4.85321">
        <ele>131.2</ele>
        <time>2020-06-30T12:25:22Z</time>
      </trkpt>
      <trkpt lat="48.64836" lon="4.8532">
        <ele>131.2</ele>
        <time>2020-06-30T12:25:23Z</time>
      </trkpt>
      <trkpt lat="48.64837" lon="4.8532">
        <ele>131.2</ele>
        <time>2020-06-30T12:25:24Z</time>
      </trkpt>
      <trkpt lat="48.64838" lon="4.85319">
        <ele>131.2</ele>
        <time>2020-06-30T12:25:25Z</time>
      </trkpt>
      <trkpt lat="48.64839" lon="4.85318">
        <ele>131.1</ele>
        <time>2020-06-30T12:25:26Z</time>
      </trkpt>
      <trkpt lat="48.64841" lon="4.85317">
        <ele>131.1</ele>
        <time>2020-06-30T12:25:27Z</time>
      </trkpt>
      <trkpt lat="48.64841" lon="4.85313">
        <ele>131</ele>
        <time>2020-06-30T12:25:28Z</time>
      </trkpt>
      <trkpt lat="48.64841" lon="4.85312">
        <ele>130.9</ele>
        <time>2020-06-30T12:25:29Z</time>
      </trkpt>
      <trkpt lat="48.64842" lon="4.85311">
        <ele>130.9</ele>
        <time>2020-06-30T12:25:30Z</time>
      </trkpt>
      <trkpt lat="48.64843" lon="4.8531">
        <ele>130.8</ele>
        <time>2020-06-30T12:25:31Z</time>
      </trkpt>
      <trkpt lat="48.64844" lon="4.85308">
        <ele>130.7</ele>
        <time>2020-06-30T12:25:32Z</time>
      </trkpt>
      <trkpt lat="48.64845" lon="4.85306">
        <ele>130.6</ele>
        <time>2020-06-30T12:25:33Z</time>
      </trkpt>
      <trkpt lat="48.64846" lon="4.85305">
        <ele>130.5</ele>
        <time>2020-06-30T12:25:34Z</time>
      </trkpt>
      <trkpt lat="48.64846" lon="4.85303">
        <ele>130.4</ele>
        <time>2020-06-30T12:25:35Z</time>
      </trkpt>
      <trkpt lat="48.64845" lon="4.85302">
        <ele>130.3</ele>
        <time>2020-06-30T12:25:36Z</time>
      </trkpt>
      <trkpt lat="48.64846" lon="4.85299">
        <ele>130.2</ele>
        <time>2020-06-30T12:25:37Z</time>
      </trkpt>
      <trkpt lat="48.64845" lon="4.85295">
        <ele>130</ele>
        <time>2020-06-30T12:25:38Z</time>
      </trkpt>
      <trkpt lat="48.64846" lon="4.85293">
        <ele>129.9</ele>
        <time>2020-06-30T12:25:39Z</time>
      </trkpt>
      <trkpt lat="48.64846" lon="4.85287">
        <ele>129.7</ele>
        <time>2020-06-30T12:25:40Z</time>
      </trkpt>
      <trkpt lat="48.64847" lon="4.85284">
        <ele>129.6</ele>
        <time>2020-06-30T12:25:41Z</time>
      </trkpt>
      <trkpt lat="48.64848" lon="4.85279">
        <ele>129.4</ele>
        <time>2020-06-30T12:25:42Z</time>
      </trkpt>
      <trkpt lat="48.64849" lon="4.85274">
        <ele>129.2</ele>
        <time>2020-06-30T12:25:43Z</time>
      </trkpt>
      <trkpt lat="48.64851" lon="4.85269">
        <ele>128.9</ele>
        <time>2020-06-30T12:25:44Z</time>
      </trkpt>
      <trkpt lat="48.64852" lon="4.85263">
        <ele>128.7</ele>
        <time>2020-06-30T12:25:45Z</time>
      </trkpt>
      <trkpt lat="48.64853" lon="4.85256">
        <ele>128.5</ele>
        <time>2020-06-30T12:25:46Z</time>
      </trkpt>
      <trkpt lat="48.64854" lon="4.85249">
        <ele>128.2</ele>
        <time>2020-06-30T12:25:47Z</time>
      </trkpt>
      <trkpt lat="48.64856" lon="4.85241">
        <ele>128</ele>
        <time>2020-06-30T12:25:48Z</time>
      </trkpt>
      <trkpt lat="48.64857" lon="4.85233">
        <ele>127.9</ele>
        <time>2020-06-30T12:25:49Z</time>
      </trkpt>
      <trkpt lat="48.64857" lon="4.85224">
        <ele>127.8</ele>
        <time>2020-06-30T12:25:50Z</time>
      </trkpt>
      <trkpt lat="48.64858" lon="4.85215">
        <ele>127.6</ele>
        <time>2020-06-30T12:25:51Z</time>
      </trkpt>
      <trkpt lat="48.64858" lon="4.85206">
        <ele>127.5</ele>
        <time>2020-06-30T12:25:52Z</time>
      </trkpt>
      <trkpt lat="48.64859" lon="4.85199">
        <ele>127.5</ele>
        <time>2020-06-30T12:25:53Z</time>
      </trkpt>
      <trkpt lat="48.64859" lon="4.85193">
        <ele>127.4</ele>
        <time>2020-06-30T12:25:54Z</time>
      </trkpt>
      <trkpt lat="48.64861" lon="4.85188">
        <ele>127.4</ele>
        <time>2020-06-30T12:25:55Z</time>
      </trkpt>
      <trkpt lat="48.64862" lon="4.85182">
        <ele>127.3</ele>
        <time>2020-06-30T12:25:56Z</time>
      </trkpt>
      <trkpt lat="48.64863" lon="4.85176">
        <ele>127.3</ele>
        <time>2020-06-30T12:25:57Z</time>
      </trkpt>
      <trkpt lat="48.64863" lon="4.8517">
        <ele>127.2</ele>
        <time>2020-06-30T12:25:58Z</time>
      </trkpt>
      <trkpt lat="48.64863" lon="4.85165">
        <ele>127.2</ele>
        <time>2020-06-30T12:25:59Z</time>
      </trkpt>
      <trkpt lat="48.64864" lon="4.85159">
        <ele>127.1</ele>
        <time>2020-06-30T12:26:00Z</time>
      </trkpt>
      <trkpt lat="48.64865" lon="4.85154">
        <ele>127.1</ele>
        <time>2020-06-30T12:26:01Z</time>
      </trkpt>
      <trkpt lat="48.64865" lon="4.85148">
        <ele>127.1</ele>
        <time>2020-06-30T12:26:02Z</time>
      </trkpt>
      <trkpt lat="48.64866" lon="4.85142">
        <ele>127</ele>
        <time>2020-06-30T12:26:03Z</time>
      </trkpt>
      <trkpt lat="48.64868" lon="4.85136">
        <ele>127</ele>
        <time>2020-06-30T12:26:04Z</time>
      </trkpt>
      <trkpt lat="48.64869" lon="4.85127">
        <ele>126.9</ele>
        <time>2020-06-30T12:26:05Z</time>
      </trkpt>
      <trkpt lat="48.6487" lon="4.85118">
        <ele>126.9</ele>
        <time>2020-06-30T12:26:06Z</time>
      </trkpt>
      <trkpt lat="48.64872" lon="4.8511">
        <ele>126.8</ele>
        <time>2020-06-30T12:26:07Z</time>
      </trkpt>
      <trkpt lat="48.64873" lon="4.851">
        <ele>126.8</ele>
        <time>2020-06-30T12:26:08Z</time>
      </trkpt>
      <trkpt lat="48.64873" lon="4.85091">
        <ele>126.8</ele>
        <time>2020-06-30T12:26:09Z</time>
      </trkpt>
      <trkpt lat="48.64875" lon="4.85083">
        <ele>126.8</ele>
        <time>2020-06-30T12:26:10Z</time>
      </trkpt>
      <trkpt lat="48.64876" lon="4.85075">
        <ele>126.8</ele>
        <time>2020-06-30T12:26:11Z</time>
      </trkpt>
      <trkpt lat="48.64877" lon="4.85066">
        <ele>126.8</ele>
        <time>2020-06-30T12:26:12Z</time>
      </trkpt>
      <trkpt lat="48.64879" lon="4.85057">
        <ele>126.8</ele>
        <time>2020-06-30T12:26:13Z</time>
      </trkpt>
      <trkpt lat="48.6488" lon="4.85048">
        <ele>126.8</ele>
        <time>2020-06-30T12:26:14Z</time>
      </trkpt>
      <trkpt lat="48.64881" lon="4.8504">
        <ele>126.8</ele>
        <time>2020-06-30T12:26:15Z</time>
      </trkpt>
      <trkpt lat="48.64883" lon="4.85031">
        <ele>126.8</ele>
        <time>2020-06-30T12:26:16Z</time>
      </trkpt>
      <trkpt lat="48.64884" lon="4.85022">
        <ele>126.8</ele>
        <time>2020-06-30T12:26:17Z</time>
      </trkpt>
      <trkpt lat="48.64885" lon="4.85012">
        <ele>126.8</ele>
        <time>2020-06-30T12:26:18Z</time>
      </trkpt>
      <trkpt lat="48.64887" lon="4.85002">
        <ele>126.8</ele>
        <time>2020-06-30T12:26:19Z</time>
      </trkpt>
      <trkpt lat="48.64887" lon="4.84992">
        <ele>126.8</ele>
        <time>2020-06-30T12:26:20Z</time>
      </trkpt>
      <trkpt lat="48.64889" lon="4.84983">
        <ele>126.8</ele>
        <time>2020-06-30T12:26:21Z</time>
      </trkpt>
      <trkpt lat="48.6489" lon="4.84974">
        <ele>126.8</ele>
        <time>2020-06-30T12:26:22Z</time>
      </trkpt>
      <trkpt lat="48.64891" lon="4.84964">
        <ele>126.8</ele>
        <time>2020-06-30T12:26:23Z</time>
      </trkpt>
      <trkpt lat="48.64893" lon="4.84955">
        <ele>126.8</ele>
        <time>2020-06-30T12:26:24Z</time>
      </trkpt>
      <trkpt lat="48.64895" lon="4.84946">
        <ele>126.9</ele>
        <time>2020-06-30T12:26:25Z</time>
      </trkpt>
      <trkpt lat="48.64896" lon="4.84937">
        <ele>126.9</ele>
        <time>2020-06-30T12:26:26Z</time>
      </trkpt>
      <trkpt lat="48.64898" lon="4.84928">
        <ele>126.9</ele>
        <time>2020-06-30T12:26:27Z</time>
      </trkpt>
      <trkpt lat="48.649" lon="4.84919">
        <ele>126.9</ele>
        <time>2020-06-30T12:26:28Z</time>
      </trkpt>
      <trkpt lat="48.649" lon="4.8491">
        <ele>126.9</ele>
        <time>2020-06-30T12:26:29Z</time>
      </trkpt>
      <trkpt lat="48.64902" lon="4.84901">
        <ele>126.9</ele>
        <time>2020-06-30T12:26:30Z</time>
      </trkpt>
      <trkpt lat="48.64904" lon="4.84892">
        <ele>126.9</ele>
        <time>2020-06-30T12:26:31Z</time>
      </trkpt>
      <trkpt lat="48.64905" lon="4.84882">
        <ele>126.8</ele>
        <time>2020-06-30T12:26:32Z</time>
      </trkpt>
      <trkpt lat="48.64906" lon="4.84872">
        <ele>126.8</ele>
        <time>2020-06-30T12:26:33Z</time>
      </trkpt>
      <trkpt lat="48.64908" lon="4.84864">
        <ele>126.8</ele>
        <time>2020-06-30T12:26:34Z</time>
      </trkpt>
      <trkpt lat="48.64909" lon="4.84855">
        <ele>126.8</ele>
        <time>2020-06-30T12:26:35Z</time>
      </trkpt>
      <trkpt lat="48.6491" lon="4.84845">
        <ele>126.9</ele>
        <time>2020-06-30T12:26:36Z</time>
      </trkpt>
      <trkpt lat="48.64911" lon="4.84835">
        <ele>126.9</ele>
        <time>2020-06-30T12:26:37Z</time>
      </trkpt>
      <trkpt lat="48.64912" lon="4.84825">
        <ele>126.9</ele>
        <time>2020-06-30T12:26:38Z</time>
      </trkpt>
      <trkpt lat="48.64913" lon="4.84816">
        <ele>126.9</ele>
        <time>2020-06-30T12:26:39Z</time>
      </trkpt>
      <trkpt lat="48.64914" lon="4.84807">
        <ele>126.9</ele>
        <time>2020-06-30T12:26:40Z</time>
      </trkpt>
      <trkpt lat="48.64915" lon="4.84798">
        <ele>126.9</ele>
        <time>2020-06-30T12:26:41Z</time>
      </trkpt>
      <trkpt lat="48.64916" lon="4.84788">
        <ele>126.9</ele>
        <time>2020-06-30T12:26:42Z</time>
      </trkpt>
      <trkpt lat="48.64916" lon="4.84779">
        <ele>126.9</ele>
        <time>2020-06-30T12:26:43Z</time>
      </trkpt>
      <trkpt lat="48.64917" lon="4.8477">
        <ele>126.9</ele>
        <time>2020-06-30T12:26:44Z</time>
      </trkpt>
      <trkpt lat="48.64918" lon="4.84761">
        <ele>126.9</ele>
        <time>2020-06-30T12:26:45Z</time>
      </trkpt>
      <trkpt lat="48.64919" lon="4.84752">
        <ele>126.9</ele>
        <time>2020-06-30T12:26:46Z</time>
      </trkpt>
      <trkpt lat="48.6492" lon="4.84743">
        <ele>126.9</ele>
        <time>2020-06-30T12:26:47Z</time>
      </trkpt>
      <trkpt lat="48.64921" lon="4.84734">
        <ele>126.9</ele>
        <time>2020-06-30T12:26:48Z</time>
      </trkpt>
      <trkpt lat="48.64922" lon="4.84725">
        <ele>126.9</ele>
        <time>2020-06-30T12:26:49Z</time>
      </trkpt>
      <trkpt lat="48.64922" lon="4.84715">
        <ele>127</ele>
        <time>2020-06-30T12:26:50Z</time>
      </trkpt>
      <trkpt lat="48.64923" lon="4.84706">
        <ele>127</ele>
        <time>2020-06-30T12:26:51Z</time>
      </trkpt>
      <trkpt lat="48.64924" lon="4.84697">
        <ele>127</ele>
        <time>2020-06-30T12:26:52Z</time>
      </trkpt>
      <trkpt lat="48.64924" lon="4.84687">
        <ele>127</ele>
        <time>2020-06-30T12:26:53Z</time>
      </trkpt>
      <trkpt lat="48.64924" lon="4.84678">
        <ele>127</ele>
        <time>2020-06-30T12:26:54Z</time>
      </trkpt>
      <trkpt lat="48.64926" lon="4.8467">
        <ele>127.1</ele>
        <time>2020-06-30T12:26:55Z</time>
      </trkpt>
      <trkpt lat="48.64928" lon="4.84661">
        <ele>127.1</ele>
        <time>2020-06-30T12:26:56Z</time>
      </trkpt>
      <trkpt lat="48.64928" lon="4.84653">
        <ele>127.1</ele>
        <time>2020-06-30T12:26:57Z</time>
      </trkpt>
      <trkpt lat="48.64928" lon="4.84644">
        <ele>127.2</ele>
        <time>2020-06-30T12:26:58Z</time>
      </trkpt>
      <trkpt lat="48.64927" lon="4.84635">
        <ele>127.2</ele>
        <time>2020-06-30T12:26:59Z</time>
      </trkpt>
      <trkpt lat="48.64928" lon="4.84626">
        <ele>127.2</ele>
        <time>2020-06-30T12:27:00Z</time>
      </trkpt>
      <trkpt lat="48.64928" lon="4.84617">
        <ele>127.2</ele>
        <time>2020-06-30T12:27:01Z</time>
      </trkpt>
      <trkpt lat="48.64929" lon="4.84608">
        <ele>127.2</ele>
        <time>2020-06-30T12:27:02Z</time>
      </trkpt>
      <trkpt lat="48.64929" lon="4.84599">
        <ele>127.2</ele>
        <time>2020-06-30T12:27:03Z</time>
      </trkpt>
      <trkpt lat="48.6493" lon="4.8459">
        <ele>127.2</ele>
        <time>2020-06-30T12:27:04Z</time>
      </trkpt>
      <trkpt lat="48.64931" lon="4.84582">
        <ele>127.2</ele>
        <time>2020-06-30T12:27:05Z</time>
      </trkpt>
      <trkpt lat="48.64932" lon="4.84574">
        <ele>127.4</ele>
        <time>2020-06-30T12:27:06Z</time>
      </trkpt>
      <trkpt lat="48.64932" lon="4.84566">
        <ele>127.7</ele>
        <time>2020-06-30T12:27:07Z</time>
      </trkpt>
      <trkpt lat="48.64931" lon="4.84558">
        <ele>127.9</ele>
        <time>2020-06-30T12:27:08Z</time>
      </trkpt>
      <trkpt lat="48.64932" lon="4.8455">
        <ele>128.1</ele>
        <time>2020-06-30T12:27:09Z</time>
      </trkpt>
      <trkpt lat="48.64932" lon="4.84541">
        <ele>128.1</ele>
        <time>2020-06-30T12:27:10Z</time>
      </trkpt>
      <trkpt lat="48.64933" lon="4.84532">
        <ele>128.1</ele>
        <time>2020-06-30T12:27:11Z</time>
      </trkpt>
      <trkpt lat="48.64933" lon="4.84525">
        <ele>128.1</ele>
        <time>2020-06-30T12:27:12Z</time>
      </trkpt>
      <trkpt lat="48.64933" lon="4.84517">
        <ele>128.1</ele>
        <time>2020-06-30T12:27:13Z</time>
      </trkpt>
      <trkpt lat="48.64933" lon="4.8451">
        <ele>128.1</ele>
        <time>2020-06-30T12:27:14Z</time>
      </trkpt>
      <trkpt lat="48.64934" lon="4.84503">
        <ele>128.1</ele>
        <time>2020-06-30T12:27:15Z</time>
      </trkpt>
      <trkpt lat="48.64933" lon="4.84495">
        <ele>128.1</ele>
        <time>2020-06-30T12:27:16Z</time>
      </trkpt>
      <trkpt lat="48.64933" lon="4.84487">
        <ele>128.1</ele>
        <time>2020-06-30T12:27:17Z</time>
      </trkpt>
      <trkpt lat="48.64934" lon="4.84478">
        <ele>128.1</ele>
        <time>2020-06-30T12:27:18Z</time>
      </trkpt>
      <trkpt lat="48.64933" lon="4.84469">
        <ele>128.1</ele>
        <time>2020-06-30T12:27:19Z</time>
      </trkpt>
      <trkpt lat="48.64934" lon="4.8446">
        <ele>128.1</ele>
        <time>2020-06-30T12:27:20Z</time>
      </trkpt>
      <trkpt lat="48.64935" lon="4.84451">
        <ele>128.1</ele>
        <time>2020-06-30T12:27:21Z</time>
      </trkpt>
      <trkpt lat="48.64936" lon="4.84443">
        <ele>128.1</ele>
        <time>2020-06-30T12:27:22Z</time>
      </trkpt>
      <trkpt lat="48.64937" lon="4.84434">
        <ele>128.1</ele>
        <time>2020-06-30T12:27:23Z</time>
      </trkpt>
      <trkpt lat="48.64936" lon="4.84424">
        <ele>128.1</ele>
        <time>2020-06-30T12:27:24Z</time>
      </trkpt>
      <trkpt lat="48.64936" lon="4.84415">
        <ele>128.1</ele>
        <time>2020-06-30T12:27:25Z</time>
      </trkpt>
      <trkpt lat="48.64937" lon="4.84405">
        <ele>128.1</ele>
        <time>2020-06-30T12:27:26Z</time>
      </trkpt>
      <trkpt lat="48.64937" lon="4.84395">
        <ele>128.1</ele>
        <time>2020-06-30T12:27:27Z</time>
      </trkpt>
      <trkpt lat="48.64938" lon="4.84386">
        <ele>128.1</ele>
        <time>2020-06-30T12:27:28Z</time>
      </trkpt>
      <trkpt lat="48.64937" lon="4.84376">
        <ele>128.1</ele>
        <time>2020-06-30T12:27:29Z</time>
      </trkpt>
      <trkpt lat="48.64937" lon="4.84366">
        <ele>128.1</ele>
        <time>2020-06-30T12:27:30Z</time>
      </trkpt>
      <trkpt lat="48.64937" lon="4.84356">
        <ele>128.1</ele>
        <time>2020-06-30T12:27:31Z</time>
      </trkpt>
      <trkpt lat="48.64938" lon="4.84347">
        <ele>128.1</ele>
        <time>2020-06-30T12:27:32Z</time>
      </trkpt>
      <trkpt lat="48.64939" lon="4.84338">
        <ele>128.1</ele>
        <time>2020-06-30T12:27:33Z</time>
      </trkpt>
      <trkpt lat="48.6494" lon="4.84329">
        <ele>128.1</ele>
        <time>2020-06-30T12:27:34Z</time>
      </trkpt>
      <trkpt lat="48.64941" lon="4.8432">
        <ele>128.1</ele>
        <time>2020-06-30T12:27:35Z</time>
      </trkpt>
      <trkpt lat="48.64941" lon="4.84312">
        <ele>128.1</ele>
        <time>2020-06-30T12:27:36Z</time>
      </trkpt>
      <trkpt lat="48.64942" lon="4.84303">
        <ele>128.1</ele>
        <time>2020-06-30T12:27:37Z</time>
      </trkpt>
      <trkpt lat="48.64943" lon="4.84295">
        <ele>128.1</ele>
        <time>2020-06-30T12:27:38Z</time>
      </trkpt>
      <trkpt lat="48.64944" lon="4.84286">
        <ele>128.1</ele>
        <time>2020-06-30T12:27:39Z</time>
      </trkpt>
      <trkpt lat="48.64945" lon="4.84278">
        <ele>128.1</ele>
        <time>2020-06-30T12:27:40Z</time>
      </trkpt>
      <trkpt lat="48.64945" lon="4.8427">
        <ele>128.1</ele>
        <time>2020-06-30T12:27:41Z</time>
      </trkpt>
      <trkpt lat="48.64946" lon="4.84262">
        <ele>128.1</ele>
        <time>2020-06-30T12:27:42Z</time>
      </trkpt>
      <trkpt lat="48.64947" lon="4.84255">
        <ele>128.1</ele>
        <time>2020-06-30T12:27:43Z</time>
      </trkpt>
      <trkpt lat="48.64948" lon="4.84247">
        <ele>128.1</ele>
        <time>2020-06-30T12:27:44Z</time>
      </trkpt>
      <trkpt lat="48.6495" lon="4.84239">
        <ele>128.1</ele>
        <time>2020-06-30T12:27:45Z</time>
      </trkpt>
      <trkpt lat="48.64951" lon="4.8423">
        <ele>128.1</ele>
        <time>2020-06-30T12:27:46Z</time>
      </trkpt>
      <trkpt lat="48.64952" lon="4.84221">
        <ele>128.1</ele>
        <time>2020-06-30T12:27:47Z</time>
      </trkpt>
      <trkpt lat="48.64953" lon="4.84211">
        <ele>128.1</ele>
        <time>2020-06-30T12:27:48Z</time>
      </trkpt>
      <trkpt lat="48.64954" lon="4.84202">
        <ele>128.1</ele>
        <time>2020-06-30T12:27:49Z</time>
      </trkpt>
      <trkpt lat="48.64955" lon="4.84191">
        <ele>128.1</ele>
        <time>2020-06-30T12:27:50Z</time>
      </trkpt>
      <trkpt lat="48.64956" lon="4.84182">
        <ele>128.1</ele>
        <time>2020-06-30T12:27:51Z</time>
      </trkpt>
      <trkpt lat="48.64957" lon="4.84171">
        <ele>128.1</ele>
        <time>2020-06-30T12:27:52Z</time>
      </trkpt>
      <trkpt lat="48.64959" lon="4.8416">
        <ele>128.1</ele>
        <time>2020-06-30T12:27:53Z</time>
      </trkpt>
      <trkpt lat="48.6496" lon="4.84151">
        <ele>128.1</ele>
        <time>2020-06-30T12:27:54Z</time>
      </trkpt>
      <trkpt lat="48.64962" lon="4.84141">
        <ele>128.1</ele>
        <time>2020-06-30T12:27:55Z</time>
      </trkpt>
      <trkpt lat="48.64963" lon="4.84131">
        <ele>128.1</ele>
        <time>2020-06-30T12:27:56Z</time>
      </trkpt>
      <trkpt lat="48.64963" lon="4.84123">
        <ele>128.1</ele>
        <time>2020-06-30T12:27:57Z</time>
      </trkpt>
      <trkpt lat="48.64963" lon="4.84113">
        <ele>128.1</ele>
        <time>2020-06-30T12:27:58Z</time>
      </trkpt>
      <trkpt lat="48.64964" lon="4.84103">
        <ele>128.1</ele>
        <time>2020-06-30T12:27:59Z</time>
      </trkpt>
      <trkpt lat="48.64964" lon="4.84095">
        <ele>128.1</ele>
        <time>2020-06-30T12:28:00Z</time>
      </trkpt>
      <trkpt lat="48.64965" lon="4.84085">
        <ele>128.1</ele>
        <time>2020-06-30T12:28:01Z</time>
      </trkpt>
      <trkpt lat="48.64967" lon="4.84077">
        <ele>128.1</ele>
        <time>2020-06-30T12:28:02Z</time>
      </trkpt>
      <trkpt lat="48.64968" lon="4.84068">
        <ele>128.1</ele>
        <time>2020-06-30T12:28:03Z</time>
      </trkpt>
      <trkpt lat="48.6497" lon="4.84057">
        <ele>128.1</ele>
        <time>2020-06-30T12:28:04Z</time>
      </trkpt>
      <trkpt lat="48.64972" lon="4.84048">
        <ele>128.1</ele>
        <time>2020-06-30T12:28:05Z</time>
      </trkpt>
      <trkpt lat="48.64974" lon="4.84039">
        <ele>128.2</ele>
        <time>2020-06-30T12:28:06Z</time>
      </trkpt>
      <trkpt lat="48.64975" lon="4.84031">
        <ele>128.2</ele>
        <time>2020-06-30T12:28:07Z</time>
      </trkpt>
      <trkpt lat="48.64977" lon="4.84022">
        <ele>128.2</ele>
        <time>2020-06-30T12:28:08Z</time>
      </trkpt>
      <trkpt lat="48.64979" lon="4.84013">
        <ele>128.2</ele>
        <time>2020-06-30T12:28:09Z</time>
      </trkpt>
      <trkpt lat="48.64981" lon="4.84">
        <ele>128.2</ele>
        <time>2020-06-30T12:28:10Z</time>
      </trkpt>
      <trkpt lat="48.64983" lon="4.83991">
        <ele>128.2</ele>
        <time>2020-06-30T12:28:11Z</time>
      </trkpt>
      <trkpt lat="48.64985" lon="4.83981">
        <ele>128.2</ele>
        <time>2020-06-30T12:28:12Z</time>
      </trkpt>
      <trkpt lat="48.64987" lon="4.83972">
        <ele>128.2</ele>
        <time>2020-06-30T12:28:13Z</time>
      </trkpt>
      <trkpt lat="48.6499" lon="4.83959">
        <ele>128.2</ele>
        <time>2020-06-30T12:28:14Z</time>
      </trkpt>
      <trkpt lat="48.64993" lon="4.83944">
        <ele>128.2</ele>
        <time>2020-06-30T12:28:15Z</time>
      </trkpt>
      <trkpt lat="48.64996" lon="4.83931">
        <ele>128.3</ele>
        <time>2020-06-30T12:28:16Z</time>
      </trkpt>
      <trkpt lat="48.65001" lon="4.83917">
        <ele>128.3</ele>
        <time>2020-06-30T12:28:17Z</time>
      </trkpt>
      <trkpt lat="48.65007" lon="4.83903">
        <ele>128.3</ele>
        <time>2020-06-30T12:28:18Z</time>
      </trkpt>
      <trkpt lat="48.65012" lon="4.83892">
        <ele>128.3</ele>
        <time>2020-06-30T12:28:19Z</time>
      </trkpt>
      <trkpt lat="48.65016" lon="4.83882">
        <ele>128.3</ele>
        <time>2020-06-30T12:28:20Z</time>
      </trkpt>
      <trkpt lat="48.65023" lon="4.83871">
        <ele>128.3</ele>
        <time>2020-06-30T12:28:21Z</time>
      </trkpt>
      <trkpt lat="48.6503" lon="4.83862">
        <ele>128.4</ele>
        <time>2020-06-30T12:28:22Z</time>
      </trkpt>
      <trkpt lat="48.65035" lon="4.83852">
        <ele>128</ele>
        <time>2020-06-30T12:28:23Z</time>
      </trkpt>
      <trkpt lat="48.65043" lon="4.83841">
        <ele>127</ele>
        <time>2020-06-30T12:28:24Z</time>
      </trkpt>
      <trkpt lat="48.65049" lon="4.83829">
        <ele>127</ele>
        <time>2020-06-30T12:28:25Z</time>
      </trkpt>
      <trkpt lat="48.65052" lon="4.8382">
        <ele>127</ele>
        <time>2020-06-30T12:28:26Z</time>
      </trkpt>
      <trkpt lat="48.65055" lon="4.8381">
        <ele>127</ele>
        <time>2020-06-30T12:28:27Z</time>
      </trkpt>
      <trkpt lat="48.65058" lon="4.83801">
        <ele>127</ele>
        <time>2020-06-30T12:28:28Z</time>
      </trkpt>
      <trkpt lat="48.6506" lon="4.83791">
        <ele>126.9</ele>
        <time>2020-06-30T12:28:29Z</time>
      </trkpt>
      <trkpt lat="48.65061" lon="4.83781">
        <ele>126.9</ele>
        <time>2020-06-30T12:28:30Z</time>
      </trkpt>
      <trkpt lat="48.65063" lon="4.83772">
        <ele>126.9</ele>
        <time>2020-06-30T12:28:31Z</time>
      </trkpt>
      <trkpt lat="48.65065" lon="4.83762">
        <ele>127</ele>
        <time>2020-06-30T12:28:32Z</time>
      </trkpt>
      <trkpt lat="48.65067" lon="4.83752">
        <ele>127</ele>
        <time>2020-06-30T12:28:33Z</time>
      </trkpt>
      <trkpt lat="48.65068" lon="4.83742">
        <ele>127</ele>
        <time>2020-06-30T12:28:34Z</time>
      </trkpt>
      <trkpt lat="48.65069" lon="4.83734">
        <ele>127</ele>
        <time>2020-06-30T12:28:35Z</time>
      </trkpt>
      <trkpt lat="48.65071" lon="4.83726">
        <ele>127</ele>
        <time>2020-06-30T12:28:36Z</time>
      </trkpt>
      <trkpt lat="48.65073" lon="4.83716">
        <ele>127</ele>
        <time>2020-06-30T12:28:37Z</time>
      </trkpt>
      <trkpt lat="48.65075" lon="4.83707">
        <ele>127</ele>
        <time>2020-06-30T12:28:38Z</time>
      </trkpt>
      <trkpt lat="48.65076" lon="4.83697">
        <ele>127</ele>
        <time>2020-06-30T12:28:39Z</time>
      </trkpt>
      <trkpt lat="48.65078" lon="4.83687">
        <ele>127</ele>
        <time>2020-06-30T12:28:40Z</time>
      </trkpt>
      <trkpt lat="48.6508" lon="4.83677">
        <ele>126.9</ele>
        <time>2020-06-30T12:28:41Z</time>
      </trkpt>
      <trkpt lat="48.65081" lon="4.83667">
        <ele>126.9</ele>
        <time>2020-06-30T12:28:42Z</time>
      </trkpt>
      <trkpt lat="48.65083" lon="4.83657">
        <ele>126.9</ele>
        <time>2020-06-30T12:28:43Z</time>
      </trkpt>
      <trkpt lat="48.65084" lon="4.83647">
        <ele>126.9</ele>
        <time>2020-06-30T12:28:44Z</time>
      </trkpt>
      <trkpt lat="48.65086" lon="4.83637">
        <ele>126.9</ele>
        <time>2020-06-30T12:28:45Z</time>
      </trkpt>
      <trkpt lat="48.65087" lon="4.83627">
        <ele>126.9</ele>
        <time>2020-06-30T12:28:46Z</time>
      </trkpt>
      <trkpt lat="48.65089" lon="4.83617">
        <ele>126.9</ele>
        <time>2020-06-30T12:28:47Z</time>
      </trkpt>
      <trkpt lat="48.6509" lon="4.83608">
        <ele>126.8</ele>
        <time>2020-06-30T12:28:48Z</time>
      </trkpt>
      <trkpt lat="48.65091" lon="4.83598">
        <ele>126.8</ele>
        <time>2020-06-30T12:28:49Z</time>
      </trkpt>
      <trkpt lat="48.65092" lon="4.83589">
        <ele>126.8</ele>
        <time>2020-06-30T12:28:50Z</time>
      </trkpt>
      <trkpt lat="48.65094" lon="4.8358">
        <ele>126.8</ele>
        <time>2020-06-30T12:28:51Z</time>
      </trkpt>
      <trkpt lat="48.65095" lon="4.83571">
        <ele>126.7</ele>
        <time>2020-06-30T12:28:52Z</time>
      </trkpt>
      <trkpt lat="48.65097" lon="4.83563">
        <ele>126.7</ele>
        <time>2020-06-30T12:28:53Z</time>
      </trkpt>
      <trkpt lat="48.65098" lon="4.83553">
        <ele>126.7</ele>
        <time>2020-06-30T12:28:54Z</time>
      </trkpt>
      <trkpt lat="48.651" lon="4.83544">
        <ele>126.7</ele>
        <time>2020-06-30T12:28:55Z</time>
      </trkpt>
      <trkpt lat="48.65101" lon="4.83534">
        <ele>126.7</ele>
        <time>2020-06-30T12:28:56Z</time>
      </trkpt>
      <trkpt lat="48.65102" lon="4.83525">
        <ele>126.7</ele>
        <time>2020-06-30T12:28:57Z</time>
      </trkpt>
      <trkpt lat="48.65103" lon="4.83515">
        <ele>126.8</ele>
        <time>2020-06-30T12:28:58Z</time>
      </trkpt>
      <trkpt lat="48.65105" lon="4.83506">
        <ele>126.8</ele>
        <time>2020-06-30T12:28:59Z</time>
      </trkpt>
      <trkpt lat="48.65106" lon="4.83497">
        <ele>126.8</ele>
        <time>2020-06-30T12:29:00Z</time>
      </trkpt>
      <trkpt lat="48.65107" lon="4.83487">
        <ele>126.8</ele>
        <time>2020-06-30T12:29:01Z</time>
      </trkpt>
      <trkpt lat="48.65108" lon="4.83478">
        <ele>126.8</ele>
        <time>2020-06-30T12:29:02Z</time>
      </trkpt>
      <trkpt lat="48.6511" lon="4.83468">
        <ele>126.8</ele>
        <time>2020-06-30T12:29:03Z</time>
      </trkpt>
      <trkpt lat="48.65112" lon="4.83459">
        <ele>126.8</ele>
        <time>2020-06-30T12:29:04Z</time>
      </trkpt>
      <trkpt lat="48.65113" lon="4.83449">
        <ele>126.8</ele>
        <time>2020-06-30T12:29:05Z</time>
      </trkpt>
      <trkpt lat="48.65114" lon="4.83439">
        <ele>126.8</ele>
        <time>2020-06-30T12:29:06Z</time>
      </trkpt>
      <trkpt lat="48.65115" lon="4.8343">
        <ele>126.8</ele>
        <time>2020-06-30T12:29:07Z</time>
      </trkpt>
      <trkpt lat="48.65116" lon="4.8342">
        <ele>126.7</ele>
        <time>2020-06-30T12:29:08Z</time>
      </trkpt>
      <trkpt lat="48.65117" lon="4.8341">
        <ele>126.7</ele>
        <time>2020-06-30T12:29:09Z</time>
      </trkpt>
      <trkpt lat="48.65118" lon="4.834">
        <ele>126.7</ele>
        <time>2020-06-30T12:29:10Z</time>
      </trkpt>
      <trkpt lat="48.6512" lon="4.83391">
        <ele>126.7</ele>
        <time>2020-06-30T12:29:11Z</time>
      </trkpt>
      <trkpt lat="48.65121" lon="4.83381">
        <ele>126.6</ele>
        <time>2020-06-30T12:29:12Z</time>
      </trkpt>
      <trkpt lat="48.65123" lon="4.83372">
        <ele>126.6</ele>
        <time>2020-06-30T12:29:13Z</time>
      </trkpt>
      <trkpt lat="48.65125" lon="4.83362">
        <ele>126.6</ele>
        <time>2020-06-30T12:29:14Z</time>
      </trkpt>
      <trkpt lat="48.65126" lon="4.83353">
        <ele>126.6</ele>
        <time>2020-06-30T12:29:15Z</time>
      </trkpt>
      <trkpt lat="48.65127" lon="4.83343">
        <ele>126.6</ele>
        <time>2020-06-30T12:29:16Z</time>
      </trkpt>
      <trkpt lat="48.65129" lon="4.83333">
        <ele>126.6</ele>
        <time>2020-06-30T12:29:17Z</time>
      </trkpt>
      <trkpt lat="48.6513" lon="4.83324">
        <ele>126.6</ele>
        <time>2020-06-30T12:29:18Z</time>
      </trkpt>
      <trkpt lat="48.65132" lon="4.83314">
        <ele>126.6</ele>
        <time>2020-06-30T12:29:19Z</time>
      </trkpt>
      <trkpt lat="48.65133" lon="4.83304">
        <ele>126.6</ele>
        <time>2020-06-30T12:29:20Z</time>
      </trkpt>
      <trkpt lat="48.65135" lon="4.83294">
        <ele>126.6</ele>
        <time>2020-06-30T12:29:21Z</time>
      </trkpt>
      <trkpt lat="48.65136" lon="4.83283">
        <ele>126.6</ele>
        <time>2020-06-30T12:29:22Z</time>
      </trkpt>
      <trkpt lat="48.65137" lon="4.83274">
        <ele>126.6</ele>
        <time>2020-06-30T12:29:23Z</time>
      </trkpt>
      <trkpt lat="48.65139" lon="4.83266">
        <ele>126.6</ele>
        <time>2020-06-30T12:29:24Z</time>
      </trkpt>
      <trkpt lat="48.6514" lon="4.83257">
        <ele>126.6</ele>
        <time>2020-06-30T12:29:25Z</time>
      </trkpt>
      <trkpt lat="48.65142" lon="4.83248">
        <ele>126.6</ele>
        <time>2020-06-30T12:29:26Z</time>
      </trkpt>
      <trkpt lat="48.65144" lon="4.83238">
        <ele>126.6</ele>
        <time>2020-06-30T12:29:27Z</time>
      </trkpt>
      <trkpt lat="48.65144" lon="4.83229">
        <ele>126.6</ele>
        <time>2020-06-30T12:29:28Z</time>
      </trkpt>
      <trkpt lat="48.65145" lon="4.8322">
        <ele>126.6</ele>
        <time>2020-06-30T12:29:29Z</time>
      </trkpt>
      <trkpt lat="48.65147" lon="4.83209">
        <ele>126.6</ele>
        <time>2020-06-30T12:29:30Z</time>
      </trkpt>
      <trkpt lat="48.65149" lon="4.83199">
        <ele>126.6</ele>
        <time>2020-06-30T12:29:31Z</time>
      </trkpt>
      <trkpt lat="48.6515" lon="4.83189">
        <ele>126.6</ele>
        <time>2020-06-30T12:29:32Z</time>
      </trkpt>
      <trkpt lat="48.65152" lon="4.83179">
        <ele>126.6</ele>
        <time>2020-06-30T12:29:33Z</time>
      </trkpt>
      <trkpt lat="48.65153" lon="4.83169">
        <ele>126.6</ele>
        <time>2020-06-30T12:29:34Z</time>
      </trkpt>
      <trkpt lat="48.65154" lon="4.83159">
        <ele>126.6</ele>
        <time>2020-06-30T12:29:35Z</time>
      </trkpt>
      <trkpt lat="48.65155" lon="4.83149">
        <ele>126.6</ele>
        <time>2020-06-30T12:29:36Z</time>
      </trkpt>
      <trkpt lat="48.65157" lon="4.8314">
        <ele>126.6</ele>
        <time>2020-06-30T12:29:37Z</time>
      </trkpt>
      <trkpt lat="48.65158" lon="4.83131">
        <ele>126.6</ele>
        <time>2020-06-30T12:29:38Z</time>
      </trkpt>
      <trkpt lat="48.65159" lon="4.83122">
        <ele>126.6</ele>
        <time>2020-06-30T12:29:39Z</time>
      </trkpt>
      <trkpt lat="48.65161" lon="4.83112">
        <ele>126.6</ele>
        <time>2020-06-30T12:29:40Z</time>
      </trkpt>
      <trkpt lat="48.65162" lon="4.83103">
        <ele>126.6</ele>
        <time>2020-06-30T12:29:41Z</time>
      </trkpt>
      <trkpt lat="48.65163" lon="4.83097">
        <ele>126.6</ele>
        <time>2020-06-30T12:29:42Z</time>
      </trkpt>
      <trkpt lat="48.65164" lon="4.83086">
        <ele>126.6</ele>
        <time>2020-06-30T12:29:43Z</time>
      </trkpt>
      <trkpt lat="48.65166" lon="4.83074">
        <ele>126.6</ele>
        <time>2020-06-30T12:29:44Z</time>
      </trkpt>
      <trkpt lat="48.65168" lon="4.83064">
        <ele>126.6</ele>
        <time>2020-06-30T12:29:45Z</time>
      </trkpt>
      <trkpt lat="48.65169" lon="4.83057">
        <ele>126.6</ele>
        <time>2020-06-30T12:29:46Z</time>
      </trkpt>
      <trkpt lat="48.6517" lon="4.83047">
        <ele>126.7</ele>
        <time>2020-06-30T12:29:47Z</time>
      </trkpt>
      <trkpt lat="48.65172" lon="4.83038">
        <ele>126.7</ele>
        <time>2020-06-30T12:29:48Z</time>
      </trkpt>
      <trkpt lat="48.65173" lon="4.83028">
        <ele>126.7</ele>
        <time>2020-06-30T12:29:49Z</time>
      </trkpt>
      <trkpt lat="48.65174" lon="4.83019">
        <ele>126.8</ele>
        <time>2020-06-30T12:29:50Z</time>
      </trkpt>
      <trkpt lat="48.65175" lon="4.83011">
        <ele>126.8</ele>
        <time>2020-06-30T12:29:51Z</time>
      </trkpt>
      <trkpt lat="48.65177" lon="4.83001">
        <ele>126.9</ele>
        <time>2020-06-30T12:29:52Z</time>
      </trkpt>
      <trkpt lat="48.65178" lon="4.82991">
        <ele>127</ele>
        <time>2020-06-30T12:29:53Z</time>
      </trkpt>
      <trkpt lat="48.65179" lon="4.82982">
        <ele>127.1</ele>
        <time>2020-06-30T12:29:54Z</time>
      </trkpt>
      <trkpt lat="48.65181" lon="4.82973">
        <ele>127.1</ele>
        <time>2020-06-30T12:29:55Z</time>
      </trkpt>
      <trkpt lat="48.65183" lon="4.82966">
        <ele>127.2</ele>
        <time>2020-06-30T12:29:56Z</time>
      </trkpt>
      <trkpt lat="48.65183" lon="4.82956">
        <ele>127.2</ele>
        <time>2020-06-30T12:29:57Z</time>
      </trkpt>
      <trkpt lat="48.65184" lon="4.82949">
        <ele>127.2</ele>
        <time>2020-06-30T12:29:58Z</time>
      </trkpt>
      <trkpt lat="48.65186" lon="4.8294">
        <ele>127.3</ele>
        <time>2020-06-30T12:29:59Z</time>
      </trkpt>
      <trkpt lat="48.65187" lon="4.8293">
        <ele>127.3</ele>
        <time>2020-06-30T12:30:00Z</time>
      </trkpt>
      <trkpt lat="48.65188" lon="4.8292">
        <ele>127.3</ele>
        <time>2020-06-30T12:30:01Z</time>
      </trkpt>
      <trkpt lat="48.6519" lon="4.82911">
        <ele>127.2</ele>
        <time>2020-06-30T12:30:02Z</time>
      </trkpt>
      <trkpt lat="48.65192" lon="4.82901">
        <ele>127.2</ele>
        <time>2020-06-30T12:30:03Z</time>
      </trkpt>
      <trkpt lat="48.65193" lon="4.82894">
        <ele>127.2</ele>
        <time>2020-06-30T12:30:04Z</time>
      </trkpt>
      <trkpt lat="48.65193" lon="4.82888">
        <ele>127.2</ele>
        <time>2020-06-30T12:30:05Z</time>
      </trkpt>
      <trkpt lat="48.65194" lon="4.8288">
        <ele>127.2</ele>
        <time>2020-06-30T12:30:06Z</time>
      </trkpt>
      <trkpt lat="48.65194" lon="4.82876">
        <ele>127.2</ele>
        <time>2020-06-30T12:30:07Z</time>
      </trkpt>
      <trkpt lat="48.65194" lon="4.82867">
        <ele>127.1</ele>
        <time>2020-06-30T12:30:08Z</time>
      </trkpt>
      <trkpt lat="48.65194" lon="4.82858">
        <ele>127.1</ele>
        <time>2020-06-30T12:30:09Z</time>
      </trkpt>
      <trkpt lat="48.65194" lon="4.82851">
        <ele>127.1</ele>
        <time>2020-06-30T12:30:10Z</time>
      </trkpt>
      <trkpt lat="48.65195" lon="4.82845">
        <ele>127.1</ele>
        <time>2020-06-30T12:30:11Z</time>
      </trkpt>
      <trkpt lat="48.65196" lon="4.8284">
        <ele>127.1</ele>
        <time>2020-06-30T12:30:12Z</time>
      </trkpt>
      <trkpt lat="48.65198" lon="4.82835">
        <ele>127.1</ele>
        <time>2020-06-30T12:30:13Z</time>
      </trkpt>
      <trkpt lat="48.652" lon="4.82829">
        <ele>127.1</ele>
        <time>2020-06-30T12:30:14Z</time>
      </trkpt>
      <trkpt lat="48.65201" lon="4.82822">
        <ele>127.2</ele>
        <time>2020-06-30T12:30:15Z</time>
      </trkpt>
      <trkpt lat="48.65202" lon="4.82815">
        <ele>127.2</ele>
        <time>2020-06-30T12:30:16Z</time>
      </trkpt>
      <trkpt lat="48.65203" lon="4.82808">
        <ele>127.2</ele>
        <time>2020-06-30T12:30:17Z</time>
      </trkpt>
      <trkpt lat="48.65204" lon="4.82802">
        <ele>127.2</ele>
        <time>2020-06-30T12:30:18Z</time>
      </trkpt>
      <trkpt lat="48.65206" lon="4.82794">
        <ele>127.2</ele>
        <time>2020-06-30T12:30:19Z</time>
      </trkpt>
      <trkpt lat="48.65207" lon="4.82789">
        <ele>127.3</ele>
        <time>2020-06-30T12:30:20Z</time>
      </trkpt>
      <trkpt lat="48.65208" lon="4.82783">
        <ele>127.2</ele>
        <time>2020-06-30T12:30:21Z</time>
      </trkpt>
      <trkpt lat="48.65209" lon="4.82775">
        <ele>127.1</ele>
        <time>2020-06-30T12:30:22Z</time>
      </trkpt>
      <trkpt lat="48.6521" lon="4.82766">
        <ele>127.1</ele>
        <time>2020-06-30T12:30:23Z</time>
      </trkpt>
      <trkpt lat="48.65211" lon="4.82759">
        <ele>127.1</ele>
        <time>2020-06-30T12:30:24Z</time>
      </trkpt>
      <trkpt lat="48.65213" lon="4.82751">
        <ele>127</ele>
        <time>2020-06-30T12:30:25Z</time>
      </trkpt>
      <trkpt lat="48.65214" lon="4.82747">
        <ele>127</ele>
        <time>2020-06-30T12:30:26Z</time>
      </trkpt>
      <trkpt lat="48.65216" lon="4.82739">
        <ele>127</ele>
        <time>2020-06-30T12:30:27Z</time>
      </trkpt>
      <trkpt lat="48.65217" lon="4.8273">
        <ele>127</ele>
        <time>2020-06-30T12:30:28Z</time>
      </trkpt>
      <trkpt lat="48.65218" lon="4.8272">
        <ele>127</ele>
        <time>2020-06-30T12:30:29Z</time>
      </trkpt>
      <trkpt lat="48.6522" lon="4.82711">
        <ele>127</ele>
        <time>2020-06-30T12:30:30Z</time>
      </trkpt>
      <trkpt lat="48.65221" lon="4.82701">
        <ele>127.1</ele>
        <time>2020-06-30T12:30:31Z</time>
      </trkpt>
      <trkpt lat="48.65222" lon="4.82693">
        <ele>127.1</ele>
        <time>2020-06-30T12:30:32Z</time>
      </trkpt>
      <trkpt lat="48.65223" lon="4.82686">
        <ele>127.1</ele>
        <time>2020-06-30T12:30:33Z</time>
      </trkpt>
      <trkpt lat="48.65224" lon="4.82677">
        <ele>127.1</ele>
        <time>2020-06-30T12:30:34Z</time>
      </trkpt>
      <trkpt lat="48.65225" lon="4.82669">
        <ele>127</ele>
        <time>2020-06-30T12:30:35Z</time>
      </trkpt>
      <trkpt lat="48.65226" lon="4.8266">
        <ele>127</ele>
        <time>2020-06-30T12:30:36Z</time>
      </trkpt>
      <trkpt lat="48.65227" lon="4.82652">
        <ele>127</ele>
        <time>2020-06-30T12:30:37Z</time>
      </trkpt>
      <trkpt lat="48.65229" lon="4.82641">
        <ele>127</ele>
        <time>2020-06-30T12:30:38Z</time>
      </trkpt>
      <trkpt lat="48.6523" lon="4.82631">
        <ele>127</ele>
        <time>2020-06-30T12:30:39Z</time>
      </trkpt>
      <trkpt lat="48.65231" lon="4.82622">
        <ele>127</ele>
        <time>2020-06-30T12:30:40Z</time>
      </trkpt>
      <trkpt lat="48.65233" lon="4.82612">
        <ele>127</ele>
        <time>2020-06-30T12:30:41Z</time>
      </trkpt>
      <trkpt lat="48.65234" lon="4.82603">
        <ele>126.9</ele>
        <time>2020-06-30T12:30:42Z</time>
      </trkpt>
      <trkpt lat="48.65235" lon="4.82592">
        <ele>126.9</ele>
        <time>2020-06-30T12:30:43Z</time>
      </trkpt>
      <trkpt lat="48.65237" lon="4.82583">
        <ele>126.9</ele>
        <time>2020-06-30T12:30:44Z</time>
      </trkpt>
      <trkpt lat="48.65239" lon="4.82573">
        <ele>126.9</ele>
        <time>2020-06-30T12:30:45Z</time>
      </trkpt>
      <trkpt lat="48.65241" lon="4.82565">
        <ele>126.9</ele>
        <time>2020-06-30T12:30:46Z</time>
      </trkpt>
      <trkpt lat="48.65243" lon="4.82557">
        <ele>126.9</ele>
        <time>2020-06-30T12:30:47Z</time>
      </trkpt>
      <trkpt lat="48.65244" lon="4.82548">
        <ele>127</ele>
        <time>2020-06-30T12:30:48Z</time>
      </trkpt>
      <trkpt lat="48.65245" lon="4.8254">
        <ele>127</ele>
        <time>2020-06-30T12:30:49Z</time>
      </trkpt>
      <trkpt lat="48.65245" lon="4.8253">
        <ele>127</ele>
        <time>2020-06-30T12:30:50Z</time>
      </trkpt>
      <trkpt lat="48.65247" lon="4.82521">
        <ele>127</ele>
        <time>2020-06-30T12:30:51Z</time>
      </trkpt>
      <trkpt lat="48.65248" lon="4.82511">
        <ele>127.1</ele>
        <time>2020-06-30T12:30:52Z</time>
      </trkpt>
      <trkpt lat="48.6525" lon="4.82501">
        <ele>127.1</ele>
        <time>2020-06-30T12:30:53Z</time>
      </trkpt>
      <trkpt lat="48.65252" lon="4.82489">
        <ele>127.1</ele>
        <time>2020-06-30T12:30:54Z</time>
      </trkpt>
      <trkpt lat="48.65252" lon="4.82482">
        <ele>127.1</ele>
        <time>2020-06-30T12:30:55Z</time>
      </trkpt>
      <trkpt lat="48.65254" lon="4.82473">
        <ele>127.1</ele>
        <time>2020-06-30T12:30:56Z</time>
      </trkpt>
      <trkpt lat="48.65255" lon="4.82463">
        <ele>127.1</ele>
        <time>2020-06-30T12:30:57Z</time>
      </trkpt>
      <trkpt lat="48.65257" lon="4.82452">
        <ele>127.1</ele>
        <time>2020-06-30T12:30:58Z</time>
      </trkpt>
      <trkpt lat="48.65258" lon="4.82443">
        <ele>127.1</ele>
        <time>2020-06-30T12:30:59Z</time>
      </trkpt>
      <trkpt lat="48.6526" lon="4.82435">
        <ele>127.1</ele>
        <time>2020-06-30T12:31:00Z</time>
      </trkpt>
      <trkpt lat="48.65261" lon="4.82424">
        <ele>127.1</ele>
        <time>2020-06-30T12:31:01Z</time>
      </trkpt>
      <trkpt lat="48.65262" lon="4.82415">
        <ele>127</ele>
        <time>2020-06-30T12:31:02Z</time>
      </trkpt>
      <trkpt lat="48.65263" lon="4.82404">
        <ele>126.9</ele>
        <time>2020-06-30T12:31:03Z</time>
      </trkpt>
      <trkpt lat="48.65263" lon="4.82397">
        <ele>126.8</ele>
        <time>2020-06-30T12:31:04Z</time>
      </trkpt>
      <trkpt lat="48.65264" lon="4.82388">
        <ele>126.8</ele>
        <time>2020-06-30T12:31:05Z</time>
      </trkpt>
      <trkpt lat="48.65265" lon="4.8238">
        <ele>126.7</ele>
        <time>2020-06-30T12:31:06Z</time>
      </trkpt>
      <trkpt lat="48.65266" lon="4.82372">
        <ele>126.7</ele>
        <time>2020-06-30T12:31:07Z</time>
      </trkpt>
      <trkpt lat="48.65267" lon="4.82362">
        <ele>126.7</ele>
        <time>2020-06-30T12:31:08Z</time>
      </trkpt>
      <trkpt lat="48.65269" lon="4.82354">
        <ele>126.7</ele>
        <time>2020-06-30T12:31:09Z</time>
      </trkpt>
      <trkpt lat="48.6527" lon="4.82345">
        <ele>126.7</ele>
        <time>2020-06-30T12:31:10Z</time>
      </trkpt>
      <trkpt lat="48.65271" lon="4.82337">
        <ele>126.7</ele>
        <time>2020-06-30T12:31:11Z</time>
      </trkpt>
      <trkpt lat="48.65271" lon="4.82329">
        <ele>126.7</ele>
        <time>2020-06-30T12:31:12Z</time>
      </trkpt>
      <trkpt lat="48.65273" lon="4.82321">
        <ele>126.7</ele>
        <time>2020-06-30T12:31:13Z</time>
      </trkpt>
      <trkpt lat="48.65274" lon="4.82311">
        <ele>126.7</ele>
        <time>2020-06-30T12:31:14Z</time>
      </trkpt>
      <trkpt lat="48.65275" lon="4.82299">
        <ele>126.7</ele>
        <time>2020-06-30T12:31:15Z</time>
      </trkpt>
      <trkpt lat="48.65276" lon="4.82292">
        <ele>126.7</ele>
        <time>2020-06-30T12:31:16Z</time>
      </trkpt>
      <trkpt lat="48.65278" lon="4.82282">
        <ele>126.6</ele>
        <time>2020-06-30T12:31:17Z</time>
      </trkpt>
      <trkpt lat="48.65279" lon="4.82272">
        <ele>126.6</ele>
        <time>2020-06-30T12:31:18Z</time>
      </trkpt>
      <trkpt lat="48.65281" lon="4.82264">
        <ele>126.6</ele>
        <time>2020-06-30T12:31:19Z</time>
      </trkpt>
      <trkpt lat="48.65282" lon="4.82255">
        <ele>126.6</ele>
        <time>2020-06-30T12:31:20Z</time>
      </trkpt>
      <trkpt lat="48.65284" lon="4.82247">
        <ele>126.5</ele>
        <time>2020-06-30T12:31:21Z</time>
      </trkpt>
      <trkpt lat="48.65285" lon="4.82237">
        <ele>126.5</ele>
        <time>2020-06-30T12:31:22Z</time>
      </trkpt>
      <trkpt lat="48.65287" lon="4.82228">
        <ele>126.5</ele>
        <time>2020-06-30T12:31:23Z</time>
      </trkpt>
      <trkpt lat="48.65288" lon="4.82217">
        <ele>126.4</ele>
        <time>2020-06-30T12:31:24Z</time>
      </trkpt>
      <trkpt lat="48.65289" lon="4.82209">
        <ele>126.4</ele>
        <time>2020-06-30T12:31:25Z</time>
      </trkpt>
      <trkpt lat="48.6529" lon="4.82202">
        <ele>126.4</ele>
        <time>2020-06-30T12:31:26Z</time>
      </trkpt>
      <trkpt lat="48.65291" lon="4.82193">
        <ele>126.4</ele>
        <time>2020-06-30T12:31:27Z</time>
      </trkpt>
      <trkpt lat="48.65293" lon="4.82184">
        <ele>126.4</ele>
        <time>2020-06-30T12:31:28Z</time>
      </trkpt>
      <trkpt lat="48.65295" lon="4.82174">
        <ele>126.5</ele>
        <time>2020-06-30T12:31:29Z</time>
      </trkpt>
      <trkpt lat="48.65296" lon="4.82162">
        <ele>126.5</ele>
        <time>2020-06-30T12:31:30Z</time>
      </trkpt>
      <trkpt lat="48.65298" lon="4.82153">
        <ele>126.6</ele>
        <time>2020-06-30T12:31:31Z</time>
      </trkpt>
      <trkpt lat="48.65299" lon="4.82143">
        <ele>126.6</ele>
        <time>2020-06-30T12:31:32Z</time>
      </trkpt>
      <trkpt lat="48.65299" lon="4.82135">
        <ele>126.7</ele>
        <time>2020-06-30T12:31:33Z</time>
      </trkpt>
      <trkpt lat="48.653" lon="4.82129">
        <ele>126.8</ele>
        <time>2020-06-30T12:31:34Z</time>
      </trkpt>
      <trkpt lat="48.65301" lon="4.82122">
        <ele>126.9</ele>
        <time>2020-06-30T12:31:35Z</time>
      </trkpt>
      <trkpt lat="48.65303" lon="4.82114">
        <ele>127</ele>
        <time>2020-06-30T12:31:36Z</time>
      </trkpt>
      <trkpt lat="48.65304" lon="4.82108">
        <ele>127.2</ele>
        <time>2020-06-30T12:31:37Z</time>
      </trkpt>
      <trkpt lat="48.65305" lon="4.82101">
        <ele>127.3</ele>
        <time>2020-06-30T12:31:38Z</time>
      </trkpt>
      <trkpt lat="48.65306" lon="4.82096">
        <ele>127.4</ele>
        <time>2020-06-30T12:31:39Z</time>
      </trkpt>
      <trkpt lat="48.65308" lon="4.82092">
        <ele>127.4</ele>
        <time>2020-06-30T12:31:40Z</time>
      </trkpt>
      <trkpt lat="48.65309" lon="4.82091">
        <ele>127.3</ele>
        <time>2020-06-30T12:31:41Z</time>
      </trkpt>
      <trkpt lat="48.65309" lon="4.82087">
        <ele>127.1</ele>
        <time>2020-06-30T12:31:42Z</time>
      </trkpt>
      <trkpt lat="48.65309" lon="4.82085">
        <ele>127</ele>
        <time>2020-06-30T12:31:43Z</time>
      </trkpt>
      <trkpt lat="48.65309" lon="4.82083">
        <ele>126.9</ele>
        <time>2020-06-30T12:31:44Z</time>
      </trkpt>
      <trkpt lat="48.6531" lon="4.82077">
        <ele>126.6</ele>
        <time>2020-06-30T12:31:45Z</time>
      </trkpt>
      <trkpt lat="48.65311" lon="4.8207">
        <ele>126.3</ele>
        <time>2020-06-30T12:31:46Z</time>
      </trkpt>
      <trkpt lat="48.65312" lon="4.82062">
        <ele>125.9</ele>
        <time>2020-06-30T12:31:47Z</time>
      </trkpt>
      <trkpt lat="48.65313" lon="4.82052">
        <ele>125.5</ele>
        <time>2020-06-30T12:31:48Z</time>
      </trkpt>
      <trkpt lat="48.65314" lon="4.82044">
        <ele>125.1</ele>
        <time>2020-06-30T12:31:49Z</time>
      </trkpt>
      <trkpt lat="48.65315" lon="4.82036">
        <ele>124.8</ele>
        <time>2020-06-30T12:31:50Z</time>
      </trkpt>
      <trkpt lat="48.65316" lon="4.82027">
        <ele>124.6</ele>
        <time>2020-06-30T12:31:51Z</time>
      </trkpt>
      <trkpt lat="48.65317" lon="4.82018">
        <ele>124.4</ele>
        <time>2020-06-30T12:31:52Z</time>
      </trkpt>
      <trkpt lat="48.65318" lon="4.82008">
        <ele>124.2</ele>
        <time>2020-06-30T12:31:53Z</time>
      </trkpt>
      <trkpt lat="48.65319" lon="4.81999">
        <ele>124.1</ele>
        <time>2020-06-30T12:31:54Z</time>
      </trkpt>
      <trkpt lat="48.65321" lon="4.81987">
        <ele>124</ele>
        <time>2020-06-30T12:31:55Z</time>
      </trkpt>
      <trkpt lat="48.65322" lon="4.81977">
        <ele>123.9</ele>
        <time>2020-06-30T12:31:56Z</time>
      </trkpt>
      <trkpt lat="48.65323" lon="4.81968">
        <ele>123.8</ele>
        <time>2020-06-30T12:31:57Z</time>
      </trkpt>
      <trkpt lat="48.65324" lon="4.81959">
        <ele>123.7</ele>
        <time>2020-06-30T12:31:58Z</time>
      </trkpt>
      <trkpt lat="48.65325" lon="4.81951">
        <ele>123.6</ele>
        <time>2020-06-30T12:31:59Z</time>
      </trkpt>
      <trkpt lat="48.65326" lon="4.81942">
        <ele>123.5</ele>
        <time>2020-06-30T12:32:00Z</time>
      </trkpt>
      <trkpt lat="48.65328" lon="4.81934">
        <ele>123.5</ele>
        <time>2020-06-30T12:32:01Z</time>
      </trkpt>
      <trkpt lat="48.65329" lon="4.81924">
        <ele>123.4</ele>
        <time>2020-06-30T12:32:02Z</time>
      </trkpt>
      <trkpt lat="48.6533" lon="4.81915">
        <ele>123.4</ele>
        <time>2020-06-30T12:32:03Z</time>
      </trkpt>
      <trkpt lat="48.65332" lon="4.81907">
        <ele>123.4</ele>
        <time>2020-06-30T12:32:04Z</time>
      </trkpt>
      <trkpt lat="48.65333" lon="4.81898">
        <ele>123.4</ele>
        <time>2020-06-30T12:32:05Z</time>
      </trkpt>
      <trkpt lat="48.65335" lon="4.81889">
        <ele>123.4</ele>
        <time>2020-06-30T12:32:06Z</time>
      </trkpt>
      <trkpt lat="48.65336" lon="4.81881">
        <ele>123.4</ele>
        <time>2020-06-30T12:32:07Z</time>
      </trkpt>
      <trkpt lat="48.65337" lon="4.81873">
        <ele>123.5</ele>
        <time>2020-06-30T12:32:08Z</time>
      </trkpt>
      <trkpt lat="48.65339" lon="4.81864">
        <ele>123.5</ele>
        <time>2020-06-30T12:32:09Z</time>
      </trkpt>
      <trkpt lat="48.65341" lon="4.81855">
        <ele>123.5</ele>
        <time>2020-06-30T12:32:10Z</time>
      </trkpt>
      <trkpt lat="48.65343" lon="4.81846">
        <ele>123.5</ele>
        <time>2020-06-30T12:32:11Z</time>
      </trkpt>
      <trkpt lat="48.65344" lon="4.81837">
        <ele>123.5</ele>
        <time>2020-06-30T12:32:12Z</time>
      </trkpt>
      <trkpt lat="48.65345" lon="4.81828">
        <ele>123.5</ele>
        <time>2020-06-30T12:32:13Z</time>
      </trkpt>
      <trkpt lat="48.65347" lon="4.81818">
        <ele>123.5</ele>
        <time>2020-06-30T12:32:14Z</time>
      </trkpt>
      <trkpt lat="48.65348" lon="4.81809">
        <ele>123.5</ele>
        <time>2020-06-30T12:32:15Z</time>
      </trkpt>
      <trkpt lat="48.65349" lon="4.818">
        <ele>123.4</ele>
        <time>2020-06-30T12:32:16Z</time>
      </trkpt>
      <trkpt lat="48.65351" lon="4.81792">
        <ele>123.5</ele>
        <time>2020-06-30T12:32:17Z</time>
      </trkpt>
      <trkpt lat="48.65352" lon="4.81782">
        <ele>123.5</ele>
        <time>2020-06-30T12:32:18Z</time>
      </trkpt>
      <trkpt lat="48.65353" lon="4.81773">
        <ele>123.5</ele>
        <time>2020-06-30T12:32:19Z</time>
      </trkpt>
      <trkpt lat="48.65354" lon="4.81764">
        <ele>123.5</ele>
        <time>2020-06-30T12:32:20Z</time>
      </trkpt>
      <trkpt lat="48.65355" lon="4.81755">
        <ele>123.5</ele>
        <time>2020-06-30T12:32:21Z</time>
      </trkpt>
      <trkpt lat="48.65356" lon="4.81746">
        <ele>123.5</ele>
        <time>2020-06-30T12:32:22Z</time>
      </trkpt>
      <trkpt lat="48.65357" lon="4.81736">
        <ele>123.5</ele>
        <time>2020-06-30T12:32:23Z</time>
      </trkpt>
      <trkpt lat="48.65359" lon="4.81727">
        <ele>123.5</ele>
        <time>2020-06-30T12:32:24Z</time>
      </trkpt>
      <trkpt lat="48.6536" lon="4.81719">
        <ele>123.5</ele>
        <time>2020-06-30T12:32:25Z</time>
      </trkpt>
      <trkpt lat="48.65361" lon="4.81708">
        <ele>123.5</ele>
        <time>2020-06-30T12:32:26Z</time>
      </trkpt>
      <trkpt lat="48.65362" lon="4.81699">
        <ele>123.5</ele>
        <time>2020-06-30T12:32:27Z</time>
      </trkpt>
      <trkpt lat="48.65363" lon="4.8169">
        <ele>123.5</ele>
        <time>2020-06-30T12:32:28Z</time>
      </trkpt>
      <trkpt lat="48.65365" lon="4.81681">
        <ele>123.5</ele>
        <time>2020-06-30T12:32:29Z</time>
      </trkpt>
      <trkpt lat="48.65366" lon="4.81673">
        <ele>123.5</ele>
        <time>2020-06-30T12:32:30Z</time>
      </trkpt>
      <trkpt lat="48.65367" lon="4.81666">
        <ele>123.5</ele>
        <time>2020-06-30T12:32:31Z</time>
      </trkpt>
      <trkpt lat="48.65369" lon="4.81657">
        <ele>123.5</ele>
        <time>2020-06-30T12:32:32Z</time>
      </trkpt>
      <trkpt lat="48.6537" lon="4.81648">
        <ele>123.5</ele>
        <time>2020-06-30T12:32:33Z</time>
      </trkpt>
      <trkpt lat="48.65372" lon="4.81639">
        <ele>123.5</ele>
        <time>2020-06-30T12:32:34Z</time>
      </trkpt>
      <trkpt lat="48.65373" lon="4.8163">
        <ele>123.5</ele>
        <time>2020-06-30T12:32:35Z</time>
      </trkpt>
      <trkpt lat="48.65374" lon="4.81619">
        <ele>123.6</ele>
        <time>2020-06-30T12:32:36Z</time>
      </trkpt>
      <trkpt lat="48.65375" lon="4.81611">
        <ele>123.6</ele>
        <time>2020-06-30T12:32:37Z</time>
      </trkpt>
      <trkpt lat="48.65377" lon="4.81602">
        <ele>123.6</ele>
        <time>2020-06-30T12:32:38Z</time>
      </trkpt>
      <trkpt lat="48.65378" lon="4.81591">
        <ele>123.6</ele>
        <time>2020-06-30T12:32:39Z</time>
      </trkpt>
      <trkpt lat="48.65379" lon="4.81581">
        <ele>123.6</ele>
        <time>2020-06-30T12:32:40Z</time>
      </trkpt>
      <trkpt lat="48.65382" lon="4.81572">
        <ele>123.6</ele>
        <time>2020-06-30T12:32:41Z</time>
      </trkpt>
      <trkpt lat="48.65383" lon="4.81563">
        <ele>123.6</ele>
        <time>2020-06-30T12:32:42Z</time>
      </trkpt>
      <trkpt lat="48.65384" lon="4.81553">
        <ele>123.6</ele>
        <time>2020-06-30T12:32:43Z</time>
      </trkpt>
      <trkpt lat="48.65385" lon="4.81544">
        <ele>123.6</ele>
        <time>2020-06-30T12:32:44Z</time>
      </trkpt>
      <trkpt lat="48.65387" lon="4.81534">
        <ele>123.6</ele>
        <time>2020-06-30T12:32:45Z</time>
      </trkpt>
      <trkpt lat="48.65388" lon="4.81525">
        <ele>123.6</ele>
        <time>2020-06-30T12:32:46Z</time>
      </trkpt>
      <trkpt lat="48.65389" lon="4.81516">
        <ele>123.6</ele>
        <time>2020-06-30T12:32:47Z</time>
      </trkpt>
      <trkpt lat="48.6539" lon="4.81505">
        <ele>123.6</ele>
        <time>2020-06-30T12:32:48Z</time>
      </trkpt>
      <trkpt lat="48.65391" lon="4.81496">
        <ele>123.5</ele>
        <time>2020-06-30T12:32:49Z</time>
      </trkpt>
      <trkpt lat="48.65392" lon="4.81487">
        <ele>123.5</ele>
        <time>2020-06-30T12:32:50Z</time>
      </trkpt>
      <trkpt lat="48.65394" lon="4.81478">
        <ele>123.5</ele>
        <time>2020-06-30T12:32:51Z</time>
      </trkpt>
      <trkpt lat="48.65395" lon="4.81469">
        <ele>123.5</ele>
        <time>2020-06-30T12:32:52Z</time>
      </trkpt>
      <trkpt lat="48.65397" lon="4.8146">
        <ele>123.5</ele>
        <time>2020-06-30T12:32:53Z</time>
      </trkpt>
      <trkpt lat="48.65398" lon="4.81452">
        <ele>123.6</ele>
        <time>2020-06-30T12:32:54Z</time>
      </trkpt>
      <trkpt lat="48.65399" lon="4.81443">
        <ele>123.6</ele>
        <time>2020-06-30T12:32:55Z</time>
      </trkpt>
      <trkpt lat="48.654" lon="4.81434">
        <ele>123.6</ele>
        <time>2020-06-30T12:32:56Z</time>
      </trkpt>
      <trkpt lat="48.65402" lon="4.81424">
        <ele>123.6</ele>
        <time>2020-06-30T12:32:57Z</time>
      </trkpt>
      <trkpt lat="48.65403" lon="4.81416">
        <ele>123.6</ele>
        <time>2020-06-30T12:32:58Z</time>
      </trkpt>
      <trkpt lat="48.65404" lon="4.81406">
        <ele>123.6</ele>
        <time>2020-06-30T12:32:59Z</time>
      </trkpt>
      <trkpt lat="48.65406" lon="4.81397">
        <ele>123.7</ele>
        <time>2020-06-30T12:33:00Z</time>
      </trkpt>
      <trkpt lat="48.65407" lon="4.81387">
        <ele>123.7</ele>
        <time>2020-06-30T12:33:01Z</time>
      </trkpt>
      <trkpt lat="48.65408" lon="4.81378">
        <ele>123.7</ele>
        <time>2020-06-30T12:33:02Z</time>
      </trkpt>
      <trkpt lat="48.65409" lon="4.81369">
        <ele>123.7</ele>
        <time>2020-06-30T12:33:03Z</time>
      </trkpt>
      <trkpt lat="48.65411" lon="4.8136">
        <ele>123.7</ele>
        <time>2020-06-30T12:33:04Z</time>
      </trkpt>
      <trkpt lat="48.65412" lon="4.8135">
        <ele>123.7</ele>
        <time>2020-06-30T12:33:05Z</time>
      </trkpt>
      <trkpt lat="48.65414" lon="4.81341">
        <ele>123.7</ele>
        <time>2020-06-30T12:33:06Z</time>
      </trkpt>
      <trkpt lat="48.65415" lon="4.81332">
        <ele>123.7</ele>
        <time>2020-06-30T12:33:07Z</time>
      </trkpt>
      <trkpt lat="48.65416" lon="4.81323">
        <ele>123.7</ele>
        <time>2020-06-30T12:33:08Z</time>
      </trkpt>
      <trkpt lat="48.65417" lon="4.81315">
        <ele>123.7</ele>
        <time>2020-06-30T12:33:09Z</time>
      </trkpt>
      <trkpt lat="48.65419" lon="4.81305">
        <ele>123.8</ele>
        <time>2020-06-30T12:33:10Z</time>
      </trkpt>
      <trkpt lat="48.6542" lon="4.81297">
        <ele>123.8</ele>
        <time>2020-06-30T12:33:11Z</time>
      </trkpt>
      <trkpt lat="48.65422" lon="4.81289">
        <ele>123.8</ele>
        <time>2020-06-30T12:33:12Z</time>
      </trkpt>
      <trkpt lat="48.65424" lon="4.81281">
        <ele>123.9</ele>
        <time>2020-06-30T12:33:13Z</time>
      </trkpt>
      <trkpt lat="48.65426" lon="4.81272">
        <ele>123.9</ele>
        <time>2020-06-30T12:33:14Z</time>
      </trkpt>
      <trkpt lat="48.65427" lon="4.81264">
        <ele>123.9</ele>
        <time>2020-06-30T12:33:15Z</time>
      </trkpt>
      <trkpt lat="48.65428" lon="4.81255">
        <ele>123.9</ele>
        <time>2020-06-30T12:33:16Z</time>
      </trkpt>
      <trkpt lat="48.65429" lon="4.81247">
        <ele>123.9</ele>
        <time>2020-06-30T12:33:17Z</time>
      </trkpt>
      <trkpt lat="48.65429" lon="4.81237">
        <ele>123.9</ele>
        <time>2020-06-30T12:33:18Z</time>
      </trkpt>
      <trkpt lat="48.65431" lon="4.81229">
        <ele>123.9</ele>
        <time>2020-06-30T12:33:19Z</time>
      </trkpt>
      <trkpt lat="48.65432" lon="4.81222">
        <ele>123.9</ele>
        <time>2020-06-30T12:33:20Z</time>
      </trkpt>
      <trkpt lat="48.65433" lon="4.81214">
        <ele>124</ele>
        <time>2020-06-30T12:33:21Z</time>
      </trkpt>
      <trkpt lat="48.65434" lon="4.81206">
        <ele>124</ele>
        <time>2020-06-30T12:33:22Z</time>
      </trkpt>
      <trkpt lat="48.65435" lon="4.81198">
        <ele>124</ele>
        <time>2020-06-30T12:33:23Z</time>
      </trkpt>
      <trkpt lat="48.65435" lon="4.81191">
        <ele>124</ele>
        <time>2020-06-30T12:33:24Z</time>
      </trkpt>
      <trkpt lat="48.65434" lon="4.81183">
        <ele>124</ele>
        <time>2020-06-30T12:33:25Z</time>
      </trkpt>
      <trkpt lat="48.65435" lon="4.81177">
        <ele>124</ele>
        <time>2020-06-30T12:33:26Z</time>
      </trkpt>
      <trkpt lat="48.65437" lon="4.8117">
        <ele>124</ele>
        <time>2020-06-30T12:33:27Z</time>
      </trkpt>
      <trkpt lat="48.65439" lon="4.81163">
        <ele>124</ele>
        <time>2020-06-30T12:33:28Z</time>
      </trkpt>
      <trkpt lat="48.6544" lon="4.81156">
        <ele>124</ele>
        <time>2020-06-30T12:33:29Z</time>
      </trkpt>
      <trkpt lat="48.65442" lon="4.81148">
        <ele>124</ele>
        <time>2020-06-30T12:33:30Z</time>
      </trkpt>
      <trkpt lat="48.65443" lon="4.8114">
        <ele>124</ele>
        <time>2020-06-30T12:33:31Z</time>
      </trkpt>
      <trkpt lat="48.65444" lon="4.81132">
        <ele>124</ele>
        <time>2020-06-30T12:33:32Z</time>
      </trkpt>
      <trkpt lat="48.65445" lon="4.81123">
        <ele>124</ele>
        <time>2020-06-30T12:33:33Z</time>
      </trkpt>
      <trkpt lat="48.65447" lon="4.81114">
        <ele>124</ele>
        <time>2020-06-30T12:33:34Z</time>
      </trkpt>
      <trkpt lat="48.65448" lon="4.81105">
        <ele>124</ele>
        <time>2020-06-30T12:33:35Z</time>
      </trkpt>
      <trkpt lat="48.65449" lon="4.81097">
        <ele>124</ele>
        <time>2020-06-30T12:33:36Z</time>
      </trkpt>
      <trkpt lat="48.65451" lon="4.81089">
        <ele>123.9</ele>
        <time>2020-06-30T12:33:37Z</time>
      </trkpt>
      <trkpt lat="48.65452" lon="4.81081">
        <ele>123.9</ele>
        <time>2020-06-30T12:33:38Z</time>
      </trkpt>
      <trkpt lat="48.65453" lon="4.81073">
        <ele>123.9</ele>
        <time>2020-06-30T12:33:39Z</time>
      </trkpt>
      <trkpt lat="48.65455" lon="4.81063">
        <ele>123.9</ele>
        <time>2020-06-30T12:33:40Z</time>
      </trkpt>
      <trkpt lat="48.65455" lon="4.81054">
        <ele>123.9</ele>
        <time>2020-06-30T12:33:41Z</time>
      </trkpt>
      <trkpt lat="48.65456" lon="4.81046">
        <ele>123.9</ele>
        <time>2020-06-30T12:33:42Z</time>
      </trkpt>
      <trkpt lat="48.65457" lon="4.81036">
        <ele>123.9</ele>
        <time>2020-06-30T12:33:43Z</time>
      </trkpt>
      <trkpt lat="48.65458" lon="4.81026">
        <ele>123.9</ele>
        <time>2020-06-30T12:33:44Z</time>
      </trkpt>
      <trkpt lat="48.6546" lon="4.81016">
        <ele>123.9</ele>
        <time>2020-06-30T12:33:45Z</time>
      </trkpt>
      <trkpt lat="48.65462" lon="4.81007">
        <ele>123.9</ele>
        <time>2020-06-30T12:33:46Z</time>
      </trkpt>
      <trkpt lat="48.65463" lon="4.80998">
        <ele>123.9</ele>
        <time>2020-06-30T12:33:47Z</time>
      </trkpt>
      <trkpt lat="48.65464" lon="4.80988">
        <ele>123.9</ele>
        <time>2020-06-30T12:33:48Z</time>
      </trkpt>
      <trkpt lat="48.65465" lon="4.80979">
        <ele>123.9</ele>
        <time>2020-06-30T12:33:49Z</time>
      </trkpt>
      <trkpt lat="48.65466" lon="4.80971">
        <ele>123.9</ele>
        <time>2020-06-30T12:33:50Z</time>
      </trkpt>
      <trkpt lat="48.65468" lon="4.80962">
        <ele>123.9</ele>
        <time>2020-06-30T12:33:51Z</time>
      </trkpt>
      <trkpt lat="48.65469" lon="4.80953">
        <ele>123.9</ele>
        <time>2020-06-30T12:33:52Z</time>
      </trkpt>
      <trkpt lat="48.6547" lon="4.80944">
        <ele>123.9</ele>
        <time>2020-06-30T12:33:53Z</time>
      </trkpt>
      <trkpt lat="48.65472" lon="4.80935">
        <ele>123.9</ele>
        <time>2020-06-30T12:33:54Z</time>
      </trkpt>
      <trkpt lat="48.65473" lon="4.80926">
        <ele>123.9</ele>
        <time>2020-06-30T12:33:55Z</time>
      </trkpt>
      <trkpt lat="48.65475" lon="4.80917">
        <ele>123.8</ele>
        <time>2020-06-30T12:33:56Z</time>
      </trkpt>
      <trkpt lat="48.65476" lon="4.80908">
        <ele>123.8</ele>
        <time>2020-06-30T12:33:57Z</time>
      </trkpt>
      <trkpt lat="48.65478" lon="4.80899">
        <ele>123.8</ele>
        <time>2020-06-30T12:33:58Z</time>
      </trkpt>
      <trkpt lat="48.65479" lon="4.8089">
        <ele>123.8</ele>
        <time>2020-06-30T12:33:59Z</time>
      </trkpt>
      <trkpt lat="48.65481" lon="4.80882">
        <ele>123.8</ele>
        <time>2020-06-30T12:34:00Z</time>
      </trkpt>
      <trkpt lat="48.65482" lon="4.80873">
        <ele>123.8</ele>
        <time>2020-06-30T12:34:01Z</time>
      </trkpt>
      <trkpt lat="48.65484" lon="4.80864">
        <ele>123.8</ele>
        <time>2020-06-30T12:34:02Z</time>
      </trkpt>
      <trkpt lat="48.65485" lon="4.80856">
        <ele>123.8</ele>
        <time>2020-06-30T12:34:03Z</time>
      </trkpt>
      <trkpt lat="48.65486" lon="4.80848">
        <ele>123.8</ele>
        <time>2020-06-30T12:34:04Z</time>
      </trkpt>
      <trkpt lat="48.65487" lon="4.8084">
        <ele>123.8</ele>
        <time>2020-06-30T12:34:05Z</time>
      </trkpt>
      <trkpt lat="48.65489" lon="4.80831">
        <ele>123.8</ele>
        <time>2020-06-30T12:34:06Z</time>
      </trkpt>
      <trkpt lat="48.6549" lon="4.8082">
        <ele>123.7</ele>
        <time>2020-06-30T12:34:07Z</time>
      </trkpt>
      <trkpt lat="48.65492" lon="4.8081">
        <ele>123.7</ele>
        <time>2020-06-30T12:34:08Z</time>
      </trkpt>
      <trkpt lat="48.65493" lon="4.808">
        <ele>123.7</ele>
        <time>2020-06-30T12:34:09Z</time>
      </trkpt>
      <trkpt lat="48.65495" lon="4.80791">
        <ele>123.7</ele>
        <time>2020-06-30T12:34:10Z</time>
      </trkpt>
      <trkpt lat="48.65496" lon="4.80781">
        <ele>123.7</ele>
        <time>2020-06-30T12:34:11Z</time>
      </trkpt>
      <trkpt lat="48.65497" lon="4.80771">
        <ele>123.7</ele>
        <time>2020-06-30T12:34:12Z</time>
      </trkpt>
      <trkpt lat="48.65498" lon="4.80762">
        <ele>123.7</ele>
        <time>2020-06-30T12:34:13Z</time>
      </trkpt>
      <trkpt lat="48.65499" lon="4.80752">
        <ele>123.7</ele>
        <time>2020-06-30T12:34:14Z</time>
      </trkpt>
      <trkpt lat="48.655" lon="4.80743">
        <ele>123.7</ele>
        <time>2020-06-30T12:34:15Z</time>
      </trkpt>
      <trkpt lat="48.65501" lon="4.80734">
        <ele>123.7</ele>
        <time>2020-06-30T12:34:16Z</time>
      </trkpt>
      <trkpt lat="48.65503" lon="4.80725">
        <ele>123.7</ele>
        <time>2020-06-30T12:34:17Z</time>
      </trkpt>
      <trkpt lat="48.65504" lon="4.80716">
        <ele>123.6</ele>
        <time>2020-06-30T12:34:18Z</time>
      </trkpt>
      <trkpt lat="48.65506" lon="4.80707">
        <ele>123.6</ele>
        <time>2020-06-30T12:34:19Z</time>
      </trkpt>
      <trkpt lat="48.65507" lon="4.80698">
        <ele>123.6</ele>
        <time>2020-06-30T12:34:20Z</time>
      </trkpt>
      <trkpt lat="48.65508" lon="4.80688">
        <ele>123.6</ele>
        <time>2020-06-30T12:34:21Z</time>
      </trkpt>
      <trkpt lat="48.6551" lon="4.80679">
        <ele>123.7</ele>
        <time>2020-06-30T12:34:22Z</time>
      </trkpt>
      <trkpt lat="48.65511" lon="4.8067">
        <ele>123.7</ele>
        <time>2020-06-30T12:34:23Z</time>
      </trkpt>
      <trkpt lat="48.65512" lon="4.80661">
        <ele>123.7</ele>
        <time>2020-06-30T12:34:24Z</time>
      </trkpt>
      <trkpt lat="48.65513" lon="4.80652">
        <ele>123.7</ele>
        <time>2020-06-30T12:34:25Z</time>
      </trkpt>
      <trkpt lat="48.65514" lon="4.80643">
        <ele>123.7</ele>
        <time>2020-06-30T12:34:26Z</time>
      </trkpt>
      <trkpt lat="48.65515" lon="4.80635">
        <ele>123.7</ele>
        <time>2020-06-30T12:34:27Z</time>
      </trkpt>
      <trkpt lat="48.65517" lon="4.80626">
        <ele>123.7</ele>
        <time>2020-06-30T12:34:28Z</time>
      </trkpt>
      <trkpt lat="48.65518" lon="4.80618">
        <ele>123.7</ele>
        <time>2020-06-30T12:34:29Z</time>
      </trkpt>
      <trkpt lat="48.65519" lon="4.8061">
        <ele>123.7</ele>
        <time>2020-06-30T12:34:30Z</time>
      </trkpt>
      <trkpt lat="48.6552" lon="4.80602">
        <ele>123.6</ele>
        <time>2020-06-30T12:34:31Z</time>
      </trkpt>
      <trkpt lat="48.65521" lon="4.80592">
        <ele>123.6</ele>
        <time>2020-06-30T12:34:32Z</time>
      </trkpt>
      <trkpt lat="48.65523" lon="4.80584">
        <ele>123.6</ele>
        <time>2020-06-30T12:34:33Z</time>
      </trkpt>
      <trkpt lat="48.65524" lon="4.80574">
        <ele>123.6</ele>
        <time>2020-06-30T12:34:34Z</time>
      </trkpt>
      <trkpt lat="48.65525" lon="4.80564">
        <ele>123.6</ele>
        <time>2020-06-30T12:34:35Z</time>
      </trkpt>
      <trkpt lat="48.65527" lon="4.80554">
        <ele>123.6</ele>
        <time>2020-06-30T12:34:36Z</time>
      </trkpt>
      <trkpt lat="48.65528" lon="4.80545">
        <ele>123.5</ele>
        <time>2020-06-30T12:34:37Z</time>
      </trkpt>
      <trkpt lat="48.6553" lon="4.80536">
        <ele>123.5</ele>
        <time>2020-06-30T12:34:38Z</time>
      </trkpt>
      <trkpt lat="48.65531" lon="4.80527">
        <ele>123.5</ele>
        <time>2020-06-30T12:34:39Z</time>
      </trkpt>
      <trkpt lat="48.65532" lon="4.80517">
        <ele>123.5</ele>
        <time>2020-06-30T12:34:40Z</time>
      </trkpt>
      <trkpt lat="48.65534" lon="4.80507">
        <ele>123.5</ele>
        <time>2020-06-30T12:34:41Z</time>
      </trkpt>
      <trkpt lat="48.65535" lon="4.80497">
        <ele>123.5</ele>
        <time>2020-06-30T12:34:42Z</time>
      </trkpt>
      <trkpt lat="48.65536" lon="4.80487">
        <ele>123.5</ele>
        <time>2020-06-30T12:34:43Z</time>
      </trkpt>
      <trkpt lat="48.65537" lon="4.80479">
        <ele>123.5</ele>
        <time>2020-06-30T12:34:44Z</time>
      </trkpt>
      <trkpt lat="48.65538" lon="4.8047">
        <ele>123.5</ele>
        <time>2020-06-30T12:34:45Z</time>
      </trkpt>
      <trkpt lat="48.6554" lon="4.80461">
        <ele>123.5</ele>
        <time>2020-06-30T12:34:46Z</time>
      </trkpt>
      <trkpt lat="48.65542" lon="4.80451">
        <ele>123.5</ele>
        <time>2020-06-30T12:34:47Z</time>
      </trkpt>
      <trkpt lat="48.65543" lon="4.80442">
        <ele>123.5</ele>
        <time>2020-06-30T12:34:48Z</time>
      </trkpt>
      <trkpt lat="48.65544" lon="4.80433">
        <ele>123.5</ele>
        <time>2020-06-30T12:34:49Z</time>
      </trkpt>
      <trkpt lat="48.65546" lon="4.80424">
        <ele>123.5</ele>
        <time>2020-06-30T12:34:50Z</time>
      </trkpt>
      <trkpt lat="48.65547" lon="4.80415">
        <ele>123.5</ele>
        <time>2020-06-30T12:34:51Z</time>
      </trkpt>
      <trkpt lat="48.65549" lon="4.80405">
        <ele>123.5</ele>
        <time>2020-06-30T12:34:52Z</time>
      </trkpt>
      <trkpt lat="48.6555" lon="4.80396">
        <ele>123.5</ele>
        <time>2020-06-30T12:34:53Z</time>
      </trkpt>
      <trkpt lat="48.65552" lon="4.80386">
        <ele>123.5</ele>
        <time>2020-06-30T12:34:54Z</time>
      </trkpt>
      <trkpt lat="48.65553" lon="4.80376">
        <ele>123.5</ele>
        <time>2020-06-30T12:34:55Z</time>
      </trkpt>
      <trkpt lat="48.65554" lon="4.80366">
        <ele>123.5</ele>
        <time>2020-06-30T12:34:56Z</time>
      </trkpt>
      <trkpt lat="48.65556" lon="4.80357">
        <ele>123.5</ele>
        <time>2020-06-30T12:34:57Z</time>
      </trkpt>
      <trkpt lat="48.65557" lon="4.80347">
        <ele>123.5</ele>
        <time>2020-06-30T12:34:58Z</time>
      </trkpt>
      <trkpt lat="48.65557" lon="4.80338">
        <ele>123.6</ele>
        <time>2020-06-30T12:34:59Z</time>
      </trkpt>
      <trkpt lat="48.65558" lon="4.80328">
        <ele>123.6</ele>
        <time>2020-06-30T12:35:00Z</time>
      </trkpt>
      <trkpt lat="48.65559" lon="4.8032">
        <ele>123.6</ele>
        <time>2020-06-30T12:35:01Z</time>
      </trkpt>
      <trkpt lat="48.6556" lon="4.80313">
        <ele>123.6</ele>
        <time>2020-06-30T12:35:02Z</time>
      </trkpt>
      <trkpt lat="48.65562" lon="4.80306">
        <ele>123.6</ele>
        <time>2020-06-30T12:35:03Z</time>
      </trkpt>
      <trkpt lat="48.65563" lon="4.80299">
        <ele>123.7</ele>
        <time>2020-06-30T12:35:04Z</time>
      </trkpt>
      <trkpt lat="48.65564" lon="4.80293">
        <ele>123.7</ele>
        <time>2020-06-30T12:35:05Z</time>
      </trkpt>
      <trkpt lat="48.65564" lon="4.80287">
        <ele>123.7</ele>
        <time>2020-06-30T12:35:06Z</time>
      </trkpt>
      <trkpt lat="48.65565" lon="4.80281">
        <ele>123.8</ele>
        <time>2020-06-30T12:35:07Z</time>
      </trkpt>
      <trkpt lat="48.65566" lon="4.80276">
        <ele>123.8</ele>
        <time>2020-06-30T12:35:08Z</time>
      </trkpt>
      <trkpt lat="48.65567" lon="4.80272">
        <ele>123.8</ele>
        <time>2020-06-30T12:35:09Z</time>
      </trkpt>
      <trkpt lat="48.65568" lon="4.8027">
        <ele>123.8</ele>
        <time>2020-06-30T12:35:10Z</time>
      </trkpt>
      <trkpt lat="48.65569" lon="4.80267">
        <ele>123.8</ele>
        <time>2020-06-30T12:35:11Z</time>
      </trkpt>
      <trkpt lat="48.65569" lon="4.80262">
        <ele>123.8</ele>
        <time>2020-06-30T12:35:12Z</time>
      </trkpt>
      <trkpt lat="48.65569" lon="4.80261">
        <ele>123.8</ele>
        <time>2020-06-30T12:35:13Z</time>
      </trkpt>
      <trkpt lat="48.65569" lon="4.80256">
        <ele>123.7</ele>
        <time>2020-06-30T12:35:14Z</time>
      </trkpt>
      <trkpt lat="48.6557" lon="4.8025">
        <ele>123.6</ele>
        <time>2020-06-30T12:35:15Z</time>
      </trkpt>
      <trkpt lat="48.65572" lon="4.80243">
        <ele>123.4</ele>
        <time>2020-06-30T12:35:16Z</time>
      </trkpt>
      <trkpt lat="48.65573" lon="4.80235">
        <ele>123.2</ele>
        <time>2020-06-30T12:35:17Z</time>
      </trkpt>
      <trkpt lat="48.65574" lon="4.80226">
        <ele>122.9</ele>
        <time>2020-06-30T12:35:18Z</time>
      </trkpt>
      <trkpt lat="48.65576" lon="4.80217">
        <ele>122.7</ele>
        <time>2020-06-30T12:35:19Z</time>
      </trkpt>
      <trkpt lat="48.65577" lon="4.80209">
        <ele>122.4</ele>
        <time>2020-06-30T12:35:20Z</time>
      </trkpt>
      <trkpt lat="48.65578" lon="4.802">
        <ele>122.2</ele>
        <time>2020-06-30T12:35:21Z</time>
      </trkpt>
      <trkpt lat="48.65579" lon="4.80191">
        <ele>122</ele>
        <time>2020-06-30T12:35:22Z</time>
      </trkpt>
      <trkpt lat="48.65581" lon="4.80181">
        <ele>121.8</ele>
        <time>2020-06-30T12:35:23Z</time>
      </trkpt>
      <trkpt lat="48.65583" lon="4.80171">
        <ele>121.7</ele>
        <time>2020-06-30T12:35:24Z</time>
      </trkpt>
      <trkpt lat="48.65585" lon="4.80161">
        <ele>121.5</ele>
        <time>2020-06-30T12:35:25Z</time>
      </trkpt>
      <trkpt lat="48.65585" lon="4.80152">
        <ele>121.5</ele>
        <time>2020-06-30T12:35:26Z</time>
      </trkpt>
      <trkpt lat="48.65587" lon="4.80142">
        <ele>121.4</ele>
        <time>2020-06-30T12:35:27Z</time>
      </trkpt>
      <trkpt lat="48.65588" lon="4.80132">
        <ele>121.4</ele>
        <time>2020-06-30T12:35:28Z</time>
      </trkpt>
      <trkpt lat="48.65589" lon="4.80124">
        <ele>121.3</ele>
        <time>2020-06-30T12:35:29Z</time>
      </trkpt>
      <trkpt lat="48.6559" lon="4.80114">
        <ele>121.3</ele>
        <time>2020-06-30T12:35:30Z</time>
      </trkpt>
      <trkpt lat="48.65591" lon="4.80104">
        <ele>121.2</ele>
        <time>2020-06-30T12:35:31Z</time>
      </trkpt>
      <trkpt lat="48.65593" lon="4.80095">
        <ele>121.2</ele>
        <time>2020-06-30T12:35:32Z</time>
      </trkpt>
      <trkpt lat="48.65594" lon="4.80086">
        <ele>121.1</ele>
        <time>2020-06-30T12:35:33Z</time>
      </trkpt>
      <trkpt lat="48.65596" lon="4.80076">
        <ele>121.1</ele>
        <time>2020-06-30T12:35:34Z</time>
      </trkpt>
      <trkpt lat="48.65597" lon="4.80067">
        <ele>121.1</ele>
        <time>2020-06-30T12:35:35Z</time>
      </trkpt>
      <trkpt lat="48.65599" lon="4.80058">
        <ele>121.1</ele>
        <time>2020-06-30T12:35:36Z</time>
      </trkpt>
      <trkpt lat="48.65601" lon="4.80049">
        <ele>121.1</ele>
        <time>2020-06-30T12:35:37Z</time>
      </trkpt>
      <trkpt lat="48.65602" lon="4.80039">
        <ele>121.1</ele>
        <time>2020-06-30T12:35:38Z</time>
      </trkpt>
      <trkpt lat="48.65603" lon="4.80031">
        <ele>121.1</ele>
        <time>2020-06-30T12:35:39Z</time>
      </trkpt>
      <trkpt lat="48.65604" lon="4.80021">
        <ele>121.1</ele>
        <time>2020-06-30T12:35:40Z</time>
      </trkpt>
      <trkpt lat="48.65605" lon="4.80011">
        <ele>121.1</ele>
        <time>2020-06-30T12:35:41Z</time>
      </trkpt>
      <trkpt lat="48.65606" lon="4.80001">
        <ele>121.1</ele>
        <time>2020-06-30T12:35:42Z</time>
      </trkpt>
      <trkpt lat="48.65608" lon="4.79992">
        <ele>121.1</ele>
        <time>2020-06-30T12:35:43Z</time>
      </trkpt>
      <trkpt lat="48.65609" lon="4.79983">
        <ele>121.1</ele>
        <time>2020-06-30T12:35:44Z</time>
      </trkpt>
      <trkpt lat="48.6561" lon="4.79974">
        <ele>121.1</ele>
        <time>2020-06-30T12:35:45Z</time>
      </trkpt>
      <trkpt lat="48.65612" lon="4.79963">
        <ele>121</ele>
        <time>2020-06-30T12:35:46Z</time>
      </trkpt>
      <trkpt lat="48.65613" lon="4.79954">
        <ele>121</ele>
        <time>2020-06-30T12:35:47Z</time>
      </trkpt>
      <trkpt lat="48.65615" lon="4.79943">
        <ele>121</ele>
        <time>2020-06-30T12:35:48Z</time>
      </trkpt>
      <trkpt lat="48.65616" lon="4.79933">
        <ele>121</ele>
        <time>2020-06-30T12:35:49Z</time>
      </trkpt>
      <trkpt lat="48.65617" lon="4.79924">
        <ele>120.9</ele>
        <time>2020-06-30T12:35:50Z</time>
      </trkpt>
      <trkpt lat="48.65619" lon="4.79915">
        <ele>120.9</ele>
        <time>2020-06-30T12:35:51Z</time>
      </trkpt>
      <trkpt lat="48.65621" lon="4.79906">
        <ele>120.9</ele>
        <time>2020-06-30T12:35:52Z</time>
      </trkpt>
      <trkpt lat="48.65622" lon="4.79897">
        <ele>120.9</ele>
        <time>2020-06-30T12:35:53Z</time>
      </trkpt>
      <trkpt lat="48.65623" lon="4.79888">
        <ele>120.9</ele>
        <time>2020-06-30T12:35:54Z</time>
      </trkpt>
      <trkpt lat="48.65624" lon="4.79878">
        <ele>120.9</ele>
        <time>2020-06-30T12:35:55Z</time>
      </trkpt>
      <trkpt lat="48.65625" lon="4.79869">
        <ele>120.9</ele>
        <time>2020-06-30T12:35:56Z</time>
      </trkpt>
      <trkpt lat="48.65627" lon="4.79859">
        <ele>120.9</ele>
        <time>2020-06-30T12:35:57Z</time>
      </trkpt>
      <trkpt lat="48.65628" lon="4.79849">
        <ele>120.9</ele>
        <time>2020-06-30T12:35:58Z</time>
      </trkpt>
      <trkpt lat="48.65629" lon="4.7984">
        <ele>121</ele>
        <time>2020-06-30T12:35:59Z</time>
      </trkpt>
      <trkpt lat="48.65631" lon="4.7983">
        <ele>121</ele>
        <time>2020-06-30T12:36:00Z</time>
      </trkpt>
      <trkpt lat="48.65632" lon="4.79821">
        <ele>121</ele>
        <time>2020-06-30T12:36:01Z</time>
      </trkpt>
      <trkpt lat="48.65633" lon="4.79812">
        <ele>121</ele>
        <time>2020-06-30T12:36:02Z</time>
      </trkpt>
      <trkpt lat="48.65634" lon="4.79803">
        <ele>121</ele>
        <time>2020-06-30T12:36:03Z</time>
      </trkpt>
      <trkpt lat="48.65635" lon="4.79796">
        <ele>121</ele>
        <time>2020-06-30T12:36:04Z</time>
      </trkpt>
      <trkpt lat="48.65637" lon="4.79781">
        <ele>121</ele>
        <time>2020-06-30T12:36:05Z</time>
      </trkpt>
      <trkpt lat="48.65639" lon="4.79772">
        <ele>121.1</ele>
        <time>2020-06-30T12:36:06Z</time>
      </trkpt>
      <trkpt lat="48.6564" lon="4.79762">
        <ele>121.1</ele>
        <time>2020-06-30T12:36:07Z</time>
      </trkpt>
      <trkpt lat="48.65642" lon="4.79753">
        <ele>121.1</ele>
        <time>2020-06-30T12:36:08Z</time>
      </trkpt>
      <trkpt lat="48.65643" lon="4.79744">
        <ele>121.1</ele>
        <time>2020-06-30T12:36:09Z</time>
      </trkpt>
      <trkpt lat="48.65644" lon="4.79734">
        <ele>121.1</ele>
        <time>2020-06-30T12:36:10Z</time>
      </trkpt>
      <trkpt lat="48.65646" lon="4.79726">
        <ele>121.2</ele>
        <time>2020-06-30T12:36:11Z</time>
      </trkpt>
      <trkpt lat="48.65647" lon="4.79715">
        <ele>121.2</ele>
        <time>2020-06-30T12:36:12Z</time>
      </trkpt>
      <trkpt lat="48.65649" lon="4.79707">
        <ele>121.2</ele>
        <time>2020-06-30T12:36:13Z</time>
      </trkpt>
      <trkpt lat="48.6565" lon="4.79698">
        <ele>121.2</ele>
        <time>2020-06-30T12:36:14Z</time>
      </trkpt>
      <trkpt lat="48.65652" lon="4.79688">
        <ele>121.2</ele>
        <time>2020-06-30T12:36:15Z</time>
      </trkpt>
      <trkpt lat="48.65654" lon="4.79679">
        <ele>121.2</ele>
        <time>2020-06-30T12:36:16Z</time>
      </trkpt>
      <trkpt lat="48.65656" lon="4.7967">
        <ele>121.2</ele>
        <time>2020-06-30T12:36:17Z</time>
      </trkpt>
      <trkpt lat="48.65658" lon="4.79661">
        <ele>121.1</ele>
        <time>2020-06-30T12:36:18Z</time>
      </trkpt>
      <trkpt lat="48.65659" lon="4.79651">
        <ele>121.1</ele>
        <time>2020-06-30T12:36:19Z</time>
      </trkpt>
      <trkpt lat="48.6566" lon="4.79642">
        <ele>121.2</ele>
        <time>2020-06-30T12:36:20Z</time>
      </trkpt>
      <trkpt lat="48.65661" lon="4.79633">
        <ele>121.2</ele>
        <time>2020-06-30T12:36:21Z</time>
      </trkpt>
      <trkpt lat="48.65663" lon="4.79624">
        <ele>121.2</ele>
        <time>2020-06-30T12:36:22Z</time>
      </trkpt>
      <trkpt lat="48.65664" lon="4.79613">
        <ele>121.2</ele>
        <time>2020-06-30T12:36:23Z</time>
      </trkpt>
      <trkpt lat="48.65666" lon="4.79605">
        <ele>121.2</ele>
        <time>2020-06-30T12:36:24Z</time>
      </trkpt>
      <trkpt lat="48.65668" lon="4.79595">
        <ele>121.2</ele>
        <time>2020-06-30T12:36:25Z</time>
      </trkpt>
      <trkpt lat="48.65668" lon="4.79585">
        <ele>121.2</ele>
        <time>2020-06-30T12:36:26Z</time>
      </trkpt>
      <trkpt lat="48.65669" lon="4.79574">
        <ele>121.2</ele>
        <time>2020-06-30T12:36:27Z</time>
      </trkpt>
      <trkpt lat="48.6567" lon="4.79566">
        <ele>121.2</ele>
        <time>2020-06-30T12:36:28Z</time>
      </trkpt>
      <trkpt lat="48.65672" lon="4.79557">
        <ele>121.2</ele>
        <time>2020-06-30T12:36:29Z</time>
      </trkpt>
      <trkpt lat="48.65673" lon="4.79548">
        <ele>121.2</ele>
        <time>2020-06-30T12:36:30Z</time>
      </trkpt>
      <trkpt lat="48.65674" lon="4.79538">
        <ele>121.2</ele>
        <time>2020-06-30T12:36:31Z</time>
      </trkpt>
      <trkpt lat="48.65675" lon="4.79528">
        <ele>121.3</ele>
        <time>2020-06-30T12:36:32Z</time>
      </trkpt>
      <trkpt lat="48.65677" lon="4.79521">
        <ele>121.3</ele>
        <time>2020-06-30T12:36:33Z</time>
      </trkpt>
      <trkpt lat="48.65679" lon="4.7951">
        <ele>121.3</ele>
        <time>2020-06-30T12:36:34Z</time>
      </trkpt>
      <trkpt lat="48.65681" lon="4.795">
        <ele>121.3</ele>
        <time>2020-06-30T12:36:35Z</time>
      </trkpt>
      <trkpt lat="48.65683" lon="4.79489">
        <ele>121.3</ele>
        <time>2020-06-30T12:36:36Z</time>
      </trkpt>
      <trkpt lat="48.65685" lon="4.79478">
        <ele>121.3</ele>
        <time>2020-06-30T12:36:37Z</time>
      </trkpt>
      <trkpt lat="48.65686" lon="4.79468">
        <ele>121.3</ele>
        <time>2020-06-30T12:36:38Z</time>
      </trkpt>
      <trkpt lat="48.65687" lon="4.79459">
        <ele>121.4</ele>
        <time>2020-06-30T12:36:39Z</time>
      </trkpt>
      <trkpt lat="48.65688" lon="4.7945">
        <ele>121.4</ele>
        <time>2020-06-30T12:36:40Z</time>
      </trkpt>
      <trkpt lat="48.65689" lon="4.7944">
        <ele>121.4</ele>
        <time>2020-06-30T12:36:41Z</time>
      </trkpt>
      <trkpt lat="48.6569" lon="4.7943">
        <ele>121.4</ele>
        <time>2020-06-30T12:36:42Z</time>
      </trkpt>
      <trkpt lat="48.65692" lon="4.7942">
        <ele>121.4</ele>
        <time>2020-06-30T12:36:43Z</time>
      </trkpt>
      <trkpt lat="48.65694" lon="4.79409">
        <ele>121.4</ele>
        <time>2020-06-30T12:36:44Z</time>
      </trkpt>
      <trkpt lat="48.65695" lon="4.79399">
        <ele>121.4</ele>
        <time>2020-06-30T12:36:45Z</time>
      </trkpt>
      <trkpt lat="48.65697" lon="4.79388">
        <ele>121.4</ele>
        <time>2020-06-30T12:36:46Z</time>
      </trkpt>
      <trkpt lat="48.65698" lon="4.79378">
        <ele>121.4</ele>
        <time>2020-06-30T12:36:47Z</time>
      </trkpt>
      <trkpt lat="48.65699" lon="4.79371">
        <ele>121.4</ele>
        <time>2020-06-30T12:36:48Z</time>
      </trkpt>
      <trkpt lat="48.657" lon="4.79361">
        <ele>121.4</ele>
        <time>2020-06-30T12:36:49Z</time>
      </trkpt>
      <trkpt lat="48.65701" lon="4.7935">
        <ele>121.4</ele>
        <time>2020-06-30T12:36:50Z</time>
      </trkpt>
      <trkpt lat="48.65703" lon="4.79339">
        <ele>121.4</ele>
        <time>2020-06-30T12:36:51Z</time>
      </trkpt>
      <trkpt lat="48.65704" lon="4.79328">
        <ele>121.6</ele>
        <time>2020-06-30T12:36:52Z</time>
      </trkpt>
      <trkpt lat="48.65706" lon="4.79317">
        <ele>121.7</ele>
        <time>2020-06-30T12:36:53Z</time>
      </trkpt>
      <trkpt lat="48.65708" lon="4.79307">
        <ele>121.8</ele>
        <time>2020-06-30T12:36:54Z</time>
      </trkpt>
      <trkpt lat="48.65709" lon="4.79296">
        <ele>121.7</ele>
        <time>2020-06-30T12:36:55Z</time>
      </trkpt>
      <trkpt lat="48.65711" lon="4.79286">
        <ele>121.7</ele>
        <time>2020-06-30T12:36:56Z</time>
      </trkpt>
      <trkpt lat="48.65712" lon="4.79276">
        <ele>121.7</ele>
        <time>2020-06-30T12:36:57Z</time>
      </trkpt>
      <trkpt lat="48.65713" lon="4.79267">
        <ele>121.7</ele>
        <time>2020-06-30T12:36:58Z</time>
      </trkpt>
      <trkpt lat="48.65714" lon="4.79258">
        <ele>121.7</ele>
        <time>2020-06-30T12:36:59Z</time>
      </trkpt>
      <trkpt lat="48.65715" lon="4.79248">
        <ele>121.7</ele>
        <time>2020-06-30T12:37:00Z</time>
      </trkpt>
      <trkpt lat="48.65717" lon="4.79238">
        <ele>121.7</ele>
        <time>2020-06-30T12:37:01Z</time>
      </trkpt>
      <trkpt lat="48.65718" lon="4.79228">
        <ele>121.7</ele>
        <time>2020-06-30T12:37:02Z</time>
      </trkpt>
      <trkpt lat="48.65719" lon="4.79218">
        <ele>121.7</ele>
        <time>2020-06-30T12:37:03Z</time>
      </trkpt>
      <trkpt lat="48.65721" lon="4.79208">
        <ele>121.7</ele>
        <time>2020-06-30T12:37:04Z</time>
      </trkpt>
      <trkpt lat="48.65722" lon="4.79198">
        <ele>121.7</ele>
        <time>2020-06-30T12:37:05Z</time>
      </trkpt>
      <trkpt lat="48.65723" lon="4.79189">
        <ele>121.7</ele>
        <time>2020-06-30T12:37:06Z</time>
      </trkpt>
      <trkpt lat="48.65725" lon="4.79179">
        <ele>121.7</ele>
        <time>2020-06-30T12:37:07Z</time>
      </trkpt>
      <trkpt lat="48.65726" lon="4.79169">
        <ele>121.7</ele>
        <time>2020-06-30T12:37:08Z</time>
      </trkpt>
      <trkpt lat="48.65727" lon="4.79159">
        <ele>121.6</ele>
        <time>2020-06-30T12:37:09Z</time>
      </trkpt>
      <trkpt lat="48.65729" lon="4.7915">
        <ele>121.6</ele>
        <time>2020-06-30T12:37:10Z</time>
      </trkpt>
      <trkpt lat="48.65731" lon="4.79141">
        <ele>121.7</ele>
        <time>2020-06-30T12:37:11Z</time>
      </trkpt>
      <trkpt lat="48.65732" lon="4.79132">
        <ele>121.7</ele>
        <time>2020-06-30T12:37:12Z</time>
      </trkpt>
      <trkpt lat="48.65733" lon="4.79122">
        <ele>121.7</ele>
        <time>2020-06-30T12:37:13Z</time>
      </trkpt>
      <trkpt lat="48.65735" lon="4.79113">
        <ele>121.7</ele>
        <time>2020-06-30T12:37:14Z</time>
      </trkpt>
      <trkpt lat="48.65736" lon="4.79104">
        <ele>121.7</ele>
        <time>2020-06-30T12:37:15Z</time>
      </trkpt>
      <trkpt lat="48.65738" lon="4.79094">
        <ele>121.7</ele>
        <time>2020-06-30T12:37:16Z</time>
      </trkpt>
      <trkpt lat="48.65739" lon="4.79084">
        <ele>121.7</ele>
        <time>2020-06-30T12:37:17Z</time>
      </trkpt>
      <trkpt lat="48.65741" lon="4.79074">
        <ele>121.7</ele>
        <time>2020-06-30T12:37:18Z</time>
      </trkpt>
      <trkpt lat="48.65743" lon="4.79065">
        <ele>121.7</ele>
        <time>2020-06-30T12:37:19Z</time>
      </trkpt>
      <trkpt lat="48.65744" lon="4.79056">
        <ele>121.7</ele>
        <time>2020-06-30T12:37:20Z</time>
      </trkpt>
      <trkpt lat="48.65746" lon="4.79046">
        <ele>121.6</ele>
        <time>2020-06-30T12:37:21Z</time>
      </trkpt>
      <trkpt lat="48.65747" lon="4.79036">
        <ele>121.6</ele>
        <time>2020-06-30T12:37:22Z</time>
      </trkpt>
      <trkpt lat="48.65748" lon="4.79027">
        <ele>121.6</ele>
        <time>2020-06-30T12:37:23Z</time>
      </trkpt>
      <trkpt lat="48.65749" lon="4.79017">
        <ele>121.6</ele>
        <time>2020-06-30T12:37:24Z</time>
      </trkpt>
      <trkpt lat="48.6575" lon="4.79007">
        <ele>121.6</ele>
        <time>2020-06-30T12:37:25Z</time>
      </trkpt>
      <trkpt lat="48.65752" lon="4.78998">
        <ele>121.6</ele>
        <time>2020-06-30T12:37:26Z</time>
      </trkpt>
      <trkpt lat="48.65753" lon="4.78988">
        <ele>121.6</ele>
        <time>2020-06-30T12:37:27Z</time>
      </trkpt>
      <trkpt lat="48.65755" lon="4.78978">
        <ele>121.6</ele>
        <time>2020-06-30T12:37:28Z</time>
      </trkpt>
      <trkpt lat="48.65756" lon="4.78969">
        <ele>121.5</ele>
        <time>2020-06-30T12:37:29Z</time>
      </trkpt>
      <trkpt lat="48.65757" lon="4.7896">
        <ele>121.5</ele>
        <time>2020-06-30T12:37:30Z</time>
      </trkpt>
      <trkpt lat="48.65758" lon="4.78951">
        <ele>121.5</ele>
        <time>2020-06-30T12:37:31Z</time>
      </trkpt>
      <trkpt lat="48.6576" lon="4.78942">
        <ele>121.4</ele>
        <time>2020-06-30T12:37:32Z</time>
      </trkpt>
      <trkpt lat="48.6576" lon="4.78933">
        <ele>121.4</ele>
        <time>2020-06-30T12:37:33Z</time>
      </trkpt>
      <trkpt lat="48.65761" lon="4.78924">
        <ele>121.4</ele>
        <time>2020-06-30T12:37:34Z</time>
      </trkpt>
      <trkpt lat="48.65763" lon="4.78916">
        <ele>121.4</ele>
        <time>2020-06-30T12:37:35Z</time>
      </trkpt>
      <trkpt lat="48.65765" lon="4.78908">
        <ele>121.4</ele>
        <time>2020-06-30T12:37:36Z</time>
      </trkpt>
      <trkpt lat="48.65767" lon="4.789">
        <ele>121.4</ele>
        <time>2020-06-30T12:37:37Z</time>
      </trkpt>
      <trkpt lat="48.65767" lon="4.7889">
        <ele>121.4</ele>
        <time>2020-06-30T12:37:38Z</time>
      </trkpt>
      <trkpt lat="48.65768" lon="4.78882">
        <ele>121.4</ele>
        <time>2020-06-30T12:37:39Z</time>
      </trkpt>
      <trkpt lat="48.6577" lon="4.78873">
        <ele>121.4</ele>
        <time>2020-06-30T12:37:40Z</time>
      </trkpt>
      <trkpt lat="48.6577" lon="4.78865">
        <ele>121.4</ele>
        <time>2020-06-30T12:37:41Z</time>
      </trkpt>
      <trkpt lat="48.65771" lon="4.78857">
        <ele>121.4</ele>
        <time>2020-06-30T12:37:42Z</time>
      </trkpt>
      <trkpt lat="48.65772" lon="4.78849">
        <ele>121.4</ele>
        <time>2020-06-30T12:37:43Z</time>
      </trkpt>
      <trkpt lat="48.65774" lon="4.78841">
        <ele>121.4</ele>
        <time>2020-06-30T12:37:44Z</time>
      </trkpt>
      <trkpt lat="48.65775" lon="4.78832">
        <ele>121.4</ele>
        <time>2020-06-30T12:37:45Z</time>
      </trkpt>
      <trkpt lat="48.65777" lon="4.78824">
        <ele>121.4</ele>
        <time>2020-06-30T12:37:46Z</time>
      </trkpt>
      <trkpt lat="48.65778" lon="4.78815">
        <ele>121.4</ele>
        <time>2020-06-30T12:37:47Z</time>
      </trkpt>
      <trkpt lat="48.65779" lon="4.78806">
        <ele>121.4</ele>
        <time>2020-06-30T12:37:48Z</time>
      </trkpt>
      <trkpt lat="48.6578" lon="4.78798">
        <ele>121.3</ele>
        <time>2020-06-30T12:37:49Z</time>
      </trkpt>
      <trkpt lat="48.65781" lon="4.78789">
        <ele>121.3</ele>
        <time>2020-06-30T12:37:50Z</time>
      </trkpt>
      <trkpt lat="48.65782" lon="4.7878">
        <ele>121.3</ele>
        <time>2020-06-30T12:37:51Z</time>
      </trkpt>
      <trkpt lat="48.65782" lon="4.7877">
        <ele>121.3</ele>
        <time>2020-06-30T12:37:52Z</time>
      </trkpt>
      <trkpt lat="48.65784" lon="4.78762">
        <ele>121.3</ele>
        <time>2020-06-30T12:37:53Z</time>
      </trkpt>
      <trkpt lat="48.65786" lon="4.78754">
        <ele>121.3</ele>
        <time>2020-06-30T12:37:54Z</time>
      </trkpt>
      <trkpt lat="48.65788" lon="4.78746">
        <ele>121.3</ele>
        <time>2020-06-30T12:37:55Z</time>
      </trkpt>
      <trkpt lat="48.6579" lon="4.78737">
        <ele>121.3</ele>
        <time>2020-06-30T12:37:56Z</time>
      </trkpt>
      <trkpt lat="48.65791" lon="4.78728">
        <ele>121.2</ele>
        <time>2020-06-30T12:37:57Z</time>
      </trkpt>
      <trkpt lat="48.65793" lon="4.78719">
        <ele>121.2</ele>
        <time>2020-06-30T12:37:58Z</time>
      </trkpt>
      <trkpt lat="48.65794" lon="4.7871">
        <ele>121.2</ele>
        <time>2020-06-30T12:37:59Z</time>
      </trkpt>
      <trkpt lat="48.65796" lon="4.78701">
        <ele>121.2</ele>
        <time>2020-06-30T12:38:00Z</time>
      </trkpt>
      <trkpt lat="48.65796" lon="4.78692">
        <ele>121.1</ele>
        <time>2020-06-30T12:38:01Z</time>
      </trkpt>
      <trkpt lat="48.65797" lon="4.78683">
        <ele>121.1</ele>
        <time>2020-06-30T12:38:02Z</time>
      </trkpt>
      <trkpt lat="48.65798" lon="4.78676">
        <ele>121.1</ele>
        <time>2020-06-30T12:38:03Z</time>
      </trkpt>
      <trkpt lat="48.65799" lon="4.78668">
        <ele>121.1</ele>
        <time>2020-06-30T12:38:04Z</time>
      </trkpt>
      <trkpt lat="48.65798" lon="4.78659">
        <ele>121.1</ele>
        <time>2020-06-30T12:38:05Z</time>
      </trkpt>
      <trkpt lat="48.658" lon="4.78651">
        <ele>121.1</ele>
        <time>2020-06-30T12:38:06Z</time>
      </trkpt>
      <trkpt lat="48.65801" lon="4.78643">
        <ele>121.1</ele>
        <time>2020-06-30T12:38:07Z</time>
      </trkpt>
      <trkpt lat="48.65803" lon="4.78634">
        <ele>121.2</ele>
        <time>2020-06-30T12:38:08Z</time>
      </trkpt>
      <trkpt lat="48.65805" lon="4.78626">
        <ele>121.2</ele>
        <time>2020-06-30T12:38:09Z</time>
      </trkpt>
      <trkpt lat="48.65806" lon="4.78617">
        <ele>121.2</ele>
        <time>2020-06-30T12:38:10Z</time>
      </trkpt>
      <trkpt lat="48.65808" lon="4.78608">
        <ele>121.2</ele>
        <time>2020-06-30T12:38:11Z</time>
      </trkpt>
      <trkpt lat="48.65809" lon="4.78599">
        <ele>121.2</ele>
        <time>2020-06-30T12:38:12Z</time>
      </trkpt>
      <trkpt lat="48.6581" lon="4.78591">
        <ele>121.2</ele>
        <time>2020-06-30T12:38:13Z</time>
      </trkpt>
      <trkpt lat="48.65811" lon="4.78582">
        <ele>121.2</ele>
        <time>2020-06-30T12:38:14Z</time>
      </trkpt>
      <trkpt lat="48.65811" lon="4.78573">
        <ele>121.1</ele>
        <time>2020-06-30T12:38:15Z</time>
      </trkpt>
      <trkpt lat="48.65812" lon="4.78564">
        <ele>121.1</ele>
        <time>2020-06-30T12:38:16Z</time>
      </trkpt>
      <trkpt lat="48.65813" lon="4.78555">
        <ele>121.1</ele>
        <time>2020-06-30T12:38:17Z</time>
      </trkpt>
      <trkpt lat="48.65816" lon="4.78547">
        <ele>121.1</ele>
        <time>2020-06-30T12:38:18Z</time>
      </trkpt>
      <trkpt lat="48.65817" lon="4.78537">
        <ele>121.1</ele>
        <time>2020-06-30T12:38:19Z</time>
      </trkpt>
      <trkpt lat="48.65819" lon="4.78528">
        <ele>121.1</ele>
        <time>2020-06-30T12:38:20Z</time>
      </trkpt>
      <trkpt lat="48.65821" lon="4.78519">
        <ele>121.1</ele>
        <time>2020-06-30T12:38:21Z</time>
      </trkpt>
      <trkpt lat="48.65822" lon="4.7851">
        <ele>121.1</ele>
        <time>2020-06-30T12:38:22Z</time>
      </trkpt>
      <trkpt lat="48.65823" lon="4.78501">
        <ele>121.1</ele>
        <time>2020-06-30T12:38:23Z</time>
      </trkpt>
      <trkpt lat="48.65825" lon="4.78491">
        <ele>121.1</ele>
        <time>2020-06-30T12:38:24Z</time>
      </trkpt>
      <trkpt lat="48.65827" lon="4.78482">
        <ele>121.1</ele>
        <time>2020-06-30T12:38:25Z</time>
      </trkpt>
      <trkpt lat="48.65829" lon="4.78469">
        <ele>121.1</ele>
        <time>2020-06-30T12:38:26Z</time>
      </trkpt>
      <trkpt lat="48.65829" lon="4.78457">
        <ele>121.1</ele>
        <time>2020-06-30T12:38:27Z</time>
      </trkpt>
      <trkpt lat="48.65831" lon="4.78446">
        <ele>121.1</ele>
        <time>2020-06-30T12:38:28Z</time>
      </trkpt>
      <trkpt lat="48.65832" lon="4.78435">
        <ele>121.1</ele>
        <time>2020-06-30T12:38:29Z</time>
      </trkpt>
      <trkpt lat="48.65834" lon="4.78425">
        <ele>121.1</ele>
        <time>2020-06-30T12:38:30Z</time>
      </trkpt>
      <trkpt lat="48.65835" lon="4.78416">
        <ele>121.1</ele>
        <time>2020-06-30T12:38:31Z</time>
      </trkpt>
      <trkpt lat="48.65836" lon="4.78407">
        <ele>121.1</ele>
        <time>2020-06-30T12:38:32Z</time>
      </trkpt>
      <trkpt lat="48.65838" lon="4.78399">
        <ele>121.1</ele>
        <time>2020-06-30T12:38:33Z</time>
      </trkpt>
      <trkpt lat="48.6584" lon="4.7839">
        <ele>121.1</ele>
        <time>2020-06-30T12:38:34Z</time>
      </trkpt>
      <trkpt lat="48.65841" lon="4.78382">
        <ele>121.1</ele>
        <time>2020-06-30T12:38:35Z</time>
      </trkpt>
      <trkpt lat="48.65842" lon="4.78372">
        <ele>121.1</ele>
        <time>2020-06-30T12:38:36Z</time>
      </trkpt>
      <trkpt lat="48.65845" lon="4.78363">
        <ele>121.1</ele>
        <time>2020-06-30T12:38:37Z</time>
      </trkpt>
      <trkpt lat="48.65846" lon="4.78356">
        <ele>121.1</ele>
        <time>2020-06-30T12:38:38Z</time>
      </trkpt>
      <trkpt lat="48.65848" lon="4.78345">
        <ele>121</ele>
        <time>2020-06-30T12:38:39Z</time>
      </trkpt>
      <trkpt lat="48.65849" lon="4.78336">
        <ele>121</ele>
        <time>2020-06-30T12:38:40Z</time>
      </trkpt>
      <trkpt lat="48.6585" lon="4.78325">
        <ele>121</ele>
        <time>2020-06-30T12:38:41Z</time>
      </trkpt>
      <trkpt lat="48.65852" lon="4.78316">
        <ele>121</ele>
        <time>2020-06-30T12:38:42Z</time>
      </trkpt>
      <trkpt lat="48.65853" lon="4.78308">
        <ele>121</ele>
        <time>2020-06-30T12:38:43Z</time>
      </trkpt>
      <trkpt lat="48.65854" lon="4.78297">
        <ele>121</ele>
        <time>2020-06-30T12:38:44Z</time>
      </trkpt>
      <trkpt lat="48.65855" lon="4.7829">
        <ele>121</ele>
        <time>2020-06-30T12:38:45Z</time>
      </trkpt>
      <trkpt lat="48.65856" lon="4.78279">
        <ele>121</ele>
        <time>2020-06-30T12:38:46Z</time>
      </trkpt>
      <trkpt lat="48.65857" lon="4.7827">
        <ele>121</ele>
        <time>2020-06-30T12:38:47Z</time>
      </trkpt>
      <trkpt lat="48.65858" lon="4.7826">
        <ele>121</ele>
        <time>2020-06-30T12:38:48Z</time>
      </trkpt>
      <trkpt lat="48.6586" lon="4.78251">
        <ele>121</ele>
        <time>2020-06-30T12:38:49Z</time>
      </trkpt>
      <trkpt lat="48.65862" lon="4.78241">
        <ele>121</ele>
        <time>2020-06-30T12:38:50Z</time>
      </trkpt>
      <trkpt lat="48.65864" lon="4.78232">
        <ele>121</ele>
        <time>2020-06-30T12:38:51Z</time>
      </trkpt>
      <trkpt lat="48.65865" lon="4.78222">
        <ele>121</ele>
        <time>2020-06-30T12:38:52Z</time>
      </trkpt>
      <trkpt lat="48.65866" lon="4.78214">
        <ele>121</ele>
        <time>2020-06-30T12:38:53Z</time>
      </trkpt>
      <trkpt lat="48.65867" lon="4.78204">
        <ele>121</ele>
        <time>2020-06-30T12:38:54Z</time>
      </trkpt>
      <trkpt lat="48.6587" lon="4.78193">
        <ele>121</ele>
        <time>2020-06-30T12:38:55Z</time>
      </trkpt>
      <trkpt lat="48.6587" lon="4.78183">
        <ele>121</ele>
        <time>2020-06-30T12:38:56Z</time>
      </trkpt>
      <trkpt lat="48.65871" lon="4.78174">
        <ele>121</ele>
        <time>2020-06-30T12:38:57Z</time>
      </trkpt>
      <trkpt lat="48.65873" lon="4.78163">
        <ele>121</ele>
        <time>2020-06-30T12:38:58Z</time>
      </trkpt>
      <trkpt lat="48.65874" lon="4.78153">
        <ele>121</ele>
        <time>2020-06-30T12:38:59Z</time>
      </trkpt>
      <trkpt lat="48.65876" lon="4.78142">
        <ele>121</ele>
        <time>2020-06-30T12:39:00Z</time>
      </trkpt>
      <trkpt lat="48.65877" lon="4.78133">
        <ele>121</ele>
        <time>2020-06-30T12:39:01Z</time>
      </trkpt>
      <trkpt lat="48.65878" lon="4.78123">
        <ele>121</ele>
        <time>2020-06-30T12:39:02Z</time>
      </trkpt>
      <trkpt lat="48.65879" lon="4.78113">
        <ele>121</ele>
        <time>2020-06-30T12:39:03Z</time>
      </trkpt>
      <trkpt lat="48.6588" lon="4.78104">
        <ele>120.9</ele>
        <time>2020-06-30T12:39:04Z</time>
      </trkpt>
      <trkpt lat="48.65882" lon="4.78094">
        <ele>120.9</ele>
        <time>2020-06-30T12:39:05Z</time>
      </trkpt>
      <trkpt lat="48.65883" lon="4.78084">
        <ele>120.9</ele>
        <time>2020-06-30T12:39:06Z</time>
      </trkpt>
      <trkpt lat="48.65884" lon="4.78074">
        <ele>120.9</ele>
        <time>2020-06-30T12:39:07Z</time>
      </trkpt>
      <trkpt lat="48.65886" lon="4.78064">
        <ele>120.9</ele>
        <time>2020-06-30T12:39:08Z</time>
      </trkpt>
      <trkpt lat="48.65887" lon="4.78054">
        <ele>120.9</ele>
        <time>2020-06-30T12:39:09Z</time>
      </trkpt>
      <trkpt lat="48.65889" lon="4.78043">
        <ele>120.9</ele>
        <time>2020-06-30T12:39:10Z</time>
      </trkpt>
      <trkpt lat="48.6589" lon="4.78034">
        <ele>120.9</ele>
        <time>2020-06-30T12:39:11Z</time>
      </trkpt>
      <trkpt lat="48.65891" lon="4.78024">
        <ele>120.9</ele>
        <time>2020-06-30T12:39:12Z</time>
      </trkpt>
      <trkpt lat="48.65892" lon="4.78016">
        <ele>120.9</ele>
        <time>2020-06-30T12:39:13Z</time>
      </trkpt>
      <trkpt lat="48.65894" lon="4.78007">
        <ele>120.8</ele>
        <time>2020-06-30T12:39:14Z</time>
      </trkpt>
      <trkpt lat="48.65895" lon="4.77996">
        <ele>120.9</ele>
        <time>2020-06-30T12:39:15Z</time>
      </trkpt>
      <trkpt lat="48.65896" lon="4.77986">
        <ele>120.9</ele>
        <time>2020-06-30T12:39:16Z</time>
      </trkpt>
      <trkpt lat="48.65897" lon="4.77977">
        <ele>120.8</ele>
        <time>2020-06-30T12:39:17Z</time>
      </trkpt>
      <trkpt lat="48.65899" lon="4.77967">
        <ele>120.8</ele>
        <time>2020-06-30T12:39:18Z</time>
      </trkpt>
      <trkpt lat="48.65901" lon="4.77958">
        <ele>120.7</ele>
        <time>2020-06-30T12:39:19Z</time>
      </trkpt>
      <trkpt lat="48.65901" lon="4.77948">
        <ele>120.7</ele>
        <time>2020-06-30T12:39:20Z</time>
      </trkpt>
      <trkpt lat="48.65902" lon="4.77939">
        <ele>120.7</ele>
        <time>2020-06-30T12:39:21Z</time>
      </trkpt>
      <trkpt lat="48.65904" lon="4.7793">
        <ele>120.6</ele>
        <time>2020-06-30T12:39:22Z</time>
      </trkpt>
      <trkpt lat="48.65905" lon="4.77921">
        <ele>120.6</ele>
        <time>2020-06-30T12:39:23Z</time>
      </trkpt>
      <trkpt lat="48.65907" lon="4.77911">
        <ele>120.6</ele>
        <time>2020-06-30T12:39:24Z</time>
      </trkpt>
      <trkpt lat="48.65908" lon="4.77901">
        <ele>120.6</ele>
        <time>2020-06-30T12:39:25Z</time>
      </trkpt>
      <trkpt lat="48.65909" lon="4.77891">
        <ele>120.6</ele>
        <time>2020-06-30T12:39:26Z</time>
      </trkpt>
      <trkpt lat="48.65911" lon="4.77881">
        <ele>120.6</ele>
        <time>2020-06-30T12:39:27Z</time>
      </trkpt>
      <trkpt lat="48.65912" lon="4.77871">
        <ele>120.7</ele>
        <time>2020-06-30T12:39:28Z</time>
      </trkpt>
      <trkpt lat="48.65914" lon="4.77862">
        <ele>120.7</ele>
        <time>2020-06-30T12:39:29Z</time>
      </trkpt>
      <trkpt lat="48.65915" lon="4.77852">
        <ele>120.7</ele>
        <time>2020-06-30T12:39:30Z</time>
      </trkpt>
      <trkpt lat="48.65916" lon="4.77843">
        <ele>120.7</ele>
        <time>2020-06-30T12:39:31Z</time>
      </trkpt>
      <trkpt lat="48.65918" lon="4.77833">
        <ele>120.7</ele>
        <time>2020-06-30T12:39:32Z</time>
      </trkpt>
      <trkpt lat="48.65919" lon="4.77823">
        <ele>120.7</ele>
        <time>2020-06-30T12:39:33Z</time>
      </trkpt>
      <trkpt lat="48.65921" lon="4.77814">
        <ele>120.7</ele>
        <time>2020-06-30T12:39:34Z</time>
      </trkpt>
      <trkpt lat="48.65923" lon="4.77803">
        <ele>120.7</ele>
        <time>2020-06-30T12:39:35Z</time>
      </trkpt>
      <trkpt lat="48.65924" lon="4.77794">
        <ele>120.7</ele>
        <time>2020-06-30T12:39:36Z</time>
      </trkpt>
      <trkpt lat="48.65926" lon="4.77784">
        <ele>120.7</ele>
        <time>2020-06-30T12:39:37Z</time>
      </trkpt>
      <trkpt lat="48.65927" lon="4.77773">
        <ele>120.7</ele>
        <time>2020-06-30T12:39:38Z</time>
      </trkpt>
      <trkpt lat="48.65928" lon="4.77764">
        <ele>120.7</ele>
        <time>2020-06-30T12:39:39Z</time>
      </trkpt>
      <trkpt lat="48.6593" lon="4.77754">
        <ele>120.7</ele>
        <time>2020-06-30T12:39:40Z</time>
      </trkpt>
      <trkpt lat="48.65931" lon="4.77744">
        <ele>120.7</ele>
        <time>2020-06-30T12:39:41Z</time>
      </trkpt>
      <trkpt lat="48.65932" lon="4.77734">
        <ele>120.7</ele>
        <time>2020-06-30T12:39:42Z</time>
      </trkpt>
      <trkpt lat="48.65933" lon="4.77724">
        <ele>120.7</ele>
        <time>2020-06-30T12:39:43Z</time>
      </trkpt>
      <trkpt lat="48.65935" lon="4.77714">
        <ele>120.7</ele>
        <time>2020-06-30T12:39:44Z</time>
      </trkpt>
      <trkpt lat="48.65936" lon="4.77704">
        <ele>120.7</ele>
        <time>2020-06-30T12:39:45Z</time>
      </trkpt>
      <trkpt lat="48.65938" lon="4.77694">
        <ele>120.7</ele>
        <time>2020-06-30T12:39:46Z</time>
      </trkpt>
      <trkpt lat="48.65939" lon="4.77684">
        <ele>120.7</ele>
        <time>2020-06-30T12:39:47Z</time>
      </trkpt>
      <trkpt lat="48.65941" lon="4.77674">
        <ele>120.7</ele>
        <time>2020-06-30T12:39:48Z</time>
      </trkpt>
      <trkpt lat="48.65942" lon="4.77663">
        <ele>120.7</ele>
        <time>2020-06-30T12:39:49Z</time>
      </trkpt>
      <trkpt lat="48.65944" lon="4.77653">
        <ele>120.6</ele>
        <time>2020-06-30T12:39:50Z</time>
      </trkpt>
      <trkpt lat="48.65945" lon="4.77644">
        <ele>120.6</ele>
        <time>2020-06-30T12:39:51Z</time>
      </trkpt>
      <trkpt lat="48.65947" lon="4.77634">
        <ele>120.7</ele>
        <time>2020-06-30T12:39:52Z</time>
      </trkpt>
      <trkpt lat="48.65948" lon="4.77624">
        <ele>120.7</ele>
        <time>2020-06-30T12:39:53Z</time>
      </trkpt>
      <trkpt lat="48.65949" lon="4.77614">
        <ele>120.7</ele>
        <time>2020-06-30T12:39:54Z</time>
      </trkpt>
      <trkpt lat="48.6595" lon="4.77604">
        <ele>120.7</ele>
        <time>2020-06-30T12:39:55Z</time>
      </trkpt>
      <trkpt lat="48.65952" lon="4.77595">
        <ele>120.6</ele>
        <time>2020-06-30T12:39:56Z</time>
      </trkpt>
      <trkpt lat="48.65953" lon="4.77586">
        <ele>120.6</ele>
        <time>2020-06-30T12:39:57Z</time>
      </trkpt>
      <trkpt lat="48.65954" lon="4.77576">
        <ele>120.6</ele>
        <time>2020-06-30T12:39:58Z</time>
      </trkpt>
      <trkpt lat="48.65955" lon="4.77566">
        <ele>120.5</ele>
        <time>2020-06-30T12:39:59Z</time>
      </trkpt>
      <trkpt lat="48.65957" lon="4.77557">
        <ele>120.5</ele>
        <time>2020-06-30T12:40:00Z</time>
      </trkpt>
      <trkpt lat="48.65959" lon="4.77547">
        <ele>120.5</ele>
        <time>2020-06-30T12:40:01Z</time>
      </trkpt>
      <trkpt lat="48.6596" lon="4.77538">
        <ele>120.6</ele>
        <time>2020-06-30T12:40:02Z</time>
      </trkpt>
      <trkpt lat="48.65961" lon="4.77528">
        <ele>120.6</ele>
        <time>2020-06-30T12:40:03Z</time>
      </trkpt>
      <trkpt lat="48.65962" lon="4.77518">
        <ele>120.6</ele>
        <time>2020-06-30T12:40:04Z</time>
      </trkpt>
      <trkpt lat="48.65964" lon="4.77508">
        <ele>120.6</ele>
        <time>2020-06-30T12:40:05Z</time>
      </trkpt>
      <trkpt lat="48.65966" lon="4.77498">
        <ele>120.6</ele>
        <time>2020-06-30T12:40:06Z</time>
      </trkpt>
      <trkpt lat="48.65967" lon="4.77489">
        <ele>120.6</ele>
        <time>2020-06-30T12:40:07Z</time>
      </trkpt>
      <trkpt lat="48.65969" lon="4.7748">
        <ele>120.6</ele>
        <time>2020-06-30T12:40:08Z</time>
      </trkpt>
      <trkpt lat="48.6597" lon="4.7747">
        <ele>120.6</ele>
        <time>2020-06-30T12:40:09Z</time>
      </trkpt>
      <trkpt lat="48.65972" lon="4.7746">
        <ele>120.6</ele>
        <time>2020-06-30T12:40:10Z</time>
      </trkpt>
      <trkpt lat="48.65973" lon="4.7745">
        <ele>120.7</ele>
        <time>2020-06-30T12:40:11Z</time>
      </trkpt>
      <trkpt lat="48.65974" lon="4.7744">
        <ele>120.7</ele>
        <time>2020-06-30T12:40:12Z</time>
      </trkpt>
      <trkpt lat="48.65975" lon="4.77429">
        <ele>120.7</ele>
        <time>2020-06-30T12:40:13Z</time>
      </trkpt>
      <trkpt lat="48.65976" lon="4.77419">
        <ele>120.7</ele>
        <time>2020-06-30T12:40:14Z</time>
      </trkpt>
      <trkpt lat="48.65978" lon="4.77409">
        <ele>120.8</ele>
        <time>2020-06-30T12:40:15Z</time>
      </trkpt>
      <trkpt lat="48.65979" lon="4.77398">
        <ele>120.8</ele>
        <time>2020-06-30T12:40:16Z</time>
      </trkpt>
      <trkpt lat="48.65981" lon="4.77388">
        <ele>120.7</ele>
        <time>2020-06-30T12:40:17Z</time>
      </trkpt>
      <trkpt lat="48.65982" lon="4.77378">
        <ele>120.6</ele>
        <time>2020-06-30T12:40:18Z</time>
      </trkpt>
      <trkpt lat="48.65983" lon="4.77368">
        <ele>120.5</ele>
        <time>2020-06-30T12:40:19Z</time>
      </trkpt>
      <trkpt lat="48.65985" lon="4.77358">
        <ele>120.4</ele>
        <time>2020-06-30T12:40:20Z</time>
      </trkpt>
      <trkpt lat="48.65986" lon="4.77349">
        <ele>120.4</ele>
        <time>2020-06-30T12:40:21Z</time>
      </trkpt>
      <trkpt lat="48.65988" lon="4.77338">
        <ele>120.4</ele>
        <time>2020-06-30T12:40:22Z</time>
      </trkpt>
      <trkpt lat="48.6599" lon="4.77328">
        <ele>120.4</ele>
        <time>2020-06-30T12:40:23Z</time>
      </trkpt>
      <trkpt lat="48.65991" lon="4.77318">
        <ele>120.4</ele>
        <time>2020-06-30T12:40:24Z</time>
      </trkpt>
      <trkpt lat="48.65993" lon="4.77309">
        <ele>120.4</ele>
        <time>2020-06-30T12:40:25Z</time>
      </trkpt>
      <trkpt lat="48.65994" lon="4.77298">
        <ele>120.4</ele>
        <time>2020-06-30T12:40:26Z</time>
      </trkpt>
      <trkpt lat="48.65996" lon="4.77289">
        <ele>120.4</ele>
        <time>2020-06-30T12:40:27Z</time>
      </trkpt>
      <trkpt lat="48.65997" lon="4.77279">
        <ele>120.4</ele>
        <time>2020-06-30T12:40:28Z</time>
      </trkpt>
      <trkpt lat="48.65999" lon="4.77269">
        <ele>120.4</ele>
        <time>2020-06-30T12:40:29Z</time>
      </trkpt>
      <trkpt lat="48.66001" lon="4.77259">
        <ele>120.4</ele>
        <time>2020-06-30T12:40:30Z</time>
      </trkpt>
      <trkpt lat="48.66002" lon="4.7725">
        <ele>120.4</ele>
        <time>2020-06-30T12:40:31Z</time>
      </trkpt>
      <trkpt lat="48.66004" lon="4.7724">
        <ele>120.3</ele>
        <time>2020-06-30T12:40:32Z</time>
      </trkpt>
      <trkpt lat="48.66005" lon="4.7723">
        <ele>120.3</ele>
        <time>2020-06-30T12:40:33Z</time>
      </trkpt>
      <trkpt lat="48.66006" lon="4.7722">
        <ele>120.3</ele>
        <time>2020-06-30T12:40:34Z</time>
      </trkpt>
      <trkpt lat="48.66007" lon="4.7721">
        <ele>120.3</ele>
        <time>2020-06-30T12:40:35Z</time>
      </trkpt>
      <trkpt lat="48.66008" lon="4.772">
        <ele>120.3</ele>
        <time>2020-06-30T12:40:36Z</time>
      </trkpt>
      <trkpt lat="48.66009" lon="4.7719">
        <ele>120.3</ele>
        <time>2020-06-30T12:40:37Z</time>
      </trkpt>
      <trkpt lat="48.66011" lon="4.7718">
        <ele>120.3</ele>
        <time>2020-06-30T12:40:38Z</time>
      </trkpt>
      <trkpt lat="48.66013" lon="4.7717">
        <ele>120.3</ele>
        <time>2020-06-30T12:40:39Z</time>
      </trkpt>
      <trkpt lat="48.66014" lon="4.7716">
        <ele>120.2</ele>
        <time>2020-06-30T12:40:40Z</time>
      </trkpt>
      <trkpt lat="48.66016" lon="4.7715">
        <ele>120.2</ele>
        <time>2020-06-30T12:40:41Z</time>
      </trkpt>
      <trkpt lat="48.66016" lon="4.77139">
        <ele>120.3</ele>
        <time>2020-06-30T12:40:42Z</time>
      </trkpt>
      <trkpt lat="48.66018" lon="4.77129">
        <ele>120.3</ele>
        <time>2020-06-30T12:40:43Z</time>
      </trkpt>
      <trkpt lat="48.6602" lon="4.77119">
        <ele>120.3</ele>
        <time>2020-06-30T12:40:44Z</time>
      </trkpt>
      <trkpt lat="48.66021" lon="4.77109">
        <ele>120.3</ele>
        <time>2020-06-30T12:40:45Z</time>
      </trkpt>
      <trkpt lat="48.66023" lon="4.77099">
        <ele>120.3</ele>
        <time>2020-06-30T12:40:46Z</time>
      </trkpt>
      <trkpt lat="48.66025" lon="4.77089">
        <ele>120.3</ele>
        <time>2020-06-30T12:40:47Z</time>
      </trkpt>
      <trkpt lat="48.66026" lon="4.77079">
        <ele>120.4</ele>
        <time>2020-06-30T12:40:48Z</time>
      </trkpt>
      <trkpt lat="48.66027" lon="4.77069">
        <ele>120.4</ele>
        <time>2020-06-30T12:40:49Z</time>
      </trkpt>
      <trkpt lat="48.66028" lon="4.77059">
        <ele>120.5</ele>
        <time>2020-06-30T12:40:50Z</time>
      </trkpt>
      <trkpt lat="48.6603" lon="4.77048">
        <ele>120.7</ele>
        <time>2020-06-30T12:40:51Z</time>
      </trkpt>
      <trkpt lat="48.66031" lon="4.77038">
        <ele>120.9</ele>
        <time>2020-06-30T12:40:52Z</time>
      </trkpt>
      <trkpt lat="48.66033" lon="4.77029">
        <ele>121</ele>
        <time>2020-06-30T12:40:53Z</time>
      </trkpt>
      <trkpt lat="48.66035" lon="4.7702">
        <ele>121</ele>
        <time>2020-06-30T12:40:54Z</time>
      </trkpt>
      <trkpt lat="48.66037" lon="4.7701">
        <ele>121</ele>
        <time>2020-06-30T12:40:55Z</time>
      </trkpt>
      <trkpt lat="48.66038" lon="4.77">
        <ele>121</ele>
        <time>2020-06-30T12:40:56Z</time>
      </trkpt>
      <trkpt lat="48.66039" lon="4.7699">
        <ele>121</ele>
        <time>2020-06-30T12:40:57Z</time>
      </trkpt>
      <trkpt lat="48.6604" lon="4.7698">
        <ele>121</ele>
        <time>2020-06-30T12:40:58Z</time>
      </trkpt>
      <trkpt lat="48.66041" lon="4.76971">
        <ele>121</ele>
        <time>2020-06-30T12:40:59Z</time>
      </trkpt>
      <trkpt lat="48.66043" lon="4.76962">
        <ele>121</ele>
        <time>2020-06-30T12:41:00Z</time>
      </trkpt>
      <trkpt lat="48.66045" lon="4.76953">
        <ele>121</ele>
        <time>2020-06-30T12:41:01Z</time>
      </trkpt>
      <trkpt lat="48.66047" lon="4.76945">
        <ele>121</ele>
        <time>2020-06-30T12:41:02Z</time>
      </trkpt>
      <trkpt lat="48.66047" lon="4.76935">
        <ele>121</ele>
        <time>2020-06-30T12:41:03Z</time>
      </trkpt>
      <trkpt lat="48.66048" lon="4.76926">
        <ele>121</ele>
        <time>2020-06-30T12:41:04Z</time>
      </trkpt>
      <trkpt lat="48.66049" lon="4.76917">
        <ele>121</ele>
        <time>2020-06-30T12:41:05Z</time>
      </trkpt>
      <trkpt lat="48.66051" lon="4.76907">
        <ele>121</ele>
        <time>2020-06-30T12:41:06Z</time>
      </trkpt>
      <trkpt lat="48.66052" lon="4.76897">
        <ele>121</ele>
        <time>2020-06-30T12:41:07Z</time>
      </trkpt>
      <trkpt lat="48.66053" lon="4.76888">
        <ele>121</ele>
        <time>2020-06-30T12:41:08Z</time>
      </trkpt>
      <trkpt lat="48.66055" lon="4.76879">
        <ele>121</ele>
        <time>2020-06-30T12:41:09Z</time>
      </trkpt>
      <trkpt lat="48.66056" lon="4.76869">
        <ele>121</ele>
        <time>2020-06-30T12:41:10Z</time>
      </trkpt>
      <trkpt lat="48.66059" lon="4.76859">
        <ele>120.9</ele>
        <time>2020-06-30T12:41:11Z</time>
      </trkpt>
      <trkpt lat="48.66061" lon="4.76849">
        <ele>120.9</ele>
        <time>2020-06-30T12:41:12Z</time>
      </trkpt>
      <trkpt lat="48.66062" lon="4.76839">
        <ele>120.9</ele>
        <time>2020-06-30T12:41:13Z</time>
      </trkpt>
      <trkpt lat="48.66063" lon="4.76828">
        <ele>120.9</ele>
        <time>2020-06-30T12:41:14Z</time>
      </trkpt>
      <trkpt lat="48.66066" lon="4.76818">
        <ele>120.8</ele>
        <time>2020-06-30T12:41:15Z</time>
      </trkpt>
      <trkpt lat="48.66068" lon="4.76808">
        <ele>120.8</ele>
        <time>2020-06-30T12:41:16Z</time>
      </trkpt>
      <trkpt lat="48.6607" lon="4.76797">
        <ele>120.8</ele>
        <time>2020-06-30T12:41:17Z</time>
      </trkpt>
      <trkpt lat="48.66072" lon="4.76786">
        <ele>120.8</ele>
        <time>2020-06-30T12:41:18Z</time>
      </trkpt>
      <trkpt lat="48.66073" lon="4.76776">
        <ele>120.8</ele>
        <time>2020-06-30T12:41:19Z</time>
      </trkpt>
      <trkpt lat="48.66075" lon="4.76765">
        <ele>120.8</ele>
        <time>2020-06-30T12:41:20Z</time>
      </trkpt>
      <trkpt lat="48.66077" lon="4.76756">
        <ele>120.8</ele>
        <time>2020-06-30T12:41:21Z</time>
      </trkpt>
      <trkpt lat="48.66079" lon="4.76746">
        <ele>120.8</ele>
        <time>2020-06-30T12:41:22Z</time>
      </trkpt>
      <trkpt lat="48.6608" lon="4.76736">
        <ele>120.8</ele>
        <time>2020-06-30T12:41:23Z</time>
      </trkpt>
      <trkpt lat="48.66082" lon="4.76725">
        <ele>120.8</ele>
        <time>2020-06-30T12:41:24Z</time>
      </trkpt>
      <trkpt lat="48.66084" lon="4.76716">
        <ele>120.8</ele>
        <time>2020-06-30T12:41:25Z</time>
      </trkpt>
      <trkpt lat="48.66085" lon="4.76706">
        <ele>120.7</ele>
        <time>2020-06-30T12:41:26Z</time>
      </trkpt>
      <trkpt lat="48.66087" lon="4.76695">
        <ele>120.7</ele>
        <time>2020-06-30T12:41:27Z</time>
      </trkpt>
      <trkpt lat="48.66088" lon="4.76684">
        <ele>120.7</ele>
        <time>2020-06-30T12:41:28Z</time>
      </trkpt>
      <trkpt lat="48.66089" lon="4.76674">
        <ele>120.7</ele>
        <time>2020-06-30T12:41:29Z</time>
      </trkpt>
      <trkpt lat="48.66091" lon="4.76663">
        <ele>120.7</ele>
        <time>2020-06-30T12:41:30Z</time>
      </trkpt>
      <trkpt lat="48.66092" lon="4.76653">
        <ele>120.6</ele>
        <time>2020-06-30T12:41:31Z</time>
      </trkpt>
      <trkpt lat="48.66095" lon="4.76642">
        <ele>120.6</ele>
        <time>2020-06-30T12:41:32Z</time>
      </trkpt>
      <trkpt lat="48.66097" lon="4.76631">
        <ele>120.6</ele>
        <time>2020-06-30T12:41:33Z</time>
      </trkpt>
      <trkpt lat="48.66098" lon="4.7662">
        <ele>120.6</ele>
        <time>2020-06-30T12:41:34Z</time>
      </trkpt>
      <trkpt lat="48.66099" lon="4.7661">
        <ele>120.6</ele>
        <time>2020-06-30T12:41:35Z</time>
      </trkpt>
      <trkpt lat="48.66101" lon="4.76599">
        <ele>120.6</ele>
        <time>2020-06-30T12:41:36Z</time>
      </trkpt>
      <trkpt lat="48.66102" lon="4.76589">
        <ele>120.6</ele>
        <time>2020-06-30T12:41:37Z</time>
      </trkpt>
      <trkpt lat="48.66103" lon="4.76579">
        <ele>120.6</ele>
        <time>2020-06-30T12:41:38Z</time>
      </trkpt>
      <trkpt lat="48.66105" lon="4.76569">
        <ele>120.6</ele>
        <time>2020-06-30T12:41:39Z</time>
      </trkpt>
      <trkpt lat="48.66107" lon="4.76559">
        <ele>120.7</ele>
        <time>2020-06-30T12:41:40Z</time>
      </trkpt>
      <trkpt lat="48.66108" lon="4.76549">
        <ele>120.7</ele>
        <time>2020-06-30T12:41:41Z</time>
      </trkpt>
      <trkpt lat="48.6611" lon="4.76539">
        <ele>120.7</ele>
        <time>2020-06-30T12:41:42Z</time>
      </trkpt>
      <trkpt lat="48.66113" lon="4.76529">
        <ele>120.7</ele>
        <time>2020-06-30T12:41:43Z</time>
      </trkpt>
      <trkpt lat="48.66116" lon="4.7652">
        <ele>120.7</ele>
        <time>2020-06-30T12:41:44Z</time>
      </trkpt>
      <trkpt lat="48.66119" lon="4.76511">
        <ele>120.7</ele>
        <time>2020-06-30T12:41:45Z</time>
      </trkpt>
      <trkpt lat="48.66122" lon="4.76501">
        <ele>120.7</ele>
        <time>2020-06-30T12:41:46Z</time>
      </trkpt>
      <trkpt lat="48.66125" lon="4.7649">
        <ele>120.7</ele>
        <time>2020-06-30T12:41:47Z</time>
      </trkpt>
      <trkpt lat="48.66127" lon="4.76479">
        <ele>120.6</ele>
        <time>2020-06-30T12:41:48Z</time>
      </trkpt>
      <trkpt lat="48.66129" lon="4.76468">
        <ele>120.6</ele>
        <time>2020-06-30T12:41:49Z</time>
      </trkpt>
      <trkpt lat="48.66131" lon="4.76457">
        <ele>120.6</ele>
        <time>2020-06-30T12:41:50Z</time>
      </trkpt>
      <trkpt lat="48.66133" lon="4.76447">
        <ele>120.6</ele>
        <time>2020-06-30T12:41:51Z</time>
      </trkpt>
      <trkpt lat="48.66135" lon="4.76436">
        <ele>120.5</ele>
        <time>2020-06-30T12:41:52Z</time>
      </trkpt>
      <trkpt lat="48.66138" lon="4.76426">
        <ele>120.5</ele>
        <time>2020-06-30T12:41:53Z</time>
      </trkpt>
      <trkpt lat="48.6614" lon="4.76415">
        <ele>120.5</ele>
        <time>2020-06-30T12:41:54Z</time>
      </trkpt>
      <trkpt lat="48.66141" lon="4.76404">
        <ele>120.4</ele>
        <time>2020-06-30T12:41:55Z</time>
      </trkpt>
      <trkpt lat="48.66143" lon="4.76393">
        <ele>120.4</ele>
        <time>2020-06-30T12:41:56Z</time>
      </trkpt>
      <trkpt lat="48.66145" lon="4.76382">
        <ele>120.4</ele>
        <time>2020-06-30T12:41:57Z</time>
      </trkpt>
      <trkpt lat="48.66148" lon="4.76371">
        <ele>120.4</ele>
        <time>2020-06-30T12:41:58Z</time>
      </trkpt>
      <trkpt lat="48.66151" lon="4.7636">
        <ele>120.4</ele>
        <time>2020-06-30T12:41:59Z</time>
      </trkpt>
      <trkpt lat="48.66153" lon="4.76349">
        <ele>120.4</ele>
        <time>2020-06-30T12:42:00Z</time>
      </trkpt>
      <trkpt lat="48.66155" lon="4.76337">
        <ele>120.4</ele>
        <time>2020-06-30T12:42:01Z</time>
      </trkpt>
      <trkpt lat="48.66157" lon="4.76326">
        <ele>120.4</ele>
        <time>2020-06-30T12:42:02Z</time>
      </trkpt>
      <trkpt lat="48.66159" lon="4.76315">
        <ele>120.5</ele>
        <time>2020-06-30T12:42:03Z</time>
      </trkpt>
      <trkpt lat="48.66161" lon="4.76304">
        <ele>120.5</ele>
        <time>2020-06-30T12:42:04Z</time>
      </trkpt>
      <trkpt lat="48.66163" lon="4.76293">
        <ele>120.5</ele>
        <time>2020-06-30T12:42:05Z</time>
      </trkpt>
      <trkpt lat="48.66165" lon="4.76282">
        <ele>120.5</ele>
        <time>2020-06-30T12:42:06Z</time>
      </trkpt>
      <trkpt lat="48.66168" lon="4.76271">
        <ele>120.5</ele>
        <time>2020-06-30T12:42:07Z</time>
      </trkpt>
      <trkpt lat="48.66171" lon="4.76261">
        <ele>120.5</ele>
        <time>2020-06-30T12:42:08Z</time>
      </trkpt>
      <trkpt lat="48.66173" lon="4.7625">
        <ele>120.5</ele>
        <time>2020-06-30T12:42:09Z</time>
      </trkpt>
      <trkpt lat="48.66175" lon="4.76239">
        <ele>120.5</ele>
        <time>2020-06-30T12:42:10Z</time>
      </trkpt>
      <trkpt lat="48.66177" lon="4.76228">
        <ele>120.5</ele>
        <time>2020-06-30T12:42:11Z</time>
      </trkpt>
      <trkpt lat="48.6618" lon="4.76218">
        <ele>120.5</ele>
        <time>2020-06-30T12:42:12Z</time>
      </trkpt>
      <trkpt lat="48.66181" lon="4.76206">
        <ele>120.5</ele>
        <time>2020-06-30T12:42:13Z</time>
      </trkpt>
      <trkpt lat="48.66183" lon="4.76196">
        <ele>120.5</ele>
        <time>2020-06-30T12:42:14Z</time>
      </trkpt>
      <trkpt lat="48.66185" lon="4.76185">
        <ele>120.5</ele>
        <time>2020-06-30T12:42:15Z</time>
      </trkpt>
      <trkpt lat="48.66188" lon="4.76175">
        <ele>120.5</ele>
        <time>2020-06-30T12:42:16Z</time>
      </trkpt>
      <trkpt lat="48.66191" lon="4.76164">
        <ele>120.5</ele>
        <time>2020-06-30T12:42:17Z</time>
      </trkpt>
      <trkpt lat="48.66193" lon="4.76154">
        <ele>120.5</ele>
        <time>2020-06-30T12:42:18Z</time>
      </trkpt>
      <trkpt lat="48.66196" lon="4.76144">
        <ele>120.5</ele>
        <time>2020-06-30T12:42:19Z</time>
      </trkpt>
      <trkpt lat="48.66199" lon="4.76133">
        <ele>120.4</ele>
        <time>2020-06-30T12:42:20Z</time>
      </trkpt>
      <trkpt lat="48.662" lon="4.76122">
        <ele>120.4</ele>
        <time>2020-06-30T12:42:21Z</time>
      </trkpt>
      <trkpt lat="48.66202" lon="4.76111">
        <ele>120.4</ele>
        <time>2020-06-30T12:42:22Z</time>
      </trkpt>
      <trkpt lat="48.66202" lon="4.76098">
        <ele>120.4</ele>
        <time>2020-06-30T12:42:23Z</time>
      </trkpt>
      <trkpt lat="48.66202" lon="4.76085">
        <ele>120.4</ele>
        <time>2020-06-30T12:42:24Z</time>
      </trkpt>
      <trkpt lat="48.66204" lon="4.76071">
        <ele>120.4</ele>
        <time>2020-06-30T12:42:25Z</time>
      </trkpt>
      <trkpt lat="48.66206" lon="4.76057">
        <ele>120.5</ele>
        <time>2020-06-30T12:42:26Z</time>
      </trkpt>
      <trkpt lat="48.66208" lon="4.76045">
        <ele>120.5</ele>
        <time>2020-06-30T12:42:27Z</time>
      </trkpt>
      <trkpt lat="48.66207" lon="4.76033">
        <ele>120.5</ele>
        <time>2020-06-30T12:42:28Z</time>
      </trkpt>
      <trkpt lat="48.66208" lon="4.76021">
        <ele>120.5</ele>
        <time>2020-06-30T12:42:29Z</time>
      </trkpt>
      <trkpt lat="48.66206" lon="4.76004">
        <ele>120.5</ele>
        <time>2020-06-30T12:42:30Z</time>
      </trkpt>
      <trkpt lat="48.66206" lon="4.75993">
        <ele>120.4</ele>
        <time>2020-06-30T12:42:31Z</time>
      </trkpt>
      <trkpt lat="48.66205" lon="4.75979">
        <ele>120.4</ele>
        <time>2020-06-30T12:42:32Z</time>
      </trkpt>
      <trkpt lat="48.66204" lon="4.75964">
        <ele>120.4</ele>
        <time>2020-06-30T12:42:33Z</time>
      </trkpt>
      <trkpt lat="48.66204" lon="4.75948">
        <ele>120.4</ele>
        <time>2020-06-30T12:42:34Z</time>
      </trkpt>
      <trkpt lat="48.66205" lon="4.75933">
        <ele>120.4</ele>
        <time>2020-06-30T12:42:35Z</time>
      </trkpt>
      <trkpt lat="48.66205" lon="4.75919">
        <ele>120.3</ele>
        <time>2020-06-30T12:42:36Z</time>
      </trkpt>
      <trkpt lat="48.66205" lon="4.75907">
        <ele>120.3</ele>
        <time>2020-06-30T12:42:37Z</time>
      </trkpt>
      <trkpt lat="48.66205" lon="4.75894">
        <ele>120.3</ele>
        <time>2020-06-30T12:42:38Z</time>
      </trkpt>
      <trkpt lat="48.66206" lon="4.75883">
        <ele>120.2</ele>
        <time>2020-06-30T12:42:39Z</time>
      </trkpt>
      <trkpt lat="48.66207" lon="4.75869">
        <ele>120.2</ele>
        <time>2020-06-30T12:42:40Z</time>
      </trkpt>
      <trkpt lat="48.66207" lon="4.75855">
        <ele>120.1</ele>
        <time>2020-06-30T12:42:41Z</time>
      </trkpt>
      <trkpt lat="48.66208" lon="4.75843">
        <ele>120</ele>
        <time>2020-06-30T12:42:42Z</time>
      </trkpt>
      <trkpt lat="48.66209" lon="4.75831">
        <ele>120.1</ele>
        <time>2020-06-30T12:42:43Z</time>
      </trkpt>
      <trkpt lat="48.6621" lon="4.7582">
        <ele>120.1</ele>
        <time>2020-06-30T12:42:44Z</time>
      </trkpt>
      <trkpt lat="48.66211" lon="4.75808">
        <ele>120.1</ele>
        <time>2020-06-30T12:42:45Z</time>
      </trkpt>
      <trkpt lat="48.66212" lon="4.75797">
        <ele>120.2</ele>
        <time>2020-06-30T12:42:46Z</time>
      </trkpt>
      <trkpt lat="48.66213" lon="4.75786">
        <ele>120.2</ele>
        <time>2020-06-30T12:42:47Z</time>
      </trkpt>
      <trkpt lat="48.66215" lon="4.75775">
        <ele>120.2</ele>
        <time>2020-06-30T12:42:48Z</time>
      </trkpt>
      <trkpt lat="48.66216" lon="4.75765">
        <ele>120.2</ele>
        <time>2020-06-30T12:42:49Z</time>
      </trkpt>
      <trkpt lat="48.66217" lon="4.75756">
        <ele>120.3</ele>
        <time>2020-06-30T12:42:50Z</time>
      </trkpt>
      <trkpt lat="48.66218" lon="4.75749">
        <ele>120.3</ele>
        <time>2020-06-30T12:42:51Z</time>
      </trkpt>
      <trkpt lat="48.66219" lon="4.75741">
        <ele>120.1</ele>
        <time>2020-06-30T12:42:52Z</time>
      </trkpt>
      <trkpt lat="48.6622" lon="4.75735">
        <ele>119.9</ele>
        <time>2020-06-30T12:42:53Z</time>
      </trkpt>
      <trkpt lat="48.66222" lon="4.75728">
        <ele>119.7</ele>
        <time>2020-06-30T12:42:54Z</time>
      </trkpt>
      <trkpt lat="48.66224" lon="4.75717">
        <ele>119.4</ele>
        <time>2020-06-30T12:42:55Z</time>
      </trkpt>
      <trkpt lat="48.66225" lon="4.75708">
        <ele>119.2</ele>
        <time>2020-06-30T12:42:56Z</time>
      </trkpt>
      <trkpt lat="48.66227" lon="4.75697">
        <ele>118.9</ele>
        <time>2020-06-30T12:42:57Z</time>
      </trkpt>
      <trkpt lat="48.66228" lon="4.75687">
        <ele>118.6</ele>
        <time>2020-06-30T12:42:58Z</time>
      </trkpt>
      <trkpt lat="48.6623" lon="4.75674">
        <ele>118.2</ele>
        <time>2020-06-30T12:42:59Z</time>
      </trkpt>
      <trkpt lat="48.66232" lon="4.75662">
        <ele>118</ele>
        <time>2020-06-30T12:43:00Z</time>
      </trkpt>
      <trkpt lat="48.66234" lon="4.7565">
        <ele>117.8</ele>
        <time>2020-06-30T12:43:01Z</time>
      </trkpt>
      <trkpt lat="48.66236" lon="4.75638">
        <ele>117.8</ele>
        <time>2020-06-30T12:43:02Z</time>
      </trkpt>
      <trkpt lat="48.66237" lon="4.75626">
        <ele>117.8</ele>
        <time>2020-06-30T12:43:03Z</time>
      </trkpt>
      <trkpt lat="48.66238" lon="4.75614">
        <ele>117.9</ele>
        <time>2020-06-30T12:43:04Z</time>
      </trkpt>
      <trkpt lat="48.66239" lon="4.75603">
        <ele>118.2</ele>
        <time>2020-06-30T12:43:05Z</time>
      </trkpt>
      <trkpt lat="48.66241" lon="4.75592">
        <ele>118.3</ele>
        <time>2020-06-30T12:43:06Z</time>
      </trkpt>
      <trkpt lat="48.66242" lon="4.75581">
        <ele>118.3</ele>
        <time>2020-06-30T12:43:07Z</time>
      </trkpt>
      <trkpt lat="48.66244" lon="4.7557">
        <ele>118.2</ele>
        <time>2020-06-30T12:43:08Z</time>
      </trkpt>
      <trkpt lat="48.66245" lon="4.7556">
        <ele>118.2</ele>
        <time>2020-06-30T12:43:09Z</time>
      </trkpt>
      <trkpt lat="48.66247" lon="4.75549">
        <ele>118.1</ele>
        <time>2020-06-30T12:43:10Z</time>
      </trkpt>
      <trkpt lat="48.66248" lon="4.75539">
        <ele>118.1</ele>
        <time>2020-06-30T12:43:11Z</time>
      </trkpt>
      <trkpt lat="48.6625" lon="4.75529">
        <ele>118</ele>
        <time>2020-06-30T12:43:12Z</time>
      </trkpt>
      <trkpt lat="48.66251" lon="4.75519">
        <ele>118</ele>
        <time>2020-06-30T12:43:13Z</time>
      </trkpt>
      <trkpt lat="48.66252" lon="4.75508">
        <ele>118</ele>
        <time>2020-06-30T12:43:14Z</time>
      </trkpt>
      <trkpt lat="48.66253" lon="4.75498">
        <ele>118</ele>
        <time>2020-06-30T12:43:15Z</time>
      </trkpt>
      <trkpt lat="48.66255" lon="4.75488">
        <ele>118</ele>
        <time>2020-06-30T12:43:16Z</time>
      </trkpt>
      <trkpt lat="48.66257" lon="4.75479">
        <ele>118</ele>
        <time>2020-06-30T12:43:17Z</time>
      </trkpt>
      <trkpt lat="48.66258" lon="4.75469">
        <ele>117.9</ele>
        <time>2020-06-30T12:43:18Z</time>
      </trkpt>
      <trkpt lat="48.66259" lon="4.75459">
        <ele>117.9</ele>
        <time>2020-06-30T12:43:19Z</time>
      </trkpt>
      <trkpt lat="48.66261" lon="4.7545">
        <ele>117.9</ele>
        <time>2020-06-30T12:43:20Z</time>
      </trkpt>
      <trkpt lat="48.66262" lon="4.7544">
        <ele>117.9</ele>
        <time>2020-06-30T12:43:21Z</time>
      </trkpt>
      <trkpt lat="48.66264" lon="4.7543">
        <ele>118</ele>
        <time>2020-06-30T12:43:22Z</time>
      </trkpt>
      <trkpt lat="48.66265" lon="4.7542">
        <ele>118</ele>
        <time>2020-06-30T12:43:23Z</time>
      </trkpt>
      <trkpt lat="48.66266" lon="4.75411">
        <ele>117.9</ele>
        <time>2020-06-30T12:43:24Z</time>
      </trkpt>
      <trkpt lat="48.66268" lon="4.75401">
        <ele>117.9</ele>
        <time>2020-06-30T12:43:25Z</time>
      </trkpt>
      <trkpt lat="48.66269" lon="4.75391">
        <ele>117.9</ele>
        <time>2020-06-30T12:43:26Z</time>
      </trkpt>
      <trkpt lat="48.66271" lon="4.75382">
        <ele>117.9</ele>
        <time>2020-06-30T12:43:27Z</time>
      </trkpt>
      <trkpt lat="48.66272" lon="4.75372">
        <ele>117.9</ele>
        <time>2020-06-30T12:43:28Z</time>
      </trkpt>
      <trkpt lat="48.66274" lon="4.75362">
        <ele>117.9</ele>
        <time>2020-06-30T12:43:29Z</time>
      </trkpt>
      <trkpt lat="48.66275" lon="4.75353">
        <ele>117.9</ele>
        <time>2020-06-30T12:43:30Z</time>
      </trkpt>
      <trkpt lat="48.66276" lon="4.75343">
        <ele>117.8</ele>
        <time>2020-06-30T12:43:31Z</time>
      </trkpt>
      <trkpt lat="48.66278" lon="4.75334">
        <ele>117.8</ele>
        <time>2020-06-30T12:43:32Z</time>
      </trkpt>
      <trkpt lat="48.66279" lon="4.75325">
        <ele>117.8</ele>
        <time>2020-06-30T12:43:33Z</time>
      </trkpt>
      <trkpt lat="48.66281" lon="4.75315">
        <ele>117.8</ele>
        <time>2020-06-30T12:43:34Z</time>
      </trkpt>
      <trkpt lat="48.66282" lon="4.75306">
        <ele>117.8</ele>
        <time>2020-06-30T12:43:35Z</time>
      </trkpt>
      <trkpt lat="48.66284" lon="4.75296">
        <ele>117.8</ele>
        <time>2020-06-30T12:43:36Z</time>
      </trkpt>
      <trkpt lat="48.66286" lon="4.75286">
        <ele>117.8</ele>
        <time>2020-06-30T12:43:37Z</time>
      </trkpt>
      <trkpt lat="48.66288" lon="4.75277">
        <ele>117.8</ele>
        <time>2020-06-30T12:43:38Z</time>
      </trkpt>
      <trkpt lat="48.66289" lon="4.75267">
        <ele>117.7</ele>
        <time>2020-06-30T12:43:39Z</time>
      </trkpt>
      <trkpt lat="48.6629" lon="4.75257">
        <ele>117.7</ele>
        <time>2020-06-30T12:43:40Z</time>
      </trkpt>
      <trkpt lat="48.66292" lon="4.75249">
        <ele>117.7</ele>
        <time>2020-06-30T12:43:41Z</time>
      </trkpt>
      <trkpt lat="48.66293" lon="4.7524">
        <ele>117.7</ele>
        <time>2020-06-30T12:43:42Z</time>
      </trkpt>
      <trkpt lat="48.66294" lon="4.7523">
        <ele>117.7</ele>
        <time>2020-06-30T12:43:43Z</time>
      </trkpt>
      <trkpt lat="48.66296" lon="4.75221">
        <ele>117.7</ele>
        <time>2020-06-30T12:43:44Z</time>
      </trkpt>
      <trkpt lat="48.66297" lon="4.75212">
        <ele>117.7</ele>
        <time>2020-06-30T12:43:45Z</time>
      </trkpt>
      <trkpt lat="48.66298" lon="4.75203">
        <ele>117.7</ele>
        <time>2020-06-30T12:43:46Z</time>
      </trkpt>
      <trkpt lat="48.663" lon="4.75193">
        <ele>117.7</ele>
        <time>2020-06-30T12:43:47Z</time>
      </trkpt>
      <trkpt lat="48.66301" lon="4.75184">
        <ele>117.7</ele>
        <time>2020-06-30T12:43:48Z</time>
      </trkpt>
      <trkpt lat="48.66303" lon="4.75175">
        <ele>117.7</ele>
        <time>2020-06-30T12:43:49Z</time>
      </trkpt>
      <trkpt lat="48.66304" lon="4.75166">
        <ele>117.7</ele>
        <time>2020-06-30T12:43:50Z</time>
      </trkpt>
      <trkpt lat="48.66306" lon="4.75156">
        <ele>117.7</ele>
        <time>2020-06-30T12:43:51Z</time>
      </trkpt>
      <trkpt lat="48.66307" lon="4.75146">
        <ele>117.7</ele>
        <time>2020-06-30T12:43:52Z</time>
      </trkpt>
      <trkpt lat="48.66309" lon="4.75136">
        <ele>117.7</ele>
        <time>2020-06-30T12:43:53Z</time>
      </trkpt>
      <trkpt lat="48.6631" lon="4.75126">
        <ele>117.7</ele>
        <time>2020-06-30T12:43:54Z</time>
      </trkpt>
      <trkpt lat="48.66311" lon="4.75115">
        <ele>117.7</ele>
        <time>2020-06-30T12:43:55Z</time>
      </trkpt>
      <trkpt lat="48.66312" lon="4.75105">
        <ele>117.7</ele>
        <time>2020-06-30T12:43:56Z</time>
      </trkpt>
      <trkpt lat="48.66313" lon="4.75094">
        <ele>117.8</ele>
        <time>2020-06-30T12:43:57Z</time>
      </trkpt>
      <trkpt lat="48.66313" lon="4.75084">
        <ele>117.8</ele>
        <time>2020-06-30T12:43:58Z</time>
      </trkpt>
      <trkpt lat="48.66315" lon="4.75074">
        <ele>117.8</ele>
        <time>2020-06-30T12:43:59Z</time>
      </trkpt>
      <trkpt lat="48.66316" lon="4.75064">
        <ele>117.8</ele>
        <time>2020-06-30T12:44:00Z</time>
      </trkpt>
      <trkpt lat="48.66318" lon="4.75055">
        <ele>117.8</ele>
        <time>2020-06-30T12:44:01Z</time>
      </trkpt>
      <trkpt lat="48.6632" lon="4.75045">
        <ele>117.8</ele>
        <time>2020-06-30T12:44:02Z</time>
      </trkpt>
      <trkpt lat="48.66322" lon="4.75036">
        <ele>117.8</ele>
        <time>2020-06-30T12:44:03Z</time>
      </trkpt>
      <trkpt lat="48.66323" lon="4.75026">
        <ele>117.8</ele>
        <time>2020-06-30T12:44:04Z</time>
      </trkpt>
      <trkpt lat="48.66324" lon="4.75016">
        <ele>117.8</ele>
        <time>2020-06-30T12:44:05Z</time>
      </trkpt>
      <trkpt lat="48.66325" lon="4.75006">
        <ele>117.8</ele>
        <time>2020-06-30T12:44:06Z</time>
      </trkpt>
      <trkpt lat="48.66327" lon="4.74996">
        <ele>117.8</ele>
        <time>2020-06-30T12:44:07Z</time>
      </trkpt>
      <trkpt lat="48.66328" lon="4.74987">
        <ele>117.8</ele>
        <time>2020-06-30T12:44:08Z</time>
      </trkpt>
      <trkpt lat="48.66329" lon="4.74977">
        <ele>117.8</ele>
        <time>2020-06-30T12:44:09Z</time>
      </trkpt>
      <trkpt lat="48.66331" lon="4.74967">
        <ele>117.8</ele>
        <time>2020-06-30T12:44:10Z</time>
      </trkpt>
      <trkpt lat="48.66332" lon="4.74957">
        <ele>117.7</ele>
        <time>2020-06-30T12:44:11Z</time>
      </trkpt>
      <trkpt lat="48.66333" lon="4.74947">
        <ele>117.7</ele>
        <time>2020-06-30T12:44:12Z</time>
      </trkpt>
      <trkpt lat="48.66335" lon="4.74937">
        <ele>117.7</ele>
        <time>2020-06-30T12:44:13Z</time>
      </trkpt>
      <trkpt lat="48.66337" lon="4.74928">
        <ele>117.7</ele>
        <time>2020-06-30T12:44:14Z</time>
      </trkpt>
      <trkpt lat="48.66337" lon="4.74918">
        <ele>117.7</ele>
        <time>2020-06-30T12:44:15Z</time>
      </trkpt>
      <trkpt lat="48.66338" lon="4.74907">
        <ele>117.7</ele>
        <time>2020-06-30T12:44:16Z</time>
      </trkpt>
      <trkpt lat="48.66339" lon="4.74897">
        <ele>117.7</ele>
        <time>2020-06-30T12:44:17Z</time>
      </trkpt>
      <trkpt lat="48.66341" lon="4.74888">
        <ele>117.7</ele>
        <time>2020-06-30T12:44:18Z</time>
      </trkpt>
      <trkpt lat="48.66343" lon="4.74879">
        <ele>117.7</ele>
        <time>2020-06-30T12:44:19Z</time>
      </trkpt>
      <trkpt lat="48.66344" lon="4.74869">
        <ele>117.7</ele>
        <time>2020-06-30T12:44:20Z</time>
      </trkpt>
      <trkpt lat="48.66345" lon="4.74859">
        <ele>117.7</ele>
        <time>2020-06-30T12:44:21Z</time>
      </trkpt>
      <trkpt lat="48.66346" lon="4.74849">
        <ele>117.7</ele>
        <time>2020-06-30T12:44:22Z</time>
      </trkpt>
      <trkpt lat="48.66347" lon="4.74839">
        <ele>117.8</ele>
        <time>2020-06-30T12:44:23Z</time>
      </trkpt>
      <trkpt lat="48.66349" lon="4.74829">
        <ele>117.7</ele>
        <time>2020-06-30T12:44:24Z</time>
      </trkpt>
      <trkpt lat="48.66351" lon="4.74819">
        <ele>117.7</ele>
        <time>2020-06-30T12:44:25Z</time>
      </trkpt>
      <trkpt lat="48.66353" lon="4.74809">
        <ele>117.7</ele>
        <time>2020-06-30T12:44:26Z</time>
      </trkpt>
      <trkpt lat="48.66354" lon="4.74799">
        <ele>117.6</ele>
        <time>2020-06-30T12:44:27Z</time>
      </trkpt>
      <trkpt lat="48.66356" lon="4.74789">
        <ele>117.6</ele>
        <time>2020-06-30T12:44:28Z</time>
      </trkpt>
      <trkpt lat="48.66357" lon="4.7478">
        <ele>117.6</ele>
        <time>2020-06-30T12:44:29Z</time>
      </trkpt>
      <trkpt lat="48.66359" lon="4.7477">
        <ele>117.7</ele>
        <time>2020-06-30T12:44:30Z</time>
      </trkpt>
      <trkpt lat="48.6636" lon="4.7476">
        <ele>117.7</ele>
        <time>2020-06-30T12:44:31Z</time>
      </trkpt>
      <trkpt lat="48.66361" lon="4.7475">
        <ele>117.7</ele>
        <time>2020-06-30T12:44:32Z</time>
      </trkpt>
      <trkpt lat="48.66362" lon="4.7474">
        <ele>117.7</ele>
        <time>2020-06-30T12:44:33Z</time>
      </trkpt>
      <trkpt lat="48.66364" lon="4.74731">
        <ele>117.7</ele>
        <time>2020-06-30T12:44:34Z</time>
      </trkpt>
      <trkpt lat="48.66365" lon="4.74721">
        <ele>117.7</ele>
        <time>2020-06-30T12:44:35Z</time>
      </trkpt>
      <trkpt lat="48.66366" lon="4.74711">
        <ele>117.7</ele>
        <time>2020-06-30T12:44:36Z</time>
      </trkpt>
      <trkpt lat="48.66368" lon="4.74702">
        <ele>117.7</ele>
        <time>2020-06-30T12:44:37Z</time>
      </trkpt>
      <trkpt lat="48.6637" lon="4.74692">
        <ele>117.7</ele>
        <time>2020-06-30T12:44:38Z</time>
      </trkpt>
      <trkpt lat="48.66371" lon="4.74681">
        <ele>117.7</ele>
        <time>2020-06-30T12:44:39Z</time>
      </trkpt>
      <trkpt lat="48.66372" lon="4.74671">
        <ele>117.6</ele>
        <time>2020-06-30T12:44:40Z</time>
      </trkpt>
      <trkpt lat="48.66373" lon="4.74661">
        <ele>117.6</ele>
        <time>2020-06-30T12:44:41Z</time>
      </trkpt>
      <trkpt lat="48.66374" lon="4.74651">
        <ele>117.6</ele>
        <time>2020-06-30T12:44:42Z</time>
      </trkpt>
      <trkpt lat="48.66376" lon="4.74641">
        <ele>117.6</ele>
        <time>2020-06-30T12:44:43Z</time>
      </trkpt>
      <trkpt lat="48.66378" lon="4.74631">
        <ele>117.6</ele>
        <time>2020-06-30T12:44:44Z</time>
      </trkpt>
      <trkpt lat="48.66379" lon="4.74621">
        <ele>117.6</ele>
        <time>2020-06-30T12:44:45Z</time>
      </trkpt>
      <trkpt lat="48.6638" lon="4.74612">
        <ele>117.6</ele>
        <time>2020-06-30T12:44:46Z</time>
      </trkpt>
      <trkpt lat="48.66382" lon="4.74602">
        <ele>117.6</ele>
        <time>2020-06-30T12:44:47Z</time>
      </trkpt>
      <trkpt lat="48.66383" lon="4.74593">
        <ele>117.6</ele>
        <time>2020-06-30T12:44:48Z</time>
      </trkpt>
      <trkpt lat="48.66385" lon="4.74584">
        <ele>117.6</ele>
        <time>2020-06-30T12:44:49Z</time>
      </trkpt>
      <trkpt lat="48.66386" lon="4.74574">
        <ele>117.6</ele>
        <time>2020-06-30T12:44:50Z</time>
      </trkpt>
      <trkpt lat="48.66387" lon="4.74564">
        <ele>117.6</ele>
        <time>2020-06-30T12:44:51Z</time>
      </trkpt>
      <trkpt lat="48.66388" lon="4.74554">
        <ele>117.6</ele>
        <time>2020-06-30T12:44:52Z</time>
      </trkpt>
      <trkpt lat="48.6639" lon="4.74543">
        <ele>117.6</ele>
        <time>2020-06-30T12:44:53Z</time>
      </trkpt>
      <trkpt lat="48.66392" lon="4.74532">
        <ele>117.7</ele>
        <time>2020-06-30T12:44:54Z</time>
      </trkpt>
      <trkpt lat="48.66394" lon="4.74522">
        <ele>117.7</ele>
        <time>2020-06-30T12:44:55Z</time>
      </trkpt>
      <trkpt lat="48.66395" lon="4.74511">
        <ele>117.6</ele>
        <time>2020-06-30T12:44:56Z</time>
      </trkpt>
      <trkpt lat="48.66397" lon="4.74501">
        <ele>117.6</ele>
        <time>2020-06-30T12:44:57Z</time>
      </trkpt>
      <trkpt lat="48.66399" lon="4.74491">
        <ele>117.6</ele>
        <time>2020-06-30T12:44:58Z</time>
      </trkpt>
      <trkpt lat="48.664" lon="4.74482">
        <ele>117.6</ele>
        <time>2020-06-30T12:44:59Z</time>
      </trkpt>
      <trkpt lat="48.66402" lon="4.74474">
        <ele>117.6</ele>
        <time>2020-06-30T12:45:00Z</time>
      </trkpt>
      <trkpt lat="48.66405" lon="4.74465">
        <ele>117.6</ele>
        <time>2020-06-30T12:45:01Z</time>
      </trkpt>
      <trkpt lat="48.66406" lon="4.74455">
        <ele>117.6</ele>
        <time>2020-06-30T12:45:02Z</time>
      </trkpt>
      <trkpt lat="48.66407" lon="4.74446">
        <ele>117.5</ele>
        <time>2020-06-30T12:45:03Z</time>
      </trkpt>
      <trkpt lat="48.66409" lon="4.74434">
        <ele>117.5</ele>
        <time>2020-06-30T12:45:04Z</time>
      </trkpt>
      <trkpt lat="48.6641" lon="4.74426">
        <ele>117.5</ele>
        <time>2020-06-30T12:45:05Z</time>
      </trkpt>
      <trkpt lat="48.66411" lon="4.74417">
        <ele>117.5</ele>
        <time>2020-06-30T12:45:06Z</time>
      </trkpt>
      <trkpt lat="48.66412" lon="4.74408">
        <ele>117.5</ele>
        <time>2020-06-30T12:45:07Z</time>
      </trkpt>
      <trkpt lat="48.66414" lon="4.74397">
        <ele>117.5</ele>
        <time>2020-06-30T12:45:08Z</time>
      </trkpt>
      <trkpt lat="48.66415" lon="4.74387">
        <ele>117.5</ele>
        <time>2020-06-30T12:45:09Z</time>
      </trkpt>
      <trkpt lat="48.66417" lon="4.74377">
        <ele>117.5</ele>
        <time>2020-06-30T12:45:10Z</time>
      </trkpt>
      <trkpt lat="48.66418" lon="4.74367">
        <ele>117.5</ele>
        <time>2020-06-30T12:45:11Z</time>
      </trkpt>
      <trkpt lat="48.66419" lon="4.74358">
        <ele>117.5</ele>
        <time>2020-06-30T12:45:12Z</time>
      </trkpt>
      <trkpt lat="48.66419" lon="4.74348">
        <ele>117.5</ele>
        <time>2020-06-30T12:45:13Z</time>
      </trkpt>
      <trkpt lat="48.6642" lon="4.74339">
        <ele>117.5</ele>
        <time>2020-06-30T12:45:14Z</time>
      </trkpt>
      <trkpt lat="48.66421" lon="4.74331">
        <ele>117.5</ele>
        <time>2020-06-30T12:45:15Z</time>
      </trkpt>
      <trkpt lat="48.66421" lon="4.74322">
        <ele>117.6</ele>
        <time>2020-06-30T12:45:16Z</time>
      </trkpt>
      <trkpt lat="48.66421" lon="4.74314">
        <ele>117.6</ele>
        <time>2020-06-30T12:45:17Z</time>
      </trkpt>
      <trkpt lat="48.66421" lon="4.74307">
        <ele>117.6</ele>
        <time>2020-06-30T12:45:18Z</time>
      </trkpt>
      <trkpt lat="48.66422" lon="4.74301">
        <ele>117.6</ele>
        <time>2020-06-30T12:45:19Z</time>
      </trkpt>
      <trkpt lat="48.66424" lon="4.74293">
        <ele>117.6</ele>
        <time>2020-06-30T12:45:20Z</time>
      </trkpt>
      <trkpt lat="48.66427" lon="4.74286">
        <ele>117.6</ele>
        <time>2020-06-30T12:45:21Z</time>
      </trkpt>
      <trkpt lat="48.66429" lon="4.74276">
        <ele>117.7</ele>
        <time>2020-06-30T12:45:22Z</time>
      </trkpt>
      <trkpt lat="48.66431" lon="4.74267">
        <ele>117.7</ele>
        <time>2020-06-30T12:45:23Z</time>
      </trkpt>
      <trkpt lat="48.66433" lon="4.74258">
        <ele>117.7</ele>
        <time>2020-06-30T12:45:24Z</time>
      </trkpt>
      <trkpt lat="48.66435" lon="4.7425">
        <ele>117.8</ele>
        <time>2020-06-30T12:45:25Z</time>
      </trkpt>
      <trkpt lat="48.66436" lon="4.74241">
        <ele>117.9</ele>
        <time>2020-06-30T12:45:26Z</time>
      </trkpt>
      <trkpt lat="48.66438" lon="4.74229">
        <ele>117.9</ele>
        <time>2020-06-30T12:45:27Z</time>
      </trkpt>
      <trkpt lat="48.66439" lon="4.74221">
        <ele>117.8</ele>
        <time>2020-06-30T12:45:28Z</time>
      </trkpt>
      <trkpt lat="48.6644" lon="4.74213">
        <ele>117.8</ele>
        <time>2020-06-30T12:45:29Z</time>
      </trkpt>
      <trkpt lat="48.66441" lon="4.74205">
        <ele>117.7</ele>
        <time>2020-06-30T12:45:30Z</time>
      </trkpt>
      <trkpt lat="48.66442" lon="4.74195">
        <ele>117.7</ele>
        <time>2020-06-30T12:45:31Z</time>
      </trkpt>
      <trkpt lat="48.66443" lon="4.74186">
        <ele>117.6</ele>
        <time>2020-06-30T12:45:32Z</time>
      </trkpt>
      <trkpt lat="48.66445" lon="4.74177">
        <ele>117.6</ele>
        <time>2020-06-30T12:45:33Z</time>
      </trkpt>
      <trkpt lat="48.66446" lon="4.74168">
        <ele>117.6</ele>
        <time>2020-06-30T12:45:34Z</time>
      </trkpt>
      <trkpt lat="48.66447" lon="4.7416">
        <ele>117.6</ele>
        <time>2020-06-30T12:45:35Z</time>
      </trkpt>
      <trkpt lat="48.66449" lon="4.74149">
        <ele>117.6</ele>
        <time>2020-06-30T12:45:36Z</time>
      </trkpt>
      <trkpt lat="48.6645" lon="4.74142">
        <ele>117.6</ele>
        <time>2020-06-30T12:45:37Z</time>
      </trkpt>
      <trkpt lat="48.66453" lon="4.74132">
        <ele>117.5</ele>
        <time>2020-06-30T12:45:38Z</time>
      </trkpt>
      <trkpt lat="48.66453" lon="4.74123">
        <ele>117.5</ele>
        <time>2020-06-30T12:45:39Z</time>
      </trkpt>
      <trkpt lat="48.66455" lon="4.74113">
        <ele>117.5</ele>
        <time>2020-06-30T12:45:40Z</time>
      </trkpt>
      <trkpt lat="48.66456" lon="4.74104">
        <ele>117.5</ele>
        <time>2020-06-30T12:45:41Z</time>
      </trkpt>
      <trkpt lat="48.66458" lon="4.74093">
        <ele>117.5</ele>
        <time>2020-06-30T12:45:42Z</time>
      </trkpt>
      <trkpt lat="48.66459" lon="4.74083">
        <ele>117.4</ele>
        <time>2020-06-30T12:45:43Z</time>
      </trkpt>
      <trkpt lat="48.66462" lon="4.74073">
        <ele>117.4</ele>
        <time>2020-06-30T12:45:44Z</time>
      </trkpt>
      <trkpt lat="48.66464" lon="4.74064">
        <ele>117.4</ele>
        <time>2020-06-30T12:45:45Z</time>
      </trkpt>
      <trkpt lat="48.66466" lon="4.74054">
        <ele>117.5</ele>
        <time>2020-06-30T12:45:46Z</time>
      </trkpt>
      <trkpt lat="48.66468" lon="4.74041">
        <ele>117.5</ele>
        <time>2020-06-30T12:45:47Z</time>
      </trkpt>
      <trkpt lat="48.6647" lon="4.74032">
        <ele>117.5</ele>
        <time>2020-06-30T12:45:48Z</time>
      </trkpt>
      <trkpt lat="48.66471" lon="4.74023">
        <ele>117.4</ele>
        <time>2020-06-30T12:45:49Z</time>
      </trkpt>
      <trkpt lat="48.66472" lon="4.74012">
        <ele>117.4</ele>
        <time>2020-06-30T12:45:50Z</time>
      </trkpt>
      <trkpt lat="48.66473" lon="4.74003">
        <ele>117.4</ele>
        <time>2020-06-30T12:45:51Z</time>
      </trkpt>
      <trkpt lat="48.66474" lon="4.73992">
        <ele>117.4</ele>
        <time>2020-06-30T12:45:52Z</time>
      </trkpt>
      <trkpt lat="48.66475" lon="4.73981">
        <ele>117.4</ele>
        <time>2020-06-30T12:45:53Z</time>
      </trkpt>
      <trkpt lat="48.66477" lon="4.73971">
        <ele>117.4</ele>
        <time>2020-06-30T12:45:54Z</time>
      </trkpt>
      <trkpt lat="48.66478" lon="4.7396">
        <ele>117.4</ele>
        <time>2020-06-30T12:45:55Z</time>
      </trkpt>
      <trkpt lat="48.66479" lon="4.73951">
        <ele>117.4</ele>
        <time>2020-06-30T12:45:56Z</time>
      </trkpt>
      <trkpt lat="48.66481" lon="4.73941">
        <ele>117.4</ele>
        <time>2020-06-30T12:45:57Z</time>
      </trkpt>
      <trkpt lat="48.66483" lon="4.7393">
        <ele>117.4</ele>
        <time>2020-06-30T12:45:58Z</time>
      </trkpt>
      <trkpt lat="48.66484" lon="4.7392">
        <ele>117.4</ele>
        <time>2020-06-30T12:45:59Z</time>
      </trkpt>
      <trkpt lat="48.66485" lon="4.7391">
        <ele>117.4</ele>
        <time>2020-06-30T12:46:00Z</time>
      </trkpt>
      <trkpt lat="48.66487" lon="4.739">
        <ele>117.4</ele>
        <time>2020-06-30T12:46:01Z</time>
      </trkpt>
      <trkpt lat="48.66488" lon="4.7389">
        <ele>117.4</ele>
        <time>2020-06-30T12:46:02Z</time>
      </trkpt>
      <trkpt lat="48.6649" lon="4.7388">
        <ele>117.5</ele>
        <time>2020-06-30T12:46:03Z</time>
      </trkpt>
      <trkpt lat="48.66491" lon="4.7387">
        <ele>117.5</ele>
        <time>2020-06-30T12:46:04Z</time>
      </trkpt>
      <trkpt lat="48.66493" lon="4.73862">
        <ele>117.5</ele>
        <time>2020-06-30T12:46:05Z</time>
      </trkpt>
      <trkpt lat="48.66495" lon="4.73852">
        <ele>117.5</ele>
        <time>2020-06-30T12:46:06Z</time>
      </trkpt>
      <trkpt lat="48.66497" lon="4.73842">
        <ele>117.5</ele>
        <time>2020-06-30T12:46:07Z</time>
      </trkpt>
      <trkpt lat="48.66499" lon="4.73834">
        <ele>117.5</ele>
        <time>2020-06-30T12:46:08Z</time>
      </trkpt>
      <trkpt lat="48.66501" lon="4.73825">
        <ele>117.5</ele>
        <time>2020-06-30T12:46:09Z</time>
      </trkpt>
      <trkpt lat="48.66502" lon="4.73816">
        <ele>117.4</ele>
        <time>2020-06-30T12:46:10Z</time>
      </trkpt>
      <trkpt lat="48.66504" lon="4.73806">
        <ele>117.4</ele>
        <time>2020-06-30T12:46:11Z</time>
      </trkpt>
      <trkpt lat="48.66507" lon="4.73795">
        <ele>117.4</ele>
        <time>2020-06-30T12:46:12Z</time>
      </trkpt>
      <trkpt lat="48.6651" lon="4.73788">
        <ele>117.3</ele>
        <time>2020-06-30T12:46:13Z</time>
      </trkpt>
      <trkpt lat="48.66513" lon="4.73779">
        <ele>117.3</ele>
        <time>2020-06-30T12:46:14Z</time>
      </trkpt>
      <trkpt lat="48.66516" lon="4.73769">
        <ele>117.2</ele>
        <time>2020-06-30T12:46:15Z</time>
      </trkpt>
      <trkpt lat="48.66519" lon="4.73759">
        <ele>117.2</ele>
        <time>2020-06-30T12:46:16Z</time>
      </trkpt>
      <trkpt lat="48.66522" lon="4.7375">
        <ele>117.2</ele>
        <time>2020-06-30T12:46:17Z</time>
      </trkpt>
      <trkpt lat="48.66525" lon="4.73739">
        <ele>117.2</ele>
        <time>2020-06-30T12:46:18Z</time>
      </trkpt>
      <trkpt lat="48.66528" lon="4.73727">
        <ele>117.2</ele>
        <time>2020-06-30T12:46:19Z</time>
      </trkpt>
      <trkpt lat="48.66532" lon="4.73717">
        <ele>117.2</ele>
        <time>2020-06-30T12:46:20Z</time>
      </trkpt>
      <trkpt lat="48.66536" lon="4.73709">
        <ele>117.2</ele>
        <time>2020-06-30T12:46:21Z</time>
      </trkpt>
      <trkpt lat="48.6654" lon="4.73701">
        <ele>117.2</ele>
        <time>2020-06-30T12:46:22Z</time>
      </trkpt>
      <trkpt lat="48.66544" lon="4.73693">
        <ele>117.3</ele>
        <time>2020-06-30T12:46:23Z</time>
      </trkpt>
      <trkpt lat="48.66548" lon="4.73685">
        <ele>117.3</ele>
        <time>2020-06-30T12:46:24Z</time>
      </trkpt>
      <trkpt lat="48.66553" lon="4.73674">
        <ele>117.3</ele>
        <time>2020-06-30T12:46:25Z</time>
      </trkpt>
      <trkpt lat="48.66557" lon="4.73662">
        <ele>117.3</ele>
        <time>2020-06-30T12:46:26Z</time>
      </trkpt>
      <trkpt lat="48.66559" lon="4.73654">
        <ele>117.3</ele>
        <time>2020-06-30T12:46:27Z</time>
      </trkpt>
      <trkpt lat="48.66559" lon="4.73644">
        <ele>117.3</ele>
        <time>2020-06-30T12:46:28Z</time>
      </trkpt>
      <trkpt lat="48.6656" lon="4.73633">
        <ele>117.3</ele>
        <time>2020-06-30T12:46:29Z</time>
      </trkpt>
      <trkpt lat="48.66561" lon="4.73623">
        <ele>117.3</ele>
        <time>2020-06-30T12:46:30Z</time>
      </trkpt>
      <trkpt lat="48.66563" lon="4.73613">
        <ele>117.3</ele>
        <time>2020-06-30T12:46:31Z</time>
      </trkpt>
      <trkpt lat="48.66564" lon="4.73603">
        <ele>117.3</ele>
        <time>2020-06-30T12:46:32Z</time>
      </trkpt>
      <trkpt lat="48.66566" lon="4.73593">
        <ele>117.3</ele>
        <time>2020-06-30T12:46:33Z</time>
      </trkpt>
      <trkpt lat="48.66569" lon="4.73584">
        <ele>117.3</ele>
        <time>2020-06-30T12:46:34Z</time>
      </trkpt>
      <trkpt lat="48.66571" lon="4.73576">
        <ele>117.3</ele>
        <time>2020-06-30T12:46:35Z</time>
      </trkpt>
      <trkpt lat="48.66574" lon="4.73567">
        <ele>117.3</ele>
        <time>2020-06-30T12:46:36Z</time>
      </trkpt>
      <trkpt lat="48.66577" lon="4.73559">
        <ele>117.3</ele>
        <time>2020-06-30T12:46:37Z</time>
      </trkpt>
      <trkpt lat="48.6658" lon="4.7355">
        <ele>117.2</ele>
        <time>2020-06-30T12:46:38Z</time>
      </trkpt>
      <trkpt lat="48.66583" lon="4.73541">
        <ele>117.2</ele>
        <time>2020-06-30T12:46:39Z</time>
      </trkpt>
      <trkpt lat="48.66586" lon="4.73532">
        <ele>117.2</ele>
        <time>2020-06-30T12:46:40Z</time>
      </trkpt>
      <trkpt lat="48.66588" lon="4.73523">
        <ele>117.2</ele>
        <time>2020-06-30T12:46:41Z</time>
      </trkpt>
      <trkpt lat="48.6659" lon="4.73514">
        <ele>117.2</ele>
        <time>2020-06-30T12:46:42Z</time>
      </trkpt>
      <trkpt lat="48.66593" lon="4.73506">
        <ele>117.2</ele>
        <time>2020-06-30T12:46:43Z</time>
      </trkpt>
      <trkpt lat="48.66596" lon="4.73497">
        <ele>117.2</ele>
        <time>2020-06-30T12:46:44Z</time>
      </trkpt>
      <trkpt lat="48.66598" lon="4.73487">
        <ele>117.2</ele>
        <time>2020-06-30T12:46:45Z</time>
      </trkpt>
      <trkpt lat="48.66601" lon="4.73478">
        <ele>117.2</ele>
        <time>2020-06-30T12:46:46Z</time>
      </trkpt>
      <trkpt lat="48.66604" lon="4.73469">
        <ele>117.2</ele>
        <time>2020-06-30T12:46:47Z</time>
      </trkpt>
      <trkpt lat="48.66607" lon="4.7346">
        <ele>117.2</ele>
        <time>2020-06-30T12:46:48Z</time>
      </trkpt>
      <trkpt lat="48.6661" lon="4.7345">
        <ele>117.2</ele>
        <time>2020-06-30T12:46:49Z</time>
      </trkpt>
      <trkpt lat="48.66613" lon="4.73439">
        <ele>117.1</ele>
        <time>2020-06-30T12:46:50Z</time>
      </trkpt>
      <trkpt lat="48.66616" lon="4.7343">
        <ele>117.1</ele>
        <time>2020-06-30T12:46:51Z</time>
      </trkpt>
      <trkpt lat="48.66619" lon="4.73421">
        <ele>117.1</ele>
        <time>2020-06-30T12:46:52Z</time>
      </trkpt>
      <trkpt lat="48.66622" lon="4.73411">
        <ele>117</ele>
        <time>2020-06-30T12:46:53Z</time>
      </trkpt>
      <trkpt lat="48.66625" lon="4.73403">
        <ele>117</ele>
        <time>2020-06-30T12:46:54Z</time>
      </trkpt>
      <trkpt lat="48.66628" lon="4.73393">
        <ele>116.9</ele>
        <time>2020-06-30T12:46:55Z</time>
      </trkpt>
      <trkpt lat="48.66631" lon="4.73384">
        <ele>116.9</ele>
        <time>2020-06-30T12:46:56Z</time>
      </trkpt>
      <trkpt lat="48.66634" lon="4.73375">
        <ele>117</ele>
        <time>2020-06-30T12:46:57Z</time>
      </trkpt>
      <trkpt lat="48.66637" lon="4.73366">
        <ele>117</ele>
        <time>2020-06-30T12:46:58Z</time>
      </trkpt>
      <trkpt lat="48.66641" lon="4.73357">
        <ele>117</ele>
        <time>2020-06-30T12:46:59Z</time>
      </trkpt>
      <trkpt lat="48.66644" lon="4.73348">
        <ele>117.1</ele>
        <time>2020-06-30T12:47:00Z</time>
      </trkpt>
      <trkpt lat="48.66647" lon="4.73339">
        <ele>117.1</ele>
        <time>2020-06-30T12:47:01Z</time>
      </trkpt>
      <trkpt lat="48.6665" lon="4.73329">
        <ele>117.2</ele>
        <time>2020-06-30T12:47:02Z</time>
      </trkpt>
      <trkpt lat="48.66652" lon="4.7332">
        <ele>117.2</ele>
        <time>2020-06-30T12:47:03Z</time>
      </trkpt>
      <trkpt lat="48.66655" lon="4.73311">
        <ele>117.2</ele>
        <time>2020-06-30T12:47:04Z</time>
      </trkpt>
      <trkpt lat="48.66657" lon="4.73303">
        <ele>117.2</ele>
        <time>2020-06-30T12:47:05Z</time>
      </trkpt>
      <trkpt lat="48.66659" lon="4.73294">
        <ele>117.2</ele>
        <time>2020-06-30T12:47:06Z</time>
      </trkpt>
      <trkpt lat="48.66662" lon="4.73285">
        <ele>117.2</ele>
        <time>2020-06-30T12:47:07Z</time>
      </trkpt>
      <trkpt lat="48.66664" lon="4.73276">
        <ele>117.2</ele>
        <time>2020-06-30T12:47:08Z</time>
      </trkpt>
      <trkpt lat="48.66667" lon="4.73267">
        <ele>117.2</ele>
        <time>2020-06-30T12:47:09Z</time>
      </trkpt>
      <trkpt lat="48.6667" lon="4.7326">
        <ele>117.2</ele>
        <time>2020-06-30T12:47:10Z</time>
      </trkpt>
      <trkpt lat="48.66673" lon="4.73252">
        <ele>117.3</ele>
        <time>2020-06-30T12:47:11Z</time>
      </trkpt>
      <trkpt lat="48.66675" lon="4.73244">
        <ele>117.3</ele>
        <time>2020-06-30T12:47:12Z</time>
      </trkpt>
      <trkpt lat="48.66676" lon="4.73236">
        <ele>117.4</ele>
        <time>2020-06-30T12:47:13Z</time>
      </trkpt>
      <trkpt lat="48.66678" lon="4.73228">
        <ele>117.5</ele>
        <time>2020-06-30T12:47:14Z</time>
      </trkpt>
      <trkpt lat="48.6668" lon="4.7322">
        <ele>117.6</ele>
        <time>2020-06-30T12:47:15Z</time>
      </trkpt>
      <trkpt lat="48.66682" lon="4.73213">
        <ele>117.7</ele>
        <time>2020-06-30T12:47:16Z</time>
      </trkpt>
      <trkpt lat="48.66684" lon="4.73207">
        <ele>117.8</ele>
        <time>2020-06-30T12:47:17Z</time>
      </trkpt>
      <trkpt lat="48.66687" lon="4.73201">
        <ele>117.9</ele>
        <time>2020-06-30T12:47:18Z</time>
      </trkpt>
      <trkpt lat="48.66689" lon="4.73195">
        <ele>118</ele>
        <time>2020-06-30T12:47:19Z</time>
      </trkpt>
      <trkpt lat="48.66691" lon="4.7319">
        <ele>118.1</ele>
        <time>2020-06-30T12:47:20Z</time>
      </trkpt>
      <trkpt lat="48.66693" lon="4.73185">
        <ele>118.3</ele>
        <time>2020-06-30T12:47:21Z</time>
      </trkpt>
      <trkpt lat="48.66695" lon="4.73181">
        <ele>118.4</ele>
        <time>2020-06-30T12:47:22Z</time>
      </trkpt>
      <trkpt lat="48.66696" lon="4.73178">
        <ele>118.5</ele>
        <time>2020-06-30T12:47:23Z</time>
      </trkpt>
      <trkpt lat="48.66698" lon="4.73173">
        <ele>118.3</ele>
        <time>2020-06-30T12:47:24Z</time>
      </trkpt>
      <trkpt lat="48.66698" lon="4.73171">
        <ele>118.3</ele>
        <time>2020-06-30T12:47:25Z</time>
      </trkpt>
      <trkpt lat="48.667" lon="4.73166">
        <ele>118.2</ele>
        <time>2020-06-30T12:47:26Z</time>
      </trkpt>
      <trkpt lat="48.66701" lon="4.73161">
        <ele>118</ele>
        <time>2020-06-30T12:47:27Z</time>
      </trkpt>
      <trkpt lat="48.66703" lon="4.73154">
        <ele>117.7</ele>
        <time>2020-06-30T12:47:28Z</time>
      </trkpt>
      <trkpt lat="48.66705" lon="4.73148">
        <ele>117.5</ele>
        <time>2020-06-30T12:47:29Z</time>
      </trkpt>
      <trkpt lat="48.66707" lon="4.73141">
        <ele>117.2</ele>
        <time>2020-06-30T12:47:30Z</time>
      </trkpt>
      <trkpt lat="48.6671" lon="4.73133">
        <ele>116.9</ele>
        <time>2020-06-30T12:47:31Z</time>
      </trkpt>
      <trkpt lat="48.66713" lon="4.73125">
        <ele>116.6</ele>
        <time>2020-06-30T12:47:32Z</time>
      </trkpt>
      <trkpt lat="48.66715" lon="4.73117">
        <ele>116.4</ele>
        <time>2020-06-30T12:47:33Z</time>
      </trkpt>
      <trkpt lat="48.66718" lon="4.73109">
        <ele>116.2</ele>
        <time>2020-06-30T12:47:34Z</time>
      </trkpt>
      <trkpt lat="48.66721" lon="4.73101">
        <ele>116.1</ele>
        <time>2020-06-30T12:47:35Z</time>
      </trkpt>
      <trkpt lat="48.66724" lon="4.73094">
        <ele>115.9</ele>
        <time>2020-06-30T12:47:36Z</time>
      </trkpt>
      <trkpt lat="48.66727" lon="4.73086">
        <ele>115.8</ele>
        <time>2020-06-30T12:47:37Z</time>
      </trkpt>
      <trkpt lat="48.66729" lon="4.73078">
        <ele>115.7</ele>
        <time>2020-06-30T12:47:38Z</time>
      </trkpt>
      <trkpt lat="48.66731" lon="4.7307">
        <ele>115.6</ele>
        <time>2020-06-30T12:47:39Z</time>
      </trkpt>
      <trkpt lat="48.66734" lon="4.73063">
        <ele>115.5</ele>
        <time>2020-06-30T12:47:40Z</time>
      </trkpt>
      <trkpt lat="48.66736" lon="4.73055">
        <ele>115.4</ele>
        <time>2020-06-30T12:47:41Z</time>
      </trkpt>
      <trkpt lat="48.66738" lon="4.73047">
        <ele>115.3</ele>
        <time>2020-06-30T12:47:42Z</time>
      </trkpt>
      <trkpt lat="48.66741" lon="4.73039">
        <ele>115.2</ele>
        <time>2020-06-30T12:47:43Z</time>
      </trkpt>
      <trkpt lat="48.66743" lon="4.73031">
        <ele>115</ele>
        <time>2020-06-30T12:47:44Z</time>
      </trkpt>
      <trkpt lat="48.66745" lon="4.73024">
        <ele>114.9</ele>
        <time>2020-06-30T12:47:45Z</time>
      </trkpt>
      <trkpt lat="48.66748" lon="4.73016">
        <ele>114.8</ele>
        <time>2020-06-30T12:47:46Z</time>
      </trkpt>
      <trkpt lat="48.6675" lon="4.73009">
        <ele>114.7</ele>
        <time>2020-06-30T12:47:47Z</time>
      </trkpt>
      <trkpt lat="48.66753" lon="4.73001">
        <ele>114.7</ele>
        <time>2020-06-30T12:47:48Z</time>
      </trkpt>
      <trkpt lat="48.66755" lon="4.72993">
        <ele>114.7</ele>
        <time>2020-06-30T12:47:49Z</time>
      </trkpt>
      <trkpt lat="48.66757" lon="4.72985">
        <ele>114.7</ele>
        <time>2020-06-30T12:47:50Z</time>
      </trkpt>
      <trkpt lat="48.66759" lon="4.72978">
        <ele>114.7</ele>
        <time>2020-06-30T12:47:51Z</time>
      </trkpt>
      <trkpt lat="48.66761" lon="4.7297">
        <ele>114.7</ele>
        <time>2020-06-30T12:47:52Z</time>
      </trkpt>
      <trkpt lat="48.66763" lon="4.72963">
        <ele>114.8</ele>
        <time>2020-06-30T12:47:53Z</time>
      </trkpt>
      <trkpt lat="48.66766" lon="4.72955">
        <ele>114.8</ele>
        <time>2020-06-30T12:47:54Z</time>
      </trkpt>
      <trkpt lat="48.66768" lon="4.72947">
        <ele>114.8</ele>
        <time>2020-06-30T12:47:55Z</time>
      </trkpt>
      <trkpt lat="48.66771" lon="4.72939">
        <ele>114.8</ele>
        <time>2020-06-30T12:47:56Z</time>
      </trkpt>
      <trkpt lat="48.66773" lon="4.72932">
        <ele>114.8</ele>
        <time>2020-06-30T12:47:57Z</time>
      </trkpt>
      <trkpt lat="48.66775" lon="4.72924">
        <ele>114.8</ele>
        <time>2020-06-30T12:47:58Z</time>
      </trkpt>
      <trkpt lat="48.66777" lon="4.72917">
        <ele>114.8</ele>
        <time>2020-06-30T12:47:59Z</time>
      </trkpt>
      <trkpt lat="48.6678" lon="4.7291">
        <ele>114.8</ele>
        <time>2020-06-30T12:48:00Z</time>
      </trkpt>
      <trkpt lat="48.66782" lon="4.72901">
        <ele>114.8</ele>
        <time>2020-06-30T12:48:01Z</time>
      </trkpt>
      <trkpt lat="48.66784" lon="4.72893">
        <ele>114.8</ele>
        <time>2020-06-30T12:48:02Z</time>
      </trkpt>
      <trkpt lat="48.66787" lon="4.72885">
        <ele>114.8</ele>
        <time>2020-06-30T12:48:03Z</time>
      </trkpt>
      <trkpt lat="48.6679" lon="4.72877">
        <ele>114.8</ele>
        <time>2020-06-30T12:48:04Z</time>
      </trkpt>
      <trkpt lat="48.66793" lon="4.7287">
        <ele>114.8</ele>
        <time>2020-06-30T12:48:05Z</time>
      </trkpt>
      <trkpt lat="48.66795" lon="4.72863">
        <ele>114.8</ele>
        <time>2020-06-30T12:48:06Z</time>
      </trkpt>
      <trkpt lat="48.66798" lon="4.72855">
        <ele>114.8</ele>
        <time>2020-06-30T12:48:07Z</time>
      </trkpt>
      <trkpt lat="48.668" lon="4.72847">
        <ele>114.8</ele>
        <time>2020-06-30T12:48:08Z</time>
      </trkpt>
      <trkpt lat="48.66803" lon="4.72839">
        <ele>114.8</ele>
        <time>2020-06-30T12:48:09Z</time>
      </trkpt>
      <trkpt lat="48.66806" lon="4.72831">
        <ele>114.8</ele>
        <time>2020-06-30T12:48:10Z</time>
      </trkpt>
      <trkpt lat="48.66809" lon="4.72823">
        <ele>114.8</ele>
        <time>2020-06-30T12:48:11Z</time>
      </trkpt>
      <trkpt lat="48.66811" lon="4.72815">
        <ele>114.8</ele>
        <time>2020-06-30T12:48:12Z</time>
      </trkpt>
      <trkpt lat="48.66813" lon="4.72806">
        <ele>114.8</ele>
        <time>2020-06-30T12:48:13Z</time>
      </trkpt>
      <trkpt lat="48.66815" lon="4.72797">
        <ele>114.8</ele>
        <time>2020-06-30T12:48:14Z</time>
      </trkpt>
      <trkpt lat="48.66818" lon="4.7279">
        <ele>114.8</ele>
        <time>2020-06-30T12:48:15Z</time>
      </trkpt>
      <trkpt lat="48.66821" lon="4.72783">
        <ele>114.8</ele>
        <time>2020-06-30T12:48:16Z</time>
      </trkpt>
      <trkpt lat="48.66824" lon="4.72776">
        <ele>114.8</ele>
        <time>2020-06-30T12:48:17Z</time>
      </trkpt>
      <trkpt lat="48.66827" lon="4.72767">
        <ele>114.8</ele>
        <time>2020-06-30T12:48:18Z</time>
      </trkpt>
      <trkpt lat="48.66829" lon="4.72758">
        <ele>114.7</ele>
        <time>2020-06-30T12:48:19Z</time>
      </trkpt>
      <trkpt lat="48.66832" lon="4.7275">
        <ele>114.7</ele>
        <time>2020-06-30T12:48:20Z</time>
      </trkpt>
      <trkpt lat="48.66834" lon="4.72741">
        <ele>114.7</ele>
        <time>2020-06-30T12:48:21Z</time>
      </trkpt>
      <trkpt lat="48.66837" lon="4.72732">
        <ele>114.7</ele>
        <time>2020-06-30T12:48:22Z</time>
      </trkpt>
      <trkpt lat="48.66839" lon="4.72724">
        <ele>114.7</ele>
        <time>2020-06-30T12:48:23Z</time>
      </trkpt>
      <trkpt lat="48.66842" lon="4.72715">
        <ele>114.7</ele>
        <time>2020-06-30T12:48:24Z</time>
      </trkpt>
      <trkpt lat="48.66846" lon="4.72707">
        <ele>114.7</ele>
        <time>2020-06-30T12:48:25Z</time>
      </trkpt>
      <trkpt lat="48.66849" lon="4.72699">
        <ele>114.8</ele>
        <time>2020-06-30T12:48:26Z</time>
      </trkpt>
      <trkpt lat="48.66851" lon="4.7269">
        <ele>114.8</ele>
        <time>2020-06-30T12:48:27Z</time>
      </trkpt>
      <trkpt lat="48.66853" lon="4.72682">
        <ele>114.9</ele>
        <time>2020-06-30T12:48:28Z</time>
      </trkpt>
      <trkpt lat="48.66856" lon="4.72674">
        <ele>114.9</ele>
        <time>2020-06-30T12:48:29Z</time>
      </trkpt>
      <trkpt lat="48.66858" lon="4.72665">
        <ele>115</ele>
        <time>2020-06-30T12:48:30Z</time>
      </trkpt>
      <trkpt lat="48.6686" lon="4.72655">
        <ele>115</ele>
        <time>2020-06-30T12:48:31Z</time>
      </trkpt>
      <trkpt lat="48.66862" lon="4.72646">
        <ele>115</ele>
        <time>2020-06-30T12:48:32Z</time>
      </trkpt>
      <trkpt lat="48.66864" lon="4.72637">
        <ele>115</ele>
        <time>2020-06-30T12:48:33Z</time>
      </trkpt>
      <trkpt lat="48.66867" lon="4.72628">
        <ele>115</ele>
        <time>2020-06-30T12:48:34Z</time>
      </trkpt>
      <trkpt lat="48.6687" lon="4.7262">
        <ele>115</ele>
        <time>2020-06-30T12:48:35Z</time>
      </trkpt>
      <trkpt lat="48.66874" lon="4.72612">
        <ele>115</ele>
        <time>2020-06-30T12:48:36Z</time>
      </trkpt>
      <trkpt lat="48.66877" lon="4.72604">
        <ele>115.1</ele>
        <time>2020-06-30T12:48:37Z</time>
      </trkpt>
      <trkpt lat="48.6688" lon="4.72595">
        <ele>115.1</ele>
        <time>2020-06-30T12:48:38Z</time>
      </trkpt>
      <trkpt lat="48.66882" lon="4.72586">
        <ele>115.1</ele>
        <time>2020-06-30T12:48:39Z</time>
      </trkpt>
      <trkpt lat="48.66882" lon="4.72576">
        <ele>115.1</ele>
        <time>2020-06-30T12:48:40Z</time>
      </trkpt>
      <trkpt lat="48.66884" lon="4.72567">
        <ele>115.1</ele>
        <time>2020-06-30T12:48:41Z</time>
      </trkpt>
      <trkpt lat="48.66887" lon="4.7256">
        <ele>115.1</ele>
        <time>2020-06-30T12:48:42Z</time>
      </trkpt>
      <trkpt lat="48.6689" lon="4.72552">
        <ele>115.1</ele>
        <time>2020-06-30T12:48:43Z</time>
      </trkpt>
      <trkpt lat="48.66891" lon="4.72544">
        <ele>115.2</ele>
        <time>2020-06-30T12:48:44Z</time>
      </trkpt>
      <trkpt lat="48.66893" lon="4.72535">
        <ele>115.2</ele>
        <time>2020-06-30T12:48:45Z</time>
      </trkpt>
      <trkpt lat="48.66895" lon="4.72528">
        <ele>115.2</ele>
        <time>2020-06-30T12:48:46Z</time>
      </trkpt>
      <trkpt lat="48.66897" lon="4.72521">
        <ele>115.2</ele>
        <time>2020-06-30T12:48:47Z</time>
      </trkpt>
      <trkpt lat="48.669" lon="4.72514">
        <ele>115.3</ele>
        <time>2020-06-30T12:48:48Z</time>
      </trkpt>
      <trkpt lat="48.66902" lon="4.72507">
        <ele>115.4</ele>
        <time>2020-06-30T12:48:49Z</time>
      </trkpt>
      <trkpt lat="48.66904" lon="4.72499">
        <ele>115.5</ele>
        <time>2020-06-30T12:48:50Z</time>
      </trkpt>
      <trkpt lat="48.66906" lon="4.72492">
        <ele>115.5</ele>
        <time>2020-06-30T12:48:51Z</time>
      </trkpt>
      <trkpt lat="48.66908" lon="4.72485">
        <ele>115.4</ele>
        <time>2020-06-30T12:48:52Z</time>
      </trkpt>
      <trkpt lat="48.66909" lon="4.72478">
        <ele>115.4</ele>
        <time>2020-06-30T12:48:53Z</time>
      </trkpt>
      <trkpt lat="48.66911" lon="4.72472">
        <ele>115.4</ele>
        <time>2020-06-30T12:48:54Z</time>
      </trkpt>
      <trkpt lat="48.66913" lon="4.72466">
        <ele>115.3</ele>
        <time>2020-06-30T12:48:55Z</time>
      </trkpt>
      <trkpt lat="48.66915" lon="4.7246">
        <ele>115.3</ele>
        <time>2020-06-30T12:48:56Z</time>
      </trkpt>
      <trkpt lat="48.66917" lon="4.72455">
        <ele>115.3</ele>
        <time>2020-06-30T12:48:57Z</time>
      </trkpt>
      <trkpt lat="48.66918" lon="4.72447">
        <ele>115.3</ele>
        <time>2020-06-30T12:48:58Z</time>
      </trkpt>
      <trkpt lat="48.66919" lon="4.72439">
        <ele>115.3</ele>
        <time>2020-06-30T12:48:59Z</time>
      </trkpt>
      <trkpt lat="48.66921" lon="4.72431">
        <ele>115.2</ele>
        <time>2020-06-30T12:49:00Z</time>
      </trkpt>
      <trkpt lat="48.66922" lon="4.72425">
        <ele>115.2</ele>
        <time>2020-06-30T12:49:01Z</time>
      </trkpt>
      <trkpt lat="48.66923" lon="4.72418">
        <ele>115.2</ele>
        <time>2020-06-30T12:49:02Z</time>
      </trkpt>
      <trkpt lat="48.66925" lon="4.72411">
        <ele>115.1</ele>
        <time>2020-06-30T12:49:03Z</time>
      </trkpt>
      <trkpt lat="48.66925" lon="4.72403">
        <ele>115.1</ele>
        <time>2020-06-30T12:49:04Z</time>
      </trkpt>
      <trkpt lat="48.66927" lon="4.72396">
        <ele>115.1</ele>
        <time>2020-06-30T12:49:05Z</time>
      </trkpt>
      <trkpt lat="48.66929" lon="4.72387">
        <ele>115.1</ele>
        <time>2020-06-30T12:49:06Z</time>
      </trkpt>
      <trkpt lat="48.66931" lon="4.72379">
        <ele>115.1</ele>
        <time>2020-06-30T12:49:07Z</time>
      </trkpt>
      <trkpt lat="48.66933" lon="4.72371">
        <ele>115.1</ele>
        <time>2020-06-30T12:49:08Z</time>
      </trkpt>
      <trkpt lat="48.66934" lon="4.72362">
        <ele>115.1</ele>
        <time>2020-06-30T12:49:09Z</time>
      </trkpt>
      <trkpt lat="48.66939" lon="4.72354">
        <ele>115.1</ele>
        <time>2020-06-30T12:49:10Z</time>
      </trkpt>
      <trkpt lat="48.66944" lon="4.72344">
        <ele>115.1</ele>
        <time>2020-06-30T12:49:11Z</time>
      </trkpt>
      <trkpt lat="48.66951" lon="4.72332">
        <ele>115.1</ele>
        <time>2020-06-30T12:49:12Z</time>
      </trkpt>
      <trkpt lat="48.66958" lon="4.72321">
        <ele>115.2</ele>
        <time>2020-06-30T12:49:13Z</time>
      </trkpt>
      <trkpt lat="48.66962" lon="4.7231">
        <ele>115.2</ele>
        <time>2020-06-30T12:49:14Z</time>
      </trkpt>
      <trkpt lat="48.66966" lon="4.72299">
        <ele>115.2</ele>
        <time>2020-06-30T12:49:15Z</time>
      </trkpt>
      <trkpt lat="48.66971" lon="4.72291">
        <ele>115.2</ele>
        <time>2020-06-30T12:49:16Z</time>
      </trkpt>
      <trkpt lat="48.66974" lon="4.72282">
        <ele>115.1</ele>
        <time>2020-06-30T12:49:17Z</time>
      </trkpt>
      <trkpt lat="48.66977" lon="4.72272">
        <ele>115.1</ele>
        <time>2020-06-30T12:49:18Z</time>
      </trkpt>
      <trkpt lat="48.6698" lon="4.72262">
        <ele>115</ele>
        <time>2020-06-30T12:49:19Z</time>
      </trkpt>
      <trkpt lat="48.66984" lon="4.72252">
        <ele>114.9</ele>
        <time>2020-06-30T12:49:20Z</time>
      </trkpt>
      <trkpt lat="48.66987" lon="4.72244">
        <ele>114.9</ele>
        <time>2020-06-30T12:49:21Z</time>
      </trkpt>
      <trkpt lat="48.6699" lon="4.72235">
        <ele>114.9</ele>
        <time>2020-06-30T12:49:22Z</time>
      </trkpt>
      <trkpt lat="48.66993" lon="4.72226">
        <ele>114.9</ele>
        <time>2020-06-30T12:49:23Z</time>
      </trkpt>
      <trkpt lat="48.66997" lon="4.72217">
        <ele>114.9</ele>
        <time>2020-06-30T12:49:24Z</time>
      </trkpt>
      <trkpt lat="48.67" lon="4.72208">
        <ele>114.9</ele>
        <time>2020-06-30T12:49:25Z</time>
      </trkpt>
      <trkpt lat="48.67003" lon="4.72198">
        <ele>114.9</ele>
        <time>2020-06-30T12:49:26Z</time>
      </trkpt>
      <trkpt lat="48.67007" lon="4.72189">
        <ele>114.9</ele>
        <time>2020-06-30T12:49:27Z</time>
      </trkpt>
      <trkpt lat="48.6701" lon="4.72179">
        <ele>115</ele>
        <time>2020-06-30T12:49:28Z</time>
      </trkpt>
      <trkpt lat="48.67013" lon="4.7217">
        <ele>115</ele>
        <time>2020-06-30T12:49:29Z</time>
      </trkpt>
      <trkpt lat="48.67015" lon="4.7216">
        <ele>115</ele>
        <time>2020-06-30T12:49:30Z</time>
      </trkpt>
      <trkpt lat="48.67018" lon="4.72152">
        <ele>115</ele>
        <time>2020-06-30T12:49:31Z</time>
      </trkpt>
      <trkpt lat="48.67021" lon="4.72144">
        <ele>115</ele>
        <time>2020-06-30T12:49:32Z</time>
      </trkpt>
      <trkpt lat="48.67024" lon="4.72134">
        <ele>115</ele>
        <time>2020-06-30T12:49:33Z</time>
      </trkpt>
      <trkpt lat="48.67027" lon="4.72126">
        <ele>115</ele>
        <time>2020-06-30T12:49:34Z</time>
      </trkpt>
      <trkpt lat="48.6703" lon="4.72116">
        <ele>115</ele>
        <time>2020-06-30T12:49:35Z</time>
      </trkpt>
      <trkpt lat="48.67033" lon="4.72107">
        <ele>115</ele>
        <time>2020-06-30T12:49:36Z</time>
      </trkpt>
      <trkpt lat="48.67037" lon="4.72099">
        <ele>115</ele>
        <time>2020-06-30T12:49:37Z</time>
      </trkpt>
      <trkpt lat="48.6704" lon="4.7209">
        <ele>115</ele>
        <time>2020-06-30T12:49:38Z</time>
      </trkpt>
      <trkpt lat="48.67043" lon="4.72081">
        <ele>115</ele>
        <time>2020-06-30T12:49:39Z</time>
      </trkpt>
      <trkpt lat="48.67046" lon="4.7207">
        <ele>114.9</ele>
        <time>2020-06-30T12:49:40Z</time>
      </trkpt>
      <trkpt lat="48.6705" lon="4.7206">
        <ele>114.9</ele>
        <time>2020-06-30T12:49:41Z</time>
      </trkpt>
      <trkpt lat="48.67053" lon="4.7205">
        <ele>114.8</ele>
        <time>2020-06-30T12:49:42Z</time>
      </trkpt>
      <trkpt lat="48.67057" lon="4.72039">
        <ele>114.7</ele>
        <time>2020-06-30T12:49:43Z</time>
      </trkpt>
      <trkpt lat="48.67061" lon="4.72028">
        <ele>114.7</ele>
        <time>2020-06-30T12:49:44Z</time>
      </trkpt>
      <trkpt lat="48.67064" lon="4.72017">
        <ele>114.6</ele>
        <time>2020-06-30T12:49:45Z</time>
      </trkpt>
      <trkpt lat="48.67067" lon="4.72004">
        <ele>114.5</ele>
        <time>2020-06-30T12:49:46Z</time>
      </trkpt>
      <trkpt lat="48.67071" lon="4.71991">
        <ele>114.5</ele>
        <time>2020-06-30T12:49:47Z</time>
      </trkpt>
      <trkpt lat="48.67075" lon="4.71979">
        <ele>114.4</ele>
        <time>2020-06-30T12:49:48Z</time>
      </trkpt>
      <trkpt lat="48.67079" lon="4.71968">
        <ele>114.4</ele>
        <time>2020-06-30T12:49:49Z</time>
      </trkpt>
      <trkpt lat="48.67083" lon="4.71958">
        <ele>114.4</ele>
        <time>2020-06-30T12:49:50Z</time>
      </trkpt>
      <trkpt lat="48.67086" lon="4.71948">
        <ele>114.3</ele>
        <time>2020-06-30T12:49:51Z</time>
      </trkpt>
      <trkpt lat="48.67089" lon="4.71937">
        <ele>114.3</ele>
        <time>2020-06-30T12:49:52Z</time>
      </trkpt>
      <trkpt lat="48.67092" lon="4.71927">
        <ele>114.3</ele>
        <time>2020-06-30T12:49:53Z</time>
      </trkpt>
      <trkpt lat="48.67095" lon="4.71916">
        <ele>114.3</ele>
        <time>2020-06-30T12:49:54Z</time>
      </trkpt>
      <trkpt lat="48.67098" lon="4.71905">
        <ele>114.3</ele>
        <time>2020-06-30T12:49:55Z</time>
      </trkpt>
      <trkpt lat="48.67102" lon="4.71893">
        <ele>114.2</ele>
        <time>2020-06-30T12:49:56Z</time>
      </trkpt>
      <trkpt lat="48.67105" lon="4.71883">
        <ele>114.2</ele>
        <time>2020-06-30T12:49:57Z</time>
      </trkpt>
      <trkpt lat="48.67109" lon="4.71873">
        <ele>114.2</ele>
        <time>2020-06-30T12:49:58Z</time>
      </trkpt>
      <trkpt lat="48.67112" lon="4.7186">
        <ele>114.2</ele>
        <time>2020-06-30T12:49:59Z</time>
      </trkpt>
      <trkpt lat="48.67115" lon="4.71849">
        <ele>114.2</ele>
        <time>2020-06-30T12:50:00Z</time>
      </trkpt>
      <trkpt lat="48.67118" lon="4.71838">
        <ele>114.3</ele>
        <time>2020-06-30T12:50:01Z</time>
      </trkpt>
      <trkpt lat="48.67121" lon="4.71827">
        <ele>114.3</ele>
        <time>2020-06-30T12:50:02Z</time>
      </trkpt>
      <trkpt lat="48.67124" lon="4.71816">
        <ele>114.3</ele>
        <time>2020-06-30T12:50:03Z</time>
      </trkpt>
      <trkpt lat="48.67128" lon="4.71806">
        <ele>114.3</ele>
        <time>2020-06-30T12:50:04Z</time>
      </trkpt>
      <trkpt lat="48.67132" lon="4.71795">
        <ele>114.4</ele>
        <time>2020-06-30T12:50:05Z</time>
      </trkpt>
      <trkpt lat="48.67135" lon="4.71783">
        <ele>114.7</ele>
        <time>2020-06-30T12:50:06Z</time>
      </trkpt>
      <trkpt lat="48.67138" lon="4.71772">
        <ele>114.7</ele>
        <time>2020-06-30T12:50:07Z</time>
      </trkpt>
      <trkpt lat="48.67142" lon="4.71761">
        <ele>114.7</ele>
        <time>2020-06-30T12:50:08Z</time>
      </trkpt>
      <trkpt lat="48.67146" lon="4.7175">
        <ele>114.7</ele>
        <time>2020-06-30T12:50:09Z</time>
      </trkpt>
      <trkpt lat="48.67149" lon="4.71739">
        <ele>114.7</ele>
        <time>2020-06-30T12:50:10Z</time>
      </trkpt>
      <trkpt lat="48.67153" lon="4.7173">
        <ele>114.7</ele>
        <time>2020-06-30T12:50:11Z</time>
      </trkpt>
      <trkpt lat="48.67156" lon="4.71721">
        <ele>114.7</ele>
        <time>2020-06-30T12:50:12Z</time>
      </trkpt>
      <trkpt lat="48.6716" lon="4.71711">
        <ele>114.7</ele>
        <time>2020-06-30T12:50:13Z</time>
      </trkpt>
      <trkpt lat="48.67164" lon="4.71701">
        <ele>114.7</ele>
        <time>2020-06-30T12:50:14Z</time>
      </trkpt>
      <trkpt lat="48.67167" lon="4.7169">
        <ele>114.7</ele>
        <time>2020-06-30T12:50:15Z</time>
      </trkpt>
      <trkpt lat="48.67171" lon="4.7168">
        <ele>114.7</ele>
        <time>2020-06-30T12:50:16Z</time>
      </trkpt>
      <trkpt lat="48.67174" lon="4.71671">
        <ele>114.7</ele>
        <time>2020-06-30T12:50:17Z</time>
      </trkpt>
      <trkpt lat="48.67178" lon="4.71661">
        <ele>114.7</ele>
        <time>2020-06-30T12:50:18Z</time>
      </trkpt>
      <trkpt lat="48.67182" lon="4.71652">
        <ele>114.7</ele>
        <time>2020-06-30T12:50:19Z</time>
      </trkpt>
      <trkpt lat="48.67186" lon="4.71643">
        <ele>114.7</ele>
        <time>2020-06-30T12:50:20Z</time>
      </trkpt>
      <trkpt lat="48.6719" lon="4.71633">
        <ele>114.6</ele>
        <time>2020-06-30T12:50:21Z</time>
      </trkpt>
      <trkpt lat="48.67194" lon="4.71622">
        <ele>114.6</ele>
        <time>2020-06-30T12:50:22Z</time>
      </trkpt>
      <trkpt lat="48.67197" lon="4.71612">
        <ele>114.6</ele>
        <time>2020-06-30T12:50:23Z</time>
      </trkpt>
      <trkpt lat="48.672" lon="4.71603">
        <ele>114.6</ele>
        <time>2020-06-30T12:50:24Z</time>
      </trkpt>
      <trkpt lat="48.67204" lon="4.71593">
        <ele>114.6</ele>
        <time>2020-06-30T12:50:25Z</time>
      </trkpt>
      <trkpt lat="48.67208" lon="4.71584">
        <ele>114.6</ele>
        <time>2020-06-30T12:50:26Z</time>
      </trkpt>
      <trkpt lat="48.67212" lon="4.71574">
        <ele>114.6</ele>
        <time>2020-06-30T12:50:27Z</time>
      </trkpt>
      <trkpt lat="48.67216" lon="4.71565">
        <ele>114.6</ele>
        <time>2020-06-30T12:50:28Z</time>
      </trkpt>
      <trkpt lat="48.6722" lon="4.71556">
        <ele>114.6</ele>
        <time>2020-06-30T12:50:29Z</time>
      </trkpt>
      <trkpt lat="48.67224" lon="4.71546">
        <ele>114.6</ele>
        <time>2020-06-30T12:50:30Z</time>
      </trkpt>
      <trkpt lat="48.67228" lon="4.71538">
        <ele>114.6</ele>
        <time>2020-06-30T12:50:31Z</time>
      </trkpt>
      <trkpt lat="48.67232" lon="4.71528">
        <ele>114.6</ele>
        <time>2020-06-30T12:50:32Z</time>
      </trkpt>
      <trkpt lat="48.67236" lon="4.71518">
        <ele>114.6</ele>
        <time>2020-06-30T12:50:33Z</time>
      </trkpt>
      <trkpt lat="48.6724" lon="4.71509">
        <ele>114.6</ele>
        <time>2020-06-30T12:50:34Z</time>
      </trkpt>
      <trkpt lat="48.67244" lon="4.71501">
        <ele>114.6</ele>
        <time>2020-06-30T12:50:35Z</time>
      </trkpt>
      <trkpt lat="48.67247" lon="4.71493">
        <ele>114.6</ele>
        <time>2020-06-30T12:50:36Z</time>
      </trkpt>
      <trkpt lat="48.6725" lon="4.71485">
        <ele>114.6</ele>
        <time>2020-06-30T12:50:37Z</time>
      </trkpt>
      <trkpt lat="48.67253" lon="4.71477">
        <ele>114.6</ele>
        <time>2020-06-30T12:50:38Z</time>
      </trkpt>
      <trkpt lat="48.67256" lon="4.71468">
        <ele>114.6</ele>
        <time>2020-06-30T12:50:39Z</time>
      </trkpt>
      <trkpt lat="48.67258" lon="4.71458">
        <ele>114.5</ele>
        <time>2020-06-30T12:50:40Z</time>
      </trkpt>
      <trkpt lat="48.67263" lon="4.71449">
        <ele>114.5</ele>
        <time>2020-06-30T12:50:41Z</time>
      </trkpt>
      <trkpt lat="48.67268" lon="4.7144">
        <ele>114.5</ele>
        <time>2020-06-30T12:50:42Z</time>
      </trkpt>
      <trkpt lat="48.67272" lon="4.7143">
        <ele>114.5</ele>
        <time>2020-06-30T12:50:43Z</time>
      </trkpt>
      <trkpt lat="48.67277" lon="4.7142">
        <ele>114.5</ele>
        <time>2020-06-30T12:50:44Z</time>
      </trkpt>
      <trkpt lat="48.67281" lon="4.71411">
        <ele>114.5</ele>
        <time>2020-06-30T12:50:45Z</time>
      </trkpt>
      <trkpt lat="48.67285" lon="4.71401">
        <ele>114.4</ele>
        <time>2020-06-30T12:50:46Z</time>
      </trkpt>
      <trkpt lat="48.6729" lon="4.71392">
        <ele>114.4</ele>
        <time>2020-06-30T12:50:47Z</time>
      </trkpt>
      <trkpt lat="48.67293" lon="4.71383">
        <ele>114.4</ele>
        <time>2020-06-30T12:50:48Z</time>
      </trkpt>
      <trkpt lat="48.67297" lon="4.71374">
        <ele>114.4</ele>
        <time>2020-06-30T12:50:49Z</time>
      </trkpt>
      <trkpt lat="48.67301" lon="4.71364">
        <ele>114.4</ele>
        <time>2020-06-30T12:50:50Z</time>
      </trkpt>
      <trkpt lat="48.67305" lon="4.71354">
        <ele>114.5</ele>
        <time>2020-06-30T12:50:51Z</time>
      </trkpt>
      <trkpt lat="48.67309" lon="4.71345">
        <ele>114.5</ele>
        <time>2020-06-30T12:50:52Z</time>
      </trkpt>
      <trkpt lat="48.67313" lon="4.71334">
        <ele>114.5</ele>
        <time>2020-06-30T12:50:53Z</time>
      </trkpt>
      <trkpt lat="48.67316" lon="4.71325">
        <ele>114.5</ele>
        <time>2020-06-30T12:50:54Z</time>
      </trkpt>
      <trkpt lat="48.6732" lon="4.71316">
        <ele>114.5</ele>
        <time>2020-06-30T12:50:55Z</time>
      </trkpt>
      <trkpt lat="48.67324" lon="4.71308">
        <ele>114.5</ele>
        <time>2020-06-30T12:50:56Z</time>
      </trkpt>
      <trkpt lat="48.67328" lon="4.71299">
        <ele>114.5</ele>
        <time>2020-06-30T12:50:57Z</time>
      </trkpt>
      <trkpt lat="48.67331" lon="4.7129">
        <ele>114.5</ele>
        <time>2020-06-30T12:50:58Z</time>
      </trkpt>
      <trkpt lat="48.67336" lon="4.71281">
        <ele>114.5</ele>
        <time>2020-06-30T12:50:59Z</time>
      </trkpt>
      <trkpt lat="48.6734" lon="4.71272">
        <ele>114.5</ele>
        <time>2020-06-30T12:51:00Z</time>
      </trkpt>
      <trkpt lat="48.67344" lon="4.71262">
        <ele>114.5</ele>
        <time>2020-06-30T12:51:01Z</time>
      </trkpt>
      <trkpt lat="48.67348" lon="4.71251">
        <ele>114.6</ele>
        <time>2020-06-30T12:51:02Z</time>
      </trkpt>
      <trkpt lat="48.67352" lon="4.7124">
        <ele>114.6</ele>
        <time>2020-06-30T12:51:03Z</time>
      </trkpt>
      <trkpt lat="48.67355" lon="4.71227">
        <ele>114.6</ele>
        <time>2020-06-30T12:51:04Z</time>
      </trkpt>
      <trkpt lat="48.67359" lon="4.71214">
        <ele>114.6</ele>
        <time>2020-06-30T12:51:05Z</time>
      </trkpt>
      <trkpt lat="48.67363" lon="4.71201">
        <ele>114.6</ele>
        <time>2020-06-30T12:51:06Z</time>
      </trkpt>
      <trkpt lat="48.67366" lon="4.71188">
        <ele>114.6</ele>
        <time>2020-06-30T12:51:07Z</time>
      </trkpt>
      <trkpt lat="48.67369" lon="4.71177">
        <ele>114.5</ele>
        <time>2020-06-30T12:51:08Z</time>
      </trkpt>
      <trkpt lat="48.67373" lon="4.71164">
        <ele>114.5</ele>
        <time>2020-06-30T12:51:09Z</time>
      </trkpt>
      <trkpt lat="48.67377" lon="4.71151">
        <ele>114.5</ele>
        <time>2020-06-30T12:51:10Z</time>
      </trkpt>
      <trkpt lat="48.67381" lon="4.71137">
        <ele>114.5</ele>
        <time>2020-06-30T12:51:11Z</time>
      </trkpt>
      <trkpt lat="48.67385" lon="4.71123">
        <ele>114.5</ele>
        <time>2020-06-30T12:51:12Z</time>
      </trkpt>
      <trkpt lat="48.67388" lon="4.71114">
        <ele>114.5</ele>
        <time>2020-06-30T12:51:13Z</time>
      </trkpt>
      <trkpt lat="48.67392" lon="4.71103">
        <ele>114.5</ele>
        <time>2020-06-30T12:51:14Z</time>
      </trkpt>
      <trkpt lat="48.67395" lon="4.71092">
        <ele>114.5</ele>
        <time>2020-06-30T12:51:15Z</time>
      </trkpt>
      <trkpt lat="48.67398" lon="4.71078">
        <ele>114.6</ele>
        <time>2020-06-30T12:51:16Z</time>
      </trkpt>
      <trkpt lat="48.67401" lon="4.71065">
        <ele>114.5</ele>
        <time>2020-06-30T12:51:17Z</time>
      </trkpt>
      <trkpt lat="48.67405" lon="4.71052">
        <ele>114.5</ele>
        <time>2020-06-30T12:51:18Z</time>
      </trkpt>
      <trkpt lat="48.67408" lon="4.7104">
        <ele>114.5</ele>
        <time>2020-06-30T12:51:19Z</time>
      </trkpt>
      <trkpt lat="48.6741" lon="4.7103">
        <ele>114.5</ele>
        <time>2020-06-30T12:51:20Z</time>
      </trkpt>
      <trkpt lat="48.67413" lon="4.71018">
        <ele>114.5</ele>
        <time>2020-06-30T12:51:21Z</time>
      </trkpt>
      <trkpt lat="48.67416" lon="4.71006">
        <ele>114.5</ele>
        <time>2020-06-30T12:51:22Z</time>
      </trkpt>
      <trkpt lat="48.67419" lon="4.70994">
        <ele>114.4</ele>
        <time>2020-06-30T12:51:23Z</time>
      </trkpt>
      <trkpt lat="48.67421" lon="4.70979">
        <ele>114.4</ele>
        <time>2020-06-30T12:51:24Z</time>
      </trkpt>
      <trkpt lat="48.67424" lon="4.70967">
        <ele>114.3</ele>
        <time>2020-06-30T12:51:25Z</time>
      </trkpt>
      <trkpt lat="48.67427" lon="4.70954">
        <ele>114.4</ele>
        <time>2020-06-30T12:51:26Z</time>
      </trkpt>
      <trkpt lat="48.6743" lon="4.70941">
        <ele>114.4</ele>
        <time>2020-06-30T12:51:27Z</time>
      </trkpt>
      <trkpt lat="48.67433" lon="4.70929">
        <ele>114.4</ele>
        <time>2020-06-30T12:51:28Z</time>
      </trkpt>
      <trkpt lat="48.67435" lon="4.70918">
        <ele>114.4</ele>
        <time>2020-06-30T12:51:29Z</time>
      </trkpt>
      <trkpt lat="48.67438" lon="4.70905">
        <ele>114.4</ele>
        <time>2020-06-30T12:51:30Z</time>
      </trkpt>
      <trkpt lat="48.67441" lon="4.70892">
        <ele>114.3</ele>
        <time>2020-06-30T12:51:31Z</time>
      </trkpt>
      <trkpt lat="48.67444" lon="4.70879">
        <ele>114.4</ele>
        <time>2020-06-30T12:51:32Z</time>
      </trkpt>
      <trkpt lat="48.67447" lon="4.70867">
        <ele>114.4</ele>
        <time>2020-06-30T12:51:33Z</time>
      </trkpt>
      <trkpt lat="48.67451" lon="4.70854">
        <ele>114.4</ele>
        <time>2020-06-30T12:51:34Z</time>
      </trkpt>
      <trkpt lat="48.67454" lon="4.70842">
        <ele>114.4</ele>
        <time>2020-06-30T12:51:35Z</time>
      </trkpt>
      <trkpt lat="48.67458" lon="4.70831">
        <ele>114.3</ele>
        <time>2020-06-30T12:51:36Z</time>
      </trkpt>
      <trkpt lat="48.67462" lon="4.70817">
        <ele>114.2</ele>
        <time>2020-06-30T12:51:37Z</time>
      </trkpt>
      <trkpt lat="48.67465" lon="4.70806">
        <ele>114.3</ele>
        <time>2020-06-30T12:51:38Z</time>
      </trkpt>
      <trkpt lat="48.67468" lon="4.70793">
        <ele>114.3</ele>
        <time>2020-06-30T12:51:39Z</time>
      </trkpt>
      <trkpt lat="48.67471" lon="4.70777">
        <ele>114.4</ele>
        <time>2020-06-30T12:51:40Z</time>
      </trkpt>
      <trkpt lat="48.67474" lon="4.70764">
        <ele>114.5</ele>
        <time>2020-06-30T12:51:41Z</time>
      </trkpt>
      <trkpt lat="48.67477" lon="4.7075">
        <ele>114.5</ele>
        <time>2020-06-30T12:51:42Z</time>
      </trkpt>
      <trkpt lat="48.6748" lon="4.70738">
        <ele>114.6</ele>
        <time>2020-06-30T12:51:43Z</time>
      </trkpt>
      <trkpt lat="48.67483" lon="4.70726">
        <ele>114.6</ele>
        <time>2020-06-30T12:51:44Z</time>
      </trkpt>
      <trkpt lat="48.67486" lon="4.70713">
        <ele>114.6</ele>
        <time>2020-06-30T12:51:45Z</time>
      </trkpt>
      <trkpt lat="48.67489" lon="4.70698">
        <ele>114.5</ele>
        <time>2020-06-30T12:51:46Z</time>
      </trkpt>
      <trkpt lat="48.67491" lon="4.70682">
        <ele>114.5</ele>
        <time>2020-06-30T12:51:47Z</time>
      </trkpt>
      <trkpt lat="48.67493" lon="4.70665">
        <ele>114.5</ele>
        <time>2020-06-30T12:51:48Z</time>
      </trkpt>
      <trkpt lat="48.67495" lon="4.70654">
        <ele>114.5</ele>
        <time>2020-06-30T12:51:49Z</time>
      </trkpt>
      <trkpt lat="48.67498" lon="4.70643">
        <ele>114.4</ele>
        <time>2020-06-30T12:51:50Z</time>
      </trkpt>
      <trkpt lat="48.67501" lon="4.70631">
        <ele>114.4</ele>
        <time>2020-06-30T12:51:51Z</time>
      </trkpt>
      <trkpt lat="48.67503" lon="4.70619">
        <ele>114.3</ele>
        <time>2020-06-30T12:51:52Z</time>
      </trkpt>
      <trkpt lat="48.67506" lon="4.70608">
        <ele>114.3</ele>
        <time>2020-06-30T12:51:53Z</time>
      </trkpt>
      <trkpt lat="48.67508" lon="4.70596">
        <ele>114.3</ele>
        <time>2020-06-30T12:51:54Z</time>
      </trkpt>
      <trkpt lat="48.67511" lon="4.70584">
        <ele>114.2</ele>
        <time>2020-06-30T12:51:55Z</time>
      </trkpt>
      <trkpt lat="48.67514" lon="4.70574">
        <ele>114.1</ele>
        <time>2020-06-30T12:51:56Z</time>
      </trkpt>
      <trkpt lat="48.67518" lon="4.70565">
        <ele>114</ele>
        <time>2020-06-30T12:51:57Z</time>
      </trkpt>
      <trkpt lat="48.67522" lon="4.70554">
        <ele>114</ele>
        <time>2020-06-30T12:51:58Z</time>
      </trkpt>
      <trkpt lat="48.67526" lon="4.70543">
        <ele>113.8</ele>
        <time>2020-06-30T12:51:59Z</time>
      </trkpt>
      <trkpt lat="48.6753" lon="4.70531">
        <ele>113.5</ele>
        <time>2020-06-30T12:52:00Z</time>
      </trkpt>
      <trkpt lat="48.67534" lon="4.70519">
        <ele>113.2</ele>
        <time>2020-06-30T12:52:01Z</time>
      </trkpt>
      <trkpt lat="48.67538" lon="4.70507">
        <ele>112.8</ele>
        <time>2020-06-30T12:52:02Z</time>
      </trkpt>
      <trkpt lat="48.67541" lon="4.70495">
        <ele>112.6</ele>
        <time>2020-06-30T12:52:03Z</time>
      </trkpt>
      <trkpt lat="48.67545" lon="4.70483">
        <ele>112.4</ele>
        <time>2020-06-30T12:52:04Z</time>
      </trkpt>
      <trkpt lat="48.67548" lon="4.70471">
        <ele>112.3</ele>
        <time>2020-06-30T12:52:05Z</time>
      </trkpt>
      <trkpt lat="48.67551" lon="4.7046">
        <ele>112.2</ele>
        <time>2020-06-30T12:52:06Z</time>
      </trkpt>
      <trkpt lat="48.67555" lon="4.7045">
        <ele>112.1</ele>
        <time>2020-06-30T12:52:07Z</time>
      </trkpt>
      <trkpt lat="48.67558" lon="4.70439">
        <ele>112</ele>
        <time>2020-06-30T12:52:08Z</time>
      </trkpt>
      <trkpt lat="48.67561" lon="4.70429">
        <ele>112</ele>
        <time>2020-06-30T12:52:09Z</time>
      </trkpt>
      <trkpt lat="48.67565" lon="4.70417">
        <ele>112</ele>
        <time>2020-06-30T12:52:10Z</time>
      </trkpt>
      <trkpt lat="48.67568" lon="4.70406">
        <ele>111.9</ele>
        <time>2020-06-30T12:52:11Z</time>
      </trkpt>
      <trkpt lat="48.67572" lon="4.70394">
        <ele>111.9</ele>
        <time>2020-06-30T12:52:12Z</time>
      </trkpt>
      <trkpt lat="48.67575" lon="4.70383">
        <ele>111.9</ele>
        <time>2020-06-30T12:52:13Z</time>
      </trkpt>
      <trkpt lat="48.67579" lon="4.7037">
        <ele>111.8</ele>
        <time>2020-06-30T12:52:14Z</time>
      </trkpt>
      <trkpt lat="48.67582" lon="4.7036">
        <ele>111.8</ele>
        <time>2020-06-30T12:52:15Z</time>
      </trkpt>
      <trkpt lat="48.67586" lon="4.7035">
        <ele>111.7</ele>
        <time>2020-06-30T12:52:16Z</time>
      </trkpt>
      <trkpt lat="48.6759" lon="4.70338">
        <ele>111.7</ele>
        <time>2020-06-30T12:52:17Z</time>
      </trkpt>
      <trkpt lat="48.67594" lon="4.70329">
        <ele>111.7</ele>
        <time>2020-06-30T12:52:18Z</time>
      </trkpt>
      <trkpt lat="48.67598" lon="4.70316">
        <ele>111.6</ele>
        <time>2020-06-30T12:52:19Z</time>
      </trkpt>
      <trkpt lat="48.67601" lon="4.70305">
        <ele>111.6</ele>
        <time>2020-06-30T12:52:20Z</time>
      </trkpt>
      <trkpt lat="48.67605" lon="4.70293">
        <ele>111.6</ele>
        <time>2020-06-30T12:52:21Z</time>
      </trkpt>
      <trkpt lat="48.67609" lon="4.70283">
        <ele>111.6</ele>
        <time>2020-06-30T12:52:22Z</time>
      </trkpt>
      <trkpt lat="48.67612" lon="4.70271">
        <ele>111.6</ele>
        <time>2020-06-30T12:52:23Z</time>
      </trkpt>
      <trkpt lat="48.67616" lon="4.7026">
        <ele>111.6</ele>
        <time>2020-06-30T12:52:24Z</time>
      </trkpt>
      <trkpt lat="48.6762" lon="4.70249">
        <ele>111.6</ele>
        <time>2020-06-30T12:52:25Z</time>
      </trkpt>
      <trkpt lat="48.67623" lon="4.70238">
        <ele>111.7</ele>
        <time>2020-06-30T12:52:26Z</time>
      </trkpt>
      <trkpt lat="48.67627" lon="4.70227">
        <ele>111.7</ele>
        <time>2020-06-30T12:52:27Z</time>
      </trkpt>
      <trkpt lat="48.6763" lon="4.70216">
        <ele>111.7</ele>
        <time>2020-06-30T12:52:28Z</time>
      </trkpt>
      <trkpt lat="48.67633" lon="4.70204">
        <ele>111.7</ele>
        <time>2020-06-30T12:52:29Z</time>
      </trkpt>
      <trkpt lat="48.67637" lon="4.70193">
        <ele>111.7</ele>
        <time>2020-06-30T12:52:30Z</time>
      </trkpt>
      <trkpt lat="48.6764" lon="4.70183">
        <ele>111.7</ele>
        <time>2020-06-30T12:52:31Z</time>
      </trkpt>
      <trkpt lat="48.67643" lon="4.70171">
        <ele>111.7</ele>
        <time>2020-06-30T12:52:32Z</time>
      </trkpt>
      <trkpt lat="48.67647" lon="4.7016">
        <ele>111.7</ele>
        <time>2020-06-30T12:52:33Z</time>
      </trkpt>
      <trkpt lat="48.67651" lon="4.70149">
        <ele>111.7</ele>
        <time>2020-06-30T12:52:34Z</time>
      </trkpt>
      <trkpt lat="48.67655" lon="4.70137">
        <ele>111.7</ele>
        <time>2020-06-30T12:52:35Z</time>
      </trkpt>
      <trkpt lat="48.67659" lon="4.70126">
        <ele>111.7</ele>
        <time>2020-06-30T12:52:36Z</time>
      </trkpt>
      <trkpt lat="48.67662" lon="4.70115">
        <ele>111.7</ele>
        <time>2020-06-30T12:52:37Z</time>
      </trkpt>
      <trkpt lat="48.67666" lon="4.70103">
        <ele>111.7</ele>
        <time>2020-06-30T12:52:38Z</time>
      </trkpt>
      <trkpt lat="48.6767" lon="4.70092">
        <ele>111.7</ele>
        <time>2020-06-30T12:52:39Z</time>
      </trkpt>
      <trkpt lat="48.67673" lon="4.70081">
        <ele>111.8</ele>
        <time>2020-06-30T12:52:40Z</time>
      </trkpt>
      <trkpt lat="48.67677" lon="4.7007">
        <ele>111.8</ele>
        <time>2020-06-30T12:52:41Z</time>
      </trkpt>
      <trkpt lat="48.67681" lon="4.70058">
        <ele>111.9</ele>
        <time>2020-06-30T12:52:42Z</time>
      </trkpt>
      <trkpt lat="48.67685" lon="4.70047">
        <ele>111.9</ele>
        <time>2020-06-30T12:52:43Z</time>
      </trkpt>
      <trkpt lat="48.67689" lon="4.70036">
        <ele>111.9</ele>
        <time>2020-06-30T12:52:44Z</time>
      </trkpt>
      <trkpt lat="48.67692" lon="4.70025">
        <ele>111.9</ele>
        <time>2020-06-30T12:52:45Z</time>
      </trkpt>
      <trkpt lat="48.67695" lon="4.70015">
        <ele>111.8</ele>
        <time>2020-06-30T12:52:46Z</time>
      </trkpt>
      <trkpt lat="48.67698" lon="4.70003">
        <ele>111.8</ele>
        <time>2020-06-30T12:52:47Z</time>
      </trkpt>
      <trkpt lat="48.67702" lon="4.69991">
        <ele>111.8</ele>
        <time>2020-06-30T12:52:48Z</time>
      </trkpt>
      <trkpt lat="48.67705" lon="4.69978">
        <ele>111.8</ele>
        <time>2020-06-30T12:52:49Z</time>
      </trkpt>
      <trkpt lat="48.67708" lon="4.69965">
        <ele>111.8</ele>
        <time>2020-06-30T12:52:50Z</time>
      </trkpt>
      <trkpt lat="48.67711" lon="4.69952">
        <ele>111.9</ele>
        <time>2020-06-30T12:52:51Z</time>
      </trkpt>
      <trkpt lat="48.67714" lon="4.69939">
        <ele>111.9</ele>
        <time>2020-06-30T12:52:52Z</time>
      </trkpt>
      <trkpt lat="48.67718" lon="4.69927">
        <ele>111.9</ele>
        <time>2020-06-30T12:52:53Z</time>
      </trkpt>
      <trkpt lat="48.67721" lon="4.69916">
        <ele>111.9</ele>
        <time>2020-06-30T12:52:54Z</time>
      </trkpt>
      <trkpt lat="48.67725" lon="4.69904">
        <ele>111.8</ele>
        <time>2020-06-30T12:52:55Z</time>
      </trkpt>
      <trkpt lat="48.67728" lon="4.69892">
        <ele>111.8</ele>
        <time>2020-06-30T12:52:56Z</time>
      </trkpt>
      <trkpt lat="48.67732" lon="4.69881">
        <ele>111.7</ele>
        <time>2020-06-30T12:52:57Z</time>
      </trkpt>
      <trkpt lat="48.67736" lon="4.69871">
        <ele>111.7</ele>
        <time>2020-06-30T12:52:58Z</time>
      </trkpt>
      <trkpt lat="48.67739" lon="4.6986">
        <ele>111.8</ele>
        <time>2020-06-30T12:52:59Z</time>
      </trkpt>
      <trkpt lat="48.67742" lon="4.69848">
        <ele>111.9</ele>
        <time>2020-06-30T12:53:00Z</time>
      </trkpt>
      <trkpt lat="48.67746" lon="4.69837">
        <ele>112.1</ele>
        <time>2020-06-30T12:53:01Z</time>
      </trkpt>
      <trkpt lat="48.67749" lon="4.69826">
        <ele>112.9</ele>
        <time>2020-06-30T12:53:02Z</time>
      </trkpt>
      <trkpt lat="48.67752" lon="4.69814">
        <ele>113.3</ele>
        <time>2020-06-30T12:53:03Z</time>
      </trkpt>
      <trkpt lat="48.67756" lon="4.69804">
        <ele>113.4</ele>
        <time>2020-06-30T12:53:04Z</time>
      </trkpt>
      <trkpt lat="48.67759" lon="4.69793">
        <ele>113.4</ele>
        <time>2020-06-30T12:53:05Z</time>
      </trkpt>
      <trkpt lat="48.67763" lon="4.69782">
        <ele>113.4</ele>
        <time>2020-06-30T12:53:06Z</time>
      </trkpt>
      <trkpt lat="48.67766" lon="4.69772">
        <ele>113.5</ele>
        <time>2020-06-30T12:53:07Z</time>
      </trkpt>
      <trkpt lat="48.67769" lon="4.69761">
        <ele>113.5</ele>
        <time>2020-06-30T12:53:08Z</time>
      </trkpt>
      <trkpt lat="48.67772" lon="4.6975">
        <ele>113.5</ele>
        <time>2020-06-30T12:53:09Z</time>
      </trkpt>
      <trkpt lat="48.67775" lon="4.69739">
        <ele>113.5</ele>
        <time>2020-06-30T12:53:10Z</time>
      </trkpt>
      <trkpt lat="48.67779" lon="4.69729">
        <ele>113.5</ele>
        <time>2020-06-30T12:53:11Z</time>
      </trkpt>
      <trkpt lat="48.67783" lon="4.69718">
        <ele>113.5</ele>
        <time>2020-06-30T12:53:12Z</time>
      </trkpt>
      <trkpt lat="48.67787" lon="4.69706">
        <ele>113.5</ele>
        <time>2020-06-30T12:53:13Z</time>
      </trkpt>
      <trkpt lat="48.6779" lon="4.69694">
        <ele>113.5</ele>
        <time>2020-06-30T12:53:14Z</time>
      </trkpt>
      <trkpt lat="48.67794" lon="4.69683">
        <ele>113.4</ele>
        <time>2020-06-30T12:53:15Z</time>
      </trkpt>
      <trkpt lat="48.67797" lon="4.69672">
        <ele>113.4</ele>
        <time>2020-06-30T12:53:16Z</time>
      </trkpt>
      <trkpt lat="48.67801" lon="4.69661">
        <ele>113.4</ele>
        <time>2020-06-30T12:53:17Z</time>
      </trkpt>
      <trkpt lat="48.67804" lon="4.69649">
        <ele>113.4</ele>
        <time>2020-06-30T12:53:18Z</time>
      </trkpt>
      <trkpt lat="48.67807" lon="4.69638">
        <ele>113.3</ele>
        <time>2020-06-30T12:53:19Z</time>
      </trkpt>
      <trkpt lat="48.67811" lon="4.69628">
        <ele>113.3</ele>
        <time>2020-06-30T12:53:20Z</time>
      </trkpt>
      <trkpt lat="48.67815" lon="4.69617">
        <ele>113.3</ele>
        <time>2020-06-30T12:53:21Z</time>
      </trkpt>
      <trkpt lat="48.67819" lon="4.69606">
        <ele>113.3</ele>
        <time>2020-06-30T12:53:22Z</time>
      </trkpt>
      <trkpt lat="48.67822" lon="4.69593">
        <ele>113.3</ele>
        <time>2020-06-30T12:53:23Z</time>
      </trkpt>
      <trkpt lat="48.67825" lon="4.69581">
        <ele>113.3</ele>
        <time>2020-06-30T12:53:24Z</time>
      </trkpt>
      <trkpt lat="48.67828" lon="4.6957">
        <ele>113.4</ele>
        <time>2020-06-30T12:53:25Z</time>
      </trkpt>
      <trkpt lat="48.67832" lon="4.69559">
        <ele>113.4</ele>
        <time>2020-06-30T12:53:26Z</time>
      </trkpt>
      <trkpt lat="48.67835" lon="4.69548">
        <ele>113.3</ele>
        <time>2020-06-30T12:53:27Z</time>
      </trkpt>
      <trkpt lat="48.67839" lon="4.69537">
        <ele>113.3</ele>
        <time>2020-06-30T12:53:28Z</time>
      </trkpt>
      <trkpt lat="48.67842" lon="4.69526">
        <ele>113.3</ele>
        <time>2020-06-30T12:53:29Z</time>
      </trkpt>
      <trkpt lat="48.67846" lon="4.69517">
        <ele>113.2</ele>
        <time>2020-06-30T12:53:30Z</time>
      </trkpt>
      <trkpt lat="48.67849" lon="4.69507">
        <ele>113.2</ele>
        <time>2020-06-30T12:53:31Z</time>
      </trkpt>
      <trkpt lat="48.67853" lon="4.69497">
        <ele>113.2</ele>
        <time>2020-06-30T12:53:32Z</time>
      </trkpt>
      <trkpt lat="48.67857" lon="4.69486">
        <ele>113.2</ele>
        <time>2020-06-30T12:53:33Z</time>
      </trkpt>
      <trkpt lat="48.6786" lon="4.69475">
        <ele>113.1</ele>
        <time>2020-06-30T12:53:34Z</time>
      </trkpt>
      <trkpt lat="48.67864" lon="4.69464">
        <ele>113.1</ele>
        <time>2020-06-30T12:53:35Z</time>
      </trkpt>
      <trkpt lat="48.67867" lon="4.69453">
        <ele>113.1</ele>
        <time>2020-06-30T12:53:36Z</time>
      </trkpt>
      <trkpt lat="48.6787" lon="4.69442">
        <ele>113.1</ele>
        <time>2020-06-30T12:53:37Z</time>
      </trkpt>
      <trkpt lat="48.67873" lon="4.69431">
        <ele>113.1</ele>
        <time>2020-06-30T12:53:38Z</time>
      </trkpt>
      <trkpt lat="48.67877" lon="4.6942">
        <ele>113.1</ele>
        <time>2020-06-30T12:53:39Z</time>
      </trkpt>
      <trkpt lat="48.6788" lon="4.69408">
        <ele>113.1</ele>
        <time>2020-06-30T12:53:40Z</time>
      </trkpt>
      <trkpt lat="48.67883" lon="4.69397">
        <ele>113</ele>
        <time>2020-06-30T12:53:41Z</time>
      </trkpt>
      <trkpt lat="48.67886" lon="4.69388">
        <ele>113</ele>
        <time>2020-06-30T12:53:42Z</time>
      </trkpt>
      <trkpt lat="48.6789" lon="4.69378">
        <ele>113</ele>
        <time>2020-06-30T12:53:43Z</time>
      </trkpt>
      <trkpt lat="48.67893" lon="4.69367">
        <ele>113</ele>
        <time>2020-06-30T12:53:44Z</time>
      </trkpt>
      <trkpt lat="48.67896" lon="4.69356">
        <ele>112.9</ele>
        <time>2020-06-30T12:53:45Z</time>
      </trkpt>
      <trkpt lat="48.679" lon="4.69344">
        <ele>112.9</ele>
        <time>2020-06-30T12:53:46Z</time>
      </trkpt>
      <trkpt lat="48.67903" lon="4.69333">
        <ele>112.9</ele>
        <time>2020-06-30T12:53:47Z</time>
      </trkpt>
      <trkpt lat="48.67907" lon="4.69322">
        <ele>112.9</ele>
        <time>2020-06-30T12:53:48Z</time>
      </trkpt>
      <trkpt lat="48.6791" lon="4.69311">
        <ele>112.9</ele>
        <time>2020-06-30T12:53:49Z</time>
      </trkpt>
      <trkpt lat="48.67913" lon="4.693">
        <ele>112.9</ele>
        <time>2020-06-30T12:53:50Z</time>
      </trkpt>
      <trkpt lat="48.67917" lon="4.69289">
        <ele>112.8</ele>
        <time>2020-06-30T12:53:51Z</time>
      </trkpt>
      <trkpt lat="48.6792" lon="4.69278">
        <ele>112.8</ele>
        <time>2020-06-30T12:53:52Z</time>
      </trkpt>
      <trkpt lat="48.67923" lon="4.69266">
        <ele>112.7</ele>
        <time>2020-06-30T12:53:53Z</time>
      </trkpt>
      <trkpt lat="48.67927" lon="4.69254">
        <ele>112.7</ele>
        <time>2020-06-30T12:53:54Z</time>
      </trkpt>
      <trkpt lat="48.67931" lon="4.69243">
        <ele>112.6</ele>
        <time>2020-06-30T12:53:55Z</time>
      </trkpt>
      <trkpt lat="48.67934" lon="4.69232">
        <ele>112.6</ele>
        <time>2020-06-30T12:53:56Z</time>
      </trkpt>
      <trkpt lat="48.67937" lon="4.6922">
        <ele>112.6</ele>
        <time>2020-06-30T12:53:57Z</time>
      </trkpt>
      <trkpt lat="48.67941" lon="4.6921">
        <ele>112.6</ele>
        <time>2020-06-30T12:53:58Z</time>
      </trkpt>
      <trkpt lat="48.67945" lon="4.69199">
        <ele>112.6</ele>
        <time>2020-06-30T12:53:59Z</time>
      </trkpt>
      <trkpt lat="48.67948" lon="4.69188">
        <ele>112.6</ele>
        <time>2020-06-30T12:54:00Z</time>
      </trkpt>
      <trkpt lat="48.67951" lon="4.69176">
        <ele>112.5</ele>
        <time>2020-06-30T12:54:01Z</time>
      </trkpt>
      <trkpt lat="48.67955" lon="4.69164">
        <ele>112.5</ele>
        <time>2020-06-30T12:54:02Z</time>
      </trkpt>
      <trkpt lat="48.67958" lon="4.69153">
        <ele>112.4</ele>
        <time>2020-06-30T12:54:03Z</time>
      </trkpt>
      <trkpt lat="48.67961" lon="4.69142">
        <ele>112.4</ele>
        <time>2020-06-30T12:54:04Z</time>
      </trkpt>
      <trkpt lat="48.67965" lon="4.69131">
        <ele>112.4</ele>
        <time>2020-06-30T12:54:05Z</time>
      </trkpt>
      <trkpt lat="48.67969" lon="4.6912">
        <ele>112.4</ele>
        <time>2020-06-30T12:54:06Z</time>
      </trkpt>
      <trkpt lat="48.67973" lon="4.69109">
        <ele>112.4</ele>
        <time>2020-06-30T12:54:07Z</time>
      </trkpt>
      <trkpt lat="48.67977" lon="4.69099">
        <ele>112.4</ele>
        <time>2020-06-30T12:54:08Z</time>
      </trkpt>
      <trkpt lat="48.6798" lon="4.69088">
        <ele>112.3</ele>
        <time>2020-06-30T12:54:09Z</time>
      </trkpt>
      <trkpt lat="48.67983" lon="4.69077">
        <ele>112.3</ele>
        <time>2020-06-30T12:54:10Z</time>
      </trkpt>
      <trkpt lat="48.67986" lon="4.69066">
        <ele>112.3</ele>
        <time>2020-06-30T12:54:11Z</time>
      </trkpt>
      <trkpt lat="48.6799" lon="4.69054">
        <ele>112.2</ele>
        <time>2020-06-30T12:54:12Z</time>
      </trkpt>
      <trkpt lat="48.67993" lon="4.69043">
        <ele>112.2</ele>
        <time>2020-06-30T12:54:13Z</time>
      </trkpt>
      <trkpt lat="48.67997" lon="4.69032">
        <ele>112.2</ele>
        <time>2020-06-30T12:54:14Z</time>
      </trkpt>
      <trkpt lat="48.68001" lon="4.69021">
        <ele>112.1</ele>
        <time>2020-06-30T12:54:15Z</time>
      </trkpt>
      <trkpt lat="48.68004" lon="4.69009">
        <ele>112.1</ele>
        <time>2020-06-30T12:54:16Z</time>
      </trkpt>
      <trkpt lat="48.68008" lon="4.68999">
        <ele>112</ele>
        <time>2020-06-30T12:54:17Z</time>
      </trkpt>
      <trkpt lat="48.68012" lon="4.68988">
        <ele>112</ele>
        <time>2020-06-30T12:54:18Z</time>
      </trkpt>
      <trkpt lat="48.68017" lon="4.68978">
        <ele>112</ele>
        <time>2020-06-30T12:54:19Z</time>
      </trkpt>
      <trkpt lat="48.6802" lon="4.68966">
        <ele>112</ele>
        <time>2020-06-30T12:54:20Z</time>
      </trkpt>
      <trkpt lat="48.68024" lon="4.68956">
        <ele>112</ele>
        <time>2020-06-30T12:54:21Z</time>
      </trkpt>
      <trkpt lat="48.68027" lon="4.68946">
        <ele>112</ele>
        <time>2020-06-30T12:54:22Z</time>
      </trkpt>
      <trkpt lat="48.68031" lon="4.68936">
        <ele>112</ele>
        <time>2020-06-30T12:54:23Z</time>
      </trkpt>
      <trkpt lat="48.68035" lon="4.68926">
        <ele>112</ele>
        <time>2020-06-30T12:54:24Z</time>
      </trkpt>
      <trkpt lat="48.68038" lon="4.68915">
        <ele>112</ele>
        <time>2020-06-30T12:54:25Z</time>
      </trkpt>
      <trkpt lat="48.68041" lon="4.68903">
        <ele>112</ele>
        <time>2020-06-30T12:54:26Z</time>
      </trkpt>
      <trkpt lat="48.68044" lon="4.68892">
        <ele>112</ele>
        <time>2020-06-30T12:54:27Z</time>
      </trkpt>
      <trkpt lat="48.68046" lon="4.6888">
        <ele>112</ele>
        <time>2020-06-30T12:54:28Z</time>
      </trkpt>
      <trkpt lat="48.6805" lon="4.68869">
        <ele>112</ele>
        <time>2020-06-30T12:54:29Z</time>
      </trkpt>
      <trkpt lat="48.68054" lon="4.68858">
        <ele>112.1</ele>
        <time>2020-06-30T12:54:30Z</time>
      </trkpt>
      <trkpt lat="48.68057" lon="4.68848">
        <ele>112.1</ele>
        <time>2020-06-30T12:54:31Z</time>
      </trkpt>
      <trkpt lat="48.6806" lon="4.68837">
        <ele>112.1</ele>
        <time>2020-06-30T12:54:32Z</time>
      </trkpt>
      <trkpt lat="48.68064" lon="4.68827">
        <ele>112.1</ele>
        <time>2020-06-30T12:54:33Z</time>
      </trkpt>
      <trkpt lat="48.68067" lon="4.68817">
        <ele>112.1</ele>
        <time>2020-06-30T12:54:34Z</time>
      </trkpt>
      <trkpt lat="48.68071" lon="4.68806">
        <ele>112.1</ele>
        <time>2020-06-30T12:54:35Z</time>
      </trkpt>
      <trkpt lat="48.68074" lon="4.68795">
        <ele>112.1</ele>
        <time>2020-06-30T12:54:36Z</time>
      </trkpt>
      <trkpt lat="48.68077" lon="4.68783">
        <ele>112.1</ele>
        <time>2020-06-30T12:54:37Z</time>
      </trkpt>
      <trkpt lat="48.68081" lon="4.68772">
        <ele>112.1</ele>
        <time>2020-06-30T12:54:38Z</time>
      </trkpt>
      <trkpt lat="48.68083" lon="4.6876">
        <ele>112.1</ele>
        <time>2020-06-30T12:54:39Z</time>
      </trkpt>
      <trkpt lat="48.68087" lon="4.68749">
        <ele>112.1</ele>
        <time>2020-06-30T12:54:40Z</time>
      </trkpt>
      <trkpt lat="48.6809" lon="4.68738">
        <ele>112.1</ele>
        <time>2020-06-30T12:54:41Z</time>
      </trkpt>
      <trkpt lat="48.68093" lon="4.68727">
        <ele>112.1</ele>
        <time>2020-06-30T12:54:42Z</time>
      </trkpt>
      <trkpt lat="48.68097" lon="4.68717">
        <ele>112.1</ele>
        <time>2020-06-30T12:54:43Z</time>
      </trkpt>
      <trkpt lat="48.681" lon="4.68706">
        <ele>112.1</ele>
        <time>2020-06-30T12:54:44Z</time>
      </trkpt>
      <trkpt lat="48.68103" lon="4.68695">
        <ele>112.1</ele>
        <time>2020-06-30T12:54:45Z</time>
      </trkpt>
      <trkpt lat="48.68106" lon="4.68684">
        <ele>112.1</ele>
        <time>2020-06-30T12:54:46Z</time>
      </trkpt>
      <trkpt lat="48.68107" lon="4.68674">
        <ele>112</ele>
        <time>2020-06-30T12:54:47Z</time>
      </trkpt>
      <trkpt lat="48.68109" lon="4.68663">
        <ele>112</ele>
        <time>2020-06-30T12:54:48Z</time>
      </trkpt>
      <trkpt lat="48.68113" lon="4.68654">
        <ele>112</ele>
        <time>2020-06-30T12:54:49Z</time>
      </trkpt>
      <trkpt lat="48.68117" lon="4.68644">
        <ele>112</ele>
        <time>2020-06-30T12:54:50Z</time>
      </trkpt>
      <trkpt lat="48.6812" lon="4.68634">
        <ele>111.9</ele>
        <time>2020-06-30T12:54:51Z</time>
      </trkpt>
      <trkpt lat="48.68124" lon="4.68623">
        <ele>111.9</ele>
        <time>2020-06-30T12:54:52Z</time>
      </trkpt>
      <trkpt lat="48.68128" lon="4.68613">
        <ele>111.9</ele>
        <time>2020-06-30T12:54:53Z</time>
      </trkpt>
      <trkpt lat="48.68132" lon="4.68604">
        <ele>111.8</ele>
        <time>2020-06-30T12:54:54Z</time>
      </trkpt>
      <trkpt lat="48.68137" lon="4.68594">
        <ele>111.8</ele>
        <time>2020-06-30T12:54:55Z</time>
      </trkpt>
      <trkpt lat="48.6814" lon="4.68582">
        <ele>111.7</ele>
        <time>2020-06-30T12:54:56Z</time>
      </trkpt>
      <trkpt lat="48.68143" lon="4.6857">
        <ele>111.7</ele>
        <time>2020-06-30T12:54:57Z</time>
      </trkpt>
      <trkpt lat="48.68146" lon="4.68559">
        <ele>111.6</ele>
        <time>2020-06-30T12:54:58Z</time>
      </trkpt>
      <trkpt lat="48.6815" lon="4.68548">
        <ele>111.6</ele>
        <time>2020-06-30T12:54:59Z</time>
      </trkpt>
      <trkpt lat="48.68154" lon="4.68537">
        <ele>111.5</ele>
        <time>2020-06-30T12:55:00Z</time>
      </trkpt>
      <trkpt lat="48.68158" lon="4.68526">
        <ele>111.5</ele>
        <time>2020-06-30T12:55:01Z</time>
      </trkpt>
      <trkpt lat="48.68162" lon="4.68515">
        <ele>111.5</ele>
        <time>2020-06-30T12:55:02Z</time>
      </trkpt>
      <trkpt lat="48.68165" lon="4.68503">
        <ele>111.5</ele>
        <time>2020-06-30T12:55:03Z</time>
      </trkpt>
      <trkpt lat="48.68168" lon="4.68492">
        <ele>111.5</ele>
        <time>2020-06-30T12:55:04Z</time>
      </trkpt>
      <trkpt lat="48.68172" lon="4.68481">
        <ele>111.5</ele>
        <time>2020-06-30T12:55:05Z</time>
      </trkpt>
      <trkpt lat="48.68175" lon="4.6847">
        <ele>111.5</ele>
        <time>2020-06-30T12:55:06Z</time>
      </trkpt>
      <trkpt lat="48.68178" lon="4.6846">
        <ele>111.5</ele>
        <time>2020-06-30T12:55:07Z</time>
      </trkpt>
      <trkpt lat="48.68182" lon="4.68449">
        <ele>111.5</ele>
        <time>2020-06-30T12:55:08Z</time>
      </trkpt>
      <trkpt lat="48.68185" lon="4.68439">
        <ele>111.5</ele>
        <time>2020-06-30T12:55:09Z</time>
      </trkpt>
      <trkpt lat="48.68188" lon="4.68429">
        <ele>111.5</ele>
        <time>2020-06-30T12:55:10Z</time>
      </trkpt>
      <trkpt lat="48.68192" lon="4.68418">
        <ele>111.5</ele>
        <time>2020-06-30T12:55:11Z</time>
      </trkpt>
      <trkpt lat="48.68196" lon="4.68408">
        <ele>111.5</ele>
        <time>2020-06-30T12:55:12Z</time>
      </trkpt>
      <trkpt lat="48.68199" lon="4.68398">
        <ele>111.5</ele>
        <time>2020-06-30T12:55:13Z</time>
      </trkpt>
      <trkpt lat="48.68202" lon="4.68388">
        <ele>111.5</ele>
        <time>2020-06-30T12:55:14Z</time>
      </trkpt>
      <trkpt lat="48.68205" lon="4.68378">
        <ele>111.5</ele>
        <time>2020-06-30T12:55:15Z</time>
      </trkpt>
      <trkpt lat="48.68209" lon="4.68368">
        <ele>111.5</ele>
        <time>2020-06-30T12:55:16Z</time>
      </trkpt>
      <trkpt lat="48.68212" lon="4.68358">
        <ele>111.5</ele>
        <time>2020-06-30T12:55:17Z</time>
      </trkpt>
      <trkpt lat="48.68215" lon="4.68347">
        <ele>111.5</ele>
        <time>2020-06-30T12:55:18Z</time>
      </trkpt>
      <trkpt lat="48.68219" lon="4.68336">
        <ele>111.5</ele>
        <time>2020-06-30T12:55:19Z</time>
      </trkpt>
      <trkpt lat="48.68221" lon="4.68325">
        <ele>111.5</ele>
        <time>2020-06-30T12:55:20Z</time>
      </trkpt>
      <trkpt lat="48.68224" lon="4.68313">
        <ele>111.5</ele>
        <time>2020-06-30T12:55:21Z</time>
      </trkpt>
      <trkpt lat="48.68228" lon="4.68302">
        <ele>111.5</ele>
        <time>2020-06-30T12:55:22Z</time>
      </trkpt>
      <trkpt lat="48.68231" lon="4.68292">
        <ele>111.5</ele>
        <time>2020-06-30T12:55:23Z</time>
      </trkpt>
      <trkpt lat="48.68234" lon="4.68282">
        <ele>111.6</ele>
        <time>2020-06-30T12:55:24Z</time>
      </trkpt>
      <trkpt lat="48.68238" lon="4.68272">
        <ele>111.6</ele>
        <time>2020-06-30T12:55:25Z</time>
      </trkpt>
      <trkpt lat="48.68241" lon="4.68261">
        <ele>111.5</ele>
        <time>2020-06-30T12:55:26Z</time>
      </trkpt>
      <trkpt lat="48.68244" lon="4.68251">
        <ele>111.5</ele>
        <time>2020-06-30T12:55:27Z</time>
      </trkpt>
      <trkpt lat="48.68248" lon="4.6824">
        <ele>111.5</ele>
        <time>2020-06-30T12:55:28Z</time>
      </trkpt>
      <trkpt lat="48.68251" lon="4.68229">
        <ele>111.5</ele>
        <time>2020-06-30T12:55:29Z</time>
      </trkpt>
      <trkpt lat="48.68254" lon="4.68217">
        <ele>111.5</ele>
        <time>2020-06-30T12:55:30Z</time>
      </trkpt>
      <trkpt lat="48.68258" lon="4.68206">
        <ele>111.5</ele>
        <time>2020-06-30T12:55:31Z</time>
      </trkpt>
      <trkpt lat="48.68261" lon="4.68194">
        <ele>111.4</ele>
        <time>2020-06-30T12:55:32Z</time>
      </trkpt>
      <trkpt lat="48.68264" lon="4.68182">
        <ele>111.4</ele>
        <time>2020-06-30T12:55:33Z</time>
      </trkpt>
      <trkpt lat="48.68268" lon="4.68172">
        <ele>111.4</ele>
        <time>2020-06-30T12:55:34Z</time>
      </trkpt>
      <trkpt lat="48.68272" lon="4.68161">
        <ele>111.4</ele>
        <time>2020-06-30T12:55:35Z</time>
      </trkpt>
      <trkpt lat="48.68275" lon="4.6815">
        <ele>111.4</ele>
        <time>2020-06-30T12:55:36Z</time>
      </trkpt>
      <trkpt lat="48.68279" lon="4.68139">
        <ele>111.3</ele>
        <time>2020-06-30T12:55:37Z</time>
      </trkpt>
      <trkpt lat="48.68282" lon="4.68128">
        <ele>111.3</ele>
        <time>2020-06-30T12:55:38Z</time>
      </trkpt>
      <trkpt lat="48.68285" lon="4.68118">
        <ele>111.4</ele>
        <time>2020-06-30T12:55:39Z</time>
      </trkpt>
      <trkpt lat="48.68288" lon="4.68107">
        <ele>111.4</ele>
        <time>2020-06-30T12:55:40Z</time>
      </trkpt>
      <trkpt lat="48.68291" lon="4.68096">
        <ele>111.4</ele>
        <time>2020-06-30T12:55:41Z</time>
      </trkpt>
      <trkpt lat="48.68294" lon="4.68085">
        <ele>111.4</ele>
        <time>2020-06-30T12:55:42Z</time>
      </trkpt>
      <trkpt lat="48.68298" lon="4.68075">
        <ele>111.4</ele>
        <time>2020-06-30T12:55:43Z</time>
      </trkpt>
      <trkpt lat="48.68302" lon="4.68064">
        <ele>111.4</ele>
        <time>2020-06-30T12:55:44Z</time>
      </trkpt>
      <trkpt lat="48.68305" lon="4.68053">
        <ele>111.4</ele>
        <time>2020-06-30T12:55:45Z</time>
      </trkpt>
      <trkpt lat="48.68309" lon="4.68042">
        <ele>111.4</ele>
        <time>2020-06-30T12:55:46Z</time>
      </trkpt>
      <trkpt lat="48.68312" lon="4.68032">
        <ele>111.4</ele>
        <time>2020-06-30T12:55:47Z</time>
      </trkpt>
      <trkpt lat="48.68315" lon="4.68021">
        <ele>111.4</ele>
        <time>2020-06-30T12:55:48Z</time>
      </trkpt>
      <trkpt lat="48.68319" lon="4.6801">
        <ele>111.4</ele>
        <time>2020-06-30T12:55:49Z</time>
      </trkpt>
      <trkpt lat="48.68322" lon="4.67999">
        <ele>111.3</ele>
        <time>2020-06-30T12:55:50Z</time>
      </trkpt>
      <trkpt lat="48.68325" lon="4.67988">
        <ele>111.3</ele>
        <time>2020-06-30T12:55:51Z</time>
      </trkpt>
      <trkpt lat="48.68329" lon="4.67978">
        <ele>111.3</ele>
        <time>2020-06-30T12:55:52Z</time>
      </trkpt>
      <trkpt lat="48.68332" lon="4.67969">
        <ele>111.3</ele>
        <time>2020-06-30T12:55:53Z</time>
      </trkpt>
      <trkpt lat="48.68335" lon="4.67959">
        <ele>111.2</ele>
        <time>2020-06-30T12:55:54Z</time>
      </trkpt>
      <trkpt lat="48.68339" lon="4.67948">
        <ele>111.2</ele>
        <time>2020-06-30T12:55:55Z</time>
      </trkpt>
      <trkpt lat="48.68342" lon="4.67938">
        <ele>111.2</ele>
        <time>2020-06-30T12:55:56Z</time>
      </trkpt>
      <trkpt lat="48.68346" lon="4.67927">
        <ele>111.2</ele>
        <time>2020-06-30T12:55:57Z</time>
      </trkpt>
      <trkpt lat="48.68349" lon="4.67917">
        <ele>111.2</ele>
        <time>2020-06-30T12:55:58Z</time>
      </trkpt>
      <trkpt lat="48.68352" lon="4.67906">
        <ele>111.2</ele>
        <time>2020-06-30T12:55:59Z</time>
      </trkpt>
      <trkpt lat="48.68356" lon="4.67895">
        <ele>111.2</ele>
        <time>2020-06-30T12:56:00Z</time>
      </trkpt>
      <trkpt lat="48.68359" lon="4.67884">
        <ele>111.2</ele>
        <time>2020-06-30T12:56:01Z</time>
      </trkpt>
      <trkpt lat="48.68363" lon="4.67873">
        <ele>111.2</ele>
        <time>2020-06-30T12:56:02Z</time>
      </trkpt>
      <trkpt lat="48.68366" lon="4.67862">
        <ele>111.3</ele>
        <time>2020-06-30T12:56:03Z</time>
      </trkpt>
      <trkpt lat="48.68369" lon="4.67851">
        <ele>111.3</ele>
        <time>2020-06-30T12:56:04Z</time>
      </trkpt>
      <trkpt lat="48.68372" lon="4.6784">
        <ele>111.4</ele>
        <time>2020-06-30T12:56:05Z</time>
      </trkpt>
      <trkpt lat="48.68375" lon="4.6783">
        <ele>111.4</ele>
        <time>2020-06-30T12:56:06Z</time>
      </trkpt>
      <trkpt lat="48.68379" lon="4.6782">
        <ele>111.4</ele>
        <time>2020-06-30T12:56:07Z</time>
      </trkpt>
      <trkpt lat="48.68383" lon="4.67809">
        <ele>111.3</ele>
        <time>2020-06-30T12:56:08Z</time>
      </trkpt>
      <trkpt lat="48.68386" lon="4.67798">
        <ele>111.3</ele>
        <time>2020-06-30T12:56:09Z</time>
      </trkpt>
      <trkpt lat="48.68389" lon="4.67788">
        <ele>111.3</ele>
        <time>2020-06-30T12:56:10Z</time>
      </trkpt>
      <trkpt lat="48.68392" lon="4.67777">
        <ele>111.3</ele>
        <time>2020-06-30T12:56:11Z</time>
      </trkpt>
      <trkpt lat="48.68395" lon="4.67767">
        <ele>111.4</ele>
        <time>2020-06-30T12:56:12Z</time>
      </trkpt>
      <trkpt lat="48.68399" lon="4.67757">
        <ele>111.4</ele>
        <time>2020-06-30T12:56:13Z</time>
      </trkpt>
      <trkpt lat="48.68402" lon="4.67746">
        <ele>111.4</ele>
        <time>2020-06-30T12:56:14Z</time>
      </trkpt>
      <trkpt lat="48.68406" lon="4.67737">
        <ele>111.4</ele>
        <time>2020-06-30T12:56:15Z</time>
      </trkpt>
      <trkpt lat="48.68409" lon="4.67726">
        <ele>111.3</ele>
        <time>2020-06-30T12:56:16Z</time>
      </trkpt>
      <trkpt lat="48.68412" lon="4.67716">
        <ele>111.3</ele>
        <time>2020-06-30T12:56:17Z</time>
      </trkpt>
      <trkpt lat="48.68416" lon="4.67706">
        <ele>111.4</ele>
        <time>2020-06-30T12:56:18Z</time>
      </trkpt>
      <trkpt lat="48.68419" lon="4.67695">
        <ele>111.4</ele>
        <time>2020-06-30T12:56:19Z</time>
      </trkpt>
      <trkpt lat="48.68422" lon="4.67684">
        <ele>111.3</ele>
        <time>2020-06-30T12:56:20Z</time>
      </trkpt>
      <trkpt lat="48.68426" lon="4.67674">
        <ele>111.3</ele>
        <time>2020-06-30T12:56:21Z</time>
      </trkpt>
      <trkpt lat="48.68428" lon="4.67662">
        <ele>111.3</ele>
        <time>2020-06-30T12:56:22Z</time>
      </trkpt>
      <trkpt lat="48.68431" lon="4.67651">
        <ele>111.3</ele>
        <time>2020-06-30T12:56:23Z</time>
      </trkpt>
      <trkpt lat="48.68435" lon="4.6764">
        <ele>111.3</ele>
        <time>2020-06-30T12:56:24Z</time>
      </trkpt>
      <trkpt lat="48.68438" lon="4.6763">
        <ele>111.3</ele>
        <time>2020-06-30T12:56:25Z</time>
      </trkpt>
      <trkpt lat="48.68442" lon="4.6762">
        <ele>111.3</ele>
        <time>2020-06-30T12:56:26Z</time>
      </trkpt>
      <trkpt lat="48.68444" lon="4.67609">
        <ele>111.3</ele>
        <time>2020-06-30T12:56:27Z</time>
      </trkpt>
      <trkpt lat="48.68447" lon="4.67599">
        <ele>111.4</ele>
        <time>2020-06-30T12:56:28Z</time>
      </trkpt>
      <trkpt lat="48.6845" lon="4.67589">
        <ele>111.4</ele>
        <time>2020-06-30T12:56:29Z</time>
      </trkpt>
      <trkpt lat="48.68453" lon="4.6758">
        <ele>111.5</ele>
        <time>2020-06-30T12:56:30Z</time>
      </trkpt>
      <trkpt lat="48.68456" lon="4.67573">
        <ele>111.5</ele>
        <time>2020-06-30T12:56:31Z</time>
      </trkpt>
      <trkpt lat="48.68458" lon="4.67566">
        <ele>111.6</ele>
        <time>2020-06-30T12:56:32Z</time>
      </trkpt>
      <trkpt lat="48.68461" lon="4.6756">
        <ele>111.6</ele>
        <time>2020-06-30T12:56:33Z</time>
      </trkpt>
      <trkpt lat="48.68463" lon="4.67553">
        <ele>111.6</ele>
        <time>2020-06-30T12:56:34Z</time>
      </trkpt>
      <trkpt lat="48.68465" lon="4.67547">
        <ele>111.4</ele>
        <time>2020-06-30T12:56:35Z</time>
      </trkpt>
      <trkpt lat="48.68468" lon="4.67539">
        <ele>111.2</ele>
        <time>2020-06-30T12:56:36Z</time>
      </trkpt>
      <trkpt lat="48.68471" lon="4.67528">
        <ele>110.9</ele>
        <time>2020-06-30T12:56:37Z</time>
      </trkpt>
      <trkpt lat="48.68475" lon="4.67517">
        <ele>110.5</ele>
        <time>2020-06-30T12:56:38Z</time>
      </trkpt>
      <trkpt lat="48.68478" lon="4.67504">
        <ele>110</ele>
        <time>2020-06-30T12:56:39Z</time>
      </trkpt>
      <trkpt lat="48.68482" lon="4.67492">
        <ele>109.6</ele>
        <time>2020-06-30T12:56:40Z</time>
      </trkpt>
      <trkpt lat="48.68485" lon="4.6748">
        <ele>109.3</ele>
        <time>2020-06-30T12:56:41Z</time>
      </trkpt>
      <trkpt lat="48.68489" lon="4.67469">
        <ele>109.1</ele>
        <time>2020-06-30T12:56:42Z</time>
      </trkpt>
      <trkpt lat="48.68493" lon="4.67458">
        <ele>108.9</ele>
        <time>2020-06-30T12:56:43Z</time>
      </trkpt>
      <trkpt lat="48.68496" lon="4.67447">
        <ele>108.9</ele>
        <time>2020-06-30T12:56:44Z</time>
      </trkpt>
      <trkpt lat="48.68501" lon="4.67437">
        <ele>108.9</ele>
        <time>2020-06-30T12:56:45Z</time>
      </trkpt>
      <trkpt lat="48.68504" lon="4.67425">
        <ele>108.9</ele>
        <time>2020-06-30T12:56:46Z</time>
      </trkpt>
      <trkpt lat="48.68506" lon="4.67413">
        <ele>108.9</ele>
        <time>2020-06-30T12:56:47Z</time>
      </trkpt>
      <trkpt lat="48.6851" lon="4.67402">
        <ele>109</ele>
        <time>2020-06-30T12:56:48Z</time>
      </trkpt>
      <trkpt lat="48.68513" lon="4.6739">
        <ele>109.1</ele>
        <time>2020-06-30T12:56:49Z</time>
      </trkpt>
      <trkpt lat="48.68516" lon="4.67379">
        <ele>109</ele>
        <time>2020-06-30T12:56:50Z</time>
      </trkpt>
      <trkpt lat="48.68519" lon="4.67367">
        <ele>109</ele>
        <time>2020-06-30T12:56:51Z</time>
      </trkpt>
      <trkpt lat="48.68522" lon="4.67355">
        <ele>109</ele>
        <time>2020-06-30T12:56:52Z</time>
      </trkpt>
      <trkpt lat="48.68524" lon="4.67344">
        <ele>109</ele>
        <time>2020-06-30T12:56:53Z</time>
      </trkpt>
      <trkpt lat="48.68527" lon="4.67332">
        <ele>109</ele>
        <time>2020-06-30T12:56:54Z</time>
      </trkpt>
      <trkpt lat="48.68531" lon="4.6732">
        <ele>109</ele>
        <time>2020-06-30T12:56:55Z</time>
      </trkpt>
      <trkpt lat="48.68533" lon="4.67309">
        <ele>109</ele>
        <time>2020-06-30T12:56:56Z</time>
      </trkpt>
      <trkpt lat="48.68536" lon="4.67297">
        <ele>108.9</ele>
        <time>2020-06-30T12:56:57Z</time>
      </trkpt>
      <trkpt lat="48.68539" lon="4.67285">
        <ele>108.9</ele>
        <time>2020-06-30T12:56:58Z</time>
      </trkpt>
      <trkpt lat="48.68541" lon="4.67273">
        <ele>108.9</ele>
        <time>2020-06-30T12:56:59Z</time>
      </trkpt>
      <trkpt lat="48.68544" lon="4.67262">
        <ele>108.9</ele>
        <time>2020-06-30T12:57:00Z</time>
      </trkpt>
      <trkpt lat="48.68547" lon="4.67251">
        <ele>108.9</ele>
        <time>2020-06-30T12:57:01Z</time>
      </trkpt>
      <trkpt lat="48.68551" lon="4.6724">
        <ele>108.9</ele>
        <time>2020-06-30T12:57:02Z</time>
      </trkpt>
      <trkpt lat="48.68554" lon="4.67228">
        <ele>108.9</ele>
        <time>2020-06-30T12:57:03Z</time>
      </trkpt>
      <trkpt lat="48.68556" lon="4.67217">
        <ele>108.9</ele>
        <time>2020-06-30T12:57:04Z</time>
      </trkpt>
      <trkpt lat="48.6856" lon="4.67206">
        <ele>108.9</ele>
        <time>2020-06-30T12:57:05Z</time>
      </trkpt>
      <trkpt lat="48.68563" lon="4.67195">
        <ele>108.9</ele>
        <time>2020-06-30T12:57:06Z</time>
      </trkpt>
      <trkpt lat="48.68566" lon="4.67184">
        <ele>108.9</ele>
        <time>2020-06-30T12:57:07Z</time>
      </trkpt>
      <trkpt lat="48.68569" lon="4.67173">
        <ele>108.9</ele>
        <time>2020-06-30T12:57:08Z</time>
      </trkpt>
      <trkpt lat="48.68572" lon="4.67161">
        <ele>108.9</ele>
        <time>2020-06-30T12:57:09Z</time>
      </trkpt>
      <trkpt lat="48.68576" lon="4.67151">
        <ele>108.9</ele>
        <time>2020-06-30T12:57:10Z</time>
      </trkpt>
      <trkpt lat="48.68579" lon="4.6714">
        <ele>108.9</ele>
        <time>2020-06-30T12:57:11Z</time>
      </trkpt>
      <trkpt lat="48.68582" lon="4.67128">
        <ele>108.8</ele>
        <time>2020-06-30T12:57:12Z</time>
      </trkpt>
      <trkpt lat="48.68585" lon="4.67116">
        <ele>108.8</ele>
        <time>2020-06-30T12:57:13Z</time>
      </trkpt>
      <trkpt lat="48.68588" lon="4.67105">
        <ele>108.8</ele>
        <time>2020-06-30T12:57:14Z</time>
      </trkpt>
      <trkpt lat="48.68591" lon="4.67094">
        <ele>108.9</ele>
        <time>2020-06-30T12:57:15Z</time>
      </trkpt>
      <trkpt lat="48.68595" lon="4.67083">
        <ele>108.9</ele>
        <time>2020-06-30T12:57:16Z</time>
      </trkpt>
      <trkpt lat="48.68599" lon="4.67073">
        <ele>109</ele>
        <time>2020-06-30T12:57:17Z</time>
      </trkpt>
      <trkpt lat="48.68602" lon="4.67062">
        <ele>109</ele>
        <time>2020-06-30T12:57:18Z</time>
      </trkpt>
      <trkpt lat="48.68606" lon="4.67051">
        <ele>109</ele>
        <time>2020-06-30T12:57:19Z</time>
      </trkpt>
      <trkpt lat="48.68609" lon="4.6704">
        <ele>109</ele>
        <time>2020-06-30T12:57:20Z</time>
      </trkpt>
      <trkpt lat="48.68613" lon="4.6703">
        <ele>109</ele>
        <time>2020-06-30T12:57:21Z</time>
      </trkpt>
      <trkpt lat="48.68617" lon="4.67019">
        <ele>109</ele>
        <time>2020-06-30T12:57:22Z</time>
      </trkpt>
      <trkpt lat="48.6862" lon="4.67008">
        <ele>109</ele>
        <time>2020-06-30T12:57:23Z</time>
      </trkpt>
      <trkpt lat="48.68624" lon="4.66997">
        <ele>109</ele>
        <time>2020-06-30T12:57:24Z</time>
      </trkpt>
      <trkpt lat="48.68628" lon="4.66985">
        <ele>108.9</ele>
        <time>2020-06-30T12:57:25Z</time>
      </trkpt>
      <trkpt lat="48.68631" lon="4.66975">
        <ele>108.9</ele>
        <time>2020-06-30T12:57:26Z</time>
      </trkpt>
      <trkpt lat="48.68635" lon="4.66964">
        <ele>108.9</ele>
        <time>2020-06-30T12:57:27Z</time>
      </trkpt>
      <trkpt lat="48.68639" lon="4.66953">
        <ele>108.9</ele>
        <time>2020-06-30T12:57:28Z</time>
      </trkpt>
      <trkpt lat="48.68643" lon="4.66943">
        <ele>108.9</ele>
        <time>2020-06-30T12:57:29Z</time>
      </trkpt>
      <trkpt lat="48.68646" lon="4.66932">
        <ele>108.8</ele>
        <time>2020-06-30T12:57:30Z</time>
      </trkpt>
      <trkpt lat="48.68649" lon="4.66922">
        <ele>108.8</ele>
        <time>2020-06-30T12:57:31Z</time>
      </trkpt>
      <trkpt lat="48.68653" lon="4.66911">
        <ele>108.8</ele>
        <time>2020-06-30T12:57:32Z</time>
      </trkpt>
      <trkpt lat="48.68655" lon="4.669">
        <ele>108.8</ele>
        <time>2020-06-30T12:57:33Z</time>
      </trkpt>
      <trkpt lat="48.68659" lon="4.66889">
        <ele>108.7</ele>
        <time>2020-06-30T12:57:34Z</time>
      </trkpt>
      <trkpt lat="48.68665" lon="4.66879">
        <ele>108.7</ele>
        <time>2020-06-30T12:57:35Z</time>
      </trkpt>
      <trkpt lat="48.68671" lon="4.66869">
        <ele>108.7</ele>
        <time>2020-06-30T12:57:36Z</time>
      </trkpt>
      <trkpt lat="48.68677" lon="4.6686">
        <ele>108.6</ele>
        <time>2020-06-30T12:57:37Z</time>
      </trkpt>
      <trkpt lat="48.68683" lon="4.66848">
        <ele>108.6</ele>
        <time>2020-06-30T12:57:38Z</time>
      </trkpt>
      <trkpt lat="48.68687" lon="4.66835">
        <ele>108.5</ele>
        <time>2020-06-30T12:57:39Z</time>
      </trkpt>
      <trkpt lat="48.68691" lon="4.66823">
        <ele>108.5</ele>
        <time>2020-06-30T12:57:40Z</time>
      </trkpt>
      <trkpt lat="48.68694" lon="4.66811">
        <ele>108.5</ele>
        <time>2020-06-30T12:57:41Z</time>
      </trkpt>
      <trkpt lat="48.68698" lon="4.66799">
        <ele>108.5</ele>
        <time>2020-06-30T12:57:42Z</time>
      </trkpt>
      <trkpt lat="48.68702" lon="4.66788">
        <ele>108.6</ele>
        <time>2020-06-30T12:57:43Z</time>
      </trkpt>
      <trkpt lat="48.68706" lon="4.66778">
        <ele>108.6</ele>
        <time>2020-06-30T12:57:44Z</time>
      </trkpt>
      <trkpt lat="48.6871" lon="4.66767">
        <ele>108.6</ele>
        <time>2020-06-30T12:57:45Z</time>
      </trkpt>
      <trkpt lat="48.68714" lon="4.66757">
        <ele>108.6</ele>
        <time>2020-06-30T12:57:46Z</time>
      </trkpt>
      <trkpt lat="48.68717" lon="4.66746">
        <ele>108.6</ele>
        <time>2020-06-30T12:57:47Z</time>
      </trkpt>
      <trkpt lat="48.68721" lon="4.66735">
        <ele>108.6</ele>
        <time>2020-06-30T12:57:48Z</time>
      </trkpt>
      <trkpt lat="48.68725" lon="4.66724">
        <ele>108.6</ele>
        <time>2020-06-30T12:57:49Z</time>
      </trkpt>
      <trkpt lat="48.68728" lon="4.66714">
        <ele>108.6</ele>
        <time>2020-06-30T12:57:50Z</time>
      </trkpt>
      <trkpt lat="48.68732" lon="4.66703">
        <ele>108.6</ele>
        <time>2020-06-30T12:57:51Z</time>
      </trkpt>
      <trkpt lat="48.68736" lon="4.66694">
        <ele>108.6</ele>
        <time>2020-06-30T12:57:52Z</time>
      </trkpt>
      <trkpt lat="48.68739" lon="4.66684">
        <ele>108.6</ele>
        <time>2020-06-30T12:57:53Z</time>
      </trkpt>
      <trkpt lat="48.68743" lon="4.66675">
        <ele>108.6</ele>
        <time>2020-06-30T12:57:54Z</time>
      </trkpt>
      <trkpt lat="48.68747" lon="4.66666">
        <ele>108.6</ele>
        <time>2020-06-30T12:57:55Z</time>
      </trkpt>
      <trkpt lat="48.68751" lon="4.66656">
        <ele>108.6</ele>
        <time>2020-06-30T12:57:56Z</time>
      </trkpt>
      <trkpt lat="48.68755" lon="4.66645">
        <ele>108.5</ele>
        <time>2020-06-30T12:57:57Z</time>
      </trkpt>
      <trkpt lat="48.68759" lon="4.66636">
        <ele>108.5</ele>
        <time>2020-06-30T12:57:58Z</time>
      </trkpt>
      <trkpt lat="48.68763" lon="4.66626">
        <ele>108.5</ele>
        <time>2020-06-30T12:57:59Z</time>
      </trkpt>
      <trkpt lat="48.68767" lon="4.66615">
        <ele>108.6</ele>
        <time>2020-06-30T12:58:00Z</time>
      </trkpt>
      <trkpt lat="48.68771" lon="4.66605">
        <ele>108.6</ele>
        <time>2020-06-30T12:58:01Z</time>
      </trkpt>
      <trkpt lat="48.68775" lon="4.66596">
        <ele>108.6</ele>
        <time>2020-06-30T12:58:02Z</time>
      </trkpt>
      <trkpt lat="48.68779" lon="4.66587">
        <ele>108.7</ele>
        <time>2020-06-30T12:58:03Z</time>
      </trkpt>
      <trkpt lat="48.68783" lon="4.66578">
        <ele>108.7</ele>
        <time>2020-06-30T12:58:04Z</time>
      </trkpt>
      <trkpt lat="48.68786" lon="4.66568">
        <ele>108.7</ele>
        <time>2020-06-30T12:58:05Z</time>
      </trkpt>
      <trkpt lat="48.6879" lon="4.66558">
        <ele>108.7</ele>
        <time>2020-06-30T12:58:06Z</time>
      </trkpt>
      <trkpt lat="48.68793" lon="4.66547">
        <ele>108.8</ele>
        <time>2020-06-30T12:58:07Z</time>
      </trkpt>
      <trkpt lat="48.68797" lon="4.66535">
        <ele>108.8</ele>
        <time>2020-06-30T12:58:08Z</time>
      </trkpt>
      <trkpt lat="48.68799" lon="4.66522">
        <ele>108.7</ele>
        <time>2020-06-30T12:58:09Z</time>
      </trkpt>
      <trkpt lat="48.68802" lon="4.66508">
        <ele>108.7</ele>
        <time>2020-06-30T12:58:10Z</time>
      </trkpt>
      <trkpt lat="48.68805" lon="4.66495">
        <ele>108.7</ele>
        <time>2020-06-30T12:58:11Z</time>
      </trkpt>
      <trkpt lat="48.68808" lon="4.66483">
        <ele>108.7</ele>
        <time>2020-06-30T12:58:12Z</time>
      </trkpt>
      <trkpt lat="48.68811" lon="4.66472">
        <ele>108.7</ele>
        <time>2020-06-30T12:58:13Z</time>
      </trkpt>
      <trkpt lat="48.68814" lon="4.6646">
        <ele>108.7</ele>
        <time>2020-06-30T12:58:14Z</time>
      </trkpt>
      <trkpt lat="48.68818" lon="4.66447">
        <ele>108.6</ele>
        <time>2020-06-30T12:58:15Z</time>
      </trkpt>
      <trkpt lat="48.6882" lon="4.66434">
        <ele>108.6</ele>
        <time>2020-06-30T12:58:16Z</time>
      </trkpt>
      <trkpt lat="48.68823" lon="4.66421">
        <ele>108.6</ele>
        <time>2020-06-30T12:58:17Z</time>
      </trkpt>
      <trkpt lat="48.68826" lon="4.66409">
        <ele>108.6</ele>
        <time>2020-06-30T12:58:18Z</time>
      </trkpt>
      <trkpt lat="48.6883" lon="4.66397">
        <ele>108.6</ele>
        <time>2020-06-30T12:58:19Z</time>
      </trkpt>
      <trkpt lat="48.68833" lon="4.66386">
        <ele>108.6</ele>
        <time>2020-06-30T12:58:20Z</time>
      </trkpt>
      <trkpt lat="48.68836" lon="4.66377">
        <ele>108.6</ele>
        <time>2020-06-30T12:58:21Z</time>
      </trkpt>
      <trkpt lat="48.68839" lon="4.66366">
        <ele>108.6</ele>
        <time>2020-06-30T12:58:22Z</time>
      </trkpt>
      <trkpt lat="48.68842" lon="4.66356">
        <ele>108.6</ele>
        <time>2020-06-30T12:58:23Z</time>
      </trkpt>
      <trkpt lat="48.68847" lon="4.66346">
        <ele>108.6</ele>
        <time>2020-06-30T12:58:24Z</time>
      </trkpt>
      <trkpt lat="48.68849" lon="4.66334">
        <ele>108.7</ele>
        <time>2020-06-30T12:58:25Z</time>
      </trkpt>
      <trkpt lat="48.68852" lon="4.66322">
        <ele>108.7</ele>
        <time>2020-06-30T12:58:26Z</time>
      </trkpt>
      <trkpt lat="48.68855" lon="4.6631">
        <ele>108.8</ele>
        <time>2020-06-30T12:58:27Z</time>
      </trkpt>
      <trkpt lat="48.68859" lon="4.66299">
        <ele>108.8</ele>
        <time>2020-06-30T12:58:28Z</time>
      </trkpt>
      <trkpt lat="48.68862" lon="4.66287">
        <ele>109</ele>
        <time>2020-06-30T12:58:29Z</time>
      </trkpt>
      <trkpt lat="48.68865" lon="4.66275">
        <ele>109.1</ele>
        <time>2020-06-30T12:58:30Z</time>
      </trkpt>
      <trkpt lat="48.68869" lon="4.66263">
        <ele>109.2</ele>
        <time>2020-06-30T12:58:31Z</time>
      </trkpt>
      <trkpt lat="48.68872" lon="4.66253">
        <ele>109.2</ele>
        <time>2020-06-30T12:58:32Z</time>
      </trkpt>
      <trkpt lat="48.68876" lon="4.66244">
        <ele>109.2</ele>
        <time>2020-06-30T12:58:33Z</time>
      </trkpt>
      <trkpt lat="48.6888" lon="4.66233">
        <ele>109.2</ele>
        <time>2020-06-30T12:58:34Z</time>
      </trkpt>
      <trkpt lat="48.68883" lon="4.66221">
        <ele>109.2</ele>
        <time>2020-06-30T12:58:35Z</time>
      </trkpt>
      <trkpt lat="48.68886" lon="4.6621">
        <ele>109.2</ele>
        <time>2020-06-30T12:58:36Z</time>
      </trkpt>
      <trkpt lat="48.68888" lon="4.66197">
        <ele>109.1</ele>
        <time>2020-06-30T12:58:37Z</time>
      </trkpt>
      <trkpt lat="48.6889" lon="4.66185">
        <ele>109.1</ele>
        <time>2020-06-30T12:58:38Z</time>
      </trkpt>
      <trkpt lat="48.68893" lon="4.66174">
        <ele>109.1</ele>
        <time>2020-06-30T12:58:39Z</time>
      </trkpt>
      <trkpt lat="48.68896" lon="4.66164">
        <ele>109.1</ele>
        <time>2020-06-30T12:58:40Z</time>
      </trkpt>
      <trkpt lat="48.68899" lon="4.66154">
        <ele>109.1</ele>
        <time>2020-06-30T12:58:41Z</time>
      </trkpt>
      <trkpt lat="48.68902" lon="4.66144">
        <ele>109.1</ele>
        <time>2020-06-30T12:58:42Z</time>
      </trkpt>
      <trkpt lat="48.68905" lon="4.66133">
        <ele>109.1</ele>
        <time>2020-06-30T12:58:43Z</time>
      </trkpt>
      <trkpt lat="48.68908" lon="4.66122">
        <ele>109.1</ele>
        <time>2020-06-30T12:58:44Z</time>
      </trkpt>
      <trkpt lat="48.68911" lon="4.66111">
        <ele>109.1</ele>
        <time>2020-06-30T12:58:45Z</time>
      </trkpt>
      <trkpt lat="48.68914" lon="4.661">
        <ele>109.1</ele>
        <time>2020-06-30T12:58:46Z</time>
      </trkpt>
      <trkpt lat="48.68916" lon="4.66089">
        <ele>109.1</ele>
        <time>2020-06-30T12:58:47Z</time>
      </trkpt>
      <trkpt lat="48.68918" lon="4.66078">
        <ele>109.1</ele>
        <time>2020-06-30T12:58:48Z</time>
      </trkpt>
      <trkpt lat="48.68921" lon="4.66068">
        <ele>109.1</ele>
        <time>2020-06-30T12:58:49Z</time>
      </trkpt>
      <trkpt lat="48.68924" lon="4.66058">
        <ele>109.1</ele>
        <time>2020-06-30T12:58:50Z</time>
      </trkpt>
      <trkpt lat="48.68926" lon="4.66047">
        <ele>109.1</ele>
        <time>2020-06-30T12:58:51Z</time>
      </trkpt>
      <trkpt lat="48.68929" lon="4.66037">
        <ele>109</ele>
        <time>2020-06-30T12:58:52Z</time>
      </trkpt>
      <trkpt lat="48.68931" lon="4.66025">
        <ele>109</ele>
        <time>2020-06-30T12:58:53Z</time>
      </trkpt>
      <trkpt lat="48.68934" lon="4.66015">
        <ele>109</ele>
        <time>2020-06-30T12:58:54Z</time>
      </trkpt>
      <trkpt lat="48.68936" lon="4.66004">
        <ele>109</ele>
        <time>2020-06-30T12:58:55Z</time>
      </trkpt>
      <trkpt lat="48.68939" lon="4.65994">
        <ele>109</ele>
        <time>2020-06-30T12:58:56Z</time>
      </trkpt>
      <trkpt lat="48.68941" lon="4.65983">
        <ele>109</ele>
        <time>2020-06-30T12:58:57Z</time>
      </trkpt>
      <trkpt lat="48.68943" lon="4.65973">
        <ele>109</ele>
        <time>2020-06-30T12:58:58Z</time>
      </trkpt>
      <trkpt lat="48.68945" lon="4.65962">
        <ele>109</ele>
        <time>2020-06-30T12:58:59Z</time>
      </trkpt>
      <trkpt lat="48.68946" lon="4.65951">
        <ele>108.9</ele>
        <time>2020-06-30T12:59:00Z</time>
      </trkpt>
      <trkpt lat="48.68947" lon="4.6594">
        <ele>108.9</ele>
        <time>2020-06-30T12:59:01Z</time>
      </trkpt>
      <trkpt lat="48.68949" lon="4.65929">
        <ele>108.9</ele>
        <time>2020-06-30T12:59:02Z</time>
      </trkpt>
      <trkpt lat="48.6895" lon="4.65918">
        <ele>108.9</ele>
        <time>2020-06-30T12:59:03Z</time>
      </trkpt>
      <trkpt lat="48.68951" lon="4.65907">
        <ele>108.9</ele>
        <time>2020-06-30T12:59:04Z</time>
      </trkpt>
      <trkpt lat="48.68953" lon="4.65896">
        <ele>108.9</ele>
        <time>2020-06-30T12:59:05Z</time>
      </trkpt>
      <trkpt lat="48.68954" lon="4.65885">
        <ele>108.9</ele>
        <time>2020-06-30T12:59:06Z</time>
      </trkpt>
      <trkpt lat="48.68955" lon="4.65874">
        <ele>108.9</ele>
        <time>2020-06-30T12:59:07Z</time>
      </trkpt>
      <trkpt lat="48.68957" lon="4.65863">
        <ele>108.9</ele>
        <time>2020-06-30T12:59:08Z</time>
      </trkpt>
      <trkpt lat="48.68958" lon="4.65852">
        <ele>109</ele>
        <time>2020-06-30T12:59:09Z</time>
      </trkpt>
      <trkpt lat="48.68958" lon="4.65841">
        <ele>109</ele>
        <time>2020-06-30T12:59:10Z</time>
      </trkpt>
      <trkpt lat="48.68958" lon="4.6583">
        <ele>109</ele>
        <time>2020-06-30T12:59:11Z</time>
      </trkpt>
      <trkpt lat="48.68959" lon="4.6582">
        <ele>109</ele>
        <time>2020-06-30T12:59:12Z</time>
      </trkpt>
      <trkpt lat="48.6896" lon="4.6581">
        <ele>109</ele>
        <time>2020-06-30T12:59:13Z</time>
      </trkpt>
      <trkpt lat="48.68961" lon="4.65799">
        <ele>109.1</ele>
        <time>2020-06-30T12:59:14Z</time>
      </trkpt>
      <trkpt lat="48.68962" lon="4.65789">
        <ele>109.1</ele>
        <time>2020-06-30T12:59:15Z</time>
      </trkpt>
      <trkpt lat="48.68963" lon="4.65778">
        <ele>109.1</ele>
        <time>2020-06-30T12:59:16Z</time>
      </trkpt>
      <trkpt lat="48.68963" lon="4.65766">
        <ele>109.1</ele>
        <time>2020-06-30T12:59:17Z</time>
      </trkpt>
      <trkpt lat="48.68963" lon="4.65755">
        <ele>109</ele>
        <time>2020-06-30T12:59:18Z</time>
      </trkpt>
      <trkpt lat="48.68964" lon="4.65743">
        <ele>109</ele>
        <time>2020-06-30T12:59:19Z</time>
      </trkpt>
      <trkpt lat="48.68965" lon="4.65732">
        <ele>108.9</ele>
        <time>2020-06-30T12:59:20Z</time>
      </trkpt>
      <trkpt lat="48.68964" lon="4.6572">
        <ele>108.8</ele>
        <time>2020-06-30T12:59:21Z</time>
      </trkpt>
      <trkpt lat="48.68964" lon="4.65709">
        <ele>108.7</ele>
        <time>2020-06-30T12:59:22Z</time>
      </trkpt>
      <trkpt lat="48.68963" lon="4.65698">
        <ele>108.7</ele>
        <time>2020-06-30T12:59:23Z</time>
      </trkpt>
      <trkpt lat="48.68964" lon="4.65687">
        <ele>108.7</ele>
        <time>2020-06-30T12:59:24Z</time>
      </trkpt>
      <trkpt lat="48.68965" lon="4.65676">
        <ele>108.6</ele>
        <time>2020-06-30T12:59:25Z</time>
      </trkpt>
      <trkpt lat="48.68968" lon="4.65665">
        <ele>108.6</ele>
        <time>2020-06-30T12:59:26Z</time>
      </trkpt>
      <trkpt lat="48.68969" lon="4.65654">
        <ele>108.7</ele>
        <time>2020-06-30T12:59:27Z</time>
      </trkpt>
      <trkpt lat="48.68969" lon="4.65642">
        <ele>108.7</ele>
        <time>2020-06-30T12:59:28Z</time>
      </trkpt>
      <trkpt lat="48.6897" lon="4.65631">
        <ele>108.8</ele>
        <time>2020-06-30T12:59:29Z</time>
      </trkpt>
      <trkpt lat="48.6897" lon="4.65621">
        <ele>108.8</ele>
        <time>2020-06-30T12:59:30Z</time>
      </trkpt>
      <trkpt lat="48.68971" lon="4.65611">
        <ele>108.8</ele>
        <time>2020-06-30T12:59:31Z</time>
      </trkpt>
      <trkpt lat="48.68972" lon="4.656">
        <ele>108.8</ele>
        <time>2020-06-30T12:59:32Z</time>
      </trkpt>
      <trkpt lat="48.68973" lon="4.6559">
        <ele>108.9</ele>
        <time>2020-06-30T12:59:33Z</time>
      </trkpt>
      <trkpt lat="48.68974" lon="4.65579">
        <ele>108.9</ele>
        <time>2020-06-30T12:59:34Z</time>
      </trkpt>
      <trkpt lat="48.68975" lon="4.65568">
        <ele>108.9</ele>
        <time>2020-06-30T12:59:35Z</time>
      </trkpt>
      <trkpt lat="48.68976" lon="4.65557">
        <ele>108.9</ele>
        <time>2020-06-30T12:59:36Z</time>
      </trkpt>
      <trkpt lat="48.68977" lon="4.65546">
        <ele>108.9</ele>
        <time>2020-06-30T12:59:37Z</time>
      </trkpt>
      <trkpt lat="48.68978" lon="4.65535">
        <ele>108.9</ele>
        <time>2020-06-30T12:59:38Z</time>
      </trkpt>
      <trkpt lat="48.68979" lon="4.65524">
        <ele>108.9</ele>
        <time>2020-06-30T12:59:39Z</time>
      </trkpt>
      <trkpt lat="48.6898" lon="4.65513">
        <ele>108.9</ele>
        <time>2020-06-30T12:59:40Z</time>
      </trkpt>
      <trkpt lat="48.68981" lon="4.65502">
        <ele>108.9</ele>
        <time>2020-06-30T12:59:41Z</time>
      </trkpt>
      <trkpt lat="48.68982" lon="4.65491">
        <ele>108.8</ele>
        <time>2020-06-30T12:59:42Z</time>
      </trkpt>
      <trkpt lat="48.68982" lon="4.6548">
        <ele>108.8</ele>
        <time>2020-06-30T12:59:43Z</time>
      </trkpt>
      <trkpt lat="48.68983" lon="4.65469">
        <ele>108.7</ele>
        <time>2020-06-30T12:59:44Z</time>
      </trkpt>
      <trkpt lat="48.68985" lon="4.65459">
        <ele>108.8</ele>
        <time>2020-06-30T12:59:45Z</time>
      </trkpt>
      <trkpt lat="48.68986" lon="4.65449">
        <ele>108.9</ele>
        <time>2020-06-30T12:59:46Z</time>
      </trkpt>
      <trkpt lat="48.68988" lon="4.65439">
        <ele>108.9</ele>
        <time>2020-06-30T12:59:47Z</time>
      </trkpt>
      <trkpt lat="48.68989" lon="4.65429">
        <ele>108.9</ele>
        <time>2020-06-30T12:59:48Z</time>
      </trkpt>
      <trkpt lat="48.68989" lon="4.65418">
        <ele>108.9</ele>
        <time>2020-06-30T12:59:49Z</time>
      </trkpt>
      <trkpt lat="48.6899" lon="4.65404">
        <ele>108.9</ele>
        <time>2020-06-30T12:59:50Z</time>
      </trkpt>
      <trkpt lat="48.68991" lon="4.6539">
        <ele>109</ele>
        <time>2020-06-30T12:59:51Z</time>
      </trkpt>
      <trkpt lat="48.68991" lon="4.65377">
        <ele>109</ele>
        <time>2020-06-30T12:59:52Z</time>
      </trkpt>
      <trkpt lat="48.68991" lon="4.65363">
        <ele>108.9</ele>
        <time>2020-06-30T12:59:53Z</time>
      </trkpt>
      <trkpt lat="48.68992" lon="4.65351">
        <ele>108.9</ele>
        <time>2020-06-30T12:59:54Z</time>
      </trkpt>
      <trkpt lat="48.68992" lon="4.65338">
        <ele>108.8</ele>
        <time>2020-06-30T12:59:55Z</time>
      </trkpt>
      <trkpt lat="48.68992" lon="4.65325">
        <ele>108.8</ele>
        <time>2020-06-30T12:59:56Z</time>
      </trkpt>
      <trkpt lat="48.68992" lon="4.65309">
        <ele>108.8</ele>
        <time>2020-06-30T12:59:57Z</time>
      </trkpt>
      <trkpt lat="48.68992" lon="4.65296">
        <ele>108.8</ele>
        <time>2020-06-30T12:59:58Z</time>
      </trkpt>
      <trkpt lat="48.68992" lon="4.65281">
        <ele>108.7</ele>
        <time>2020-06-30T12:59:59Z</time>
      </trkpt>
      <trkpt lat="48.68992" lon="4.65265">
        <ele>108.7</ele>
        <time>2020-06-30T13:00:00Z</time>
      </trkpt>
      <trkpt lat="48.68992" lon="4.65249">
        <ele>108.8</ele>
        <time>2020-06-30T13:00:01Z</time>
      </trkpt>
      <trkpt lat="48.68992" lon="4.65236">
        <ele>108.8</ele>
        <time>2020-06-30T13:00:02Z</time>
      </trkpt>
      <trkpt lat="48.68993" lon="4.65222">
        <ele>108.8</ele>
        <time>2020-06-30T13:00:03Z</time>
      </trkpt>
      <trkpt lat="48.68994" lon="4.65208">
        <ele>108.7</ele>
        <time>2020-06-30T13:00:04Z</time>
      </trkpt>
      <trkpt lat="48.68994" lon="4.65194">
        <ele>108.7</ele>
        <time>2020-06-30T13:00:05Z</time>
      </trkpt>
      <trkpt lat="48.68995" lon="4.65179">
        <ele>108.7</ele>
        <time>2020-06-30T13:00:06Z</time>
      </trkpt>
      <trkpt lat="48.68996" lon="4.65166">
        <ele>108.7</ele>
        <time>2020-06-30T13:00:07Z</time>
      </trkpt>
      <trkpt lat="48.68996" lon="4.65153">
        <ele>108.7</ele>
        <time>2020-06-30T13:00:08Z</time>
      </trkpt>
      <trkpt lat="48.68997" lon="4.6514">
        <ele>108.7</ele>
        <time>2020-06-30T13:00:09Z</time>
      </trkpt>
      <trkpt lat="48.68998" lon="4.65127">
        <ele>108.6</ele>
        <time>2020-06-30T13:00:10Z</time>
      </trkpt>
      <trkpt lat="48.68999" lon="4.65116">
        <ele>108.6</ele>
        <time>2020-06-30T13:00:11Z</time>
      </trkpt>
      <trkpt lat="48.69" lon="4.65103">
        <ele>108.6</ele>
        <time>2020-06-30T13:00:12Z</time>
      </trkpt>
      <trkpt lat="48.69" lon="4.6509">
        <ele>108.5</ele>
        <time>2020-06-30T13:00:13Z</time>
      </trkpt>
      <trkpt lat="48.69" lon="4.65077">
        <ele>108.5</ele>
        <time>2020-06-30T13:00:14Z</time>
      </trkpt>
      <trkpt lat="48.69001" lon="4.65064">
        <ele>108.5</ele>
        <time>2020-06-30T13:00:15Z</time>
      </trkpt>
      <trkpt lat="48.69001" lon="4.65052">
        <ele>108.6</ele>
        <time>2020-06-30T13:00:16Z</time>
      </trkpt>
      <trkpt lat="48.69002" lon="4.65041">
        <ele>108.6</ele>
        <time>2020-06-30T13:00:17Z</time>
      </trkpt>
      <trkpt lat="48.69003" lon="4.6503">
        <ele>108.7</ele>
        <time>2020-06-30T13:00:18Z</time>
      </trkpt>
      <trkpt lat="48.69004" lon="4.65017">
        <ele>108.7</ele>
        <time>2020-06-30T13:00:19Z</time>
      </trkpt>
      <trkpt lat="48.69004" lon="4.65005">
        <ele>108.7</ele>
        <time>2020-06-30T13:00:20Z</time>
      </trkpt>
      <trkpt lat="48.69004" lon="4.64996">
        <ele>108.7</ele>
        <time>2020-06-30T13:00:21Z</time>
      </trkpt>
      <trkpt lat="48.69005" lon="4.64985">
        <ele>108.7</ele>
        <time>2020-06-30T13:00:22Z</time>
      </trkpt>
      <trkpt lat="48.69007" lon="4.64975">
        <ele>108.7</ele>
        <time>2020-06-30T13:00:23Z</time>
      </trkpt>
      <trkpt lat="48.69006" lon="4.64966">
        <ele>108.7</ele>
        <time>2020-06-30T13:00:24Z</time>
      </trkpt>
      <trkpt lat="48.69006" lon="4.64956">
        <ele>108.7</ele>
        <time>2020-06-30T13:00:25Z</time>
      </trkpt>
      <trkpt lat="48.69006" lon="4.64946">
        <ele>108.7</ele>
        <time>2020-06-30T13:00:26Z</time>
      </trkpt>
      <trkpt lat="48.69007" lon="4.64934">
        <ele>108.7</ele>
        <time>2020-06-30T13:00:27Z</time>
      </trkpt>
      <trkpt lat="48.69008" lon="4.64923">
        <ele>108.7</ele>
        <time>2020-06-30T13:00:28Z</time>
      </trkpt>
      <trkpt lat="48.69008" lon="4.64913">
        <ele>108.6</ele>
        <time>2020-06-30T13:00:29Z</time>
      </trkpt>
      <trkpt lat="48.69009" lon="4.64901">
        <ele>108.6</ele>
        <time>2020-06-30T13:00:30Z</time>
      </trkpt>
      <trkpt lat="48.69009" lon="4.64889">
        <ele>108.6</ele>
        <time>2020-06-30T13:00:31Z</time>
      </trkpt>
      <trkpt lat="48.6901" lon="4.64876">
        <ele>108.6</ele>
        <time>2020-06-30T13:00:32Z</time>
      </trkpt>
      <trkpt lat="48.6901" lon="4.64863">
        <ele>108.6</ele>
        <time>2020-06-30T13:00:33Z</time>
      </trkpt>
      <trkpt lat="48.6901" lon="4.64851">
        <ele>108.6</ele>
        <time>2020-06-30T13:00:34Z</time>
      </trkpt>
      <trkpt lat="48.69009" lon="4.64837">
        <ele>108.6</ele>
        <time>2020-06-30T13:00:35Z</time>
      </trkpt>
      <trkpt lat="48.6901" lon="4.64826">
        <ele>108.6</ele>
        <time>2020-06-30T13:00:36Z</time>
      </trkpt>
      <trkpt lat="48.6901" lon="4.64815">
        <ele>108.6</ele>
        <time>2020-06-30T13:00:37Z</time>
      </trkpt>
      <trkpt lat="48.69011" lon="4.64802">
        <ele>108.7</ele>
        <time>2020-06-30T13:00:38Z</time>
      </trkpt>
      <trkpt lat="48.69011" lon="4.64791">
        <ele>108.7</ele>
        <time>2020-06-30T13:00:39Z</time>
      </trkpt>
      <trkpt lat="48.69012" lon="4.64778">
        <ele>108.6</ele>
        <time>2020-06-30T13:00:40Z</time>
      </trkpt>
      <trkpt lat="48.69012" lon="4.64767">
        <ele>108.6</ele>
        <time>2020-06-30T13:00:41Z</time>
      </trkpt>
      <trkpt lat="48.69012" lon="4.64757">
        <ele>108.6</ele>
        <time>2020-06-30T13:00:42Z</time>
      </trkpt>
      <trkpt lat="48.69013" lon="4.64744">
        <ele>108.6</ele>
        <time>2020-06-30T13:00:43Z</time>
      </trkpt>
      <trkpt lat="48.69014" lon="4.64733">
        <ele>108.6</ele>
        <time>2020-06-30T13:00:44Z</time>
      </trkpt>
      <trkpt lat="48.69015" lon="4.64721">
        <ele>108.6</ele>
        <time>2020-06-30T13:00:45Z</time>
      </trkpt>
      <trkpt lat="48.69015" lon="4.6471">
        <ele>108.6</ele>
        <time>2020-06-30T13:00:46Z</time>
      </trkpt>
      <trkpt lat="48.69015" lon="4.64697">
        <ele>108.6</ele>
        <time>2020-06-30T13:00:47Z</time>
      </trkpt>
      <trkpt lat="48.69015" lon="4.64685">
        <ele>108.6</ele>
        <time>2020-06-30T13:00:48Z</time>
      </trkpt>
      <trkpt lat="48.69014" lon="4.64674">
        <ele>108.6</ele>
        <time>2020-06-30T13:00:49Z</time>
      </trkpt>
      <trkpt lat="48.69015" lon="4.64663">
        <ele>108.6</ele>
        <time>2020-06-30T13:00:50Z</time>
      </trkpt>
      <trkpt lat="48.69014" lon="4.64652">
        <ele>108.6</ele>
        <time>2020-06-30T13:00:51Z</time>
      </trkpt>
      <trkpt lat="48.69015" lon="4.64641">
        <ele>108.5</ele>
        <time>2020-06-30T13:00:52Z</time>
      </trkpt>
      <trkpt lat="48.69016" lon="4.6463">
        <ele>108.5</ele>
        <time>2020-06-30T13:00:53Z</time>
      </trkpt>
      <trkpt lat="48.69017" lon="4.64618">
        <ele>108.5</ele>
        <time>2020-06-30T13:00:54Z</time>
      </trkpt>
      <trkpt lat="48.69017" lon="4.64606">
        <ele>108.5</ele>
        <time>2020-06-30T13:00:55Z</time>
      </trkpt>
      <trkpt lat="48.69017" lon="4.64593">
        <ele>108.5</ele>
        <time>2020-06-30T13:00:56Z</time>
      </trkpt>
      <trkpt lat="48.69019" lon="4.64581">
        <ele>108.5</ele>
        <time>2020-06-30T13:00:57Z</time>
      </trkpt>
      <trkpt lat="48.6902" lon="4.64569">
        <ele>108.4</ele>
        <time>2020-06-30T13:00:58Z</time>
      </trkpt>
      <trkpt lat="48.6902" lon="4.64557">
        <ele>108.4</ele>
        <time>2020-06-30T13:00:59Z</time>
      </trkpt>
      <trkpt lat="48.69021" lon="4.64545">
        <ele>108.4</ele>
        <time>2020-06-30T13:01:00Z</time>
      </trkpt>
      <trkpt lat="48.69022" lon="4.64533">
        <ele>108.5</ele>
        <time>2020-06-30T13:01:01Z</time>
      </trkpt>
      <trkpt lat="48.69023" lon="4.64522">
        <ele>108.5</ele>
        <time>2020-06-30T13:01:02Z</time>
      </trkpt>
      <trkpt lat="48.69024" lon="4.64511">
        <ele>108.5</ele>
        <time>2020-06-30T13:01:03Z</time>
      </trkpt>
      <trkpt lat="48.69025" lon="4.64501">
        <ele>108.4</ele>
        <time>2020-06-30T13:01:04Z</time>
      </trkpt>
      <trkpt lat="48.69024" lon="4.64489">
        <ele>108.4</ele>
        <time>2020-06-30T13:01:05Z</time>
      </trkpt>
      <trkpt lat="48.69024" lon="4.64478">
        <ele>108.4</ele>
        <time>2020-06-30T13:01:06Z</time>
      </trkpt>
      <trkpt lat="48.69024" lon="4.64467">
        <ele>108.4</ele>
        <time>2020-06-30T13:01:07Z</time>
      </trkpt>
      <trkpt lat="48.69023" lon="4.64457">
        <ele>108.4</ele>
        <time>2020-06-30T13:01:08Z</time>
      </trkpt>
      <trkpt lat="48.69022" lon="4.64447">
        <ele>108.4</ele>
        <time>2020-06-30T13:01:09Z</time>
      </trkpt>
      <trkpt lat="48.69023" lon="4.64438">
        <ele>108.4</ele>
        <time>2020-06-30T13:01:10Z</time>
      </trkpt>
      <trkpt lat="48.69025" lon="4.64429">
        <ele>108.4</ele>
        <time>2020-06-30T13:01:11Z</time>
      </trkpt>
      <trkpt lat="48.69027" lon="4.64419">
        <ele>108.4</ele>
        <time>2020-06-30T13:01:12Z</time>
      </trkpt>
      <trkpt lat="48.69028" lon="4.64409">
        <ele>108.4</ele>
        <time>2020-06-30T13:01:13Z</time>
      </trkpt>
      <trkpt lat="48.69029" lon="4.64398">
        <ele>108.4</ele>
        <time>2020-06-30T13:01:14Z</time>
      </trkpt>
      <trkpt lat="48.69031" lon="4.64386">
        <ele>108.4</ele>
        <time>2020-06-30T13:01:15Z</time>
      </trkpt>
      <trkpt lat="48.69033" lon="4.64374">
        <ele>108.4</ele>
        <time>2020-06-30T13:01:16Z</time>
      </trkpt>
      <trkpt lat="48.69033" lon="4.64363">
        <ele>108.4</ele>
        <time>2020-06-30T13:01:17Z</time>
      </trkpt>
      <trkpt lat="48.69034" lon="4.64352">
        <ele>108.4</ele>
        <time>2020-06-30T13:01:18Z</time>
      </trkpt>
      <trkpt lat="48.69035" lon="4.64343">
        <ele>108.4</ele>
        <time>2020-06-30T13:01:19Z</time>
      </trkpt>
      <trkpt lat="48.69035" lon="4.64333">
        <ele>108.4</ele>
        <time>2020-06-30T13:01:20Z</time>
      </trkpt>
      <trkpt lat="48.69036" lon="4.64324">
        <ele>108.4</ele>
        <time>2020-06-30T13:01:21Z</time>
      </trkpt>
      <trkpt lat="48.69037" lon="4.64312">
        <ele>108.4</ele>
        <time>2020-06-30T13:01:22Z</time>
      </trkpt>
      <trkpt lat="48.69038" lon="4.643">
        <ele>108.4</ele>
        <time>2020-06-30T13:01:23Z</time>
      </trkpt>
      <trkpt lat="48.6904" lon="4.64288">
        <ele>108.3</ele>
        <time>2020-06-30T13:01:24Z</time>
      </trkpt>
      <trkpt lat="48.69042" lon="4.64277">
        <ele>108.3</ele>
        <time>2020-06-30T13:01:25Z</time>
      </trkpt>
      <trkpt lat="48.69044" lon="4.64266">
        <ele>108.3</ele>
        <time>2020-06-30T13:01:26Z</time>
      </trkpt>
      <trkpt lat="48.69045" lon="4.64256">
        <ele>108.3</ele>
        <time>2020-06-30T13:01:27Z</time>
      </trkpt>
      <trkpt lat="48.69047" lon="4.64246">
        <ele>108.2</ele>
        <time>2020-06-30T13:01:28Z</time>
      </trkpt>
      <trkpt lat="48.69048" lon="4.64235">
        <ele>108.2</ele>
        <time>2020-06-30T13:01:29Z</time>
      </trkpt>
      <trkpt lat="48.69049" lon="4.64226">
        <ele>108.2</ele>
        <time>2020-06-30T13:01:30Z</time>
      </trkpt>
      <trkpt lat="48.69049" lon="4.64218">
        <ele>108.2</ele>
        <time>2020-06-30T13:01:31Z</time>
      </trkpt>
      <trkpt lat="48.6905" lon="4.6421">
        <ele>108.2</ele>
        <time>2020-06-30T13:01:32Z</time>
      </trkpt>
      <trkpt lat="48.6905" lon="4.64204">
        <ele>108.2</ele>
        <time>2020-06-30T13:01:33Z</time>
      </trkpt>
      <trkpt lat="48.69051" lon="4.64198">
        <ele>108.2</ele>
        <time>2020-06-30T13:01:34Z</time>
      </trkpt>
      <trkpt lat="48.69054" lon="4.64191">
        <ele>108.2</ele>
        <time>2020-06-30T13:01:35Z</time>
      </trkpt>
      <trkpt lat="48.69056" lon="4.64184">
        <ele>108.2</ele>
        <time>2020-06-30T13:01:36Z</time>
      </trkpt>
      <trkpt lat="48.69057" lon="4.64175">
        <ele>108.2</ele>
        <time>2020-06-30T13:01:37Z</time>
      </trkpt>
      <trkpt lat="48.69056" lon="4.64165">
        <ele>108.2</ele>
        <time>2020-06-30T13:01:38Z</time>
      </trkpt>
      <trkpt lat="48.69057" lon="4.64153">
        <ele>108</ele>
        <time>2020-06-30T13:01:39Z</time>
      </trkpt>
      <trkpt lat="48.69058" lon="4.64141">
        <ele>107.6</ele>
        <time>2020-06-30T13:01:40Z</time>
      </trkpt>
      <trkpt lat="48.6906" lon="4.64128">
        <ele>107.2</ele>
        <time>2020-06-30T13:01:41Z</time>
      </trkpt>
      <trkpt lat="48.69061" lon="4.64114">
        <ele>106.7</ele>
        <time>2020-06-30T13:01:42Z</time>
      </trkpt>
      <trkpt lat="48.69064" lon="4.64098">
        <ele>106.3</ele>
        <time>2020-06-30T13:01:43Z</time>
      </trkpt>
      <trkpt lat="48.69066" lon="4.64082">
        <ele>105.9</ele>
        <time>2020-06-30T13:01:44Z</time>
      </trkpt>
      <trkpt lat="48.69066" lon="4.64068">
        <ele>105.7</ele>
        <time>2020-06-30T13:01:45Z</time>
      </trkpt>
      <trkpt lat="48.69067" lon="4.64052">
        <ele>105.5</ele>
        <time>2020-06-30T13:01:46Z</time>
      </trkpt>
      <trkpt lat="48.69067" lon="4.64037">
        <ele>105.5</ele>
        <time>2020-06-30T13:01:47Z</time>
      </trkpt>
      <trkpt lat="48.69066" lon="4.64024">
        <ele>105.4</ele>
        <time>2020-06-30T13:01:48Z</time>
      </trkpt>
      <trkpt lat="48.69065" lon="4.64012">
        <ele>105.4</ele>
        <time>2020-06-30T13:01:49Z</time>
      </trkpt>
      <trkpt lat="48.69064" lon="4.63999">
        <ele>105.4</ele>
        <time>2020-06-30T13:01:50Z</time>
      </trkpt>
      <trkpt lat="48.69064" lon="4.63987">
        <ele>105.3</ele>
        <time>2020-06-30T13:01:51Z</time>
      </trkpt>
      <trkpt lat="48.69063" lon="4.63973">
        <ele>105.3</ele>
        <time>2020-06-30T13:01:52Z</time>
      </trkpt>
      <trkpt lat="48.69063" lon="4.6396">
        <ele>105.3</ele>
        <time>2020-06-30T13:01:53Z</time>
      </trkpt>
      <trkpt lat="48.69063" lon="4.63946">
        <ele>105.3</ele>
        <time>2020-06-30T13:01:54Z</time>
      </trkpt>
      <trkpt lat="48.69063" lon="4.63932">
        <ele>105.2</ele>
        <time>2020-06-30T13:01:55Z</time>
      </trkpt>
      <trkpt lat="48.69064" lon="4.6392">
        <ele>105.2</ele>
        <time>2020-06-30T13:01:56Z</time>
      </trkpt>
      <trkpt lat="48.69065" lon="4.63907">
        <ele>105.2</ele>
        <time>2020-06-30T13:01:57Z</time>
      </trkpt>
      <trkpt lat="48.69065" lon="4.63894">
        <ele>105.2</ele>
        <time>2020-06-30T13:01:58Z</time>
      </trkpt>
      <trkpt lat="48.69066" lon="4.63881">
        <ele>105.2</ele>
        <time>2020-06-30T13:01:59Z</time>
      </trkpt>
      <trkpt lat="48.69067" lon="4.63868">
        <ele>105.2</ele>
        <time>2020-06-30T13:02:00Z</time>
      </trkpt>
      <trkpt lat="48.69067" lon="4.63856">
        <ele>105.3</ele>
        <time>2020-06-30T13:02:01Z</time>
      </trkpt>
      <trkpt lat="48.69068" lon="4.63844">
        <ele>105.3</ele>
        <time>2020-06-30T13:02:02Z</time>
      </trkpt>
      <trkpt lat="48.69069" lon="4.63833">
        <ele>105.3</ele>
        <time>2020-06-30T13:02:03Z</time>
      </trkpt>
      <trkpt lat="48.6907" lon="4.63822">
        <ele>105.3</ele>
        <time>2020-06-30T13:02:04Z</time>
      </trkpt>
      <trkpt lat="48.6907" lon="4.6381">
        <ele>105.4</ele>
        <time>2020-06-30T13:02:05Z</time>
      </trkpt>
      <trkpt lat="48.69071" lon="4.63798">
        <ele>105.4</ele>
        <time>2020-06-30T13:02:06Z</time>
      </trkpt>
      <trkpt lat="48.69072" lon="4.63787">
        <ele>105.4</ele>
        <time>2020-06-30T13:02:07Z</time>
      </trkpt>
      <trkpt lat="48.69073" lon="4.63776">
        <ele>105.3</ele>
        <time>2020-06-30T13:02:08Z</time>
      </trkpt>
      <trkpt lat="48.69074" lon="4.63764">
        <ele>105.3</ele>
        <time>2020-06-30T13:02:09Z</time>
      </trkpt>
      <trkpt lat="48.69075" lon="4.63752">
        <ele>105.3</ele>
        <time>2020-06-30T13:02:10Z</time>
      </trkpt>
      <trkpt lat="48.69075" lon="4.63741">
        <ele>105.3</ele>
        <time>2020-06-30T13:02:11Z</time>
      </trkpt>
      <trkpt lat="48.69076" lon="4.63729">
        <ele>105.4</ele>
        <time>2020-06-30T13:02:12Z</time>
      </trkpt>
      <trkpt lat="48.69076" lon="4.63717">
        <ele>105.4</ele>
        <time>2020-06-30T13:02:13Z</time>
      </trkpt>
      <trkpt lat="48.69076" lon="4.63706">
        <ele>105.3</ele>
        <time>2020-06-30T13:02:14Z</time>
      </trkpt>
      <trkpt lat="48.69076" lon="4.63694">
        <ele>105.3</ele>
        <time>2020-06-30T13:02:15Z</time>
      </trkpt>
      <trkpt lat="48.69077" lon="4.63684">
        <ele>105.3</ele>
        <time>2020-06-30T13:02:16Z</time>
      </trkpt>
      <trkpt lat="48.69077" lon="4.63673">
        <ele>105.3</ele>
        <time>2020-06-30T13:02:17Z</time>
      </trkpt>
      <trkpt lat="48.69078" lon="4.63663">
        <ele>105.4</ele>
        <time>2020-06-30T13:02:18Z</time>
      </trkpt>
      <trkpt lat="48.69079" lon="4.63652">
        <ele>105.4</ele>
        <time>2020-06-30T13:02:19Z</time>
      </trkpt>
      <trkpt lat="48.6908" lon="4.63641">
        <ele>105.4</ele>
        <time>2020-06-30T13:02:20Z</time>
      </trkpt>
      <trkpt lat="48.69081" lon="4.6363">
        <ele>105.4</ele>
        <time>2020-06-30T13:02:21Z</time>
      </trkpt>
      <trkpt lat="48.69082" lon="4.6362">
        <ele>105.5</ele>
        <time>2020-06-30T13:02:22Z</time>
      </trkpt>
      <trkpt lat="48.69083" lon="4.6361">
        <ele>105.5</ele>
        <time>2020-06-30T13:02:23Z</time>
      </trkpt>
      <trkpt lat="48.69084" lon="4.63599">
        <ele>105.5</ele>
        <time>2020-06-30T13:02:24Z</time>
      </trkpt>
      <trkpt lat="48.69085" lon="4.63588">
        <ele>105.5</ele>
        <time>2020-06-30T13:02:25Z</time>
      </trkpt>
      <trkpt lat="48.69086" lon="4.63576">
        <ele>105.5</ele>
        <time>2020-06-30T13:02:26Z</time>
      </trkpt>
      <trkpt lat="48.69088" lon="4.63566">
        <ele>105.5</ele>
        <time>2020-06-30T13:02:27Z</time>
      </trkpt>
      <trkpt lat="48.69089" lon="4.63556">
        <ele>105.5</ele>
        <time>2020-06-30T13:02:28Z</time>
      </trkpt>
      <trkpt lat="48.69091" lon="4.63545">
        <ele>105.5</ele>
        <time>2020-06-30T13:02:29Z</time>
      </trkpt>
      <trkpt lat="48.69092" lon="4.63534">
        <ele>105.5</ele>
        <time>2020-06-30T13:02:30Z</time>
      </trkpt>
      <trkpt lat="48.69093" lon="4.63524">
        <ele>105.4</ele>
        <time>2020-06-30T13:02:31Z</time>
      </trkpt>
      <trkpt lat="48.69094" lon="4.63514">
        <ele>105.4</ele>
        <time>2020-06-30T13:02:32Z</time>
      </trkpt>
      <trkpt lat="48.69094" lon="4.63503">
        <ele>105.4</ele>
        <time>2020-06-30T13:02:33Z</time>
      </trkpt>
      <trkpt lat="48.69094" lon="4.63494">
        <ele>105.4</ele>
        <time>2020-06-30T13:02:34Z</time>
      </trkpt>
      <trkpt lat="48.69095" lon="4.63484">
        <ele>105.4</ele>
        <time>2020-06-30T13:02:35Z</time>
      </trkpt>
      <trkpt lat="48.69095" lon="4.63472">
        <ele>105.5</ele>
        <time>2020-06-30T13:02:36Z</time>
      </trkpt>
      <trkpt lat="48.69095" lon="4.6346">
        <ele>105.5</ele>
        <time>2020-06-30T13:02:37Z</time>
      </trkpt>
      <trkpt lat="48.69095" lon="4.63448">
        <ele>105.5</ele>
        <time>2020-06-30T13:02:38Z</time>
      </trkpt>
      <trkpt lat="48.69096" lon="4.63439">
        <ele>105.5</ele>
        <time>2020-06-30T13:02:39Z</time>
      </trkpt>
      <trkpt lat="48.69098" lon="4.63427">
        <ele>105.5</ele>
        <time>2020-06-30T13:02:40Z</time>
      </trkpt>
      <trkpt lat="48.69099" lon="4.63416">
        <ele>105.5</ele>
        <time>2020-06-30T13:02:41Z</time>
      </trkpt>
      <trkpt lat="48.69099" lon="4.63406">
        <ele>105.5</ele>
        <time>2020-06-30T13:02:42Z</time>
      </trkpt>
      <trkpt lat="48.691" lon="4.63397">
        <ele>105.6</ele>
        <time>2020-06-30T13:02:43Z</time>
      </trkpt>
      <trkpt lat="48.69101" lon="4.63387">
        <ele>105.6</ele>
        <time>2020-06-30T13:02:44Z</time>
      </trkpt>
      <trkpt lat="48.69101" lon="4.63376">
        <ele>105.6</ele>
        <time>2020-06-30T13:02:45Z</time>
      </trkpt>
      <trkpt lat="48.69101" lon="4.63366">
        <ele>105.7</ele>
        <time>2020-06-30T13:02:46Z</time>
      </trkpt>
      <trkpt lat="48.69103" lon="4.63356">
        <ele>105.7</ele>
        <time>2020-06-30T13:02:47Z</time>
      </trkpt>
      <trkpt lat="48.69104" lon="4.63344">
        <ele>105.6</ele>
        <time>2020-06-30T13:02:48Z</time>
      </trkpt>
      <trkpt lat="48.69104" lon="4.63333">
        <ele>105.6</ele>
        <time>2020-06-30T13:02:49Z</time>
      </trkpt>
      <trkpt lat="48.69106" lon="4.63321">
        <ele>105.5</ele>
        <time>2020-06-30T13:02:50Z</time>
      </trkpt>
      <trkpt lat="48.69106" lon="4.6331">
        <ele>105.5</ele>
        <time>2020-06-30T13:02:51Z</time>
      </trkpt>
      <trkpt lat="48.69106" lon="4.63299">
        <ele>105.4</ele>
        <time>2020-06-30T13:02:52Z</time>
      </trkpt>
      <trkpt lat="48.69107" lon="4.63288">
        <ele>105.4</ele>
        <time>2020-06-30T13:02:53Z</time>
      </trkpt>
      <trkpt lat="48.69107" lon="4.63277">
        <ele>105.4</ele>
        <time>2020-06-30T13:02:54Z</time>
      </trkpt>
      <trkpt lat="48.69109" lon="4.63266">
        <ele>105.4</ele>
        <time>2020-06-30T13:02:55Z</time>
      </trkpt>
      <trkpt lat="48.6911" lon="4.63254">
        <ele>105.4</ele>
        <time>2020-06-30T13:02:56Z</time>
      </trkpt>
      <trkpt lat="48.69109" lon="4.63242">
        <ele>105.3</ele>
        <time>2020-06-30T13:02:57Z</time>
      </trkpt>
      <trkpt lat="48.6911" lon="4.6323">
        <ele>105.3</ele>
        <time>2020-06-30T13:02:58Z</time>
      </trkpt>
      <trkpt lat="48.6911" lon="4.63219">
        <ele>105.3</ele>
        <time>2020-06-30T13:02:59Z</time>
      </trkpt>
      <trkpt lat="48.6911" lon="4.63206">
        <ele>105.3</ele>
        <time>2020-06-30T13:03:00Z</time>
      </trkpt>
      <trkpt lat="48.6911" lon="4.63193">
        <ele>105.3</ele>
        <time>2020-06-30T13:03:01Z</time>
      </trkpt>
      <trkpt lat="48.6911" lon="4.6318">
        <ele>105.3</ele>
        <time>2020-06-30T13:03:02Z</time>
      </trkpt>
      <trkpt lat="48.69111" lon="4.6317">
        <ele>105.4</ele>
        <time>2020-06-30T13:03:03Z</time>
      </trkpt>
      <trkpt lat="48.69112" lon="4.63158">
        <ele>105.4</ele>
        <time>2020-06-30T13:03:04Z</time>
      </trkpt>
      <trkpt lat="48.69113" lon="4.63147">
        <ele>105.4</ele>
        <time>2020-06-30T13:03:05Z</time>
      </trkpt>
      <trkpt lat="48.69113" lon="4.63134">
        <ele>105.4</ele>
        <time>2020-06-30T13:03:06Z</time>
      </trkpt>
      <trkpt lat="48.69114" lon="4.63123">
        <ele>105.4</ele>
        <time>2020-06-30T13:03:07Z</time>
      </trkpt>
      <trkpt lat="48.69115" lon="4.63111">
        <ele>105.4</ele>
        <time>2020-06-30T13:03:08Z</time>
      </trkpt>
      <trkpt lat="48.69115" lon="4.63099">
        <ele>105.4</ele>
        <time>2020-06-30T13:03:09Z</time>
      </trkpt>
      <trkpt lat="48.69117" lon="4.63088">
        <ele>105.4</ele>
        <time>2020-06-30T13:03:10Z</time>
      </trkpt>
      <trkpt lat="48.69118" lon="4.63078">
        <ele>105.4</ele>
        <time>2020-06-30T13:03:11Z</time>
      </trkpt>
      <trkpt lat="48.69118" lon="4.63067">
        <ele>105.4</ele>
        <time>2020-06-30T13:03:12Z</time>
      </trkpt>
      <trkpt lat="48.69119" lon="4.63056">
        <ele>105.4</ele>
        <time>2020-06-30T13:03:13Z</time>
      </trkpt>
      <trkpt lat="48.6912" lon="4.63046">
        <ele>105.4</ele>
        <time>2020-06-30T13:03:14Z</time>
      </trkpt>
      <trkpt lat="48.69121" lon="4.63036">
        <ele>105.4</ele>
        <time>2020-06-30T13:03:15Z</time>
      </trkpt>
      <trkpt lat="48.69122" lon="4.63025">
        <ele>105.4</ele>
        <time>2020-06-30T13:03:16Z</time>
      </trkpt>
      <trkpt lat="48.69121" lon="4.63014">
        <ele>105.4</ele>
        <time>2020-06-30T13:03:17Z</time>
      </trkpt>
      <trkpt lat="48.69122" lon="4.63003">
        <ele>105.4</ele>
        <time>2020-06-30T13:03:18Z</time>
      </trkpt>
      <trkpt lat="48.69121" lon="4.62993">
        <ele>105.4</ele>
        <time>2020-06-30T13:03:19Z</time>
      </trkpt>
      <trkpt lat="48.6912" lon="4.62983">
        <ele>105.4</ele>
        <time>2020-06-30T13:03:20Z</time>
      </trkpt>
      <trkpt lat="48.6912" lon="4.62969">
        <ele>105.5</ele>
        <time>2020-06-30T13:03:21Z</time>
      </trkpt>
      <trkpt lat="48.69122" lon="4.62955">
        <ele>105.5</ele>
        <time>2020-06-30T13:03:22Z</time>
      </trkpt>
      <trkpt lat="48.69123" lon="4.62942">
        <ele>105.5</ele>
        <time>2020-06-30T13:03:23Z</time>
      </trkpt>
      <trkpt lat="48.69124" lon="4.62933">
        <ele>105.5</ele>
        <time>2020-06-30T13:03:24Z</time>
      </trkpt>
      <trkpt lat="48.69125" lon="4.62922">
        <ele>105.5</ele>
        <time>2020-06-30T13:03:25Z</time>
      </trkpt>
      <trkpt lat="48.69125" lon="4.62913">
        <ele>105.5</ele>
        <time>2020-06-30T13:03:26Z</time>
      </trkpt>
      <trkpt lat="48.69125" lon="4.62904">
        <ele>105.5</ele>
        <time>2020-06-30T13:03:27Z</time>
      </trkpt>
      <trkpt lat="48.69126" lon="4.62895">
        <ele>105.5</ele>
        <time>2020-06-30T13:03:28Z</time>
      </trkpt>
      <trkpt lat="48.69128" lon="4.62886">
        <ele>105.5</ele>
        <time>2020-06-30T13:03:29Z</time>
      </trkpt>
      <trkpt lat="48.69128" lon="4.62876">
        <ele>105.5</ele>
        <time>2020-06-30T13:03:30Z</time>
      </trkpt>
      <trkpt lat="48.69129" lon="4.62866">
        <ele>105.5</ele>
        <time>2020-06-30T13:03:31Z</time>
      </trkpt>
      <trkpt lat="48.6913" lon="4.62855">
        <ele>105.4</ele>
        <time>2020-06-30T13:03:32Z</time>
      </trkpt>
      <trkpt lat="48.69132" lon="4.62845">
        <ele>105.4</ele>
        <time>2020-06-30T13:03:33Z</time>
      </trkpt>
      <trkpt lat="48.69133" lon="4.62834">
        <ele>105.5</ele>
        <time>2020-06-30T13:03:34Z</time>
      </trkpt>
      <trkpt lat="48.69134" lon="4.62826">
        <ele>105.5</ele>
        <time>2020-06-30T13:03:35Z</time>
      </trkpt>
      <trkpt lat="48.69135" lon="4.62814">
        <ele>105.5</ele>
        <time>2020-06-30T13:03:36Z</time>
      </trkpt>
      <trkpt lat="48.69136" lon="4.62803">
        <ele>105.6</ele>
        <time>2020-06-30T13:03:37Z</time>
      </trkpt>
      <trkpt lat="48.69138" lon="4.62791">
        <ele>105.6</ele>
        <time>2020-06-30T13:03:38Z</time>
      </trkpt>
      <trkpt lat="48.69139" lon="4.6278">
        <ele>105.6</ele>
        <time>2020-06-30T13:03:39Z</time>
      </trkpt>
      <trkpt lat="48.6914" lon="4.62768">
        <ele>105.5</ele>
        <time>2020-06-30T13:03:40Z</time>
      </trkpt>
      <trkpt lat="48.69141" lon="4.62757">
        <ele>105.5</ele>
        <time>2020-06-30T13:03:41Z</time>
      </trkpt>
      <trkpt lat="48.69143" lon="4.62745">
        <ele>105.5</ele>
        <time>2020-06-30T13:03:42Z</time>
      </trkpt>
      <trkpt lat="48.69145" lon="4.62736">
        <ele>105.5</ele>
        <time>2020-06-30T13:03:43Z</time>
      </trkpt>
      <trkpt lat="48.69147" lon="4.62726">
        <ele>105.5</ele>
        <time>2020-06-30T13:03:44Z</time>
      </trkpt>
      <trkpt lat="48.69148" lon="4.62714">
        <ele>105.5</ele>
        <time>2020-06-30T13:03:45Z</time>
      </trkpt>
      <trkpt lat="48.6915" lon="4.62704">
        <ele>105.5</ele>
        <time>2020-06-30T13:03:46Z</time>
      </trkpt>
      <trkpt lat="48.69152" lon="4.62693">
        <ele>105.5</ele>
        <time>2020-06-30T13:03:47Z</time>
      </trkpt>
      <trkpt lat="48.69154" lon="4.62682">
        <ele>105.5</ele>
        <time>2020-06-30T13:03:48Z</time>
      </trkpt>
      <trkpt lat="48.69156" lon="4.62672">
        <ele>105.5</ele>
        <time>2020-06-30T13:03:49Z</time>
      </trkpt>
      <trkpt lat="48.69157" lon="4.62661">
        <ele>105.5</ele>
        <time>2020-06-30T13:03:50Z</time>
      </trkpt>
      <trkpt lat="48.69159" lon="4.62649">
        <ele>105.6</ele>
        <time>2020-06-30T13:03:51Z</time>
      </trkpt>
      <trkpt lat="48.69161" lon="4.62638">
        <ele>105.6</ele>
        <time>2020-06-30T13:03:52Z</time>
      </trkpt>
      <trkpt lat="48.69162" lon="4.62627">
        <ele>105.6</ele>
        <time>2020-06-30T13:03:53Z</time>
      </trkpt>
      <trkpt lat="48.69164" lon="4.62616">
        <ele>105.6</ele>
        <time>2020-06-30T13:03:54Z</time>
      </trkpt>
      <trkpt lat="48.69166" lon="4.62605">
        <ele>105.5</ele>
        <time>2020-06-30T13:03:55Z</time>
      </trkpt>
      <trkpt lat="48.69168" lon="4.62592">
        <ele>105.5</ele>
        <time>2020-06-30T13:03:56Z</time>
      </trkpt>
      <trkpt lat="48.6917" lon="4.62582">
        <ele>105.5</ele>
        <time>2020-06-30T13:03:57Z</time>
      </trkpt>
      <trkpt lat="48.69173" lon="4.62573">
        <ele>105.5</ele>
        <time>2020-06-30T13:03:58Z</time>
      </trkpt>
      <trkpt lat="48.69175" lon="4.62563">
        <ele>105.5</ele>
        <time>2020-06-30T13:03:59Z</time>
      </trkpt>
      <trkpt lat="48.69178" lon="4.62552">
        <ele>105.5</ele>
        <time>2020-06-30T13:04:00Z</time>
      </trkpt>
      <trkpt lat="48.6918" lon="4.6254">
        <ele>105.5</ele>
        <time>2020-06-30T13:04:01Z</time>
      </trkpt>
      <trkpt lat="48.69183" lon="4.6253">
        <ele>105.5</ele>
        <time>2020-06-30T13:04:02Z</time>
      </trkpt>
      <trkpt lat="48.69185" lon="4.62518">
        <ele>105.6</ele>
        <time>2020-06-30T13:04:03Z</time>
      </trkpt>
      <trkpt lat="48.69188" lon="4.62508">
        <ele>105.6</ele>
        <time>2020-06-30T13:04:04Z</time>
      </trkpt>
      <trkpt lat="48.69191" lon="4.62498">
        <ele>105.6</ele>
        <time>2020-06-30T13:04:05Z</time>
      </trkpt>
      <trkpt lat="48.69194" lon="4.62488">
        <ele>105.7</ele>
        <time>2020-06-30T13:04:06Z</time>
      </trkpt>
      <trkpt lat="48.69196" lon="4.62478">
        <ele>105.7</ele>
        <time>2020-06-30T13:04:07Z</time>
      </trkpt>
      <trkpt lat="48.69199" lon="4.62467">
        <ele>105.7</ele>
        <time>2020-06-30T13:04:08Z</time>
      </trkpt>
      <trkpt lat="48.69201" lon="4.62456">
        <ele>105.7</ele>
        <time>2020-06-30T13:04:09Z</time>
      </trkpt>
      <trkpt lat="48.69204" lon="4.62445">
        <ele>105.7</ele>
        <time>2020-06-30T13:04:10Z</time>
      </trkpt>
      <trkpt lat="48.69206" lon="4.62435">
        <ele>105.7</ele>
        <time>2020-06-30T13:04:11Z</time>
      </trkpt>
      <trkpt lat="48.6921" lon="4.62425">
        <ele>105.7</ele>
        <time>2020-06-30T13:04:12Z</time>
      </trkpt>
      <trkpt lat="48.69213" lon="4.62415">
        <ele>105.8</ele>
        <time>2020-06-30T13:04:13Z</time>
      </trkpt>
      <trkpt lat="48.69216" lon="4.62404">
        <ele>105.8</ele>
        <time>2020-06-30T13:04:14Z</time>
      </trkpt>
      <trkpt lat="48.69219" lon="4.62393">
        <ele>105.8</ele>
        <time>2020-06-30T13:04:15Z</time>
      </trkpt>
      <trkpt lat="48.69222" lon="4.62382">
        <ele>105.8</ele>
        <time>2020-06-30T13:04:16Z</time>
      </trkpt>
      <trkpt lat="48.69225" lon="4.62372">
        <ele>105.8</ele>
        <time>2020-06-30T13:04:17Z</time>
      </trkpt>
      <trkpt lat="48.69228" lon="4.62361">
        <ele>105.7</ele>
        <time>2020-06-30T13:04:18Z</time>
      </trkpt>
      <trkpt lat="48.69231" lon="4.62351">
        <ele>105.7</ele>
        <time>2020-06-30T13:04:19Z</time>
      </trkpt>
      <trkpt lat="48.69234" lon="4.6234">
        <ele>105.7</ele>
        <time>2020-06-30T13:04:20Z</time>
      </trkpt>
      <trkpt lat="48.69237" lon="4.6233">
        <ele>105.7</ele>
        <time>2020-06-30T13:04:21Z</time>
      </trkpt>
      <trkpt lat="48.6924" lon="4.62319">
        <ele>105.8</ele>
        <time>2020-06-30T13:04:22Z</time>
      </trkpt>
      <trkpt lat="48.69244" lon="4.62308">
        <ele>105.8</ele>
        <time>2020-06-30T13:04:23Z</time>
      </trkpt>
      <trkpt lat="48.69247" lon="4.62298">
        <ele>105.8</ele>
        <time>2020-06-30T13:04:24Z</time>
      </trkpt>
      <trkpt lat="48.6925" lon="4.62287">
        <ele>105.7</ele>
        <time>2020-06-30T13:04:25Z</time>
      </trkpt>
      <trkpt lat="48.69254" lon="4.62277">
        <ele>105.7</ele>
        <time>2020-06-30T13:04:26Z</time>
      </trkpt>
      <trkpt lat="48.69258" lon="4.62266">
        <ele>105.7</ele>
        <time>2020-06-30T13:04:27Z</time>
      </trkpt>
      <trkpt lat="48.69261" lon="4.62255">
        <ele>105.7</ele>
        <time>2020-06-30T13:04:28Z</time>
      </trkpt>
      <trkpt lat="48.69264" lon="4.62245">
        <ele>105.7</ele>
        <time>2020-06-30T13:04:29Z</time>
      </trkpt>
      <trkpt lat="48.69268" lon="4.62235">
        <ele>105.7</ele>
        <time>2020-06-30T13:04:30Z</time>
      </trkpt>
      <trkpt lat="48.69271" lon="4.62224">
        <ele>105.7</ele>
        <time>2020-06-30T13:04:31Z</time>
      </trkpt>
      <trkpt lat="48.69274" lon="4.62214">
        <ele>105.7</ele>
        <time>2020-06-30T13:04:32Z</time>
      </trkpt>
      <trkpt lat="48.69277" lon="4.62203">
        <ele>105.7</ele>
        <time>2020-06-30T13:04:33Z</time>
      </trkpt>
      <trkpt lat="48.69281" lon="4.62193">
        <ele>105.7</ele>
        <time>2020-06-30T13:04:34Z</time>
      </trkpt>
      <trkpt lat="48.69284" lon="4.62182">
        <ele>105.7</ele>
        <time>2020-06-30T13:04:35Z</time>
      </trkpt>
      <trkpt lat="48.69288" lon="4.62172">
        <ele>105.7</ele>
        <time>2020-06-30T13:04:36Z</time>
      </trkpt>
      <trkpt lat="48.69293" lon="4.62161">
        <ele>105.7</ele>
        <time>2020-06-30T13:04:37Z</time>
      </trkpt>
      <trkpt lat="48.69296" lon="4.6215">
        <ele>105.7</ele>
        <time>2020-06-30T13:04:38Z</time>
      </trkpt>
      <trkpt lat="48.693" lon="4.62141">
        <ele>105.7</ele>
        <time>2020-06-30T13:04:39Z</time>
      </trkpt>
      <trkpt lat="48.69305" lon="4.62132">
        <ele>105.7</ele>
        <time>2020-06-30T13:04:40Z</time>
      </trkpt>
      <trkpt lat="48.69307" lon="4.62122">
        <ele>105.7</ele>
        <time>2020-06-30T13:04:41Z</time>
      </trkpt>
      <trkpt lat="48.6931" lon="4.62111">
        <ele>105.7</ele>
        <time>2020-06-30T13:04:42Z</time>
      </trkpt>
      <trkpt lat="48.69314" lon="4.621">
        <ele>105.8</ele>
        <time>2020-06-30T13:04:43Z</time>
      </trkpt>
      <trkpt lat="48.69318" lon="4.62091">
        <ele>105.8</ele>
        <time>2020-06-30T13:04:44Z</time>
      </trkpt>
      <trkpt lat="48.69322" lon="4.62081">
        <ele>105.8</ele>
        <time>2020-06-30T13:04:45Z</time>
      </trkpt>
      <trkpt lat="48.69325" lon="4.6207">
        <ele>105.7</ele>
        <time>2020-06-30T13:04:46Z</time>
      </trkpt>
      <trkpt lat="48.69328" lon="4.6206">
        <ele>105.7</ele>
        <time>2020-06-30T13:04:47Z</time>
      </trkpt>
      <trkpt lat="48.69331" lon="4.62049">
        <ele>105.7</ele>
        <time>2020-06-30T13:04:48Z</time>
      </trkpt>
      <trkpt lat="48.69334" lon="4.62038">
        <ele>105.7</ele>
        <time>2020-06-30T13:04:49Z</time>
      </trkpt>
      <trkpt lat="48.69337" lon="4.62028">
        <ele>105.7</ele>
        <time>2020-06-30T13:04:50Z</time>
      </trkpt>
      <trkpt lat="48.69341" lon="4.62017">
        <ele>105.8</ele>
        <time>2020-06-30T13:04:51Z</time>
      </trkpt>
      <trkpt lat="48.69345" lon="4.62008">
        <ele>105.8</ele>
        <time>2020-06-30T13:04:52Z</time>
      </trkpt>
      <trkpt lat="48.69349" lon="4.61998">
        <ele>105.8</ele>
        <time>2020-06-30T13:04:53Z</time>
      </trkpt>
      <trkpt lat="48.69352" lon="4.61989">
        <ele>105.8</ele>
        <time>2020-06-30T13:04:54Z</time>
      </trkpt>
      <trkpt lat="48.69356" lon="4.6198">
        <ele>105.8</ele>
        <time>2020-06-30T13:04:55Z</time>
      </trkpt>
      <trkpt lat="48.6936" lon="4.6197">
        <ele>105.8</ele>
        <time>2020-06-30T13:04:56Z</time>
      </trkpt>
      <trkpt lat="48.69364" lon="4.61961">
        <ele>105.8</ele>
        <time>2020-06-30T13:04:57Z</time>
      </trkpt>
      <trkpt lat="48.69368" lon="4.61952">
        <ele>105.9</ele>
        <time>2020-06-30T13:04:58Z</time>
      </trkpt>
      <trkpt lat="48.69372" lon="4.61942">
        <ele>105.9</ele>
        <time>2020-06-30T13:04:59Z</time>
      </trkpt>
      <trkpt lat="48.69376" lon="4.61933">
        <ele>105.9</ele>
        <time>2020-06-30T13:05:00Z</time>
      </trkpt>
      <trkpt lat="48.6938" lon="4.61923">
        <ele>105.9</ele>
        <time>2020-06-30T13:05:01Z</time>
      </trkpt>
      <trkpt lat="48.69384" lon="4.61913">
        <ele>105.9</ele>
        <time>2020-06-30T13:05:02Z</time>
      </trkpt>
      <trkpt lat="48.69387" lon="4.61903">
        <ele>105.9</ele>
        <time>2020-06-30T13:05:03Z</time>
      </trkpt>
      <trkpt lat="48.6939" lon="4.61892">
        <ele>105.9</ele>
        <time>2020-06-30T13:05:04Z</time>
      </trkpt>
      <trkpt lat="48.69393" lon="4.61881">
        <ele>106</ele>
        <time>2020-06-30T13:05:05Z</time>
      </trkpt>
      <trkpt lat="48.69396" lon="4.6187">
        <ele>106</ele>
        <time>2020-06-30T13:05:06Z</time>
      </trkpt>
      <trkpt lat="48.694" lon="4.6186">
        <ele>106</ele>
        <time>2020-06-30T13:05:07Z</time>
      </trkpt>
      <trkpt lat="48.69404" lon="4.61851">
        <ele>106</ele>
        <time>2020-06-30T13:05:08Z</time>
      </trkpt>
      <trkpt lat="48.69407" lon="4.61841">
        <ele>106</ele>
        <time>2020-06-30T13:05:09Z</time>
      </trkpt>
      <trkpt lat="48.6941" lon="4.61831">
        <ele>106</ele>
        <time>2020-06-30T13:05:10Z</time>
      </trkpt>
      <trkpt lat="48.69414" lon="4.61821">
        <ele>106</ele>
        <time>2020-06-30T13:05:11Z</time>
      </trkpt>
      <trkpt lat="48.69417" lon="4.61811">
        <ele>106</ele>
        <time>2020-06-30T13:05:12Z</time>
      </trkpt>
      <trkpt lat="48.69421" lon="4.61801">
        <ele>106</ele>
        <time>2020-06-30T13:05:13Z</time>
      </trkpt>
      <trkpt lat="48.69424" lon="4.61792">
        <ele>106</ele>
        <time>2020-06-30T13:05:14Z</time>
      </trkpt>
      <trkpt lat="48.69428" lon="4.61782">
        <ele>106</ele>
        <time>2020-06-30T13:05:15Z</time>
      </trkpt>
      <trkpt lat="48.69431" lon="4.61772">
        <ele>105.9</ele>
        <time>2020-06-30T13:05:16Z</time>
      </trkpt>
      <trkpt lat="48.69435" lon="4.61762">
        <ele>105.9</ele>
        <time>2020-06-30T13:05:17Z</time>
      </trkpt>
      <trkpt lat="48.69438" lon="4.61753">
        <ele>105.9</ele>
        <time>2020-06-30T13:05:18Z</time>
      </trkpt>
      <trkpt lat="48.69442" lon="4.61743">
        <ele>105.9</ele>
        <time>2020-06-30T13:05:19Z</time>
      </trkpt>
      <trkpt lat="48.69445" lon="4.61734">
        <ele>105.8</ele>
        <time>2020-06-30T13:05:20Z</time>
      </trkpt>
      <trkpt lat="48.69448" lon="4.61725">
        <ele>105.8</ele>
        <time>2020-06-30T13:05:21Z</time>
      </trkpt>
      <trkpt lat="48.69451" lon="4.61715">
        <ele>105.9</ele>
        <time>2020-06-30T13:05:22Z</time>
      </trkpt>
      <trkpt lat="48.69454" lon="4.61705">
        <ele>105.9</ele>
        <time>2020-06-30T13:05:23Z</time>
      </trkpt>
      <trkpt lat="48.69457" lon="4.61695">
        <ele>105.9</ele>
        <time>2020-06-30T13:05:24Z</time>
      </trkpt>
      <trkpt lat="48.6946" lon="4.61685">
        <ele>105.9</ele>
        <time>2020-06-30T13:05:25Z</time>
      </trkpt>
      <trkpt lat="48.69463" lon="4.61676">
        <ele>105.9</ele>
        <time>2020-06-30T13:05:26Z</time>
      </trkpt>
      <trkpt lat="48.69466" lon="4.61666">
        <ele>105.9</ele>
        <time>2020-06-30T13:05:27Z</time>
      </trkpt>
      <trkpt lat="48.69469" lon="4.61656">
        <ele>105.9</ele>
        <time>2020-06-30T13:05:28Z</time>
      </trkpt>
      <trkpt lat="48.69473" lon="4.61647">
        <ele>105.8</ele>
        <time>2020-06-30T13:05:29Z</time>
      </trkpt>
      <trkpt lat="48.69476" lon="4.61637">
        <ele>105.9</ele>
        <time>2020-06-30T13:05:30Z</time>
      </trkpt>
      <trkpt lat="48.6948" lon="4.61628">
        <ele>105.9</ele>
        <time>2020-06-30T13:05:31Z</time>
      </trkpt>
      <trkpt lat="48.69483" lon="4.61618">
        <ele>105.9</ele>
        <time>2020-06-30T13:05:32Z</time>
      </trkpt>
      <trkpt lat="48.69486" lon="4.61608">
        <ele>106</ele>
        <time>2020-06-30T13:05:33Z</time>
      </trkpt>
      <trkpt lat="48.6949" lon="4.616">
        <ele>106</ele>
        <time>2020-06-30T13:05:34Z</time>
      </trkpt>
      <trkpt lat="48.69494" lon="4.6159">
        <ele>106</ele>
        <time>2020-06-30T13:05:35Z</time>
      </trkpt>
      <trkpt lat="48.69497" lon="4.61581">
        <ele>106.1</ele>
        <time>2020-06-30T13:05:36Z</time>
      </trkpt>
      <trkpt lat="48.69501" lon="4.61572">
        <ele>106.1</ele>
        <time>2020-06-30T13:05:37Z</time>
      </trkpt>
      <trkpt lat="48.69504" lon="4.61563">
        <ele>106.1</ele>
        <time>2020-06-30T13:05:38Z</time>
      </trkpt>
      <trkpt lat="48.69507" lon="4.61554">
        <ele>106.1</ele>
        <time>2020-06-30T13:05:39Z</time>
      </trkpt>
      <trkpt lat="48.69511" lon="4.61545">
        <ele>106.1</ele>
        <time>2020-06-30T13:05:40Z</time>
      </trkpt>
      <trkpt lat="48.69514" lon="4.61535">
        <ele>106.1</ele>
        <time>2020-06-30T13:05:41Z</time>
      </trkpt>
      <trkpt lat="48.69516" lon="4.61524">
        <ele>106.1</ele>
        <time>2020-06-30T13:05:42Z</time>
      </trkpt>
      <trkpt lat="48.69519" lon="4.61514">
        <ele>106.1</ele>
        <time>2020-06-30T13:05:43Z</time>
      </trkpt>
      <trkpt lat="48.69522" lon="4.61504">
        <ele>106</ele>
        <time>2020-06-30T13:05:44Z</time>
      </trkpt>
      <trkpt lat="48.69526" lon="4.61495">
        <ele>106</ele>
        <time>2020-06-30T13:05:45Z</time>
      </trkpt>
      <trkpt lat="48.69529" lon="4.61485">
        <ele>106</ele>
        <time>2020-06-30T13:05:46Z</time>
      </trkpt>
      <trkpt lat="48.69532" lon="4.61476">
        <ele>106</ele>
        <time>2020-06-30T13:05:47Z</time>
      </trkpt>
      <trkpt lat="48.69536" lon="4.61466">
        <ele>106</ele>
        <time>2020-06-30T13:05:48Z</time>
      </trkpt>
      <trkpt lat="48.69539" lon="4.61457">
        <ele>106</ele>
        <time>2020-06-30T13:05:49Z</time>
      </trkpt>
      <trkpt lat="48.69542" lon="4.61448">
        <ele>106</ele>
        <time>2020-06-30T13:05:50Z</time>
      </trkpt>
      <trkpt lat="48.69545" lon="4.61439">
        <ele>106</ele>
        <time>2020-06-30T13:05:51Z</time>
      </trkpt>
      <trkpt lat="48.69547" lon="4.6143">
        <ele>105.9</ele>
        <time>2020-06-30T13:05:52Z</time>
      </trkpt>
      <trkpt lat="48.6955" lon="4.61422">
        <ele>105.9</ele>
        <time>2020-06-30T13:05:53Z</time>
      </trkpt>
      <trkpt lat="48.69553" lon="4.61414">
        <ele>105.9</ele>
        <time>2020-06-30T13:05:54Z</time>
      </trkpt>
      <trkpt lat="48.69555" lon="4.61406">
        <ele>105.9</ele>
        <time>2020-06-30T13:05:55Z</time>
      </trkpt>
      <trkpt lat="48.69558" lon="4.61399">
        <ele>105.9</ele>
        <time>2020-06-30T13:05:56Z</time>
      </trkpt>
      <trkpt lat="48.69561" lon="4.61391">
        <ele>105.9</ele>
        <time>2020-06-30T13:05:57Z</time>
      </trkpt>
      <trkpt lat="48.69564" lon="4.61384">
        <ele>105.9</ele>
        <time>2020-06-30T13:05:58Z</time>
      </trkpt>
      <trkpt lat="48.69566" lon="4.61377">
        <ele>105.9</ele>
        <time>2020-06-30T13:05:59Z</time>
      </trkpt>
      <trkpt lat="48.69569" lon="4.61371">
        <ele>105.9</ele>
        <time>2020-06-30T13:06:00Z</time>
      </trkpt>
      <trkpt lat="48.6957" lon="4.61365">
        <ele>106</ele>
        <time>2020-06-30T13:06:01Z</time>
      </trkpt>
      <trkpt lat="48.69571" lon="4.61361">
        <ele>106</ele>
        <time>2020-06-30T13:06:02Z</time>
      </trkpt>
      <trkpt lat="48.69573" lon="4.61356">
        <ele>106</ele>
        <time>2020-06-30T13:06:03Z</time>
      </trkpt>
      <trkpt lat="48.69575" lon="4.61353">
        <ele>106</ele>
        <time>2020-06-30T13:06:04Z</time>
      </trkpt>
      <trkpt lat="48.69576" lon="4.61348">
        <ele>106.1</ele>
        <time>2020-06-30T13:06:05Z</time>
      </trkpt>
      <trkpt lat="48.69576" lon="4.61347">
        <ele>106.1</ele>
        <time>2020-06-30T13:06:06Z</time>
      </trkpt>
      <trkpt lat="48.69576" lon="4.61345">
        <ele>106.1</ele>
        <time>2020-06-30T13:06:07Z</time>
      </trkpt>
      <trkpt lat="48.69577" lon="4.61344">
        <ele>106.1</ele>
        <time>2020-06-30T13:06:08Z</time>
      </trkpt>
      <trkpt lat="48.69577" lon="4.61343">
        <ele>106.1</ele>
        <time>2020-06-30T13:06:09Z</time>
      </trkpt>
      <trkpt lat="48.69578" lon="4.61342">
        <ele>106.1</ele>
        <time>2020-06-30T13:06:10Z</time>
      </trkpt>
      <trkpt lat="48.69578" lon="4.61342">
        <ele>106.1</ele>
        <time>2020-06-30T13:06:11Z</time>
      </trkpt>
      <trkpt lat="48.69579" lon="4.61341">
        <ele>106.1</ele>
        <time>2020-06-30T13:06:12Z</time>
      </trkpt>
      <trkpt lat="48.69579" lon="4.6134">
        <ele>106</ele>
        <time>2020-06-30T13:06:13Z</time>
      </trkpt>
      <trkpt lat="48.6958" lon="4.61339">
        <ele>106</ele>
        <time>2020-06-30T13:06:14Z</time>
      </trkpt>
      <trkpt lat="48.6958" lon="4.61338">
        <ele>106</ele>
        <time>2020-06-30T13:06:15Z</time>
      </trkpt>
      <trkpt lat="48.69581" lon="4.61337">
        <ele>106</ele>
        <time>2020-06-30T13:06:16Z</time>
      </trkpt>
      <trkpt lat="48.69581" lon="4.61336">
        <ele>106</ele>
        <time>2020-06-30T13:06:17Z</time>
      </trkpt>
      <trkpt lat="48.69582" lon="4.61336">
        <ele>106</ele>
        <time>2020-06-30T13:07:03Z</time>
      </trkpt>
      <trkpt lat="48.69582" lon="4.61335">
        <ele>106</ele>
        <time>2020-06-30T13:07:04Z</time>
      </trkpt>
      <trkpt lat="48.69584" lon="4.6133">
        <ele>106</ele>
        <time>2020-06-30T13:07:05Z</time>
      </trkpt>
      <trkpt lat="48.69584" lon="4.61328">
        <ele>106</ele>
        <time>2020-06-30T13:07:06Z</time>
      </trkpt>
      <trkpt lat="48.69585" lon="4.61324">
        <ele>106</ele>
        <time>2020-06-30T13:07:07Z</time>
      </trkpt>
      <trkpt lat="48.69586" lon="4.6132">
        <ele>106</ele>
        <time>2020-06-30T13:07:08Z</time>
      </trkpt>
      <trkpt lat="48.69588" lon="4.61316">
        <ele>105.9</ele>
        <time>2020-06-30T13:07:09Z</time>
      </trkpt>
      <trkpt lat="48.69589" lon="4.61312">
        <ele>105.9</ele>
        <time>2020-06-30T13:07:10Z</time>
      </trkpt>
      <trkpt lat="48.6959" lon="4.61308">
        <ele>105.9</ele>
        <time>2020-06-30T13:07:11Z</time>
      </trkpt>
      <trkpt lat="48.69591" lon="4.61303">
        <ele>105.9</ele>
        <time>2020-06-30T13:07:12Z</time>
      </trkpt>
      <trkpt lat="48.69593" lon="4.61299">
        <ele>105.9</ele>
        <time>2020-06-30T13:07:13Z</time>
      </trkpt>
      <trkpt lat="48.69594" lon="4.61295">
        <ele>105.9</ele>
        <time>2020-06-30T13:07:14Z</time>
      </trkpt>
      <trkpt lat="48.69596" lon="4.61291">
        <ele>105.9</ele>
        <time>2020-06-30T13:07:15Z</time>
      </trkpt>
      <trkpt lat="48.69597" lon="4.61287">
        <ele>105.9</ele>
        <time>2020-06-30T13:07:16Z</time>
      </trkpt>
      <trkpt lat="48.69599" lon="4.61282">
        <ele>105.9</ele>
        <time>2020-06-30T13:07:17Z</time>
      </trkpt>
      <trkpt lat="48.696" lon="4.61277">
        <ele>105.9</ele>
        <time>2020-06-30T13:07:18Z</time>
      </trkpt>
      <trkpt lat="48.69602" lon="4.61272">
        <ele>105.9</ele>
        <time>2020-06-30T13:07:19Z</time>
      </trkpt>
      <trkpt lat="48.69603" lon="4.61267">
        <ele>105.9</ele>
        <time>2020-06-30T13:07:20Z</time>
      </trkpt>
      <trkpt lat="48.69604" lon="4.61261">
        <ele>105.9</ele>
        <time>2020-06-30T13:07:21Z</time>
      </trkpt>
      <trkpt lat="48.69606" lon="4.61256">
        <ele>105.9</ele>
        <time>2020-06-30T13:07:22Z</time>
      </trkpt>
      <trkpt lat="48.69608" lon="4.61251">
        <ele>105.9</ele>
        <time>2020-06-30T13:07:23Z</time>
      </trkpt>
      <trkpt lat="48.6961" lon="4.61247">
        <ele>105.9</ele>
        <time>2020-06-30T13:07:24Z</time>
      </trkpt>
      <trkpt lat="48.69612" lon="4.61242">
        <ele>106</ele>
        <time>2020-06-30T13:07:25Z</time>
      </trkpt>
      <trkpt lat="48.69613" lon="4.61236">
        <ele>106</ele>
        <time>2020-06-30T13:07:26Z</time>
      </trkpt>
      <trkpt lat="48.69615" lon="4.6123">
        <ele>106</ele>
        <time>2020-06-30T13:07:27Z</time>
      </trkpt>
      <trkpt lat="48.69617" lon="4.61224">
        <ele>106</ele>
        <time>2020-06-30T13:07:28Z</time>
      </trkpt>
      <trkpt lat="48.69619" lon="4.61218">
        <ele>106</ele>
        <time>2020-06-30T13:07:29Z</time>
      </trkpt>
      <trkpt lat="48.69622" lon="4.61211">
        <ele>106</ele>
        <time>2020-06-30T13:07:30Z</time>
      </trkpt>
      <trkpt lat="48.69625" lon="4.61206">
        <ele>106</ele>
        <time>2020-06-30T13:07:31Z</time>
      </trkpt>
      <trkpt lat="48.69627" lon="4.61199">
        <ele>106</ele>
        <time>2020-06-30T13:07:32Z</time>
      </trkpt>
      <trkpt lat="48.6963" lon="4.61192">
        <ele>106</ele>
        <time>2020-06-30T13:07:33Z</time>
      </trkpt>
      <trkpt lat="48.69631" lon="4.61185">
        <ele>106</ele>
        <time>2020-06-30T13:07:34Z</time>
      </trkpt>
      <trkpt lat="48.69633" lon="4.61179">
        <ele>106</ele>
        <time>2020-06-30T13:07:35Z</time>
      </trkpt>
      <trkpt lat="48.69636" lon="4.61172">
        <ele>106</ele>
        <time>2020-06-30T13:07:36Z</time>
      </trkpt>
      <trkpt lat="48.69638" lon="4.61165">
        <ele>105.9</ele>
        <time>2020-06-30T13:07:37Z</time>
      </trkpt>
      <trkpt lat="48.69641" lon="4.61158">
        <ele>105.9</ele>
        <time>2020-06-30T13:07:38Z</time>
      </trkpt>
      <trkpt lat="48.69643" lon="4.6115">
        <ele>105.9</ele>
        <time>2020-06-30T13:07:39Z</time>
      </trkpt>
      <trkpt lat="48.69646" lon="4.61142">
        <ele>105.9</ele>
        <time>2020-06-30T13:07:40Z</time>
      </trkpt>
      <trkpt lat="48.69648" lon="4.61133">
        <ele>105.8</ele>
        <time>2020-06-30T13:07:41Z</time>
      </trkpt>
      <trkpt lat="48.69652" lon="4.61126">
        <ele>105.8</ele>
        <time>2020-06-30T13:07:42Z</time>
      </trkpt>
      <trkpt lat="48.69655" lon="4.61119">
        <ele>105.8</ele>
        <time>2020-06-30T13:07:43Z</time>
      </trkpt>
      <trkpt lat="48.69658" lon="4.61111">
        <ele>105.8</ele>
        <time>2020-06-30T13:07:44Z</time>
      </trkpt>
      <trkpt lat="48.69661" lon="4.61104">
        <ele>105.8</ele>
        <time>2020-06-30T13:07:45Z</time>
      </trkpt>
      <trkpt lat="48.69664" lon="4.61097">
        <ele>105.8</ele>
        <time>2020-06-30T13:07:46Z</time>
      </trkpt>
      <trkpt lat="48.69666" lon="4.61089">
        <ele>105.8</ele>
        <time>2020-06-30T13:07:47Z</time>
      </trkpt>
      <trkpt lat="48.69669" lon="4.61081">
        <ele>105.9</ele>
        <time>2020-06-30T13:07:48Z</time>
      </trkpt>
      <trkpt lat="48.69671" lon="4.61073">
        <ele>105.9</ele>
        <time>2020-06-30T13:07:49Z</time>
      </trkpt>
      <trkpt lat="48.69674" lon="4.61065">
        <ele>105.9</ele>
        <time>2020-06-30T13:07:50Z</time>
      </trkpt>
      <trkpt lat="48.69676" lon="4.61057">
        <ele>105.9</ele>
        <time>2020-06-30T13:07:51Z</time>
      </trkpt>
      <trkpt lat="48.69679" lon="4.61049">
        <ele>105.9</ele>
        <time>2020-06-30T13:07:52Z</time>
      </trkpt>
      <trkpt lat="48.69682" lon="4.61041">
        <ele>105.8</ele>
        <time>2020-06-30T13:07:53Z</time>
      </trkpt>
      <trkpt lat="48.69684" lon="4.61033">
        <ele>105.8</ele>
        <time>2020-06-30T13:07:54Z</time>
      </trkpt>
      <trkpt lat="48.69687" lon="4.61024">
        <ele>105.8</ele>
        <time>2020-06-30T13:07:55Z</time>
      </trkpt>
      <trkpt lat="48.69689" lon="4.61016">
        <ele>105.8</ele>
        <time>2020-06-30T13:07:56Z</time>
      </trkpt>
      <trkpt lat="48.69692" lon="4.61008">
        <ele>105.8</ele>
        <time>2020-06-30T13:07:57Z</time>
      </trkpt>
      <trkpt lat="48.69695" lon="4.60999">
        <ele>105.9</ele>
        <time>2020-06-30T13:07:58Z</time>
      </trkpt>
      <trkpt lat="48.69698" lon="4.60991">
        <ele>105.9</ele>
        <time>2020-06-30T13:07:59Z</time>
      </trkpt>
      <trkpt lat="48.69702" lon="4.60984">
        <ele>105.9</ele>
        <time>2020-06-30T13:08:00Z</time>
      </trkpt>
      <trkpt lat="48.69705" lon="4.60976">
        <ele>105.9</ele>
        <time>2020-06-30T13:08:01Z</time>
      </trkpt>
      <trkpt lat="48.69708" lon="4.60968">
        <ele>105.9</ele>
        <time>2020-06-30T13:08:02Z</time>
      </trkpt>
      <trkpt lat="48.6971" lon="4.6096">
        <ele>105.9</ele>
        <time>2020-06-30T13:08:03Z</time>
      </trkpt>
      <trkpt lat="48.69712" lon="4.60951">
        <ele>105.9</ele>
        <time>2020-06-30T13:08:04Z</time>
      </trkpt>
      <trkpt lat="48.69715" lon="4.60943">
        <ele>106</ele>
        <time>2020-06-30T13:08:05Z</time>
      </trkpt>
      <trkpt lat="48.69719" lon="4.60936">
        <ele>106</ele>
        <time>2020-06-30T13:08:06Z</time>
      </trkpt>
      <trkpt lat="48.69722" lon="4.60928">
        <ele>106</ele>
        <time>2020-06-30T13:08:07Z</time>
      </trkpt>
      <trkpt lat="48.69725" lon="4.6092">
        <ele>106</ele>
        <time>2020-06-30T13:08:08Z</time>
      </trkpt>
      <trkpt lat="48.69728" lon="4.60912">
        <ele>106</ele>
        <time>2020-06-30T13:08:09Z</time>
      </trkpt>
      <trkpt lat="48.69731" lon="4.60904">
        <ele>106</ele>
        <time>2020-06-30T13:08:10Z</time>
      </trkpt>
      <trkpt lat="48.69733" lon="4.60895">
        <ele>106</ele>
        <time>2020-06-30T13:08:11Z</time>
      </trkpt>
      <trkpt lat="48.69736" lon="4.60886">
        <ele>106</ele>
        <time>2020-06-30T13:08:12Z</time>
      </trkpt>
      <trkpt lat="48.69739" lon="4.60878">
        <ele>106</ele>
        <time>2020-06-30T13:08:13Z</time>
      </trkpt>
      <trkpt lat="48.69742" lon="4.60871">
        <ele>106</ele>
        <time>2020-06-30T13:08:14Z</time>
      </trkpt>
      <trkpt lat="48.69746" lon="4.60863">
        <ele>106</ele>
        <time>2020-06-30T13:08:15Z</time>
      </trkpt>
      <trkpt lat="48.69748" lon="4.60854">
        <ele>106</ele>
        <time>2020-06-30T13:08:16Z</time>
      </trkpt>
      <trkpt lat="48.69751" lon="4.60846">
        <ele>106.1</ele>
        <time>2020-06-30T13:08:17Z</time>
      </trkpt>
      <trkpt lat="48.69754" lon="4.60837">
        <ele>106.1</ele>
        <time>2020-06-30T13:08:18Z</time>
      </trkpt>
      <trkpt lat="48.69757" lon="4.60829">
        <ele>106.1</ele>
        <time>2020-06-30T13:08:19Z</time>
      </trkpt>
      <trkpt lat="48.6976" lon="4.6082">
        <ele>106.1</ele>
        <time>2020-06-30T13:08:20Z</time>
      </trkpt>
      <trkpt lat="48.69763" lon="4.60812">
        <ele>106.1</ele>
        <time>2020-06-30T13:08:21Z</time>
      </trkpt>
      <trkpt lat="48.69766" lon="4.60803">
        <ele>106.1</ele>
        <time>2020-06-30T13:08:22Z</time>
      </trkpt>
      <trkpt lat="48.6977" lon="4.60795">
        <ele>106.1</ele>
        <time>2020-06-30T13:08:23Z</time>
      </trkpt>
      <trkpt lat="48.69773" lon="4.60786">
        <ele>106.1</ele>
        <time>2020-06-30T13:08:24Z</time>
      </trkpt>
      <trkpt lat="48.69777" lon="4.60777">
        <ele>106.1</ele>
        <time>2020-06-30T13:08:25Z</time>
      </trkpt>
      <trkpt lat="48.69781" lon="4.60767">
        <ele>106.1</ele>
        <time>2020-06-30T13:08:26Z</time>
      </trkpt>
      <trkpt lat="48.69785" lon="4.60758">
        <ele>106</ele>
        <time>2020-06-30T13:08:27Z</time>
      </trkpt>
      <trkpt lat="48.6979" lon="4.60749">
        <ele>106</ele>
        <time>2020-06-30T13:08:28Z</time>
      </trkpt>
      <trkpt lat="48.69794" lon="4.6074">
        <ele>106</ele>
        <time>2020-06-30T13:08:29Z</time>
      </trkpt>
      <trkpt lat="48.69798" lon="4.6073">
        <ele>106</ele>
        <time>2020-06-30T13:08:30Z</time>
      </trkpt>
      <trkpt lat="48.69802" lon="4.6072">
        <ele>106</ele>
        <time>2020-06-30T13:08:31Z</time>
      </trkpt>
      <trkpt lat="48.69807" lon="4.6071">
        <ele>106</ele>
        <time>2020-06-30T13:08:32Z</time>
      </trkpt>
      <trkpt lat="48.69811" lon="4.607">
        <ele>106</ele>
        <time>2020-06-30T13:08:33Z</time>
      </trkpt>
      <trkpt lat="48.69816" lon="4.6069">
        <ele>106</ele>
        <time>2020-06-30T13:08:34Z</time>
      </trkpt>
      <trkpt lat="48.69821" lon="4.60681">
        <ele>106.1</ele>
        <time>2020-06-30T13:08:35Z</time>
      </trkpt>
      <trkpt lat="48.69825" lon="4.60671">
        <ele>106.1</ele>
        <time>2020-06-30T13:08:36Z</time>
      </trkpt>
      <trkpt lat="48.6983" lon="4.60661">
        <ele>106.1</ele>
        <time>2020-06-30T13:08:37Z</time>
      </trkpt>
      <trkpt lat="48.69835" lon="4.60651">
        <ele>106</ele>
        <time>2020-06-30T13:08:38Z</time>
      </trkpt>
      <trkpt lat="48.6984" lon="4.6064">
        <ele>106</ele>
        <time>2020-06-30T13:08:39Z</time>
      </trkpt>
      <trkpt lat="48.69845" lon="4.60629">
        <ele>106.1</ele>
        <time>2020-06-30T13:08:40Z</time>
      </trkpt>
      <trkpt lat="48.6985" lon="4.60619">
        <ele>106.1</ele>
        <time>2020-06-30T13:08:41Z</time>
      </trkpt>
      <trkpt lat="48.69855" lon="4.60609">
        <ele>106.1</ele>
        <time>2020-06-30T13:08:42Z</time>
      </trkpt>
      <trkpt lat="48.6986" lon="4.60599">
        <ele>106</ele>
        <time>2020-06-30T13:08:43Z</time>
      </trkpt>
      <trkpt lat="48.69864" lon="4.60589">
        <ele>106</ele>
        <time>2020-06-30T13:08:44Z</time>
      </trkpt>
      <trkpt lat="48.69869" lon="4.60579">
        <ele>106</ele>
        <time>2020-06-30T13:08:45Z</time>
      </trkpt>
      <trkpt lat="48.69874" lon="4.60569">
        <ele>106.1</ele>
        <time>2020-06-30T13:08:46Z</time>
      </trkpt>
      <trkpt lat="48.69878" lon="4.60559">
        <ele>106.1</ele>
        <time>2020-06-30T13:08:47Z</time>
      </trkpt>
      <trkpt lat="48.69883" lon="4.6055">
        <ele>106.1</ele>
        <time>2020-06-30T13:08:48Z</time>
      </trkpt>
      <trkpt lat="48.69888" lon="4.60542">
        <ele>106.1</ele>
        <time>2020-06-30T13:08:49Z</time>
      </trkpt>
      <trkpt lat="48.69893" lon="4.60534">
        <ele>106.1</ele>
        <time>2020-06-30T13:08:50Z</time>
      </trkpt>
      <trkpt lat="48.69898" lon="4.60526">
        <ele>106.1</ele>
        <time>2020-06-30T13:08:51Z</time>
      </trkpt>
      <trkpt lat="48.69902" lon="4.60518">
        <ele>106.1</ele>
        <time>2020-06-30T13:08:52Z</time>
      </trkpt>
      <trkpt lat="48.69907" lon="4.6051">
        <ele>106.2</ele>
        <time>2020-06-30T13:08:53Z</time>
      </trkpt>
      <trkpt lat="48.69911" lon="4.60502">
        <ele>106.2</ele>
        <time>2020-06-30T13:08:54Z</time>
      </trkpt>
      <trkpt lat="48.69915" lon="4.60494">
        <ele>106.2</ele>
        <time>2020-06-30T13:08:55Z</time>
      </trkpt>
      <trkpt lat="48.6992" lon="4.60486">
        <ele>106.2</ele>
        <time>2020-06-30T13:08:56Z</time>
      </trkpt>
      <trkpt lat="48.69925" lon="4.60479">
        <ele>106.2</ele>
        <time>2020-06-30T13:08:57Z</time>
      </trkpt>
      <trkpt lat="48.69929" lon="4.60471">
        <ele>106.2</ele>
        <time>2020-06-30T13:08:58Z</time>
      </trkpt>
      <trkpt lat="48.69933" lon="4.60463">
        <ele>106.3</ele>
        <time>2020-06-30T13:08:59Z</time>
      </trkpt>
      <trkpt lat="48.69938" lon="4.60455">
        <ele>106.3</ele>
        <time>2020-06-30T13:09:00Z</time>
      </trkpt>
      <trkpt lat="48.69943" lon="4.60447">
        <ele>106.3</ele>
        <time>2020-06-30T13:09:01Z</time>
      </trkpt>
      <trkpt lat="48.69947" lon="4.6044">
        <ele>106.3</ele>
        <time>2020-06-30T13:09:02Z</time>
      </trkpt>
      <trkpt lat="48.69952" lon="4.60432">
        <ele>106.2</ele>
        <time>2020-06-30T13:09:03Z</time>
      </trkpt>
      <trkpt lat="48.69957" lon="4.60425">
        <ele>106.2</ele>
        <time>2020-06-30T13:09:04Z</time>
      </trkpt>
      <trkpt lat="48.69962" lon="4.60418">
        <ele>106.2</ele>
        <time>2020-06-30T13:09:05Z</time>
      </trkpt>
      <trkpt lat="48.69966" lon="4.60411">
        <ele>106.2</ele>
        <time>2020-06-30T13:09:06Z</time>
      </trkpt>
      <trkpt lat="48.69971" lon="4.60404">
        <ele>106.2</ele>
        <time>2020-06-30T13:09:07Z</time>
      </trkpt>
      <trkpt lat="48.69975" lon="4.60397">
        <ele>106.2</ele>
        <time>2020-06-30T13:09:08Z</time>
      </trkpt>
      <trkpt lat="48.6998" lon="4.6039">
        <ele>106.2</ele>
        <time>2020-06-30T13:09:09Z</time>
      </trkpt>
      <trkpt lat="48.69985" lon="4.60384">
        <ele>106.2</ele>
        <time>2020-06-30T13:09:10Z</time>
      </trkpt>
      <trkpt lat="48.6999" lon="4.60377">
        <ele>106.1</ele>
        <time>2020-06-30T13:09:11Z</time>
      </trkpt>
      <trkpt lat="48.69994" lon="4.6037">
        <ele>106.1</ele>
        <time>2020-06-30T13:09:12Z</time>
      </trkpt>
      <trkpt lat="48.69999" lon="4.60363">
        <ele>106.1</ele>
        <time>2020-06-30T13:09:13Z</time>
      </trkpt>
      <trkpt lat="48.70004" lon="4.60357">
        <ele>106.1</ele>
        <time>2020-06-30T13:09:14Z</time>
      </trkpt>
      <trkpt lat="48.70008" lon="4.60351">
        <ele>106.1</ele>
        <time>2020-06-30T13:09:15Z</time>
      </trkpt>
      <trkpt lat="48.70013" lon="4.60344">
        <ele>106.1</ele>
        <time>2020-06-30T13:09:16Z</time>
      </trkpt>
      <trkpt lat="48.70018" lon="4.60337">
        <ele>106.1</ele>
        <time>2020-06-30T13:09:17Z</time>
      </trkpt>
      <trkpt lat="48.70022" lon="4.6033">
        <ele>106.2</ele>
        <time>2020-06-30T13:09:18Z</time>
      </trkpt>
      <trkpt lat="48.70027" lon="4.60324">
        <ele>106.2</ele>
        <time>2020-06-30T13:09:19Z</time>
      </trkpt>
      <trkpt lat="48.70031" lon="4.60317">
        <ele>106.2</ele>
        <time>2020-06-30T13:09:20Z</time>
      </trkpt>
      <trkpt lat="48.70036" lon="4.6031">
        <ele>106.2</ele>
        <time>2020-06-30T13:09:21Z</time>
      </trkpt>
      <trkpt lat="48.70041" lon="4.60303">
        <ele>106.2</ele>
        <time>2020-06-30T13:09:22Z</time>
      </trkpt>
      <trkpt lat="48.70045" lon="4.60297">
        <ele>106.2</ele>
        <time>2020-06-30T13:09:23Z</time>
      </trkpt>
      <trkpt lat="48.7005" lon="4.60291">
        <ele>106.2</ele>
        <time>2020-06-30T13:09:24Z</time>
      </trkpt>
      <trkpt lat="48.70055" lon="4.60284">
        <ele>106.2</ele>
        <time>2020-06-30T13:09:25Z</time>
      </trkpt>
      <trkpt lat="48.7006" lon="4.60278">
        <ele>106.2</ele>
        <time>2020-06-30T13:09:26Z</time>
      </trkpt>
      <trkpt lat="48.70065" lon="4.60273">
        <ele>106.3</ele>
        <time>2020-06-30T13:09:27Z</time>
      </trkpt>
      <trkpt lat="48.7007" lon="4.60266">
        <ele>106.3</ele>
        <time>2020-06-30T13:09:28Z</time>
      </trkpt>
      <trkpt lat="48.70075" lon="4.6026">
        <ele>106.3</ele>
        <time>2020-06-30T13:09:29Z</time>
      </trkpt>
      <trkpt lat="48.7008" lon="4.60254">
        <ele>106.3</ele>
        <time>2020-06-30T13:09:30Z</time>
      </trkpt>
      <trkpt lat="48.70085" lon="4.60248">
        <ele>106.3</ele>
        <time>2020-06-30T13:09:31Z</time>
      </trkpt>
      <trkpt lat="48.70091" lon="4.60242">
        <ele>106.3</ele>
        <time>2020-06-30T13:09:32Z</time>
      </trkpt>
      <trkpt lat="48.70095" lon="4.60236">
        <ele>106.3</ele>
        <time>2020-06-30T13:09:33Z</time>
      </trkpt>
      <trkpt lat="48.701" lon="4.6023">
        <ele>106.3</ele>
        <time>2020-06-30T13:09:34Z</time>
      </trkpt>
      <trkpt lat="48.70105" lon="4.60224">
        <ele>106.3</ele>
        <time>2020-06-30T13:09:35Z</time>
      </trkpt>
      <trkpt lat="48.70111" lon="4.60218">
        <ele>106.3</ele>
        <time>2020-06-30T13:09:36Z</time>
      </trkpt>
      <trkpt lat="48.70115" lon="4.60212">
        <ele>106.3</ele>
        <time>2020-06-30T13:09:37Z</time>
      </trkpt>
      <trkpt lat="48.7012" lon="4.60206">
        <ele>106.3</ele>
        <time>2020-06-30T13:09:38Z</time>
      </trkpt>
      <trkpt lat="48.70125" lon="4.60201">
        <ele>106.3</ele>
        <time>2020-06-30T13:09:39Z</time>
      </trkpt>
      <trkpt lat="48.7013" lon="4.60196">
        <ele>106.3</ele>
        <time>2020-06-30T13:09:40Z</time>
      </trkpt>
      <trkpt lat="48.70135" lon="4.60191">
        <ele>106.3</ele>
        <time>2020-06-30T13:09:41Z</time>
      </trkpt>
      <trkpt lat="48.7014" lon="4.60186">
        <ele>106.3</ele>
        <time>2020-06-30T13:09:42Z</time>
      </trkpt>
      <trkpt lat="48.70146" lon="4.6018">
        <ele>106.3</ele>
        <time>2020-06-30T13:09:43Z</time>
      </trkpt>
      <trkpt lat="48.70151" lon="4.60175">
        <ele>106.3</ele>
        <time>2020-06-30T13:09:44Z</time>
      </trkpt>
      <trkpt lat="48.70157" lon="4.60169">
        <ele>106.3</ele>
        <time>2020-06-30T13:09:45Z</time>
      </trkpt>
      <trkpt lat="48.70162" lon="4.60164">
        <ele>106.3</ele>
        <time>2020-06-30T13:09:46Z</time>
      </trkpt>
      <trkpt lat="48.70168" lon="4.60158">
        <ele>106.3</ele>
        <time>2020-06-30T13:09:47Z</time>
      </trkpt>
      <trkpt lat="48.70173" lon="4.60153">
        <ele>106.3</ele>
        <time>2020-06-30T13:09:48Z</time>
      </trkpt>
      <trkpt lat="48.70179" lon="4.60148">
        <ele>106.3</ele>
        <time>2020-06-30T13:09:49Z</time>
      </trkpt>
      <trkpt lat="48.70184" lon="4.60142">
        <ele>106.3</ele>
        <time>2020-06-30T13:09:50Z</time>
      </trkpt>
      <trkpt lat="48.7019" lon="4.60135">
        <ele>106.2</ele>
        <time>2020-06-30T13:09:51Z</time>
      </trkpt>
      <trkpt lat="48.70194" lon="4.60128">
        <ele>106.2</ele>
        <time>2020-06-30T13:09:52Z</time>
      </trkpt>
      <trkpt lat="48.70199" lon="4.60122">
        <ele>106.2</ele>
        <time>2020-06-30T13:09:53Z</time>
      </trkpt>
      <trkpt lat="48.70205" lon="4.60116">
        <ele>106.2</ele>
        <time>2020-06-30T13:09:54Z</time>
      </trkpt>
      <trkpt lat="48.7021" lon="4.60111">
        <ele>106.3</ele>
        <time>2020-06-30T13:09:55Z</time>
      </trkpt>
      <trkpt lat="48.70215" lon="4.60106">
        <ele>106.3</ele>
        <time>2020-06-30T13:09:56Z</time>
      </trkpt>
      <trkpt lat="48.70221" lon="4.60101">
        <ele>106.3</ele>
        <time>2020-06-30T13:09:57Z</time>
      </trkpt>
      <trkpt lat="48.70226" lon="4.60098">
        <ele>106.3</ele>
        <time>2020-06-30T13:09:58Z</time>
      </trkpt>
      <trkpt lat="48.7023" lon="4.60093">
        <ele>106.3</ele>
        <time>2020-06-30T13:09:59Z</time>
      </trkpt>
      <trkpt lat="48.70235" lon="4.60088">
        <ele>106.4</ele>
        <time>2020-06-30T13:10:00Z</time>
      </trkpt>
      <trkpt lat="48.70239" lon="4.60084">
        <ele>106.4</ele>
        <time>2020-06-30T13:10:01Z</time>
      </trkpt>
      <trkpt lat="48.70243" lon="4.60081">
        <ele>106.4</ele>
        <time>2020-06-30T13:10:02Z</time>
      </trkpt>
      <trkpt lat="48.70246" lon="4.60078">
        <ele>106.4</ele>
        <time>2020-06-30T13:10:03Z</time>
      </trkpt>
      <trkpt lat="48.70249" lon="4.60076">
        <ele>106.4</ele>
        <time>2020-06-30T13:10:04Z</time>
      </trkpt>
      <trkpt lat="48.70252" lon="4.60074">
        <ele>106.4</ele>
        <time>2020-06-30T13:10:05Z</time>
      </trkpt>
      <trkpt lat="48.70253" lon="4.60073">
        <ele>106.5</ele>
        <time>2020-06-30T13:10:06Z</time>
      </trkpt>
      <trkpt lat="48.70257" lon="4.60071">
        <ele>106.3</ele>
        <time>2020-06-30T13:10:07Z</time>
      </trkpt>
      <trkpt lat="48.70259" lon="4.6007">
        <ele>106.3</ele>
        <time>2020-06-30T13:10:08Z</time>
      </trkpt>
      <trkpt lat="48.70262" lon="4.60068">
        <ele>106.2</ele>
        <time>2020-06-30T13:10:09Z</time>
      </trkpt>
      <trkpt lat="48.70267" lon="4.60064">
        <ele>106.1</ele>
        <time>2020-06-30T13:10:10Z</time>
      </trkpt>
      <trkpt lat="48.70271" lon="4.6006">
        <ele>105.9</ele>
        <time>2020-06-30T13:10:11Z</time>
      </trkpt>
      <trkpt lat="48.70276" lon="4.60056">
        <ele>105.8</ele>
        <time>2020-06-30T13:10:12Z</time>
      </trkpt>
      <trkpt lat="48.70281" lon="4.60052">
        <ele>105.7</ele>
        <time>2020-06-30T13:10:13Z</time>
      </trkpt>
      <trkpt lat="48.70287" lon="4.60047">
        <ele>105.5</ele>
        <time>2020-06-30T13:10:14Z</time>
      </trkpt>
      <trkpt lat="48.70291" lon="4.6004">
        <ele>105.4</ele>
        <time>2020-06-30T13:10:15Z</time>
      </trkpt>
      <trkpt lat="48.70297" lon="4.60036">
        <ele>105.2</ele>
        <time>2020-06-30T13:10:16Z</time>
      </trkpt>
      <trkpt lat="48.70302" lon="4.60032">
        <ele>105.2</ele>
        <time>2020-06-30T13:10:17Z</time>
      </trkpt>
      <trkpt lat="48.70307" lon="4.60029">
        <ele>105.1</ele>
        <time>2020-06-30T13:10:18Z</time>
      </trkpt>
      <trkpt lat="48.70313" lon="4.60025">
        <ele>105.1</ele>
        <time>2020-06-30T13:10:19Z</time>
      </trkpt>
      <trkpt lat="48.70318" lon="4.6002">
        <ele>105</ele>
        <time>2020-06-30T13:10:20Z</time>
      </trkpt>
      <trkpt lat="48.70324" lon="4.60016">
        <ele>105</ele>
        <time>2020-06-30T13:10:21Z</time>
      </trkpt>
      <trkpt lat="48.70329" lon="4.60012">
        <ele>105</ele>
        <time>2020-06-30T13:10:22Z</time>
      </trkpt>
      <trkpt lat="48.70334" lon="4.60006">
        <ele>104.9</ele>
        <time>2020-06-30T13:10:23Z</time>
      </trkpt>
      <trkpt lat="48.7034" lon="4.60003">
        <ele>104.9</ele>
        <time>2020-06-30T13:10:24Z</time>
      </trkpt>
      <trkpt lat="48.70345" lon="4.59998">
        <ele>104.9</ele>
        <time>2020-06-30T13:10:25Z</time>
      </trkpt>
      <trkpt lat="48.7035" lon="4.59994">
        <ele>104.9</ele>
        <time>2020-06-30T13:10:26Z</time>
      </trkpt>
      <trkpt lat="48.70355" lon="4.59991">
        <ele>104.9</ele>
        <time>2020-06-30T13:10:27Z</time>
      </trkpt>
      <trkpt lat="48.7036" lon="4.59987">
        <ele>104.8</ele>
        <time>2020-06-30T13:10:28Z</time>
      </trkpt>
      <trkpt lat="48.70365" lon="4.59983">
        <ele>104.8</ele>
        <time>2020-06-30T13:10:29Z</time>
      </trkpt>
      <trkpt lat="48.70371" lon="4.59981">
        <ele>104.8</ele>
        <time>2020-06-30T13:10:30Z</time>
      </trkpt>
      <trkpt lat="48.70377" lon="4.59978">
        <ele>104.7</ele>
        <time>2020-06-30T13:10:31Z</time>
      </trkpt>
      <trkpt lat="48.70383" lon="4.59974">
        <ele>104.7</ele>
        <time>2020-06-30T13:10:32Z</time>
      </trkpt>
      <trkpt lat="48.70389" lon="4.5997">
        <ele>104.7</ele>
        <time>2020-06-30T13:10:33Z</time>
      </trkpt>
      <trkpt lat="48.70395" lon="4.59966">
        <ele>104.7</ele>
        <time>2020-06-30T13:10:34Z</time>
      </trkpt>
      <trkpt lat="48.704" lon="4.59961">
        <ele>104.6</ele>
        <time>2020-06-30T13:10:35Z</time>
      </trkpt>
      <trkpt lat="48.70406" lon="4.59956">
        <ele>104.6</ele>
        <time>2020-06-30T13:10:36Z</time>
      </trkpt>
      <trkpt lat="48.70412" lon="4.59954">
        <ele>104.6</ele>
        <time>2020-06-30T13:10:37Z</time>
      </trkpt>
      <trkpt lat="48.70418" lon="4.5995">
        <ele>104.6</ele>
        <time>2020-06-30T13:10:38Z</time>
      </trkpt>
      <trkpt lat="48.70424" lon="4.59946">
        <ele>104.5</ele>
        <time>2020-06-30T13:10:39Z</time>
      </trkpt>
      <trkpt lat="48.70431" lon="4.59942">
        <ele>104.5</ele>
        <time>2020-06-30T13:10:40Z</time>
      </trkpt>
      <trkpt lat="48.70438" lon="4.59938">
        <ele>104.5</ele>
        <time>2020-06-30T13:10:41Z</time>
      </trkpt>
      <trkpt lat="48.70444" lon="4.59934">
        <ele>104.5</ele>
        <time>2020-06-30T13:10:42Z</time>
      </trkpt>
      <trkpt lat="48.70451" lon="4.5993">
        <ele>104.4</ele>
        <time>2020-06-30T13:10:43Z</time>
      </trkpt>
      <trkpt lat="48.70458" lon="4.59926">
        <ele>104.4</ele>
        <time>2020-06-30T13:10:44Z</time>
      </trkpt>
      <trkpt lat="48.70465" lon="4.59923">
        <ele>104.4</ele>
        <time>2020-06-30T13:10:45Z</time>
      </trkpt>
      <trkpt lat="48.70473" lon="4.59919">
        <ele>104.3</ele>
        <time>2020-06-30T13:10:46Z</time>
      </trkpt>
      <trkpt lat="48.7048" lon="4.59915">
        <ele>104.3</ele>
        <time>2020-06-30T13:10:47Z</time>
      </trkpt>
      <trkpt lat="48.70488" lon="4.59912">
        <ele>104.2</ele>
        <time>2020-06-30T13:10:48Z</time>
      </trkpt>
      <trkpt lat="48.70494" lon="4.59909">
        <ele>104.2</ele>
        <time>2020-06-30T13:10:49Z</time>
      </trkpt>
      <trkpt lat="48.70502" lon="4.59906">
        <ele>104.2</ele>
        <time>2020-06-30T13:10:50Z</time>
      </trkpt>
      <trkpt lat="48.70509" lon="4.59903">
        <ele>104.2</ele>
        <time>2020-06-30T13:10:51Z</time>
      </trkpt>
      <trkpt lat="48.70517" lon="4.59899">
        <ele>104.2</ele>
        <time>2020-06-30T13:10:52Z</time>
      </trkpt>
      <trkpt lat="48.70524" lon="4.59896">
        <ele>104.1</ele>
        <time>2020-06-30T13:10:53Z</time>
      </trkpt>
      <trkpt lat="48.70531" lon="4.59894">
        <ele>104.1</ele>
        <time>2020-06-30T13:10:54Z</time>
      </trkpt>
      <trkpt lat="48.70538" lon="4.59892">
        <ele>104.1</ele>
        <time>2020-06-30T13:10:55Z</time>
      </trkpt>
      <trkpt lat="48.70546" lon="4.59892">
        <ele>104.1</ele>
        <time>2020-06-30T13:10:56Z</time>
      </trkpt>
      <trkpt lat="48.70553" lon="4.59892">
        <ele>104.1</ele>
        <time>2020-06-30T13:10:57Z</time>
      </trkpt>
      <trkpt lat="48.7056" lon="4.59892">
        <ele>104.1</ele>
        <time>2020-06-30T13:10:58Z</time>
      </trkpt>
      <trkpt lat="48.70566" lon="4.59893">
        <ele>104.2</ele>
        <time>2020-06-30T13:10:59Z</time>
      </trkpt>
      <trkpt lat="48.70572" lon="4.59894">
        <ele>104.2</ele>
        <time>2020-06-30T13:11:00Z</time>
      </trkpt>
      <trkpt lat="48.7058" lon="4.59894">
        <ele>104.2</ele>
        <time>2020-06-30T13:11:01Z</time>
      </trkpt>
      <trkpt lat="48.70587" lon="4.59891">
        <ele>104.2</ele>
        <time>2020-06-30T13:11:02Z</time>
      </trkpt>
      <trkpt lat="48.70593" lon="4.59886">
        <ele>104.2</ele>
        <time>2020-06-30T13:11:03Z</time>
      </trkpt>
      <trkpt lat="48.70598" lon="4.59881">
        <ele>104.1</ele>
        <time>2020-06-30T13:11:04Z</time>
      </trkpt>
      <trkpt lat="48.70604" lon="4.59875">
        <ele>104.1</ele>
        <time>2020-06-30T13:11:05Z</time>
      </trkpt>
      <trkpt lat="48.7061" lon="4.59869">
        <ele>104</ele>
        <time>2020-06-30T13:11:06Z</time>
      </trkpt>
      <trkpt lat="48.70616" lon="4.59865">
        <ele>103.9</ele>
        <time>2020-06-30T13:11:07Z</time>
      </trkpt>
      <trkpt lat="48.70622" lon="4.59862">
        <ele>103.9</ele>
        <time>2020-06-30T13:11:08Z</time>
      </trkpt>
      <trkpt lat="48.70629" lon="4.59859">
        <ele>103.9</ele>
        <time>2020-06-30T13:11:09Z</time>
      </trkpt>
      <trkpt lat="48.70636" lon="4.59858">
        <ele>103.9</ele>
        <time>2020-06-30T13:11:10Z</time>
      </trkpt>
      <trkpt lat="48.70644" lon="4.59855">
        <ele>103.8</ele>
        <time>2020-06-30T13:11:11Z</time>
      </trkpt>
      <trkpt lat="48.70651" lon="4.59852">
        <ele>103.8</ele>
        <time>2020-06-30T13:11:12Z</time>
      </trkpt>
      <trkpt lat="48.70658" lon="4.59849">
        <ele>103.8</ele>
        <time>2020-06-30T13:11:13Z</time>
      </trkpt>
      <trkpt lat="48.70666" lon="4.59846">
        <ele>103.7</ele>
        <time>2020-06-30T13:11:14Z</time>
      </trkpt>
      <trkpt lat="48.70673" lon="4.59844">
        <ele>103.7</ele>
        <time>2020-06-30T13:11:15Z</time>
      </trkpt>
      <trkpt lat="48.70679" lon="4.59842">
        <ele>103.7</ele>
        <time>2020-06-30T13:11:16Z</time>
      </trkpt>
      <trkpt lat="48.70686" lon="4.59837">
        <ele>103.7</ele>
        <time>2020-06-30T13:11:17Z</time>
      </trkpt>
      <trkpt lat="48.70692" lon="4.59836">
        <ele>103.7</ele>
        <time>2020-06-30T13:11:18Z</time>
      </trkpt>
      <trkpt lat="48.70698" lon="4.59835">
        <ele>103.7</ele>
        <time>2020-06-30T13:11:19Z</time>
      </trkpt>
      <trkpt lat="48.70705" lon="4.59833">
        <ele>103.7</ele>
        <time>2020-06-30T13:11:20Z</time>
      </trkpt>
      <trkpt lat="48.70711" lon="4.5983">
        <ele>103.6</ele>
        <time>2020-06-30T13:11:21Z</time>
      </trkpt>
      <trkpt lat="48.70716" lon="4.59828">
        <ele>103.6</ele>
        <time>2020-06-30T13:11:22Z</time>
      </trkpt>
      <trkpt lat="48.70722" lon="4.59825">
        <ele>103.6</ele>
        <time>2020-06-30T13:11:23Z</time>
      </trkpt>
      <trkpt lat="48.70728" lon="4.59822">
        <ele>103.6</ele>
        <time>2020-06-30T13:11:24Z</time>
      </trkpt>
      <trkpt lat="48.70735" lon="4.5982">
        <ele>103.6</ele>
        <time>2020-06-30T13:11:25Z</time>
      </trkpt>
      <trkpt lat="48.70741" lon="4.59817">
        <ele>103.6</ele>
        <time>2020-06-30T13:11:26Z</time>
      </trkpt>
      <trkpt lat="48.70747" lon="4.59815">
        <ele>103.6</ele>
        <time>2020-06-30T13:11:27Z</time>
      </trkpt>
      <trkpt lat="48.70753" lon="4.59814">
        <ele>103.6</ele>
        <time>2020-06-30T13:11:28Z</time>
      </trkpt>
      <trkpt lat="48.70759" lon="4.59813">
        <ele>103.6</ele>
        <time>2020-06-30T13:11:29Z</time>
      </trkpt>
      <trkpt lat="48.70766" lon="4.59812">
        <ele>103.6</ele>
        <time>2020-06-30T13:11:30Z</time>
      </trkpt>
      <trkpt lat="48.70772" lon="4.5981">
        <ele>103.6</ele>
        <time>2020-06-30T13:11:31Z</time>
      </trkpt>
      <trkpt lat="48.70778" lon="4.59808">
        <ele>103.6</ele>
        <time>2020-06-30T13:11:32Z</time>
      </trkpt>
      <trkpt lat="48.70784" lon="4.59806">
        <ele>103.7</ele>
        <time>2020-06-30T13:11:33Z</time>
      </trkpt>
      <trkpt lat="48.7079" lon="4.59805">
        <ele>103.7</ele>
        <time>2020-06-30T13:11:34Z</time>
      </trkpt>
      <trkpt lat="48.70795" lon="4.59804">
        <ele>103.7</ele>
        <time>2020-06-30T13:11:35Z</time>
      </trkpt>
      <trkpt lat="48.70802" lon="4.59802">
        <ele>103.7</ele>
        <time>2020-06-30T13:11:36Z</time>
      </trkpt>
      <trkpt lat="48.70808" lon="4.598">
        <ele>103.7</ele>
        <time>2020-06-30T13:11:37Z</time>
      </trkpt>
      <trkpt lat="48.70814" lon="4.59797">
        <ele>103.7</ele>
        <time>2020-06-30T13:11:38Z</time>
      </trkpt>
      <trkpt lat="48.7082" lon="4.59796">
        <ele>103.7</ele>
        <time>2020-06-30T13:11:39Z</time>
      </trkpt>
      <trkpt lat="48.70826" lon="4.59793">
        <ele>103.7</ele>
        <time>2020-06-30T13:11:40Z</time>
      </trkpt>
      <trkpt lat="48.70833" lon="4.59791">
        <ele>103.8</ele>
        <time>2020-06-30T13:11:41Z</time>
      </trkpt>
      <trkpt lat="48.7084" lon="4.59788">
        <ele>103.8</ele>
        <time>2020-06-30T13:11:42Z</time>
      </trkpt>
      <trkpt lat="48.70845" lon="4.59786">
        <ele>103.8</ele>
        <time>2020-06-30T13:11:43Z</time>
      </trkpt>
      <trkpt lat="48.70853" lon="4.59783">
        <ele>103.8</ele>
        <time>2020-06-30T13:11:44Z</time>
      </trkpt>
      <trkpt lat="48.70859" lon="4.59781">
        <ele>103.8</ele>
        <time>2020-06-30T13:11:45Z</time>
      </trkpt>
      <trkpt lat="48.70867" lon="4.59778">
        <ele>103.8</ele>
        <time>2020-06-30T13:11:46Z</time>
      </trkpt>
      <trkpt lat="48.70873" lon="4.59776">
        <ele>103.8</ele>
        <time>2020-06-30T13:11:47Z</time>
      </trkpt>
      <trkpt lat="48.70881" lon="4.59774">
        <ele>103.8</ele>
        <time>2020-06-30T13:11:48Z</time>
      </trkpt>
      <trkpt lat="48.70889" lon="4.59771">
        <ele>103.8</ele>
        <time>2020-06-30T13:11:49Z</time>
      </trkpt>
      <trkpt lat="48.70897" lon="4.59769">
        <ele>103.8</ele>
        <time>2020-06-30T13:11:50Z</time>
      </trkpt>
      <trkpt lat="48.70904" lon="4.59768">
        <ele>103.8</ele>
        <time>2020-06-30T13:11:51Z</time>
      </trkpt>
      <trkpt lat="48.70911" lon="4.59766">
        <ele>103.8</ele>
        <time>2020-06-30T13:11:52Z</time>
      </trkpt>
      <trkpt lat="48.7092" lon="4.59762">
        <ele>103.9</ele>
        <time>2020-06-30T13:11:53Z</time>
      </trkpt>
      <trkpt lat="48.70926" lon="4.59759">
        <ele>103.9</ele>
        <time>2020-06-30T13:11:54Z</time>
      </trkpt>
      <trkpt lat="48.70932" lon="4.59756">
        <ele>103.9</ele>
        <time>2020-06-30T13:11:55Z</time>
      </trkpt>
      <trkpt lat="48.70939" lon="4.59752">
        <ele>103.9</ele>
        <time>2020-06-30T13:11:56Z</time>
      </trkpt>
      <trkpt lat="48.70945" lon="4.59748">
        <ele>103.9</ele>
        <time>2020-06-30T13:11:57Z</time>
      </trkpt>
      <trkpt lat="48.70954" lon="4.59748">
        <ele>103.9</ele>
        <time>2020-06-30T13:11:58Z</time>
      </trkpt>
      <trkpt lat="48.70962" lon="4.59747">
        <ele>103.9</ele>
        <time>2020-06-30T13:11:59Z</time>
      </trkpt>
      <trkpt lat="48.7097" lon="4.59746">
        <ele>103.9</ele>
        <time>2020-06-30T13:12:00Z</time>
      </trkpt>
      <trkpt lat="48.70977" lon="4.59743">
        <ele>103.9</ele>
        <time>2020-06-30T13:12:01Z</time>
      </trkpt>
      <trkpt lat="48.70984" lon="4.59741">
        <ele>103.9</ele>
        <time>2020-06-30T13:12:02Z</time>
      </trkpt>
      <trkpt lat="48.70992" lon="4.59738">
        <ele>103.9</ele>
        <time>2020-06-30T13:12:03Z</time>
      </trkpt>
      <trkpt lat="48.71001" lon="4.59735">
        <ele>104</ele>
        <time>2020-06-30T13:12:04Z</time>
      </trkpt>
      <trkpt lat="48.71008" lon="4.59733">
        <ele>104</ele>
        <time>2020-06-30T13:12:05Z</time>
      </trkpt>
      <trkpt lat="48.71015" lon="4.59731">
        <ele>104</ele>
        <time>2020-06-30T13:12:06Z</time>
      </trkpt>
      <trkpt lat="48.71022" lon="4.59729">
        <ele>104</ele>
        <time>2020-06-30T13:12:07Z</time>
      </trkpt>
      <trkpt lat="48.7103" lon="4.59725">
        <ele>103.9</ele>
        <time>2020-06-30T13:12:08Z</time>
      </trkpt>
      <trkpt lat="48.71037" lon="4.59723">
        <ele>103.9</ele>
        <time>2020-06-30T13:12:09Z</time>
      </trkpt>
      <trkpt lat="48.71045" lon="4.59721">
        <ele>103.9</ele>
        <time>2020-06-30T13:12:10Z</time>
      </trkpt>
      <trkpt lat="48.71053" lon="4.59718">
        <ele>103.9</ele>
        <time>2020-06-30T13:12:11Z</time>
      </trkpt>
      <trkpt lat="48.71061" lon="4.59715">
        <ele>103.9</ele>
        <time>2020-06-30T13:12:12Z</time>
      </trkpt>
      <trkpt lat="48.71069" lon="4.59711">
        <ele>103.9</ele>
        <time>2020-06-30T13:12:13Z</time>
      </trkpt>
      <trkpt lat="48.71078" lon="4.59709">
        <ele>103.9</ele>
        <time>2020-06-30T13:12:14Z</time>
      </trkpt>
      <trkpt lat="48.71086" lon="4.59706">
        <ele>103.9</ele>
        <time>2020-06-30T13:12:15Z</time>
      </trkpt>
      <trkpt lat="48.71094" lon="4.59704">
        <ele>103.8</ele>
        <time>2020-06-30T13:12:16Z</time>
      </trkpt>
      <trkpt lat="48.71101" lon="4.59702">
        <ele>103.8</ele>
        <time>2020-06-30T13:12:17Z</time>
      </trkpt>
      <trkpt lat="48.71109" lon="4.59701">
        <ele>103.8</ele>
        <time>2020-06-30T13:12:18Z</time>
      </trkpt>
      <trkpt lat="48.71116" lon="4.59699">
        <ele>103.8</ele>
        <time>2020-06-30T13:12:19Z</time>
      </trkpt>
      <trkpt lat="48.71124" lon="4.59697">
        <ele>103.8</ele>
        <time>2020-06-30T13:12:20Z</time>
      </trkpt>
      <trkpt lat="48.71131" lon="4.59694">
        <ele>103.8</ele>
        <time>2020-06-30T13:12:21Z</time>
      </trkpt>
      <trkpt lat="48.71139" lon="4.59691">
        <ele>103.9</ele>
        <time>2020-06-30T13:12:22Z</time>
      </trkpt>
      <trkpt lat="48.71146" lon="4.59689">
        <ele>103.9</ele>
        <time>2020-06-30T13:12:23Z</time>
      </trkpt>
      <trkpt lat="48.71154" lon="4.59687">
        <ele>103.8</ele>
        <time>2020-06-30T13:12:24Z</time>
      </trkpt>
      <trkpt lat="48.71163" lon="4.59686">
        <ele>103.8</ele>
        <time>2020-06-30T13:12:25Z</time>
      </trkpt>
      <trkpt lat="48.71171" lon="4.59685">
        <ele>103.8</ele>
        <time>2020-06-30T13:12:26Z</time>
      </trkpt>
      <trkpt lat="48.71178" lon="4.59683">
        <ele>103.8</ele>
        <time>2020-06-30T13:12:27Z</time>
      </trkpt>
      <trkpt lat="48.71186" lon="4.5968">
        <ele>103.7</ele>
        <time>2020-06-30T13:12:28Z</time>
      </trkpt>
      <trkpt lat="48.71193" lon="4.59678">
        <ele>103.7</ele>
        <time>2020-06-30T13:12:29Z</time>
      </trkpt>
      <trkpt lat="48.71201" lon="4.59676">
        <ele>103.7</ele>
        <time>2020-06-30T13:12:30Z</time>
      </trkpt>
      <trkpt lat="48.71209" lon="4.59673">
        <ele>103.7</ele>
        <time>2020-06-30T13:12:31Z</time>
      </trkpt>
      <trkpt lat="48.71217" lon="4.5967">
        <ele>103.7</ele>
        <time>2020-06-30T13:12:32Z</time>
      </trkpt>
      <trkpt lat="48.71225" lon="4.59668">
        <ele>103.7</ele>
        <time>2020-06-30T13:12:33Z</time>
      </trkpt>
      <trkpt lat="48.71233" lon="4.59665">
        <ele>103.7</ele>
        <time>2020-06-30T13:12:34Z</time>
      </trkpt>
      <trkpt lat="48.71242" lon="4.59663">
        <ele>103.7</ele>
        <time>2020-06-30T13:12:35Z</time>
      </trkpt>
      <trkpt lat="48.7125" lon="4.59659">
        <ele>103.7</ele>
        <time>2020-06-30T13:12:36Z</time>
      </trkpt>
      <trkpt lat="48.71258" lon="4.59657">
        <ele>103.7</ele>
        <time>2020-06-30T13:12:37Z</time>
      </trkpt>
      <trkpt lat="48.71267" lon="4.59654">
        <ele>103.7</ele>
        <time>2020-06-30T13:12:38Z</time>
      </trkpt>
      <trkpt lat="48.71275" lon="4.59652">
        <ele>103.7</ele>
        <time>2020-06-30T13:12:39Z</time>
      </trkpt>
      <trkpt lat="48.71283" lon="4.59649">
        <ele>103.7</ele>
        <time>2020-06-30T13:12:40Z</time>
      </trkpt>
      <trkpt lat="48.71291" lon="4.59646">
        <ele>103.7</ele>
        <time>2020-06-30T13:12:41Z</time>
      </trkpt>
      <trkpt lat="48.713" lon="4.59644">
        <ele>103.7</ele>
        <time>2020-06-30T13:12:42Z</time>
      </trkpt>
      <trkpt lat="48.71308" lon="4.59642">
        <ele>103.8</ele>
        <time>2020-06-30T13:12:43Z</time>
      </trkpt>
      <trkpt lat="48.71316" lon="4.59638">
        <ele>103.8</ele>
        <time>2020-06-30T13:12:44Z</time>
      </trkpt>
      <trkpt lat="48.71324" lon="4.59635">
        <ele>103.8</ele>
        <time>2020-06-30T13:12:45Z</time>
      </trkpt>
      <trkpt lat="48.71332" lon="4.59633">
        <ele>103.9</ele>
        <time>2020-06-30T13:12:46Z</time>
      </trkpt>
      <trkpt lat="48.7134" lon="4.5963">
        <ele>103.9</ele>
        <time>2020-06-30T13:12:47Z</time>
      </trkpt>
      <trkpt lat="48.71349" lon="4.59627">
        <ele>103.9</ele>
        <time>2020-06-30T13:12:48Z</time>
      </trkpt>
      <trkpt lat="48.71357" lon="4.59624">
        <ele>103.9</ele>
        <time>2020-06-30T13:12:49Z</time>
      </trkpt>
      <trkpt lat="48.71365" lon="4.59621">
        <ele>103.9</ele>
        <time>2020-06-30T13:12:50Z</time>
      </trkpt>
      <trkpt lat="48.71373" lon="4.59619">
        <ele>103.9</ele>
        <time>2020-06-30T13:12:51Z</time>
      </trkpt>
      <trkpt lat="48.7138" lon="4.59616">
        <ele>103.9</ele>
        <time>2020-06-30T13:12:52Z</time>
      </trkpt>
      <trkpt lat="48.71386" lon="4.59613">
        <ele>103.9</ele>
        <time>2020-06-30T13:12:53Z</time>
      </trkpt>
      <trkpt lat="48.71393" lon="4.59612">
        <ele>103.9</ele>
        <time>2020-06-30T13:12:54Z</time>
      </trkpt>
      <trkpt lat="48.71399" lon="4.59609">
        <ele>103.9</ele>
        <time>2020-06-30T13:12:55Z</time>
      </trkpt>
      <trkpt lat="48.71404" lon="4.59608">
        <ele>103.9</ele>
        <time>2020-06-30T13:12:56Z</time>
      </trkpt>
      <trkpt lat="48.71409" lon="4.59606">
        <ele>103.9</ele>
        <time>2020-06-30T13:12:57Z</time>
      </trkpt>
      <trkpt lat="48.71414" lon="4.59605">
        <ele>103.9</ele>
        <time>2020-06-30T13:12:58Z</time>
      </trkpt>
      <trkpt lat="48.71418" lon="4.59604">
        <ele>103.9</ele>
        <time>2020-06-30T13:12:59Z</time>
      </trkpt>
      <trkpt lat="48.71421" lon="4.59603">
        <ele>103.9</ele>
        <time>2020-06-30T13:13:00Z</time>
      </trkpt>
      <trkpt lat="48.71425" lon="4.59602">
        <ele>103.9</ele>
        <time>2020-06-30T13:13:01Z</time>
      </trkpt>
      <trkpt lat="48.71428" lon="4.596">
        <ele>103.9</ele>
        <time>2020-06-30T13:13:02Z</time>
      </trkpt>
      <trkpt lat="48.71433" lon="4.59598">
        <ele>103.8</ele>
        <time>2020-06-30T13:13:03Z</time>
      </trkpt>
      <trkpt lat="48.71438" lon="4.59597">
        <ele>103.8</ele>
        <time>2020-06-30T13:13:04Z</time>
      </trkpt>
      <trkpt lat="48.71444" lon="4.59595">
        <ele>103.7</ele>
        <time>2020-06-30T13:13:05Z</time>
      </trkpt>
      <trkpt lat="48.71448" lon="4.59594">
        <ele>103.6</ele>
        <time>2020-06-30T13:13:06Z</time>
      </trkpt>
      <trkpt lat="48.71453" lon="4.59591">
        <ele>103.6</ele>
        <time>2020-06-30T13:13:07Z</time>
      </trkpt>
      <trkpt lat="48.71456" lon="4.5959">
        <ele>103.6</ele>
        <time>2020-06-30T13:13:08Z</time>
      </trkpt>
      <trkpt lat="48.7146" lon="4.59588">
        <ele>103.5</ele>
        <time>2020-06-30T13:13:09Z</time>
      </trkpt>
      <trkpt lat="48.71463" lon="4.59586">
        <ele>103.5</ele>
        <time>2020-06-30T13:13:10Z</time>
      </trkpt>
      <trkpt lat="48.71465" lon="4.59586">
        <ele>103.5</ele>
        <time>2020-06-30T13:13:11Z</time>
      </trkpt>
      <trkpt lat="48.71466" lon="4.59585">
        <ele>103.5</ele>
        <time>2020-06-30T13:13:12Z</time>
      </trkpt>
      <trkpt lat="48.71469" lon="4.59585">
        <ele>103.5</ele>
        <time>2020-06-30T13:13:13Z</time>
      </trkpt>
      <trkpt lat="48.7147" lon="4.59585">
        <ele>103.6</ele>
        <time>2020-06-30T13:13:14Z</time>
      </trkpt>
      <trkpt lat="48.71474" lon="4.59583">
        <ele>103.6</ele>
        <time>2020-06-30T13:13:15Z</time>
      </trkpt>
      <trkpt lat="48.71479" lon="4.59583">
        <ele>103.6</ele>
        <time>2020-06-30T13:13:16Z</time>
      </trkpt>
      <trkpt lat="48.71484" lon="4.59581">
        <ele>103.7</ele>
        <time>2020-06-30T13:13:17Z</time>
      </trkpt>
      <trkpt lat="48.7149" lon="4.59581">
        <ele>103.8</ele>
        <time>2020-06-30T13:13:18Z</time>
      </trkpt>
      <trkpt lat="48.71495" lon="4.59579">
        <ele>103.9</ele>
        <time>2020-06-30T13:13:19Z</time>
      </trkpt>
      <trkpt lat="48.71499" lon="4.59578">
        <ele>104</ele>
        <time>2020-06-30T13:13:20Z</time>
      </trkpt>
      <trkpt lat="48.71504" lon="4.59576">
        <ele>104</ele>
        <time>2020-06-30T13:13:21Z</time>
      </trkpt>
      <trkpt lat="48.71509" lon="4.59575">
        <ele>104.1</ele>
        <time>2020-06-30T13:13:22Z</time>
      </trkpt>
      <trkpt lat="48.71513" lon="4.59574">
        <ele>104.1</ele>
        <time>2020-06-30T13:13:23Z</time>
      </trkpt>
      <trkpt lat="48.71518" lon="4.59573">
        <ele>104.2</ele>
        <time>2020-06-30T13:13:24Z</time>
      </trkpt>
      <trkpt lat="48.71523" lon="4.59571">
        <ele>104.2</ele>
        <time>2020-06-30T13:13:25Z</time>
      </trkpt>
      <trkpt lat="48.71528" lon="4.5957">
        <ele>104.2</ele>
        <time>2020-06-30T13:13:26Z</time>
      </trkpt>
      <trkpt lat="48.71534" lon="4.59566">
        <ele>104.2</ele>
        <time>2020-06-30T13:13:27Z</time>
      </trkpt>
      <trkpt lat="48.7154" lon="4.59565">
        <ele>104.2</ele>
        <time>2020-06-30T13:13:28Z</time>
      </trkpt>
      <trkpt lat="48.71546" lon="4.59565">
        <ele>104.2</ele>
        <time>2020-06-30T13:13:29Z</time>
      </trkpt>
      <trkpt lat="48.71551" lon="4.59563">
        <ele>104.2</ele>
        <time>2020-06-30T13:13:30Z</time>
      </trkpt>
      <trkpt lat="48.71556" lon="4.5956">
        <ele>104.2</ele>
        <time>2020-06-30T13:13:31Z</time>
      </trkpt>
      <trkpt lat="48.71561" lon="4.59559">
        <ele>104.2</ele>
        <time>2020-06-30T13:13:32Z</time>
      </trkpt>
      <trkpt lat="48.71565" lon="4.59556">
        <ele>104.3</ele>
        <time>2020-06-30T13:13:33Z</time>
      </trkpt>
      <trkpt lat="48.7157" lon="4.59555">
        <ele>104.3</ele>
        <time>2020-06-30T13:13:34Z</time>
      </trkpt>
      <trkpt lat="48.71575" lon="4.59552">
        <ele>104.3</ele>
        <time>2020-06-30T13:13:35Z</time>
      </trkpt>
      <trkpt lat="48.71581" lon="4.59551">
        <ele>104.3</ele>
        <time>2020-06-30T13:13:36Z</time>
      </trkpt>
      <trkpt lat="48.71586" lon="4.5955">
        <ele>104.2</ele>
        <time>2020-06-30T13:13:37Z</time>
      </trkpt>
      <trkpt lat="48.71592" lon="4.59549">
        <ele>104.2</ele>
        <time>2020-06-30T13:13:38Z</time>
      </trkpt>
      <trkpt lat="48.71598" lon="4.59546">
        <ele>104.2</ele>
        <time>2020-06-30T13:13:39Z</time>
      </trkpt>
      <trkpt lat="48.71605" lon="4.59544">
        <ele>104.3</ele>
        <time>2020-06-30T13:13:40Z</time>
      </trkpt>
      <trkpt lat="48.71611" lon="4.59543">
        <ele>104.3</ele>
        <time>2020-06-30T13:13:41Z</time>
      </trkpt>
      <trkpt lat="48.71618" lon="4.59541">
        <ele>104.3</ele>
        <time>2020-06-30T13:13:42Z</time>
      </trkpt>
      <trkpt lat="48.71624" lon="4.59537">
        <ele>104.3</ele>
        <time>2020-06-30T13:13:43Z</time>
      </trkpt>
      <trkpt lat="48.7163" lon="4.59535">
        <ele>104.2</ele>
        <time>2020-06-30T13:13:44Z</time>
      </trkpt>
      <trkpt lat="48.71635" lon="4.59531">
        <ele>104.2</ele>
        <time>2020-06-30T13:13:45Z</time>
      </trkpt>
      <trkpt lat="48.71641" lon="4.5953">
        <ele>104.2</ele>
        <time>2020-06-30T13:13:46Z</time>
      </trkpt>
      <trkpt lat="48.71647" lon="4.59527">
        <ele>104.2</ele>
        <time>2020-06-30T13:13:47Z</time>
      </trkpt>
      <trkpt lat="48.71653" lon="4.59526">
        <ele>104.2</ele>
        <time>2020-06-30T13:13:48Z</time>
      </trkpt>
      <trkpt lat="48.71659" lon="4.59524">
        <ele>104.2</ele>
        <time>2020-06-30T13:13:49Z</time>
      </trkpt>
      <trkpt lat="48.71666" lon="4.59523">
        <ele>104.1</ele>
        <time>2020-06-30T13:13:50Z</time>
      </trkpt>
      <trkpt lat="48.71672" lon="4.59522">
        <ele>104.1</ele>
        <time>2020-06-30T13:13:51Z</time>
      </trkpt>
      <trkpt lat="48.71678" lon="4.59521">
        <ele>104.1</ele>
        <time>2020-06-30T13:13:52Z</time>
      </trkpt>
      <trkpt lat="48.71683" lon="4.59518">
        <ele>104.1</ele>
        <time>2020-06-30T13:13:53Z</time>
      </trkpt>
      <trkpt lat="48.71689" lon="4.59517">
        <ele>104.1</ele>
        <time>2020-06-30T13:13:54Z</time>
      </trkpt>
      <trkpt lat="48.71694" lon="4.59515">
        <ele>104.1</ele>
        <time>2020-06-30T13:13:55Z</time>
      </trkpt>
      <trkpt lat="48.717" lon="4.59513">
        <ele>104.1</ele>
        <time>2020-06-30T13:13:56Z</time>
      </trkpt>
      <trkpt lat="48.71705" lon="4.59511">
        <ele>104.1</ele>
        <time>2020-06-30T13:13:57Z</time>
      </trkpt>
      <trkpt lat="48.71711" lon="4.59507">
        <ele>104.2</ele>
        <time>2020-06-30T13:13:58Z</time>
      </trkpt>
      <trkpt lat="48.71716" lon="4.59506">
        <ele>104.2</ele>
        <time>2020-06-30T13:13:59Z</time>
      </trkpt>
      <trkpt lat="48.71721" lon="4.59506">
        <ele>104.2</ele>
        <time>2020-06-30T13:14:00Z</time>
      </trkpt>
      <trkpt lat="48.71726" lon="4.59506">
        <ele>104.2</ele>
        <time>2020-06-30T13:14:01Z</time>
      </trkpt>
      <trkpt lat="48.7173" lon="4.59507">
        <ele>104.2</ele>
        <time>2020-06-30T13:14:02Z</time>
      </trkpt>
      <trkpt lat="48.71733" lon="4.59508">
        <ele>104.2</ele>
        <time>2020-06-30T13:14:03Z</time>
      </trkpt>
      <trkpt lat="48.71737" lon="4.59509">
        <ele>104.2</ele>
        <time>2020-06-30T13:14:04Z</time>
      </trkpt>
      <trkpt lat="48.71741" lon="4.59507">
        <ele>104.3</ele>
        <time>2020-06-30T13:14:05Z</time>
      </trkpt>
      <trkpt lat="48.71744" lon="4.59507">
        <ele>104.3</ele>
        <time>2020-06-30T13:14:06Z</time>
      </trkpt>
      <trkpt lat="48.71747" lon="4.59503">
        <ele>104.3</ele>
        <time>2020-06-30T13:14:07Z</time>
      </trkpt>
      <trkpt lat="48.71751" lon="4.595">
        <ele>104.3</ele>
        <time>2020-06-30T13:14:08Z</time>
      </trkpt>
      <trkpt lat="48.71755" lon="4.59497">
        <ele>104.3</ele>
        <time>2020-06-30T13:14:09Z</time>
      </trkpt>
      <trkpt lat="48.71758" lon="4.59493">
        <ele>104.3</ele>
        <time>2020-06-30T13:14:10Z</time>
      </trkpt>
      <trkpt lat="48.71761" lon="4.59491">
        <ele>104.3</ele>
        <time>2020-06-30T13:14:11Z</time>
      </trkpt>
      <trkpt lat="48.71764" lon="4.59488">
        <ele>104.3</ele>
        <time>2020-06-30T13:14:12Z</time>
      </trkpt>
      <trkpt lat="48.71768" lon="4.59484">
        <ele>104.3</ele>
        <time>2020-06-30T13:14:13Z</time>
      </trkpt>
      <trkpt lat="48.71769" lon="4.5948">
        <ele>104.3</ele>
        <time>2020-06-30T13:14:14Z</time>
      </trkpt>
      <trkpt lat="48.71769" lon="4.59476">
        <ele>104.1</ele>
        <time>2020-06-30T13:14:15Z</time>
      </trkpt>
      <trkpt lat="48.71769" lon="4.5947">
        <ele>104</ele>
        <time>2020-06-30T13:14:16Z</time>
      </trkpt>
      <trkpt lat="48.71769" lon="4.59468">
        <ele>104</ele>
        <time>2020-06-30T13:14:17Z</time>
      </trkpt>
      <trkpt lat="48.71769" lon="4.59462">
        <ele>103.9</ele>
        <time>2020-06-30T13:14:18Z</time>
      </trkpt>
      <trkpt lat="48.71769" lon="4.5946">
        <ele>103.7</ele>
        <time>2020-06-30T13:14:19Z</time>
      </trkpt>
      <trkpt lat="48.71769" lon="4.59455">
        <ele>103.5</ele>
        <time>2020-06-30T13:14:20Z</time>
      </trkpt>
      <trkpt lat="48.71769" lon="4.59453">
        <ele>103.5</ele>
        <time>2020-06-30T13:14:21Z</time>
      </trkpt>
      <trkpt lat="48.71771" lon="4.59453">
        <ele>103.4</ele>
        <time>2020-06-30T13:14:22Z</time>
      </trkpt>
      <trkpt lat="48.71773" lon="4.59454">
        <ele>103.3</ele>
        <time>2020-06-30T13:14:23Z</time>
      </trkpt>
      <trkpt lat="48.71776" lon="4.59455">
        <ele>103.1</ele>
        <time>2020-06-30T13:14:24Z</time>
      </trkpt>
      <trkpt lat="48.71781" lon="4.59454">
        <ele>102.9</ele>
        <time>2020-06-30T13:14:25Z</time>
      </trkpt>
      <trkpt lat="48.71787" lon="4.59454">
        <ele>102.6</ele>
        <time>2020-06-30T13:14:26Z</time>
      </trkpt>
      <trkpt lat="48.71793" lon="4.59454">
        <ele>102.3</ele>
        <time>2020-06-30T13:14:27Z</time>
      </trkpt>
      <trkpt lat="48.71799" lon="4.59455">
        <ele>102</ele>
        <time>2020-06-30T13:14:28Z</time>
      </trkpt>
      <trkpt lat="48.71804" lon="4.59455">
        <ele>101.7</ele>
        <time>2020-06-30T13:14:29Z</time>
      </trkpt>
      <trkpt lat="48.71809" lon="4.59454">
        <ele>101.4</ele>
        <time>2020-06-30T13:14:30Z</time>
      </trkpt>
      <trkpt lat="48.71813" lon="4.59454">
        <ele>101.1</ele>
        <time>2020-06-30T13:14:31Z</time>
      </trkpt>
      <trkpt lat="48.71816" lon="4.59453">
        <ele>100.9</ele>
        <time>2020-06-30T13:14:32Z</time>
      </trkpt>
      <trkpt lat="48.7182" lon="4.59452">
        <ele>100.8</ele>
        <time>2020-06-30T13:14:33Z</time>
      </trkpt>
      <trkpt lat="48.71821" lon="4.59452">
        <ele>100.8</ele>
        <time>2020-06-30T13:14:34Z</time>
      </trkpt>
      <trkpt lat="48.71821" lon="4.59452">
        <ele>100.8</ele>
        <time>2020-06-30T13:14:35Z</time>
      </trkpt>
      <trkpt lat="48.71821" lon="4.59452">
        <ele>100.8</ele>
        <time>2020-06-30T13:14:36Z</time>
      </trkpt>
      <trkpt lat="48.71821" lon="4.59453">
        <ele>100.7</ele>
        <time>2020-06-30T13:14:37Z</time>
      </trkpt>
      <trkpt lat="48.71822" lon="4.59453">
        <ele>100.7</ele>
        <time>2020-06-30T13:14:38Z</time>
      </trkpt>
      <trkpt lat="48.71823" lon="4.59454">
        <ele>100.7</ele>
        <time>2020-06-30T13:14:39Z</time>
      </trkpt>
      <trkpt lat="48.71823" lon="4.59455">
        <ele>100.6</ele>
        <time>2020-06-30T13:14:40Z</time>
      </trkpt>
      <trkpt lat="48.71824" lon="4.59454">
        <ele>100.6</ele>
        <time>2020-06-30T13:14:41Z</time>
      </trkpt>
      <trkpt lat="48.71825" lon="4.59451">
        <ele>100.6</ele>
        <time>2020-06-30T13:14:42Z</time>
      </trkpt>
      <trkpt lat="48.71829" lon="4.59458">
        <ele>100.5</ele>
        <time>2020-06-30T13:14:43Z</time>
      </trkpt>
      <trkpt lat="48.71836" lon="4.59457">
        <ele>100.4</ele>
        <time>2020-06-30T13:14:44Z</time>
      </trkpt>
      <trkpt lat="48.71838" lon="4.59447">
        <ele>100.4</ele>
        <time>2020-06-30T13:14:45Z</time>
      </trkpt>
      <trkpt lat="48.71844" lon="4.59438">
        <ele>100.3</ele>
        <time>2020-06-30T13:14:46Z</time>
      </trkpt>
      <trkpt lat="48.71849" lon="4.5943">
        <ele>100.3</ele>
        <time>2020-06-30T13:14:47Z</time>
      </trkpt>
      <trkpt lat="48.71855" lon="4.59427">
        <ele>100.2</ele>
        <time>2020-06-30T13:14:48Z</time>
      </trkpt>
      <trkpt lat="48.71859" lon="4.59423">
        <ele>100.2</ele>
        <time>2020-06-30T13:14:49Z</time>
      </trkpt>
      <trkpt lat="48.71863" lon="4.59419">
        <ele>100.3</ele>
        <time>2020-06-30T13:14:50Z</time>
      </trkpt>
      <trkpt lat="48.71869" lon="4.59417">
        <ele>100.3</ele>
        <time>2020-06-30T13:14:51Z</time>
      </trkpt>
      <trkpt lat="48.71874" lon="4.59414">
        <ele>100.4</ele>
        <time>2020-06-30T13:14:52Z</time>
      </trkpt>
      <trkpt lat="48.71883" lon="4.59413">
        <ele>100.6</ele>
        <time>2020-06-30T13:14:53Z</time>
      </trkpt>
      <trkpt lat="48.7189" lon="4.59412">
        <ele>100.7</ele>
        <time>2020-06-30T13:14:54Z</time>
      </trkpt>
      <trkpt lat="48.71898" lon="4.59413">
        <ele>100.8</ele>
        <time>2020-06-30T13:14:55Z</time>
      </trkpt>
      <trkpt lat="48.71904" lon="4.59414">
        <ele>100.9</ele>
        <time>2020-06-30T13:14:56Z</time>
      </trkpt>
      <trkpt lat="48.71909" lon="4.59414">
        <ele>101</ele>
        <time>2020-06-30T13:14:57Z</time>
      </trkpt>
      <trkpt lat="48.71915" lon="4.59415">
        <ele>101.1</ele>
        <time>2020-06-30T13:14:58Z</time>
      </trkpt>
      <trkpt lat="48.71921" lon="4.59417">
        <ele>101.2</ele>
        <time>2020-06-30T13:14:59Z</time>
      </trkpt>
      <trkpt lat="48.71928" lon="4.59418">
        <ele>101.2</ele>
        <time>2020-06-30T13:15:00Z</time>
      </trkpt>
      <trkpt lat="48.71935" lon="4.59419">
        <ele>101.3</ele>
        <time>2020-06-30T13:15:01Z</time>
      </trkpt>
      <trkpt lat="48.71942" lon="4.5942">
        <ele>101.4</ele>
        <time>2020-06-30T13:15:02Z</time>
      </trkpt>
      <trkpt lat="48.71949" lon="4.59421">
        <ele>101.5</ele>
        <time>2020-06-30T13:15:03Z</time>
      </trkpt>
      <trkpt lat="48.71956" lon="4.5942">
        <ele>101.6</ele>
        <time>2020-06-30T13:15:04Z</time>
      </trkpt>
      <trkpt lat="48.71963" lon="4.5942">
        <ele>101.6</ele>
        <time>2020-06-30T13:15:05Z</time>
      </trkpt>
      <trkpt lat="48.71968" lon="4.59419">
        <ele>101.7</ele>
        <time>2020-06-30T13:15:06Z</time>
      </trkpt>
      <trkpt lat="48.71975" lon="4.59419">
        <ele>101.7</ele>
        <time>2020-06-30T13:15:07Z</time>
      </trkpt>
      <trkpt lat="48.71982" lon="4.59421">
        <ele>101.8</ele>
        <time>2020-06-30T13:15:08Z</time>
      </trkpt>
      <trkpt lat="48.71991" lon="4.59421">
        <ele>101.8</ele>
        <time>2020-06-30T13:15:09Z</time>
      </trkpt>
      <trkpt lat="48.71999" lon="4.59422">
        <ele>101.7</ele>
        <time>2020-06-30T13:15:10Z</time>
      </trkpt>
      <trkpt lat="48.72007" lon="4.59423">
        <ele>101.7</ele>
        <time>2020-06-30T13:15:11Z</time>
      </trkpt>
      <trkpt lat="48.72016" lon="4.59423">
        <ele>101.7</ele>
        <time>2020-06-30T13:15:12Z</time>
      </trkpt>
      <trkpt lat="48.72024" lon="4.59424">
        <ele>101.7</ele>
        <time>2020-06-30T13:15:13Z</time>
      </trkpt>
      <trkpt lat="48.72031" lon="4.59424">
        <ele>101.8</ele>
        <time>2020-06-30T13:15:14Z</time>
      </trkpt>
      <trkpt lat="48.72038" lon="4.59424">
        <ele>101.8</ele>
        <time>2020-06-30T13:15:15Z</time>
      </trkpt>
      <trkpt lat="48.72044" lon="4.59425">
        <ele>101.8</ele>
        <time>2020-06-30T13:15:16Z</time>
      </trkpt>
      <trkpt lat="48.72051" lon="4.59426">
        <ele>101.9</ele>
        <time>2020-06-30T13:15:17Z</time>
      </trkpt>
      <trkpt lat="48.72058" lon="4.59427">
        <ele>101.9</ele>
        <time>2020-06-30T13:15:18Z</time>
      </trkpt>
      <trkpt lat="48.72063" lon="4.59428">
        <ele>101.9</ele>
        <time>2020-06-30T13:15:19Z</time>
      </trkpt>
      <trkpt lat="48.72068" lon="4.5943">
        <ele>101.9</ele>
        <time>2020-06-30T13:15:20Z</time>
      </trkpt>
      <trkpt lat="48.72073" lon="4.5943">
        <ele>101.9</ele>
        <time>2020-06-30T13:15:21Z</time>
      </trkpt>
      <trkpt lat="48.72077" lon="4.59426">
        <ele>101.9</ele>
        <time>2020-06-30T13:15:22Z</time>
      </trkpt>
      <trkpt lat="48.72078" lon="4.59421">
        <ele>101.9</ele>
        <time>2020-06-30T13:15:23Z</time>
      </trkpt>
      <trkpt lat="48.7208" lon="4.59417">
        <ele>102</ele>
        <time>2020-06-30T13:15:24Z</time>
      </trkpt>
      <trkpt lat="48.72081" lon="4.59412">
        <ele>102</ele>
        <time>2020-06-30T13:15:25Z</time>
      </trkpt>
      <trkpt lat="48.72081" lon="4.59406">
        <ele>102</ele>
        <time>2020-06-30T13:15:26Z</time>
      </trkpt>
      <trkpt lat="48.72082" lon="4.594">
        <ele>102</ele>
        <time>2020-06-30T13:15:27Z</time>
      </trkpt>
      <trkpt lat="48.72083" lon="4.59394">
        <ele>102.1</ele>
        <time>2020-06-30T13:15:28Z</time>
      </trkpt>
      <trkpt lat="48.72084" lon="4.59389">
        <ele>102</ele>
        <time>2020-06-30T13:15:29Z</time>
      </trkpt>
      <trkpt lat="48.72086" lon="4.59383">
        <ele>102</ele>
        <time>2020-06-30T13:15:30Z</time>
      </trkpt>
      <trkpt lat="48.72086" lon="4.59381">
        <ele>102</ele>
        <time>2020-06-30T13:15:31Z</time>
      </trkpt>
      <trkpt lat="48.72087" lon="4.59373">
        <ele>102</ele>
        <time>2020-06-30T13:15:32Z</time>
      </trkpt>
      <trkpt lat="48.72087" lon="4.59365">
        <ele>102</ele>
        <time>2020-06-30T13:15:33Z</time>
      </trkpt>
      <trkpt lat="48.72088" lon="4.59358">
        <ele>102</ele>
        <time>2020-06-30T13:15:34Z</time>
      </trkpt>
      <trkpt lat="48.72088" lon="4.59352">
        <ele>102</ele>
        <time>2020-06-30T13:15:35Z</time>
      </trkpt>
      <trkpt lat="48.72089" lon="4.59345">
        <ele>102</ele>
        <time>2020-06-30T13:15:36Z</time>
      </trkpt>
      <trkpt lat="48.72089" lon="4.5934">
        <ele>102</ele>
        <time>2020-06-30T13:15:37Z</time>
      </trkpt>
      <trkpt lat="48.72089" lon="4.59335">
        <ele>101.9</ele>
        <time>2020-06-30T13:15:38Z</time>
      </trkpt>
      <trkpt lat="48.72089" lon="4.59329">
        <ele>101.9</ele>
        <time>2020-06-30T13:15:39Z</time>
      </trkpt>
      <trkpt lat="48.72089" lon="4.59323">
        <ele>101.9</ele>
        <time>2020-06-30T13:15:40Z</time>
      </trkpt>
      <trkpt lat="48.72089" lon="4.59317">
        <ele>101.9</ele>
        <time>2020-06-30T13:15:41Z</time>
      </trkpt>
      <trkpt lat="48.7209" lon="4.5931">
        <ele>101.9</ele>
        <time>2020-06-30T13:15:42Z</time>
      </trkpt>
      <trkpt lat="48.7209" lon="4.59303">
        <ele>101.9</ele>
        <time>2020-06-30T13:15:43Z</time>
      </trkpt>
      <trkpt lat="48.7209" lon="4.59295">
        <ele>101.9</ele>
        <time>2020-06-30T13:15:44Z</time>
      </trkpt>
      <trkpt lat="48.72091" lon="4.59288">
        <ele>101.9</ele>
        <time>2020-06-30T13:15:45Z</time>
      </trkpt>
      <trkpt lat="48.72092" lon="4.59281">
        <ele>101.9</ele>
        <time>2020-06-30T13:15:46Z</time>
      </trkpt>
      <trkpt lat="48.72092" lon="4.59274">
        <ele>101.9</ele>
        <time>2020-06-30T13:15:47Z</time>
      </trkpt>
      <trkpt lat="48.72092" lon="4.59269">
        <ele>101.9</ele>
        <time>2020-06-30T13:15:48Z</time>
      </trkpt>
      <trkpt lat="48.72092" lon="4.59261">
        <ele>101.9</ele>
        <time>2020-06-30T13:15:49Z</time>
      </trkpt>
      <trkpt lat="48.72092" lon="4.59253">
        <ele>101.9</ele>
        <time>2020-06-30T13:15:50Z</time>
      </trkpt>
      <trkpt lat="48.72093" lon="4.59245">
        <ele>101.9</ele>
        <time>2020-06-30T13:15:51Z</time>
      </trkpt>
      <trkpt lat="48.72094" lon="4.59237">
        <ele>101.9</ele>
        <time>2020-06-30T13:15:52Z</time>
      </trkpt>
      <trkpt lat="48.72094" lon="4.5923">
        <ele>101.9</ele>
        <time>2020-06-30T13:15:53Z</time>
      </trkpt>
      <trkpt lat="48.72095" lon="4.59223">
        <ele>101.9</ele>
        <time>2020-06-30T13:15:54Z</time>
      </trkpt>
      <trkpt lat="48.72096" lon="4.59215">
        <ele>101.9</ele>
        <time>2020-06-30T13:15:55Z</time>
      </trkpt>
      <trkpt lat="48.72096" lon="4.59207">
        <ele>101.9</ele>
        <time>2020-06-30T13:15:56Z</time>
      </trkpt>
      <trkpt lat="48.72097" lon="4.59199">
        <ele>101.9</ele>
        <time>2020-06-30T13:15:57Z</time>
      </trkpt>
      <trkpt lat="48.72097" lon="4.59191">
        <ele>101.9</ele>
        <time>2020-06-30T13:15:58Z</time>
      </trkpt>
      <trkpt lat="48.72098" lon="4.59183">
        <ele>101.9</ele>
        <time>2020-06-30T13:15:59Z</time>
      </trkpt>
      <trkpt lat="48.72099" lon="4.59176">
        <ele>101.9</ele>
        <time>2020-06-30T13:16:00Z</time>
      </trkpt>
      <trkpt lat="48.72099" lon="4.59169">
        <ele>101.9</ele>
        <time>2020-06-30T13:16:01Z</time>
      </trkpt>
      <trkpt lat="48.721" lon="4.59162">
        <ele>101.9</ele>
        <time>2020-06-30T13:16:02Z</time>
      </trkpt>
      <trkpt lat="48.72101" lon="4.59154">
        <ele>101.9</ele>
        <time>2020-06-30T13:16:03Z</time>
      </trkpt>
      <trkpt lat="48.72101" lon="4.59147">
        <ele>101.9</ele>
        <time>2020-06-30T13:16:04Z</time>
      </trkpt>
      <trkpt lat="48.72102" lon="4.59139">
        <ele>101.9</ele>
        <time>2020-06-30T13:16:05Z</time>
      </trkpt>
      <trkpt lat="48.72103" lon="4.59131">
        <ele>101.9</ele>
        <time>2020-06-30T13:16:06Z</time>
      </trkpt>
      <trkpt lat="48.72103" lon="4.59122">
        <ele>101.9</ele>
        <time>2020-06-30T13:16:07Z</time>
      </trkpt>
      <trkpt lat="48.72103" lon="4.59115">
        <ele>102</ele>
        <time>2020-06-30T13:16:08Z</time>
      </trkpt>
      <trkpt lat="48.72102" lon="4.59107">
        <ele>102</ele>
        <time>2020-06-30T13:16:09Z</time>
      </trkpt>
      <trkpt lat="48.72102" lon="4.59098">
        <ele>102</ele>
        <time>2020-06-30T13:16:10Z</time>
      </trkpt>
      <trkpt lat="48.72102" lon="4.5909">
        <ele>102</ele>
        <time>2020-06-30T13:16:11Z</time>
      </trkpt>
      <trkpt lat="48.72102" lon="4.59082">
        <ele>102</ele>
        <time>2020-06-30T13:16:12Z</time>
      </trkpt>
      <trkpt lat="48.72102" lon="4.59073">
        <ele>102</ele>
        <time>2020-06-30T13:16:13Z</time>
      </trkpt>
      <trkpt lat="48.72102" lon="4.59065">
        <ele>102</ele>
        <time>2020-06-30T13:16:14Z</time>
      </trkpt>
      <trkpt lat="48.72102" lon="4.59057">
        <ele>101.9</ele>
        <time>2020-06-30T13:16:15Z</time>
      </trkpt>
      <trkpt lat="48.72103" lon="4.5905">
        <ele>101.9</ele>
        <time>2020-06-30T13:16:16Z</time>
      </trkpt>
      <trkpt lat="48.72103" lon="4.59041">
        <ele>101.9</ele>
        <time>2020-06-30T13:16:17Z</time>
      </trkpt>
      <trkpt lat="48.72104" lon="4.59033">
        <ele>101.9</ele>
        <time>2020-06-30T13:16:18Z</time>
      </trkpt>
      <trkpt lat="48.72105" lon="4.59026">
        <ele>101.9</ele>
        <time>2020-06-30T13:16:19Z</time>
      </trkpt>
      <trkpt lat="48.72106" lon="4.5902">
        <ele>101.9</ele>
        <time>2020-06-30T13:16:20Z</time>
      </trkpt>
      <trkpt lat="48.72106" lon="4.59014">
        <ele>101.9</ele>
        <time>2020-06-30T13:16:21Z</time>
      </trkpt>
      <trkpt lat="48.72106" lon="4.59007">
        <ele>101.9</ele>
        <time>2020-06-30T13:16:22Z</time>
      </trkpt>
      <trkpt lat="48.72108" lon="4.59001">
        <ele>101.9</ele>
        <time>2020-06-30T13:16:23Z</time>
      </trkpt>
      <trkpt lat="48.72108" lon="4.58998">
        <ele>101.9</ele>
        <time>2020-06-30T13:16:24Z</time>
      </trkpt>
      <trkpt lat="48.72109" lon="4.58992">
        <ele>101.9</ele>
        <time>2020-06-30T13:16:25Z</time>
      </trkpt>
      <trkpt lat="48.7211" lon="4.58987">
        <ele>101.9</ele>
        <time>2020-06-30T13:16:26Z</time>
      </trkpt>
      <trkpt lat="48.72111" lon="4.58986">
        <ele>101.9</ele>
        <time>2020-06-30T13:16:27Z</time>
      </trkpt>
      <trkpt lat="48.72114" lon="4.58988">
        <ele>101.9</ele>
        <time>2020-06-30T13:16:28Z</time>
      </trkpt>
      <trkpt lat="48.72115" lon="4.58993">
        <ele>101.9</ele>
        <time>2020-06-30T13:16:29Z</time>
      </trkpt>
      <trkpt lat="48.72113" lon="4.58994">
        <ele>101.9</ele>
        <time>2020-06-30T13:16:30Z</time>
      </trkpt>
      <trkpt lat="48.72112" lon="4.58995">
        <ele>101.9</ele>
        <time>2020-06-30T13:16:31Z</time>
      </trkpt>
      <trkpt lat="48.72111" lon="4.58995">
        <ele>101.9</ele>
        <time>2020-06-30T13:16:32Z</time>
      </trkpt>
      <trkpt lat="48.72109" lon="4.58993">
        <ele>101.9</ele>
        <time>2020-06-30T13:16:33Z</time>
      </trkpt>
      <trkpt lat="48.72108" lon="4.58991">
        <ele>101.9</ele>
        <time>2020-06-30T13:16:34Z</time>
      </trkpt>
      <trkpt lat="48.72108" lon="4.58986">
        <ele>101.9</ele>
        <time>2020-06-30T13:16:35Z</time>
      </trkpt>
      <trkpt lat="48.72107" lon="4.5898">
        <ele>101.9</ele>
        <time>2020-06-30T13:16:36Z</time>
      </trkpt>
      <trkpt lat="48.72107" lon="4.58973">
        <ele>102</ele>
        <time>2020-06-30T13:16:37Z</time>
      </trkpt>
      <trkpt lat="48.72107" lon="4.58965">
        <ele>102</ele>
        <time>2020-06-30T13:16:38Z</time>
      </trkpt>
      <trkpt lat="48.72107" lon="4.58959">
        <ele>102</ele>
        <time>2020-06-30T13:16:39Z</time>
      </trkpt>
      <trkpt lat="48.72107" lon="4.58953">
        <ele>102</ele>
        <time>2020-06-30T13:16:40Z</time>
      </trkpt>
      <trkpt lat="48.72107" lon="4.58944">
        <ele>102</ele>
        <time>2020-06-30T13:16:41Z</time>
      </trkpt>
      <trkpt lat="48.72108" lon="4.58937">
        <ele>102</ele>
        <time>2020-06-30T13:16:42Z</time>
      </trkpt>
      <trkpt lat="48.72108" lon="4.58931">
        <ele>102</ele>
        <time>2020-06-30T13:16:43Z</time>
      </trkpt>
      <trkpt lat="48.72109" lon="4.58922">
        <ele>102</ele>
        <time>2020-06-30T13:16:44Z</time>
      </trkpt>
      <trkpt lat="48.7211" lon="4.58915">
        <ele>102.1</ele>
        <time>2020-06-30T13:16:45Z</time>
      </trkpt>
      <trkpt lat="48.7211" lon="4.58907">
        <ele>102.1</ele>
        <time>2020-06-30T13:16:46Z</time>
      </trkpt>
      <trkpt lat="48.7211" lon="4.58898">
        <ele>102.1</ele>
        <time>2020-06-30T13:16:47Z</time>
      </trkpt>
      <trkpt lat="48.7211" lon="4.58889">
        <ele>102.1</ele>
        <time>2020-06-30T13:16:48Z</time>
      </trkpt>
      <trkpt lat="48.7211" lon="4.5888">
        <ele>102.1</ele>
        <time>2020-06-30T13:16:49Z</time>
      </trkpt>
      <trkpt lat="48.72109" lon="4.58874">
        <ele>102.1</ele>
        <time>2020-06-30T13:16:50Z</time>
      </trkpt>
      <trkpt lat="48.7211" lon="4.58868">
        <ele>102.1</ele>
        <time>2020-06-30T13:16:51Z</time>
      </trkpt>
      <trkpt lat="48.7211" lon="4.58863">
        <ele>102.1</ele>
        <time>2020-06-30T13:16:52Z</time>
      </trkpt>
      <trkpt lat="48.7211" lon="4.58857">
        <ele>102.1</ele>
        <time>2020-06-30T13:16:53Z</time>
      </trkpt>
      <trkpt lat="48.72114" lon="4.58855">
        <ele>102.1</ele>
        <time>2020-06-30T13:16:54Z</time>
      </trkpt>
      <trkpt lat="48.72116" lon="4.58855">
        <ele>102.1</ele>
        <time>2020-06-30T13:16:55Z</time>
      </trkpt>
      <trkpt lat="48.7212" lon="4.58853">
        <ele>102.1</ele>
        <time>2020-06-30T13:16:56Z</time>
      </trkpt>
      <trkpt lat="48.72122" lon="4.58849">
        <ele>102.2</ele>
        <time>2020-06-30T13:16:57Z</time>
      </trkpt>
      <trkpt lat="48.72125" lon="4.58846">
        <ele>102.2</ele>
        <time>2020-06-30T13:16:58Z</time>
      </trkpt>
      <trkpt lat="48.72127" lon="4.58842">
        <ele>102.2</ele>
        <time>2020-06-30T13:16:59Z</time>
      </trkpt>
      <trkpt lat="48.7213" lon="4.58838">
        <ele>102.2</ele>
        <time>2020-06-30T13:17:00Z</time>
      </trkpt>
      <trkpt lat="48.72134" lon="4.58838">
        <ele>102.2</ele>
        <time>2020-06-30T13:17:01Z</time>
      </trkpt>
      <trkpt lat="48.72139" lon="4.58841">
        <ele>102.2</ele>
        <time>2020-06-30T13:17:02Z</time>
      </trkpt>
      <trkpt lat="48.72144" lon="4.58845">
        <ele>102.2</ele>
        <time>2020-06-30T13:17:03Z</time>
      </trkpt>
      <trkpt lat="48.72147" lon="4.58845">
        <ele>102.2</ele>
        <time>2020-06-30T13:17:04Z</time>
      </trkpt>
      <trkpt lat="48.72151" lon="4.58842">
        <ele>102.2</ele>
        <time>2020-06-30T13:17:05Z</time>
      </trkpt>
      <trkpt lat="48.72152" lon="4.58841">
        <ele>102.2</ele>
        <time>2020-06-30T13:17:06Z</time>
      </trkpt>
      <trkpt lat="48.72153" lon="4.58834">
        <ele>102.2</ele>
        <time>2020-06-30T13:17:07Z</time>
      </trkpt>
      <trkpt lat="48.72154" lon="4.58832">
        <ele>102.2</ele>
        <time>2020-06-30T13:17:08Z</time>
      </trkpt>
      <trkpt lat="48.72155" lon="4.58828">
        <ele>102.2</ele>
        <time>2020-06-30T13:17:09Z</time>
      </trkpt>
      <trkpt lat="48.72155" lon="4.58823">
        <ele>102.2</ele>
        <time>2020-06-30T13:17:10Z</time>
      </trkpt>
      <trkpt lat="48.72156" lon="4.5882">
        <ele>102.3</ele>
        <time>2020-06-30T13:17:11Z</time>
      </trkpt>
      <trkpt lat="48.72157" lon="4.58815">
        <ele>102.2</ele>
        <time>2020-06-30T13:17:12Z</time>
      </trkpt>
      <trkpt lat="48.72158" lon="4.58813">
        <ele>102.2</ele>
        <time>2020-06-30T13:17:13Z</time>
      </trkpt>
      <trkpt lat="48.7216" lon="4.58808">
        <ele>102.2</ele>
        <time>2020-06-30T13:17:14Z</time>
      </trkpt>
      <trkpt lat="48.72161" lon="4.58802">
        <ele>102.2</ele>
        <time>2020-06-30T13:17:15Z</time>
      </trkpt>
      <trkpt lat="48.72162" lon="4.58798">
        <ele>102.2</ele>
        <time>2020-06-30T13:17:16Z</time>
      </trkpt>
      <trkpt lat="48.72164" lon="4.58794">
        <ele>102.1</ele>
        <time>2020-06-30T13:17:17Z</time>
      </trkpt>
      <trkpt lat="48.72165" lon="4.58788">
        <ele>102.1</ele>
        <time>2020-06-30T13:17:18Z</time>
      </trkpt>
      <trkpt lat="48.72166" lon="4.58784">
        <ele>102.1</ele>
        <time>2020-06-30T13:17:19Z</time>
      </trkpt>
      <trkpt lat="48.72168" lon="4.58778">
        <ele>102.1</ele>
        <time>2020-06-30T13:17:20Z</time>
      </trkpt>
      <trkpt lat="48.72169" lon="4.58772">
        <ele>102</ele>
        <time>2020-06-30T13:17:21Z</time>
      </trkpt>
      <trkpt lat="48.7217" lon="4.58767">
        <ele>102</ele>
        <time>2020-06-30T13:17:22Z</time>
      </trkpt>
      <trkpt lat="48.72171" lon="4.58763">
        <ele>102</ele>
        <time>2020-06-30T13:17:23Z</time>
      </trkpt>
      <trkpt lat="48.72173" lon="4.58758">
        <ele>102</ele>
        <time>2020-06-30T13:17:24Z</time>
      </trkpt>
      <trkpt lat="48.72175" lon="4.58753">
        <ele>102</ele>
        <time>2020-06-30T13:17:25Z</time>
      </trkpt>
      <trkpt lat="48.72176" lon="4.58748">
        <ele>102</ele>
        <time>2020-06-30T13:17:26Z</time>
      </trkpt>
      <trkpt lat="48.72177" lon="4.58743">
        <ele>102</ele>
        <time>2020-06-30T13:17:27Z</time>
      </trkpt>
      <trkpt lat="48.72179" lon="4.58737">
        <ele>102</ele>
        <time>2020-06-30T13:17:28Z</time>
      </trkpt>
      <trkpt lat="48.72182" lon="4.58732">
        <ele>102</ele>
        <time>2020-06-30T13:17:29Z</time>
      </trkpt>
      <trkpt lat="48.72183" lon="4.58726">
        <ele>102</ele>
        <time>2020-06-30T13:17:30Z</time>
      </trkpt>
      <trkpt lat="48.72185" lon="4.5872">
        <ele>102</ele>
        <time>2020-06-30T13:17:31Z</time>
      </trkpt>
      <trkpt lat="48.72187" lon="4.58715">
        <ele>102</ele>
        <time>2020-06-30T13:17:32Z</time>
      </trkpt>
      <trkpt lat="48.72189" lon="4.58709">
        <ele>102</ele>
        <time>2020-06-30T13:17:33Z</time>
      </trkpt>
      <trkpt lat="48.72191" lon="4.58703">
        <ele>101.9</ele>
        <time>2020-06-30T13:17:34Z</time>
      </trkpt>
      <trkpt lat="48.72192" lon="4.58696">
        <ele>101.9</ele>
        <time>2020-06-30T13:17:35Z</time>
      </trkpt>
      <trkpt lat="48.72195" lon="4.5869">
        <ele>101.9</ele>
        <time>2020-06-30T13:17:36Z</time>
      </trkpt>
      <trkpt lat="48.72196" lon="4.58684">
        <ele>101.9</ele>
        <time>2020-06-30T13:17:37Z</time>
      </trkpt>
      <trkpt lat="48.72198" lon="4.58678">
        <ele>101.9</ele>
        <time>2020-06-30T13:17:38Z</time>
      </trkpt>
      <trkpt lat="48.72199" lon="4.58672">
        <ele>101.9</ele>
        <time>2020-06-30T13:17:39Z</time>
      </trkpt>
      <trkpt lat="48.72201" lon="4.58668">
        <ele>101.9</ele>
        <time>2020-06-30T13:17:40Z</time>
      </trkpt>
      <trkpt lat="48.72202" lon="4.58662">
        <ele>101.8</ele>
        <time>2020-06-30T13:17:41Z</time>
      </trkpt>
      <trkpt lat="48.72203" lon="4.58657">
        <ele>101.8</ele>
        <time>2020-06-30T13:17:42Z</time>
      </trkpt>
      <trkpt lat="48.72205" lon="4.58651">
        <ele>101.8</ele>
        <time>2020-06-30T13:17:43Z</time>
      </trkpt>
      <trkpt lat="48.72206" lon="4.58644">
        <ele>101.8</ele>
        <time>2020-06-30T13:17:44Z</time>
      </trkpt>
      <trkpt lat="48.72208" lon="4.58636">
        <ele>101.8</ele>
        <time>2020-06-30T13:17:45Z</time>
      </trkpt>
      <trkpt lat="48.7221" lon="4.58629">
        <ele>101.8</ele>
        <time>2020-06-30T13:17:46Z</time>
      </trkpt>
      <trkpt lat="48.72212" lon="4.58622">
        <ele>101.7</ele>
        <time>2020-06-30T13:17:47Z</time>
      </trkpt>
      <trkpt lat="48.72214" lon="4.58615">
        <ele>101.7</ele>
        <time>2020-06-30T13:17:48Z</time>
      </trkpt>
      <trkpt lat="48.72216" lon="4.58608">
        <ele>101.7</ele>
        <time>2020-06-30T13:17:49Z</time>
      </trkpt>
      <trkpt lat="48.72219" lon="4.58601">
        <ele>101.7</ele>
        <time>2020-06-30T13:17:50Z</time>
      </trkpt>
      <trkpt lat="48.72221" lon="4.58595">
        <ele>101.7</ele>
        <time>2020-06-30T13:17:51Z</time>
      </trkpt>
      <trkpt lat="48.72223" lon="4.58589">
        <ele>101.7</ele>
        <time>2020-06-30T13:17:52Z</time>
      </trkpt>
      <trkpt lat="48.72227" lon="4.58581">
        <ele>101.6</ele>
        <time>2020-06-30T13:17:53Z</time>
      </trkpt>
      <trkpt lat="48.7223" lon="4.58576">
        <ele>101.5</ele>
        <time>2020-06-30T13:17:54Z</time>
      </trkpt>
      <trkpt lat="48.72232" lon="4.5857">
        <ele>101.5</ele>
        <time>2020-06-30T13:17:55Z</time>
      </trkpt>
      <trkpt lat="48.72233" lon="4.58563">
        <ele>101.4</ele>
        <time>2020-06-30T13:17:56Z</time>
      </trkpt>
      <trkpt lat="48.72235" lon="4.58556">
        <ele>101.4</ele>
        <time>2020-06-30T13:17:57Z</time>
      </trkpt>
      <trkpt lat="48.72237" lon="4.58552">
        <ele>101.4</ele>
        <time>2020-06-30T13:17:58Z</time>
      </trkpt>
      <trkpt lat="48.72238" lon="4.58546">
        <ele>101.4</ele>
        <time>2020-06-30T13:17:59Z</time>
      </trkpt>
      <trkpt lat="48.7224" lon="4.5854">
        <ele>101.4</ele>
        <time>2020-06-30T13:18:00Z</time>
      </trkpt>
      <trkpt lat="48.72241" lon="4.58534">
        <ele>101.4</ele>
        <time>2020-06-30T13:18:01Z</time>
      </trkpt>
      <trkpt lat="48.72242" lon="4.58529">
        <ele>101.4</ele>
        <time>2020-06-30T13:18:02Z</time>
      </trkpt>
      <trkpt lat="48.72243" lon="4.58525">
        <ele>101.4</ele>
        <time>2020-06-30T13:18:03Z</time>
      </trkpt>
      <trkpt lat="48.72244" lon="4.58521">
        <ele>101.4</ele>
        <time>2020-06-30T13:18:04Z</time>
      </trkpt>
      <trkpt lat="48.72244" lon="4.5852">
        <ele>101.4</ele>
        <time>2020-06-30T13:18:05Z</time>
      </trkpt>
      <trkpt lat="48.72244" lon="4.58514">
        <ele>101.3</ele>
        <time>2020-06-30T13:18:06Z</time>
      </trkpt>
      <trkpt lat="48.72245" lon="4.58511">
        <ele>101.3</ele>
        <time>2020-06-30T13:18:07Z</time>
      </trkpt>
      <trkpt lat="48.72245" lon="4.58506">
        <ele>101.3</ele>
        <time>2020-06-30T13:18:08Z</time>
      </trkpt>
      <trkpt lat="48.72247" lon="4.58499">
        <ele>101.3</ele>
        <time>2020-06-30T13:18:09Z</time>
      </trkpt>
      <trkpt lat="48.72247" lon="4.58492">
        <ele>101.2</ele>
        <time>2020-06-30T13:18:10Z</time>
      </trkpt>
      <trkpt lat="48.72246" lon="4.58486">
        <ele>101.2</ele>
        <time>2020-06-30T13:18:11Z</time>
      </trkpt>
      <trkpt lat="48.72246" lon="4.58478">
        <ele>101.2</ele>
        <time>2020-06-30T13:18:12Z</time>
      </trkpt>
      <trkpt lat="48.72245" lon="4.58472">
        <ele>101.1</ele>
        <time>2020-06-30T13:18:13Z</time>
      </trkpt>
      <trkpt lat="48.72245" lon="4.58466">
        <ele>101.1</ele>
        <time>2020-06-30T13:18:14Z</time>
      </trkpt>
      <trkpt lat="48.72244" lon="4.5846">
        <ele>101.1</ele>
        <time>2020-06-30T13:18:15Z</time>
      </trkpt>
      <trkpt lat="48.72245" lon="4.58455">
        <ele>101</ele>
        <time>2020-06-30T13:18:16Z</time>
      </trkpt>
      <trkpt lat="48.72244" lon="4.5845">
        <ele>101</ele>
        <time>2020-06-30T13:18:17Z</time>
      </trkpt>
      <trkpt lat="48.72244" lon="4.58445">
        <ele>101</ele>
        <time>2020-06-30T13:18:18Z</time>
      </trkpt>
      <trkpt lat="48.72244" lon="4.58444">
        <ele>101</ele>
        <time>2020-06-30T13:18:19Z</time>
      </trkpt>
      <trkpt lat="48.72243" lon="4.58439">
        <ele>101</ele>
        <time>2020-06-30T13:18:20Z</time>
      </trkpt>
      <trkpt lat="48.72243" lon="4.58437">
        <ele>101</ele>
        <time>2020-06-30T13:18:21Z</time>
      </trkpt>
      <trkpt lat="48.72242" lon="4.58432">
        <ele>101</ele>
        <time>2020-06-30T13:18:22Z</time>
      </trkpt>
      <trkpt lat="48.72242" lon="4.58427">
        <ele>101</ele>
        <time>2020-06-30T13:18:23Z</time>
      </trkpt>
      <trkpt lat="48.72243" lon="4.58421">
        <ele>101.1</ele>
        <time>2020-06-30T13:18:24Z</time>
      </trkpt>
      <trkpt lat="48.72242" lon="4.58415">
        <ele>101.1</ele>
        <time>2020-06-30T13:18:25Z</time>
      </trkpt>
      <trkpt lat="48.72242" lon="4.58409">
        <ele>101.1</ele>
        <time>2020-06-30T13:18:26Z</time>
      </trkpt>
      <trkpt lat="48.72241" lon="4.58403">
        <ele>101.1</ele>
        <time>2020-06-30T13:18:27Z</time>
      </trkpt>
      <trkpt lat="48.7224" lon="4.58398">
        <ele>101.1</ele>
        <time>2020-06-30T13:18:28Z</time>
      </trkpt>
      <trkpt lat="48.72241" lon="4.58392">
        <ele>101.1</ele>
        <time>2020-06-30T13:18:29Z</time>
      </trkpt>
      <trkpt lat="48.72241" lon="4.58387">
        <ele>101.2</ele>
        <time>2020-06-30T13:18:30Z</time>
      </trkpt>
      <trkpt lat="48.7224" lon="4.58381">
        <ele>101.2</ele>
        <time>2020-06-30T13:18:31Z</time>
      </trkpt>
      <trkpt lat="48.72239" lon="4.58374">
        <ele>101.2</ele>
        <time>2020-06-30T13:18:32Z</time>
      </trkpt>
      <trkpt lat="48.72238" lon="4.58368">
        <ele>101.2</ele>
        <time>2020-06-30T13:18:33Z</time>
      </trkpt>
      <trkpt lat="48.72237" lon="4.58362">
        <ele>101.2</ele>
        <time>2020-06-30T13:18:34Z</time>
      </trkpt>
      <trkpt lat="48.72237" lon="4.58356">
        <ele>101.3</ele>
        <time>2020-06-30T13:18:35Z</time>
      </trkpt>
      <trkpt lat="48.72237" lon="4.58349">
        <ele>101.3</ele>
        <time>2020-06-30T13:18:36Z</time>
      </trkpt>
      <trkpt lat="48.72237" lon="4.58343">
        <ele>101.3</ele>
        <time>2020-06-30T13:18:37Z</time>
      </trkpt>
      <trkpt lat="48.72237" lon="4.58337">
        <ele>101.4</ele>
        <time>2020-06-30T13:18:38Z</time>
      </trkpt>
      <trkpt lat="48.72236" lon="4.58333">
        <ele>101.4</ele>
        <time>2020-06-30T13:18:39Z</time>
      </trkpt>
      <trkpt lat="48.72235" lon="4.58327">
        <ele>101.4</ele>
        <time>2020-06-30T13:18:40Z</time>
      </trkpt>
      <trkpt lat="48.72234" lon="4.58322">
        <ele>101.4</ele>
        <time>2020-06-30T13:18:41Z</time>
      </trkpt>
      <trkpt lat="48.72234" lon="4.58317">
        <ele>101.5</ele>
        <time>2020-06-30T13:18:42Z</time>
      </trkpt>
      <trkpt lat="48.72234" lon="4.5831">
        <ele>101.4</ele>
        <time>2020-06-30T13:18:43Z</time>
      </trkpt>
      <trkpt lat="48.72233" lon="4.58308">
        <ele>101.3</ele>
        <time>2020-06-30T13:18:44Z</time>
      </trkpt>
      <trkpt lat="48.72233" lon="4.58305">
        <ele>101.3</ele>
        <time>2020-06-30T13:18:45Z</time>
      </trkpt>
      <trkpt lat="48.72233" lon="4.58304">
        <ele>101.3</ele>
        <time>2020-06-30T13:18:46Z</time>
      </trkpt>
      <trkpt lat="48.72234" lon="4.58305">
        <ele>101.3</ele>
        <time>2020-06-30T13:18:47Z</time>
      </trkpt>
      <trkpt lat="48.72234" lon="4.58306">
        <ele>101.2</ele>
        <time>2020-06-30T13:18:48Z</time>
      </trkpt>
      <trkpt lat="48.72235" lon="4.58305">
        <ele>101.2</ele>
        <time>2020-06-30T13:18:49Z</time>
      </trkpt>
      <trkpt lat="48.72236" lon="4.58305">
        <ele>101.2</ele>
        <time>2020-06-30T13:18:50Z</time>
      </trkpt>
      <trkpt lat="48.7224" lon="4.58306">
        <ele>101.2</ele>
        <time>2020-06-30T13:18:51Z</time>
      </trkpt>
      <trkpt lat="48.72242" lon="4.58307">
        <ele>101.2</ele>
        <time>2020-06-30T13:18:52Z</time>
      </trkpt>
      <trkpt lat="48.72246" lon="4.58309">
        <ele>101.1</ele>
        <time>2020-06-30T13:18:53Z</time>
      </trkpt>
      <trkpt lat="48.7225" lon="4.5831">
        <ele>101.1</ele>
        <time>2020-06-30T13:18:54Z</time>
      </trkpt>
      <trkpt lat="48.72252" lon="4.58309">
        <ele>101.1</ele>
        <time>2020-06-30T13:18:55Z</time>
      </trkpt>
      <trkpt lat="48.72256" lon="4.58305">
        <ele>101.1</ele>
        <time>2020-06-30T13:18:56Z</time>
      </trkpt>
      <trkpt lat="48.72261" lon="4.58306">
        <ele>101.1</ele>
        <time>2020-06-30T13:18:57Z</time>
      </trkpt>
      <trkpt lat="48.72264" lon="4.58308">
        <ele>101</ele>
        <time>2020-06-30T13:18:58Z</time>
      </trkpt>
      <trkpt lat="48.72268" lon="4.58311">
        <ele>101</ele>
        <time>2020-06-30T13:18:59Z</time>
      </trkpt>
      <trkpt lat="48.72271" lon="4.58314">
        <ele>101</ele>
        <time>2020-06-30T13:19:00Z</time>
      </trkpt>
      <trkpt lat="48.72275" lon="4.58316">
        <ele>100.9</ele>
        <time>2020-06-30T13:19:01Z</time>
      </trkpt>
      <trkpt lat="48.72279" lon="4.58318">
        <ele>100.9</ele>
        <time>2020-06-30T13:19:02Z</time>
      </trkpt>
      <trkpt lat="48.72283" lon="4.58321">
        <ele>100.9</ele>
        <time>2020-06-30T13:19:03Z</time>
      </trkpt>
      <trkpt lat="48.72286" lon="4.58323">
        <ele>100.9</ele>
        <time>2020-06-30T13:19:04Z</time>
      </trkpt>
      <trkpt lat="48.72289" lon="4.58325">
        <ele>100.9</ele>
        <time>2020-06-30T13:19:05Z</time>
      </trkpt>
      <trkpt lat="48.72293" lon="4.58327">
        <ele>100.9</ele>
        <time>2020-06-30T13:19:06Z</time>
      </trkpt>
      <trkpt lat="48.72297" lon="4.58329">
        <ele>100.9</ele>
        <time>2020-06-30T13:19:07Z</time>
      </trkpt>
      <trkpt lat="48.72301" lon="4.58331">
        <ele>101</ele>
        <time>2020-06-30T13:19:08Z</time>
      </trkpt>
      <trkpt lat="48.72305" lon="4.58334">
        <ele>101.1</ele>
        <time>2020-06-30T13:19:09Z</time>
      </trkpt>
      <trkpt lat="48.72308" lon="4.58336">
        <ele>101.2</ele>
        <time>2020-06-30T13:19:10Z</time>
      </trkpt>
      <trkpt lat="48.72312" lon="4.58337">
        <ele>101.5</ele>
        <time>2020-06-30T13:19:11Z</time>
      </trkpt>
      <trkpt lat="48.72315" lon="4.58338">
        <ele>101.6</ele>
        <time>2020-06-30T13:19:12Z</time>
      </trkpt>
      <trkpt lat="48.72317" lon="4.58342">
        <ele>101.6</ele>
        <time>2020-06-30T13:19:13Z</time>
      </trkpt>
      <trkpt lat="48.72318" lon="4.58343">
        <ele>101.6</ele>
        <time>2020-06-30T13:19:14Z</time>
      </trkpt>
      <trkpt lat="48.72318" lon="4.58348">
        <ele>101.5</ele>
        <time>2020-06-30T13:19:15Z</time>
      </trkpt>
      <trkpt lat="48.72319" lon="4.58349">
        <ele>101.5</ele>
        <time>2020-06-30T13:19:16Z</time>
      </trkpt>
      <trkpt lat="48.72322" lon="4.58351">
        <ele>101.4</ele>
        <time>2020-06-30T13:19:17Z</time>
      </trkpt>
      <trkpt lat="48.72324" lon="4.58352">
        <ele>101.4</ele>
        <time>2020-06-30T13:19:18Z</time>
      </trkpt>
      <trkpt lat="48.72327" lon="4.58354">
        <ele>101.3</ele>
        <time>2020-06-30T13:19:19Z</time>
      </trkpt>
      <trkpt lat="48.72331" lon="4.58357">
        <ele>101.2</ele>
        <time>2020-06-30T13:19:20Z</time>
      </trkpt>
      <trkpt lat="48.72337" lon="4.5836">
        <ele>101.1</ele>
        <time>2020-06-30T13:19:21Z</time>
      </trkpt>
      <trkpt lat="48.72341" lon="4.58361">
        <ele>101</ele>
        <time>2020-06-30T13:19:22Z</time>
      </trkpt>
      <trkpt lat="48.72346" lon="4.58364">
        <ele>100.9</ele>
        <time>2020-06-30T13:19:23Z</time>
      </trkpt>
      <trkpt lat="48.72351" lon="4.58367">
        <ele>100.9</ele>
        <time>2020-06-30T13:19:24Z</time>
      </trkpt>
      <trkpt lat="48.72355" lon="4.58369">
        <ele>100.9</ele>
        <time>2020-06-30T13:19:25Z</time>
      </trkpt>
      <trkpt lat="48.7236" lon="4.58371">
        <ele>100.9</ele>
        <time>2020-06-30T13:19:26Z</time>
      </trkpt>
      <trkpt lat="48.72364" lon="4.58374">
        <ele>100.9</ele>
        <time>2020-06-30T13:19:27Z</time>
      </trkpt>
      <trkpt lat="48.72368" lon="4.58375">
        <ele>100.9</ele>
        <time>2020-06-30T13:19:28Z</time>
      </trkpt>
      <trkpt lat="48.72371" lon="4.58378">
        <ele>100.9</ele>
        <time>2020-06-30T13:19:29Z</time>
      </trkpt>
      <trkpt lat="48.72375" lon="4.58382">
        <ele>100.8</ele>
        <time>2020-06-30T13:19:30Z</time>
      </trkpt>
      <trkpt lat="48.72379" lon="4.58385">
        <ele>100.8</ele>
        <time>2020-06-30T13:19:31Z</time>
      </trkpt>
      <trkpt lat="48.72383" lon="4.58389">
        <ele>100.8</ele>
        <time>2020-06-30T13:19:32Z</time>
      </trkpt>
      <trkpt lat="48.72388" lon="4.58391">
        <ele>100.8</ele>
        <time>2020-06-30T13:19:33Z</time>
      </trkpt>
      <trkpt lat="48.72392" lon="4.58394">
        <ele>100.7</ele>
        <time>2020-06-30T13:19:34Z</time>
      </trkpt>
      <trkpt lat="48.72397" lon="4.58398">
        <ele>100.7</ele>
        <time>2020-06-30T13:19:35Z</time>
      </trkpt>
      <trkpt lat="48.72402" lon="4.58401">
        <ele>100.7</ele>
        <time>2020-06-30T13:19:36Z</time>
      </trkpt>
      <trkpt lat="48.72407" lon="4.58404">
        <ele>100.7</ele>
        <time>2020-06-30T13:19:37Z</time>
      </trkpt>
      <trkpt lat="48.72412" lon="4.58407">
        <ele>100.6</ele>
        <time>2020-06-30T13:19:38Z</time>
      </trkpt>
      <trkpt lat="48.72416" lon="4.58411">
        <ele>100.6</ele>
        <time>2020-06-30T13:19:39Z</time>
      </trkpt>
      <trkpt lat="48.7242" lon="4.58414">
        <ele>100.6</ele>
        <time>2020-06-30T13:19:40Z</time>
      </trkpt>
      <trkpt lat="48.72425" lon="4.58417">
        <ele>100.6</ele>
        <time>2020-06-30T13:19:41Z</time>
      </trkpt>
      <trkpt lat="48.7243" lon="4.58421">
        <ele>100.6</ele>
        <time>2020-06-30T13:19:42Z</time>
      </trkpt>
      <trkpt lat="48.72433" lon="4.58424">
        <ele>100.6</ele>
        <time>2020-06-30T13:19:43Z</time>
      </trkpt>
      <trkpt lat="48.72438" lon="4.58428">
        <ele>100.6</ele>
        <time>2020-06-30T13:19:44Z</time>
      </trkpt>
      <trkpt lat="48.72444" lon="4.5843">
        <ele>100.5</ele>
        <time>2020-06-30T13:19:45Z</time>
      </trkpt>
      <trkpt lat="48.72449" lon="4.58433">
        <ele>100.5</ele>
        <time>2020-06-30T13:19:46Z</time>
      </trkpt>
      <trkpt lat="48.72454" lon="4.58437">
        <ele>100.5</ele>
        <time>2020-06-30T13:19:47Z</time>
      </trkpt>
      <trkpt lat="48.72458" lon="4.58441">
        <ele>100.5</ele>
        <time>2020-06-30T13:19:48Z</time>
      </trkpt>
      <trkpt lat="48.72463" lon="4.58446">
        <ele>100.5</ele>
        <time>2020-06-30T13:19:49Z</time>
      </trkpt>
      <trkpt lat="48.72467" lon="4.58449">
        <ele>100.5</ele>
        <time>2020-06-30T13:19:50Z</time>
      </trkpt>
      <trkpt lat="48.72471" lon="4.58448">
        <ele>100.6</ele>
        <time>2020-06-30T13:19:51Z</time>
      </trkpt>
      <trkpt lat="48.72475" lon="4.5845">
        <ele>100.6</ele>
        <time>2020-06-30T13:19:52Z</time>
      </trkpt>
      <trkpt lat="48.72478" lon="4.58452">
        <ele>100.6</ele>
        <time>2020-06-30T13:19:53Z</time>
      </trkpt>
      <trkpt lat="48.7248" lon="4.58455">
        <ele>100.6</ele>
        <time>2020-06-30T13:19:54Z</time>
      </trkpt>
      <trkpt lat="48.72481" lon="4.58455">
        <ele>100.6</ele>
        <time>2020-06-30T13:19:55Z</time>
      </trkpt>
      <trkpt lat="48.72481" lon="4.58455">
        <ele>100.6</ele>
        <time>2020-06-30T13:19:56Z</time>
      </trkpt>
      <trkpt lat="48.7248" lon="4.58454">
        <ele>100.6</ele>
        <time>2020-06-30T13:19:57Z</time>
      </trkpt>
      <trkpt lat="48.7248" lon="4.58454">
        <ele>100.6</ele>
        <time>2020-06-30T13:19:58Z</time>
      </trkpt>
      <trkpt lat="48.72481" lon="4.58455">
        <ele>100.7</ele>
        <time>2020-06-30T13:19:59Z</time>
      </trkpt>
      <trkpt lat="48.72482" lon="4.58454">
        <ele>100.7</ele>
        <time>2020-06-30T13:20:00Z</time>
      </trkpt>
      <trkpt lat="48.72482" lon="4.58454">
        <ele>100.7</ele>
        <time>2020-06-30T13:20:01Z</time>
      </trkpt>
      <trkpt lat="48.72482" lon="4.58452">
        <ele>100.7</ele>
        <time>2020-06-30T13:20:02Z</time>
      </trkpt>
      <trkpt lat="48.72482" lon="4.58451">
        <ele>100.7</ele>
        <time>2020-06-30T13:20:03Z</time>
      </trkpt>
      <trkpt lat="48.72483" lon="4.58451">
        <ele>100.7</ele>
        <time>2020-06-30T13:20:04Z</time>
      </trkpt>
      <trkpt lat="48.72484" lon="4.5845">
        <ele>100.7</ele>
        <time>2020-06-30T13:20:05Z</time>
      </trkpt>
      <trkpt lat="48.72483" lon="4.5845">
        <ele>100.7</ele>
        <time>2020-06-30T13:20:06Z</time>
      </trkpt>
      <trkpt lat="48.72483" lon="4.5845">
        <ele>100.7</ele>
        <time>2020-06-30T13:20:07Z</time>
      </trkpt>
      <trkpt lat="48.72483" lon="4.5845">
        <ele>100.7</ele>
        <time>2020-06-30T13:20:08Z</time>
      </trkpt>
      <trkpt lat="48.72483" lon="4.5845">
        <ele>100.7</ele>
        <time>2020-06-30T13:20:09Z</time>
      </trkpt>
      <trkpt lat="48.72485" lon="4.58454">
        <ele>100.7</ele>
        <time>2020-06-30T13:20:34Z</time>
      </trkpt>
      <trkpt lat="48.72488" lon="4.58457">
        <ele>100.8</ele>
        <time>2020-06-30T13:20:35Z</time>
      </trkpt>
      <trkpt lat="48.72492" lon="4.58461">
        <ele>100.8</ele>
        <time>2020-06-30T13:20:36Z</time>
      </trkpt>
      <trkpt lat="48.72496" lon="4.58464">
        <ele>100.9</ele>
        <time>2020-06-30T13:20:37Z</time>
      </trkpt>
      <trkpt lat="48.72499" lon="4.58467">
        <ele>100.9</ele>
        <time>2020-06-30T13:20:38Z</time>
      </trkpt>
      <trkpt lat="48.72503" lon="4.58469">
        <ele>100.9</ele>
        <time>2020-06-30T13:20:39Z</time>
      </trkpt>
      <trkpt lat="48.72504" lon="4.58469">
        <ele>100.9</ele>
        <time>2020-06-30T13:20:40Z</time>
      </trkpt>
      <trkpt lat="48.72508" lon="4.5847">
        <ele>100.9</ele>
        <time>2020-06-30T13:20:41Z</time>
      </trkpt>
      <trkpt lat="48.72511" lon="4.58473">
        <ele>101</ele>
        <time>2020-06-30T13:20:42Z</time>
      </trkpt>
      <trkpt lat="48.72516" lon="4.58476">
        <ele>101</ele>
        <time>2020-06-30T13:20:43Z</time>
      </trkpt>
      <trkpt lat="48.72519" lon="4.58479">
        <ele>101.1</ele>
        <time>2020-06-30T13:20:44Z</time>
      </trkpt>
      <trkpt lat="48.72522" lon="4.58481">
        <ele>101.1</ele>
        <time>2020-06-30T13:20:45Z</time>
      </trkpt>
      <trkpt lat="48.72525" lon="4.58482">
        <ele>101.1</ele>
        <time>2020-06-30T13:20:46Z</time>
      </trkpt>
      <trkpt lat="48.72529" lon="4.58483">
        <ele>101.2</ele>
        <time>2020-06-30T13:20:47Z</time>
      </trkpt>
      <trkpt lat="48.72535" lon="4.58488">
        <ele>101.2</ele>
        <time>2020-06-30T13:20:48Z</time>
      </trkpt>
      <trkpt lat="48.7254" lon="4.58494">
        <ele>101.3</ele>
        <time>2020-06-30T13:20:49Z</time>
      </trkpt>
      <trkpt lat="48.72546" lon="4.58499">
        <ele>101.3</ele>
        <time>2020-06-30T13:20:50Z</time>
      </trkpt>
      <trkpt lat="48.72549" lon="4.58501">
        <ele>101.4</ele>
        <time>2020-06-30T13:20:51Z</time>
      </trkpt>
      <trkpt lat="48.72552" lon="4.58501">
        <ele>101.3</ele>
        <time>2020-06-30T13:20:52Z</time>
      </trkpt>
      <trkpt lat="48.72553" lon="4.585">
        <ele>101.3</ele>
        <time>2020-06-30T13:20:53Z</time>
      </trkpt>
      <trkpt lat="48.72556" lon="4.58497">
        <ele>101.3</ele>
        <time>2020-06-30T13:20:54Z</time>
      </trkpt>
      <trkpt lat="48.72557" lon="4.58497">
        <ele>101.3</ele>
        <time>2020-06-30T13:20:55Z</time>
      </trkpt>
      <trkpt lat="48.7256" lon="4.58499">
        <ele>101.3</ele>
        <time>2020-06-30T13:20:56Z</time>
      </trkpt>
      <trkpt lat="48.72562" lon="4.585">
        <ele>101.3</ele>
        <time>2020-06-30T13:20:57Z</time>
      </trkpt>
      <trkpt lat="48.72563" lon="4.585">
        <ele>101.3</ele>
        <time>2020-06-30T13:20:58Z</time>
      </trkpt>
      <trkpt lat="48.72565" lon="4.58497">
        <ele>101.3</ele>
        <time>2020-06-30T13:20:59Z</time>
      </trkpt>
      <trkpt lat="48.72566" lon="4.58496">
        <ele>101.3</ele>
        <time>2020-06-30T13:21:00Z</time>
      </trkpt>
      <trkpt lat="48.7257" lon="4.58494">
        <ele>101.3</ele>
        <time>2020-06-30T13:21:01Z</time>
      </trkpt>
      <trkpt lat="48.72571" lon="4.58492">
        <ele>101.3</ele>
        <time>2020-06-30T13:21:02Z</time>
      </trkpt>
      <trkpt lat="48.72573" lon="4.58485">
        <ele>101.3</ele>
        <time>2020-06-30T13:21:03Z</time>
      </trkpt>
      <trkpt lat="48.72574" lon="4.58479">
        <ele>101.3</ele>
        <time>2020-06-30T13:21:04Z</time>
      </trkpt>
      <trkpt lat="48.72575" lon="4.58475">
        <ele>101.3</ele>
        <time>2020-06-30T13:21:05Z</time>
      </trkpt>
      <trkpt lat="48.72577" lon="4.58469">
        <ele>101.3</ele>
        <time>2020-06-30T13:21:06Z</time>
      </trkpt>
      <trkpt lat="48.72577" lon="4.58467">
        <ele>101.3</ele>
        <time>2020-06-30T13:21:07Z</time>
      </trkpt>
      <trkpt lat="48.72578" lon="4.58463">
        <ele>101.3</ele>
        <time>2020-06-30T13:21:08Z</time>
      </trkpt>
      <trkpt lat="48.7258" lon="4.5846">
        <ele>101.3</ele>
        <time>2020-06-30T13:21:09Z</time>
      </trkpt>
      <trkpt lat="48.72582" lon="4.58461">
        <ele>101.3</ele>
        <time>2020-06-30T13:21:10Z</time>
      </trkpt>
      <trkpt lat="48.72585" lon="4.58465">
        <ele>101.2</ele>
        <time>2020-06-30T13:21:11Z</time>
      </trkpt>
      <trkpt lat="48.72589" lon="4.58467">
        <ele>101.2</ele>
        <time>2020-06-30T13:21:12Z</time>
      </trkpt>
      <trkpt lat="48.72593" lon="4.58468">
        <ele>101.1</ele>
        <time>2020-06-30T13:21:13Z</time>
      </trkpt>
      <trkpt lat="48.72596" lon="4.5847">
        <ele>101</ele>
        <time>2020-06-30T13:21:14Z</time>
      </trkpt>
      <trkpt lat="48.72599" lon="4.58472">
        <ele>101</ele>
        <time>2020-06-30T13:21:15Z</time>
      </trkpt>
      <trkpt lat="48.72602" lon="4.58474">
        <ele>101</ele>
        <time>2020-06-30T13:21:16Z</time>
      </trkpt>
      <trkpt lat="48.72604" lon="4.58477">
        <ele>101</ele>
        <time>2020-06-30T13:21:17Z</time>
      </trkpt>
      <trkpt lat="48.72605" lon="4.58478">
        <ele>101</ele>
        <time>2020-06-30T13:21:18Z</time>
      </trkpt>
      <trkpt lat="48.72609" lon="4.58481">
        <ele>100.9</ele>
        <time>2020-06-30T13:21:19Z</time>
      </trkpt>
      <trkpt lat="48.7261" lon="4.58481">
        <ele>100.9</ele>
        <time>2020-06-30T13:21:20Z</time>
      </trkpt>
      <trkpt lat="48.72614" lon="4.58474">
        <ele>100.9</ele>
        <time>2020-06-30T13:21:21Z</time>
      </trkpt>
      <trkpt lat="48.72616" lon="4.58475">
        <ele>100.9</ele>
        <time>2020-06-30T13:21:22Z</time>
      </trkpt>
      <trkpt lat="48.72617" lon="4.58472">
        <ele>100.9</ele>
        <time>2020-06-30T13:21:23Z</time>
      </trkpt>
      <trkpt lat="48.72618" lon="4.58471">
        <ele>100.9</ele>
        <time>2020-06-30T13:21:24Z</time>
      </trkpt>
      <trkpt lat="48.72619" lon="4.5847">
        <ele>100.9</ele>
        <time>2020-06-30T13:21:25Z</time>
      </trkpt>
      <trkpt lat="48.72619" lon="4.5847">
        <ele>100.9</ele>
        <time>2020-06-30T13:21:26Z</time>
      </trkpt>
      <trkpt lat="48.7262" lon="4.5847">
        <ele>100.9</ele>
        <time>2020-06-30T13:21:27Z</time>
      </trkpt>
      <trkpt lat="48.72619" lon="4.58469">
        <ele>100.9</ele>
        <time>2020-06-30T13:21:28Z</time>
      </trkpt>
      <trkpt lat="48.7262" lon="4.5847">
        <ele>100.9</ele>
        <time>2020-06-30T13:21:29Z</time>
      </trkpt>
      <trkpt lat="48.72621" lon="4.58471">
        <ele>100.9</ele>
        <time>2020-06-30T13:21:30Z</time>
      </trkpt>
      <trkpt lat="48.7262" lon="4.58471">
        <ele>100.9</ele>
        <time>2020-06-30T13:21:31Z</time>
      </trkpt>
      <trkpt lat="48.72621" lon="4.58471">
        <ele>100.9</ele>
        <time>2020-06-30T13:21:32Z</time>
      </trkpt>
      <trkpt lat="48.7262" lon="4.58471">
        <ele>100.9</ele>
        <time>2020-06-30T13:21:33Z</time>
      </trkpt>
      <trkpt lat="48.7262" lon="4.58471">
        <ele>100.9</ele>
        <time>2020-06-30T13:21:34Z</time>
      </trkpt>
      <trkpt lat="48.7262" lon="4.58471">
        <ele>100.9</ele>
        <time>2020-06-30T13:21:35Z</time>
      </trkpt>
      <trkpt lat="48.7262" lon="4.5847">
        <ele>100.9</ele>
        <time>2020-06-30T13:21:36Z</time>
      </trkpt>
      <trkpt lat="48.72619" lon="4.58469">
        <ele>100.9</ele>
        <time>2020-06-30T13:21:37Z</time>
      </trkpt>
      <trkpt lat="48.7262" lon="4.58463">
        <ele>100.7</ele>
        <time>2020-06-30T13:21:39Z</time>
      </trkpt>
      <trkpt lat="48.7262" lon="4.5846">
        <ele>100.6</ele>
        <time>2020-06-30T13:21:40Z</time>
      </trkpt>
      <trkpt lat="48.72621" lon="4.58455">
        <ele>100.6</ele>
        <time>2020-06-30T13:21:41Z</time>
      </trkpt>
      <trkpt lat="48.72622" lon="4.58453">
        <ele>100.6</ele>
        <time>2020-06-30T13:21:42Z</time>
      </trkpt>
      <trkpt lat="48.72623" lon="4.58448">
        <ele>100.5</ele>
        <time>2020-06-30T13:21:43Z</time>
      </trkpt>
      <trkpt lat="48.72624" lon="4.58446">
        <ele>100.5</ele>
        <time>2020-06-30T13:21:44Z</time>
      </trkpt>
      <trkpt lat="48.72626" lon="4.58442">
        <ele>100.4</ele>
        <time>2020-06-30T13:21:45Z</time>
      </trkpt>
      <trkpt lat="48.72628" lon="4.58439">
        <ele>100.4</ele>
        <time>2020-06-30T13:21:46Z</time>
      </trkpt>
      <trkpt lat="48.72629" lon="4.58433">
        <ele>100.3</ele>
        <time>2020-06-30T13:21:47Z</time>
      </trkpt>
      <trkpt lat="48.7263" lon="4.5843">
        <ele>100.3</ele>
        <time>2020-06-30T13:21:48Z</time>
      </trkpt>
      <trkpt lat="48.72631" lon="4.58426">
        <ele>100.2</ele>
        <time>2020-06-30T13:21:49Z</time>
      </trkpt>
      <trkpt lat="48.72632" lon="4.58422">
        <ele>100.2</ele>
        <time>2020-06-30T13:21:50Z</time>
      </trkpt>
      <trkpt lat="48.72633" lon="4.58418">
        <ele>100.2</ele>
        <time>2020-06-30T13:21:51Z</time>
      </trkpt>
      <trkpt lat="48.72634" lon="4.58413">
        <ele>100.2</ele>
        <time>2020-06-30T13:21:52Z</time>
      </trkpt>
      <trkpt lat="48.72635" lon="4.58407">
        <ele>100.2</ele>
        <time>2020-06-30T13:21:53Z</time>
      </trkpt>
      <trkpt lat="48.72637" lon="4.58401">
        <ele>100.2</ele>
        <time>2020-06-30T13:21:54Z</time>
      </trkpt>
      <trkpt lat="48.7264" lon="4.58397">
        <ele>100.2</ele>
        <time>2020-06-30T13:21:55Z</time>
      </trkpt>
      <trkpt lat="48.72642" lon="4.58392">
        <ele>100.2</ele>
        <time>2020-06-30T13:21:56Z</time>
      </trkpt>
      <trkpt lat="48.72644" lon="4.58388">
        <ele>100.2</ele>
        <time>2020-06-30T13:21:57Z</time>
      </trkpt>
      <trkpt lat="48.72645" lon="4.58384">
        <ele>100.2</ele>
        <time>2020-06-30T13:21:58Z</time>
      </trkpt>
      <trkpt lat="48.72647" lon="4.58379">
        <ele>100.2</ele>
        <time>2020-06-30T13:21:59Z</time>
      </trkpt>
      <trkpt lat="48.72648" lon="4.58374">
        <ele>100.2</ele>
        <time>2020-06-30T13:22:00Z</time>
      </trkpt>
      <trkpt lat="48.72649" lon="4.58369">
        <ele>100.2</ele>
        <time>2020-06-30T13:22:01Z</time>
      </trkpt>
      <trkpt lat="48.72649" lon="4.58367">
        <ele>100.2</ele>
        <time>2020-06-30T13:22:02Z</time>
      </trkpt>
      <trkpt lat="48.7265" lon="4.58361">
        <ele>100.2</ele>
        <time>2020-06-30T13:22:03Z</time>
      </trkpt>
      <trkpt lat="48.72651" lon="4.58355">
        <ele>100.2</ele>
        <time>2020-06-30T13:22:04Z</time>
      </trkpt>
      <trkpt lat="48.72653" lon="4.5835">
        <ele>100.2</ele>
        <time>2020-06-30T13:22:05Z</time>
      </trkpt>
      <trkpt lat="48.72654" lon="4.58344">
        <ele>100.2</ele>
        <time>2020-06-30T13:22:06Z</time>
      </trkpt>
      <trkpt lat="48.72655" lon="4.58338">
        <ele>100.2</ele>
        <time>2020-06-30T13:22:07Z</time>
      </trkpt>
      <trkpt lat="48.72658" lon="4.58332">
        <ele>100.2</ele>
        <time>2020-06-30T13:22:08Z</time>
      </trkpt>
      <trkpt lat="48.7266" lon="4.58325">
        <ele>100.1</ele>
        <time>2020-06-30T13:22:09Z</time>
      </trkpt>
      <trkpt lat="48.72662" lon="4.58317">
        <ele>100</ele>
        <time>2020-06-30T13:22:10Z</time>
      </trkpt>
      <trkpt lat="48.72664" lon="4.58311">
        <ele>100</ele>
        <time>2020-06-30T13:22:11Z</time>
      </trkpt>
      <trkpt lat="48.72666" lon="4.58305">
        <ele>99.9</ele>
        <time>2020-06-30T13:22:12Z</time>
      </trkpt>
      <trkpt lat="48.72667" lon="4.58298">
        <ele>99.8</ele>
        <time>2020-06-30T13:22:13Z</time>
      </trkpt>
      <trkpt lat="48.72669" lon="4.58292">
        <ele>99.7</ele>
        <time>2020-06-30T13:22:14Z</time>
      </trkpt>
      <trkpt lat="48.72671" lon="4.58286">
        <ele>99.7</ele>
        <time>2020-06-30T13:22:15Z</time>
      </trkpt>
      <trkpt lat="48.72672" lon="4.58282">
        <ele>99.6</ele>
        <time>2020-06-30T13:22:16Z</time>
      </trkpt>
      <trkpt lat="48.72674" lon="4.58276">
        <ele>99.5</ele>
        <time>2020-06-30T13:22:17Z</time>
      </trkpt>
      <trkpt lat="48.72676" lon="4.58271">
        <ele>99.5</ele>
        <time>2020-06-30T13:22:18Z</time>
      </trkpt>
      <trkpt lat="48.72678" lon="4.58266">
        <ele>99.4</ele>
        <time>2020-06-30T13:22:19Z</time>
      </trkpt>
      <trkpt lat="48.7268" lon="4.5826">
        <ele>99.3</ele>
        <time>2020-06-30T13:22:20Z</time>
      </trkpt>
      <trkpt lat="48.72682" lon="4.58255">
        <ele>99.2</ele>
        <time>2020-06-30T13:22:21Z</time>
      </trkpt>
      <trkpt lat="48.72683" lon="4.5825">
        <ele>99.1</ele>
        <time>2020-06-30T13:22:22Z</time>
      </trkpt>
      <trkpt lat="48.72685" lon="4.58244">
        <ele>99.1</ele>
        <time>2020-06-30T13:22:23Z</time>
      </trkpt>
      <trkpt lat="48.72686" lon="4.58239">
        <ele>99</ele>
        <time>2020-06-30T13:22:24Z</time>
      </trkpt>
      <trkpt lat="48.72687" lon="4.58234">
        <ele>99</ele>
        <time>2020-06-30T13:22:25Z</time>
      </trkpt>
      <trkpt lat="48.72689" lon="4.58228">
        <ele>98.9</ele>
        <time>2020-06-30T13:22:26Z</time>
      </trkpt>
      <trkpt lat="48.7269" lon="4.58223">
        <ele>98.8</ele>
        <time>2020-06-30T13:22:27Z</time>
      </trkpt>
      <trkpt lat="48.72692" lon="4.58216">
        <ele>98.8</ele>
        <time>2020-06-30T13:22:28Z</time>
      </trkpt>
      <trkpt lat="48.72693" lon="4.5821">
        <ele>98.7</ele>
        <time>2020-06-30T13:22:29Z</time>
      </trkpt>
      <trkpt lat="48.72694" lon="4.58205">
        <ele>98.7</ele>
        <time>2020-06-30T13:22:30Z</time>
      </trkpt>
      <trkpt lat="48.72696" lon="4.58199">
        <ele>98.6</ele>
        <time>2020-06-30T13:22:31Z</time>
      </trkpt>
      <trkpt lat="48.72697" lon="4.58192">
        <ele>98.5</ele>
        <time>2020-06-30T13:22:32Z</time>
      </trkpt>
      <trkpt lat="48.72698" lon="4.58187">
        <ele>98.4</ele>
        <time>2020-06-30T13:22:33Z</time>
      </trkpt>
      <trkpt lat="48.727" lon="4.58182">
        <ele>98.4</ele>
        <time>2020-06-30T13:22:34Z</time>
      </trkpt>
      <trkpt lat="48.72702" lon="4.58178">
        <ele>98.4</ele>
        <time>2020-06-30T13:22:35Z</time>
      </trkpt>
      <trkpt lat="48.72704" lon="4.58173">
        <ele>98.4</ele>
        <time>2020-06-30T13:22:36Z</time>
      </trkpt>
      <trkpt lat="48.72707" lon="4.58169">
        <ele>98.4</ele>
        <time>2020-06-30T13:22:37Z</time>
      </trkpt>
      <trkpt lat="48.7271" lon="4.58166">
        <ele>98.4</ele>
        <time>2020-06-30T13:22:38Z</time>
      </trkpt>
      <trkpt lat="48.72715" lon="4.58163">
        <ele>98.4</ele>
        <time>2020-06-30T13:22:39Z</time>
      </trkpt>
      <trkpt lat="48.72719" lon="4.58161">
        <ele>98.5</ele>
        <time>2020-06-30T13:22:40Z</time>
      </trkpt>
      <trkpt lat="48.72721" lon="4.58158">
        <ele>98.5</ele>
        <time>2020-06-30T13:22:41Z</time>
      </trkpt>
      <trkpt lat="48.72725" lon="4.58155">
        <ele>98.7</ele>
        <time>2020-06-30T13:22:42Z</time>
      </trkpt>
      <trkpt lat="48.72729" lon="4.5815">
        <ele>98.5</ele>
        <time>2020-06-30T13:22:43Z</time>
      </trkpt>
      <trkpt lat="48.72731" lon="4.58147">
        <ele>98.3</ele>
        <time>2020-06-30T13:22:44Z</time>
      </trkpt>
      <trkpt lat="48.72733" lon="4.58141">
        <ele>98.1</ele>
        <time>2020-06-30T13:22:45Z</time>
      </trkpt>
      <trkpt lat="48.72734" lon="4.58134">
        <ele>98.1</ele>
        <time>2020-06-30T13:22:46Z</time>
      </trkpt>
      <trkpt lat="48.72734" lon="4.58126">
        <ele>98.1</ele>
        <time>2020-06-30T13:22:47Z</time>
      </trkpt>
      <trkpt lat="48.72733" lon="4.58119">
        <ele>98.1</ele>
        <time>2020-06-30T13:22:48Z</time>
      </trkpt>
      <trkpt lat="48.72732" lon="4.5811">
        <ele>98.1</ele>
        <time>2020-06-30T13:22:49Z</time>
      </trkpt>
      <trkpt lat="48.72731" lon="4.58103">
        <ele>98.1</ele>
        <time>2020-06-30T13:22:50Z</time>
      </trkpt>
      <trkpt lat="48.7273" lon="4.58094">
        <ele>98.1</ele>
        <time>2020-06-30T13:22:51Z</time>
      </trkpt>
      <trkpt lat="48.72731" lon="4.58086">
        <ele>98.1</ele>
        <time>2020-06-30T13:22:52Z</time>
      </trkpt>
      <trkpt lat="48.72732" lon="4.58077">
        <ele>98</ele>
        <time>2020-06-30T13:22:53Z</time>
      </trkpt>
      <trkpt lat="48.72734" lon="4.5807">
        <ele>98</ele>
        <time>2020-06-30T13:22:54Z</time>
      </trkpt>
      <trkpt lat="48.72736" lon="4.58063">
        <ele>98</ele>
        <time>2020-06-30T13:22:55Z</time>
      </trkpt>
      <trkpt lat="48.72738" lon="4.58056">
        <ele>97.9</ele>
        <time>2020-06-30T13:22:56Z</time>
      </trkpt>
      <trkpt lat="48.72741" lon="4.58048">
        <ele>97.9</ele>
        <time>2020-06-30T13:22:57Z</time>
      </trkpt>
      <trkpt lat="48.72745" lon="4.58039">
        <ele>97.8</ele>
        <time>2020-06-30T13:22:58Z</time>
      </trkpt>
      <trkpt lat="48.72747" lon="4.58031">
        <ele>97.8</ele>
        <time>2020-06-30T13:22:59Z</time>
      </trkpt>
      <trkpt lat="48.7275" lon="4.58023">
        <ele>97.8</ele>
        <time>2020-06-30T13:23:00Z</time>
      </trkpt>
      <trkpt lat="48.72752" lon="4.58016">
        <ele>97.8</ele>
        <time>2020-06-30T13:23:01Z</time>
      </trkpt>
      <trkpt lat="48.72755" lon="4.58007">
        <ele>97.8</ele>
        <time>2020-06-30T13:23:02Z</time>
      </trkpt>
      <trkpt lat="48.72758" lon="4.58">
        <ele>97.8</ele>
        <time>2020-06-30T13:23:03Z</time>
      </trkpt>
      <trkpt lat="48.72761" lon="4.57992">
        <ele>97.8</ele>
        <time>2020-06-30T13:23:04Z</time>
      </trkpt>
      <trkpt lat="48.72764" lon="4.57985">
        <ele>97.8</ele>
        <time>2020-06-30T13:23:05Z</time>
      </trkpt>
      <trkpt lat="48.72766" lon="4.57977">
        <ele>97.8</ele>
        <time>2020-06-30T13:23:06Z</time>
      </trkpt>
      <trkpt lat="48.72768" lon="4.57968">
        <ele>97.8</ele>
        <time>2020-06-30T13:23:07Z</time>
      </trkpt>
      <trkpt lat="48.7277" lon="4.5796">
        <ele>97.8</ele>
        <time>2020-06-30T13:23:08Z</time>
      </trkpt>
      <trkpt lat="48.72773" lon="4.57951">
        <ele>97.8</ele>
        <time>2020-06-30T13:23:09Z</time>
      </trkpt>
      <trkpt lat="48.72776" lon="4.57942">
        <ele>97.8</ele>
        <time>2020-06-30T13:23:10Z</time>
      </trkpt>
      <trkpt lat="48.72779" lon="4.57932">
        <ele>97.8</ele>
        <time>2020-06-30T13:23:11Z</time>
      </trkpt>
      <trkpt lat="48.72781" lon="4.57923">
        <ele>97.8</ele>
        <time>2020-06-30T13:23:12Z</time>
      </trkpt>
      <trkpt lat="48.72784" lon="4.57914">
        <ele>97.9</ele>
        <time>2020-06-30T13:23:13Z</time>
      </trkpt>
      <trkpt lat="48.72786" lon="4.57905">
        <ele>97.9</ele>
        <time>2020-06-30T13:23:14Z</time>
      </trkpt>
      <trkpt lat="48.72788" lon="4.57896">
        <ele>98</ele>
        <time>2020-06-30T13:23:15Z</time>
      </trkpt>
      <trkpt lat="48.72791" lon="4.57888">
        <ele>98</ele>
        <time>2020-06-30T13:23:16Z</time>
      </trkpt>
      <trkpt lat="48.72793" lon="4.5788">
        <ele>98</ele>
        <time>2020-06-30T13:23:17Z</time>
      </trkpt>
      <trkpt lat="48.72795" lon="4.57871">
        <ele>98.1</ele>
        <time>2020-06-30T13:23:18Z</time>
      </trkpt>
      <trkpt lat="48.72798" lon="4.57862">
        <ele>98.1</ele>
        <time>2020-06-30T13:23:19Z</time>
      </trkpt>
      <trkpt lat="48.728" lon="4.57853">
        <ele>98.1</ele>
        <time>2020-06-30T13:23:20Z</time>
      </trkpt>
      <trkpt lat="48.72802" lon="4.57845">
        <ele>98.2</ele>
        <time>2020-06-30T13:23:21Z</time>
      </trkpt>
      <trkpt lat="48.72804" lon="4.57837">
        <ele>98.3</ele>
        <time>2020-06-30T13:23:22Z</time>
      </trkpt>
      <trkpt lat="48.72807" lon="4.57829">
        <ele>98.3</ele>
        <time>2020-06-30T13:23:23Z</time>
      </trkpt>
      <trkpt lat="48.72809" lon="4.57821">
        <ele>98.4</ele>
        <time>2020-06-30T13:23:24Z</time>
      </trkpt>
      <trkpt lat="48.72811" lon="4.57815">
        <ele>98.5</ele>
        <time>2020-06-30T13:23:25Z</time>
      </trkpt>
      <trkpt lat="48.72813" lon="4.5781">
        <ele>98.6</ele>
        <time>2020-06-30T13:23:26Z</time>
      </trkpt>
      <trkpt lat="48.72815" lon="4.57804">
        <ele>98.7</ele>
        <time>2020-06-30T13:23:27Z</time>
      </trkpt>
      <trkpt lat="48.72817" lon="4.57796">
        <ele>98.8</ele>
        <time>2020-06-30T13:23:28Z</time>
      </trkpt>
      <trkpt lat="48.7282" lon="4.57788">
        <ele>98.9</ele>
        <time>2020-06-30T13:23:29Z</time>
      </trkpt>
      <trkpt lat="48.72822" lon="4.57781">
        <ele>99</ele>
        <time>2020-06-30T13:23:30Z</time>
      </trkpt>
      <trkpt lat="48.72823" lon="4.57774">
        <ele>99.1</ele>
        <time>2020-06-30T13:23:31Z</time>
      </trkpt>
      <trkpt lat="48.72826" lon="4.57766">
        <ele>99.2</ele>
        <time>2020-06-30T13:23:32Z</time>
      </trkpt>
      <trkpt lat="48.72828" lon="4.57759">
        <ele>99.2</ele>
        <time>2020-06-30T13:23:33Z</time>
      </trkpt>
      <trkpt lat="48.72829" lon="4.57754">
        <ele>99.3</ele>
        <time>2020-06-30T13:23:34Z</time>
      </trkpt>
      <trkpt lat="48.72831" lon="4.57748">
        <ele>99.2</ele>
        <time>2020-06-30T13:23:35Z</time>
      </trkpt>
      <trkpt lat="48.72832" lon="4.57741">
        <ele>99.2</ele>
        <time>2020-06-30T13:23:36Z</time>
      </trkpt>
      <trkpt lat="48.72834" lon="4.57735">
        <ele>99.2</ele>
        <time>2020-06-30T13:23:37Z</time>
      </trkpt>
      <trkpt lat="48.72836" lon="4.57729">
        <ele>99.2</ele>
        <time>2020-06-30T13:23:38Z</time>
      </trkpt>
      <trkpt lat="48.72837" lon="4.57723">
        <ele>99.2</ele>
        <time>2020-06-30T13:23:39Z</time>
      </trkpt>
      <trkpt lat="48.72839" lon="4.57715">
        <ele>99.2</ele>
        <time>2020-06-30T13:23:40Z</time>
      </trkpt>
      <trkpt lat="48.7284" lon="4.57708">
        <ele>99.1</ele>
        <time>2020-06-30T13:23:41Z</time>
      </trkpt>
      <trkpt lat="48.72842" lon="4.57703">
        <ele>99.1</ele>
        <time>2020-06-30T13:23:42Z</time>
      </trkpt>
      <trkpt lat="48.72844" lon="4.57697">
        <ele>99</ele>
        <time>2020-06-30T13:23:43Z</time>
      </trkpt>
      <trkpt lat="48.72845" lon="4.57694">
        <ele>99</ele>
        <time>2020-06-30T13:23:44Z</time>
      </trkpt>
      <trkpt lat="48.72846" lon="4.5769">
        <ele>99</ele>
        <time>2020-06-30T13:23:45Z</time>
      </trkpt>
      <trkpt lat="48.72849" lon="4.57682">
        <ele>99</ele>
        <time>2020-06-30T13:23:46Z</time>
      </trkpt>
      <trkpt lat="48.72851" lon="4.57676">
        <ele>98.9</ele>
        <time>2020-06-30T13:23:47Z</time>
      </trkpt>
      <trkpt lat="48.72855" lon="4.57665">
        <ele>98.9</ele>
        <time>2020-06-30T13:23:48Z</time>
      </trkpt>
      <trkpt lat="48.72858" lon="4.57658">
        <ele>98.8</ele>
        <time>2020-06-30T13:23:49Z</time>
      </trkpt>
      <trkpt lat="48.72859" lon="4.57649">
        <ele>98.7</ele>
        <time>2020-06-30T13:23:50Z</time>
      </trkpt>
      <trkpt lat="48.7286" lon="4.57644">
        <ele>98.6</ele>
        <time>2020-06-30T13:23:51Z</time>
      </trkpt>
      <trkpt lat="48.72862" lon="4.57637">
        <ele>98.6</ele>
        <time>2020-06-30T13:23:52Z</time>
      </trkpt>
      <trkpt lat="48.72864" lon="4.57628">
        <ele>98.5</ele>
        <time>2020-06-30T13:23:53Z</time>
      </trkpt>
      <trkpt lat="48.72866" lon="4.5762">
        <ele>98.5</ele>
        <time>2020-06-30T13:23:54Z</time>
      </trkpt>
      <trkpt lat="48.72869" lon="4.57612">
        <ele>98.4</ele>
        <time>2020-06-30T13:23:55Z</time>
      </trkpt>
      <trkpt lat="48.72871" lon="4.57603">
        <ele>98.4</ele>
        <time>2020-06-30T13:23:56Z</time>
      </trkpt>
      <trkpt lat="48.72873" lon="4.57597">
        <ele>98.4</ele>
        <time>2020-06-30T13:23:57Z</time>
      </trkpt>
      <trkpt lat="48.72877" lon="4.57589">
        <ele>98.4</ele>
        <time>2020-06-30T13:23:58Z</time>
      </trkpt>
      <trkpt lat="48.7288" lon="4.5758">
        <ele>98.3</ele>
        <time>2020-06-30T13:23:59Z</time>
      </trkpt>
      <trkpt lat="48.72883" lon="4.57568">
        <ele>98.3</ele>
        <time>2020-06-30T13:24:00Z</time>
      </trkpt>
      <trkpt lat="48.72886" lon="4.57559">
        <ele>98.2</ele>
        <time>2020-06-30T13:24:01Z</time>
      </trkpt>
      <trkpt lat="48.72889" lon="4.5755">
        <ele>98.2</ele>
        <time>2020-06-30T13:24:02Z</time>
      </trkpt>
      <trkpt lat="48.72891" lon="4.57542">
        <ele>97.9</ele>
        <time>2020-06-30T13:24:03Z</time>
      </trkpt>
      <trkpt lat="48.72894" lon="4.57534">
        <ele>97.8</ele>
        <time>2020-06-30T13:24:04Z</time>
      </trkpt>
      <trkpt lat="48.72896" lon="4.57525">
        <ele>97.7</ele>
        <time>2020-06-30T13:24:05Z</time>
      </trkpt>
      <trkpt lat="48.72898" lon="4.57517">
        <ele>97.6</ele>
        <time>2020-06-30T13:24:06Z</time>
      </trkpt>
      <trkpt lat="48.72901" lon="4.57508">
        <ele>97.5</ele>
        <time>2020-06-30T13:24:07Z</time>
      </trkpt>
      <trkpt lat="48.72903" lon="4.57499">
        <ele>97.4</ele>
        <time>2020-06-30T13:24:08Z</time>
      </trkpt>
      <trkpt lat="48.72906" lon="4.57489">
        <ele>97.2</ele>
        <time>2020-06-30T13:24:09Z</time>
      </trkpt>
      <trkpt lat="48.72908" lon="4.57479">
        <ele>97.1</ele>
        <time>2020-06-30T13:24:10Z</time>
      </trkpt>
      <trkpt lat="48.72911" lon="4.5747">
        <ele>97</ele>
        <time>2020-06-30T13:24:11Z</time>
      </trkpt>
      <trkpt lat="48.72914" lon="4.57461">
        <ele>96.9</ele>
        <time>2020-06-30T13:24:12Z</time>
      </trkpt>
      <trkpt lat="48.72917" lon="4.57452">
        <ele>96.8</ele>
        <time>2020-06-30T13:24:13Z</time>
      </trkpt>
      <trkpt lat="48.7292" lon="4.57443">
        <ele>96.7</ele>
        <time>2020-06-30T13:24:14Z</time>
      </trkpt>
      <trkpt lat="48.72922" lon="4.57433">
        <ele>96.7</ele>
        <time>2020-06-30T13:24:15Z</time>
      </trkpt>
      <trkpt lat="48.72925" lon="4.57424">
        <ele>96.7</ele>
        <time>2020-06-30T13:24:16Z</time>
      </trkpt>
      <trkpt lat="48.72928" lon="4.57416">
        <ele>96.7</ele>
        <time>2020-06-30T13:24:17Z</time>
      </trkpt>
      <trkpt lat="48.72931" lon="4.57407">
        <ele>96.7</ele>
        <time>2020-06-30T13:24:18Z</time>
      </trkpt>
      <trkpt lat="48.72934" lon="4.57398">
        <ele>96.8</ele>
        <time>2020-06-30T13:24:19Z</time>
      </trkpt>
      <trkpt lat="48.72936" lon="4.57389">
        <ele>96.8</ele>
        <time>2020-06-30T13:24:20Z</time>
      </trkpt>
      <trkpt lat="48.72939" lon="4.5738">
        <ele>96.8</ele>
        <time>2020-06-30T13:24:21Z</time>
      </trkpt>
      <trkpt lat="48.72942" lon="4.57372">
        <ele>96.8</ele>
        <time>2020-06-30T13:24:22Z</time>
      </trkpt>
      <trkpt lat="48.72944" lon="4.57363">
        <ele>96.8</ele>
        <time>2020-06-30T13:24:23Z</time>
      </trkpt>
      <trkpt lat="48.72946" lon="4.57355">
        <ele>96.8</ele>
        <time>2020-06-30T13:24:24Z</time>
      </trkpt>
      <trkpt lat="48.72949" lon="4.57346">
        <ele>96.8</ele>
        <time>2020-06-30T13:24:25Z</time>
      </trkpt>
      <trkpt lat="48.72951" lon="4.57338">
        <ele>96.8</ele>
        <time>2020-06-30T13:24:26Z</time>
      </trkpt>
      <trkpt lat="48.72953" lon="4.57329">
        <ele>96.8</ele>
        <time>2020-06-30T13:24:27Z</time>
      </trkpt>
      <trkpt lat="48.72956" lon="4.57321">
        <ele>96.8</ele>
        <time>2020-06-30T13:24:28Z</time>
      </trkpt>
      <trkpt lat="48.72958" lon="4.57313">
        <ele>96.8</ele>
        <time>2020-06-30T13:24:29Z</time>
      </trkpt>
      <trkpt lat="48.7296" lon="4.57305">
        <ele>96.8</ele>
        <time>2020-06-30T13:24:30Z</time>
      </trkpt>
      <trkpt lat="48.72963" lon="4.57297">
        <ele>96.8</ele>
        <time>2020-06-30T13:24:31Z</time>
      </trkpt>
      <trkpt lat="48.72966" lon="4.57288">
        <ele>96.9</ele>
        <time>2020-06-30T13:24:32Z</time>
      </trkpt>
      <trkpt lat="48.72968" lon="4.5728">
        <ele>96.9</ele>
        <time>2020-06-30T13:24:33Z</time>
      </trkpt>
      <trkpt lat="48.72971" lon="4.57272">
        <ele>96.9</ele>
        <time>2020-06-30T13:24:34Z</time>
      </trkpt>
      <trkpt lat="48.72974" lon="4.57263">
        <ele>96.9</ele>
        <time>2020-06-30T13:24:35Z</time>
      </trkpt>
      <trkpt lat="48.72976" lon="4.57254">
        <ele>96.9</ele>
        <time>2020-06-30T13:24:36Z</time>
      </trkpt>
      <trkpt lat="48.72978" lon="4.57247">
        <ele>96.9</ele>
        <time>2020-06-30T13:24:37Z</time>
      </trkpt>
      <trkpt lat="48.72981" lon="4.57239">
        <ele>96.9</ele>
        <time>2020-06-30T13:24:38Z</time>
      </trkpt>
      <trkpt lat="48.72984" lon="4.57231">
        <ele>96.9</ele>
        <time>2020-06-30T13:24:39Z</time>
      </trkpt>
      <trkpt lat="48.72987" lon="4.57221">
        <ele>96.9</ele>
        <time>2020-06-30T13:24:40Z</time>
      </trkpt>
      <trkpt lat="48.7299" lon="4.57213">
        <ele>97</ele>
        <time>2020-06-30T13:24:41Z</time>
      </trkpt>
      <trkpt lat="48.72992" lon="4.57203">
        <ele>97</ele>
        <time>2020-06-30T13:24:42Z</time>
      </trkpt>
      <trkpt lat="48.72994" lon="4.57193">
        <ele>97</ele>
        <time>2020-06-30T13:24:43Z</time>
      </trkpt>
      <trkpt lat="48.72996" lon="4.57188">
        <ele>97</ele>
        <time>2020-06-30T13:24:44Z</time>
      </trkpt>
      <trkpt lat="48.72999" lon="4.57176">
        <ele>97</ele>
        <time>2020-06-30T13:24:45Z</time>
      </trkpt>
      <trkpt lat="48.73002" lon="4.57167">
        <ele>97</ele>
        <time>2020-06-30T13:24:46Z</time>
      </trkpt>
      <trkpt lat="48.73006" lon="4.57159">
        <ele>97.1</ele>
        <time>2020-06-30T13:24:47Z</time>
      </trkpt>
      <trkpt lat="48.73008" lon="4.57149">
        <ele>97.1</ele>
        <time>2020-06-30T13:24:48Z</time>
      </trkpt>
      <trkpt lat="48.7301" lon="4.57141">
        <ele>97.1</ele>
        <time>2020-06-30T13:24:49Z</time>
      </trkpt>
      <trkpt lat="48.73013" lon="4.57133">
        <ele>97.1</ele>
        <time>2020-06-30T13:24:50Z</time>
      </trkpt>
      <trkpt lat="48.73015" lon="4.57124">
        <ele>97.1</ele>
        <time>2020-06-30T13:24:51Z</time>
      </trkpt>
      <trkpt lat="48.73017" lon="4.57115">
        <ele>97.1</ele>
        <time>2020-06-30T13:24:52Z</time>
      </trkpt>
      <trkpt lat="48.7302" lon="4.57107">
        <ele>97.1</ele>
        <time>2020-06-30T13:24:53Z</time>
      </trkpt>
      <trkpt lat="48.73022" lon="4.57098">
        <ele>97.1</ele>
        <time>2020-06-30T13:24:54Z</time>
      </trkpt>
      <trkpt lat="48.73024" lon="4.57089">
        <ele>97.1</ele>
        <time>2020-06-30T13:24:55Z</time>
      </trkpt>
      <trkpt lat="48.73026" lon="4.5708">
        <ele>97.1</ele>
        <time>2020-06-30T13:24:56Z</time>
      </trkpt>
      <trkpt lat="48.73028" lon="4.57071">
        <ele>97.1</ele>
        <time>2020-06-30T13:24:57Z</time>
      </trkpt>
      <trkpt lat="48.73031" lon="4.57062">
        <ele>97.1</ele>
        <time>2020-06-30T13:24:58Z</time>
      </trkpt>
      <trkpt lat="48.73034" lon="4.57052">
        <ele>97.1</ele>
        <time>2020-06-30T13:24:59Z</time>
      </trkpt>
      <trkpt lat="48.73037" lon="4.57042">
        <ele>97.1</ele>
        <time>2020-06-30T13:25:00Z</time>
      </trkpt>
      <trkpt lat="48.73039" lon="4.57032">
        <ele>97.1</ele>
        <time>2020-06-30T13:25:01Z</time>
      </trkpt>
      <trkpt lat="48.73042" lon="4.57022">
        <ele>97.2</ele>
        <time>2020-06-30T13:25:02Z</time>
      </trkpt>
      <trkpt lat="48.73044" lon="4.57012">
        <ele>97.2</ele>
        <time>2020-06-30T13:25:03Z</time>
      </trkpt>
      <trkpt lat="48.73048" lon="4.57003">
        <ele>97.2</ele>
        <time>2020-06-30T13:25:04Z</time>
      </trkpt>
      <trkpt lat="48.73051" lon="4.56994">
        <ele>97.2</ele>
        <time>2020-06-30T13:25:05Z</time>
      </trkpt>
      <trkpt lat="48.73054" lon="4.56986">
        <ele>97.3</ele>
        <time>2020-06-30T13:25:06Z</time>
      </trkpt>
      <trkpt lat="48.73056" lon="4.56976">
        <ele>97.3</ele>
        <time>2020-06-30T13:25:07Z</time>
      </trkpt>
      <trkpt lat="48.73059" lon="4.56967">
        <ele>97.3</ele>
        <time>2020-06-30T13:25:08Z</time>
      </trkpt>
      <trkpt lat="48.73062" lon="4.56958">
        <ele>97.3</ele>
        <time>2020-06-30T13:25:09Z</time>
      </trkpt>
      <trkpt lat="48.73065" lon="4.56949">
        <ele>97.2</ele>
        <time>2020-06-30T13:25:10Z</time>
      </trkpt>
      <trkpt lat="48.73068" lon="4.5694">
        <ele>97.2</ele>
        <time>2020-06-30T13:25:11Z</time>
      </trkpt>
      <trkpt lat="48.73072" lon="4.5693">
        <ele>97.2</ele>
        <time>2020-06-30T13:25:12Z</time>
      </trkpt>
      <trkpt lat="48.73075" lon="4.56921">
        <ele>97.2</ele>
        <time>2020-06-30T13:25:13Z</time>
      </trkpt>
      <trkpt lat="48.73078" lon="4.5691">
        <ele>97.2</ele>
        <time>2020-06-30T13:25:14Z</time>
      </trkpt>
      <trkpt lat="48.73081" lon="4.56901">
        <ele>97.2</ele>
        <time>2020-06-30T13:25:15Z</time>
      </trkpt>
      <trkpt lat="48.73084" lon="4.5689">
        <ele>97.2</ele>
        <time>2020-06-30T13:25:16Z</time>
      </trkpt>
      <trkpt lat="48.73088" lon="4.5688">
        <ele>97.2</ele>
        <time>2020-06-30T13:25:17Z</time>
      </trkpt>
      <trkpt lat="48.73092" lon="4.56871">
        <ele>97.2</ele>
        <time>2020-06-30T13:25:18Z</time>
      </trkpt>
      <trkpt lat="48.73095" lon="4.56861">
        <ele>97.2</ele>
        <time>2020-06-30T13:25:19Z</time>
      </trkpt>
      <trkpt lat="48.73098" lon="4.5685">
        <ele>97.2</ele>
        <time>2020-06-30T13:25:20Z</time>
      </trkpt>
      <trkpt lat="48.73101" lon="4.5684">
        <ele>97.2</ele>
        <time>2020-06-30T13:25:21Z</time>
      </trkpt>
      <trkpt lat="48.73104" lon="4.5683">
        <ele>97.2</ele>
        <time>2020-06-30T13:25:22Z</time>
      </trkpt>
      <trkpt lat="48.73107" lon="4.56819">
        <ele>97.2</ele>
        <time>2020-06-30T13:25:23Z</time>
      </trkpt>
      <trkpt lat="48.7311" lon="4.56809">
        <ele>97.2</ele>
        <time>2020-06-30T13:25:24Z</time>
      </trkpt>
      <trkpt lat="48.73113" lon="4.56799">
        <ele>97.3</ele>
        <time>2020-06-30T13:25:25Z</time>
      </trkpt>
      <trkpt lat="48.73116" lon="4.56788">
        <ele>97.3</ele>
        <time>2020-06-30T13:25:26Z</time>
      </trkpt>
      <trkpt lat="48.7312" lon="4.56778">
        <ele>97.3</ele>
        <time>2020-06-30T13:25:27Z</time>
      </trkpt>
      <trkpt lat="48.73123" lon="4.56767">
        <ele>97.3</ele>
        <time>2020-06-30T13:25:28Z</time>
      </trkpt>
      <trkpt lat="48.73126" lon="4.56756">
        <ele>97.3</ele>
        <time>2020-06-30T13:25:29Z</time>
      </trkpt>
      <trkpt lat="48.73129" lon="4.56746">
        <ele>97.3</ele>
        <time>2020-06-30T13:25:30Z</time>
      </trkpt>
      <trkpt lat="48.73132" lon="4.56735">
        <ele>97.3</ele>
        <time>2020-06-30T13:25:31Z</time>
      </trkpt>
      <trkpt lat="48.73135" lon="4.56724">
        <ele>97.3</ele>
        <time>2020-06-30T13:25:32Z</time>
      </trkpt>
      <trkpt lat="48.73138" lon="4.56714">
        <ele>97.3</ele>
        <time>2020-06-30T13:25:33Z</time>
      </trkpt>
      <trkpt lat="48.73141" lon="4.56703">
        <ele>97.3</ele>
        <time>2020-06-30T13:25:34Z</time>
      </trkpt>
      <trkpt lat="48.73144" lon="4.56692">
        <ele>97.3</ele>
        <time>2020-06-30T13:25:35Z</time>
      </trkpt>
      <trkpt lat="48.73148" lon="4.56681">
        <ele>97.3</ele>
        <time>2020-06-30T13:25:36Z</time>
      </trkpt>
      <trkpt lat="48.73151" lon="4.56671">
        <ele>97.3</ele>
        <time>2020-06-30T13:25:37Z</time>
      </trkpt>
      <trkpt lat="48.73154" lon="4.5666">
        <ele>97.3</ele>
        <time>2020-06-30T13:25:38Z</time>
      </trkpt>
      <trkpt lat="48.73157" lon="4.56649">
        <ele>97.3</ele>
        <time>2020-06-30T13:25:39Z</time>
      </trkpt>
      <trkpt lat="48.7316" lon="4.56639">
        <ele>97.3</ele>
        <time>2020-06-30T13:25:40Z</time>
      </trkpt>
      <trkpt lat="48.73163" lon="4.56628">
        <ele>97.3</ele>
        <time>2020-06-30T13:25:41Z</time>
      </trkpt>
      <trkpt lat="48.73166" lon="4.56618">
        <ele>97.4</ele>
        <time>2020-06-30T13:25:42Z</time>
      </trkpt>
      <trkpt lat="48.73169" lon="4.56607">
        <ele>97.5</ele>
        <time>2020-06-30T13:25:43Z</time>
      </trkpt>
      <trkpt lat="48.73172" lon="4.56597">
        <ele>97.6</ele>
        <time>2020-06-30T13:25:44Z</time>
      </trkpt>
      <trkpt lat="48.73176" lon="4.56587">
        <ele>97.6</ele>
        <time>2020-06-30T13:25:45Z</time>
      </trkpt>
      <trkpt lat="48.73179" lon="4.56577">
        <ele>97.7</ele>
        <time>2020-06-30T13:25:46Z</time>
      </trkpt>
      <trkpt lat="48.73182" lon="4.56567">
        <ele>97.9</ele>
        <time>2020-06-30T13:25:47Z</time>
      </trkpt>
      <trkpt lat="48.73186" lon="4.56557">
        <ele>98</ele>
        <time>2020-06-30T13:25:48Z</time>
      </trkpt>
      <trkpt lat="48.73189" lon="4.56547">
        <ele>98.1</ele>
        <time>2020-06-30T13:25:49Z</time>
      </trkpt>
      <trkpt lat="48.73192" lon="4.56537">
        <ele>98.3</ele>
        <time>2020-06-30T13:25:50Z</time>
      </trkpt>
      <trkpt lat="48.73194" lon="4.56527">
        <ele>98.5</ele>
        <time>2020-06-30T13:25:51Z</time>
      </trkpt>
      <trkpt lat="48.73197" lon="4.56517">
        <ele>98.6</ele>
        <time>2020-06-30T13:25:52Z</time>
      </trkpt>
      <trkpt lat="48.73199" lon="4.56507">
        <ele>98.8</ele>
        <time>2020-06-30T13:25:53Z</time>
      </trkpt>
      <trkpt lat="48.73201" lon="4.56497">
        <ele>99</ele>
        <time>2020-06-30T13:25:54Z</time>
      </trkpt>
      <trkpt lat="48.73204" lon="4.56487">
        <ele>99.2</ele>
        <time>2020-06-30T13:25:55Z</time>
      </trkpt>
      <trkpt lat="48.73206" lon="4.56478">
        <ele>99.4</ele>
        <time>2020-06-30T13:25:56Z</time>
      </trkpt>
      <trkpt lat="48.73209" lon="4.5647">
        <ele>99.6</ele>
        <time>2020-06-30T13:25:57Z</time>
      </trkpt>
      <trkpt lat="48.73211" lon="4.5646">
        <ele>99.8</ele>
        <time>2020-06-30T13:25:58Z</time>
      </trkpt>
      <trkpt lat="48.73214" lon="4.56452">
        <ele>100</ele>
        <time>2020-06-30T13:25:59Z</time>
      </trkpt>
      <trkpt lat="48.73217" lon="4.56443">
        <ele>100.1</ele>
        <time>2020-06-30T13:26:00Z</time>
      </trkpt>
      <trkpt lat="48.73219" lon="4.56434">
        <ele>100.3</ele>
        <time>2020-06-30T13:26:01Z</time>
      </trkpt>
      <trkpt lat="48.73222" lon="4.56425">
        <ele>100.5</ele>
        <time>2020-06-30T13:26:02Z</time>
      </trkpt>
      <trkpt lat="48.73224" lon="4.56416">
        <ele>100.7</ele>
        <time>2020-06-30T13:26:03Z</time>
      </trkpt>
      <trkpt lat="48.73226" lon="4.56408">
        <ele>100.9</ele>
        <time>2020-06-30T13:26:04Z</time>
      </trkpt>
      <trkpt lat="48.73228" lon="4.564">
        <ele>101</ele>
        <time>2020-06-30T13:26:05Z</time>
      </trkpt>
      <trkpt lat="48.73231" lon="4.5639">
        <ele>101.2</ele>
        <time>2020-06-30T13:26:06Z</time>
      </trkpt>
      <trkpt lat="48.73234" lon="4.56381">
        <ele>101.4</ele>
        <time>2020-06-30T13:26:07Z</time>
      </trkpt>
      <trkpt lat="48.73237" lon="4.56374">
        <ele>101.5</ele>
        <time>2020-06-30T13:26:08Z</time>
      </trkpt>
      <trkpt lat="48.7324" lon="4.56366">
        <ele>101.6</ele>
        <time>2020-06-30T13:26:09Z</time>
      </trkpt>
      <trkpt lat="48.73242" lon="4.56358">
        <ele>101.8</ele>
        <time>2020-06-30T13:26:10Z</time>
      </trkpt>
      <trkpt lat="48.73244" lon="4.56349">
        <ele>102</ele>
        <time>2020-06-30T13:26:11Z</time>
      </trkpt>
      <trkpt lat="48.73246" lon="4.5634">
        <ele>102.1</ele>
        <time>2020-06-30T13:26:12Z</time>
      </trkpt>
      <trkpt lat="48.73249" lon="4.56332">
        <ele>102.3</ele>
        <time>2020-06-30T13:26:13Z</time>
      </trkpt>
      <trkpt lat="48.73252" lon="4.56323">
        <ele>102.5</ele>
        <time>2020-06-30T13:26:14Z</time>
      </trkpt>
      <trkpt lat="48.73254" lon="4.56318">
        <ele>102.6</ele>
        <time>2020-06-30T13:26:15Z</time>
      </trkpt>
      <trkpt lat="48.73257" lon="4.56309">
        <ele>102.8</ele>
        <time>2020-06-30T13:26:16Z</time>
      </trkpt>
      <trkpt lat="48.73259" lon="4.563">
        <ele>102.9</ele>
        <time>2020-06-30T13:26:17Z</time>
      </trkpt>
      <trkpt lat="48.73261" lon="4.56291">
        <ele>103.1</ele>
        <time>2020-06-30T13:26:18Z</time>
      </trkpt>
      <trkpt lat="48.73261" lon="4.56285">
        <ele>103.2</ele>
        <time>2020-06-30T13:26:19Z</time>
      </trkpt>
      <trkpt lat="48.73263" lon="4.56276">
        <ele>103.4</ele>
        <time>2020-06-30T13:26:20Z</time>
      </trkpt>
      <trkpt lat="48.73265" lon="4.56267">
        <ele>103.5</ele>
        <time>2020-06-30T13:26:21Z</time>
      </trkpt>
      <trkpt lat="48.73267" lon="4.5626">
        <ele>103.6</ele>
        <time>2020-06-30T13:26:22Z</time>
      </trkpt>
      <trkpt lat="48.7327" lon="4.56252">
        <ele>103.7</ele>
        <time>2020-06-30T13:26:23Z</time>
      </trkpt>
      <trkpt lat="48.73272" lon="4.56244">
        <ele>103.8</ele>
        <time>2020-06-30T13:26:24Z</time>
      </trkpt>
      <trkpt lat="48.73274" lon="4.56237">
        <ele>103.9</ele>
        <time>2020-06-30T13:26:25Z</time>
      </trkpt>
      <trkpt lat="48.73275" lon="4.5623">
        <ele>104</ele>
        <time>2020-06-30T13:26:26Z</time>
      </trkpt>
      <trkpt lat="48.73279" lon="4.56217">
        <ele>104.2</ele>
        <time>2020-06-30T13:26:27Z</time>
      </trkpt>
      <trkpt lat="48.73281" lon="4.56209">
        <ele>104.3</ele>
        <time>2020-06-30T13:26:28Z</time>
      </trkpt>
      <trkpt lat="48.73283" lon="4.56203">
        <ele>104.4</ele>
        <time>2020-06-30T13:26:29Z</time>
      </trkpt>
      <trkpt lat="48.73286" lon="4.56195">
        <ele>104.5</ele>
        <time>2020-06-30T13:26:30Z</time>
      </trkpt>
      <trkpt lat="48.73287" lon="4.56189">
        <ele>104.5</ele>
        <time>2020-06-30T13:26:31Z</time>
      </trkpt>
      <trkpt lat="48.7329" lon="4.5618">
        <ele>104.6</ele>
        <time>2020-06-30T13:26:32Z</time>
      </trkpt>
      <trkpt lat="48.73293" lon="4.56171">
        <ele>104.7</ele>
        <time>2020-06-30T13:26:33Z</time>
      </trkpt>
      <trkpt lat="48.73295" lon="4.56164">
        <ele>104.7</ele>
        <time>2020-06-30T13:26:34Z</time>
      </trkpt>
      <trkpt lat="48.73297" lon="4.56156">
        <ele>104.7</ele>
        <time>2020-06-30T13:26:35Z</time>
      </trkpt>
      <trkpt lat="48.73301" lon="4.56144">
        <ele>104.8</ele>
        <time>2020-06-30T13:26:36Z</time>
      </trkpt>
      <trkpt lat="48.73303" lon="4.56135">
        <ele>104.8</ele>
        <time>2020-06-30T13:26:37Z</time>
      </trkpt>
      <trkpt lat="48.73305" lon="4.56128">
        <ele>104.8</ele>
        <time>2020-06-30T13:26:38Z</time>
      </trkpt>
      <trkpt lat="48.73307" lon="4.5612">
        <ele>104.9</ele>
        <time>2020-06-30T13:26:39Z</time>
      </trkpt>
      <trkpt lat="48.73309" lon="4.56111">
        <ele>104.8</ele>
        <time>2020-06-30T13:26:40Z</time>
      </trkpt>
      <trkpt lat="48.73312" lon="4.56103">
        <ele>104.8</ele>
        <time>2020-06-30T13:26:41Z</time>
      </trkpt>
      <trkpt lat="48.73314" lon="4.56094">
        <ele>104.8</ele>
        <time>2020-06-30T13:26:42Z</time>
      </trkpt>
      <trkpt lat="48.73317" lon="4.56085">
        <ele>104.8</ele>
        <time>2020-06-30T13:26:43Z</time>
      </trkpt>
      <trkpt lat="48.73319" lon="4.56077">
        <ele>104.7</ele>
        <time>2020-06-30T13:26:44Z</time>
      </trkpt>
      <trkpt lat="48.7332" lon="4.56071">
        <ele>104.7</ele>
        <time>2020-06-30T13:26:45Z</time>
      </trkpt>
      <trkpt lat="48.73323" lon="4.56062">
        <ele>104.6</ele>
        <time>2020-06-30T13:26:46Z</time>
      </trkpt>
      <trkpt lat="48.73326" lon="4.56053">
        <ele>104.5</ele>
        <time>2020-06-30T13:26:47Z</time>
      </trkpt>
      <trkpt lat="48.73328" lon="4.56044">
        <ele>104.4</ele>
        <time>2020-06-30T13:26:48Z</time>
      </trkpt>
      <trkpt lat="48.7333" lon="4.56034">
        <ele>104.3</ele>
        <time>2020-06-30T13:26:49Z</time>
      </trkpt>
      <trkpt lat="48.73333" lon="4.56024">
        <ele>104.2</ele>
        <time>2020-06-30T13:26:50Z</time>
      </trkpt>
      <trkpt lat="48.73335" lon="4.56015">
        <ele>104.1</ele>
        <time>2020-06-30T13:26:51Z</time>
      </trkpt>
      <trkpt lat="48.73338" lon="4.56005">
        <ele>103.9</ele>
        <time>2020-06-30T13:26:52Z</time>
      </trkpt>
      <trkpt lat="48.73341" lon="4.55996">
        <ele>103.8</ele>
        <time>2020-06-30T13:26:53Z</time>
      </trkpt>
      <trkpt lat="48.73344" lon="4.55986">
        <ele>103.6</ele>
        <time>2020-06-30T13:26:54Z</time>
      </trkpt>
      <trkpt lat="48.73347" lon="4.55976">
        <ele>103.4</ele>
        <time>2020-06-30T13:26:55Z</time>
      </trkpt>
      <trkpt lat="48.73349" lon="4.55967">
        <ele>103.2</ele>
        <time>2020-06-30T13:26:56Z</time>
      </trkpt>
      <trkpt lat="48.73353" lon="4.55957">
        <ele>103</ele>
        <time>2020-06-30T13:26:57Z</time>
      </trkpt>
      <trkpt lat="48.73356" lon="4.55947">
        <ele>102.8</ele>
        <time>2020-06-30T13:26:58Z</time>
      </trkpt>
      <trkpt lat="48.7336" lon="4.55937">
        <ele>102.5</ele>
        <time>2020-06-30T13:26:59Z</time>
      </trkpt>
      <trkpt lat="48.73364" lon="4.55926">
        <ele>102.3</ele>
        <time>2020-06-30T13:27:00Z</time>
      </trkpt>
      <trkpt lat="48.73367" lon="4.55915">
        <ele>102.1</ele>
        <time>2020-06-30T13:27:01Z</time>
      </trkpt>
      <trkpt lat="48.7337" lon="4.55904">
        <ele>101.9</ele>
        <time>2020-06-30T13:27:02Z</time>
      </trkpt>
      <trkpt lat="48.73373" lon="4.55894">
        <ele>101.7</ele>
        <time>2020-06-30T13:27:03Z</time>
      </trkpt>
      <trkpt lat="48.73377" lon="4.55883">
        <ele>101.5</ele>
        <time>2020-06-30T13:27:04Z</time>
      </trkpt>
      <trkpt lat="48.73381" lon="4.55873">
        <ele>101.2</ele>
        <time>2020-06-30T13:27:05Z</time>
      </trkpt>
      <trkpt lat="48.73384" lon="4.55862">
        <ele>100.9</ele>
        <time>2020-06-30T13:27:06Z</time>
      </trkpt>
      <trkpt lat="48.73387" lon="4.55853">
        <ele>100.7</ele>
        <time>2020-06-30T13:27:07Z</time>
      </trkpt>
      <trkpt lat="48.7339" lon="4.55842">
        <ele>100.5</ele>
        <time>2020-06-30T13:27:08Z</time>
      </trkpt>
      <trkpt lat="48.73392" lon="4.55831">
        <ele>100.3</ele>
        <time>2020-06-30T13:27:09Z</time>
      </trkpt>
      <trkpt lat="48.73395" lon="4.5582">
        <ele>100.1</ele>
        <time>2020-06-30T13:27:10Z</time>
      </trkpt>
      <trkpt lat="48.73398" lon="4.55809">
        <ele>99.9</ele>
        <time>2020-06-30T13:27:11Z</time>
      </trkpt>
      <trkpt lat="48.73401" lon="4.55799">
        <ele>99.6</ele>
        <time>2020-06-30T13:27:12Z</time>
      </trkpt>
      <trkpt lat="48.73404" lon="4.55788">
        <ele>99.4</ele>
        <time>2020-06-30T13:27:13Z</time>
      </trkpt>
      <trkpt lat="48.73407" lon="4.55778">
        <ele>99.2</ele>
        <time>2020-06-30T13:27:14Z</time>
      </trkpt>
      <trkpt lat="48.7341" lon="4.55767">
        <ele>99</ele>
        <time>2020-06-30T13:27:15Z</time>
      </trkpt>
      <trkpt lat="48.73413" lon="4.55757">
        <ele>98.7</ele>
        <time>2020-06-30T13:27:16Z</time>
      </trkpt>
      <trkpt lat="48.73416" lon="4.55747">
        <ele>98.5</ele>
        <time>2020-06-30T13:27:17Z</time>
      </trkpt>
      <trkpt lat="48.73419" lon="4.55736">
        <ele>98.3</ele>
        <time>2020-06-30T13:27:18Z</time>
      </trkpt>
      <trkpt lat="48.73422" lon="4.55726">
        <ele>98.1</ele>
        <time>2020-06-30T13:27:19Z</time>
      </trkpt>
      <trkpt lat="48.73425" lon="4.55716">
        <ele>97.8</ele>
        <time>2020-06-30T13:27:20Z</time>
      </trkpt>
      <trkpt lat="48.73429" lon="4.55707">
        <ele>97.6</ele>
        <time>2020-06-30T13:27:21Z</time>
      </trkpt>
      <trkpt lat="48.73433" lon="4.55698">
        <ele>97.4</ele>
        <time>2020-06-30T13:27:22Z</time>
      </trkpt>
      <trkpt lat="48.73436" lon="4.55688">
        <ele>97.2</ele>
        <time>2020-06-30T13:27:23Z</time>
      </trkpt>
      <trkpt lat="48.73439" lon="4.55678">
        <ele>97.1</ele>
        <time>2020-06-30T13:27:24Z</time>
      </trkpt>
      <trkpt lat="48.73442" lon="4.55668">
        <ele>97</ele>
        <time>2020-06-30T13:27:25Z</time>
      </trkpt>
      <trkpt lat="48.73445" lon="4.55658">
        <ele>96.8</ele>
        <time>2020-06-30T13:27:26Z</time>
      </trkpt>
      <trkpt lat="48.73449" lon="4.55649">
        <ele>96.7</ele>
        <time>2020-06-30T13:27:27Z</time>
      </trkpt>
      <trkpt lat="48.73453" lon="4.5564">
        <ele>96.6</ele>
        <time>2020-06-30T13:27:28Z</time>
      </trkpt>
      <trkpt lat="48.73458" lon="4.55631">
        <ele>96.5</ele>
        <time>2020-06-30T13:27:29Z</time>
      </trkpt>
      <trkpt lat="48.73464" lon="4.55625">
        <ele>96.5</ele>
        <time>2020-06-30T13:27:30Z</time>
      </trkpt>
      <trkpt lat="48.7347" lon="4.55619">
        <ele>96.4</ele>
        <time>2020-06-30T13:27:31Z</time>
      </trkpt>
      <trkpt lat="48.73476" lon="4.55614">
        <ele>96.3</ele>
        <time>2020-06-30T13:27:32Z</time>
      </trkpt>
      <trkpt lat="48.73483" lon="4.5561">
        <ele>96.2</ele>
        <time>2020-06-30T13:27:33Z</time>
      </trkpt>
      <trkpt lat="48.73488" lon="4.55602">
        <ele>96.1</ele>
        <time>2020-06-30T13:27:34Z</time>
      </trkpt>
      <trkpt lat="48.73494" lon="4.55597">
        <ele>96</ele>
        <time>2020-06-30T13:27:35Z</time>
      </trkpt>
      <trkpt lat="48.73501" lon="4.55593">
        <ele>95.8</ele>
        <time>2020-06-30T13:27:36Z</time>
      </trkpt>
      <trkpt lat="48.73507" lon="4.55592">
        <ele>95.7</ele>
        <time>2020-06-30T13:27:37Z</time>
      </trkpt>
      <trkpt lat="48.73514" lon="4.55594">
        <ele>95.6</ele>
        <time>2020-06-30T13:27:38Z</time>
      </trkpt>
      <trkpt lat="48.7352" lon="4.55595">
        <ele>95.5</ele>
        <time>2020-06-30T13:27:39Z</time>
      </trkpt>
      <trkpt lat="48.73526" lon="4.55597">
        <ele>95.4</ele>
        <time>2020-06-30T13:27:40Z</time>
      </trkpt>
      <trkpt lat="48.73533" lon="4.55598">
        <ele>95.3</ele>
        <time>2020-06-30T13:27:41Z</time>
      </trkpt>
      <trkpt lat="48.73539" lon="4.55598">
        <ele>95.3</ele>
        <time>2020-06-30T13:27:42Z</time>
      </trkpt>
      <trkpt lat="48.73544" lon="4.55597">
        <ele>95.3</ele>
        <time>2020-06-30T13:27:43Z</time>
      </trkpt>
      <trkpt lat="48.73549" lon="4.55598">
        <ele>95.3</ele>
        <time>2020-06-30T13:27:44Z</time>
      </trkpt>
      <trkpt lat="48.73553" lon="4.55598">
        <ele>95.2</ele>
        <time>2020-06-30T13:27:45Z</time>
      </trkpt>
      <trkpt lat="48.73557" lon="4.55597">
        <ele>95.2</ele>
        <time>2020-06-30T13:27:46Z</time>
      </trkpt>
      <trkpt lat="48.73561" lon="4.55598">
        <ele>95.2</ele>
        <time>2020-06-30T13:27:47Z</time>
      </trkpt>
      <trkpt lat="48.73566" lon="4.55596">
        <ele>95.2</ele>
        <time>2020-06-30T13:27:48Z</time>
      </trkpt>
      <trkpt lat="48.73572" lon="4.55594">
        <ele>95.2</ele>
        <time>2020-06-30T13:27:49Z</time>
      </trkpt>
      <trkpt lat="48.73578" lon="4.55591">
        <ele>95.1</ele>
        <time>2020-06-30T13:27:50Z</time>
      </trkpt>
      <trkpt lat="48.73585" lon="4.5559">
        <ele>95.1</ele>
        <time>2020-06-30T13:27:51Z</time>
      </trkpt>
      <trkpt lat="48.73591" lon="4.55587">
        <ele>95</ele>
        <time>2020-06-30T13:27:52Z</time>
      </trkpt>
      <trkpt lat="48.73598" lon="4.55584">
        <ele>95</ele>
        <time>2020-06-30T13:27:53Z</time>
      </trkpt>
      <trkpt lat="48.73604" lon="4.55581">
        <ele>95</ele>
        <time>2020-06-30T13:27:54Z</time>
      </trkpt>
      <trkpt lat="48.7361" lon="4.55578">
        <ele>95</ele>
        <time>2020-06-30T13:27:55Z</time>
      </trkpt>
      <trkpt lat="48.73617" lon="4.55575">
        <ele>95</ele>
        <time>2020-06-30T13:27:56Z</time>
      </trkpt>
      <trkpt lat="48.73623" lon="4.55571">
        <ele>95</ele>
        <time>2020-06-30T13:27:57Z</time>
      </trkpt>
      <trkpt lat="48.7363" lon="4.55568">
        <ele>95</ele>
        <time>2020-06-30T13:27:58Z</time>
      </trkpt>
      <trkpt lat="48.73636" lon="4.55566">
        <ele>95</ele>
        <time>2020-06-30T13:27:59Z</time>
      </trkpt>
      <trkpt lat="48.73642" lon="4.55564">
        <ele>95</ele>
        <time>2020-06-30T13:28:00Z</time>
      </trkpt>
      <trkpt lat="48.73649" lon="4.55561">
        <ele>95.1</ele>
        <time>2020-06-30T13:28:01Z</time>
      </trkpt>
      <trkpt lat="48.73655" lon="4.55558">
        <ele>95.1</ele>
        <time>2020-06-30T13:28:02Z</time>
      </trkpt>
      <trkpt lat="48.73662" lon="4.55555">
        <ele>95.1</ele>
        <time>2020-06-30T13:28:03Z</time>
      </trkpt>
      <trkpt lat="48.73669" lon="4.55551">
        <ele>95.1</ele>
        <time>2020-06-30T13:28:04Z</time>
      </trkpt>
      <trkpt lat="48.73676" lon="4.55549">
        <ele>95.1</ele>
        <time>2020-06-30T13:28:05Z</time>
      </trkpt>
      <trkpt lat="48.73682" lon="4.55546">
        <ele>95.1</ele>
        <time>2020-06-30T13:28:06Z</time>
      </trkpt>
      <trkpt lat="48.73689" lon="4.55544">
        <ele>95.1</ele>
        <time>2020-06-30T13:28:07Z</time>
      </trkpt>
      <trkpt lat="48.73696" lon="4.55541">
        <ele>95.2</ele>
        <time>2020-06-30T13:28:08Z</time>
      </trkpt>
      <trkpt lat="48.73702" lon="4.55538">
        <ele>95.2</ele>
        <time>2020-06-30T13:28:09Z</time>
      </trkpt>
      <trkpt lat="48.73709" lon="4.55535">
        <ele>95.2</ele>
        <time>2020-06-30T13:28:10Z</time>
      </trkpt>
      <trkpt lat="48.73715" lon="4.55533">
        <ele>95.3</ele>
        <time>2020-06-30T13:28:11Z</time>
      </trkpt>
      <trkpt lat="48.73721" lon="4.5553">
        <ele>95.3</ele>
        <time>2020-06-30T13:28:12Z</time>
      </trkpt>
      <trkpt lat="48.73728" lon="4.55527">
        <ele>95.3</ele>
        <time>2020-06-30T13:28:13Z</time>
      </trkpt>
      <trkpt lat="48.73734" lon="4.55524">
        <ele>95.3</ele>
        <time>2020-06-30T13:28:14Z</time>
      </trkpt>
      <trkpt lat="48.7374" lon="4.55521">
        <ele>95.3</ele>
        <time>2020-06-30T13:28:15Z</time>
      </trkpt>
      <trkpt lat="48.73747" lon="4.55518">
        <ele>95.3</ele>
        <time>2020-06-30T13:28:16Z</time>
      </trkpt>
      <trkpt lat="48.73753" lon="4.55515">
        <ele>95.3</ele>
        <time>2020-06-30T13:28:17Z</time>
      </trkpt>
      <trkpt lat="48.7376" lon="4.55514">
        <ele>95.3</ele>
        <time>2020-06-30T13:28:18Z</time>
      </trkpt>
      <trkpt lat="48.73766" lon="4.55512">
        <ele>95.4</ele>
        <time>2020-06-30T13:28:19Z</time>
      </trkpt>
      <trkpt lat="48.73772" lon="4.55511">
        <ele>95.4</ele>
        <time>2020-06-30T13:28:20Z</time>
      </trkpt>
      <trkpt lat="48.73778" lon="4.55507">
        <ele>95.4</ele>
        <time>2020-06-30T13:28:21Z</time>
      </trkpt>
      <trkpt lat="48.73784" lon="4.55505">
        <ele>95.4</ele>
        <time>2020-06-30T13:28:22Z</time>
      </trkpt>
      <trkpt lat="48.73791" lon="4.55502">
        <ele>95.4</ele>
        <time>2020-06-30T13:28:23Z</time>
      </trkpt>
      <trkpt lat="48.73797" lon="4.55498">
        <ele>95.4</ele>
        <time>2020-06-30T13:28:24Z</time>
      </trkpt>
      <trkpt lat="48.73805" lon="4.55495">
        <ele>95.4</ele>
        <time>2020-06-30T13:28:25Z</time>
      </trkpt>
      <trkpt lat="48.73814" lon="4.55493">
        <ele>95.3</ele>
        <time>2020-06-30T13:28:26Z</time>
      </trkpt>
      <trkpt lat="48.73822" lon="4.55491">
        <ele>95.3</ele>
        <time>2020-06-30T13:28:27Z</time>
      </trkpt>
      <trkpt lat="48.7383" lon="4.55488">
        <ele>95.3</ele>
        <time>2020-06-30T13:28:28Z</time>
      </trkpt>
      <trkpt lat="48.73837" lon="4.55486">
        <ele>95.3</ele>
        <time>2020-06-30T13:28:29Z</time>
      </trkpt>
      <trkpt lat="48.73844" lon="4.55483">
        <ele>95.3</ele>
        <time>2020-06-30T13:28:30Z</time>
      </trkpt>
      <trkpt lat="48.73851" lon="4.55481">
        <ele>95.3</ele>
        <time>2020-06-30T13:28:31Z</time>
      </trkpt>
      <trkpt lat="48.73858" lon="4.55477">
        <ele>95.3</ele>
        <time>2020-06-30T13:28:32Z</time>
      </trkpt>
      <trkpt lat="48.73865" lon="4.55473">
        <ele>95.3</ele>
        <time>2020-06-30T13:28:33Z</time>
      </trkpt>
      <trkpt lat="48.73872" lon="4.55471">
        <ele>95.3</ele>
        <time>2020-06-30T13:28:34Z</time>
      </trkpt>
      <trkpt lat="48.73879" lon="4.55468">
        <ele>95.3</ele>
        <time>2020-06-30T13:28:35Z</time>
      </trkpt>
      <trkpt lat="48.73885" lon="4.55465">
        <ele>95.3</ele>
        <time>2020-06-30T13:28:36Z</time>
      </trkpt>
      <trkpt lat="48.73892" lon="4.55463">
        <ele>95.3</ele>
        <time>2020-06-30T13:28:37Z</time>
      </trkpt>
      <trkpt lat="48.73899" lon="4.5546">
        <ele>95.3</ele>
        <time>2020-06-30T13:28:38Z</time>
      </trkpt>
      <trkpt lat="48.73906" lon="4.55457">
        <ele>95.3</ele>
        <time>2020-06-30T13:28:39Z</time>
      </trkpt>
      <trkpt lat="48.73913" lon="4.55454">
        <ele>95.3</ele>
        <time>2020-06-30T13:28:40Z</time>
      </trkpt>
      <trkpt lat="48.7392" lon="4.55451">
        <ele>95.3</ele>
        <time>2020-06-30T13:28:41Z</time>
      </trkpt>
      <trkpt lat="48.73927" lon="4.55447">
        <ele>95.3</ele>
        <time>2020-06-30T13:28:42Z</time>
      </trkpt>
      <trkpt lat="48.73934" lon="4.55444">
        <ele>95.3</ele>
        <time>2020-06-30T13:28:43Z</time>
      </trkpt>
      <trkpt lat="48.7394" lon="4.55442">
        <ele>95.4</ele>
        <time>2020-06-30T13:28:44Z</time>
      </trkpt>
      <trkpt lat="48.73946" lon="4.55439">
        <ele>95.4</ele>
        <time>2020-06-30T13:28:45Z</time>
      </trkpt>
      <trkpt lat="48.73953" lon="4.55436">
        <ele>95.4</ele>
        <time>2020-06-30T13:28:46Z</time>
      </trkpt>
      <trkpt lat="48.73959" lon="4.55434">
        <ele>95.4</ele>
        <time>2020-06-30T13:28:47Z</time>
      </trkpt>
      <trkpt lat="48.73965" lon="4.55432">
        <ele>95.4</ele>
        <time>2020-06-30T13:28:48Z</time>
      </trkpt>
      <trkpt lat="48.73971" lon="4.55429">
        <ele>95.5</ele>
        <time>2020-06-30T13:28:49Z</time>
      </trkpt>
      <trkpt lat="48.73978" lon="4.55427">
        <ele>95.5</ele>
        <time>2020-06-30T13:28:50Z</time>
      </trkpt>
      <trkpt lat="48.73984" lon="4.55424">
        <ele>95.5</ele>
        <time>2020-06-30T13:28:51Z</time>
      </trkpt>
      <trkpt lat="48.73991" lon="4.55421">
        <ele>95.5</ele>
        <time>2020-06-30T13:28:52Z</time>
      </trkpt>
      <trkpt lat="48.73998" lon="4.55418">
        <ele>95.5</ele>
        <time>2020-06-30T13:28:53Z</time>
      </trkpt>
      <trkpt lat="48.74004" lon="4.55415">
        <ele>95.5</ele>
        <time>2020-06-30T13:28:54Z</time>
      </trkpt>
      <trkpt lat="48.74011" lon="4.55412">
        <ele>95.5</ele>
        <time>2020-06-30T13:28:55Z</time>
      </trkpt>
      <trkpt lat="48.74018" lon="4.55409">
        <ele>95.5</ele>
        <time>2020-06-30T13:28:56Z</time>
      </trkpt>
      <trkpt lat="48.74024" lon="4.55406">
        <ele>95.5</ele>
        <time>2020-06-30T13:28:57Z</time>
      </trkpt>
      <trkpt lat="48.74031" lon="4.55403">
        <ele>95.5</ele>
        <time>2020-06-30T13:28:58Z</time>
      </trkpt>
      <trkpt lat="48.74037" lon="4.55401">
        <ele>95.5</ele>
        <time>2020-06-30T13:28:59Z</time>
      </trkpt>
      <trkpt lat="48.74044" lon="4.55397">
        <ele>95.5</ele>
        <time>2020-06-30T13:29:00Z</time>
      </trkpt>
      <trkpt lat="48.7405" lon="4.55395">
        <ele>95.4</ele>
        <time>2020-06-30T13:29:01Z</time>
      </trkpt>
      <trkpt lat="48.74057" lon="4.55392">
        <ele>95.4</ele>
        <time>2020-06-30T13:29:02Z</time>
      </trkpt>
      <trkpt lat="48.74064" lon="4.55389">
        <ele>95.4</ele>
        <time>2020-06-30T13:29:03Z</time>
      </trkpt>
      <trkpt lat="48.74071" lon="4.55386">
        <ele>95.4</ele>
        <time>2020-06-30T13:29:04Z</time>
      </trkpt>
      <trkpt lat="48.74078" lon="4.55382">
        <ele>95.4</ele>
        <time>2020-06-30T13:29:05Z</time>
      </trkpt>
      <trkpt lat="48.74085" lon="4.5538">
        <ele>95.4</ele>
        <time>2020-06-30T13:29:06Z</time>
      </trkpt>
      <trkpt lat="48.74092" lon="4.55376">
        <ele>95.4</ele>
        <time>2020-06-30T13:29:07Z</time>
      </trkpt>
      <trkpt lat="48.74099" lon="4.55374">
        <ele>95.3</ele>
        <time>2020-06-30T13:29:08Z</time>
      </trkpt>
      <trkpt lat="48.74106" lon="4.55371">
        <ele>95.3</ele>
        <time>2020-06-30T13:29:09Z</time>
      </trkpt>
      <trkpt lat="48.74112" lon="4.55368">
        <ele>95.3</ele>
        <time>2020-06-30T13:29:10Z</time>
      </trkpt>
      <trkpt lat="48.74119" lon="4.55365">
        <ele>95.3</ele>
        <time>2020-06-30T13:29:11Z</time>
      </trkpt>
      <trkpt lat="48.74126" lon="4.55363">
        <ele>95.3</ele>
        <time>2020-06-30T13:29:12Z</time>
      </trkpt>
      <trkpt lat="48.74133" lon="4.5536">
        <ele>95.2</ele>
        <time>2020-06-30T13:29:13Z</time>
      </trkpt>
      <trkpt lat="48.7414" lon="4.55357">
        <ele>95.2</ele>
        <time>2020-06-30T13:29:14Z</time>
      </trkpt>
      <trkpt lat="48.74147" lon="4.55354">
        <ele>95.2</ele>
        <time>2020-06-30T13:29:15Z</time>
      </trkpt>
      <trkpt lat="48.74154" lon="4.55351">
        <ele>95.2</ele>
        <time>2020-06-30T13:29:16Z</time>
      </trkpt>
      <trkpt lat="48.74161" lon="4.55348">
        <ele>95.2</ele>
        <time>2020-06-30T13:29:17Z</time>
      </trkpt>
      <trkpt lat="48.74168" lon="4.55345">
        <ele>95.2</ele>
        <time>2020-06-30T13:29:18Z</time>
      </trkpt>
      <trkpt lat="48.74175" lon="4.55341">
        <ele>95.2</ele>
        <time>2020-06-30T13:29:19Z</time>
      </trkpt>
      <trkpt lat="48.74181" lon="4.55337">
        <ele>95.1</ele>
        <time>2020-06-30T13:29:20Z</time>
      </trkpt>
      <trkpt lat="48.74188" lon="4.55334">
        <ele>95.1</ele>
        <time>2020-06-30T13:29:21Z</time>
      </trkpt>
      <trkpt lat="48.74195" lon="4.55331">
        <ele>95.1</ele>
        <time>2020-06-30T13:29:22Z</time>
      </trkpt>
      <trkpt lat="48.74201" lon="4.55328">
        <ele>95.1</ele>
        <time>2020-06-30T13:29:23Z</time>
      </trkpt>
      <trkpt lat="48.74208" lon="4.55325">
        <ele>95.2</ele>
        <time>2020-06-30T13:29:24Z</time>
      </trkpt>
      <trkpt lat="48.74215" lon="4.55322">
        <ele>95.2</ele>
        <time>2020-06-30T13:29:25Z</time>
      </trkpt>
      <trkpt lat="48.74221" lon="4.55318">
        <ele>95.2</ele>
        <time>2020-06-30T13:29:26Z</time>
      </trkpt>
      <trkpt lat="48.74227" lon="4.55315">
        <ele>95.2</ele>
        <time>2020-06-30T13:29:27Z</time>
      </trkpt>
      <trkpt lat="48.74234" lon="4.55311">
        <ele>95.2</ele>
        <time>2020-06-30T13:29:28Z</time>
      </trkpt>
      <trkpt lat="48.7424" lon="4.55309">
        <ele>95.2</ele>
        <time>2020-06-30T13:29:29Z</time>
      </trkpt>
      <trkpt lat="48.74247" lon="4.55306">
        <ele>95.2</ele>
        <time>2020-06-30T13:29:30Z</time>
      </trkpt>
      <trkpt lat="48.74253" lon="4.55303">
        <ele>95.3</ele>
        <time>2020-06-30T13:29:31Z</time>
      </trkpt>
      <trkpt lat="48.7426" lon="4.553">
        <ele>95.3</ele>
        <time>2020-06-30T13:29:32Z</time>
      </trkpt>
      <trkpt lat="48.74267" lon="4.55297">
        <ele>95.3</ele>
        <time>2020-06-30T13:29:33Z</time>
      </trkpt>
      <trkpt lat="48.74273" lon="4.55293">
        <ele>95.3</ele>
        <time>2020-06-30T13:29:34Z</time>
      </trkpt>
      <trkpt lat="48.7428" lon="4.5529">
        <ele>95.4</ele>
        <time>2020-06-30T13:29:35Z</time>
      </trkpt>
      <trkpt lat="48.74287" lon="4.55286">
        <ele>95.4</ele>
        <time>2020-06-30T13:29:36Z</time>
      </trkpt>
      <trkpt lat="48.74294" lon="4.55282">
        <ele>95.4</ele>
        <time>2020-06-30T13:29:37Z</time>
      </trkpt>
      <trkpt lat="48.743" lon="4.55278">
        <ele>95.5</ele>
        <time>2020-06-30T13:29:38Z</time>
      </trkpt>
      <trkpt lat="48.74307" lon="4.55274">
        <ele>95.5</ele>
        <time>2020-06-30T13:29:39Z</time>
      </trkpt>
      <trkpt lat="48.74314" lon="4.55271">
        <ele>95.5</ele>
        <time>2020-06-30T13:29:40Z</time>
      </trkpt>
      <trkpt lat="48.7432" lon="4.55268">
        <ele>95.5</ele>
        <time>2020-06-30T13:29:41Z</time>
      </trkpt>
      <trkpt lat="48.74326" lon="4.55264">
        <ele>95.5</ele>
        <time>2020-06-30T13:29:42Z</time>
      </trkpt>
      <trkpt lat="48.74332" lon="4.5526">
        <ele>95.6</ele>
        <time>2020-06-30T13:29:43Z</time>
      </trkpt>
      <trkpt lat="48.74338" lon="4.55256">
        <ele>95.6</ele>
        <time>2020-06-30T13:29:44Z</time>
      </trkpt>
      <trkpt lat="48.74344" lon="4.55252">
        <ele>95.7</ele>
        <time>2020-06-30T13:29:45Z</time>
      </trkpt>
      <trkpt lat="48.7435" lon="4.55248">
        <ele>95.7</ele>
        <time>2020-06-30T13:29:46Z</time>
      </trkpt>
      <trkpt lat="48.74356" lon="4.55244">
        <ele>95.8</ele>
        <time>2020-06-30T13:29:47Z</time>
      </trkpt>
      <trkpt lat="48.74363" lon="4.55241">
        <ele>95.8</ele>
        <time>2020-06-30T13:29:48Z</time>
      </trkpt>
      <trkpt lat="48.74369" lon="4.55238">
        <ele>95.7</ele>
        <time>2020-06-30T13:29:49Z</time>
      </trkpt>
      <trkpt lat="48.74375" lon="4.55235">
        <ele>95.7</ele>
        <time>2020-06-30T13:29:50Z</time>
      </trkpt>
      <trkpt lat="48.74381" lon="4.5523">
        <ele>95.7</ele>
        <time>2020-06-30T13:29:51Z</time>
      </trkpt>
      <trkpt lat="48.74387" lon="4.55226">
        <ele>95.7</ele>
        <time>2020-06-30T13:29:52Z</time>
      </trkpt>
      <trkpt lat="48.74392" lon="4.55221">
        <ele>95.7</ele>
        <time>2020-06-30T13:29:53Z</time>
      </trkpt>
      <trkpt lat="48.74397" lon="4.55217">
        <ele>95.6</ele>
        <time>2020-06-30T13:29:54Z</time>
      </trkpt>
      <trkpt lat="48.74403" lon="4.55213">
        <ele>95.6</ele>
        <time>2020-06-30T13:29:55Z</time>
      </trkpt>
      <trkpt lat="48.74408" lon="4.55209">
        <ele>95.5</ele>
        <time>2020-06-30T13:29:56Z</time>
      </trkpt>
      <trkpt lat="48.74413" lon="4.55205">
        <ele>95.5</ele>
        <time>2020-06-30T13:29:57Z</time>
      </trkpt>
      <trkpt lat="48.74418" lon="4.552">
        <ele>95.4</ele>
        <time>2020-06-30T13:29:58Z</time>
      </trkpt>
      <trkpt lat="48.74424" lon="4.55198">
        <ele>95.4</ele>
        <time>2020-06-30T13:29:59Z</time>
      </trkpt>
      <trkpt lat="48.74429" lon="4.55192">
        <ele>95.4</ele>
        <time>2020-06-30T13:30:00Z</time>
      </trkpt>
      <trkpt lat="48.74434" lon="4.55186">
        <ele>95.4</ele>
        <time>2020-06-30T13:30:01Z</time>
      </trkpt>
      <trkpt lat="48.74439" lon="4.55182">
        <ele>95.5</ele>
        <time>2020-06-30T13:30:02Z</time>
      </trkpt>
      <trkpt lat="48.74445" lon="4.55177">
        <ele>95.5</ele>
        <time>2020-06-30T13:30:03Z</time>
      </trkpt>
      <trkpt lat="48.74451" lon="4.55173">
        <ele>95.5</ele>
        <time>2020-06-30T13:30:04Z</time>
      </trkpt>
      <trkpt lat="48.74457" lon="4.55169">
        <ele>95.5</ele>
        <time>2020-06-30T13:30:05Z</time>
      </trkpt>
      <trkpt lat="48.74463" lon="4.55164">
        <ele>95.4</ele>
        <time>2020-06-30T13:30:06Z</time>
      </trkpt>
      <trkpt lat="48.74469" lon="4.5516">
        <ele>95.4</ele>
        <time>2020-06-30T13:30:07Z</time>
      </trkpt>
      <trkpt lat="48.74475" lon="4.55156">
        <ele>95.4</ele>
        <time>2020-06-30T13:30:08Z</time>
      </trkpt>
      <trkpt lat="48.74481" lon="4.55151">
        <ele>95.3</ele>
        <time>2020-06-30T13:30:09Z</time>
      </trkpt>
      <trkpt lat="48.74487" lon="4.55146">
        <ele>95.3</ele>
        <time>2020-06-30T13:30:10Z</time>
      </trkpt>
      <trkpt lat="48.74493" lon="4.55141">
        <ele>95.3</ele>
        <time>2020-06-30T13:30:11Z</time>
      </trkpt>
      <trkpt lat="48.74499" lon="4.55137">
        <ele>95.3</ele>
        <time>2020-06-30T13:30:12Z</time>
      </trkpt>
      <trkpt lat="48.74504" lon="4.55132">
        <ele>95.2</ele>
        <time>2020-06-30T13:30:13Z</time>
      </trkpt>
      <trkpt lat="48.74509" lon="4.55126">
        <ele>95.2</ele>
        <time>2020-06-30T13:30:14Z</time>
      </trkpt>
      <trkpt lat="48.74514" lon="4.55122">
        <ele>95.2</ele>
        <time>2020-06-30T13:30:15Z</time>
      </trkpt>
      <trkpt lat="48.74519" lon="4.55118">
        <ele>95.2</ele>
        <time>2020-06-30T13:30:16Z</time>
      </trkpt>
      <trkpt lat="48.74525" lon="4.55112">
        <ele>95.2</ele>
        <time>2020-06-30T13:30:17Z</time>
      </trkpt>
      <trkpt lat="48.7453" lon="4.55109">
        <ele>95.1</ele>
        <time>2020-06-30T13:30:18Z</time>
      </trkpt>
      <trkpt lat="48.74535" lon="4.55105">
        <ele>95.1</ele>
        <time>2020-06-30T13:30:19Z</time>
      </trkpt>
      <trkpt lat="48.74541" lon="4.55102">
        <ele>95.1</ele>
        <time>2020-06-30T13:30:20Z</time>
      </trkpt>
      <trkpt lat="48.74547" lon="4.55098">
        <ele>95.1</ele>
        <time>2020-06-30T13:30:21Z</time>
      </trkpt>
      <trkpt lat="48.74553" lon="4.55094">
        <ele>95</ele>
        <time>2020-06-30T13:30:22Z</time>
      </trkpt>
      <trkpt lat="48.74559" lon="4.55089">
        <ele>95</ele>
        <time>2020-06-30T13:30:23Z</time>
      </trkpt>
      <trkpt lat="48.74566" lon="4.55083">
        <ele>94.9</ele>
        <time>2020-06-30T13:30:24Z</time>
      </trkpt>
      <trkpt lat="48.74573" lon="4.55077">
        <ele>94.9</ele>
        <time>2020-06-30T13:30:25Z</time>
      </trkpt>
      <trkpt lat="48.7458" lon="4.55072">
        <ele>94.8</ele>
        <time>2020-06-30T13:30:26Z</time>
      </trkpt>
      <trkpt lat="48.74586" lon="4.55067">
        <ele>94.8</ele>
        <time>2020-06-30T13:30:27Z</time>
      </trkpt>
      <trkpt lat="48.74593" lon="4.55061">
        <ele>94.8</ele>
        <time>2020-06-30T13:30:28Z</time>
      </trkpt>
      <trkpt lat="48.746" lon="4.55055">
        <ele>94.7</ele>
        <time>2020-06-30T13:30:29Z</time>
      </trkpt>
      <trkpt lat="48.74607" lon="4.5505">
        <ele>94.7</ele>
        <time>2020-06-30T13:30:30Z</time>
      </trkpt>
      <trkpt lat="48.74613" lon="4.55044">
        <ele>94.7</ele>
        <time>2020-06-30T13:30:31Z</time>
      </trkpt>
      <trkpt lat="48.7462" lon="4.55038">
        <ele>94.7</ele>
        <time>2020-06-30T13:30:32Z</time>
      </trkpt>
      <trkpt lat="48.74627" lon="4.55033">
        <ele>94.7</ele>
        <time>2020-06-30T13:30:33Z</time>
      </trkpt>
      <trkpt lat="48.74634" lon="4.55028">
        <ele>94.7</ele>
        <time>2020-06-30T13:30:34Z</time>
      </trkpt>
      <trkpt lat="48.7464" lon="4.55022">
        <ele>94.6</ele>
        <time>2020-06-30T13:30:35Z</time>
      </trkpt>
      <trkpt lat="48.74648" lon="4.55017">
        <ele>94.6</ele>
        <time>2020-06-30T13:30:36Z</time>
      </trkpt>
      <trkpt lat="48.74654" lon="4.55011">
        <ele>94.5</ele>
        <time>2020-06-30T13:30:37Z</time>
      </trkpt>
      <trkpt lat="48.74662" lon="4.55006">
        <ele>94.5</ele>
        <time>2020-06-30T13:30:38Z</time>
      </trkpt>
      <trkpt lat="48.74668" lon="4.55">
        <ele>94.5</ele>
        <time>2020-06-30T13:30:39Z</time>
      </trkpt>
      <trkpt lat="48.74675" lon="4.54994">
        <ele>94.5</ele>
        <time>2020-06-30T13:30:40Z</time>
      </trkpt>
      <trkpt lat="48.74682" lon="4.54988">
        <ele>94.6</ele>
        <time>2020-06-30T13:30:41Z</time>
      </trkpt>
      <trkpt lat="48.74689" lon="4.54983">
        <ele>94.6</ele>
        <time>2020-06-30T13:30:42Z</time>
      </trkpt>
      <trkpt lat="48.74696" lon="4.54978">
        <ele>94.7</ele>
        <time>2020-06-30T13:30:43Z</time>
      </trkpt>
      <trkpt lat="48.74702" lon="4.54972">
        <ele>94.7</ele>
        <time>2020-06-30T13:30:44Z</time>
      </trkpt>
      <trkpt lat="48.74709" lon="4.54966">
        <ele>94.8</ele>
        <time>2020-06-30T13:30:45Z</time>
      </trkpt>
      <trkpt lat="48.74715" lon="4.54961">
        <ele>94.8</ele>
        <time>2020-06-30T13:30:46Z</time>
      </trkpt>
      <trkpt lat="48.74722" lon="4.54956">
        <ele>94.9</ele>
        <time>2020-06-30T13:30:47Z</time>
      </trkpt>
      <trkpt lat="48.74728" lon="4.54951">
        <ele>94.9</ele>
        <time>2020-06-30T13:30:48Z</time>
      </trkpt>
      <trkpt lat="48.74734" lon="4.54946">
        <ele>94.9</ele>
        <time>2020-06-30T13:30:49Z</time>
      </trkpt>
      <trkpt lat="48.74741" lon="4.54942">
        <ele>95</ele>
        <time>2020-06-30T13:30:50Z</time>
      </trkpt>
      <trkpt lat="48.74748" lon="4.54937">
        <ele>95</ele>
        <time>2020-06-30T13:30:51Z</time>
      </trkpt>
      <trkpt lat="48.74754" lon="4.54931">
        <ele>95.1</ele>
        <time>2020-06-30T13:30:52Z</time>
      </trkpt>
      <trkpt lat="48.74761" lon="4.54925">
        <ele>95.1</ele>
        <time>2020-06-30T13:30:53Z</time>
      </trkpt>
      <trkpt lat="48.74767" lon="4.54919">
        <ele>95.2</ele>
        <time>2020-06-30T13:30:54Z</time>
      </trkpt>
      <trkpt lat="48.74774" lon="4.54914">
        <ele>95.2</ele>
        <time>2020-06-30T13:30:55Z</time>
      </trkpt>
      <trkpt lat="48.74781" lon="4.5491">
        <ele>95.2</ele>
        <time>2020-06-30T13:30:56Z</time>
      </trkpt>
      <trkpt lat="48.74787" lon="4.54904">
        <ele>95.2</ele>
        <time>2020-06-30T13:30:57Z</time>
      </trkpt>
      <trkpt lat="48.74794" lon="4.54899">
        <ele>95.2</ele>
        <time>2020-06-30T13:30:58Z</time>
      </trkpt>
      <trkpt lat="48.748" lon="4.54893">
        <ele>95.2</ele>
        <time>2020-06-30T13:30:59Z</time>
      </trkpt>
      <trkpt lat="48.74807" lon="4.54889">
        <ele>95.2</ele>
        <time>2020-06-30T13:31:00Z</time>
      </trkpt>
      <trkpt lat="48.74814" lon="4.54884">
        <ele>95.3</ele>
        <time>2020-06-30T13:31:01Z</time>
      </trkpt>
      <trkpt lat="48.7482" lon="4.54879">
        <ele>95.3</ele>
        <time>2020-06-30T13:31:02Z</time>
      </trkpt>
      <trkpt lat="48.74826" lon="4.54874">
        <ele>95.3</ele>
        <time>2020-06-30T13:31:03Z</time>
      </trkpt>
      <trkpt lat="48.74833" lon="4.54869">
        <ele>95.3</ele>
        <time>2020-06-30T13:31:04Z</time>
      </trkpt>
      <trkpt lat="48.74839" lon="4.54864">
        <ele>95.4</ele>
        <time>2020-06-30T13:31:05Z</time>
      </trkpt>
      <trkpt lat="48.74846" lon="4.54858">
        <ele>95.4</ele>
        <time>2020-06-30T13:31:06Z</time>
      </trkpt>
      <trkpt lat="48.74852" lon="4.54853">
        <ele>95.4</ele>
        <time>2020-06-30T13:31:07Z</time>
      </trkpt>
      <trkpt lat="48.74859" lon="4.54848">
        <ele>95.5</ele>
        <time>2020-06-30T13:31:08Z</time>
      </trkpt>
      <trkpt lat="48.74866" lon="4.54843">
        <ele>95.5</ele>
        <time>2020-06-30T13:31:09Z</time>
      </trkpt>
      <trkpt lat="48.74872" lon="4.54838">
        <ele>95.6</ele>
        <time>2020-06-30T13:31:10Z</time>
      </trkpt>
      <trkpt lat="48.74878" lon="4.54833">
        <ele>95.6</ele>
        <time>2020-06-30T13:31:11Z</time>
      </trkpt>
      <trkpt lat="48.74885" lon="4.54828">
        <ele>95.7</ele>
        <time>2020-06-30T13:31:12Z</time>
      </trkpt>
      <trkpt lat="48.74891" lon="4.54822">
        <ele>95.8</ele>
        <time>2020-06-30T13:31:13Z</time>
      </trkpt>
      <trkpt lat="48.74897" lon="4.54817">
        <ele>95.8</ele>
        <time>2020-06-30T13:31:14Z</time>
      </trkpt>
      <trkpt lat="48.74904" lon="4.54812">
        <ele>95.9</ele>
        <time>2020-06-30T13:31:15Z</time>
      </trkpt>
      <trkpt lat="48.7491" lon="4.54807">
        <ele>95.9</ele>
        <time>2020-06-30T13:31:16Z</time>
      </trkpt>
      <trkpt lat="48.74916" lon="4.54802">
        <ele>96</ele>
        <time>2020-06-30T13:31:17Z</time>
      </trkpt>
      <trkpt lat="48.74922" lon="4.54797">
        <ele>96.1</ele>
        <time>2020-06-30T13:31:18Z</time>
      </trkpt>
      <trkpt lat="48.74928" lon="4.54792">
        <ele>96.2</ele>
        <time>2020-06-30T13:31:19Z</time>
      </trkpt>
      <trkpt lat="48.74934" lon="4.54787">
        <ele>96.2</ele>
        <time>2020-06-30T13:31:20Z</time>
      </trkpt>
      <trkpt lat="48.7494" lon="4.54782">
        <ele>96.3</ele>
        <time>2020-06-30T13:31:21Z</time>
      </trkpt>
      <trkpt lat="48.74946" lon="4.54778">
        <ele>96.4</ele>
        <time>2020-06-30T13:31:22Z</time>
      </trkpt>
      <trkpt lat="48.74952" lon="4.54774">
        <ele>96.4</ele>
        <time>2020-06-30T13:31:23Z</time>
      </trkpt>
      <trkpt lat="48.74958" lon="4.54769">
        <ele>96.4</ele>
        <time>2020-06-30T13:31:24Z</time>
      </trkpt>
      <trkpt lat="48.74964" lon="4.54764">
        <ele>96.5</ele>
        <time>2020-06-30T13:31:25Z</time>
      </trkpt>
      <trkpt lat="48.74971" lon="4.5476">
        <ele>96.5</ele>
        <time>2020-06-30T13:31:26Z</time>
      </trkpt>
      <trkpt lat="48.74977" lon="4.54755">
        <ele>96.5</ele>
        <time>2020-06-30T13:31:27Z</time>
      </trkpt>
      <trkpt lat="48.74983" lon="4.5475">
        <ele>96.6</ele>
        <time>2020-06-30T13:31:28Z</time>
      </trkpt>
      <trkpt lat="48.74989" lon="4.54746">
        <ele>96.6</ele>
        <time>2020-06-30T13:31:29Z</time>
      </trkpt>
      <trkpt lat="48.74995" lon="4.5474">
        <ele>96.6</ele>
        <time>2020-06-30T13:31:30Z</time>
      </trkpt>
      <trkpt lat="48.75001" lon="4.54735">
        <ele>96.6</ele>
        <time>2020-06-30T13:31:31Z</time>
      </trkpt>
      <trkpt lat="48.75007" lon="4.5473">
        <ele>96.7</ele>
        <time>2020-06-30T13:31:32Z</time>
      </trkpt>
      <trkpt lat="48.75013" lon="4.54725">
        <ele>96.7</ele>
        <time>2020-06-30T13:31:33Z</time>
      </trkpt>
      <trkpt lat="48.7502" lon="4.54721">
        <ele>96.7</ele>
        <time>2020-06-30T13:31:34Z</time>
      </trkpt>
      <trkpt lat="48.75026" lon="4.54717">
        <ele>96.8</ele>
        <time>2020-06-30T13:31:35Z</time>
      </trkpt>
      <trkpt lat="48.75032" lon="4.54712">
        <ele>96.8</ele>
        <time>2020-06-30T13:31:36Z</time>
      </trkpt>
      <trkpt lat="48.75038" lon="4.54707">
        <ele>96.9</ele>
        <time>2020-06-30T13:31:37Z</time>
      </trkpt>
      <trkpt lat="48.75044" lon="4.54702">
        <ele>97</ele>
        <time>2020-06-30T13:31:38Z</time>
      </trkpt>
      <trkpt lat="48.75049" lon="4.54697">
        <ele>97.1</ele>
        <time>2020-06-30T13:31:39Z</time>
      </trkpt>
      <trkpt lat="48.75055" lon="4.54692">
        <ele>97.1</ele>
        <time>2020-06-30T13:31:40Z</time>
      </trkpt>
      <trkpt lat="48.75061" lon="4.54687">
        <ele>97.1</ele>
        <time>2020-06-30T13:31:41Z</time>
      </trkpt>
      <trkpt lat="48.75067" lon="4.54684">
        <ele>97.2</ele>
        <time>2020-06-30T13:31:42Z</time>
      </trkpt>
      <trkpt lat="48.75072" lon="4.54678">
        <ele>97.2</ele>
        <time>2020-06-30T13:31:43Z</time>
      </trkpt>
      <trkpt lat="48.75078" lon="4.54673">
        <ele>97.2</ele>
        <time>2020-06-30T13:31:44Z</time>
      </trkpt>
      <trkpt lat="48.75084" lon="4.54669">
        <ele>97.2</ele>
        <time>2020-06-30T13:31:45Z</time>
      </trkpt>
      <trkpt lat="48.7509" lon="4.54663">
        <ele>97.3</ele>
        <time>2020-06-30T13:31:46Z</time>
      </trkpt>
      <trkpt lat="48.75096" lon="4.54658">
        <ele>97.3</ele>
        <time>2020-06-30T13:31:47Z</time>
      </trkpt>
      <trkpt lat="48.75101" lon="4.54654">
        <ele>97.3</ele>
        <time>2020-06-30T13:31:48Z</time>
      </trkpt>
      <trkpt lat="48.75107" lon="4.54651">
        <ele>97.3</ele>
        <time>2020-06-30T13:31:49Z</time>
      </trkpt>
      <trkpt lat="48.75112" lon="4.54647">
        <ele>97.4</ele>
        <time>2020-06-30T13:31:50Z</time>
      </trkpt>
      <trkpt lat="48.75118" lon="4.54642">
        <ele>97.4</ele>
        <time>2020-06-30T13:31:51Z</time>
      </trkpt>
      <trkpt lat="48.75124" lon="4.54635">
        <ele>97.4</ele>
        <time>2020-06-30T13:31:52Z</time>
      </trkpt>
      <trkpt lat="48.7513" lon="4.54631">
        <ele>97.4</ele>
        <time>2020-06-30T13:31:53Z</time>
      </trkpt>
      <trkpt lat="48.75136" lon="4.54626">
        <ele>97.4</ele>
        <time>2020-06-30T13:31:54Z</time>
      </trkpt>
      <trkpt lat="48.75143" lon="4.54622">
        <ele>97.5</ele>
        <time>2020-06-30T13:31:55Z</time>
      </trkpt>
      <trkpt lat="48.75149" lon="4.54617">
        <ele>97.5</ele>
        <time>2020-06-30T13:31:56Z</time>
      </trkpt>
      <trkpt lat="48.75155" lon="4.54613">
        <ele>97.6</ele>
        <time>2020-06-30T13:31:57Z</time>
      </trkpt>
      <trkpt lat="48.75161" lon="4.54608">
        <ele>97.6</ele>
        <time>2020-06-30T13:31:58Z</time>
      </trkpt>
      <trkpt lat="48.75167" lon="4.54603">
        <ele>97.7</ele>
        <time>2020-06-30T13:31:59Z</time>
      </trkpt>
      <trkpt lat="48.75173" lon="4.54598">
        <ele>97.8</ele>
        <time>2020-06-30T13:32:00Z</time>
      </trkpt>
      <trkpt lat="48.75178" lon="4.54594">
        <ele>97.9</ele>
        <time>2020-06-30T13:32:01Z</time>
      </trkpt>
      <trkpt lat="48.75184" lon="4.54589">
        <ele>98</ele>
        <time>2020-06-30T13:32:02Z</time>
      </trkpt>
      <trkpt lat="48.75191" lon="4.54585">
        <ele>98</ele>
        <time>2020-06-30T13:32:03Z</time>
      </trkpt>
      <trkpt lat="48.75197" lon="4.54579">
        <ele>98</ele>
        <time>2020-06-30T13:32:04Z</time>
      </trkpt>
      <trkpt lat="48.75203" lon="4.54574">
        <ele>97.9</ele>
        <time>2020-06-30T13:32:05Z</time>
      </trkpt>
      <trkpt lat="48.7521" lon="4.54568">
        <ele>97.9</ele>
        <time>2020-06-30T13:32:06Z</time>
      </trkpt>
      <trkpt lat="48.75216" lon="4.54564">
        <ele>98</ele>
        <time>2020-06-30T13:32:07Z</time>
      </trkpt>
      <trkpt lat="48.75222" lon="4.54559">
        <ele>98.1</ele>
        <time>2020-06-30T13:32:08Z</time>
      </trkpt>
      <trkpt lat="48.75228" lon="4.54554">
        <ele>98.1</ele>
        <time>2020-06-30T13:32:09Z</time>
      </trkpt>
      <trkpt lat="48.75234" lon="4.54548">
        <ele>98.2</ele>
        <time>2020-06-30T13:32:10Z</time>
      </trkpt>
      <trkpt lat="48.75241" lon="4.54543">
        <ele>98.2</ele>
        <time>2020-06-30T13:32:11Z</time>
      </trkpt>
      <trkpt lat="48.75247" lon="4.54538">
        <ele>98.3</ele>
        <time>2020-06-30T13:32:12Z</time>
      </trkpt>
      <trkpt lat="48.75253" lon="4.54532">
        <ele>98.3</ele>
        <time>2020-06-30T13:32:13Z</time>
      </trkpt>
      <trkpt lat="48.75259" lon="4.54528">
        <ele>98.3</ele>
        <time>2020-06-30T13:32:14Z</time>
      </trkpt>
      <trkpt lat="48.75265" lon="4.54524">
        <ele>98.4</ele>
        <time>2020-06-30T13:32:15Z</time>
      </trkpt>
      <trkpt lat="48.75271" lon="4.54519">
        <ele>98.4</ele>
        <time>2020-06-30T13:32:16Z</time>
      </trkpt>
      <trkpt lat="48.75278" lon="4.54515">
        <ele>98.4</ele>
        <time>2020-06-30T13:32:17Z</time>
      </trkpt>
      <trkpt lat="48.75284" lon="4.5451">
        <ele>98.5</ele>
        <time>2020-06-30T13:32:18Z</time>
      </trkpt>
      <trkpt lat="48.7529" lon="4.54507">
        <ele>98.5</ele>
        <time>2020-06-30T13:32:19Z</time>
      </trkpt>
      <trkpt lat="48.75295" lon="4.54502">
        <ele>98.6</ele>
        <time>2020-06-30T13:32:20Z</time>
      </trkpt>
      <trkpt lat="48.753" lon="4.54497">
        <ele>98.6</ele>
        <time>2020-06-30T13:32:21Z</time>
      </trkpt>
      <trkpt lat="48.75306" lon="4.54491">
        <ele>98.7</ele>
        <time>2020-06-30T13:32:22Z</time>
      </trkpt>
      <trkpt lat="48.75311" lon="4.54487">
        <ele>98.9</ele>
        <time>2020-06-30T13:32:23Z</time>
      </trkpt>
      <trkpt lat="48.75317" lon="4.54483">
        <ele>98.8</ele>
        <time>2020-06-30T13:32:24Z</time>
      </trkpt>
      <trkpt lat="48.75322" lon="4.54478">
        <ele>98.7</ele>
        <time>2020-06-30T13:32:25Z</time>
      </trkpt>
      <trkpt lat="48.75328" lon="4.54475">
        <ele>98.6</ele>
        <time>2020-06-30T13:32:26Z</time>
      </trkpt>
      <trkpt lat="48.75334" lon="4.54471">
        <ele>98.5</ele>
        <time>2020-06-30T13:32:27Z</time>
      </trkpt>
      <trkpt lat="48.75339" lon="4.54466">
        <ele>98.5</ele>
        <time>2020-06-30T13:32:28Z</time>
      </trkpt>
      <trkpt lat="48.75344" lon="4.54463">
        <ele>98.6</ele>
        <time>2020-06-30T13:32:29Z</time>
      </trkpt>
      <trkpt lat="48.7535" lon="4.54458">
        <ele>98.6</ele>
        <time>2020-06-30T13:32:30Z</time>
      </trkpt>
      <trkpt lat="48.75356" lon="4.54452">
        <ele>98.6</ele>
        <time>2020-06-30T13:32:31Z</time>
      </trkpt>
      <trkpt lat="48.75362" lon="4.54448">
        <ele>98.7</ele>
        <time>2020-06-30T13:32:32Z</time>
      </trkpt>
      <trkpt lat="48.75367" lon="4.54444">
        <ele>98.7</ele>
        <time>2020-06-30T13:32:33Z</time>
      </trkpt>
      <trkpt lat="48.75372" lon="4.5444">
        <ele>98.8</ele>
        <time>2020-06-30T13:32:34Z</time>
      </trkpt>
      <trkpt lat="48.75378" lon="4.54436">
        <ele>98.8</ele>
        <time>2020-06-30T13:32:35Z</time>
      </trkpt>
      <trkpt lat="48.75384" lon="4.54431">
        <ele>98.8</ele>
        <time>2020-06-30T13:32:36Z</time>
      </trkpt>
      <trkpt lat="48.75391" lon="4.54425">
        <ele>98.9</ele>
        <time>2020-06-30T13:32:37Z</time>
      </trkpt>
      <trkpt lat="48.75397" lon="4.54421">
        <ele>99</ele>
        <time>2020-06-30T13:32:38Z</time>
      </trkpt>
      <trkpt lat="48.75403" lon="4.54416">
        <ele>99.1</ele>
        <time>2020-06-30T13:32:39Z</time>
      </trkpt>
      <trkpt lat="48.75408" lon="4.54412">
        <ele>99.1</ele>
        <time>2020-06-30T13:32:40Z</time>
      </trkpt>
      <trkpt lat="48.75415" lon="4.54409">
        <ele>99.2</ele>
        <time>2020-06-30T13:32:41Z</time>
      </trkpt>
      <trkpt lat="48.75421" lon="4.54404">
        <ele>99.3</ele>
        <time>2020-06-30T13:32:42Z</time>
      </trkpt>
      <trkpt lat="48.75427" lon="4.54399">
        <ele>99.3</ele>
        <time>2020-06-30T13:32:43Z</time>
      </trkpt>
      <trkpt lat="48.75433" lon="4.54394">
        <ele>99.4</ele>
        <time>2020-06-30T13:32:44Z</time>
      </trkpt>
      <trkpt lat="48.75438" lon="4.5439">
        <ele>99.4</ele>
        <time>2020-06-30T13:32:45Z</time>
      </trkpt>
      <trkpt lat="48.75443" lon="4.54385">
        <ele>99.4</ele>
        <time>2020-06-30T13:32:46Z</time>
      </trkpt>
      <trkpt lat="48.75449" lon="4.54381">
        <ele>99.5</ele>
        <time>2020-06-30T13:32:47Z</time>
      </trkpt>
      <trkpt lat="48.75455" lon="4.54376">
        <ele>99.5</ele>
        <time>2020-06-30T13:32:48Z</time>
      </trkpt>
      <trkpt lat="48.75461" lon="4.54372">
        <ele>99.6</ele>
        <time>2020-06-30T13:32:49Z</time>
      </trkpt>
      <trkpt lat="48.75467" lon="4.54367">
        <ele>99.6</ele>
        <time>2020-06-30T13:32:50Z</time>
      </trkpt>
      <trkpt lat="48.75472" lon="4.54363">
        <ele>99.7</ele>
        <time>2020-06-30T13:32:51Z</time>
      </trkpt>
      <trkpt lat="48.75478" lon="4.54359">
        <ele>99.7</ele>
        <time>2020-06-30T13:32:52Z</time>
      </trkpt>
      <trkpt lat="48.75483" lon="4.54354">
        <ele>99.8</ele>
        <time>2020-06-30T13:32:53Z</time>
      </trkpt>
      <trkpt lat="48.75489" lon="4.54351">
        <ele>99.8</ele>
        <time>2020-06-30T13:32:54Z</time>
      </trkpt>
      <trkpt lat="48.75495" lon="4.54346">
        <ele>99.9</ele>
        <time>2020-06-30T13:32:55Z</time>
      </trkpt>
      <trkpt lat="48.75501" lon="4.54342">
        <ele>99.9</ele>
        <time>2020-06-30T13:32:56Z</time>
      </trkpt>
      <trkpt lat="48.75507" lon="4.54337">
        <ele>100.1</ele>
        <time>2020-06-30T13:32:57Z</time>
      </trkpt>
      <trkpt lat="48.75513" lon="4.54332">
        <ele>99.9</ele>
        <time>2020-06-30T13:32:58Z</time>
      </trkpt>
      <trkpt lat="48.75518" lon="4.54328">
        <ele>99.8</ele>
        <time>2020-06-30T13:32:59Z</time>
      </trkpt>
      <trkpt lat="48.75524" lon="4.54323">
        <ele>99.7</ele>
        <time>2020-06-30T13:33:00Z</time>
      </trkpt>
      <trkpt lat="48.75529" lon="4.54318">
        <ele>99.6</ele>
        <time>2020-06-30T13:33:01Z</time>
      </trkpt>
      <trkpt lat="48.75534" lon="4.54314">
        <ele>99.6</ele>
        <time>2020-06-30T13:33:02Z</time>
      </trkpt>
      <trkpt lat="48.7554" lon="4.5431">
        <ele>99.5</ele>
        <time>2020-06-30T13:33:03Z</time>
      </trkpt>
      <trkpt lat="48.75546" lon="4.54305">
        <ele>99.5</ele>
        <time>2020-06-30T13:33:04Z</time>
      </trkpt>
      <trkpt lat="48.75552" lon="4.543">
        <ele>99.4</ele>
        <time>2020-06-30T13:33:05Z</time>
      </trkpt>
      <trkpt lat="48.75558" lon="4.54295">
        <ele>99.4</ele>
        <time>2020-06-30T13:33:06Z</time>
      </trkpt>
      <trkpt lat="48.75563" lon="4.54291">
        <ele>99.4</ele>
        <time>2020-06-30T13:33:07Z</time>
      </trkpt>
      <trkpt lat="48.75568" lon="4.54287">
        <ele>99.3</ele>
        <time>2020-06-30T13:33:08Z</time>
      </trkpt>
      <trkpt lat="48.75574" lon="4.54281">
        <ele>99.2</ele>
        <time>2020-06-30T13:33:09Z</time>
      </trkpt>
      <trkpt lat="48.7558" lon="4.54277">
        <ele>99.1</ele>
        <time>2020-06-30T13:33:10Z</time>
      </trkpt>
      <trkpt lat="48.75586" lon="4.54271">
        <ele>99</ele>
        <time>2020-06-30T13:33:11Z</time>
      </trkpt>
      <trkpt lat="48.75591" lon="4.54267">
        <ele>99</ele>
        <time>2020-06-30T13:33:12Z</time>
      </trkpt>
      <trkpt lat="48.75598" lon="4.54262">
        <ele>98.9</ele>
        <time>2020-06-30T13:33:13Z</time>
      </trkpt>
      <trkpt lat="48.75605" lon="4.54257">
        <ele>98.8</ele>
        <time>2020-06-30T13:33:14Z</time>
      </trkpt>
      <trkpt lat="48.75612" lon="4.54252">
        <ele>98.7</ele>
        <time>2020-06-30T13:33:15Z</time>
      </trkpt>
      <trkpt lat="48.75619" lon="4.54247">
        <ele>98.6</ele>
        <time>2020-06-30T13:33:16Z</time>
      </trkpt>
      <trkpt lat="48.75626" lon="4.54241">
        <ele>98.5</ele>
        <time>2020-06-30T13:33:17Z</time>
      </trkpt>
      <trkpt lat="48.75632" lon="4.54236">
        <ele>98.4</ele>
        <time>2020-06-30T13:33:18Z</time>
      </trkpt>
      <trkpt lat="48.75639" lon="4.5423">
        <ele>98.3</ele>
        <time>2020-06-30T13:33:19Z</time>
      </trkpt>
      <trkpt lat="48.75646" lon="4.54225">
        <ele>98.2</ele>
        <time>2020-06-30T13:33:20Z</time>
      </trkpt>
      <trkpt lat="48.75653" lon="4.54219">
        <ele>98.1</ele>
        <time>2020-06-30T13:33:21Z</time>
      </trkpt>
      <trkpt lat="48.75659" lon="4.54215">
        <ele>98.1</ele>
        <time>2020-06-30T13:33:22Z</time>
      </trkpt>
      <trkpt lat="48.75666" lon="4.54209">
        <ele>98</ele>
        <time>2020-06-30T13:33:23Z</time>
      </trkpt>
      <trkpt lat="48.75672" lon="4.54204">
        <ele>97.9</ele>
        <time>2020-06-30T13:33:24Z</time>
      </trkpt>
      <trkpt lat="48.75679" lon="4.54198">
        <ele>97.9</ele>
        <time>2020-06-30T13:33:25Z</time>
      </trkpt>
      <trkpt lat="48.75685" lon="4.54192">
        <ele>97.8</ele>
        <time>2020-06-30T13:33:26Z</time>
      </trkpt>
      <trkpt lat="48.75692" lon="4.54186">
        <ele>97.7</ele>
        <time>2020-06-30T13:33:27Z</time>
      </trkpt>
      <trkpt lat="48.75698" lon="4.54181">
        <ele>97.7</ele>
        <time>2020-06-30T13:33:28Z</time>
      </trkpt>
      <trkpt lat="48.75703" lon="4.54175">
        <ele>97.6</ele>
        <time>2020-06-30T13:33:29Z</time>
      </trkpt>
      <trkpt lat="48.7571" lon="4.54168">
        <ele>97.5</ele>
        <time>2020-06-30T13:33:30Z</time>
      </trkpt>
      <trkpt lat="48.75715" lon="4.54162">
        <ele>97.5</ele>
        <time>2020-06-30T13:33:31Z</time>
      </trkpt>
      <trkpt lat="48.75721" lon="4.54157">
        <ele>97.4</ele>
        <time>2020-06-30T13:33:32Z</time>
      </trkpt>
      <trkpt lat="48.75726" lon="4.54152">
        <ele>97.4</ele>
        <time>2020-06-30T13:33:33Z</time>
      </trkpt>
      <trkpt lat="48.75732" lon="4.54146">
        <ele>97.3</ele>
        <time>2020-06-30T13:33:34Z</time>
      </trkpt>
      <trkpt lat="48.75738" lon="4.54141">
        <ele>97.2</ele>
        <time>2020-06-30T13:33:35Z</time>
      </trkpt>
      <trkpt lat="48.75743" lon="4.54135">
        <ele>97.2</ele>
        <time>2020-06-30T13:33:36Z</time>
      </trkpt>
      <trkpt lat="48.75748" lon="4.54129">
        <ele>97.2</ele>
        <time>2020-06-30T13:33:37Z</time>
      </trkpt>
      <trkpt lat="48.75753" lon="4.54123">
        <ele>97.1</ele>
        <time>2020-06-30T13:33:38Z</time>
      </trkpt>
      <trkpt lat="48.75758" lon="4.54117">
        <ele>97.1</ele>
        <time>2020-06-30T13:33:39Z</time>
      </trkpt>
      <trkpt lat="48.75763" lon="4.54111">
        <ele>97.1</ele>
        <time>2020-06-30T13:33:40Z</time>
      </trkpt>
      <trkpt lat="48.75768" lon="4.54105">
        <ele>97.1</ele>
        <time>2020-06-30T13:33:41Z</time>
      </trkpt>
      <trkpt lat="48.75774" lon="4.541">
        <ele>97.1</ele>
        <time>2020-06-30T13:33:42Z</time>
      </trkpt>
      <trkpt lat="48.7578" lon="4.54095">
        <ele>97.1</ele>
        <time>2020-06-30T13:33:43Z</time>
      </trkpt>
      <trkpt lat="48.75786" lon="4.5409">
        <ele>97.1</ele>
        <time>2020-06-30T13:33:44Z</time>
      </trkpt>
      <trkpt lat="48.75791" lon="4.54084">
        <ele>97.1</ele>
        <time>2020-06-30T13:33:45Z</time>
      </trkpt>
      <trkpt lat="48.75796" lon="4.54078">
        <ele>97.1</ele>
        <time>2020-06-30T13:33:46Z</time>
      </trkpt>
      <trkpt lat="48.75801" lon="4.54073">
        <ele>97.2</ele>
        <time>2020-06-30T13:33:47Z</time>
      </trkpt>
      <trkpt lat="48.75807" lon="4.54068">
        <ele>97.3</ele>
        <time>2020-06-30T13:33:48Z</time>
      </trkpt>
      <trkpt lat="48.75812" lon="4.54064">
        <ele>97.2</ele>
        <time>2020-06-30T13:33:49Z</time>
      </trkpt>
      <trkpt lat="48.75817" lon="4.54058">
        <ele>97</ele>
        <time>2020-06-30T13:33:50Z</time>
      </trkpt>
      <trkpt lat="48.75822" lon="4.54054">
        <ele>96.9</ele>
        <time>2020-06-30T13:33:51Z</time>
      </trkpt>
      <trkpt lat="48.75825" lon="4.5405">
        <ele>96.8</ele>
        <time>2020-06-30T13:33:52Z</time>
      </trkpt>
      <trkpt lat="48.75827" lon="4.54046">
        <ele>96.7</ele>
        <time>2020-06-30T13:33:53Z</time>
      </trkpt>
      <trkpt lat="48.75829" lon="4.54044">
        <ele>96.6</ele>
        <time>2020-06-30T13:33:54Z</time>
      </trkpt>
      <trkpt lat="48.7583" lon="4.54044">
        <ele>96.6</ele>
        <time>2020-06-30T13:33:55Z</time>
      </trkpt>
      <trkpt lat="48.75833" lon="4.54041">
        <ele>96.5</ele>
        <time>2020-06-30T13:33:56Z</time>
      </trkpt>
      <trkpt lat="48.75833" lon="4.5404">
        <ele>96.4</ele>
        <time>2020-06-30T13:33:57Z</time>
      </trkpt>
      <trkpt lat="48.75836" lon="4.54036">
        <ele>96.4</ele>
        <time>2020-06-30T13:33:58Z</time>
      </trkpt>
      <trkpt lat="48.75839" lon="4.54034">
        <ele>96.3</ele>
        <time>2020-06-30T13:33:59Z</time>
      </trkpt>
      <trkpt lat="48.75841" lon="4.54029">
        <ele>96.1</ele>
        <time>2020-06-30T13:34:00Z</time>
      </trkpt>
      <trkpt lat="48.75844" lon="4.54025">
        <ele>96</ele>
        <time>2020-06-30T13:34:01Z</time>
      </trkpt>
      <trkpt lat="48.75847" lon="4.54021">
        <ele>95.9</ele>
        <time>2020-06-30T13:34:02Z</time>
      </trkpt>
      <trkpt lat="48.75851" lon="4.54015">
        <ele>95.8</ele>
        <time>2020-06-30T13:34:03Z</time>
      </trkpt>
      <trkpt lat="48.75855" lon="4.54011">
        <ele>95.7</ele>
        <time>2020-06-30T13:34:04Z</time>
      </trkpt>
      <trkpt lat="48.75859" lon="4.54006">
        <ele>95.6</ele>
        <time>2020-06-30T13:34:05Z</time>
      </trkpt>
      <trkpt lat="48.75864" lon="4.54002">
        <ele>95.5</ele>
        <time>2020-06-30T13:34:06Z</time>
      </trkpt>
      <trkpt lat="48.75869" lon="4.53997">
        <ele>95.4</ele>
        <time>2020-06-30T13:34:07Z</time>
      </trkpt>
      <trkpt lat="48.75874" lon="4.53992">
        <ele>95.3</ele>
        <time>2020-06-30T13:34:08Z</time>
      </trkpt>
      <trkpt lat="48.75879" lon="4.53986">
        <ele>95.2</ele>
        <time>2020-06-30T13:34:09Z</time>
      </trkpt>
      <trkpt lat="48.75884" lon="4.53981">
        <ele>95.1</ele>
        <time>2020-06-30T13:34:10Z</time>
      </trkpt>
      <trkpt lat="48.75889" lon="4.53976">
        <ele>95</ele>
        <time>2020-06-30T13:34:11Z</time>
      </trkpt>
      <trkpt lat="48.75895" lon="4.53972">
        <ele>94.9</ele>
        <time>2020-06-30T13:34:12Z</time>
      </trkpt>
      <trkpt lat="48.759" lon="4.53967">
        <ele>94.8</ele>
        <time>2020-06-30T13:34:13Z</time>
      </trkpt>
      <trkpt lat="48.75906" lon="4.53962">
        <ele>94.6</ele>
        <time>2020-06-30T13:34:14Z</time>
      </trkpt>
      <trkpt lat="48.75912" lon="4.53958">
        <ele>94.5</ele>
        <time>2020-06-30T13:34:15Z</time>
      </trkpt>
      <trkpt lat="48.75918" lon="4.53952">
        <ele>94.5</ele>
        <time>2020-06-30T13:34:16Z</time>
      </trkpt>
      <trkpt lat="48.75925" lon="4.53948">
        <ele>94.4</ele>
        <time>2020-06-30T13:34:17Z</time>
      </trkpt>
      <trkpt lat="48.75931" lon="4.53942">
        <ele>94.4</ele>
        <time>2020-06-30T13:34:18Z</time>
      </trkpt>
      <trkpt lat="48.75938" lon="4.53937">
        <ele>94.4</ele>
        <time>2020-06-30T13:34:19Z</time>
      </trkpt>
      <trkpt lat="48.75944" lon="4.53933">
        <ele>94.3</ele>
        <time>2020-06-30T13:34:20Z</time>
      </trkpt>
      <trkpt lat="48.75951" lon="4.53927">
        <ele>94.3</ele>
        <time>2020-06-30T13:34:21Z</time>
      </trkpt>
      <trkpt lat="48.75958" lon="4.53922">
        <ele>94.3</ele>
        <time>2020-06-30T13:34:22Z</time>
      </trkpt>
      <trkpt lat="48.75964" lon="4.53917">
        <ele>94.4</ele>
        <time>2020-06-30T13:34:23Z</time>
      </trkpt>
      <trkpt lat="48.75971" lon="4.53911">
        <ele>94.4</ele>
        <time>2020-06-30T13:34:24Z</time>
      </trkpt>
      <trkpt lat="48.75977" lon="4.53906">
        <ele>94.5</ele>
        <time>2020-06-30T13:34:25Z</time>
      </trkpt>
      <trkpt lat="48.75984" lon="4.53901">
        <ele>94.6</ele>
        <time>2020-06-30T13:34:26Z</time>
      </trkpt>
      <trkpt lat="48.75991" lon="4.53897">
        <ele>94.7</ele>
        <time>2020-06-30T13:34:27Z</time>
      </trkpt>
      <trkpt lat="48.75998" lon="4.53892">
        <ele>94.7</ele>
        <time>2020-06-30T13:34:28Z</time>
      </trkpt>
      <trkpt lat="48.76003" lon="4.53886">
        <ele>94.6</ele>
        <time>2020-06-30T13:34:29Z</time>
      </trkpt>
      <trkpt lat="48.76009" lon="4.53881">
        <ele>94.5</ele>
        <time>2020-06-30T13:34:30Z</time>
      </trkpt>
      <trkpt lat="48.76015" lon="4.53876">
        <ele>94.5</ele>
        <time>2020-06-30T13:34:31Z</time>
      </trkpt>
      <trkpt lat="48.76021" lon="4.53871">
        <ele>94.5</ele>
        <time>2020-06-30T13:34:32Z</time>
      </trkpt>
      <trkpt lat="48.76027" lon="4.53866">
        <ele>94.5</ele>
        <time>2020-06-30T13:34:33Z</time>
      </trkpt>
      <trkpt lat="48.76034" lon="4.53861">
        <ele>94.5</ele>
        <time>2020-06-30T13:34:34Z</time>
      </trkpt>
      <trkpt lat="48.7604" lon="4.53856">
        <ele>94.5</ele>
        <time>2020-06-30T13:34:35Z</time>
      </trkpt>
      <trkpt lat="48.76046" lon="4.53851">
        <ele>94.6</ele>
        <time>2020-06-30T13:34:36Z</time>
      </trkpt>
      <trkpt lat="48.76053" lon="4.53847">
        <ele>94.6</ele>
        <time>2020-06-30T13:34:37Z</time>
      </trkpt>
      <trkpt lat="48.7606" lon="4.53842">
        <ele>94.7</ele>
        <time>2020-06-30T13:34:38Z</time>
      </trkpt>
      <trkpt lat="48.76066" lon="4.53837">
        <ele>94.8</ele>
        <time>2020-06-30T13:34:39Z</time>
      </trkpt>
      <trkpt lat="48.76073" lon="4.53832">
        <ele>94.8</ele>
        <time>2020-06-30T13:34:40Z</time>
      </trkpt>
      <trkpt lat="48.76079" lon="4.53828">
        <ele>94.9</ele>
        <time>2020-06-30T13:34:41Z</time>
      </trkpt>
      <trkpt lat="48.76086" lon="4.53824">
        <ele>95</ele>
        <time>2020-06-30T13:34:42Z</time>
      </trkpt>
      <trkpt lat="48.76092" lon="4.53819">
        <ele>95.1</ele>
        <time>2020-06-30T13:34:43Z</time>
      </trkpt>
      <trkpt lat="48.76099" lon="4.53815">
        <ele>95.3</ele>
        <time>2020-06-30T13:34:44Z</time>
      </trkpt>
      <trkpt lat="48.76106" lon="4.5381">
        <ele>95.4</ele>
        <time>2020-06-30T13:34:45Z</time>
      </trkpt>
      <trkpt lat="48.76112" lon="4.53805">
        <ele>95.5</ele>
        <time>2020-06-30T13:34:46Z</time>
      </trkpt>
      <trkpt lat="48.76118" lon="4.538">
        <ele>95.6</ele>
        <time>2020-06-30T13:34:47Z</time>
      </trkpt>
      <trkpt lat="48.76124" lon="4.53795">
        <ele>95.8</ele>
        <time>2020-06-30T13:34:48Z</time>
      </trkpt>
      <trkpt lat="48.7613" lon="4.5379">
        <ele>95.9</ele>
        <time>2020-06-30T13:34:49Z</time>
      </trkpt>
      <trkpt lat="48.76136" lon="4.53786">
        <ele>96</ele>
        <time>2020-06-30T13:34:50Z</time>
      </trkpt>
      <trkpt lat="48.76142" lon="4.53782">
        <ele>96.1</ele>
        <time>2020-06-30T13:34:51Z</time>
      </trkpt>
      <trkpt lat="48.76148" lon="4.53778">
        <ele>96.3</ele>
        <time>2020-06-30T13:34:52Z</time>
      </trkpt>
      <trkpt lat="48.76155" lon="4.53774">
        <ele>96.5</ele>
        <time>2020-06-30T13:34:53Z</time>
      </trkpt>
      <trkpt lat="48.76161" lon="4.5377">
        <ele>97</ele>
        <time>2020-06-30T13:34:54Z</time>
      </trkpt>
      <trkpt lat="48.76167" lon="4.53765">
        <ele>97.1</ele>
        <time>2020-06-30T13:34:55Z</time>
      </trkpt>
      <trkpt lat="48.76173" lon="4.53761">
        <ele>97.2</ele>
        <time>2020-06-30T13:34:56Z</time>
      </trkpt>
      <trkpt lat="48.76178" lon="4.53757">
        <ele>97.3</ele>
        <time>2020-06-30T13:34:57Z</time>
      </trkpt>
      <trkpt lat="48.76184" lon="4.53753">
        <ele>97.4</ele>
        <time>2020-06-30T13:34:58Z</time>
      </trkpt>
      <trkpt lat="48.7619" lon="4.53749">
        <ele>97.5</ele>
        <time>2020-06-30T13:34:59Z</time>
      </trkpt>
      <trkpt lat="48.76195" lon="4.53744">
        <ele>97.7</ele>
        <time>2020-06-30T13:35:00Z</time>
      </trkpt>
      <trkpt lat="48.76201" lon="4.5374">
        <ele>97.8</ele>
        <time>2020-06-30T13:35:01Z</time>
      </trkpt>
      <trkpt lat="48.76207" lon="4.53736">
        <ele>97.9</ele>
        <time>2020-06-30T13:35:02Z</time>
      </trkpt>
      <trkpt lat="48.76212" lon="4.53733">
        <ele>98</ele>
        <time>2020-06-30T13:35:03Z</time>
      </trkpt>
      <trkpt lat="48.76218" lon="4.53729">
        <ele>98.1</ele>
        <time>2020-06-30T13:35:04Z</time>
      </trkpt>
      <trkpt lat="48.76224" lon="4.53727">
        <ele>98.2</ele>
        <time>2020-06-30T13:35:05Z</time>
      </trkpt>
      <trkpt lat="48.76229" lon="4.53723">
        <ele>98.3</ele>
        <time>2020-06-30T13:35:06Z</time>
      </trkpt>
      <trkpt lat="48.76234" lon="4.53718">
        <ele>98.5</ele>
        <time>2020-06-30T13:35:07Z</time>
      </trkpt>
      <trkpt lat="48.7624" lon="4.53715">
        <ele>98.6</ele>
        <time>2020-06-30T13:35:08Z</time>
      </trkpt>
      <trkpt lat="48.76245" lon="4.53711">
        <ele>98.7</ele>
        <time>2020-06-30T13:35:09Z</time>
      </trkpt>
      <trkpt lat="48.7625" lon="4.53707">
        <ele>98.8</ele>
        <time>2020-06-30T13:35:10Z</time>
      </trkpt>
      <trkpt lat="48.76255" lon="4.53703">
        <ele>99</ele>
        <time>2020-06-30T13:35:11Z</time>
      </trkpt>
      <trkpt lat="48.7626" lon="4.537">
        <ele>99.1</ele>
        <time>2020-06-30T13:35:12Z</time>
      </trkpt>
      <trkpt lat="48.76264" lon="4.53697">
        <ele>99.2</ele>
        <time>2020-06-30T13:35:13Z</time>
      </trkpt>
      <trkpt lat="48.76269" lon="4.53693">
        <ele>99.3</ele>
        <time>2020-06-30T13:35:14Z</time>
      </trkpt>
      <trkpt lat="48.76273" lon="4.53688">
        <ele>99.4</ele>
        <time>2020-06-30T13:35:15Z</time>
      </trkpt>
      <trkpt lat="48.76278" lon="4.53683">
        <ele>99.2</ele>
        <time>2020-06-30T13:35:16Z</time>
      </trkpt>
      <trkpt lat="48.76284" lon="4.53682">
        <ele>99.1</ele>
        <time>2020-06-30T13:35:17Z</time>
      </trkpt>
      <trkpt lat="48.76289" lon="4.53679">
        <ele>99</ele>
        <time>2020-06-30T13:35:18Z</time>
      </trkpt>
      <trkpt lat="48.76293" lon="4.53675">
        <ele>98.8</ele>
        <time>2020-06-30T13:35:19Z</time>
      </trkpt>
      <trkpt lat="48.76298" lon="4.53671">
        <ele>98.7</ele>
        <time>2020-06-30T13:35:20Z</time>
      </trkpt>
      <trkpt lat="48.76302" lon="4.53666">
        <ele>98.7</ele>
        <time>2020-06-30T13:35:21Z</time>
      </trkpt>
      <trkpt lat="48.76307" lon="4.53662">
        <ele>98.6</ele>
        <time>2020-06-30T13:35:22Z</time>
      </trkpt>
      <trkpt lat="48.76312" lon="4.53658">
        <ele>98.6</ele>
        <time>2020-06-30T13:35:23Z</time>
      </trkpt>
      <trkpt lat="48.76317" lon="4.53655">
        <ele>98.6</ele>
        <time>2020-06-30T13:35:24Z</time>
      </trkpt>
      <trkpt lat="48.76321" lon="4.53652">
        <ele>98.5</ele>
        <time>2020-06-30T13:35:25Z</time>
      </trkpt>
      <trkpt lat="48.76328" lon="4.53647">
        <ele>98.3</ele>
        <time>2020-06-30T13:35:26Z</time>
      </trkpt>
      <trkpt lat="48.76334" lon="4.53642">
        <ele>98.1</ele>
        <time>2020-06-30T13:35:27Z</time>
      </trkpt>
      <trkpt lat="48.76341" lon="4.53637">
        <ele>97.9</ele>
        <time>2020-06-30T13:35:28Z</time>
      </trkpt>
      <trkpt lat="48.76347" lon="4.53632">
        <ele>97.6</ele>
        <time>2020-06-30T13:35:29Z</time>
      </trkpt>
      <trkpt lat="48.76354" lon="4.53626">
        <ele>97.4</ele>
        <time>2020-06-30T13:35:30Z</time>
      </trkpt>
      <trkpt lat="48.7636" lon="4.53621">
        <ele>97.2</ele>
        <time>2020-06-30T13:35:31Z</time>
      </trkpt>
      <trkpt lat="48.76365" lon="4.53617">
        <ele>97</ele>
        <time>2020-06-30T13:35:32Z</time>
      </trkpt>
      <trkpt lat="48.76371" lon="4.53612">
        <ele>96.9</ele>
        <time>2020-06-30T13:35:33Z</time>
      </trkpt>
      <trkpt lat="48.76377" lon="4.53608">
        <ele>96.7</ele>
        <time>2020-06-30T13:35:34Z</time>
      </trkpt>
      <trkpt lat="48.76384" lon="4.53603">
        <ele>96.6</ele>
        <time>2020-06-30T13:35:35Z</time>
      </trkpt>
      <trkpt lat="48.7639" lon="4.53599">
        <ele>96.4</ele>
        <time>2020-06-30T13:35:36Z</time>
      </trkpt>
      <trkpt lat="48.76396" lon="4.53594">
        <ele>96.3</ele>
        <time>2020-06-30T13:35:37Z</time>
      </trkpt>
      <trkpt lat="48.76402" lon="4.53588">
        <ele>96.3</ele>
        <time>2020-06-30T13:35:38Z</time>
      </trkpt>
      <trkpt lat="48.76408" lon="4.53583">
        <ele>96.2</ele>
        <time>2020-06-30T13:35:39Z</time>
      </trkpt>
      <trkpt lat="48.76415" lon="4.53578">
        <ele>96.1</ele>
        <time>2020-06-30T13:35:40Z</time>
      </trkpt>
      <trkpt lat="48.76421" lon="4.53573">
        <ele>96.1</ele>
        <time>2020-06-30T13:35:41Z</time>
      </trkpt>
      <trkpt lat="48.76428" lon="4.53568">
        <ele>96</ele>
        <time>2020-06-30T13:35:42Z</time>
      </trkpt>
      <trkpt lat="48.76434" lon="4.53563">
        <ele>95.9</ele>
        <time>2020-06-30T13:35:43Z</time>
      </trkpt>
      <trkpt lat="48.76441" lon="4.53558">
        <ele>95.9</ele>
        <time>2020-06-30T13:35:44Z</time>
      </trkpt>
      <trkpt lat="48.76447" lon="4.53553">
        <ele>95.8</ele>
        <time>2020-06-30T13:35:45Z</time>
      </trkpt>
      <trkpt lat="48.76454" lon="4.53548">
        <ele>95.7</ele>
        <time>2020-06-30T13:35:46Z</time>
      </trkpt>
      <trkpt lat="48.7646" lon="4.53544">
        <ele>95.6</ele>
        <time>2020-06-30T13:35:47Z</time>
      </trkpt>
      <trkpt lat="48.76466" lon="4.53538">
        <ele>95.6</ele>
        <time>2020-06-30T13:35:48Z</time>
      </trkpt>
      <trkpt lat="48.76472" lon="4.53533">
        <ele>95.6</ele>
        <time>2020-06-30T13:35:49Z</time>
      </trkpt>
      <trkpt lat="48.76478" lon="4.53529">
        <ele>95.6</ele>
        <time>2020-06-30T13:35:50Z</time>
      </trkpt>
      <trkpt lat="48.76484" lon="4.53525">
        <ele>95.6</ele>
        <time>2020-06-30T13:35:51Z</time>
      </trkpt>
      <trkpt lat="48.76489" lon="4.53521">
        <ele>95.6</ele>
        <time>2020-06-30T13:35:52Z</time>
      </trkpt>
      <trkpt lat="48.76495" lon="4.53517">
        <ele>95.7</ele>
        <time>2020-06-30T13:35:53Z</time>
      </trkpt>
      <trkpt lat="48.765" lon="4.53512">
        <ele>95.7</ele>
        <time>2020-06-30T13:35:54Z</time>
      </trkpt>
      <trkpt lat="48.76504" lon="4.53507">
        <ele>95.8</ele>
        <time>2020-06-30T13:35:55Z</time>
      </trkpt>
      <trkpt lat="48.76508" lon="4.53502">
        <ele>95.8</ele>
        <time>2020-06-30T13:35:56Z</time>
      </trkpt>
      <trkpt lat="48.76515" lon="4.53502">
        <ele>95.7</ele>
        <time>2020-06-30T13:35:57Z</time>
      </trkpt>
      <trkpt lat="48.76521" lon="4.53497">
        <ele>95.7</ele>
        <time>2020-06-30T13:35:58Z</time>
      </trkpt>
      <trkpt lat="48.76526" lon="4.53492">
        <ele>95.6</ele>
        <time>2020-06-30T13:35:59Z</time>
      </trkpt>
      <trkpt lat="48.76532" lon="4.53489">
        <ele>95.5</ele>
        <time>2020-06-30T13:36:00Z</time>
      </trkpt>
      <trkpt lat="48.76538" lon="4.53484">
        <ele>95.4</ele>
        <time>2020-06-30T13:36:01Z</time>
      </trkpt>
      <trkpt lat="48.76544" lon="4.53479">
        <ele>95.3</ele>
        <time>2020-06-30T13:36:02Z</time>
      </trkpt>
      <trkpt lat="48.76549" lon="4.53473">
        <ele>95.3</ele>
        <time>2020-06-30T13:36:03Z</time>
      </trkpt>
      <trkpt lat="48.76555" lon="4.53468">
        <ele>95.2</ele>
        <time>2020-06-30T13:36:04Z</time>
      </trkpt>
      <trkpt lat="48.76562" lon="4.53462">
        <ele>95.2</ele>
        <time>2020-06-30T13:36:05Z</time>
      </trkpt>
      <trkpt lat="48.76568" lon="4.53457">
        <ele>95.1</ele>
        <time>2020-06-30T13:36:06Z</time>
      </trkpt>
      <trkpt lat="48.76575" lon="4.5345">
        <ele>95.1</ele>
        <time>2020-06-30T13:36:07Z</time>
      </trkpt>
      <trkpt lat="48.76581" lon="4.53444">
        <ele>95</ele>
        <time>2020-06-30T13:36:08Z</time>
      </trkpt>
      <trkpt lat="48.76588" lon="4.53437">
        <ele>94.9</ele>
        <time>2020-06-30T13:36:09Z</time>
      </trkpt>
      <trkpt lat="48.76595" lon="4.53429">
        <ele>94.8</ele>
        <time>2020-06-30T13:36:10Z</time>
      </trkpt>
      <trkpt lat="48.76601" lon="4.53422">
        <ele>94.7</ele>
        <time>2020-06-30T13:36:11Z</time>
      </trkpt>
      <trkpt lat="48.76608" lon="4.53414">
        <ele>94.7</ele>
        <time>2020-06-30T13:36:12Z</time>
      </trkpt>
      <trkpt lat="48.76615" lon="4.53406">
        <ele>94.7</ele>
        <time>2020-06-30T13:36:13Z</time>
      </trkpt>
      <trkpt lat="48.76621" lon="4.53398">
        <ele>94.7</ele>
        <time>2020-06-30T13:36:14Z</time>
      </trkpt>
      <trkpt lat="48.76628" lon="4.5339">
        <ele>94.6</ele>
        <time>2020-06-30T13:36:15Z</time>
      </trkpt>
      <trkpt lat="48.76635" lon="4.53382">
        <ele>94.6</ele>
        <time>2020-06-30T13:36:16Z</time>
      </trkpt>
      <trkpt lat="48.76642" lon="4.53373">
        <ele>94.6</ele>
        <time>2020-06-30T13:36:17Z</time>
      </trkpt>
      <trkpt lat="48.76649" lon="4.53365">
        <ele>94.6</ele>
        <time>2020-06-30T13:36:18Z</time>
      </trkpt>
      <trkpt lat="48.76655" lon="4.53356">
        <ele>94.6</ele>
        <time>2020-06-30T13:36:19Z</time>
      </trkpt>
      <trkpt lat="48.76662" lon="4.53348">
        <ele>94.5</ele>
        <time>2020-06-30T13:36:20Z</time>
      </trkpt>
      <trkpt lat="48.76669" lon="4.5334">
        <ele>94.5</ele>
        <time>2020-06-30T13:36:21Z</time>
      </trkpt>
      <trkpt lat="48.76675" lon="4.53331">
        <ele>94.4</ele>
        <time>2020-06-30T13:36:22Z</time>
      </trkpt>
      <trkpt lat="48.76682" lon="4.53323">
        <ele>94.4</ele>
        <time>2020-06-30T13:36:23Z</time>
      </trkpt>
      <trkpt lat="48.76689" lon="4.53315">
        <ele>94.4</ele>
        <time>2020-06-30T13:36:24Z</time>
      </trkpt>
      <trkpt lat="48.76696" lon="4.53307">
        <ele>94.4</ele>
        <time>2020-06-30T13:36:25Z</time>
      </trkpt>
      <trkpt lat="48.76702" lon="4.53299">
        <ele>94.3</ele>
        <time>2020-06-30T13:36:26Z</time>
      </trkpt>
      <trkpt lat="48.76709" lon="4.53291">
        <ele>94.4</ele>
        <time>2020-06-30T13:36:27Z</time>
      </trkpt>
      <trkpt lat="48.76715" lon="4.53283">
        <ele>94.4</ele>
        <time>2020-06-30T13:36:28Z</time>
      </trkpt>
      <trkpt lat="48.76722" lon="4.53276">
        <ele>94.4</ele>
        <time>2020-06-30T13:36:29Z</time>
      </trkpt>
      <trkpt lat="48.76728" lon="4.53267">
        <ele>94.4</ele>
        <time>2020-06-30T13:36:30Z</time>
      </trkpt>
      <trkpt lat="48.76734" lon="4.5326">
        <ele>94.4</ele>
        <time>2020-06-30T13:36:31Z</time>
      </trkpt>
      <trkpt lat="48.7674" lon="4.53252">
        <ele>94.5</ele>
        <time>2020-06-30T13:36:32Z</time>
      </trkpt>
      <trkpt lat="48.76746" lon="4.53244">
        <ele>94.5</ele>
        <time>2020-06-30T13:36:33Z</time>
      </trkpt>
      <trkpt lat="48.76752" lon="4.53236">
        <ele>94.5</ele>
        <time>2020-06-30T13:36:34Z</time>
      </trkpt>
      <trkpt lat="48.76759" lon="4.53229">
        <ele>94.5</ele>
        <time>2020-06-30T13:36:35Z</time>
      </trkpt>
      <trkpt lat="48.76765" lon="4.5322">
        <ele>94.6</ele>
        <time>2020-06-30T13:36:36Z</time>
      </trkpt>
      <trkpt lat="48.76771" lon="4.53212">
        <ele>94.6</ele>
        <time>2020-06-30T13:36:37Z</time>
      </trkpt>
      <trkpt lat="48.76777" lon="4.53204">
        <ele>94.6</ele>
        <time>2020-06-30T13:36:38Z</time>
      </trkpt>
      <trkpt lat="48.76784" lon="4.53196">
        <ele>94.6</ele>
        <time>2020-06-30T13:36:39Z</time>
      </trkpt>
      <trkpt lat="48.7679" lon="4.53189">
        <ele>94.6</ele>
        <time>2020-06-30T13:36:40Z</time>
      </trkpt>
      <trkpt lat="48.76796" lon="4.53182">
        <ele>94.6</ele>
        <time>2020-06-30T13:36:41Z</time>
      </trkpt>
      <trkpt lat="48.76802" lon="4.53174">
        <ele>94.5</ele>
        <time>2020-06-30T13:36:42Z</time>
      </trkpt>
      <trkpt lat="48.76808" lon="4.53166">
        <ele>94.5</ele>
        <time>2020-06-30T13:36:43Z</time>
      </trkpt>
      <trkpt lat="48.76814" lon="4.53159">
        <ele>94.6</ele>
        <time>2020-06-30T13:36:44Z</time>
      </trkpt>
      <trkpt lat="48.7682" lon="4.53151">
        <ele>94.6</ele>
        <time>2020-06-30T13:36:45Z</time>
      </trkpt>
      <trkpt lat="48.76826" lon="4.53144">
        <ele>94.6</ele>
        <time>2020-06-30T13:36:46Z</time>
      </trkpt>
      <trkpt lat="48.76831" lon="4.53137">
        <ele>94.7</ele>
        <time>2020-06-30T13:36:47Z</time>
      </trkpt>
      <trkpt lat="48.76837" lon="4.5313">
        <ele>94.7</ele>
        <time>2020-06-30T13:36:48Z</time>
      </trkpt>
      <trkpt lat="48.76843" lon="4.53123">
        <ele>94.7</ele>
        <time>2020-06-30T13:36:49Z</time>
      </trkpt>
      <trkpt lat="48.76849" lon="4.53116">
        <ele>94.8</ele>
        <time>2020-06-30T13:36:50Z</time>
      </trkpt>
      <trkpt lat="48.76854" lon="4.5311">
        <ele>94.8</ele>
        <time>2020-06-30T13:36:51Z</time>
      </trkpt>
      <trkpt lat="48.7686" lon="4.53103">
        <ele>94.8</ele>
        <time>2020-06-30T13:36:52Z</time>
      </trkpt>
      <trkpt lat="48.76866" lon="4.53097">
        <ele>94.9</ele>
        <time>2020-06-30T13:36:53Z</time>
      </trkpt>
      <trkpt lat="48.76871" lon="4.5309">
        <ele>94.9</ele>
        <time>2020-06-30T13:36:54Z</time>
      </trkpt>
      <trkpt lat="48.76877" lon="4.53084">
        <ele>94.9</ele>
        <time>2020-06-30T13:36:55Z</time>
      </trkpt>
      <trkpt lat="48.76882" lon="4.53078">
        <ele>95</ele>
        <time>2020-06-30T13:36:56Z</time>
      </trkpt>
      <trkpt lat="48.76887" lon="4.53072">
        <ele>95</ele>
        <time>2020-06-30T13:36:57Z</time>
      </trkpt>
      <trkpt lat="48.76893" lon="4.53066">
        <ele>95</ele>
        <time>2020-06-30T13:36:58Z</time>
      </trkpt>
      <trkpt lat="48.76898" lon="4.5306">
        <ele>95.1</ele>
        <time>2020-06-30T13:36:59Z</time>
      </trkpt>
      <trkpt lat="48.76903" lon="4.53054">
        <ele>95.1</ele>
        <time>2020-06-30T13:37:00Z</time>
      </trkpt>
      <trkpt lat="48.76908" lon="4.53048">
        <ele>95.2</ele>
        <time>2020-06-30T13:37:01Z</time>
      </trkpt>
      <trkpt lat="48.76914" lon="4.53042">
        <ele>95.2</ele>
        <time>2020-06-30T13:37:02Z</time>
      </trkpt>
      <trkpt lat="48.76919" lon="4.53036">
        <ele>95.3</ele>
        <time>2020-06-30T13:37:03Z</time>
      </trkpt>
      <trkpt lat="48.76924" lon="4.53029">
        <ele>95.3</ele>
        <time>2020-06-30T13:37:04Z</time>
      </trkpt>
      <trkpt lat="48.76929" lon="4.53024">
        <ele>95.3</ele>
        <time>2020-06-30T13:37:05Z</time>
      </trkpt>
      <trkpt lat="48.76935" lon="4.53018">
        <ele>95.3</ele>
        <time>2020-06-30T13:37:06Z</time>
      </trkpt>
      <trkpt lat="48.7694" lon="4.53012">
        <ele>95.3</ele>
        <time>2020-06-30T13:37:07Z</time>
      </trkpt>
      <trkpt lat="48.76946" lon="4.53006">
        <ele>95.2</ele>
        <time>2020-06-30T13:37:08Z</time>
      </trkpt>
      <trkpt lat="48.76951" lon="4.53">
        <ele>95.2</ele>
        <time>2020-06-30T13:37:09Z</time>
      </trkpt>
      <trkpt lat="48.76956" lon="4.52994">
        <ele>95.2</ele>
        <time>2020-06-30T13:37:10Z</time>
      </trkpt>
      <trkpt lat="48.76962" lon="4.52987">
        <ele>95.2</ele>
        <time>2020-06-30T13:37:11Z</time>
      </trkpt>
      <trkpt lat="48.76967" lon="4.52982">
        <ele>95.2</ele>
        <time>2020-06-30T13:37:12Z</time>
      </trkpt>
      <trkpt lat="48.76971" lon="4.52976">
        <ele>95.2</ele>
        <time>2020-06-30T13:37:13Z</time>
      </trkpt>
      <trkpt lat="48.76977" lon="4.52969">
        <ele>95.2</ele>
        <time>2020-06-30T13:37:14Z</time>
      </trkpt>
      <trkpt lat="48.76984" lon="4.52963">
        <ele>95.1</ele>
        <time>2020-06-30T13:37:15Z</time>
      </trkpt>
      <trkpt lat="48.76989" lon="4.52957">
        <ele>95.1</ele>
        <time>2020-06-30T13:37:16Z</time>
      </trkpt>
      <trkpt lat="48.76994" lon="4.52951">
        <ele>95.1</ele>
        <time>2020-06-30T13:37:17Z</time>
      </trkpt>
      <trkpt lat="48.76999" lon="4.52946">
        <ele>95</ele>
        <time>2020-06-30T13:37:18Z</time>
      </trkpt>
      <trkpt lat="48.77005" lon="4.5294">
        <ele>95</ele>
        <time>2020-06-30T13:37:19Z</time>
      </trkpt>
      <trkpt lat="48.7701" lon="4.52935">
        <ele>94.9</ele>
        <time>2020-06-30T13:37:20Z</time>
      </trkpt>
      <trkpt lat="48.77016" lon="4.52929">
        <ele>94.9</ele>
        <time>2020-06-30T13:37:21Z</time>
      </trkpt>
      <trkpt lat="48.77021" lon="4.52923">
        <ele>94.8</ele>
        <time>2020-06-30T13:37:22Z</time>
      </trkpt>
      <trkpt lat="48.77026" lon="4.52919">
        <ele>94.7</ele>
        <time>2020-06-30T13:37:23Z</time>
      </trkpt>
      <trkpt lat="48.77032" lon="4.52913">
        <ele>94.7</ele>
        <time>2020-06-30T13:37:24Z</time>
      </trkpt>
      <trkpt lat="48.77038" lon="4.52908">
        <ele>94.7</ele>
        <time>2020-06-30T13:37:25Z</time>
      </trkpt>
      <trkpt lat="48.77044" lon="4.52904">
        <ele>94.6</ele>
        <time>2020-06-30T13:37:26Z</time>
      </trkpt>
      <trkpt lat="48.7705" lon="4.52898">
        <ele>94.6</ele>
        <time>2020-06-30T13:37:27Z</time>
      </trkpt>
      <trkpt lat="48.77055" lon="4.52893">
        <ele>94.5</ele>
        <time>2020-06-30T13:37:28Z</time>
      </trkpt>
      <trkpt lat="48.77061" lon="4.52888">
        <ele>94.5</ele>
        <time>2020-06-30T13:37:29Z</time>
      </trkpt>
      <trkpt lat="48.77067" lon="4.52882">
        <ele>94.4</ele>
        <time>2020-06-30T13:37:30Z</time>
      </trkpt>
      <trkpt lat="48.77073" lon="4.52877">
        <ele>94.4</ele>
        <time>2020-06-30T13:37:31Z</time>
      </trkpt>
      <trkpt lat="48.77079" lon="4.52872">
        <ele>94.3</ele>
        <time>2020-06-30T13:37:32Z</time>
      </trkpt>
      <trkpt lat="48.77085" lon="4.52867">
        <ele>94.3</ele>
        <time>2020-06-30T13:37:33Z</time>
      </trkpt>
      <trkpt lat="48.77091" lon="4.52862">
        <ele>94.3</ele>
        <time>2020-06-30T13:37:34Z</time>
      </trkpt>
      <trkpt lat="48.77098" lon="4.52856">
        <ele>94.3</ele>
        <time>2020-06-30T13:37:35Z</time>
      </trkpt>
      <trkpt lat="48.77104" lon="4.52851">
        <ele>94.2</ele>
        <time>2020-06-30T13:37:36Z</time>
      </trkpt>
      <trkpt lat="48.77111" lon="4.52845">
        <ele>94.2</ele>
        <time>2020-06-30T13:37:37Z</time>
      </trkpt>
      <trkpt lat="48.77117" lon="4.52838">
        <ele>94.2</ele>
        <time>2020-06-30T13:37:38Z</time>
      </trkpt>
      <trkpt lat="48.77123" lon="4.52834">
        <ele>94.2</ele>
        <time>2020-06-30T13:37:39Z</time>
      </trkpt>
      <trkpt lat="48.7713" lon="4.52828">
        <ele>94.2</ele>
        <time>2020-06-30T13:37:40Z</time>
      </trkpt>
      <trkpt lat="48.77136" lon="4.52821">
        <ele>94.2</ele>
        <time>2020-06-30T13:37:41Z</time>
      </trkpt>
      <trkpt lat="48.77141" lon="4.52815">
        <ele>94.2</ele>
        <time>2020-06-30T13:37:42Z</time>
      </trkpt>
      <trkpt lat="48.77147" lon="4.52809">
        <ele>94.1</ele>
        <time>2020-06-30T13:37:43Z</time>
      </trkpt>
      <trkpt lat="48.77153" lon="4.52803">
        <ele>94.1</ele>
        <time>2020-06-30T13:37:44Z</time>
      </trkpt>
      <trkpt lat="48.77158" lon="4.52797">
        <ele>94.1</ele>
        <time>2020-06-30T13:37:45Z</time>
      </trkpt>
      <trkpt lat="48.77164" lon="4.52791">
        <ele>94.1</ele>
        <time>2020-06-30T13:37:46Z</time>
      </trkpt>
      <trkpt lat="48.7717" lon="4.52784">
        <ele>94.1</ele>
        <time>2020-06-30T13:37:47Z</time>
      </trkpt>
      <trkpt lat="48.77176" lon="4.52778">
        <ele>94</ele>
        <time>2020-06-30T13:37:48Z</time>
      </trkpt>
      <trkpt lat="48.77182" lon="4.52772">
        <ele>94</ele>
        <time>2020-06-30T13:37:49Z</time>
      </trkpt>
      <trkpt lat="48.77187" lon="4.52765">
        <ele>94</ele>
        <time>2020-06-30T13:37:50Z</time>
      </trkpt>
      <trkpt lat="48.77193" lon="4.52758">
        <ele>94</ele>
        <time>2020-06-30T13:37:51Z</time>
      </trkpt>
      <trkpt lat="48.77199" lon="4.52751">
        <ele>93.9</ele>
        <time>2020-06-30T13:37:52Z</time>
      </trkpt>
      <trkpt lat="48.77205" lon="4.52745">
        <ele>93.9</ele>
        <time>2020-06-30T13:37:53Z</time>
      </trkpt>
      <trkpt lat="48.7721" lon="4.52739">
        <ele>93.9</ele>
        <time>2020-06-30T13:37:54Z</time>
      </trkpt>
      <trkpt lat="48.77215" lon="4.52732">
        <ele>93.9</ele>
        <time>2020-06-30T13:37:55Z</time>
      </trkpt>
      <trkpt lat="48.77222" lon="4.52726">
        <ele>93.9</ele>
        <time>2020-06-30T13:37:56Z</time>
      </trkpt>
      <trkpt lat="48.77228" lon="4.5272">
        <ele>93.9</ele>
        <time>2020-06-30T13:37:57Z</time>
      </trkpt>
      <trkpt lat="48.77234" lon="4.52714">
        <ele>93.8</ele>
        <time>2020-06-30T13:37:58Z</time>
      </trkpt>
      <trkpt lat="48.77239" lon="4.52708">
        <ele>93.8</ele>
        <time>2020-06-30T13:37:59Z</time>
      </trkpt>
      <trkpt lat="48.77244" lon="4.52702">
        <ele>93.7</ele>
        <time>2020-06-30T13:38:00Z</time>
      </trkpt>
      <trkpt lat="48.7725" lon="4.52695">
        <ele>93.7</ele>
        <time>2020-06-30T13:38:01Z</time>
      </trkpt>
      <trkpt lat="48.77256" lon="4.52689">
        <ele>93.7</ele>
        <time>2020-06-30T13:38:02Z</time>
      </trkpt>
      <trkpt lat="48.77261" lon="4.52683">
        <ele>93.7</ele>
        <time>2020-06-30T13:38:03Z</time>
      </trkpt>
      <trkpt lat="48.77266" lon="4.52676">
        <ele>93.6</ele>
        <time>2020-06-30T13:38:04Z</time>
      </trkpt>
      <trkpt lat="48.77272" lon="4.52669">
        <ele>93.6</ele>
        <time>2020-06-30T13:38:05Z</time>
      </trkpt>
      <trkpt lat="48.77277" lon="4.52662">
        <ele>93.6</ele>
        <time>2020-06-30T13:38:06Z</time>
      </trkpt>
      <trkpt lat="48.77283" lon="4.52656">
        <ele>93.5</ele>
        <time>2020-06-30T13:38:07Z</time>
      </trkpt>
      <trkpt lat="48.7729" lon="4.52649">
        <ele>93.5</ele>
        <time>2020-06-30T13:38:08Z</time>
      </trkpt>
      <trkpt lat="48.77296" lon="4.52642">
        <ele>93.5</ele>
        <time>2020-06-30T13:38:09Z</time>
      </trkpt>
      <trkpt lat="48.77302" lon="4.52636">
        <ele>93.4</ele>
        <time>2020-06-30T13:38:10Z</time>
      </trkpt>
      <trkpt lat="48.77308" lon="4.52628">
        <ele>93.3</ele>
        <time>2020-06-30T13:38:11Z</time>
      </trkpt>
      <trkpt lat="48.77314" lon="4.52622">
        <ele>93.2</ele>
        <time>2020-06-30T13:38:12Z</time>
      </trkpt>
      <trkpt lat="48.7732" lon="4.52615">
        <ele>93.2</ele>
        <time>2020-06-30T13:38:13Z</time>
      </trkpt>
      <trkpt lat="48.77326" lon="4.52608">
        <ele>93.2</ele>
        <time>2020-06-30T13:38:14Z</time>
      </trkpt>
      <trkpt lat="48.77332" lon="4.52602">
        <ele>93.2</ele>
        <time>2020-06-30T13:38:15Z</time>
      </trkpt>
      <trkpt lat="48.77337" lon="4.52596">
        <ele>93.2</ele>
        <time>2020-06-30T13:38:16Z</time>
      </trkpt>
      <trkpt lat="48.77342" lon="4.52589">
        <ele>93.2</ele>
        <time>2020-06-30T13:38:17Z</time>
      </trkpt>
      <trkpt lat="48.77347" lon="4.52582">
        <ele>93.2</ele>
        <time>2020-06-30T13:38:18Z</time>
      </trkpt>
      <trkpt lat="48.77353" lon="4.52577">
        <ele>93.3</ele>
        <time>2020-06-30T13:38:19Z</time>
      </trkpt>
      <trkpt lat="48.77358" lon="4.52572">
        <ele>93.3</ele>
        <time>2020-06-30T13:38:20Z</time>
      </trkpt>
      <trkpt lat="48.77363" lon="4.52565">
        <ele>93.3</ele>
        <time>2020-06-30T13:38:21Z</time>
      </trkpt>
      <trkpt lat="48.77369" lon="4.5256">
        <ele>93.3</ele>
        <time>2020-06-30T13:38:22Z</time>
      </trkpt>
      <trkpt lat="48.77374" lon="4.52553">
        <ele>93.3</ele>
        <time>2020-06-30T13:38:23Z</time>
      </trkpt>
      <trkpt lat="48.77379" lon="4.52547">
        <ele>93.4</ele>
        <time>2020-06-30T13:38:24Z</time>
      </trkpt>
      <trkpt lat="48.77385" lon="4.52541">
        <ele>93.4</ele>
        <time>2020-06-30T13:38:25Z</time>
      </trkpt>
      <trkpt lat="48.7739" lon="4.52535">
        <ele>93.5</ele>
        <time>2020-06-30T13:38:26Z</time>
      </trkpt>
      <trkpt lat="48.77396" lon="4.52529">
        <ele>93.5</ele>
        <time>2020-06-30T13:38:27Z</time>
      </trkpt>
      <trkpt lat="48.77401" lon="4.52522">
        <ele>93.5</ele>
        <time>2020-06-30T13:38:28Z</time>
      </trkpt>
      <trkpt lat="48.77406" lon="4.52515">
        <ele>93.5</ele>
        <time>2020-06-30T13:38:29Z</time>
      </trkpt>
      <trkpt lat="48.77411" lon="4.52509">
        <ele>93.5</ele>
        <time>2020-06-30T13:38:30Z</time>
      </trkpt>
      <trkpt lat="48.77416" lon="4.52501">
        <ele>93.5</ele>
        <time>2020-06-30T13:38:31Z</time>
      </trkpt>
      <trkpt lat="48.77421" lon="4.52494">
        <ele>93.5</ele>
        <time>2020-06-30T13:38:32Z</time>
      </trkpt>
      <trkpt lat="48.77426" lon="4.52486">
        <ele>93.5</ele>
        <time>2020-06-30T13:38:33Z</time>
      </trkpt>
      <trkpt lat="48.77431" lon="4.52478">
        <ele>93.6</ele>
        <time>2020-06-30T13:38:34Z</time>
      </trkpt>
      <trkpt lat="48.77435" lon="4.52471">
        <ele>93.6</ele>
        <time>2020-06-30T13:38:35Z</time>
      </trkpt>
      <trkpt lat="48.7744" lon="4.52463">
        <ele>93.6</ele>
        <time>2020-06-30T13:38:36Z</time>
      </trkpt>
      <trkpt lat="48.77445" lon="4.52455">
        <ele>93.6</ele>
        <time>2020-06-30T13:38:37Z</time>
      </trkpt>
      <trkpt lat="48.7745" lon="4.52448">
        <ele>93.5</ele>
        <time>2020-06-30T13:38:38Z</time>
      </trkpt>
      <trkpt lat="48.77454" lon="4.52439">
        <ele>93.5</ele>
        <time>2020-06-30T13:38:39Z</time>
      </trkpt>
      <trkpt lat="48.77458" lon="4.5243">
        <ele>93.4</ele>
        <time>2020-06-30T13:38:40Z</time>
      </trkpt>
      <trkpt lat="48.77463" lon="4.52422">
        <ele>93.4</ele>
        <time>2020-06-30T13:38:41Z</time>
      </trkpt>
      <trkpt lat="48.77468" lon="4.52413">
        <ele>93.4</ele>
        <time>2020-06-30T13:38:42Z</time>
      </trkpt>
      <trkpt lat="48.77472" lon="4.52405">
        <ele>93.4</ele>
        <time>2020-06-30T13:38:43Z</time>
      </trkpt>
      <trkpt lat="48.77477" lon="4.52396">
        <ele>93.4</ele>
        <time>2020-06-30T13:38:44Z</time>
      </trkpt>
      <trkpt lat="48.77482" lon="4.52389">
        <ele>93.4</ele>
        <time>2020-06-30T13:38:45Z</time>
      </trkpt>
      <trkpt lat="48.77486" lon="4.52381">
        <ele>93.4</ele>
        <time>2020-06-30T13:38:46Z</time>
      </trkpt>
      <trkpt lat="48.7749" lon="4.52372">
        <ele>93.5</ele>
        <time>2020-06-30T13:38:47Z</time>
      </trkpt>
      <trkpt lat="48.77495" lon="4.52363">
        <ele>93.5</ele>
        <time>2020-06-30T13:38:48Z</time>
      </trkpt>
      <trkpt lat="48.77499" lon="4.52354">
        <ele>93.6</ele>
        <time>2020-06-30T13:38:49Z</time>
      </trkpt>
      <trkpt lat="48.77504" lon="4.52346">
        <ele>93.6</ele>
        <time>2020-06-30T13:38:50Z</time>
      </trkpt>
      <trkpt lat="48.77509" lon="4.52338">
        <ele>93.7</ele>
        <time>2020-06-30T13:38:51Z</time>
      </trkpt>
      <trkpt lat="48.77514" lon="4.5233">
        <ele>93.8</ele>
        <time>2020-06-30T13:38:52Z</time>
      </trkpt>
      <trkpt lat="48.77518" lon="4.52322">
        <ele>93.9</ele>
        <time>2020-06-30T13:38:53Z</time>
      </trkpt>
      <trkpt lat="48.77523" lon="4.52313">
        <ele>94</ele>
        <time>2020-06-30T13:38:54Z</time>
      </trkpt>
      <trkpt lat="48.77527" lon="4.52306">
        <ele>94.1</ele>
        <time>2020-06-30T13:38:55Z</time>
      </trkpt>
      <trkpt lat="48.77532" lon="4.52298">
        <ele>94.2</ele>
        <time>2020-06-30T13:38:56Z</time>
      </trkpt>
      <trkpt lat="48.77536" lon="4.5229">
        <ele>94.3</ele>
        <time>2020-06-30T13:38:57Z</time>
      </trkpt>
      <trkpt lat="48.77541" lon="4.52282">
        <ele>94.3</ele>
        <time>2020-06-30T13:38:58Z</time>
      </trkpt>
      <trkpt lat="48.77545" lon="4.52274">
        <ele>94.4</ele>
        <time>2020-06-30T13:38:59Z</time>
      </trkpt>
      <trkpt lat="48.7755" lon="4.52266">
        <ele>94.5</ele>
        <time>2020-06-30T13:39:00Z</time>
      </trkpt>
      <trkpt lat="48.77554" lon="4.52258">
        <ele>94.6</ele>
        <time>2020-06-30T13:39:01Z</time>
      </trkpt>
      <trkpt lat="48.77558" lon="4.52251">
        <ele>94.7</ele>
        <time>2020-06-30T13:39:02Z</time>
      </trkpt>
      <trkpt lat="48.77562" lon="4.52242">
        <ele>94.8</ele>
        <time>2020-06-30T13:39:03Z</time>
      </trkpt>
      <trkpt lat="48.77567" lon="4.52234">
        <ele>94.9</ele>
        <time>2020-06-30T13:39:04Z</time>
      </trkpt>
      <trkpt lat="48.77571" lon="4.52224">
        <ele>95</ele>
        <time>2020-06-30T13:39:05Z</time>
      </trkpt>
      <trkpt lat="48.77575" lon="4.52217">
        <ele>95.1</ele>
        <time>2020-06-30T13:39:06Z</time>
      </trkpt>
      <trkpt lat="48.77579" lon="4.52209">
        <ele>95.1</ele>
        <time>2020-06-30T13:39:07Z</time>
      </trkpt>
      <trkpt lat="48.77584" lon="4.522">
        <ele>95.2</ele>
        <time>2020-06-30T13:39:08Z</time>
      </trkpt>
      <trkpt lat="48.77589" lon="4.52192">
        <ele>95.2</ele>
        <time>2020-06-30T13:39:09Z</time>
      </trkpt>
      <trkpt lat="48.77593" lon="4.52184">
        <ele>95.3</ele>
        <time>2020-06-30T13:39:10Z</time>
      </trkpt>
      <trkpt lat="48.77597" lon="4.52177">
        <ele>95.3</ele>
        <time>2020-06-30T13:39:11Z</time>
      </trkpt>
      <trkpt lat="48.77601" lon="4.52169">
        <ele>95.4</ele>
        <time>2020-06-30T13:39:12Z</time>
      </trkpt>
      <trkpt lat="48.77606" lon="4.52162">
        <ele>95.4</ele>
        <time>2020-06-30T13:39:13Z</time>
      </trkpt>
      <trkpt lat="48.7761" lon="4.52154">
        <ele>95.5</ele>
        <time>2020-06-30T13:39:14Z</time>
      </trkpt>
      <trkpt lat="48.77615" lon="4.52146">
        <ele>95.5</ele>
        <time>2020-06-30T13:39:15Z</time>
      </trkpt>
      <trkpt lat="48.77621" lon="4.52138">
        <ele>95.6</ele>
        <time>2020-06-30T13:39:16Z</time>
      </trkpt>
      <trkpt lat="48.77624" lon="4.5213">
        <ele>95.6</ele>
        <time>2020-06-30T13:39:17Z</time>
      </trkpt>
      <trkpt lat="48.77628" lon="4.52122">
        <ele>95.6</ele>
        <time>2020-06-30T13:39:18Z</time>
      </trkpt>
      <trkpt lat="48.77633" lon="4.52114">
        <ele>95.6</ele>
        <time>2020-06-30T13:39:19Z</time>
      </trkpt>
      <trkpt lat="48.77637" lon="4.52106">
        <ele>95.6</ele>
        <time>2020-06-30T13:39:20Z</time>
      </trkpt>
      <trkpt lat="48.77641" lon="4.52098">
        <ele>95.6</ele>
        <time>2020-06-30T13:39:21Z</time>
      </trkpt>
      <trkpt lat="48.77645" lon="4.5209">
        <ele>95.7</ele>
        <time>2020-06-30T13:39:22Z</time>
      </trkpt>
      <trkpt lat="48.7765" lon="4.52081">
        <ele>95.7</ele>
        <time>2020-06-30T13:39:23Z</time>
      </trkpt>
      <trkpt lat="48.77655" lon="4.52074">
        <ele>95.7</ele>
        <time>2020-06-30T13:39:24Z</time>
      </trkpt>
      <trkpt lat="48.7766" lon="4.52066">
        <ele>95.8</ele>
        <time>2020-06-30T13:39:25Z</time>
      </trkpt>
      <trkpt lat="48.77664" lon="4.52058">
        <ele>95.8</ele>
        <time>2020-06-30T13:39:26Z</time>
      </trkpt>
      <trkpt lat="48.77669" lon="4.5205">
        <ele>95.8</ele>
        <time>2020-06-30T13:39:27Z</time>
      </trkpt>
      <trkpt lat="48.77672" lon="4.52042">
        <ele>95.9</ele>
        <time>2020-06-30T13:39:28Z</time>
      </trkpt>
      <trkpt lat="48.77677" lon="4.52035">
        <ele>95.9</ele>
        <time>2020-06-30T13:39:29Z</time>
      </trkpt>
      <trkpt lat="48.77681" lon="4.52026">
        <ele>95.9</ele>
        <time>2020-06-30T13:39:30Z</time>
      </trkpt>
      <trkpt lat="48.77685" lon="4.52017">
        <ele>95.9</ele>
        <time>2020-06-30T13:39:31Z</time>
      </trkpt>
      <trkpt lat="48.7769" lon="4.52009">
        <ele>95.9</ele>
        <time>2020-06-30T13:39:32Z</time>
      </trkpt>
      <trkpt lat="48.77694" lon="4.52002">
        <ele>95.9</ele>
        <time>2020-06-30T13:39:33Z</time>
      </trkpt>
      <trkpt lat="48.77698" lon="4.51995">
        <ele>95.9</ele>
        <time>2020-06-30T13:39:34Z</time>
      </trkpt>
      <trkpt lat="48.77702" lon="4.51986">
        <ele>95.9</ele>
        <time>2020-06-30T13:39:35Z</time>
      </trkpt>
      <trkpt lat="48.77706" lon="4.51978">
        <ele>96</ele>
        <time>2020-06-30T13:39:36Z</time>
      </trkpt>
      <trkpt lat="48.77711" lon="4.5197">
        <ele>96</ele>
        <time>2020-06-30T13:39:37Z</time>
      </trkpt>
      <trkpt lat="48.77715" lon="4.51962">
        <ele>96</ele>
        <time>2020-06-30T13:39:38Z</time>
      </trkpt>
      <trkpt lat="48.77719" lon="4.51955">
        <ele>96.1</ele>
        <time>2020-06-30T13:39:39Z</time>
      </trkpt>
      <trkpt lat="48.77725" lon="4.51949">
        <ele>96.1</ele>
        <time>2020-06-30T13:39:40Z</time>
      </trkpt>
      <trkpt lat="48.77729" lon="4.51941">
        <ele>96.1</ele>
        <time>2020-06-30T13:39:41Z</time>
      </trkpt>
      <trkpt lat="48.77734" lon="4.51934">
        <ele>96.2</ele>
        <time>2020-06-30T13:39:42Z</time>
      </trkpt>
      <trkpt lat="48.77738" lon="4.51927">
        <ele>96.2</ele>
        <time>2020-06-30T13:39:43Z</time>
      </trkpt>
      <trkpt lat="48.77741" lon="4.51919">
        <ele>96.2</ele>
        <time>2020-06-30T13:39:44Z</time>
      </trkpt>
      <trkpt lat="48.77745" lon="4.51912">
        <ele>96.2</ele>
        <time>2020-06-30T13:39:45Z</time>
      </trkpt>
      <trkpt lat="48.77749" lon="4.51905">
        <ele>96.2</ele>
        <time>2020-06-30T13:39:46Z</time>
      </trkpt>
      <trkpt lat="48.77753" lon="4.51897">
        <ele>96.3</ele>
        <time>2020-06-30T13:39:47Z</time>
      </trkpt>
      <trkpt lat="48.77757" lon="4.51889">
        <ele>96.3</ele>
        <time>2020-06-30T13:39:48Z</time>
      </trkpt>
      <trkpt lat="48.77762" lon="4.51882">
        <ele>96.3</ele>
        <time>2020-06-30T13:39:49Z</time>
      </trkpt>
      <trkpt lat="48.77765" lon="4.51875">
        <ele>96.3</ele>
        <time>2020-06-30T13:39:50Z</time>
      </trkpt>
      <trkpt lat="48.77769" lon="4.51868">
        <ele>96.4</ele>
        <time>2020-06-30T13:39:51Z</time>
      </trkpt>
      <trkpt lat="48.77772" lon="4.5186">
        <ele>96.4</ele>
        <time>2020-06-30T13:39:52Z</time>
      </trkpt>
      <trkpt lat="48.77777" lon="4.51853">
        <ele>96.5</ele>
        <time>2020-06-30T13:39:53Z</time>
      </trkpt>
      <trkpt lat="48.77781" lon="4.51845">
        <ele>96.5</ele>
        <time>2020-06-30T13:39:54Z</time>
      </trkpt>
      <trkpt lat="48.77785" lon="4.51836">
        <ele>96.6</ele>
        <time>2020-06-30T13:39:55Z</time>
      </trkpt>
      <trkpt lat="48.77788" lon="4.51829">
        <ele>96.6</ele>
        <time>2020-06-30T13:39:56Z</time>
      </trkpt>
      <trkpt lat="48.77792" lon="4.51821">
        <ele>96.7</ele>
        <time>2020-06-30T13:39:57Z</time>
      </trkpt>
      <trkpt lat="48.77795" lon="4.51816">
        <ele>96.7</ele>
        <time>2020-06-30T13:39:58Z</time>
      </trkpt>
      <trkpt lat="48.77799" lon="4.51809">
        <ele>96.8</ele>
        <time>2020-06-30T13:39:59Z</time>
      </trkpt>
      <trkpt lat="48.77803" lon="4.51802">
        <ele>96.8</ele>
        <time>2020-06-30T13:40:00Z</time>
      </trkpt>
      <trkpt lat="48.77805" lon="4.51794">
        <ele>96.8</ele>
        <time>2020-06-30T13:40:01Z</time>
      </trkpt>
      <trkpt lat="48.77809" lon="4.51787">
        <ele>96.8</ele>
        <time>2020-06-30T13:40:02Z</time>
      </trkpt>
      <trkpt lat="48.77813" lon="4.5178">
        <ele>96.7</ele>
        <time>2020-06-30T13:40:03Z</time>
      </trkpt>
      <trkpt lat="48.77817" lon="4.51774">
        <ele>96.7</ele>
        <time>2020-06-30T13:40:04Z</time>
      </trkpt>
      <trkpt lat="48.77821" lon="4.51768">
        <ele>96.7</ele>
        <time>2020-06-30T13:40:05Z</time>
      </trkpt>
      <trkpt lat="48.77825" lon="4.51759">
        <ele>96.7</ele>
        <time>2020-06-30T13:40:06Z</time>
      </trkpt>
      <trkpt lat="48.7783" lon="4.5175">
        <ele>96.7</ele>
        <time>2020-06-30T13:40:07Z</time>
      </trkpt>
      <trkpt lat="48.77835" lon="4.51742">
        <ele>96.7</ele>
        <time>2020-06-30T13:40:08Z</time>
      </trkpt>
      <trkpt lat="48.77839" lon="4.51735">
        <ele>96.7</ele>
        <time>2020-06-30T13:40:09Z</time>
      </trkpt>
      <trkpt lat="48.77843" lon="4.51728">
        <ele>96.8</ele>
        <time>2020-06-30T13:40:10Z</time>
      </trkpt>
      <trkpt lat="48.77847" lon="4.51721">
        <ele>96.8</ele>
        <time>2020-06-30T13:40:11Z</time>
      </trkpt>
      <trkpt lat="48.77851" lon="4.51714">
        <ele>96.8</ele>
        <time>2020-06-30T13:40:12Z</time>
      </trkpt>
      <trkpt lat="48.77855" lon="4.51707">
        <ele>96.7</ele>
        <time>2020-06-30T13:40:13Z</time>
      </trkpt>
      <trkpt lat="48.77859" lon="4.51701">
        <ele>96.6</ele>
        <time>2020-06-30T13:40:14Z</time>
      </trkpt>
      <trkpt lat="48.77863" lon="4.51695">
        <ele>96.5</ele>
        <time>2020-06-30T13:40:15Z</time>
      </trkpt>
      <trkpt lat="48.77867" lon="4.51691">
        <ele>96.4</ele>
        <time>2020-06-30T13:40:16Z</time>
      </trkpt>
      <trkpt lat="48.77871" lon="4.51685">
        <ele>96.3</ele>
        <time>2020-06-30T13:40:17Z</time>
      </trkpt>
      <trkpt lat="48.77876" lon="4.51681">
        <ele>96.2</ele>
        <time>2020-06-30T13:40:18Z</time>
      </trkpt>
      <trkpt lat="48.77882" lon="4.51677">
        <ele>96.2</ele>
        <time>2020-06-30T13:40:19Z</time>
      </trkpt>
      <trkpt lat="48.77888" lon="4.51674">
        <ele>96.2</ele>
        <time>2020-06-30T13:40:20Z</time>
      </trkpt>
      <trkpt lat="48.77895" lon="4.51671">
        <ele>96.2</ele>
        <time>2020-06-30T13:40:21Z</time>
      </trkpt>
      <trkpt lat="48.77902" lon="4.51669">
        <ele>96.2</ele>
        <time>2020-06-30T13:40:22Z</time>
      </trkpt>
      <trkpt lat="48.77908" lon="4.51669">
        <ele>96.2</ele>
        <time>2020-06-30T13:40:23Z</time>
      </trkpt>
      <trkpt lat="48.77914" lon="4.51667">
        <ele>96.2</ele>
        <time>2020-06-30T13:40:24Z</time>
      </trkpt>
      <trkpt lat="48.7792" lon="4.51666">
        <ele>96.2</ele>
        <time>2020-06-30T13:40:25Z</time>
      </trkpt>
      <trkpt lat="48.77926" lon="4.51665">
        <ele>96.1</ele>
        <time>2020-06-30T13:40:26Z</time>
      </trkpt>
      <trkpt lat="48.77932" lon="4.51663">
        <ele>96.1</ele>
        <time>2020-06-30T13:40:27Z</time>
      </trkpt>
      <trkpt lat="48.77939" lon="4.51663">
        <ele>96</ele>
        <time>2020-06-30T13:40:28Z</time>
      </trkpt>
      <trkpt lat="48.77945" lon="4.51661">
        <ele>95.9</ele>
        <time>2020-06-30T13:40:29Z</time>
      </trkpt>
      <trkpt lat="48.77952" lon="4.5166">
        <ele>95.8</ele>
        <time>2020-06-30T13:40:30Z</time>
      </trkpt>
      <trkpt lat="48.77958" lon="4.51658">
        <ele>95.8</ele>
        <time>2020-06-30T13:40:31Z</time>
      </trkpt>
      <trkpt lat="48.77964" lon="4.51657">
        <ele>95.7</ele>
        <time>2020-06-30T13:40:32Z</time>
      </trkpt>
      <trkpt lat="48.77971" lon="4.51656">
        <ele>95.6</ele>
        <time>2020-06-30T13:40:33Z</time>
      </trkpt>
      <trkpt lat="48.77976" lon="4.51655">
        <ele>95.6</ele>
        <time>2020-06-30T13:40:34Z</time>
      </trkpt>
      <trkpt lat="48.77983" lon="4.51654">
        <ele>95.5</ele>
        <time>2020-06-30T13:40:35Z</time>
      </trkpt>
      <trkpt lat="48.7799" lon="4.51654">
        <ele>95.4</ele>
        <time>2020-06-30T13:40:36Z</time>
      </trkpt>
      <trkpt lat="48.77996" lon="4.51653">
        <ele>95.3</ele>
        <time>2020-06-30T13:40:37Z</time>
      </trkpt>
      <trkpt lat="48.78002" lon="4.51654">
        <ele>95.2</ele>
        <time>2020-06-30T13:40:38Z</time>
      </trkpt>
      <trkpt lat="48.78009" lon="4.51655">
        <ele>95</ele>
        <time>2020-06-30T13:40:39Z</time>
      </trkpt>
      <trkpt lat="48.78016" lon="4.51656">
        <ele>94.9</ele>
        <time>2020-06-30T13:40:40Z</time>
      </trkpt>
      <trkpt lat="48.78022" lon="4.51658">
        <ele>94.8</ele>
        <time>2020-06-30T13:40:41Z</time>
      </trkpt>
      <trkpt lat="48.78028" lon="4.51661">
        <ele>94.7</ele>
        <time>2020-06-30T13:40:42Z</time>
      </trkpt>
      <trkpt lat="48.78035" lon="4.51663">
        <ele>94.6</ele>
        <time>2020-06-30T13:40:43Z</time>
      </trkpt>
      <trkpt lat="48.78041" lon="4.51667">
        <ele>94.5</ele>
        <time>2020-06-30T13:40:44Z</time>
      </trkpt>
      <trkpt lat="48.78047" lon="4.51669">
        <ele>94.4</ele>
        <time>2020-06-30T13:40:45Z</time>
      </trkpt>
      <trkpt lat="48.78052" lon="4.5167">
        <ele>94.3</ele>
        <time>2020-06-30T13:40:46Z</time>
      </trkpt>
      <trkpt lat="48.78059" lon="4.51669">
        <ele>94.2</ele>
        <time>2020-06-30T13:40:47Z</time>
      </trkpt>
      <trkpt lat="48.78065" lon="4.51669">
        <ele>94.1</ele>
        <time>2020-06-30T13:40:48Z</time>
      </trkpt>
      <trkpt lat="48.78071" lon="4.51667">
        <ele>94.1</ele>
        <time>2020-06-30T13:40:49Z</time>
      </trkpt>
      <trkpt lat="48.78077" lon="4.51667">
        <ele>93.9</ele>
        <time>2020-06-30T13:40:50Z</time>
      </trkpt>
      <trkpt lat="48.78084" lon="4.51666">
        <ele>93.8</ele>
        <time>2020-06-30T13:40:51Z</time>
      </trkpt>
      <trkpt lat="48.78091" lon="4.51665">
        <ele>93.7</ele>
        <time>2020-06-30T13:40:52Z</time>
      </trkpt>
      <trkpt lat="48.78099" lon="4.51664">
        <ele>93.6</ele>
        <time>2020-06-30T13:40:53Z</time>
      </trkpt>
      <trkpt lat="48.78106" lon="4.51664">
        <ele>93.4</ele>
        <time>2020-06-30T13:40:54Z</time>
      </trkpt>
      <trkpt lat="48.78114" lon="4.51663">
        <ele>93.3</ele>
        <time>2020-06-30T13:40:55Z</time>
      </trkpt>
      <trkpt lat="48.78121" lon="4.51664">
        <ele>93.2</ele>
        <time>2020-06-30T13:40:56Z</time>
      </trkpt>
      <trkpt lat="48.78127" lon="4.51665">
        <ele>93.1</ele>
        <time>2020-06-30T13:40:57Z</time>
      </trkpt>
      <trkpt lat="48.78135" lon="4.51665">
        <ele>93</ele>
        <time>2020-06-30T13:40:58Z</time>
      </trkpt>
      <trkpt lat="48.78141" lon="4.51665">
        <ele>92.9</ele>
        <time>2020-06-30T13:40:59Z</time>
      </trkpt>
      <trkpt lat="48.78149" lon="4.51666">
        <ele>92.8</ele>
        <time>2020-06-30T13:41:00Z</time>
      </trkpt>
      <trkpt lat="48.78157" lon="4.51667">
        <ele>92.7</ele>
        <time>2020-06-30T13:41:01Z</time>
      </trkpt>
      <trkpt lat="48.78165" lon="4.51669">
        <ele>92.7</ele>
        <time>2020-06-30T13:41:02Z</time>
      </trkpt>
      <trkpt lat="48.78172" lon="4.51669">
        <ele>92.6</ele>
        <time>2020-06-30T13:41:03Z</time>
      </trkpt>
      <trkpt lat="48.78179" lon="4.51669">
        <ele>92.6</ele>
        <time>2020-06-30T13:41:04Z</time>
      </trkpt>
      <trkpt lat="48.78186" lon="4.5167">
        <ele>92.6</ele>
        <time>2020-06-30T13:41:05Z</time>
      </trkpt>
      <trkpt lat="48.78193" lon="4.51671">
        <ele>92.5</ele>
        <time>2020-06-30T13:41:06Z</time>
      </trkpt>
      <trkpt lat="48.782" lon="4.51672">
        <ele>92.5</ele>
        <time>2020-06-30T13:41:07Z</time>
      </trkpt>
      <trkpt lat="48.78207" lon="4.51673">
        <ele>92.5</ele>
        <time>2020-06-30T13:41:08Z</time>
      </trkpt>
      <trkpt lat="48.78213" lon="4.51675">
        <ele>92.5</ele>
        <time>2020-06-30T13:41:09Z</time>
      </trkpt>
      <trkpt lat="48.7822" lon="4.51676">
        <ele>92.6</ele>
        <time>2020-06-30T13:41:10Z</time>
      </trkpt>
      <trkpt lat="48.78228" lon="4.51677">
        <ele>92.6</ele>
        <time>2020-06-30T13:41:11Z</time>
      </trkpt>
      <trkpt lat="48.78234" lon="4.51678">
        <ele>92.6</ele>
        <time>2020-06-30T13:41:12Z</time>
      </trkpt>
      <trkpt lat="48.78241" lon="4.5168">
        <ele>92.6</ele>
        <time>2020-06-30T13:41:13Z</time>
      </trkpt>
      <trkpt lat="48.78248" lon="4.51684">
        <ele>92.7</ele>
        <time>2020-06-30T13:41:14Z</time>
      </trkpt>
      <trkpt lat="48.78255" lon="4.51685">
        <ele>92.7</ele>
        <time>2020-06-30T13:41:15Z</time>
      </trkpt>
      <trkpt lat="48.78261" lon="4.51686">
        <ele>92.7</ele>
        <time>2020-06-30T13:41:16Z</time>
      </trkpt>
      <trkpt lat="48.78267" lon="4.51687">
        <ele>92.7</ele>
        <time>2020-06-30T13:41:17Z</time>
      </trkpt>
      <trkpt lat="48.78273" lon="4.51689">
        <ele>92.7</ele>
        <time>2020-06-30T13:41:18Z</time>
      </trkpt>
      <trkpt lat="48.78279" lon="4.51691">
        <ele>92.8</ele>
        <time>2020-06-30T13:41:19Z</time>
      </trkpt>
      <trkpt lat="48.78285" lon="4.51693">
        <ele>92.8</ele>
        <time>2020-06-30T13:41:20Z</time>
      </trkpt>
      <trkpt lat="48.7829" lon="4.51694">
        <ele>92.7</ele>
        <time>2020-06-30T13:41:21Z</time>
      </trkpt>
      <trkpt lat="48.78296" lon="4.51695">
        <ele>92.7</ele>
        <time>2020-06-30T13:41:22Z</time>
      </trkpt>
      <trkpt lat="48.78303" lon="4.51695">
        <ele>92.7</ele>
        <time>2020-06-30T13:41:23Z</time>
      </trkpt>
      <trkpt lat="48.78308" lon="4.51696">
        <ele>92.7</ele>
        <time>2020-06-30T13:41:24Z</time>
      </trkpt>
      <trkpt lat="48.78314" lon="4.51698">
        <ele>92.8</ele>
        <time>2020-06-30T13:41:25Z</time>
      </trkpt>
      <trkpt lat="48.7832" lon="4.517">
        <ele>92.8</ele>
        <time>2020-06-30T13:41:26Z</time>
      </trkpt>
      <trkpt lat="48.78326" lon="4.51702">
        <ele>92.9</ele>
        <time>2020-06-30T13:41:27Z</time>
      </trkpt>
      <trkpt lat="48.78332" lon="4.51703">
        <ele>92.9</ele>
        <time>2020-06-30T13:41:28Z</time>
      </trkpt>
      <trkpt lat="48.78339" lon="4.51704">
        <ele>93</ele>
        <time>2020-06-30T13:41:29Z</time>
      </trkpt>
      <trkpt lat="48.78345" lon="4.51707">
        <ele>93</ele>
        <time>2020-06-30T13:41:30Z</time>
      </trkpt>
      <trkpt lat="48.78351" lon="4.5171">
        <ele>93.1</ele>
        <time>2020-06-30T13:41:31Z</time>
      </trkpt>
      <trkpt lat="48.78358" lon="4.51711">
        <ele>93.1</ele>
        <time>2020-06-30T13:41:32Z</time>
      </trkpt>
      <trkpt lat="48.78365" lon="4.51712">
        <ele>93.2</ele>
        <time>2020-06-30T13:41:33Z</time>
      </trkpt>
      <trkpt lat="48.78371" lon="4.51714">
        <ele>93.2</ele>
        <time>2020-06-30T13:41:34Z</time>
      </trkpt>
      <trkpt lat="48.78378" lon="4.51716">
        <ele>93.3</ele>
        <time>2020-06-30T13:41:35Z</time>
      </trkpt>
      <trkpt lat="48.78384" lon="4.51718">
        <ele>93.3</ele>
        <time>2020-06-30T13:41:36Z</time>
      </trkpt>
      <trkpt lat="48.7839" lon="4.51719">
        <ele>93.4</ele>
        <time>2020-06-30T13:41:37Z</time>
      </trkpt>
      <trkpt lat="48.78397" lon="4.51721">
        <ele>93.4</ele>
        <time>2020-06-30T13:41:38Z</time>
      </trkpt>
      <trkpt lat="48.78403" lon="4.51723">
        <ele>93.4</ele>
        <time>2020-06-30T13:41:39Z</time>
      </trkpt>
      <trkpt lat="48.78409" lon="4.51726">
        <ele>93.4</ele>
        <time>2020-06-30T13:41:40Z</time>
      </trkpt>
      <trkpt lat="48.78415" lon="4.51728">
        <ele>93.5</ele>
        <time>2020-06-30T13:41:41Z</time>
      </trkpt>
      <trkpt lat="48.78421" lon="4.51729">
        <ele>93.5</ele>
        <time>2020-06-30T13:41:42Z</time>
      </trkpt>
      <trkpt lat="48.78427" lon="4.51731">
        <ele>93.5</ele>
        <time>2020-06-30T13:41:43Z</time>
      </trkpt>
      <trkpt lat="48.78433" lon="4.51733">
        <ele>93.6</ele>
        <time>2020-06-30T13:41:44Z</time>
      </trkpt>
      <trkpt lat="48.78439" lon="4.51735">
        <ele>93.6</ele>
        <time>2020-06-30T13:41:45Z</time>
      </trkpt>
      <trkpt lat="48.78445" lon="4.51736">
        <ele>93.6</ele>
        <time>2020-06-30T13:41:46Z</time>
      </trkpt>
      <trkpt lat="48.78451" lon="4.51739">
        <ele>93.6</ele>
        <time>2020-06-30T13:41:47Z</time>
      </trkpt>
      <trkpt lat="48.78457" lon="4.51741">
        <ele>93.6</ele>
        <time>2020-06-30T13:41:48Z</time>
      </trkpt>
      <trkpt lat="48.78463" lon="4.51743">
        <ele>93.6</ele>
        <time>2020-06-30T13:41:49Z</time>
      </trkpt>
      <trkpt lat="48.78469" lon="4.51743">
        <ele>93.6</ele>
        <time>2020-06-30T13:41:50Z</time>
      </trkpt>
      <trkpt lat="48.78475" lon="4.51743">
        <ele>93.6</ele>
        <time>2020-06-30T13:41:51Z</time>
      </trkpt>
      <trkpt lat="48.78481" lon="4.51744">
        <ele>93.5</ele>
        <time>2020-06-30T13:41:52Z</time>
      </trkpt>
      <trkpt lat="48.78487" lon="4.51745">
        <ele>93.5</ele>
        <time>2020-06-30T13:41:53Z</time>
      </trkpt>
      <trkpt lat="48.78493" lon="4.51745">
        <ele>93.5</ele>
        <time>2020-06-30T13:41:54Z</time>
      </trkpt>
      <trkpt lat="48.78499" lon="4.51746">
        <ele>93.5</ele>
        <time>2020-06-30T13:41:55Z</time>
      </trkpt>
      <trkpt lat="48.78506" lon="4.51747">
        <ele>93.4</ele>
        <time>2020-06-30T13:41:56Z</time>
      </trkpt>
      <trkpt lat="48.78512" lon="4.51746">
        <ele>93.4</ele>
        <time>2020-06-30T13:41:57Z</time>
      </trkpt>
      <trkpt lat="48.78519" lon="4.51745">
        <ele>93.4</ele>
        <time>2020-06-30T13:41:58Z</time>
      </trkpt>
      <trkpt lat="48.78525" lon="4.51743">
        <ele>93.4</ele>
        <time>2020-06-30T13:41:59Z</time>
      </trkpt>
      <trkpt lat="48.78531" lon="4.5174">
        <ele>93.4</ele>
        <time>2020-06-30T13:42:00Z</time>
      </trkpt>
      <trkpt lat="48.78538" lon="4.51738">
        <ele>93.3</ele>
        <time>2020-06-30T13:42:01Z</time>
      </trkpt>
      <trkpt lat="48.78544" lon="4.51734">
        <ele>93.3</ele>
        <time>2020-06-30T13:42:02Z</time>
      </trkpt>
      <trkpt lat="48.7855" lon="4.5173">
        <ele>93.3</ele>
        <time>2020-06-30T13:42:03Z</time>
      </trkpt>
      <trkpt lat="48.78556" lon="4.51727">
        <ele>93.2</ele>
        <time>2020-06-30T13:42:04Z</time>
      </trkpt>
      <trkpt lat="48.78562" lon="4.51724">
        <ele>93.2</ele>
        <time>2020-06-30T13:42:05Z</time>
      </trkpt>
      <trkpt lat="48.78568" lon="4.51721">
        <ele>93.1</ele>
        <time>2020-06-30T13:42:06Z</time>
      </trkpt>
      <trkpt lat="48.78575" lon="4.51718">
        <ele>93.1</ele>
        <time>2020-06-30T13:42:07Z</time>
      </trkpt>
      <trkpt lat="48.78581" lon="4.51716">
        <ele>93.1</ele>
        <time>2020-06-30T13:42:08Z</time>
      </trkpt>
      <trkpt lat="48.78587" lon="4.51713">
        <ele>93.1</ele>
        <time>2020-06-30T13:42:09Z</time>
      </trkpt>
      <trkpt lat="48.78593" lon="4.5171">
        <ele>93.1</ele>
        <time>2020-06-30T13:42:10Z</time>
      </trkpt>
      <trkpt lat="48.78599" lon="4.51707">
        <ele>93.1</ele>
        <time>2020-06-30T13:42:11Z</time>
      </trkpt>
      <trkpt lat="48.78606" lon="4.51704">
        <ele>93.1</ele>
        <time>2020-06-30T13:42:12Z</time>
      </trkpt>
      <trkpt lat="48.78612" lon="4.51702">
        <ele>93.1</ele>
        <time>2020-06-30T13:42:13Z</time>
      </trkpt>
      <trkpt lat="48.78618" lon="4.51699">
        <ele>93.1</ele>
        <time>2020-06-30T13:42:14Z</time>
      </trkpt>
      <trkpt lat="48.78624" lon="4.51696">
        <ele>93</ele>
        <time>2020-06-30T13:42:15Z</time>
      </trkpt>
      <trkpt lat="48.78631" lon="4.51693">
        <ele>93</ele>
        <time>2020-06-30T13:42:16Z</time>
      </trkpt>
      <trkpt lat="48.78637" lon="4.5169">
        <ele>92.9</ele>
        <time>2020-06-30T13:42:17Z</time>
      </trkpt>
      <trkpt lat="48.78643" lon="4.51687">
        <ele>92.9</ele>
        <time>2020-06-30T13:42:18Z</time>
      </trkpt>
      <trkpt lat="48.78649" lon="4.51684">
        <ele>92.9</ele>
        <time>2020-06-30T13:42:19Z</time>
      </trkpt>
      <trkpt lat="48.78656" lon="4.51681">
        <ele>92.8</ele>
        <time>2020-06-30T13:42:20Z</time>
      </trkpt>
      <trkpt lat="48.78662" lon="4.51678">
        <ele>92.8</ele>
        <time>2020-06-30T13:42:21Z</time>
      </trkpt>
      <trkpt lat="48.78668" lon="4.51675">
        <ele>92.7</ele>
        <time>2020-06-30T13:42:22Z</time>
      </trkpt>
      <trkpt lat="48.78674" lon="4.51672">
        <ele>92.7</ele>
        <time>2020-06-30T13:42:23Z</time>
      </trkpt>
      <trkpt lat="48.7868" lon="4.51669">
        <ele>92.7</ele>
        <time>2020-06-30T13:42:24Z</time>
      </trkpt>
      <trkpt lat="48.78687" lon="4.51666">
        <ele>92.7</ele>
        <time>2020-06-30T13:42:25Z</time>
      </trkpt>
      <trkpt lat="48.78693" lon="4.51663">
        <ele>92.7</ele>
        <time>2020-06-30T13:42:26Z</time>
      </trkpt>
      <trkpt lat="48.78699" lon="4.5166">
        <ele>92.7</ele>
        <time>2020-06-30T13:42:27Z</time>
      </trkpt>
      <trkpt lat="48.78705" lon="4.51656">
        <ele>92.7</ele>
        <time>2020-06-30T13:42:28Z</time>
      </trkpt>
      <trkpt lat="48.78711" lon="4.51652">
        <ele>92.7</ele>
        <time>2020-06-30T13:42:29Z</time>
      </trkpt>
      <trkpt lat="48.78717" lon="4.51649">
        <ele>92.8</ele>
        <time>2020-06-30T13:42:30Z</time>
      </trkpt>
      <trkpt lat="48.78723" lon="4.51644">
        <ele>92.8</ele>
        <time>2020-06-30T13:42:31Z</time>
      </trkpt>
      <trkpt lat="48.78728" lon="4.5164">
        <ele>92.8</ele>
        <time>2020-06-30T13:42:32Z</time>
      </trkpt>
      <trkpt lat="48.78734" lon="4.51637">
        <ele>92.8</ele>
        <time>2020-06-30T13:42:33Z</time>
      </trkpt>
      <trkpt lat="48.7874" lon="4.51632">
        <ele>92.8</ele>
        <time>2020-06-30T13:42:34Z</time>
      </trkpt>
      <trkpt lat="48.78745" lon="4.51626">
        <ele>92.8</ele>
        <time>2020-06-30T13:42:35Z</time>
      </trkpt>
      <trkpt lat="48.7875" lon="4.51621">
        <ele>92.8</ele>
        <time>2020-06-30T13:42:36Z</time>
      </trkpt>
      <trkpt lat="48.78755" lon="4.51616">
        <ele>92.8</ele>
        <time>2020-06-30T13:42:37Z</time>
      </trkpt>
      <trkpt lat="48.78761" lon="4.51611">
        <ele>92.8</ele>
        <time>2020-06-30T13:42:38Z</time>
      </trkpt>
      <trkpt lat="48.78766" lon="4.51606">
        <ele>92.8</ele>
        <time>2020-06-30T13:42:39Z</time>
      </trkpt>
      <trkpt lat="48.78771" lon="4.51601">
        <ele>92.8</ele>
        <time>2020-06-30T13:42:40Z</time>
      </trkpt>
      <trkpt lat="48.78776" lon="4.51596">
        <ele>92.8</ele>
        <time>2020-06-30T13:42:41Z</time>
      </trkpt>
      <trkpt lat="48.78781" lon="4.51591">
        <ele>92.8</ele>
        <time>2020-06-30T13:42:42Z</time>
      </trkpt>
      <trkpt lat="48.78786" lon="4.51586">
        <ele>92.8</ele>
        <time>2020-06-30T13:42:43Z</time>
      </trkpt>
      <trkpt lat="48.78791" lon="4.51582">
        <ele>92.8</ele>
        <time>2020-06-30T13:42:44Z</time>
      </trkpt>
      <trkpt lat="48.78796" lon="4.51579">
        <ele>92.8</ele>
        <time>2020-06-30T13:42:45Z</time>
      </trkpt>
      <trkpt lat="48.78801" lon="4.5157">
        <ele>92.8</ele>
        <time>2020-06-30T13:42:46Z</time>
      </trkpt>
      <trkpt lat="48.78806" lon="4.51566">
        <ele>92.8</ele>
        <time>2020-06-30T13:42:47Z</time>
      </trkpt>
      <trkpt lat="48.78811" lon="4.5156">
        <ele>92.8</ele>
        <time>2020-06-30T13:42:48Z</time>
      </trkpt>
      <trkpt lat="48.78816" lon="4.51556">
        <ele>92.8</ele>
        <time>2020-06-30T13:42:49Z</time>
      </trkpt>
      <trkpt lat="48.78821" lon="4.5155">
        <ele>92.7</ele>
        <time>2020-06-30T13:42:50Z</time>
      </trkpt>
      <trkpt lat="48.78826" lon="4.51546">
        <ele>92.7</ele>
        <time>2020-06-30T13:42:51Z</time>
      </trkpt>
      <trkpt lat="48.78831" lon="4.51541">
        <ele>92.7</ele>
        <time>2020-06-30T13:42:52Z</time>
      </trkpt>
      <trkpt lat="48.78836" lon="4.51535">
        <ele>92.7</ele>
        <time>2020-06-30T13:42:53Z</time>
      </trkpt>
      <trkpt lat="48.7884" lon="4.51529">
        <ele>92.7</ele>
        <time>2020-06-30T13:42:54Z</time>
      </trkpt>
      <trkpt lat="48.78845" lon="4.51523">
        <ele>92.7</ele>
        <time>2020-06-30T13:42:55Z</time>
      </trkpt>
      <trkpt lat="48.78849" lon="4.51517">
        <ele>92.7</ele>
        <time>2020-06-30T13:42:56Z</time>
      </trkpt>
      <trkpt lat="48.78855" lon="4.5151">
        <ele>92.7</ele>
        <time>2020-06-30T13:42:57Z</time>
      </trkpt>
      <trkpt lat="48.78861" lon="4.51504">
        <ele>92.7</ele>
        <time>2020-06-30T13:42:58Z</time>
      </trkpt>
      <trkpt lat="48.78867" lon="4.51496">
        <ele>92.7</ele>
        <time>2020-06-30T13:42:59Z</time>
      </trkpt>
      <trkpt lat="48.78872" lon="4.5149">
        <ele>92.7</ele>
        <time>2020-06-30T13:43:00Z</time>
      </trkpt>
      <trkpt lat="48.78878" lon="4.51484">
        <ele>92.7</ele>
        <time>2020-06-30T13:43:01Z</time>
      </trkpt>
      <trkpt lat="48.78883" lon="4.51478">
        <ele>92.7</ele>
        <time>2020-06-30T13:43:02Z</time>
      </trkpt>
      <trkpt lat="48.78889" lon="4.51472">
        <ele>92.7</ele>
        <time>2020-06-30T13:43:03Z</time>
      </trkpt>
      <trkpt lat="48.78894" lon="4.51466">
        <ele>92.8</ele>
        <time>2020-06-30T13:43:04Z</time>
      </trkpt>
      <trkpt lat="48.78899" lon="4.5146">
        <ele>92.8</ele>
        <time>2020-06-30T13:43:05Z</time>
      </trkpt>
      <trkpt lat="48.78905" lon="4.51454">
        <ele>92.8</ele>
        <time>2020-06-30T13:43:06Z</time>
      </trkpt>
      <trkpt lat="48.78911" lon="4.51448">
        <ele>92.8</ele>
        <time>2020-06-30T13:43:07Z</time>
      </trkpt>
      <trkpt lat="48.78916" lon="4.51442">
        <ele>92.8</ele>
        <time>2020-06-30T13:43:08Z</time>
      </trkpt>
      <trkpt lat="48.78922" lon="4.51436">
        <ele>92.9</ele>
        <time>2020-06-30T13:43:09Z</time>
      </trkpt>
      <trkpt lat="48.78928" lon="4.51429">
        <ele>92.9</ele>
        <time>2020-06-30T13:43:10Z</time>
      </trkpt>
      <trkpt lat="48.78934" lon="4.51423">
        <ele>92.9</ele>
        <time>2020-06-30T13:43:11Z</time>
      </trkpt>
      <trkpt lat="48.7894" lon="4.51415">
        <ele>92.9</ele>
        <time>2020-06-30T13:43:12Z</time>
      </trkpt>
      <trkpt lat="48.78946" lon="4.51407">
        <ele>92.9</ele>
        <time>2020-06-30T13:43:13Z</time>
      </trkpt>
      <trkpt lat="48.78952" lon="4.514">
        <ele>92.8</ele>
        <time>2020-06-30T13:43:14Z</time>
      </trkpt>
      <trkpt lat="48.78958" lon="4.51393">
        <ele>92.8</ele>
        <time>2020-06-30T13:43:15Z</time>
      </trkpt>
      <trkpt lat="48.78964" lon="4.51387">
        <ele>92.8</ele>
        <time>2020-06-30T13:43:16Z</time>
      </trkpt>
      <trkpt lat="48.7897" lon="4.51381">
        <ele>92.8</ele>
        <time>2020-06-30T13:43:17Z</time>
      </trkpt>
      <trkpt lat="48.78976" lon="4.51376">
        <ele>92.8</ele>
        <time>2020-06-30T13:43:18Z</time>
      </trkpt>
      <trkpt lat="48.78981" lon="4.51371">
        <ele>92.8</ele>
        <time>2020-06-30T13:43:19Z</time>
      </trkpt>
      <trkpt lat="48.78986" lon="4.51366">
        <ele>92.8</ele>
        <time>2020-06-30T13:43:20Z</time>
      </trkpt>
      <trkpt lat="48.78992" lon="4.5136">
        <ele>92.7</ele>
        <time>2020-06-30T13:43:21Z</time>
      </trkpt>
      <trkpt lat="48.78997" lon="4.51354">
        <ele>92.7</ele>
        <time>2020-06-30T13:43:22Z</time>
      </trkpt>
      <trkpt lat="48.79002" lon="4.51349">
        <ele>92.7</ele>
        <time>2020-06-30T13:43:23Z</time>
      </trkpt>
      <trkpt lat="48.79007" lon="4.51344">
        <ele>92.6</ele>
        <time>2020-06-30T13:43:24Z</time>
      </trkpt>
      <trkpt lat="48.79012" lon="4.51339">
        <ele>92.6</ele>
        <time>2020-06-30T13:43:25Z</time>
      </trkpt>
      <trkpt lat="48.79017" lon="4.51333">
        <ele>92.6</ele>
        <time>2020-06-30T13:43:26Z</time>
      </trkpt>
      <trkpt lat="48.79023" lon="4.51328">
        <ele>92.6</ele>
        <time>2020-06-30T13:43:27Z</time>
      </trkpt>
      <trkpt lat="48.79028" lon="4.51322">
        <ele>92.5</ele>
        <time>2020-06-30T13:43:28Z</time>
      </trkpt>
      <trkpt lat="48.79034" lon="4.51316">
        <ele>92.5</ele>
        <time>2020-06-30T13:43:29Z</time>
      </trkpt>
      <trkpt lat="48.79039" lon="4.5131">
        <ele>92.4</ele>
        <time>2020-06-30T13:43:30Z</time>
      </trkpt>
      <trkpt lat="48.79045" lon="4.51305">
        <ele>92.4</ele>
        <time>2020-06-30T13:43:31Z</time>
      </trkpt>
      <trkpt lat="48.79051" lon="4.51299">
        <ele>92.3</ele>
        <time>2020-06-30T13:43:32Z</time>
      </trkpt>
      <trkpt lat="48.79057" lon="4.51294">
        <ele>92.2</ele>
        <time>2020-06-30T13:43:33Z</time>
      </trkpt>
      <trkpt lat="48.79062" lon="4.51288">
        <ele>92.1</ele>
        <time>2020-06-30T13:43:34Z</time>
      </trkpt>
      <trkpt lat="48.79068" lon="4.51282">
        <ele>92</ele>
        <time>2020-06-30T13:43:35Z</time>
      </trkpt>
      <trkpt lat="48.79074" lon="4.51277">
        <ele>91.9</ele>
        <time>2020-06-30T13:43:36Z</time>
      </trkpt>
      <trkpt lat="48.79079" lon="4.51271">
        <ele>91.9</ele>
        <time>2020-06-30T13:43:37Z</time>
      </trkpt>
      <trkpt lat="48.79085" lon="4.51267">
        <ele>91.8</ele>
        <time>2020-06-30T13:43:38Z</time>
      </trkpt>
      <trkpt lat="48.79091" lon="4.51261">
        <ele>91.7</ele>
        <time>2020-06-30T13:43:39Z</time>
      </trkpt>
      <trkpt lat="48.79098" lon="4.51256">
        <ele>91.7</ele>
        <time>2020-06-30T13:43:40Z</time>
      </trkpt>
      <trkpt lat="48.79104" lon="4.51252">
        <ele>91.7</ele>
        <time>2020-06-30T13:43:41Z</time>
      </trkpt>
      <trkpt lat="48.7911" lon="4.51246">
        <ele>91.6</ele>
        <time>2020-06-30T13:43:42Z</time>
      </trkpt>
      <trkpt lat="48.79116" lon="4.51242">
        <ele>91.6</ele>
        <time>2020-06-30T13:43:43Z</time>
      </trkpt>
      <trkpt lat="48.79123" lon="4.51237">
        <ele>91.6</ele>
        <time>2020-06-30T13:43:44Z</time>
      </trkpt>
      <trkpt lat="48.79129" lon="4.51231">
        <ele>91.6</ele>
        <time>2020-06-30T13:43:45Z</time>
      </trkpt>
      <trkpt lat="48.79135" lon="4.51225">
        <ele>91.6</ele>
        <time>2020-06-30T13:43:46Z</time>
      </trkpt>
      <trkpt lat="48.79142" lon="4.5122">
        <ele>91.6</ele>
        <time>2020-06-30T13:43:47Z</time>
      </trkpt>
      <trkpt lat="48.79148" lon="4.51214">
        <ele>91.5</ele>
        <time>2020-06-30T13:43:48Z</time>
      </trkpt>
      <trkpt lat="48.79155" lon="4.51209">
        <ele>91.5</ele>
        <time>2020-06-30T13:43:49Z</time>
      </trkpt>
      <trkpt lat="48.79161" lon="4.51203">
        <ele>91.5</ele>
        <time>2020-06-30T13:43:50Z</time>
      </trkpt>
      <trkpt lat="48.79167" lon="4.51196">
        <ele>91.5</ele>
        <time>2020-06-30T13:43:51Z</time>
      </trkpt>
      <trkpt lat="48.79173" lon="4.51191">
        <ele>91.5</ele>
        <time>2020-06-30T13:43:52Z</time>
      </trkpt>
      <trkpt lat="48.79179" lon="4.51184">
        <ele>91.5</ele>
        <time>2020-06-30T13:43:53Z</time>
      </trkpt>
      <trkpt lat="48.79186" lon="4.5118">
        <ele>91.5</ele>
        <time>2020-06-30T13:43:54Z</time>
      </trkpt>
      <trkpt lat="48.79193" lon="4.51174">
        <ele>91.6</ele>
        <time>2020-06-30T13:43:55Z</time>
      </trkpt>
      <trkpt lat="48.792" lon="4.51169">
        <ele>91.6</ele>
        <time>2020-06-30T13:43:56Z</time>
      </trkpt>
      <trkpt lat="48.79206" lon="4.51163">
        <ele>91.7</ele>
        <time>2020-06-30T13:43:57Z</time>
      </trkpt>
      <trkpt lat="48.79212" lon="4.51158">
        <ele>91.7</ele>
        <time>2020-06-30T13:43:58Z</time>
      </trkpt>
      <trkpt lat="48.79219" lon="4.51151">
        <ele>91.8</ele>
        <time>2020-06-30T13:43:59Z</time>
      </trkpt>
      <trkpt lat="48.79225" lon="4.51146">
        <ele>91.8</ele>
        <time>2020-06-30T13:44:00Z</time>
      </trkpt>
      <trkpt lat="48.79232" lon="4.51141">
        <ele>91.8</ele>
        <time>2020-06-30T13:44:01Z</time>
      </trkpt>
      <trkpt lat="48.79238" lon="4.51135">
        <ele>91.9</ele>
        <time>2020-06-30T13:44:02Z</time>
      </trkpt>
      <trkpt lat="48.79244" lon="4.51129">
        <ele>91.9</ele>
        <time>2020-06-30T13:44:03Z</time>
      </trkpt>
      <trkpt lat="48.79251" lon="4.51123">
        <ele>92</ele>
        <time>2020-06-30T13:44:04Z</time>
      </trkpt>
      <trkpt lat="48.79257" lon="4.51118">
        <ele>92</ele>
        <time>2020-06-30T13:44:05Z</time>
      </trkpt>
      <trkpt lat="48.79263" lon="4.51113">
        <ele>92.1</ele>
        <time>2020-06-30T13:44:06Z</time>
      </trkpt>
      <trkpt lat="48.7927" lon="4.51108">
        <ele>92.1</ele>
        <time>2020-06-30T13:44:07Z</time>
      </trkpt>
      <trkpt lat="48.79276" lon="4.51103">
        <ele>92.2</ele>
        <time>2020-06-30T13:44:08Z</time>
      </trkpt>
      <trkpt lat="48.79282" lon="4.51098">
        <ele>92.2</ele>
        <time>2020-06-30T13:44:09Z</time>
      </trkpt>
      <trkpt lat="48.79289" lon="4.51093">
        <ele>92.2</ele>
        <time>2020-06-30T13:44:10Z</time>
      </trkpt>
      <trkpt lat="48.79295" lon="4.51088">
        <ele>92.2</ele>
        <time>2020-06-30T13:44:11Z</time>
      </trkpt>
      <trkpt lat="48.79301" lon="4.51083">
        <ele>92.2</ele>
        <time>2020-06-30T13:44:12Z</time>
      </trkpt>
      <trkpt lat="48.79307" lon="4.51079">
        <ele>92.2</ele>
        <time>2020-06-30T13:44:13Z</time>
      </trkpt>
      <trkpt lat="48.79313" lon="4.51074">
        <ele>92.2</ele>
        <time>2020-06-30T13:44:14Z</time>
      </trkpt>
      <trkpt lat="48.79319" lon="4.5107">
        <ele>92.3</ele>
        <time>2020-06-30T13:44:15Z</time>
      </trkpt>
      <trkpt lat="48.79326" lon="4.51066">
        <ele>92.3</ele>
        <time>2020-06-30T13:44:16Z</time>
      </trkpt>
      <trkpt lat="48.79332" lon="4.51061">
        <ele>92.3</ele>
        <time>2020-06-30T13:44:17Z</time>
      </trkpt>
      <trkpt lat="48.79338" lon="4.51057">
        <ele>92.3</ele>
        <time>2020-06-30T13:44:18Z</time>
      </trkpt>
      <trkpt lat="48.79345" lon="4.51053">
        <ele>92.3</ele>
        <time>2020-06-30T13:44:19Z</time>
      </trkpt>
      <trkpt lat="48.79351" lon="4.51049">
        <ele>92.3</ele>
        <time>2020-06-30T13:44:20Z</time>
      </trkpt>
      <trkpt lat="48.79358" lon="4.51045">
        <ele>92.3</ele>
        <time>2020-06-30T13:44:21Z</time>
      </trkpt>
      <trkpt lat="48.79364" lon="4.51042">
        <ele>92.3</ele>
        <time>2020-06-30T13:44:22Z</time>
      </trkpt>
      <trkpt lat="48.79371" lon="4.51038">
        <ele>92.3</ele>
        <time>2020-06-30T13:44:23Z</time>
      </trkpt>
      <trkpt lat="48.79378" lon="4.51034">
        <ele>92.4</ele>
        <time>2020-06-30T13:44:24Z</time>
      </trkpt>
      <trkpt lat="48.79384" lon="4.5103">
        <ele>92.5</ele>
        <time>2020-06-30T13:44:25Z</time>
      </trkpt>
      <trkpt lat="48.79391" lon="4.51026">
        <ele>92.6</ele>
        <time>2020-06-30T13:44:26Z</time>
      </trkpt>
      <trkpt lat="48.79397" lon="4.51022">
        <ele>92.8</ele>
        <time>2020-06-30T13:44:27Z</time>
      </trkpt>
      <trkpt lat="48.79404" lon="4.51019">
        <ele>93.2</ele>
        <time>2020-06-30T13:44:28Z</time>
      </trkpt>
      <trkpt lat="48.7941" lon="4.51015">
        <ele>93.4</ele>
        <time>2020-06-30T13:44:29Z</time>
      </trkpt>
      <trkpt lat="48.79416" lon="4.51011">
        <ele>93.5</ele>
        <time>2020-06-30T13:44:30Z</time>
      </trkpt>
      <trkpt lat="48.79423" lon="4.51007">
        <ele>93.5</ele>
        <time>2020-06-30T13:44:31Z</time>
      </trkpt>
      <trkpt lat="48.79429" lon="4.51004">
        <ele>93.5</ele>
        <time>2020-06-30T13:44:32Z</time>
      </trkpt>
      <trkpt lat="48.79436" lon="4.51001">
        <ele>93.5</ele>
        <time>2020-06-30T13:44:33Z</time>
      </trkpt>
      <trkpt lat="48.79443" lon="4.50998">
        <ele>93.5</ele>
        <time>2020-06-30T13:44:34Z</time>
      </trkpt>
      <trkpt lat="48.7945" lon="4.50995">
        <ele>93.4</ele>
        <time>2020-06-30T13:44:35Z</time>
      </trkpt>
      <trkpt lat="48.79456" lon="4.50992">
        <ele>93.4</ele>
        <time>2020-06-30T13:44:36Z</time>
      </trkpt>
      <trkpt lat="48.79463" lon="4.50989">
        <ele>93.4</ele>
        <time>2020-06-30T13:44:37Z</time>
      </trkpt>
      <trkpt lat="48.7947" lon="4.50986">
        <ele>93.3</ele>
        <time>2020-06-30T13:44:38Z</time>
      </trkpt>
      <trkpt lat="48.79477" lon="4.50983">
        <ele>93.3</ele>
        <time>2020-06-30T13:44:39Z</time>
      </trkpt>
      <trkpt lat="48.79484" lon="4.50979">
        <ele>93.3</ele>
        <time>2020-06-30T13:44:40Z</time>
      </trkpt>
      <trkpt lat="48.7949" lon="4.50975">
        <ele>93.3</ele>
        <time>2020-06-30T13:44:41Z</time>
      </trkpt>
      <trkpt lat="48.79496" lon="4.50972">
        <ele>93.3</ele>
        <time>2020-06-30T13:44:42Z</time>
      </trkpt>
      <trkpt lat="48.79503" lon="4.50969">
        <ele>93.3</ele>
        <time>2020-06-30T13:44:43Z</time>
      </trkpt>
      <trkpt lat="48.79509" lon="4.50966">
        <ele>93.3</ele>
        <time>2020-06-30T13:44:44Z</time>
      </trkpt>
      <trkpt lat="48.79516" lon="4.50963">
        <ele>93.3</ele>
        <time>2020-06-30T13:44:45Z</time>
      </trkpt>
      <trkpt lat="48.79522" lon="4.50959">
        <ele>93.2</ele>
        <time>2020-06-30T13:44:46Z</time>
      </trkpt>
      <trkpt lat="48.79529" lon="4.50956">
        <ele>93.2</ele>
        <time>2020-06-30T13:44:47Z</time>
      </trkpt>
      <trkpt lat="48.79535" lon="4.50952">
        <ele>93.2</ele>
        <time>2020-06-30T13:44:48Z</time>
      </trkpt>
      <trkpt lat="48.79542" lon="4.50949">
        <ele>93.2</ele>
        <time>2020-06-30T13:44:49Z</time>
      </trkpt>
      <trkpt lat="48.79548" lon="4.50946">
        <ele>93.1</ele>
        <time>2020-06-30T13:44:50Z</time>
      </trkpt>
      <trkpt lat="48.79555" lon="4.50942">
        <ele>93.1</ele>
        <time>2020-06-30T13:44:51Z</time>
      </trkpt>
      <trkpt lat="48.79562" lon="4.50939">
        <ele>93</ele>
        <time>2020-06-30T13:44:52Z</time>
      </trkpt>
      <trkpt lat="48.79569" lon="4.50936">
        <ele>93</ele>
        <time>2020-06-30T13:44:53Z</time>
      </trkpt>
      <trkpt lat="48.79575" lon="4.50933">
        <ele>93</ele>
        <time>2020-06-30T13:44:54Z</time>
      </trkpt>
      <trkpt lat="48.79582" lon="4.5093">
        <ele>93</ele>
        <time>2020-06-30T13:44:55Z</time>
      </trkpt>
      <trkpt lat="48.79589" lon="4.50926">
        <ele>93</ele>
        <time>2020-06-30T13:44:56Z</time>
      </trkpt>
      <trkpt lat="48.79596" lon="4.50923">
        <ele>93</ele>
        <time>2020-06-30T13:44:57Z</time>
      </trkpt>
      <trkpt lat="48.79602" lon="4.5092">
        <ele>92.9</ele>
        <time>2020-06-30T13:44:58Z</time>
      </trkpt>
      <trkpt lat="48.79609" lon="4.50917">
        <ele>92.9</ele>
        <time>2020-06-30T13:44:59Z</time>
      </trkpt>
      <trkpt lat="48.79616" lon="4.50914">
        <ele>92.9</ele>
        <time>2020-06-30T13:45:00Z</time>
      </trkpt>
      <trkpt lat="48.79623" lon="4.50911">
        <ele>92.9</ele>
        <time>2020-06-30T13:45:01Z</time>
      </trkpt>
      <trkpt lat="48.7963" lon="4.50908">
        <ele>92.9</ele>
        <time>2020-06-30T13:45:02Z</time>
      </trkpt>
      <trkpt lat="48.79637" lon="4.50905">
        <ele>93</ele>
        <time>2020-06-30T13:45:03Z</time>
      </trkpt>
      <trkpt lat="48.79643" lon="4.50902">
        <ele>93</ele>
        <time>2020-06-30T13:45:04Z</time>
      </trkpt>
      <trkpt lat="48.7965" lon="4.50899">
        <ele>93</ele>
        <time>2020-06-30T13:45:05Z</time>
      </trkpt>
      <trkpt lat="48.79656" lon="4.50896">
        <ele>93</ele>
        <time>2020-06-30T13:45:06Z</time>
      </trkpt>
      <trkpt lat="48.79663" lon="4.50893">
        <ele>93</ele>
        <time>2020-06-30T13:45:07Z</time>
      </trkpt>
      <trkpt lat="48.79669" lon="4.5089">
        <ele>93.1</ele>
        <time>2020-06-30T13:45:08Z</time>
      </trkpt>
      <trkpt lat="48.79676" lon="4.50887">
        <ele>93.1</ele>
        <time>2020-06-30T13:45:09Z</time>
      </trkpt>
      <trkpt lat="48.79682" lon="4.50884">
        <ele>93.1</ele>
        <time>2020-06-30T13:45:10Z</time>
      </trkpt>
      <trkpt lat="48.79689" lon="4.50881">
        <ele>93.2</ele>
        <time>2020-06-30T13:45:11Z</time>
      </trkpt>
      <trkpt lat="48.79695" lon="4.50878">
        <ele>93.2</ele>
        <time>2020-06-30T13:45:12Z</time>
      </trkpt>
      <trkpt lat="48.79701" lon="4.50874">
        <ele>93.2</ele>
        <time>2020-06-30T13:45:13Z</time>
      </trkpt>
      <trkpt lat="48.79708" lon="4.50871">
        <ele>93.3</ele>
        <time>2020-06-30T13:45:14Z</time>
      </trkpt>
      <trkpt lat="48.79714" lon="4.50868">
        <ele>93.3</ele>
        <time>2020-06-30T13:45:15Z</time>
      </trkpt>
      <trkpt lat="48.79721" lon="4.50864">
        <ele>93.2</ele>
        <time>2020-06-30T13:45:16Z</time>
      </trkpt>
      <trkpt lat="48.79727" lon="4.50861">
        <ele>93.2</ele>
        <time>2020-06-30T13:45:17Z</time>
      </trkpt>
      <trkpt lat="48.79734" lon="4.50858">
        <ele>93.1</ele>
        <time>2020-06-30T13:45:18Z</time>
      </trkpt>
      <trkpt lat="48.7974" lon="4.50855">
        <ele>93.1</ele>
        <time>2020-06-30T13:45:19Z</time>
      </trkpt>
      <trkpt lat="48.79747" lon="4.50851">
        <ele>93</ele>
        <time>2020-06-30T13:45:20Z</time>
      </trkpt>
      <trkpt lat="48.79753" lon="4.50847">
        <ele>92.9</ele>
        <time>2020-06-30T13:45:21Z</time>
      </trkpt>
      <trkpt lat="48.7976" lon="4.50841">
        <ele>92.9</ele>
        <time>2020-06-30T13:45:22Z</time>
      </trkpt>
      <trkpt lat="48.79766" lon="4.50837">
        <ele>92.8</ele>
        <time>2020-06-30T13:45:23Z</time>
      </trkpt>
      <trkpt lat="48.79772" lon="4.50832">
        <ele>92.8</ele>
        <time>2020-06-30T13:45:24Z</time>
      </trkpt>
      <trkpt lat="48.79779" lon="4.50828">
        <ele>92.7</ele>
        <time>2020-06-30T13:45:25Z</time>
      </trkpt>
      <trkpt lat="48.79785" lon="4.50823">
        <ele>92.7</ele>
        <time>2020-06-30T13:45:26Z</time>
      </trkpt>
      <trkpt lat="48.79791" lon="4.50819">
        <ele>92.6</ele>
        <time>2020-06-30T13:45:27Z</time>
      </trkpt>
      <trkpt lat="48.79797" lon="4.50815">
        <ele>92.6</ele>
        <time>2020-06-30T13:45:28Z</time>
      </trkpt>
      <trkpt lat="48.79803" lon="4.5081">
        <ele>92.5</ele>
        <time>2020-06-30T13:45:29Z</time>
      </trkpt>
      <trkpt lat="48.7981" lon="4.50806">
        <ele>92.5</ele>
        <time>2020-06-30T13:45:30Z</time>
      </trkpt>
      <trkpt lat="48.79816" lon="4.50802">
        <ele>92.4</ele>
        <time>2020-06-30T13:45:31Z</time>
      </trkpt>
      <trkpt lat="48.79821" lon="4.50796">
        <ele>92.4</ele>
        <time>2020-06-30T13:45:32Z</time>
      </trkpt>
      <trkpt lat="48.79828" lon="4.50792">
        <ele>92.3</ele>
        <time>2020-06-30T13:45:33Z</time>
      </trkpt>
      <trkpt lat="48.79834" lon="4.50787">
        <ele>92.3</ele>
        <time>2020-06-30T13:45:34Z</time>
      </trkpt>
      <trkpt lat="48.79841" lon="4.50783">
        <ele>92.3</ele>
        <time>2020-06-30T13:45:35Z</time>
      </trkpt>
      <trkpt lat="48.79847" lon="4.50778">
        <ele>92.3</ele>
        <time>2020-06-30T13:45:36Z</time>
      </trkpt>
      <trkpt lat="48.79853" lon="4.50772">
        <ele>92.3</ele>
        <time>2020-06-30T13:45:37Z</time>
      </trkpt>
      <trkpt lat="48.79859" lon="4.50767">
        <ele>92.2</ele>
        <time>2020-06-30T13:45:38Z</time>
      </trkpt>
      <trkpt lat="48.79865" lon="4.50763">
        <ele>92.2</ele>
        <time>2020-06-30T13:45:39Z</time>
      </trkpt>
      <trkpt lat="48.79871" lon="4.50758">
        <ele>92.2</ele>
        <time>2020-06-30T13:45:40Z</time>
      </trkpt>
      <trkpt lat="48.79877" lon="4.50753">
        <ele>92.2</ele>
        <time>2020-06-30T13:45:41Z</time>
      </trkpt>
      <trkpt lat="48.79883" lon="4.50747">
        <ele>92.1</ele>
        <time>2020-06-30T13:45:42Z</time>
      </trkpt>
      <trkpt lat="48.7989" lon="4.50742">
        <ele>92</ele>
        <time>2020-06-30T13:45:43Z</time>
      </trkpt>
      <trkpt lat="48.79896" lon="4.50736">
        <ele>91.9</ele>
        <time>2020-06-30T13:45:44Z</time>
      </trkpt>
      <trkpt lat="48.79902" lon="4.5073">
        <ele>91.9</ele>
        <time>2020-06-30T13:45:45Z</time>
      </trkpt>
      <trkpt lat="48.79908" lon="4.50724">
        <ele>91.9</ele>
        <time>2020-06-30T13:45:46Z</time>
      </trkpt>
      <trkpt lat="48.79914" lon="4.50719">
        <ele>91.9</ele>
        <time>2020-06-30T13:45:47Z</time>
      </trkpt>
      <trkpt lat="48.7992" lon="4.50712">
        <ele>91.8</ele>
        <time>2020-06-30T13:45:48Z</time>
      </trkpt>
      <trkpt lat="48.79925" lon="4.50706">
        <ele>91.8</ele>
        <time>2020-06-30T13:45:49Z</time>
      </trkpt>
      <trkpt lat="48.79931" lon="4.507">
        <ele>91.7</ele>
        <time>2020-06-30T13:45:50Z</time>
      </trkpt>
      <trkpt lat="48.79937" lon="4.50694">
        <ele>91.7</ele>
        <time>2020-06-30T13:45:51Z</time>
      </trkpt>
      <trkpt lat="48.79942" lon="4.50688">
        <ele>91.7</ele>
        <time>2020-06-30T13:45:52Z</time>
      </trkpt>
      <trkpt lat="48.79948" lon="4.50683">
        <ele>91.7</ele>
        <time>2020-06-30T13:45:53Z</time>
      </trkpt>
      <trkpt lat="48.79954" lon="4.50676">
        <ele>91.7</ele>
        <time>2020-06-30T13:45:54Z</time>
      </trkpt>
      <trkpt lat="48.79959" lon="4.50671">
        <ele>91.7</ele>
        <time>2020-06-30T13:45:55Z</time>
      </trkpt>
      <trkpt lat="48.79965" lon="4.50665">
        <ele>91.7</ele>
        <time>2020-06-30T13:45:56Z</time>
      </trkpt>
      <trkpt lat="48.79971" lon="4.50659">
        <ele>91.7</ele>
        <time>2020-06-30T13:45:57Z</time>
      </trkpt>
      <trkpt lat="48.79977" lon="4.50653">
        <ele>91.7</ele>
        <time>2020-06-30T13:45:58Z</time>
      </trkpt>
      <trkpt lat="48.79983" lon="4.50648">
        <ele>91.7</ele>
        <time>2020-06-30T13:45:59Z</time>
      </trkpt>
      <trkpt lat="48.79988" lon="4.50642">
        <ele>91.7</ele>
        <time>2020-06-30T13:46:00Z</time>
      </trkpt>
      <trkpt lat="48.79993" lon="4.50637">
        <ele>91.7</ele>
        <time>2020-06-30T13:46:01Z</time>
      </trkpt>
      <trkpt lat="48.79998" lon="4.50631">
        <ele>91.7</ele>
        <time>2020-06-30T13:46:02Z</time>
      </trkpt>
      <trkpt lat="48.80004" lon="4.50626">
        <ele>91.7</ele>
        <time>2020-06-30T13:46:03Z</time>
      </trkpt>
      <trkpt lat="48.80009" lon="4.5062">
        <ele>91.7</ele>
        <time>2020-06-30T13:46:04Z</time>
      </trkpt>
      <trkpt lat="48.80014" lon="4.50615">
        <ele>91.6</ele>
        <time>2020-06-30T13:46:05Z</time>
      </trkpt>
      <trkpt lat="48.80018" lon="4.5061">
        <ele>91.6</ele>
        <time>2020-06-30T13:46:06Z</time>
      </trkpt>
      <trkpt lat="48.80023" lon="4.50604">
        <ele>91.5</ele>
        <time>2020-06-30T13:46:07Z</time>
      </trkpt>
      <trkpt lat="48.80027" lon="4.50599">
        <ele>91.4</ele>
        <time>2020-06-30T13:46:08Z</time>
      </trkpt>
      <trkpt lat="48.80032" lon="4.50593">
        <ele>91.4</ele>
        <time>2020-06-30T13:46:09Z</time>
      </trkpt>
      <trkpt lat="48.80038" lon="4.5059">
        <ele>91.3</ele>
        <time>2020-06-30T13:46:10Z</time>
      </trkpt>
      <trkpt lat="48.80043" lon="4.50584">
        <ele>91.3</ele>
        <time>2020-06-30T13:46:11Z</time>
      </trkpt>
      <trkpt lat="48.80048" lon="4.50578">
        <ele>91.2</ele>
        <time>2020-06-30T13:46:12Z</time>
      </trkpt>
      <trkpt lat="48.80054" lon="4.50573">
        <ele>91.1</ele>
        <time>2020-06-30T13:46:13Z</time>
      </trkpt>
      <trkpt lat="48.80059" lon="4.50567">
        <ele>91.1</ele>
        <time>2020-06-30T13:46:14Z</time>
      </trkpt>
      <trkpt lat="48.80066" lon="4.50564">
        <ele>91</ele>
        <time>2020-06-30T13:46:15Z</time>
      </trkpt>
      <trkpt lat="48.80072" lon="4.50559">
        <ele>91</ele>
        <time>2020-06-30T13:46:16Z</time>
      </trkpt>
      <trkpt lat="48.80077" lon="4.50552">
        <ele>90.9</ele>
        <time>2020-06-30T13:46:17Z</time>
      </trkpt>
      <trkpt lat="48.80082" lon="4.50544">
        <ele>90.8</ele>
        <time>2020-06-30T13:46:18Z</time>
      </trkpt>
      <trkpt lat="48.80087" lon="4.50537">
        <ele>90.8</ele>
        <time>2020-06-30T13:46:19Z</time>
      </trkpt>
      <trkpt lat="48.80092" lon="4.50531">
        <ele>90.7</ele>
        <time>2020-06-30T13:46:20Z</time>
      </trkpt>
      <trkpt lat="48.80097" lon="4.50523">
        <ele>90.7</ele>
        <time>2020-06-30T13:46:21Z</time>
      </trkpt>
      <trkpt lat="48.80103" lon="4.50516">
        <ele>90.6</ele>
        <time>2020-06-30T13:46:22Z</time>
      </trkpt>
      <trkpt lat="48.80108" lon="4.50509">
        <ele>90.6</ele>
        <time>2020-06-30T13:46:23Z</time>
      </trkpt>
      <trkpt lat="48.80113" lon="4.50502">
        <ele>90.5</ele>
        <time>2020-06-30T13:46:24Z</time>
      </trkpt>
      <trkpt lat="48.80118" lon="4.50495">
        <ele>90.5</ele>
        <time>2020-06-30T13:46:25Z</time>
      </trkpt>
      <trkpt lat="48.80122" lon="4.50488">
        <ele>90.4</ele>
        <time>2020-06-30T13:46:26Z</time>
      </trkpt>
      <trkpt lat="48.80127" lon="4.50482">
        <ele>90.4</ele>
        <time>2020-06-30T13:46:27Z</time>
      </trkpt>
      <trkpt lat="48.80132" lon="4.50475">
        <ele>90.3</ele>
        <time>2020-06-30T13:46:28Z</time>
      </trkpt>
      <trkpt lat="48.80137" lon="4.50467">
        <ele>90.3</ele>
        <time>2020-06-30T13:46:29Z</time>
      </trkpt>
      <trkpt lat="48.80142" lon="4.5046">
        <ele>90.2</ele>
        <time>2020-06-30T13:46:30Z</time>
      </trkpt>
      <trkpt lat="48.80147" lon="4.50453">
        <ele>90.2</ele>
        <time>2020-06-30T13:46:31Z</time>
      </trkpt>
      <trkpt lat="48.80152" lon="4.50445">
        <ele>90.1</ele>
        <time>2020-06-30T13:46:32Z</time>
      </trkpt>
      <trkpt lat="48.80158" lon="4.50439">
        <ele>90.1</ele>
        <time>2020-06-30T13:46:33Z</time>
      </trkpt>
      <trkpt lat="48.80163" lon="4.50432">
        <ele>90.2</ele>
        <time>2020-06-30T13:46:34Z</time>
      </trkpt>
      <trkpt lat="48.80169" lon="4.50425">
        <ele>90.2</ele>
        <time>2020-06-30T13:46:35Z</time>
      </trkpt>
      <trkpt lat="48.80174" lon="4.50418">
        <ele>90.3</ele>
        <time>2020-06-30T13:46:36Z</time>
      </trkpt>
      <trkpt lat="48.8018" lon="4.50411">
        <ele>90.2</ele>
        <time>2020-06-30T13:46:37Z</time>
      </trkpt>
      <trkpt lat="48.80185" lon="4.50403">
        <ele>90.2</ele>
        <time>2020-06-30T13:46:38Z</time>
      </trkpt>
      <trkpt lat="48.8019" lon="4.50396">
        <ele>90.1</ele>
        <time>2020-06-30T13:46:39Z</time>
      </trkpt>
      <trkpt lat="48.80195" lon="4.50388">
        <ele>90.1</ele>
        <time>2020-06-30T13:46:40Z</time>
      </trkpt>
      <trkpt lat="48.80199" lon="4.5038">
        <ele>90.1</ele>
        <time>2020-06-30T13:46:41Z</time>
      </trkpt>
      <trkpt lat="48.80204" lon="4.50372">
        <ele>90.1</ele>
        <time>2020-06-30T13:46:42Z</time>
      </trkpt>
      <trkpt lat="48.80208" lon="4.50364">
        <ele>90.2</ele>
        <time>2020-06-30T13:46:43Z</time>
      </trkpt>
      <trkpt lat="48.80213" lon="4.50356">
        <ele>90.2</ele>
        <time>2020-06-30T13:46:44Z</time>
      </trkpt>
      <trkpt lat="48.80216" lon="4.50347">
        <ele>90.3</ele>
        <time>2020-06-30T13:46:45Z</time>
      </trkpt>
      <trkpt lat="48.8022" lon="4.50339">
        <ele>90.3</ele>
        <time>2020-06-30T13:46:46Z</time>
      </trkpt>
      <trkpt lat="48.80225" lon="4.50331">
        <ele>90.2</ele>
        <time>2020-06-30T13:46:47Z</time>
      </trkpt>
      <trkpt lat="48.80228" lon="4.50323">
        <ele>90.2</ele>
        <time>2020-06-30T13:46:48Z</time>
      </trkpt>
      <trkpt lat="48.80232" lon="4.50314">
        <ele>90.2</ele>
        <time>2020-06-30T13:46:49Z</time>
      </trkpt>
      <trkpt lat="48.80236" lon="4.50306">
        <ele>90.2</ele>
        <time>2020-06-30T13:46:50Z</time>
      </trkpt>
      <trkpt lat="48.8024" lon="4.50297">
        <ele>90.2</ele>
        <time>2020-06-30T13:46:51Z</time>
      </trkpt>
      <trkpt lat="48.80244" lon="4.50289">
        <ele>90.3</ele>
        <time>2020-06-30T13:46:52Z</time>
      </trkpt>
      <trkpt lat="48.80248" lon="4.50281">
        <ele>90.4</ele>
        <time>2020-06-30T13:46:53Z</time>
      </trkpt>
      <trkpt lat="48.80251" lon="4.50273">
        <ele>90.4</ele>
        <time>2020-06-30T13:46:54Z</time>
      </trkpt>
      <trkpt lat="48.80255" lon="4.50265">
        <ele>90.5</ele>
        <time>2020-06-30T13:46:55Z</time>
      </trkpt>
      <trkpt lat="48.80259" lon="4.50257">
        <ele>90.5</ele>
        <time>2020-06-30T13:46:56Z</time>
      </trkpt>
      <trkpt lat="48.80263" lon="4.50249">
        <ele>90.5</ele>
        <time>2020-06-30T13:46:57Z</time>
      </trkpt>
      <trkpt lat="48.80266" lon="4.50241">
        <ele>90.6</ele>
        <time>2020-06-30T13:46:58Z</time>
      </trkpt>
      <trkpt lat="48.80269" lon="4.50233">
        <ele>90.6</ele>
        <time>2020-06-30T13:46:59Z</time>
      </trkpt>
      <trkpt lat="48.80272" lon="4.50224">
        <ele>90.6</ele>
        <time>2020-06-30T13:47:00Z</time>
      </trkpt>
      <trkpt lat="48.80275" lon="4.50216">
        <ele>90.6</ele>
        <time>2020-06-30T13:47:01Z</time>
      </trkpt>
      <trkpt lat="48.80278" lon="4.50207">
        <ele>90.6</ele>
        <time>2020-06-30T13:47:02Z</time>
      </trkpt>
      <trkpt lat="48.8028" lon="4.50199">
        <ele>90.5</ele>
        <time>2020-06-30T13:47:03Z</time>
      </trkpt>
      <trkpt lat="48.80282" lon="4.5019">
        <ele>90.5</ele>
        <time>2020-06-30T13:47:04Z</time>
      </trkpt>
      <trkpt lat="48.80284" lon="4.50181">
        <ele>90.5</ele>
        <time>2020-06-30T13:47:05Z</time>
      </trkpt>
      <trkpt lat="48.80284" lon="4.50172">
        <ele>90.6</ele>
        <time>2020-06-30T13:47:06Z</time>
      </trkpt>
      <trkpt lat="48.80284" lon="4.50163">
        <ele>90.6</ele>
        <time>2020-06-30T13:47:07Z</time>
      </trkpt>
      <trkpt lat="48.80284" lon="4.50154">
        <ele>90.7</ele>
        <time>2020-06-30T13:47:08Z</time>
      </trkpt>
      <trkpt lat="48.80284" lon="4.50145">
        <ele>90.7</ele>
        <time>2020-06-30T13:47:09Z</time>
      </trkpt>
      <trkpt lat="48.80282" lon="4.50136">
        <ele>90.8</ele>
        <time>2020-06-30T13:47:10Z</time>
      </trkpt>
      <trkpt lat="48.80282" lon="4.50127">
        <ele>90.9</ele>
        <time>2020-06-30T13:47:11Z</time>
      </trkpt>
      <trkpt lat="48.80281" lon="4.50118">
        <ele>90.9</ele>
        <time>2020-06-30T13:47:12Z</time>
      </trkpt>
      <trkpt lat="48.80281" lon="4.5011">
        <ele>91</ele>
        <time>2020-06-30T13:47:13Z</time>
      </trkpt>
      <trkpt lat="48.80281" lon="4.50101">
        <ele>91.1</ele>
        <time>2020-06-30T13:47:14Z</time>
      </trkpt>
      <trkpt lat="48.80281" lon="4.50092">
        <ele>91.2</ele>
        <time>2020-06-30T13:47:15Z</time>
      </trkpt>
      <trkpt lat="48.80282" lon="4.50083">
        <ele>91.3</ele>
        <time>2020-06-30T13:47:16Z</time>
      </trkpt>
      <trkpt lat="48.80282" lon="4.50074">
        <ele>91.3</ele>
        <time>2020-06-30T13:47:17Z</time>
      </trkpt>
      <trkpt lat="48.80281" lon="4.50065">
        <ele>91.4</ele>
        <time>2020-06-30T13:47:18Z</time>
      </trkpt>
      <trkpt lat="48.8028" lon="4.50056">
        <ele>91.5</ele>
        <time>2020-06-30T13:47:19Z</time>
      </trkpt>
      <trkpt lat="48.80279" lon="4.50048">
        <ele>91.5</ele>
        <time>2020-06-30T13:47:20Z</time>
      </trkpt>
      <trkpt lat="48.80279" lon="4.50039">
        <ele>91.6</ele>
        <time>2020-06-30T13:47:21Z</time>
      </trkpt>
      <trkpt lat="48.80277" lon="4.50031">
        <ele>91.6</ele>
        <time>2020-06-30T13:47:22Z</time>
      </trkpt>
      <trkpt lat="48.80277" lon="4.50023">
        <ele>91.6</ele>
        <time>2020-06-30T13:47:23Z</time>
      </trkpt>
      <trkpt lat="48.80276" lon="4.50014">
        <ele>91.6</ele>
        <time>2020-06-30T13:47:24Z</time>
      </trkpt>
      <trkpt lat="48.80275" lon="4.50006">
        <ele>91.6</ele>
        <time>2020-06-30T13:47:25Z</time>
      </trkpt>
      <trkpt lat="48.80275" lon="4.49997">
        <ele>91.6</ele>
        <time>2020-06-30T13:47:26Z</time>
      </trkpt>
      <trkpt lat="48.80271" lon="4.4999">
        <ele>91.7</ele>
        <time>2020-06-30T13:47:27Z</time>
      </trkpt>
      <trkpt lat="48.80268" lon="4.49982">
        <ele>91.7</ele>
        <time>2020-06-30T13:47:28Z</time>
      </trkpt>
      <trkpt lat="48.80267" lon="4.49973">
        <ele>91.8</ele>
        <time>2020-06-30T13:47:29Z</time>
      </trkpt>
      <trkpt lat="48.80265" lon="4.49965">
        <ele>91.9</ele>
        <time>2020-06-30T13:47:30Z</time>
      </trkpt>
      <trkpt lat="48.80264" lon="4.49956">
        <ele>91.9</ele>
        <time>2020-06-30T13:47:31Z</time>
      </trkpt>
      <trkpt lat="48.80262" lon="4.49948">
        <ele>92</ele>
        <time>2020-06-30T13:47:32Z</time>
      </trkpt>
      <trkpt lat="48.8026" lon="4.4994">
        <ele>92.1</ele>
        <time>2020-06-30T13:47:33Z</time>
      </trkpt>
      <trkpt lat="48.80257" lon="4.49933">
        <ele>92.1</ele>
        <time>2020-06-30T13:47:34Z</time>
      </trkpt>
      <trkpt lat="48.80253" lon="4.49926">
        <ele>92.2</ele>
        <time>2020-06-30T13:47:35Z</time>
      </trkpt>
      <trkpt lat="48.8025" lon="4.49919">
        <ele>92.2</ele>
        <time>2020-06-30T13:47:36Z</time>
      </trkpt>
      <trkpt lat="48.80246" lon="4.49912">
        <ele>92.3</ele>
        <time>2020-06-30T13:47:37Z</time>
      </trkpt>
      <trkpt lat="48.80244" lon="4.49905">
        <ele>92.4</ele>
        <time>2020-06-30T13:47:38Z</time>
      </trkpt>
      <trkpt lat="48.80241" lon="4.49898">
        <ele>92.5</ele>
        <time>2020-06-30T13:47:39Z</time>
      </trkpt>
      <trkpt lat="48.80239" lon="4.4989">
        <ele>92.6</ele>
        <time>2020-06-30T13:47:40Z</time>
      </trkpt>
      <trkpt lat="48.80237" lon="4.49883">
        <ele>92.6</ele>
        <time>2020-06-30T13:47:41Z</time>
      </trkpt>
      <trkpt lat="48.80235" lon="4.49875">
        <ele>92.7</ele>
        <time>2020-06-30T13:47:42Z</time>
      </trkpt>
      <trkpt lat="48.80231" lon="4.49868">
        <ele>92.7</ele>
        <time>2020-06-30T13:47:43Z</time>
      </trkpt>
      <trkpt lat="48.80228" lon="4.4986">
        <ele>92.8</ele>
        <time>2020-06-30T13:47:44Z</time>
      </trkpt>
      <trkpt lat="48.80225" lon="4.49852">
        <ele>92.9</ele>
        <time>2020-06-30T13:47:45Z</time>
      </trkpt>
      <trkpt lat="48.80222" lon="4.49843">
        <ele>93</ele>
        <time>2020-06-30T13:47:46Z</time>
      </trkpt>
      <trkpt lat="48.8022" lon="4.49835">
        <ele>93</ele>
        <time>2020-06-30T13:47:47Z</time>
      </trkpt>
      <trkpt lat="48.80217" lon="4.49826">
        <ele>93.1</ele>
        <time>2020-06-30T13:47:48Z</time>
      </trkpt>
      <trkpt lat="48.80216" lon="4.49818">
        <ele>93.2</ele>
        <time>2020-06-30T13:47:49Z</time>
      </trkpt>
      <trkpt lat="48.80213" lon="4.49809">
        <ele>93.3</ele>
        <time>2020-06-30T13:47:50Z</time>
      </trkpt>
      <trkpt lat="48.80211" lon="4.498">
        <ele>93.4</ele>
        <time>2020-06-30T13:47:51Z</time>
      </trkpt>
      <trkpt lat="48.80208" lon="4.49792">
        <ele>93.5</ele>
        <time>2020-06-30T13:47:52Z</time>
      </trkpt>
      <trkpt lat="48.80205" lon="4.49784">
        <ele>93.6</ele>
        <time>2020-06-30T13:47:53Z</time>
      </trkpt>
      <trkpt lat="48.80201" lon="4.49777">
        <ele>93.7</ele>
        <time>2020-06-30T13:47:54Z</time>
      </trkpt>
      <trkpt lat="48.80199" lon="4.49768">
        <ele>93.8</ele>
        <time>2020-06-30T13:47:55Z</time>
      </trkpt>
      <trkpt lat="48.80197" lon="4.4976">
        <ele>93.8</ele>
        <time>2020-06-30T13:47:56Z</time>
      </trkpt>
      <trkpt lat="48.80195" lon="4.49751">
        <ele>93.8</ele>
        <time>2020-06-30T13:47:57Z</time>
      </trkpt>
      <trkpt lat="48.80192" lon="4.49743">
        <ele>93.8</ele>
        <time>2020-06-30T13:47:58Z</time>
      </trkpt>
      <trkpt lat="48.8019" lon="4.49735">
        <ele>93.9</ele>
        <time>2020-06-30T13:47:59Z</time>
      </trkpt>
      <trkpt lat="48.80186" lon="4.49727">
        <ele>93.9</ele>
        <time>2020-06-30T13:48:00Z</time>
      </trkpt>
      <trkpt lat="48.80182" lon="4.49719">
        <ele>94</ele>
        <time>2020-06-30T13:48:01Z</time>
      </trkpt>
      <trkpt lat="48.80178" lon="4.49709">
        <ele>94.1</ele>
        <time>2020-06-30T13:48:02Z</time>
      </trkpt>
      <trkpt lat="48.80172" lon="4.49701">
        <ele>94.2</ele>
        <time>2020-06-30T13:48:03Z</time>
      </trkpt>
      <trkpt lat="48.80168" lon="4.49693">
        <ele>94.2</ele>
        <time>2020-06-30T13:48:04Z</time>
      </trkpt>
      <trkpt lat="48.80166" lon="4.49688">
        <ele>94.2</ele>
        <time>2020-06-30T13:48:05Z</time>
      </trkpt>
      <trkpt lat="48.80162" lon="4.49681">
        <ele>94.2</ele>
        <time>2020-06-30T13:48:06Z</time>
      </trkpt>
      <trkpt lat="48.80157" lon="4.49669">
        <ele>94.2</ele>
        <time>2020-06-30T13:48:07Z</time>
      </trkpt>
      <trkpt lat="48.80153" lon="4.49661">
        <ele>94.2</ele>
        <time>2020-06-30T13:48:08Z</time>
      </trkpt>
      <trkpt lat="48.8015" lon="4.49655">
        <ele>94.2</ele>
        <time>2020-06-30T13:48:09Z</time>
      </trkpt>
      <trkpt lat="48.80148" lon="4.49649">
        <ele>94.2</ele>
        <time>2020-06-30T13:48:10Z</time>
      </trkpt>
      <trkpt lat="48.80147" lon="4.49642">
        <ele>94.2</ele>
        <time>2020-06-30T13:48:11Z</time>
      </trkpt>
      <trkpt lat="48.8015" lon="4.49636">
        <ele>94</ele>
        <time>2020-06-30T13:48:12Z</time>
      </trkpt>
      <trkpt lat="48.80152" lon="4.49628">
        <ele>93.8</ele>
        <time>2020-06-30T13:48:13Z</time>
      </trkpt>
      <trkpt lat="48.80156" lon="4.4962">
        <ele>93.6</ele>
        <time>2020-06-30T13:48:14Z</time>
      </trkpt>
      <trkpt lat="48.80159" lon="4.49616">
        <ele>93.5</ele>
        <time>2020-06-30T13:48:15Z</time>
      </trkpt>
      <trkpt lat="48.80164" lon="4.49613">
        <ele>93.3</ele>
        <time>2020-06-30T13:48:16Z</time>
      </trkpt>
      <trkpt lat="48.80171" lon="4.4961">
        <ele>93.1</ele>
        <time>2020-06-30T13:48:17Z</time>
      </trkpt>
      <trkpt lat="48.80177" lon="4.49607">
        <ele>92.9</ele>
        <time>2020-06-30T13:48:18Z</time>
      </trkpt>
      <trkpt lat="48.80183" lon="4.49604">
        <ele>92.8</ele>
        <time>2020-06-30T13:48:19Z</time>
      </trkpt>
      <trkpt lat="48.80188" lon="4.49601">
        <ele>92.8</ele>
        <time>2020-06-30T13:48:20Z</time>
      </trkpt>
      <trkpt lat="48.80193" lon="4.49598">
        <ele>92.7</ele>
        <time>2020-06-30T13:48:21Z</time>
      </trkpt>
      <trkpt lat="48.80198" lon="4.49595">
        <ele>92.6</ele>
        <time>2020-06-30T13:48:22Z</time>
      </trkpt>
      <trkpt lat="48.80204" lon="4.49592">
        <ele>92.5</ele>
        <time>2020-06-30T13:48:23Z</time>
      </trkpt>
      <trkpt lat="48.80211" lon="4.49588">
        <ele>92.3</ele>
        <time>2020-06-30T13:48:24Z</time>
      </trkpt>
      <trkpt lat="48.80217" lon="4.49583">
        <ele>92.2</ele>
        <time>2020-06-30T13:48:25Z</time>
      </trkpt>
      <trkpt lat="48.80224" lon="4.49579">
        <ele>92.1</ele>
        <time>2020-06-30T13:48:26Z</time>
      </trkpt>
      <trkpt lat="48.80231" lon="4.49575">
        <ele>92</ele>
        <time>2020-06-30T13:48:27Z</time>
      </trkpt>
      <trkpt lat="48.80239" lon="4.4957">
        <ele>91.8</ele>
        <time>2020-06-30T13:48:28Z</time>
      </trkpt>
      <trkpt lat="48.80246" lon="4.49566">
        <ele>91.7</ele>
        <time>2020-06-30T13:48:29Z</time>
      </trkpt>
      <trkpt lat="48.80254" lon="4.49561">
        <ele>91.6</ele>
        <time>2020-06-30T13:48:30Z</time>
      </trkpt>
      <trkpt lat="48.80261" lon="4.49558">
        <ele>91.5</ele>
        <time>2020-06-30T13:48:31Z</time>
      </trkpt>
      <trkpt lat="48.80267" lon="4.49554">
        <ele>91.5</ele>
        <time>2020-06-30T13:48:32Z</time>
      </trkpt>
      <trkpt lat="48.80274" lon="4.4955">
        <ele>91.4</ele>
        <time>2020-06-30T13:48:33Z</time>
      </trkpt>
      <trkpt lat="48.80281" lon="4.49546">
        <ele>91.4</ele>
        <time>2020-06-30T13:48:34Z</time>
      </trkpt>
      <trkpt lat="48.80289" lon="4.49542">
        <ele>91.4</ele>
        <time>2020-06-30T13:48:35Z</time>
      </trkpt>
      <trkpt lat="48.80296" lon="4.49538">
        <ele>91.4</ele>
        <time>2020-06-30T13:48:36Z</time>
      </trkpt>
      <trkpt lat="48.80303" lon="4.49534">
        <ele>91.3</ele>
        <time>2020-06-30T13:48:37Z</time>
      </trkpt>
      <trkpt lat="48.80309" lon="4.4953">
        <ele>91.3</ele>
        <time>2020-06-30T13:48:38Z</time>
      </trkpt>
      <trkpt lat="48.80316" lon="4.49525">
        <ele>91.2</ele>
        <time>2020-06-30T13:48:39Z</time>
      </trkpt>
      <trkpt lat="48.80322" lon="4.49521">
        <ele>91.2</ele>
        <time>2020-06-30T13:48:40Z</time>
      </trkpt>
      <trkpt lat="48.80329" lon="4.49518">
        <ele>91.2</ele>
        <time>2020-06-30T13:48:41Z</time>
      </trkpt>
      <trkpt lat="48.80335" lon="4.49514">
        <ele>91.2</ele>
        <time>2020-06-30T13:48:42Z</time>
      </trkpt>
      <trkpt lat="48.80342" lon="4.4951">
        <ele>91.2</ele>
        <time>2020-06-30T13:48:43Z</time>
      </trkpt>
      <trkpt lat="48.80348" lon="4.49506">
        <ele>91.3</ele>
        <time>2020-06-30T13:48:44Z</time>
      </trkpt>
      <trkpt lat="48.80355" lon="4.49502">
        <ele>91.3</ele>
        <time>2020-06-30T13:48:45Z</time>
      </trkpt>
      <trkpt lat="48.80361" lon="4.49498">
        <ele>91.4</ele>
        <time>2020-06-30T13:48:46Z</time>
      </trkpt>
      <trkpt lat="48.80368" lon="4.49494">
        <ele>91.5</ele>
        <time>2020-06-30T13:48:47Z</time>
      </trkpt>
      <trkpt lat="48.80374" lon="4.49491">
        <ele>91.4</ele>
        <time>2020-06-30T13:48:48Z</time>
      </trkpt>
      <trkpt lat="48.8038" lon="4.49487">
        <ele>91.3</ele>
        <time>2020-06-30T13:48:49Z</time>
      </trkpt>
      <trkpt lat="48.80387" lon="4.49482">
        <ele>91.3</ele>
        <time>2020-06-30T13:48:50Z</time>
      </trkpt>
      <trkpt lat="48.80393" lon="4.49479">
        <ele>91.2</ele>
        <time>2020-06-30T13:48:51Z</time>
      </trkpt>
      <trkpt lat="48.80399" lon="4.49475">
        <ele>91.1</ele>
        <time>2020-06-30T13:48:52Z</time>
      </trkpt>
      <trkpt lat="48.80405" lon="4.49471">
        <ele>91.1</ele>
        <time>2020-06-30T13:48:53Z</time>
      </trkpt>
      <trkpt lat="48.8041" lon="4.49466">
        <ele>91</ele>
        <time>2020-06-30T13:48:54Z</time>
      </trkpt>
      <trkpt lat="48.80417" lon="4.49462">
        <ele>91</ele>
        <time>2020-06-30T13:48:55Z</time>
      </trkpt>
      <trkpt lat="48.80423" lon="4.49459">
        <ele>90.9</ele>
        <time>2020-06-30T13:48:56Z</time>
      </trkpt>
      <trkpt lat="48.8043" lon="4.49456">
        <ele>90.8</ele>
        <time>2020-06-30T13:48:57Z</time>
      </trkpt>
      <trkpt lat="48.80436" lon="4.49452">
        <ele>90.8</ele>
        <time>2020-06-30T13:48:58Z</time>
      </trkpt>
      <trkpt lat="48.80443" lon="4.49448">
        <ele>90.8</ele>
        <time>2020-06-30T13:48:59Z</time>
      </trkpt>
      <trkpt lat="48.80449" lon="4.49444">
        <ele>90.8</ele>
        <time>2020-06-30T13:49:00Z</time>
      </trkpt>
      <trkpt lat="48.80456" lon="4.49441">
        <ele>90.8</ele>
        <time>2020-06-30T13:49:01Z</time>
      </trkpt>
      <trkpt lat="48.80462" lon="4.49437">
        <ele>90.9</ele>
        <time>2020-06-30T13:49:02Z</time>
      </trkpt>
      <trkpt lat="48.80469" lon="4.49434">
        <ele>90.9</ele>
        <time>2020-06-30T13:49:03Z</time>
      </trkpt>
      <trkpt lat="48.80475" lon="4.4943">
        <ele>91</ele>
        <time>2020-06-30T13:49:04Z</time>
      </trkpt>
      <trkpt lat="48.80482" lon="4.49427">
        <ele>91</ele>
        <time>2020-06-30T13:49:05Z</time>
      </trkpt>
      <trkpt lat="48.80488" lon="4.49425">
        <ele>91.1</ele>
        <time>2020-06-30T13:49:06Z</time>
      </trkpt>
      <trkpt lat="48.80494" lon="4.49423">
        <ele>91.1</ele>
        <time>2020-06-30T13:49:07Z</time>
      </trkpt>
      <trkpt lat="48.80501" lon="4.49423">
        <ele>91.2</ele>
        <time>2020-06-30T13:49:08Z</time>
      </trkpt>
      <trkpt lat="48.80507" lon="4.49424">
        <ele>91.3</ele>
        <time>2020-06-30T13:49:09Z</time>
      </trkpt>
      <trkpt lat="48.80514" lon="4.49425">
        <ele>91.3</ele>
        <time>2020-06-30T13:49:10Z</time>
      </trkpt>
      <trkpt lat="48.8052" lon="4.49426">
        <ele>91.4</ele>
        <time>2020-06-30T13:49:11Z</time>
      </trkpt>
      <trkpt lat="48.80526" lon="4.49427">
        <ele>91.6</ele>
        <time>2020-06-30T13:49:12Z</time>
      </trkpt>
      <trkpt lat="48.80532" lon="4.49431">
        <ele>91.7</ele>
        <time>2020-06-30T13:49:13Z</time>
      </trkpt>
      <trkpt lat="48.80538" lon="4.49433">
        <ele>91.8</ele>
        <time>2020-06-30T13:49:14Z</time>
      </trkpt>
      <trkpt lat="48.80544" lon="4.49435">
        <ele>92</ele>
        <time>2020-06-30T13:49:15Z</time>
      </trkpt>
      <trkpt lat="48.80553" lon="4.49437">
        <ele>92.2</ele>
        <time>2020-06-30T13:49:16Z</time>
      </trkpt>
      <trkpt lat="48.80561" lon="4.49439">
        <ele>92.3</ele>
        <time>2020-06-30T13:49:17Z</time>
      </trkpt>
      <trkpt lat="48.80568" lon="4.49442">
        <ele>92.4</ele>
        <time>2020-06-30T13:49:18Z</time>
      </trkpt>
      <trkpt lat="48.80576" lon="4.49445">
        <ele>92.5</ele>
        <time>2020-06-30T13:49:19Z</time>
      </trkpt>
      <trkpt lat="48.80583" lon="4.49448">
        <ele>92.6</ele>
        <time>2020-06-30T13:49:20Z</time>
      </trkpt>
      <trkpt lat="48.8059" lon="4.49451">
        <ele>92.7</ele>
        <time>2020-06-30T13:49:21Z</time>
      </trkpt>
      <trkpt lat="48.80596" lon="4.49454">
        <ele>92.8</ele>
        <time>2020-06-30T13:49:22Z</time>
      </trkpt>
      <trkpt lat="48.80602" lon="4.49458">
        <ele>92.9</ele>
        <time>2020-06-30T13:49:23Z</time>
      </trkpt>
      <trkpt lat="48.80608" lon="4.49462">
        <ele>93</ele>
        <time>2020-06-30T13:49:24Z</time>
      </trkpt>
      <trkpt lat="48.80614" lon="4.49466">
        <ele>93</ele>
        <time>2020-06-30T13:49:25Z</time>
      </trkpt>
      <trkpt lat="48.8062" lon="4.4947">
        <ele>93.1</ele>
        <time>2020-06-30T13:49:26Z</time>
      </trkpt>
      <trkpt lat="48.80626" lon="4.49474">
        <ele>93.1</ele>
        <time>2020-06-30T13:49:27Z</time>
      </trkpt>
      <trkpt lat="48.80633" lon="4.49478">
        <ele>93.2</ele>
        <time>2020-06-30T13:49:28Z</time>
      </trkpt>
      <trkpt lat="48.80639" lon="4.49483">
        <ele>93.2</ele>
        <time>2020-06-30T13:49:29Z</time>
      </trkpt>
      <trkpt lat="48.80645" lon="4.49488">
        <ele>93.2</ele>
        <time>2020-06-30T13:49:30Z</time>
      </trkpt>
      <trkpt lat="48.8065" lon="4.49492">
        <ele>93.2</ele>
        <time>2020-06-30T13:49:31Z</time>
      </trkpt>
      <trkpt lat="48.80656" lon="4.49497">
        <ele>93.2</ele>
        <time>2020-06-30T13:49:32Z</time>
      </trkpt>
      <trkpt lat="48.80662" lon="4.49502">
        <ele>93.2</ele>
        <time>2020-06-30T13:49:33Z</time>
      </trkpt>
      <trkpt lat="48.80668" lon="4.49507">
        <ele>93.1</ele>
        <time>2020-06-30T13:49:34Z</time>
      </trkpt>
      <trkpt lat="48.80674" lon="4.49511">
        <ele>93.1</ele>
        <time>2020-06-30T13:49:35Z</time>
      </trkpt>
      <trkpt lat="48.80681" lon="4.49517">
        <ele>93</ele>
        <time>2020-06-30T13:49:36Z</time>
      </trkpt>
      <trkpt lat="48.80687" lon="4.49522">
        <ele>92.9</ele>
        <time>2020-06-30T13:49:37Z</time>
      </trkpt>
      <trkpt lat="48.80694" lon="4.49528">
        <ele>92.8</ele>
        <time>2020-06-30T13:49:38Z</time>
      </trkpt>
      <trkpt lat="48.80701" lon="4.49534">
        <ele>92.6</ele>
        <time>2020-06-30T13:49:39Z</time>
      </trkpt>
      <trkpt lat="48.80708" lon="4.4954">
        <ele>92.4</ele>
        <time>2020-06-30T13:49:40Z</time>
      </trkpt>
      <trkpt lat="48.80716" lon="4.49546">
        <ele>92.3</ele>
        <time>2020-06-30T13:49:41Z</time>
      </trkpt>
      <trkpt lat="48.80723" lon="4.49552">
        <ele>92.2</ele>
        <time>2020-06-30T13:49:42Z</time>
      </trkpt>
      <trkpt lat="48.8073" lon="4.49557">
        <ele>92.1</ele>
        <time>2020-06-30T13:49:43Z</time>
      </trkpt>
      <trkpt lat="48.80737" lon="4.49563">
        <ele>92.1</ele>
        <time>2020-06-30T13:49:44Z</time>
      </trkpt>
      <trkpt lat="48.80744" lon="4.49568">
        <ele>92.1</ele>
        <time>2020-06-30T13:49:45Z</time>
      </trkpt>
      <trkpt lat="48.8075" lon="4.49574">
        <ele>92.1</ele>
        <time>2020-06-30T13:49:46Z</time>
      </trkpt>
      <trkpt lat="48.80757" lon="4.49579">
        <ele>92</ele>
        <time>2020-06-30T13:49:47Z</time>
      </trkpt>
      <trkpt lat="48.80764" lon="4.49583">
        <ele>92</ele>
        <time>2020-06-30T13:49:48Z</time>
      </trkpt>
      <trkpt lat="48.80771" lon="4.49587">
        <ele>92</ele>
        <time>2020-06-30T13:49:49Z</time>
      </trkpt>
      <trkpt lat="48.80778" lon="4.49591">
        <ele>91.9</ele>
        <time>2020-06-30T13:49:50Z</time>
      </trkpt>
      <trkpt lat="48.80785" lon="4.49594">
        <ele>91.9</ele>
        <time>2020-06-30T13:49:51Z</time>
      </trkpt>
      <trkpt lat="48.80793" lon="4.49595">
        <ele>91.9</ele>
        <time>2020-06-30T13:49:52Z</time>
      </trkpt>
      <trkpt lat="48.808" lon="4.49596">
        <ele>91.9</ele>
        <time>2020-06-30T13:49:53Z</time>
      </trkpt>
      <trkpt lat="48.80808" lon="4.49597">
        <ele>91.9</ele>
        <time>2020-06-30T13:49:54Z</time>
      </trkpt>
      <trkpt lat="48.80816" lon="4.49596">
        <ele>91.9</ele>
        <time>2020-06-30T13:49:55Z</time>
      </trkpt>
      <trkpt lat="48.80824" lon="4.49595">
        <ele>91.9</ele>
        <time>2020-06-30T13:49:56Z</time>
      </trkpt>
      <trkpt lat="48.80832" lon="4.49593">
        <ele>92</ele>
        <time>2020-06-30T13:49:57Z</time>
      </trkpt>
      <trkpt lat="48.80839" lon="4.49592">
        <ele>92</ele>
        <time>2020-06-30T13:49:58Z</time>
      </trkpt>
      <trkpt lat="48.80847" lon="4.4959">
        <ele>92</ele>
        <time>2020-06-30T13:49:59Z</time>
      </trkpt>
      <trkpt lat="48.80855" lon="4.49588">
        <ele>92</ele>
        <time>2020-06-30T13:50:00Z</time>
      </trkpt>
      <trkpt lat="48.80863" lon="4.49586">
        <ele>92</ele>
        <time>2020-06-30T13:50:01Z</time>
      </trkpt>
      <trkpt lat="48.80871" lon="4.49584">
        <ele>92</ele>
        <time>2020-06-30T13:50:02Z</time>
      </trkpt>
      <trkpt lat="48.80878" lon="4.49582">
        <ele>92</ele>
        <time>2020-06-30T13:50:03Z</time>
      </trkpt>
      <trkpt lat="48.80886" lon="4.4958">
        <ele>91.9</ele>
        <time>2020-06-30T13:50:04Z</time>
      </trkpt>
      <trkpt lat="48.80894" lon="4.49577">
        <ele>91.9</ele>
        <time>2020-06-30T13:50:05Z</time>
      </trkpt>
      <trkpt lat="48.80902" lon="4.49576">
        <ele>91.8</ele>
        <time>2020-06-30T13:50:06Z</time>
      </trkpt>
      <trkpt lat="48.8091" lon="4.49573">
        <ele>91.8</ele>
        <time>2020-06-30T13:50:07Z</time>
      </trkpt>
      <trkpt lat="48.80918" lon="4.49571">
        <ele>91.8</ele>
        <time>2020-06-30T13:50:08Z</time>
      </trkpt>
      <trkpt lat="48.80926" lon="4.49569">
        <ele>91.7</ele>
        <time>2020-06-30T13:50:09Z</time>
      </trkpt>
      <trkpt lat="48.80933" lon="4.49567">
        <ele>91.7</ele>
        <time>2020-06-30T13:50:10Z</time>
      </trkpt>
      <trkpt lat="48.8094" lon="4.49564">
        <ele>91.6</ele>
        <time>2020-06-30T13:50:11Z</time>
      </trkpt>
      <trkpt lat="48.80948" lon="4.49562">
        <ele>91.6</ele>
        <time>2020-06-30T13:50:12Z</time>
      </trkpt>
      <trkpt lat="48.80955" lon="4.49561">
        <ele>91.6</ele>
        <time>2020-06-30T13:50:13Z</time>
      </trkpt>
      <trkpt lat="48.80962" lon="4.49558">
        <ele>91.6</ele>
        <time>2020-06-30T13:50:14Z</time>
      </trkpt>
      <trkpt lat="48.80969" lon="4.49556">
        <ele>91.7</ele>
        <time>2020-06-30T13:50:15Z</time>
      </trkpt>
      <trkpt lat="48.80976" lon="4.49553">
        <ele>91.7</ele>
        <time>2020-06-30T13:50:16Z</time>
      </trkpt>
      <trkpt lat="48.80983" lon="4.4955">
        <ele>91.8</ele>
        <time>2020-06-30T13:50:17Z</time>
      </trkpt>
      <trkpt lat="48.8099" lon="4.49545">
        <ele>91.7</ele>
        <time>2020-06-30T13:50:18Z</time>
      </trkpt>
      <trkpt lat="48.80997" lon="4.49542">
        <ele>91.6</ele>
        <time>2020-06-30T13:50:19Z</time>
      </trkpt>
      <trkpt lat="48.81004" lon="4.49538">
        <ele>91.5</ele>
        <time>2020-06-30T13:50:20Z</time>
      </trkpt>
      <trkpt lat="48.81011" lon="4.49534">
        <ele>91.5</ele>
        <time>2020-06-30T13:50:21Z</time>
      </trkpt>
      <trkpt lat="48.81018" lon="4.49529">
        <ele>91.5</ele>
        <time>2020-06-30T13:50:22Z</time>
      </trkpt>
      <trkpt lat="48.81024" lon="4.49523">
        <ele>91.5</ele>
        <time>2020-06-30T13:50:23Z</time>
      </trkpt>
      <trkpt lat="48.8103" lon="4.49517">
        <ele>91.5</ele>
        <time>2020-06-30T13:50:24Z</time>
      </trkpt>
      <trkpt lat="48.81037" lon="4.49513">
        <ele>91.4</ele>
        <time>2020-06-30T13:50:25Z</time>
      </trkpt>
      <trkpt lat="48.81043" lon="4.49507">
        <ele>91.4</ele>
        <time>2020-06-30T13:50:26Z</time>
      </trkpt>
      <trkpt lat="48.81049" lon="4.495">
        <ele>91.4</ele>
        <time>2020-06-30T13:50:27Z</time>
      </trkpt>
      <trkpt lat="48.81054" lon="4.49495">
        <ele>91.4</ele>
        <time>2020-06-30T13:50:28Z</time>
      </trkpt>
      <trkpt lat="48.8106" lon="4.4949">
        <ele>91.4</ele>
        <time>2020-06-30T13:50:29Z</time>
      </trkpt>
      <trkpt lat="48.81067" lon="4.49483">
        <ele>91.4</ele>
        <time>2020-06-30T13:50:30Z</time>
      </trkpt>
      <trkpt lat="48.81073" lon="4.49477">
        <ele>91.4</ele>
        <time>2020-06-30T13:50:31Z</time>
      </trkpt>
      <trkpt lat="48.8108" lon="4.4947">
        <ele>91.4</ele>
        <time>2020-06-30T13:50:32Z</time>
      </trkpt>
      <trkpt lat="48.81086" lon="4.49465">
        <ele>91.4</ele>
        <time>2020-06-30T13:50:33Z</time>
      </trkpt>
      <trkpt lat="48.81092" lon="4.4946">
        <ele>91.5</ele>
        <time>2020-06-30T13:50:34Z</time>
      </trkpt>
      <trkpt lat="48.81098" lon="4.49455">
        <ele>91.5</ele>
        <time>2020-06-30T13:50:35Z</time>
      </trkpt>
      <trkpt lat="48.81104" lon="4.49451">
        <ele>91.5</ele>
        <time>2020-06-30T13:50:36Z</time>
      </trkpt>
      <trkpt lat="48.81109" lon="4.49445">
        <ele>91.5</ele>
        <time>2020-06-30T13:50:37Z</time>
      </trkpt>
      <trkpt lat="48.81115" lon="4.4944">
        <ele>91.6</ele>
        <time>2020-06-30T13:50:38Z</time>
      </trkpt>
      <trkpt lat="48.81122" lon="4.49436">
        <ele>91.6</ele>
        <time>2020-06-30T13:50:39Z</time>
      </trkpt>
      <trkpt lat="48.81127" lon="4.49429">
        <ele>91.6</ele>
        <time>2020-06-30T13:50:40Z</time>
      </trkpt>
      <trkpt lat="48.81132" lon="4.49422">
        <ele>91.6</ele>
        <time>2020-06-30T13:50:41Z</time>
      </trkpt>
      <trkpt lat="48.81138" lon="4.49417">
        <ele>91.6</ele>
        <time>2020-06-30T13:50:42Z</time>
      </trkpt>
      <trkpt lat="48.81144" lon="4.49412">
        <ele>91.7</ele>
        <time>2020-06-30T13:50:43Z</time>
      </trkpt>
      <trkpt lat="48.8115" lon="4.49407">
        <ele>91.7</ele>
        <time>2020-06-30T13:50:44Z</time>
      </trkpt>
      <trkpt lat="48.81156" lon="4.49401">
        <ele>91.7</ele>
        <time>2020-06-30T13:50:45Z</time>
      </trkpt>
      <trkpt lat="48.81162" lon="4.49396">
        <ele>91.7</ele>
        <time>2020-06-30T13:50:46Z</time>
      </trkpt>
      <trkpt lat="48.81168" lon="4.4939">
        <ele>91.8</ele>
        <time>2020-06-30T13:50:47Z</time>
      </trkpt>
      <trkpt lat="48.81174" lon="4.49385">
        <ele>91.8</ele>
        <time>2020-06-30T13:50:48Z</time>
      </trkpt>
      <trkpt lat="48.81179" lon="4.4938">
        <ele>91.9</ele>
        <time>2020-06-30T13:50:49Z</time>
      </trkpt>
      <trkpt lat="48.81185" lon="4.49375">
        <ele>91.9</ele>
        <time>2020-06-30T13:50:50Z</time>
      </trkpt>
      <trkpt lat="48.81191" lon="4.49371">
        <ele>92</ele>
        <time>2020-06-30T13:50:51Z</time>
      </trkpt>
      <trkpt lat="48.81197" lon="4.49365">
        <ele>92.1</ele>
        <time>2020-06-30T13:50:52Z</time>
      </trkpt>
      <trkpt lat="48.81202" lon="4.4936">
        <ele>92.1</ele>
        <time>2020-06-30T13:50:53Z</time>
      </trkpt>
      <trkpt lat="48.81207" lon="4.49355">
        <ele>92.1</ele>
        <time>2020-06-30T13:50:54Z</time>
      </trkpt>
      <trkpt lat="48.81212" lon="4.49349">
        <ele>92.1</ele>
        <time>2020-06-30T13:50:55Z</time>
      </trkpt>
      <trkpt lat="48.81218" lon="4.49344">
        <ele>92.2</ele>
        <time>2020-06-30T13:50:56Z</time>
      </trkpt>
      <trkpt lat="48.81224" lon="4.49339">
        <ele>92.2</ele>
        <time>2020-06-30T13:50:57Z</time>
      </trkpt>
      <trkpt lat="48.8123" lon="4.49334">
        <ele>92.2</ele>
        <time>2020-06-30T13:50:58Z</time>
      </trkpt>
      <trkpt lat="48.81236" lon="4.49328">
        <ele>92.2</ele>
        <time>2020-06-30T13:50:59Z</time>
      </trkpt>
      <trkpt lat="48.81242" lon="4.49324">
        <ele>92.2</ele>
        <time>2020-06-30T13:51:00Z</time>
      </trkpt>
      <trkpt lat="48.81248" lon="4.49318">
        <ele>92.2</ele>
        <time>2020-06-30T13:51:01Z</time>
      </trkpt>
      <trkpt lat="48.81254" lon="4.49313">
        <ele>92.2</ele>
        <time>2020-06-30T13:51:02Z</time>
      </trkpt>
      <trkpt lat="48.81259" lon="4.49308">
        <ele>92.2</ele>
        <time>2020-06-30T13:51:03Z</time>
      </trkpt>
      <trkpt lat="48.81264" lon="4.49306">
        <ele>92.2</ele>
        <time>2020-06-30T13:51:04Z</time>
      </trkpt>
      <trkpt lat="48.81269" lon="4.49301">
        <ele>92.2</ele>
        <time>2020-06-30T13:51:05Z</time>
      </trkpt>
      <trkpt lat="48.81275" lon="4.49297">
        <ele>92.2</ele>
        <time>2020-06-30T13:51:06Z</time>
      </trkpt>
      <trkpt lat="48.8128" lon="4.49292">
        <ele>92.2</ele>
        <time>2020-06-30T13:51:07Z</time>
      </trkpt>
      <trkpt lat="48.81286" lon="4.49287">
        <ele>92.2</ele>
        <time>2020-06-30T13:51:08Z</time>
      </trkpt>
      <trkpt lat="48.81292" lon="4.49283">
        <ele>92.2</ele>
        <time>2020-06-30T13:51:09Z</time>
      </trkpt>
      <trkpt lat="48.81297" lon="4.49279">
        <ele>92.2</ele>
        <time>2020-06-30T13:51:10Z</time>
      </trkpt>
      <trkpt lat="48.81303" lon="4.49274">
        <ele>92.2</ele>
        <time>2020-06-30T13:51:11Z</time>
      </trkpt>
      <trkpt lat="48.8131" lon="4.49272">
        <ele>92.2</ele>
        <time>2020-06-30T13:51:12Z</time>
      </trkpt>
      <trkpt lat="48.81315" lon="4.49268">
        <ele>92.2</ele>
        <time>2020-06-30T13:51:13Z</time>
      </trkpt>
      <trkpt lat="48.8132" lon="4.49263">
        <ele>92.2</ele>
        <time>2020-06-30T13:51:14Z</time>
      </trkpt>
      <trkpt lat="48.81327" lon="4.49258">
        <ele>92.2</ele>
        <time>2020-06-30T13:51:15Z</time>
      </trkpt>
      <trkpt lat="48.81333" lon="4.49255">
        <ele>92.2</ele>
        <time>2020-06-30T13:51:16Z</time>
      </trkpt>
      <trkpt lat="48.8134" lon="4.49251">
        <ele>92.1</ele>
        <time>2020-06-30T13:51:17Z</time>
      </trkpt>
      <trkpt lat="48.81346" lon="4.49247">
        <ele>92.1</ele>
        <time>2020-06-30T13:51:18Z</time>
      </trkpt>
      <trkpt lat="48.81352" lon="4.49244">
        <ele>92</ele>
        <time>2020-06-30T13:51:19Z</time>
      </trkpt>
      <trkpt lat="48.81358" lon="4.49241">
        <ele>92</ele>
        <time>2020-06-30T13:51:20Z</time>
      </trkpt>
      <trkpt lat="48.81365" lon="4.49238">
        <ele>91.9</ele>
        <time>2020-06-30T13:51:21Z</time>
      </trkpt>
      <trkpt lat="48.81371" lon="4.49235">
        <ele>91.9</ele>
        <time>2020-06-30T13:51:22Z</time>
      </trkpt>
      <trkpt lat="48.81378" lon="4.49233">
        <ele>91.9</ele>
        <time>2020-06-30T13:51:23Z</time>
      </trkpt>
      <trkpt lat="48.81385" lon="4.49229">
        <ele>91.9</ele>
        <time>2020-06-30T13:51:24Z</time>
      </trkpt>
      <trkpt lat="48.81391" lon="4.49227">
        <ele>91.9</ele>
        <time>2020-06-30T13:51:25Z</time>
      </trkpt>
      <trkpt lat="48.81398" lon="4.49223">
        <ele>91.9</ele>
        <time>2020-06-30T13:51:26Z</time>
      </trkpt>
      <trkpt lat="48.81404" lon="4.4922">
        <ele>91.9</ele>
        <time>2020-06-30T13:51:27Z</time>
      </trkpt>
      <trkpt lat="48.8141" lon="4.49216">
        <ele>91.9</ele>
        <time>2020-06-30T13:51:28Z</time>
      </trkpt>
      <trkpt lat="48.81417" lon="4.49212">
        <ele>91.9</ele>
        <time>2020-06-30T13:51:29Z</time>
      </trkpt>
      <trkpt lat="48.81423" lon="4.49209">
        <ele>91.9</ele>
        <time>2020-06-30T13:51:30Z</time>
      </trkpt>
      <trkpt lat="48.8143" lon="4.49205">
        <ele>91.9</ele>
        <time>2020-06-30T13:51:31Z</time>
      </trkpt>
      <trkpt lat="48.81436" lon="4.49201">
        <ele>91.9</ele>
        <time>2020-06-30T13:51:32Z</time>
      </trkpt>
      <trkpt lat="48.81443" lon="4.49198">
        <ele>91.9</ele>
        <time>2020-06-30T13:51:33Z</time>
      </trkpt>
      <trkpt lat="48.81449" lon="4.49195">
        <ele>92</ele>
        <time>2020-06-30T13:51:34Z</time>
      </trkpt>
      <trkpt lat="48.81456" lon="4.49191">
        <ele>91.9</ele>
        <time>2020-06-30T13:51:35Z</time>
      </trkpt>
      <trkpt lat="48.81462" lon="4.49188">
        <ele>91.9</ele>
        <time>2020-06-30T13:51:36Z</time>
      </trkpt>
      <trkpt lat="48.81468" lon="4.49184">
        <ele>91.9</ele>
        <time>2020-06-30T13:51:37Z</time>
      </trkpt>
      <trkpt lat="48.81475" lon="4.49179">
        <ele>91.9</ele>
        <time>2020-06-30T13:51:38Z</time>
      </trkpt>
      <trkpt lat="48.81482" lon="4.49174">
        <ele>91.9</ele>
        <time>2020-06-30T13:51:39Z</time>
      </trkpt>
      <trkpt lat="48.81488" lon="4.4917">
        <ele>91.9</ele>
        <time>2020-06-30T13:51:40Z</time>
      </trkpt>
      <trkpt lat="48.81495" lon="4.49167">
        <ele>91.9</ele>
        <time>2020-06-30T13:51:41Z</time>
      </trkpt>
      <trkpt lat="48.81502" lon="4.49163">
        <ele>91.9</ele>
        <time>2020-06-30T13:51:42Z</time>
      </trkpt>
      <trkpt lat="48.81508" lon="4.4916">
        <ele>91.9</ele>
        <time>2020-06-30T13:51:43Z</time>
      </trkpt>
      <trkpt lat="48.81515" lon="4.49156">
        <ele>91.9</ele>
        <time>2020-06-30T13:51:44Z</time>
      </trkpt>
      <trkpt lat="48.81521" lon="4.49152">
        <ele>92</ele>
        <time>2020-06-30T13:51:45Z</time>
      </trkpt>
      <trkpt lat="48.81527" lon="4.49147">
        <ele>92</ele>
        <time>2020-06-30T13:51:46Z</time>
      </trkpt>
      <trkpt lat="48.81534" lon="4.49142">
        <ele>92</ele>
        <time>2020-06-30T13:51:47Z</time>
      </trkpt>
      <trkpt lat="48.81541" lon="4.49138">
        <ele>92</ele>
        <time>2020-06-30T13:51:48Z</time>
      </trkpt>
      <trkpt lat="48.81547" lon="4.49133">
        <ele>92.1</ele>
        <time>2020-06-30T13:51:49Z</time>
      </trkpt>
      <trkpt lat="48.81553" lon="4.49128">
        <ele>92.1</ele>
        <time>2020-06-30T13:51:50Z</time>
      </trkpt>
      <trkpt lat="48.81559" lon="4.49124">
        <ele>92.1</ele>
        <time>2020-06-30T13:51:51Z</time>
      </trkpt>
      <trkpt lat="48.81566" lon="4.49118">
        <ele>92</ele>
        <time>2020-06-30T13:51:52Z</time>
      </trkpt>
      <trkpt lat="48.81573" lon="4.49115">
        <ele>91.9</ele>
        <time>2020-06-30T13:51:53Z</time>
      </trkpt>
      <trkpt lat="48.8158" lon="4.49111">
        <ele>91.8</ele>
        <time>2020-06-30T13:51:54Z</time>
      </trkpt>
      <trkpt lat="48.81587" lon="4.49107">
        <ele>91.7</ele>
        <time>2020-06-30T13:51:55Z</time>
      </trkpt>
      <trkpt lat="48.81594" lon="4.49104">
        <ele>91.7</ele>
        <time>2020-06-30T13:51:56Z</time>
      </trkpt>
      <trkpt lat="48.816" lon="4.49101">
        <ele>91.6</ele>
        <time>2020-06-30T13:51:57Z</time>
      </trkpt>
      <trkpt lat="48.81607" lon="4.49097">
        <ele>91.6</ele>
        <time>2020-06-30T13:51:58Z</time>
      </trkpt>
      <trkpt lat="48.81614" lon="4.49093">
        <ele>91.5</ele>
        <time>2020-06-30T13:51:59Z</time>
      </trkpt>
      <trkpt lat="48.81621" lon="4.4909">
        <ele>91.5</ele>
        <time>2020-06-30T13:52:00Z</time>
      </trkpt>
      <trkpt lat="48.81628" lon="4.49087">
        <ele>91.4</ele>
        <time>2020-06-30T13:52:01Z</time>
      </trkpt>
      <trkpt lat="48.81635" lon="4.49083">
        <ele>91.4</ele>
        <time>2020-06-30T13:52:02Z</time>
      </trkpt>
      <trkpt lat="48.81642" lon="4.4908">
        <ele>91.3</ele>
        <time>2020-06-30T13:52:03Z</time>
      </trkpt>
      <trkpt lat="48.8165" lon="4.49077">
        <ele>91.3</ele>
        <time>2020-06-30T13:52:04Z</time>
      </trkpt>
      <trkpt lat="48.81657" lon="4.49074">
        <ele>91.2</ele>
        <time>2020-06-30T13:52:05Z</time>
      </trkpt>
      <trkpt lat="48.81664" lon="4.49071">
        <ele>91.2</ele>
        <time>2020-06-30T13:52:06Z</time>
      </trkpt>
      <trkpt lat="48.81671" lon="4.49067">
        <ele>91.1</ele>
        <time>2020-06-30T13:52:07Z</time>
      </trkpt>
      <trkpt lat="48.81678" lon="4.49064">
        <ele>91</ele>
        <time>2020-06-30T13:52:08Z</time>
      </trkpt>
      <trkpt lat="48.81685" lon="4.4906">
        <ele>90.9</ele>
        <time>2020-06-30T13:52:09Z</time>
      </trkpt>
      <trkpt lat="48.81692" lon="4.49057">
        <ele>90.8</ele>
        <time>2020-06-30T13:52:10Z</time>
      </trkpt>
      <trkpt lat="48.81699" lon="4.49053">
        <ele>90.7</ele>
        <time>2020-06-30T13:52:11Z</time>
      </trkpt>
      <trkpt lat="48.81706" lon="4.4905">
        <ele>90.6</ele>
        <time>2020-06-30T13:52:12Z</time>
      </trkpt>
      <trkpt lat="48.81713" lon="4.49045">
        <ele>90.5</ele>
        <time>2020-06-30T13:52:13Z</time>
      </trkpt>
      <trkpt lat="48.8172" lon="4.49041">
        <ele>90.4</ele>
        <time>2020-06-30T13:52:14Z</time>
      </trkpt>
      <trkpt lat="48.81727" lon="4.49036">
        <ele>90.3</ele>
        <time>2020-06-30T13:52:15Z</time>
      </trkpt>
      <trkpt lat="48.81733" lon="4.49032">
        <ele>90.2</ele>
        <time>2020-06-30T13:52:16Z</time>
      </trkpt>
      <trkpt lat="48.8174" lon="4.49026">
        <ele>90.1</ele>
        <time>2020-06-30T13:52:17Z</time>
      </trkpt>
      <trkpt lat="48.81746" lon="4.49018">
        <ele>90</ele>
        <time>2020-06-30T13:52:18Z</time>
      </trkpt>
      <trkpt lat="48.81753" lon="4.49011">
        <ele>89.9</ele>
        <time>2020-06-30T13:52:19Z</time>
      </trkpt>
      <trkpt lat="48.81759" lon="4.49005">
        <ele>89.9</ele>
        <time>2020-06-30T13:52:20Z</time>
      </trkpt>
      <trkpt lat="48.81766" lon="4.48998">
        <ele>89.8</ele>
        <time>2020-06-30T13:52:21Z</time>
      </trkpt>
      <trkpt lat="48.81772" lon="4.48992">
        <ele>89.8</ele>
        <time>2020-06-30T13:52:22Z</time>
      </trkpt>
      <trkpt lat="48.81778" lon="4.48986">
        <ele>89.7</ele>
        <time>2020-06-30T13:52:23Z</time>
      </trkpt>
      <trkpt lat="48.81785" lon="4.4898">
        <ele>89.7</ele>
        <time>2020-06-30T13:52:24Z</time>
      </trkpt>
      <trkpt lat="48.81792" lon="4.48973">
        <ele>89.7</ele>
        <time>2020-06-30T13:52:25Z</time>
      </trkpt>
      <trkpt lat="48.81799" lon="4.48966">
        <ele>89.7</ele>
        <time>2020-06-30T13:52:26Z</time>
      </trkpt>
      <trkpt lat="48.81805" lon="4.4896">
        <ele>89.7</ele>
        <time>2020-06-30T13:52:27Z</time>
      </trkpt>
      <trkpt lat="48.81811" lon="4.48953">
        <ele>89.6</ele>
        <time>2020-06-30T13:52:28Z</time>
      </trkpt>
      <trkpt lat="48.81818" lon="4.48946">
        <ele>89.6</ele>
        <time>2020-06-30T13:52:29Z</time>
      </trkpt>
      <trkpt lat="48.81824" lon="4.4894">
        <ele>89.6</ele>
        <time>2020-06-30T13:52:30Z</time>
      </trkpt>
      <trkpt lat="48.81831" lon="4.48933">
        <ele>89.6</ele>
        <time>2020-06-30T13:52:31Z</time>
      </trkpt>
      <trkpt lat="48.81837" lon="4.48927">
        <ele>89.6</ele>
        <time>2020-06-30T13:52:32Z</time>
      </trkpt>
      <trkpt lat="48.81843" lon="4.4892">
        <ele>89.6</ele>
        <time>2020-06-30T13:52:33Z</time>
      </trkpt>
      <trkpt lat="48.8185" lon="4.48914">
        <ele>89.6</ele>
        <time>2020-06-30T13:52:34Z</time>
      </trkpt>
      <trkpt lat="48.81856" lon="4.48909">
        <ele>89.7</ele>
        <time>2020-06-30T13:52:35Z</time>
      </trkpt>
      <trkpt lat="48.81862" lon="4.48903">
        <ele>89.7</ele>
        <time>2020-06-30T13:52:36Z</time>
      </trkpt>
      <trkpt lat="48.81869" lon="4.48896">
        <ele>89.7</ele>
        <time>2020-06-30T13:52:37Z</time>
      </trkpt>
      <trkpt lat="48.81875" lon="4.4889">
        <ele>89.7</ele>
        <time>2020-06-30T13:52:38Z</time>
      </trkpt>
      <trkpt lat="48.81882" lon="4.48883">
        <ele>89.7</ele>
        <time>2020-06-30T13:52:39Z</time>
      </trkpt>
      <trkpt lat="48.81888" lon="4.48877">
        <ele>89.7</ele>
        <time>2020-06-30T13:52:40Z</time>
      </trkpt>
      <trkpt lat="48.81894" lon="4.48871">
        <ele>89.7</ele>
        <time>2020-06-30T13:52:41Z</time>
      </trkpt>
      <trkpt lat="48.81901" lon="4.48866">
        <ele>89.6</ele>
        <time>2020-06-30T13:52:42Z</time>
      </trkpt>
      <trkpt lat="48.81907" lon="4.4886">
        <ele>89.6</ele>
        <time>2020-06-30T13:52:43Z</time>
      </trkpt>
      <trkpt lat="48.81913" lon="4.48853">
        <ele>89.6</ele>
        <time>2020-06-30T13:52:44Z</time>
      </trkpt>
      <trkpt lat="48.81919" lon="4.48847">
        <ele>89.5</ele>
        <time>2020-06-30T13:52:45Z</time>
      </trkpt>
      <trkpt lat="48.81925" lon="4.4884">
        <ele>89.5</ele>
        <time>2020-06-30T13:52:46Z</time>
      </trkpt>
      <trkpt lat="48.8193" lon="4.48833">
        <ele>89.5</ele>
        <time>2020-06-30T13:52:47Z</time>
      </trkpt>
      <trkpt lat="48.81937" lon="4.48827">
        <ele>89.5</ele>
        <time>2020-06-30T13:52:48Z</time>
      </trkpt>
      <trkpt lat="48.81943" lon="4.48821">
        <ele>89.5</ele>
        <time>2020-06-30T13:52:49Z</time>
      </trkpt>
      <trkpt lat="48.81948" lon="4.48815">
        <ele>89.6</ele>
        <time>2020-06-30T13:52:50Z</time>
      </trkpt>
      <trkpt lat="48.81955" lon="4.48809">
        <ele>89.6</ele>
        <time>2020-06-30T13:52:51Z</time>
      </trkpt>
      <trkpt lat="48.81961" lon="4.48802">
        <ele>89.7</ele>
        <time>2020-06-30T13:52:52Z</time>
      </trkpt>
      <trkpt lat="48.81967" lon="4.48797">
        <ele>89.7</ele>
        <time>2020-06-30T13:52:53Z</time>
      </trkpt>
      <trkpt lat="48.81973" lon="4.48791">
        <ele>89.7</ele>
        <time>2020-06-30T13:52:54Z</time>
      </trkpt>
      <trkpt lat="48.81979" lon="4.48785">
        <ele>89.7</ele>
        <time>2020-06-30T13:52:55Z</time>
      </trkpt>
      <trkpt lat="48.81985" lon="4.48779">
        <ele>89.7</ele>
        <time>2020-06-30T13:52:56Z</time>
      </trkpt>
      <trkpt lat="48.81991" lon="4.48772">
        <ele>89.7</ele>
        <time>2020-06-30T13:52:57Z</time>
      </trkpt>
      <trkpt lat="48.81996" lon="4.48765">
        <ele>89.7</ele>
        <time>2020-06-30T13:52:58Z</time>
      </trkpt>
      <trkpt lat="48.82002" lon="4.48758">
        <ele>89.7</ele>
        <time>2020-06-30T13:52:59Z</time>
      </trkpt>
      <trkpt lat="48.82008" lon="4.48752">
        <ele>89.8</ele>
        <time>2020-06-30T13:53:00Z</time>
      </trkpt>
      <trkpt lat="48.82013" lon="4.48745">
        <ele>89.8</ele>
        <time>2020-06-30T13:53:01Z</time>
      </trkpt>
      <trkpt lat="48.82018" lon="4.48738">
        <ele>89.8</ele>
        <time>2020-06-30T13:53:02Z</time>
      </trkpt>
      <trkpt lat="48.82023" lon="4.48732">
        <ele>89.8</ele>
        <time>2020-06-30T13:53:03Z</time>
      </trkpt>
      <trkpt lat="48.82027" lon="4.48724">
        <ele>89.8</ele>
        <time>2020-06-30T13:53:04Z</time>
      </trkpt>
      <trkpt lat="48.82032" lon="4.48718">
        <ele>89.8</ele>
        <time>2020-06-30T13:53:05Z</time>
      </trkpt>
      <trkpt lat="48.82036" lon="4.48711">
        <ele>89.8</ele>
        <time>2020-06-30T13:53:06Z</time>
      </trkpt>
      <trkpt lat="48.8204" lon="4.48705">
        <ele>89.8</ele>
        <time>2020-06-30T13:53:07Z</time>
      </trkpt>
      <trkpt lat="48.82044" lon="4.48698">
        <ele>89.8</ele>
        <time>2020-06-30T13:53:08Z</time>
      </trkpt>
      <trkpt lat="48.82048" lon="4.48691">
        <ele>89.9</ele>
        <time>2020-06-30T13:53:09Z</time>
      </trkpt>
      <trkpt lat="48.82052" lon="4.48685">
        <ele>89.9</ele>
        <time>2020-06-30T13:53:10Z</time>
      </trkpt>
      <trkpt lat="48.82055" lon="4.48679">
        <ele>90</ele>
        <time>2020-06-30T13:53:11Z</time>
      </trkpt>
      <trkpt lat="48.82059" lon="4.48673">
        <ele>90</ele>
        <time>2020-06-30T13:53:12Z</time>
      </trkpt>
      <trkpt lat="48.82063" lon="4.48669">
        <ele>89.9</ele>
        <time>2020-06-30T13:53:13Z</time>
      </trkpt>
      <trkpt lat="48.82066" lon="4.48663">
        <ele>89.9</ele>
        <time>2020-06-30T13:53:14Z</time>
      </trkpt>
      <trkpt lat="48.8207" lon="4.48657">
        <ele>89.8</ele>
        <time>2020-06-30T13:53:15Z</time>
      </trkpt>
      <trkpt lat="48.82072" lon="4.48651">
        <ele>89.8</ele>
        <time>2020-06-30T13:53:16Z</time>
      </trkpt>
      <trkpt lat="48.82076" lon="4.48645">
        <ele>89.8</ele>
        <time>2020-06-30T13:53:17Z</time>
      </trkpt>
      <trkpt lat="48.82079" lon="4.4864">
        <ele>89.8</ele>
        <time>2020-06-30T13:53:18Z</time>
      </trkpt>
      <trkpt lat="48.82083" lon="4.48634">
        <ele>89.8</ele>
        <time>2020-06-30T13:53:19Z</time>
      </trkpt>
      <trkpt lat="48.82086" lon="4.48628">
        <ele>89.8</ele>
        <time>2020-06-30T13:53:20Z</time>
      </trkpt>
      <trkpt lat="48.82089" lon="4.48622">
        <ele>89.8</ele>
        <time>2020-06-30T13:53:21Z</time>
      </trkpt>
      <trkpt lat="48.82093" lon="4.48615">
        <ele>89.8</ele>
        <time>2020-06-30T13:53:22Z</time>
      </trkpt>
      <trkpt lat="48.82098" lon="4.4861">
        <ele>89.8</ele>
        <time>2020-06-30T13:53:23Z</time>
      </trkpt>
      <trkpt lat="48.82102" lon="4.48604">
        <ele>89.8</ele>
        <time>2020-06-30T13:53:24Z</time>
      </trkpt>
      <trkpt lat="48.82107" lon="4.48598">
        <ele>89.8</ele>
        <time>2020-06-30T13:53:25Z</time>
      </trkpt>
      <trkpt lat="48.82111" lon="4.48591">
        <ele>89.8</ele>
        <time>2020-06-30T13:53:26Z</time>
      </trkpt>
      <trkpt lat="48.82116" lon="4.48585">
        <ele>89.8</ele>
        <time>2020-06-30T13:53:27Z</time>
      </trkpt>
      <trkpt lat="48.82121" lon="4.48579">
        <ele>89.8</ele>
        <time>2020-06-30T13:53:28Z</time>
      </trkpt>
      <trkpt lat="48.82126" lon="4.48573">
        <ele>89.8</ele>
        <time>2020-06-30T13:53:29Z</time>
      </trkpt>
      <trkpt lat="48.82131" lon="4.48568">
        <ele>89.8</ele>
        <time>2020-06-30T13:53:30Z</time>
      </trkpt>
      <trkpt lat="48.82137" lon="4.48563">
        <ele>89.8</ele>
        <time>2020-06-30T13:53:31Z</time>
      </trkpt>
      <trkpt lat="48.82142" lon="4.48557">
        <ele>89.8</ele>
        <time>2020-06-30T13:53:32Z</time>
      </trkpt>
      <trkpt lat="48.82148" lon="4.48552">
        <ele>89.8</ele>
        <time>2020-06-30T13:53:33Z</time>
      </trkpt>
      <trkpt lat="48.82153" lon="4.48547">
        <ele>89.9</ele>
        <time>2020-06-30T13:53:34Z</time>
      </trkpt>
      <trkpt lat="48.82159" lon="4.48541">
        <ele>89.9</ele>
        <time>2020-06-30T13:53:35Z</time>
      </trkpt>
      <trkpt lat="48.82164" lon="4.48537">
        <ele>89.9</ele>
        <time>2020-06-30T13:53:36Z</time>
      </trkpt>
      <trkpt lat="48.8217" lon="4.48531">
        <ele>90</ele>
        <time>2020-06-30T13:53:37Z</time>
      </trkpt>
      <trkpt lat="48.82175" lon="4.48527">
        <ele>90</ele>
        <time>2020-06-30T13:53:38Z</time>
      </trkpt>
      <trkpt lat="48.82181" lon="4.48522">
        <ele>90</ele>
        <time>2020-06-30T13:53:39Z</time>
      </trkpt>
      <trkpt lat="48.82186" lon="4.48516">
        <ele>90</ele>
        <time>2020-06-30T13:53:40Z</time>
      </trkpt>
      <trkpt lat="48.82192" lon="4.48511">
        <ele>90</ele>
        <time>2020-06-30T13:53:41Z</time>
      </trkpt>
      <trkpt lat="48.82197" lon="4.48506">
        <ele>89.9</ele>
        <time>2020-06-30T13:53:42Z</time>
      </trkpt>
      <trkpt lat="48.82202" lon="4.485">
        <ele>89.7</ele>
        <time>2020-06-30T13:53:43Z</time>
      </trkpt>
      <trkpt lat="48.82207" lon="4.48494">
        <ele>89.6</ele>
        <time>2020-06-30T13:53:44Z</time>
      </trkpt>
      <trkpt lat="48.82213" lon="4.48488">
        <ele>89.5</ele>
        <time>2020-06-30T13:53:45Z</time>
      </trkpt>
      <trkpt lat="48.82218" lon="4.48482">
        <ele>89.4</ele>
        <time>2020-06-30T13:53:46Z</time>
      </trkpt>
      <trkpt lat="48.82224" lon="4.48477">
        <ele>89.3</ele>
        <time>2020-06-30T13:53:47Z</time>
      </trkpt>
      <trkpt lat="48.82229" lon="4.48472">
        <ele>89.2</ele>
        <time>2020-06-30T13:53:48Z</time>
      </trkpt>
      <trkpt lat="48.82234" lon="4.48467">
        <ele>89.2</ele>
        <time>2020-06-30T13:53:49Z</time>
      </trkpt>
      <trkpt lat="48.8224" lon="4.48461">
        <ele>89.2</ele>
        <time>2020-06-30T13:53:50Z</time>
      </trkpt>
      <trkpt lat="48.82245" lon="4.48455">
        <ele>89.2</ele>
        <time>2020-06-30T13:53:51Z</time>
      </trkpt>
      <trkpt lat="48.8225" lon="4.48449">
        <ele>89.2</ele>
        <time>2020-06-30T13:53:52Z</time>
      </trkpt>
      <trkpt lat="48.82256" lon="4.48443">
        <ele>89.2</ele>
        <time>2020-06-30T13:53:53Z</time>
      </trkpt>
      <trkpt lat="48.82261" lon="4.48437">
        <ele>89.3</ele>
        <time>2020-06-30T13:53:54Z</time>
      </trkpt>
      <trkpt lat="48.82267" lon="4.48431">
        <ele>89.4</ele>
        <time>2020-06-30T13:53:55Z</time>
      </trkpt>
      <trkpt lat="48.82273" lon="4.48425">
        <ele>89.5</ele>
        <time>2020-06-30T13:53:56Z</time>
      </trkpt>
      <trkpt lat="48.82279" lon="4.48419">
        <ele>89.4</ele>
        <time>2020-06-30T13:53:57Z</time>
      </trkpt>
      <trkpt lat="48.82285" lon="4.48415">
        <ele>89.3</ele>
        <time>2020-06-30T13:53:58Z</time>
      </trkpt>
      <trkpt lat="48.82292" lon="4.48409">
        <ele>89.2</ele>
        <time>2020-06-30T13:53:59Z</time>
      </trkpt>
      <trkpt lat="48.82298" lon="4.48404">
        <ele>89.1</ele>
        <time>2020-06-30T13:54:00Z</time>
      </trkpt>
      <trkpt lat="48.82305" lon="4.48399">
        <ele>89.1</ele>
        <time>2020-06-30T13:54:01Z</time>
      </trkpt>
      <trkpt lat="48.82311" lon="4.48395">
        <ele>89</ele>
        <time>2020-06-30T13:54:02Z</time>
      </trkpt>
      <trkpt lat="48.82318" lon="4.4839">
        <ele>89</ele>
        <time>2020-06-30T13:54:03Z</time>
      </trkpt>
      <trkpt lat="48.82324" lon="4.48386">
        <ele>89</ele>
        <time>2020-06-30T13:54:04Z</time>
      </trkpt>
      <trkpt lat="48.82331" lon="4.48381">
        <ele>88.9</ele>
        <time>2020-06-30T13:54:05Z</time>
      </trkpt>
      <trkpt lat="48.82338" lon="4.48377">
        <ele>88.9</ele>
        <time>2020-06-30T13:54:06Z</time>
      </trkpt>
      <trkpt lat="48.82344" lon="4.48374">
        <ele>88.8</ele>
        <time>2020-06-30T13:54:07Z</time>
      </trkpt>
      <trkpt lat="48.82351" lon="4.4837">
        <ele>88.8</ele>
        <time>2020-06-30T13:54:08Z</time>
      </trkpt>
      <trkpt lat="48.82358" lon="4.48366">
        <ele>88.7</ele>
        <time>2020-06-30T13:54:09Z</time>
      </trkpt>
      <trkpt lat="48.82365" lon="4.48362">
        <ele>88.6</ele>
        <time>2020-06-30T13:54:10Z</time>
      </trkpt>
      <trkpt lat="48.82372" lon="4.48358">
        <ele>88.6</ele>
        <time>2020-06-30T13:54:11Z</time>
      </trkpt>
      <trkpt lat="48.82379" lon="4.48354">
        <ele>88.6</ele>
        <time>2020-06-30T13:54:12Z</time>
      </trkpt>
      <trkpt lat="48.82386" lon="4.4835">
        <ele>88.6</ele>
        <time>2020-06-30T13:54:13Z</time>
      </trkpt>
      <trkpt lat="48.82392" lon="4.48346">
        <ele>88.5</ele>
        <time>2020-06-30T13:54:14Z</time>
      </trkpt>
      <trkpt lat="48.82399" lon="4.48342">
        <ele>88.5</ele>
        <time>2020-06-30T13:54:15Z</time>
      </trkpt>
      <trkpt lat="48.82406" lon="4.48338">
        <ele>88.4</ele>
        <time>2020-06-30T13:54:16Z</time>
      </trkpt>
      <trkpt lat="48.82412" lon="4.48333">
        <ele>88.4</ele>
        <time>2020-06-30T13:54:17Z</time>
      </trkpt>
      <trkpt lat="48.82419" lon="4.48329">
        <ele>88.4</ele>
        <time>2020-06-30T13:54:18Z</time>
      </trkpt>
      <trkpt lat="48.82426" lon="4.48325">
        <ele>88.3</ele>
        <time>2020-06-30T13:54:19Z</time>
      </trkpt>
      <trkpt lat="48.82433" lon="4.4832">
        <ele>88.3</ele>
        <time>2020-06-30T13:54:20Z</time>
      </trkpt>
      <trkpt lat="48.82439" lon="4.48315">
        <ele>88.3</ele>
        <time>2020-06-30T13:54:21Z</time>
      </trkpt>
      <trkpt lat="48.82446" lon="4.4831">
        <ele>88.4</ele>
        <time>2020-06-30T13:54:22Z</time>
      </trkpt>
      <trkpt lat="48.82452" lon="4.48305">
        <ele>88.4</ele>
        <time>2020-06-30T13:54:23Z</time>
      </trkpt>
      <trkpt lat="48.82458" lon="4.483">
        <ele>88.4</ele>
        <time>2020-06-30T13:54:24Z</time>
      </trkpt>
      <trkpt lat="48.82464" lon="4.48293">
        <ele>88.4</ele>
        <time>2020-06-30T13:54:25Z</time>
      </trkpt>
      <trkpt lat="48.8247" lon="4.48288">
        <ele>88.4</ele>
        <time>2020-06-30T13:54:26Z</time>
      </trkpt>
      <trkpt lat="48.82476" lon="4.48282">
        <ele>88.4</ele>
        <time>2020-06-30T13:54:27Z</time>
      </trkpt>
      <trkpt lat="48.82482" lon="4.48277">
        <ele>88.4</ele>
        <time>2020-06-30T13:54:28Z</time>
      </trkpt>
      <trkpt lat="48.82488" lon="4.48271">
        <ele>88.4</ele>
        <time>2020-06-30T13:54:29Z</time>
      </trkpt>
      <trkpt lat="48.82494" lon="4.48266">
        <ele>88.3</ele>
        <time>2020-06-30T13:54:30Z</time>
      </trkpt>
      <trkpt lat="48.82501" lon="4.48261">
        <ele>88.3</ele>
        <time>2020-06-30T13:54:31Z</time>
      </trkpt>
      <trkpt lat="48.82507" lon="4.48254">
        <ele>88.3</ele>
        <time>2020-06-30T13:54:32Z</time>
      </trkpt>
      <trkpt lat="48.82513" lon="4.48247">
        <ele>88.3</ele>
        <time>2020-06-30T13:54:33Z</time>
      </trkpt>
      <trkpt lat="48.82519" lon="4.48241">
        <ele>88.3</ele>
        <time>2020-06-30T13:54:34Z</time>
      </trkpt>
      <trkpt lat="48.82525" lon="4.48235">
        <ele>88.3</ele>
        <time>2020-06-30T13:54:35Z</time>
      </trkpt>
      <trkpt lat="48.82531" lon="4.4823">
        <ele>88.3</ele>
        <time>2020-06-30T13:54:36Z</time>
      </trkpt>
      <trkpt lat="48.82537" lon="4.48223">
        <ele>88.3</ele>
        <time>2020-06-30T13:54:37Z</time>
      </trkpt>
      <trkpt lat="48.82542" lon="4.48217">
        <ele>88.3</ele>
        <time>2020-06-30T13:54:38Z</time>
      </trkpt>
      <trkpt lat="48.82548" lon="4.48212">
        <ele>88.3</ele>
        <time>2020-06-30T13:54:39Z</time>
      </trkpt>
      <trkpt lat="48.82553" lon="4.48206">
        <ele>88.3</ele>
        <time>2020-06-30T13:54:40Z</time>
      </trkpt>
      <trkpt lat="48.82559" lon="4.48201">
        <ele>88.3</ele>
        <time>2020-06-30T13:54:41Z</time>
      </trkpt>
      <trkpt lat="48.82564" lon="4.48195">
        <ele>88.3</ele>
        <time>2020-06-30T13:54:42Z</time>
      </trkpt>
      <trkpt lat="48.8257" lon="4.48191">
        <ele>88.3</ele>
        <time>2020-06-30T13:54:43Z</time>
      </trkpt>
      <trkpt lat="48.82575" lon="4.48184">
        <ele>88.3</ele>
        <time>2020-06-30T13:54:44Z</time>
      </trkpt>
      <trkpt lat="48.82581" lon="4.48178">
        <ele>88.2</ele>
        <time>2020-06-30T13:54:45Z</time>
      </trkpt>
      <trkpt lat="48.82586" lon="4.48172">
        <ele>88.2</ele>
        <time>2020-06-30T13:54:46Z</time>
      </trkpt>
      <trkpt lat="48.82592" lon="4.48166">
        <ele>88.2</ele>
        <time>2020-06-30T13:54:47Z</time>
      </trkpt>
      <trkpt lat="48.82598" lon="4.4816">
        <ele>88.2</ele>
        <time>2020-06-30T13:54:48Z</time>
      </trkpt>
      <trkpt lat="48.82604" lon="4.48155">
        <ele>88.1</ele>
        <time>2020-06-30T13:54:49Z</time>
      </trkpt>
      <trkpt lat="48.82609" lon="4.48149">
        <ele>88.1</ele>
        <time>2020-06-30T13:54:50Z</time>
      </trkpt>
      <trkpt lat="48.82615" lon="4.48143">
        <ele>88.1</ele>
        <time>2020-06-30T13:54:51Z</time>
      </trkpt>
      <trkpt lat="48.82621" lon="4.48138">
        <ele>88.1</ele>
        <time>2020-06-30T13:54:52Z</time>
      </trkpt>
      <trkpt lat="48.82626" lon="4.48132">
        <ele>88.1</ele>
        <time>2020-06-30T13:54:53Z</time>
      </trkpt>
      <trkpt lat="48.82632" lon="4.48126">
        <ele>88.2</ele>
        <time>2020-06-30T13:54:54Z</time>
      </trkpt>
      <trkpt lat="48.82638" lon="4.48121">
        <ele>88.2</ele>
        <time>2020-06-30T13:54:55Z</time>
      </trkpt>
      <trkpt lat="48.82643" lon="4.48115">
        <ele>88.2</ele>
        <time>2020-06-30T13:54:56Z</time>
      </trkpt>
      <trkpt lat="48.82649" lon="4.48109">
        <ele>88.2</ele>
        <time>2020-06-30T13:54:57Z</time>
      </trkpt>
      <trkpt lat="48.82655" lon="4.48104">
        <ele>88.2</ele>
        <time>2020-06-30T13:54:58Z</time>
      </trkpt>
      <trkpt lat="48.8266" lon="4.48098">
        <ele>88.2</ele>
        <time>2020-06-30T13:54:59Z</time>
      </trkpt>
      <trkpt lat="48.82665" lon="4.48093">
        <ele>88.2</ele>
        <time>2020-06-30T13:55:00Z</time>
      </trkpt>
      <trkpt lat="48.82671" lon="4.48087">
        <ele>88.2</ele>
        <time>2020-06-30T13:55:01Z</time>
      </trkpt>
      <trkpt lat="48.82676" lon="4.48082">
        <ele>88.3</ele>
        <time>2020-06-30T13:55:02Z</time>
      </trkpt>
      <trkpt lat="48.82682" lon="4.48077">
        <ele>88.4</ele>
        <time>2020-06-30T13:55:03Z</time>
      </trkpt>
      <trkpt lat="48.82688" lon="4.48071">
        <ele>88.4</ele>
        <time>2020-06-30T13:55:04Z</time>
      </trkpt>
      <trkpt lat="48.82694" lon="4.48065">
        <ele>88.4</ele>
        <time>2020-06-30T13:55:05Z</time>
      </trkpt>
      <trkpt lat="48.827" lon="4.48059">
        <ele>88.4</ele>
        <time>2020-06-30T13:55:06Z</time>
      </trkpt>
      <trkpt lat="48.82706" lon="4.48053">
        <ele>88.4</ele>
        <time>2020-06-30T13:55:07Z</time>
      </trkpt>
      <trkpt lat="48.82712" lon="4.48047">
        <ele>88.3</ele>
        <time>2020-06-30T13:55:08Z</time>
      </trkpt>
      <trkpt lat="48.82717" lon="4.48039">
        <ele>88.3</ele>
        <time>2020-06-30T13:55:09Z</time>
      </trkpt>
      <trkpt lat="48.82723" lon="4.48033">
        <ele>88.2</ele>
        <time>2020-06-30T13:55:10Z</time>
      </trkpt>
      <trkpt lat="48.82728" lon="4.48027">
        <ele>88.2</ele>
        <time>2020-06-30T13:55:11Z</time>
      </trkpt>
      <trkpt lat="48.82733" lon="4.48022">
        <ele>88.2</ele>
        <time>2020-06-30T13:55:12Z</time>
      </trkpt>
      <trkpt lat="48.8274" lon="4.48014">
        <ele>88.2</ele>
        <time>2020-06-30T13:55:13Z</time>
      </trkpt>
      <trkpt lat="48.82746" lon="4.48009">
        <ele>88.1</ele>
        <time>2020-06-30T13:55:14Z</time>
      </trkpt>
      <trkpt lat="48.82752" lon="4.48004">
        <ele>88.1</ele>
        <time>2020-06-30T13:55:15Z</time>
      </trkpt>
      <trkpt lat="48.82758" lon="4.47996">
        <ele>88.1</ele>
        <time>2020-06-30T13:55:16Z</time>
      </trkpt>
      <trkpt lat="48.82764" lon="4.47992">
        <ele>88.1</ele>
        <time>2020-06-30T13:55:17Z</time>
      </trkpt>
      <trkpt lat="48.82769" lon="4.47985">
        <ele>88.1</ele>
        <time>2020-06-30T13:55:18Z</time>
      </trkpt>
      <trkpt lat="48.82776" lon="4.47979">
        <ele>88.1</ele>
        <time>2020-06-30T13:55:19Z</time>
      </trkpt>
      <trkpt lat="48.82781" lon="4.47973">
        <ele>88.1</ele>
        <time>2020-06-30T13:55:20Z</time>
      </trkpt>
      <trkpt lat="48.82787" lon="4.47968">
        <ele>88.1</ele>
        <time>2020-06-30T13:55:21Z</time>
      </trkpt>
      <trkpt lat="48.82793" lon="4.47963">
        <ele>88.2</ele>
        <time>2020-06-30T13:55:22Z</time>
      </trkpt>
      <trkpt lat="48.82799" lon="4.47957">
        <ele>88.2</ele>
        <time>2020-06-30T13:55:23Z</time>
      </trkpt>
      <trkpt lat="48.82805" lon="4.47951">
        <ele>88.3</ele>
        <time>2020-06-30T13:55:24Z</time>
      </trkpt>
      <trkpt lat="48.82811" lon="4.47946">
        <ele>88.3</ele>
        <time>2020-06-30T13:55:25Z</time>
      </trkpt>
      <trkpt lat="48.82818" lon="4.47938">
        <ele>88.3</ele>
        <time>2020-06-30T13:55:26Z</time>
      </trkpt>
      <trkpt lat="48.82823" lon="4.47932">
        <ele>88.4</ele>
        <time>2020-06-30T13:55:27Z</time>
      </trkpt>
      <trkpt lat="48.82828" lon="4.47926">
        <ele>88.4</ele>
        <time>2020-06-30T13:55:28Z</time>
      </trkpt>
      <trkpt lat="48.82834" lon="4.4792">
        <ele>88.4</ele>
        <time>2020-06-30T13:55:29Z</time>
      </trkpt>
      <trkpt lat="48.82839" lon="4.47914">
        <ele>88.4</ele>
        <time>2020-06-30T13:55:30Z</time>
      </trkpt>
      <trkpt lat="48.82844" lon="4.47909">
        <ele>88.4</ele>
        <time>2020-06-30T13:55:31Z</time>
      </trkpt>
      <trkpt lat="48.8285" lon="4.47902">
        <ele>88.4</ele>
        <time>2020-06-30T13:55:32Z</time>
      </trkpt>
      <trkpt lat="48.82855" lon="4.47895">
        <ele>88.5</ele>
        <time>2020-06-30T13:55:33Z</time>
      </trkpt>
      <trkpt lat="48.8286" lon="4.47888">
        <ele>88.5</ele>
        <time>2020-06-30T13:55:34Z</time>
      </trkpt>
      <trkpt lat="48.82864" lon="4.47882">
        <ele>88.5</ele>
        <time>2020-06-30T13:55:35Z</time>
      </trkpt>
      <trkpt lat="48.82869" lon="4.47875">
        <ele>88.6</ele>
        <time>2020-06-30T13:55:36Z</time>
      </trkpt>
      <trkpt lat="48.82874" lon="4.47867">
        <ele>88.6</ele>
        <time>2020-06-30T13:55:37Z</time>
      </trkpt>
      <trkpt lat="48.82879" lon="4.47859">
        <ele>88.7</ele>
        <time>2020-06-30T13:55:38Z</time>
      </trkpt>
      <trkpt lat="48.82883" lon="4.47852">
        <ele>88.7</ele>
        <time>2020-06-30T13:55:39Z</time>
      </trkpt>
      <trkpt lat="48.82887" lon="4.47845">
        <ele>88.7</ele>
        <time>2020-06-30T13:55:40Z</time>
      </trkpt>
      <trkpt lat="48.8289" lon="4.47838">
        <ele>88.8</ele>
        <time>2020-06-30T13:55:41Z</time>
      </trkpt>
      <trkpt lat="48.82894" lon="4.47831">
        <ele>88.8</ele>
        <time>2020-06-30T13:55:42Z</time>
      </trkpt>
      <trkpt lat="48.82898" lon="4.47825">
        <ele>88.8</ele>
        <time>2020-06-30T13:55:43Z</time>
      </trkpt>
      <trkpt lat="48.82902" lon="4.47819">
        <ele>88.8</ele>
        <time>2020-06-30T13:55:44Z</time>
      </trkpt>
      <trkpt lat="48.82906" lon="4.47812">
        <ele>88.8</ele>
        <time>2020-06-30T13:55:45Z</time>
      </trkpt>
      <trkpt lat="48.82909" lon="4.47806">
        <ele>88.8</ele>
        <time>2020-06-30T13:55:46Z</time>
      </trkpt>
      <trkpt lat="48.82914" lon="4.47798">
        <ele>88.8</ele>
        <time>2020-06-30T13:55:47Z</time>
      </trkpt>
      <trkpt lat="48.82919" lon="4.47791">
        <ele>88.7</ele>
        <time>2020-06-30T13:55:48Z</time>
      </trkpt>
      <trkpt lat="48.82923" lon="4.47784">
        <ele>88.7</ele>
        <time>2020-06-30T13:55:49Z</time>
      </trkpt>
      <trkpt lat="48.82928" lon="4.47777">
        <ele>88.6</ele>
        <time>2020-06-30T13:55:50Z</time>
      </trkpt>
      <trkpt lat="48.82933" lon="4.47768">
        <ele>88.6</ele>
        <time>2020-06-30T13:55:51Z</time>
      </trkpt>
      <trkpt lat="48.82937" lon="4.47762">
        <ele>88.6</ele>
        <time>2020-06-30T13:55:52Z</time>
      </trkpt>
      <trkpt lat="48.82942" lon="4.47755">
        <ele>88.6</ele>
        <time>2020-06-30T13:55:53Z</time>
      </trkpt>
      <trkpt lat="48.82946" lon="4.47748">
        <ele>88.6</ele>
        <time>2020-06-30T13:55:54Z</time>
      </trkpt>
      <trkpt lat="48.82951" lon="4.47742">
        <ele>88.6</ele>
        <time>2020-06-30T13:55:55Z</time>
      </trkpt>
      <trkpt lat="48.82955" lon="4.47736">
        <ele>88.6</ele>
        <time>2020-06-30T13:55:56Z</time>
      </trkpt>
      <trkpt lat="48.8296" lon="4.4773">
        <ele>88.6</ele>
        <time>2020-06-30T13:55:57Z</time>
      </trkpt>
      <trkpt lat="48.82964" lon="4.47723">
        <ele>88.6</ele>
        <time>2020-06-30T13:55:58Z</time>
      </trkpt>
      <trkpt lat="48.82968" lon="4.47717">
        <ele>88.6</ele>
        <time>2020-06-30T13:55:59Z</time>
      </trkpt>
      <trkpt lat="48.82972" lon="4.47712">
        <ele>88.6</ele>
        <time>2020-06-30T13:56:00Z</time>
      </trkpt>
      <trkpt lat="48.82978" lon="4.47706">
        <ele>88.7</ele>
        <time>2020-06-30T13:56:01Z</time>
      </trkpt>
      <trkpt lat="48.82983" lon="4.47699">
        <ele>88.7</ele>
        <time>2020-06-30T13:56:02Z</time>
      </trkpt>
      <trkpt lat="48.82988" lon="4.47692">
        <ele>88.7</ele>
        <time>2020-06-30T13:56:03Z</time>
      </trkpt>
      <trkpt lat="48.82993" lon="4.47684">
        <ele>88.7</ele>
        <time>2020-06-30T13:56:04Z</time>
      </trkpt>
      <trkpt lat="48.82998" lon="4.47677">
        <ele>88.7</ele>
        <time>2020-06-30T13:56:05Z</time>
      </trkpt>
      <trkpt lat="48.83002" lon="4.4767">
        <ele>88.7</ele>
        <time>2020-06-30T13:56:06Z</time>
      </trkpt>
      <trkpt lat="48.83007" lon="4.47663">
        <ele>88.7</ele>
        <time>2020-06-30T13:56:07Z</time>
      </trkpt>
      <trkpt lat="48.83011" lon="4.47657">
        <ele>88.7</ele>
        <time>2020-06-30T13:56:08Z</time>
      </trkpt>
      <trkpt lat="48.83015" lon="4.4765">
        <ele>88.7</ele>
        <time>2020-06-30T13:56:09Z</time>
      </trkpt>
      <trkpt lat="48.8302" lon="4.47643">
        <ele>88.7</ele>
        <time>2020-06-30T13:56:10Z</time>
      </trkpt>
      <trkpt lat="48.83024" lon="4.47636">
        <ele>88.8</ele>
        <time>2020-06-30T13:56:11Z</time>
      </trkpt>
      <trkpt lat="48.83029" lon="4.4763">
        <ele>88.8</ele>
        <time>2020-06-30T13:56:12Z</time>
      </trkpt>
      <trkpt lat="48.83033" lon="4.47623">
        <ele>88.8</ele>
        <time>2020-06-30T13:56:13Z</time>
      </trkpt>
      <trkpt lat="48.83038" lon="4.47616">
        <ele>88.8</ele>
        <time>2020-06-30T13:56:14Z</time>
      </trkpt>
      <trkpt lat="48.83042" lon="4.4761">
        <ele>88.8</ele>
        <time>2020-06-30T13:56:15Z</time>
      </trkpt>
      <trkpt lat="48.83047" lon="4.47603">
        <ele>88.9</ele>
        <time>2020-06-30T13:56:16Z</time>
      </trkpt>
      <trkpt lat="48.83053" lon="4.47596">
        <ele>88.9</ele>
        <time>2020-06-30T13:56:17Z</time>
      </trkpt>
      <trkpt lat="48.83058" lon="4.47589">
        <ele>88.9</ele>
        <time>2020-06-30T13:56:18Z</time>
      </trkpt>
      <trkpt lat="48.83063" lon="4.47584">
        <ele>88.9</ele>
        <time>2020-06-30T13:56:19Z</time>
      </trkpt>
      <trkpt lat="48.83068" lon="4.47579">
        <ele>88.9</ele>
        <time>2020-06-30T13:56:20Z</time>
      </trkpt>
      <trkpt lat="48.83073" lon="4.47573">
        <ele>88.9</ele>
        <time>2020-06-30T13:56:21Z</time>
      </trkpt>
      <trkpt lat="48.83077" lon="4.47565">
        <ele>88.9</ele>
        <time>2020-06-30T13:56:22Z</time>
      </trkpt>
      <trkpt lat="48.83082" lon="4.47561">
        <ele>88.9</ele>
        <time>2020-06-30T13:56:23Z</time>
      </trkpt>
      <trkpt lat="48.83087" lon="4.47556">
        <ele>88.8</ele>
        <time>2020-06-30T13:56:24Z</time>
      </trkpt>
      <trkpt lat="48.83093" lon="4.47551">
        <ele>88.6</ele>
        <time>2020-06-30T13:56:25Z</time>
      </trkpt>
      <trkpt lat="48.83098" lon="4.47546">
        <ele>88.5</ele>
        <time>2020-06-30T13:56:26Z</time>
      </trkpt>
      <trkpt lat="48.83104" lon="4.47541">
        <ele>88.3</ele>
        <time>2020-06-30T13:56:27Z</time>
      </trkpt>
      <trkpt lat="48.83109" lon="4.47536">
        <ele>88.3</ele>
        <time>2020-06-30T13:56:28Z</time>
      </trkpt>
      <trkpt lat="48.83114" lon="4.47531">
        <ele>88.2</ele>
        <time>2020-06-30T13:56:29Z</time>
      </trkpt>
      <trkpt lat="48.8312" lon="4.47527">
        <ele>88.2</ele>
        <time>2020-06-30T13:56:30Z</time>
      </trkpt>
      <trkpt lat="48.83126" lon="4.47523">
        <ele>88.1</ele>
        <time>2020-06-30T13:56:31Z</time>
      </trkpt>
      <trkpt lat="48.83131" lon="4.47517">
        <ele>88</ele>
        <time>2020-06-30T13:56:32Z</time>
      </trkpt>
      <trkpt lat="48.83137" lon="4.47512">
        <ele>88</ele>
        <time>2020-06-30T13:56:33Z</time>
      </trkpt>
      <trkpt lat="48.83143" lon="4.47506">
        <ele>87.9</ele>
        <time>2020-06-30T13:56:34Z</time>
      </trkpt>
      <trkpt lat="48.83149" lon="4.47502">
        <ele>87.9</ele>
        <time>2020-06-30T13:56:35Z</time>
      </trkpt>
      <trkpt lat="48.83154" lon="4.47497">
        <ele>87.8</ele>
        <time>2020-06-30T13:56:36Z</time>
      </trkpt>
      <trkpt lat="48.8316" lon="4.47492">
        <ele>87.8</ele>
        <time>2020-06-30T13:56:37Z</time>
      </trkpt>
      <trkpt lat="48.83166" lon="4.47486">
        <ele>87.7</ele>
        <time>2020-06-30T13:56:38Z</time>
      </trkpt>
      <trkpt lat="48.83172" lon="4.47482">
        <ele>87.6</ele>
        <time>2020-06-30T13:56:39Z</time>
      </trkpt>
      <trkpt lat="48.83178" lon="4.47476">
        <ele>87.6</ele>
        <time>2020-06-30T13:56:40Z</time>
      </trkpt>
      <trkpt lat="48.83184" lon="4.47469">
        <ele>87.5</ele>
        <time>2020-06-30T13:56:41Z</time>
      </trkpt>
      <trkpt lat="48.83189" lon="4.47463">
        <ele>87.4</ele>
        <time>2020-06-30T13:56:42Z</time>
      </trkpt>
      <trkpt lat="48.83195" lon="4.47457">
        <ele>87.4</ele>
        <time>2020-06-30T13:56:43Z</time>
      </trkpt>
      <trkpt lat="48.83201" lon="4.4745">
        <ele>87.3</ele>
        <time>2020-06-30T13:56:44Z</time>
      </trkpt>
      <trkpt lat="48.83207" lon="4.47444">
        <ele>87.2</ele>
        <time>2020-06-30T13:56:45Z</time>
      </trkpt>
      <trkpt lat="48.83212" lon="4.47438">
        <ele>87.2</ele>
        <time>2020-06-30T13:56:46Z</time>
      </trkpt>
      <trkpt lat="48.83218" lon="4.47431">
        <ele>87.2</ele>
        <time>2020-06-30T13:56:47Z</time>
      </trkpt>
      <trkpt lat="48.83223" lon="4.47423">
        <ele>87.3</ele>
        <time>2020-06-30T13:56:48Z</time>
      </trkpt>
      <trkpt lat="48.83227" lon="4.47414">
        <ele>87.4</ele>
        <time>2020-06-30T13:56:49Z</time>
      </trkpt>
      <trkpt lat="48.83231" lon="4.47405">
        <ele>87.4</ele>
        <time>2020-06-30T13:56:50Z</time>
      </trkpt>
      <trkpt lat="48.83235" lon="4.47396">
        <ele>87.5</ele>
        <time>2020-06-30T13:56:51Z</time>
      </trkpt>
      <trkpt lat="48.83236" lon="4.47385">
        <ele>87.5</ele>
        <time>2020-06-30T13:56:52Z</time>
      </trkpt>
      <trkpt lat="48.83238" lon="4.47375">
        <ele>87.5</ele>
        <time>2020-06-30T13:56:53Z</time>
      </trkpt>
      <trkpt lat="48.83239" lon="4.47365">
        <ele>87.6</ele>
        <time>2020-06-30T13:56:54Z</time>
      </trkpt>
      <trkpt lat="48.8324" lon="4.47354">
        <ele>87.6</ele>
        <time>2020-06-30T13:56:55Z</time>
      </trkpt>
      <trkpt lat="48.83242" lon="4.47344">
        <ele>87.7</ele>
        <time>2020-06-30T13:56:56Z</time>
      </trkpt>
      <trkpt lat="48.83244" lon="4.47334">
        <ele>87.7</ele>
        <time>2020-06-30T13:56:57Z</time>
      </trkpt>
      <trkpt lat="48.83245" lon="4.47324">
        <ele>87.7</ele>
        <time>2020-06-30T13:56:58Z</time>
      </trkpt>
      <trkpt lat="48.83247" lon="4.47315">
        <ele>87.8</ele>
        <time>2020-06-30T13:56:59Z</time>
      </trkpt>
      <trkpt lat="48.83249" lon="4.47305">
        <ele>87.8</ele>
        <time>2020-06-30T13:57:00Z</time>
      </trkpt>
      <trkpt lat="48.83252" lon="4.47296">
        <ele>87.7</ele>
        <time>2020-06-30T13:57:01Z</time>
      </trkpt>
      <trkpt lat="48.83255" lon="4.47287">
        <ele>87.7</ele>
        <time>2020-06-30T13:57:02Z</time>
      </trkpt>
      <trkpt lat="48.83257" lon="4.47279">
        <ele>87.7</ele>
        <time>2020-06-30T13:57:03Z</time>
      </trkpt>
      <trkpt lat="48.83259" lon="4.4727">
        <ele>87.7</ele>
        <time>2020-06-30T13:57:04Z</time>
      </trkpt>
      <trkpt lat="48.83262" lon="4.47262">
        <ele>87.7</ele>
        <time>2020-06-30T13:57:05Z</time>
      </trkpt>
      <trkpt lat="48.83266" lon="4.47255">
        <ele>87.7</ele>
        <time>2020-06-30T13:57:06Z</time>
      </trkpt>
      <trkpt lat="48.83267" lon="4.47246">
        <ele>87.6</ele>
        <time>2020-06-30T13:57:07Z</time>
      </trkpt>
      <trkpt lat="48.8327" lon="4.47239">
        <ele>87.6</ele>
        <time>2020-06-30T13:57:08Z</time>
      </trkpt>
      <trkpt lat="48.83273" lon="4.47232">
        <ele>87.6</ele>
        <time>2020-06-30T13:57:09Z</time>
      </trkpt>
      <trkpt lat="48.83276" lon="4.47223">
        <ele>87.5</ele>
        <time>2020-06-30T13:57:10Z</time>
      </trkpt>
      <trkpt lat="48.83278" lon="4.47214">
        <ele>87.5</ele>
        <time>2020-06-30T13:57:11Z</time>
      </trkpt>
      <trkpt lat="48.83281" lon="4.47206">
        <ele>87.4</ele>
        <time>2020-06-30T13:57:12Z</time>
      </trkpt>
      <trkpt lat="48.83284" lon="4.47198">
        <ele>87.4</ele>
        <time>2020-06-30T13:57:13Z</time>
      </trkpt>
      <trkpt lat="48.83288" lon="4.47192">
        <ele>87.4</ele>
        <time>2020-06-30T13:57:14Z</time>
      </trkpt>
      <trkpt lat="48.83292" lon="4.47184">
        <ele>87.4</ele>
        <time>2020-06-30T13:57:15Z</time>
      </trkpt>
      <trkpt lat="48.83295" lon="4.47176">
        <ele>87.3</ele>
        <time>2020-06-30T13:57:16Z</time>
      </trkpt>
      <trkpt lat="48.83298" lon="4.47169">
        <ele>87.4</ele>
        <time>2020-06-30T13:57:17Z</time>
      </trkpt>
      <trkpt lat="48.83301" lon="4.4716">
        <ele>87.4</ele>
        <time>2020-06-30T13:57:18Z</time>
      </trkpt>
      <trkpt lat="48.83305" lon="4.47152">
        <ele>87.4</ele>
        <time>2020-06-30T13:57:19Z</time>
      </trkpt>
      <trkpt lat="48.83309" lon="4.47146">
        <ele>87.5</ele>
        <time>2020-06-30T13:57:20Z</time>
      </trkpt>
      <trkpt lat="48.83314" lon="4.4714">
        <ele>87.5</ele>
        <time>2020-06-30T13:57:21Z</time>
      </trkpt>
      <trkpt lat="48.83318" lon="4.47133">
        <ele>87.5</ele>
        <time>2020-06-30T13:57:22Z</time>
      </trkpt>
      <trkpt lat="48.83321" lon="4.47126">
        <ele>87.4</ele>
        <time>2020-06-30T13:57:23Z</time>
      </trkpt>
      <trkpt lat="48.83325" lon="4.47119">
        <ele>87.3</ele>
        <time>2020-06-30T13:57:24Z</time>
      </trkpt>
      <trkpt lat="48.83328" lon="4.47113">
        <ele>87.3</ele>
        <time>2020-06-30T13:57:25Z</time>
      </trkpt>
      <trkpt lat="48.83333" lon="4.47107">
        <ele>87.2</ele>
        <time>2020-06-30T13:57:26Z</time>
      </trkpt>
      <trkpt lat="48.83339" lon="4.47104">
        <ele>87.2</ele>
        <time>2020-06-30T13:57:27Z</time>
      </trkpt>
      <trkpt lat="48.83343" lon="4.47097">
        <ele>87.2</ele>
        <time>2020-06-30T13:57:28Z</time>
      </trkpt>
      <trkpt lat="48.83348" lon="4.47091">
        <ele>87.1</ele>
        <time>2020-06-30T13:57:29Z</time>
      </trkpt>
      <trkpt lat="48.83353" lon="4.47086">
        <ele>87.1</ele>
        <time>2020-06-30T13:57:30Z</time>
      </trkpt>
      <trkpt lat="48.83359" lon="4.47082">
        <ele>87</ele>
        <time>2020-06-30T13:57:31Z</time>
      </trkpt>
      <trkpt lat="48.83363" lon="4.47076">
        <ele>87</ele>
        <time>2020-06-30T13:57:32Z</time>
      </trkpt>
      <trkpt lat="48.83368" lon="4.4707">
        <ele>87</ele>
        <time>2020-06-30T13:57:33Z</time>
      </trkpt>
      <trkpt lat="48.83373" lon="4.47065">
        <ele>86.9</ele>
        <time>2020-06-30T13:57:34Z</time>
      </trkpt>
      <trkpt lat="48.83378" lon="4.4706">
        <ele>86.9</ele>
        <time>2020-06-30T13:57:35Z</time>
      </trkpt>
      <trkpt lat="48.83382" lon="4.47054">
        <ele>86.9</ele>
        <time>2020-06-30T13:57:36Z</time>
      </trkpt>
      <trkpt lat="48.83388" lon="4.47048">
        <ele>86.9</ele>
        <time>2020-06-30T13:57:37Z</time>
      </trkpt>
      <trkpt lat="48.83391" lon="4.4704">
        <ele>86.9</ele>
        <time>2020-06-30T13:57:38Z</time>
      </trkpt>
      <trkpt lat="48.83393" lon="4.4703">
        <ele>86.9</ele>
        <time>2020-06-30T13:57:39Z</time>
      </trkpt>
      <trkpt lat="48.83391" lon="4.47022">
        <ele>87</ele>
        <time>2020-06-30T13:57:40Z</time>
      </trkpt>
      <trkpt lat="48.8339" lon="4.47013">
        <ele>87</ele>
        <time>2020-06-30T13:57:41Z</time>
      </trkpt>
      <trkpt lat="48.83391" lon="4.47005">
        <ele>87</ele>
        <time>2020-06-30T13:57:42Z</time>
      </trkpt>
      <trkpt lat="48.83391" lon="4.46996">
        <ele>87</ele>
        <time>2020-06-30T13:57:43Z</time>
      </trkpt>
      <trkpt lat="48.8339" lon="4.46987">
        <ele>87</ele>
        <time>2020-06-30T13:57:44Z</time>
      </trkpt>
      <trkpt lat="48.83391" lon="4.46978">
        <ele>87.1</ele>
        <time>2020-06-30T13:57:45Z</time>
      </trkpt>
      <trkpt lat="48.83391" lon="4.4697">
        <ele>87.1</ele>
        <time>2020-06-30T13:57:46Z</time>
      </trkpt>
      <trkpt lat="48.83391" lon="4.46961">
        <ele>87.1</ele>
        <time>2020-06-30T13:57:47Z</time>
      </trkpt>
      <trkpt lat="48.83391" lon="4.46953">
        <ele>87.1</ele>
        <time>2020-06-30T13:57:48Z</time>
      </trkpt>
      <trkpt lat="48.83391" lon="4.46945">
        <ele>87.2</ele>
        <time>2020-06-30T13:57:49Z</time>
      </trkpt>
      <trkpt lat="48.83393" lon="4.46937">
        <ele>87.2</ele>
        <time>2020-06-30T13:57:50Z</time>
      </trkpt>
      <trkpt lat="48.83393" lon="4.46929">
        <ele>87.2</ele>
        <time>2020-06-30T13:57:51Z</time>
      </trkpt>
      <trkpt lat="48.83395" lon="4.46921">
        <ele>87.3</ele>
        <time>2020-06-30T13:57:52Z</time>
      </trkpt>
      <trkpt lat="48.83397" lon="4.46912">
        <ele>87.3</ele>
        <time>2020-06-30T13:57:53Z</time>
      </trkpt>
      <trkpt lat="48.83398" lon="4.46904">
        <ele>87.4</ele>
        <time>2020-06-30T13:57:54Z</time>
      </trkpt>
      <trkpt lat="48.834" lon="4.46896">
        <ele>87.4</ele>
        <time>2020-06-30T13:57:55Z</time>
      </trkpt>
      <trkpt lat="48.83401" lon="4.46888">
        <ele>87.5</ele>
        <time>2020-06-30T13:57:56Z</time>
      </trkpt>
      <trkpt lat="48.83402" lon="4.46879">
        <ele>87.5</ele>
        <time>2020-06-30T13:57:57Z</time>
      </trkpt>
      <trkpt lat="48.83404" lon="4.46871">
        <ele>87.6</ele>
        <time>2020-06-30T13:57:58Z</time>
      </trkpt>
      <trkpt lat="48.83406" lon="4.46863">
        <ele>87.7</ele>
        <time>2020-06-30T13:57:59Z</time>
      </trkpt>
      <trkpt lat="48.83409" lon="4.46856">
        <ele>87.8</ele>
        <time>2020-06-30T13:58:00Z</time>
      </trkpt>
      <trkpt lat="48.83412" lon="4.46848">
        <ele>87.9</ele>
        <time>2020-06-30T13:58:01Z</time>
      </trkpt>
      <trkpt lat="48.83415" lon="4.46841">
        <ele>88</ele>
        <time>2020-06-30T13:58:02Z</time>
      </trkpt>
      <trkpt lat="48.83418" lon="4.46833">
        <ele>88</ele>
        <time>2020-06-30T13:58:03Z</time>
      </trkpt>
      <trkpt lat="48.83421" lon="4.46826">
        <ele>88.1</ele>
        <time>2020-06-30T13:58:04Z</time>
      </trkpt>
      <trkpt lat="48.83425" lon="4.4682">
        <ele>88.1</ele>
        <time>2020-06-30T13:58:05Z</time>
      </trkpt>
      <trkpt lat="48.83428" lon="4.46813">
        <ele>88.2</ele>
        <time>2020-06-30T13:58:06Z</time>
      </trkpt>
      <trkpt lat="48.83433" lon="4.46808">
        <ele>88.2</ele>
        <time>2020-06-30T13:58:07Z</time>
      </trkpt>
      <trkpt lat="48.83436" lon="4.46801">
        <ele>88.3</ele>
        <time>2020-06-30T13:58:08Z</time>
      </trkpt>
      <trkpt lat="48.83441" lon="4.46795">
        <ele>88.3</ele>
        <time>2020-06-30T13:58:09Z</time>
      </trkpt>
      <trkpt lat="48.83445" lon="4.46789">
        <ele>88.4</ele>
        <time>2020-06-30T13:58:10Z</time>
      </trkpt>
      <trkpt lat="48.83449" lon="4.46783">
        <ele>88.4</ele>
        <time>2020-06-30T13:58:11Z</time>
      </trkpt>
      <trkpt lat="48.83454" lon="4.46778">
        <ele>88.5</ele>
        <time>2020-06-30T13:58:12Z</time>
      </trkpt>
      <trkpt lat="48.83459" lon="4.46774">
        <ele>88.6</ele>
        <time>2020-06-30T13:58:13Z</time>
      </trkpt>
      <trkpt lat="48.83463" lon="4.46768">
        <ele>88.6</ele>
        <time>2020-06-30T13:58:14Z</time>
      </trkpt>
      <trkpt lat="48.83466" lon="4.46762">
        <ele>88.7</ele>
        <time>2020-06-30T13:58:15Z</time>
      </trkpt>
      <trkpt lat="48.83469" lon="4.46755">
        <ele>88.8</ele>
        <time>2020-06-30T13:58:16Z</time>
      </trkpt>
      <trkpt lat="48.83474" lon="4.4675">
        <ele>88.9</ele>
        <time>2020-06-30T13:58:17Z</time>
      </trkpt>
      <trkpt lat="48.83478" lon="4.46744">
        <ele>88.9</ele>
        <time>2020-06-30T13:58:18Z</time>
      </trkpt>
      <trkpt lat="48.83483" lon="4.46738">
        <ele>89</ele>
        <time>2020-06-30T13:58:19Z</time>
      </trkpt>
      <trkpt lat="48.83487" lon="4.46732">
        <ele>89.1</ele>
        <time>2020-06-30T13:58:20Z</time>
      </trkpt>
      <trkpt lat="48.83492" lon="4.46727">
        <ele>89.1</ele>
        <time>2020-06-30T13:58:21Z</time>
      </trkpt>
      <trkpt lat="48.83496" lon="4.46723">
        <ele>89.2</ele>
        <time>2020-06-30T13:58:22Z</time>
      </trkpt>
      <trkpt lat="48.83501" lon="4.46717">
        <ele>89.2</ele>
        <time>2020-06-30T13:58:23Z</time>
      </trkpt>
      <trkpt lat="48.83507" lon="4.46713">
        <ele>89.3</ele>
        <time>2020-06-30T13:58:24Z</time>
      </trkpt>
      <trkpt lat="48.83511" lon="4.46707">
        <ele>89.3</ele>
        <time>2020-06-30T13:58:25Z</time>
      </trkpt>
      <trkpt lat="48.83516" lon="4.46701">
        <ele>89.3</ele>
        <time>2020-06-30T13:58:26Z</time>
      </trkpt>
      <trkpt lat="48.8352" lon="4.46695">
        <ele>89.4</ele>
        <time>2020-06-30T13:58:27Z</time>
      </trkpt>
      <trkpt lat="48.83524" lon="4.46689">
        <ele>89.4</ele>
        <time>2020-06-30T13:58:28Z</time>
      </trkpt>
      <trkpt lat="48.83529" lon="4.46684">
        <ele>89.4</ele>
        <time>2020-06-30T13:58:29Z</time>
      </trkpt>
      <trkpt lat="48.83534" lon="4.46677">
        <ele>89.5</ele>
        <time>2020-06-30T13:58:30Z</time>
      </trkpt>
      <trkpt lat="48.83539" lon="4.46671">
        <ele>89.5</ele>
        <time>2020-06-30T13:58:31Z</time>
      </trkpt>
      <trkpt lat="48.83543" lon="4.46665">
        <ele>89.6</ele>
        <time>2020-06-30T13:58:32Z</time>
      </trkpt>
      <trkpt lat="48.83548" lon="4.46658">
        <ele>89.6</ele>
        <time>2020-06-30T13:58:33Z</time>
      </trkpt>
      <trkpt lat="48.83553" lon="4.46652">
        <ele>89.7</ele>
        <time>2020-06-30T13:58:34Z</time>
      </trkpt>
      <trkpt lat="48.83558" lon="4.46645">
        <ele>89.8</ele>
        <time>2020-06-30T13:58:35Z</time>
      </trkpt>
      <trkpt lat="48.83562" lon="4.46638">
        <ele>89.9</ele>
        <time>2020-06-30T13:58:36Z</time>
      </trkpt>
      <trkpt lat="48.83567" lon="4.46631">
        <ele>90</ele>
        <time>2020-06-30T13:58:37Z</time>
      </trkpt>
      <trkpt lat="48.83572" lon="4.46624">
        <ele>90</ele>
        <time>2020-06-30T13:58:38Z</time>
      </trkpt>
      <trkpt lat="48.83577" lon="4.46617">
        <ele>89.9</ele>
        <time>2020-06-30T13:58:39Z</time>
      </trkpt>
      <trkpt lat="48.83582" lon="4.4661">
        <ele>89.9</ele>
        <time>2020-06-30T13:58:40Z</time>
      </trkpt>
      <trkpt lat="48.83588" lon="4.46603">
        <ele>89.9</ele>
        <time>2020-06-30T13:58:41Z</time>
      </trkpt>
      <trkpt lat="48.83593" lon="4.46596">
        <ele>89.9</ele>
        <time>2020-06-30T13:58:42Z</time>
      </trkpt>
      <trkpt lat="48.83598" lon="4.46589">
        <ele>89.9</ele>
        <time>2020-06-30T13:58:43Z</time>
      </trkpt>
      <trkpt lat="48.83603" lon="4.46581">
        <ele>89.9</ele>
        <time>2020-06-30T13:58:44Z</time>
      </trkpt>
      <trkpt lat="48.83609" lon="4.46573">
        <ele>89.8</ele>
        <time>2020-06-30T13:58:45Z</time>
      </trkpt>
      <trkpt lat="48.83614" lon="4.46564">
        <ele>89.8</ele>
        <time>2020-06-30T13:58:46Z</time>
      </trkpt>
      <trkpt lat="48.83618" lon="4.46557">
        <ele>89.8</ele>
        <time>2020-06-30T13:58:47Z</time>
      </trkpt>
      <trkpt lat="48.83623" lon="4.4655">
        <ele>89.7</ele>
        <time>2020-06-30T13:58:48Z</time>
      </trkpt>
      <trkpt lat="48.83628" lon="4.46542">
        <ele>89.7</ele>
        <time>2020-06-30T13:58:49Z</time>
      </trkpt>
      <trkpt lat="48.83633" lon="4.46534">
        <ele>89.6</ele>
        <time>2020-06-30T13:58:50Z</time>
      </trkpt>
      <trkpt lat="48.83637" lon="4.46526">
        <ele>89.6</ele>
        <time>2020-06-30T13:58:51Z</time>
      </trkpt>
      <trkpt lat="48.83642" lon="4.46518">
        <ele>89.6</ele>
        <time>2020-06-30T13:58:52Z</time>
      </trkpt>
      <trkpt lat="48.83647" lon="4.4651">
        <ele>89.5</ele>
        <time>2020-06-30T13:58:53Z</time>
      </trkpt>
      <trkpt lat="48.83653" lon="4.46503">
        <ele>89.5</ele>
        <time>2020-06-30T13:58:54Z</time>
      </trkpt>
      <trkpt lat="48.83658" lon="4.46494">
        <ele>89.4</ele>
        <time>2020-06-30T13:58:55Z</time>
      </trkpt>
      <trkpt lat="48.83663" lon="4.46488">
        <ele>89.4</ele>
        <time>2020-06-30T13:58:56Z</time>
      </trkpt>
      <trkpt lat="48.83668" lon="4.46481">
        <ele>89.4</ele>
        <time>2020-06-30T13:58:57Z</time>
      </trkpt>
      <trkpt lat="48.83673" lon="4.46472">
        <ele>89.4</ele>
        <time>2020-06-30T13:58:58Z</time>
      </trkpt>
      <trkpt lat="48.83678" lon="4.46464">
        <ele>89.3</ele>
        <time>2020-06-30T13:58:59Z</time>
      </trkpt>
      <trkpt lat="48.83683" lon="4.46457">
        <ele>89.3</ele>
        <time>2020-06-30T13:59:00Z</time>
      </trkpt>
      <trkpt lat="48.83688" lon="4.46449">
        <ele>89.3</ele>
        <time>2020-06-30T13:59:01Z</time>
      </trkpt>
      <trkpt lat="48.83692" lon="4.46442">
        <ele>89.2</ele>
        <time>2020-06-30T13:59:02Z</time>
      </trkpt>
      <trkpt lat="48.83696" lon="4.46435">
        <ele>89.2</ele>
        <time>2020-06-30T13:59:03Z</time>
      </trkpt>
      <trkpt lat="48.83701" lon="4.46427">
        <ele>89.1</ele>
        <time>2020-06-30T13:59:04Z</time>
      </trkpt>
      <trkpt lat="48.83705" lon="4.46418">
        <ele>89.1</ele>
        <time>2020-06-30T13:59:05Z</time>
      </trkpt>
      <trkpt lat="48.8371" lon="4.46409">
        <ele>89</ele>
        <time>2020-06-30T13:59:06Z</time>
      </trkpt>
      <trkpt lat="48.83716" lon="4.46399">
        <ele>88.9</ele>
        <time>2020-06-30T13:59:07Z</time>
      </trkpt>
      <trkpt lat="48.83721" lon="4.46391">
        <ele>88.8</ele>
        <time>2020-06-30T13:59:08Z</time>
      </trkpt>
      <trkpt lat="48.83725" lon="4.46383">
        <ele>88.8</ele>
        <time>2020-06-30T13:59:09Z</time>
      </trkpt>
      <trkpt lat="48.8373" lon="4.46373">
        <ele>88.7</ele>
        <time>2020-06-30T13:59:10Z</time>
      </trkpt>
      <trkpt lat="48.83734" lon="4.46364">
        <ele>88.6</ele>
        <time>2020-06-30T13:59:11Z</time>
      </trkpt>
      <trkpt lat="48.83739" lon="4.46356">
        <ele>88.6</ele>
        <time>2020-06-30T13:59:12Z</time>
      </trkpt>
      <trkpt lat="48.83744" lon="4.46347">
        <ele>88.5</ele>
        <time>2020-06-30T13:59:13Z</time>
      </trkpt>
      <trkpt lat="48.83748" lon="4.46337">
        <ele>88.4</ele>
        <time>2020-06-30T13:59:14Z</time>
      </trkpt>
      <trkpt lat="48.83753" lon="4.46328">
        <ele>88.4</ele>
        <time>2020-06-30T13:59:15Z</time>
      </trkpt>
      <trkpt lat="48.83758" lon="4.46317">
        <ele>88.3</ele>
        <time>2020-06-30T13:59:16Z</time>
      </trkpt>
      <trkpt lat="48.83763" lon="4.46308">
        <ele>88.3</ele>
        <time>2020-06-30T13:59:17Z</time>
      </trkpt>
      <trkpt lat="48.83768" lon="4.46298">
        <ele>88.2</ele>
        <time>2020-06-30T13:59:18Z</time>
      </trkpt>
      <trkpt lat="48.83772" lon="4.46289">
        <ele>88.2</ele>
        <time>2020-06-30T13:59:19Z</time>
      </trkpt>
      <trkpt lat="48.83777" lon="4.4628">
        <ele>88.1</ele>
        <time>2020-06-30T13:59:20Z</time>
      </trkpt>
      <trkpt lat="48.83781" lon="4.46271">
        <ele>88.1</ele>
        <time>2020-06-30T13:59:21Z</time>
      </trkpt>
      <trkpt lat="48.83786" lon="4.46262">
        <ele>88.1</ele>
        <time>2020-06-30T13:59:22Z</time>
      </trkpt>
      <trkpt lat="48.83791" lon="4.46252">
        <ele>88.1</ele>
        <time>2020-06-30T13:59:23Z</time>
      </trkpt>
      <trkpt lat="48.83795" lon="4.46244">
        <ele>88.1</ele>
        <time>2020-06-30T13:59:24Z</time>
      </trkpt>
      <trkpt lat="48.83801" lon="4.46235">
        <ele>88</ele>
        <time>2020-06-30T13:59:25Z</time>
      </trkpt>
      <trkpt lat="48.83805" lon="4.46225">
        <ele>87.9</ele>
        <time>2020-06-30T13:59:26Z</time>
      </trkpt>
      <trkpt lat="48.8381" lon="4.46216">
        <ele>87.9</ele>
        <time>2020-06-30T13:59:27Z</time>
      </trkpt>
      <trkpt lat="48.83815" lon="4.46208">
        <ele>87.8</ele>
        <time>2020-06-30T13:59:28Z</time>
      </trkpt>
      <trkpt lat="48.83819" lon="4.46199">
        <ele>87.7</ele>
        <time>2020-06-30T13:59:29Z</time>
      </trkpt>
      <trkpt lat="48.83824" lon="4.46189">
        <ele>87.7</ele>
        <time>2020-06-30T13:59:30Z</time>
      </trkpt>
      <trkpt lat="48.83829" lon="4.4618">
        <ele>87.6</ele>
        <time>2020-06-30T13:59:31Z</time>
      </trkpt>
      <trkpt lat="48.83835" lon="4.4617">
        <ele>87.5</ele>
        <time>2020-06-30T13:59:32Z</time>
      </trkpt>
      <trkpt lat="48.83842" lon="4.46164">
        <ele>87.4</ele>
        <time>2020-06-30T13:59:33Z</time>
      </trkpt>
      <trkpt lat="48.83849" lon="4.46157">
        <ele>87.3</ele>
        <time>2020-06-30T13:59:34Z</time>
      </trkpt>
      <trkpt lat="48.83857" lon="4.46152">
        <ele>87.1</ele>
        <time>2020-06-30T13:59:35Z</time>
      </trkpt>
      <trkpt lat="48.83865" lon="4.46148">
        <ele>87.1</ele>
        <time>2020-06-30T13:59:36Z</time>
      </trkpt>
      <trkpt lat="48.83872" lon="4.46144">
        <ele>87.1</ele>
        <time>2020-06-30T13:59:37Z</time>
      </trkpt>
      <trkpt lat="48.8388" lon="4.46139">
        <ele>87.1</ele>
        <time>2020-06-30T13:59:38Z</time>
      </trkpt>
      <trkpt lat="48.83888" lon="4.46135">
        <ele>87.2</ele>
        <time>2020-06-30T13:59:39Z</time>
      </trkpt>
      <trkpt lat="48.83896" lon="4.4613">
        <ele>87.4</ele>
        <time>2020-06-30T13:59:40Z</time>
      </trkpt>
      <trkpt lat="48.83904" lon="4.46127">
        <ele>87.5</ele>
        <time>2020-06-30T13:59:41Z</time>
      </trkpt>
      <trkpt lat="48.83912" lon="4.46124">
        <ele>87.5</ele>
        <time>2020-06-30T13:59:42Z</time>
      </trkpt>
      <trkpt lat="48.8392" lon="4.4612">
        <ele>87.6</ele>
        <time>2020-06-30T13:59:43Z</time>
      </trkpt>
      <trkpt lat="48.83927" lon="4.46115">
        <ele>87.6</ele>
        <time>2020-06-30T13:59:44Z</time>
      </trkpt>
      <trkpt lat="48.83935" lon="4.46111">
        <ele>87.7</ele>
        <time>2020-06-30T13:59:45Z</time>
      </trkpt>
      <trkpt lat="48.83942" lon="4.46106">
        <ele>87.7</ele>
        <time>2020-06-30T13:59:46Z</time>
      </trkpt>
      <trkpt lat="48.8395" lon="4.46102">
        <ele>87.7</ele>
        <time>2020-06-30T13:59:47Z</time>
      </trkpt>
      <trkpt lat="48.83957" lon="4.46097">
        <ele>87.7</ele>
        <time>2020-06-30T13:59:48Z</time>
      </trkpt>
      <trkpt lat="48.83965" lon="4.46093">
        <ele>87.7</ele>
        <time>2020-06-30T13:59:49Z</time>
      </trkpt>
      <trkpt lat="48.83972" lon="4.46089">
        <ele>87.7</ele>
        <time>2020-06-30T13:59:50Z</time>
      </trkpt>
      <trkpt lat="48.8398" lon="4.46085">
        <ele>87.7</ele>
        <time>2020-06-30T13:59:51Z</time>
      </trkpt>
      <trkpt lat="48.83987" lon="4.4608">
        <ele>87.7</ele>
        <time>2020-06-30T13:59:52Z</time>
      </trkpt>
      <trkpt lat="48.83995" lon="4.46077">
        <ele>87.7</ele>
        <time>2020-06-30T13:59:53Z</time>
      </trkpt>
      <trkpt lat="48.84002" lon="4.46072">
        <ele>87.8</ele>
        <time>2020-06-30T13:59:54Z</time>
      </trkpt>
      <trkpt lat="48.84009" lon="4.46069">
        <ele>87.8</ele>
        <time>2020-06-30T13:59:55Z</time>
      </trkpt>
      <trkpt lat="48.84016" lon="4.46064">
        <ele>87.9</ele>
        <time>2020-06-30T13:59:56Z</time>
      </trkpt>
      <trkpt lat="48.84023" lon="4.4606">
        <ele>87.9</ele>
        <time>2020-06-30T13:59:57Z</time>
      </trkpt>
      <trkpt lat="48.8403" lon="4.46056">
        <ele>88</ele>
        <time>2020-06-30T13:59:58Z</time>
      </trkpt>
      <trkpt lat="48.84037" lon="4.46053">
        <ele>88.1</ele>
        <time>2020-06-30T13:59:59Z</time>
      </trkpt>
      <trkpt lat="48.84044" lon="4.46049">
        <ele>87.9</ele>
        <time>2020-06-30T14:00:00Z</time>
      </trkpt>
      <trkpt lat="48.84051" lon="4.46044">
        <ele>87.8</ele>
        <time>2020-06-30T14:00:01Z</time>
      </trkpt>
      <trkpt lat="48.84058" lon="4.4604">
        <ele>87.7</ele>
        <time>2020-06-30T14:00:02Z</time>
      </trkpt>
      <trkpt lat="48.84065" lon="4.46036">
        <ele>87.6</ele>
        <time>2020-06-30T14:00:03Z</time>
      </trkpt>
      <trkpt lat="48.84073" lon="4.46032">
        <ele>87.6</ele>
        <time>2020-06-30T14:00:04Z</time>
      </trkpt>
      <trkpt lat="48.8408" lon="4.46026">
        <ele>87.5</ele>
        <time>2020-06-30T14:00:05Z</time>
      </trkpt>
      <trkpt lat="48.84087" lon="4.46022">
        <ele>87.5</ele>
        <time>2020-06-30T14:00:06Z</time>
      </trkpt>
      <trkpt lat="48.84093" lon="4.46017">
        <ele>87.5</ele>
        <time>2020-06-30T14:00:07Z</time>
      </trkpt>
      <trkpt lat="48.841" lon="4.46012">
        <ele>87.5</ele>
        <time>2020-06-30T14:00:08Z</time>
      </trkpt>
      <trkpt lat="48.84107" lon="4.46007">
        <ele>87.5</ele>
        <time>2020-06-30T14:00:09Z</time>
      </trkpt>
      <trkpt lat="48.84113" lon="4.46001">
        <ele>87.5</ele>
        <time>2020-06-30T14:00:10Z</time>
      </trkpt>
      <trkpt lat="48.84119" lon="4.45996">
        <ele>87.6</ele>
        <time>2020-06-30T14:00:11Z</time>
      </trkpt>
      <trkpt lat="48.84125" lon="4.4599">
        <ele>87.6</ele>
        <time>2020-06-30T14:00:12Z</time>
      </trkpt>
      <trkpt lat="48.8413" lon="4.45985">
        <ele>87.6</ele>
        <time>2020-06-30T14:00:13Z</time>
      </trkpt>
      <trkpt lat="48.84136" lon="4.4598">
        <ele>87.7</ele>
        <time>2020-06-30T14:00:14Z</time>
      </trkpt>
      <trkpt lat="48.84141" lon="4.45974">
        <ele>87.7</ele>
        <time>2020-06-30T14:00:15Z</time>
      </trkpt>
      <trkpt lat="48.84147" lon="4.45969">
        <ele>87.8</ele>
        <time>2020-06-30T14:00:16Z</time>
      </trkpt>
      <trkpt lat="48.84152" lon="4.45965">
        <ele>87.8</ele>
        <time>2020-06-30T14:00:17Z</time>
      </trkpt>
      <trkpt lat="48.84157" lon="4.45962">
        <ele>87.9</ele>
        <time>2020-06-30T14:00:18Z</time>
      </trkpt>
      <trkpt lat="48.84163" lon="4.45961">
        <ele>87.9</ele>
        <time>2020-06-30T14:00:19Z</time>
      </trkpt>
      <trkpt lat="48.84168" lon="4.4596">
        <ele>87.9</ele>
        <time>2020-06-30T14:00:20Z</time>
      </trkpt>
      <trkpt lat="48.84173" lon="4.45963">
        <ele>87.9</ele>
        <time>2020-06-30T14:00:21Z</time>
      </trkpt>
      <trkpt lat="48.84178" lon="4.45967">
        <ele>87.8</ele>
        <time>2020-06-30T14:00:22Z</time>
      </trkpt>
      <trkpt lat="48.84182" lon="4.45974">
        <ele>87.8</ele>
        <time>2020-06-30T14:00:23Z</time>
      </trkpt>
      <trkpt lat="48.84186" lon="4.4598">
        <ele>87.7</ele>
        <time>2020-06-30T14:00:24Z</time>
      </trkpt>
      <trkpt lat="48.84189" lon="4.45988">
        <ele>87.6</ele>
        <time>2020-06-30T14:00:25Z</time>
      </trkpt>
      <trkpt lat="48.84193" lon="4.45995">
        <ele>87.5</ele>
        <time>2020-06-30T14:00:26Z</time>
      </trkpt>
      <trkpt lat="48.84197" lon="4.46002">
        <ele>87.5</ele>
        <time>2020-06-30T14:00:27Z</time>
      </trkpt>
      <trkpt lat="48.84201" lon="4.46009">
        <ele>87.4</ele>
        <time>2020-06-30T14:00:28Z</time>
      </trkpt>
      <trkpt lat="48.84205" lon="4.46015">
        <ele>87.4</ele>
        <time>2020-06-30T14:00:29Z</time>
      </trkpt>
      <trkpt lat="48.8421" lon="4.46021">
        <ele>87.4</ele>
        <time>2020-06-30T14:00:30Z</time>
      </trkpt>
      <trkpt lat="48.84214" lon="4.46027">
        <ele>87.4</ele>
        <time>2020-06-30T14:00:31Z</time>
      </trkpt>
      <trkpt lat="48.84219" lon="4.46031">
        <ele>87.4</ele>
        <time>2020-06-30T14:00:32Z</time>
      </trkpt>
      <trkpt lat="48.84222" lon="4.46038">
        <ele>87.3</ele>
        <time>2020-06-30T14:00:33Z</time>
      </trkpt>
      <trkpt lat="48.84225" lon="4.46044">
        <ele>87.3</ele>
        <time>2020-06-30T14:00:34Z</time>
      </trkpt>
      <trkpt lat="48.84227" lon="4.46048">
        <ele>87.3</ele>
        <time>2020-06-30T14:00:35Z</time>
      </trkpt>
      <trkpt lat="48.8423" lon="4.46053">
        <ele>87.3</ele>
        <time>2020-06-30T14:00:36Z</time>
      </trkpt>
      <trkpt lat="48.84232" lon="4.46058">
        <ele>87.3</ele>
        <time>2020-06-30T14:00:37Z</time>
      </trkpt>
      <trkpt lat="48.84234" lon="4.46062">
        <ele>87.3</ele>
        <time>2020-06-30T14:00:38Z</time>
      </trkpt>
      <trkpt lat="48.84236" lon="4.46065">
        <ele>87.3</ele>
        <time>2020-06-30T14:00:39Z</time>
      </trkpt>
      <trkpt lat="48.84238" lon="4.46068">
        <ele>87.3</ele>
        <time>2020-06-30T14:00:40Z</time>
      </trkpt>
      <trkpt lat="48.84238" lon="4.46069">
        <ele>87.3</ele>
        <time>2020-06-30T14:00:41Z</time>
      </trkpt>
      <trkpt lat="48.84239" lon="4.46067">
        <ele>87.3</ele>
        <time>2020-06-30T14:00:42Z</time>
      </trkpt>
      <trkpt lat="48.84238" lon="4.46066">
        <ele>87.3</ele>
        <time>2020-06-30T14:00:43Z</time>
      </trkpt>
      <trkpt lat="48.84238" lon="4.46065">
        <ele>87.3</ele>
        <time>2020-06-30T14:00:44Z</time>
      </trkpt>
      <trkpt lat="48.84237" lon="4.46065">
        <ele>87.3</ele>
        <time>2020-06-30T14:00:45Z</time>
      </trkpt>
      <trkpt lat="48.84236" lon="4.46064">
        <ele>87.3</ele>
        <time>2020-06-30T14:00:46Z</time>
      </trkpt>
      <trkpt lat="48.84235" lon="4.4606">
        <ele>87.3</ele>
        <time>2020-06-30T14:00:47Z</time>
      </trkpt>
      <trkpt lat="48.84235" lon="4.46059">
        <ele>87.3</ele>
        <time>2020-06-30T14:00:48Z</time>
      </trkpt>
      <trkpt lat="48.84233" lon="4.46053">
        <ele>87.3</ele>
        <time>2020-06-30T14:00:49Z</time>
      </trkpt>
      <trkpt lat="48.84232" lon="4.46051">
        <ele>87.3</ele>
        <time>2020-06-30T14:00:50Z</time>
      </trkpt>
      <trkpt lat="48.84231" lon="4.46046">
        <ele>87.3</ele>
        <time>2020-06-30T14:00:51Z</time>
      </trkpt>
      <trkpt lat="48.84229" lon="4.46042">
        <ele>87.3</ele>
        <time>2020-06-30T14:00:52Z</time>
      </trkpt>
      <trkpt lat="48.84227" lon="4.46038">
        <ele>87.3</ele>
        <time>2020-06-30T14:00:53Z</time>
      </trkpt>
      <trkpt lat="48.84224" lon="4.46034">
        <ele>87.3</ele>
        <time>2020-06-30T14:00:54Z</time>
      </trkpt>
      <trkpt lat="48.84222" lon="4.4603">
        <ele>87.4</ele>
        <time>2020-06-30T14:00:55Z</time>
      </trkpt>
      <trkpt lat="48.84221" lon="4.46025">
        <ele>87.4</ele>
        <time>2020-06-30T14:00:56Z</time>
      </trkpt>
      <trkpt lat="48.84218" lon="4.46021">
        <ele>87.4</ele>
        <time>2020-06-30T14:00:57Z</time>
      </trkpt>
      <trkpt lat="48.84216" lon="4.46017">
        <ele>87.4</ele>
        <time>2020-06-30T14:00:58Z</time>
      </trkpt>
      <trkpt lat="48.84216" lon="4.46012">
        <ele>87.4</ele>
        <time>2020-06-30T14:00:59Z</time>
      </trkpt>
      <trkpt lat="48.84218" lon="4.46008">
        <ele>87.4</ele>
        <time>2020-06-30T14:01:00Z</time>
      </trkpt>
      <trkpt lat="48.84219" lon="4.46007">
        <ele>87.4</ele>
        <time>2020-06-30T14:01:01Z</time>
      </trkpt>
      <trkpt lat="48.84219" lon="4.46005">
        <ele>87.4</ele>
        <time>2020-06-30T14:01:02Z</time>
      </trkpt>
      <trkpt lat="48.8422" lon="4.46004">
        <ele>87.4</ele>
        <time>2020-06-30T14:01:03Z</time>
      </trkpt>
      <trkpt lat="48.8422" lon="4.46003">
        <ele>87.4</ele>
        <time>2020-06-30T14:01:04Z</time>
      </trkpt>
      <trkpt lat="48.8422" lon="4.46003">
        <ele>87.4</ele>
        <time>2020-06-30T14:01:05Z</time>
      </trkpt>
      <trkpt lat="48.84219" lon="4.46003">
        <ele>87.4</ele>
        <time>2020-06-30T14:01:06Z</time>
      </trkpt>
      <trkpt lat="48.84221" lon="4.46003">
        <ele>87.4</ele>
        <time>2020-06-30T14:01:07Z</time>
      </trkpt>
      <trkpt lat="48.84221" lon="4.46003">
        <ele>87.4</ele>
        <time>2020-06-30T14:01:08Z</time>
      </trkpt>
      <trkpt lat="48.84221" lon="4.46003">
        <ele>87.4</ele>
        <time>2020-06-30T14:01:09Z</time>
      </trkpt>
      <trkpt lat="48.8422" lon="4.46003">
        <ele>87.4</ele>
        <time>2020-06-30T14:01:10Z</time>
      </trkpt>
      <trkpt lat="48.84219" lon="4.46004">
        <ele>87.4</ele>
        <time>2020-06-30T14:01:11Z</time>
      </trkpt>
      <trkpt lat="48.84219" lon="4.46004">
        <ele>87.4</ele>
        <time>2020-06-30T14:01:12Z</time>
      </trkpt>
      <trkpt lat="48.84219" lon="4.46005">
        <ele>87.4</ele>
        <time>2020-06-30T14:01:13Z</time>
      </trkpt>
      <trkpt lat="48.84218" lon="4.46005">
        <ele>87.4</ele>
        <time>2020-06-30T14:01:14Z</time>
      </trkpt>
      <trkpt lat="48.8422" lon="4.46008">
        <ele>87.4</ele>
        <time>2020-06-30T14:30:00Z</time>
      </trkpt>
      <trkpt lat="48.84221" lon="4.46011">
        <ele>87.4</ele>
        <time>2020-06-30T14:30:01Z</time>
      </trkpt>
      <trkpt lat="48.84222" lon="4.46013">
        <ele>87.4</ele>
        <time>2020-06-30T14:30:02Z</time>
      </trkpt>
      <trkpt lat="48.84221" lon="4.46015">
        <ele>87.4</ele>
        <time>2020-06-30T14:30:03Z</time>
      </trkpt>
      <trkpt lat="48.8422" lon="4.46015">
        <ele>87.4</ele>
        <time>2020-06-30T14:30:04Z</time>
      </trkpt>
      <trkpt lat="48.8422" lon="4.46018">
        <ele>87.4</ele>
        <time>2020-06-30T14:30:05Z</time>
      </trkpt>
      <trkpt lat="48.8422" lon="4.4602">
        <ele>87.4</ele>
        <time>2020-06-30T14:30:06Z</time>
      </trkpt>
      <trkpt lat="48.84221" lon="4.46022">
        <ele>87.4</ele>
        <time>2020-06-30T14:30:07Z</time>
      </trkpt>
      <trkpt lat="48.84221" lon="4.46022">
        <ele>87.4</ele>
        <time>2020-06-30T14:30:08Z</time>
      </trkpt>
      <trkpt lat="48.84221" lon="4.46023">
        <ele>87.4</ele>
        <time>2020-06-30T14:30:09Z</time>
      </trkpt>
      <trkpt lat="48.84221" lon="4.46023">
        <ele>87.4</ele>
        <time>2020-06-30T14:30:10Z</time>
      </trkpt>
      <trkpt lat="48.84221" lon="4.46023">
        <ele>87.4</ele>
        <time>2020-06-30T14:30:11Z</time>
      </trkpt>
      <trkpt lat="48.84221" lon="4.46023">
        <ele>87.4</ele>
        <time>2020-06-30T14:30:12Z</time>
      </trkpt>
      <trkpt lat="48.84221" lon="4.46022">
        <ele>87.4</ele>
        <time>2020-06-30T14:30:13Z</time>
      </trkpt>
      <trkpt lat="48.84221" lon="4.46026">
        <ele>87.4</ele>
        <time>2020-06-30T14:30:14Z</time>
      </trkpt>
      <trkpt lat="48.84221" lon="4.46025">
        <ele>87.4</ele>
        <time>2020-06-30T14:30:15Z</time>
      </trkpt>
      <trkpt lat="48.84221" lon="4.46026">
        <ele>87.4</ele>
        <time>2020-06-30T14:30:16Z</time>
      </trkpt>
      <trkpt lat="48.84221" lon="4.46026">
        <ele>87.4</ele>
        <time>2020-06-30T14:30:17Z</time>
      </trkpt>
      <trkpt lat="48.84219" lon="4.46024">
        <ele>87.5</ele>
        <time>2020-06-30T14:30:23Z</time>
      </trkpt>
      <trkpt lat="48.84218" lon="4.46023">
        <ele>87.5</ele>
        <time>2020-06-30T14:30:24Z</time>
      </trkpt>
      <trkpt lat="48.84217" lon="4.46021">
        <ele>87.5</ele>
        <time>2020-06-30T14:30:25Z</time>
      </trkpt>
      <trkpt lat="48.84215" lon="4.46019">
        <ele>87.5</ele>
        <time>2020-06-30T14:30:26Z</time>
      </trkpt>
      <trkpt lat="48.84212" lon="4.46015">
        <ele>87.5</ele>
        <time>2020-06-30T14:30:27Z</time>
      </trkpt>
      <trkpt lat="48.84212" lon="4.46014">
        <ele>87.5</ele>
        <time>2020-06-30T14:30:28Z</time>
      </trkpt>
      <trkpt lat="48.84209" lon="4.4601">
        <ele>87.5</ele>
        <time>2020-06-30T14:30:29Z</time>
      </trkpt>
      <trkpt lat="48.84208" lon="4.46008">
        <ele>87.6</ele>
        <time>2020-06-30T14:30:30Z</time>
      </trkpt>
      <trkpt lat="48.84206" lon="4.46004">
        <ele>87.6</ele>
        <time>2020-06-30T14:30:31Z</time>
      </trkpt>
      <trkpt lat="48.84204" lon="4.46">
        <ele>87.6</ele>
        <time>2020-06-30T14:30:32Z</time>
      </trkpt>
      <trkpt lat="48.84202" lon="4.45996">
        <ele>87.6</ele>
        <time>2020-06-30T14:30:33Z</time>
      </trkpt>
      <trkpt lat="48.84199" lon="4.45993">
        <ele>87.7</ele>
        <time>2020-06-30T14:30:34Z</time>
      </trkpt>
      <trkpt lat="48.84197" lon="4.45988">
        <ele>87.7</ele>
        <time>2020-06-30T14:30:35Z</time>
      </trkpt>
      <trkpt lat="48.84195" lon="4.45983">
        <ele>87.7</ele>
        <time>2020-06-30T14:30:36Z</time>
      </trkpt>
      <trkpt lat="48.84192" lon="4.45978">
        <ele>87.8</ele>
        <time>2020-06-30T14:30:37Z</time>
      </trkpt>
      <trkpt lat="48.84189" lon="4.45973">
        <ele>87.8</ele>
        <time>2020-06-30T14:30:38Z</time>
      </trkpt>
      <trkpt lat="48.84187" lon="4.45968">
        <ele>87.8</ele>
        <time>2020-06-30T14:30:39Z</time>
      </trkpt>
      <trkpt lat="48.84184" lon="4.45964">
        <ele>87.8</ele>
        <time>2020-06-30T14:30:40Z</time>
      </trkpt>
      <trkpt lat="48.84181" lon="4.45958">
        <ele>87.9</ele>
        <time>2020-06-30T14:30:41Z</time>
      </trkpt>
      <trkpt lat="48.84179" lon="4.45953">
        <ele>87.9</ele>
        <time>2020-06-30T14:30:42Z</time>
      </trkpt>
      <trkpt lat="48.84176" lon="4.45947">
        <ele>87.9</ele>
        <time>2020-06-30T14:30:43Z</time>
      </trkpt>
      <trkpt lat="48.84176" lon="4.45942">
        <ele>87.9</ele>
        <time>2020-06-30T14:30:44Z</time>
      </trkpt>
      <trkpt lat="48.84178" lon="4.45937">
        <ele>87.8</ele>
        <time>2020-06-30T14:30:45Z</time>
      </trkpt>
      <trkpt lat="48.84181" lon="4.45933">
        <ele>87.8</ele>
        <time>2020-06-30T14:30:46Z</time>
      </trkpt>
      <trkpt lat="48.84185" lon="4.45927">
        <ele>87.7</ele>
        <time>2020-06-30T14:30:47Z</time>
      </trkpt>
      <trkpt lat="48.84189" lon="4.45923">
        <ele>87.7</ele>
        <time>2020-06-30T14:30:48Z</time>
      </trkpt>
      <trkpt lat="48.84191" lon="4.45919">
        <ele>87.6</ele>
        <time>2020-06-30T14:30:49Z</time>
      </trkpt>
      <trkpt lat="48.84194" lon="4.45917">
        <ele>87.6</ele>
        <time>2020-06-30T14:30:50Z</time>
      </trkpt>
      <trkpt lat="48.84197" lon="4.45913">
        <ele>87.6</ele>
        <time>2020-06-30T14:30:51Z</time>
      </trkpt>
      <trkpt lat="48.84202" lon="4.4591">
        <ele>87.5</ele>
        <time>2020-06-30T14:30:52Z</time>
      </trkpt>
      <trkpt lat="48.84206" lon="4.45906">
        <ele>87.5</ele>
        <time>2020-06-30T14:30:53Z</time>
      </trkpt>
      <trkpt lat="48.8421" lon="4.45902">
        <ele>87.5</ele>
        <time>2020-06-30T14:30:54Z</time>
      </trkpt>
      <trkpt lat="48.84214" lon="4.45897">
        <ele>87.5</ele>
        <time>2020-06-30T14:30:55Z</time>
      </trkpt>
      <trkpt lat="48.84218" lon="4.45892">
        <ele>87.5</ele>
        <time>2020-06-30T14:30:56Z</time>
      </trkpt>
      <trkpt lat="48.84222" lon="4.45889">
        <ele>87.5</ele>
        <time>2020-06-30T14:30:57Z</time>
      </trkpt>
      <trkpt lat="48.84225" lon="4.45885">
        <ele>87.5</ele>
        <time>2020-06-30T14:30:58Z</time>
      </trkpt>
      <trkpt lat="48.84229" lon="4.45881">
        <ele>87.5</ele>
        <time>2020-06-30T14:30:59Z</time>
      </trkpt>
      <trkpt lat="48.84231" lon="4.45875">
        <ele>87.5</ele>
        <time>2020-06-30T14:31:00Z</time>
      </trkpt>
      <trkpt lat="48.84236" lon="4.45871">
        <ele>87.5</ele>
        <time>2020-06-30T14:31:01Z</time>
      </trkpt>
      <trkpt lat="48.84238" lon="4.45868">
        <ele>87.6</ele>
        <time>2020-06-30T14:31:02Z</time>
      </trkpt>
      <trkpt lat="48.84241" lon="4.45864">
        <ele>87.6</ele>
        <time>2020-06-30T14:31:03Z</time>
      </trkpt>
      <trkpt lat="48.84244" lon="4.45858">
        <ele>87.7</ele>
        <time>2020-06-30T14:31:04Z</time>
      </trkpt>
      <trkpt lat="48.84246" lon="4.45852">
        <ele>87.7</ele>
        <time>2020-06-30T14:31:05Z</time>
      </trkpt>
      <trkpt lat="48.84249" lon="4.45846">
        <ele>87.8</ele>
        <time>2020-06-30T14:31:06Z</time>
      </trkpt>
      <trkpt lat="48.84252" lon="4.45839">
        <ele>87.9</ele>
        <time>2020-06-30T14:31:07Z</time>
      </trkpt>
      <trkpt lat="48.84254" lon="4.45835">
        <ele>88</ele>
        <time>2020-06-30T14:31:08Z</time>
      </trkpt>
      <trkpt lat="48.84258" lon="4.45829">
        <ele>88</ele>
        <time>2020-06-30T14:31:09Z</time>
      </trkpt>
      <trkpt lat="48.84261" lon="4.45824">
        <ele>88.1</ele>
        <time>2020-06-30T14:31:10Z</time>
      </trkpt>
      <trkpt lat="48.84263" lon="4.45818">
        <ele>88.2</ele>
        <time>2020-06-30T14:31:11Z</time>
      </trkpt>
      <trkpt lat="48.84266" lon="4.4581">
        <ele>88.3</ele>
        <time>2020-06-30T14:31:12Z</time>
      </trkpt>
      <trkpt lat="48.84268" lon="4.45804">
        <ele>88.4</ele>
        <time>2020-06-30T14:31:13Z</time>
      </trkpt>
      <trkpt lat="48.8427" lon="4.45797">
        <ele>88.5</ele>
        <time>2020-06-30T14:31:14Z</time>
      </trkpt>
      <trkpt lat="48.84272" lon="4.45793">
        <ele>88.5</ele>
        <time>2020-06-30T14:31:15Z</time>
      </trkpt>
      <trkpt lat="48.84275" lon="4.45789">
        <ele>88.6</ele>
        <time>2020-06-30T14:31:16Z</time>
      </trkpt>
      <trkpt lat="48.84277" lon="4.45783">
        <ele>88.6</ele>
        <time>2020-06-30T14:31:17Z</time>
      </trkpt>
      <trkpt lat="48.84279" lon="4.45778">
        <ele>88.7</ele>
        <time>2020-06-30T14:31:18Z</time>
      </trkpt>
      <trkpt lat="48.84282" lon="4.45773">
        <ele>88.7</ele>
        <time>2020-06-30T14:31:19Z</time>
      </trkpt>
      <trkpt lat="48.84285" lon="4.45766">
        <ele>88.8</ele>
        <time>2020-06-30T14:31:20Z</time>
      </trkpt>
      <trkpt lat="48.84286" lon="4.45761">
        <ele>88.8</ele>
        <time>2020-06-30T14:31:21Z</time>
      </trkpt>
      <trkpt lat="48.8429" lon="4.45755">
        <ele>89</ele>
        <time>2020-06-30T14:31:22Z</time>
      </trkpt>
      <trkpt lat="48.84292" lon="4.45751">
        <ele>89</ele>
        <time>2020-06-30T14:31:23Z</time>
      </trkpt>
      <trkpt lat="48.84295" lon="4.45747">
        <ele>89.1</ele>
        <time>2020-06-30T14:31:24Z</time>
      </trkpt>
      <trkpt lat="48.84298" lon="4.45741">
        <ele>89.2</ele>
        <time>2020-06-30T14:31:25Z</time>
      </trkpt>
      <trkpt lat="48.84302" lon="4.45737">
        <ele>89.3</ele>
        <time>2020-06-30T14:31:26Z</time>
      </trkpt>
      <trkpt lat="48.84306" lon="4.45732">
        <ele>89.4</ele>
        <time>2020-06-30T14:31:27Z</time>
      </trkpt>
      <trkpt lat="48.84309" lon="4.45727">
        <ele>89.5</ele>
        <time>2020-06-30T14:31:28Z</time>
      </trkpt>
      <trkpt lat="48.84311" lon="4.45721">
        <ele>89.7</ele>
        <time>2020-06-30T14:31:29Z</time>
      </trkpt>
      <trkpt lat="48.84314" lon="4.4572">
        <ele>89.8</ele>
        <time>2020-06-30T14:31:30Z</time>
      </trkpt>
      <trkpt lat="48.84318" lon="4.45717">
        <ele>89.9</ele>
        <time>2020-06-30T14:31:31Z</time>
      </trkpt>
      <trkpt lat="48.84321" lon="4.45714">
        <ele>90</ele>
        <time>2020-06-30T14:31:32Z</time>
      </trkpt>
      <trkpt lat="48.84323" lon="4.4571">
        <ele>90.1</ele>
        <time>2020-06-30T14:31:33Z</time>
      </trkpt>
      <trkpt lat="48.84325" lon="4.45706">
        <ele>90.3</ele>
        <time>2020-06-30T14:31:34Z</time>
      </trkpt>
      <trkpt lat="48.84329" lon="4.45701">
        <ele>90.4</ele>
        <time>2020-06-30T14:31:35Z</time>
      </trkpt>
      <trkpt lat="48.84331" lon="4.45695">
        <ele>90.6</ele>
        <time>2020-06-30T14:31:36Z</time>
      </trkpt>
      <trkpt lat="48.84333" lon="4.4569">
        <ele>90.7</ele>
        <time>2020-06-30T14:31:37Z</time>
      </trkpt>
      <trkpt lat="48.84336" lon="4.45685">
        <ele>90.9</ele>
        <time>2020-06-30T14:31:38Z</time>
      </trkpt>
      <trkpt lat="48.84337" lon="4.45684">
        <ele>90.9</ele>
        <time>2020-06-30T14:31:39Z</time>
      </trkpt>
      <trkpt lat="48.8434" lon="4.45678">
        <ele>91.1</ele>
        <time>2020-06-30T14:31:40Z</time>
      </trkpt>
      <trkpt lat="48.84342" lon="4.45673">
        <ele>91.2</ele>
        <time>2020-06-30T14:31:41Z</time>
      </trkpt>
      <trkpt lat="48.84344" lon="4.4567">
        <ele>91.4</ele>
        <time>2020-06-30T14:31:42Z</time>
      </trkpt>
      <trkpt lat="48.84345" lon="4.45667">
        <ele>91.5</ele>
        <time>2020-06-30T14:31:43Z</time>
      </trkpt>
      <trkpt lat="48.84348" lon="4.45661">
        <ele>91.6</ele>
        <time>2020-06-30T14:31:44Z</time>
      </trkpt>
      <trkpt lat="48.84349" lon="4.45658">
        <ele>91.7</ele>
        <time>2020-06-30T14:31:45Z</time>
      </trkpt>
      <trkpt lat="48.84351" lon="4.45654">
        <ele>91.8</ele>
        <time>2020-06-30T14:31:46Z</time>
      </trkpt>
      <trkpt lat="48.84354" lon="4.4565">
        <ele>91.9</ele>
        <time>2020-06-30T14:31:47Z</time>
      </trkpt>
      <trkpt lat="48.84357" lon="4.45648">
        <ele>92</ele>
        <time>2020-06-30T14:31:48Z</time>
      </trkpt>
      <trkpt lat="48.84359" lon="4.45644">
        <ele>92.1</ele>
        <time>2020-06-30T14:31:49Z</time>
      </trkpt>
      <trkpt lat="48.84362" lon="4.45639">
        <ele>92.2</ele>
        <time>2020-06-30T14:31:50Z</time>
      </trkpt>
      <trkpt lat="48.84365" lon="4.45636">
        <ele>92.2</ele>
        <time>2020-06-30T14:31:51Z</time>
      </trkpt>
      <trkpt lat="48.84367" lon="4.45631">
        <ele>92.3</ele>
        <time>2020-06-30T14:31:52Z</time>
      </trkpt>
      <trkpt lat="48.84369" lon="4.45627">
        <ele>92.4</ele>
        <time>2020-06-30T14:31:53Z</time>
      </trkpt>
      <trkpt lat="48.84372" lon="4.45622">
        <ele>92.5</ele>
        <time>2020-06-30T14:31:54Z</time>
      </trkpt>
      <trkpt lat="48.84375" lon="4.45618">
        <ele>92.5</ele>
        <time>2020-06-30T14:31:55Z</time>
      </trkpt>
      <trkpt lat="48.84378" lon="4.45614">
        <ele>92.6</ele>
        <time>2020-06-30T14:31:56Z</time>
      </trkpt>
      <trkpt lat="48.8438" lon="4.45608">
        <ele>92.6</ele>
        <time>2020-06-30T14:31:57Z</time>
      </trkpt>
      <trkpt lat="48.84383" lon="4.45605">
        <ele>92.6</ele>
        <time>2020-06-30T14:31:58Z</time>
      </trkpt>
      <trkpt lat="48.84386" lon="4.456">
        <ele>92.6</ele>
        <time>2020-06-30T14:31:59Z</time>
      </trkpt>
      <trkpt lat="48.84389" lon="4.45596">
        <ele>92.6</ele>
        <time>2020-06-30T14:32:00Z</time>
      </trkpt>
      <trkpt lat="48.84392" lon="4.45591">
        <ele>92.6</ele>
        <time>2020-06-30T14:32:01Z</time>
      </trkpt>
      <trkpt lat="48.84395" lon="4.45587">
        <ele>92.6</ele>
        <time>2020-06-30T14:32:02Z</time>
      </trkpt>
      <trkpt lat="48.84398" lon="4.4558">
        <ele>92.6</ele>
        <time>2020-06-30T14:32:03Z</time>
      </trkpt>
      <trkpt lat="48.84401" lon="4.45576">
        <ele>92.5</ele>
        <time>2020-06-30T14:32:04Z</time>
      </trkpt>
      <trkpt lat="48.84403" lon="4.45572">
        <ele>92.5</ele>
        <time>2020-06-30T14:32:05Z</time>
      </trkpt>
      <trkpt lat="48.84406" lon="4.45567">
        <ele>92.5</ele>
        <time>2020-06-30T14:32:06Z</time>
      </trkpt>
      <trkpt lat="48.84408" lon="4.45563">
        <ele>92.5</ele>
        <time>2020-06-30T14:32:07Z</time>
      </trkpt>
      <trkpt lat="48.84411" lon="4.45557">
        <ele>92.4</ele>
        <time>2020-06-30T14:32:08Z</time>
      </trkpt>
      <trkpt lat="48.84414" lon="4.45552">
        <ele>92.3</ele>
        <time>2020-06-30T14:32:09Z</time>
      </trkpt>
      <trkpt lat="48.84418" lon="4.45548">
        <ele>92.3</ele>
        <time>2020-06-30T14:32:10Z</time>
      </trkpt>
      <trkpt lat="48.84421" lon="4.45542">
        <ele>92.2</ele>
        <time>2020-06-30T14:32:11Z</time>
      </trkpt>
      <trkpt lat="48.84425" lon="4.45537">
        <ele>92.1</ele>
        <time>2020-06-30T14:32:12Z</time>
      </trkpt>
      <trkpt lat="48.84429" lon="4.45532">
        <ele>92.1</ele>
        <time>2020-06-30T14:32:13Z</time>
      </trkpt>
      <trkpt lat="48.84433" lon="4.45527">
        <ele>92</ele>
        <time>2020-06-30T14:32:14Z</time>
      </trkpt>
      <trkpt lat="48.84435" lon="4.45519">
        <ele>91.9</ele>
        <time>2020-06-30T14:32:15Z</time>
      </trkpt>
      <trkpt lat="48.84439" lon="4.45513">
        <ele>91.8</ele>
        <time>2020-06-30T14:32:16Z</time>
      </trkpt>
      <trkpt lat="48.84442" lon="4.45507">
        <ele>91.7</ele>
        <time>2020-06-30T14:32:17Z</time>
      </trkpt>
      <trkpt lat="48.84446" lon="4.455">
        <ele>91.6</ele>
        <time>2020-06-30T14:32:18Z</time>
      </trkpt>
      <trkpt lat="48.8445" lon="4.45494">
        <ele>91.6</ele>
        <time>2020-06-30T14:32:19Z</time>
      </trkpt>
      <trkpt lat="48.84453" lon="4.45488">
        <ele>91.5</ele>
        <time>2020-06-30T14:32:20Z</time>
      </trkpt>
      <trkpt lat="48.84457" lon="4.45481">
        <ele>91.5</ele>
        <time>2020-06-30T14:32:21Z</time>
      </trkpt>
      <trkpt lat="48.84461" lon="4.45474">
        <ele>91.4</ele>
        <time>2020-06-30T14:32:22Z</time>
      </trkpt>
      <trkpt lat="48.84464" lon="4.45468">
        <ele>91.4</ele>
        <time>2020-06-30T14:32:23Z</time>
      </trkpt>
      <trkpt lat="48.84467" lon="4.45462">
        <ele>91.3</ele>
        <time>2020-06-30T14:32:24Z</time>
      </trkpt>
      <trkpt lat="48.8447" lon="4.45456">
        <ele>91.3</ele>
        <time>2020-06-30T14:32:25Z</time>
      </trkpt>
      <trkpt lat="48.84474" lon="4.4545">
        <ele>91.3</ele>
        <time>2020-06-30T14:32:26Z</time>
      </trkpt>
      <trkpt lat="48.84477" lon="4.45444">
        <ele>91.3</ele>
        <time>2020-06-30T14:32:27Z</time>
      </trkpt>
      <trkpt lat="48.8448" lon="4.45437">
        <ele>91.3</ele>
        <time>2020-06-30T14:32:28Z</time>
      </trkpt>
      <trkpt lat="48.84483" lon="4.45431">
        <ele>91.2</ele>
        <time>2020-06-30T14:32:29Z</time>
      </trkpt>
      <trkpt lat="48.84486" lon="4.45425">
        <ele>91.2</ele>
        <time>2020-06-30T14:32:30Z</time>
      </trkpt>
      <trkpt lat="48.84488" lon="4.4542">
        <ele>91.2</ele>
        <time>2020-06-30T14:32:31Z</time>
      </trkpt>
      <trkpt lat="48.8449" lon="4.45414">
        <ele>91.2</ele>
        <time>2020-06-30T14:32:32Z</time>
      </trkpt>
      <trkpt lat="48.84492" lon="4.45407">
        <ele>91.1</ele>
        <time>2020-06-30T14:32:33Z</time>
      </trkpt>
      <trkpt lat="48.84493" lon="4.45401">
        <ele>91.1</ele>
        <time>2020-06-30T14:32:34Z</time>
      </trkpt>
      <trkpt lat="48.84495" lon="4.45394">
        <ele>91.1</ele>
        <time>2020-06-30T14:32:35Z</time>
      </trkpt>
      <trkpt lat="48.84497" lon="4.45386">
        <ele>91</ele>
        <time>2020-06-30T14:32:36Z</time>
      </trkpt>
      <trkpt lat="48.84499" lon="4.45378">
        <ele>91</ele>
        <time>2020-06-30T14:32:37Z</time>
      </trkpt>
      <trkpt lat="48.84502" lon="4.45373">
        <ele>91</ele>
        <time>2020-06-30T14:32:38Z</time>
      </trkpt>
      <trkpt lat="48.84503" lon="4.45365">
        <ele>91</ele>
        <time>2020-06-30T14:32:39Z</time>
      </trkpt>
      <trkpt lat="48.84505" lon="4.45358">
        <ele>91</ele>
        <time>2020-06-30T14:32:40Z</time>
      </trkpt>
      <trkpt lat="48.84507" lon="4.4535">
        <ele>91</ele>
        <time>2020-06-30T14:32:41Z</time>
      </trkpt>
      <trkpt lat="48.84509" lon="4.45343">
        <ele>91</ele>
        <time>2020-06-30T14:32:42Z</time>
      </trkpt>
      <trkpt lat="48.84511" lon="4.45336">
        <ele>90.9</ele>
        <time>2020-06-30T14:32:43Z</time>
      </trkpt>
      <trkpt lat="48.84513" lon="4.45329">
        <ele>90.9</ele>
        <time>2020-06-30T14:32:44Z</time>
      </trkpt>
      <trkpt lat="48.84515" lon="4.45322">
        <ele>90.9</ele>
        <time>2020-06-30T14:32:45Z</time>
      </trkpt>
      <trkpt lat="48.84517" lon="4.45316">
        <ele>90.9</ele>
        <time>2020-06-30T14:32:46Z</time>
      </trkpt>
      <trkpt lat="48.84521" lon="4.4531">
        <ele>90.9</ele>
        <time>2020-06-30T14:32:47Z</time>
      </trkpt>
      <trkpt lat="48.84523" lon="4.45302">
        <ele>90.9</ele>
        <time>2020-06-30T14:32:48Z</time>
      </trkpt>
      <trkpt lat="48.84524" lon="4.45294">
        <ele>90.9</ele>
        <time>2020-06-30T14:32:49Z</time>
      </trkpt>
      <trkpt lat="48.84527" lon="4.45288">
        <ele>90.9</ele>
        <time>2020-06-30T14:32:50Z</time>
      </trkpt>
      <trkpt lat="48.8453" lon="4.45282">
        <ele>90.9</ele>
        <time>2020-06-30T14:32:51Z</time>
      </trkpt>
      <trkpt lat="48.84532" lon="4.45275">
        <ele>90.8</ele>
        <time>2020-06-30T14:32:52Z</time>
      </trkpt>
      <trkpt lat="48.84533" lon="4.45268">
        <ele>90.8</ele>
        <time>2020-06-30T14:32:53Z</time>
      </trkpt>
      <trkpt lat="48.84536" lon="4.45263">
        <ele>90.8</ele>
        <time>2020-06-30T14:32:54Z</time>
      </trkpt>
      <trkpt lat="48.84538" lon="4.45256">
        <ele>90.7</ele>
        <time>2020-06-30T14:32:55Z</time>
      </trkpt>
      <trkpt lat="48.8454" lon="4.45249">
        <ele>90.7</ele>
        <time>2020-06-30T14:32:56Z</time>
      </trkpt>
      <trkpt lat="48.84541" lon="4.45242">
        <ele>90.6</ele>
        <time>2020-06-30T14:32:57Z</time>
      </trkpt>
      <trkpt lat="48.84543" lon="4.45235">
        <ele>90.6</ele>
        <time>2020-06-30T14:32:58Z</time>
      </trkpt>
      <trkpt lat="48.84544" lon="4.45229">
        <ele>90.5</ele>
        <time>2020-06-30T14:32:59Z</time>
      </trkpt>
      <trkpt lat="48.84546" lon="4.45222">
        <ele>90.5</ele>
        <time>2020-06-30T14:33:00Z</time>
      </trkpt>
      <trkpt lat="48.84547" lon="4.45215">
        <ele>90.4</ele>
        <time>2020-06-30T14:33:01Z</time>
      </trkpt>
      <trkpt lat="48.84549" lon="4.45207">
        <ele>90.3</ele>
        <time>2020-06-30T14:33:02Z</time>
      </trkpt>
      <trkpt lat="48.84551" lon="4.452">
        <ele>90.3</ele>
        <time>2020-06-30T14:33:03Z</time>
      </trkpt>
      <trkpt lat="48.84554" lon="4.45193">
        <ele>90.3</ele>
        <time>2020-06-30T14:33:04Z</time>
      </trkpt>
      <trkpt lat="48.84557" lon="4.45187">
        <ele>90.3</ele>
        <time>2020-06-30T14:33:05Z</time>
      </trkpt>
      <trkpt lat="48.8456" lon="4.4518">
        <ele>90.3</ele>
        <time>2020-06-30T14:33:06Z</time>
      </trkpt>
      <trkpt lat="48.84562" lon="4.45173">
        <ele>90.2</ele>
        <time>2020-06-30T14:33:07Z</time>
      </trkpt>
      <trkpt lat="48.84565" lon="4.45165">
        <ele>90.1</ele>
        <time>2020-06-30T14:33:08Z</time>
      </trkpt>
      <trkpt lat="48.84568" lon="4.45157">
        <ele>90</ele>
        <time>2020-06-30T14:33:09Z</time>
      </trkpt>
      <trkpt lat="48.84571" lon="4.4515">
        <ele>89.9</ele>
        <time>2020-06-30T14:33:10Z</time>
      </trkpt>
      <trkpt lat="48.84573" lon="4.45142">
        <ele>89.8</ele>
        <time>2020-06-30T14:33:11Z</time>
      </trkpt>
      <trkpt lat="48.84576" lon="4.45136">
        <ele>89.7</ele>
        <time>2020-06-30T14:33:12Z</time>
      </trkpt>
      <trkpt lat="48.8458" lon="4.4513">
        <ele>89.6</ele>
        <time>2020-06-30T14:33:13Z</time>
      </trkpt>
      <trkpt lat="48.84583" lon="4.45124">
        <ele>89.5</ele>
        <time>2020-06-30T14:33:14Z</time>
      </trkpt>
      <trkpt lat="48.84587" lon="4.45117">
        <ele>89.4</ele>
        <time>2020-06-30T14:33:15Z</time>
      </trkpt>
      <trkpt lat="48.84591" lon="4.45112">
        <ele>89.4</ele>
        <time>2020-06-30T14:33:16Z</time>
      </trkpt>
      <trkpt lat="48.84594" lon="4.45105">
        <ele>89.3</ele>
        <time>2020-06-30T14:33:17Z</time>
      </trkpt>
      <trkpt lat="48.84597" lon="4.45098">
        <ele>89.3</ele>
        <time>2020-06-30T14:33:18Z</time>
      </trkpt>
      <trkpt lat="48.84601" lon="4.45091">
        <ele>89.3</ele>
        <time>2020-06-30T14:33:19Z</time>
      </trkpt>
      <trkpt lat="48.84605" lon="4.45086">
        <ele>89.3</ele>
        <time>2020-06-30T14:33:20Z</time>
      </trkpt>
      <trkpt lat="48.84609" lon="4.45082">
        <ele>89.2</ele>
        <time>2020-06-30T14:33:21Z</time>
      </trkpt>
      <trkpt lat="48.84613" lon="4.45078">
        <ele>89.2</ele>
        <time>2020-06-30T14:33:22Z</time>
      </trkpt>
      <trkpt lat="48.84617" lon="4.45075">
        <ele>89.2</ele>
        <time>2020-06-30T14:33:23Z</time>
      </trkpt>
      <trkpt lat="48.84622" lon="4.45071">
        <ele>89.2</ele>
        <time>2020-06-30T14:33:24Z</time>
      </trkpt>
      <trkpt lat="48.84627" lon="4.45066">
        <ele>89.2</ele>
        <time>2020-06-30T14:33:25Z</time>
      </trkpt>
      <trkpt lat="48.84631" lon="4.45061">
        <ele>89.2</ele>
        <time>2020-06-30T14:33:26Z</time>
      </trkpt>
      <trkpt lat="48.84635" lon="4.45057">
        <ele>89.2</ele>
        <time>2020-06-30T14:33:27Z</time>
      </trkpt>
      <trkpt lat="48.8464" lon="4.45054">
        <ele>89.2</ele>
        <time>2020-06-30T14:33:28Z</time>
      </trkpt>
      <trkpt lat="48.84645" lon="4.4505">
        <ele>89.2</ele>
        <time>2020-06-30T14:33:29Z</time>
      </trkpt>
      <trkpt lat="48.8465" lon="4.45046">
        <ele>89.2</ele>
        <time>2020-06-30T14:33:30Z</time>
      </trkpt>
      <trkpt lat="48.84654" lon="4.45043">
        <ele>89.3</ele>
        <time>2020-06-30T14:33:31Z</time>
      </trkpt>
      <trkpt lat="48.84659" lon="4.45039">
        <ele>89.3</ele>
        <time>2020-06-30T14:33:32Z</time>
      </trkpt>
      <trkpt lat="48.84664" lon="4.45036">
        <ele>89.4</ele>
        <time>2020-06-30T14:33:33Z</time>
      </trkpt>
      <trkpt lat="48.84669" lon="4.45033">
        <ele>89.4</ele>
        <time>2020-06-30T14:33:34Z</time>
      </trkpt>
      <trkpt lat="48.84673" lon="4.45029">
        <ele>89.5</ele>
        <time>2020-06-30T14:33:35Z</time>
      </trkpt>
      <trkpt lat="48.84678" lon="4.45026">
        <ele>89.5</ele>
        <time>2020-06-30T14:33:36Z</time>
      </trkpt>
      <trkpt lat="48.84682" lon="4.45023">
        <ele>89.6</ele>
        <time>2020-06-30T14:33:37Z</time>
      </trkpt>
      <trkpt lat="48.84687" lon="4.45021">
        <ele>89.7</ele>
        <time>2020-06-30T14:33:38Z</time>
      </trkpt>
      <trkpt lat="48.84692" lon="4.45019">
        <ele>89.8</ele>
        <time>2020-06-30T14:33:39Z</time>
      </trkpt>
      <trkpt lat="48.84697" lon="4.45014">
        <ele>89.9</ele>
        <time>2020-06-30T14:33:40Z</time>
      </trkpt>
      <trkpt lat="48.84702" lon="4.45011">
        <ele>90</ele>
        <time>2020-06-30T14:33:41Z</time>
      </trkpt>
      <trkpt lat="48.84707" lon="4.45008">
        <ele>90.1</ele>
        <time>2020-06-30T14:33:42Z</time>
      </trkpt>
      <trkpt lat="48.84712" lon="4.45005">
        <ele>90.2</ele>
        <time>2020-06-30T14:33:43Z</time>
      </trkpt>
      <trkpt lat="48.84716" lon="4.45">
        <ele>90.3</ele>
        <time>2020-06-30T14:33:44Z</time>
      </trkpt>
      <trkpt lat="48.8472" lon="4.44999">
        <ele>90.4</ele>
        <time>2020-06-30T14:33:45Z</time>
      </trkpt>
      <trkpt lat="48.84724" lon="4.44996">
        <ele>90.4</ele>
        <time>2020-06-30T14:33:46Z</time>
      </trkpt>
      <trkpt lat="48.84729" lon="4.44994">
        <ele>90.5</ele>
        <time>2020-06-30T14:33:47Z</time>
      </trkpt>
      <trkpt lat="48.84731" lon="4.44991">
        <ele>90.6</ele>
        <time>2020-06-30T14:33:48Z</time>
      </trkpt>
      <trkpt lat="48.84735" lon="4.44988">
        <ele>90.7</ele>
        <time>2020-06-30T14:33:49Z</time>
      </trkpt>
      <trkpt lat="48.84739" lon="4.44984">
        <ele>90.8</ele>
        <time>2020-06-30T14:33:50Z</time>
      </trkpt>
      <trkpt lat="48.84743" lon="4.44979">
        <ele>90.9</ele>
        <time>2020-06-30T14:33:51Z</time>
      </trkpt>
      <trkpt lat="48.84749" lon="4.44978">
        <ele>91</ele>
        <time>2020-06-30T14:33:52Z</time>
      </trkpt>
      <trkpt lat="48.84754" lon="4.44976">
        <ele>91.1</ele>
        <time>2020-06-30T14:33:53Z</time>
      </trkpt>
      <trkpt lat="48.84759" lon="4.44975">
        <ele>91.1</ele>
        <time>2020-06-30T14:33:54Z</time>
      </trkpt>
      <trkpt lat="48.84764" lon="4.44973">
        <ele>91.2</ele>
        <time>2020-06-30T14:33:55Z</time>
      </trkpt>
      <trkpt lat="48.84768" lon="4.44971">
        <ele>91.3</ele>
        <time>2020-06-30T14:33:56Z</time>
      </trkpt>
      <trkpt lat="48.84773" lon="4.4497">
        <ele>91.4</ele>
        <time>2020-06-30T14:33:57Z</time>
      </trkpt>
      <trkpt lat="48.84778" lon="4.44969">
        <ele>91.4</ele>
        <time>2020-06-30T14:33:58Z</time>
      </trkpt>
      <trkpt lat="48.84783" lon="4.44968">
        <ele>91.5</ele>
        <time>2020-06-30T14:33:59Z</time>
      </trkpt>
      <trkpt lat="48.8479" lon="4.44966">
        <ele>91.6</ele>
        <time>2020-06-30T14:34:00Z</time>
      </trkpt>
      <trkpt lat="48.84795" lon="4.44965">
        <ele>91.6</ele>
        <time>2020-06-30T14:34:01Z</time>
      </trkpt>
      <trkpt lat="48.84802" lon="4.44964">
        <ele>91.7</ele>
        <time>2020-06-30T14:34:02Z</time>
      </trkpt>
      <trkpt lat="48.84809" lon="4.44964">
        <ele>91.6</ele>
        <time>2020-06-30T14:34:03Z</time>
      </trkpt>
      <trkpt lat="48.84816" lon="4.44964">
        <ele>91.5</ele>
        <time>2020-06-30T14:34:04Z</time>
      </trkpt>
      <trkpt lat="48.84822" lon="4.44961">
        <ele>91.4</ele>
        <time>2020-06-30T14:34:05Z</time>
      </trkpt>
      <trkpt lat="48.84828" lon="4.4496">
        <ele>91.3</ele>
        <time>2020-06-30T14:34:06Z</time>
      </trkpt>
      <trkpt lat="48.84833" lon="4.44958">
        <ele>91.3</ele>
        <time>2020-06-30T14:34:07Z</time>
      </trkpt>
      <trkpt lat="48.8484" lon="4.44959">
        <ele>91.2</ele>
        <time>2020-06-30T14:34:08Z</time>
      </trkpt>
      <trkpt lat="48.84846" lon="4.44959">
        <ele>91.1</ele>
        <time>2020-06-30T14:34:09Z</time>
      </trkpt>
      <trkpt lat="48.84852" lon="4.44958">
        <ele>91.1</ele>
        <time>2020-06-30T14:34:10Z</time>
      </trkpt>
      <trkpt lat="48.84858" lon="4.44956">
        <ele>91</ele>
        <time>2020-06-30T14:34:11Z</time>
      </trkpt>
      <trkpt lat="48.84865" lon="4.44953">
        <ele>90.9</ele>
        <time>2020-06-30T14:34:12Z</time>
      </trkpt>
      <trkpt lat="48.84872" lon="4.4495">
        <ele>90.9</ele>
        <time>2020-06-30T14:34:13Z</time>
      </trkpt>
      <trkpt lat="48.84878" lon="4.44948">
        <ele>90.8</ele>
        <time>2020-06-30T14:34:14Z</time>
      </trkpt>
      <trkpt lat="48.84883" lon="4.44946">
        <ele>90.8</ele>
        <time>2020-06-30T14:34:15Z</time>
      </trkpt>
      <trkpt lat="48.84889" lon="4.44944">
        <ele>90.7</ele>
        <time>2020-06-30T14:34:16Z</time>
      </trkpt>
      <trkpt lat="48.84895" lon="4.4494">
        <ele>90.7</ele>
        <time>2020-06-30T14:34:17Z</time>
      </trkpt>
      <trkpt lat="48.84901" lon="4.44936">
        <ele>90.7</ele>
        <time>2020-06-30T14:34:18Z</time>
      </trkpt>
      <trkpt lat="48.84907" lon="4.44931">
        <ele>90.6</ele>
        <time>2020-06-30T14:34:19Z</time>
      </trkpt>
      <trkpt lat="48.84913" lon="4.44926">
        <ele>90.5</ele>
        <time>2020-06-30T14:34:20Z</time>
      </trkpt>
      <trkpt lat="48.84918" lon="4.44922">
        <ele>90.5</ele>
        <time>2020-06-30T14:34:21Z</time>
      </trkpt>
      <trkpt lat="48.84925" lon="4.44916">
        <ele>90.4</ele>
        <time>2020-06-30T14:34:22Z</time>
      </trkpt>
      <trkpt lat="48.8493" lon="4.44911">
        <ele>90.3</ele>
        <time>2020-06-30T14:34:23Z</time>
      </trkpt>
      <trkpt lat="48.84935" lon="4.44905">
        <ele>90.2</ele>
        <time>2020-06-30T14:34:24Z</time>
      </trkpt>
      <trkpt lat="48.84941" lon="4.44899">
        <ele>90.1</ele>
        <time>2020-06-30T14:34:25Z</time>
      </trkpt>
      <trkpt lat="48.84947" lon="4.44894">
        <ele>90</ele>
        <time>2020-06-30T14:34:26Z</time>
      </trkpt>
      <trkpt lat="48.84952" lon="4.44888">
        <ele>90</ele>
        <time>2020-06-30T14:34:27Z</time>
      </trkpt>
      <trkpt lat="48.84958" lon="4.44882">
        <ele>89.9</ele>
        <time>2020-06-30T14:34:28Z</time>
      </trkpt>
      <trkpt lat="48.84962" lon="4.44875">
        <ele>89.8</ele>
        <time>2020-06-30T14:34:29Z</time>
      </trkpt>
      <trkpt lat="48.84968" lon="4.44868">
        <ele>89.7</ele>
        <time>2020-06-30T14:34:30Z</time>
      </trkpt>
      <trkpt lat="48.84974" lon="4.44862">
        <ele>89.7</ele>
        <time>2020-06-30T14:34:31Z</time>
      </trkpt>
      <trkpt lat="48.84979" lon="4.44856">
        <ele>89.6</ele>
        <time>2020-06-30T14:34:32Z</time>
      </trkpt>
      <trkpt lat="48.84984" lon="4.4485">
        <ele>89.6</ele>
        <time>2020-06-30T14:34:33Z</time>
      </trkpt>
      <trkpt lat="48.8499" lon="4.44844">
        <ele>89.5</ele>
        <time>2020-06-30T14:34:34Z</time>
      </trkpt>
      <trkpt lat="48.84995" lon="4.44838">
        <ele>89.5</ele>
        <time>2020-06-30T14:34:35Z</time>
      </trkpt>
      <trkpt lat="48.85" lon="4.44831">
        <ele>89.5</ele>
        <time>2020-06-30T14:34:36Z</time>
      </trkpt>
      <trkpt lat="48.85005" lon="4.44826">
        <ele>89.4</ele>
        <time>2020-06-30T14:34:37Z</time>
      </trkpt>
      <trkpt lat="48.85011" lon="4.4482">
        <ele>89.4</ele>
        <time>2020-06-30T14:34:38Z</time>
      </trkpt>
      <trkpt lat="48.85016" lon="4.44814">
        <ele>89.4</ele>
        <time>2020-06-30T14:34:39Z</time>
      </trkpt>
      <trkpt lat="48.85021" lon="4.44807">
        <ele>89.3</ele>
        <time>2020-06-30T14:34:40Z</time>
      </trkpt>
      <trkpt lat="48.85026" lon="4.448">
        <ele>89.3</ele>
        <time>2020-06-30T14:34:41Z</time>
      </trkpt>
      <trkpt lat="48.85031" lon="4.44793">
        <ele>89.3</ele>
        <time>2020-06-30T14:34:42Z</time>
      </trkpt>
      <trkpt lat="48.85036" lon="4.44785">
        <ele>89.3</ele>
        <time>2020-06-30T14:34:43Z</time>
      </trkpt>
      <trkpt lat="48.8504" lon="4.44777">
        <ele>89.3</ele>
        <time>2020-06-30T14:34:44Z</time>
      </trkpt>
      <trkpt lat="48.85045" lon="4.4477">
        <ele>89.3</ele>
        <time>2020-06-30T14:34:45Z</time>
      </trkpt>
      <trkpt lat="48.85049" lon="4.44763">
        <ele>89.3</ele>
        <time>2020-06-30T14:34:46Z</time>
      </trkpt>
      <trkpt lat="48.85053" lon="4.44754">
        <ele>89.4</ele>
        <time>2020-06-30T14:34:47Z</time>
      </trkpt>
      <trkpt lat="48.85056" lon="4.44747">
        <ele>89.4</ele>
        <time>2020-06-30T14:34:48Z</time>
      </trkpt>
      <trkpt lat="48.8506" lon="4.44739">
        <ele>89.4</ele>
        <time>2020-06-30T14:34:49Z</time>
      </trkpt>
      <trkpt lat="48.85063" lon="4.44731">
        <ele>89.4</ele>
        <time>2020-06-30T14:34:50Z</time>
      </trkpt>
      <trkpt lat="48.85067" lon="4.44724">
        <ele>89.4</ele>
        <time>2020-06-30T14:34:51Z</time>
      </trkpt>
      <trkpt lat="48.8507" lon="4.44717">
        <ele>89.4</ele>
        <time>2020-06-30T14:34:52Z</time>
      </trkpt>
      <trkpt lat="48.85073" lon="4.4471">
        <ele>89.5</ele>
        <time>2020-06-30T14:34:53Z</time>
      </trkpt>
      <trkpt lat="48.85076" lon="4.44702">
        <ele>89.5</ele>
        <time>2020-06-30T14:34:54Z</time>
      </trkpt>
      <trkpt lat="48.85078" lon="4.44694">
        <ele>89.5</ele>
        <time>2020-06-30T14:34:55Z</time>
      </trkpt>
      <trkpt lat="48.8508" lon="4.44686">
        <ele>89.5</ele>
        <time>2020-06-30T14:34:56Z</time>
      </trkpt>
      <trkpt lat="48.85083" lon="4.44678">
        <ele>89.5</ele>
        <time>2020-06-30T14:34:57Z</time>
      </trkpt>
      <trkpt lat="48.85086" lon="4.4467">
        <ele>89.5</ele>
        <time>2020-06-30T14:34:58Z</time>
      </trkpt>
      <trkpt lat="48.85089" lon="4.44662">
        <ele>89.4</ele>
        <time>2020-06-30T14:34:59Z</time>
      </trkpt>
      <trkpt lat="48.8509" lon="4.44653">
        <ele>89.4</ele>
        <time>2020-06-30T14:35:00Z</time>
      </trkpt>
      <trkpt lat="48.85093" lon="4.44644">
        <ele>89.3</ele>
        <time>2020-06-30T14:35:01Z</time>
      </trkpt>
      <trkpt lat="48.85095" lon="4.44635">
        <ele>89.3</ele>
        <time>2020-06-30T14:35:02Z</time>
      </trkpt>
      <trkpt lat="48.85099" lon="4.44626">
        <ele>89.2</ele>
        <time>2020-06-30T14:35:03Z</time>
      </trkpt>
      <trkpt lat="48.85101" lon="4.44617">
        <ele>89.2</ele>
        <time>2020-06-30T14:35:04Z</time>
      </trkpt>
      <trkpt lat="48.85105" lon="4.44609">
        <ele>89.3</ele>
        <time>2020-06-30T14:35:05Z</time>
      </trkpt>
      <trkpt lat="48.8511" lon="4.44602">
        <ele>89.3</ele>
        <time>2020-06-30T14:35:06Z</time>
      </trkpt>
      <trkpt lat="48.85114" lon="4.44595">
        <ele>89.3</ele>
        <time>2020-06-30T14:35:07Z</time>
      </trkpt>
      <trkpt lat="48.85119" lon="4.44588">
        <ele>89.3</ele>
        <time>2020-06-30T14:35:08Z</time>
      </trkpt>
      <trkpt lat="48.85124" lon="4.44581">
        <ele>89.2</ele>
        <time>2020-06-30T14:35:09Z</time>
      </trkpt>
      <trkpt lat="48.8513" lon="4.44576">
        <ele>89.2</ele>
        <time>2020-06-30T14:35:10Z</time>
      </trkpt>
      <trkpt lat="48.85134" lon="4.4457">
        <ele>89.2</ele>
        <time>2020-06-30T14:35:11Z</time>
      </trkpt>
      <trkpt lat="48.85139" lon="4.44564">
        <ele>89.2</ele>
        <time>2020-06-30T14:35:12Z</time>
      </trkpt>
      <trkpt lat="48.85142" lon="4.44557">
        <ele>89.3</ele>
        <time>2020-06-30T14:35:13Z</time>
      </trkpt>
      <trkpt lat="48.85146" lon="4.44549">
        <ele>89.3</ele>
        <time>2020-06-30T14:35:14Z</time>
      </trkpt>
      <trkpt lat="48.8515" lon="4.44543">
        <ele>89.4</ele>
        <time>2020-06-30T14:35:15Z</time>
      </trkpt>
      <trkpt lat="48.85155" lon="4.44539">
        <ele>89.5</ele>
        <time>2020-06-30T14:35:16Z</time>
      </trkpt>
      <trkpt lat="48.85158" lon="4.44533">
        <ele>89.5</ele>
        <time>2020-06-30T14:35:17Z</time>
      </trkpt>
      <trkpt lat="48.85163" lon="4.44529">
        <ele>89.5</ele>
        <time>2020-06-30T14:35:18Z</time>
      </trkpt>
      <trkpt lat="48.85167" lon="4.44525">
        <ele>89.6</ele>
        <time>2020-06-30T14:35:19Z</time>
      </trkpt>
      <trkpt lat="48.85171" lon="4.4452">
        <ele>89.6</ele>
        <time>2020-06-30T14:35:20Z</time>
      </trkpt>
      <trkpt lat="48.85175" lon="4.44516">
        <ele>89.5</ele>
        <time>2020-06-30T14:35:21Z</time>
      </trkpt>
      <trkpt lat="48.85178" lon="4.44511">
        <ele>89.5</ele>
        <time>2020-06-30T14:35:22Z</time>
      </trkpt>
      <trkpt lat="48.85182" lon="4.44508">
        <ele>89.5</ele>
        <time>2020-06-30T14:35:23Z</time>
      </trkpt>
      <trkpt lat="48.85186" lon="4.44505">
        <ele>89.4</ele>
        <time>2020-06-30T14:35:24Z</time>
      </trkpt>
      <trkpt lat="48.85189" lon="4.445">
        <ele>89.3</ele>
        <time>2020-06-30T14:35:25Z</time>
      </trkpt>
      <trkpt lat="48.85194" lon="4.44497">
        <ele>89.2</ele>
        <time>2020-06-30T14:35:26Z</time>
      </trkpt>
      <trkpt lat="48.85198" lon="4.44493">
        <ele>89.1</ele>
        <time>2020-06-30T14:35:27Z</time>
      </trkpt>
      <trkpt lat="48.85203" lon="4.44489">
        <ele>89</ele>
        <time>2020-06-30T14:35:28Z</time>
      </trkpt>
      <trkpt lat="48.85209" lon="4.44486">
        <ele>88.8</ele>
        <time>2020-06-30T14:35:29Z</time>
      </trkpt>
      <trkpt lat="48.85214" lon="4.44481">
        <ele>88.7</ele>
        <time>2020-06-30T14:35:30Z</time>
      </trkpt>
      <trkpt lat="48.8522" lon="4.44476">
        <ele>88.5</ele>
        <time>2020-06-30T14:35:31Z</time>
      </trkpt>
      <trkpt lat="48.85227" lon="4.44472">
        <ele>88.3</ele>
        <time>2020-06-30T14:35:32Z</time>
      </trkpt>
      <trkpt lat="48.85232" lon="4.44464">
        <ele>88.2</ele>
        <time>2020-06-30T14:35:33Z</time>
      </trkpt>
      <trkpt lat="48.85239" lon="4.44458">
        <ele>88.1</ele>
        <time>2020-06-30T14:35:34Z</time>
      </trkpt>
      <trkpt lat="48.85244" lon="4.4445">
        <ele>88</ele>
        <time>2020-06-30T14:35:35Z</time>
      </trkpt>
      <trkpt lat="48.8525" lon="4.44443">
        <ele>88</ele>
        <time>2020-06-30T14:35:36Z</time>
      </trkpt>
      <trkpt lat="48.85255" lon="4.44436">
        <ele>88</ele>
        <time>2020-06-30T14:35:37Z</time>
      </trkpt>
      <trkpt lat="48.85259" lon="4.44428">
        <ele>88</ele>
        <time>2020-06-30T14:35:38Z</time>
      </trkpt>
      <trkpt lat="48.85264" lon="4.44422">
        <ele>88</ele>
        <time>2020-06-30T14:35:39Z</time>
      </trkpt>
      <trkpt lat="48.85269" lon="4.44415">
        <ele>88</ele>
        <time>2020-06-30T14:35:40Z</time>
      </trkpt>
      <trkpt lat="48.85273" lon="4.44407">
        <ele>88</ele>
        <time>2020-06-30T14:35:41Z</time>
      </trkpt>
      <trkpt lat="48.85277" lon="4.44399">
        <ele>88</ele>
        <time>2020-06-30T14:35:42Z</time>
      </trkpt>
      <trkpt lat="48.85281" lon="4.44392">
        <ele>88</ele>
        <time>2020-06-30T14:35:43Z</time>
      </trkpt>
      <trkpt lat="48.85284" lon="4.44385">
        <ele>88.1</ele>
        <time>2020-06-30T14:35:44Z</time>
      </trkpt>
      <trkpt lat="48.85288" lon="4.44378">
        <ele>88.2</ele>
        <time>2020-06-30T14:35:45Z</time>
      </trkpt>
      <trkpt lat="48.8529" lon="4.4437">
        <ele>88.3</ele>
        <time>2020-06-30T14:35:46Z</time>
      </trkpt>
      <trkpt lat="48.85293" lon="4.44364">
        <ele>88.4</ele>
        <time>2020-06-30T14:35:47Z</time>
      </trkpt>
      <trkpt lat="48.85295" lon="4.44358">
        <ele>88.4</ele>
        <time>2020-06-30T14:35:48Z</time>
      </trkpt>
      <trkpt lat="48.85299" lon="4.44353">
        <ele>88.5</ele>
        <time>2020-06-30T14:35:49Z</time>
      </trkpt>
      <trkpt lat="48.85302" lon="4.44347">
        <ele>88.6</ele>
        <time>2020-06-30T14:35:50Z</time>
      </trkpt>
      <trkpt lat="48.85305" lon="4.44341">
        <ele>88.6</ele>
        <time>2020-06-30T14:35:51Z</time>
      </trkpt>
      <trkpt lat="48.85308" lon="4.44335">
        <ele>88.7</ele>
        <time>2020-06-30T14:35:52Z</time>
      </trkpt>
      <trkpt lat="48.85311" lon="4.44328">
        <ele>88.7</ele>
        <time>2020-06-30T14:35:53Z</time>
      </trkpt>
      <trkpt lat="48.85314" lon="4.44322">
        <ele>88.7</ele>
        <time>2020-06-30T14:35:54Z</time>
      </trkpt>
      <trkpt lat="48.85317" lon="4.44316">
        <ele>88.7</ele>
        <time>2020-06-30T14:35:55Z</time>
      </trkpt>
      <trkpt lat="48.8532" lon="4.44309">
        <ele>88.6</ele>
        <time>2020-06-30T14:35:56Z</time>
      </trkpt>
      <trkpt lat="48.85324" lon="4.44303">
        <ele>88.6</ele>
        <time>2020-06-30T14:35:57Z</time>
      </trkpt>
      <trkpt lat="48.85328" lon="4.44296">
        <ele>88.6</ele>
        <time>2020-06-30T14:35:58Z</time>
      </trkpt>
      <trkpt lat="48.85332" lon="4.44289">
        <ele>88.5</ele>
        <time>2020-06-30T14:35:59Z</time>
      </trkpt>
      <trkpt lat="48.85335" lon="4.44283">
        <ele>88.5</ele>
        <time>2020-06-30T14:36:00Z</time>
      </trkpt>
      <trkpt lat="48.85339" lon="4.44276">
        <ele>88.4</ele>
        <time>2020-06-30T14:36:01Z</time>
      </trkpt>
      <trkpt lat="48.85343" lon="4.44269">
        <ele>88.4</ele>
        <time>2020-06-30T14:36:02Z</time>
      </trkpt>
      <trkpt lat="48.85346" lon="4.44262">
        <ele>88.3</ele>
        <time>2020-06-30T14:36:03Z</time>
      </trkpt>
      <trkpt lat="48.85349" lon="4.44255">
        <ele>88.2</ele>
        <time>2020-06-30T14:36:04Z</time>
      </trkpt>
      <trkpt lat="48.85353" lon="4.44249">
        <ele>88.2</ele>
        <time>2020-06-30T14:36:05Z</time>
      </trkpt>
      <trkpt lat="48.85357" lon="4.44242">
        <ele>88.1</ele>
        <time>2020-06-30T14:36:06Z</time>
      </trkpt>
      <trkpt lat="48.8536" lon="4.44234">
        <ele>88</ele>
        <time>2020-06-30T14:36:07Z</time>
      </trkpt>
      <trkpt lat="48.85364" lon="4.44228">
        <ele>87.9</ele>
        <time>2020-06-30T14:36:08Z</time>
      </trkpt>
      <trkpt lat="48.85367" lon="4.44221">
        <ele>87.9</ele>
        <time>2020-06-30T14:36:09Z</time>
      </trkpt>
      <trkpt lat="48.85371" lon="4.44214">
        <ele>87.8</ele>
        <time>2020-06-30T14:36:10Z</time>
      </trkpt>
      <trkpt lat="48.85374" lon="4.44206">
        <ele>87.7</ele>
        <time>2020-06-30T14:36:11Z</time>
      </trkpt>
      <trkpt lat="48.85378" lon="4.442">
        <ele>87.6</ele>
        <time>2020-06-30T14:36:12Z</time>
      </trkpt>
      <trkpt lat="48.85381" lon="4.44192">
        <ele>87.5</ele>
        <time>2020-06-30T14:36:13Z</time>
      </trkpt>
      <trkpt lat="48.85385" lon="4.44186">
        <ele>87.4</ele>
        <time>2020-06-30T14:36:14Z</time>
      </trkpt>
      <trkpt lat="48.85388" lon="4.44179">
        <ele>87.4</ele>
        <time>2020-06-30T14:36:15Z</time>
      </trkpt>
      <trkpt lat="48.8539" lon="4.44171">
        <ele>87.3</ele>
        <time>2020-06-30T14:36:16Z</time>
      </trkpt>
      <trkpt lat="48.85392" lon="4.44164">
        <ele>87.3</ele>
        <time>2020-06-30T14:36:17Z</time>
      </trkpt>
      <trkpt lat="48.85395" lon="4.44156">
        <ele>87.2</ele>
        <time>2020-06-30T14:36:18Z</time>
      </trkpt>
      <trkpt lat="48.85398" lon="4.44149">
        <ele>87.2</ele>
        <time>2020-06-30T14:36:19Z</time>
      </trkpt>
      <trkpt lat="48.85402" lon="4.44142">
        <ele>87.2</ele>
        <time>2020-06-30T14:36:20Z</time>
      </trkpt>
      <trkpt lat="48.85405" lon="4.44135">
        <ele>87.2</ele>
        <time>2020-06-30T14:36:21Z</time>
      </trkpt>
      <trkpt lat="48.85408" lon="4.44127">
        <ele>87.2</ele>
        <time>2020-06-30T14:36:22Z</time>
      </trkpt>
      <trkpt lat="48.8541" lon="4.4412">
        <ele>87.2</ele>
        <time>2020-06-30T14:36:23Z</time>
      </trkpt>
      <trkpt lat="48.85414" lon="4.44114">
        <ele>87.1</ele>
        <time>2020-06-30T14:36:24Z</time>
      </trkpt>
      <trkpt lat="48.85417" lon="4.44107">
        <ele>87.1</ele>
        <time>2020-06-30T14:36:25Z</time>
      </trkpt>
      <trkpt lat="48.8542" lon="4.441">
        <ele>87.1</ele>
        <time>2020-06-30T14:36:26Z</time>
      </trkpt>
      <trkpt lat="48.85422" lon="4.44092">
        <ele>87.1</ele>
        <time>2020-06-30T14:36:27Z</time>
      </trkpt>
      <trkpt lat="48.85425" lon="4.44084">
        <ele>87.1</ele>
        <time>2020-06-30T14:36:28Z</time>
      </trkpt>
      <trkpt lat="48.85428" lon="4.44077">
        <ele>87.1</ele>
        <time>2020-06-30T14:36:29Z</time>
      </trkpt>
      <trkpt lat="48.8543" lon="4.44069">
        <ele>87.1</ele>
        <time>2020-06-30T14:36:30Z</time>
      </trkpt>
      <trkpt lat="48.85432" lon="4.44062">
        <ele>87.1</ele>
        <time>2020-06-30T14:36:31Z</time>
      </trkpt>
      <trkpt lat="48.85433" lon="4.44054">
        <ele>87.1</ele>
        <time>2020-06-30T14:36:32Z</time>
      </trkpt>
      <trkpt lat="48.85436" lon="4.44047">
        <ele>87</ele>
        <time>2020-06-30T14:36:33Z</time>
      </trkpt>
      <trkpt lat="48.85438" lon="4.44039">
        <ele>87</ele>
        <time>2020-06-30T14:36:34Z</time>
      </trkpt>
      <trkpt lat="48.8544" lon="4.44032">
        <ele>87</ele>
        <time>2020-06-30T14:36:35Z</time>
      </trkpt>
      <trkpt lat="48.8544" lon="4.44024">
        <ele>87</ele>
        <time>2020-06-30T14:36:36Z</time>
      </trkpt>
      <trkpt lat="48.8544" lon="4.44016">
        <ele>86.9</ele>
        <time>2020-06-30T14:36:37Z</time>
      </trkpt>
      <trkpt lat="48.85441" lon="4.44007">
        <ele>86.9</ele>
        <time>2020-06-30T14:36:38Z</time>
      </trkpt>
      <trkpt lat="48.85441" lon="4.43998">
        <ele>86.9</ele>
        <time>2020-06-30T14:36:39Z</time>
      </trkpt>
      <trkpt lat="48.85443" lon="4.43989">
        <ele>87</ele>
        <time>2020-06-30T14:36:40Z</time>
      </trkpt>
      <trkpt lat="48.85444" lon="4.43981">
        <ele>87</ele>
        <time>2020-06-30T14:36:41Z</time>
      </trkpt>
      <trkpt lat="48.85446" lon="4.43972">
        <ele>87.1</ele>
        <time>2020-06-30T14:36:42Z</time>
      </trkpt>
      <trkpt lat="48.85447" lon="4.43964">
        <ele>87.1</ele>
        <time>2020-06-30T14:36:43Z</time>
      </trkpt>
      <trkpt lat="48.85448" lon="4.43956">
        <ele>87.2</ele>
        <time>2020-06-30T14:36:44Z</time>
      </trkpt>
      <trkpt lat="48.85451" lon="4.43949">
        <ele>87.3</ele>
        <time>2020-06-30T14:36:45Z</time>
      </trkpt>
      <trkpt lat="48.85454" lon="4.43944">
        <ele>87.2</ele>
        <time>2020-06-30T14:36:46Z</time>
      </trkpt>
      <trkpt lat="48.85458" lon="4.43939">
        <ele>87.2</ele>
        <time>2020-06-30T14:36:47Z</time>
      </trkpt>
      <trkpt lat="48.85462" lon="4.43936">
        <ele>87</ele>
        <time>2020-06-30T14:36:48Z</time>
      </trkpt>
      <trkpt lat="48.85467" lon="4.43932">
        <ele>86.9</ele>
        <time>2020-06-30T14:36:49Z</time>
      </trkpt>
      <trkpt lat="48.85471" lon="4.43928">
        <ele>86.7</ele>
        <time>2020-06-30T14:36:50Z</time>
      </trkpt>
      <trkpt lat="48.85476" lon="4.43924">
        <ele>86.6</ele>
        <time>2020-06-30T14:36:51Z</time>
      </trkpt>
      <trkpt lat="48.8548" lon="4.43919">
        <ele>86.8</ele>
        <time>2020-06-30T14:36:52Z</time>
      </trkpt>
      <trkpt lat="48.85484" lon="4.43916">
        <ele>87</ele>
        <time>2020-06-30T14:36:53Z</time>
      </trkpt>
      <trkpt lat="48.85489" lon="4.43913">
        <ele>87.2</ele>
        <time>2020-06-30T14:36:54Z</time>
      </trkpt>
      <trkpt lat="48.85492" lon="4.43908">
        <ele>87.3</ele>
        <time>2020-06-30T14:36:55Z</time>
      </trkpt>
      <trkpt lat="48.85496" lon="4.43904">
        <ele>87.4</ele>
        <time>2020-06-30T14:36:56Z</time>
      </trkpt>
      <trkpt lat="48.85499" lon="4.43901">
        <ele>87.6</ele>
        <time>2020-06-30T14:36:57Z</time>
      </trkpt>
      <trkpt lat="48.85502" lon="4.43898">
        <ele>87.7</ele>
        <time>2020-06-30T14:36:58Z</time>
      </trkpt>
      <trkpt lat="48.85505" lon="4.43895">
        <ele>87.9</ele>
        <time>2020-06-30T14:36:59Z</time>
      </trkpt>
      <trkpt lat="48.85508" lon="4.43892">
        <ele>88</ele>
        <time>2020-06-30T14:37:00Z</time>
      </trkpt>
      <trkpt lat="48.85511" lon="4.43889">
        <ele>88.2</ele>
        <time>2020-06-30T14:37:01Z</time>
      </trkpt>
      <trkpt lat="48.85514" lon="4.43886">
        <ele>88.5</ele>
        <time>2020-06-30T14:37:02Z</time>
      </trkpt>
      <trkpt lat="48.85516" lon="4.43882">
        <ele>88.7</ele>
        <time>2020-06-30T14:37:03Z</time>
      </trkpt>
      <trkpt lat="48.85519" lon="4.43879">
        <ele>88.9</ele>
        <time>2020-06-30T14:37:04Z</time>
      </trkpt>
      <trkpt lat="48.85523" lon="4.43878">
        <ele>89.2</ele>
        <time>2020-06-30T14:37:05Z</time>
      </trkpt>
      <trkpt lat="48.85526" lon="4.43876">
        <ele>89.4</ele>
        <time>2020-06-30T14:37:06Z</time>
      </trkpt>
      <trkpt lat="48.85529" lon="4.43873">
        <ele>89.7</ele>
        <time>2020-06-30T14:37:07Z</time>
      </trkpt>
      <trkpt lat="48.85532" lon="4.4387">
        <ele>89.9</ele>
        <time>2020-06-30T14:37:08Z</time>
      </trkpt>
      <trkpt lat="48.85535" lon="4.43868">
        <ele>90.1</ele>
        <time>2020-06-30T14:37:09Z</time>
      </trkpt>
      <trkpt lat="48.85537" lon="4.43865">
        <ele>90.4</ele>
        <time>2020-06-30T14:37:10Z</time>
      </trkpt>
      <trkpt lat="48.8554" lon="4.43862">
        <ele>90.6</ele>
        <time>2020-06-30T14:37:11Z</time>
      </trkpt>
      <trkpt lat="48.85544" lon="4.43861">
        <ele>90.9</ele>
        <time>2020-06-30T14:37:12Z</time>
      </trkpt>
      <trkpt lat="48.85546" lon="4.43858">
        <ele>91.1</ele>
        <time>2020-06-30T14:37:13Z</time>
      </trkpt>
      <trkpt lat="48.8555" lon="4.43855">
        <ele>91.4</ele>
        <time>2020-06-30T14:37:14Z</time>
      </trkpt>
      <trkpt lat="48.85553" lon="4.43851">
        <ele>91.7</ele>
        <time>2020-06-30T14:37:15Z</time>
      </trkpt>
      <trkpt lat="48.85555" lon="4.43848">
        <ele>91.9</ele>
        <time>2020-06-30T14:37:16Z</time>
      </trkpt>
      <trkpt lat="48.8556" lon="4.43844">
        <ele>92.3</ele>
        <time>2020-06-30T14:37:17Z</time>
      </trkpt>
      <trkpt lat="48.85564" lon="4.43841">
        <ele>92.7</ele>
        <time>2020-06-30T14:37:18Z</time>
      </trkpt>
      <trkpt lat="48.85568" lon="4.43837">
        <ele>93</ele>
        <time>2020-06-30T14:37:19Z</time>
      </trkpt>
      <trkpt lat="48.85572" lon="4.43832">
        <ele>93.4</ele>
        <time>2020-06-30T14:37:20Z</time>
      </trkpt>
      <trkpt lat="48.85575" lon="4.43828">
        <ele>93.8</ele>
        <time>2020-06-30T14:37:21Z</time>
      </trkpt>
      <trkpt lat="48.85577" lon="4.43825">
        <ele>94</ele>
        <time>2020-06-30T14:37:22Z</time>
      </trkpt>
      <trkpt lat="48.8558" lon="4.43822">
        <ele>94.2</ele>
        <time>2020-06-30T14:37:23Z</time>
      </trkpt>
      <trkpt lat="48.85584" lon="4.43819">
        <ele>94.6</ele>
        <time>2020-06-30T14:37:24Z</time>
      </trkpt>
      <trkpt lat="48.85587" lon="4.43815">
        <ele>94.9</ele>
        <time>2020-06-30T14:37:25Z</time>
      </trkpt>
      <trkpt lat="48.85589" lon="4.43812">
        <ele>95.1</ele>
        <time>2020-06-30T14:37:26Z</time>
      </trkpt>
      <trkpt lat="48.85592" lon="4.4381">
        <ele>95.4</ele>
        <time>2020-06-30T14:37:27Z</time>
      </trkpt>
      <trkpt lat="48.85595" lon="4.43807">
        <ele>95.6</ele>
        <time>2020-06-30T14:37:28Z</time>
      </trkpt>
      <trkpt lat="48.85597" lon="4.43805">
        <ele>95.9</ele>
        <time>2020-06-30T14:37:29Z</time>
      </trkpt>
      <trkpt lat="48.85599" lon="4.43802">
        <ele>96.1</ele>
        <time>2020-06-30T14:37:30Z</time>
      </trkpt>
      <trkpt lat="48.85602" lon="4.43798">
        <ele>96.4</ele>
        <time>2020-06-30T14:37:31Z</time>
      </trkpt>
      <trkpt lat="48.85605" lon="4.43793">
        <ele>96.7</ele>
        <time>2020-06-30T14:37:32Z</time>
      </trkpt>
      <trkpt lat="48.85607" lon="4.4379">
        <ele>97</ele>
        <time>2020-06-30T14:37:33Z</time>
      </trkpt>
      <trkpt lat="48.85611" lon="4.43786">
        <ele>97.3</ele>
        <time>2020-06-30T14:37:34Z</time>
      </trkpt>
      <trkpt lat="48.85612" lon="4.43785">
        <ele>97.4</ele>
        <time>2020-06-30T14:37:35Z</time>
      </trkpt>
      <trkpt lat="48.85615" lon="4.4378">
        <ele>97.8</ele>
        <time>2020-06-30T14:37:36Z</time>
      </trkpt>
      <trkpt lat="48.85616" lon="4.43778">
        <ele>97.9</ele>
        <time>2020-06-30T14:37:37Z</time>
      </trkpt>
      <trkpt lat="48.85619" lon="4.43774">
        <ele>98.2</ele>
        <time>2020-06-30T14:37:38Z</time>
      </trkpt>
      <trkpt lat="48.85621" lon="4.43771">
        <ele>98.4</ele>
        <time>2020-06-30T14:37:39Z</time>
      </trkpt>
      <trkpt lat="48.85624" lon="4.43767">
        <ele>98.7</ele>
        <time>2020-06-30T14:37:40Z</time>
      </trkpt>
      <trkpt lat="48.85626" lon="4.43764">
        <ele>98.9</ele>
        <time>2020-06-30T14:37:41Z</time>
      </trkpt>
      <trkpt lat="48.85629" lon="4.43761">
        <ele>99.1</ele>
        <time>2020-06-30T14:37:42Z</time>
      </trkpt>
      <trkpt lat="48.85631" lon="4.43757">
        <ele>99.4</ele>
        <time>2020-06-30T14:37:43Z</time>
      </trkpt>
      <trkpt lat="48.85633" lon="4.43754">
        <ele>99.6</ele>
        <time>2020-06-30T14:37:44Z</time>
      </trkpt>
      <trkpt lat="48.85636" lon="4.43751">
        <ele>99.8</ele>
        <time>2020-06-30T14:37:45Z</time>
      </trkpt>
      <trkpt lat="48.85638" lon="4.43747">
        <ele>100.1</ele>
        <time>2020-06-30T14:37:46Z</time>
      </trkpt>
      <trkpt lat="48.85639" lon="4.43743">
        <ele>100.3</ele>
        <time>2020-06-30T14:37:47Z</time>
      </trkpt>
      <trkpt lat="48.85642" lon="4.43738">
        <ele>100.6</ele>
        <time>2020-06-30T14:37:48Z</time>
      </trkpt>
      <trkpt lat="48.85642" lon="4.43736">
        <ele>100.7</ele>
        <time>2020-06-30T14:37:49Z</time>
      </trkpt>
      <trkpt lat="48.85644" lon="4.4373">
        <ele>100.9</ele>
        <time>2020-06-30T14:37:50Z</time>
      </trkpt>
      <trkpt lat="48.85645" lon="4.43728">
        <ele>101.1</ele>
        <time>2020-06-30T14:37:51Z</time>
      </trkpt>
      <trkpt lat="48.85649" lon="4.43725">
        <ele>101.3</ele>
        <time>2020-06-30T14:37:52Z</time>
      </trkpt>
      <trkpt lat="48.85651" lon="4.43721">
        <ele>101.5</ele>
        <time>2020-06-30T14:37:53Z</time>
      </trkpt>
      <trkpt lat="48.85652" lon="4.43717">
        <ele>101.7</ele>
        <time>2020-06-30T14:37:54Z</time>
      </trkpt>
      <trkpt lat="48.85653" lon="4.43716">
        <ele>101.7</ele>
        <time>2020-06-30T14:37:55Z</time>
      </trkpt>
      <trkpt lat="48.85655" lon="4.43711">
        <ele>101.9</ele>
        <time>2020-06-30T14:37:56Z</time>
      </trkpt>
      <trkpt lat="48.85656" lon="4.43709">
        <ele>102</ele>
        <time>2020-06-30T14:37:57Z</time>
      </trkpt>
      <trkpt lat="48.85658" lon="4.43705">
        <ele>102.2</ele>
        <time>2020-06-30T14:37:58Z</time>
      </trkpt>
      <trkpt lat="48.85659" lon="4.43701">
        <ele>102.4</ele>
        <time>2020-06-30T14:37:59Z</time>
      </trkpt>
      <trkpt lat="48.8566" lon="4.43697">
        <ele>102.6</ele>
        <time>2020-06-30T14:38:00Z</time>
      </trkpt>
      <trkpt lat="48.85661" lon="4.43692">
        <ele>102.8</ele>
        <time>2020-06-30T14:38:01Z</time>
      </trkpt>
      <trkpt lat="48.85664" lon="4.43688">
        <ele>103</ele>
        <time>2020-06-30T14:38:02Z</time>
      </trkpt>
      <trkpt lat="48.85665" lon="4.43686">
        <ele>103</ele>
        <time>2020-06-30T14:38:03Z</time>
      </trkpt>
      <trkpt lat="48.85667" lon="4.43681">
        <ele>103.2</ele>
        <time>2020-06-30T14:38:04Z</time>
      </trkpt>
      <trkpt lat="48.85668" lon="4.43679">
        <ele>103.3</ele>
        <time>2020-06-30T14:38:05Z</time>
      </trkpt>
      <trkpt lat="48.8567" lon="4.43674">
        <ele>103.5</ele>
        <time>2020-06-30T14:38:06Z</time>
      </trkpt>
      <trkpt lat="48.85671" lon="4.43673">
        <ele>103.5</ele>
        <time>2020-06-30T14:38:07Z</time>
      </trkpt>
      <trkpt lat="48.85672" lon="4.43669">
        <ele>103.6</ele>
        <time>2020-06-30T14:38:08Z</time>
      </trkpt>
      <trkpt lat="48.85674" lon="4.43665">
        <ele>103.8</ele>
        <time>2020-06-30T14:38:09Z</time>
      </trkpt>
      <trkpt lat="48.85675" lon="4.4366">
        <ele>103.9</ele>
        <time>2020-06-30T14:38:10Z</time>
      </trkpt>
      <trkpt lat="48.85676" lon="4.43653">
        <ele>104.1</ele>
        <time>2020-06-30T14:38:11Z</time>
      </trkpt>
      <trkpt lat="48.85677" lon="4.43647">
        <ele>104.3</ele>
        <time>2020-06-30T14:38:12Z</time>
      </trkpt>
      <trkpt lat="48.85678" lon="4.43642">
        <ele>104.4</ele>
        <time>2020-06-30T14:38:13Z</time>
      </trkpt>
      <trkpt lat="48.85681" lon="4.43637">
        <ele>104.5</ele>
        <time>2020-06-30T14:38:14Z</time>
      </trkpt>
      <trkpt lat="48.85682" lon="4.43636">
        <ele>104.5</ele>
        <time>2020-06-30T14:38:15Z</time>
      </trkpt>
      <trkpt lat="48.85685" lon="4.43632">
        <ele>104.6</ele>
        <time>2020-06-30T14:38:16Z</time>
      </trkpt>
      <trkpt lat="48.85687" lon="4.43628">
        <ele>104.7</ele>
        <time>2020-06-30T14:38:17Z</time>
      </trkpt>
      <trkpt lat="48.85689" lon="4.43625">
        <ele>104.7</ele>
        <time>2020-06-30T14:38:18Z</time>
      </trkpt>
      <trkpt lat="48.8569" lon="4.4362">
        <ele>104.8</ele>
        <time>2020-06-30T14:38:19Z</time>
      </trkpt>
      <trkpt lat="48.85692" lon="4.43616">
        <ele>104.9</ele>
        <time>2020-06-30T14:38:20Z</time>
      </trkpt>
      <trkpt lat="48.85695" lon="4.43612">
        <ele>104.9</ele>
        <time>2020-06-30T14:38:21Z</time>
      </trkpt>
      <trkpt lat="48.85697" lon="4.43607">
        <ele>105</ele>
        <time>2020-06-30T14:38:22Z</time>
      </trkpt>
      <trkpt lat="48.85698" lon="4.43602">
        <ele>105</ele>
        <time>2020-06-30T14:38:23Z</time>
      </trkpt>
      <trkpt lat="48.857" lon="4.43597">
        <ele>105.1</ele>
        <time>2020-06-30T14:38:24Z</time>
      </trkpt>
      <trkpt lat="48.85702" lon="4.43593">
        <ele>105.1</ele>
        <time>2020-06-30T14:38:25Z</time>
      </trkpt>
      <trkpt lat="48.85703" lon="4.43588">
        <ele>105.1</ele>
        <time>2020-06-30T14:38:26Z</time>
      </trkpt>
      <trkpt lat="48.85705" lon="4.43583">
        <ele>105.1</ele>
        <time>2020-06-30T14:38:27Z</time>
      </trkpt>
      <trkpt lat="48.85706" lon="4.4358">
        <ele>105.1</ele>
        <time>2020-06-30T14:38:28Z</time>
      </trkpt>
      <trkpt lat="48.85708" lon="4.43577">
        <ele>105.1</ele>
        <time>2020-06-30T14:38:29Z</time>
      </trkpt>
      <trkpt lat="48.85711" lon="4.4357">
        <ele>105.1</ele>
        <time>2020-06-30T14:38:30Z</time>
      </trkpt>
      <trkpt lat="48.85712" lon="4.43565">
        <ele>105.1</ele>
        <time>2020-06-30T14:38:31Z</time>
      </trkpt>
      <trkpt lat="48.85715" lon="4.4356">
        <ele>105.1</ele>
        <time>2020-06-30T14:38:32Z</time>
      </trkpt>
      <trkpt lat="48.85716" lon="4.43554">
        <ele>105.1</ele>
        <time>2020-06-30T14:38:33Z</time>
      </trkpt>
      <trkpt lat="48.85718" lon="4.43548">
        <ele>105.1</ele>
        <time>2020-06-30T14:38:34Z</time>
      </trkpt>
      <trkpt lat="48.85721" lon="4.43542">
        <ele>105</ele>
        <time>2020-06-30T14:38:35Z</time>
      </trkpt>
      <trkpt lat="48.85724" lon="4.43537">
        <ele>105</ele>
        <time>2020-06-30T14:38:36Z</time>
      </trkpt>
      <trkpt lat="48.85727" lon="4.4353">
        <ele>104.9</ele>
        <time>2020-06-30T14:38:37Z</time>
      </trkpt>
      <trkpt lat="48.85729" lon="4.43524">
        <ele>104.9</ele>
        <time>2020-06-30T14:38:38Z</time>
      </trkpt>
      <trkpt lat="48.85731" lon="4.43517">
        <ele>104.8</ele>
        <time>2020-06-30T14:38:39Z</time>
      </trkpt>
      <trkpt lat="48.85734" lon="4.43511">
        <ele>104.7</ele>
        <time>2020-06-30T14:38:40Z</time>
      </trkpt>
      <trkpt lat="48.85737" lon="4.43505">
        <ele>104.7</ele>
        <time>2020-06-30T14:38:41Z</time>
      </trkpt>
      <trkpt lat="48.8574" lon="4.43498">
        <ele>104.6</ele>
        <time>2020-06-30T14:38:42Z</time>
      </trkpt>
      <trkpt lat="48.85742" lon="4.43491">
        <ele>104.5</ele>
        <time>2020-06-30T14:38:43Z</time>
      </trkpt>
      <trkpt lat="48.85745" lon="4.43485">
        <ele>104.4</ele>
        <time>2020-06-30T14:38:44Z</time>
      </trkpt>
      <trkpt lat="48.85748" lon="4.43477">
        <ele>104.3</ele>
        <time>2020-06-30T14:38:45Z</time>
      </trkpt>
      <trkpt lat="48.8575" lon="4.43471">
        <ele>104.1</ele>
        <time>2020-06-30T14:38:46Z</time>
      </trkpt>
      <trkpt lat="48.85752" lon="4.43464">
        <ele>104</ele>
        <time>2020-06-30T14:38:47Z</time>
      </trkpt>
      <trkpt lat="48.85754" lon="4.43458">
        <ele>103.9</ele>
        <time>2020-06-30T14:38:48Z</time>
      </trkpt>
      <trkpt lat="48.85758" lon="4.43452">
        <ele>103.8</ele>
        <time>2020-06-30T14:38:49Z</time>
      </trkpt>
      <trkpt lat="48.8576" lon="4.43446">
        <ele>103.6</ele>
        <time>2020-06-30T14:38:50Z</time>
      </trkpt>
      <trkpt lat="48.85763" lon="4.43438">
        <ele>103.5</ele>
        <time>2020-06-30T14:38:51Z</time>
      </trkpt>
      <trkpt lat="48.85766" lon="4.43431">
        <ele>103.3</ele>
        <time>2020-06-30T14:38:52Z</time>
      </trkpt>
      <trkpt lat="48.85769" lon="4.43423">
        <ele>103.1</ele>
        <time>2020-06-30T14:38:53Z</time>
      </trkpt>
      <trkpt lat="48.85772" lon="4.43414">
        <ele>102.9</ele>
        <time>2020-06-30T14:38:54Z</time>
      </trkpt>
      <trkpt lat="48.85776" lon="4.43405">
        <ele>102.7</ele>
        <time>2020-06-30T14:38:55Z</time>
      </trkpt>
      <trkpt lat="48.85779" lon="4.43397">
        <ele>102.5</ele>
        <time>2020-06-30T14:38:56Z</time>
      </trkpt>
      <trkpt lat="48.85782" lon="4.43389">
        <ele>102.3</ele>
        <time>2020-06-30T14:38:57Z</time>
      </trkpt>
      <trkpt lat="48.85785" lon="4.4338">
        <ele>102</ele>
        <time>2020-06-30T14:38:58Z</time>
      </trkpt>
      <trkpt lat="48.85788" lon="4.43372">
        <ele>101.8</ele>
        <time>2020-06-30T14:38:59Z</time>
      </trkpt>
      <trkpt lat="48.85792" lon="4.43364">
        <ele>101.6</ele>
        <time>2020-06-30T14:39:00Z</time>
      </trkpt>
      <trkpt lat="48.85796" lon="4.43355">
        <ele>101.3</ele>
        <time>2020-06-30T14:39:01Z</time>
      </trkpt>
      <trkpt lat="48.85799" lon="4.43347">
        <ele>101</ele>
        <time>2020-06-30T14:39:02Z</time>
      </trkpt>
      <trkpt lat="48.85802" lon="4.43337">
        <ele>100.8</ele>
        <time>2020-06-30T14:39:03Z</time>
      </trkpt>
      <trkpt lat="48.85806" lon="4.43327">
        <ele>100.5</ele>
        <time>2020-06-30T14:39:04Z</time>
      </trkpt>
      <trkpt lat="48.8581" lon="4.43317">
        <ele>100.1</ele>
        <time>2020-06-30T14:39:05Z</time>
      </trkpt>
      <trkpt lat="48.85814" lon="4.43307">
        <ele>99.8</ele>
        <time>2020-06-30T14:39:06Z</time>
      </trkpt>
      <trkpt lat="48.85817" lon="4.43298">
        <ele>99.4</ele>
        <time>2020-06-30T14:39:07Z</time>
      </trkpt>
      <trkpt lat="48.85821" lon="4.43288">
        <ele>99.1</ele>
        <time>2020-06-30T14:39:08Z</time>
      </trkpt>
      <trkpt lat="48.85825" lon="4.43278">
        <ele>98.8</ele>
        <time>2020-06-30T14:39:09Z</time>
      </trkpt>
      <trkpt lat="48.85829" lon="4.43269">
        <ele>98.4</ele>
        <time>2020-06-30T14:39:10Z</time>
      </trkpt>
      <trkpt lat="48.85832" lon="4.43258">
        <ele>98</ele>
        <time>2020-06-30T14:39:11Z</time>
      </trkpt>
      <trkpt lat="48.85835" lon="4.43248">
        <ele>97.7</ele>
        <time>2020-06-30T14:39:12Z</time>
      </trkpt>
      <trkpt lat="48.8584" lon="4.43238">
        <ele>97.5</ele>
        <time>2020-06-30T14:39:13Z</time>
      </trkpt>
      <trkpt lat="48.85844" lon="4.43227">
        <ele>97.2</ele>
        <time>2020-06-30T14:39:14Z</time>
      </trkpt>
      <trkpt lat="48.85848" lon="4.43217">
        <ele>96.7</ele>
        <time>2020-06-30T14:39:15Z</time>
      </trkpt>
      <trkpt lat="48.85852" lon="4.43206">
        <ele>96.3</ele>
        <time>2020-06-30T14:39:16Z</time>
      </trkpt>
      <trkpt lat="48.85857" lon="4.43195">
        <ele>95.9</ele>
        <time>2020-06-30T14:39:17Z</time>
      </trkpt>
      <trkpt lat="48.85862" lon="4.43184">
        <ele>95.5</ele>
        <time>2020-06-30T14:39:18Z</time>
      </trkpt>
      <trkpt lat="48.85866" lon="4.43173">
        <ele>95.2</ele>
        <time>2020-06-30T14:39:19Z</time>
      </trkpt>
      <trkpt lat="48.85871" lon="4.43162">
        <ele>94.9</ele>
        <time>2020-06-30T14:39:20Z</time>
      </trkpt>
      <trkpt lat="48.85875" lon="4.43151">
        <ele>94.6</ele>
        <time>2020-06-30T14:39:21Z</time>
      </trkpt>
      <trkpt lat="48.8588" lon="4.4314">
        <ele>94.4</ele>
        <time>2020-06-30T14:39:22Z</time>
      </trkpt>
      <trkpt lat="48.85885" lon="4.43128">
        <ele>94.1</ele>
        <time>2020-06-30T14:39:23Z</time>
      </trkpt>
      <trkpt lat="48.85889" lon="4.43117">
        <ele>93.9</ele>
        <time>2020-06-30T14:39:24Z</time>
      </trkpt>
      <trkpt lat="48.85894" lon="4.43106">
        <ele>93.7</ele>
        <time>2020-06-30T14:39:25Z</time>
      </trkpt>
      <trkpt lat="48.85899" lon="4.43095">
        <ele>93.6</ele>
        <time>2020-06-30T14:39:26Z</time>
      </trkpt>
      <trkpt lat="48.85904" lon="4.43085">
        <ele>93.5</ele>
        <time>2020-06-30T14:39:27Z</time>
      </trkpt>
      <trkpt lat="48.85908" lon="4.43074">
        <ele>93.5</ele>
        <time>2020-06-30T14:39:28Z</time>
      </trkpt>
      <trkpt lat="48.85913" lon="4.43065">
        <ele>93.5</ele>
        <time>2020-06-30T14:39:29Z</time>
      </trkpt>
      <trkpt lat="48.85918" lon="4.43056">
        <ele>93.7</ele>
        <time>2020-06-30T14:39:30Z</time>
      </trkpt>
      <trkpt lat="48.85923" lon="4.43047">
        <ele>93.8</ele>
        <time>2020-06-30T14:39:31Z</time>
      </trkpt>
      <trkpt lat="48.85928" lon="4.43038">
        <ele>93.9</ele>
        <time>2020-06-30T14:39:32Z</time>
      </trkpt>
      <trkpt lat="48.85932" lon="4.4303">
        <ele>94</ele>
        <time>2020-06-30T14:39:33Z</time>
      </trkpt>
      <trkpt lat="48.85937" lon="4.43022">
        <ele>94.1</ele>
        <time>2020-06-30T14:39:34Z</time>
      </trkpt>
      <trkpt lat="48.85941" lon="4.43014">
        <ele>94.3</ele>
        <time>2020-06-30T14:39:35Z</time>
      </trkpt>
      <trkpt lat="48.85945" lon="4.43007">
        <ele>94.5</ele>
        <time>2020-06-30T14:39:36Z</time>
      </trkpt>
      <trkpt lat="48.8595" lon="4.43001">
        <ele>94.7</ele>
        <time>2020-06-30T14:39:37Z</time>
      </trkpt>
      <trkpt lat="48.85954" lon="4.42995">
        <ele>94.9</ele>
        <time>2020-06-30T14:39:38Z</time>
      </trkpt>
      <trkpt lat="48.85957" lon="4.42989">
        <ele>95.1</ele>
        <time>2020-06-30T14:39:39Z</time>
      </trkpt>
      <trkpt lat="48.85961" lon="4.42982">
        <ele>95.4</ele>
        <time>2020-06-30T14:39:40Z</time>
      </trkpt>
      <trkpt lat="48.85964" lon="4.42976">
        <ele>95.6</ele>
        <time>2020-06-30T14:39:41Z</time>
      </trkpt>
      <trkpt lat="48.85968" lon="4.42971">
        <ele>95.9</ele>
        <time>2020-06-30T14:39:42Z</time>
      </trkpt>
      <trkpt lat="48.85972" lon="4.42966">
        <ele>96.1</ele>
        <time>2020-06-30T14:39:43Z</time>
      </trkpt>
      <trkpt lat="48.85975" lon="4.42961">
        <ele>96.4</ele>
        <time>2020-06-30T14:39:44Z</time>
      </trkpt>
      <trkpt lat="48.85979" lon="4.42957">
        <ele>96.6</ele>
        <time>2020-06-30T14:39:45Z</time>
      </trkpt>
      <trkpt lat="48.85983" lon="4.42953">
        <ele>96.8</ele>
        <time>2020-06-30T14:39:46Z</time>
      </trkpt>
      <trkpt lat="48.85986" lon="4.42948">
        <ele>97.1</ele>
        <time>2020-06-30T14:39:47Z</time>
      </trkpt>
      <trkpt lat="48.85989" lon="4.42943">
        <ele>97.3</ele>
        <time>2020-06-30T14:39:48Z</time>
      </trkpt>
      <trkpt lat="48.85991" lon="4.42938">
        <ele>97.5</ele>
        <time>2020-06-30T14:39:49Z</time>
      </trkpt>
      <trkpt lat="48.85993" lon="4.42934">
        <ele>97.7</ele>
        <time>2020-06-30T14:39:50Z</time>
      </trkpt>
      <trkpt lat="48.85996" lon="4.42931">
        <ele>97.9</ele>
        <time>2020-06-30T14:39:51Z</time>
      </trkpt>
      <trkpt lat="48.85999" lon="4.42927">
        <ele>98</ele>
        <time>2020-06-30T14:39:52Z</time>
      </trkpt>
      <trkpt lat="48.86001" lon="4.42923">
        <ele>98.2</ele>
        <time>2020-06-30T14:39:53Z</time>
      </trkpt>
      <trkpt lat="48.86005" lon="4.42921">
        <ele>98.4</ele>
        <time>2020-06-30T14:39:54Z</time>
      </trkpt>
      <trkpt lat="48.86008" lon="4.42918">
        <ele>98.6</ele>
        <time>2020-06-30T14:39:55Z</time>
      </trkpt>
      <trkpt lat="48.8601" lon="4.42914">
        <ele>98.8</ele>
        <time>2020-06-30T14:39:56Z</time>
      </trkpt>
      <trkpt lat="48.86014" lon="4.42913">
        <ele>99</ele>
        <time>2020-06-30T14:39:57Z</time>
      </trkpt>
      <trkpt lat="48.86017" lon="4.42908">
        <ele>99.2</ele>
        <time>2020-06-30T14:39:58Z</time>
      </trkpt>
      <trkpt lat="48.86019" lon="4.42905">
        <ele>99.3</ele>
        <time>2020-06-30T14:39:59Z</time>
      </trkpt>
      <trkpt lat="48.86023" lon="4.42901">
        <ele>99.5</ele>
        <time>2020-06-30T14:40:00Z</time>
      </trkpt>
      <trkpt lat="48.86026" lon="4.42898">
        <ele>99.7</ele>
        <time>2020-06-30T14:40:01Z</time>
      </trkpt>
      <trkpt lat="48.86029" lon="4.42894">
        <ele>99.9</ele>
        <time>2020-06-30T14:40:02Z</time>
      </trkpt>
      <trkpt lat="48.86033" lon="4.42889">
        <ele>100.2</ele>
        <time>2020-06-30T14:40:03Z</time>
      </trkpt>
      <trkpt lat="48.86036" lon="4.42886">
        <ele>100.3</ele>
        <time>2020-06-30T14:40:04Z</time>
      </trkpt>
      <trkpt lat="48.86039" lon="4.42883">
        <ele>100.5</ele>
        <time>2020-06-30T14:40:05Z</time>
      </trkpt>
      <trkpt lat="48.86043" lon="4.42879">
        <ele>100.7</ele>
        <time>2020-06-30T14:40:06Z</time>
      </trkpt>
      <trkpt lat="48.86046" lon="4.42875">
        <ele>100.9</ele>
        <time>2020-06-30T14:40:07Z</time>
      </trkpt>
      <trkpt lat="48.86049" lon="4.42872">
        <ele>101.1</ele>
        <time>2020-06-30T14:40:08Z</time>
      </trkpt>
      <trkpt lat="48.86051" lon="4.42869">
        <ele>101.3</ele>
        <time>2020-06-30T14:40:09Z</time>
      </trkpt>
      <trkpt lat="48.86054" lon="4.42867">
        <ele>101.4</ele>
        <time>2020-06-30T14:40:10Z</time>
      </trkpt>
      <trkpt lat="48.86057" lon="4.42864">
        <ele>101.6</ele>
        <time>2020-06-30T14:40:11Z</time>
      </trkpt>
      <trkpt lat="48.8606" lon="4.42861">
        <ele>101.7</ele>
        <time>2020-06-30T14:40:12Z</time>
      </trkpt>
      <trkpt lat="48.86063" lon="4.42859">
        <ele>101.8</ele>
        <time>2020-06-30T14:40:13Z</time>
      </trkpt>
      <trkpt lat="48.86066" lon="4.42856">
        <ele>102</ele>
        <time>2020-06-30T14:40:14Z</time>
      </trkpt>
      <trkpt lat="48.8607" lon="4.42853">
        <ele>102.1</ele>
        <time>2020-06-30T14:40:15Z</time>
      </trkpt>
      <trkpt lat="48.86071" lon="4.42853">
        <ele>102.2</ele>
        <time>2020-06-30T14:40:16Z</time>
      </trkpt>
      <trkpt lat="48.86074" lon="4.4285">
        <ele>102.3</ele>
        <time>2020-06-30T14:40:17Z</time>
      </trkpt>
      <trkpt lat="48.86077" lon="4.42846">
        <ele>102.4</ele>
        <time>2020-06-30T14:40:18Z</time>
      </trkpt>
      <trkpt lat="48.8608" lon="4.42842">
        <ele>102.5</ele>
        <time>2020-06-30T14:40:19Z</time>
      </trkpt>
      <trkpt lat="48.86083" lon="4.42838">
        <ele>102.6</ele>
        <time>2020-06-30T14:40:20Z</time>
      </trkpt>
      <trkpt lat="48.86087" lon="4.42836">
        <ele>102.7</ele>
        <time>2020-06-30T14:40:21Z</time>
      </trkpt>
      <trkpt lat="48.86091" lon="4.42835">
        <ele>102.8</ele>
        <time>2020-06-30T14:40:22Z</time>
      </trkpt>
      <trkpt lat="48.86095" lon="4.42832">
        <ele>102.9</ele>
        <time>2020-06-30T14:40:23Z</time>
      </trkpt>
      <trkpt lat="48.86099" lon="4.4283">
        <ele>103</ele>
        <time>2020-06-30T14:40:24Z</time>
      </trkpt>
      <trkpt lat="48.86102" lon="4.42827">
        <ele>103.1</ele>
        <time>2020-06-30T14:40:25Z</time>
      </trkpt>
      <trkpt lat="48.86105" lon="4.42826">
        <ele>103.2</ele>
        <time>2020-06-30T14:40:26Z</time>
      </trkpt>
      <trkpt lat="48.86109" lon="4.42823">
        <ele>103.3</ele>
        <time>2020-06-30T14:40:27Z</time>
      </trkpt>
      <trkpt lat="48.86112" lon="4.4282">
        <ele>103.3</ele>
        <time>2020-06-30T14:40:28Z</time>
      </trkpt>
      <trkpt lat="48.86117" lon="4.42818">
        <ele>103.4</ele>
        <time>2020-06-30T14:40:29Z</time>
      </trkpt>
      <trkpt lat="48.86122" lon="4.42814">
        <ele>103.5</ele>
        <time>2020-06-30T14:40:30Z</time>
      </trkpt>
      <trkpt lat="48.86126" lon="4.42812">
        <ele>103.5</ele>
        <time>2020-06-30T14:40:31Z</time>
      </trkpt>
      <trkpt lat="48.8613" lon="4.42809">
        <ele>103.6</ele>
        <time>2020-06-30T14:40:32Z</time>
      </trkpt>
      <trkpt lat="48.86134" lon="4.42806">
        <ele>103.6</ele>
        <time>2020-06-30T14:40:33Z</time>
      </trkpt>
      <trkpt lat="48.86138" lon="4.42804">
        <ele>103.7</ele>
        <time>2020-06-30T14:40:34Z</time>
      </trkpt>
      <trkpt lat="48.86142" lon="4.42802">
        <ele>103.7</ele>
        <time>2020-06-30T14:40:35Z</time>
      </trkpt>
      <trkpt lat="48.86146" lon="4.42798">
        <ele>103.8</ele>
        <time>2020-06-30T14:40:36Z</time>
      </trkpt>
      <trkpt lat="48.8615" lon="4.42795">
        <ele>103.8</ele>
        <time>2020-06-30T14:40:37Z</time>
      </trkpt>
      <trkpt lat="48.86155" lon="4.42791">
        <ele>103.8</ele>
        <time>2020-06-30T14:40:38Z</time>
      </trkpt>
      <trkpt lat="48.8616" lon="4.42789">
        <ele>103.8</ele>
        <time>2020-06-30T14:40:39Z</time>
      </trkpt>
      <trkpt lat="48.86164" lon="4.42785">
        <ele>103.8</ele>
        <time>2020-06-30T14:40:40Z</time>
      </trkpt>
      <trkpt lat="48.86168" lon="4.42782">
        <ele>103.8</ele>
        <time>2020-06-30T14:40:41Z</time>
      </trkpt>
      <trkpt lat="48.86173" lon="4.42779">
        <ele>103.8</ele>
        <time>2020-06-30T14:40:42Z</time>
      </trkpt>
      <trkpt lat="48.86177" lon="4.42777">
        <ele>103.8</ele>
        <time>2020-06-30T14:40:43Z</time>
      </trkpt>
      <trkpt lat="48.86181" lon="4.42774">
        <ele>103.8</ele>
        <time>2020-06-30T14:40:44Z</time>
      </trkpt>
      <trkpt lat="48.86187" lon="4.42771">
        <ele>103.7</ele>
        <time>2020-06-30T14:40:45Z</time>
      </trkpt>
      <trkpt lat="48.86192" lon="4.42769">
        <ele>103.7</ele>
        <time>2020-06-30T14:40:46Z</time>
      </trkpt>
      <trkpt lat="48.86197" lon="4.42766">
        <ele>103.6</ele>
        <time>2020-06-30T14:40:47Z</time>
      </trkpt>
      <trkpt lat="48.86202" lon="4.42763">
        <ele>103.6</ele>
        <time>2020-06-30T14:40:48Z</time>
      </trkpt>
      <trkpt lat="48.86207" lon="4.42762">
        <ele>103.6</ele>
        <time>2020-06-30T14:40:49Z</time>
      </trkpt>
      <trkpt lat="48.86213" lon="4.42759">
        <ele>103.5</ele>
        <time>2020-06-30T14:40:50Z</time>
      </trkpt>
      <trkpt lat="48.86219" lon="4.42755">
        <ele>103.4</ele>
        <time>2020-06-30T14:40:51Z</time>
      </trkpt>
      <trkpt lat="48.86225" lon="4.42752">
        <ele>103.4</ele>
        <time>2020-06-30T14:40:52Z</time>
      </trkpt>
      <trkpt lat="48.86229" lon="4.42748">
        <ele>103.3</ele>
        <time>2020-06-30T14:40:53Z</time>
      </trkpt>
      <trkpt lat="48.86236" lon="4.42745">
        <ele>103.3</ele>
        <time>2020-06-30T14:40:54Z</time>
      </trkpt>
      <trkpt lat="48.86241" lon="4.42741">
        <ele>103.2</ele>
        <time>2020-06-30T14:40:55Z</time>
      </trkpt>
      <trkpt lat="48.86249" lon="4.42737">
        <ele>103.1</ele>
        <time>2020-06-30T14:40:56Z</time>
      </trkpt>
      <trkpt lat="48.86255" lon="4.42734">
        <ele>103</ele>
        <time>2020-06-30T14:40:57Z</time>
      </trkpt>
      <trkpt lat="48.86262" lon="4.4273">
        <ele>103</ele>
        <time>2020-06-30T14:40:58Z</time>
      </trkpt>
      <trkpt lat="48.86269" lon="4.42727">
        <ele>103</ele>
        <time>2020-06-30T14:40:59Z</time>
      </trkpt>
      <trkpt lat="48.86275" lon="4.42722">
        <ele>103</ele>
        <time>2020-06-30T14:41:00Z</time>
      </trkpt>
      <trkpt lat="48.86282" lon="4.42718">
        <ele>103</ele>
        <time>2020-06-30T14:41:01Z</time>
      </trkpt>
      <trkpt lat="48.86288" lon="4.42714">
        <ele>103.1</ele>
        <time>2020-06-30T14:41:02Z</time>
      </trkpt>
      <trkpt lat="48.86294" lon="4.4271">
        <ele>103.2</ele>
        <time>2020-06-30T14:41:03Z</time>
      </trkpt>
      <trkpt lat="48.863" lon="4.42707">
        <ele>103.3</ele>
        <time>2020-06-30T14:41:04Z</time>
      </trkpt>
      <trkpt lat="48.86305" lon="4.42703">
        <ele>103.4</ele>
        <time>2020-06-30T14:41:05Z</time>
      </trkpt>
      <trkpt lat="48.86311" lon="4.427">
        <ele>103.5</ele>
        <time>2020-06-30T14:41:06Z</time>
      </trkpt>
      <trkpt lat="48.86317" lon="4.42697">
        <ele>103.6</ele>
        <time>2020-06-30T14:41:07Z</time>
      </trkpt>
      <trkpt lat="48.86323" lon="4.42694">
        <ele>103.7</ele>
        <time>2020-06-30T14:41:08Z</time>
      </trkpt>
      <trkpt lat="48.86329" lon="4.42691">
        <ele>103.9</ele>
        <time>2020-06-30T14:41:09Z</time>
      </trkpt>
      <trkpt lat="48.86335" lon="4.42688">
        <ele>104.1</ele>
        <time>2020-06-30T14:41:10Z</time>
      </trkpt>
      <trkpt lat="48.8634" lon="4.42684">
        <ele>104.2</ele>
        <time>2020-06-30T14:41:11Z</time>
      </trkpt>
      <trkpt lat="48.86346" lon="4.42683">
        <ele>104.4</ele>
        <time>2020-06-30T14:41:12Z</time>
      </trkpt>
      <trkpt lat="48.8635" lon="4.4268">
        <ele>104.6</ele>
        <time>2020-06-30T14:41:13Z</time>
      </trkpt>
      <trkpt lat="48.86355" lon="4.42677">
        <ele>104.8</ele>
        <time>2020-06-30T14:41:14Z</time>
      </trkpt>
      <trkpt lat="48.8636" lon="4.42674">
        <ele>104.9</ele>
        <time>2020-06-30T14:41:15Z</time>
      </trkpt>
      <trkpt lat="48.86365" lon="4.4267">
        <ele>105.2</ele>
        <time>2020-06-30T14:41:16Z</time>
      </trkpt>
      <trkpt lat="48.86369" lon="4.42667">
        <ele>105.4</ele>
        <time>2020-06-30T14:41:17Z</time>
      </trkpt>
      <trkpt lat="48.86374" lon="4.42663">
        <ele>105.6</ele>
        <time>2020-06-30T14:41:18Z</time>
      </trkpt>
      <trkpt lat="48.86378" lon="4.4266">
        <ele>105.8</ele>
        <time>2020-06-30T14:41:19Z</time>
      </trkpt>
      <trkpt lat="48.86382" lon="4.42658">
        <ele>106</ele>
        <time>2020-06-30T14:41:20Z</time>
      </trkpt>
      <trkpt lat="48.86387" lon="4.42654">
        <ele>106.3</ele>
        <time>2020-06-30T14:41:21Z</time>
      </trkpt>
      <trkpt lat="48.86391" lon="4.42651">
        <ele>106.5</ele>
        <time>2020-06-30T14:41:22Z</time>
      </trkpt>
      <trkpt lat="48.86396" lon="4.42649">
        <ele>106.7</ele>
        <time>2020-06-30T14:41:23Z</time>
      </trkpt>
      <trkpt lat="48.86401" lon="4.42647">
        <ele>106.9</ele>
        <time>2020-06-30T14:41:24Z</time>
      </trkpt>
      <trkpt lat="48.86406" lon="4.42644">
        <ele>107.2</ele>
        <time>2020-06-30T14:41:25Z</time>
      </trkpt>
      <trkpt lat="48.86411" lon="4.42639">
        <ele>107.4</ele>
        <time>2020-06-30T14:41:26Z</time>
      </trkpt>
      <trkpt lat="48.86416" lon="4.42637">
        <ele>107.7</ele>
        <time>2020-06-30T14:41:27Z</time>
      </trkpt>
      <trkpt lat="48.86421" lon="4.42636">
        <ele>107.9</ele>
        <time>2020-06-30T14:41:28Z</time>
      </trkpt>
      <trkpt lat="48.86426" lon="4.42633">
        <ele>108.2</ele>
        <time>2020-06-30T14:41:29Z</time>
      </trkpt>
      <trkpt lat="48.86431" lon="4.42632">
        <ele>108.5</ele>
        <time>2020-06-30T14:41:30Z</time>
      </trkpt>
      <trkpt lat="48.86436" lon="4.4263">
        <ele>108.7</ele>
        <time>2020-06-30T14:41:31Z</time>
      </trkpt>
      <trkpt lat="48.8644" lon="4.42628">
        <ele>108.9</ele>
        <time>2020-06-30T14:41:32Z</time>
      </trkpt>
      <trkpt lat="48.86443" lon="4.42625">
        <ele>109.2</ele>
        <time>2020-06-30T14:41:33Z</time>
      </trkpt>
      <trkpt lat="48.86448" lon="4.42624">
        <ele>109.4</ele>
        <time>2020-06-30T14:41:34Z</time>
      </trkpt>
      <trkpt lat="48.86452" lon="4.42622">
        <ele>109.7</ele>
        <time>2020-06-30T14:41:35Z</time>
      </trkpt>
      <trkpt lat="48.86456" lon="4.42619">
        <ele>109.9</ele>
        <time>2020-06-30T14:41:36Z</time>
      </trkpt>
      <trkpt lat="48.8646" lon="4.42616">
        <ele>110.2</ele>
        <time>2020-06-30T14:41:37Z</time>
      </trkpt>
      <trkpt lat="48.86464" lon="4.42614">
        <ele>110.4</ele>
        <time>2020-06-30T14:41:38Z</time>
      </trkpt>
      <trkpt lat="48.86468" lon="4.42612">
        <ele>110.6</ele>
        <time>2020-06-30T14:41:39Z</time>
      </trkpt>
      <trkpt lat="48.86472" lon="4.42609">
        <ele>110.8</ele>
        <time>2020-06-30T14:41:40Z</time>
      </trkpt>
      <trkpt lat="48.86477" lon="4.42608">
        <ele>111.1</ele>
        <time>2020-06-30T14:41:41Z</time>
      </trkpt>
      <trkpt lat="48.86481" lon="4.42606">
        <ele>111.4</ele>
        <time>2020-06-30T14:41:42Z</time>
      </trkpt>
      <trkpt lat="48.86484" lon="4.42604">
        <ele>111.5</ele>
        <time>2020-06-30T14:41:43Z</time>
      </trkpt>
      <trkpt lat="48.86488" lon="4.42601">
        <ele>111.8</ele>
        <time>2020-06-30T14:41:44Z</time>
      </trkpt>
      <trkpt lat="48.86491" lon="4.42599">
        <ele>111.9</ele>
        <time>2020-06-30T14:41:45Z</time>
      </trkpt>
      <trkpt lat="48.86495" lon="4.42597">
        <ele>112.1</ele>
        <time>2020-06-30T14:41:46Z</time>
      </trkpt>
      <trkpt lat="48.86498" lon="4.42595">
        <ele>112.3</ele>
        <time>2020-06-30T14:41:47Z</time>
      </trkpt>
      <trkpt lat="48.86501" lon="4.42593">
        <ele>112.5</ele>
        <time>2020-06-30T14:41:48Z</time>
      </trkpt>
      <trkpt lat="48.86504" lon="4.4259">
        <ele>112.6</ele>
        <time>2020-06-30T14:41:49Z</time>
      </trkpt>
      <trkpt lat="48.86505" lon="4.4259">
        <ele>112.7</ele>
        <time>2020-06-30T14:41:50Z</time>
      </trkpt>
      <trkpt lat="48.86508" lon="4.42588">
        <ele>112.9</ele>
        <time>2020-06-30T14:41:51Z</time>
      </trkpt>
      <trkpt lat="48.86512" lon="4.42587">
        <ele>113.1</ele>
        <time>2020-06-30T14:41:52Z</time>
      </trkpt>
      <trkpt lat="48.86516" lon="4.42584">
        <ele>113.3</ele>
        <time>2020-06-30T14:41:53Z</time>
      </trkpt>
      <trkpt lat="48.8652" lon="4.42583">
        <ele>113.5</ele>
        <time>2020-06-30T14:41:54Z</time>
      </trkpt>
      <trkpt lat="48.86523" lon="4.42581">
        <ele>113.7</ele>
        <time>2020-06-30T14:41:55Z</time>
      </trkpt>
      <trkpt lat="48.86527" lon="4.42578">
        <ele>113.9</ele>
        <time>2020-06-30T14:41:56Z</time>
      </trkpt>
      <trkpt lat="48.86529" lon="4.42578">
        <ele>114</ele>
        <time>2020-06-30T14:41:57Z</time>
      </trkpt>
      <trkpt lat="48.86532" lon="4.42575">
        <ele>114.1</ele>
        <time>2020-06-30T14:41:58Z</time>
      </trkpt>
      <trkpt lat="48.86534" lon="4.42572">
        <ele>114.3</ele>
        <time>2020-06-30T14:41:59Z</time>
      </trkpt>
      <trkpt lat="48.86538" lon="4.4257">
        <ele>114.5</ele>
        <time>2020-06-30T14:42:00Z</time>
      </trkpt>
      <trkpt lat="48.86541" lon="4.42567">
        <ele>114.7</ele>
        <time>2020-06-30T14:42:01Z</time>
      </trkpt>
      <trkpt lat="48.86545" lon="4.42565">
        <ele>115</ele>
        <time>2020-06-30T14:42:02Z</time>
      </trkpt>
      <trkpt lat="48.86548" lon="4.42562">
        <ele>115.1</ele>
        <time>2020-06-30T14:42:03Z</time>
      </trkpt>
      <trkpt lat="48.86551" lon="4.42559">
        <ele>115.2</ele>
        <time>2020-06-30T14:42:04Z</time>
      </trkpt>
      <trkpt lat="48.86554" lon="4.42558">
        <ele>115.3</ele>
        <time>2020-06-30T14:42:05Z</time>
      </trkpt>
      <trkpt lat="48.86558" lon="4.42555">
        <ele>115.4</ele>
        <time>2020-06-30T14:42:06Z</time>
      </trkpt>
      <trkpt lat="48.86562" lon="4.42553">
        <ele>115.5</ele>
        <time>2020-06-30T14:42:07Z</time>
      </trkpt>
      <trkpt lat="48.86565" lon="4.42552">
        <ele>115.6</ele>
        <time>2020-06-30T14:42:08Z</time>
      </trkpt>
      <trkpt lat="48.86569" lon="4.4255">
        <ele>115.7</ele>
        <time>2020-06-30T14:42:09Z</time>
      </trkpt>
      <trkpt lat="48.86573" lon="4.42549">
        <ele>115.8</ele>
        <time>2020-06-30T14:42:10Z</time>
      </trkpt>
      <trkpt lat="48.86576" lon="4.42547">
        <ele>115.8</ele>
        <time>2020-06-30T14:42:11Z</time>
      </trkpt>
      <trkpt lat="48.86579" lon="4.42544">
        <ele>115.9</ele>
        <time>2020-06-30T14:42:12Z</time>
      </trkpt>
      <trkpt lat="48.86583" lon="4.42542">
        <ele>116</ele>
        <time>2020-06-30T14:42:13Z</time>
      </trkpt>
      <trkpt lat="48.86588" lon="4.4254">
        <ele>116.1</ele>
        <time>2020-06-30T14:42:14Z</time>
      </trkpt>
      <trkpt lat="48.86594" lon="4.42538">
        <ele>116.1</ele>
        <time>2020-06-30T14:42:15Z</time>
      </trkpt>
      <trkpt lat="48.86598" lon="4.42536">
        <ele>116.2</ele>
        <time>2020-06-30T14:42:16Z</time>
      </trkpt>
      <trkpt lat="48.86603" lon="4.42534">
        <ele>116.2</ele>
        <time>2020-06-30T14:42:17Z</time>
      </trkpt>
      <trkpt lat="48.86607" lon="4.42532">
        <ele>116.2</ele>
        <time>2020-06-30T14:42:18Z</time>
      </trkpt>
      <trkpt lat="48.86612" lon="4.4253">
        <ele>116.2</ele>
        <time>2020-06-30T14:42:19Z</time>
      </trkpt>
      <trkpt lat="48.86618" lon="4.42527">
        <ele>116.2</ele>
        <time>2020-06-30T14:42:20Z</time>
      </trkpt>
      <trkpt lat="48.86623" lon="4.42525">
        <ele>116.1</ele>
        <time>2020-06-30T14:42:21Z</time>
      </trkpt>
      <trkpt lat="48.86628" lon="4.42523">
        <ele>116.1</ele>
        <time>2020-06-30T14:42:22Z</time>
      </trkpt>
      <trkpt lat="48.86633" lon="4.42519">
        <ele>116.1</ele>
        <time>2020-06-30T14:42:23Z</time>
      </trkpt>
      <trkpt lat="48.86638" lon="4.42517">
        <ele>116</ele>
        <time>2020-06-30T14:42:24Z</time>
      </trkpt>
      <trkpt lat="48.86644" lon="4.42514">
        <ele>115.9</ele>
        <time>2020-06-30T14:42:25Z</time>
      </trkpt>
      <trkpt lat="48.86649" lon="4.42511">
        <ele>115.8</ele>
        <time>2020-06-30T14:42:26Z</time>
      </trkpt>
      <trkpt lat="48.86656" lon="4.42508">
        <ele>115.7</ele>
        <time>2020-06-30T14:42:27Z</time>
      </trkpt>
      <trkpt lat="48.86661" lon="4.42504">
        <ele>115.5</ele>
        <time>2020-06-30T14:42:28Z</time>
      </trkpt>
      <trkpt lat="48.86668" lon="4.42502">
        <ele>115.3</ele>
        <time>2020-06-30T14:42:29Z</time>
      </trkpt>
      <trkpt lat="48.86674" lon="4.42499">
        <ele>115.1</ele>
        <time>2020-06-30T14:42:30Z</time>
      </trkpt>
      <trkpt lat="48.86681" lon="4.42497">
        <ele>114.9</ele>
        <time>2020-06-30T14:42:31Z</time>
      </trkpt>
      <trkpt lat="48.86687" lon="4.42494">
        <ele>114.6</ele>
        <time>2020-06-30T14:42:32Z</time>
      </trkpt>
      <trkpt lat="48.86694" lon="4.42491">
        <ele>114.4</ele>
        <time>2020-06-30T14:42:33Z</time>
      </trkpt>
      <trkpt lat="48.86701" lon="4.42487">
        <ele>114.2</ele>
        <time>2020-06-30T14:42:34Z</time>
      </trkpt>
      <trkpt lat="48.86708" lon="4.42484">
        <ele>113.9</ele>
        <time>2020-06-30T14:42:35Z</time>
      </trkpt>
      <trkpt lat="48.86716" lon="4.42481">
        <ele>113.7</ele>
        <time>2020-06-30T14:42:36Z</time>
      </trkpt>
      <trkpt lat="48.86723" lon="4.42477">
        <ele>113.4</ele>
        <time>2020-06-30T14:42:37Z</time>
      </trkpt>
      <trkpt lat="48.86731" lon="4.42474">
        <ele>113.1</ele>
        <time>2020-06-30T14:42:38Z</time>
      </trkpt>
      <trkpt lat="48.86739" lon="4.4247">
        <ele>112.7</ele>
        <time>2020-06-30T14:42:39Z</time>
      </trkpt>
      <trkpt lat="48.86747" lon="4.42467">
        <ele>112.4</ele>
        <time>2020-06-30T14:42:40Z</time>
      </trkpt>
      <trkpt lat="48.86755" lon="4.42462">
        <ele>112</ele>
        <time>2020-06-30T14:42:41Z</time>
      </trkpt>
      <trkpt lat="48.86763" lon="4.42459">
        <ele>111.6</ele>
        <time>2020-06-30T14:42:42Z</time>
      </trkpt>
      <trkpt lat="48.8677" lon="4.42455">
        <ele>111.3</ele>
        <time>2020-06-30T14:42:43Z</time>
      </trkpt>
      <trkpt lat="48.86778" lon="4.42451">
        <ele>111</ele>
        <time>2020-06-30T14:42:44Z</time>
      </trkpt>
      <trkpt lat="48.86786" lon="4.42447">
        <ele>110.7</ele>
        <time>2020-06-30T14:42:45Z</time>
      </trkpt>
      <trkpt lat="48.86794" lon="4.42443">
        <ele>110.4</ele>
        <time>2020-06-30T14:42:46Z</time>
      </trkpt>
      <trkpt lat="48.86802" lon="4.42439">
        <ele>110</ele>
        <time>2020-06-30T14:42:47Z</time>
      </trkpt>
      <trkpt lat="48.86811" lon="4.42435">
        <ele>109.7</ele>
        <time>2020-06-30T14:42:48Z</time>
      </trkpt>
      <trkpt lat="48.86819" lon="4.42432">
        <ele>109.3</ele>
        <time>2020-06-30T14:42:49Z</time>
      </trkpt>
      <trkpt lat="48.86827" lon="4.42427">
        <ele>109</ele>
        <time>2020-06-30T14:42:50Z</time>
      </trkpt>
      <trkpt lat="48.86836" lon="4.42424">
        <ele>108.7</ele>
        <time>2020-06-30T14:42:51Z</time>
      </trkpt>
      <trkpt lat="48.86845" lon="4.4242">
        <ele>108.5</ele>
        <time>2020-06-30T14:42:52Z</time>
      </trkpt>
      <trkpt lat="48.86854" lon="4.42416">
        <ele>108.2</ele>
        <time>2020-06-30T14:42:53Z</time>
      </trkpt>
      <trkpt lat="48.86863" lon="4.42412">
        <ele>108</ele>
        <time>2020-06-30T14:42:54Z</time>
      </trkpt>
      <trkpt lat="48.86872" lon="4.42409">
        <ele>107.8</ele>
        <time>2020-06-30T14:42:55Z</time>
      </trkpt>
      <trkpt lat="48.86881" lon="4.42405">
        <ele>107.6</ele>
        <time>2020-06-30T14:42:56Z</time>
      </trkpt>
      <trkpt lat="48.86889" lon="4.42401">
        <ele>107.4</ele>
        <time>2020-06-30T14:42:57Z</time>
      </trkpt>
      <trkpt lat="48.86898" lon="4.42396">
        <ele>107.3</ele>
        <time>2020-06-30T14:42:58Z</time>
      </trkpt>
      <trkpt lat="48.86906" lon="4.42391">
        <ele>107.1</ele>
        <time>2020-06-30T14:42:59Z</time>
      </trkpt>
      <trkpt lat="48.86915" lon="4.42388">
        <ele>107</ele>
        <time>2020-06-30T14:43:00Z</time>
      </trkpt>
      <trkpt lat="48.86923" lon="4.42383">
        <ele>106.9</ele>
        <time>2020-06-30T14:43:01Z</time>
      </trkpt>
      <trkpt lat="48.86932" lon="4.42379">
        <ele>106.9</ele>
        <time>2020-06-30T14:43:02Z</time>
      </trkpt>
      <trkpt lat="48.8694" lon="4.42375">
        <ele>106.8</ele>
        <time>2020-06-30T14:43:03Z</time>
      </trkpt>
      <trkpt lat="48.86948" lon="4.42371">
        <ele>106.8</ele>
        <time>2020-06-30T14:43:04Z</time>
      </trkpt>
      <trkpt lat="48.86956" lon="4.42367">
        <ele>106.7</ele>
        <time>2020-06-30T14:43:05Z</time>
      </trkpt>
      <trkpt lat="48.86964" lon="4.42363">
        <ele>106.6</ele>
        <time>2020-06-30T14:43:06Z</time>
      </trkpt>
      <trkpt lat="48.86972" lon="4.42359">
        <ele>106.6</ele>
        <time>2020-06-30T14:43:07Z</time>
      </trkpt>
      <trkpt lat="48.8698" lon="4.42355">
        <ele>106.5</ele>
        <time>2020-06-30T14:43:08Z</time>
      </trkpt>
      <trkpt lat="48.86987" lon="4.42352">
        <ele>106.4</ele>
        <time>2020-06-30T14:43:09Z</time>
      </trkpt>
      <trkpt lat="48.86995" lon="4.42349">
        <ele>106.4</ele>
        <time>2020-06-30T14:43:10Z</time>
      </trkpt>
      <trkpt lat="48.87003" lon="4.42345">
        <ele>106.4</ele>
        <time>2020-06-30T14:43:11Z</time>
      </trkpt>
      <trkpt lat="48.87011" lon="4.42342">
        <ele>106.2</ele>
        <time>2020-06-30T14:43:12Z</time>
      </trkpt>
      <trkpt lat="48.87019" lon="4.42338">
        <ele>106</ele>
        <time>2020-06-30T14:43:13Z</time>
      </trkpt>
      <trkpt lat="48.87026" lon="4.42335">
        <ele>105.8</ele>
        <time>2020-06-30T14:43:14Z</time>
      </trkpt>
      <trkpt lat="48.87034" lon="4.42331">
        <ele>105.7</ele>
        <time>2020-06-30T14:43:15Z</time>
      </trkpt>
      <trkpt lat="48.87042" lon="4.42327">
        <ele>105.5</ele>
        <time>2020-06-30T14:43:16Z</time>
      </trkpt>
      <trkpt lat="48.87049" lon="4.42323">
        <ele>105.5</ele>
        <time>2020-06-30T14:43:17Z</time>
      </trkpt>
      <trkpt lat="48.87057" lon="4.42319">
        <ele>105.4</ele>
        <time>2020-06-30T14:43:18Z</time>
      </trkpt>
      <trkpt lat="48.87064" lon="4.42316">
        <ele>105.3</ele>
        <time>2020-06-30T14:43:19Z</time>
      </trkpt>
      <trkpt lat="48.87072" lon="4.42312">
        <ele>105.2</ele>
        <time>2020-06-30T14:43:20Z</time>
      </trkpt>
      <trkpt lat="48.8708" lon="4.42308">
        <ele>105.2</ele>
        <time>2020-06-30T14:43:21Z</time>
      </trkpt>
      <trkpt lat="48.87087" lon="4.42302">
        <ele>105.1</ele>
        <time>2020-06-30T14:43:22Z</time>
      </trkpt>
      <trkpt lat="48.87094" lon="4.42298">
        <ele>105</ele>
        <time>2020-06-30T14:43:23Z</time>
      </trkpt>
      <trkpt lat="48.87102" lon="4.42296">
        <ele>104.9</ele>
        <time>2020-06-30T14:43:24Z</time>
      </trkpt>
      <trkpt lat="48.8711" lon="4.42292">
        <ele>104.8</ele>
        <time>2020-06-30T14:43:25Z</time>
      </trkpt>
      <trkpt lat="48.87117" lon="4.42287">
        <ele>104.7</ele>
        <time>2020-06-30T14:43:26Z</time>
      </trkpt>
      <trkpt lat="48.87125" lon="4.42282">
        <ele>104.6</ele>
        <time>2020-06-30T14:43:27Z</time>
      </trkpt>
      <trkpt lat="48.87132" lon="4.42277">
        <ele>104.6</ele>
        <time>2020-06-30T14:43:28Z</time>
      </trkpt>
      <trkpt lat="48.87139" lon="4.42272">
        <ele>104.5</ele>
        <time>2020-06-30T14:43:29Z</time>
      </trkpt>
      <trkpt lat="48.87147" lon="4.42267">
        <ele>104.5</ele>
        <time>2020-06-30T14:43:30Z</time>
      </trkpt>
      <trkpt lat="48.87154" lon="4.42263">
        <ele>104.4</ele>
        <time>2020-06-30T14:43:31Z</time>
      </trkpt>
      <trkpt lat="48.87161" lon="4.42257">
        <ele>104.3</ele>
        <time>2020-06-30T14:43:32Z</time>
      </trkpt>
      <trkpt lat="48.87168" lon="4.42252">
        <ele>104.3</ele>
        <time>2020-06-30T14:43:33Z</time>
      </trkpt>
      <trkpt lat="48.87175" lon="4.42246">
        <ele>104.2</ele>
        <time>2020-06-30T14:43:34Z</time>
      </trkpt>
      <trkpt lat="48.87181" lon="4.4224">
        <ele>104.2</ele>
        <time>2020-06-30T14:43:35Z</time>
      </trkpt>
      <trkpt lat="48.87188" lon="4.42234">
        <ele>104.2</ele>
        <time>2020-06-30T14:43:36Z</time>
      </trkpt>
      <trkpt lat="48.87194" lon="4.42228">
        <ele>104.1</ele>
        <time>2020-06-30T14:43:37Z</time>
      </trkpt>
      <trkpt lat="48.87201" lon="4.42222">
        <ele>104.1</ele>
        <time>2020-06-30T14:43:38Z</time>
      </trkpt>
      <trkpt lat="48.87207" lon="4.42216">
        <ele>104</ele>
        <time>2020-06-30T14:43:39Z</time>
      </trkpt>
      <trkpt lat="48.87213" lon="4.4221">
        <ele>104</ele>
        <time>2020-06-30T14:43:40Z</time>
      </trkpt>
      <trkpt lat="48.87219" lon="4.42203">
        <ele>103.9</ele>
        <time>2020-06-30T14:43:41Z</time>
      </trkpt>
      <trkpt lat="48.87225" lon="4.42197">
        <ele>103.8</ele>
        <time>2020-06-30T14:43:42Z</time>
      </trkpt>
      <trkpt lat="48.87231" lon="4.42191">
        <ele>103.8</ele>
        <time>2020-06-30T14:43:43Z</time>
      </trkpt>
      <trkpt lat="48.87236" lon="4.42185">
        <ele>103.7</ele>
        <time>2020-06-30T14:43:44Z</time>
      </trkpt>
      <trkpt lat="48.87243" lon="4.4218">
        <ele>103.7</ele>
        <time>2020-06-30T14:43:45Z</time>
      </trkpt>
      <trkpt lat="48.87248" lon="4.42173">
        <ele>103.6</ele>
        <time>2020-06-30T14:43:46Z</time>
      </trkpt>
      <trkpt lat="48.87254" lon="4.42168">
        <ele>103.5</ele>
        <time>2020-06-30T14:43:47Z</time>
      </trkpt>
      <trkpt lat="48.8726" lon="4.42162">
        <ele>103.4</ele>
        <time>2020-06-30T14:43:48Z</time>
      </trkpt>
      <trkpt lat="48.87267" lon="4.42156">
        <ele>103.3</ele>
        <time>2020-06-30T14:43:49Z</time>
      </trkpt>
      <trkpt lat="48.87273" lon="4.4215">
        <ele>103.2</ele>
        <time>2020-06-30T14:43:50Z</time>
      </trkpt>
      <trkpt lat="48.87279" lon="4.42143">
        <ele>103.1</ele>
        <time>2020-06-30T14:43:51Z</time>
      </trkpt>
      <trkpt lat="48.87285" lon="4.42137">
        <ele>103</ele>
        <time>2020-06-30T14:43:52Z</time>
      </trkpt>
      <trkpt lat="48.87291" lon="4.42131">
        <ele>102.9</ele>
        <time>2020-06-30T14:43:53Z</time>
      </trkpt>
      <trkpt lat="48.87298" lon="4.42125">
        <ele>102.8</ele>
        <time>2020-06-30T14:43:54Z</time>
      </trkpt>
      <trkpt lat="48.87304" lon="4.42118">
        <ele>102.7</ele>
        <time>2020-06-30T14:43:55Z</time>
      </trkpt>
      <trkpt lat="48.8731" lon="4.42112">
        <ele>102.6</ele>
        <time>2020-06-30T14:43:56Z</time>
      </trkpt>
      <trkpt lat="48.87316" lon="4.42106">
        <ele>102.5</ele>
        <time>2020-06-30T14:43:57Z</time>
      </trkpt>
      <trkpt lat="48.87323" lon="4.42099">
        <ele>102.4</ele>
        <time>2020-06-30T14:43:58Z</time>
      </trkpt>
      <trkpt lat="48.87329" lon="4.42094">
        <ele>102.3</ele>
        <time>2020-06-30T14:43:59Z</time>
      </trkpt>
      <trkpt lat="48.87335" lon="4.42087">
        <ele>102.2</ele>
        <time>2020-06-30T14:44:00Z</time>
      </trkpt>
      <trkpt lat="48.87342" lon="4.42081">
        <ele>102.2</ele>
        <time>2020-06-30T14:44:01Z</time>
      </trkpt>
      <trkpt lat="48.87348" lon="4.42075">
        <ele>102.1</ele>
        <time>2020-06-30T14:44:02Z</time>
      </trkpt>
      <trkpt lat="48.87355" lon="4.4207">
        <ele>102.1</ele>
        <time>2020-06-30T14:44:03Z</time>
      </trkpt>
      <trkpt lat="48.87361" lon="4.42064">
        <ele>102.1</ele>
        <time>2020-06-30T14:44:04Z</time>
      </trkpt>
      <trkpt lat="48.87367" lon="4.42057">
        <ele>102</ele>
        <time>2020-06-30T14:44:05Z</time>
      </trkpt>
      <trkpt lat="48.87373" lon="4.42051">
        <ele>102</ele>
        <time>2020-06-30T14:44:06Z</time>
      </trkpt>
      <trkpt lat="48.8738" lon="4.42045">
        <ele>101.9</ele>
        <time>2020-06-30T14:44:07Z</time>
      </trkpt>
      <trkpt lat="48.87385" lon="4.42039">
        <ele>101.9</ele>
        <time>2020-06-30T14:44:08Z</time>
      </trkpt>
      <trkpt lat="48.87392" lon="4.42033">
        <ele>101.8</ele>
        <time>2020-06-30T14:44:09Z</time>
      </trkpt>
      <trkpt lat="48.87398" lon="4.42027">
        <ele>101.7</ele>
        <time>2020-06-30T14:44:10Z</time>
      </trkpt>
      <trkpt lat="48.87404" lon="4.42021">
        <ele>101.7</ele>
        <time>2020-06-30T14:44:11Z</time>
      </trkpt>
      <trkpt lat="48.8741" lon="4.42015">
        <ele>101.7</ele>
        <time>2020-06-30T14:44:12Z</time>
      </trkpt>
      <trkpt lat="48.87416" lon="4.42009">
        <ele>101.7</ele>
        <time>2020-06-30T14:44:13Z</time>
      </trkpt>
      <trkpt lat="48.87422" lon="4.42003">
        <ele>101.6</ele>
        <time>2020-06-30T14:44:14Z</time>
      </trkpt>
      <trkpt lat="48.87428" lon="4.41997">
        <ele>101.6</ele>
        <time>2020-06-30T14:44:15Z</time>
      </trkpt>
      <trkpt lat="48.87434" lon="4.41991">
        <ele>101.6</ele>
        <time>2020-06-30T14:44:16Z</time>
      </trkpt>
      <trkpt lat="48.8744" lon="4.41986">
        <ele>101.5</ele>
        <time>2020-06-30T14:44:17Z</time>
      </trkpt>
      <trkpt lat="48.87446" lon="4.4198">
        <ele>101.5</ele>
        <time>2020-06-30T14:44:18Z</time>
      </trkpt>
      <trkpt lat="48.87452" lon="4.41974">
        <ele>101.3</ele>
        <time>2020-06-30T14:44:19Z</time>
      </trkpt>
      <trkpt lat="48.87458" lon="4.41968">
        <ele>101.2</ele>
        <time>2020-06-30T14:44:20Z</time>
      </trkpt>
      <trkpt lat="48.87464" lon="4.41962">
        <ele>101.2</ele>
        <time>2020-06-30T14:44:21Z</time>
      </trkpt>
      <trkpt lat="48.8747" lon="4.41957">
        <ele>101.1</ele>
        <time>2020-06-30T14:44:22Z</time>
      </trkpt>
      <trkpt lat="48.87476" lon="4.41951">
        <ele>101.1</ele>
        <time>2020-06-30T14:44:23Z</time>
      </trkpt>
      <trkpt lat="48.87482" lon="4.41945">
        <ele>101</ele>
        <time>2020-06-30T14:44:24Z</time>
      </trkpt>
      <trkpt lat="48.87488" lon="4.41939">
        <ele>100.9</ele>
        <time>2020-06-30T14:44:25Z</time>
      </trkpt>
      <trkpt lat="48.87494" lon="4.41933">
        <ele>100.8</ele>
        <time>2020-06-30T14:44:26Z</time>
      </trkpt>
      <trkpt lat="48.875" lon="4.41927">
        <ele>100.7</ele>
        <time>2020-06-30T14:44:27Z</time>
      </trkpt>
      <trkpt lat="48.87507" lon="4.41921">
        <ele>100.6</ele>
        <time>2020-06-30T14:44:28Z</time>
      </trkpt>
      <trkpt lat="48.87513" lon="4.41914">
        <ele>100.5</ele>
        <time>2020-06-30T14:44:29Z</time>
      </trkpt>
      <trkpt lat="48.87519" lon="4.41908">
        <ele>100.4</ele>
        <time>2020-06-30T14:44:30Z</time>
      </trkpt>
      <trkpt lat="48.87526" lon="4.41901">
        <ele>100.3</ele>
        <time>2020-06-30T14:44:31Z</time>
      </trkpt>
      <trkpt lat="48.87532" lon="4.41895">
        <ele>100.2</ele>
        <time>2020-06-30T14:44:32Z</time>
      </trkpt>
      <trkpt lat="48.87539" lon="4.41889">
        <ele>100</ele>
        <time>2020-06-30T14:44:33Z</time>
      </trkpt>
      <trkpt lat="48.87545" lon="4.41883">
        <ele>99.9</ele>
        <time>2020-06-30T14:44:34Z</time>
      </trkpt>
      <trkpt lat="48.87552" lon="4.41876">
        <ele>99.8</ele>
        <time>2020-06-30T14:44:35Z</time>
      </trkpt>
      <trkpt lat="48.87559" lon="4.4187">
        <ele>99.7</ele>
        <time>2020-06-30T14:44:36Z</time>
      </trkpt>
      <trkpt lat="48.87565" lon="4.41863">
        <ele>99.6</ele>
        <time>2020-06-30T14:44:37Z</time>
      </trkpt>
      <trkpt lat="48.87572" lon="4.41857">
        <ele>99.4</ele>
        <time>2020-06-30T14:44:38Z</time>
      </trkpt>
      <trkpt lat="48.87579" lon="4.4185">
        <ele>99.3</ele>
        <time>2020-06-30T14:44:39Z</time>
      </trkpt>
      <trkpt lat="48.87585" lon="4.41844">
        <ele>99.2</ele>
        <time>2020-06-30T14:44:40Z</time>
      </trkpt>
      <trkpt lat="48.87592" lon="4.41838">
        <ele>99</ele>
        <time>2020-06-30T14:44:41Z</time>
      </trkpt>
      <trkpt lat="48.87598" lon="4.4183">
        <ele>98.9</ele>
        <time>2020-06-30T14:44:42Z</time>
      </trkpt>
      <trkpt lat="48.87605" lon="4.41823">
        <ele>98.7</ele>
        <time>2020-06-30T14:44:43Z</time>
      </trkpt>
      <trkpt lat="48.87612" lon="4.41816">
        <ele>98.5</ele>
        <time>2020-06-30T14:44:44Z</time>
      </trkpt>
      <trkpt lat="48.87618" lon="4.4181">
        <ele>98.4</ele>
        <time>2020-06-30T14:44:45Z</time>
      </trkpt>
      <trkpt lat="48.87625" lon="4.41803">
        <ele>98.2</ele>
        <time>2020-06-30T14:44:46Z</time>
      </trkpt>
      <trkpt lat="48.87632" lon="4.41797">
        <ele>98</ele>
        <time>2020-06-30T14:44:47Z</time>
      </trkpt>
      <trkpt lat="48.87639" lon="4.4179">
        <ele>97.9</ele>
        <time>2020-06-30T14:44:48Z</time>
      </trkpt>
      <trkpt lat="48.87646" lon="4.41784">
        <ele>97.7</ele>
        <time>2020-06-30T14:44:49Z</time>
      </trkpt>
      <trkpt lat="48.87653" lon="4.41777">
        <ele>97.5</ele>
        <time>2020-06-30T14:44:50Z</time>
      </trkpt>
      <trkpt lat="48.8766" lon="4.41771">
        <ele>97.3</ele>
        <time>2020-06-30T14:44:51Z</time>
      </trkpt>
      <trkpt lat="48.87667" lon="4.41764">
        <ele>97.2</ele>
        <time>2020-06-30T14:44:52Z</time>
      </trkpt>
      <trkpt lat="48.87673" lon="4.41757">
        <ele>97</ele>
        <time>2020-06-30T14:44:53Z</time>
      </trkpt>
      <trkpt lat="48.8768" lon="4.4175">
        <ele>96.8</ele>
        <time>2020-06-30T14:44:54Z</time>
      </trkpt>
      <trkpt lat="48.87687" lon="4.41743">
        <ele>96.6</ele>
        <time>2020-06-30T14:44:55Z</time>
      </trkpt>
      <trkpt lat="48.87694" lon="4.41737">
        <ele>96.4</ele>
        <time>2020-06-30T14:44:56Z</time>
      </trkpt>
      <trkpt lat="48.87701" lon="4.4173">
        <ele>96.2</ele>
        <time>2020-06-30T14:44:57Z</time>
      </trkpt>
      <trkpt lat="48.87707" lon="4.41723">
        <ele>96</ele>
        <time>2020-06-30T14:44:58Z</time>
      </trkpt>
      <trkpt lat="48.87714" lon="4.41716">
        <ele>95.9</ele>
        <time>2020-06-30T14:44:59Z</time>
      </trkpt>
      <trkpt lat="48.8772" lon="4.41707">
        <ele>95.8</ele>
        <time>2020-06-30T14:45:00Z</time>
      </trkpt>
      <trkpt lat="48.87725" lon="4.41699">
        <ele>95.7</ele>
        <time>2020-06-30T14:45:01Z</time>
      </trkpt>
      <trkpt lat="48.87732" lon="4.41693">
        <ele>95.5</ele>
        <time>2020-06-30T14:45:02Z</time>
      </trkpt>
      <trkpt lat="48.87739" lon="4.41687">
        <ele>95.4</ele>
        <time>2020-06-30T14:45:03Z</time>
      </trkpt>
      <trkpt lat="48.87745" lon="4.4168">
        <ele>95.3</ele>
        <time>2020-06-30T14:45:04Z</time>
      </trkpt>
      <trkpt lat="48.87751" lon="4.41674">
        <ele>95.3</ele>
        <time>2020-06-30T14:45:05Z</time>
      </trkpt>
      <trkpt lat="48.87757" lon="4.41667">
        <ele>95.1</ele>
        <time>2020-06-30T14:45:06Z</time>
      </trkpt>
      <trkpt lat="48.87764" lon="4.4166">
        <ele>94.9</ele>
        <time>2020-06-30T14:45:07Z</time>
      </trkpt>
      <trkpt lat="48.8777" lon="4.41653">
        <ele>94.7</ele>
        <time>2020-06-30T14:45:08Z</time>
      </trkpt>
      <trkpt lat="48.87776" lon="4.41646">
        <ele>94.4</ele>
        <time>2020-06-30T14:45:09Z</time>
      </trkpt>
      <trkpt lat="48.87782" lon="4.4164">
        <ele>94.2</ele>
        <time>2020-06-30T14:45:10Z</time>
      </trkpt>
      <trkpt lat="48.87789" lon="4.41634">
        <ele>93.9</ele>
        <time>2020-06-30T14:45:11Z</time>
      </trkpt>
      <trkpt lat="48.87795" lon="4.41627">
        <ele>93.6</ele>
        <time>2020-06-30T14:45:12Z</time>
      </trkpt>
      <trkpt lat="48.87801" lon="4.4162">
        <ele>93.3</ele>
        <time>2020-06-30T14:45:13Z</time>
      </trkpt>
      <trkpt lat="48.87808" lon="4.41612">
        <ele>93.1</ele>
        <time>2020-06-30T14:45:14Z</time>
      </trkpt>
      <trkpt lat="48.87814" lon="4.41605">
        <ele>92.8</ele>
        <time>2020-06-30T14:45:15Z</time>
      </trkpt>
      <trkpt lat="48.8782" lon="4.41597">
        <ele>92.5</ele>
        <time>2020-06-30T14:45:16Z</time>
      </trkpt>
      <trkpt lat="48.87826" lon="4.4159">
        <ele>92.3</ele>
        <time>2020-06-30T14:45:17Z</time>
      </trkpt>
      <trkpt lat="48.87833" lon="4.41582">
        <ele>92</ele>
        <time>2020-06-30T14:45:18Z</time>
      </trkpt>
      <trkpt lat="48.87839" lon="4.41575">
        <ele>91.8</ele>
        <time>2020-06-30T14:45:19Z</time>
      </trkpt>
      <trkpt lat="48.87845" lon="4.41567">
        <ele>91.6</ele>
        <time>2020-06-30T14:45:20Z</time>
      </trkpt>
      <trkpt lat="48.87852" lon="4.4156">
        <ele>91.3</ele>
        <time>2020-06-30T14:45:21Z</time>
      </trkpt>
      <trkpt lat="48.87858" lon="4.41552">
        <ele>91.1</ele>
        <time>2020-06-30T14:45:22Z</time>
      </trkpt>
      <trkpt lat="48.87864" lon="4.41544">
        <ele>90.8</ele>
        <time>2020-06-30T14:45:23Z</time>
      </trkpt>
      <trkpt lat="48.8787" lon="4.41537">
        <ele>90.5</ele>
        <time>2020-06-30T14:45:24Z</time>
      </trkpt>
      <trkpt lat="48.87876" lon="4.41529">
        <ele>90.3</ele>
        <time>2020-06-30T14:45:25Z</time>
      </trkpt>
      <trkpt lat="48.87882" lon="4.4152">
        <ele>90</ele>
        <time>2020-06-30T14:45:26Z</time>
      </trkpt>
      <trkpt lat="48.87888" lon="4.41512">
        <ele>89.8</ele>
        <time>2020-06-30T14:45:27Z</time>
      </trkpt>
      <trkpt lat="48.87894" lon="4.41504">
        <ele>89.5</ele>
        <time>2020-06-30T14:45:28Z</time>
      </trkpt>
      <trkpt lat="48.879" lon="4.41496">
        <ele>89.3</ele>
        <time>2020-06-30T14:45:29Z</time>
      </trkpt>
      <trkpt lat="48.87906" lon="4.41487">
        <ele>89</ele>
        <time>2020-06-30T14:45:30Z</time>
      </trkpt>
      <trkpt lat="48.87911" lon="4.41479">
        <ele>88.7</ele>
        <time>2020-06-30T14:45:31Z</time>
      </trkpt>
      <trkpt lat="48.87917" lon="4.4147">
        <ele>88.4</ele>
        <time>2020-06-30T14:45:32Z</time>
      </trkpt>
      <trkpt lat="48.87922" lon="4.41462">
        <ele>88.1</ele>
        <time>2020-06-30T14:45:33Z</time>
      </trkpt>
      <trkpt lat="48.87927" lon="4.41452">
        <ele>87.9</ele>
        <time>2020-06-30T14:45:34Z</time>
      </trkpt>
      <trkpt lat="48.87933" lon="4.41444">
        <ele>87.7</ele>
        <time>2020-06-30T14:45:35Z</time>
      </trkpt>
      <trkpt lat="48.87939" lon="4.41435">
        <ele>87.5</ele>
        <time>2020-06-30T14:45:36Z</time>
      </trkpt>
      <trkpt lat="48.87944" lon="4.41427">
        <ele>87.3</ele>
        <time>2020-06-30T14:45:37Z</time>
      </trkpt>
      <trkpt lat="48.8795" lon="4.41418">
        <ele>87</ele>
        <time>2020-06-30T14:45:38Z</time>
      </trkpt>
      <trkpt lat="48.87956" lon="4.41411">
        <ele>86.8</ele>
        <time>2020-06-30T14:45:39Z</time>
      </trkpt>
      <trkpt lat="48.8796" lon="4.41402">
        <ele>86.7</ele>
        <time>2020-06-30T14:45:40Z</time>
      </trkpt>
      <trkpt lat="48.87965" lon="4.41393">
        <ele>86.5</ele>
        <time>2020-06-30T14:45:41Z</time>
      </trkpt>
      <trkpt lat="48.87969" lon="4.41385">
        <ele>86.3</ele>
        <time>2020-06-30T14:45:42Z</time>
      </trkpt>
      <trkpt lat="48.87975" lon="4.41377">
        <ele>86.2</ele>
        <time>2020-06-30T14:45:43Z</time>
      </trkpt>
      <trkpt lat="48.8798" lon="4.4137">
        <ele>86</ele>
        <time>2020-06-30T14:45:44Z</time>
      </trkpt>
      <trkpt lat="48.87985" lon="4.41363">
        <ele>85.9</ele>
        <time>2020-06-30T14:45:45Z</time>
      </trkpt>
      <trkpt lat="48.8799" lon="4.41354">
        <ele>85.8</ele>
        <time>2020-06-30T14:45:46Z</time>
      </trkpt>
      <trkpt lat="48.87995" lon="4.41347">
        <ele>85.7</ele>
        <time>2020-06-30T14:45:47Z</time>
      </trkpt>
      <trkpt lat="48.88" lon="4.41339">
        <ele>85.7</ele>
        <time>2020-06-30T14:45:48Z</time>
      </trkpt>
      <trkpt lat="48.88005" lon="4.41333">
        <ele>85.6</ele>
        <time>2020-06-30T14:45:49Z</time>
      </trkpt>
      <trkpt lat="48.88011" lon="4.41325">
        <ele>85.6</ele>
        <time>2020-06-30T14:45:50Z</time>
      </trkpt>
      <trkpt lat="48.88016" lon="4.41318">
        <ele>85.5</ele>
        <time>2020-06-30T14:45:51Z</time>
      </trkpt>
      <trkpt lat="48.88021" lon="4.4131">
        <ele>85.4</ele>
        <time>2020-06-30T14:45:52Z</time>
      </trkpt>
      <trkpt lat="48.88027" lon="4.41304">
        <ele>85.3</ele>
        <time>2020-06-30T14:45:53Z</time>
      </trkpt>
      <trkpt lat="48.88032" lon="4.41297">
        <ele>85.3</ele>
        <time>2020-06-30T14:45:54Z</time>
      </trkpt>
      <trkpt lat="48.88037" lon="4.4129">
        <ele>85.2</ele>
        <time>2020-06-30T14:45:55Z</time>
      </trkpt>
      <trkpt lat="48.88043" lon="4.41283">
        <ele>85.2</ele>
        <time>2020-06-30T14:45:56Z</time>
      </trkpt>
      <trkpt lat="48.88048" lon="4.41277">
        <ele>85.1</ele>
        <time>2020-06-30T14:45:57Z</time>
      </trkpt>
      <trkpt lat="48.88053" lon="4.41271">
        <ele>85</ele>
        <time>2020-06-30T14:45:58Z</time>
      </trkpt>
      <trkpt lat="48.88059" lon="4.41266">
        <ele>85</ele>
        <time>2020-06-30T14:45:59Z</time>
      </trkpt>
      <trkpt lat="48.88063" lon="4.4126">
        <ele>85</ele>
        <time>2020-06-30T14:46:00Z</time>
      </trkpt>
      <trkpt lat="48.88068" lon="4.41253">
        <ele>85</ele>
        <time>2020-06-30T14:46:01Z</time>
      </trkpt>
      <trkpt lat="48.88073" lon="4.41247">
        <ele>85</ele>
        <time>2020-06-30T14:46:02Z</time>
      </trkpt>
      <trkpt lat="48.88078" lon="4.4124">
        <ele>84.9</ele>
        <time>2020-06-30T14:46:03Z</time>
      </trkpt>
      <trkpt lat="48.88082" lon="4.41232">
        <ele>84.8</ele>
        <time>2020-06-30T14:46:04Z</time>
      </trkpt>
      <trkpt lat="48.88088" lon="4.41227">
        <ele>84.8</ele>
        <time>2020-06-30T14:46:05Z</time>
      </trkpt>
      <trkpt lat="48.88092" lon="4.41221">
        <ele>84.7</ele>
        <time>2020-06-30T14:46:06Z</time>
      </trkpt>
      <trkpt lat="48.88097" lon="4.41216">
        <ele>84.6</ele>
        <time>2020-06-30T14:46:07Z</time>
      </trkpt>
      <trkpt lat="48.88102" lon="4.4121">
        <ele>84.5</ele>
        <time>2020-06-30T14:46:08Z</time>
      </trkpt>
      <trkpt lat="48.88106" lon="4.41206">
        <ele>84.5</ele>
        <time>2020-06-30T14:46:09Z</time>
      </trkpt>
      <trkpt lat="48.88109" lon="4.412">
        <ele>84.4</ele>
        <time>2020-06-30T14:46:10Z</time>
      </trkpt>
      <trkpt lat="48.88112" lon="4.41198">
        <ele>84.4</ele>
        <time>2020-06-30T14:46:11Z</time>
      </trkpt>
      <trkpt lat="48.88115" lon="4.41198">
        <ele>84.4</ele>
        <time>2020-06-30T14:46:12Z</time>
      </trkpt>
      <trkpt lat="48.88118" lon="4.412">
        <ele>84.4</ele>
        <time>2020-06-30T14:46:13Z</time>
      </trkpt>
      <trkpt lat="48.88119" lon="4.41204">
        <ele>84.4</ele>
        <time>2020-06-30T14:46:14Z</time>
      </trkpt>
      <trkpt lat="48.88121" lon="4.41209">
        <ele>84.4</ele>
        <time>2020-06-30T14:46:15Z</time>
      </trkpt>
      <trkpt lat="48.88123" lon="4.41213">
        <ele>84.4</ele>
        <time>2020-06-30T14:46:16Z</time>
      </trkpt>
      <trkpt lat="48.88124" lon="4.41218">
        <ele>84.4</ele>
        <time>2020-06-30T14:46:17Z</time>
      </trkpt>
      <trkpt lat="48.88126" lon="4.41222">
        <ele>84.4</ele>
        <time>2020-06-30T14:46:18Z</time>
      </trkpt>
      <trkpt lat="48.88129" lon="4.41227">
        <ele>84.4</ele>
        <time>2020-06-30T14:46:19Z</time>
      </trkpt>
      <trkpt lat="48.88131" lon="4.41232">
        <ele>84.4</ele>
        <time>2020-06-30T14:46:20Z</time>
      </trkpt>
      <trkpt lat="48.88133" lon="4.41237">
        <ele>84.4</ele>
        <time>2020-06-30T14:46:21Z</time>
      </trkpt>
      <trkpt lat="48.88135" lon="4.41243">
        <ele>84.3</ele>
        <time>2020-06-30T14:46:22Z</time>
      </trkpt>
      <trkpt lat="48.88137" lon="4.41249">
        <ele>84.3</ele>
        <time>2020-06-30T14:46:23Z</time>
      </trkpt>
      <trkpt lat="48.88139" lon="4.41255">
        <ele>84.3</ele>
        <time>2020-06-30T14:46:24Z</time>
      </trkpt>
      <trkpt lat="48.88139" lon="4.41261">
        <ele>84.2</ele>
        <time>2020-06-30T14:46:25Z</time>
      </trkpt>
      <trkpt lat="48.8814" lon="4.41268">
        <ele>84.2</ele>
        <time>2020-06-30T14:46:26Z</time>
      </trkpt>
      <trkpt lat="48.88142" lon="4.41273">
        <ele>84.1</ele>
        <time>2020-06-30T14:46:27Z</time>
      </trkpt>
      <trkpt lat="48.88144" lon="4.41279">
        <ele>84.1</ele>
        <time>2020-06-30T14:46:28Z</time>
      </trkpt>
      <trkpt lat="48.88147" lon="4.41285">
        <ele>84.1</ele>
        <time>2020-06-30T14:46:29Z</time>
      </trkpt>
      <trkpt lat="48.88149" lon="4.41292">
        <ele>84.1</ele>
        <time>2020-06-30T14:46:30Z</time>
      </trkpt>
      <trkpt lat="48.88151" lon="4.41298">
        <ele>84</ele>
        <time>2020-06-30T14:46:31Z</time>
      </trkpt>
      <trkpt lat="48.88153" lon="4.41305">
        <ele>84</ele>
        <time>2020-06-30T14:46:32Z</time>
      </trkpt>
      <trkpt lat="48.88156" lon="4.41311">
        <ele>84</ele>
        <time>2020-06-30T14:46:33Z</time>
      </trkpt>
      <trkpt lat="48.88158" lon="4.41317">
        <ele>84</ele>
        <time>2020-06-30T14:46:34Z</time>
      </trkpt>
      <trkpt lat="48.88159" lon="4.41324">
        <ele>84</ele>
        <time>2020-06-30T14:46:35Z</time>
      </trkpt>
      <trkpt lat="48.8816" lon="4.4133">
        <ele>84</ele>
        <time>2020-06-30T14:46:36Z</time>
      </trkpt>
      <trkpt lat="48.88161" lon="4.41335">
        <ele>84</ele>
        <time>2020-06-30T14:46:37Z</time>
      </trkpt>
      <trkpt lat="48.88162" lon="4.41336">
        <ele>84</ele>
        <time>2020-06-30T14:46:38Z</time>
      </trkpt>
      <trkpt lat="48.88161" lon="4.41334">
        <ele>84</ele>
        <time>2020-06-30T14:46:39Z</time>
      </trkpt>
      <trkpt lat="48.8816" lon="4.41334">
        <ele>84</ele>
        <time>2020-06-30T14:46:40Z</time>
      </trkpt>
      <trkpt lat="48.88161" lon="4.41331">
        <ele>84</ele>
        <time>2020-06-30T14:46:41Z</time>
      </trkpt>
      <trkpt lat="48.88161" lon="4.41328">
        <ele>84</ele>
        <time>2020-06-30T14:46:42Z</time>
      </trkpt>
      <trkpt lat="48.8816" lon="4.41326">
        <ele>84</ele>
        <time>2020-06-30T14:46:43Z</time>
      </trkpt>
      <trkpt lat="48.88159" lon="4.41322">
        <ele>84</ele>
        <time>2020-06-30T14:46:44Z</time>
      </trkpt>
      <trkpt lat="48.88158" lon="4.41318">
        <ele>84</ele>
        <time>2020-06-30T14:46:45Z</time>
      </trkpt>
      <trkpt lat="48.88156" lon="4.41313">
        <ele>84</ele>
        <time>2020-06-30T14:46:46Z</time>
      </trkpt>
      <trkpt lat="48.88155" lon="4.41309">
        <ele>84</ele>
        <time>2020-06-30T14:46:47Z</time>
      </trkpt>
      <trkpt lat="48.88153" lon="4.41305">
        <ele>84</ele>
        <time>2020-06-30T14:46:48Z</time>
      </trkpt>
      <trkpt lat="48.88152" lon="4.413">
        <ele>84.1</ele>
        <time>2020-06-30T14:46:49Z</time>
      </trkpt>
      <trkpt lat="48.88149" lon="4.41296">
        <ele>84.1</ele>
        <time>2020-06-30T14:46:50Z</time>
      </trkpt>
      <trkpt lat="48.88147" lon="4.4129">
        <ele>84.1</ele>
        <time>2020-06-30T14:46:51Z</time>
      </trkpt>
      <trkpt lat="48.88145" lon="4.41284">
        <ele>84.1</ele>
        <time>2020-06-30T14:46:52Z</time>
      </trkpt>
      <trkpt lat="48.88144" lon="4.41277">
        <ele>84.2</ele>
        <time>2020-06-30T14:46:53Z</time>
      </trkpt>
      <trkpt lat="48.88142" lon="4.4127">
        <ele>84.2</ele>
        <time>2020-06-30T14:46:54Z</time>
      </trkpt>
      <trkpt lat="48.8814" lon="4.41264">
        <ele>84.2</ele>
        <time>2020-06-30T14:46:55Z</time>
      </trkpt>
      <trkpt lat="48.88138" lon="4.41258">
        <ele>84.3</ele>
        <time>2020-06-30T14:46:56Z</time>
      </trkpt>
      <trkpt lat="48.88136" lon="4.41252">
        <ele>84.3</ele>
        <time>2020-06-30T14:46:57Z</time>
      </trkpt>
      <trkpt lat="48.88136" lon="4.41245">
        <ele>84.4</ele>
        <time>2020-06-30T14:46:58Z</time>
      </trkpt>
      <trkpt lat="48.88135" lon="4.41239">
        <ele>84.4</ele>
        <time>2020-06-30T14:46:59Z</time>
      </trkpt>
      <trkpt lat="48.88134" lon="4.41232">
        <ele>84.4</ele>
        <time>2020-06-30T14:47:00Z</time>
      </trkpt>
      <trkpt lat="48.88133" lon="4.41225">
        <ele>84.4</ele>
        <time>2020-06-30T14:47:01Z</time>
      </trkpt>
      <trkpt lat="48.88132" lon="4.41218">
        <ele>84.4</ele>
        <time>2020-06-30T14:47:02Z</time>
      </trkpt>
      <trkpt lat="48.8813" lon="4.41213">
        <ele>84.4</ele>
        <time>2020-06-30T14:47:03Z</time>
      </trkpt>
      <trkpt lat="48.88129" lon="4.41209">
        <ele>84.4</ele>
        <time>2020-06-30T14:47:04Z</time>
      </trkpt>
      <trkpt lat="48.88128" lon="4.41203">
        <ele>84.4</ele>
        <time>2020-06-30T14:47:05Z</time>
      </trkpt>
      <trkpt lat="48.88126" lon="4.41197">
        <ele>84.4</ele>
        <time>2020-06-30T14:47:06Z</time>
      </trkpt>
      <trkpt lat="48.88124" lon="4.41191">
        <ele>84.4</ele>
        <time>2020-06-30T14:47:07Z</time>
      </trkpt>
      <trkpt lat="48.88123" lon="4.41185">
        <ele>84.4</ele>
        <time>2020-06-30T14:47:08Z</time>
      </trkpt>
      <trkpt lat="48.88123" lon="4.41177">
        <ele>84.3</ele>
        <time>2020-06-30T14:47:09Z</time>
      </trkpt>
      <trkpt lat="48.88124" lon="4.41169">
        <ele>84.3</ele>
        <time>2020-06-30T14:47:10Z</time>
      </trkpt>
      <trkpt lat="48.88126" lon="4.41162">
        <ele>84.2</ele>
        <time>2020-06-30T14:47:11Z</time>
      </trkpt>
      <trkpt lat="48.88127" lon="4.41157">
        <ele>84.2</ele>
        <time>2020-06-30T14:47:12Z</time>
      </trkpt>
      <trkpt lat="48.88131" lon="4.41152">
        <ele>84.1</ele>
        <time>2020-06-30T14:47:13Z</time>
      </trkpt>
      <trkpt lat="48.88135" lon="4.41146">
        <ele>84.1</ele>
        <time>2020-06-30T14:47:14Z</time>
      </trkpt>
      <trkpt lat="48.88138" lon="4.41139">
        <ele>84</ele>
        <time>2020-06-30T14:47:15Z</time>
      </trkpt>
      <trkpt lat="48.8814" lon="4.41132">
        <ele>84</ele>
        <time>2020-06-30T14:47:16Z</time>
      </trkpt>
      <trkpt lat="48.88142" lon="4.41125">
        <ele>84</ele>
        <time>2020-06-30T14:47:17Z</time>
      </trkpt>
      <trkpt lat="48.88146" lon="4.41117">
        <ele>84</ele>
        <time>2020-06-30T14:47:18Z</time>
      </trkpt>
      <trkpt lat="48.88149" lon="4.41109">
        <ele>84</ele>
        <time>2020-06-30T14:47:19Z</time>
      </trkpt>
      <trkpt lat="48.88153" lon="4.41104">
        <ele>84</ele>
        <time>2020-06-30T14:47:20Z</time>
      </trkpt>
      <trkpt lat="48.88157" lon="4.41099">
        <ele>84</ele>
        <time>2020-06-30T14:47:21Z</time>
      </trkpt>
      <trkpt lat="48.88161" lon="4.41093">
        <ele>84</ele>
        <time>2020-06-30T14:47:22Z</time>
      </trkpt>
      <trkpt lat="48.88165" lon="4.41086">
        <ele>84</ele>
        <time>2020-06-30T14:47:23Z</time>
      </trkpt>
      <trkpt lat="48.88169" lon="4.41082">
        <ele>84</ele>
        <time>2020-06-30T14:47:24Z</time>
      </trkpt>
      <trkpt lat="48.88172" lon="4.41076">
        <ele>84</ele>
        <time>2020-06-30T14:47:25Z</time>
      </trkpt>
      <trkpt lat="48.88176" lon="4.4107">
        <ele>84.1</ele>
        <time>2020-06-30T14:47:26Z</time>
      </trkpt>
      <trkpt lat="48.8818" lon="4.41064">
        <ele>84.1</ele>
        <time>2020-06-30T14:47:27Z</time>
      </trkpt>
      <trkpt lat="48.88183" lon="4.41059">
        <ele>84</ele>
        <time>2020-06-30T14:47:28Z</time>
      </trkpt>
      <trkpt lat="48.88188" lon="4.41052">
        <ele>83.9</ele>
        <time>2020-06-30T14:47:29Z</time>
      </trkpt>
      <trkpt lat="48.88192" lon="4.41047">
        <ele>83.8</ele>
        <time>2020-06-30T14:47:30Z</time>
      </trkpt>
      <trkpt lat="48.88196" lon="4.41042">
        <ele>83.8</ele>
        <time>2020-06-30T14:47:31Z</time>
      </trkpt>
      <trkpt lat="48.882" lon="4.41037">
        <ele>83.7</ele>
        <time>2020-06-30T14:47:32Z</time>
      </trkpt>
      <trkpt lat="48.88205" lon="4.41032">
        <ele>83.7</ele>
        <time>2020-06-30T14:47:33Z</time>
      </trkpt>
      <trkpt lat="48.88209" lon="4.41027">
        <ele>83.6</ele>
        <time>2020-06-30T14:47:34Z</time>
      </trkpt>
      <trkpt lat="48.88215" lon="4.41023">
        <ele>83.6</ele>
        <time>2020-06-30T14:47:35Z</time>
      </trkpt>
      <trkpt lat="48.8822" lon="4.41018">
        <ele>83.6</ele>
        <time>2020-06-30T14:47:36Z</time>
      </trkpt>
      <trkpt lat="48.88224" lon="4.41014">
        <ele>83.6</ele>
        <time>2020-06-30T14:47:37Z</time>
      </trkpt>
      <trkpt lat="48.8823" lon="4.41011">
        <ele>83.6</ele>
        <time>2020-06-30T14:47:38Z</time>
      </trkpt>
      <trkpt lat="48.88235" lon="4.41008">
        <ele>83.6</ele>
        <time>2020-06-30T14:47:39Z</time>
      </trkpt>
      <trkpt lat="48.88241" lon="4.41005">
        <ele>83.6</ele>
        <time>2020-06-30T14:47:40Z</time>
      </trkpt>
      <trkpt lat="48.88245" lon="4.41004">
        <ele>83.6</ele>
        <time>2020-06-30T14:47:41Z</time>
      </trkpt>
      <trkpt lat="48.8825" lon="4.41004">
        <ele>83.6</ele>
        <time>2020-06-30T14:47:42Z</time>
      </trkpt>
      <trkpt lat="48.88256" lon="4.41002">
        <ele>83.7</ele>
        <time>2020-06-30T14:47:43Z</time>
      </trkpt>
      <trkpt lat="48.88261" lon="4.40999">
        <ele>83.7</ele>
        <time>2020-06-30T14:47:44Z</time>
      </trkpt>
      <trkpt lat="48.88266" lon="4.40998">
        <ele>83.7</ele>
        <time>2020-06-30T14:47:45Z</time>
      </trkpt>
      <trkpt lat="48.88271" lon="4.40996">
        <ele>83.8</ele>
        <time>2020-06-30T14:47:46Z</time>
      </trkpt>
      <trkpt lat="48.88276" lon="4.40993">
        <ele>83.9</ele>
        <time>2020-06-30T14:47:47Z</time>
      </trkpt>
      <trkpt lat="48.8828" lon="4.4099">
        <ele>84.2</ele>
        <time>2020-06-30T14:47:48Z</time>
      </trkpt>
      <trkpt lat="48.88285" lon="4.40986">
        <ele>84.4</ele>
        <time>2020-06-30T14:47:49Z</time>
      </trkpt>
      <trkpt lat="48.88289" lon="4.40982">
        <ele>84.6</ele>
        <time>2020-06-30T14:47:50Z</time>
      </trkpt>
      <trkpt lat="48.88292" lon="4.40976">
        <ele>84.9</ele>
        <time>2020-06-30T14:47:51Z</time>
      </trkpt>
      <trkpt lat="48.88296" lon="4.40972">
        <ele>85.1</ele>
        <time>2020-06-30T14:47:52Z</time>
      </trkpt>
      <trkpt lat="48.88299" lon="4.40967">
        <ele>85.3</ele>
        <time>2020-06-30T14:47:53Z</time>
      </trkpt>
      <trkpt lat="48.88302" lon="4.40962">
        <ele>85.5</ele>
        <time>2020-06-30T14:47:54Z</time>
      </trkpt>
      <trkpt lat="48.88305" lon="4.40957">
        <ele>85.7</ele>
        <time>2020-06-30T14:47:55Z</time>
      </trkpt>
      <trkpt lat="48.88306" lon="4.40951">
        <ele>85.9</ele>
        <time>2020-06-30T14:47:56Z</time>
      </trkpt>
      <trkpt lat="48.8831" lon="4.40946">
        <ele>85.9</ele>
        <time>2020-06-30T14:47:57Z</time>
      </trkpt>
      <trkpt lat="48.88312" lon="4.4094">
        <ele>86</ele>
        <time>2020-06-30T14:47:58Z</time>
      </trkpt>
      <trkpt lat="48.88314" lon="4.40935">
        <ele>86</ele>
        <time>2020-06-30T14:47:59Z</time>
      </trkpt>
      <trkpt lat="48.88316" lon="4.40929">
        <ele>86.1</ele>
        <time>2020-06-30T14:48:00Z</time>
      </trkpt>
      <trkpt lat="48.8832" lon="4.40927">
        <ele>86.2</ele>
        <time>2020-06-30T14:48:01Z</time>
      </trkpt>
      <trkpt lat="48.88324" lon="4.40923">
        <ele>86.3</ele>
        <time>2020-06-30T14:48:02Z</time>
      </trkpt>
      <trkpt lat="48.88328" lon="4.4092">
        <ele>86.4</ele>
        <time>2020-06-30T14:48:03Z</time>
      </trkpt>
      <trkpt lat="48.88332" lon="4.40916">
        <ele>86.5</ele>
        <time>2020-06-30T14:48:04Z</time>
      </trkpt>
      <trkpt lat="48.88336" lon="4.40912">
        <ele>86.6</ele>
        <time>2020-06-30T14:48:05Z</time>
      </trkpt>
      <trkpt lat="48.88341" lon="4.40909">
        <ele>86.7</ele>
        <time>2020-06-30T14:48:06Z</time>
      </trkpt>
      <trkpt lat="48.88345" lon="4.40906">
        <ele>86.7</ele>
        <time>2020-06-30T14:48:07Z</time>
      </trkpt>
      <trkpt lat="48.88349" lon="4.40904">
        <ele>86.7</ele>
        <time>2020-06-30T14:48:08Z</time>
      </trkpt>
      <trkpt lat="48.88353" lon="4.40902">
        <ele>86.8</ele>
        <time>2020-06-30T14:48:09Z</time>
      </trkpt>
      <trkpt lat="48.88358" lon="4.40899">
        <ele>86.8</ele>
        <time>2020-06-30T14:48:10Z</time>
      </trkpt>
      <trkpt lat="48.88363" lon="4.40897">
        <ele>86.9</ele>
        <time>2020-06-30T14:48:11Z</time>
      </trkpt>
      <trkpt lat="48.88368" lon="4.40895">
        <ele>86.9</ele>
        <time>2020-06-30T14:48:12Z</time>
      </trkpt>
      <trkpt lat="48.88373" lon="4.40895">
        <ele>87</ele>
        <time>2020-06-30T14:48:13Z</time>
      </trkpt>
      <trkpt lat="48.88378" lon="4.40893">
        <ele>87</ele>
        <time>2020-06-30T14:48:14Z</time>
      </trkpt>
      <trkpt lat="48.88383" lon="4.40893">
        <ele>87.1</ele>
        <time>2020-06-30T14:48:15Z</time>
      </trkpt>
      <trkpt lat="48.88388" lon="4.40893">
        <ele>87.1</ele>
        <time>2020-06-30T14:48:16Z</time>
      </trkpt>
      <trkpt lat="48.88393" lon="4.40893">
        <ele>87.2</ele>
        <time>2020-06-30T14:48:17Z</time>
      </trkpt>
      <trkpt lat="48.88398" lon="4.40893">
        <ele>87.2</ele>
        <time>2020-06-30T14:48:18Z</time>
      </trkpt>
      <trkpt lat="48.88403" lon="4.4089">
        <ele>87.3</ele>
        <time>2020-06-30T14:48:19Z</time>
      </trkpt>
      <trkpt lat="48.88408" lon="4.40888">
        <ele>87.4</ele>
        <time>2020-06-30T14:48:20Z</time>
      </trkpt>
      <trkpt lat="48.88412" lon="4.40888">
        <ele>87.4</ele>
        <time>2020-06-30T14:48:21Z</time>
      </trkpt>
      <trkpt lat="48.88418" lon="4.40887">
        <ele>87.5</ele>
        <time>2020-06-30T14:48:22Z</time>
      </trkpt>
      <trkpt lat="48.88423" lon="4.40887">
        <ele>87.6</ele>
        <time>2020-06-30T14:48:23Z</time>
      </trkpt>
      <trkpt lat="48.88428" lon="4.40886">
        <ele>87.6</ele>
        <time>2020-06-30T14:48:24Z</time>
      </trkpt>
      <trkpt lat="48.88433" lon="4.40885">
        <ele>87.7</ele>
        <time>2020-06-30T14:48:25Z</time>
      </trkpt>
      <trkpt lat="48.88439" lon="4.40883">
        <ele>87.7</ele>
        <time>2020-06-30T14:48:26Z</time>
      </trkpt>
      <trkpt lat="48.88444" lon="4.40884">
        <ele>87.8</ele>
        <time>2020-06-30T14:48:27Z</time>
      </trkpt>
      <trkpt lat="48.8845" lon="4.40882">
        <ele>87.9</ele>
        <time>2020-06-30T14:48:28Z</time>
      </trkpt>
      <trkpt lat="48.88454" lon="4.40883">
        <ele>88</ele>
        <time>2020-06-30T14:48:29Z</time>
      </trkpt>
      <trkpt lat="48.88459" lon="4.40883">
        <ele>88.1</ele>
        <time>2020-06-30T14:48:30Z</time>
      </trkpt>
      <trkpt lat="48.88465" lon="4.40883">
        <ele>88.1</ele>
        <time>2020-06-30T14:48:31Z</time>
      </trkpt>
      <trkpt lat="48.8847" lon="4.40885">
        <ele>88.2</ele>
        <time>2020-06-30T14:48:32Z</time>
      </trkpt>
      <trkpt lat="48.88475" lon="4.40886">
        <ele>88.3</ele>
        <time>2020-06-30T14:48:33Z</time>
      </trkpt>
      <trkpt lat="48.88481" lon="4.40886">
        <ele>88.3</ele>
        <time>2020-06-30T14:48:34Z</time>
      </trkpt>
      <trkpt lat="48.88486" lon="4.40886">
        <ele>88.4</ele>
        <time>2020-06-30T14:48:35Z</time>
      </trkpt>
      <trkpt lat="48.88492" lon="4.40887">
        <ele>88.5</ele>
        <time>2020-06-30T14:48:36Z</time>
      </trkpt>
      <trkpt lat="48.88497" lon="4.40888">
        <ele>88.6</ele>
        <time>2020-06-30T14:48:37Z</time>
      </trkpt>
      <trkpt lat="48.88503" lon="4.40888">
        <ele>88.8</ele>
        <time>2020-06-30T14:48:38Z</time>
      </trkpt>
      <trkpt lat="48.88508" lon="4.40888">
        <ele>88.9</ele>
        <time>2020-06-30T14:48:39Z</time>
      </trkpt>
      <trkpt lat="48.88512" lon="4.40888">
        <ele>89</ele>
        <time>2020-06-30T14:48:40Z</time>
      </trkpt>
      <trkpt lat="48.88518" lon="4.4089">
        <ele>89.1</ele>
        <time>2020-06-30T14:48:41Z</time>
      </trkpt>
      <trkpt lat="48.88524" lon="4.4089">
        <ele>89.2</ele>
        <time>2020-06-30T14:48:42Z</time>
      </trkpt>
      <trkpt lat="48.8853" lon="4.40891">
        <ele>89.4</ele>
        <time>2020-06-30T14:48:43Z</time>
      </trkpt>
      <trkpt lat="48.88535" lon="4.40892">
        <ele>89.5</ele>
        <time>2020-06-30T14:48:44Z</time>
      </trkpt>
      <trkpt lat="48.8854" lon="4.4089">
        <ele>89.6</ele>
        <time>2020-06-30T14:48:45Z</time>
      </trkpt>
      <trkpt lat="48.88545" lon="4.40891">
        <ele>89.8</ele>
        <time>2020-06-30T14:48:46Z</time>
      </trkpt>
      <trkpt lat="48.8855" lon="4.40892">
        <ele>89.9</ele>
        <time>2020-06-30T14:48:47Z</time>
      </trkpt>
      <trkpt lat="48.88556" lon="4.40892">
        <ele>90.1</ele>
        <time>2020-06-30T14:48:48Z</time>
      </trkpt>
      <trkpt lat="48.8856" lon="4.40893">
        <ele>90.2</ele>
        <time>2020-06-30T14:48:49Z</time>
      </trkpt>
      <trkpt lat="48.88565" lon="4.40895">
        <ele>90.4</ele>
        <time>2020-06-30T14:48:50Z</time>
      </trkpt>
      <trkpt lat="48.8857" lon="4.40897">
        <ele>90.5</ele>
        <time>2020-06-30T14:48:51Z</time>
      </trkpt>
      <trkpt lat="48.88574" lon="4.40897">
        <ele>90.6</ele>
        <time>2020-06-30T14:48:52Z</time>
      </trkpt>
      <trkpt lat="48.88578" lon="4.40898">
        <ele>90.7</ele>
        <time>2020-06-30T14:48:53Z</time>
      </trkpt>
      <trkpt lat="48.88582" lon="4.40898">
        <ele>90.8</ele>
        <time>2020-06-30T14:48:54Z</time>
      </trkpt>
      <trkpt lat="48.88586" lon="4.40899">
        <ele>91</ele>
        <time>2020-06-30T14:48:55Z</time>
      </trkpt>
      <trkpt lat="48.8859" lon="4.40899">
        <ele>91.1</ele>
        <time>2020-06-30T14:48:56Z</time>
      </trkpt>
      <trkpt lat="48.88595" lon="4.40901">
        <ele>91.2</ele>
        <time>2020-06-30T14:48:57Z</time>
      </trkpt>
      <trkpt lat="48.886" lon="4.40902">
        <ele>91.4</ele>
        <time>2020-06-30T14:48:58Z</time>
      </trkpt>
      <trkpt lat="48.88604" lon="4.40903">
        <ele>91.5</ele>
        <time>2020-06-30T14:48:59Z</time>
      </trkpt>
      <trkpt lat="48.8861" lon="4.40904">
        <ele>91.7</ele>
        <time>2020-06-30T14:49:00Z</time>
      </trkpt>
      <trkpt lat="48.88615" lon="4.40905">
        <ele>91.8</ele>
        <time>2020-06-30T14:49:01Z</time>
      </trkpt>
      <trkpt lat="48.88619" lon="4.40905">
        <ele>91.9</ele>
        <time>2020-06-30T14:49:02Z</time>
      </trkpt>
      <trkpt lat="48.88623" lon="4.40905">
        <ele>92.1</ele>
        <time>2020-06-30T14:49:03Z</time>
      </trkpt>
      <trkpt lat="48.88628" lon="4.40903">
        <ele>92.2</ele>
        <time>2020-06-30T14:49:04Z</time>
      </trkpt>
      <trkpt lat="48.88633" lon="4.40905">
        <ele>92.3</ele>
        <time>2020-06-30T14:49:05Z</time>
      </trkpt>
      <trkpt lat="48.88638" lon="4.40906">
        <ele>92.5</ele>
        <time>2020-06-30T14:49:06Z</time>
      </trkpt>
      <trkpt lat="48.88643" lon="4.40907">
        <ele>92.6</ele>
        <time>2020-06-30T14:49:07Z</time>
      </trkpt>
      <trkpt lat="48.88648" lon="4.40908">
        <ele>92.8</ele>
        <time>2020-06-30T14:49:08Z</time>
      </trkpt>
      <trkpt lat="48.88654" lon="4.40908">
        <ele>92.9</ele>
        <time>2020-06-30T14:49:09Z</time>
      </trkpt>
      <trkpt lat="48.88658" lon="4.40909">
        <ele>93</ele>
        <time>2020-06-30T14:49:10Z</time>
      </trkpt>
      <trkpt lat="48.88663" lon="4.4091">
        <ele>93.2</ele>
        <time>2020-06-30T14:49:11Z</time>
      </trkpt>
      <trkpt lat="48.88667" lon="4.4091">
        <ele>93.3</ele>
        <time>2020-06-30T14:49:12Z</time>
      </trkpt>
      <trkpt lat="48.88672" lon="4.4091">
        <ele>93.5</ele>
        <time>2020-06-30T14:49:13Z</time>
      </trkpt>
      <trkpt lat="48.88677" lon="4.4091">
        <ele>93.8</ele>
        <time>2020-06-30T14:49:14Z</time>
      </trkpt>
      <trkpt lat="48.88681" lon="4.40911">
        <ele>94</ele>
        <time>2020-06-30T14:49:15Z</time>
      </trkpt>
      <trkpt lat="48.88685" lon="4.40912">
        <ele>94.1</ele>
        <time>2020-06-30T14:49:16Z</time>
      </trkpt>
      <trkpt lat="48.8869" lon="4.40912">
        <ele>94.3</ele>
        <time>2020-06-30T14:49:17Z</time>
      </trkpt>
      <trkpt lat="48.88696" lon="4.40912">
        <ele>94.5</ele>
        <time>2020-06-30T14:49:18Z</time>
      </trkpt>
      <trkpt lat="48.88701" lon="4.40911">
        <ele>94.6</ele>
        <time>2020-06-30T14:49:19Z</time>
      </trkpt>
      <trkpt lat="48.88704" lon="4.40911">
        <ele>94.7</ele>
        <time>2020-06-30T14:49:20Z</time>
      </trkpt>
      <trkpt lat="48.88708" lon="4.4091">
        <ele>94.9</ele>
        <time>2020-06-30T14:49:21Z</time>
      </trkpt>
      <trkpt lat="48.88713" lon="4.4091">
        <ele>95</ele>
        <time>2020-06-30T14:49:22Z</time>
      </trkpt>
      <trkpt lat="48.88718" lon="4.40909">
        <ele>95.1</ele>
        <time>2020-06-30T14:49:23Z</time>
      </trkpt>
      <trkpt lat="48.88723" lon="4.40908">
        <ele>95.2</ele>
        <time>2020-06-30T14:49:24Z</time>
      </trkpt>
      <trkpt lat="48.88728" lon="4.40906">
        <ele>95.4</ele>
        <time>2020-06-30T14:49:25Z</time>
      </trkpt>
      <trkpt lat="48.88732" lon="4.40903">
        <ele>95.5</ele>
        <time>2020-06-30T14:49:26Z</time>
      </trkpt>
      <trkpt lat="48.88737" lon="4.409">
        <ele>95.6</ele>
        <time>2020-06-30T14:49:27Z</time>
      </trkpt>
      <trkpt lat="48.8874" lon="4.40897">
        <ele>95.7</ele>
        <time>2020-06-30T14:49:28Z</time>
      </trkpt>
      <trkpt lat="48.88745" lon="4.40895">
        <ele>95.8</ele>
        <time>2020-06-30T14:49:29Z</time>
      </trkpt>
      <trkpt lat="48.88749" lon="4.40892">
        <ele>95.9</ele>
        <time>2020-06-30T14:49:30Z</time>
      </trkpt>
      <trkpt lat="48.88753" lon="4.40889">
        <ele>96.1</ele>
        <time>2020-06-30T14:49:31Z</time>
      </trkpt>
      <trkpt lat="48.88757" lon="4.40886">
        <ele>96.2</ele>
        <time>2020-06-30T14:49:32Z</time>
      </trkpt>
      <trkpt lat="48.88762" lon="4.40882">
        <ele>96.3</ele>
        <time>2020-06-30T14:49:33Z</time>
      </trkpt>
      <trkpt lat="48.88766" lon="4.40878">
        <ele>96.4</ele>
        <time>2020-06-30T14:49:34Z</time>
      </trkpt>
      <trkpt lat="48.8877" lon="4.40875">
        <ele>96.5</ele>
        <time>2020-06-30T14:49:35Z</time>
      </trkpt>
      <trkpt lat="48.88775" lon="4.40873">
        <ele>96.6</ele>
        <time>2020-06-30T14:49:36Z</time>
      </trkpt>
      <trkpt lat="48.88778" lon="4.40871">
        <ele>96.7</ele>
        <time>2020-06-30T14:49:37Z</time>
      </trkpt>
      <trkpt lat="48.88782" lon="4.40868">
        <ele>96.7</ele>
        <time>2020-06-30T14:49:38Z</time>
      </trkpt>
      <trkpt lat="48.88785" lon="4.40865">
        <ele>96.8</ele>
        <time>2020-06-30T14:49:39Z</time>
      </trkpt>
      <trkpt lat="48.88789" lon="4.40863">
        <ele>96.8</ele>
        <time>2020-06-30T14:49:40Z</time>
      </trkpt>
      <trkpt lat="48.88793" lon="4.40858">
        <ele>96.8</ele>
        <time>2020-06-30T14:49:41Z</time>
      </trkpt>
      <trkpt lat="48.88797" lon="4.40856">
        <ele>96.9</ele>
        <time>2020-06-30T14:49:42Z</time>
      </trkpt>
      <trkpt lat="48.88801" lon="4.40853">
        <ele>96.9</ele>
        <time>2020-06-30T14:49:43Z</time>
      </trkpt>
      <trkpt lat="48.88806" lon="4.40849">
        <ele>96.9</ele>
        <time>2020-06-30T14:49:44Z</time>
      </trkpt>
      <trkpt lat="48.88811" lon="4.40846">
        <ele>96.9</ele>
        <time>2020-06-30T14:49:45Z</time>
      </trkpt>
      <trkpt lat="48.88815" lon="4.40842">
        <ele>97</ele>
        <time>2020-06-30T14:49:46Z</time>
      </trkpt>
      <trkpt lat="48.8882" lon="4.40839">
        <ele>97</ele>
        <time>2020-06-30T14:49:47Z</time>
      </trkpt>
      <trkpt lat="48.88824" lon="4.40836">
        <ele>97.1</ele>
        <time>2020-06-30T14:49:48Z</time>
      </trkpt>
      <trkpt lat="48.88829" lon="4.40833">
        <ele>97.1</ele>
        <time>2020-06-30T14:49:49Z</time>
      </trkpt>
      <trkpt lat="48.88834" lon="4.40829">
        <ele>97</ele>
        <time>2020-06-30T14:49:50Z</time>
      </trkpt>
      <trkpt lat="48.88839" lon="4.40826">
        <ele>97</ele>
        <time>2020-06-30T14:49:51Z</time>
      </trkpt>
      <trkpt lat="48.88844" lon="4.40823">
        <ele>96.9</ele>
        <time>2020-06-30T14:49:52Z</time>
      </trkpt>
      <trkpt lat="48.88849" lon="4.4082">
        <ele>96.8</ele>
        <time>2020-06-30T14:49:53Z</time>
      </trkpt>
      <trkpt lat="48.88854" lon="4.40816">
        <ele>96.7</ele>
        <time>2020-06-30T14:49:54Z</time>
      </trkpt>
      <trkpt lat="48.88859" lon="4.40812">
        <ele>96.7</ele>
        <time>2020-06-30T14:49:55Z</time>
      </trkpt>
      <trkpt lat="48.88864" lon="4.40809">
        <ele>96.6</ele>
        <time>2020-06-30T14:49:56Z</time>
      </trkpt>
      <trkpt lat="48.8887" lon="4.40805">
        <ele>96.5</ele>
        <time>2020-06-30T14:49:57Z</time>
      </trkpt>
      <trkpt lat="48.88876" lon="4.408">
        <ele>96.4</ele>
        <time>2020-06-30T14:49:58Z</time>
      </trkpt>
      <trkpt lat="48.88882" lon="4.40796">
        <ele>96.3</ele>
        <time>2020-06-30T14:49:59Z</time>
      </trkpt>
      <trkpt lat="48.88888" lon="4.40792">
        <ele>96.3</ele>
        <time>2020-06-30T14:50:00Z</time>
      </trkpt>
      <trkpt lat="48.88894" lon="4.40787">
        <ele>96.2</ele>
        <time>2020-06-30T14:50:01Z</time>
      </trkpt>
      <trkpt lat="48.889" lon="4.40783">
        <ele>96.2</ele>
        <time>2020-06-30T14:50:02Z</time>
      </trkpt>
      <trkpt lat="48.88906" lon="4.40778">
        <ele>96.2</ele>
        <time>2020-06-30T14:50:03Z</time>
      </trkpt>
      <trkpt lat="48.88913" lon="4.40773">
        <ele>96.2</ele>
        <time>2020-06-30T14:50:04Z</time>
      </trkpt>
      <trkpt lat="48.88917" lon="4.4077">
        <ele>96.2</ele>
        <time>2020-06-30T14:50:05Z</time>
      </trkpt>
      <trkpt lat="48.88922" lon="4.40766">
        <ele>96.2</ele>
        <time>2020-06-30T14:50:06Z</time>
      </trkpt>
      <trkpt lat="48.88928" lon="4.40762">
        <ele>96.3</ele>
        <time>2020-06-30T14:50:07Z</time>
      </trkpt>
      <trkpt lat="48.88933" lon="4.40759">
        <ele>96.4</ele>
        <time>2020-06-30T14:50:08Z</time>
      </trkpt>
      <trkpt lat="48.88938" lon="4.40755">
        <ele>96.4</ele>
        <time>2020-06-30T14:50:09Z</time>
      </trkpt>
      <trkpt lat="48.88943" lon="4.40752">
        <ele>96.5</ele>
        <time>2020-06-30T14:50:10Z</time>
      </trkpt>
      <trkpt lat="48.88947" lon="4.40749">
        <ele>96.6</ele>
        <time>2020-06-30T14:50:11Z</time>
      </trkpt>
      <trkpt lat="48.88951" lon="4.40745">
        <ele>96.7</ele>
        <time>2020-06-30T14:50:12Z</time>
      </trkpt>
      <trkpt lat="48.88956" lon="4.40741">
        <ele>96.9</ele>
        <time>2020-06-30T14:50:13Z</time>
      </trkpt>
      <trkpt lat="48.88961" lon="4.40738">
        <ele>97</ele>
        <time>2020-06-30T14:50:14Z</time>
      </trkpt>
      <trkpt lat="48.88965" lon="4.40734">
        <ele>97.2</ele>
        <time>2020-06-30T14:50:15Z</time>
      </trkpt>
      <trkpt lat="48.88971" lon="4.4073">
        <ele>97.4</ele>
        <time>2020-06-30T14:50:16Z</time>
      </trkpt>
      <trkpt lat="48.88975" lon="4.40727">
        <ele>97.6</ele>
        <time>2020-06-30T14:50:17Z</time>
      </trkpt>
      <trkpt lat="48.88979" lon="4.40724">
        <ele>97.7</ele>
        <time>2020-06-30T14:50:18Z</time>
      </trkpt>
      <trkpt lat="48.88983" lon="4.40721">
        <ele>97.9</ele>
        <time>2020-06-30T14:50:19Z</time>
      </trkpt>
      <trkpt lat="48.88986" lon="4.40718">
        <ele>98.1</ele>
        <time>2020-06-30T14:50:20Z</time>
      </trkpt>
      <trkpt lat="48.88991" lon="4.40715">
        <ele>98.2</ele>
        <time>2020-06-30T14:50:21Z</time>
      </trkpt>
      <trkpt lat="48.88994" lon="4.40712">
        <ele>98.4</ele>
        <time>2020-06-30T14:50:22Z</time>
      </trkpt>
      <trkpt lat="48.88998" lon="4.4071">
        <ele>98.6</ele>
        <time>2020-06-30T14:50:23Z</time>
      </trkpt>
      <trkpt lat="48.89001" lon="4.40708">
        <ele>98.8</ele>
        <time>2020-06-30T14:50:24Z</time>
      </trkpt>
      <trkpt lat="48.89005" lon="4.40705">
        <ele>99</ele>
        <time>2020-06-30T14:50:25Z</time>
      </trkpt>
      <trkpt lat="48.89009" lon="4.40702">
        <ele>99.2</ele>
        <time>2020-06-30T14:50:26Z</time>
      </trkpt>
      <trkpt lat="48.89012" lon="4.40699">
        <ele>99.5</ele>
        <time>2020-06-30T14:50:27Z</time>
      </trkpt>
      <trkpt lat="48.89016" lon="4.40697">
        <ele>99.7</ele>
        <time>2020-06-30T14:50:28Z</time>
      </trkpt>
      <trkpt lat="48.89019" lon="4.40696">
        <ele>99.8</ele>
        <time>2020-06-30T14:50:29Z</time>
      </trkpt>
      <trkpt lat="48.89023" lon="4.40694">
        <ele>100.1</ele>
        <time>2020-06-30T14:50:30Z</time>
      </trkpt>
      <trkpt lat="48.89027" lon="4.40691">
        <ele>100.3</ele>
        <time>2020-06-30T14:50:31Z</time>
      </trkpt>
      <trkpt lat="48.8903" lon="4.40688">
        <ele>100.5</ele>
        <time>2020-06-30T14:50:32Z</time>
      </trkpt>
      <trkpt lat="48.89034" lon="4.40684">
        <ele>100.7</ele>
        <time>2020-06-30T14:50:33Z</time>
      </trkpt>
      <trkpt lat="48.89037" lon="4.40682">
        <ele>100.9</ele>
        <time>2020-06-30T14:50:34Z</time>
      </trkpt>
      <trkpt lat="48.89041" lon="4.40679">
        <ele>101.2</ele>
        <time>2020-06-30T14:50:35Z</time>
      </trkpt>
      <trkpt lat="48.89042" lon="4.40678">
        <ele>101.3</ele>
        <time>2020-06-30T14:50:36Z</time>
      </trkpt>
      <trkpt lat="48.89046" lon="4.40674">
        <ele>101.6</ele>
        <time>2020-06-30T14:50:37Z</time>
      </trkpt>
      <trkpt lat="48.89049" lon="4.40673">
        <ele>101.8</ele>
        <time>2020-06-30T14:50:38Z</time>
      </trkpt>
      <trkpt lat="48.89053" lon="4.4067">
        <ele>102</ele>
        <time>2020-06-30T14:50:39Z</time>
      </trkpt>
      <trkpt lat="48.89056" lon="4.40668">
        <ele>102.3</ele>
        <time>2020-06-30T14:50:40Z</time>
      </trkpt>
      <trkpt lat="48.8906" lon="4.40665">
        <ele>102.5</ele>
        <time>2020-06-30T14:50:41Z</time>
      </trkpt>
      <trkpt lat="48.89063" lon="4.40663">
        <ele>102.7</ele>
        <time>2020-06-30T14:50:42Z</time>
      </trkpt>
      <trkpt lat="48.89066" lon="4.40661">
        <ele>102.9</ele>
        <time>2020-06-30T14:50:43Z</time>
      </trkpt>
      <trkpt lat="48.89069" lon="4.4066">
        <ele>103.1</ele>
        <time>2020-06-30T14:50:44Z</time>
      </trkpt>
      <trkpt lat="48.89073" lon="4.40657">
        <ele>103.4</ele>
        <time>2020-06-30T14:50:45Z</time>
      </trkpt>
      <trkpt lat="48.89077" lon="4.40654">
        <ele>103.6</ele>
        <time>2020-06-30T14:50:46Z</time>
      </trkpt>
      <trkpt lat="48.8908" lon="4.40654">
        <ele>103.8</ele>
        <time>2020-06-30T14:50:47Z</time>
      </trkpt>
      <trkpt lat="48.89082" lon="4.40653">
        <ele>103.9</ele>
        <time>2020-06-30T14:50:48Z</time>
      </trkpt>
      <trkpt lat="48.89085" lon="4.40652">
        <ele>104.1</ele>
        <time>2020-06-30T14:50:49Z</time>
      </trkpt>
      <trkpt lat="48.89088" lon="4.4065">
        <ele>104.3</ele>
        <time>2020-06-30T14:50:50Z</time>
      </trkpt>
      <trkpt lat="48.8909" lon="4.40647">
        <ele>104.5</ele>
        <time>2020-06-30T14:50:51Z</time>
      </trkpt>
      <trkpt lat="48.89093" lon="4.40645">
        <ele>104.7</ele>
        <time>2020-06-30T14:50:52Z</time>
      </trkpt>
      <trkpt lat="48.89097" lon="4.40643">
        <ele>104.9</ele>
        <time>2020-06-30T14:50:53Z</time>
      </trkpt>
      <trkpt lat="48.89098" lon="4.40642">
        <ele>105</ele>
        <time>2020-06-30T14:50:54Z</time>
      </trkpt>
      <trkpt lat="48.89101" lon="4.4064">
        <ele>105.1</ele>
        <time>2020-06-30T14:50:55Z</time>
      </trkpt>
      <trkpt lat="48.89103" lon="4.40639">
        <ele>105.3</ele>
        <time>2020-06-30T14:50:56Z</time>
      </trkpt>
      <trkpt lat="48.89106" lon="4.40637">
        <ele>105.4</ele>
        <time>2020-06-30T14:50:57Z</time>
      </trkpt>
      <trkpt lat="48.89109" lon="4.40635">
        <ele>105.5</ele>
        <time>2020-06-30T14:50:58Z</time>
      </trkpt>
      <trkpt lat="48.89111" lon="4.40634">
        <ele>105.7</ele>
        <time>2020-06-30T14:50:59Z</time>
      </trkpt>
      <trkpt lat="48.89114" lon="4.40632">
        <ele>105.8</ele>
        <time>2020-06-30T14:51:00Z</time>
      </trkpt>
      <trkpt lat="48.89117" lon="4.4063">
        <ele>106</ele>
        <time>2020-06-30T14:51:01Z</time>
      </trkpt>
      <trkpt lat="48.8912" lon="4.40629">
        <ele>106.1</ele>
        <time>2020-06-30T14:51:02Z</time>
      </trkpt>
      <trkpt lat="48.89124" lon="4.40628">
        <ele>106.3</ele>
        <time>2020-06-30T14:51:03Z</time>
      </trkpt>
      <trkpt lat="48.89127" lon="4.40625">
        <ele>106.4</ele>
        <time>2020-06-30T14:51:04Z</time>
      </trkpt>
      <trkpt lat="48.8913" lon="4.40624">
        <ele>106.5</ele>
        <time>2020-06-30T14:51:05Z</time>
      </trkpt>
      <trkpt lat="48.89133" lon="4.40621">
        <ele>106.7</ele>
        <time>2020-06-30T14:51:06Z</time>
      </trkpt>
      <trkpt lat="48.89136" lon="4.4062">
        <ele>106.8</ele>
        <time>2020-06-30T14:51:07Z</time>
      </trkpt>
      <trkpt lat="48.8914" lon="4.40618">
        <ele>106.9</ele>
        <time>2020-06-30T14:51:08Z</time>
      </trkpt>
      <trkpt lat="48.89145" lon="4.40615">
        <ele>107</ele>
        <time>2020-06-30T14:51:09Z</time>
      </trkpt>
      <trkpt lat="48.89147" lon="4.40613">
        <ele>107.1</ele>
        <time>2020-06-30T14:51:10Z</time>
      </trkpt>
      <trkpt lat="48.89151" lon="4.40611">
        <ele>107.2</ele>
        <time>2020-06-30T14:51:11Z</time>
      </trkpt>
      <trkpt lat="48.89154" lon="4.4061">
        <ele>107.2</ele>
        <time>2020-06-30T14:51:12Z</time>
      </trkpt>
      <trkpt lat="48.89157" lon="4.40606">
        <ele>107.3</ele>
        <time>2020-06-30T14:51:13Z</time>
      </trkpt>
      <trkpt lat="48.89161" lon="4.40604">
        <ele>107.4</ele>
        <time>2020-06-30T14:51:14Z</time>
      </trkpt>
      <trkpt lat="48.89165" lon="4.406">
        <ele>107.4</ele>
        <time>2020-06-30T14:51:15Z</time>
      </trkpt>
      <trkpt lat="48.89168" lon="4.40599">
        <ele>107.4</ele>
        <time>2020-06-30T14:51:16Z</time>
      </trkpt>
      <trkpt lat="48.89171" lon="4.40597">
        <ele>107.5</ele>
        <time>2020-06-30T14:51:17Z</time>
      </trkpt>
      <trkpt lat="48.89175" lon="4.40594">
        <ele>107.5</ele>
        <time>2020-06-30T14:51:18Z</time>
      </trkpt>
      <trkpt lat="48.89178" lon="4.40592">
        <ele>107.5</ele>
        <time>2020-06-30T14:51:19Z</time>
      </trkpt>
      <trkpt lat="48.89182" lon="4.40589">
        <ele>107.5</ele>
        <time>2020-06-30T14:51:20Z</time>
      </trkpt>
      <trkpt lat="48.89186" lon="4.40586">
        <ele>107.5</ele>
        <time>2020-06-30T14:51:21Z</time>
      </trkpt>
      <trkpt lat="48.8919" lon="4.40584">
        <ele>107.5</ele>
        <time>2020-06-30T14:51:22Z</time>
      </trkpt>
      <trkpt lat="48.89193" lon="4.40582">
        <ele>107.5</ele>
        <time>2020-06-30T14:51:23Z</time>
      </trkpt>
      <trkpt lat="48.89198" lon="4.4058">
        <ele>107.4</ele>
        <time>2020-06-30T14:51:24Z</time>
      </trkpt>
      <trkpt lat="48.89203" lon="4.40576">
        <ele>107.3</ele>
        <time>2020-06-30T14:51:25Z</time>
      </trkpt>
      <trkpt lat="48.89207" lon="4.40572">
        <ele>107.2</ele>
        <time>2020-06-30T14:51:26Z</time>
      </trkpt>
      <trkpt lat="48.89212" lon="4.40569">
        <ele>107</ele>
        <time>2020-06-30T14:51:27Z</time>
      </trkpt>
      <trkpt lat="48.89217" lon="4.40566">
        <ele>106.8</ele>
        <time>2020-06-30T14:51:28Z</time>
      </trkpt>
      <trkpt lat="48.89223" lon="4.40563">
        <ele>106.6</ele>
        <time>2020-06-30T14:51:29Z</time>
      </trkpt>
      <trkpt lat="48.89227" lon="4.4056">
        <ele>106.4</ele>
        <time>2020-06-30T14:51:30Z</time>
      </trkpt>
      <trkpt lat="48.89233" lon="4.40555">
        <ele>106.2</ele>
        <time>2020-06-30T14:51:31Z</time>
      </trkpt>
      <trkpt lat="48.89239" lon="4.40549">
        <ele>105.9</ele>
        <time>2020-06-30T14:51:32Z</time>
      </trkpt>
      <trkpt lat="48.89245" lon="4.40545">
        <ele>105.7</ele>
        <time>2020-06-30T14:51:33Z</time>
      </trkpt>
      <trkpt lat="48.89251" lon="4.40539">
        <ele>105.3</ele>
        <time>2020-06-30T14:51:34Z</time>
      </trkpt>
      <trkpt lat="48.89257" lon="4.40535">
        <ele>105</ele>
        <time>2020-06-30T14:51:35Z</time>
      </trkpt>
      <trkpt lat="48.89263" lon="4.40531">
        <ele>104.8</ele>
        <time>2020-06-30T14:51:36Z</time>
      </trkpt>
      <trkpt lat="48.8927" lon="4.40527">
        <ele>104.4</ele>
        <time>2020-06-30T14:51:37Z</time>
      </trkpt>
      <trkpt lat="48.89277" lon="4.40522">
        <ele>104.1</ele>
        <time>2020-06-30T14:51:38Z</time>
      </trkpt>
      <trkpt lat="48.89284" lon="4.40517">
        <ele>103.7</ele>
        <time>2020-06-30T14:51:39Z</time>
      </trkpt>
      <trkpt lat="48.89291" lon="4.40513">
        <ele>103.4</ele>
        <time>2020-06-30T14:51:40Z</time>
      </trkpt>
      <trkpt lat="48.89298" lon="4.40507">
        <ele>103</ele>
        <time>2020-06-30T14:51:41Z</time>
      </trkpt>
      <trkpt lat="48.89305" lon="4.40502">
        <ele>102.6</ele>
        <time>2020-06-30T14:51:42Z</time>
      </trkpt>
      <trkpt lat="48.89313" lon="4.40496">
        <ele>102.2</ele>
        <time>2020-06-30T14:51:43Z</time>
      </trkpt>
      <trkpt lat="48.8932" lon="4.40491">
        <ele>101.8</ele>
        <time>2020-06-30T14:51:44Z</time>
      </trkpt>
      <trkpt lat="48.89328" lon="4.40485">
        <ele>101.5</ele>
        <time>2020-06-30T14:51:45Z</time>
      </trkpt>
      <trkpt lat="48.89335" lon="4.40479">
        <ele>101.1</ele>
        <time>2020-06-30T14:51:46Z</time>
      </trkpt>
      <trkpt lat="48.89343" lon="4.40473">
        <ele>100.7</ele>
        <time>2020-06-30T14:51:47Z</time>
      </trkpt>
      <trkpt lat="48.89351" lon="4.40467">
        <ele>100.3</ele>
        <time>2020-06-30T14:51:48Z</time>
      </trkpt>
      <trkpt lat="48.89358" lon="4.40461">
        <ele>99.9</ele>
        <time>2020-06-30T14:51:49Z</time>
      </trkpt>
      <trkpt lat="48.89366" lon="4.40455">
        <ele>99.5</ele>
        <time>2020-06-30T14:51:50Z</time>
      </trkpt>
      <trkpt lat="48.89374" lon="4.40449">
        <ele>99.2</ele>
        <time>2020-06-30T14:51:51Z</time>
      </trkpt>
      <trkpt lat="48.89382" lon="4.40443">
        <ele>98.9</ele>
        <time>2020-06-30T14:51:52Z</time>
      </trkpt>
      <trkpt lat="48.89389" lon="4.40436">
        <ele>98.7</ele>
        <time>2020-06-30T14:51:53Z</time>
      </trkpt>
      <trkpt lat="48.89397" lon="4.4043">
        <ele>98.4</ele>
        <time>2020-06-30T14:51:54Z</time>
      </trkpt>
      <trkpt lat="48.89404" lon="4.40424">
        <ele>98.2</ele>
        <time>2020-06-30T14:51:55Z</time>
      </trkpt>
      <trkpt lat="48.89412" lon="4.40418">
        <ele>98</ele>
        <time>2020-06-30T14:51:56Z</time>
      </trkpt>
      <trkpt lat="48.89419" lon="4.40412">
        <ele>97.8</ele>
        <time>2020-06-30T14:51:57Z</time>
      </trkpt>
      <trkpt lat="48.89426" lon="4.40406">
        <ele>97.5</ele>
        <time>2020-06-30T14:51:58Z</time>
      </trkpt>
      <trkpt lat="48.89433" lon="4.40399">
        <ele>97.3</ele>
        <time>2020-06-30T14:51:59Z</time>
      </trkpt>
      <trkpt lat="48.8944" lon="4.40392">
        <ele>97.2</ele>
        <time>2020-06-30T14:52:00Z</time>
      </trkpt>
      <trkpt lat="48.89447" lon="4.40387">
        <ele>97</ele>
        <time>2020-06-30T14:52:01Z</time>
      </trkpt>
      <trkpt lat="48.89454" lon="4.40381">
        <ele>96.9</ele>
        <time>2020-06-30T14:52:02Z</time>
      </trkpt>
      <trkpt lat="48.8946" lon="4.40375">
        <ele>96.8</ele>
        <time>2020-06-30T14:52:03Z</time>
      </trkpt>
      <trkpt lat="48.89467" lon="4.4037">
        <ele>96.7</ele>
        <time>2020-06-30T14:52:04Z</time>
      </trkpt>
      <trkpt lat="48.89473" lon="4.40364">
        <ele>96.6</ele>
        <time>2020-06-30T14:52:05Z</time>
      </trkpt>
      <trkpt lat="48.89479" lon="4.40358">
        <ele>96.5</ele>
        <time>2020-06-30T14:52:06Z</time>
      </trkpt>
      <trkpt lat="48.89485" lon="4.40353">
        <ele>96.4</ele>
        <time>2020-06-30T14:52:07Z</time>
      </trkpt>
      <trkpt lat="48.89491" lon="4.40347">
        <ele>96.3</ele>
        <time>2020-06-30T14:52:08Z</time>
      </trkpt>
      <trkpt lat="48.89498" lon="4.40341">
        <ele>96.2</ele>
        <time>2020-06-30T14:52:09Z</time>
      </trkpt>
      <trkpt lat="48.89504" lon="4.40336">
        <ele>96.1</ele>
        <time>2020-06-30T14:52:10Z</time>
      </trkpt>
      <trkpt lat="48.8951" lon="4.40331">
        <ele>96</ele>
        <time>2020-06-30T14:52:11Z</time>
      </trkpt>
      <trkpt lat="48.89516" lon="4.40325">
        <ele>95.8</ele>
        <time>2020-06-30T14:52:12Z</time>
      </trkpt>
      <trkpt lat="48.89522" lon="4.4032">
        <ele>95.7</ele>
        <time>2020-06-30T14:52:13Z</time>
      </trkpt>
      <trkpt lat="48.89529" lon="4.40314">
        <ele>95.5</ele>
        <time>2020-06-30T14:52:14Z</time>
      </trkpt>
      <trkpt lat="48.89535" lon="4.40309">
        <ele>95.4</ele>
        <time>2020-06-30T14:52:15Z</time>
      </trkpt>
      <trkpt lat="48.89542" lon="4.40303">
        <ele>95.2</ele>
        <time>2020-06-30T14:52:16Z</time>
      </trkpt>
      <trkpt lat="48.89548" lon="4.40298">
        <ele>95.1</ele>
        <time>2020-06-30T14:52:17Z</time>
      </trkpt>
      <trkpt lat="48.89555" lon="4.40292">
        <ele>95.1</ele>
        <time>2020-06-30T14:52:18Z</time>
      </trkpt>
      <trkpt lat="48.89562" lon="4.40286">
        <ele>95</ele>
        <time>2020-06-30T14:52:19Z</time>
      </trkpt>
      <trkpt lat="48.89569" lon="4.40279">
        <ele>94.7</ele>
        <time>2020-06-30T14:52:20Z</time>
      </trkpt>
      <trkpt lat="48.89575" lon="4.40273">
        <ele>94.4</ele>
        <time>2020-06-30T14:52:21Z</time>
      </trkpt>
      <trkpt lat="48.89583" lon="4.40267">
        <ele>94.2</ele>
        <time>2020-06-30T14:52:22Z</time>
      </trkpt>
      <trkpt lat="48.8959" lon="4.40261">
        <ele>94</ele>
        <time>2020-06-30T14:52:23Z</time>
      </trkpt>
      <trkpt lat="48.89597" lon="4.40255">
        <ele>93.8</ele>
        <time>2020-06-30T14:52:24Z</time>
      </trkpt>
      <trkpt lat="48.89604" lon="4.40248">
        <ele>93.5</ele>
        <time>2020-06-30T14:52:25Z</time>
      </trkpt>
      <trkpt lat="48.89611" lon="4.40242">
        <ele>93.3</ele>
        <time>2020-06-30T14:52:26Z</time>
      </trkpt>
      <trkpt lat="48.89618" lon="4.40236">
        <ele>93.1</ele>
        <time>2020-06-30T14:52:27Z</time>
      </trkpt>
      <trkpt lat="48.89625" lon="4.40229">
        <ele>93</ele>
        <time>2020-06-30T14:52:28Z</time>
      </trkpt>
      <trkpt lat="48.89633" lon="4.40222">
        <ele>92.9</ele>
        <time>2020-06-30T14:52:29Z</time>
      </trkpt>
      <trkpt lat="48.8964" lon="4.40216">
        <ele>92.8</ele>
        <time>2020-06-30T14:52:30Z</time>
      </trkpt>
      <trkpt lat="48.89648" lon="4.40209">
        <ele>92.8</ele>
        <time>2020-06-30T14:52:31Z</time>
      </trkpt>
      <trkpt lat="48.89655" lon="4.40204">
        <ele>92.8</ele>
        <time>2020-06-30T14:52:32Z</time>
      </trkpt>
      <trkpt lat="48.89662" lon="4.40197">
        <ele>92.9</ele>
        <time>2020-06-30T14:52:33Z</time>
      </trkpt>
      <trkpt lat="48.89668" lon="4.4019">
        <ele>93</ele>
        <time>2020-06-30T14:52:34Z</time>
      </trkpt>
      <trkpt lat="48.89675" lon="4.40184">
        <ele>93.2</ele>
        <time>2020-06-30T14:52:35Z</time>
      </trkpt>
      <trkpt lat="48.89681" lon="4.40178">
        <ele>93.4</ele>
        <time>2020-06-30T14:52:36Z</time>
      </trkpt>
      <trkpt lat="48.89687" lon="4.40172">
        <ele>93.6</ele>
        <time>2020-06-30T14:52:37Z</time>
      </trkpt>
      <trkpt lat="48.89693" lon="4.40168">
        <ele>93.8</ele>
        <time>2020-06-30T14:52:38Z</time>
      </trkpt>
      <trkpt lat="48.89699" lon="4.40163">
        <ele>94.1</ele>
        <time>2020-06-30T14:52:39Z</time>
      </trkpt>
      <trkpt lat="48.89705" lon="4.40158">
        <ele>94.3</ele>
        <time>2020-06-30T14:52:40Z</time>
      </trkpt>
      <trkpt lat="48.89711" lon="4.40153">
        <ele>94.6</ele>
        <time>2020-06-30T14:52:41Z</time>
      </trkpt>
      <trkpt lat="48.89716" lon="4.40149">
        <ele>94.8</ele>
        <time>2020-06-30T14:52:42Z</time>
      </trkpt>
      <trkpt lat="48.89722" lon="4.40144">
        <ele>95</ele>
        <time>2020-06-30T14:52:43Z</time>
      </trkpt>
      <trkpt lat="48.89727" lon="4.40139">
        <ele>95.3</ele>
        <time>2020-06-30T14:52:44Z</time>
      </trkpt>
      <trkpt lat="48.89732" lon="4.40135">
        <ele>95.5</ele>
        <time>2020-06-30T14:52:45Z</time>
      </trkpt>
      <trkpt lat="48.89737" lon="4.40131">
        <ele>95.8</ele>
        <time>2020-06-30T14:52:46Z</time>
      </trkpt>
      <trkpt lat="48.89743" lon="4.40127">
        <ele>96</ele>
        <time>2020-06-30T14:52:47Z</time>
      </trkpt>
      <trkpt lat="48.89748" lon="4.40123">
        <ele>96.3</ele>
        <time>2020-06-30T14:52:48Z</time>
      </trkpt>
      <trkpt lat="48.89753" lon="4.40119">
        <ele>96.5</ele>
        <time>2020-06-30T14:52:49Z</time>
      </trkpt>
      <trkpt lat="48.89757" lon="4.40116">
        <ele>96.7</ele>
        <time>2020-06-30T14:52:50Z</time>
      </trkpt>
      <trkpt lat="48.89761" lon="4.40112">
        <ele>97</ele>
        <time>2020-06-30T14:52:51Z</time>
      </trkpt>
      <trkpt lat="48.89765" lon="4.40109">
        <ele>97.2</ele>
        <time>2020-06-30T14:52:52Z</time>
      </trkpt>
      <trkpt lat="48.8977" lon="4.40107">
        <ele>97.4</ele>
        <time>2020-06-30T14:52:53Z</time>
      </trkpt>
      <trkpt lat="48.89774" lon="4.40103">
        <ele>97.6</ele>
        <time>2020-06-30T14:52:54Z</time>
      </trkpt>
      <trkpt lat="48.89777" lon="4.40101">
        <ele>97.8</ele>
        <time>2020-06-30T14:52:55Z</time>
      </trkpt>
      <trkpt lat="48.8978" lon="4.40101">
        <ele>98</ele>
        <time>2020-06-30T14:52:56Z</time>
      </trkpt>
      <trkpt lat="48.89783" lon="4.40099">
        <ele>98.1</ele>
        <time>2020-06-30T14:52:57Z</time>
      </trkpt>
      <trkpt lat="48.89786" lon="4.40098">
        <ele>98.3</ele>
        <time>2020-06-30T14:52:58Z</time>
      </trkpt>
      <trkpt lat="48.89791" lon="4.40095">
        <ele>98.5</ele>
        <time>2020-06-30T14:52:59Z</time>
      </trkpt>
      <trkpt lat="48.89794" lon="4.40093">
        <ele>98.7</ele>
        <time>2020-06-30T14:53:00Z</time>
      </trkpt>
      <trkpt lat="48.89797" lon="4.40091">
        <ele>98.9</ele>
        <time>2020-06-30T14:53:01Z</time>
      </trkpt>
      <trkpt lat="48.898" lon="4.40088">
        <ele>99.1</ele>
        <time>2020-06-30T14:53:02Z</time>
      </trkpt>
      <trkpt lat="48.89804" lon="4.40086">
        <ele>99.3</ele>
        <time>2020-06-30T14:53:03Z</time>
      </trkpt>
      <trkpt lat="48.89807" lon="4.40084">
        <ele>99.5</ele>
        <time>2020-06-30T14:53:04Z</time>
      </trkpt>
      <trkpt lat="48.8981" lon="4.40081">
        <ele>99.6</ele>
        <time>2020-06-30T14:53:05Z</time>
      </trkpt>
      <trkpt lat="48.89814" lon="4.40079">
        <ele>99.8</ele>
        <time>2020-06-30T14:53:06Z</time>
      </trkpt>
      <trkpt lat="48.89817" lon="4.40078">
        <ele>100</ele>
        <time>2020-06-30T14:53:07Z</time>
      </trkpt>
      <trkpt lat="48.8982" lon="4.40075">
        <ele>100.2</ele>
        <time>2020-06-30T14:53:08Z</time>
      </trkpt>
      <trkpt lat="48.89822" lon="4.40073">
        <ele>100.3</ele>
        <time>2020-06-30T14:53:09Z</time>
      </trkpt>
      <trkpt lat="48.89826" lon="4.40071">
        <ele>100.5</ele>
        <time>2020-06-30T14:53:10Z</time>
      </trkpt>
      <trkpt lat="48.89827" lon="4.40069">
        <ele>100.6</ele>
        <time>2020-06-30T14:53:11Z</time>
      </trkpt>
      <trkpt lat="48.8983" lon="4.40068">
        <ele>100.8</ele>
        <time>2020-06-30T14:53:12Z</time>
      </trkpt>
      <trkpt lat="48.89832" lon="4.40067">
        <ele>100.8</ele>
        <time>2020-06-30T14:53:13Z</time>
      </trkpt>
      <trkpt lat="48.89836" lon="4.40066">
        <ele>101</ele>
        <time>2020-06-30T14:53:14Z</time>
      </trkpt>
      <trkpt lat="48.8984" lon="4.40063">
        <ele>101.3</ele>
        <time>2020-06-30T14:53:15Z</time>
      </trkpt>
      <trkpt lat="48.89843" lon="4.40061">
        <ele>101.5</ele>
        <time>2020-06-30T14:53:16Z</time>
      </trkpt>
      <trkpt lat="48.89847" lon="4.40058">
        <ele>101.6</ele>
        <time>2020-06-30T14:53:17Z</time>
      </trkpt>
      <trkpt lat="48.8985" lon="4.40056">
        <ele>101.8</ele>
        <time>2020-06-30T14:53:18Z</time>
      </trkpt>
      <trkpt lat="48.89853" lon="4.40053">
        <ele>102</ele>
        <time>2020-06-30T14:53:19Z</time>
      </trkpt>
      <trkpt lat="48.89856" lon="4.40051">
        <ele>102.1</ele>
        <time>2020-06-30T14:53:20Z</time>
      </trkpt>
      <trkpt lat="48.89859" lon="4.40049">
        <ele>102.3</ele>
        <time>2020-06-30T14:53:21Z</time>
      </trkpt>
      <trkpt lat="48.89861" lon="4.40049">
        <ele>102.3</ele>
        <time>2020-06-30T14:53:22Z</time>
      </trkpt>
      <trkpt lat="48.89864" lon="4.40048">
        <ele>102.5</ele>
        <time>2020-06-30T14:53:23Z</time>
      </trkpt>
      <trkpt lat="48.89865" lon="4.40047">
        <ele>102.5</ele>
        <time>2020-06-30T14:53:24Z</time>
      </trkpt>
      <trkpt lat="48.89869" lon="4.40045">
        <ele>102.7</ele>
        <time>2020-06-30T14:53:25Z</time>
      </trkpt>
      <trkpt lat="48.8987" lon="4.40043">
        <ele>102.8</ele>
        <time>2020-06-30T14:53:26Z</time>
      </trkpt>
      <trkpt lat="48.89873" lon="4.40042">
        <ele>102.9</ele>
        <time>2020-06-30T14:53:27Z</time>
      </trkpt>
      <trkpt lat="48.89877" lon="4.40039">
        <ele>103.1</ele>
        <time>2020-06-30T14:53:28Z</time>
      </trkpt>
      <trkpt lat="48.89881" lon="4.40037">
        <ele>103.3</ele>
        <time>2020-06-30T14:53:29Z</time>
      </trkpt>
      <trkpt lat="48.89884" lon="4.40034">
        <ele>103.4</ele>
        <time>2020-06-30T14:53:30Z</time>
      </trkpt>
      <trkpt lat="48.89888" lon="4.40033">
        <ele>103.6</ele>
        <time>2020-06-30T14:53:31Z</time>
      </trkpt>
      <trkpt lat="48.89889" lon="4.40032">
        <ele>103.6</ele>
        <time>2020-06-30T14:53:32Z</time>
      </trkpt>
      <trkpt lat="48.89893" lon="4.4003">
        <ele>103.8</ele>
        <time>2020-06-30T14:53:33Z</time>
      </trkpt>
      <trkpt lat="48.89896" lon="4.40028">
        <ele>103.9</ele>
        <time>2020-06-30T14:53:34Z</time>
      </trkpt>
      <trkpt lat="48.89899" lon="4.40027">
        <ele>104</ele>
        <time>2020-06-30T14:53:35Z</time>
      </trkpt>
      <trkpt lat="48.89902" lon="4.40025">
        <ele>104.1</ele>
        <time>2020-06-30T14:53:36Z</time>
      </trkpt>
      <trkpt lat="48.89906" lon="4.40023">
        <ele>104.2</ele>
        <time>2020-06-30T14:53:37Z</time>
      </trkpt>
      <trkpt lat="48.89909" lon="4.40022">
        <ele>104.3</ele>
        <time>2020-06-30T14:53:38Z</time>
      </trkpt>
      <trkpt lat="48.89912" lon="4.40022">
        <ele>104.4</ele>
        <time>2020-06-30T14:53:39Z</time>
      </trkpt>
      <trkpt lat="48.89916" lon="4.4002">
        <ele>104.5</ele>
        <time>2020-06-30T14:53:40Z</time>
      </trkpt>
      <trkpt lat="48.89919" lon="4.4002">
        <ele>104.6</ele>
        <time>2020-06-30T14:53:41Z</time>
      </trkpt>
      <trkpt lat="48.8992" lon="4.4002">
        <ele>104.6</ele>
        <time>2020-06-30T14:53:42Z</time>
      </trkpt>
      <trkpt lat="48.89921" lon="4.4002">
        <ele>104.6</ele>
        <time>2020-06-30T14:53:43Z</time>
      </trkpt>
      <trkpt lat="48.89923" lon="4.4002">
        <ele>104.7</ele>
        <time>2020-06-30T14:53:44Z</time>
      </trkpt>
      <trkpt lat="48.89925" lon="4.40021">
        <ele>104.7</ele>
        <time>2020-06-30T14:53:45Z</time>
      </trkpt>
      <trkpt lat="48.89926" lon="4.40021">
        <ele>104.8</ele>
        <time>2020-06-30T14:53:46Z</time>
      </trkpt>
      <trkpt lat="48.89927" lon="4.40022">
        <ele>104.9</ele>
        <time>2020-06-30T14:53:47Z</time>
      </trkpt>
      <trkpt lat="48.89927" lon="4.40022">
        <ele>104.8</ele>
        <time>2020-06-30T14:53:48Z</time>
      </trkpt>
      <trkpt lat="48.89927" lon="4.40022">
        <ele>104.9</ele>
        <time>2020-06-30T14:53:49Z</time>
      </trkpt>
      <trkpt lat="48.89927" lon="4.40023">
        <ele>104.9</ele>
        <time>2020-06-30T14:53:50Z</time>
      </trkpt>
      <trkpt lat="48.89926" lon="4.40022">
        <ele>104.8</ele>
        <time>2020-06-30T14:53:51Z</time>
      </trkpt>
      <trkpt lat="48.89926" lon="4.40021">
        <ele>104.8</ele>
        <time>2020-06-30T14:53:52Z</time>
      </trkpt>
      <trkpt lat="48.89926" lon="4.40022">
        <ele>104.8</ele>
        <time>2020-06-30T14:53:53Z</time>
      </trkpt>
      <trkpt lat="48.89926" lon="4.40023">
        <ele>104.8</ele>
        <time>2020-06-30T14:53:54Z</time>
      </trkpt>
      <trkpt lat="48.89926" lon="4.40023">
        <ele>104.8</ele>
        <time>2020-06-30T14:53:55Z</time>
      </trkpt>
      <trkpt lat="48.89927" lon="4.40022">
        <ele>104.8</ele>
        <time>2020-06-30T14:53:56Z</time>
      </trkpt>
      <trkpt lat="48.89926" lon="4.40022">
        <ele>104.8</ele>
        <time>2020-06-30T14:53:57Z</time>
      </trkpt>
      <trkpt lat="48.89927" lon="4.40021">
        <ele>104.9</ele>
        <time>2020-06-30T14:53:58Z</time>
      </trkpt>
      <trkpt lat="48.89931" lon="4.4002">
        <ele>104.9</ele>
        <time>2020-06-30T14:55:03Z</time>
      </trkpt>
      <trkpt lat="48.89932" lon="4.40019">
        <ele>104.9</ele>
        <time>2020-06-30T14:55:04Z</time>
      </trkpt>
      <trkpt lat="48.89933" lon="4.40019">
        <ele>104.9</ele>
        <time>2020-06-30T14:55:05Z</time>
      </trkpt>
      <trkpt lat="48.89934" lon="4.40019">
        <ele>104.9</ele>
        <time>2020-06-30T14:55:06Z</time>
      </trkpt>
      <trkpt lat="48.89935" lon="4.40019">
        <ele>104.9</ele>
        <time>2020-06-30T14:55:07Z</time>
      </trkpt>
      <trkpt lat="48.89936" lon="4.40018">
        <ele>104.9</ele>
        <time>2020-06-30T14:55:08Z</time>
      </trkpt>
      <trkpt lat="48.89937" lon="4.40019">
        <ele>104.9</ele>
        <time>2020-06-30T14:55:09Z</time>
      </trkpt>
      <trkpt lat="48.89937" lon="4.40019">
        <ele>104.9</ele>
        <time>2020-06-30T14:55:10Z</time>
      </trkpt>
      <trkpt lat="48.89937" lon="4.40019">
        <ele>104.9</ele>
        <time>2020-06-30T14:55:11Z</time>
      </trkpt>
      <trkpt lat="48.89937" lon="4.40019">
        <ele>104.9</ele>
        <time>2020-06-30T14:55:12Z</time>
      </trkpt>
      <trkpt lat="48.89937" lon="4.40019">
        <ele>104.9</ele>
        <time>2020-06-30T14:55:13Z</time>
      </trkpt>
      <trkpt lat="48.89937" lon="4.40019">
        <ele>104.9</ele>
        <time>2020-06-30T14:55:14Z</time>
      </trkpt>
      <trkpt lat="48.89937" lon="4.40019">
        <ele>104.9</ele>
        <time>2020-06-30T14:55:15Z</time>
      </trkpt>
      <trkpt lat="48.89936" lon="4.40019">
        <ele>104.9</ele>
        <time>2020-06-30T14:55:16Z</time>
      </trkpt>
      <trkpt lat="48.89936" lon="4.40019">
        <ele>104.9</ele>
        <time>2020-06-30T14:55:17Z</time>
      </trkpt>
      <trkpt lat="48.89936" lon="4.40019">
        <ele>104.9</ele>
        <time>2020-06-30T14:55:18Z</time>
      </trkpt>
      <trkpt lat="48.89941" lon="4.40016">
        <ele>104.9</ele>
        <time>2020-06-30T14:57:52Z</time>
      </trkpt>
      <trkpt lat="48.89943" lon="4.40015">
        <ele>104.9</ele>
        <time>2020-06-30T14:57:53Z</time>
      </trkpt>
      <trkpt lat="48.89946" lon="4.40014">
        <ele>104.9</ele>
        <time>2020-06-30T14:57:54Z</time>
      </trkpt>
      <trkpt lat="48.89947" lon="4.40014">
        <ele>104.9</ele>
        <time>2020-06-30T14:57:55Z</time>
      </trkpt>
      <trkpt lat="48.89948" lon="4.40014">
        <ele>105</ele>
        <time>2020-06-30T14:57:56Z</time>
      </trkpt>
      <trkpt lat="48.8995" lon="4.40014">
        <ele>105</ele>
        <time>2020-06-30T14:57:57Z</time>
      </trkpt>
      <trkpt lat="48.89954" lon="4.40014">
        <ele>105</ele>
        <time>2020-06-30T14:57:58Z</time>
      </trkpt>
      <trkpt lat="48.89955" lon="4.40014">
        <ele>105</ele>
        <time>2020-06-30T14:57:59Z</time>
      </trkpt>
      <trkpt lat="48.89958" lon="4.40015">
        <ele>104.9</ele>
        <time>2020-06-30T14:58:00Z</time>
      </trkpt>
      <trkpt lat="48.89961" lon="4.40015">
        <ele>104.9</ele>
        <time>2020-06-30T14:58:01Z</time>
      </trkpt>
      <trkpt lat="48.89963" lon="4.40015">
        <ele>104.9</ele>
        <time>2020-06-30T14:58:02Z</time>
      </trkpt>
      <trkpt lat="48.89966" lon="4.40015">
        <ele>104.9</ele>
        <time>2020-06-30T14:58:03Z</time>
      </trkpt>
      <trkpt lat="48.89967" lon="4.40015">
        <ele>104.9</ele>
        <time>2020-06-30T14:58:04Z</time>
      </trkpt>
      <trkpt lat="48.8997" lon="4.40016">
        <ele>104.8</ele>
        <time>2020-06-30T14:58:05Z</time>
      </trkpt>
      <trkpt lat="48.89974" lon="4.40017">
        <ele>104.8</ele>
        <time>2020-06-30T14:58:06Z</time>
      </trkpt>
      <trkpt lat="48.89978" lon="4.40018">
        <ele>104.7</ele>
        <time>2020-06-30T14:58:07Z</time>
      </trkpt>
      <trkpt lat="48.89982" lon="4.4002">
        <ele>104.6</ele>
        <time>2020-06-30T14:58:08Z</time>
      </trkpt>
      <trkpt lat="48.89986" lon="4.40022">
        <ele>104.5</ele>
        <time>2020-06-30T14:58:09Z</time>
      </trkpt>
      <trkpt lat="48.89991" lon="4.40025">
        <ele>104.4</ele>
        <time>2020-06-30T14:58:10Z</time>
      </trkpt>
      <trkpt lat="48.89995" lon="4.40028">
        <ele>104.2</ele>
        <time>2020-06-30T14:58:11Z</time>
      </trkpt>
      <trkpt lat="48.89999" lon="4.40031">
        <ele>104</ele>
        <time>2020-06-30T14:58:12Z</time>
      </trkpt>
      <trkpt lat="48.90004" lon="4.40034">
        <ele>103.8</ele>
        <time>2020-06-30T14:58:13Z</time>
      </trkpt>
      <trkpt lat="48.90008" lon="4.40036">
        <ele>103.6</ele>
        <time>2020-06-30T14:58:14Z</time>
      </trkpt>
      <trkpt lat="48.90013" lon="4.4004">
        <ele>103.4</ele>
        <time>2020-06-30T14:58:15Z</time>
      </trkpt>
      <trkpt lat="48.90017" lon="4.40044">
        <ele>103.2</ele>
        <time>2020-06-30T14:58:16Z</time>
      </trkpt>
      <trkpt lat="48.90022" lon="4.40049">
        <ele>103</ele>
        <time>2020-06-30T14:58:17Z</time>
      </trkpt>
      <trkpt lat="48.90027" lon="4.40055">
        <ele>102.7</ele>
        <time>2020-06-30T14:58:18Z</time>
      </trkpt>
      <trkpt lat="48.90031" lon="4.40061">
        <ele>102.5</ele>
        <time>2020-06-30T14:58:19Z</time>
      </trkpt>
      <trkpt lat="48.90036" lon="4.40067">
        <ele>102.3</ele>
        <time>2020-06-30T14:58:20Z</time>
      </trkpt>
      <trkpt lat="48.9004" lon="4.40074">
        <ele>102</ele>
        <time>2020-06-30T14:58:21Z</time>
      </trkpt>
      <trkpt lat="48.90044" lon="4.4008">
        <ele>101.8</ele>
        <time>2020-06-30T14:58:22Z</time>
      </trkpt>
      <trkpt lat="48.90049" lon="4.40086">
        <ele>101.5</ele>
        <time>2020-06-30T14:58:23Z</time>
      </trkpt>
      <trkpt lat="48.90054" lon="4.40092">
        <ele>101.2</ele>
        <time>2020-06-30T14:58:24Z</time>
      </trkpt>
      <trkpt lat="48.9006" lon="4.40094">
        <ele>100.8</ele>
        <time>2020-06-30T14:58:25Z</time>
      </trkpt>
      <trkpt lat="48.90068" lon="4.40093">
        <ele>100.4</ele>
        <time>2020-06-30T14:58:26Z</time>
      </trkpt>
      <trkpt lat="48.90075" lon="4.4009">
        <ele>99.9</ele>
        <time>2020-06-30T14:58:27Z</time>
      </trkpt>
      <trkpt lat="48.90082" lon="4.40085">
        <ele>99.5</ele>
        <time>2020-06-30T14:58:28Z</time>
      </trkpt>
      <trkpt lat="48.90088" lon="4.40078">
        <ele>99.1</ele>
        <time>2020-06-30T14:58:29Z</time>
      </trkpt>
      <trkpt lat="48.90095" lon="4.40069">
        <ele>98.5</ele>
        <time>2020-06-30T14:58:30Z</time>
      </trkpt>
      <trkpt lat="48.90102" lon="4.40061">
        <ele>97.9</ele>
        <time>2020-06-30T14:58:31Z</time>
      </trkpt>
      <trkpt lat="48.9011" lon="4.40053">
        <ele>97.2</ele>
        <time>2020-06-30T14:58:32Z</time>
      </trkpt>
      <trkpt lat="48.90117" lon="4.40045">
        <ele>96.6</ele>
        <time>2020-06-30T14:58:33Z</time>
      </trkpt>
      <trkpt lat="48.90124" lon="4.40036">
        <ele>95.9</ele>
        <time>2020-06-30T14:58:34Z</time>
      </trkpt>
      <trkpt lat="48.90131" lon="4.40027">
        <ele>95.2</ele>
        <time>2020-06-30T14:58:35Z</time>
      </trkpt>
      <trkpt lat="48.90139" lon="4.40018">
        <ele>94.5</ele>
        <time>2020-06-30T14:58:36Z</time>
      </trkpt>
      <trkpt lat="48.90147" lon="4.40008">
        <ele>93.7</ele>
        <time>2020-06-30T14:58:37Z</time>
      </trkpt>
      <trkpt lat="48.90153" lon="4.39996">
        <ele>93</ele>
        <time>2020-06-30T14:58:38Z</time>
      </trkpt>
      <trkpt lat="48.9016" lon="4.39985">
        <ele>92.2</ele>
        <time>2020-06-30T14:58:39Z</time>
      </trkpt>
      <trkpt lat="48.90166" lon="4.39973">
        <ele>91.5</ele>
        <time>2020-06-30T14:58:40Z</time>
      </trkpt>
      <trkpt lat="48.90173" lon="4.39961">
        <ele>90.7</ele>
        <time>2020-06-30T14:58:41Z</time>
      </trkpt>
      <trkpt lat="48.90178" lon="4.39947">
        <ele>90</ele>
        <time>2020-06-30T14:58:42Z</time>
      </trkpt>
      <trkpt lat="48.9018" lon="4.39931">
        <ele>89.3</ele>
        <time>2020-06-30T14:58:43Z</time>
      </trkpt>
      <trkpt lat="48.90184" lon="4.39916">
        <ele>88.7</ele>
        <time>2020-06-30T14:58:44Z</time>
      </trkpt>
      <trkpt lat="48.90187" lon="4.39901">
        <ele>88.2</ele>
        <time>2020-06-30T14:58:45Z</time>
      </trkpt>
      <trkpt lat="48.9019" lon="4.39887">
        <ele>87.7</ele>
        <time>2020-06-30T14:58:46Z</time>
      </trkpt>
      <trkpt lat="48.90192" lon="4.39872">
        <ele>87.3</ele>
        <time>2020-06-30T14:58:47Z</time>
      </trkpt>
      <trkpt lat="48.90194" lon="4.39858">
        <ele>86.8</ele>
        <time>2020-06-30T14:58:48Z</time>
      </trkpt>
      <trkpt lat="48.90196" lon="4.39844">
        <ele>86.4</ele>
        <time>2020-06-30T14:58:49Z</time>
      </trkpt>
      <trkpt lat="48.90198" lon="4.3983">
        <ele>86.1</ele>
        <time>2020-06-30T14:58:50Z</time>
      </trkpt>
      <trkpt lat="48.902" lon="4.39817">
        <ele>85.7</ele>
        <time>2020-06-30T14:58:51Z</time>
      </trkpt>
      <trkpt lat="48.90202" lon="4.39804">
        <ele>85.4</ele>
        <time>2020-06-30T14:58:52Z</time>
      </trkpt>
      <trkpt lat="48.90205" lon="4.39791">
        <ele>85.2</ele>
        <time>2020-06-30T14:58:53Z</time>
      </trkpt>
      <trkpt lat="48.90207" lon="4.39779">
        <ele>84.9</ele>
        <time>2020-06-30T14:58:54Z</time>
      </trkpt>
      <trkpt lat="48.90209" lon="4.39767">
        <ele>84.7</ele>
        <time>2020-06-30T14:58:55Z</time>
      </trkpt>
      <trkpt lat="48.90213" lon="4.39756">
        <ele>84.6</ele>
        <time>2020-06-30T14:58:56Z</time>
      </trkpt>
      <trkpt lat="48.90218" lon="4.39747">
        <ele>84.6</ele>
        <time>2020-06-30T14:58:57Z</time>
      </trkpt>
      <trkpt lat="48.90223" lon="4.39739">
        <ele>84.6</ele>
        <time>2020-06-30T14:58:58Z</time>
      </trkpt>
      <trkpt lat="48.90228" lon="4.39731">
        <ele>84.5</ele>
        <time>2020-06-30T14:58:59Z</time>
      </trkpt>
      <trkpt lat="48.90233" lon="4.39724">
        <ele>84.5</ele>
        <time>2020-06-30T14:59:00Z</time>
      </trkpt>
      <trkpt lat="48.90236" lon="4.39717">
        <ele>84.5</ele>
        <time>2020-06-30T14:59:01Z</time>
      </trkpt>
      <trkpt lat="48.90239" lon="4.39712">
        <ele>84.5</ele>
        <time>2020-06-30T14:59:02Z</time>
      </trkpt>
      <trkpt lat="48.90242" lon="4.39707">
        <ele>84.6</ele>
        <time>2020-06-30T14:59:03Z</time>
      </trkpt>
      <trkpt lat="48.90246" lon="4.39704">
        <ele>84.7</ele>
        <time>2020-06-30T14:59:04Z</time>
      </trkpt>
      <trkpt lat="48.9025" lon="4.397">
        <ele>84.7</ele>
        <time>2020-06-30T14:59:05Z</time>
      </trkpt>
      <trkpt lat="48.90253" lon="4.39695">
        <ele>84.8</ele>
        <time>2020-06-30T14:59:06Z</time>
      </trkpt>
      <trkpt lat="48.90256" lon="4.3969">
        <ele>84.9</ele>
        <time>2020-06-30T14:59:07Z</time>
      </trkpt>
      <trkpt lat="48.9026" lon="4.39691">
        <ele>84.9</ele>
        <time>2020-06-30T14:59:08Z</time>
      </trkpt>
      <trkpt lat="48.90265" lon="4.39694">
        <ele>84.8</ele>
        <time>2020-06-30T14:59:09Z</time>
      </trkpt>
      <trkpt lat="48.90268" lon="4.39702">
        <ele>84.7</ele>
        <time>2020-06-30T14:59:10Z</time>
      </trkpt>
      <trkpt lat="48.90272" lon="4.3971">
        <ele>84.6</ele>
        <time>2020-06-30T14:59:11Z</time>
      </trkpt>
      <trkpt lat="48.90277" lon="4.39717">
        <ele>84.5</ele>
        <time>2020-06-30T14:59:12Z</time>
      </trkpt>
      <trkpt lat="48.90281" lon="4.39723">
        <ele>84.4</ele>
        <time>2020-06-30T14:59:13Z</time>
      </trkpt>
      <trkpt lat="48.90286" lon="4.3973">
        <ele>84.4</ele>
        <time>2020-06-30T14:59:14Z</time>
      </trkpt>
      <trkpt lat="48.9029" lon="4.39736">
        <ele>84.5</ele>
        <time>2020-06-30T14:59:15Z</time>
      </trkpt>
      <trkpt lat="48.90295" lon="4.39742">
        <ele>84.5</ele>
        <time>2020-06-30T14:59:16Z</time>
      </trkpt>
      <trkpt lat="48.90299" lon="4.39748">
        <ele>84.6</ele>
        <time>2020-06-30T14:59:17Z</time>
      </trkpt>
      <trkpt lat="48.90304" lon="4.39753">
        <ele>84.7</ele>
        <time>2020-06-30T14:59:18Z</time>
      </trkpt>
      <trkpt lat="48.90308" lon="4.39757">
        <ele>84.8</ele>
        <time>2020-06-30T14:59:19Z</time>
      </trkpt>
      <trkpt lat="48.90311" lon="4.3976">
        <ele>84.9</ele>
        <time>2020-06-30T14:59:20Z</time>
      </trkpt>
      <trkpt lat="48.90314" lon="4.39762">
        <ele>84.9</ele>
        <time>2020-06-30T14:59:21Z</time>
      </trkpt>
      <trkpt lat="48.90316" lon="4.39766">
        <ele>84.9</ele>
        <time>2020-06-30T14:59:22Z</time>
      </trkpt>
      <trkpt lat="48.90318" lon="4.39769">
        <ele>84.9</ele>
        <time>2020-06-30T14:59:23Z</time>
      </trkpt>
      <trkpt lat="48.90321" lon="4.39772">
        <ele>84.9</ele>
        <time>2020-06-30T14:59:24Z</time>
      </trkpt>
      <trkpt lat="48.90324" lon="4.39775">
        <ele>84.9</ele>
        <time>2020-06-30T14:59:25Z</time>
      </trkpt>
      <trkpt lat="48.90327" lon="4.39779">
        <ele>84.9</ele>
        <time>2020-06-30T14:59:26Z</time>
      </trkpt>
      <trkpt lat="48.90331" lon="4.39783">
        <ele>85</ele>
        <time>2020-06-30T14:59:27Z</time>
      </trkpt>
      <trkpt lat="48.90334" lon="4.39787">
        <ele>85</ele>
        <time>2020-06-30T14:59:28Z</time>
      </trkpt>
      <trkpt lat="48.90336" lon="4.39789">
        <ele>85</ele>
        <time>2020-06-30T14:59:29Z</time>
      </trkpt>
      <trkpt lat="48.90339" lon="4.39792">
        <ele>85</ele>
        <time>2020-06-30T14:59:30Z</time>
      </trkpt>
      <trkpt lat="48.90342" lon="4.39794">
        <ele>85</ele>
        <time>2020-06-30T14:59:31Z</time>
      </trkpt>
      <trkpt lat="48.90345" lon="4.39797">
        <ele>85</ele>
        <time>2020-06-30T14:59:32Z</time>
      </trkpt>
      <trkpt lat="48.90347" lon="4.398">
        <ele>84.9</ele>
        <time>2020-06-30T14:59:33Z</time>
      </trkpt>
      <trkpt lat="48.90349" lon="4.39802">
        <ele>84.9</ele>
        <time>2020-06-30T14:59:34Z</time>
      </trkpt>
      <trkpt lat="48.90352" lon="4.39804">
        <ele>84.9</ele>
        <time>2020-06-30T14:59:35Z</time>
      </trkpt>
      <trkpt lat="48.90354" lon="4.39807">
        <ele>84.8</ele>
        <time>2020-06-30T14:59:36Z</time>
      </trkpt>
      <trkpt lat="48.90357" lon="4.3981">
        <ele>84.7</ele>
        <time>2020-06-30T14:59:37Z</time>
      </trkpt>
      <trkpt lat="48.90358" lon="4.39811">
        <ele>84.7</ele>
        <time>2020-06-30T14:59:38Z</time>
      </trkpt>
      <trkpt lat="48.90361" lon="4.39814">
        <ele>84.6</ele>
        <time>2020-06-30T14:59:39Z</time>
      </trkpt>
      <trkpt lat="48.90363" lon="4.39817">
        <ele>84.5</ele>
        <time>2020-06-30T14:59:40Z</time>
      </trkpt>
      <trkpt lat="48.90366" lon="4.3982">
        <ele>84.5</ele>
        <time>2020-06-30T14:59:41Z</time>
      </trkpt>
      <trkpt lat="48.90369" lon="4.39823">
        <ele>84.4</ele>
        <time>2020-06-30T14:59:42Z</time>
      </trkpt>
      <trkpt lat="48.90372" lon="4.39825">
        <ele>84.3</ele>
        <time>2020-06-30T14:59:43Z</time>
      </trkpt>
      <trkpt lat="48.90375" lon="4.39828">
        <ele>84.2</ele>
        <time>2020-06-30T14:59:44Z</time>
      </trkpt>
      <trkpt lat="48.90379" lon="4.39831">
        <ele>84.1</ele>
        <time>2020-06-30T14:59:45Z</time>
      </trkpt>
      <trkpt lat="48.90383" lon="4.39834">
        <ele>83.9</ele>
        <time>2020-06-30T14:59:46Z</time>
      </trkpt>
      <trkpt lat="48.90387" lon="4.39839">
        <ele>83.9</ele>
        <time>2020-06-30T14:59:47Z</time>
      </trkpt>
      <trkpt lat="48.90392" lon="4.39843">
        <ele>83.9</ele>
        <time>2020-06-30T14:59:48Z</time>
      </trkpt>
      <trkpt lat="48.90396" lon="4.39848">
        <ele>83.9</ele>
        <time>2020-06-30T14:59:49Z</time>
      </trkpt>
      <trkpt lat="48.904" lon="4.39852">
        <ele>83.8</ele>
        <time>2020-06-30T14:59:50Z</time>
      </trkpt>
      <trkpt lat="48.90404" lon="4.39856">
        <ele>83.8</ele>
        <time>2020-06-30T14:59:51Z</time>
      </trkpt>
      <trkpt lat="48.90408" lon="4.3986">
        <ele>83.7</ele>
        <time>2020-06-30T14:59:52Z</time>
      </trkpt>
      <trkpt lat="48.90412" lon="4.39863">
        <ele>83.6</ele>
        <time>2020-06-30T14:59:53Z</time>
      </trkpt>
      <trkpt lat="48.90418" lon="4.39864">
        <ele>83.5</ele>
        <time>2020-06-30T14:59:54Z</time>
      </trkpt>
      <trkpt lat="48.90424" lon="4.39866">
        <ele>83.4</ele>
        <time>2020-06-30T14:59:55Z</time>
      </trkpt>
      <trkpt lat="48.9043" lon="4.39869">
        <ele>83.3</ele>
        <time>2020-06-30T14:59:56Z</time>
      </trkpt>
      <trkpt lat="48.90437" lon="4.39872">
        <ele>83.2</ele>
        <time>2020-06-30T14:59:57Z</time>
      </trkpt>
      <trkpt lat="48.90444" lon="4.39875">
        <ele>83.1</ele>
        <time>2020-06-30T14:59:58Z</time>
      </trkpt>
      <trkpt lat="48.90451" lon="4.39878">
        <ele>83</ele>
        <time>2020-06-30T14:59:59Z</time>
      </trkpt>
      <trkpt lat="48.90458" lon="4.39878">
        <ele>82.8</ele>
        <time>2020-06-30T15:00:00Z</time>
      </trkpt>
      <trkpt lat="48.90465" lon="4.39879">
        <ele>82.8</ele>
        <time>2020-06-30T15:00:01Z</time>
      </trkpt>
      <trkpt lat="48.90472" lon="4.39879">
        <ele>82.7</ele>
        <time>2020-06-30T15:00:02Z</time>
      </trkpt>
      <trkpt lat="48.90479" lon="4.39878">
        <ele>82.7</ele>
        <time>2020-06-30T15:00:03Z</time>
      </trkpt>
      <trkpt lat="48.90486" lon="4.39877">
        <ele>82.6</ele>
        <time>2020-06-30T15:00:04Z</time>
      </trkpt>
      <trkpt lat="48.90493" lon="4.39877">
        <ele>82.6</ele>
        <time>2020-06-30T15:00:05Z</time>
      </trkpt>
      <trkpt lat="48.90499" lon="4.39877">
        <ele>82.5</ele>
        <time>2020-06-30T15:00:06Z</time>
      </trkpt>
      <trkpt lat="48.90506" lon="4.39877">
        <ele>82.5</ele>
        <time>2020-06-30T15:00:07Z</time>
      </trkpt>
      <trkpt lat="48.90513" lon="4.39877">
        <ele>82.4</ele>
        <time>2020-06-30T15:00:08Z</time>
      </trkpt>
      <trkpt lat="48.9052" lon="4.39878">
        <ele>82.4</ele>
        <time>2020-06-30T15:00:09Z</time>
      </trkpt>
      <trkpt lat="48.90526" lon="4.39879">
        <ele>82.4</ele>
        <time>2020-06-30T15:00:10Z</time>
      </trkpt>
      <trkpt lat="48.90533" lon="4.39879">
        <ele>82.4</ele>
        <time>2020-06-30T15:00:11Z</time>
      </trkpt>
      <trkpt lat="48.90539" lon="4.3988">
        <ele>82.4</ele>
        <time>2020-06-30T15:00:12Z</time>
      </trkpt>
      <trkpt lat="48.90546" lon="4.3988">
        <ele>82.4</ele>
        <time>2020-06-30T15:00:13Z</time>
      </trkpt>
      <trkpt lat="48.90552" lon="4.39882">
        <ele>82.3</ele>
        <time>2020-06-30T15:00:14Z</time>
      </trkpt>
      <trkpt lat="48.90559" lon="4.39884">
        <ele>82.3</ele>
        <time>2020-06-30T15:00:15Z</time>
      </trkpt>
      <trkpt lat="48.90565" lon="4.39884">
        <ele>82.3</ele>
        <time>2020-06-30T15:00:16Z</time>
      </trkpt>
      <trkpt lat="48.90572" lon="4.39883">
        <ele>82.2</ele>
        <time>2020-06-30T15:00:17Z</time>
      </trkpt>
      <trkpt lat="48.90579" lon="4.39883">
        <ele>82.2</ele>
        <time>2020-06-30T15:00:18Z</time>
      </trkpt>
      <trkpt lat="48.90585" lon="4.39883">
        <ele>82.2</ele>
        <time>2020-06-30T15:00:19Z</time>
      </trkpt>
      <trkpt lat="48.90591" lon="4.39884">
        <ele>82.1</ele>
        <time>2020-06-30T15:00:20Z</time>
      </trkpt>
      <trkpt lat="48.90598" lon="4.39884">
        <ele>82.1</ele>
        <time>2020-06-30T15:00:21Z</time>
      </trkpt>
      <trkpt lat="48.90604" lon="4.39884">
        <ele>82.1</ele>
        <time>2020-06-30T15:00:22Z</time>
      </trkpt>
      <trkpt lat="48.9061" lon="4.39884">
        <ele>82.2</ele>
        <time>2020-06-30T15:00:23Z</time>
      </trkpt>
      <trkpt lat="48.90616" lon="4.39885">
        <ele>82.2</ele>
        <time>2020-06-30T15:00:24Z</time>
      </trkpt>
      <trkpt lat="48.90622" lon="4.39885">
        <ele>82.2</ele>
        <time>2020-06-30T15:00:25Z</time>
      </trkpt>
      <trkpt lat="48.90629" lon="4.39885">
        <ele>82.3</ele>
        <time>2020-06-30T15:00:26Z</time>
      </trkpt>
      <trkpt lat="48.90635" lon="4.39884">
        <ele>82.4</ele>
        <time>2020-06-30T15:00:27Z</time>
      </trkpt>
      <trkpt lat="48.90641" lon="4.39885">
        <ele>82.4</ele>
        <time>2020-06-30T15:00:28Z</time>
      </trkpt>
      <trkpt lat="48.90647" lon="4.39886">
        <ele>82.4</ele>
        <time>2020-06-30T15:00:29Z</time>
      </trkpt>
      <trkpt lat="48.90653" lon="4.39886">
        <ele>82.3</ele>
        <time>2020-06-30T15:00:30Z</time>
      </trkpt>
      <trkpt lat="48.90659" lon="4.39887">
        <ele>82.3</ele>
        <time>2020-06-30T15:00:31Z</time>
      </trkpt>
      <trkpt lat="48.90665" lon="4.39887">
        <ele>82.3</ele>
        <time>2020-06-30T15:00:32Z</time>
      </trkpt>
      <trkpt lat="48.90672" lon="4.39887">
        <ele>82.2</ele>
        <time>2020-06-30T15:00:33Z</time>
      </trkpt>
      <trkpt lat="48.90678" lon="4.39887">
        <ele>82.2</ele>
        <time>2020-06-30T15:00:34Z</time>
      </trkpt>
      <trkpt lat="48.90684" lon="4.39887">
        <ele>82.2</ele>
        <time>2020-06-30T15:00:35Z</time>
      </trkpt>
      <trkpt lat="48.90691" lon="4.39887">
        <ele>82.2</ele>
        <time>2020-06-30T15:00:36Z</time>
      </trkpt>
      <trkpt lat="48.90697" lon="4.39887">
        <ele>82.2</ele>
        <time>2020-06-30T15:00:37Z</time>
      </trkpt>
      <trkpt lat="48.90704" lon="4.39886">
        <ele>82.2</ele>
        <time>2020-06-30T15:00:38Z</time>
      </trkpt>
      <trkpt lat="48.9071" lon="4.39886">
        <ele>82.3</ele>
        <time>2020-06-30T15:00:39Z</time>
      </trkpt>
      <trkpt lat="48.90716" lon="4.39886">
        <ele>82.3</ele>
        <time>2020-06-30T15:00:40Z</time>
      </trkpt>
      <trkpt lat="48.90722" lon="4.39887">
        <ele>82.3</ele>
        <time>2020-06-30T15:00:41Z</time>
      </trkpt>
      <trkpt lat="48.90727" lon="4.39887">
        <ele>82.4</ele>
        <time>2020-06-30T15:00:42Z</time>
      </trkpt>
      <trkpt lat="48.90732" lon="4.39886">
        <ele>82.4</ele>
        <time>2020-06-30T15:00:43Z</time>
      </trkpt>
      <trkpt lat="48.90738" lon="4.39887">
        <ele>82.4</ele>
        <time>2020-06-30T15:00:44Z</time>
      </trkpt>
      <trkpt lat="48.90743" lon="4.39886">
        <ele>82.5</ele>
        <time>2020-06-30T15:00:45Z</time>
      </trkpt>
      <trkpt lat="48.90749" lon="4.39886">
        <ele>82.5</ele>
        <time>2020-06-30T15:00:46Z</time>
      </trkpt>
      <trkpt lat="48.90754" lon="4.39885">
        <ele>82.5</ele>
        <time>2020-06-30T15:00:47Z</time>
      </trkpt>
      <trkpt lat="48.90759" lon="4.39885">
        <ele>82.5</ele>
        <time>2020-06-30T15:00:48Z</time>
      </trkpt>
      <trkpt lat="48.90764" lon="4.39885">
        <ele>82.5</ele>
        <time>2020-06-30T15:00:49Z</time>
      </trkpt>
      <trkpt lat="48.90769" lon="4.39884">
        <ele>82.5</ele>
        <time>2020-06-30T15:00:50Z</time>
      </trkpt>
      <trkpt lat="48.90774" lon="4.39883">
        <ele>82.5</ele>
        <time>2020-06-30T15:00:51Z</time>
      </trkpt>
      <trkpt lat="48.9078" lon="4.39884">
        <ele>82.5</ele>
        <time>2020-06-30T15:00:52Z</time>
      </trkpt>
      <trkpt lat="48.90785" lon="4.39883">
        <ele>82.5</ele>
        <time>2020-06-30T15:00:53Z</time>
      </trkpt>
      <trkpt lat="48.9079" lon="4.39884">
        <ele>82.5</ele>
        <time>2020-06-30T15:00:54Z</time>
      </trkpt>
      <trkpt lat="48.90796" lon="4.39884">
        <ele>82.5</ele>
        <time>2020-06-30T15:00:55Z</time>
      </trkpt>
      <trkpt lat="48.90801" lon="4.39883">
        <ele>82.5</ele>
        <time>2020-06-30T15:00:56Z</time>
      </trkpt>
      <trkpt lat="48.90806" lon="4.39885">
        <ele>82.5</ele>
        <time>2020-06-30T15:00:57Z</time>
      </trkpt>
      <trkpt lat="48.90811" lon="4.39885">
        <ele>82.5</ele>
        <time>2020-06-30T15:00:58Z</time>
      </trkpt>
      <trkpt lat="48.90816" lon="4.39885">
        <ele>82.5</ele>
        <time>2020-06-30T15:00:59Z</time>
      </trkpt>
      <trkpt lat="48.90821" lon="4.39885">
        <ele>82.5</ele>
        <time>2020-06-30T15:01:00Z</time>
      </trkpt>
      <trkpt lat="48.90826" lon="4.39885">
        <ele>82.5</ele>
        <time>2020-06-30T15:01:01Z</time>
      </trkpt>
      <trkpt lat="48.90831" lon="4.39884">
        <ele>82.5</ele>
        <time>2020-06-30T15:01:02Z</time>
      </trkpt>
      <trkpt lat="48.90836" lon="4.39885">
        <ele>82.5</ele>
        <time>2020-06-30T15:01:03Z</time>
      </trkpt>
      <trkpt lat="48.90842" lon="4.39885">
        <ele>82.5</ele>
        <time>2020-06-30T15:01:04Z</time>
      </trkpt>
      <trkpt lat="48.90847" lon="4.39884">
        <ele>82.5</ele>
        <time>2020-06-30T15:01:05Z</time>
      </trkpt>
      <trkpt lat="48.90853" lon="4.39884">
        <ele>82.5</ele>
        <time>2020-06-30T15:01:06Z</time>
      </trkpt>
      <trkpt lat="48.90858" lon="4.39883">
        <ele>82.5</ele>
        <time>2020-06-30T15:01:07Z</time>
      </trkpt>
      <trkpt lat="48.90864" lon="4.39884">
        <ele>82.5</ele>
        <time>2020-06-30T15:01:08Z</time>
      </trkpt>
      <trkpt lat="48.90869" lon="4.39886">
        <ele>82.5</ele>
        <time>2020-06-30T15:01:09Z</time>
      </trkpt>
      <trkpt lat="48.90875" lon="4.39887">
        <ele>82.4</ele>
        <time>2020-06-30T15:01:10Z</time>
      </trkpt>
      <trkpt lat="48.90881" lon="4.39887">
        <ele>82.4</ele>
        <time>2020-06-30T15:01:11Z</time>
      </trkpt>
      <trkpt lat="48.90887" lon="4.39884">
        <ele>82.3</ele>
        <time>2020-06-30T15:01:12Z</time>
      </trkpt>
      <trkpt lat="48.90893" lon="4.39884">
        <ele>82.3</ele>
        <time>2020-06-30T15:01:13Z</time>
      </trkpt>
      <trkpt lat="48.909" lon="4.39883">
        <ele>82.2</ele>
        <time>2020-06-30T15:01:14Z</time>
      </trkpt>
      <trkpt lat="48.90907" lon="4.39881">
        <ele>82.2</ele>
        <time>2020-06-30T15:01:15Z</time>
      </trkpt>
      <trkpt lat="48.90913" lon="4.3988">
        <ele>82.2</ele>
        <time>2020-06-30T15:01:16Z</time>
      </trkpt>
      <trkpt lat="48.90919" lon="4.39881">
        <ele>82.1</ele>
        <time>2020-06-30T15:01:17Z</time>
      </trkpt>
      <trkpt lat="48.90925" lon="4.39879">
        <ele>82.1</ele>
        <time>2020-06-30T15:01:18Z</time>
      </trkpt>
      <trkpt lat="48.90931" lon="4.39879">
        <ele>82.1</ele>
        <time>2020-06-30T15:01:19Z</time>
      </trkpt>
      <trkpt lat="48.90938" lon="4.39879">
        <ele>82.1</ele>
        <time>2020-06-30T15:01:20Z</time>
      </trkpt>
      <trkpt lat="48.90944" lon="4.39878">
        <ele>82.1</ele>
        <time>2020-06-30T15:01:21Z</time>
      </trkpt>
      <trkpt lat="48.90951" lon="4.39878">
        <ele>82.1</ele>
        <time>2020-06-30T15:01:22Z</time>
      </trkpt>
      <trkpt lat="48.90958" lon="4.39878">
        <ele>82.1</ele>
        <time>2020-06-30T15:01:23Z</time>
      </trkpt>
      <trkpt lat="48.90965" lon="4.3988">
        <ele>82.1</ele>
        <time>2020-06-30T15:01:24Z</time>
      </trkpt>
      <trkpt lat="48.90971" lon="4.3988">
        <ele>82.1</ele>
        <time>2020-06-30T15:01:25Z</time>
      </trkpt>
      <trkpt lat="48.90978" lon="4.3988">
        <ele>82.1</ele>
        <time>2020-06-30T15:01:26Z</time>
      </trkpt>
      <trkpt lat="48.90984" lon="4.39882">
        <ele>82.1</ele>
        <time>2020-06-30T15:01:27Z</time>
      </trkpt>
      <trkpt lat="48.90991" lon="4.39883">
        <ele>82.1</ele>
        <time>2020-06-30T15:01:28Z</time>
      </trkpt>
      <trkpt lat="48.90997" lon="4.39885">
        <ele>82.1</ele>
        <time>2020-06-30T15:01:29Z</time>
      </trkpt>
      <trkpt lat="48.91002" lon="4.39886">
        <ele>82.1</ele>
        <time>2020-06-30T15:01:30Z</time>
      </trkpt>
      <trkpt lat="48.91008" lon="4.39885">
        <ele>82.2</ele>
        <time>2020-06-30T15:01:31Z</time>
      </trkpt>
      <trkpt lat="48.91014" lon="4.39886">
        <ele>82.2</ele>
        <time>2020-06-30T15:01:32Z</time>
      </trkpt>
      <trkpt lat="48.9102" lon="4.39886">
        <ele>82.2</ele>
        <time>2020-06-30T15:01:33Z</time>
      </trkpt>
      <trkpt lat="48.91026" lon="4.39888">
        <ele>82.3</ele>
        <time>2020-06-30T15:01:34Z</time>
      </trkpt>
      <trkpt lat="48.91032" lon="4.39889">
        <ele>82.3</ele>
        <time>2020-06-30T15:01:35Z</time>
      </trkpt>
      <trkpt lat="48.91037" lon="4.39888">
        <ele>82.4</ele>
        <time>2020-06-30T15:01:36Z</time>
      </trkpt>
      <trkpt lat="48.91043" lon="4.39888">
        <ele>82.4</ele>
        <time>2020-06-30T15:01:37Z</time>
      </trkpt>
      <trkpt lat="48.91049" lon="4.39887">
        <ele>82.4</ele>
        <time>2020-06-30T15:01:38Z</time>
      </trkpt>
      <trkpt lat="48.91056" lon="4.39888">
        <ele>82.4</ele>
        <time>2020-06-30T15:01:39Z</time>
      </trkpt>
      <trkpt lat="48.91062" lon="4.39889">
        <ele>82.5</ele>
        <time>2020-06-30T15:01:40Z</time>
      </trkpt>
      <trkpt lat="48.91069" lon="4.3989">
        <ele>82.5</ele>
        <time>2020-06-30T15:01:41Z</time>
      </trkpt>
      <trkpt lat="48.91075" lon="4.39889">
        <ele>82.4</ele>
        <time>2020-06-30T15:01:42Z</time>
      </trkpt>
      <trkpt lat="48.91082" lon="4.39887">
        <ele>82.4</ele>
        <time>2020-06-30T15:01:43Z</time>
      </trkpt>
      <trkpt lat="48.91088" lon="4.39885">
        <ele>82.4</ele>
        <time>2020-06-30T15:01:44Z</time>
      </trkpt>
      <trkpt lat="48.91095" lon="4.39884">
        <ele>82.4</ele>
        <time>2020-06-30T15:01:45Z</time>
      </trkpt>
      <trkpt lat="48.91103" lon="4.3989">
        <ele>82.4</ele>
        <time>2020-06-30T15:01:46Z</time>
      </trkpt>
      <trkpt lat="48.9111" lon="4.39895">
        <ele>82.4</ele>
        <time>2020-06-30T15:01:47Z</time>
      </trkpt>
      <trkpt lat="48.91117" lon="4.39897">
        <ele>82.3</ele>
        <time>2020-06-30T15:01:48Z</time>
      </trkpt>
      <trkpt lat="48.91125" lon="4.39899">
        <ele>82.3</ele>
        <time>2020-06-30T15:01:49Z</time>
      </trkpt>
      <trkpt lat="48.91132" lon="4.399">
        <ele>82.3</ele>
        <time>2020-06-30T15:01:50Z</time>
      </trkpt>
      <trkpt lat="48.91141" lon="4.39898">
        <ele>82.3</ele>
        <time>2020-06-30T15:01:51Z</time>
      </trkpt>
      <trkpt lat="48.91149" lon="4.399">
        <ele>82.3</ele>
        <time>2020-06-30T15:01:52Z</time>
      </trkpt>
      <trkpt lat="48.91156" lon="4.39903">
        <ele>82.2</ele>
        <time>2020-06-30T15:01:53Z</time>
      </trkpt>
      <trkpt lat="48.91164" lon="4.39904">
        <ele>82.2</ele>
        <time>2020-06-30T15:01:54Z</time>
      </trkpt>
      <trkpt lat="48.91172" lon="4.39904">
        <ele>82.1</ele>
        <time>2020-06-30T15:01:55Z</time>
      </trkpt>
      <trkpt lat="48.9118" lon="4.39904">
        <ele>82.1</ele>
        <time>2020-06-30T15:01:56Z</time>
      </trkpt>
      <trkpt lat="48.91188" lon="4.39904">
        <ele>82.1</ele>
        <time>2020-06-30T15:01:57Z</time>
      </trkpt>
      <trkpt lat="48.91195" lon="4.39904">
        <ele>82.1</ele>
        <time>2020-06-30T15:01:58Z</time>
      </trkpt>
      <trkpt lat="48.91202" lon="4.39905">
        <ele>82.1</ele>
        <time>2020-06-30T15:01:59Z</time>
      </trkpt>
      <trkpt lat="48.9121" lon="4.39905">
        <ele>82.1</ele>
        <time>2020-06-30T15:02:00Z</time>
      </trkpt>
      <trkpt lat="48.91217" lon="4.39906">
        <ele>82.1</ele>
        <time>2020-06-30T15:02:01Z</time>
      </trkpt>
      <trkpt lat="48.91224" lon="4.39906">
        <ele>82.1</ele>
        <time>2020-06-30T15:02:02Z</time>
      </trkpt>
      <trkpt lat="48.91231" lon="4.39907">
        <ele>82.2</ele>
        <time>2020-06-30T15:02:03Z</time>
      </trkpt>
      <trkpt lat="48.91238" lon="4.39907">
        <ele>82.2</ele>
        <time>2020-06-30T15:02:04Z</time>
      </trkpt>
      <trkpt lat="48.91245" lon="4.39907">
        <ele>82.1</ele>
        <time>2020-06-30T15:02:05Z</time>
      </trkpt>
      <trkpt lat="48.91252" lon="4.39907">
        <ele>82.1</ele>
        <time>2020-06-30T15:02:06Z</time>
      </trkpt>
      <trkpt lat="48.91259" lon="4.39908">
        <ele>82.1</ele>
        <time>2020-06-30T15:02:07Z</time>
      </trkpt>
      <trkpt lat="48.91266" lon="4.39909">
        <ele>82.1</ele>
        <time>2020-06-30T15:02:08Z</time>
      </trkpt>
      <trkpt lat="48.91273" lon="4.39909">
        <ele>82</ele>
        <time>2020-06-30T15:02:09Z</time>
      </trkpt>
      <trkpt lat="48.9128" lon="4.39909">
        <ele>82</ele>
        <time>2020-06-30T15:02:10Z</time>
      </trkpt>
      <trkpt lat="48.91287" lon="4.3991">
        <ele>82</ele>
        <time>2020-06-30T15:02:11Z</time>
      </trkpt>
      <trkpt lat="48.91294" lon="4.3991">
        <ele>82</ele>
        <time>2020-06-30T15:02:12Z</time>
      </trkpt>
      <trkpt lat="48.91301" lon="4.3991">
        <ele>82</ele>
        <time>2020-06-30T15:02:13Z</time>
      </trkpt>
      <trkpt lat="48.91308" lon="4.3991">
        <ele>82</ele>
        <time>2020-06-30T15:02:14Z</time>
      </trkpt>
      <trkpt lat="48.91315" lon="4.39909">
        <ele>82</ele>
        <time>2020-06-30T15:02:15Z</time>
      </trkpt>
      <trkpt lat="48.91322" lon="4.3991">
        <ele>82</ele>
        <time>2020-06-30T15:02:16Z</time>
      </trkpt>
      <trkpt lat="48.91329" lon="4.39911">
        <ele>82</ele>
        <time>2020-06-30T15:02:17Z</time>
      </trkpt>
      <trkpt lat="48.91336" lon="4.39911">
        <ele>81.9</ele>
        <time>2020-06-30T15:02:18Z</time>
      </trkpt>
      <trkpt lat="48.91343" lon="4.39912">
        <ele>81.9</ele>
        <time>2020-06-30T15:02:19Z</time>
      </trkpt>
      <trkpt lat="48.9135" lon="4.39912">
        <ele>81.9</ele>
        <time>2020-06-30T15:02:20Z</time>
      </trkpt>
      <trkpt lat="48.91357" lon="4.39911">
        <ele>81.9</ele>
        <time>2020-06-30T15:02:21Z</time>
      </trkpt>
      <trkpt lat="48.91364" lon="4.39911">
        <ele>81.9</ele>
        <time>2020-06-30T15:02:22Z</time>
      </trkpt>
      <trkpt lat="48.91371" lon="4.39912">
        <ele>81.9</ele>
        <time>2020-06-30T15:02:23Z</time>
      </trkpt>
      <trkpt lat="48.91378" lon="4.39912">
        <ele>81.9</ele>
        <time>2020-06-30T15:02:24Z</time>
      </trkpt>
      <trkpt lat="48.91385" lon="4.39913">
        <ele>81.8</ele>
        <time>2020-06-30T15:02:25Z</time>
      </trkpt>
      <trkpt lat="48.91392" lon="4.39913">
        <ele>81.8</ele>
        <time>2020-06-30T15:02:26Z</time>
      </trkpt>
      <trkpt lat="48.91399" lon="4.39914">
        <ele>81.8</ele>
        <time>2020-06-30T15:02:27Z</time>
      </trkpt>
      <trkpt lat="48.91406" lon="4.39914">
        <ele>81.8</ele>
        <time>2020-06-30T15:02:28Z</time>
      </trkpt>
      <trkpt lat="48.91413" lon="4.39915">
        <ele>81.8</ele>
        <time>2020-06-30T15:02:29Z</time>
      </trkpt>
      <trkpt lat="48.9142" lon="4.39915">
        <ele>81.8</ele>
        <time>2020-06-30T15:02:30Z</time>
      </trkpt>
      <trkpt lat="48.91427" lon="4.39914">
        <ele>81.8</ele>
        <time>2020-06-30T15:02:31Z</time>
      </trkpt>
      <trkpt lat="48.91435" lon="4.39915">
        <ele>81.8</ele>
        <time>2020-06-30T15:02:32Z</time>
      </trkpt>
      <trkpt lat="48.91442" lon="4.39915">
        <ele>81.8</ele>
        <time>2020-06-30T15:02:33Z</time>
      </trkpt>
      <trkpt lat="48.91449" lon="4.39914">
        <ele>81.7</ele>
        <time>2020-06-30T15:02:34Z</time>
      </trkpt>
      <trkpt lat="48.91456" lon="4.39914">
        <ele>81.7</ele>
        <time>2020-06-30T15:02:35Z</time>
      </trkpt>
      <trkpt lat="48.91463" lon="4.39914">
        <ele>81.7</ele>
        <time>2020-06-30T15:02:36Z</time>
      </trkpt>
      <trkpt lat="48.91471" lon="4.39914">
        <ele>81.7</ele>
        <time>2020-06-30T15:02:37Z</time>
      </trkpt>
      <trkpt lat="48.91478" lon="4.39913">
        <ele>81.7</ele>
        <time>2020-06-30T15:02:38Z</time>
      </trkpt>
      <trkpt lat="48.91485" lon="4.39912">
        <ele>81.7</ele>
        <time>2020-06-30T15:02:39Z</time>
      </trkpt>
      <trkpt lat="48.91493" lon="4.39912">
        <ele>81.7</ele>
        <time>2020-06-30T15:02:40Z</time>
      </trkpt>
      <trkpt lat="48.915" lon="4.39912">
        <ele>81.6</ele>
        <time>2020-06-30T15:02:41Z</time>
      </trkpt>
      <trkpt lat="48.91508" lon="4.39912">
        <ele>81.6</ele>
        <time>2020-06-30T15:02:42Z</time>
      </trkpt>
      <trkpt lat="48.91515" lon="4.39912">
        <ele>81.6</ele>
        <time>2020-06-30T15:02:43Z</time>
      </trkpt>
      <trkpt lat="48.91522" lon="4.39911">
        <ele>81.6</ele>
        <time>2020-06-30T15:02:44Z</time>
      </trkpt>
      <trkpt lat="48.91529" lon="4.3991">
        <ele>81.6</ele>
        <time>2020-06-30T15:02:45Z</time>
      </trkpt>
      <trkpt lat="48.91536" lon="4.39909">
        <ele>81.6</ele>
        <time>2020-06-30T15:02:46Z</time>
      </trkpt>
      <trkpt lat="48.91544" lon="4.39909">
        <ele>81.6</ele>
        <time>2020-06-30T15:02:47Z</time>
      </trkpt>
      <trkpt lat="48.91551" lon="4.39909">
        <ele>81.6</ele>
        <time>2020-06-30T15:02:48Z</time>
      </trkpt>
      <trkpt lat="48.91558" lon="4.39908">
        <ele>81.6</ele>
        <time>2020-06-30T15:02:49Z</time>
      </trkpt>
      <trkpt lat="48.91565" lon="4.39906">
        <ele>81.6</ele>
        <time>2020-06-30T15:02:50Z</time>
      </trkpt>
      <trkpt lat="48.91572" lon="4.39904">
        <ele>81.5</ele>
        <time>2020-06-30T15:02:51Z</time>
      </trkpt>
      <trkpt lat="48.91579" lon="4.39903">
        <ele>81.5</ele>
        <time>2020-06-30T15:02:52Z</time>
      </trkpt>
      <trkpt lat="48.91586" lon="4.39901">
        <ele>81.4</ele>
        <time>2020-06-30T15:02:53Z</time>
      </trkpt>
      <trkpt lat="48.91593" lon="4.39898">
        <ele>81.4</ele>
        <time>2020-06-30T15:02:54Z</time>
      </trkpt>
      <trkpt lat="48.916" lon="4.39896">
        <ele>81.4</ele>
        <time>2020-06-30T15:02:55Z</time>
      </trkpt>
      <trkpt lat="48.91606" lon="4.39894">
        <ele>81.4</ele>
        <time>2020-06-30T15:02:56Z</time>
      </trkpt>
      <trkpt lat="48.91613" lon="4.39891">
        <ele>81.3</ele>
        <time>2020-06-30T15:02:57Z</time>
      </trkpt>
      <trkpt lat="48.9162" lon="4.39887">
        <ele>81.3</ele>
        <time>2020-06-30T15:02:58Z</time>
      </trkpt>
      <trkpt lat="48.91626" lon="4.39883">
        <ele>81.2</ele>
        <time>2020-06-30T15:02:59Z</time>
      </trkpt>
      <trkpt lat="48.91632" lon="4.39878">
        <ele>81.1</ele>
        <time>2020-06-30T15:03:00Z</time>
      </trkpt>
      <trkpt lat="48.91639" lon="4.39873">
        <ele>81.1</ele>
        <time>2020-06-30T15:03:01Z</time>
      </trkpt>
      <trkpt lat="48.91645" lon="4.39868">
        <ele>81.1</ele>
        <time>2020-06-30T15:03:02Z</time>
      </trkpt>
      <trkpt lat="48.9165" lon="4.39863">
        <ele>81.1</ele>
        <time>2020-06-30T15:03:03Z</time>
      </trkpt>
      <trkpt lat="48.91656" lon="4.39857">
        <ele>81.1</ele>
        <time>2020-06-30T15:03:04Z</time>
      </trkpt>
      <trkpt lat="48.91662" lon="4.39851">
        <ele>81.1</ele>
        <time>2020-06-30T15:03:05Z</time>
      </trkpt>
      <trkpt lat="48.91669" lon="4.39847">
        <ele>81.1</ele>
        <time>2020-06-30T15:03:06Z</time>
      </trkpt>
      <trkpt lat="48.91674" lon="4.39841">
        <ele>81.1</ele>
        <time>2020-06-30T15:03:07Z</time>
      </trkpt>
      <trkpt lat="48.9168" lon="4.39835">
        <ele>81.1</ele>
        <time>2020-06-30T15:03:08Z</time>
      </trkpt>
      <trkpt lat="48.91686" lon="4.39831">
        <ele>81.1</ele>
        <time>2020-06-30T15:03:09Z</time>
      </trkpt>
      <trkpt lat="48.91692" lon="4.39825">
        <ele>81.2</ele>
        <time>2020-06-30T15:03:10Z</time>
      </trkpt>
      <trkpt lat="48.91697" lon="4.39819">
        <ele>81.2</ele>
        <time>2020-06-30T15:03:11Z</time>
      </trkpt>
      <trkpt lat="48.91702" lon="4.39814">
        <ele>81.3</ele>
        <time>2020-06-30T15:03:12Z</time>
      </trkpt>
      <trkpt lat="48.91707" lon="4.39809">
        <ele>81.3</ele>
        <time>2020-06-30T15:03:13Z</time>
      </trkpt>
      <trkpt lat="48.91713" lon="4.39805">
        <ele>81.4</ele>
        <time>2020-06-30T15:03:14Z</time>
      </trkpt>
      <trkpt lat="48.91718" lon="4.39799">
        <ele>81.5</ele>
        <time>2020-06-30T15:03:15Z</time>
      </trkpt>
      <trkpt lat="48.91722" lon="4.39793">
        <ele>81.6</ele>
        <time>2020-06-30T15:03:16Z</time>
      </trkpt>
      <trkpt lat="48.91727" lon="4.39787">
        <ele>81.7</ele>
        <time>2020-06-30T15:03:17Z</time>
      </trkpt>
      <trkpt lat="48.91731" lon="4.39781">
        <ele>81.8</ele>
        <time>2020-06-30T15:03:18Z</time>
      </trkpt>
      <trkpt lat="48.91735" lon="4.39776">
        <ele>82</ele>
        <time>2020-06-30T15:03:19Z</time>
      </trkpt>
      <trkpt lat="48.91741" lon="4.39773">
        <ele>82.1</ele>
        <time>2020-06-30T15:03:20Z</time>
      </trkpt>
      <trkpt lat="48.91747" lon="4.39769">
        <ele>82.1</ele>
        <time>2020-06-30T15:03:21Z</time>
      </trkpt>
      <trkpt lat="48.91751" lon="4.39766">
        <ele>82.2</ele>
        <time>2020-06-30T15:03:22Z</time>
      </trkpt>
      <trkpt lat="48.91756" lon="4.39766">
        <ele>82.3</ele>
        <time>2020-06-30T15:03:23Z</time>
      </trkpt>
      <trkpt lat="48.9176" lon="4.39766">
        <ele>82.3</ele>
        <time>2020-06-30T15:03:24Z</time>
      </trkpt>
      <trkpt lat="48.91764" lon="4.39767">
        <ele>82.4</ele>
        <time>2020-06-30T15:03:25Z</time>
      </trkpt>
      <trkpt lat="48.91765" lon="4.39771">
        <ele>82.4</ele>
        <time>2020-06-30T15:03:26Z</time>
      </trkpt>
      <trkpt lat="48.91763" lon="4.39777">
        <ele>82.2</ele>
        <time>2020-06-30T15:03:27Z</time>
      </trkpt>
      <trkpt lat="48.91763" lon="4.39779">
        <ele>82.2</ele>
        <time>2020-06-30T15:03:28Z</time>
      </trkpt>
      <trkpt lat="48.91761" lon="4.39783">
        <ele>82.2</ele>
        <time>2020-06-30T15:03:29Z</time>
      </trkpt>
      <trkpt lat="48.9176" lon="4.39784">
        <ele>82.2</ele>
        <time>2020-06-30T15:03:30Z</time>
      </trkpt>
      <trkpt lat="48.9176" lon="4.39787">
        <ele>82.2</ele>
        <time>2020-06-30T15:03:31Z</time>
      </trkpt>
      <trkpt lat="48.9176" lon="4.39789">
        <ele>82.2</ele>
        <time>2020-06-30T15:03:32Z</time>
      </trkpt>
      <trkpt lat="48.91762" lon="4.39789">
        <ele>82.2</ele>
        <time>2020-06-30T15:03:33Z</time>
      </trkpt>
      <trkpt lat="48.91763" lon="4.39789">
        <ele>82.2</ele>
        <time>2020-06-30T15:03:34Z</time>
      </trkpt>
      <trkpt lat="48.91766" lon="4.39787">
        <ele>81.9</ele>
        <time>2020-06-30T15:03:35Z</time>
      </trkpt>
      <trkpt lat="48.91769" lon="4.39785">
        <ele>81.8</ele>
        <time>2020-06-30T15:03:36Z</time>
      </trkpt>
      <trkpt lat="48.91772" lon="4.39783">
        <ele>81.8</ele>
        <time>2020-06-30T15:03:37Z</time>
      </trkpt>
      <trkpt lat="48.91775" lon="4.39781">
        <ele>81.7</ele>
        <time>2020-06-30T15:03:38Z</time>
      </trkpt>
      <trkpt lat="48.91779" lon="4.39778">
        <ele>81.7</ele>
        <time>2020-06-30T15:03:39Z</time>
      </trkpt>
      <trkpt lat="48.91782" lon="4.39776">
        <ele>81.7</ele>
        <time>2020-06-30T15:03:40Z</time>
      </trkpt>
      <trkpt lat="48.91785" lon="4.39774">
        <ele>81.6</ele>
        <time>2020-06-30T15:03:41Z</time>
      </trkpt>
      <trkpt lat="48.91789" lon="4.39772">
        <ele>81.6</ele>
        <time>2020-06-30T15:03:42Z</time>
      </trkpt>
      <trkpt lat="48.91793" lon="4.39769">
        <ele>81.5</ele>
        <time>2020-06-30T15:03:43Z</time>
      </trkpt>
      <trkpt lat="48.91795" lon="4.39764">
        <ele>81.5</ele>
        <time>2020-06-30T15:03:44Z</time>
      </trkpt>
      <trkpt lat="48.91798" lon="4.39759">
        <ele>81.4</ele>
        <time>2020-06-30T15:03:45Z</time>
      </trkpt>
      <trkpt lat="48.91801" lon="4.39753">
        <ele>81.4</ele>
        <time>2020-06-30T15:03:46Z</time>
      </trkpt>
      <trkpt lat="48.91803" lon="4.39747">
        <ele>81.3</ele>
        <time>2020-06-30T15:03:47Z</time>
      </trkpt>
      <trkpt lat="48.91807" lon="4.39741">
        <ele>81.3</ele>
        <time>2020-06-30T15:03:48Z</time>
      </trkpt>
      <trkpt lat="48.91812" lon="4.39736">
        <ele>81.3</ele>
        <time>2020-06-30T15:03:49Z</time>
      </trkpt>
      <trkpt lat="48.91816" lon="4.39731">
        <ele>81.3</ele>
        <time>2020-06-30T15:03:50Z</time>
      </trkpt>
      <trkpt lat="48.9182" lon="4.39726">
        <ele>81.3</ele>
        <time>2020-06-30T15:03:51Z</time>
      </trkpt>
      <trkpt lat="48.91824" lon="4.3972">
        <ele>81.3</ele>
        <time>2020-06-30T15:03:52Z</time>
      </trkpt>
      <trkpt lat="48.91829" lon="4.39716">
        <ele>81.3</ele>
        <time>2020-06-30T15:03:53Z</time>
      </trkpt>
      <trkpt lat="48.91832" lon="4.39709">
        <ele>81.3</ele>
        <time>2020-06-30T15:03:54Z</time>
      </trkpt>
      <trkpt lat="48.91836" lon="4.39703">
        <ele>81.4</ele>
        <time>2020-06-30T15:03:55Z</time>
      </trkpt>
      <trkpt lat="48.9184" lon="4.39698">
        <ele>81.4</ele>
        <time>2020-06-30T15:03:56Z</time>
      </trkpt>
      <trkpt lat="48.91844" lon="4.39692">
        <ele>81.4</ele>
        <time>2020-06-30T15:03:57Z</time>
      </trkpt>
      <trkpt lat="48.91848" lon="4.39687">
        <ele>81.4</ele>
        <time>2020-06-30T15:03:58Z</time>
      </trkpt>
      <trkpt lat="48.91852" lon="4.39681">
        <ele>81.5</ele>
        <time>2020-06-30T15:03:59Z</time>
      </trkpt>
      <trkpt lat="48.91856" lon="4.39677">
        <ele>81.5</ele>
        <time>2020-06-30T15:04:00Z</time>
      </trkpt>
      <trkpt lat="48.91859" lon="4.39671">
        <ele>81.5</ele>
        <time>2020-06-30T15:04:01Z</time>
      </trkpt>
      <trkpt lat="48.91864" lon="4.39667">
        <ele>81.5</ele>
        <time>2020-06-30T15:04:02Z</time>
      </trkpt>
      <trkpt lat="48.91868" lon="4.39661">
        <ele>81.5</ele>
        <time>2020-06-30T15:04:03Z</time>
      </trkpt>
      <trkpt lat="48.91873" lon="4.39656">
        <ele>81.5</ele>
        <time>2020-06-30T15:04:04Z</time>
      </trkpt>
      <trkpt lat="48.91878" lon="4.3965">
        <ele>81.5</ele>
        <time>2020-06-30T15:04:05Z</time>
      </trkpt>
      <trkpt lat="48.91883" lon="4.39645">
        <ele>81.5</ele>
        <time>2020-06-30T15:04:06Z</time>
      </trkpt>
      <trkpt lat="48.91888" lon="4.3964">
        <ele>81.5</ele>
        <time>2020-06-30T15:04:07Z</time>
      </trkpt>
      <trkpt lat="48.91893" lon="4.39634">
        <ele>81.5</ele>
        <time>2020-06-30T15:04:08Z</time>
      </trkpt>
      <trkpt lat="48.91897" lon="4.39628">
        <ele>81.5</ele>
        <time>2020-06-30T15:04:09Z</time>
      </trkpt>
      <trkpt lat="48.91902" lon="4.39622">
        <ele>81.4</ele>
        <time>2020-06-30T15:04:10Z</time>
      </trkpt>
      <trkpt lat="48.91907" lon="4.39615">
        <ele>81.4</ele>
        <time>2020-06-30T15:04:11Z</time>
      </trkpt>
      <trkpt lat="48.91912" lon="4.39609">
        <ele>81.4</ele>
        <time>2020-06-30T15:04:12Z</time>
      </trkpt>
      <trkpt lat="48.91917" lon="4.39602">
        <ele>81.4</ele>
        <time>2020-06-30T15:04:13Z</time>
      </trkpt>
      <trkpt lat="48.91922" lon="4.39595">
        <ele>81.4</ele>
        <time>2020-06-30T15:04:14Z</time>
      </trkpt>
      <trkpt lat="48.91928" lon="4.39589">
        <ele>81.4</ele>
        <time>2020-06-30T15:04:15Z</time>
      </trkpt>
      <trkpt lat="48.91934" lon="4.39582">
        <ele>81.4</ele>
        <time>2020-06-30T15:04:16Z</time>
      </trkpt>
      <trkpt lat="48.91939" lon="4.39575">
        <ele>81.4</ele>
        <time>2020-06-30T15:04:17Z</time>
      </trkpt>
      <trkpt lat="48.91944" lon="4.39568">
        <ele>81.4</ele>
        <time>2020-06-30T15:04:18Z</time>
      </trkpt>
      <trkpt lat="48.9195" lon="4.39562">
        <ele>81.5</ele>
        <time>2020-06-30T15:04:19Z</time>
      </trkpt>
      <trkpt lat="48.91956" lon="4.39556">
        <ele>81.5</ele>
        <time>2020-06-30T15:04:20Z</time>
      </trkpt>
      <trkpt lat="48.91961" lon="4.3955">
        <ele>81.5</ele>
        <time>2020-06-30T15:04:21Z</time>
      </trkpt>
      <trkpt lat="48.91967" lon="4.39544">
        <ele>81.6</ele>
        <time>2020-06-30T15:04:22Z</time>
      </trkpt>
      <trkpt lat="48.91972" lon="4.39538">
        <ele>81.6</ele>
        <time>2020-06-30T15:04:23Z</time>
      </trkpt>
      <trkpt lat="48.91977" lon="4.39531">
        <ele>81.7</ele>
        <time>2020-06-30T15:04:24Z</time>
      </trkpt>
      <trkpt lat="48.91982" lon="4.39525">
        <ele>81.7</ele>
        <time>2020-06-30T15:04:25Z</time>
      </trkpt>
      <trkpt lat="48.91987" lon="4.39518">
        <ele>81.6</ele>
        <time>2020-06-30T15:04:26Z</time>
      </trkpt>
      <trkpt lat="48.91993" lon="4.39512">
        <ele>81.6</ele>
        <time>2020-06-30T15:04:27Z</time>
      </trkpt>
      <trkpt lat="48.91997" lon="4.39504">
        <ele>81.6</ele>
        <time>2020-06-30T15:04:28Z</time>
      </trkpt>
      <trkpt lat="48.92003" lon="4.39498">
        <ele>81.6</ele>
        <time>2020-06-30T15:04:29Z</time>
      </trkpt>
      <trkpt lat="48.92009" lon="4.39492">
        <ele>81.6</ele>
        <time>2020-06-30T15:04:30Z</time>
      </trkpt>
      <trkpt lat="48.92015" lon="4.39485">
        <ele>81.6</ele>
        <time>2020-06-30T15:04:31Z</time>
      </trkpt>
      <trkpt lat="48.9202" lon="4.39478">
        <ele>81.6</ele>
        <time>2020-06-30T15:04:32Z</time>
      </trkpt>
      <trkpt lat="48.92024" lon="4.39471">
        <ele>81.6</ele>
        <time>2020-06-30T15:04:33Z</time>
      </trkpt>
      <trkpt lat="48.92029" lon="4.39463">
        <ele>81.6</ele>
        <time>2020-06-30T15:04:34Z</time>
      </trkpt>
      <trkpt lat="48.92035" lon="4.39457">
        <ele>81.7</ele>
        <time>2020-06-30T15:04:35Z</time>
      </trkpt>
      <trkpt lat="48.9204" lon="4.3945">
        <ele>81.7</ele>
        <time>2020-06-30T15:04:36Z</time>
      </trkpt>
      <trkpt lat="48.92046" lon="4.39444">
        <ele>81.7</ele>
        <time>2020-06-30T15:04:37Z</time>
      </trkpt>
      <trkpt lat="48.92051" lon="4.39438">
        <ele>81.7</ele>
        <time>2020-06-30T15:04:38Z</time>
      </trkpt>
      <trkpt lat="48.92057" lon="4.39431">
        <ele>81.7</ele>
        <time>2020-06-30T15:04:39Z</time>
      </trkpt>
      <trkpt lat="48.92063" lon="4.39423">
        <ele>81.7</ele>
        <time>2020-06-30T15:04:40Z</time>
      </trkpt>
      <trkpt lat="48.92069" lon="4.39417">
        <ele>81.7</ele>
        <time>2020-06-30T15:04:41Z</time>
      </trkpt>
      <trkpt lat="48.92075" lon="4.3941">
        <ele>81.7</ele>
        <time>2020-06-30T15:04:42Z</time>
      </trkpt>
      <trkpt lat="48.92081" lon="4.39403">
        <ele>81.7</ele>
        <time>2020-06-30T15:04:43Z</time>
      </trkpt>
      <trkpt lat="48.92086" lon="4.39396">
        <ele>81.7</ele>
        <time>2020-06-30T15:04:44Z</time>
      </trkpt>
      <trkpt lat="48.92092" lon="4.39389">
        <ele>81.7</ele>
        <time>2020-06-30T15:04:45Z</time>
      </trkpt>
      <trkpt lat="48.92097" lon="4.39382">
        <ele>81.7</ele>
        <time>2020-06-30T15:04:46Z</time>
      </trkpt>
      <trkpt lat="48.92102" lon="4.39375">
        <ele>81.7</ele>
        <time>2020-06-30T15:04:47Z</time>
      </trkpt>
      <trkpt lat="48.92106" lon="4.39368">
        <ele>81.7</ele>
        <time>2020-06-30T15:04:48Z</time>
      </trkpt>
      <trkpt lat="48.92112" lon="4.39361">
        <ele>81.7</ele>
        <time>2020-06-30T15:04:49Z</time>
      </trkpt>
      <trkpt lat="48.92117" lon="4.39355">
        <ele>81.7</ele>
        <time>2020-06-30T15:04:50Z</time>
      </trkpt>
      <trkpt lat="48.92122" lon="4.39348">
        <ele>81.8</ele>
        <time>2020-06-30T15:04:51Z</time>
      </trkpt>
      <trkpt lat="48.92128" lon="4.39341">
        <ele>81.8</ele>
        <time>2020-06-30T15:04:52Z</time>
      </trkpt>
      <trkpt lat="48.92133" lon="4.39334">
        <ele>81.8</ele>
        <time>2020-06-30T15:04:53Z</time>
      </trkpt>
      <trkpt lat="48.92139" lon="4.39328">
        <ele>81.8</ele>
        <time>2020-06-30T15:04:54Z</time>
      </trkpt>
      <trkpt lat="48.92144" lon="4.39322">
        <ele>81.8</ele>
        <time>2020-06-30T15:04:55Z</time>
      </trkpt>
      <trkpt lat="48.9215" lon="4.39315">
        <ele>81.8</ele>
        <time>2020-06-30T15:04:56Z</time>
      </trkpt>
      <trkpt lat="48.92155" lon="4.39308">
        <ele>81.8</ele>
        <time>2020-06-30T15:04:57Z</time>
      </trkpt>
      <trkpt lat="48.92161" lon="4.39302">
        <ele>81.8</ele>
        <time>2020-06-30T15:04:58Z</time>
      </trkpt>
      <trkpt lat="48.92166" lon="4.39295">
        <ele>81.8</ele>
        <time>2020-06-30T15:04:59Z</time>
      </trkpt>
      <trkpt lat="48.92171" lon="4.39288">
        <ele>81.8</ele>
        <time>2020-06-30T15:05:00Z</time>
      </trkpt>
      <trkpt lat="48.92177" lon="4.39282">
        <ele>81.8</ele>
        <time>2020-06-30T15:05:01Z</time>
      </trkpt>
      <trkpt lat="48.92182" lon="4.39275">
        <ele>81.8</ele>
        <time>2020-06-30T15:05:02Z</time>
      </trkpt>
      <trkpt lat="48.92187" lon="4.39268">
        <ele>81.8</ele>
        <time>2020-06-30T15:05:03Z</time>
      </trkpt>
      <trkpt lat="48.92193" lon="4.39261">
        <ele>81.8</ele>
        <time>2020-06-30T15:05:04Z</time>
      </trkpt>
      <trkpt lat="48.92198" lon="4.39254">
        <ele>81.8</ele>
        <time>2020-06-30T15:05:05Z</time>
      </trkpt>
      <trkpt lat="48.92204" lon="4.39247">
        <ele>81.7</ele>
        <time>2020-06-30T15:05:06Z</time>
      </trkpt>
      <trkpt lat="48.92209" lon="4.3924">
        <ele>81.7</ele>
        <time>2020-06-30T15:05:07Z</time>
      </trkpt>
      <trkpt lat="48.92214" lon="4.39233">
        <ele>81.7</ele>
        <time>2020-06-30T15:05:08Z</time>
      </trkpt>
      <trkpt lat="48.9222" lon="4.39226">
        <ele>81.7</ele>
        <time>2020-06-30T15:05:09Z</time>
      </trkpt>
      <trkpt lat="48.92226" lon="4.3922">
        <ele>81.7</ele>
        <time>2020-06-30T15:05:10Z</time>
      </trkpt>
      <trkpt lat="48.92232" lon="4.39214">
        <ele>81.7</ele>
        <time>2020-06-30T15:05:11Z</time>
      </trkpt>
      <trkpt lat="48.92238" lon="4.39207">
        <ele>81.8</ele>
        <time>2020-06-30T15:05:12Z</time>
      </trkpt>
      <trkpt lat="48.92244" lon="4.392">
        <ele>81.8</ele>
        <time>2020-06-30T15:05:13Z</time>
      </trkpt>
      <trkpt lat="48.9225" lon="4.39194">
        <ele>81.8</ele>
        <time>2020-06-30T15:05:14Z</time>
      </trkpt>
      <trkpt lat="48.92255" lon="4.39187">
        <ele>81.8</ele>
        <time>2020-06-30T15:05:15Z</time>
      </trkpt>
      <trkpt lat="48.92261" lon="4.39181">
        <ele>81.8</ele>
        <time>2020-06-30T15:05:16Z</time>
      </trkpt>
      <trkpt lat="48.92267" lon="4.39174">
        <ele>81.8</ele>
        <time>2020-06-30T15:05:17Z</time>
      </trkpt>
      <trkpt lat="48.92272" lon="4.39167">
        <ele>81.8</ele>
        <time>2020-06-30T15:05:18Z</time>
      </trkpt>
      <trkpt lat="48.92277" lon="4.3916">
        <ele>81.8</ele>
        <time>2020-06-30T15:05:19Z</time>
      </trkpt>
      <trkpt lat="48.92283" lon="4.39153">
        <ele>81.8</ele>
        <time>2020-06-30T15:05:20Z</time>
      </trkpt>
      <trkpt lat="48.92288" lon="4.39147">
        <ele>81.7</ele>
        <time>2020-06-30T15:05:21Z</time>
      </trkpt>
      <trkpt lat="48.92293" lon="4.3914">
        <ele>81.7</ele>
        <time>2020-06-30T15:05:22Z</time>
      </trkpt>
      <trkpt lat="48.92298" lon="4.39133">
        <ele>81.7</ele>
        <time>2020-06-30T15:05:23Z</time>
      </trkpt>
      <trkpt lat="48.92304" lon="4.39127">
        <ele>81.7</ele>
        <time>2020-06-30T15:05:24Z</time>
      </trkpt>
      <trkpt lat="48.92309" lon="4.3912">
        <ele>81.7</ele>
        <time>2020-06-30T15:05:25Z</time>
      </trkpt>
      <trkpt lat="48.92314" lon="4.39113">
        <ele>81.8</ele>
        <time>2020-06-30T15:05:26Z</time>
      </trkpt>
      <trkpt lat="48.92319" lon="4.39106">
        <ele>81.8</ele>
        <time>2020-06-30T15:05:27Z</time>
      </trkpt>
      <trkpt lat="48.92324" lon="4.39098">
        <ele>81.8</ele>
        <time>2020-06-30T15:05:28Z</time>
      </trkpt>
      <trkpt lat="48.9233" lon="4.39092">
        <ele>81.8</ele>
        <time>2020-06-30T15:05:29Z</time>
      </trkpt>
      <trkpt lat="48.92335" lon="4.39085">
        <ele>81.8</ele>
        <time>2020-06-30T15:05:30Z</time>
      </trkpt>
      <trkpt lat="48.9234" lon="4.39078">
        <ele>81.8</ele>
        <time>2020-06-30T15:05:31Z</time>
      </trkpt>
      <trkpt lat="48.92345" lon="4.39071">
        <ele>81.8</ele>
        <time>2020-06-30T15:05:32Z</time>
      </trkpt>
      <trkpt lat="48.92351" lon="4.39064">
        <ele>81.8</ele>
        <time>2020-06-30T15:05:33Z</time>
      </trkpt>
      <trkpt lat="48.92356" lon="4.39057">
        <ele>81.8</ele>
        <time>2020-06-30T15:05:34Z</time>
      </trkpt>
      <trkpt lat="48.92361" lon="4.3905">
        <ele>81.8</ele>
        <time>2020-06-30T15:05:35Z</time>
      </trkpt>
      <trkpt lat="48.92367" lon="4.39044">
        <ele>81.8</ele>
        <time>2020-06-30T15:05:36Z</time>
      </trkpt>
      <trkpt lat="48.92371" lon="4.39038">
        <ele>81.7</ele>
        <time>2020-06-30T15:05:37Z</time>
      </trkpt>
      <trkpt lat="48.92376" lon="4.39032">
        <ele>81.7</ele>
        <time>2020-06-30T15:05:38Z</time>
      </trkpt>
      <trkpt lat="48.92382" lon="4.39025">
        <ele>81.8</ele>
        <time>2020-06-30T15:05:39Z</time>
      </trkpt>
      <trkpt lat="48.92387" lon="4.39018">
        <ele>81.8</ele>
        <time>2020-06-30T15:05:40Z</time>
      </trkpt>
      <trkpt lat="48.92393" lon="4.39012">
        <ele>81.8</ele>
        <time>2020-06-30T15:05:41Z</time>
      </trkpt>
      <trkpt lat="48.92398" lon="4.39005">
        <ele>81.8</ele>
        <time>2020-06-30T15:05:42Z</time>
      </trkpt>
      <trkpt lat="48.92403" lon="4.38998">
        <ele>81.8</ele>
        <time>2020-06-30T15:05:43Z</time>
      </trkpt>
      <trkpt lat="48.92408" lon="4.38992">
        <ele>81.8</ele>
        <time>2020-06-30T15:05:44Z</time>
      </trkpt>
      <trkpt lat="48.92413" lon="4.38983">
        <ele>81.8</ele>
        <time>2020-06-30T15:05:45Z</time>
      </trkpt>
      <trkpt lat="48.92418" lon="4.38977">
        <ele>81.8</ele>
        <time>2020-06-30T15:05:46Z</time>
      </trkpt>
      <trkpt lat="48.92424" lon="4.38971">
        <ele>81.8</ele>
        <time>2020-06-30T15:05:47Z</time>
      </trkpt>
      <trkpt lat="48.9243" lon="4.38965">
        <ele>81.8</ele>
        <time>2020-06-30T15:05:48Z</time>
      </trkpt>
      <trkpt lat="48.92435" lon="4.38959">
        <ele>81.9</ele>
        <time>2020-06-30T15:05:49Z</time>
      </trkpt>
      <trkpt lat="48.9244" lon="4.38952">
        <ele>81.9</ele>
        <time>2020-06-30T15:05:50Z</time>
      </trkpt>
      <trkpt lat="48.92446" lon="4.38946">
        <ele>81.9</ele>
        <time>2020-06-30T15:05:51Z</time>
      </trkpt>
      <trkpt lat="48.92452" lon="4.3894">
        <ele>81.8</ele>
        <time>2020-06-30T15:05:52Z</time>
      </trkpt>
      <trkpt lat="48.92457" lon="4.38933">
        <ele>81.8</ele>
        <time>2020-06-30T15:05:53Z</time>
      </trkpt>
      <trkpt lat="48.92463" lon="4.38926">
        <ele>81.8</ele>
        <time>2020-06-30T15:05:54Z</time>
      </trkpt>
      <trkpt lat="48.92469" lon="4.38919">
        <ele>81.8</ele>
        <time>2020-06-30T15:05:55Z</time>
      </trkpt>
      <trkpt lat="48.92475" lon="4.38913">
        <ele>81.8</ele>
        <time>2020-06-30T15:05:56Z</time>
      </trkpt>
      <trkpt lat="48.92481" lon="4.38907">
        <ele>81.8</ele>
        <time>2020-06-30T15:05:57Z</time>
      </trkpt>
      <trkpt lat="48.92487" lon="4.38901">
        <ele>81.8</ele>
        <time>2020-06-30T15:05:58Z</time>
      </trkpt>
      <trkpt lat="48.92492" lon="4.38893">
        <ele>81.8</ele>
        <time>2020-06-30T15:05:59Z</time>
      </trkpt>
      <trkpt lat="48.92497" lon="4.38885">
        <ele>81.8</ele>
        <time>2020-06-30T15:06:00Z</time>
      </trkpt>
      <trkpt lat="48.92503" lon="4.38878">
        <ele>81.8</ele>
        <time>2020-06-30T15:06:01Z</time>
      </trkpt>
      <trkpt lat="48.92508" lon="4.3887">
        <ele>81.8</ele>
        <time>2020-06-30T15:06:02Z</time>
      </trkpt>
      <trkpt lat="48.92513" lon="4.38863">
        <ele>81.7</ele>
        <time>2020-06-30T15:06:03Z</time>
      </trkpt>
      <trkpt lat="48.92518" lon="4.38856">
        <ele>81.7</ele>
        <time>2020-06-30T15:06:04Z</time>
      </trkpt>
      <trkpt lat="48.92524" lon="4.3885">
        <ele>81.7</ele>
        <time>2020-06-30T15:06:05Z</time>
      </trkpt>
      <trkpt lat="48.9253" lon="4.38844">
        <ele>81.7</ele>
        <time>2020-06-30T15:06:06Z</time>
      </trkpt>
      <trkpt lat="48.92536" lon="4.38838">
        <ele>81.7</ele>
        <time>2020-06-30T15:06:07Z</time>
      </trkpt>
      <trkpt lat="48.92541" lon="4.38832">
        <ele>81.8</ele>
        <time>2020-06-30T15:06:08Z</time>
      </trkpt>
      <trkpt lat="48.92547" lon="4.38827">
        <ele>81.8</ele>
        <time>2020-06-30T15:06:09Z</time>
      </trkpt>
      <trkpt lat="48.92551" lon="4.38821">
        <ele>81.8</ele>
        <time>2020-06-30T15:06:10Z</time>
      </trkpt>
      <trkpt lat="48.92555" lon="4.38814">
        <ele>81.8</ele>
        <time>2020-06-30T15:06:11Z</time>
      </trkpt>
      <trkpt lat="48.9256" lon="4.38806">
        <ele>81.8</ele>
        <time>2020-06-30T15:06:12Z</time>
      </trkpt>
      <trkpt lat="48.92564" lon="4.388">
        <ele>81.8</ele>
        <time>2020-06-30T15:06:13Z</time>
      </trkpt>
      <trkpt lat="48.92569" lon="4.38794">
        <ele>81.8</ele>
        <time>2020-06-30T15:06:14Z</time>
      </trkpt>
      <trkpt lat="48.92576" lon="4.38789">
        <ele>81.8</ele>
        <time>2020-06-30T15:06:15Z</time>
      </trkpt>
      <trkpt lat="48.92582" lon="4.38784">
        <ele>81.8</ele>
        <time>2020-06-30T15:06:16Z</time>
      </trkpt>
      <trkpt lat="48.92587" lon="4.38777">
        <ele>81.8</ele>
        <time>2020-06-30T15:06:17Z</time>
      </trkpt>
      <trkpt lat="48.92593" lon="4.38771">
        <ele>81.8</ele>
        <time>2020-06-30T15:06:18Z</time>
      </trkpt>
      <trkpt lat="48.92599" lon="4.38766">
        <ele>81.8</ele>
        <time>2020-06-30T15:06:19Z</time>
      </trkpt>
      <trkpt lat="48.92603" lon="4.38758">
        <ele>81.8</ele>
        <time>2020-06-30T15:06:20Z</time>
      </trkpt>
      <trkpt lat="48.92609" lon="4.38751">
        <ele>81.8</ele>
        <time>2020-06-30T15:06:21Z</time>
      </trkpt>
      <trkpt lat="48.92614" lon="4.38744">
        <ele>81.8</ele>
        <time>2020-06-30T15:06:22Z</time>
      </trkpt>
      <trkpt lat="48.92619" lon="4.38737">
        <ele>81.8</ele>
        <time>2020-06-30T15:06:23Z</time>
      </trkpt>
      <trkpt lat="48.92624" lon="4.3873">
        <ele>81.8</ele>
        <time>2020-06-30T15:06:24Z</time>
      </trkpt>
      <trkpt lat="48.9263" lon="4.38724">
        <ele>81.8</ele>
        <time>2020-06-30T15:06:25Z</time>
      </trkpt>
      <trkpt lat="48.92636" lon="4.38718">
        <ele>81.8</ele>
        <time>2020-06-30T15:06:26Z</time>
      </trkpt>
      <trkpt lat="48.92641" lon="4.38711">
        <ele>81.8</ele>
        <time>2020-06-30T15:06:27Z</time>
      </trkpt>
      <trkpt lat="48.92646" lon="4.38705">
        <ele>81.8</ele>
        <time>2020-06-30T15:06:28Z</time>
      </trkpt>
      <trkpt lat="48.92652" lon="4.38699">
        <ele>81.8</ele>
        <time>2020-06-30T15:06:29Z</time>
      </trkpt>
      <trkpt lat="48.92657" lon="4.38693">
        <ele>81.8</ele>
        <time>2020-06-30T15:06:30Z</time>
      </trkpt>
      <trkpt lat="48.92663" lon="4.38685">
        <ele>81.8</ele>
        <time>2020-06-30T15:06:31Z</time>
      </trkpt>
      <trkpt lat="48.92668" lon="4.38678">
        <ele>81.8</ele>
        <time>2020-06-30T15:06:32Z</time>
      </trkpt>
      <trkpt lat="48.92674" lon="4.38672">
        <ele>81.7</ele>
        <time>2020-06-30T15:06:33Z</time>
      </trkpt>
      <trkpt lat="48.92678" lon="4.38663">
        <ele>81.7</ele>
        <time>2020-06-30T15:06:34Z</time>
      </trkpt>
      <trkpt lat="48.92683" lon="4.38656">
        <ele>81.7</ele>
        <time>2020-06-30T15:06:35Z</time>
      </trkpt>
      <trkpt lat="48.92689" lon="4.38649">
        <ele>81.8</ele>
        <time>2020-06-30T15:06:36Z</time>
      </trkpt>
      <trkpt lat="48.92694" lon="4.38643">
        <ele>81.8</ele>
        <time>2020-06-30T15:06:37Z</time>
      </trkpt>
      <trkpt lat="48.92699" lon="4.38637">
        <ele>81.8</ele>
        <time>2020-06-30T15:06:38Z</time>
      </trkpt>
      <trkpt lat="48.92703" lon="4.3863">
        <ele>81.8</ele>
        <time>2020-06-30T15:06:39Z</time>
      </trkpt>
      <trkpt lat="48.92709" lon="4.38623">
        <ele>81.8</ele>
        <time>2020-06-30T15:06:40Z</time>
      </trkpt>
      <trkpt lat="48.92714" lon="4.38617">
        <ele>81.8</ele>
        <time>2020-06-30T15:06:41Z</time>
      </trkpt>
      <trkpt lat="48.92719" lon="4.3861">
        <ele>81.8</ele>
        <time>2020-06-30T15:06:42Z</time>
      </trkpt>
      <trkpt lat="48.92724" lon="4.38603">
        <ele>81.8</ele>
        <time>2020-06-30T15:06:43Z</time>
      </trkpt>
      <trkpt lat="48.92729" lon="4.38597">
        <ele>81.8</ele>
        <time>2020-06-30T15:06:44Z</time>
      </trkpt>
      <trkpt lat="48.92733" lon="4.38588">
        <ele>81.8</ele>
        <time>2020-06-30T15:06:45Z</time>
      </trkpt>
      <trkpt lat="48.92739" lon="4.38583">
        <ele>81.8</ele>
        <time>2020-06-30T15:06:46Z</time>
      </trkpt>
      <trkpt lat="48.92744" lon="4.38576">
        <ele>81.8</ele>
        <time>2020-06-30T15:06:47Z</time>
      </trkpt>
      <trkpt lat="48.92749" lon="4.3857">
        <ele>81.8</ele>
        <time>2020-06-30T15:06:48Z</time>
      </trkpt>
      <trkpt lat="48.92755" lon="4.38563">
        <ele>81.9</ele>
        <time>2020-06-30T15:06:49Z</time>
      </trkpt>
      <trkpt lat="48.92761" lon="4.38557">
        <ele>81.9</ele>
        <time>2020-06-30T15:06:50Z</time>
      </trkpt>
      <trkpt lat="48.92767" lon="4.3855">
        <ele>81.9</ele>
        <time>2020-06-30T15:06:51Z</time>
      </trkpt>
      <trkpt lat="48.92773" lon="4.38545">
        <ele>81.9</ele>
        <time>2020-06-30T15:06:52Z</time>
      </trkpt>
      <trkpt lat="48.92778" lon="4.38538">
        <ele>81.9</ele>
        <time>2020-06-30T15:06:53Z</time>
      </trkpt>
      <trkpt lat="48.92784" lon="4.38531">
        <ele>81.9</ele>
        <time>2020-06-30T15:06:54Z</time>
      </trkpt>
      <trkpt lat="48.92789" lon="4.38523">
        <ele>81.9</ele>
        <time>2020-06-30T15:06:55Z</time>
      </trkpt>
      <trkpt lat="48.92795" lon="4.38517">
        <ele>81.9</ele>
        <time>2020-06-30T15:06:56Z</time>
      </trkpt>
      <trkpt lat="48.928" lon="4.38509">
        <ele>81.9</ele>
        <time>2020-06-30T15:06:57Z</time>
      </trkpt>
      <trkpt lat="48.92806" lon="4.38503">
        <ele>81.9</ele>
        <time>2020-06-30T15:06:58Z</time>
      </trkpt>
      <trkpt lat="48.92811" lon="4.38496">
        <ele>81.9</ele>
        <time>2020-06-30T15:06:59Z</time>
      </trkpt>
      <trkpt lat="48.92817" lon="4.3849">
        <ele>81.9</ele>
        <time>2020-06-30T15:07:00Z</time>
      </trkpt>
      <trkpt lat="48.92823" lon="4.38483">
        <ele>81.9</ele>
        <time>2020-06-30T15:07:01Z</time>
      </trkpt>
      <trkpt lat="48.92829" lon="4.38475">
        <ele>81.9</ele>
        <time>2020-06-30T15:07:02Z</time>
      </trkpt>
      <trkpt lat="48.92834" lon="4.38467">
        <ele>81.9</ele>
        <time>2020-06-30T15:07:03Z</time>
      </trkpt>
      <trkpt lat="48.9284" lon="4.38461">
        <ele>81.9</ele>
        <time>2020-06-30T15:07:04Z</time>
      </trkpt>
      <trkpt lat="48.92845" lon="4.38453">
        <ele>81.9</ele>
        <time>2020-06-30T15:07:05Z</time>
      </trkpt>
      <trkpt lat="48.92851" lon="4.38447">
        <ele>81.9</ele>
        <time>2020-06-30T15:07:06Z</time>
      </trkpt>
      <trkpt lat="48.92856" lon="4.3844">
        <ele>81.9</ele>
        <time>2020-06-30T15:07:07Z</time>
      </trkpt>
      <trkpt lat="48.92862" lon="4.38432">
        <ele>81.9</ele>
        <time>2020-06-30T15:07:08Z</time>
      </trkpt>
      <trkpt lat="48.92867" lon="4.38425">
        <ele>81.9</ele>
        <time>2020-06-30T15:07:09Z</time>
      </trkpt>
      <trkpt lat="48.92873" lon="4.38418">
        <ele>82</ele>
        <time>2020-06-30T15:07:10Z</time>
      </trkpt>
      <trkpt lat="48.92878" lon="4.3841">
        <ele>82</ele>
        <time>2020-06-30T15:07:11Z</time>
      </trkpt>
      <trkpt lat="48.92885" lon="4.38405">
        <ele>81.9</ele>
        <time>2020-06-30T15:07:12Z</time>
      </trkpt>
      <trkpt lat="48.92891" lon="4.38399">
        <ele>81.9</ele>
        <time>2020-06-30T15:07:13Z</time>
      </trkpt>
      <trkpt lat="48.92897" lon="4.38393">
        <ele>81.9</ele>
        <time>2020-06-30T15:07:14Z</time>
      </trkpt>
      <trkpt lat="48.92903" lon="4.38385">
        <ele>81.8</ele>
        <time>2020-06-30T15:07:15Z</time>
      </trkpt>
      <trkpt lat="48.92908" lon="4.38378">
        <ele>81.8</ele>
        <time>2020-06-30T15:07:16Z</time>
      </trkpt>
      <trkpt lat="48.92914" lon="4.38372">
        <ele>81.8</ele>
        <time>2020-06-30T15:07:17Z</time>
      </trkpt>
      <trkpt lat="48.9292" lon="4.38365">
        <ele>81.7</ele>
        <time>2020-06-30T15:07:18Z</time>
      </trkpt>
      <trkpt lat="48.92925" lon="4.38358">
        <ele>81.7</ele>
        <time>2020-06-30T15:07:19Z</time>
      </trkpt>
      <trkpt lat="48.92931" lon="4.38353">
        <ele>81.7</ele>
        <time>2020-06-30T15:07:20Z</time>
      </trkpt>
      <trkpt lat="48.92937" lon="4.38346">
        <ele>81.6</ele>
        <time>2020-06-30T15:07:21Z</time>
      </trkpt>
      <trkpt lat="48.92942" lon="4.38338">
        <ele>81.6</ele>
        <time>2020-06-30T15:07:22Z</time>
      </trkpt>
      <trkpt lat="48.92947" lon="4.38331">
        <ele>81.7</ele>
        <time>2020-06-30T15:07:23Z</time>
      </trkpt>
      <trkpt lat="48.92952" lon="4.38324">
        <ele>81.7</ele>
        <time>2020-06-30T15:07:24Z</time>
      </trkpt>
      <trkpt lat="48.92957" lon="4.38318">
        <ele>81.7</ele>
        <time>2020-06-30T15:07:25Z</time>
      </trkpt>
      <trkpt lat="48.92963" lon="4.38312">
        <ele>81.7</ele>
        <time>2020-06-30T15:07:26Z</time>
      </trkpt>
      <trkpt lat="48.92969" lon="4.38305">
        <ele>81.7</ele>
        <time>2020-06-30T15:07:27Z</time>
      </trkpt>
      <trkpt lat="48.92975" lon="4.383">
        <ele>81.7</ele>
        <time>2020-06-30T15:07:28Z</time>
      </trkpt>
      <trkpt lat="48.92979" lon="4.38292">
        <ele>81.7</ele>
        <time>2020-06-30T15:07:29Z</time>
      </trkpt>
      <trkpt lat="48.92985" lon="4.38284">
        <ele>81.7</ele>
        <time>2020-06-30T15:07:30Z</time>
      </trkpt>
      <trkpt lat="48.9299" lon="4.38277">
        <ele>81.7</ele>
        <time>2020-06-30T15:07:31Z</time>
      </trkpt>
      <trkpt lat="48.92996" lon="4.38271">
        <ele>81.7</ele>
        <time>2020-06-30T15:07:32Z</time>
      </trkpt>
      <trkpt lat="48.93002" lon="4.38265">
        <ele>81.7</ele>
        <time>2020-06-30T15:07:33Z</time>
      </trkpt>
      <trkpt lat="48.93007" lon="4.38259">
        <ele>81.7</ele>
        <time>2020-06-30T15:07:34Z</time>
      </trkpt>
      <trkpt lat="48.93012" lon="4.38252">
        <ele>81.7</ele>
        <time>2020-06-30T15:07:35Z</time>
      </trkpt>
      <trkpt lat="48.93017" lon="4.38246">
        <ele>81.7</ele>
        <time>2020-06-30T15:07:36Z</time>
      </trkpt>
      <trkpt lat="48.93022" lon="4.38239">
        <ele>81.7</ele>
        <time>2020-06-30T15:07:37Z</time>
      </trkpt>
      <trkpt lat="48.93027" lon="4.38233">
        <ele>81.8</ele>
        <time>2020-06-30T15:07:38Z</time>
      </trkpt>
      <trkpt lat="48.93032" lon="4.38227">
        <ele>81.8</ele>
        <time>2020-06-30T15:07:39Z</time>
      </trkpt>
      <trkpt lat="48.93037" lon="4.3822">
        <ele>81.8</ele>
        <time>2020-06-30T15:07:40Z</time>
      </trkpt>
      <trkpt lat="48.93042" lon="4.38215">
        <ele>81.8</ele>
        <time>2020-06-30T15:07:41Z</time>
      </trkpt>
      <trkpt lat="48.93046" lon="4.38208">
        <ele>81.8</ele>
        <time>2020-06-30T15:07:42Z</time>
      </trkpt>
      <trkpt lat="48.93051" lon="4.38202">
        <ele>81.9</ele>
        <time>2020-06-30T15:07:43Z</time>
      </trkpt>
      <trkpt lat="48.93056" lon="4.38196">
        <ele>81.9</ele>
        <time>2020-06-30T15:07:44Z</time>
      </trkpt>
      <trkpt lat="48.93062" lon="4.3819">
        <ele>81.9</ele>
        <time>2020-06-30T15:07:45Z</time>
      </trkpt>
      <trkpt lat="48.93068" lon="4.38183">
        <ele>81.9</ele>
        <time>2020-06-30T15:07:46Z</time>
      </trkpt>
      <trkpt lat="48.93073" lon="4.38176">
        <ele>81.9</ele>
        <time>2020-06-30T15:07:47Z</time>
      </trkpt>
      <trkpt lat="48.93079" lon="4.3817">
        <ele>81.9</ele>
        <time>2020-06-30T15:07:48Z</time>
      </trkpt>
      <trkpt lat="48.93084" lon="4.38163">
        <ele>81.9</ele>
        <time>2020-06-30T15:07:49Z</time>
      </trkpt>
      <trkpt lat="48.9309" lon="4.38157">
        <ele>81.9</ele>
        <time>2020-06-30T15:07:50Z</time>
      </trkpt>
      <trkpt lat="48.93094" lon="4.38149">
        <ele>81.9</ele>
        <time>2020-06-30T15:07:51Z</time>
      </trkpt>
      <trkpt lat="48.931" lon="4.38143">
        <ele>82</ele>
        <time>2020-06-30T15:07:52Z</time>
      </trkpt>
      <trkpt lat="48.93105" lon="4.38135">
        <ele>82</ele>
        <time>2020-06-30T15:07:53Z</time>
      </trkpt>
      <trkpt lat="48.93111" lon="4.3813">
        <ele>82</ele>
        <time>2020-06-30T15:07:54Z</time>
      </trkpt>
      <trkpt lat="48.93116" lon="4.38123">
        <ele>82</ele>
        <time>2020-06-30T15:07:55Z</time>
      </trkpt>
      <trkpt lat="48.93122" lon="4.38115">
        <ele>82</ele>
        <time>2020-06-30T15:07:56Z</time>
      </trkpt>
      <trkpt lat="48.93127" lon="4.38109">
        <ele>82.1</ele>
        <time>2020-06-30T15:07:57Z</time>
      </trkpt>
      <trkpt lat="48.93133" lon="4.38102">
        <ele>82.1</ele>
        <time>2020-06-30T15:07:58Z</time>
      </trkpt>
      <trkpt lat="48.93138" lon="4.38095">
        <ele>82.1</ele>
        <time>2020-06-30T15:07:59Z</time>
      </trkpt>
      <trkpt lat="48.93145" lon="4.3809">
        <ele>82.1</ele>
        <time>2020-06-30T15:08:00Z</time>
      </trkpt>
      <trkpt lat="48.93151" lon="4.38082">
        <ele>82.1</ele>
        <time>2020-06-30T15:08:01Z</time>
      </trkpt>
      <trkpt lat="48.93156" lon="4.38073">
        <ele>82.1</ele>
        <time>2020-06-30T15:08:02Z</time>
      </trkpt>
      <trkpt lat="48.93162" lon="4.38066">
        <ele>82.1</ele>
        <time>2020-06-30T15:08:03Z</time>
      </trkpt>
      <trkpt lat="48.93167" lon="4.38057">
        <ele>82.1</ele>
        <time>2020-06-30T15:08:04Z</time>
      </trkpt>
      <trkpt lat="48.93174" lon="4.38051">
        <ele>82.1</ele>
        <time>2020-06-30T15:08:05Z</time>
      </trkpt>
      <trkpt lat="48.9318" lon="4.38043">
        <ele>82.1</ele>
        <time>2020-06-30T15:08:06Z</time>
      </trkpt>
      <trkpt lat="48.93186" lon="4.38036">
        <ele>82.1</ele>
        <time>2020-06-30T15:08:07Z</time>
      </trkpt>
      <trkpt lat="48.93192" lon="4.3803">
        <ele>82.1</ele>
        <time>2020-06-30T15:08:08Z</time>
      </trkpt>
      <trkpt lat="48.93198" lon="4.38023">
        <ele>82.1</ele>
        <time>2020-06-30T15:08:09Z</time>
      </trkpt>
      <trkpt lat="48.93204" lon="4.38016">
        <ele>82.1</ele>
        <time>2020-06-30T15:08:10Z</time>
      </trkpt>
      <trkpt lat="48.9321" lon="4.38009">
        <ele>82</ele>
        <time>2020-06-30T15:08:11Z</time>
      </trkpt>
      <trkpt lat="48.93216" lon="4.38002">
        <ele>82</ele>
        <time>2020-06-30T15:08:12Z</time>
      </trkpt>
      <trkpt lat="48.93222" lon="4.37995">
        <ele>82</ele>
        <time>2020-06-30T15:08:13Z</time>
      </trkpt>
      <trkpt lat="48.93227" lon="4.37987">
        <ele>82</ele>
        <time>2020-06-30T15:08:14Z</time>
      </trkpt>
      <trkpt lat="48.93233" lon="4.37981">
        <ele>82</ele>
        <time>2020-06-30T15:08:15Z</time>
      </trkpt>
      <trkpt lat="48.93238" lon="4.37974">
        <ele>82</ele>
        <time>2020-06-30T15:08:16Z</time>
      </trkpt>
      <trkpt lat="48.93244" lon="4.37968">
        <ele>82</ele>
        <time>2020-06-30T15:08:17Z</time>
      </trkpt>
      <trkpt lat="48.93249" lon="4.37959">
        <ele>82.1</ele>
        <time>2020-06-30T15:08:18Z</time>
      </trkpt>
      <trkpt lat="48.93255" lon="4.37953">
        <ele>82.1</ele>
        <time>2020-06-30T15:08:19Z</time>
      </trkpt>
      <trkpt lat="48.93261" lon="4.37945">
        <ele>82.1</ele>
        <time>2020-06-30T15:08:20Z</time>
      </trkpt>
      <trkpt lat="48.93268" lon="4.37939">
        <ele>82.1</ele>
        <time>2020-06-30T15:08:21Z</time>
      </trkpt>
      <trkpt lat="48.93273" lon="4.37933">
        <ele>82</ele>
        <time>2020-06-30T15:08:22Z</time>
      </trkpt>
      <trkpt lat="48.93279" lon="4.37926">
        <ele>82</ele>
        <time>2020-06-30T15:08:23Z</time>
      </trkpt>
      <trkpt lat="48.93285" lon="4.37919">
        <ele>82</ele>
        <time>2020-06-30T15:08:24Z</time>
      </trkpt>
      <trkpt lat="48.9329" lon="4.37911">
        <ele>82</ele>
        <time>2020-06-30T15:08:25Z</time>
      </trkpt>
      <trkpt lat="48.93295" lon="4.37904">
        <ele>82</ele>
        <time>2020-06-30T15:08:26Z</time>
      </trkpt>
      <trkpt lat="48.93302" lon="4.37897">
        <ele>82.1</ele>
        <time>2020-06-30T15:08:27Z</time>
      </trkpt>
      <trkpt lat="48.93308" lon="4.3789">
        <ele>82.1</ele>
        <time>2020-06-30T15:08:28Z</time>
      </trkpt>
      <trkpt lat="48.93313" lon="4.37883">
        <ele>82.1</ele>
        <time>2020-06-30T15:08:29Z</time>
      </trkpt>
      <trkpt lat="48.93319" lon="4.37876">
        <ele>82.1</ele>
        <time>2020-06-30T15:08:30Z</time>
      </trkpt>
      <trkpt lat="48.93325" lon="4.37869">
        <ele>82.1</ele>
        <time>2020-06-30T15:08:31Z</time>
      </trkpt>
      <trkpt lat="48.9333" lon="4.37862">
        <ele>82.1</ele>
        <time>2020-06-30T15:08:32Z</time>
      </trkpt>
      <trkpt lat="48.93336" lon="4.37855">
        <ele>82.2</ele>
        <time>2020-06-30T15:08:33Z</time>
      </trkpt>
      <trkpt lat="48.93342" lon="4.37848">
        <ele>82.2</ele>
        <time>2020-06-30T15:08:34Z</time>
      </trkpt>
      <trkpt lat="48.93348" lon="4.37841">
        <ele>82.2</ele>
        <time>2020-06-30T15:08:35Z</time>
      </trkpt>
      <trkpt lat="48.93353" lon="4.37834">
        <ele>82.2</ele>
        <time>2020-06-30T15:08:36Z</time>
      </trkpt>
      <trkpt lat="48.93359" lon="4.37828">
        <ele>82.2</ele>
        <time>2020-06-30T15:08:37Z</time>
      </trkpt>
      <trkpt lat="48.93364" lon="4.37821">
        <ele>82.1</ele>
        <time>2020-06-30T15:08:38Z</time>
      </trkpt>
      <trkpt lat="48.9337" lon="4.37814">
        <ele>82.1</ele>
        <time>2020-06-30T15:08:39Z</time>
      </trkpt>
      <trkpt lat="48.93375" lon="4.37807">
        <ele>82.1</ele>
        <time>2020-06-30T15:08:40Z</time>
      </trkpt>
      <trkpt lat="48.93381" lon="4.378">
        <ele>82.1</ele>
        <time>2020-06-30T15:08:41Z</time>
      </trkpt>
      <trkpt lat="48.93387" lon="4.37793">
        <ele>82.1</ele>
        <time>2020-06-30T15:08:42Z</time>
      </trkpt>
      <trkpt lat="48.93392" lon="4.37786">
        <ele>82.1</ele>
        <time>2020-06-30T15:08:43Z</time>
      </trkpt>
      <trkpt lat="48.93397" lon="4.37778">
        <ele>82.1</ele>
        <time>2020-06-30T15:08:44Z</time>
      </trkpt>
      <trkpt lat="48.93402" lon="4.37771">
        <ele>82</ele>
        <time>2020-06-30T15:08:45Z</time>
      </trkpt>
      <trkpt lat="48.93408" lon="4.37764">
        <ele>82</ele>
        <time>2020-06-30T15:08:46Z</time>
      </trkpt>
      <trkpt lat="48.93413" lon="4.37756">
        <ele>81.9</ele>
        <time>2020-06-30T15:08:47Z</time>
      </trkpt>
      <trkpt lat="48.93419" lon="4.3775">
        <ele>81.9</ele>
        <time>2020-06-30T15:08:48Z</time>
      </trkpt>
      <trkpt lat="48.93425" lon="4.37743">
        <ele>81.9</ele>
        <time>2020-06-30T15:08:49Z</time>
      </trkpt>
      <trkpt lat="48.93431" lon="4.37736">
        <ele>81.9</ele>
        <time>2020-06-30T15:08:50Z</time>
      </trkpt>
      <trkpt lat="48.93436" lon="4.37729">
        <ele>81.9</ele>
        <time>2020-06-30T15:08:51Z</time>
      </trkpt>
      <trkpt lat="48.93441" lon="4.3772">
        <ele>81.9</ele>
        <time>2020-06-30T15:08:52Z</time>
      </trkpt>
      <trkpt lat="48.93447" lon="4.37713">
        <ele>81.9</ele>
        <time>2020-06-30T15:08:53Z</time>
      </trkpt>
      <trkpt lat="48.93453" lon="4.37706">
        <ele>81.9</ele>
        <time>2020-06-30T15:08:54Z</time>
      </trkpt>
      <trkpt lat="48.93459" lon="4.37699">
        <ele>81.9</ele>
        <time>2020-06-30T15:08:55Z</time>
      </trkpt>
      <trkpt lat="48.93464" lon="4.37692">
        <ele>81.9</ele>
        <time>2020-06-30T15:08:56Z</time>
      </trkpt>
      <trkpt lat="48.9347" lon="4.37685">
        <ele>81.9</ele>
        <time>2020-06-30T15:08:57Z</time>
      </trkpt>
      <trkpt lat="48.93475" lon="4.37678">
        <ele>81.9</ele>
        <time>2020-06-30T15:08:58Z</time>
      </trkpt>
      <trkpt lat="48.93481" lon="4.37671">
        <ele>81.9</ele>
        <time>2020-06-30T15:08:59Z</time>
      </trkpt>
      <trkpt lat="48.93487" lon="4.37665">
        <ele>81.9</ele>
        <time>2020-06-30T15:09:00Z</time>
      </trkpt>
      <trkpt lat="48.93493" lon="4.37659">
        <ele>81.9</ele>
        <time>2020-06-30T15:09:01Z</time>
      </trkpt>
      <trkpt lat="48.93498" lon="4.37651">
        <ele>81.9</ele>
        <time>2020-06-30T15:09:02Z</time>
      </trkpt>
      <trkpt lat="48.93504" lon="4.37644">
        <ele>81.9</ele>
        <time>2020-06-30T15:09:03Z</time>
      </trkpt>
      <trkpt lat="48.93509" lon="4.37638">
        <ele>81.9</ele>
        <time>2020-06-30T15:09:04Z</time>
      </trkpt>
      <trkpt lat="48.93515" lon="4.37631">
        <ele>81.9</ele>
        <time>2020-06-30T15:09:05Z</time>
      </trkpt>
      <trkpt lat="48.93521" lon="4.37624">
        <ele>81.9</ele>
        <time>2020-06-30T15:09:06Z</time>
      </trkpt>
      <trkpt lat="48.93527" lon="4.37617">
        <ele>81.8</ele>
        <time>2020-06-30T15:09:07Z</time>
      </trkpt>
      <trkpt lat="48.93533" lon="4.3761">
        <ele>81.8</ele>
        <time>2020-06-30T15:09:08Z</time>
      </trkpt>
      <trkpt lat="48.93539" lon="4.37603">
        <ele>81.8</ele>
        <time>2020-06-30T15:09:09Z</time>
      </trkpt>
      <trkpt lat="48.93544" lon="4.37595">
        <ele>81.8</ele>
        <time>2020-06-30T15:09:10Z</time>
      </trkpt>
      <trkpt lat="48.9355" lon="4.37588">
        <ele>81.8</ele>
        <time>2020-06-30T15:09:11Z</time>
      </trkpt>
      <trkpt lat="48.93557" lon="4.37581">
        <ele>81.8</ele>
        <time>2020-06-30T15:09:12Z</time>
      </trkpt>
      <trkpt lat="48.93563" lon="4.37573">
        <ele>81.7</ele>
        <time>2020-06-30T15:09:13Z</time>
      </trkpt>
      <trkpt lat="48.93568" lon="4.37566">
        <ele>81.8</ele>
        <time>2020-06-30T15:09:14Z</time>
      </trkpt>
      <trkpt lat="48.93574" lon="4.37558">
        <ele>81.8</ele>
        <time>2020-06-30T15:09:15Z</time>
      </trkpt>
      <trkpt lat="48.93581" lon="4.37551">
        <ele>81.8</ele>
        <time>2020-06-30T15:09:16Z</time>
      </trkpt>
      <trkpt lat="48.93587" lon="4.37544">
        <ele>81.8</ele>
        <time>2020-06-30T15:09:17Z</time>
      </trkpt>
      <trkpt lat="48.93593" lon="4.37536">
        <ele>81.8</ele>
        <time>2020-06-30T15:09:18Z</time>
      </trkpt>
      <trkpt lat="48.93599" lon="4.37528">
        <ele>81.7</ele>
        <time>2020-06-30T15:09:19Z</time>
      </trkpt>
      <trkpt lat="48.93605" lon="4.37521">
        <ele>81.7</ele>
        <time>2020-06-30T15:09:20Z</time>
      </trkpt>
      <trkpt lat="48.93611" lon="4.37514">
        <ele>81.7</ele>
        <time>2020-06-30T15:09:21Z</time>
      </trkpt>
      <trkpt lat="48.93616" lon="4.37506">
        <ele>81.8</ele>
        <time>2020-06-30T15:09:22Z</time>
      </trkpt>
      <trkpt lat="48.93622" lon="4.37499">
        <ele>81.8</ele>
        <time>2020-06-30T15:09:23Z</time>
      </trkpt>
      <trkpt lat="48.93628" lon="4.37492">
        <ele>81.7</ele>
        <time>2020-06-30T15:09:24Z</time>
      </trkpt>
      <trkpt lat="48.93634" lon="4.37486">
        <ele>81.7</ele>
        <time>2020-06-30T15:09:25Z</time>
      </trkpt>
      <trkpt lat="48.93639" lon="4.37478">
        <ele>81.7</ele>
        <time>2020-06-30T15:09:26Z</time>
      </trkpt>
      <trkpt lat="48.93644" lon="4.37472">
        <ele>81.7</ele>
        <time>2020-06-30T15:09:27Z</time>
      </trkpt>
      <trkpt lat="48.93649" lon="4.37466">
        <ele>81.7</ele>
        <time>2020-06-30T15:09:28Z</time>
      </trkpt>
      <trkpt lat="48.93655" lon="4.37458">
        <ele>81.6</ele>
        <time>2020-06-30T15:09:29Z</time>
      </trkpt>
      <trkpt lat="48.9366" lon="4.37452">
        <ele>81.6</ele>
        <time>2020-06-30T15:09:30Z</time>
      </trkpt>
      <trkpt lat="48.93665" lon="4.37444">
        <ele>81.6</ele>
        <time>2020-06-30T15:09:31Z</time>
      </trkpt>
      <trkpt lat="48.93671" lon="4.37438">
        <ele>81.6</ele>
        <time>2020-06-30T15:09:32Z</time>
      </trkpt>
      <trkpt lat="48.93677" lon="4.37431">
        <ele>81.6</ele>
        <time>2020-06-30T15:09:33Z</time>
      </trkpt>
      <trkpt lat="48.93682" lon="4.37424">
        <ele>81.6</ele>
        <time>2020-06-30T15:09:34Z</time>
      </trkpt>
      <trkpt lat="48.93688" lon="4.37417">
        <ele>81.6</ele>
        <time>2020-06-30T15:09:35Z</time>
      </trkpt>
      <trkpt lat="48.93693" lon="4.37409">
        <ele>81.6</ele>
        <time>2020-06-30T15:09:36Z</time>
      </trkpt>
      <trkpt lat="48.93698" lon="4.37403">
        <ele>81.6</ele>
        <time>2020-06-30T15:09:37Z</time>
      </trkpt>
      <trkpt lat="48.93704" lon="4.37396">
        <ele>81.6</ele>
        <time>2020-06-30T15:09:38Z</time>
      </trkpt>
      <trkpt lat="48.93709" lon="4.37388">
        <ele>81.6</ele>
        <time>2020-06-30T15:09:39Z</time>
      </trkpt>
      <trkpt lat="48.93714" lon="4.37382">
        <ele>81.6</ele>
        <time>2020-06-30T15:09:40Z</time>
      </trkpt>
      <trkpt lat="48.9372" lon="4.37375">
        <ele>81.6</ele>
        <time>2020-06-30T15:09:41Z</time>
      </trkpt>
      <trkpt lat="48.93725" lon="4.37368">
        <ele>81.6</ele>
        <time>2020-06-30T15:09:42Z</time>
      </trkpt>
      <trkpt lat="48.9373" lon="4.37362">
        <ele>81.6</ele>
        <time>2020-06-30T15:09:43Z</time>
      </trkpt>
      <trkpt lat="48.93735" lon="4.37356">
        <ele>81.6</ele>
        <time>2020-06-30T15:09:44Z</time>
      </trkpt>
      <trkpt lat="48.93741" lon="4.37349">
        <ele>81.6</ele>
        <time>2020-06-30T15:09:45Z</time>
      </trkpt>
      <trkpt lat="48.93747" lon="4.37344">
        <ele>81.6</ele>
        <time>2020-06-30T15:09:46Z</time>
      </trkpt>
      <trkpt lat="48.93752" lon="4.37337">
        <ele>81.7</ele>
        <time>2020-06-30T15:09:47Z</time>
      </trkpt>
      <trkpt lat="48.93757" lon="4.37331">
        <ele>81.7</ele>
        <time>2020-06-30T15:09:48Z</time>
      </trkpt>
      <trkpt lat="48.93762" lon="4.37325">
        <ele>81.7</ele>
        <time>2020-06-30T15:09:49Z</time>
      </trkpt>
      <trkpt lat="48.93767" lon="4.37317">
        <ele>81.8</ele>
        <time>2020-06-30T15:09:50Z</time>
      </trkpt>
      <trkpt lat="48.93771" lon="4.3731">
        <ele>81.8</ele>
        <time>2020-06-30T15:09:51Z</time>
      </trkpt>
      <trkpt lat="48.93775" lon="4.37303">
        <ele>81.8</ele>
        <time>2020-06-30T15:09:52Z</time>
      </trkpt>
      <trkpt lat="48.93781" lon="4.37299">
        <ele>81.8</ele>
        <time>2020-06-30T15:09:53Z</time>
      </trkpt>
      <trkpt lat="48.93785" lon="4.37291">
        <ele>81.8</ele>
        <time>2020-06-30T15:09:54Z</time>
      </trkpt>
      <trkpt lat="48.93791" lon="4.37285">
        <ele>81.8</ele>
        <time>2020-06-30T15:09:55Z</time>
      </trkpt>
      <trkpt lat="48.93796" lon="4.37279">
        <ele>81.8</ele>
        <time>2020-06-30T15:09:56Z</time>
      </trkpt>
      <trkpt lat="48.938" lon="4.37272">
        <ele>81.8</ele>
        <time>2020-06-30T15:09:57Z</time>
      </trkpt>
      <trkpt lat="48.93804" lon="4.37265">
        <ele>81.9</ele>
        <time>2020-06-30T15:09:58Z</time>
      </trkpt>
      <trkpt lat="48.93809" lon="4.37258">
        <ele>81.9</ele>
        <time>2020-06-30T15:09:59Z</time>
      </trkpt>
      <trkpt lat="48.93816" lon="4.37253">
        <ele>81.9</ele>
        <time>2020-06-30T15:10:00Z</time>
      </trkpt>
      <trkpt lat="48.93821" lon="4.37246">
        <ele>81.9</ele>
        <time>2020-06-30T15:10:01Z</time>
      </trkpt>
      <trkpt lat="48.93826" lon="4.37239">
        <ele>81.8</ele>
        <time>2020-06-30T15:10:02Z</time>
      </trkpt>
      <trkpt lat="48.93831" lon="4.37233">
        <ele>81.8</ele>
        <time>2020-06-30T15:10:03Z</time>
      </trkpt>
      <trkpt lat="48.93836" lon="4.37225">
        <ele>81.8</ele>
        <time>2020-06-30T15:10:04Z</time>
      </trkpt>
      <trkpt lat="48.93841" lon="4.37219">
        <ele>81.9</ele>
        <time>2020-06-30T15:10:05Z</time>
      </trkpt>
      <trkpt lat="48.93847" lon="4.37212">
        <ele>81.9</ele>
        <time>2020-06-30T15:10:06Z</time>
      </trkpt>
      <trkpt lat="48.93852" lon="4.37205">
        <ele>81.9</ele>
        <time>2020-06-30T15:10:07Z</time>
      </trkpt>
      <trkpt lat="48.93859" lon="4.372">
        <ele>82</ele>
        <time>2020-06-30T15:10:08Z</time>
      </trkpt>
      <trkpt lat="48.93865" lon="4.37193">
        <ele>82</ele>
        <time>2020-06-30T15:10:09Z</time>
      </trkpt>
      <trkpt lat="48.93871" lon="4.37187">
        <ele>82</ele>
        <time>2020-06-30T15:10:10Z</time>
      </trkpt>
      <trkpt lat="48.93877" lon="4.37181">
        <ele>82</ele>
        <time>2020-06-30T15:10:11Z</time>
      </trkpt>
      <trkpt lat="48.93882" lon="4.37175">
        <ele>81.9</ele>
        <time>2020-06-30T15:10:12Z</time>
      </trkpt>
      <trkpt lat="48.93887" lon="4.37168">
        <ele>81.9</ele>
        <time>2020-06-30T15:10:13Z</time>
      </trkpt>
      <trkpt lat="48.93892" lon="4.37162">
        <ele>81.9</ele>
        <time>2020-06-30T15:10:14Z</time>
      </trkpt>
      <trkpt lat="48.93898" lon="4.37155">
        <ele>81.9</ele>
        <time>2020-06-30T15:10:15Z</time>
      </trkpt>
      <trkpt lat="48.93903" lon="4.37147">
        <ele>81.8</ele>
        <time>2020-06-30T15:10:16Z</time>
      </trkpt>
      <trkpt lat="48.93908" lon="4.3714">
        <ele>81.8</ele>
        <time>2020-06-30T15:10:17Z</time>
      </trkpt>
      <trkpt lat="48.93913" lon="4.37133">
        <ele>81.8</ele>
        <time>2020-06-30T15:10:18Z</time>
      </trkpt>
      <trkpt lat="48.93919" lon="4.37126">
        <ele>81.8</ele>
        <time>2020-06-30T15:10:19Z</time>
      </trkpt>
      <trkpt lat="48.93925" lon="4.3712">
        <ele>81.8</ele>
        <time>2020-06-30T15:10:20Z</time>
      </trkpt>
      <trkpt lat="48.93931" lon="4.37114">
        <ele>81.8</ele>
        <time>2020-06-30T15:10:21Z</time>
      </trkpt>
      <trkpt lat="48.93936" lon="4.37106">
        <ele>81.8</ele>
        <time>2020-06-30T15:10:22Z</time>
      </trkpt>
      <trkpt lat="48.93942" lon="4.37098">
        <ele>81.8</ele>
        <time>2020-06-30T15:10:23Z</time>
      </trkpt>
      <trkpt lat="48.93948" lon="4.37091">
        <ele>81.8</ele>
        <time>2020-06-30T15:10:24Z</time>
      </trkpt>
      <trkpt lat="48.93953" lon="4.37084">
        <ele>81.8</ele>
        <time>2020-06-30T15:10:25Z</time>
      </trkpt>
      <trkpt lat="48.93959" lon="4.37078">
        <ele>81.8</ele>
        <time>2020-06-30T15:10:26Z</time>
      </trkpt>
      <trkpt lat="48.93965" lon="4.37071">
        <ele>81.8</ele>
        <time>2020-06-30T15:10:27Z</time>
      </trkpt>
      <trkpt lat="48.9397" lon="4.37064">
        <ele>81.8</ele>
        <time>2020-06-30T15:10:28Z</time>
      </trkpt>
      <trkpt lat="48.93976" lon="4.37058">
        <ele>81.8</ele>
        <time>2020-06-30T15:10:29Z</time>
      </trkpt>
      <trkpt lat="48.93982" lon="4.37051">
        <ele>81.8</ele>
        <time>2020-06-30T15:10:30Z</time>
      </trkpt>
      <trkpt lat="48.93988" lon="4.37045">
        <ele>81.8</ele>
        <time>2020-06-30T15:10:31Z</time>
      </trkpt>
      <trkpt lat="48.93993" lon="4.37038">
        <ele>81.8</ele>
        <time>2020-06-30T15:10:32Z</time>
      </trkpt>
      <trkpt lat="48.93999" lon="4.37031">
        <ele>81.8</ele>
        <time>2020-06-30T15:10:33Z</time>
      </trkpt>
      <trkpt lat="48.94004" lon="4.37025">
        <ele>81.8</ele>
        <time>2020-06-30T15:10:34Z</time>
      </trkpt>
      <trkpt lat="48.9401" lon="4.37018">
        <ele>81.8</ele>
        <time>2020-06-30T15:10:35Z</time>
      </trkpt>
      <trkpt lat="48.94015" lon="4.37012">
        <ele>81.8</ele>
        <time>2020-06-30T15:10:36Z</time>
      </trkpt>
      <trkpt lat="48.9402" lon="4.37005">
        <ele>81.8</ele>
        <time>2020-06-30T15:10:37Z</time>
      </trkpt>
      <trkpt lat="48.94026" lon="4.36997">
        <ele>81.8</ele>
        <time>2020-06-30T15:10:38Z</time>
      </trkpt>
      <trkpt lat="48.94031" lon="4.3699">
        <ele>81.8</ele>
        <time>2020-06-30T15:10:39Z</time>
      </trkpt>
      <trkpt lat="48.94037" lon="4.36984">
        <ele>81.8</ele>
        <time>2020-06-30T15:10:40Z</time>
      </trkpt>
      <trkpt lat="48.94043" lon="4.36978">
        <ele>81.8</ele>
        <time>2020-06-30T15:10:41Z</time>
      </trkpt>
      <trkpt lat="48.94048" lon="4.36971">
        <ele>81.8</ele>
        <time>2020-06-30T15:10:42Z</time>
      </trkpt>
      <trkpt lat="48.94054" lon="4.36964">
        <ele>81.8</ele>
        <time>2020-06-30T15:10:43Z</time>
      </trkpt>
      <trkpt lat="48.94059" lon="4.36957">
        <ele>81.8</ele>
        <time>2020-06-30T15:10:44Z</time>
      </trkpt>
      <trkpt lat="48.94064" lon="4.36949">
        <ele>81.9</ele>
        <time>2020-06-30T15:10:45Z</time>
      </trkpt>
      <trkpt lat="48.9407" lon="4.36942">
        <ele>81.9</ele>
        <time>2020-06-30T15:10:46Z</time>
      </trkpt>
      <trkpt lat="48.94076" lon="4.36936">
        <ele>81.9</ele>
        <time>2020-06-30T15:10:47Z</time>
      </trkpt>
      <trkpt lat="48.94081" lon="4.36929">
        <ele>81.9</ele>
        <time>2020-06-30T15:10:48Z</time>
      </trkpt>
      <trkpt lat="48.94088" lon="4.36924">
        <ele>81.9</ele>
        <time>2020-06-30T15:10:49Z</time>
      </trkpt>
      <trkpt lat="48.94093" lon="4.36917">
        <ele>82</ele>
        <time>2020-06-30T15:10:50Z</time>
      </trkpt>
      <trkpt lat="48.94099" lon="4.3691">
        <ele>82</ele>
        <time>2020-06-30T15:10:51Z</time>
      </trkpt>
      <trkpt lat="48.94104" lon="4.36903">
        <ele>82</ele>
        <time>2020-06-30T15:10:52Z</time>
      </trkpt>
      <trkpt lat="48.94109" lon="4.36896">
        <ele>82</ele>
        <time>2020-06-30T15:10:53Z</time>
      </trkpt>
      <trkpt lat="48.94115" lon="4.36889">
        <ele>82</ele>
        <time>2020-06-30T15:10:54Z</time>
      </trkpt>
      <trkpt lat="48.94119" lon="4.36881">
        <ele>82</ele>
        <time>2020-06-30T15:10:55Z</time>
      </trkpt>
      <trkpt lat="48.94125" lon="4.36874">
        <ele>82</ele>
        <time>2020-06-30T15:10:56Z</time>
      </trkpt>
      <trkpt lat="48.9413" lon="4.36867">
        <ele>82</ele>
        <time>2020-06-30T15:10:57Z</time>
      </trkpt>
      <trkpt lat="48.94136" lon="4.36861">
        <ele>81.9</ele>
        <time>2020-06-30T15:10:58Z</time>
      </trkpt>
      <trkpt lat="48.94141" lon="4.36854">
        <ele>81.9</ele>
        <time>2020-06-30T15:10:59Z</time>
      </trkpt>
      <trkpt lat="48.94147" lon="4.36848">
        <ele>81.9</ele>
        <time>2020-06-30T15:11:00Z</time>
      </trkpt>
      <trkpt lat="48.94152" lon="4.36841">
        <ele>82</ele>
        <time>2020-06-30T15:11:01Z</time>
      </trkpt>
      <trkpt lat="48.94157" lon="4.36835">
        <ele>82</ele>
        <time>2020-06-30T15:11:02Z</time>
      </trkpt>
      <trkpt lat="48.94163" lon="4.36828">
        <ele>82</ele>
        <time>2020-06-30T15:11:03Z</time>
      </trkpt>
      <trkpt lat="48.94168" lon="4.36822">
        <ele>82</ele>
        <time>2020-06-30T15:11:04Z</time>
      </trkpt>
      <trkpt lat="48.94174" lon="4.36815">
        <ele>82</ele>
        <time>2020-06-30T15:11:05Z</time>
      </trkpt>
      <trkpt lat="48.94179" lon="4.36809">
        <ele>82</ele>
        <time>2020-06-30T15:11:06Z</time>
      </trkpt>
      <trkpt lat="48.94184" lon="4.36803">
        <ele>82</ele>
        <time>2020-06-30T15:11:07Z</time>
      </trkpt>
      <trkpt lat="48.94188" lon="4.36796">
        <ele>82</ele>
        <time>2020-06-30T15:11:08Z</time>
      </trkpt>
      <trkpt lat="48.94193" lon="4.36791">
        <ele>82</ele>
        <time>2020-06-30T15:11:09Z</time>
      </trkpt>
      <trkpt lat="48.94198" lon="4.36786">
        <ele>82</ele>
        <time>2020-06-30T15:11:10Z</time>
      </trkpt>
      <trkpt lat="48.94203" lon="4.36781">
        <ele>82</ele>
        <time>2020-06-30T15:11:11Z</time>
      </trkpt>
      <trkpt lat="48.94208" lon="4.36776">
        <ele>82</ele>
        <time>2020-06-30T15:11:12Z</time>
      </trkpt>
      <trkpt lat="48.94213" lon="4.3677">
        <ele>82</ele>
        <time>2020-06-30T15:11:13Z</time>
      </trkpt>
      <trkpt lat="48.94217" lon="4.36764">
        <ele>82</ele>
        <time>2020-06-30T15:11:14Z</time>
      </trkpt>
      <trkpt lat="48.94222" lon="4.36759">
        <ele>82</ele>
        <time>2020-06-30T15:11:15Z</time>
      </trkpt>
      <trkpt lat="48.94226" lon="4.36754">
        <ele>81.9</ele>
        <time>2020-06-30T15:11:16Z</time>
      </trkpt>
      <trkpt lat="48.9423" lon="4.36748">
        <ele>81.9</ele>
        <time>2020-06-30T15:11:17Z</time>
      </trkpt>
      <trkpt lat="48.94234" lon="4.36744">
        <ele>81.9</ele>
        <time>2020-06-30T15:11:18Z</time>
      </trkpt>
      <trkpt lat="48.94239" lon="4.3674">
        <ele>81.8</ele>
        <time>2020-06-30T15:11:19Z</time>
      </trkpt>
      <trkpt lat="48.94245" lon="4.36735">
        <ele>81.8</ele>
        <time>2020-06-30T15:11:20Z</time>
      </trkpt>
      <trkpt lat="48.9425" lon="4.3673">
        <ele>81.7</ele>
        <time>2020-06-30T15:11:21Z</time>
      </trkpt>
      <trkpt lat="48.94255" lon="4.36725">
        <ele>81.7</ele>
        <time>2020-06-30T15:11:22Z</time>
      </trkpt>
      <trkpt lat="48.94259" lon="4.3672">
        <ele>81.7</ele>
        <time>2020-06-30T15:11:23Z</time>
      </trkpt>
      <trkpt lat="48.94265" lon="4.36716">
        <ele>81.6</ele>
        <time>2020-06-30T15:11:24Z</time>
      </trkpt>
      <trkpt lat="48.94269" lon="4.36708">
        <ele>81.6</ele>
        <time>2020-06-30T15:11:25Z</time>
      </trkpt>
      <trkpt lat="48.94273" lon="4.36702">
        <ele>81.6</ele>
        <time>2020-06-30T15:11:26Z</time>
      </trkpt>
      <trkpt lat="48.94278" lon="4.36694">
        <ele>81.6</ele>
        <time>2020-06-30T15:11:27Z</time>
      </trkpt>
      <trkpt lat="48.94282" lon="4.36688">
        <ele>81.6</ele>
        <time>2020-06-30T15:11:28Z</time>
      </trkpt>
      <trkpt lat="48.94286" lon="4.36679">
        <ele>81.6</ele>
        <time>2020-06-30T15:11:29Z</time>
      </trkpt>
      <trkpt lat="48.94292" lon="4.36673">
        <ele>81.6</ele>
        <time>2020-06-30T15:11:30Z</time>
      </trkpt>
      <trkpt lat="48.94297" lon="4.36667">
        <ele>81.6</ele>
        <time>2020-06-30T15:11:31Z</time>
      </trkpt>
      <trkpt lat="48.94302" lon="4.36661">
        <ele>81.6</ele>
        <time>2020-06-30T15:11:32Z</time>
      </trkpt>
      <trkpt lat="48.94307" lon="4.36654">
        <ele>81.7</ele>
        <time>2020-06-30T15:11:33Z</time>
      </trkpt>
      <trkpt lat="48.94312" lon="4.36648">
        <ele>81.7</ele>
        <time>2020-06-30T15:11:34Z</time>
      </trkpt>
      <trkpt lat="48.94317" lon="4.36641">
        <ele>81.7</ele>
        <time>2020-06-30T15:11:35Z</time>
      </trkpt>
      <trkpt lat="48.94322" lon="4.36634">
        <ele>81.7</ele>
        <time>2020-06-30T15:11:36Z</time>
      </trkpt>
      <trkpt lat="48.94327" lon="4.36628">
        <ele>81.7</ele>
        <time>2020-06-30T15:11:37Z</time>
      </trkpt>
      <trkpt lat="48.94332" lon="4.36621">
        <ele>81.7</ele>
        <time>2020-06-30T15:11:38Z</time>
      </trkpt>
      <trkpt lat="48.94337" lon="4.36614">
        <ele>81.7</ele>
        <time>2020-06-30T15:11:39Z</time>
      </trkpt>
      <trkpt lat="48.94342" lon="4.36608">
        <ele>81.7</ele>
        <time>2020-06-30T15:11:40Z</time>
      </trkpt>
      <trkpt lat="48.94347" lon="4.36602">
        <ele>81.7</ele>
        <time>2020-06-30T15:11:41Z</time>
      </trkpt>
      <trkpt lat="48.94353" lon="4.36596">
        <ele>81.7</ele>
        <time>2020-06-30T15:11:42Z</time>
      </trkpt>
      <trkpt lat="48.94358" lon="4.3659">
        <ele>81.7</ele>
        <time>2020-06-30T15:11:43Z</time>
      </trkpt>
      <trkpt lat="48.94363" lon="4.36584">
        <ele>81.7</ele>
        <time>2020-06-30T15:11:44Z</time>
      </trkpt>
      <trkpt lat="48.94367" lon="4.36577">
        <ele>81.7</ele>
        <time>2020-06-30T15:11:45Z</time>
      </trkpt>
      <trkpt lat="48.94372" lon="4.3657">
        <ele>81.7</ele>
        <time>2020-06-30T15:11:46Z</time>
      </trkpt>
      <trkpt lat="48.94378" lon="4.36564">
        <ele>81.7</ele>
        <time>2020-06-30T15:11:47Z</time>
      </trkpt>
      <trkpt lat="48.94383" lon="4.36558">
        <ele>81.7</ele>
        <time>2020-06-30T15:11:48Z</time>
      </trkpt>
      <trkpt lat="48.94387" lon="4.36552">
        <ele>81.7</ele>
        <time>2020-06-30T15:11:49Z</time>
      </trkpt>
      <trkpt lat="48.94392" lon="4.36546">
        <ele>81.7</ele>
        <time>2020-06-30T15:11:50Z</time>
      </trkpt>
      <trkpt lat="48.94396" lon="4.36538">
        <ele>81.7</ele>
        <time>2020-06-30T15:11:51Z</time>
      </trkpt>
      <trkpt lat="48.94401" lon="4.36531">
        <ele>81.7</ele>
        <time>2020-06-30T15:11:52Z</time>
      </trkpt>
      <trkpt lat="48.94406" lon="4.36526">
        <ele>81.7</ele>
        <time>2020-06-30T15:11:53Z</time>
      </trkpt>
      <trkpt lat="48.94411" lon="4.36519">
        <ele>81.7</ele>
        <time>2020-06-30T15:11:54Z</time>
      </trkpt>
      <trkpt lat="48.94417" lon="4.36513">
        <ele>81.7</ele>
        <time>2020-06-30T15:11:55Z</time>
      </trkpt>
      <trkpt lat="48.94422" lon="4.36507">
        <ele>81.8</ele>
        <time>2020-06-30T15:11:56Z</time>
      </trkpt>
      <trkpt lat="48.94427" lon="4.365">
        <ele>81.8</ele>
        <time>2020-06-30T15:11:57Z</time>
      </trkpt>
      <trkpt lat="48.94432" lon="4.36494">
        <ele>81.8</ele>
        <time>2020-06-30T15:11:58Z</time>
      </trkpt>
      <trkpt lat="48.94438" lon="4.36489">
        <ele>81.8</ele>
        <time>2020-06-30T15:11:59Z</time>
      </trkpt>
      <trkpt lat="48.94443" lon="4.36484">
        <ele>81.9</ele>
        <time>2020-06-30T15:12:00Z</time>
      </trkpt>
      <trkpt lat="48.94448" lon="4.36479">
        <ele>81.9</ele>
        <time>2020-06-30T15:12:01Z</time>
      </trkpt>
      <trkpt lat="48.94452" lon="4.36473">
        <ele>82</ele>
        <time>2020-06-30T15:12:02Z</time>
      </trkpt>
      <trkpt lat="48.94456" lon="4.36467">
        <ele>82.1</ele>
        <time>2020-06-30T15:12:03Z</time>
      </trkpt>
      <trkpt lat="48.9446" lon="4.3646">
        <ele>82.1</ele>
        <time>2020-06-30T15:12:04Z</time>
      </trkpt>
      <trkpt lat="48.94465" lon="4.36454">
        <ele>82.1</ele>
        <time>2020-06-30T15:12:05Z</time>
      </trkpt>
      <trkpt lat="48.9447" lon="4.36447">
        <ele>82.1</ele>
        <time>2020-06-30T15:12:06Z</time>
      </trkpt>
      <trkpt lat="48.94476" lon="4.36441">
        <ele>82.1</ele>
        <time>2020-06-30T15:12:07Z</time>
      </trkpt>
      <trkpt lat="48.94481" lon="4.36434">
        <ele>82.1</ele>
        <time>2020-06-30T15:12:08Z</time>
      </trkpt>
      <trkpt lat="48.94486" lon="4.36429">
        <ele>82</ele>
        <time>2020-06-30T15:12:09Z</time>
      </trkpt>
      <trkpt lat="48.94491" lon="4.36423">
        <ele>82</ele>
        <time>2020-06-30T15:12:10Z</time>
      </trkpt>
      <trkpt lat="48.94496" lon="4.36416">
        <ele>81.9</ele>
        <time>2020-06-30T15:12:11Z</time>
      </trkpt>
      <trkpt lat="48.94501" lon="4.36409">
        <ele>81.8</ele>
        <time>2020-06-30T15:12:12Z</time>
      </trkpt>
      <trkpt lat="48.94505" lon="4.36399">
        <ele>81.8</ele>
        <time>2020-06-30T15:12:13Z</time>
      </trkpt>
      <trkpt lat="48.9451" lon="4.36391">
        <ele>81.8</ele>
        <time>2020-06-30T15:12:14Z</time>
      </trkpt>
      <trkpt lat="48.94514" lon="4.36383">
        <ele>81.9</ele>
        <time>2020-06-30T15:12:15Z</time>
      </trkpt>
      <trkpt lat="48.94519" lon="4.36375">
        <ele>81.9</ele>
        <time>2020-06-30T15:12:16Z</time>
      </trkpt>
      <trkpt lat="48.94525" lon="4.36368">
        <ele>81.9</ele>
        <time>2020-06-30T15:12:17Z</time>
      </trkpt>
      <trkpt lat="48.94532" lon="4.36361">
        <ele>81.9</ele>
        <time>2020-06-30T15:12:18Z</time>
      </trkpt>
      <trkpt lat="48.94538" lon="4.36355">
        <ele>82</ele>
        <time>2020-06-30T15:12:19Z</time>
      </trkpt>
      <trkpt lat="48.94544" lon="4.36348">
        <ele>82</ele>
        <time>2020-06-30T15:12:20Z</time>
      </trkpt>
      <trkpt lat="48.9455" lon="4.36341">
        <ele>82</ele>
        <time>2020-06-30T15:12:21Z</time>
      </trkpt>
      <trkpt lat="48.94556" lon="4.36333">
        <ele>82</ele>
        <time>2020-06-30T15:12:22Z</time>
      </trkpt>
      <trkpt lat="48.94561" lon="4.36326">
        <ele>82</ele>
        <time>2020-06-30T15:12:23Z</time>
      </trkpt>
      <trkpt lat="48.94567" lon="4.36319">
        <ele>82.1</ele>
        <time>2020-06-30T15:12:24Z</time>
      </trkpt>
      <trkpt lat="48.94573" lon="4.36312">
        <ele>82.1</ele>
        <time>2020-06-30T15:12:25Z</time>
      </trkpt>
      <trkpt lat="48.94578" lon="4.36306">
        <ele>82.1</ele>
        <time>2020-06-30T15:12:26Z</time>
      </trkpt>
      <trkpt lat="48.94584" lon="4.363">
        <ele>82</ele>
        <time>2020-06-30T15:12:27Z</time>
      </trkpt>
      <trkpt lat="48.9459" lon="4.36295">
        <ele>82</ele>
        <time>2020-06-30T15:12:28Z</time>
      </trkpt>
      <trkpt lat="48.94596" lon="4.36288">
        <ele>82</ele>
        <time>2020-06-30T15:12:29Z</time>
      </trkpt>
      <trkpt lat="48.94601" lon="4.36283">
        <ele>82</ele>
        <time>2020-06-30T15:12:30Z</time>
      </trkpt>
      <trkpt lat="48.94607" lon="4.36276">
        <ele>81.9</ele>
        <time>2020-06-30T15:12:31Z</time>
      </trkpt>
      <trkpt lat="48.94612" lon="4.36269">
        <ele>81.9</ele>
        <time>2020-06-30T15:12:32Z</time>
      </trkpt>
      <trkpt lat="48.94617" lon="4.36264">
        <ele>81.9</ele>
        <time>2020-06-30T15:12:33Z</time>
      </trkpt>
      <trkpt lat="48.94622" lon="4.36258">
        <ele>81.8</ele>
        <time>2020-06-30T15:12:34Z</time>
      </trkpt>
      <trkpt lat="48.94628" lon="4.36251">
        <ele>81.8</ele>
        <time>2020-06-30T15:12:35Z</time>
      </trkpt>
      <trkpt lat="48.94634" lon="4.36245">
        <ele>81.8</ele>
        <time>2020-06-30T15:12:36Z</time>
      </trkpt>
      <trkpt lat="48.9464" lon="4.36238">
        <ele>81.8</ele>
        <time>2020-06-30T15:12:37Z</time>
      </trkpt>
      <trkpt lat="48.94645" lon="4.36232">
        <ele>81.8</ele>
        <time>2020-06-30T15:12:38Z</time>
      </trkpt>
      <trkpt lat="48.94651" lon="4.36225">
        <ele>81.8</ele>
        <time>2020-06-30T15:12:39Z</time>
      </trkpt>
      <trkpt lat="48.94657" lon="4.36218">
        <ele>81.8</ele>
        <time>2020-06-30T15:12:40Z</time>
      </trkpt>
      <trkpt lat="48.94663" lon="4.36212">
        <ele>81.8</ele>
        <time>2020-06-30T15:12:41Z</time>
      </trkpt>
      <trkpt lat="48.94668" lon="4.36206">
        <ele>81.7</ele>
        <time>2020-06-30T15:12:42Z</time>
      </trkpt>
      <trkpt lat="48.94674" lon="4.362">
        <ele>81.7</ele>
        <time>2020-06-30T15:12:43Z</time>
      </trkpt>
      <trkpt lat="48.94678" lon="4.36192">
        <ele>81.7</ele>
        <time>2020-06-30T15:12:44Z</time>
      </trkpt>
      <trkpt lat="48.94683" lon="4.36185">
        <ele>81.7</ele>
        <time>2020-06-30T15:12:45Z</time>
      </trkpt>
      <trkpt lat="48.94687" lon="4.36179">
        <ele>81.7</ele>
        <time>2020-06-30T15:12:46Z</time>
      </trkpt>
      <trkpt lat="48.94692" lon="4.36173">
        <ele>81.7</ele>
        <time>2020-06-30T15:12:47Z</time>
      </trkpt>
      <trkpt lat="48.94697" lon="4.36166">
        <ele>81.7</ele>
        <time>2020-06-30T15:12:48Z</time>
      </trkpt>
      <trkpt lat="48.94702" lon="4.3616">
        <ele>81.7</ele>
        <time>2020-06-30T15:12:49Z</time>
      </trkpt>
      <trkpt lat="48.94708" lon="4.36154">
        <ele>81.7</ele>
        <time>2020-06-30T15:12:50Z</time>
      </trkpt>
      <trkpt lat="48.94714" lon="4.36148">
        <ele>81.7</ele>
        <time>2020-06-30T15:12:51Z</time>
      </trkpt>
      <trkpt lat="48.94719" lon="4.36142">
        <ele>81.7</ele>
        <time>2020-06-30T15:12:52Z</time>
      </trkpt>
      <trkpt lat="48.94725" lon="4.36135">
        <ele>81.7</ele>
        <time>2020-06-30T15:12:53Z</time>
      </trkpt>
      <trkpt lat="48.9473" lon="4.36126">
        <ele>81.7</ele>
        <time>2020-06-30T15:12:54Z</time>
      </trkpt>
      <trkpt lat="48.94736" lon="4.3612">
        <ele>81.7</ele>
        <time>2020-06-30T15:12:55Z</time>
      </trkpt>
      <trkpt lat="48.94742" lon="4.36113">
        <ele>81.7</ele>
        <time>2020-06-30T15:12:56Z</time>
      </trkpt>
      <trkpt lat="48.94747" lon="4.36107">
        <ele>81.7</ele>
        <time>2020-06-30T15:12:57Z</time>
      </trkpt>
      <trkpt lat="48.94752" lon="4.361">
        <ele>81.7</ele>
        <time>2020-06-30T15:12:58Z</time>
      </trkpt>
      <trkpt lat="48.94757" lon="4.36092">
        <ele>81.7</ele>
        <time>2020-06-30T15:12:59Z</time>
      </trkpt>
      <trkpt lat="48.94761" lon="4.36083">
        <ele>81.7</ele>
        <time>2020-06-30T15:13:00Z</time>
      </trkpt>
      <trkpt lat="48.94766" lon="4.36075">
        <ele>81.7</ele>
        <time>2020-06-30T15:13:01Z</time>
      </trkpt>
      <trkpt lat="48.94772" lon="4.36068">
        <ele>81.8</ele>
        <time>2020-06-30T15:13:02Z</time>
      </trkpt>
      <trkpt lat="48.94778" lon="4.36062">
        <ele>81.7</ele>
        <time>2020-06-30T15:13:03Z</time>
      </trkpt>
      <trkpt lat="48.94784" lon="4.36056">
        <ele>81.7</ele>
        <time>2020-06-30T15:13:04Z</time>
      </trkpt>
      <trkpt lat="48.94788" lon="4.36048">
        <ele>81.7</ele>
        <time>2020-06-30T15:13:05Z</time>
      </trkpt>
      <trkpt lat="48.94794" lon="4.36042">
        <ele>81.7</ele>
        <time>2020-06-30T15:13:06Z</time>
      </trkpt>
      <trkpt lat="48.948" lon="4.36035">
        <ele>81.7</ele>
        <time>2020-06-30T15:13:07Z</time>
      </trkpt>
      <trkpt lat="48.94805" lon="4.36028">
        <ele>81.7</ele>
        <time>2020-06-30T15:13:08Z</time>
      </trkpt>
      <trkpt lat="48.9481" lon="4.36022">
        <ele>81.7</ele>
        <time>2020-06-30T15:13:09Z</time>
      </trkpt>
      <trkpt lat="48.94816" lon="4.36016">
        <ele>81.7</ele>
        <time>2020-06-30T15:13:10Z</time>
      </trkpt>
      <trkpt lat="48.94822" lon="4.36011">
        <ele>81.7</ele>
        <time>2020-06-30T15:13:11Z</time>
      </trkpt>
      <trkpt lat="48.94828" lon="4.36004">
        <ele>81.7</ele>
        <time>2020-06-30T15:13:12Z</time>
      </trkpt>
      <trkpt lat="48.94834" lon="4.35998">
        <ele>81.7</ele>
        <time>2020-06-30T15:13:13Z</time>
      </trkpt>
      <trkpt lat="48.9484" lon="4.35991">
        <ele>81.8</ele>
        <time>2020-06-30T15:13:14Z</time>
      </trkpt>
      <trkpt lat="48.94846" lon="4.35985">
        <ele>81.8</ele>
        <time>2020-06-30T15:13:15Z</time>
      </trkpt>
      <trkpt lat="48.94852" lon="4.35978">
        <ele>81.8</ele>
        <time>2020-06-30T15:13:16Z</time>
      </trkpt>
      <trkpt lat="48.94857" lon="4.35972">
        <ele>81.8</ele>
        <time>2020-06-30T15:13:17Z</time>
      </trkpt>
      <trkpt lat="48.94862" lon="4.35964">
        <ele>81.8</ele>
        <time>2020-06-30T15:13:18Z</time>
      </trkpt>
      <trkpt lat="48.94868" lon="4.35957">
        <ele>81.8</ele>
        <time>2020-06-30T15:13:19Z</time>
      </trkpt>
      <trkpt lat="48.94874" lon="4.35949">
        <ele>81.8</ele>
        <time>2020-06-30T15:13:20Z</time>
      </trkpt>
      <trkpt lat="48.94879" lon="4.35942">
        <ele>81.8</ele>
        <time>2020-06-30T15:13:21Z</time>
      </trkpt>
      <trkpt lat="48.94884" lon="4.35934">
        <ele>81.9</ele>
        <time>2020-06-30T15:13:22Z</time>
      </trkpt>
      <trkpt lat="48.94889" lon="4.35926">
        <ele>82</ele>
        <time>2020-06-30T15:13:23Z</time>
      </trkpt>
      <trkpt lat="48.94894" lon="4.35919">
        <ele>82.2</ele>
        <time>2020-06-30T15:13:24Z</time>
      </trkpt>
      <trkpt lat="48.94897" lon="4.35912">
        <ele>82.4</ele>
        <time>2020-06-30T15:13:25Z</time>
      </trkpt>
      <trkpt lat="48.949" lon="4.35907">
        <ele>82.5</ele>
        <time>2020-06-30T15:13:26Z</time>
      </trkpt>
      <trkpt lat="48.94903" lon="4.35903">
        <ele>82.7</ele>
        <time>2020-06-30T15:13:27Z</time>
      </trkpt>
      <trkpt lat="48.94905" lon="4.359">
        <ele>82.9</ele>
        <time>2020-06-30T15:13:28Z</time>
      </trkpt>
      <trkpt lat="48.94908" lon="4.35898">
        <ele>83.1</ele>
        <time>2020-06-30T15:13:29Z</time>
      </trkpt>
      <trkpt lat="48.94912" lon="4.35896">
        <ele>83.4</ele>
        <time>2020-06-30T15:13:30Z</time>
      </trkpt>
      <trkpt lat="48.94913" lon="4.35894">
        <ele>83.5</ele>
        <time>2020-06-30T15:13:31Z</time>
      </trkpt>
      <trkpt lat="48.94915" lon="4.3589">
        <ele>83.6</ele>
        <time>2020-06-30T15:13:32Z</time>
      </trkpt>
      <trkpt lat="48.94919" lon="4.35889">
        <ele>83.7</ele>
        <time>2020-06-30T15:13:33Z</time>
      </trkpt>
      <trkpt lat="48.94923" lon="4.35883">
        <ele>83.8</ele>
        <time>2020-06-30T15:13:34Z</time>
      </trkpt>
      <trkpt lat="48.94927" lon="4.35878">
        <ele>83.8</ele>
        <time>2020-06-30T15:13:35Z</time>
      </trkpt>
      <trkpt lat="48.94932" lon="4.35871">
        <ele>83.7</ele>
        <time>2020-06-30T15:13:36Z</time>
      </trkpt>
      <trkpt lat="48.94938" lon="4.35867">
        <ele>83.3</ele>
        <time>2020-06-30T15:13:37Z</time>
      </trkpt>
      <trkpt lat="48.94945" lon="4.35864">
        <ele>83</ele>
        <time>2020-06-30T15:13:38Z</time>
      </trkpt>
      <trkpt lat="48.94951" lon="4.3586">
        <ele>82.7</ele>
        <time>2020-06-30T15:13:39Z</time>
      </trkpt>
      <trkpt lat="48.94956" lon="4.35855">
        <ele>82.5</ele>
        <time>2020-06-30T15:13:40Z</time>
      </trkpt>
      <trkpt lat="48.9496" lon="4.35847">
        <ele>82.4</ele>
        <time>2020-06-30T15:13:41Z</time>
      </trkpt>
      <trkpt lat="48.94965" lon="4.3584">
        <ele>82.3</ele>
        <time>2020-06-30T15:13:42Z</time>
      </trkpt>
      <trkpt lat="48.94969" lon="4.35832">
        <ele>82.2</ele>
        <time>2020-06-30T15:13:43Z</time>
      </trkpt>
      <trkpt lat="48.94971" lon="4.35824">
        <ele>82.2</ele>
        <time>2020-06-30T15:13:44Z</time>
      </trkpt>
      <trkpt lat="48.94975" lon="4.35817">
        <ele>82.2</ele>
        <time>2020-06-30T15:13:45Z</time>
      </trkpt>
      <trkpt lat="48.94979" lon="4.35811">
        <ele>82.2</ele>
        <time>2020-06-30T15:13:46Z</time>
      </trkpt>
      <trkpt lat="48.94983" lon="4.35805">
        <ele>82.2</ele>
        <time>2020-06-30T15:13:47Z</time>
      </trkpt>
      <trkpt lat="48.94987" lon="4.35798">
        <ele>82.2</ele>
        <time>2020-06-30T15:13:48Z</time>
      </trkpt>
      <trkpt lat="48.94991" lon="4.35789">
        <ele>82.2</ele>
        <time>2020-06-30T15:13:49Z</time>
      </trkpt>
      <trkpt lat="48.94997" lon="4.35782">
        <ele>82.2</ele>
        <time>2020-06-30T15:13:50Z</time>
      </trkpt>
      <trkpt lat="48.95003" lon="4.35778">
        <ele>82.2</ele>
        <time>2020-06-30T15:13:51Z</time>
      </trkpt>
      <trkpt lat="48.95009" lon="4.35774">
        <ele>82.2</ele>
        <time>2020-06-30T15:13:52Z</time>
      </trkpt>
      <trkpt lat="48.95016" lon="4.35771">
        <ele>82.2</ele>
        <time>2020-06-30T15:13:53Z</time>
      </trkpt>
      <trkpt lat="48.95022" lon="4.35766">
        <ele>82.2</ele>
        <time>2020-06-30T15:13:54Z</time>
      </trkpt>
      <trkpt lat="48.95028" lon="4.35764">
        <ele>82.2</ele>
        <time>2020-06-30T15:13:55Z</time>
      </trkpt>
      <trkpt lat="48.95034" lon="4.3576">
        <ele>82.2</ele>
        <time>2020-06-30T15:13:56Z</time>
      </trkpt>
      <trkpt lat="48.9504" lon="4.35755">
        <ele>82.2</ele>
        <time>2020-06-30T15:13:57Z</time>
      </trkpt>
      <trkpt lat="48.95046" lon="4.35751">
        <ele>82.2</ele>
        <time>2020-06-30T15:13:58Z</time>
      </trkpt>
      <trkpt lat="48.95052" lon="4.35749">
        <ele>82.2</ele>
        <time>2020-06-30T15:13:59Z</time>
      </trkpt>
      <trkpt lat="48.95057" lon="4.35743">
        <ele>82.2</ele>
        <time>2020-06-30T15:14:00Z</time>
      </trkpt>
      <trkpt lat="48.95063" lon="4.35738">
        <ele>82.2</ele>
        <time>2020-06-30T15:14:01Z</time>
      </trkpt>
      <trkpt lat="48.95069" lon="4.35731">
        <ele>82.2</ele>
        <time>2020-06-30T15:14:02Z</time>
      </trkpt>
      <trkpt lat="48.95075" lon="4.35728">
        <ele>82.2</ele>
        <time>2020-06-30T15:14:03Z</time>
      </trkpt>
      <trkpt lat="48.95081" lon="4.35725">
        <ele>82.1</ele>
        <time>2020-06-30T15:14:04Z</time>
      </trkpt>
      <trkpt lat="48.95087" lon="4.35723">
        <ele>82</ele>
        <time>2020-06-30T15:14:05Z</time>
      </trkpt>
      <trkpt lat="48.95093" lon="4.35721">
        <ele>82</ele>
        <time>2020-06-30T15:14:06Z</time>
      </trkpt>
      <trkpt lat="48.95099" lon="4.35718">
        <ele>81.9</ele>
        <time>2020-06-30T15:14:07Z</time>
      </trkpt>
      <trkpt lat="48.95106" lon="4.35717">
        <ele>81.9</ele>
        <time>2020-06-30T15:14:08Z</time>
      </trkpt>
      <trkpt lat="48.95113" lon="4.35716">
        <ele>81.9</ele>
        <time>2020-06-30T15:14:09Z</time>
      </trkpt>
      <trkpt lat="48.95119" lon="4.35713">
        <ele>81.9</ele>
        <time>2020-06-30T15:14:10Z</time>
      </trkpt>
      <trkpt lat="48.95125" lon="4.35711">
        <ele>81.9</ele>
        <time>2020-06-30T15:14:11Z</time>
      </trkpt>
      <trkpt lat="48.95131" lon="4.35707">
        <ele>81.9</ele>
        <time>2020-06-30T15:14:12Z</time>
      </trkpt>
      <trkpt lat="48.95137" lon="4.35703">
        <ele>81.9</ele>
        <time>2020-06-30T15:14:13Z</time>
      </trkpt>
      <trkpt lat="48.95143" lon="4.35699">
        <ele>82</ele>
        <time>2020-06-30T15:14:14Z</time>
      </trkpt>
      <trkpt lat="48.95149" lon="4.35696">
        <ele>82</ele>
        <time>2020-06-30T15:14:15Z</time>
      </trkpt>
      <trkpt lat="48.95155" lon="4.35693">
        <ele>82</ele>
        <time>2020-06-30T15:14:16Z</time>
      </trkpt>
      <trkpt lat="48.95162" lon="4.3569">
        <ele>82</ele>
        <time>2020-06-30T15:14:17Z</time>
      </trkpt>
      <trkpt lat="48.95168" lon="4.35686">
        <ele>82</ele>
        <time>2020-06-30T15:14:18Z</time>
      </trkpt>
      <trkpt lat="48.95175" lon="4.35683">
        <ele>82</ele>
        <time>2020-06-30T15:14:19Z</time>
      </trkpt>
      <trkpt lat="48.95181" lon="4.3568">
        <ele>82</ele>
        <time>2020-06-30T15:14:20Z</time>
      </trkpt>
      <trkpt lat="48.95187" lon="4.35677">
        <ele>82.1</ele>
        <time>2020-06-30T15:14:21Z</time>
      </trkpt>
      <trkpt lat="48.95192" lon="4.35672">
        <ele>82.1</ele>
        <time>2020-06-30T15:14:22Z</time>
      </trkpt>
      <trkpt lat="48.95198" lon="4.35667">
        <ele>82.1</ele>
        <time>2020-06-30T15:14:23Z</time>
      </trkpt>
      <trkpt lat="48.95204" lon="4.35663">
        <ele>82.1</ele>
        <time>2020-06-30T15:14:24Z</time>
      </trkpt>
      <trkpt lat="48.9521" lon="4.35661">
        <ele>82.1</ele>
        <time>2020-06-30T15:14:25Z</time>
      </trkpt>
      <trkpt lat="48.95216" lon="4.35656">
        <ele>82.1</ele>
        <time>2020-06-30T15:14:26Z</time>
      </trkpt>
      <trkpt lat="48.95223" lon="4.35654">
        <ele>82</ele>
        <time>2020-06-30T15:14:27Z</time>
      </trkpt>
      <trkpt lat="48.95229" lon="4.35652">
        <ele>82</ele>
        <time>2020-06-30T15:14:28Z</time>
      </trkpt>
      <trkpt lat="48.95236" lon="4.35648">
        <ele>82</ele>
        <time>2020-06-30T15:14:29Z</time>
      </trkpt>
      <trkpt lat="48.95242" lon="4.35644">
        <ele>82</ele>
        <time>2020-06-30T15:14:30Z</time>
      </trkpt>
      <trkpt lat="48.95248" lon="4.35641">
        <ele>82</ele>
        <time>2020-06-30T15:14:31Z</time>
      </trkpt>
      <trkpt lat="48.95255" lon="4.35637">
        <ele>81.9</ele>
        <time>2020-06-30T15:14:32Z</time>
      </trkpt>
      <trkpt lat="48.9526" lon="4.35633">
        <ele>81.9</ele>
        <time>2020-06-30T15:14:33Z</time>
      </trkpt>
      <trkpt lat="48.95267" lon="4.35628">
        <ele>82</ele>
        <time>2020-06-30T15:14:34Z</time>
      </trkpt>
      <trkpt lat="48.95273" lon="4.35622">
        <ele>82</ele>
        <time>2020-06-30T15:14:35Z</time>
      </trkpt>
      <trkpt lat="48.95279" lon="4.35618">
        <ele>82</ele>
        <time>2020-06-30T15:14:36Z</time>
      </trkpt>
      <trkpt lat="48.95285" lon="4.35615">
        <ele>82</ele>
        <time>2020-06-30T15:14:37Z</time>
      </trkpt>
      <trkpt lat="48.9529" lon="4.3561">
        <ele>82</ele>
        <time>2020-06-30T15:14:38Z</time>
      </trkpt>
      <trkpt lat="48.95296" lon="4.35607">
        <ele>82</ele>
        <time>2020-06-30T15:14:39Z</time>
      </trkpt>
      <trkpt lat="48.95302" lon="4.35604">
        <ele>82</ele>
        <time>2020-06-30T15:14:40Z</time>
      </trkpt>
      <trkpt lat="48.95307" lon="4.35601">
        <ele>82</ele>
        <time>2020-06-30T15:14:41Z</time>
      </trkpt>
      <trkpt lat="48.95312" lon="4.35597">
        <ele>82</ele>
        <time>2020-06-30T15:14:42Z</time>
      </trkpt>
      <trkpt lat="48.95317" lon="4.35592">
        <ele>82</ele>
        <time>2020-06-30T15:14:43Z</time>
      </trkpt>
      <trkpt lat="48.95324" lon="4.35587">
        <ele>82</ele>
        <time>2020-06-30T15:14:44Z</time>
      </trkpt>
      <trkpt lat="48.95331" lon="4.35582">
        <ele>82</ele>
        <time>2020-06-30T15:14:45Z</time>
      </trkpt>
      <trkpt lat="48.95338" lon="4.3558">
        <ele>82</ele>
        <time>2020-06-30T15:14:46Z</time>
      </trkpt>
      <trkpt lat="48.95346" lon="4.35579">
        <ele>82</ele>
        <time>2020-06-30T15:14:47Z</time>
      </trkpt>
      <trkpt lat="48.95351" lon="4.35573">
        <ele>82</ele>
        <time>2020-06-30T15:14:48Z</time>
      </trkpt>
      <trkpt lat="48.95357" lon="4.35569">
        <ele>82</ele>
        <time>2020-06-30T15:14:49Z</time>
      </trkpt>
      <trkpt lat="48.95363" lon="4.35567">
        <ele>82</ele>
        <time>2020-06-30T15:14:50Z</time>
      </trkpt>
      <trkpt lat="48.95369" lon="4.35565">
        <ele>82</ele>
        <time>2020-06-30T15:14:51Z</time>
      </trkpt>
      <trkpt lat="48.95376" lon="4.35563">
        <ele>82.1</ele>
        <time>2020-06-30T15:14:52Z</time>
      </trkpt>
      <trkpt lat="48.95381" lon="4.35559">
        <ele>82.1</ele>
        <time>2020-06-30T15:14:53Z</time>
      </trkpt>
      <trkpt lat="48.95388" lon="4.35557">
        <ele>82.1</ele>
        <time>2020-06-30T15:14:54Z</time>
      </trkpt>
      <trkpt lat="48.95394" lon="4.35551">
        <ele>82.1</ele>
        <time>2020-06-30T15:14:55Z</time>
      </trkpt>
      <trkpt lat="48.954" lon="4.35546">
        <ele>82.1</ele>
        <time>2020-06-30T15:14:56Z</time>
      </trkpt>
      <trkpt lat="48.95406" lon="4.35541">
        <ele>82.1</ele>
        <time>2020-06-30T15:14:57Z</time>
      </trkpt>
      <trkpt lat="48.95412" lon="4.35537">
        <ele>82.1</ele>
        <time>2020-06-30T15:14:58Z</time>
      </trkpt>
      <trkpt lat="48.95417" lon="4.35532">
        <ele>82.1</ele>
        <time>2020-06-30T15:14:59Z</time>
      </trkpt>
      <trkpt lat="48.95423" lon="4.35529">
        <ele>82.1</ele>
        <time>2020-06-30T15:15:00Z</time>
      </trkpt>
      <trkpt lat="48.95428" lon="4.35525">
        <ele>82.1</ele>
        <time>2020-06-30T15:15:01Z</time>
      </trkpt>
      <trkpt lat="48.95433" lon="4.35522">
        <ele>82.1</ele>
        <time>2020-06-30T15:15:02Z</time>
      </trkpt>
      <trkpt lat="48.95438" lon="4.35518">
        <ele>82.1</ele>
        <time>2020-06-30T15:15:03Z</time>
      </trkpt>
      <trkpt lat="48.95442" lon="4.35514">
        <ele>82.1</ele>
        <time>2020-06-30T15:15:04Z</time>
      </trkpt>
      <trkpt lat="48.95447" lon="4.35512">
        <ele>82.1</ele>
        <time>2020-06-30T15:15:05Z</time>
      </trkpt>
      <trkpt lat="48.95451" lon="4.35509">
        <ele>82.3</ele>
        <time>2020-06-30T15:15:06Z</time>
      </trkpt>
      <trkpt lat="48.95456" lon="4.35506">
        <ele>82.4</ele>
        <time>2020-06-30T15:15:07Z</time>
      </trkpt>
      <trkpt lat="48.95461" lon="4.35503">
        <ele>82.4</ele>
        <time>2020-06-30T15:15:08Z</time>
      </trkpt>
      <trkpt lat="48.95466" lon="4.35501">
        <ele>82.5</ele>
        <time>2020-06-30T15:15:09Z</time>
      </trkpt>
      <trkpt lat="48.9547" lon="4.35498">
        <ele>82.6</ele>
        <time>2020-06-30T15:15:10Z</time>
      </trkpt>
      <trkpt lat="48.95475" lon="4.35495">
        <ele>82.7</ele>
        <time>2020-06-30T15:15:11Z</time>
      </trkpt>
      <trkpt lat="48.95478" lon="4.35493">
        <ele>82.8</ele>
        <time>2020-06-30T15:15:12Z</time>
      </trkpt>
      <trkpt lat="48.9548" lon="4.35491">
        <ele>82.9</ele>
        <time>2020-06-30T15:15:13Z</time>
      </trkpt>
      <trkpt lat="48.95482" lon="4.3549">
        <ele>82.9</ele>
        <time>2020-06-30T15:15:14Z</time>
      </trkpt>
      <trkpt lat="48.95483" lon="4.35488">
        <ele>83</ele>
        <time>2020-06-30T15:15:15Z</time>
      </trkpt>
      <trkpt lat="48.95485" lon="4.35489">
        <ele>83</ele>
        <time>2020-06-30T15:15:16Z</time>
      </trkpt>
      <trkpt lat="48.95486" lon="4.35489">
        <ele>83</ele>
        <time>2020-06-30T15:15:17Z</time>
      </trkpt>
      <trkpt lat="48.95486" lon="4.35489">
        <ele>83</ele>
        <time>2020-06-30T15:15:18Z</time>
      </trkpt>
      <trkpt lat="48.95487" lon="4.35489">
        <ele>83</ele>
        <time>2020-06-30T15:15:19Z</time>
      </trkpt>
      <trkpt lat="48.95488" lon="4.3549">
        <ele>83.1</ele>
        <time>2020-06-30T15:15:20Z</time>
      </trkpt>
      <trkpt lat="48.95489" lon="4.35492">
        <ele>83.1</ele>
        <time>2020-06-30T15:15:21Z</time>
      </trkpt>
      <trkpt lat="48.95491" lon="4.35496">
        <ele>84.1</ele>
        <time>2020-06-30T15:15:22Z</time>
      </trkpt>
      <trkpt lat="48.95492" lon="4.35497">
        <ele>84.1</ele>
        <time>2020-06-30T15:15:23Z</time>
      </trkpt>
      <trkpt lat="48.95493" lon="4.35502">
        <ele>84.1</ele>
        <time>2020-06-30T15:15:24Z</time>
      </trkpt>
      <trkpt lat="48.95494" lon="4.35504">
        <ele>84.1</ele>
        <time>2020-06-30T15:15:25Z</time>
      </trkpt>
      <trkpt lat="48.95494" lon="4.3551">
        <ele>84.2</ele>
        <time>2020-06-30T15:15:26Z</time>
      </trkpt>
      <trkpt lat="48.95493" lon="4.35512">
        <ele>84.2</ele>
        <time>2020-06-30T15:15:27Z</time>
      </trkpt>
      <trkpt lat="48.95493" lon="4.35517">
        <ele>84.2</ele>
        <time>2020-06-30T15:15:28Z</time>
      </trkpt>
      <trkpt lat="48.95494" lon="4.35522">
        <ele>84.2</ele>
        <time>2020-06-30T15:15:29Z</time>
      </trkpt>
      <trkpt lat="48.95494" lon="4.35526">
        <ele>84.2</ele>
        <time>2020-06-30T15:15:30Z</time>
      </trkpt>
      <trkpt lat="48.95494" lon="4.3553">
        <ele>84.2</ele>
        <time>2020-06-30T15:15:31Z</time>
      </trkpt>
      <trkpt lat="48.95495" lon="4.35536">
        <ele>84.3</ele>
        <time>2020-06-30T15:15:32Z</time>
      </trkpt>
      <trkpt lat="48.95495" lon="4.35538">
        <ele>84.3</ele>
        <time>2020-06-30T15:15:33Z</time>
      </trkpt>
      <trkpt lat="48.95494" lon="4.35542">
        <ele>84.3</ele>
        <time>2020-06-30T15:15:34Z</time>
      </trkpt>
      <trkpt lat="48.95493" lon="4.35547">
        <ele>84.3</ele>
        <time>2020-06-30T15:15:35Z</time>
      </trkpt>
      <trkpt lat="48.95493" lon="4.35552">
        <ele>84.3</ele>
        <time>2020-06-30T15:15:36Z</time>
      </trkpt>
      <trkpt lat="48.95494" lon="4.35558">
        <ele>84.3</ele>
        <time>2020-06-30T15:15:37Z</time>
      </trkpt>
      <trkpt lat="48.95496" lon="4.35564">
        <ele>84.5</ele>
        <time>2020-06-30T15:15:38Z</time>
      </trkpt>
      <trkpt lat="48.95499" lon="4.3557">
        <ele>84.5</ele>
        <time>2020-06-30T15:15:39Z</time>
      </trkpt>
      <trkpt lat="48.95503" lon="4.35574">
        <ele>84.5</ele>
        <time>2020-06-30T15:15:40Z</time>
      </trkpt>
      <trkpt lat="48.95506" lon="4.35573">
        <ele>84.5</ele>
        <time>2020-06-30T15:15:41Z</time>
      </trkpt>
      <trkpt lat="48.9551" lon="4.35571">
        <ele>84.5</ele>
        <time>2020-06-30T15:15:42Z</time>
      </trkpt>
      <trkpt lat="48.95511" lon="4.35566">
        <ele>84.5</ele>
        <time>2020-06-30T15:15:43Z</time>
      </trkpt>
      <trkpt lat="48.95512" lon="4.3556">
        <ele>84.4</ele>
        <time>2020-06-30T15:15:44Z</time>
      </trkpt>
      <trkpt lat="48.95513" lon="4.35554">
        <ele>84.3</ele>
        <time>2020-06-30T15:15:45Z</time>
      </trkpt>
      <trkpt lat="48.95512" lon="4.35547">
        <ele>84.3</ele>
        <time>2020-06-30T15:15:46Z</time>
      </trkpt>
      <trkpt lat="48.95512" lon="4.3554">
        <ele>84.3</ele>
        <time>2020-06-30T15:15:47Z</time>
      </trkpt>
      <trkpt lat="48.95511" lon="4.35533">
        <ele>84.3</ele>
        <time>2020-06-30T15:15:48Z</time>
      </trkpt>
      <trkpt lat="48.95508" lon="4.35528">
        <ele>84.2</ele>
        <time>2020-06-30T15:15:49Z</time>
      </trkpt>
      <trkpt lat="48.95506" lon="4.35523">
        <ele>84.2</ele>
        <time>2020-06-30T15:15:50Z</time>
      </trkpt>
      <trkpt lat="48.95504" lon="4.35519">
        <ele>84.2</ele>
        <time>2020-06-30T15:15:51Z</time>
      </trkpt>
      <trkpt lat="48.95503" lon="4.35514">
        <ele>84.2</ele>
        <time>2020-06-30T15:15:52Z</time>
      </trkpt>
      <trkpt lat="48.95503" lon="4.35509">
        <ele>84.2</ele>
        <time>2020-06-30T15:15:53Z</time>
      </trkpt>
      <trkpt lat="48.95502" lon="4.35504">
        <ele>84.2</ele>
        <time>2020-06-30T15:15:54Z</time>
      </trkpt>
      <trkpt lat="48.95502" lon="4.35499">
        <ele>84.1</ele>
        <time>2020-06-30T15:15:55Z</time>
      </trkpt>
      <trkpt lat="48.95501" lon="4.35494">
        <ele>84</ele>
        <time>2020-06-30T15:15:56Z</time>
      </trkpt>
      <trkpt lat="48.955" lon="4.35489">
        <ele>84</ele>
        <time>2020-06-30T15:15:57Z</time>
      </trkpt>
      <trkpt lat="48.95499" lon="4.35485">
        <ele>83.9</ele>
        <time>2020-06-30T15:15:58Z</time>
      </trkpt>
      <trkpt lat="48.95498" lon="4.35481">
        <ele>83.9</ele>
        <time>2020-06-30T15:15:59Z</time>
      </trkpt>
      <trkpt lat="48.95501" lon="4.35477">
        <ele>83.9</ele>
        <time>2020-06-30T15:16:00Z</time>
      </trkpt>
      <trkpt lat="48.95501" lon="4.35476">
        <ele>83.8</ele>
        <time>2020-06-30T15:16:01Z</time>
      </trkpt>
      <trkpt lat="48.95502" lon="4.35472">
        <ele>83.8</ele>
        <time>2020-06-30T15:16:02Z</time>
      </trkpt>
      <trkpt lat="48.95502" lon="4.3547">
        <ele>83.8</ele>
        <time>2020-06-30T15:16:03Z</time>
      </trkpt>
      <trkpt lat="48.95503" lon="4.35467">
        <ele>83.8</ele>
        <time>2020-06-30T15:16:04Z</time>
      </trkpt>
      <trkpt lat="48.95503" lon="4.35465">
        <ele>83.7</ele>
        <time>2020-06-30T15:16:05Z</time>
      </trkpt>
      <trkpt lat="48.95504" lon="4.35464">
        <ele>83.7</ele>
        <time>2020-06-30T15:16:06Z</time>
      </trkpt>
      <trkpt lat="48.95505" lon="4.35464">
        <ele>83.7</ele>
        <time>2020-06-30T15:16:07Z</time>
      </trkpt>
      <trkpt lat="48.95505" lon="4.35464">
        <ele>83.7</ele>
        <time>2020-06-30T15:16:08Z</time>
      </trkpt>
      <trkpt lat="48.95506" lon="4.35464">
        <ele>83.7</ele>
        <time>2020-06-30T15:16:09Z</time>
      </trkpt>
      <trkpt lat="48.95506" lon="4.35465">
        <ele>83.7</ele>
        <time>2020-06-30T15:16:10Z</time>
      </trkpt>
      <trkpt lat="48.95507" lon="4.35465">
        <ele>83.7</ele>
        <time>2020-06-30T15:16:11Z</time>
      </trkpt>
      <trkpt lat="48.95507" lon="4.35465">
        <ele>83.7</ele>
        <time>2020-06-30T15:16:12Z</time>
      </trkpt>
      <trkpt lat="48.95508" lon="4.35463">
        <ele>83.7</ele>
        <time>2020-06-30T15:16:13Z</time>
      </trkpt>
      <trkpt lat="48.95508" lon="4.35463">
        <ele>83.6</ele>
        <time>2020-06-30T15:16:14Z</time>
      </trkpt>
      <trkpt lat="48.95508" lon="4.35461">
        <ele>83.6</ele>
        <time>2020-06-30T15:16:15Z</time>
      </trkpt>
      <trkpt lat="48.95509" lon="4.35459">
        <ele>83.6</ele>
        <time>2020-06-30T15:16:16Z</time>
      </trkpt>
      <trkpt lat="48.95509" lon="4.35459">
        <ele>83.1</ele>
        <time>2020-06-30T15:16:17Z</time>
      </trkpt>
      <trkpt lat="48.95509" lon="4.35459">
        <ele>83.1</ele>
        <time>2020-06-30T15:16:18Z</time>
      </trkpt>
      <trkpt lat="48.95509" lon="4.35459">
        <ele>83.1</ele>
        <time>2020-06-30T15:16:19Z</time>
      </trkpt>
      <trkpt lat="48.95509" lon="4.35459">
        <ele>83.1</ele>
        <time>2020-06-30T15:16:20Z</time>
      </trkpt>
      <trkpt lat="48.95509" lon="4.35458">
        <ele>83.1</ele>
        <time>2020-06-30T15:16:21Z</time>
      </trkpt>
      <trkpt lat="48.95508" lon="4.35458">
        <ele>83.7</ele>
        <time>2020-06-30T15:16:22Z</time>
      </trkpt>
      <trkpt lat="48.95507" lon="4.35457">
        <ele>83.7</ele>
        <time>2020-06-30T15:16:23Z</time>
      </trkpt>
      <trkpt lat="48.95509" lon="4.35457">
        <ele>83.1</ele>
        <time>2020-06-30T15:16:24Z</time>
      </trkpt>
      <trkpt lat="48.9551" lon="4.35457">
        <ele>83.1</ele>
        <time>2020-06-30T15:16:25Z</time>
      </trkpt>
      <trkpt lat="48.9551" lon="4.35457">
        <ele>83.1</ele>
        <time>2020-06-30T15:16:26Z</time>
      </trkpt>
      <trkpt lat="48.9551" lon="4.35457">
        <ele>83.1</ele>
        <time>2020-06-30T15:16:27Z</time>
      </trkpt>
      <trkpt lat="48.95512" lon="4.35457">
        <ele>83.1</ele>
        <time>2020-06-30T15:16:28Z</time>
      </trkpt>
      <trkpt lat="48.95529" lon="4.35451">
        <ele>79.7</ele>
        <time>2020-06-30T15:16:40Z</time>
      </trkpt>
      <trkpt lat="48.95532" lon="4.35446">
        <ele>79.7</ele>
        <time>2020-06-30T15:16:41Z</time>
      </trkpt>
      <trkpt lat="48.95534" lon="4.35444">
        <ele>79.7</ele>
        <time>2020-06-30T15:16:42Z</time>
      </trkpt>
      <trkpt lat="48.95534" lon="4.35444">
        <ele>79.7</ele>
        <time>2020-06-30T15:16:43Z</time>
      </trkpt>
      <trkpt lat="48.95535" lon="4.35444">
        <ele>79.7</ele>
        <time>2020-06-30T15:16:44Z</time>
      </trkpt>
      <trkpt lat="48.95535" lon="4.35445">
        <ele>79.7</ele>
        <time>2020-06-30T15:16:45Z</time>
      </trkpt>
      <trkpt lat="48.95536" lon="4.35448">
        <ele>79.7</ele>
        <time>2020-06-30T15:16:46Z</time>
      </trkpt>
      <trkpt lat="48.95536" lon="4.35449">
        <ele>79.7</ele>
        <time>2020-06-30T15:16:47Z</time>
      </trkpt>
      <trkpt lat="48.95537" lon="4.3545">
        <ele>79.7</ele>
        <time>2020-06-30T15:16:48Z</time>
      </trkpt>
      <trkpt lat="48.95538" lon="4.35452">
        <ele>79.7</ele>
        <time>2020-06-30T15:16:49Z</time>
      </trkpt>
      <trkpt lat="48.95539" lon="4.35453">
        <ele>79.7</ele>
        <time>2020-06-30T15:16:50Z</time>
      </trkpt>
      <trkpt lat="48.9554" lon="4.35455">
        <ele>79.7</ele>
        <time>2020-06-30T15:16:51Z</time>
      </trkpt>
      <trkpt lat="48.9554" lon="4.35457">
        <ele>79.7</ele>
        <time>2020-06-30T15:16:52Z</time>
      </trkpt>
      <trkpt lat="48.9554" lon="4.35461">
        <ele>79.7</ele>
        <time>2020-06-30T15:16:53Z</time>
      </trkpt>
      <trkpt lat="48.95541" lon="4.35462">
        <ele>79.7</ele>
        <time>2020-06-30T15:16:54Z</time>
      </trkpt>
      <trkpt lat="48.95541" lon="4.35463">
        <ele>79.7</ele>
        <time>2020-06-30T15:16:55Z</time>
      </trkpt>
      <trkpt lat="48.95541" lon="4.35464">
        <ele>79.7</ele>
        <time>2020-06-30T15:16:56Z</time>
      </trkpt>
      <trkpt lat="48.95541" lon="4.35465">
        <ele>79.7</ele>
        <time>2020-06-30T15:16:57Z</time>
      </trkpt>
      <trkpt lat="48.95542" lon="4.35465">
        <ele>79.7</ele>
        <time>2020-06-30T15:16:58Z</time>
      </trkpt>
      <trkpt lat="48.95544" lon="4.35465">
        <ele>79.7</ele>
        <time>2020-06-30T15:16:59Z</time>
      </trkpt>
      <trkpt lat="48.95547" lon="4.35469">
        <ele>79.7</ele>
        <time>2020-06-30T15:17:00Z</time>
      </trkpt>
      <trkpt lat="48.9555" lon="4.3547">
        <ele>79.7</ele>
        <time>2020-06-30T15:17:01Z</time>
      </trkpt>
      <trkpt lat="48.9555" lon="4.35469">
        <ele>79.7</ele>
        <time>2020-06-30T15:17:02Z</time>
      </trkpt>
      <trkpt lat="48.95552" lon="4.35469">
        <ele>79.7</ele>
        <time>2020-06-30T15:17:03Z</time>
      </trkpt>
      <trkpt lat="48.95553" lon="4.35469">
        <ele>79.7</ele>
        <time>2020-06-30T15:17:04Z</time>
      </trkpt>
      <trkpt lat="48.95554" lon="4.35469">
        <ele>79.7</ele>
        <time>2020-06-30T15:17:05Z</time>
      </trkpt>
      <trkpt lat="48.95555" lon="4.35468">
        <ele>79.7</ele>
        <time>2020-06-30T15:17:06Z</time>
      </trkpt>
      <trkpt lat="48.95556" lon="4.35467">
        <ele>79.7</ele>
        <time>2020-06-30T15:17:07Z</time>
      </trkpt>
      <trkpt lat="48.95557" lon="4.35466">
        <ele>79.7</ele>
        <time>2020-06-30T15:17:08Z</time>
      </trkpt>
      <trkpt lat="48.95558" lon="4.35466">
        <ele>79.7</ele>
        <time>2020-06-30T15:17:09Z</time>
      </trkpt>
      <trkpt lat="48.95558" lon="4.35467">
        <ele>79.7</ele>
        <time>2020-06-30T15:17:10Z</time>
      </trkpt>
      <trkpt lat="48.95558" lon="4.35466">
        <ele>79.7</ele>
        <time>2020-06-30T15:17:11Z</time>
      </trkpt>
      <trkpt lat="48.95559" lon="4.35465">
        <ele>79.7</ele>
        <time>2020-06-30T15:17:12Z</time>
      </trkpt>
      <trkpt lat="48.95561" lon="4.35464">
        <ele>79.8</ele>
        <time>2020-06-30T15:17:13Z</time>
      </trkpt>
      <trkpt lat="48.95562" lon="4.35466">
        <ele>79.8</ele>
        <time>2020-06-30T15:17:14Z</time>
      </trkpt>
      <trkpt lat="48.95564" lon="4.35466">
        <ele>79.8</ele>
        <time>2020-06-30T15:17:15Z</time>
      </trkpt>
      <trkpt lat="48.95565" lon="4.35467">
        <ele>79.8</ele>
        <time>2020-06-30T15:17:16Z</time>
      </trkpt>
      <trkpt lat="48.95567" lon="4.35466">
        <ele>79.8</ele>
        <time>2020-06-30T15:17:17Z</time>
      </trkpt>
      <trkpt lat="48.95568" lon="4.35466">
        <ele>79.8</ele>
        <time>2020-06-30T15:17:18Z</time>
      </trkpt>
      <trkpt lat="48.95569" lon="4.35466">
        <ele>79.8</ele>
        <time>2020-06-30T15:17:19Z</time>
      </trkpt>
      <trkpt lat="48.95572" lon="4.35463">
        <ele>79.8</ele>
        <time>2020-06-30T15:17:20Z</time>
      </trkpt>
      <trkpt lat="48.95574" lon="4.35462">
        <ele>79.8</ele>
        <time>2020-06-30T15:17:21Z</time>
      </trkpt>
      <trkpt lat="48.95577" lon="4.35462">
        <ele>79.9</ele>
        <time>2020-06-30T15:17:22Z</time>
      </trkpt>
      <trkpt lat="48.9558" lon="4.35462">
        <ele>79.9</ele>
        <time>2020-06-30T15:17:23Z</time>
      </trkpt>
      <trkpt lat="48.95584" lon="4.35463">
        <ele>80</ele>
        <time>2020-06-30T15:17:24Z</time>
      </trkpt>
      <trkpt lat="48.95587" lon="4.35463">
        <ele>80</ele>
        <time>2020-06-30T15:17:25Z</time>
      </trkpt>
      <trkpt lat="48.95591" lon="4.35463">
        <ele>80</ele>
        <time>2020-06-30T15:17:26Z</time>
      </trkpt>
      <trkpt lat="48.95593" lon="4.35464">
        <ele>80.1</ele>
        <time>2020-06-30T15:17:27Z</time>
      </trkpt>
      <trkpt lat="48.95596" lon="4.35464">
        <ele>80.1</ele>
        <time>2020-06-30T15:17:28Z</time>
      </trkpt>
      <trkpt lat="48.95599" lon="4.35465">
        <ele>80.1</ele>
        <time>2020-06-30T15:17:29Z</time>
      </trkpt>
      <trkpt lat="48.95602" lon="4.35463">
        <ele>80.1</ele>
        <time>2020-06-30T15:17:30Z</time>
      </trkpt>
      <trkpt lat="48.95604" lon="4.35461">
        <ele>80.2</ele>
        <time>2020-06-30T15:17:31Z</time>
      </trkpt>
      <trkpt lat="48.95607" lon="4.3546">
        <ele>80.2</ele>
        <time>2020-06-30T15:17:32Z</time>
      </trkpt>
      <trkpt lat="48.95611" lon="4.35458">
        <ele>80.2</ele>
        <time>2020-06-30T15:17:33Z</time>
      </trkpt>
      <trkpt lat="48.95614" lon="4.3546">
        <ele>80.2</ele>
        <time>2020-06-30T15:17:34Z</time>
      </trkpt>
      <trkpt lat="48.95617" lon="4.35459">
        <ele>80.2</ele>
        <time>2020-06-30T15:17:35Z</time>
      </trkpt>
      <trkpt lat="48.9562" lon="4.35458">
        <ele>80.2</ele>
        <time>2020-06-30T15:17:36Z</time>
      </trkpt>
      <trkpt lat="48.95624" lon="4.35458">
        <ele>80.2</ele>
        <time>2020-06-30T15:17:37Z</time>
      </trkpt>
      <trkpt lat="48.95629" lon="4.35459">
        <ele>80.2</ele>
        <time>2020-06-30T15:17:38Z</time>
      </trkpt>
      <trkpt lat="48.95633" lon="4.35458">
        <ele>80.2</ele>
        <time>2020-06-30T15:17:39Z</time>
      </trkpt>
      <trkpt lat="48.95638" lon="4.35457">
        <ele>80.1</ele>
        <time>2020-06-30T15:17:40Z</time>
      </trkpt>
      <trkpt lat="48.95643" lon="4.35454">
        <ele>80.1</ele>
        <time>2020-06-30T15:17:41Z</time>
      </trkpt>
      <trkpt lat="48.95648" lon="4.35453">
        <ele>80.1</ele>
        <time>2020-06-30T15:17:42Z</time>
      </trkpt>
      <trkpt lat="48.95654" lon="4.35449">
        <ele>80.1</ele>
        <time>2020-06-30T15:17:43Z</time>
      </trkpt>
      <trkpt lat="48.9566" lon="4.35447">
        <ele>80.1</ele>
        <time>2020-06-30T15:17:44Z</time>
      </trkpt>
      <trkpt lat="48.95666" lon="4.35445">
        <ele>80.1</ele>
        <time>2020-06-30T15:17:45Z</time>
      </trkpt>
      <trkpt lat="48.95673" lon="4.35443">
        <ele>80.1</ele>
        <time>2020-06-30T15:17:46Z</time>
      </trkpt>
      <trkpt lat="48.9568" lon="4.3544">
        <ele>80.1</ele>
        <time>2020-06-30T15:17:47Z</time>
      </trkpt>
      <trkpt lat="48.95688" lon="4.35439">
        <ele>80.1</ele>
        <time>2020-06-30T15:17:48Z</time>
      </trkpt>
      <trkpt lat="48.95696" lon="4.35436">
        <ele>80.1</ele>
        <time>2020-06-30T15:17:49Z</time>
      </trkpt>
      <trkpt lat="48.95704" lon="4.35433">
        <ele>80.1</ele>
        <time>2020-06-30T15:17:50Z</time>
      </trkpt>
      <trkpt lat="48.95711" lon="4.35429">
        <ele>80.1</ele>
        <time>2020-06-30T15:17:51Z</time>
      </trkpt>
      <trkpt lat="48.9572" lon="4.35426">
        <ele>80.1</ele>
        <time>2020-06-30T15:17:52Z</time>
      </trkpt>
      <trkpt lat="48.95728" lon="4.35424">
        <ele>80.1</ele>
        <time>2020-06-30T15:17:53Z</time>
      </trkpt>
      <trkpt lat="48.95735" lon="4.35422">
        <ele>80</ele>
        <time>2020-06-30T15:17:54Z</time>
      </trkpt>
      <trkpt lat="48.95741" lon="4.3542">
        <ele>80</ele>
        <time>2020-06-30T15:17:55Z</time>
      </trkpt>
      <trkpt lat="48.95748" lon="4.35419">
        <ele>80</ele>
        <time>2020-06-30T15:17:56Z</time>
      </trkpt>
      <trkpt lat="48.95753" lon="4.35417">
        <ele>80</ele>
        <time>2020-06-30T15:17:57Z</time>
      </trkpt>
      <trkpt lat="48.95758" lon="4.35414">
        <ele>80</ele>
        <time>2020-06-30T15:17:58Z</time>
      </trkpt>
      <trkpt lat="48.95764" lon="4.35411">
        <ele>80</ele>
        <time>2020-06-30T15:17:59Z</time>
      </trkpt>
      <trkpt lat="48.9577" lon="4.35408">
        <ele>80.1</ele>
        <time>2020-06-30T15:18:00Z</time>
      </trkpt>
      <trkpt lat="48.95777" lon="4.35406">
        <ele>80.1</ele>
        <time>2020-06-30T15:18:01Z</time>
      </trkpt>
      <trkpt lat="48.95782" lon="4.35405">
        <ele>80.1</ele>
        <time>2020-06-30T15:18:02Z</time>
      </trkpt>
      <trkpt lat="48.95788" lon="4.35402">
        <ele>80.1</ele>
        <time>2020-06-30T15:18:03Z</time>
      </trkpt>
      <trkpt lat="48.95793" lon="4.35398">
        <ele>80.1</ele>
        <time>2020-06-30T15:18:04Z</time>
      </trkpt>
      <trkpt lat="48.95798" lon="4.35395">
        <ele>80.1</ele>
        <time>2020-06-30T15:18:05Z</time>
      </trkpt>
      <trkpt lat="48.95804" lon="4.35392">
        <ele>80.1</ele>
        <time>2020-06-30T15:18:06Z</time>
      </trkpt>
      <trkpt lat="48.95809" lon="4.35388">
        <ele>80.1</ele>
        <time>2020-06-30T15:18:07Z</time>
      </trkpt>
      <trkpt lat="48.95815" lon="4.35384">
        <ele>80</ele>
        <time>2020-06-30T15:18:08Z</time>
      </trkpt>
      <trkpt lat="48.9582" lon="4.35379">
        <ele>80</ele>
        <time>2020-06-30T15:18:09Z</time>
      </trkpt>
      <trkpt lat="48.95826" lon="4.35375">
        <ele>79.9</ele>
        <time>2020-06-30T15:18:10Z</time>
      </trkpt>
      <trkpt lat="48.95831" lon="4.35371">
        <ele>79.9</ele>
        <time>2020-06-30T15:18:11Z</time>
      </trkpt>
      <trkpt lat="48.95837" lon="4.35366">
        <ele>79.9</ele>
        <time>2020-06-30T15:18:12Z</time>
      </trkpt>
      <trkpt lat="48.95843" lon="4.35361">
        <ele>79.9</ele>
        <time>2020-06-30T15:18:13Z</time>
      </trkpt>
      <trkpt lat="48.95848" lon="4.35356">
        <ele>79.8</ele>
        <time>2020-06-30T15:18:14Z</time>
      </trkpt>
      <trkpt lat="48.95854" lon="4.35352">
        <ele>79.8</ele>
        <time>2020-06-30T15:18:15Z</time>
      </trkpt>
      <trkpt lat="48.95859" lon="4.35348">
        <ele>79.8</ele>
        <time>2020-06-30T15:18:16Z</time>
      </trkpt>
      <trkpt lat="48.95865" lon="4.35343">
        <ele>79.8</ele>
        <time>2020-06-30T15:18:17Z</time>
      </trkpt>
      <trkpt lat="48.9587" lon="4.35338">
        <ele>79.8</ele>
        <time>2020-06-30T15:18:18Z</time>
      </trkpt>
      <trkpt lat="48.95875" lon="4.35332">
        <ele>79.8</ele>
        <time>2020-06-30T15:18:19Z</time>
      </trkpt>
      <trkpt lat="48.9588" lon="4.35327">
        <ele>79.8</ele>
        <time>2020-06-30T15:18:20Z</time>
      </trkpt>
      <trkpt lat="48.95885" lon="4.35321">
        <ele>79.7</ele>
        <time>2020-06-30T15:18:21Z</time>
      </trkpt>
      <trkpt lat="48.9589" lon="4.35316">
        <ele>79.7</ele>
        <time>2020-06-30T15:18:22Z</time>
      </trkpt>
      <trkpt lat="48.95895" lon="4.3531">
        <ele>79.7</ele>
        <time>2020-06-30T15:18:23Z</time>
      </trkpt>
      <trkpt lat="48.959" lon="4.35305">
        <ele>79.7</ele>
        <time>2020-06-30T15:18:24Z</time>
      </trkpt>
      <trkpt lat="48.95905" lon="4.353">
        <ele>79.7</ele>
        <time>2020-06-30T15:18:25Z</time>
      </trkpt>
      <trkpt lat="48.9591" lon="4.35294">
        <ele>79.7</ele>
        <time>2020-06-30T15:18:26Z</time>
      </trkpt>
      <trkpt lat="48.95915" lon="4.35288">
        <ele>79.8</ele>
        <time>2020-06-30T15:18:27Z</time>
      </trkpt>
      <trkpt lat="48.9592" lon="4.35283">
        <ele>79.8</ele>
        <time>2020-06-30T15:18:28Z</time>
      </trkpt>
      <trkpt lat="48.95926" lon="4.35277">
        <ele>79.8</ele>
        <time>2020-06-30T15:18:29Z</time>
      </trkpt>
      <trkpt lat="48.95931" lon="4.3527">
        <ele>79.8</ele>
        <time>2020-06-30T15:18:30Z</time>
      </trkpt>
      <trkpt lat="48.95935" lon="4.35265">
        <ele>79.8</ele>
        <time>2020-06-30T15:18:31Z</time>
      </trkpt>
      <trkpt lat="48.9594" lon="4.35259">
        <ele>79.9</ele>
        <time>2020-06-30T15:18:32Z</time>
      </trkpt>
      <trkpt lat="48.95946" lon="4.35254">
        <ele>79.9</ele>
        <time>2020-06-30T15:18:33Z</time>
      </trkpt>
      <trkpt lat="48.9595" lon="4.35247">
        <ele>79.9</ele>
        <time>2020-06-30T15:18:34Z</time>
      </trkpt>
      <trkpt lat="48.95955" lon="4.35241">
        <ele>79.9</ele>
        <time>2020-06-30T15:18:35Z</time>
      </trkpt>
      <trkpt lat="48.95959" lon="4.35236">
        <ele>79.9</ele>
        <time>2020-06-30T15:18:36Z</time>
      </trkpt>
      <trkpt lat="48.95964" lon="4.3523">
        <ele>79.9</ele>
        <time>2020-06-30T15:18:37Z</time>
      </trkpt>
      <trkpt lat="48.95969" lon="4.35225">
        <ele>79.9</ele>
        <time>2020-06-30T15:18:38Z</time>
      </trkpt>
      <trkpt lat="48.95975" lon="4.35222">
        <ele>79.8</ele>
        <time>2020-06-30T15:18:39Z</time>
      </trkpt>
      <trkpt lat="48.9598" lon="4.35216">
        <ele>79.8</ele>
        <time>2020-06-30T15:18:40Z</time>
      </trkpt>
      <trkpt lat="48.95985" lon="4.35211">
        <ele>79.8</ele>
        <time>2020-06-30T15:18:41Z</time>
      </trkpt>
      <trkpt lat="48.9599" lon="4.35205">
        <ele>79.8</ele>
        <time>2020-06-30T15:18:42Z</time>
      </trkpt>
      <trkpt lat="48.95995" lon="4.35198">
        <ele>79.9</ele>
        <time>2020-06-30T15:18:43Z</time>
      </trkpt>
      <trkpt lat="48.95999" lon="4.35193">
        <ele>79.9</ele>
        <time>2020-06-30T15:18:44Z</time>
      </trkpt>
      <trkpt lat="48.96004" lon="4.35187">
        <ele>79.9</ele>
        <time>2020-06-30T15:18:45Z</time>
      </trkpt>
      <trkpt lat="48.96009" lon="4.35181">
        <ele>79.9</ele>
        <time>2020-06-30T15:18:46Z</time>
      </trkpt>
      <trkpt lat="48.96014" lon="4.35176">
        <ele>79.9</ele>
        <time>2020-06-30T15:18:47Z</time>
      </trkpt>
      <trkpt lat="48.96019" lon="4.35169">
        <ele>79.9</ele>
        <time>2020-06-30T15:18:48Z</time>
      </trkpt>
      <trkpt lat="48.96025" lon="4.35163">
        <ele>79.9</ele>
        <time>2020-06-30T15:18:49Z</time>
      </trkpt>
      <trkpt lat="48.9603" lon="4.35158">
        <ele>79.9</ele>
        <time>2020-06-30T15:18:50Z</time>
      </trkpt>
      <trkpt lat="48.96035" lon="4.35152">
        <ele>79.9</ele>
        <time>2020-06-30T15:18:51Z</time>
      </trkpt>
      <trkpt lat="48.9604" lon="4.35146">
        <ele>79.9</ele>
        <time>2020-06-30T15:18:52Z</time>
      </trkpt>
      <trkpt lat="48.96045" lon="4.35141">
        <ele>79.9</ele>
        <time>2020-06-30T15:18:53Z</time>
      </trkpt>
      <trkpt lat="48.96048" lon="4.35135">
        <ele>79.9</ele>
        <time>2020-06-30T15:18:54Z</time>
      </trkpt>
      <trkpt lat="48.96051" lon="4.35129">
        <ele>79.9</ele>
        <time>2020-06-30T15:18:55Z</time>
      </trkpt>
      <trkpt lat="48.96055" lon="4.35123">
        <ele>79.9</ele>
        <time>2020-06-30T15:18:56Z</time>
      </trkpt>
      <trkpt lat="48.9606" lon="4.35117">
        <ele>79.8</ele>
        <time>2020-06-30T15:18:57Z</time>
      </trkpt>
      <trkpt lat="48.96065" lon="4.35111">
        <ele>79.8</ele>
        <time>2020-06-30T15:18:58Z</time>
      </trkpt>
      <trkpt lat="48.9607" lon="4.35104">
        <ele>79.7</ele>
        <time>2020-06-30T15:18:59Z</time>
      </trkpt>
      <trkpt lat="48.96075" lon="4.35099">
        <ele>79.6</ele>
        <time>2020-06-30T15:19:00Z</time>
      </trkpt>
      <trkpt lat="48.96079" lon="4.35093">
        <ele>79.6</ele>
        <time>2020-06-30T15:19:01Z</time>
      </trkpt>
      <trkpt lat="48.96083" lon="4.35087">
        <ele>79.6</ele>
        <time>2020-06-30T15:19:02Z</time>
      </trkpt>
      <trkpt lat="48.96087" lon="4.3508">
        <ele>79.6</ele>
        <time>2020-06-30T15:19:03Z</time>
      </trkpt>
      <trkpt lat="48.96092" lon="4.35073">
        <ele>79.6</ele>
        <time>2020-06-30T15:19:04Z</time>
      </trkpt>
      <trkpt lat="48.96096" lon="4.35066">
        <ele>79.6</ele>
        <time>2020-06-30T15:19:05Z</time>
      </trkpt>
      <trkpt lat="48.96101" lon="4.35059">
        <ele>79.6</ele>
        <time>2020-06-30T15:19:06Z</time>
      </trkpt>
      <trkpt lat="48.96107" lon="4.35054">
        <ele>79.6</ele>
        <time>2020-06-30T15:19:07Z</time>
      </trkpt>
      <trkpt lat="48.96112" lon="4.3505">
        <ele>79.6</ele>
        <time>2020-06-30T15:19:08Z</time>
      </trkpt>
      <trkpt lat="48.96116" lon="4.35045">
        <ele>79.6</ele>
        <time>2020-06-30T15:19:09Z</time>
      </trkpt>
      <trkpt lat="48.96119" lon="4.35038">
        <ele>79.6</ele>
        <time>2020-06-30T15:19:10Z</time>
      </trkpt>
      <trkpt lat="48.96122" lon="4.35033">
        <ele>79.6</ele>
        <time>2020-06-30T15:19:11Z</time>
      </trkpt>
      <trkpt lat="48.96125" lon="4.35027">
        <ele>79.6</ele>
        <time>2020-06-30T15:19:12Z</time>
      </trkpt>
      <trkpt lat="48.96129" lon="4.35022">
        <ele>79.6</ele>
        <time>2020-06-30T15:19:13Z</time>
      </trkpt>
      <trkpt lat="48.96132" lon="4.35018">
        <ele>79.6</ele>
        <time>2020-06-30T15:19:14Z</time>
      </trkpt>
      <trkpt lat="48.96135" lon="4.35014">
        <ele>79.6</ele>
        <time>2020-06-30T15:19:15Z</time>
      </trkpt>
      <trkpt lat="48.96138" lon="4.3501">
        <ele>79.6</ele>
        <time>2020-06-30T15:19:16Z</time>
      </trkpt>
      <trkpt lat="48.96141" lon="4.35005">
        <ele>79.6</ele>
        <time>2020-06-30T15:19:17Z</time>
      </trkpt>
      <trkpt lat="48.96144" lon="4.35">
        <ele>79.5</ele>
        <time>2020-06-30T15:19:18Z</time>
      </trkpt>
      <trkpt lat="48.96146" lon="4.34994">
        <ele>79.5</ele>
        <time>2020-06-30T15:19:19Z</time>
      </trkpt>
      <trkpt lat="48.9615" lon="4.34989">
        <ele>79.5</ele>
        <time>2020-06-30T15:19:20Z</time>
      </trkpt>
      <trkpt lat="48.96153" lon="4.34983">
        <ele>79.5</ele>
        <time>2020-06-30T15:19:21Z</time>
      </trkpt>
      <trkpt lat="48.96157" lon="4.34978">
        <ele>79.5</ele>
        <time>2020-06-30T15:19:22Z</time>
      </trkpt>
      <trkpt lat="48.96159" lon="4.3497">
        <ele>79.5</ele>
        <time>2020-06-30T15:19:23Z</time>
      </trkpt>
      <trkpt lat="48.96162" lon="4.34963">
        <ele>79.6</ele>
        <time>2020-06-30T15:19:24Z</time>
      </trkpt>
      <trkpt lat="48.96164" lon="4.34955">
        <ele>79.6</ele>
        <time>2020-06-30T15:19:25Z</time>
      </trkpt>
      <trkpt lat="48.9617" lon="4.34951">
        <ele>79.6</ele>
        <time>2020-06-30T15:19:26Z</time>
      </trkpt>
      <trkpt lat="48.96175" lon="4.34945">
        <ele>79.7</ele>
        <time>2020-06-30T15:19:27Z</time>
      </trkpt>
      <trkpt lat="48.9618" lon="4.34939">
        <ele>79.7</ele>
        <time>2020-06-30T15:19:28Z</time>
      </trkpt>
      <trkpt lat="48.96185" lon="4.34933">
        <ele>79.7</ele>
        <time>2020-06-30T15:19:29Z</time>
      </trkpt>
      <trkpt lat="48.96189" lon="4.34926">
        <ele>79.7</ele>
        <time>2020-06-30T15:19:30Z</time>
      </trkpt>
      <trkpt lat="48.96193" lon="4.3492">
        <ele>79.7</ele>
        <time>2020-06-30T15:19:31Z</time>
      </trkpt>
      <trkpt lat="48.96197" lon="4.34913">
        <ele>79.8</ele>
        <time>2020-06-30T15:19:32Z</time>
      </trkpt>
      <trkpt lat="48.96202" lon="4.34906">
        <ele>79.8</ele>
        <time>2020-06-30T15:19:33Z</time>
      </trkpt>
      <trkpt lat="48.96207" lon="4.349">
        <ele>79.8</ele>
        <time>2020-06-30T15:19:34Z</time>
      </trkpt>
      <trkpt lat="48.96213" lon="4.34894">
        <ele>80</ele>
        <time>2020-06-30T15:19:35Z</time>
      </trkpt>
      <trkpt lat="48.9622" lon="4.3489">
        <ele>80.2</ele>
        <time>2020-06-30T15:19:36Z</time>
      </trkpt>
      <trkpt lat="48.96225" lon="4.34884">
        <ele>80.3</ele>
        <time>2020-06-30T15:19:37Z</time>
      </trkpt>
      <trkpt lat="48.96228" lon="4.34876">
        <ele>80.3</ele>
        <time>2020-06-30T15:19:38Z</time>
      </trkpt>
      <trkpt lat="48.96231" lon="4.34865">
        <ele>80.1</ele>
        <time>2020-06-30T15:19:39Z</time>
      </trkpt>
      <trkpt lat="48.96236" lon="4.34857">
        <ele>80</ele>
        <time>2020-06-30T15:19:40Z</time>
      </trkpt>
      <trkpt lat="48.9624" lon="4.3485">
        <ele>79.9</ele>
        <time>2020-06-30T15:19:41Z</time>
      </trkpt>
      <trkpt lat="48.96246" lon="4.34845">
        <ele>79.9</ele>
        <time>2020-06-30T15:19:42Z</time>
      </trkpt>
      <trkpt lat="48.9625" lon="4.34839">
        <ele>79.8</ele>
        <time>2020-06-30T15:19:43Z</time>
      </trkpt>
      <trkpt lat="48.96255" lon="4.34833">
        <ele>79.8</ele>
        <time>2020-06-30T15:19:44Z</time>
      </trkpt>
      <trkpt lat="48.96259" lon="4.34826">
        <ele>79.8</ele>
        <time>2020-06-30T15:19:45Z</time>
      </trkpt>
      <trkpt lat="48.96263" lon="4.34818">
        <ele>79.8</ele>
        <time>2020-06-30T15:19:46Z</time>
      </trkpt>
      <trkpt lat="48.96267" lon="4.3481">
        <ele>79.8</ele>
        <time>2020-06-30T15:19:47Z</time>
      </trkpt>
      <trkpt lat="48.96272" lon="4.34804">
        <ele>79.8</ele>
        <time>2020-06-30T15:19:48Z</time>
      </trkpt>
      <trkpt lat="48.96278" lon="4.34798">
        <ele>79.8</ele>
        <time>2020-06-30T15:19:49Z</time>
      </trkpt>
      <trkpt lat="48.96286" lon="4.34789">
        <ele>79.9</ele>
        <time>2020-06-30T15:19:50Z</time>
      </trkpt>
      <trkpt lat="48.96295" lon="4.34782">
        <ele>79.9</ele>
        <time>2020-06-30T15:19:51Z</time>
      </trkpt>
      <trkpt lat="48.96303" lon="4.34774">
        <ele>80</ele>
        <time>2020-06-30T15:19:52Z</time>
      </trkpt>
      <trkpt lat="48.9631" lon="4.34768">
        <ele>80</ele>
        <time>2020-06-30T15:19:53Z</time>
      </trkpt>
      <trkpt lat="48.96319" lon="4.34763">
        <ele>79.9</ele>
        <time>2020-06-30T15:19:54Z</time>
      </trkpt>
      <trkpt lat="48.96327" lon="4.34758">
        <ele>79.9</ele>
        <time>2020-06-30T15:19:55Z</time>
      </trkpt>
      <trkpt lat="48.96337" lon="4.34754">
        <ele>79.9</ele>
        <time>2020-06-30T15:19:56Z</time>
      </trkpt>
      <trkpt lat="48.96346" lon="4.34748">
        <ele>79.8</ele>
        <time>2020-06-30T15:19:57Z</time>
      </trkpt>
      <trkpt lat="48.96355" lon="4.34742">
        <ele>79.8</ele>
        <time>2020-06-30T15:19:58Z</time>
      </trkpt>
      <trkpt lat="48.96364" lon="4.34736">
        <ele>79.8</ele>
        <time>2020-06-30T15:19:59Z</time>
      </trkpt>
      <trkpt lat="48.96374" lon="4.34731">
        <ele>79.8</ele>
        <time>2020-06-30T15:20:00Z</time>
      </trkpt>
      <trkpt lat="48.96382" lon="4.34723">
        <ele>79.7</ele>
        <time>2020-06-30T15:20:01Z</time>
      </trkpt>
      <trkpt lat="48.96388" lon="4.34716">
        <ele>79.7</ele>
        <time>2020-06-30T15:20:02Z</time>
      </trkpt>
      <trkpt lat="48.96393" lon="4.3471">
        <ele>79.7</ele>
        <time>2020-06-30T15:20:03Z</time>
      </trkpt>
      <trkpt lat="48.96399" lon="4.34705">
        <ele>79.7</ele>
        <time>2020-06-30T15:20:04Z</time>
      </trkpt>
      <trkpt lat="48.96408" lon="4.34701">
        <ele>79.6</ele>
        <time>2020-06-30T15:20:05Z</time>
      </trkpt>
      <trkpt lat="48.96415" lon="4.34695">
        <ele>79.7</ele>
        <time>2020-06-30T15:20:06Z</time>
      </trkpt>
      <trkpt lat="48.96422" lon="4.3469">
        <ele>79.7</ele>
        <time>2020-06-30T15:20:07Z</time>
      </trkpt>
      <trkpt lat="48.96428" lon="4.34685">
        <ele>79.7</ele>
        <time>2020-06-30T15:20:08Z</time>
      </trkpt>
      <trkpt lat="48.96434" lon="4.34679">
        <ele>79.7</ele>
        <time>2020-06-30T15:20:09Z</time>
      </trkpt>
      <trkpt lat="48.96439" lon="4.34673">
        <ele>79.7</ele>
        <time>2020-06-30T15:20:10Z</time>
      </trkpt>
      <trkpt lat="48.96446" lon="4.34667">
        <ele>79.7</ele>
        <time>2020-06-30T15:20:11Z</time>
      </trkpt>
      <trkpt lat="48.96451" lon="4.3466">
        <ele>79.7</ele>
        <time>2020-06-30T15:20:12Z</time>
      </trkpt>
      <trkpt lat="48.96457" lon="4.34653">
        <ele>79.7</ele>
        <time>2020-06-30T15:20:13Z</time>
      </trkpt>
      <trkpt lat="48.96462" lon="4.34647">
        <ele>79.7</ele>
        <time>2020-06-30T15:20:14Z</time>
      </trkpt>
      <trkpt lat="48.96466" lon="4.34641">
        <ele>79.7</ele>
        <time>2020-06-30T15:20:15Z</time>
      </trkpt>
      <trkpt lat="48.96472" lon="4.34637">
        <ele>79.7</ele>
        <time>2020-06-30T15:20:16Z</time>
      </trkpt>
      <trkpt lat="48.96477" lon="4.3463">
        <ele>79.7</ele>
        <time>2020-06-30T15:20:17Z</time>
      </trkpt>
      <trkpt lat="48.96482" lon="4.34625">
        <ele>79.7</ele>
        <time>2020-06-30T15:20:18Z</time>
      </trkpt>
      <trkpt lat="48.96488" lon="4.34618">
        <ele>79.7</ele>
        <time>2020-06-30T15:20:19Z</time>
      </trkpt>
      <trkpt lat="48.96493" lon="4.34612">
        <ele>79.6</ele>
        <time>2020-06-30T15:20:20Z</time>
      </trkpt>
      <trkpt lat="48.965" lon="4.34607">
        <ele>79.6</ele>
        <time>2020-06-30T15:20:21Z</time>
      </trkpt>
      <trkpt lat="48.96506" lon="4.34601">
        <ele>79.7</ele>
        <time>2020-06-30T15:20:22Z</time>
      </trkpt>
      <trkpt lat="48.96511" lon="4.34595">
        <ele>79.7</ele>
        <time>2020-06-30T15:20:23Z</time>
      </trkpt>
      <trkpt lat="48.96517" lon="4.34588">
        <ele>79.7</ele>
        <time>2020-06-30T15:20:24Z</time>
      </trkpt>
      <trkpt lat="48.96522" lon="4.34581">
        <ele>79.7</ele>
        <time>2020-06-30T15:20:25Z</time>
      </trkpt>
      <trkpt lat="48.96527" lon="4.34574">
        <ele>79.7</ele>
        <time>2020-06-30T15:20:26Z</time>
      </trkpt>
      <trkpt lat="48.96532" lon="4.34568">
        <ele>79.7</ele>
        <time>2020-06-30T15:20:27Z</time>
      </trkpt>
      <trkpt lat="48.96538" lon="4.34562">
        <ele>79.7</ele>
        <time>2020-06-30T15:20:28Z</time>
      </trkpt>
      <trkpt lat="48.96544" lon="4.34556">
        <ele>79.8</ele>
        <time>2020-06-30T15:20:29Z</time>
      </trkpt>
      <trkpt lat="48.96549" lon="4.3455">
        <ele>79.7</ele>
        <time>2020-06-30T15:20:30Z</time>
      </trkpt>
      <trkpt lat="48.96554" lon="4.34543">
        <ele>79.7</ele>
        <time>2020-06-30T15:20:31Z</time>
      </trkpt>
      <trkpt lat="48.96559" lon="4.34537">
        <ele>79.7</ele>
        <time>2020-06-30T15:20:32Z</time>
      </trkpt>
      <trkpt lat="48.96564" lon="4.34531">
        <ele>79.7</ele>
        <time>2020-06-30T15:20:33Z</time>
      </trkpt>
      <trkpt lat="48.96569" lon="4.34524">
        <ele>79.7</ele>
        <time>2020-06-30T15:20:34Z</time>
      </trkpt>
      <trkpt lat="48.96574" lon="4.34518">
        <ele>79.7</ele>
        <time>2020-06-30T15:20:35Z</time>
      </trkpt>
      <trkpt lat="48.9658" lon="4.34513">
        <ele>79.7</ele>
        <time>2020-06-30T15:20:36Z</time>
      </trkpt>
      <trkpt lat="48.96584" lon="4.34506">
        <ele>79.7</ele>
        <time>2020-06-30T15:20:37Z</time>
      </trkpt>
      <trkpt lat="48.96589" lon="4.345">
        <ele>79.8</ele>
        <time>2020-06-30T15:20:38Z</time>
      </trkpt>
      <trkpt lat="48.96594" lon="4.34493">
        <ele>79.7</ele>
        <time>2020-06-30T15:20:39Z</time>
      </trkpt>
      <trkpt lat="48.96599" lon="4.34487">
        <ele>79.7</ele>
        <time>2020-06-30T15:20:40Z</time>
      </trkpt>
      <trkpt lat="48.96605" lon="4.34482">
        <ele>79.7</ele>
        <time>2020-06-30T15:20:41Z</time>
      </trkpt>
      <trkpt lat="48.9661" lon="4.34475">
        <ele>79.7</ele>
        <time>2020-06-30T15:20:42Z</time>
      </trkpt>
      <trkpt lat="48.96616" lon="4.3447">
        <ele>79.6</ele>
        <time>2020-06-30T15:20:43Z</time>
      </trkpt>
      <trkpt lat="48.96621" lon="4.34465">
        <ele>79.6</ele>
        <time>2020-06-30T15:20:44Z</time>
      </trkpt>
      <trkpt lat="48.96626" lon="4.34458">
        <ele>79.6</ele>
        <time>2020-06-30T15:20:45Z</time>
      </trkpt>
      <trkpt lat="48.96632" lon="4.34452">
        <ele>79.6</ele>
        <time>2020-06-30T15:20:46Z</time>
      </trkpt>
      <trkpt lat="48.96637" lon="4.34446">
        <ele>79.6</ele>
        <time>2020-06-30T15:20:47Z</time>
      </trkpt>
      <trkpt lat="48.96642" lon="4.3444">
        <ele>79.6</ele>
        <time>2020-06-30T15:20:48Z</time>
      </trkpt>
      <trkpt lat="48.96646" lon="4.34434">
        <ele>79.6</ele>
        <time>2020-06-30T15:20:49Z</time>
      </trkpt>
      <trkpt lat="48.96651" lon="4.34428">
        <ele>79.6</ele>
        <time>2020-06-30T15:20:50Z</time>
      </trkpt>
      <trkpt lat="48.96656" lon="4.34422">
        <ele>79.7</ele>
        <time>2020-06-30T15:20:51Z</time>
      </trkpt>
      <trkpt lat="48.96662" lon="4.34416">
        <ele>79.7</ele>
        <time>2020-06-30T15:20:52Z</time>
      </trkpt>
      <trkpt lat="48.96666" lon="4.34408">
        <ele>79.6</ele>
        <time>2020-06-30T15:20:53Z</time>
      </trkpt>
      <trkpt lat="48.96671" lon="4.34401">
        <ele>79.6</ele>
        <time>2020-06-30T15:20:54Z</time>
      </trkpt>
      <trkpt lat="48.96677" lon="4.34395">
        <ele>79.6</ele>
        <time>2020-06-30T15:20:55Z</time>
      </trkpt>
      <trkpt lat="48.96681" lon="4.34387">
        <ele>79.6</ele>
        <time>2020-06-30T15:20:56Z</time>
      </trkpt>
      <trkpt lat="48.96686" lon="4.3438">
        <ele>79.6</ele>
        <time>2020-06-30T15:20:57Z</time>
      </trkpt>
      <trkpt lat="48.96692" lon="4.34375">
        <ele>79.6</ele>
        <time>2020-06-30T15:20:58Z</time>
      </trkpt>
      <trkpt lat="48.96698" lon="4.34369">
        <ele>79.6</ele>
        <time>2020-06-30T15:20:59Z</time>
      </trkpt>
      <trkpt lat="48.96703" lon="4.34363">
        <ele>79.6</ele>
        <time>2020-06-30T15:21:00Z</time>
      </trkpt>
      <trkpt lat="48.96708" lon="4.34356">
        <ele>79.6</ele>
        <time>2020-06-30T15:21:01Z</time>
      </trkpt>
      <trkpt lat="48.96713" lon="4.34349">
        <ele>79.6</ele>
        <time>2020-06-30T15:21:02Z</time>
      </trkpt>
      <trkpt lat="48.96719" lon="4.34344">
        <ele>79.7</ele>
        <time>2020-06-30T15:21:03Z</time>
      </trkpt>
      <trkpt lat="48.96725" lon="4.34338">
        <ele>79.7</ele>
        <time>2020-06-30T15:21:04Z</time>
      </trkpt>
      <trkpt lat="48.9673" lon="4.34331">
        <ele>79.7</ele>
        <time>2020-06-30T15:21:05Z</time>
      </trkpt>
      <trkpt lat="48.96736" lon="4.34325">
        <ele>79.8</ele>
        <time>2020-06-30T15:21:06Z</time>
      </trkpt>
      <trkpt lat="48.96742" lon="4.34319">
        <ele>79.8</ele>
        <time>2020-06-30T15:21:07Z</time>
      </trkpt>
      <trkpt lat="48.96748" lon="4.34313">
        <ele>79.7</ele>
        <time>2020-06-30T15:21:08Z</time>
      </trkpt>
      <trkpt lat="48.96754" lon="4.34307">
        <ele>79.7</ele>
        <time>2020-06-30T15:21:09Z</time>
      </trkpt>
      <trkpt lat="48.96759" lon="4.34301">
        <ele>79.7</ele>
        <time>2020-06-30T15:21:10Z</time>
      </trkpt>
      <trkpt lat="48.96765" lon="4.34294">
        <ele>79.6</ele>
        <time>2020-06-30T15:21:11Z</time>
      </trkpt>
      <trkpt lat="48.96771" lon="4.34287">
        <ele>79.6</ele>
        <time>2020-06-30T15:21:12Z</time>
      </trkpt>
      <trkpt lat="48.96776" lon="4.34281">
        <ele>79.6</ele>
        <time>2020-06-30T15:21:13Z</time>
      </trkpt>
      <trkpt lat="48.96782" lon="4.34274">
        <ele>79.6</ele>
        <time>2020-06-30T15:21:14Z</time>
      </trkpt>
      <trkpt lat="48.96789" lon="4.34267">
        <ele>79.6</ele>
        <time>2020-06-30T15:21:15Z</time>
      </trkpt>
      <trkpt lat="48.96795" lon="4.3426">
        <ele>79.6</ele>
        <time>2020-06-30T15:21:16Z</time>
      </trkpt>
      <trkpt lat="48.96802" lon="4.34253">
        <ele>79.6</ele>
        <time>2020-06-30T15:21:17Z</time>
      </trkpt>
      <trkpt lat="48.96807" lon="4.34247">
        <ele>79.7</ele>
        <time>2020-06-30T15:21:18Z</time>
      </trkpt>
      <trkpt lat="48.96812" lon="4.34241">
        <ele>79.7</ele>
        <time>2020-06-30T15:21:19Z</time>
      </trkpt>
      <trkpt lat="48.96818" lon="4.34234">
        <ele>79.7</ele>
        <time>2020-06-30T15:21:20Z</time>
      </trkpt>
      <trkpt lat="48.96824" lon="4.34227">
        <ele>79.7</ele>
        <time>2020-06-30T15:21:21Z</time>
      </trkpt>
      <trkpt lat="48.96829" lon="4.3422">
        <ele>79.6</ele>
        <time>2020-06-30T15:21:22Z</time>
      </trkpt>
      <trkpt lat="48.96835" lon="4.34214">
        <ele>79.6</ele>
        <time>2020-06-30T15:21:23Z</time>
      </trkpt>
      <trkpt lat="48.96841" lon="4.34207">
        <ele>79.7</ele>
        <time>2020-06-30T15:21:24Z</time>
      </trkpt>
      <trkpt lat="48.96846" lon="4.342">
        <ele>79.7</ele>
        <time>2020-06-30T15:21:25Z</time>
      </trkpt>
      <trkpt lat="48.96852" lon="4.34195">
        <ele>79.7</ele>
        <time>2020-06-30T15:21:26Z</time>
      </trkpt>
      <trkpt lat="48.96858" lon="4.34189">
        <ele>79.7</ele>
        <time>2020-06-30T15:21:27Z</time>
      </trkpt>
      <trkpt lat="48.96863" lon="4.34183">
        <ele>79.7</ele>
        <time>2020-06-30T15:21:28Z</time>
      </trkpt>
      <trkpt lat="48.96868" lon="4.34178">
        <ele>79.7</ele>
        <time>2020-06-30T15:21:29Z</time>
      </trkpt>
      <trkpt lat="48.96874" lon="4.34173">
        <ele>79.7</ele>
        <time>2020-06-30T15:21:30Z</time>
      </trkpt>
      <trkpt lat="48.96878" lon="4.34169">
        <ele>79.7</ele>
        <time>2020-06-30T15:21:31Z</time>
      </trkpt>
      <trkpt lat="48.96883" lon="4.34162">
        <ele>79.6</ele>
        <time>2020-06-30T15:21:32Z</time>
      </trkpt>
      <trkpt lat="48.96889" lon="4.34155">
        <ele>79.6</ele>
        <time>2020-06-30T15:21:33Z</time>
      </trkpt>
      <trkpt lat="48.96895" lon="4.34147">
        <ele>79.6</ele>
        <time>2020-06-30T15:21:34Z</time>
      </trkpt>
      <trkpt lat="48.969" lon="4.34142">
        <ele>79.6</ele>
        <time>2020-06-30T15:21:35Z</time>
      </trkpt>
      <trkpt lat="48.96906" lon="4.34134">
        <ele>79.6</ele>
        <time>2020-06-30T15:21:36Z</time>
      </trkpt>
      <trkpt lat="48.96911" lon="4.34127">
        <ele>79.6</ele>
        <time>2020-06-30T15:21:37Z</time>
      </trkpt>
      <trkpt lat="48.96915" lon="4.34121">
        <ele>79.6</ele>
        <time>2020-06-30T15:21:38Z</time>
      </trkpt>
      <trkpt lat="48.9692" lon="4.34114">
        <ele>79.6</ele>
        <time>2020-06-30T15:21:39Z</time>
      </trkpt>
      <trkpt lat="48.96925" lon="4.34107">
        <ele>79.6</ele>
        <time>2020-06-30T15:21:40Z</time>
      </trkpt>
      <trkpt lat="48.9693" lon="4.34102">
        <ele>79.6</ele>
        <time>2020-06-30T15:21:41Z</time>
      </trkpt>
      <trkpt lat="48.96936" lon="4.34096">
        <ele>79.6</ele>
        <time>2020-06-30T15:21:42Z</time>
      </trkpt>
      <trkpt lat="48.96941" lon="4.34088">
        <ele>79.6</ele>
        <time>2020-06-30T15:21:43Z</time>
      </trkpt>
      <trkpt lat="48.96947" lon="4.34081">
        <ele>79.6</ele>
        <time>2020-06-30T15:21:44Z</time>
      </trkpt>
      <trkpt lat="48.96952" lon="4.34074">
        <ele>79.6</ele>
        <time>2020-06-30T15:21:45Z</time>
      </trkpt>
      <trkpt lat="48.96956" lon="4.3407">
        <ele>79.6</ele>
        <time>2020-06-30T15:21:46Z</time>
      </trkpt>
      <trkpt lat="48.96961" lon="4.34064">
        <ele>79.6</ele>
        <time>2020-06-30T15:21:47Z</time>
      </trkpt>
      <trkpt lat="48.96967" lon="4.34054">
        <ele>79.6</ele>
        <time>2020-06-30T15:21:48Z</time>
      </trkpt>
      <trkpt lat="48.96973" lon="4.34049">
        <ele>79.6</ele>
        <time>2020-06-30T15:21:49Z</time>
      </trkpt>
      <trkpt lat="48.9698" lon="4.34042">
        <ele>79.6</ele>
        <time>2020-06-30T15:21:50Z</time>
      </trkpt>
      <trkpt lat="48.96985" lon="4.34037">
        <ele>79.6</ele>
        <time>2020-06-30T15:21:51Z</time>
      </trkpt>
      <trkpt lat="48.9699" lon="4.34031">
        <ele>79.6</ele>
        <time>2020-06-30T15:21:52Z</time>
      </trkpt>
      <trkpt lat="48.96997" lon="4.34025">
        <ele>79.6</ele>
        <time>2020-06-30T15:21:53Z</time>
      </trkpt>
      <trkpt lat="48.97002" lon="4.34017">
        <ele>79.6</ele>
        <time>2020-06-30T15:21:54Z</time>
      </trkpt>
      <trkpt lat="48.97008" lon="4.3401">
        <ele>79.6</ele>
        <time>2020-06-30T15:21:55Z</time>
      </trkpt>
      <trkpt lat="48.97012" lon="4.34005">
        <ele>79.7</ele>
        <time>2020-06-30T15:21:56Z</time>
      </trkpt>
      <trkpt lat="48.97017" lon="4.33998">
        <ele>79.7</ele>
        <time>2020-06-30T15:21:57Z</time>
      </trkpt>
      <trkpt lat="48.97023" lon="4.33993">
        <ele>79.7</ele>
        <time>2020-06-30T15:21:58Z</time>
      </trkpt>
      <trkpt lat="48.97027" lon="4.33986">
        <ele>79.7</ele>
        <time>2020-06-30T15:21:59Z</time>
      </trkpt>
      <trkpt lat="48.97033" lon="4.3398">
        <ele>79.7</ele>
        <time>2020-06-30T15:22:00Z</time>
      </trkpt>
      <trkpt lat="48.97039" lon="4.33975">
        <ele>79.7</ele>
        <time>2020-06-30T15:22:01Z</time>
      </trkpt>
      <trkpt lat="48.97044" lon="4.3397">
        <ele>79.7</ele>
        <time>2020-06-30T15:22:02Z</time>
      </trkpt>
      <trkpt lat="48.97049" lon="4.33964">
        <ele>79.7</ele>
        <time>2020-06-30T15:22:03Z</time>
      </trkpt>
      <trkpt lat="48.97053" lon="4.33958">
        <ele>79.7</ele>
        <time>2020-06-30T15:22:04Z</time>
      </trkpt>
      <trkpt lat="48.97059" lon="4.33952">
        <ele>79.7</ele>
        <time>2020-06-30T15:22:05Z</time>
      </trkpt>
      <trkpt lat="48.97065" lon="4.33946">
        <ele>79.7</ele>
        <time>2020-06-30T15:22:06Z</time>
      </trkpt>
      <trkpt lat="48.97072" lon="4.33936">
        <ele>79.7</ele>
        <time>2020-06-30T15:22:07Z</time>
      </trkpt>
      <trkpt lat="48.97078" lon="4.33928">
        <ele>79.6</ele>
        <time>2020-06-30T15:22:08Z</time>
      </trkpt>
      <trkpt lat="48.97084" lon="4.3392">
        <ele>79.6</ele>
        <time>2020-06-30T15:22:09Z</time>
      </trkpt>
      <trkpt lat="48.97092" lon="4.33912">
        <ele>79.6</ele>
        <time>2020-06-30T15:22:10Z</time>
      </trkpt>
      <trkpt lat="48.97099" lon="4.33905">
        <ele>79.6</ele>
        <time>2020-06-30T15:22:11Z</time>
      </trkpt>
      <trkpt lat="48.97105" lon="4.33898">
        <ele>79.6</ele>
        <time>2020-06-30T15:22:12Z</time>
      </trkpt>
      <trkpt lat="48.97111" lon="4.33891">
        <ele>79.7</ele>
        <time>2020-06-30T15:22:13Z</time>
      </trkpt>
      <trkpt lat="48.97117" lon="4.33884">
        <ele>79.7</ele>
        <time>2020-06-30T15:22:14Z</time>
      </trkpt>
      <trkpt lat="48.97124" lon="4.33878">
        <ele>79.7</ele>
        <time>2020-06-30T15:22:15Z</time>
      </trkpt>
      <trkpt lat="48.9713" lon="4.33872">
        <ele>79.7</ele>
        <time>2020-06-30T15:22:16Z</time>
      </trkpt>
      <trkpt lat="48.97135" lon="4.33866">
        <ele>79.6</ele>
        <time>2020-06-30T15:22:17Z</time>
      </trkpt>
      <trkpt lat="48.97141" lon="4.33859">
        <ele>79.6</ele>
        <time>2020-06-30T15:22:18Z</time>
      </trkpt>
      <trkpt lat="48.97146" lon="4.33853">
        <ele>79.7</ele>
        <time>2020-06-30T15:22:19Z</time>
      </trkpt>
      <trkpt lat="48.97151" lon="4.33847">
        <ele>79.7</ele>
        <time>2020-06-30T15:22:20Z</time>
      </trkpt>
      <trkpt lat="48.97157" lon="4.33841">
        <ele>79.7</ele>
        <time>2020-06-30T15:22:21Z</time>
      </trkpt>
      <trkpt lat="48.97162" lon="4.33835">
        <ele>79.7</ele>
        <time>2020-06-30T15:22:22Z</time>
      </trkpt>
      <trkpt lat="48.97169" lon="4.33829">
        <ele>79.7</ele>
        <time>2020-06-30T15:22:23Z</time>
      </trkpt>
      <trkpt lat="48.97175" lon="4.33822">
        <ele>79.7</ele>
        <time>2020-06-30T15:22:24Z</time>
      </trkpt>
      <trkpt lat="48.97181" lon="4.33814">
        <ele>79.6</ele>
        <time>2020-06-30T15:22:25Z</time>
      </trkpt>
      <trkpt lat="48.97186" lon="4.33809">
        <ele>79.6</ele>
        <time>2020-06-30T15:22:26Z</time>
      </trkpt>
      <trkpt lat="48.97191" lon="4.33802">
        <ele>79.6</ele>
        <time>2020-06-30T15:22:27Z</time>
      </trkpt>
      <trkpt lat="48.97196" lon="4.33795">
        <ele>79.6</ele>
        <time>2020-06-30T15:22:28Z</time>
      </trkpt>
      <trkpt lat="48.97202" lon="4.3379">
        <ele>79.5</ele>
        <time>2020-06-30T15:22:29Z</time>
      </trkpt>
      <trkpt lat="48.97207" lon="4.33784">
        <ele>79.5</ele>
        <time>2020-06-30T15:22:30Z</time>
      </trkpt>
      <trkpt lat="48.97213" lon="4.33777">
        <ele>79.5</ele>
        <time>2020-06-30T15:22:31Z</time>
      </trkpt>
      <trkpt lat="48.97218" lon="4.33771">
        <ele>79.5</ele>
        <time>2020-06-30T15:22:32Z</time>
      </trkpt>
      <trkpt lat="48.97224" lon="4.33764">
        <ele>79.5</ele>
        <time>2020-06-30T15:22:33Z</time>
      </trkpt>
      <trkpt lat="48.9723" lon="4.33757">
        <ele>79.5</ele>
        <time>2020-06-30T15:22:34Z</time>
      </trkpt>
      <trkpt lat="48.97236" lon="4.33749">
        <ele>79.5</ele>
        <time>2020-06-30T15:22:35Z</time>
      </trkpt>
      <trkpt lat="48.97242" lon="4.33742">
        <ele>79.5</ele>
        <time>2020-06-30T15:22:36Z</time>
      </trkpt>
      <trkpt lat="48.97247" lon="4.33736">
        <ele>79.5</ele>
        <time>2020-06-30T15:22:37Z</time>
      </trkpt>
      <trkpt lat="48.97253" lon="4.3373">
        <ele>79.5</ele>
        <time>2020-06-30T15:22:38Z</time>
      </trkpt>
      <trkpt lat="48.97259" lon="4.33724">
        <ele>79.5</ele>
        <time>2020-06-30T15:22:39Z</time>
      </trkpt>
      <trkpt lat="48.97264" lon="4.33717">
        <ele>79.5</ele>
        <time>2020-06-30T15:22:40Z</time>
      </trkpt>
      <trkpt lat="48.97269" lon="4.3371">
        <ele>79.4</ele>
        <time>2020-06-30T15:22:41Z</time>
      </trkpt>
      <trkpt lat="48.97275" lon="4.33704">
        <ele>79.4</ele>
        <time>2020-06-30T15:22:42Z</time>
      </trkpt>
      <trkpt lat="48.9728" lon="4.33698">
        <ele>79.4</ele>
        <time>2020-06-30T15:22:43Z</time>
      </trkpt>
      <trkpt lat="48.97286" lon="4.33692">
        <ele>79.5</ele>
        <time>2020-06-30T15:22:44Z</time>
      </trkpt>
      <trkpt lat="48.97291" lon="4.33685">
        <ele>79.5</ele>
        <time>2020-06-30T15:22:45Z</time>
      </trkpt>
      <trkpt lat="48.97296" lon="4.33678">
        <ele>79.5</ele>
        <time>2020-06-30T15:22:46Z</time>
      </trkpt>
      <trkpt lat="48.97302" lon="4.33672">
        <ele>79.5</ele>
        <time>2020-06-30T15:22:47Z</time>
      </trkpt>
      <trkpt lat="48.97308" lon="4.33666">
        <ele>79.5</ele>
        <time>2020-06-30T15:22:48Z</time>
      </trkpt>
      <trkpt lat="48.97313" lon="4.33659">
        <ele>79.5</ele>
        <time>2020-06-30T15:22:49Z</time>
      </trkpt>
      <trkpt lat="48.97319" lon="4.33653">
        <ele>79.5</ele>
        <time>2020-06-30T15:22:50Z</time>
      </trkpt>
      <trkpt lat="48.97325" lon="4.33646">
        <ele>79.5</ele>
        <time>2020-06-30T15:22:51Z</time>
      </trkpt>
      <trkpt lat="48.9733" lon="4.33639">
        <ele>79.5</ele>
        <time>2020-06-30T15:22:52Z</time>
      </trkpt>
      <trkpt lat="48.97336" lon="4.33633">
        <ele>79.5</ele>
        <time>2020-06-30T15:22:53Z</time>
      </trkpt>
      <trkpt lat="48.97341" lon="4.33626">
        <ele>79.5</ele>
        <time>2020-06-30T15:22:54Z</time>
      </trkpt>
      <trkpt lat="48.97347" lon="4.33621">
        <ele>79.5</ele>
        <time>2020-06-30T15:22:55Z</time>
      </trkpt>
      <trkpt lat="48.97353" lon="4.33616">
        <ele>79.6</ele>
        <time>2020-06-30T15:22:56Z</time>
      </trkpt>
      <trkpt lat="48.97358" lon="4.33611">
        <ele>79.6</ele>
        <time>2020-06-30T15:22:57Z</time>
      </trkpt>
      <trkpt lat="48.97363" lon="4.33606">
        <ele>79.7</ele>
        <time>2020-06-30T15:22:58Z</time>
      </trkpt>
      <trkpt lat="48.97368" lon="4.33601">
        <ele>79.8</ele>
        <time>2020-06-30T15:22:59Z</time>
      </trkpt>
      <trkpt lat="48.97374" lon="4.33597">
        <ele>79.8</ele>
        <time>2020-06-30T15:23:00Z</time>
      </trkpt>
      <trkpt lat="48.9738" lon="4.33593">
        <ele>79.9</ele>
        <time>2020-06-30T15:23:01Z</time>
      </trkpt>
      <trkpt lat="48.97385" lon="4.33588">
        <ele>80</ele>
        <time>2020-06-30T15:23:02Z</time>
      </trkpt>
      <trkpt lat="48.97389" lon="4.33582">
        <ele>80</ele>
        <time>2020-06-30T15:23:03Z</time>
      </trkpt>
      <trkpt lat="48.97393" lon="4.33576">
        <ele>80.1</ele>
        <time>2020-06-30T15:23:04Z</time>
      </trkpt>
      <trkpt lat="48.97396" lon="4.33569">
        <ele>80.2</ele>
        <time>2020-06-30T15:23:05Z</time>
      </trkpt>
      <trkpt lat="48.97398" lon="4.33561">
        <ele>80.3</ele>
        <time>2020-06-30T15:23:06Z</time>
      </trkpt>
      <trkpt lat="48.97401" lon="4.33554">
        <ele>80.4</ele>
        <time>2020-06-30T15:23:07Z</time>
      </trkpt>
      <trkpt lat="48.97404" lon="4.33547">
        <ele>80.6</ele>
        <time>2020-06-30T15:23:08Z</time>
      </trkpt>
      <trkpt lat="48.97406" lon="4.3354">
        <ele>80.7</ele>
        <time>2020-06-30T15:23:09Z</time>
      </trkpt>
      <trkpt lat="48.9741" lon="4.33536">
        <ele>80.9</ele>
        <time>2020-06-30T15:23:10Z</time>
      </trkpt>
      <trkpt lat="48.97413" lon="4.33532">
        <ele>81</ele>
        <time>2020-06-30T15:23:11Z</time>
      </trkpt>
      <trkpt lat="48.97416" lon="4.3353">
        <ele>81.2</ele>
        <time>2020-06-30T15:23:12Z</time>
      </trkpt>
      <trkpt lat="48.9742" lon="4.33528">
        <ele>81.3</ele>
        <time>2020-06-30T15:23:13Z</time>
      </trkpt>
      <trkpt lat="48.97421" lon="4.33527">
        <ele>81.4</ele>
        <time>2020-06-30T15:23:14Z</time>
      </trkpt>
      <trkpt lat="48.97425" lon="4.33523">
        <ele>81.5</ele>
        <time>2020-06-30T15:23:15Z</time>
      </trkpt>
      <trkpt lat="48.97426" lon="4.33522">
        <ele>81.4</ele>
        <time>2020-06-30T15:23:16Z</time>
      </trkpt>
      <trkpt lat="48.97429" lon="4.33514">
        <ele>81.1</ele>
        <time>2020-06-30T15:23:17Z</time>
      </trkpt>
      <trkpt lat="48.97435" lon="4.33509">
        <ele>80.8</ele>
        <time>2020-06-30T15:23:18Z</time>
      </trkpt>
      <trkpt lat="48.9744" lon="4.33503">
        <ele>80.5</ele>
        <time>2020-06-30T15:23:19Z</time>
      </trkpt>
      <trkpt lat="48.97446" lon="4.33497">
        <ele>80.2</ele>
        <time>2020-06-30T15:23:20Z</time>
      </trkpt>
      <trkpt lat="48.97451" lon="4.33492">
        <ele>80</ele>
        <time>2020-06-30T15:23:21Z</time>
      </trkpt>
      <trkpt lat="48.97455" lon="4.33485">
        <ele>79.9</ele>
        <time>2020-06-30T15:23:22Z</time>
      </trkpt>
      <trkpt lat="48.97459" lon="4.33479">
        <ele>79.8</ele>
        <time>2020-06-30T15:23:23Z</time>
      </trkpt>
      <trkpt lat="48.97463" lon="4.33473">
        <ele>79.8</ele>
        <time>2020-06-30T15:23:24Z</time>
      </trkpt>
      <trkpt lat="48.97466" lon="4.33466">
        <ele>79.8</ele>
        <time>2020-06-30T15:23:25Z</time>
      </trkpt>
      <trkpt lat="48.9747" lon="4.3346">
        <ele>79.8</ele>
        <time>2020-06-30T15:23:26Z</time>
      </trkpt>
      <trkpt lat="48.97475" lon="4.33455">
        <ele>79.8</ele>
        <time>2020-06-30T15:23:27Z</time>
      </trkpt>
      <trkpt lat="48.97479" lon="4.33451">
        <ele>79.8</ele>
        <time>2020-06-30T15:23:28Z</time>
      </trkpt>
      <trkpt lat="48.97484" lon="4.33447">
        <ele>79.8</ele>
        <time>2020-06-30T15:23:29Z</time>
      </trkpt>
      <trkpt lat="48.97488" lon="4.33441">
        <ele>79.7</ele>
        <time>2020-06-30T15:23:30Z</time>
      </trkpt>
      <trkpt lat="48.97491" lon="4.33435">
        <ele>79.7</ele>
        <time>2020-06-30T15:23:31Z</time>
      </trkpt>
      <trkpt lat="48.97495" lon="4.33431">
        <ele>79.7</ele>
        <time>2020-06-30T15:23:32Z</time>
      </trkpt>
      <trkpt lat="48.97498" lon="4.33426">
        <ele>79.7</ele>
        <time>2020-06-30T15:23:33Z</time>
      </trkpt>
      <trkpt lat="48.97502" lon="4.33421">
        <ele>79.7</ele>
        <time>2020-06-30T15:23:34Z</time>
      </trkpt>
      <trkpt lat="48.97505" lon="4.33417">
        <ele>79.7</ele>
        <time>2020-06-30T15:23:35Z</time>
      </trkpt>
      <trkpt lat="48.97509" lon="4.33413">
        <ele>79.7</ele>
        <time>2020-06-30T15:23:36Z</time>
      </trkpt>
      <trkpt lat="48.97512" lon="4.33408">
        <ele>79.7</ele>
        <time>2020-06-30T15:23:37Z</time>
      </trkpt>
      <trkpt lat="48.97515" lon="4.33404">
        <ele>79.7</ele>
        <time>2020-06-30T15:23:38Z</time>
      </trkpt>
      <trkpt lat="48.97519" lon="4.334">
        <ele>79.7</ele>
        <time>2020-06-30T15:23:39Z</time>
      </trkpt>
      <trkpt lat="48.97524" lon="4.33396">
        <ele>79.7</ele>
        <time>2020-06-30T15:23:40Z</time>
      </trkpt>
      <trkpt lat="48.97528" lon="4.33392">
        <ele>79.7</ele>
        <time>2020-06-30T15:23:41Z</time>
      </trkpt>
      <trkpt lat="48.97533" lon="4.33387">
        <ele>79.6</ele>
        <time>2020-06-30T15:23:42Z</time>
      </trkpt>
      <trkpt lat="48.97537" lon="4.33382">
        <ele>79.6</ele>
        <time>2020-06-30T15:23:43Z</time>
      </trkpt>
      <trkpt lat="48.97541" lon="4.33376">
        <ele>79.6</ele>
        <time>2020-06-30T15:23:44Z</time>
      </trkpt>
      <trkpt lat="48.97546" lon="4.33371">
        <ele>79.6</ele>
        <time>2020-06-30T15:23:45Z</time>
      </trkpt>
      <trkpt lat="48.97552" lon="4.33366">
        <ele>79.6</ele>
        <time>2020-06-30T15:23:46Z</time>
      </trkpt>
      <trkpt lat="48.97557" lon="4.33361">
        <ele>79.6</ele>
        <time>2020-06-30T15:23:47Z</time>
      </trkpt>
      <trkpt lat="48.97563" lon="4.33356">
        <ele>79.6</ele>
        <time>2020-06-30T15:23:48Z</time>
      </trkpt>
      <trkpt lat="48.97568" lon="4.3335">
        <ele>79.6</ele>
        <time>2020-06-30T15:23:49Z</time>
      </trkpt>
      <trkpt lat="48.97574" lon="4.33344">
        <ele>79.7</ele>
        <time>2020-06-30T15:23:50Z</time>
      </trkpt>
      <trkpt lat="48.9758" lon="4.33337">
        <ele>79.7</ele>
        <time>2020-06-30T15:23:51Z</time>
      </trkpt>
      <trkpt lat="48.97586" lon="4.3333">
        <ele>79.7</ele>
        <time>2020-06-30T15:23:52Z</time>
      </trkpt>
      <trkpt lat="48.97591" lon="4.33322">
        <ele>79.7</ele>
        <time>2020-06-30T15:23:53Z</time>
      </trkpt>
      <trkpt lat="48.97596" lon="4.33316">
        <ele>79.6</ele>
        <time>2020-06-30T15:23:54Z</time>
      </trkpt>
      <trkpt lat="48.97602" lon="4.33311">
        <ele>79.6</ele>
        <time>2020-06-30T15:23:55Z</time>
      </trkpt>
      <trkpt lat="48.97607" lon="4.33306">
        <ele>79.6</ele>
        <time>2020-06-30T15:23:56Z</time>
      </trkpt>
      <trkpt lat="48.97612" lon="4.33302">
        <ele>79.6</ele>
        <time>2020-06-30T15:23:57Z</time>
      </trkpt>
      <trkpt lat="48.97618" lon="4.33297">
        <ele>79.6</ele>
        <time>2020-06-30T15:23:58Z</time>
      </trkpt>
      <trkpt lat="48.97623" lon="4.33291">
        <ele>79.6</ele>
        <time>2020-06-30T15:23:59Z</time>
      </trkpt>
      <trkpt lat="48.9763" lon="4.33284">
        <ele>79.6</ele>
        <time>2020-06-30T15:24:00Z</time>
      </trkpt>
      <trkpt lat="48.97636" lon="4.33279">
        <ele>79.7</ele>
        <time>2020-06-30T15:24:01Z</time>
      </trkpt>
      <trkpt lat="48.97642" lon="4.33274">
        <ele>79.7</ele>
        <time>2020-06-30T15:24:02Z</time>
      </trkpt>
      <trkpt lat="48.97648" lon="4.33269">
        <ele>79.7</ele>
        <time>2020-06-30T15:24:03Z</time>
      </trkpt>
      <trkpt lat="48.97653" lon="4.33265">
        <ele>79.7</ele>
        <time>2020-06-30T15:24:04Z</time>
      </trkpt>
      <trkpt lat="48.97658" lon="4.33259">
        <ele>79.7</ele>
        <time>2020-06-30T15:24:05Z</time>
      </trkpt>
      <trkpt lat="48.97664" lon="4.33253">
        <ele>79.7</ele>
        <time>2020-06-30T15:24:06Z</time>
      </trkpt>
      <trkpt lat="48.9767" lon="4.33247">
        <ele>79.7</ele>
        <time>2020-06-30T15:24:07Z</time>
      </trkpt>
      <trkpt lat="48.97675" lon="4.33241">
        <ele>79.7</ele>
        <time>2020-06-30T15:24:08Z</time>
      </trkpt>
      <trkpt lat="48.9768" lon="4.33235">
        <ele>79.7</ele>
        <time>2020-06-30T15:24:09Z</time>
      </trkpt>
      <trkpt lat="48.97685" lon="4.3323">
        <ele>79.7</ele>
        <time>2020-06-30T15:24:10Z</time>
      </trkpt>
      <trkpt lat="48.97691" lon="4.33224">
        <ele>79.7</ele>
        <time>2020-06-30T15:24:11Z</time>
      </trkpt>
      <trkpt lat="48.97696" lon="4.33219">
        <ele>79.7</ele>
        <time>2020-06-30T15:24:12Z</time>
      </trkpt>
      <trkpt lat="48.97701" lon="4.33213">
        <ele>79.7</ele>
        <time>2020-06-30T15:24:13Z</time>
      </trkpt>
      <trkpt lat="48.97705" lon="4.33208">
        <ele>79.7</ele>
        <time>2020-06-30T15:24:14Z</time>
      </trkpt>
      <trkpt lat="48.97709" lon="4.33202">
        <ele>79.7</ele>
        <time>2020-06-30T15:24:15Z</time>
      </trkpt>
      <trkpt lat="48.97714" lon="4.33196">
        <ele>79.6</ele>
        <time>2020-06-30T15:24:16Z</time>
      </trkpt>
      <trkpt lat="48.97718" lon="4.3319">
        <ele>79.7</ele>
        <time>2020-06-30T15:24:17Z</time>
      </trkpt>
      <trkpt lat="48.97722" lon="4.33185">
        <ele>79.7</ele>
        <time>2020-06-30T15:24:18Z</time>
      </trkpt>
      <trkpt lat="48.97726" lon="4.33179">
        <ele>79.7</ele>
        <time>2020-06-30T15:24:19Z</time>
      </trkpt>
      <trkpt lat="48.9773" lon="4.33173">
        <ele>79.7</ele>
        <time>2020-06-30T15:24:20Z</time>
      </trkpt>
      <trkpt lat="48.97734" lon="4.33167">
        <ele>79.7</ele>
        <time>2020-06-30T15:24:21Z</time>
      </trkpt>
      <trkpt lat="48.97738" lon="4.33162">
        <ele>79.7</ele>
        <time>2020-06-30T15:24:22Z</time>
      </trkpt>
      <trkpt lat="48.97741" lon="4.33156">
        <ele>79.7</ele>
        <time>2020-06-30T15:24:23Z</time>
      </trkpt>
      <trkpt lat="48.97745" lon="4.33152">
        <ele>79.8</ele>
        <time>2020-06-30T15:24:24Z</time>
      </trkpt>
      <trkpt lat="48.97749" lon="4.33149">
        <ele>79.8</ele>
        <time>2020-06-30T15:24:25Z</time>
      </trkpt>
      <trkpt lat="48.97752" lon="4.33146">
        <ele>79.8</ele>
        <time>2020-06-30T15:24:26Z</time>
      </trkpt>
      <trkpt lat="48.97756" lon="4.33142">
        <ele>79.9</ele>
        <time>2020-06-30T15:24:27Z</time>
      </trkpt>
      <trkpt lat="48.9776" lon="4.33139">
        <ele>79.9</ele>
        <time>2020-06-30T15:24:28Z</time>
      </trkpt>
      <trkpt lat="48.97764" lon="4.33134">
        <ele>79.9</ele>
        <time>2020-06-30T15:24:29Z</time>
      </trkpt>
      <trkpt lat="48.97767" lon="4.3313">
        <ele>80</ele>
        <time>2020-06-30T15:24:30Z</time>
      </trkpt>
      <trkpt lat="48.97771" lon="4.33126">
        <ele>80</ele>
        <time>2020-06-30T15:24:31Z</time>
      </trkpt>
      <trkpt lat="48.97775" lon="4.33122">
        <ele>80</ele>
        <time>2020-06-30T15:24:32Z</time>
      </trkpt>
      <trkpt lat="48.97779" lon="4.33117">
        <ele>80</ele>
        <time>2020-06-30T15:24:33Z</time>
      </trkpt>
      <trkpt lat="48.97783" lon="4.33112">
        <ele>80</ele>
        <time>2020-06-30T15:24:34Z</time>
      </trkpt>
      <trkpt lat="48.97787" lon="4.33108">
        <ele>80</ele>
        <time>2020-06-30T15:24:35Z</time>
      </trkpt>
      <trkpt lat="48.9779" lon="4.33104">
        <ele>80</ele>
        <time>2020-06-30T15:24:36Z</time>
      </trkpt>
      <trkpt lat="48.97793" lon="4.33101">
        <ele>80</ele>
        <time>2020-06-30T15:24:37Z</time>
      </trkpt>
      <trkpt lat="48.97796" lon="4.33096">
        <ele>80</ele>
        <time>2020-06-30T15:24:38Z</time>
      </trkpt>
      <trkpt lat="48.97799" lon="4.33093">
        <ele>80</ele>
        <time>2020-06-30T15:24:39Z</time>
      </trkpt>
      <trkpt lat="48.97802" lon="4.33088">
        <ele>80</ele>
        <time>2020-06-30T15:24:40Z</time>
      </trkpt>
      <trkpt lat="48.97805" lon="4.33083">
        <ele>80</ele>
        <time>2020-06-30T15:24:41Z</time>
      </trkpt>
      <trkpt lat="48.97808" lon="4.3308">
        <ele>79.9</ele>
        <time>2020-06-30T15:24:42Z</time>
      </trkpt>
      <trkpt lat="48.97811" lon="4.33075">
        <ele>79.9</ele>
        <time>2020-06-30T15:24:43Z</time>
      </trkpt>
      <trkpt lat="48.97814" lon="4.3307">
        <ele>79.9</ele>
        <time>2020-06-30T15:24:44Z</time>
      </trkpt>
      <trkpt lat="48.97817" lon="4.33066">
        <ele>79.8</ele>
        <time>2020-06-30T15:24:45Z</time>
      </trkpt>
      <trkpt lat="48.97819" lon="4.33062">
        <ele>79.8</ele>
        <time>2020-06-30T15:24:46Z</time>
      </trkpt>
      <trkpt lat="48.97823" lon="4.33057">
        <ele>79.8</ele>
        <time>2020-06-30T15:24:47Z</time>
      </trkpt>
      <trkpt lat="48.97825" lon="4.33053">
        <ele>79.7</ele>
        <time>2020-06-30T15:24:48Z</time>
      </trkpt>
      <trkpt lat="48.97828" lon="4.33048">
        <ele>79.7</ele>
        <time>2020-06-30T15:24:49Z</time>
      </trkpt>
      <trkpt lat="48.9783" lon="4.33044">
        <ele>79.7</ele>
        <time>2020-06-30T15:24:50Z</time>
      </trkpt>
      <trkpt lat="48.97833" lon="4.3304">
        <ele>79.6</ele>
        <time>2020-06-30T15:24:51Z</time>
      </trkpt>
      <trkpt lat="48.97837" lon="4.33035">
        <ele>79.6</ele>
        <time>2020-06-30T15:24:52Z</time>
      </trkpt>
      <trkpt lat="48.9784" lon="4.33031">
        <ele>79.6</ele>
        <time>2020-06-30T15:24:53Z</time>
      </trkpt>
      <trkpt lat="48.97843" lon="4.33027">
        <ele>79.6</ele>
        <time>2020-06-30T15:24:54Z</time>
      </trkpt>
      <trkpt lat="48.97846" lon="4.33024">
        <ele>79.6</ele>
        <time>2020-06-30T15:24:55Z</time>
      </trkpt>
      <trkpt lat="48.97849" lon="4.3302">
        <ele>79.6</ele>
        <time>2020-06-30T15:24:56Z</time>
      </trkpt>
      <trkpt lat="48.97853" lon="4.33016">
        <ele>79.5</ele>
        <time>2020-06-30T15:24:57Z</time>
      </trkpt>
      <trkpt lat="48.97856" lon="4.33012">
        <ele>79.5</ele>
        <time>2020-06-30T15:24:58Z</time>
      </trkpt>
      <trkpt lat="48.97857" lon="4.3301">
        <ele>79.5</ele>
        <time>2020-06-30T15:24:59Z</time>
      </trkpt>
      <trkpt lat="48.97859" lon="4.33006">
        <ele>79.5</ele>
        <time>2020-06-30T15:25:00Z</time>
      </trkpt>
      <trkpt lat="48.97861" lon="4.33003">
        <ele>79.5</ele>
        <time>2020-06-30T15:25:01Z</time>
      </trkpt>
      <trkpt lat="48.97864" lon="4.32999">
        <ele>79.5</ele>
        <time>2020-06-30T15:25:02Z</time>
      </trkpt>
      <trkpt lat="48.97867" lon="4.32995">
        <ele>79.5</ele>
        <time>2020-06-30T15:25:03Z</time>
      </trkpt>
      <trkpt lat="48.97869" lon="4.32992">
        <ele>79.4</ele>
        <time>2020-06-30T15:25:04Z</time>
      </trkpt>
      <trkpt lat="48.97872" lon="4.32988">
        <ele>79.4</ele>
        <time>2020-06-30T15:25:05Z</time>
      </trkpt>
      <trkpt lat="48.97874" lon="4.32983">
        <ele>79.5</ele>
        <time>2020-06-30T15:25:06Z</time>
      </trkpt>
      <trkpt lat="48.97877" lon="4.32978">
        <ele>79.5</ele>
        <time>2020-06-30T15:25:07Z</time>
      </trkpt>
      <trkpt lat="48.97879" lon="4.32973">
        <ele>79.5</ele>
        <time>2020-06-30T15:25:08Z</time>
      </trkpt>
      <trkpt lat="48.97881" lon="4.32969">
        <ele>79.5</ele>
        <time>2020-06-30T15:25:09Z</time>
      </trkpt>
      <trkpt lat="48.97884" lon="4.32964">
        <ele>79.5</ele>
        <time>2020-06-30T15:25:10Z</time>
      </trkpt>
      <trkpt lat="48.97886" lon="4.32959">
        <ele>79.5</ele>
        <time>2020-06-30T15:25:11Z</time>
      </trkpt>
      <trkpt lat="48.97889" lon="4.32954">
        <ele>79.5</ele>
        <time>2020-06-30T15:25:12Z</time>
      </trkpt>
      <trkpt lat="48.97892" lon="4.32949">
        <ele>79.5</ele>
        <time>2020-06-30T15:25:13Z</time>
      </trkpt>
      <trkpt lat="48.97895" lon="4.32944">
        <ele>79.5</ele>
        <time>2020-06-30T15:25:14Z</time>
      </trkpt>
      <trkpt lat="48.97896" lon="4.3294">
        <ele>79.5</ele>
        <time>2020-06-30T15:25:15Z</time>
      </trkpt>
      <trkpt lat="48.97899" lon="4.32937">
        <ele>79.5</ele>
        <time>2020-06-30T15:25:16Z</time>
      </trkpt>
      <trkpt lat="48.97901" lon="4.32933">
        <ele>79.5</ele>
        <time>2020-06-30T15:25:17Z</time>
      </trkpt>
      <trkpt lat="48.97904" lon="4.32929">
        <ele>79.5</ele>
        <time>2020-06-30T15:25:18Z</time>
      </trkpt>
      <trkpt lat="48.97906" lon="4.32925">
        <ele>79.5</ele>
        <time>2020-06-30T15:25:19Z</time>
      </trkpt>
      <trkpt lat="48.97908" lon="4.3292">
        <ele>79.5</ele>
        <time>2020-06-30T15:25:20Z</time>
      </trkpt>
      <trkpt lat="48.9791" lon="4.32916">
        <ele>79.5</ele>
        <time>2020-06-30T15:25:21Z</time>
      </trkpt>
      <trkpt lat="48.97913" lon="4.32912">
        <ele>79.5</ele>
        <time>2020-06-30T15:25:22Z</time>
      </trkpt>
      <trkpt lat="48.97915" lon="4.32909">
        <ele>79.5</ele>
        <time>2020-06-30T15:25:23Z</time>
      </trkpt>
      <trkpt lat="48.97917" lon="4.32905">
        <ele>79.5</ele>
        <time>2020-06-30T15:25:24Z</time>
      </trkpt>
      <trkpt lat="48.9792" lon="4.32902">
        <ele>79.5</ele>
        <time>2020-06-30T15:25:25Z</time>
      </trkpt>
      <trkpt lat="48.97922" lon="4.32896">
        <ele>79.5</ele>
        <time>2020-06-30T15:25:26Z</time>
      </trkpt>
      <trkpt lat="48.97925" lon="4.32892">
        <ele>79.5</ele>
        <time>2020-06-30T15:25:27Z</time>
      </trkpt>
      <trkpt lat="48.97927" lon="4.32887">
        <ele>79.5</ele>
        <time>2020-06-30T15:25:28Z</time>
      </trkpt>
      <trkpt lat="48.97929" lon="4.32883">
        <ele>79.5</ele>
        <time>2020-06-30T15:25:29Z</time>
      </trkpt>
      <trkpt lat="48.97931" lon="4.32878">
        <ele>79.5</ele>
        <time>2020-06-30T15:25:30Z</time>
      </trkpt>
      <trkpt lat="48.97933" lon="4.32873">
        <ele>79.5</ele>
        <time>2020-06-30T15:25:31Z</time>
      </trkpt>
      <trkpt lat="48.97935" lon="4.32866">
        <ele>79.5</ele>
        <time>2020-06-30T15:25:32Z</time>
      </trkpt>
      <trkpt lat="48.97937" lon="4.32861">
        <ele>79.5</ele>
        <time>2020-06-30T15:25:33Z</time>
      </trkpt>
      <trkpt lat="48.9794" lon="4.32855">
        <ele>79.5</ele>
        <time>2020-06-30T15:25:34Z</time>
      </trkpt>
      <trkpt lat="48.97942" lon="4.3285">
        <ele>79.5</ele>
        <time>2020-06-30T15:25:35Z</time>
      </trkpt>
      <trkpt lat="48.97945" lon="4.32844">
        <ele>79.5</ele>
        <time>2020-06-30T15:25:36Z</time>
      </trkpt>
      <trkpt lat="48.97947" lon="4.32838">
        <ele>79.5</ele>
        <time>2020-06-30T15:25:37Z</time>
      </trkpt>
      <trkpt lat="48.9795" lon="4.32834">
        <ele>79.5</ele>
        <time>2020-06-30T15:25:38Z</time>
      </trkpt>
      <trkpt lat="48.97952" lon="4.32828">
        <ele>79.5</ele>
        <time>2020-06-30T15:25:39Z</time>
      </trkpt>
      <trkpt lat="48.97955" lon="4.32823">
        <ele>79.5</ele>
        <time>2020-06-30T15:25:40Z</time>
      </trkpt>
      <trkpt lat="48.97957" lon="4.32819">
        <ele>79.5</ele>
        <time>2020-06-30T15:25:41Z</time>
      </trkpt>
      <trkpt lat="48.97959" lon="4.32813">
        <ele>79.5</ele>
        <time>2020-06-30T15:25:42Z</time>
      </trkpt>
      <trkpt lat="48.97961" lon="4.32807">
        <ele>79.5</ele>
        <time>2020-06-30T15:25:43Z</time>
      </trkpt>
      <trkpt lat="48.97964" lon="4.32801">
        <ele>79.5</ele>
        <time>2020-06-30T15:25:44Z</time>
      </trkpt>
      <trkpt lat="48.97966" lon="4.32794">
        <ele>79.5</ele>
        <time>2020-06-30T15:25:45Z</time>
      </trkpt>
      <trkpt lat="48.97969" lon="4.32789">
        <ele>79.5</ele>
        <time>2020-06-30T15:25:46Z</time>
      </trkpt>
      <trkpt lat="48.97972" lon="4.32783">
        <ele>79.5</ele>
        <time>2020-06-30T15:25:47Z</time>
      </trkpt>
      <trkpt lat="48.97975" lon="4.32777">
        <ele>79.5</ele>
        <time>2020-06-30T15:25:48Z</time>
      </trkpt>
      <trkpt lat="48.97978" lon="4.32771">
        <ele>79.5</ele>
        <time>2020-06-30T15:25:49Z</time>
      </trkpt>
      <trkpt lat="48.97981" lon="4.32766">
        <ele>79.6</ele>
        <time>2020-06-30T15:25:50Z</time>
      </trkpt>
      <trkpt lat="48.97984" lon="4.3276">
        <ele>79.6</ele>
        <time>2020-06-30T15:25:51Z</time>
      </trkpt>
      <trkpt lat="48.97987" lon="4.32753">
        <ele>79.6</ele>
        <time>2020-06-30T15:25:52Z</time>
      </trkpt>
      <trkpt lat="48.9799" lon="4.32745">
        <ele>79.6</ele>
        <time>2020-06-30T15:25:53Z</time>
      </trkpt>
      <trkpt lat="48.97993" lon="4.32738">
        <ele>79.6</ele>
        <time>2020-06-30T15:25:54Z</time>
      </trkpt>
      <trkpt lat="48.97996" lon="4.32731">
        <ele>79.6</ele>
        <time>2020-06-30T15:25:55Z</time>
      </trkpt>
      <trkpt lat="48.98" lon="4.32725">
        <ele>79.6</ele>
        <time>2020-06-30T15:25:56Z</time>
      </trkpt>
      <trkpt lat="48.98003" lon="4.32719">
        <ele>79.6</ele>
        <time>2020-06-30T15:25:57Z</time>
      </trkpt>
      <trkpt lat="48.98005" lon="4.32713">
        <ele>79.6</ele>
        <time>2020-06-30T15:25:58Z</time>
      </trkpt>
      <trkpt lat="48.98007" lon="4.32707">
        <ele>79.6</ele>
        <time>2020-06-30T15:25:59Z</time>
      </trkpt>
      <trkpt lat="48.9801" lon="4.327">
        <ele>79.6</ele>
        <time>2020-06-30T15:26:00Z</time>
      </trkpt>
      <trkpt lat="48.98012" lon="4.32694">
        <ele>79.6</ele>
        <time>2020-06-30T15:26:01Z</time>
      </trkpt>
      <trkpt lat="48.98014" lon="4.32688">
        <ele>79.7</ele>
        <time>2020-06-30T15:26:02Z</time>
      </trkpt>
      <trkpt lat="48.98016" lon="4.32683">
        <ele>79.7</ele>
        <time>2020-06-30T15:26:03Z</time>
      </trkpt>
      <trkpt lat="48.98018" lon="4.32678">
        <ele>79.7</ele>
        <time>2020-06-30T15:26:04Z</time>
      </trkpt>
      <trkpt lat="48.9802" lon="4.32672">
        <ele>79.7</ele>
        <time>2020-06-30T15:26:05Z</time>
      </trkpt>
      <trkpt lat="48.98022" lon="4.32667">
        <ele>79.7</ele>
        <time>2020-06-30T15:26:06Z</time>
      </trkpt>
      <trkpt lat="48.98024" lon="4.32662">
        <ele>79.7</ele>
        <time>2020-06-30T15:26:07Z</time>
      </trkpt>
      <trkpt lat="48.98026" lon="4.32658">
        <ele>79.7</ele>
        <time>2020-06-30T15:26:08Z</time>
      </trkpt>
      <trkpt lat="48.98029" lon="4.32654">
        <ele>79.6</ele>
        <time>2020-06-30T15:26:09Z</time>
      </trkpt>
      <trkpt lat="48.98033" lon="4.32648">
        <ele>79.5</ele>
        <time>2020-06-30T15:26:10Z</time>
      </trkpt>
      <trkpt lat="48.98036" lon="4.32642">
        <ele>79.5</ele>
        <time>2020-06-30T15:26:11Z</time>
      </trkpt>
      <trkpt lat="48.98039" lon="4.32637">
        <ele>79.4</ele>
        <time>2020-06-30T15:26:12Z</time>
      </trkpt>
      <trkpt lat="48.98042" lon="4.32632">
        <ele>79.3</ele>
        <time>2020-06-30T15:26:13Z</time>
      </trkpt>
      <trkpt lat="48.98044" lon="4.32627">
        <ele>79.2</ele>
        <time>2020-06-30T15:26:14Z</time>
      </trkpt>
      <trkpt lat="48.98047" lon="4.32622">
        <ele>79.2</ele>
        <time>2020-06-30T15:26:15Z</time>
      </trkpt>
      <trkpt lat="48.98049" lon="4.32616">
        <ele>79.2</ele>
        <time>2020-06-30T15:26:16Z</time>
      </trkpt>
      <trkpt lat="48.98052" lon="4.32609">
        <ele>79.2</ele>
        <time>2020-06-30T15:26:17Z</time>
      </trkpt>
      <trkpt lat="48.98054" lon="4.32601">
        <ele>79.3</ele>
        <time>2020-06-30T15:26:18Z</time>
      </trkpt>
      <trkpt lat="48.98056" lon="4.32595">
        <ele>79.3</ele>
        <time>2020-06-30T15:26:19Z</time>
      </trkpt>
      <trkpt lat="48.98059" lon="4.32588">
        <ele>79.4</ele>
        <time>2020-06-30T15:26:20Z</time>
      </trkpt>
      <trkpt lat="48.98062" lon="4.32582">
        <ele>79.5</ele>
        <time>2020-06-30T15:26:21Z</time>
      </trkpt>
      <trkpt lat="48.98064" lon="4.32577">
        <ele>79.6</ele>
        <time>2020-06-30T15:26:22Z</time>
      </trkpt>
      <trkpt lat="48.98066" lon="4.32572">
        <ele>79.6</ele>
        <time>2020-06-30T15:26:23Z</time>
      </trkpt>
      <trkpt lat="48.98068" lon="4.32567">
        <ele>79.7</ele>
        <time>2020-06-30T15:26:24Z</time>
      </trkpt>
      <trkpt lat="48.98069" lon="4.3256">
        <ele>79.8</ele>
        <time>2020-06-30T15:26:25Z</time>
      </trkpt>
      <trkpt lat="48.98071" lon="4.32553">
        <ele>79.8</ele>
        <time>2020-06-30T15:26:26Z</time>
      </trkpt>
      <trkpt lat="48.98074" lon="4.32547">
        <ele>79.8</ele>
        <time>2020-06-30T15:26:27Z</time>
      </trkpt>
      <trkpt lat="48.98076" lon="4.3254">
        <ele>79.9</ele>
        <time>2020-06-30T15:26:28Z</time>
      </trkpt>
      <trkpt lat="48.98078" lon="4.32534">
        <ele>79.9</ele>
        <time>2020-06-30T15:26:29Z</time>
      </trkpt>
      <trkpt lat="48.98081" lon="4.32527">
        <ele>79.9</ele>
        <time>2020-06-30T15:26:30Z</time>
      </trkpt>
      <trkpt lat="48.98084" lon="4.3252">
        <ele>79.9</ele>
        <time>2020-06-30T15:26:31Z</time>
      </trkpt>
      <trkpt lat="48.98086" lon="4.32513">
        <ele>79.8</ele>
        <time>2020-06-30T15:26:32Z</time>
      </trkpt>
      <trkpt lat="48.98087" lon="4.32506">
        <ele>79.8</ele>
        <time>2020-06-30T15:26:33Z</time>
      </trkpt>
      <trkpt lat="48.98089" lon="4.325">
        <ele>79.8</ele>
        <time>2020-06-30T15:26:34Z</time>
      </trkpt>
      <trkpt lat="48.98092" lon="4.32495">
        <ele>79.8</ele>
        <time>2020-06-30T15:26:35Z</time>
      </trkpt>
      <trkpt lat="48.98095" lon="4.3249">
        <ele>79.8</ele>
        <time>2020-06-30T15:26:36Z</time>
      </trkpt>
      <trkpt lat="48.98096" lon="4.32486">
        <ele>79.8</ele>
        <time>2020-06-30T15:26:37Z</time>
      </trkpt>
      <trkpt lat="48.98098" lon="4.32481">
        <ele>79.8</ele>
        <time>2020-06-30T15:26:38Z</time>
      </trkpt>
      <trkpt lat="48.98099" lon="4.32476">
        <ele>79.8</ele>
        <time>2020-06-30T15:26:39Z</time>
      </trkpt>
      <trkpt lat="48.981" lon="4.32472">
        <ele>79.8</ele>
        <time>2020-06-30T15:26:40Z</time>
      </trkpt>
      <trkpt lat="48.98101" lon="4.32468">
        <ele>79.8</ele>
        <time>2020-06-30T15:26:41Z</time>
      </trkpt>
      <trkpt lat="48.98104" lon="4.32463">
        <ele>79.8</ele>
        <time>2020-06-30T15:26:42Z</time>
      </trkpt>
      <trkpt lat="48.98106" lon="4.32458">
        <ele>79.8</ele>
        <time>2020-06-30T15:26:43Z</time>
      </trkpt>
      <trkpt lat="48.98109" lon="4.32453">
        <ele>79.8</ele>
        <time>2020-06-30T15:26:44Z</time>
      </trkpt>
      <trkpt lat="48.98111" lon="4.32449">
        <ele>79.8</ele>
        <time>2020-06-30T15:26:45Z</time>
      </trkpt>
      <trkpt lat="48.98113" lon="4.32445">
        <ele>79.8</ele>
        <time>2020-06-30T15:26:46Z</time>
      </trkpt>
      <trkpt lat="48.98115" lon="4.3244">
        <ele>79.8</ele>
        <time>2020-06-30T15:26:47Z</time>
      </trkpt>
      <trkpt lat="48.98117" lon="4.32436">
        <ele>79.8</ele>
        <time>2020-06-30T15:26:48Z</time>
      </trkpt>
      <trkpt lat="48.98119" lon="4.32431">
        <ele>79.8</ele>
        <time>2020-06-30T15:26:49Z</time>
      </trkpt>
      <trkpt lat="48.98123" lon="4.32426">
        <ele>79.8</ele>
        <time>2020-06-30T15:26:50Z</time>
      </trkpt>
      <trkpt lat="48.98125" lon="4.32421">
        <ele>79.8</ele>
        <time>2020-06-30T15:26:51Z</time>
      </trkpt>
      <trkpt lat="48.98128" lon="4.32417">
        <ele>79.7</ele>
        <time>2020-06-30T15:26:52Z</time>
      </trkpt>
      <trkpt lat="48.98131" lon="4.32411">
        <ele>79.7</ele>
        <time>2020-06-30T15:26:53Z</time>
      </trkpt>
      <trkpt lat="48.98133" lon="4.32406">
        <ele>79.7</ele>
        <time>2020-06-30T15:26:54Z</time>
      </trkpt>
      <trkpt lat="48.98135" lon="4.32401">
        <ele>79.7</ele>
        <time>2020-06-30T15:26:55Z</time>
      </trkpt>
      <trkpt lat="48.98138" lon="4.32396">
        <ele>79.7</ele>
        <time>2020-06-30T15:26:56Z</time>
      </trkpt>
      <trkpt lat="48.9814" lon="4.3239">
        <ele>79.7</ele>
        <time>2020-06-30T15:26:57Z</time>
      </trkpt>
      <trkpt lat="48.98142" lon="4.32385">
        <ele>79.7</ele>
        <time>2020-06-30T15:26:58Z</time>
      </trkpt>
      <trkpt lat="48.98145" lon="4.32377">
        <ele>79.7</ele>
        <time>2020-06-30T15:26:59Z</time>
      </trkpt>
      <trkpt lat="48.98147" lon="4.3237">
        <ele>79.7</ele>
        <time>2020-06-30T15:27:00Z</time>
      </trkpt>
      <trkpt lat="48.9815" lon="4.32364">
        <ele>79.7</ele>
        <time>2020-06-30T15:27:01Z</time>
      </trkpt>
      <trkpt lat="48.98153" lon="4.32357">
        <ele>79.8</ele>
        <time>2020-06-30T15:27:02Z</time>
      </trkpt>
      <trkpt lat="48.98157" lon="4.32352">
        <ele>79.8</ele>
        <time>2020-06-30T15:27:03Z</time>
      </trkpt>
      <trkpt lat="48.9816" lon="4.32348">
        <ele>79.8</ele>
        <time>2020-06-30T15:27:04Z</time>
      </trkpt>
      <trkpt lat="48.98162" lon="4.32344">
        <ele>79.8</ele>
        <time>2020-06-30T15:27:05Z</time>
      </trkpt>
      <trkpt lat="48.98165" lon="4.32338">
        <ele>79.8</ele>
        <time>2020-06-30T15:27:06Z</time>
      </trkpt>
      <trkpt lat="48.98167" lon="4.32333">
        <ele>79.8</ele>
        <time>2020-06-30T15:27:07Z</time>
      </trkpt>
      <trkpt lat="48.98169" lon="4.32329">
        <ele>79.8</ele>
        <time>2020-06-30T15:27:08Z</time>
      </trkpt>
      <trkpt lat="48.98171" lon="4.32325">
        <ele>79.8</ele>
        <time>2020-06-30T15:27:09Z</time>
      </trkpt>
      <trkpt lat="48.98172" lon="4.3232">
        <ele>79.8</ele>
        <time>2020-06-30T15:27:10Z</time>
      </trkpt>
      <trkpt lat="48.98173" lon="4.32316">
        <ele>79.8</ele>
        <time>2020-06-30T15:27:11Z</time>
      </trkpt>
      <trkpt lat="48.98176" lon="4.32312">
        <ele>79.8</ele>
        <time>2020-06-30T15:27:12Z</time>
      </trkpt>
      <trkpt lat="48.98177" lon="4.32307">
        <ele>79.8</ele>
        <time>2020-06-30T15:27:13Z</time>
      </trkpt>
      <trkpt lat="48.98179" lon="4.32302">
        <ele>79.8</ele>
        <time>2020-06-30T15:27:14Z</time>
      </trkpt>
      <trkpt lat="48.98181" lon="4.32298">
        <ele>79.8</ele>
        <time>2020-06-30T15:27:15Z</time>
      </trkpt>
      <trkpt lat="48.98183" lon="4.32293">
        <ele>79.8</ele>
        <time>2020-06-30T15:27:16Z</time>
      </trkpt>
      <trkpt lat="48.98184" lon="4.32291">
        <ele>79.8</ele>
        <time>2020-06-30T15:27:17Z</time>
      </trkpt>
      <trkpt lat="48.98185" lon="4.32287">
        <ele>79.8</ele>
        <time>2020-06-30T15:27:18Z</time>
      </trkpt>
      <trkpt lat="48.98186" lon="4.32282">
        <ele>79.8</ele>
        <time>2020-06-30T15:27:19Z</time>
      </trkpt>
      <trkpt lat="48.98188" lon="4.32277">
        <ele>79.8</ele>
        <time>2020-06-30T15:27:20Z</time>
      </trkpt>
      <trkpt lat="48.9819" lon="4.32272">
        <ele>79.8</ele>
        <time>2020-06-30T15:27:21Z</time>
      </trkpt>
      <trkpt lat="48.98192" lon="4.32266">
        <ele>79.8</ele>
        <time>2020-06-30T15:27:22Z</time>
      </trkpt>
      <trkpt lat="48.98193" lon="4.3226">
        <ele>79.8</ele>
        <time>2020-06-30T15:27:23Z</time>
      </trkpt>
      <trkpt lat="48.98195" lon="4.32256">
        <ele>79.8</ele>
        <time>2020-06-30T15:27:24Z</time>
      </trkpt>
      <trkpt lat="48.98197" lon="4.32251">
        <ele>79.8</ele>
        <time>2020-06-30T15:27:25Z</time>
      </trkpt>
      <trkpt lat="48.982" lon="4.32244">
        <ele>79.8</ele>
        <time>2020-06-30T15:27:26Z</time>
      </trkpt>
      <trkpt lat="48.98203" lon="4.32238">
        <ele>79.8</ele>
        <time>2020-06-30T15:27:27Z</time>
      </trkpt>
      <trkpt lat="48.98206" lon="4.32234">
        <ele>79.8</ele>
        <time>2020-06-30T15:27:28Z</time>
      </trkpt>
      <trkpt lat="48.98209" lon="4.32228">
        <ele>79.8</ele>
        <time>2020-06-30T15:27:29Z</time>
      </trkpt>
      <trkpt lat="48.98212" lon="4.32222">
        <ele>79.8</ele>
        <time>2020-06-30T15:27:30Z</time>
      </trkpt>
      <trkpt lat="48.98213" lon="4.32216">
        <ele>79.8</ele>
        <time>2020-06-30T15:27:31Z</time>
      </trkpt>
      <trkpt lat="48.98216" lon="4.32211">
        <ele>79.8</ele>
        <time>2020-06-30T15:27:32Z</time>
      </trkpt>
      <trkpt lat="48.98218" lon="4.32205">
        <ele>79.9</ele>
        <time>2020-06-30T15:27:33Z</time>
      </trkpt>
      <trkpt lat="48.9822" lon="4.32201">
        <ele>79.9</ele>
        <time>2020-06-30T15:27:34Z</time>
      </trkpt>
      <trkpt lat="48.98221" lon="4.32196">
        <ele>79.9</ele>
        <time>2020-06-30T15:27:35Z</time>
      </trkpt>
      <trkpt lat="48.98223" lon="4.3219">
        <ele>79.9</ele>
        <time>2020-06-30T15:27:36Z</time>
      </trkpt>
      <trkpt lat="48.98225" lon="4.32184">
        <ele>79.9</ele>
        <time>2020-06-30T15:27:37Z</time>
      </trkpt>
      <trkpt lat="48.98227" lon="4.32179">
        <ele>80</ele>
        <time>2020-06-30T15:27:38Z</time>
      </trkpt>
      <trkpt lat="48.98229" lon="4.32172">
        <ele>80</ele>
        <time>2020-06-30T15:27:39Z</time>
      </trkpt>
      <trkpt lat="48.98231" lon="4.32164">
        <ele>80.1</ele>
        <time>2020-06-30T15:27:40Z</time>
      </trkpt>
      <trkpt lat="48.98233" lon="4.32156">
        <ele>80.2</ele>
        <time>2020-06-30T15:27:41Z</time>
      </trkpt>
      <trkpt lat="48.98235" lon="4.32148">
        <ele>80.3</ele>
        <time>2020-06-30T15:27:42Z</time>
      </trkpt>
      <trkpt lat="48.98237" lon="4.32142">
        <ele>80.4</ele>
        <time>2020-06-30T15:27:43Z</time>
      </trkpt>
      <trkpt lat="48.98238" lon="4.32136">
        <ele>80.6</ele>
        <time>2020-06-30T15:27:44Z</time>
      </trkpt>
      <trkpt lat="48.98239" lon="4.3213">
        <ele>80.6</ele>
        <time>2020-06-30T15:27:45Z</time>
      </trkpt>
      <trkpt lat="48.98239" lon="4.32125">
        <ele>80.7</ele>
        <time>2020-06-30T15:27:46Z</time>
      </trkpt>
      <trkpt lat="48.9824" lon="4.32121">
        <ele>80.8</ele>
        <time>2020-06-30T15:27:47Z</time>
      </trkpt>
      <trkpt lat="48.98244" lon="4.32118">
        <ele>80.8</ele>
        <time>2020-06-30T15:27:48Z</time>
      </trkpt>
      <trkpt lat="48.98245" lon="4.32118">
        <ele>80.8</ele>
        <time>2020-06-30T15:27:49Z</time>
      </trkpt>
      <trkpt lat="48.98247" lon="4.32114">
        <ele>80.8</ele>
        <time>2020-06-30T15:27:50Z</time>
      </trkpt>
      <trkpt lat="48.98248" lon="4.32113">
        <ele>80.8</ele>
        <time>2020-06-30T15:27:51Z</time>
      </trkpt>
      <trkpt lat="48.98251" lon="4.32108">
        <ele>80.7</ele>
        <time>2020-06-30T15:27:52Z</time>
      </trkpt>
      <trkpt lat="48.98253" lon="4.32103">
        <ele>80.7</ele>
        <time>2020-06-30T15:27:53Z</time>
      </trkpt>
      <trkpt lat="48.98255" lon="4.32099">
        <ele>80.6</ele>
        <time>2020-06-30T15:27:54Z</time>
      </trkpt>
      <trkpt lat="48.98257" lon="4.32094">
        <ele>80.4</ele>
        <time>2020-06-30T15:27:55Z</time>
      </trkpt>
      <trkpt lat="48.9826" lon="4.32088">
        <ele>80.2</ele>
        <time>2020-06-30T15:27:56Z</time>
      </trkpt>
      <trkpt lat="48.98262" lon="4.32082">
        <ele>79.9</ele>
        <time>2020-06-30T15:27:57Z</time>
      </trkpt>
      <trkpt lat="48.98265" lon="4.32075">
        <ele>79.8</ele>
        <time>2020-06-30T15:27:58Z</time>
      </trkpt>
      <trkpt lat="48.98268" lon="4.32068">
        <ele>79.6</ele>
        <time>2020-06-30T15:27:59Z</time>
      </trkpt>
      <trkpt lat="48.98271" lon="4.32061">
        <ele>79.5</ele>
        <time>2020-06-30T15:28:00Z</time>
      </trkpt>
      <trkpt lat="48.98274" lon="4.32055">
        <ele>79.5</ele>
        <time>2020-06-30T15:28:01Z</time>
      </trkpt>
      <trkpt lat="48.98277" lon="4.32048">
        <ele>79.5</ele>
        <time>2020-06-30T15:28:02Z</time>
      </trkpt>
      <trkpt lat="48.98281" lon="4.32042">
        <ele>79.4</ele>
        <time>2020-06-30T15:28:03Z</time>
      </trkpt>
      <trkpt lat="48.98283" lon="4.32035">
        <ele>79.4</ele>
        <time>2020-06-30T15:28:04Z</time>
      </trkpt>
      <trkpt lat="48.98286" lon="4.32029">
        <ele>79.3</ele>
        <time>2020-06-30T15:28:05Z</time>
      </trkpt>
      <trkpt lat="48.98289" lon="4.32023">
        <ele>79.3</ele>
        <time>2020-06-30T15:28:06Z</time>
      </trkpt>
      <trkpt lat="48.98291" lon="4.32017">
        <ele>79.3</ele>
        <time>2020-06-30T15:28:07Z</time>
      </trkpt>
      <trkpt lat="48.98294" lon="4.32011">
        <ele>79.3</ele>
        <time>2020-06-30T15:28:08Z</time>
      </trkpt>
      <trkpt lat="48.98297" lon="4.32004">
        <ele>79.3</ele>
        <time>2020-06-30T15:28:09Z</time>
      </trkpt>
      <trkpt lat="48.983" lon="4.31998">
        <ele>79.3</ele>
        <time>2020-06-30T15:28:10Z</time>
      </trkpt>
      <trkpt lat="48.98302" lon="4.31992">
        <ele>79.3</ele>
        <time>2020-06-30T15:28:11Z</time>
      </trkpt>
      <trkpt lat="48.98304" lon="4.31986">
        <ele>79.3</ele>
        <time>2020-06-30T15:28:12Z</time>
      </trkpt>
      <trkpt lat="48.98306" lon="4.31979">
        <ele>79.3</ele>
        <time>2020-06-30T15:28:13Z</time>
      </trkpt>
      <trkpt lat="48.98309" lon="4.31972">
        <ele>79.3</ele>
        <time>2020-06-30T15:28:14Z</time>
      </trkpt>
      <trkpt lat="48.98312" lon="4.31966">
        <ele>79.4</ele>
        <time>2020-06-30T15:28:15Z</time>
      </trkpt>
      <trkpt lat="48.98316" lon="4.3196">
        <ele>79.4</ele>
        <time>2020-06-30T15:28:16Z</time>
      </trkpt>
      <trkpt lat="48.98318" lon="4.31955">
        <ele>79.4</ele>
        <time>2020-06-30T15:28:17Z</time>
      </trkpt>
      <trkpt lat="48.9832" lon="4.31949">
        <ele>79.4</ele>
        <time>2020-06-30T15:28:18Z</time>
      </trkpt>
      <trkpt lat="48.98322" lon="4.31942">
        <ele>79.4</ele>
        <time>2020-06-30T15:28:19Z</time>
      </trkpt>
      <trkpt lat="48.98324" lon="4.31936">
        <ele>79.3</ele>
        <time>2020-06-30T15:28:20Z</time>
      </trkpt>
      <trkpt lat="48.98326" lon="4.3193">
        <ele>79.3</ele>
        <time>2020-06-30T15:28:21Z</time>
      </trkpt>
      <trkpt lat="48.98329" lon="4.31923">
        <ele>79.3</ele>
        <time>2020-06-30T15:28:22Z</time>
      </trkpt>
      <trkpt lat="48.98332" lon="4.31916">
        <ele>79.3</ele>
        <time>2020-06-30T15:28:23Z</time>
      </trkpt>
      <trkpt lat="48.98334" lon="4.31909">
        <ele>79.3</ele>
        <time>2020-06-30T15:28:24Z</time>
      </trkpt>
      <trkpt lat="48.98337" lon="4.31903">
        <ele>79.3</ele>
        <time>2020-06-30T15:28:25Z</time>
      </trkpt>
      <trkpt lat="48.98339" lon="4.31898">
        <ele>79.3</ele>
        <time>2020-06-30T15:28:26Z</time>
      </trkpt>
      <trkpt lat="48.98341" lon="4.31892">
        <ele>79.3</ele>
        <time>2020-06-30T15:28:27Z</time>
      </trkpt>
      <trkpt lat="48.98344" lon="4.31887">
        <ele>79.4</ele>
        <time>2020-06-30T15:28:28Z</time>
      </trkpt>
      <trkpt lat="48.98346" lon="4.31882">
        <ele>79.4</ele>
        <time>2020-06-30T15:28:29Z</time>
      </trkpt>
      <trkpt lat="48.98348" lon="4.31876">
        <ele>79.4</ele>
        <time>2020-06-30T15:28:30Z</time>
      </trkpt>
      <trkpt lat="48.9835" lon="4.31871">
        <ele>79.4</ele>
        <time>2020-06-30T15:28:31Z</time>
      </trkpt>
      <trkpt lat="48.98351" lon="4.31865">
        <ele>79.4</ele>
        <time>2020-06-30T15:28:32Z</time>
      </trkpt>
      <trkpt lat="48.98354" lon="4.31859">
        <ele>79.4</ele>
        <time>2020-06-30T15:28:33Z</time>
      </trkpt>
      <trkpt lat="48.98356" lon="4.31852">
        <ele>79.4</ele>
        <time>2020-06-30T15:28:34Z</time>
      </trkpt>
      <trkpt lat="48.98358" lon="4.31847">
        <ele>79.4</ele>
        <time>2020-06-30T15:28:35Z</time>
      </trkpt>
      <trkpt lat="48.9836" lon="4.31842">
        <ele>79.4</ele>
        <time>2020-06-30T15:28:36Z</time>
      </trkpt>
      <trkpt lat="48.98363" lon="4.31834">
        <ele>79.4</ele>
        <time>2020-06-30T15:28:37Z</time>
      </trkpt>
      <trkpt lat="48.98365" lon="4.31828">
        <ele>79.4</ele>
        <time>2020-06-30T15:28:38Z</time>
      </trkpt>
      <trkpt lat="48.98367" lon="4.31822">
        <ele>79.4</ele>
        <time>2020-06-30T15:28:39Z</time>
      </trkpt>
      <trkpt lat="48.9837" lon="4.31817">
        <ele>79.4</ele>
        <time>2020-06-30T15:28:40Z</time>
      </trkpt>
      <trkpt lat="48.98373" lon="4.31811">
        <ele>79.4</ele>
        <time>2020-06-30T15:28:41Z</time>
      </trkpt>
      <trkpt lat="48.98376" lon="4.31805">
        <ele>79.4</ele>
        <time>2020-06-30T15:28:42Z</time>
      </trkpt>
      <trkpt lat="48.98378" lon="4.31799">
        <ele>79.4</ele>
        <time>2020-06-30T15:28:43Z</time>
      </trkpt>
      <trkpt lat="48.98381" lon="4.31792">
        <ele>79.4</ele>
        <time>2020-06-30T15:28:44Z</time>
      </trkpt>
      <trkpt lat="48.98383" lon="4.31786">
        <ele>79.4</ele>
        <time>2020-06-30T15:28:45Z</time>
      </trkpt>
      <trkpt lat="48.98385" lon="4.31779">
        <ele>79.3</ele>
        <time>2020-06-30T15:28:46Z</time>
      </trkpt>
      <trkpt lat="48.98388" lon="4.31773">
        <ele>79.3</ele>
        <time>2020-06-30T15:28:47Z</time>
      </trkpt>
      <trkpt lat="48.98392" lon="4.31768">
        <ele>79.3</ele>
        <time>2020-06-30T15:28:48Z</time>
      </trkpt>
      <trkpt lat="48.98395" lon="4.31762">
        <ele>79.3</ele>
        <time>2020-06-30T15:28:49Z</time>
      </trkpt>
      <trkpt lat="48.98397" lon="4.31755">
        <ele>79.2</ele>
        <time>2020-06-30T15:28:50Z</time>
      </trkpt>
      <trkpt lat="48.984" lon="4.31749">
        <ele>79.2</ele>
        <time>2020-06-30T15:28:51Z</time>
      </trkpt>
      <trkpt lat="48.98402" lon="4.31742">
        <ele>79.2</ele>
        <time>2020-06-30T15:28:52Z</time>
      </trkpt>
      <trkpt lat="48.98405" lon="4.31734">
        <ele>79.1</ele>
        <time>2020-06-30T15:28:53Z</time>
      </trkpt>
      <trkpt lat="48.98408" lon="4.31726">
        <ele>79.1</ele>
        <time>2020-06-30T15:28:54Z</time>
      </trkpt>
      <trkpt lat="48.98411" lon="4.3172">
        <ele>79.1</ele>
        <time>2020-06-30T15:28:55Z</time>
      </trkpt>
      <trkpt lat="48.98414" lon="4.31714">
        <ele>79.1</ele>
        <time>2020-06-30T15:28:56Z</time>
      </trkpt>
      <trkpt lat="48.98418" lon="4.31706">
        <ele>79.1</ele>
        <time>2020-06-30T15:28:57Z</time>
      </trkpt>
      <trkpt lat="48.9842" lon="4.31697">
        <ele>79.1</ele>
        <time>2020-06-30T15:28:58Z</time>
      </trkpt>
      <trkpt lat="48.98422" lon="4.31689">
        <ele>79.1</ele>
        <time>2020-06-30T15:28:59Z</time>
      </trkpt>
      <trkpt lat="48.98426" lon="4.3168">
        <ele>79</ele>
        <time>2020-06-30T15:29:00Z</time>
      </trkpt>
      <trkpt lat="48.98429" lon="4.31672">
        <ele>79</ele>
        <time>2020-06-30T15:29:01Z</time>
      </trkpt>
      <trkpt lat="48.98432" lon="4.31664">
        <ele>78.9</ele>
        <time>2020-06-30T15:29:02Z</time>
      </trkpt>
      <trkpt lat="48.98436" lon="4.31656">
        <ele>78.9</ele>
        <time>2020-06-30T15:29:03Z</time>
      </trkpt>
      <trkpt lat="48.9844" lon="4.31647">
        <ele>78.9</ele>
        <time>2020-06-30T15:29:04Z</time>
      </trkpt>
      <trkpt lat="48.98442" lon="4.31639">
        <ele>78.9</ele>
        <time>2020-06-30T15:29:05Z</time>
      </trkpt>
      <trkpt lat="48.98445" lon="4.31633">
        <ele>78.9</ele>
        <time>2020-06-30T15:29:06Z</time>
      </trkpt>
      <trkpt lat="48.98447" lon="4.31627">
        <ele>78.9</ele>
        <time>2020-06-30T15:29:07Z</time>
      </trkpt>
      <trkpt lat="48.9845" lon="4.31622">
        <ele>78.9</ele>
        <time>2020-06-30T15:29:08Z</time>
      </trkpt>
      <trkpt lat="48.98454" lon="4.31616">
        <ele>78.9</ele>
        <time>2020-06-30T15:29:09Z</time>
      </trkpt>
      <trkpt lat="48.98457" lon="4.31609">
        <ele>78.9</ele>
        <time>2020-06-30T15:29:10Z</time>
      </trkpt>
      <trkpt lat="48.98464" lon="4.31604">
        <ele>78.9</ele>
        <time>2020-06-30T15:29:11Z</time>
      </trkpt>
      <trkpt lat="48.98467" lon="4.31598">
        <ele>78.9</ele>
        <time>2020-06-30T15:29:12Z</time>
      </trkpt>
      <trkpt lat="48.9847" lon="4.31591">
        <ele>78.9</ele>
        <time>2020-06-30T15:29:13Z</time>
      </trkpt>
      <trkpt lat="48.98473" lon="4.31585">
        <ele>78.9</ele>
        <time>2020-06-30T15:29:14Z</time>
      </trkpt>
      <trkpt lat="48.98475" lon="4.31578">
        <ele>78.9</ele>
        <time>2020-06-30T15:29:15Z</time>
      </trkpt>
      <trkpt lat="48.98478" lon="4.31571">
        <ele>78.9</ele>
        <time>2020-06-30T15:29:16Z</time>
      </trkpt>
      <trkpt lat="48.98481" lon="4.31564">
        <ele>78.9</ele>
        <time>2020-06-30T15:29:17Z</time>
      </trkpt>
      <trkpt lat="48.98483" lon="4.31556">
        <ele>78.9</ele>
        <time>2020-06-30T15:29:18Z</time>
      </trkpt>
      <trkpt lat="48.98485" lon="4.31549">
        <ele>78.9</ele>
        <time>2020-06-30T15:29:19Z</time>
      </trkpt>
      <trkpt lat="48.98487" lon="4.31543">
        <ele>79</ele>
        <time>2020-06-30T15:29:20Z</time>
      </trkpt>
      <trkpt lat="48.9849" lon="4.31536">
        <ele>79</ele>
        <time>2020-06-30T15:29:21Z</time>
      </trkpt>
      <trkpt lat="48.98493" lon="4.31529">
        <ele>79</ele>
        <time>2020-06-30T15:29:22Z</time>
      </trkpt>
      <trkpt lat="48.98495" lon="4.31523">
        <ele>79</ele>
        <time>2020-06-30T15:29:23Z</time>
      </trkpt>
      <trkpt lat="48.98497" lon="4.31517">
        <ele>79</ele>
        <time>2020-06-30T15:29:24Z</time>
      </trkpt>
      <trkpt lat="48.985" lon="4.3151">
        <ele>79</ele>
        <time>2020-06-30T15:29:25Z</time>
      </trkpt>
      <trkpt lat="48.98502" lon="4.31504">
        <ele>79</ele>
        <time>2020-06-30T15:29:26Z</time>
      </trkpt>
      <trkpt lat="48.98504" lon="4.31499">
        <ele>79</ele>
        <time>2020-06-30T15:29:27Z</time>
      </trkpt>
      <trkpt lat="48.98507" lon="4.31494">
        <ele>79</ele>
        <time>2020-06-30T15:29:28Z</time>
      </trkpt>
      <trkpt lat="48.98509" lon="4.31487">
        <ele>79</ele>
        <time>2020-06-30T15:29:29Z</time>
      </trkpt>
      <trkpt lat="48.98512" lon="4.31481">
        <ele>79</ele>
        <time>2020-06-30T15:29:30Z</time>
      </trkpt>
      <trkpt lat="48.98515" lon="4.31474">
        <ele>79</ele>
        <time>2020-06-30T15:29:31Z</time>
      </trkpt>
      <trkpt lat="48.98518" lon="4.31468">
        <ele>79</ele>
        <time>2020-06-30T15:29:32Z</time>
      </trkpt>
      <trkpt lat="48.9852" lon="4.31462">
        <ele>79</ele>
        <time>2020-06-30T15:29:33Z</time>
      </trkpt>
      <trkpt lat="48.98523" lon="4.31456">
        <ele>79.1</ele>
        <time>2020-06-30T15:29:34Z</time>
      </trkpt>
      <trkpt lat="48.98526" lon="4.31449">
        <ele>79.1</ele>
        <time>2020-06-30T15:29:35Z</time>
      </trkpt>
      <trkpt lat="48.98529" lon="4.31443">
        <ele>79.1</ele>
        <time>2020-06-30T15:29:36Z</time>
      </trkpt>
      <trkpt lat="48.98532" lon="4.31438">
        <ele>79.1</ele>
        <time>2020-06-30T15:29:37Z</time>
      </trkpt>
      <trkpt lat="48.98534" lon="4.31432">
        <ele>79.1</ele>
        <time>2020-06-30T15:29:38Z</time>
      </trkpt>
      <trkpt lat="48.98536" lon="4.31425">
        <ele>79.1</ele>
        <time>2020-06-30T15:29:39Z</time>
      </trkpt>
      <trkpt lat="48.98538" lon="4.31417">
        <ele>79.1</ele>
        <time>2020-06-30T15:29:40Z</time>
      </trkpt>
      <trkpt lat="48.9854" lon="4.31409">
        <ele>79.1</ele>
        <time>2020-06-30T15:29:41Z</time>
      </trkpt>
      <trkpt lat="48.98543" lon="4.31403">
        <ele>79.1</ele>
        <time>2020-06-30T15:29:42Z</time>
      </trkpt>
      <trkpt lat="48.98547" lon="4.31396">
        <ele>79.1</ele>
        <time>2020-06-30T15:29:43Z</time>
      </trkpt>
      <trkpt lat="48.9855" lon="4.31389">
        <ele>79.1</ele>
        <time>2020-06-30T15:29:44Z</time>
      </trkpt>
      <trkpt lat="48.98554" lon="4.31382">
        <ele>79.1</ele>
        <time>2020-06-30T15:29:45Z</time>
      </trkpt>
      <trkpt lat="48.98556" lon="4.31376">
        <ele>79.1</ele>
        <time>2020-06-30T15:29:46Z</time>
      </trkpt>
      <trkpt lat="48.98559" lon="4.31369">
        <ele>79.1</ele>
        <time>2020-06-30T15:29:47Z</time>
      </trkpt>
      <trkpt lat="48.98562" lon="4.31363">
        <ele>79.1</ele>
        <time>2020-06-30T15:29:48Z</time>
      </trkpt>
      <trkpt lat="48.98564" lon="4.31355">
        <ele>79.1</ele>
        <time>2020-06-30T15:29:49Z</time>
      </trkpt>
      <trkpt lat="48.98567" lon="4.31349">
        <ele>79.1</ele>
        <time>2020-06-30T15:29:50Z</time>
      </trkpt>
      <trkpt lat="48.9857" lon="4.31341">
        <ele>79.1</ele>
        <time>2020-06-30T15:29:51Z</time>
      </trkpt>
      <trkpt lat="48.98573" lon="4.31333">
        <ele>79.1</ele>
        <time>2020-06-30T15:29:52Z</time>
      </trkpt>
      <trkpt lat="48.98575" lon="4.31325">
        <ele>79.1</ele>
        <time>2020-06-30T15:29:53Z</time>
      </trkpt>
      <trkpt lat="48.98578" lon="4.31318">
        <ele>79.1</ele>
        <time>2020-06-30T15:29:54Z</time>
      </trkpt>
      <trkpt lat="48.98581" lon="4.31311">
        <ele>79</ele>
        <time>2020-06-30T15:29:55Z</time>
      </trkpt>
      <trkpt lat="48.98584" lon="4.31304">
        <ele>79</ele>
        <time>2020-06-30T15:29:56Z</time>
      </trkpt>
      <trkpt lat="48.98587" lon="4.31297">
        <ele>79</ele>
        <time>2020-06-30T15:29:57Z</time>
      </trkpt>
      <trkpt lat="48.9859" lon="4.3129">
        <ele>79</ele>
        <time>2020-06-30T15:29:58Z</time>
      </trkpt>
      <trkpt lat="48.98592" lon="4.31283">
        <ele>79</ele>
        <time>2020-06-30T15:29:59Z</time>
      </trkpt>
      <trkpt lat="48.98603" lon="4.3128">
        <ele>79</ele>
        <time>2020-06-30T15:30:00Z</time>
      </trkpt>
      <trkpt lat="48.98606" lon="4.31274">
        <ele>79</ele>
        <time>2020-06-30T15:30:01Z</time>
      </trkpt>
      <trkpt lat="48.98609" lon="4.31267">
        <ele>79</ele>
        <time>2020-06-30T15:30:02Z</time>
      </trkpt>
      <trkpt lat="48.98612" lon="4.3126">
        <ele>79</ele>
        <time>2020-06-30T15:30:03Z</time>
      </trkpt>
      <trkpt lat="48.98615" lon="4.31253">
        <ele>79</ele>
        <time>2020-06-30T15:30:04Z</time>
      </trkpt>
      <trkpt lat="48.98617" lon="4.31247">
        <ele>79</ele>
        <time>2020-06-30T15:30:05Z</time>
      </trkpt>
      <trkpt lat="48.9862" lon="4.3124">
        <ele>79</ele>
        <time>2020-06-30T15:30:06Z</time>
      </trkpt>
      <trkpt lat="48.98623" lon="4.31233">
        <ele>79</ele>
        <time>2020-06-30T15:30:07Z</time>
      </trkpt>
      <trkpt lat="48.98626" lon="4.31226">
        <ele>79</ele>
        <time>2020-06-30T15:30:08Z</time>
      </trkpt>
      <trkpt lat="48.98628" lon="4.31218">
        <ele>79</ele>
        <time>2020-06-30T15:30:09Z</time>
      </trkpt>
      <trkpt lat="48.98631" lon="4.3121">
        <ele>79.1</ele>
        <time>2020-06-30T15:30:10Z</time>
      </trkpt>
      <trkpt lat="48.98634" lon="4.31202">
        <ele>79.1</ele>
        <time>2020-06-30T15:30:11Z</time>
      </trkpt>
      <trkpt lat="48.98636" lon="4.31194">
        <ele>79.1</ele>
        <time>2020-06-30T15:30:12Z</time>
      </trkpt>
      <trkpt lat="48.98639" lon="4.31187">
        <ele>79.1</ele>
        <time>2020-06-30T15:30:13Z</time>
      </trkpt>
      <trkpt lat="48.98642" lon="4.31179">
        <ele>79.2</ele>
        <time>2020-06-30T15:30:14Z</time>
      </trkpt>
      <trkpt lat="48.98644" lon="4.31172">
        <ele>79.2</ele>
        <time>2020-06-30T15:30:15Z</time>
      </trkpt>
      <trkpt lat="48.98646" lon="4.31165">
        <ele>79.2</ele>
        <time>2020-06-30T15:30:16Z</time>
      </trkpt>
      <trkpt lat="48.98648" lon="4.31157">
        <ele>79.2</ele>
        <time>2020-06-30T15:30:17Z</time>
      </trkpt>
      <trkpt lat="48.98651" lon="4.31149">
        <ele>79.2</ele>
        <time>2020-06-30T15:30:18Z</time>
      </trkpt>
      <trkpt lat="48.98654" lon="4.31141">
        <ele>79.2</ele>
        <time>2020-06-30T15:30:19Z</time>
      </trkpt>
      <trkpt lat="48.98658" lon="4.31134">
        <ele>79.2</ele>
        <time>2020-06-30T15:30:20Z</time>
      </trkpt>
      <trkpt lat="48.98663" lon="4.31128">
        <ele>79.2</ele>
        <time>2020-06-30T15:30:21Z</time>
      </trkpt>
      <trkpt lat="48.98667" lon="4.3112">
        <ele>79.2</ele>
        <time>2020-06-30T15:30:22Z</time>
      </trkpt>
      <trkpt lat="48.98671" lon="4.31111">
        <ele>79.2</ele>
        <time>2020-06-30T15:30:23Z</time>
      </trkpt>
      <trkpt lat="48.98674" lon="4.31104">
        <ele>79.2</ele>
        <time>2020-06-30T15:30:24Z</time>
      </trkpt>
      <trkpt lat="48.98676" lon="4.31097">
        <ele>79.2</ele>
        <time>2020-06-30T15:30:25Z</time>
      </trkpt>
      <trkpt lat="48.98678" lon="4.31089">
        <ele>79.2</ele>
        <time>2020-06-30T15:30:26Z</time>
      </trkpt>
      <trkpt lat="48.98682" lon="4.31083">
        <ele>79.2</ele>
        <time>2020-06-30T15:30:27Z</time>
      </trkpt>
      <trkpt lat="48.98686" lon="4.31077">
        <ele>79.2</ele>
        <time>2020-06-30T15:30:28Z</time>
      </trkpt>
      <trkpt lat="48.98688" lon="4.31069">
        <ele>79.2</ele>
        <time>2020-06-30T15:30:29Z</time>
      </trkpt>
      <trkpt lat="48.98691" lon="4.31061">
        <ele>79.2</ele>
        <time>2020-06-30T15:30:30Z</time>
      </trkpt>
      <trkpt lat="48.98694" lon="4.31053">
        <ele>79.2</ele>
        <time>2020-06-30T15:30:31Z</time>
      </trkpt>
      <trkpt lat="48.98697" lon="4.31045">
        <ele>79.2</ele>
        <time>2020-06-30T15:30:32Z</time>
      </trkpt>
      <trkpt lat="48.98699" lon="4.31037">
        <ele>79.2</ele>
        <time>2020-06-30T15:30:33Z</time>
      </trkpt>
      <trkpt lat="48.98701" lon="4.3103">
        <ele>79.2</ele>
        <time>2020-06-30T15:30:34Z</time>
      </trkpt>
      <trkpt lat="48.98704" lon="4.31022">
        <ele>79.3</ele>
        <time>2020-06-30T15:30:35Z</time>
      </trkpt>
      <trkpt lat="48.98708" lon="4.31015">
        <ele>79.3</ele>
        <time>2020-06-30T15:30:36Z</time>
      </trkpt>
      <trkpt lat="48.98711" lon="4.31006">
        <ele>79.4</ele>
        <time>2020-06-30T15:30:37Z</time>
      </trkpt>
      <trkpt lat="48.98715" lon="4.30998">
        <ele>79.6</ele>
        <time>2020-06-30T15:30:38Z</time>
      </trkpt>
      <trkpt lat="48.98718" lon="4.3099">
        <ele>79.9</ele>
        <time>2020-06-30T15:30:39Z</time>
      </trkpt>
      <trkpt lat="48.98721" lon="4.30981">
        <ele>80.2</ele>
        <time>2020-06-30T15:30:40Z</time>
      </trkpt>
      <trkpt lat="48.98724" lon="4.30974">
        <ele>80.5</ele>
        <time>2020-06-30T15:30:41Z</time>
      </trkpt>
      <trkpt lat="48.98726" lon="4.30967">
        <ele>80.8</ele>
        <time>2020-06-30T15:30:42Z</time>
      </trkpt>
      <trkpt lat="48.98728" lon="4.3096">
        <ele>81.2</ele>
        <time>2020-06-30T15:30:43Z</time>
      </trkpt>
      <trkpt lat="48.9873" lon="4.30953">
        <ele>81.3</ele>
        <time>2020-06-30T15:30:44Z</time>
      </trkpt>
      <trkpt lat="48.98733" lon="4.30947">
        <ele>81.5</ele>
        <time>2020-06-30T15:30:45Z</time>
      </trkpt>
      <trkpt lat="48.98736" lon="4.30941">
        <ele>81.7</ele>
        <time>2020-06-30T15:30:46Z</time>
      </trkpt>
      <trkpt lat="48.98736" lon="4.30936">
        <ele>81.8</ele>
        <time>2020-06-30T15:30:47Z</time>
      </trkpt>
      <trkpt lat="48.98739" lon="4.30932">
        <ele>81.8</ele>
        <time>2020-06-30T15:30:48Z</time>
      </trkpt>
      <trkpt lat="48.98739" lon="4.3093">
        <ele>81.8</ele>
        <time>2020-06-30T15:30:49Z</time>
      </trkpt>
      <trkpt lat="48.98741" lon="4.30928">
        <ele>81.7</ele>
        <time>2020-06-30T15:30:50Z</time>
      </trkpt>
      <trkpt lat="48.98744" lon="4.30925">
        <ele>81.5</ele>
        <time>2020-06-30T15:30:51Z</time>
      </trkpt>
      <trkpt lat="48.98745" lon="4.30923">
        <ele>81.4</ele>
        <time>2020-06-30T15:30:52Z</time>
      </trkpt>
      <trkpt lat="48.98747" lon="4.30919">
        <ele>81.2</ele>
        <time>2020-06-30T15:30:53Z</time>
      </trkpt>
      <trkpt lat="48.9875" lon="4.30913">
        <ele>80.8</ele>
        <time>2020-06-30T15:30:54Z</time>
      </trkpt>
      <trkpt lat="48.98753" lon="4.30907">
        <ele>80.4</ele>
        <time>2020-06-30T15:30:55Z</time>
      </trkpt>
      <trkpt lat="48.98756" lon="4.309">
        <ele>80</ele>
        <time>2020-06-30T15:30:56Z</time>
      </trkpt>
      <trkpt lat="48.98759" lon="4.30894">
        <ele>79.7</ele>
        <time>2020-06-30T15:30:57Z</time>
      </trkpt>
      <trkpt lat="48.98762" lon="4.30887">
        <ele>79.4</ele>
        <time>2020-06-30T15:30:58Z</time>
      </trkpt>
      <trkpt lat="48.98765" lon="4.30877">
        <ele>79.1</ele>
        <time>2020-06-30T15:30:59Z</time>
      </trkpt>
      <trkpt lat="48.98768" lon="4.30869">
        <ele>78.9</ele>
        <time>2020-06-30T15:31:00Z</time>
      </trkpt>
      <trkpt lat="48.98772" lon="4.30862">
        <ele>78.9</ele>
        <time>2020-06-30T15:31:01Z</time>
      </trkpt>
      <trkpt lat="48.98775" lon="4.30854">
        <ele>78.8</ele>
        <time>2020-06-30T15:31:02Z</time>
      </trkpt>
      <trkpt lat="48.98778" lon="4.30846">
        <ele>78.8</ele>
        <time>2020-06-30T15:31:03Z</time>
      </trkpt>
      <trkpt lat="48.98781" lon="4.30839">
        <ele>78.8</ele>
        <time>2020-06-30T15:31:04Z</time>
      </trkpt>
      <trkpt lat="48.98784" lon="4.30832">
        <ele>78.8</ele>
        <time>2020-06-30T15:31:05Z</time>
      </trkpt>
      <trkpt lat="48.98788" lon="4.30826">
        <ele>78.8</ele>
        <time>2020-06-30T15:31:06Z</time>
      </trkpt>
      <trkpt lat="48.98791" lon="4.30817">
        <ele>78.7</ele>
        <time>2020-06-30T15:31:07Z</time>
      </trkpt>
      <trkpt lat="48.98795" lon="4.3081">
        <ele>78.7</ele>
        <time>2020-06-30T15:31:08Z</time>
      </trkpt>
      <trkpt lat="48.98798" lon="4.30802">
        <ele>78.7</ele>
        <time>2020-06-30T15:31:09Z</time>
      </trkpt>
      <trkpt lat="48.988" lon="4.30795">
        <ele>78.7</ele>
        <time>2020-06-30T15:31:10Z</time>
      </trkpt>
      <trkpt lat="48.98802" lon="4.30787">
        <ele>78.6</ele>
        <time>2020-06-30T15:31:11Z</time>
      </trkpt>
      <trkpt lat="48.98805" lon="4.30779">
        <ele>78.6</ele>
        <time>2020-06-30T15:31:12Z</time>
      </trkpt>
      <trkpt lat="48.98808" lon="4.30771">
        <ele>78.7</ele>
        <time>2020-06-30T15:31:13Z</time>
      </trkpt>
      <trkpt lat="48.98812" lon="4.30764">
        <ele>78.7</ele>
        <time>2020-06-30T15:31:14Z</time>
      </trkpt>
      <trkpt lat="48.98815" lon="4.3076">
        <ele>78.7</ele>
        <time>2020-06-30T15:31:15Z</time>
      </trkpt>
      <trkpt lat="48.98818" lon="4.30755">
        <ele>78.7</ele>
        <time>2020-06-30T15:31:16Z</time>
      </trkpt>
      <trkpt lat="48.98821" lon="4.3075">
        <ele>78.7</ele>
        <time>2020-06-30T15:31:17Z</time>
      </trkpt>
      <trkpt lat="48.98822" lon="4.30749">
        <ele>78.7</ele>
        <time>2020-06-30T15:31:18Z</time>
      </trkpt>
      <trkpt lat="48.98822" lon="4.3075">
        <ele>78.7</ele>
        <time>2020-06-30T15:31:19Z</time>
      </trkpt>
      <trkpt lat="48.98822" lon="4.30752">
        <ele>78.7</ele>
        <time>2020-06-30T15:31:20Z</time>
      </trkpt>
      <trkpt lat="48.98822" lon="4.30754">
        <ele>78.7</ele>
        <time>2020-06-30T15:31:21Z</time>
      </trkpt>
      <trkpt lat="48.98822" lon="4.30756">
        <ele>78.7</ele>
        <time>2020-06-30T15:31:22Z</time>
      </trkpt>
      <trkpt lat="48.98823" lon="4.30756">
        <ele>78.7</ele>
        <time>2020-06-30T15:31:23Z</time>
      </trkpt>
      <trkpt lat="48.98823" lon="4.30756">
        <ele>78.7</ele>
        <time>2020-06-30T15:31:24Z</time>
      </trkpt>
      <trkpt lat="48.98822" lon="4.30758">
        <ele>78.7</ele>
        <time>2020-06-30T15:31:25Z</time>
      </trkpt>
      <trkpt lat="48.98823" lon="4.30761">
        <ele>78.7</ele>
        <time>2020-06-30T15:31:26Z</time>
      </trkpt>
      <trkpt lat="48.98821" lon="4.30762">
        <ele>78.7</ele>
        <time>2020-06-30T15:31:27Z</time>
      </trkpt>
      <trkpt lat="48.9882" lon="4.30763">
        <ele>78.7</ele>
        <time>2020-06-30T15:31:28Z</time>
      </trkpt>
      <trkpt lat="48.98819" lon="4.30764">
        <ele>78.7</ele>
        <time>2020-06-30T15:31:29Z</time>
      </trkpt>
      <trkpt lat="48.98816" lon="4.30766">
        <ele>78.6</ele>
        <time>2020-06-30T15:31:30Z</time>
      </trkpt>
      <trkpt lat="48.98815" lon="4.30768">
        <ele>78.6</ele>
        <time>2020-06-30T15:31:31Z</time>
      </trkpt>
      <trkpt lat="48.98814" lon="4.30771">
        <ele>78.6</ele>
        <time>2020-06-30T15:31:32Z</time>
      </trkpt>
      <trkpt lat="48.98814" lon="4.30772">
        <ele>78.6</ele>
        <time>2020-06-30T15:31:33Z</time>
      </trkpt>
      <trkpt lat="48.98813" lon="4.30773">
        <ele>78.6</ele>
        <time>2020-06-30T15:31:34Z</time>
      </trkpt>
      <trkpt lat="48.98812" lon="4.30774">
        <ele>78.6</ele>
        <time>2020-06-30T15:31:35Z</time>
      </trkpt>
      <trkpt lat="48.98813" lon="4.30773">
        <ele>78.6</ele>
        <time>2020-06-30T15:31:36Z</time>
      </trkpt>
      <trkpt lat="48.98813" lon="4.30774">
        <ele>78.6</ele>
        <time>2020-06-30T15:31:37Z</time>
      </trkpt>
      <trkpt lat="48.98813" lon="4.30775">
        <ele>78.6</ele>
        <time>2020-06-30T15:31:38Z</time>
      </trkpt>
      <trkpt lat="48.98813" lon="4.30774">
        <ele>78.6</ele>
        <time>2020-06-30T15:31:39Z</time>
      </trkpt>
      <trkpt lat="48.98814" lon="4.30774">
        <ele>78.6</ele>
        <time>2020-06-30T15:31:40Z</time>
      </trkpt>
      <trkpt lat="48.98814" lon="4.30775">
        <ele>78.6</ele>
        <time>2020-06-30T15:31:41Z</time>
      </trkpt>
      <trkpt lat="48.98814" lon="4.30774">
        <ele>78.6</ele>
        <time>2020-06-30T15:31:42Z</time>
      </trkpt>
      <trkpt lat="48.98814" lon="4.30775">
        <ele>78.6</ele>
        <time>2020-06-30T15:31:43Z</time>
      </trkpt>
      <trkpt lat="48.98814" lon="4.30774">
        <ele>78.6</ele>
        <time>2020-06-30T15:31:44Z</time>
      </trkpt>
      <trkpt lat="48.98814" lon="4.30774">
        <ele>78.6</ele>
        <time>2020-06-30T15:31:45Z</time>
      </trkpt>
      <trkpt lat="48.98813" lon="4.30775">
        <ele>78.6</ele>
        <time>2020-06-30T15:31:46Z</time>
      </trkpt>
      <trkpt lat="48.98812" lon="4.30776">
        <ele>78.6</ele>
        <time>2020-06-30T15:31:47Z</time>
      </trkpt>
      <trkpt lat="48.98812" lon="4.30777">
        <ele>78.6</ele>
        <time>2020-06-30T15:31:48Z</time>
      </trkpt>
      <trkpt lat="48.98811" lon="4.30779">
        <ele>78.7</ele>
        <time>2020-06-30T15:31:49Z</time>
      </trkpt>
      <trkpt lat="48.9881" lon="4.3078">
        <ele>78.7</ele>
        <time>2020-06-30T15:31:50Z</time>
      </trkpt>
      <trkpt lat="48.9881" lon="4.30782">
        <ele>78.7</ele>
        <time>2020-06-30T15:31:51Z</time>
      </trkpt>
      <trkpt lat="48.98809" lon="4.30784">
        <ele>78.7</ele>
        <time>2020-06-30T15:31:58Z</time>
      </trkpt>
      <trkpt lat="48.98809" lon="4.30786">
        <ele>78.7</ele>
        <time>2020-06-30T15:31:59Z</time>
      </trkpt>
      <trkpt lat="48.98808" lon="4.30787">
        <ele>78.7</ele>
        <time>2020-06-30T15:32:00Z</time>
      </trkpt>
      <trkpt lat="48.98807" lon="4.30789">
        <ele>78.7</ele>
        <time>2020-06-30T15:32:01Z</time>
      </trkpt>
      <trkpt lat="48.98806" lon="4.30794">
        <ele>78.7</ele>
        <time>2020-06-30T15:32:02Z</time>
      </trkpt>
      <trkpt lat="48.98805" lon="4.30795">
        <ele>78.7</ele>
        <time>2020-06-30T15:32:03Z</time>
      </trkpt>
      <trkpt lat="48.98804" lon="4.30799">
        <ele>78.7</ele>
        <time>2020-06-30T15:32:04Z</time>
      </trkpt>
      <trkpt lat="48.98803" lon="4.30804">
        <ele>78.7</ele>
        <time>2020-06-30T15:32:05Z</time>
      </trkpt>
      <trkpt lat="48.98801" lon="4.30809">
        <ele>78.7</ele>
        <time>2020-06-30T15:32:06Z</time>
      </trkpt>
      <trkpt lat="48.98799" lon="4.30814">
        <ele>78.8</ele>
        <time>2020-06-30T15:32:07Z</time>
      </trkpt>
      <trkpt lat="48.98797" lon="4.30819">
        <ele>78.8</ele>
        <time>2020-06-30T15:32:08Z</time>
      </trkpt>
      <trkpt lat="48.98794" lon="4.30827">
        <ele>78.8</ele>
        <time>2020-06-30T15:32:09Z</time>
      </trkpt>
      <trkpt lat="48.98792" lon="4.30831">
        <ele>78.8</ele>
        <time>2020-06-30T15:32:10Z</time>
      </trkpt>
      <trkpt lat="48.9879" lon="4.30833">
        <ele>78.8</ele>
        <time>2020-06-30T15:32:11Z</time>
      </trkpt>
      <trkpt lat="48.98788" lon="4.3084">
        <ele>78.8</ele>
        <time>2020-06-30T15:32:12Z</time>
      </trkpt>
      <trkpt lat="48.98785" lon="4.30845">
        <ele>78.8</ele>
        <time>2020-06-30T15:32:13Z</time>
      </trkpt>
      <trkpt lat="48.98782" lon="4.30851">
        <ele>78.8</ele>
        <time>2020-06-30T15:32:14Z</time>
      </trkpt>
      <trkpt lat="48.98779" lon="4.30857">
        <ele>78.8</ele>
        <time>2020-06-30T15:32:15Z</time>
      </trkpt>
      <trkpt lat="48.98776" lon="4.30862">
        <ele>78.8</ele>
        <time>2020-06-30T15:32:16Z</time>
      </trkpt>
      <trkpt lat="48.98774" lon="4.30867">
        <ele>78.9</ele>
        <time>2020-06-30T15:32:17Z</time>
      </trkpt>
      <trkpt lat="48.98771" lon="4.30871">
        <ele>78.9</ele>
        <time>2020-06-30T15:32:18Z</time>
      </trkpt>
      <trkpt lat="48.9877" lon="4.30875">
        <ele>79</ele>
        <time>2020-06-30T15:32:19Z</time>
      </trkpt>
      <trkpt lat="48.98768" lon="4.30878">
        <ele>79</ele>
        <time>2020-06-30T15:32:20Z</time>
      </trkpt>
      <trkpt lat="48.98766" lon="4.30881">
        <ele>79.1</ele>
        <time>2020-06-30T15:32:21Z</time>
      </trkpt>
      <trkpt lat="48.98764" lon="4.30885">
        <ele>79.2</ele>
        <time>2020-06-30T15:32:22Z</time>
      </trkpt>
      <trkpt lat="48.98762" lon="4.30888">
        <ele>79.2</ele>
        <time>2020-06-30T15:32:23Z</time>
      </trkpt>
      <trkpt lat="48.98762" lon="4.30892">
        <ele>79.3</ele>
        <time>2020-06-30T15:32:24Z</time>
      </trkpt>
      <trkpt lat="48.98762" lon="4.30896">
        <ele>79.4</ele>
        <time>2020-06-30T15:32:25Z</time>
      </trkpt>
      <trkpt lat="48.98762" lon="4.30892">
        <ele>79.6</ele>
        <time>2020-06-30T15:32:26Z</time>
      </trkpt>
      <trkpt lat="48.98761" lon="4.30891">
        <ele>79.6</ele>
        <time>2020-06-30T15:32:27Z</time>
      </trkpt>
      <trkpt lat="48.9876" lon="4.3089">
        <ele>79.7</ele>
        <time>2020-06-30T15:32:28Z</time>
      </trkpt>
      <trkpt lat="48.9876" lon="4.3089">
        <ele>79.7</ele>
        <time>2020-06-30T15:32:29Z</time>
      </trkpt>
      <trkpt lat="48.98759" lon="4.30889">
        <ele>79.7</ele>
        <time>2020-06-30T15:32:30Z</time>
      </trkpt>
      <trkpt lat="48.98758" lon="4.30893">
        <ele>79.9</ele>
        <time>2020-06-30T15:32:31Z</time>
      </trkpt>
      <trkpt lat="48.98758" lon="4.30894">
        <ele>79.9</ele>
        <time>2020-06-30T15:32:32Z</time>
      </trkpt>
      <trkpt lat="48.98758" lon="4.30896">
        <ele>80</ele>
        <time>2020-06-30T15:32:33Z</time>
      </trkpt>
      <trkpt lat="48.98758" lon="4.30898">
        <ele>80.1</ele>
        <time>2020-06-30T15:32:34Z</time>
      </trkpt>
      <trkpt lat="48.98758" lon="4.309">
        <ele>80.2</ele>
        <time>2020-06-30T15:32:35Z</time>
      </trkpt>
      <trkpt lat="48.98758" lon="4.30902">
        <ele>80.2</ele>
        <time>2020-06-30T15:32:36Z</time>
      </trkpt>
      <trkpt lat="48.98758" lon="4.30903">
        <ele>80.3</ele>
        <time>2020-06-30T15:32:37Z</time>
      </trkpt>
      <trkpt lat="48.98758" lon="4.30905">
        <ele>80.4</ele>
        <time>2020-06-30T15:33:17Z</time>
      </trkpt>
      <trkpt lat="48.98758" lon="4.30907">
        <ele>80.5</ele>
        <time>2020-06-30T15:33:18Z</time>
      </trkpt>
      <trkpt lat="48.98758" lon="4.30909">
        <ele>80.5</ele>
        <time>2020-06-30T15:33:19Z</time>
      </trkpt>
      <trkpt lat="48.98758" lon="4.30911">
        <ele>80.6</ele>
        <time>2020-06-30T15:33:20Z</time>
      </trkpt>
      <trkpt lat="48.98758" lon="4.30911">
        <ele>80.6</ele>
        <time>2020-06-30T15:33:21Z</time>
      </trkpt>
      <trkpt lat="48.98757" lon="4.30912">
        <ele>80.7</ele>
        <time>2020-06-30T15:33:22Z</time>
      </trkpt>
      <trkpt lat="48.98757" lon="4.30915">
        <ele>80.8</ele>
        <time>2020-06-30T15:33:23Z</time>
      </trkpt>
      <trkpt lat="48.98755" lon="4.30919">
        <ele>81</ele>
        <time>2020-06-30T15:33:24Z</time>
      </trkpt>
      <trkpt lat="48.98755" lon="4.3092">
        <ele>81</ele>
        <time>2020-06-30T15:33:25Z</time>
      </trkpt>
      <trkpt lat="48.98752" lon="4.30923">
        <ele>81.2</ele>
        <time>2020-06-30T15:33:26Z</time>
      </trkpt>
      <trkpt lat="48.98751" lon="4.30924">
        <ele>81.3</ele>
        <time>2020-06-30T15:33:27Z</time>
      </trkpt>
      <trkpt lat="48.98749" lon="4.30928">
        <ele>81.5</ele>
        <time>2020-06-30T15:33:28Z</time>
      </trkpt>
      <trkpt lat="48.98748" lon="4.30929">
        <ele>81.5</ele>
        <time>2020-06-30T15:33:29Z</time>
      </trkpt>
      <trkpt lat="48.98746" lon="4.30933">
        <ele>81.7</ele>
        <time>2020-06-30T15:33:30Z</time>
      </trkpt>
      <trkpt lat="48.98745" lon="4.30934">
        <ele>81.7</ele>
        <time>2020-06-30T15:33:31Z</time>
      </trkpt>
      <trkpt lat="48.98747" lon="4.30938">
        <ele>82.3</ele>
        <time>2020-06-30T15:33:32Z</time>
      </trkpt>
      <trkpt lat="48.98747" lon="4.30939">
        <ele>82.3</ele>
        <time>2020-06-30T15:33:33Z</time>
      </trkpt>
      <trkpt lat="48.98749" lon="4.30941">
        <ele>82.3</ele>
        <time>2020-06-30T15:33:34Z</time>
      </trkpt>
      <trkpt lat="48.9875" lon="4.30943">
        <ele>82.3</ele>
        <time>2020-06-30T15:33:35Z</time>
      </trkpt>
      <trkpt lat="48.98752" lon="4.30945">
        <ele>82.3</ele>
        <time>2020-06-30T15:33:36Z</time>
      </trkpt>
      <trkpt lat="48.98753" lon="4.30946">
        <ele>82.4</ele>
        <time>2020-06-30T15:33:37Z</time>
      </trkpt>
      <trkpt lat="48.98756" lon="4.30947">
        <ele>82.4</ele>
        <time>2020-06-30T15:33:38Z</time>
      </trkpt>
      <trkpt lat="48.98756" lon="4.30947">
        <ele>82.4</ele>
        <time>2020-06-30T15:33:39Z</time>
      </trkpt>
      <trkpt lat="48.9876" lon="4.30949">
        <ele>82.3</ele>
        <time>2020-06-30T15:33:40Z</time>
      </trkpt>
      <trkpt lat="48.98761" lon="4.3095">
        <ele>82.3</ele>
        <time>2020-06-30T15:33:41Z</time>
      </trkpt>
      <trkpt lat="48.98763" lon="4.30953">
        <ele>82.3</ele>
        <time>2020-06-30T15:33:42Z</time>
      </trkpt>
      <trkpt lat="48.98766" lon="4.30956">
        <ele>82.3</ele>
        <time>2020-06-30T15:33:43Z</time>
      </trkpt>
      <trkpt lat="48.98768" lon="4.30961">
        <ele>82.2</ele>
        <time>2020-06-30T15:33:44Z</time>
      </trkpt>
      <trkpt lat="48.98771" lon="4.30964">
        <ele>82.2</ele>
        <time>2020-06-30T15:33:45Z</time>
      </trkpt>
      <trkpt lat="48.98774" lon="4.30969">
        <ele>82</ele>
        <time>2020-06-30T15:33:46Z</time>
      </trkpt>
      <trkpt lat="48.98778" lon="4.30974">
        <ele>81.9</ele>
        <time>2020-06-30T15:33:47Z</time>
      </trkpt>
      <trkpt lat="48.98781" lon="4.30979">
        <ele>81.7</ele>
        <time>2020-06-30T15:33:48Z</time>
      </trkpt>
      <trkpt lat="48.98784" lon="4.30984">
        <ele>81.5</ele>
        <time>2020-06-30T15:33:49Z</time>
      </trkpt>
      <trkpt lat="48.98788" lon="4.3099">
        <ele>81.3</ele>
        <time>2020-06-30T15:33:50Z</time>
      </trkpt>
      <trkpt lat="48.98791" lon="4.30995">
        <ele>81.1</ele>
        <time>2020-06-30T15:33:51Z</time>
      </trkpt>
      <trkpt lat="48.98795" lon="4.31002">
        <ele>80.8</ele>
        <time>2020-06-30T15:33:52Z</time>
      </trkpt>
      <trkpt lat="48.988" lon="4.31007">
        <ele>80.5</ele>
        <time>2020-06-30T15:33:53Z</time>
      </trkpt>
      <trkpt lat="48.98804" lon="4.31015">
        <ele>80.1</ele>
        <time>2020-06-30T15:33:54Z</time>
      </trkpt>
      <trkpt lat="48.98809" lon="4.31021">
        <ele>79.7</ele>
        <time>2020-06-30T15:33:55Z</time>
      </trkpt>
      <trkpt lat="48.98814" lon="4.31026">
        <ele>79.3</ele>
        <time>2020-06-30T15:33:56Z</time>
      </trkpt>
      <trkpt lat="48.9882" lon="4.31033">
        <ele>79</ele>
        <time>2020-06-30T15:33:57Z</time>
      </trkpt>
      <trkpt lat="48.98827" lon="4.3104">
        <ele>78.5</ele>
        <time>2020-06-30T15:33:58Z</time>
      </trkpt>
      <trkpt lat="48.98834" lon="4.31047">
        <ele>78.4</ele>
        <time>2020-06-30T15:33:59Z</time>
      </trkpt>
      <trkpt lat="48.9884" lon="4.31055">
        <ele>78.3</ele>
        <time>2020-06-30T15:34:00Z</time>
      </trkpt>
      <trkpt lat="48.98847" lon="4.31063">
        <ele>78.2</ele>
        <time>2020-06-30T15:34:01Z</time>
      </trkpt>
      <trkpt lat="48.98852" lon="4.31068">
        <ele>78.1</ele>
        <time>2020-06-30T15:34:02Z</time>
      </trkpt>
      <trkpt lat="48.98858" lon="4.31074">
        <ele>78.1</ele>
        <time>2020-06-30T15:34:03Z</time>
      </trkpt>
      <trkpt lat="48.98863" lon="4.3108">
        <ele>78</ele>
        <time>2020-06-30T15:34:04Z</time>
      </trkpt>
      <trkpt lat="48.98868" lon="4.31086">
        <ele>77.9</ele>
        <time>2020-06-30T15:34:05Z</time>
      </trkpt>
      <trkpt lat="48.98873" lon="4.3109">
        <ele>77.9</ele>
        <time>2020-06-30T15:34:06Z</time>
      </trkpt>
      <trkpt lat="48.98879" lon="4.31095">
        <ele>77.8</ele>
        <time>2020-06-30T15:34:07Z</time>
      </trkpt>
      <trkpt lat="48.98884" lon="4.31101">
        <ele>77.8</ele>
        <time>2020-06-30T15:34:08Z</time>
      </trkpt>
      <trkpt lat="48.98889" lon="4.31106">
        <ele>77.8</ele>
        <time>2020-06-30T15:34:09Z</time>
      </trkpt>
      <trkpt lat="48.98894" lon="4.31111">
        <ele>77.7</ele>
        <time>2020-06-30T15:34:10Z</time>
      </trkpt>
      <trkpt lat="48.98899" lon="4.31117">
        <ele>77.8</ele>
        <time>2020-06-30T15:34:11Z</time>
      </trkpt>
      <trkpt lat="48.98904" lon="4.31122">
        <ele>77.8</ele>
        <time>2020-06-30T15:34:12Z</time>
      </trkpt>
      <trkpt lat="48.98909" lon="4.31127">
        <ele>77.9</ele>
        <time>2020-06-30T15:34:13Z</time>
      </trkpt>
      <trkpt lat="48.98913" lon="4.31133">
        <ele>77.9</ele>
        <time>2020-06-30T15:34:14Z</time>
      </trkpt>
      <trkpt lat="48.98918" lon="4.31139">
        <ele>77.9</ele>
        <time>2020-06-30T15:34:15Z</time>
      </trkpt>
      <trkpt lat="48.98922" lon="4.31144">
        <ele>78</ele>
        <time>2020-06-30T15:34:16Z</time>
      </trkpt>
      <trkpt lat="48.98926" lon="4.31149">
        <ele>78</ele>
        <time>2020-06-30T15:34:17Z</time>
      </trkpt>
      <trkpt lat="48.9893" lon="4.31155">
        <ele>78.1</ele>
        <time>2020-06-30T15:34:18Z</time>
      </trkpt>
      <trkpt lat="48.98934" lon="4.31158">
        <ele>78.1</ele>
        <time>2020-06-30T15:34:19Z</time>
      </trkpt>
      <trkpt lat="48.98938" lon="4.3116">
        <ele>78.1</ele>
        <time>2020-06-30T15:34:20Z</time>
      </trkpt>
      <trkpt lat="48.98943" lon="4.31161">
        <ele>78.2</ele>
        <time>2020-06-30T15:34:21Z</time>
      </trkpt>
      <trkpt lat="48.98947" lon="4.31157">
        <ele>78.3</ele>
        <time>2020-06-30T15:34:22Z</time>
      </trkpt>
      <trkpt lat="48.98951" lon="4.31153">
        <ele>78.3</ele>
        <time>2020-06-30T15:34:23Z</time>
      </trkpt>
      <trkpt lat="48.98955" lon="4.31148">
        <ele>78.2</ele>
        <time>2020-06-30T15:34:24Z</time>
      </trkpt>
      <trkpt lat="48.98959" lon="4.31144">
        <ele>78.2</ele>
        <time>2020-06-30T15:34:25Z</time>
      </trkpt>
      <trkpt lat="48.98964" lon="4.3114">
        <ele>78.2</ele>
        <time>2020-06-30T15:34:26Z</time>
      </trkpt>
      <trkpt lat="48.98968" lon="4.31138">
        <ele>78.2</ele>
        <time>2020-06-30T15:34:27Z</time>
      </trkpt>
      <trkpt lat="48.98972" lon="4.31136">
        <ele>78.2</ele>
        <time>2020-06-30T15:34:28Z</time>
      </trkpt>
      <trkpt lat="48.98977" lon="4.31134">
        <ele>78.2</ele>
        <time>2020-06-30T15:34:29Z</time>
      </trkpt>
      <trkpt lat="48.98981" lon="4.31131">
        <ele>78.2</ele>
        <time>2020-06-30T15:34:30Z</time>
      </trkpt>
      <trkpt lat="48.98985" lon="4.31127">
        <ele>78.2</ele>
        <time>2020-06-30T15:34:31Z</time>
      </trkpt>
      <trkpt lat="48.98989" lon="4.31124">
        <ele>78.3</ele>
        <time>2020-06-30T15:34:32Z</time>
      </trkpt>
      <trkpt lat="48.98994" lon="4.31121">
        <ele>78.3</ele>
        <time>2020-06-30T15:34:33Z</time>
      </trkpt>
      <trkpt lat="48.98999" lon="4.31119">
        <ele>78.3</ele>
        <time>2020-06-30T15:34:34Z</time>
      </trkpt>
      <trkpt lat="48.99003" lon="4.31116">
        <ele>78.4</ele>
        <time>2020-06-30T15:34:35Z</time>
      </trkpt>
      <trkpt lat="48.99007" lon="4.31113">
        <ele>78.4</ele>
        <time>2020-06-30T15:34:36Z</time>
      </trkpt>
      <trkpt lat="48.99011" lon="4.3111">
        <ele>78.4</ele>
        <time>2020-06-30T15:34:37Z</time>
      </trkpt>
      <trkpt lat="48.99015" lon="4.31107">
        <ele>78.5</ele>
        <time>2020-06-30T15:34:38Z</time>
      </trkpt>
      <trkpt lat="48.9902" lon="4.31104">
        <ele>78.5</ele>
        <time>2020-06-30T15:34:39Z</time>
      </trkpt>
      <trkpt lat="48.99023" lon="4.311">
        <ele>78.5</ele>
        <time>2020-06-30T15:34:40Z</time>
      </trkpt>
      <trkpt lat="48.99026" lon="4.31096">
        <ele>78.4</ele>
        <time>2020-06-30T15:34:41Z</time>
      </trkpt>
      <trkpt lat="48.9903" lon="4.31093">
        <ele>78.4</ele>
        <time>2020-06-30T15:34:42Z</time>
      </trkpt>
      <trkpt lat="48.99033" lon="4.31095">
        <ele>78.4</ele>
        <time>2020-06-30T15:34:43Z</time>
      </trkpt>
      <trkpt lat="48.99036" lon="4.31098">
        <ele>78.8</ele>
        <time>2020-06-30T15:34:44Z</time>
      </trkpt>
      <trkpt lat="48.99036" lon="4.311">
        <ele>78.8</ele>
        <time>2020-06-30T15:34:45Z</time>
      </trkpt>
      <trkpt lat="48.99036" lon="4.31106">
        <ele>78.9</ele>
        <time>2020-06-30T15:34:46Z</time>
      </trkpt>
      <trkpt lat="48.99037" lon="4.31107">
        <ele>79</ele>
        <time>2020-06-30T15:34:47Z</time>
      </trkpt>
      <trkpt lat="48.99038" lon="4.31113">
        <ele>79.1</ele>
        <time>2020-06-30T15:34:48Z</time>
      </trkpt>
      <trkpt lat="48.99039" lon="4.31114">
        <ele>79.1</ele>
        <time>2020-06-30T15:34:49Z</time>
      </trkpt>
      <trkpt lat="48.99042" lon="4.31117">
        <ele>79.2</ele>
        <time>2020-06-30T15:34:50Z</time>
      </trkpt>
      <trkpt lat="48.99043" lon="4.31118">
        <ele>79.2</ele>
        <time>2020-06-30T15:34:51Z</time>
      </trkpt>
      <trkpt lat="48.99044" lon="4.31123">
        <ele>79.2</ele>
        <time>2020-06-30T15:34:52Z</time>
      </trkpt>
      <trkpt lat="48.99045" lon="4.31124">
        <ele>79.2</ele>
        <time>2020-06-30T15:34:53Z</time>
      </trkpt>
      <trkpt lat="48.99048" lon="4.31125">
        <ele>79.2</ele>
        <time>2020-06-30T15:34:54Z</time>
      </trkpt>
      <trkpt lat="48.99049" lon="4.31126">
        <ele>79.1</ele>
        <time>2020-06-30T15:34:55Z</time>
      </trkpt>
      <trkpt lat="48.99051" lon="4.31129">
        <ele>79.1</ele>
        <time>2020-06-30T15:34:56Z</time>
      </trkpt>
      <trkpt lat="48.99052" lon="4.3113">
        <ele>79.1</ele>
        <time>2020-06-30T15:34:57Z</time>
      </trkpt>
      <trkpt lat="48.99053" lon="4.31132">
        <ele>79.1</ele>
        <time>2020-06-30T15:34:58Z</time>
      </trkpt>
      <trkpt lat="48.99054" lon="4.31134">
        <ele>79.1</ele>
        <time>2020-06-30T15:34:59Z</time>
      </trkpt>
      <trkpt lat="48.99056" lon="4.31136">
        <ele>79</ele>
        <time>2020-06-30T15:35:00Z</time>
      </trkpt>
      <trkpt lat="48.99057" lon="4.31137">
        <ele>79</ele>
        <time>2020-06-30T15:35:01Z</time>
      </trkpt>
      <trkpt lat="48.99059" lon="4.31142">
        <ele>78.9</ele>
        <time>2020-06-30T15:35:02Z</time>
      </trkpt>
      <trkpt lat="48.9906" lon="4.31143">
        <ele>78.9</ele>
        <time>2020-06-30T15:35:03Z</time>
      </trkpt>
      <trkpt lat="48.99061" lon="4.31147">
        <ele>78.8</ele>
        <time>2020-06-30T15:35:04Z</time>
      </trkpt>
      <trkpt lat="48.99063" lon="4.31151">
        <ele>78.7</ele>
        <time>2020-06-30T15:35:05Z</time>
      </trkpt>
      <trkpt lat="48.99066" lon="4.31154">
        <ele>78.6</ele>
        <time>2020-06-30T15:35:06Z</time>
      </trkpt>
      <trkpt lat="48.99068" lon="4.31158">
        <ele>78.5</ele>
        <time>2020-06-30T15:35:07Z</time>
      </trkpt>
      <trkpt lat="48.9907" lon="4.31162">
        <ele>78.4</ele>
        <time>2020-06-30T15:35:08Z</time>
      </trkpt>
      <trkpt lat="48.99073" lon="4.31167">
        <ele>78.4</ele>
        <time>2020-06-30T15:35:09Z</time>
      </trkpt>
      <trkpt lat="48.99076" lon="4.31172">
        <ele>78.4</ele>
        <time>2020-06-30T15:35:10Z</time>
      </trkpt>
      <trkpt lat="48.99079" lon="4.31176">
        <ele>78.4</ele>
        <time>2020-06-30T15:35:11Z</time>
      </trkpt>
      <trkpt lat="48.99082" lon="4.31181">
        <ele>78.3</ele>
        <time>2020-06-30T15:35:12Z</time>
      </trkpt>
      <trkpt lat="48.99085" lon="4.31186">
        <ele>78.3</ele>
        <time>2020-06-30T15:35:13Z</time>
      </trkpt>
      <trkpt lat="48.99088" lon="4.31191">
        <ele>78.2</ele>
        <time>2020-06-30T15:35:14Z</time>
      </trkpt>
      <trkpt lat="48.99091" lon="4.31196">
        <ele>78.2</ele>
        <time>2020-06-30T15:35:15Z</time>
      </trkpt>
      <trkpt lat="48.99094" lon="4.312">
        <ele>78.2</ele>
        <time>2020-06-30T15:35:16Z</time>
      </trkpt>
      <trkpt lat="48.99098" lon="4.31206">
        <ele>78.2</ele>
        <time>2020-06-30T15:35:17Z</time>
      </trkpt>
      <trkpt lat="48.99101" lon="4.31212">
        <ele>78.2</ele>
        <time>2020-06-30T15:35:18Z</time>
      </trkpt>
      <trkpt lat="48.99105" lon="4.31217">
        <ele>78.2</ele>
        <time>2020-06-30T15:35:19Z</time>
      </trkpt>
      <trkpt lat="48.99109" lon="4.31222">
        <ele>78.2</ele>
        <time>2020-06-30T15:35:20Z</time>
      </trkpt>
      <trkpt lat="48.99113" lon="4.31228">
        <ele>78.2</ele>
        <time>2020-06-30T15:35:21Z</time>
      </trkpt>
      <trkpt lat="48.99116" lon="4.31234">
        <ele>78.3</ele>
        <time>2020-06-30T15:35:22Z</time>
      </trkpt>
      <trkpt lat="48.99119" lon="4.31239">
        <ele>78.4</ele>
        <time>2020-06-30T15:35:23Z</time>
      </trkpt>
      <trkpt lat="48.99122" lon="4.31245">
        <ele>78.4</ele>
        <time>2020-06-30T15:35:24Z</time>
      </trkpt>
      <trkpt lat="48.99126" lon="4.31249">
        <ele>78.5</ele>
        <time>2020-06-30T15:35:25Z</time>
      </trkpt>
      <trkpt lat="48.99128" lon="4.31255">
        <ele>78.5</ele>
        <time>2020-06-30T15:35:26Z</time>
      </trkpt>
      <trkpt lat="48.99131" lon="4.3126">
        <ele>78.5</ele>
        <time>2020-06-30T15:35:27Z</time>
      </trkpt>
      <trkpt lat="48.99134" lon="4.31265">
        <ele>78.5</ele>
        <time>2020-06-30T15:35:28Z</time>
      </trkpt>
      <trkpt lat="48.99136" lon="4.31271">
        <ele>78.5</ele>
        <time>2020-06-30T15:35:29Z</time>
      </trkpt>
      <trkpt lat="48.99139" lon="4.31275">
        <ele>78.5</ele>
        <time>2020-06-30T15:35:30Z</time>
      </trkpt>
      <trkpt lat="48.99141" lon="4.31279">
        <ele>78.5</ele>
        <time>2020-06-30T15:35:31Z</time>
      </trkpt>
      <trkpt lat="48.99144" lon="4.31282">
        <ele>78.5</ele>
        <time>2020-06-30T15:35:32Z</time>
      </trkpt>
      <trkpt lat="48.99145" lon="4.31282">
        <ele>78.5</ele>
        <time>2020-06-30T15:35:33Z</time>
      </trkpt>
      <trkpt lat="48.99148" lon="4.31282">
        <ele>78.5</ele>
        <time>2020-06-30T15:35:34Z</time>
      </trkpt>
      <trkpt lat="48.9915" lon="4.31281">
        <ele>78.6</ele>
        <time>2020-06-30T15:35:35Z</time>
      </trkpt>
      <trkpt lat="48.99153" lon="4.3128">
        <ele>78.6</ele>
        <time>2020-06-30T15:35:36Z</time>
      </trkpt>
      <trkpt lat="48.99156" lon="4.31278">
        <ele>78.5</ele>
        <time>2020-06-30T15:35:37Z</time>
      </trkpt>
      <trkpt lat="48.99158" lon="4.31273">
        <ele>78.5</ele>
        <time>2020-06-30T15:35:38Z</time>
      </trkpt>
      <trkpt lat="48.9916" lon="4.31268">
        <ele>78.5</ele>
        <time>2020-06-30T15:35:39Z</time>
      </trkpt>
      <trkpt lat="48.99163" lon="4.31264">
        <ele>78.4</ele>
        <time>2020-06-30T15:35:40Z</time>
      </trkpt>
      <trkpt lat="48.99167" lon="4.31261">
        <ele>78.4</ele>
        <time>2020-06-30T15:35:41Z</time>
      </trkpt>
      <trkpt lat="48.99171" lon="4.31257">
        <ele>78.4</ele>
        <time>2020-06-30T15:35:42Z</time>
      </trkpt>
      <trkpt lat="48.99174" lon="4.3125">
        <ele>78.4</ele>
        <time>2020-06-30T15:35:43Z</time>
      </trkpt>
      <trkpt lat="48.99178" lon="4.31245">
        <ele>78.4</ele>
        <time>2020-06-30T15:35:44Z</time>
      </trkpt>
      <trkpt lat="48.99181" lon="4.31239">
        <ele>78.4</ele>
        <time>2020-06-30T15:35:45Z</time>
      </trkpt>
      <trkpt lat="48.99184" lon="4.31234">
        <ele>78.4</ele>
        <time>2020-06-30T15:35:46Z</time>
      </trkpt>
      <trkpt lat="48.99188" lon="4.31229">
        <ele>78.4</ele>
        <time>2020-06-30T15:35:47Z</time>
      </trkpt>
      <trkpt lat="48.99192" lon="4.31225">
        <ele>78.4</ele>
        <time>2020-06-30T15:35:48Z</time>
      </trkpt>
      <trkpt lat="48.99195" lon="4.3122">
        <ele>78.4</ele>
        <time>2020-06-30T15:35:49Z</time>
      </trkpt>
      <trkpt lat="48.99198" lon="4.31214">
        <ele>78.3</ele>
        <time>2020-06-30T15:35:50Z</time>
      </trkpt>
      <trkpt lat="48.99202" lon="4.31211">
        <ele>78.4</ele>
        <time>2020-06-30T15:35:51Z</time>
      </trkpt>
      <trkpt lat="48.99207" lon="4.31205">
        <ele>78.4</ele>
        <time>2020-06-30T15:35:52Z</time>
      </trkpt>
      <trkpt lat="48.99211" lon="4.312">
        <ele>78.4</ele>
        <time>2020-06-30T15:35:53Z</time>
      </trkpt>
      <trkpt lat="48.99214" lon="4.31195">
        <ele>78.5</ele>
        <time>2020-06-30T15:35:54Z</time>
      </trkpt>
      <trkpt lat="48.99218" lon="4.3119">
        <ele>78.5</ele>
        <time>2020-06-30T15:35:55Z</time>
      </trkpt>
      <trkpt lat="48.99222" lon="4.31185">
        <ele>78.5</ele>
        <time>2020-06-30T15:35:56Z</time>
      </trkpt>
      <trkpt lat="48.99225" lon="4.31179">
        <ele>78.5</ele>
        <time>2020-06-30T15:35:57Z</time>
      </trkpt>
      <trkpt lat="48.99228" lon="4.31173">
        <ele>78.5</ele>
        <time>2020-06-30T15:35:58Z</time>
      </trkpt>
      <trkpt lat="48.99232" lon="4.31167">
        <ele>78.5</ele>
        <time>2020-06-30T15:35:59Z</time>
      </trkpt>
      <trkpt lat="48.99235" lon="4.31161">
        <ele>78.5</ele>
        <time>2020-06-30T15:36:00Z</time>
      </trkpt>
      <trkpt lat="48.99238" lon="4.31155">
        <ele>78.5</ele>
        <time>2020-06-30T15:36:01Z</time>
      </trkpt>
      <trkpt lat="48.99242" lon="4.3115">
        <ele>78.5</ele>
        <time>2020-06-30T15:36:02Z</time>
      </trkpt>
      <trkpt lat="48.99246" lon="4.31144">
        <ele>78.6</ele>
        <time>2020-06-30T15:36:03Z</time>
      </trkpt>
      <trkpt lat="48.9925" lon="4.31138">
        <ele>78.6</ele>
        <time>2020-06-30T15:36:04Z</time>
      </trkpt>
      <trkpt lat="48.99253" lon="4.31132">
        <ele>78.6</ele>
        <time>2020-06-30T15:36:05Z</time>
      </trkpt>
      <trkpt lat="48.99257" lon="4.31125">
        <ele>78.7</ele>
        <time>2020-06-30T15:36:06Z</time>
      </trkpt>
      <trkpt lat="48.9926" lon="4.31118">
        <ele>78.7</ele>
        <time>2020-06-30T15:36:07Z</time>
      </trkpt>
      <trkpt lat="48.99264" lon="4.31114">
        <ele>78.8</ele>
        <time>2020-06-30T15:36:08Z</time>
      </trkpt>
      <trkpt lat="48.99268" lon="4.31108">
        <ele>78.8</ele>
        <time>2020-06-30T15:36:09Z</time>
      </trkpt>
      <trkpt lat="48.99271" lon="4.31101">
        <ele>78.9</ele>
        <time>2020-06-30T15:36:10Z</time>
      </trkpt>
      <trkpt lat="48.99274" lon="4.31095">
        <ele>78.9</ele>
        <time>2020-06-30T15:36:11Z</time>
      </trkpt>
      <trkpt lat="48.99278" lon="4.31089">
        <ele>78.9</ele>
        <time>2020-06-30T15:36:12Z</time>
      </trkpt>
      <trkpt lat="48.99282" lon="4.31083">
        <ele>78.9</ele>
        <time>2020-06-30T15:36:13Z</time>
      </trkpt>
      <trkpt lat="48.99285" lon="4.31077">
        <ele>78.9</ele>
        <time>2020-06-30T15:36:14Z</time>
      </trkpt>
      <trkpt lat="48.99288" lon="4.31072">
        <ele>79</ele>
        <time>2020-06-30T15:36:15Z</time>
      </trkpt>
      <trkpt lat="48.99291" lon="4.31066">
        <ele>79</ele>
        <time>2020-06-30T15:36:16Z</time>
      </trkpt>
      <trkpt lat="48.99295" lon="4.3106">
        <ele>79</ele>
        <time>2020-06-30T15:36:17Z</time>
      </trkpt>
      <trkpt lat="48.99298" lon="4.31054">
        <ele>79</ele>
        <time>2020-06-30T15:36:18Z</time>
      </trkpt>
      <trkpt lat="48.99302" lon="4.31048">
        <ele>79</ele>
        <time>2020-06-30T15:36:19Z</time>
      </trkpt>
      <trkpt lat="48.99305" lon="4.31042">
        <ele>79</ele>
        <time>2020-06-30T15:36:20Z</time>
      </trkpt>
      <trkpt lat="48.99308" lon="4.31035">
        <ele>79</ele>
        <time>2020-06-30T15:36:21Z</time>
      </trkpt>
      <trkpt lat="48.99311" lon="4.31028">
        <ele>79</ele>
        <time>2020-06-30T15:36:22Z</time>
      </trkpt>
      <trkpt lat="48.99315" lon="4.31022">
        <ele>79</ele>
        <time>2020-06-30T15:36:23Z</time>
      </trkpt>
      <trkpt lat="48.99319" lon="4.31015">
        <ele>79</ele>
        <time>2020-06-30T15:36:24Z</time>
      </trkpt>
      <trkpt lat="48.99323" lon="4.31009">
        <ele>79</ele>
        <time>2020-06-30T15:36:25Z</time>
      </trkpt>
      <trkpt lat="48.99327" lon="4.31003">
        <ele>79</ele>
        <time>2020-06-30T15:36:26Z</time>
      </trkpt>
      <trkpt lat="48.99331" lon="4.30996">
        <ele>79</ele>
        <time>2020-06-30T15:36:27Z</time>
      </trkpt>
      <trkpt lat="48.99336" lon="4.30989">
        <ele>78.9</ele>
        <time>2020-06-30T15:36:28Z</time>
      </trkpt>
      <trkpt lat="48.9934" lon="4.30982">
        <ele>78.8</ele>
        <time>2020-06-30T15:36:29Z</time>
      </trkpt>
      <trkpt lat="48.99344" lon="4.30975">
        <ele>78.8</ele>
        <time>2020-06-30T15:36:30Z</time>
      </trkpt>
      <trkpt lat="48.99348" lon="4.30969">
        <ele>78.7</ele>
        <time>2020-06-30T15:36:31Z</time>
      </trkpt>
      <trkpt lat="48.99352" lon="4.30962">
        <ele>78.7</ele>
        <time>2020-06-30T15:36:32Z</time>
      </trkpt>
      <trkpt lat="48.99355" lon="4.30955">
        <ele>78.7</ele>
        <time>2020-06-30T15:36:33Z</time>
      </trkpt>
      <trkpt lat="48.99359" lon="4.30948">
        <ele>78.6</ele>
        <time>2020-06-30T15:36:34Z</time>
      </trkpt>
      <trkpt lat="48.99362" lon="4.30941">
        <ele>78.6</ele>
        <time>2020-06-30T15:36:35Z</time>
      </trkpt>
      <trkpt lat="48.99365" lon="4.30934">
        <ele>78.6</ele>
        <time>2020-06-30T15:36:36Z</time>
      </trkpt>
      <trkpt lat="48.99368" lon="4.30928">
        <ele>78.6</ele>
        <time>2020-06-30T15:36:37Z</time>
      </trkpt>
      <trkpt lat="48.99371" lon="4.30922">
        <ele>78.6</ele>
        <time>2020-06-30T15:36:38Z</time>
      </trkpt>
      <trkpt lat="48.99375" lon="4.30917">
        <ele>78.6</ele>
        <time>2020-06-30T15:36:39Z</time>
      </trkpt>
      <trkpt lat="48.99378" lon="4.30912">
        <ele>78.6</ele>
        <time>2020-06-30T15:36:40Z</time>
      </trkpt>
      <trkpt lat="48.99381" lon="4.30907">
        <ele>78.6</ele>
        <time>2020-06-30T15:36:41Z</time>
      </trkpt>
      <trkpt lat="48.99384" lon="4.30901">
        <ele>78.6</ele>
        <time>2020-06-30T15:36:42Z</time>
      </trkpt>
      <trkpt lat="48.99387" lon="4.30896">
        <ele>78.6</ele>
        <time>2020-06-30T15:36:43Z</time>
      </trkpt>
      <trkpt lat="48.9939" lon="4.30892">
        <ele>78.6</ele>
        <time>2020-06-30T15:36:44Z</time>
      </trkpt>
      <trkpt lat="48.99393" lon="4.30888">
        <ele>78.7</ele>
        <time>2020-06-30T15:36:45Z</time>
      </trkpt>
      <trkpt lat="48.99396" lon="4.30885">
        <ele>78.7</ele>
        <time>2020-06-30T15:36:46Z</time>
      </trkpt>
      <trkpt lat="48.99399" lon="4.30881">
        <ele>78.7</ele>
        <time>2020-06-30T15:36:47Z</time>
      </trkpt>
      <trkpt lat="48.99401" lon="4.30876">
        <ele>78.7</ele>
        <time>2020-06-30T15:36:48Z</time>
      </trkpt>
      <trkpt lat="48.99404" lon="4.30875">
        <ele>78.8</ele>
        <time>2020-06-30T15:36:49Z</time>
      </trkpt>
      <trkpt lat="48.99408" lon="4.30876">
        <ele>78.9</ele>
        <time>2020-06-30T15:36:50Z</time>
      </trkpt>
      <trkpt lat="48.99411" lon="4.30877">
        <ele>78.9</ele>
        <time>2020-06-30T15:36:51Z</time>
      </trkpt>
      <trkpt lat="48.99413" lon="4.30878">
        <ele>79</ele>
        <time>2020-06-30T15:36:52Z</time>
      </trkpt>
      <trkpt lat="48.99416" lon="4.3088">
        <ele>79.1</ele>
        <time>2020-06-30T15:36:53Z</time>
      </trkpt>
      <trkpt lat="48.9942" lon="4.30882">
        <ele>79.2</ele>
        <time>2020-06-30T15:36:54Z</time>
      </trkpt>
      <trkpt lat="48.99421" lon="4.30884">
        <ele>79.2</ele>
        <time>2020-06-30T15:36:55Z</time>
      </trkpt>
      <trkpt lat="48.99423" lon="4.30887">
        <ele>79.3</ele>
        <time>2020-06-30T15:36:56Z</time>
      </trkpt>
      <trkpt lat="48.99425" lon="4.30889">
        <ele>79.4</ele>
        <time>2020-06-30T15:36:57Z</time>
      </trkpt>
      <trkpt lat="48.99427" lon="4.30892">
        <ele>79.4</ele>
        <time>2020-06-30T15:36:58Z</time>
      </trkpt>
      <trkpt lat="48.99427" lon="4.30893">
        <ele>79.4</ele>
        <time>2020-06-30T15:36:59Z</time>
      </trkpt>
      <trkpt lat="48.99428" lon="4.30894">
        <ele>79.5</ele>
        <time>2020-06-30T15:37:00Z</time>
      </trkpt>
      <trkpt lat="48.99429" lon="4.30894">
        <ele>79.5</ele>
        <time>2020-06-30T15:37:01Z</time>
      </trkpt>
      <trkpt lat="48.9943" lon="4.30893">
        <ele>79.5</ele>
        <time>2020-06-30T15:37:02Z</time>
      </trkpt>
      <trkpt lat="48.9943" lon="4.30894">
        <ele>79.5</ele>
        <time>2020-06-30T15:37:03Z</time>
      </trkpt>
      <trkpt lat="48.9943" lon="4.30894">
        <ele>79.6</ele>
        <time>2020-06-30T15:37:04Z</time>
      </trkpt>
      <trkpt lat="48.9943" lon="4.30895">
        <ele>79.6</ele>
        <time>2020-06-30T15:37:05Z</time>
      </trkpt>
      <trkpt lat="48.9943" lon="4.30895">
        <ele>79.6</ele>
        <time>2020-06-30T15:37:06Z</time>
      </trkpt>
      <trkpt lat="48.9943" lon="4.30894">
        <ele>79.6</ele>
        <time>2020-06-30T15:37:07Z</time>
      </trkpt>
      <trkpt lat="48.99431" lon="4.30894">
        <ele>79.7</ele>
        <time>2020-06-30T15:37:08Z</time>
      </trkpt>
      <trkpt lat="48.99433" lon="4.30896">
        <ele>79.7</ele>
        <time>2020-06-30T15:37:09Z</time>
      </trkpt>
      <trkpt lat="48.99435" lon="4.30893">
        <ele>79.6</ele>
        <time>2020-06-30T15:37:10Z</time>
      </trkpt>
      <trkpt lat="48.99436" lon="4.30892">
        <ele>79.6</ele>
        <time>2020-06-30T15:37:11Z</time>
      </trkpt>
      <trkpt lat="48.99439" lon="4.30887">
        <ele>79.5</ele>
        <time>2020-06-30T15:37:12Z</time>
      </trkpt>
      <trkpt lat="48.9944" lon="4.30882">
        <ele>79.4</ele>
        <time>2020-06-30T15:37:13Z</time>
      </trkpt>
      <trkpt lat="48.99442" lon="4.30876">
        <ele>79.3</ele>
        <time>2020-06-30T15:37:14Z</time>
      </trkpt>
      <trkpt lat="48.99443" lon="4.3087">
        <ele>79.2</ele>
        <time>2020-06-30T15:37:15Z</time>
      </trkpt>
      <trkpt lat="48.99444" lon="4.30862">
        <ele>79.1</ele>
        <time>2020-06-30T15:37:16Z</time>
      </trkpt>
      <trkpt lat="48.99446" lon="4.30855">
        <ele>79</ele>
        <time>2020-06-30T15:37:17Z</time>
      </trkpt>
      <trkpt lat="48.99448" lon="4.30848">
        <ele>78.9</ele>
        <time>2020-06-30T15:37:18Z</time>
      </trkpt>
      <trkpt lat="48.9945" lon="4.30842">
        <ele>78.8</ele>
        <time>2020-06-30T15:37:19Z</time>
      </trkpt>
      <trkpt lat="48.99452" lon="4.30835">
        <ele>78.8</ele>
        <time>2020-06-30T15:37:20Z</time>
      </trkpt>
      <trkpt lat="48.99454" lon="4.30827">
        <ele>78.7</ele>
        <time>2020-06-30T15:37:21Z</time>
      </trkpt>
      <trkpt lat="48.99457" lon="4.30821">
        <ele>78.6</ele>
        <time>2020-06-30T15:37:22Z</time>
      </trkpt>
      <trkpt lat="48.99459" lon="4.30812">
        <ele>78.6</ele>
        <time>2020-06-30T15:37:23Z</time>
      </trkpt>
      <trkpt lat="48.99461" lon="4.30804">
        <ele>78.5</ele>
        <time>2020-06-30T15:37:24Z</time>
      </trkpt>
      <trkpt lat="48.99463" lon="4.30796">
        <ele>78.4</ele>
        <time>2020-06-30T15:37:25Z</time>
      </trkpt>
      <trkpt lat="48.99465" lon="4.30789">
        <ele>78.4</ele>
        <time>2020-06-30T15:37:26Z</time>
      </trkpt>
      <trkpt lat="48.99468" lon="4.3078">
        <ele>78.3</ele>
        <time>2020-06-30T15:37:27Z</time>
      </trkpt>
      <trkpt lat="48.99471" lon="4.30772">
        <ele>78.2</ele>
        <time>2020-06-30T15:37:28Z</time>
      </trkpt>
      <trkpt lat="48.99474" lon="4.30765">
        <ele>78.2</ele>
        <time>2020-06-30T15:37:29Z</time>
      </trkpt>
      <trkpt lat="48.99477" lon="4.30758">
        <ele>78.1</ele>
        <time>2020-06-30T15:37:30Z</time>
      </trkpt>
      <trkpt lat="48.99481" lon="4.3075">
        <ele>78</ele>
        <time>2020-06-30T15:37:31Z</time>
      </trkpt>
      <trkpt lat="48.99485" lon="4.30741">
        <ele>78</ele>
        <time>2020-06-30T15:37:32Z</time>
      </trkpt>
      <trkpt lat="48.99488" lon="4.30732">
        <ele>77.9</ele>
        <time>2020-06-30T15:37:33Z</time>
      </trkpt>
      <trkpt lat="48.99491" lon="4.30724">
        <ele>77.9</ele>
        <time>2020-06-30T15:37:34Z</time>
      </trkpt>
      <trkpt lat="48.99495" lon="4.30717">
        <ele>77.8</ele>
        <time>2020-06-30T15:37:35Z</time>
      </trkpt>
      <trkpt lat="48.99499" lon="4.3071">
        <ele>77.8</ele>
        <time>2020-06-30T15:37:36Z</time>
      </trkpt>
      <trkpt lat="48.99503" lon="4.30702">
        <ele>77.8</ele>
        <time>2020-06-30T15:37:37Z</time>
      </trkpt>
      <trkpt lat="48.99507" lon="4.30694">
        <ele>77.8</ele>
        <time>2020-06-30T15:37:38Z</time>
      </trkpt>
      <trkpt lat="48.99511" lon="4.30688">
        <ele>77.8</ele>
        <time>2020-06-30T15:37:39Z</time>
      </trkpt>
      <trkpt lat="48.99515" lon="4.30681">
        <ele>77.8</ele>
        <time>2020-06-30T15:37:40Z</time>
      </trkpt>
      <trkpt lat="48.99519" lon="4.30674">
        <ele>77.7</ele>
        <time>2020-06-30T15:37:41Z</time>
      </trkpt>
      <trkpt lat="48.99523" lon="4.30669">
        <ele>77.7</ele>
        <time>2020-06-30T15:37:42Z</time>
      </trkpt>
      <trkpt lat="48.99527" lon="4.30662">
        <ele>77.7</ele>
        <time>2020-06-30T15:37:43Z</time>
      </trkpt>
      <trkpt lat="48.99531" lon="4.30655">
        <ele>77.8</ele>
        <time>2020-06-30T15:37:44Z</time>
      </trkpt>
      <trkpt lat="48.99536" lon="4.30648">
        <ele>77.8</ele>
        <time>2020-06-30T15:37:45Z</time>
      </trkpt>
      <trkpt lat="48.9954" lon="4.30641">
        <ele>77.9</ele>
        <time>2020-06-30T15:37:46Z</time>
      </trkpt>
      <trkpt lat="48.99544" lon="4.30633">
        <ele>77.9</ele>
        <time>2020-06-30T15:37:47Z</time>
      </trkpt>
      <trkpt lat="48.99547" lon="4.30626">
        <ele>78</ele>
        <time>2020-06-30T15:37:48Z</time>
      </trkpt>
      <trkpt lat="48.99551" lon="4.3062">
        <ele>78</ele>
        <time>2020-06-30T15:37:49Z</time>
      </trkpt>
      <trkpt lat="48.99554" lon="4.30614">
        <ele>78</ele>
        <time>2020-06-30T15:37:50Z</time>
      </trkpt>
      <trkpt lat="48.99558" lon="4.30608">
        <ele>78.1</ele>
        <time>2020-06-30T15:37:51Z</time>
      </trkpt>
      <trkpt lat="48.9956" lon="4.30603">
        <ele>78.1</ele>
        <time>2020-06-30T15:37:52Z</time>
      </trkpt>
      <trkpt lat="48.99565" lon="4.30597">
        <ele>78.2</ele>
        <time>2020-06-30T15:37:53Z</time>
      </trkpt>
      <trkpt lat="48.99568" lon="4.30591">
        <ele>78.2</ele>
        <time>2020-06-30T15:37:54Z</time>
      </trkpt>
      <trkpt lat="48.99573" lon="4.30584">
        <ele>78.3</ele>
        <time>2020-06-30T15:37:55Z</time>
      </trkpt>
      <trkpt lat="48.99576" lon="4.30577">
        <ele>78.3</ele>
        <time>2020-06-30T15:37:56Z</time>
      </trkpt>
      <trkpt lat="48.9958" lon="4.30571">
        <ele>78.3</ele>
        <time>2020-06-30T15:37:57Z</time>
      </trkpt>
      <trkpt lat="48.99585" lon="4.30564">
        <ele>78.4</ele>
        <time>2020-06-30T15:37:58Z</time>
      </trkpt>
      <trkpt lat="48.99589" lon="4.30556">
        <ele>78.4</ele>
        <time>2020-06-30T15:37:59Z</time>
      </trkpt>
      <trkpt lat="48.99593" lon="4.3055">
        <ele>78.5</ele>
        <time>2020-06-30T15:38:00Z</time>
      </trkpt>
      <trkpt lat="48.99597" lon="4.30543">
        <ele>78.5</ele>
        <time>2020-06-30T15:38:01Z</time>
      </trkpt>
      <trkpt lat="48.996" lon="4.30536">
        <ele>78.6</ele>
        <time>2020-06-30T15:38:02Z</time>
      </trkpt>
      <trkpt lat="48.99604" lon="4.30529">
        <ele>78.7</ele>
        <time>2020-06-30T15:38:03Z</time>
      </trkpt>
      <trkpt lat="48.99608" lon="4.30522">
        <ele>78.8</ele>
        <time>2020-06-30T15:38:04Z</time>
      </trkpt>
      <trkpt lat="48.99611" lon="4.30517">
        <ele>78.9</ele>
        <time>2020-06-30T15:38:05Z</time>
      </trkpt>
      <trkpt lat="48.99615" lon="4.3051">
        <ele>78.9</ele>
        <time>2020-06-30T15:38:06Z</time>
      </trkpt>
      <trkpt lat="48.99619" lon="4.30503">
        <ele>78.9</ele>
        <time>2020-06-30T15:38:07Z</time>
      </trkpt>
      <trkpt lat="48.99622" lon="4.30499">
        <ele>78.9</ele>
        <time>2020-06-30T15:38:08Z</time>
      </trkpt>
      <trkpt lat="48.99625" lon="4.30492">
        <ele>78.9</ele>
        <time>2020-06-30T15:38:09Z</time>
      </trkpt>
      <trkpt lat="48.99628" lon="4.30485">
        <ele>78.9</ele>
        <time>2020-06-30T15:38:10Z</time>
      </trkpt>
      <trkpt lat="48.99632" lon="4.30479">
        <ele>78.9</ele>
        <time>2020-06-30T15:38:11Z</time>
      </trkpt>
      <trkpt lat="48.99636" lon="4.30474">
        <ele>78.9</ele>
        <time>2020-06-30T15:38:12Z</time>
      </trkpt>
      <trkpt lat="48.9964" lon="4.30467">
        <ele>78.9</ele>
        <time>2020-06-30T15:38:13Z</time>
      </trkpt>
      <trkpt lat="48.99644" lon="4.30462">
        <ele>78.9</ele>
        <time>2020-06-30T15:38:14Z</time>
      </trkpt>
      <trkpt lat="48.99648" lon="4.30456">
        <ele>78.9</ele>
        <time>2020-06-30T15:38:15Z</time>
      </trkpt>
      <trkpt lat="48.99651" lon="4.30451">
        <ele>78.9</ele>
        <time>2020-06-30T15:38:16Z</time>
      </trkpt>
      <trkpt lat="48.99656" lon="4.30443">
        <ele>78.8</ele>
        <time>2020-06-30T15:38:17Z</time>
      </trkpt>
      <trkpt lat="48.99659" lon="4.30437">
        <ele>78.8</ele>
        <time>2020-06-30T15:38:18Z</time>
      </trkpt>
      <trkpt lat="48.99663" lon="4.30429">
        <ele>78.7</ele>
        <time>2020-06-30T15:38:19Z</time>
      </trkpt>
      <trkpt lat="48.99667" lon="4.30421">
        <ele>78.7</ele>
        <time>2020-06-30T15:38:20Z</time>
      </trkpt>
      <trkpt lat="48.99671" lon="4.30414">
        <ele>78.7</ele>
        <time>2020-06-30T15:38:21Z</time>
      </trkpt>
      <trkpt lat="48.99675" lon="4.30408">
        <ele>78.7</ele>
        <time>2020-06-30T15:38:22Z</time>
      </trkpt>
      <trkpt lat="48.99679" lon="4.30401">
        <ele>78.6</ele>
        <time>2020-06-30T15:38:23Z</time>
      </trkpt>
      <trkpt lat="48.99683" lon="4.30395">
        <ele>78.6</ele>
        <time>2020-06-30T15:38:24Z</time>
      </trkpt>
      <trkpt lat="48.99689" lon="4.30388">
        <ele>78.6</ele>
        <time>2020-06-30T15:38:25Z</time>
      </trkpt>
      <trkpt lat="48.99692" lon="4.30382">
        <ele>78.6</ele>
        <time>2020-06-30T15:38:26Z</time>
      </trkpt>
      <trkpt lat="48.99695" lon="4.30374">
        <ele>78.5</ele>
        <time>2020-06-30T15:38:27Z</time>
      </trkpt>
      <trkpt lat="48.99699" lon="4.30368">
        <ele>78.5</ele>
        <time>2020-06-30T15:38:28Z</time>
      </trkpt>
      <trkpt lat="48.99704" lon="4.3036">
        <ele>78.4</ele>
        <time>2020-06-30T15:38:29Z</time>
      </trkpt>
      <trkpt lat="48.99708" lon="4.30353">
        <ele>78.4</ele>
        <time>2020-06-30T15:38:30Z</time>
      </trkpt>
      <trkpt lat="48.99712" lon="4.30345">
        <ele>78.3</ele>
        <time>2020-06-30T15:38:31Z</time>
      </trkpt>
      <trkpt lat="48.99716" lon="4.30338">
        <ele>78.3</ele>
        <time>2020-06-30T15:38:32Z</time>
      </trkpt>
      <trkpt lat="48.9972" lon="4.30331">
        <ele>78.3</ele>
        <time>2020-06-30T15:38:33Z</time>
      </trkpt>
      <trkpt lat="48.99724" lon="4.30324">
        <ele>78.2</ele>
        <time>2020-06-30T15:38:34Z</time>
      </trkpt>
      <trkpt lat="48.99728" lon="4.30317">
        <ele>78.2</ele>
        <time>2020-06-30T15:38:35Z</time>
      </trkpt>
      <trkpt lat="48.99732" lon="4.30309">
        <ele>78.2</ele>
        <time>2020-06-30T15:38:36Z</time>
      </trkpt>
      <trkpt lat="48.99736" lon="4.30302">
        <ele>78.2</ele>
        <time>2020-06-30T15:38:37Z</time>
      </trkpt>
      <trkpt lat="48.9974" lon="4.30295">
        <ele>78.1</ele>
        <time>2020-06-30T15:38:38Z</time>
      </trkpt>
      <trkpt lat="48.99744" lon="4.30288">
        <ele>78.1</ele>
        <time>2020-06-30T15:38:39Z</time>
      </trkpt>
      <trkpt lat="48.99749" lon="4.3028">
        <ele>78.1</ele>
        <time>2020-06-30T15:38:40Z</time>
      </trkpt>
      <trkpt lat="48.99753" lon="4.30273">
        <ele>78.1</ele>
        <time>2020-06-30T15:38:41Z</time>
      </trkpt>
      <trkpt lat="48.99757" lon="4.30266">
        <ele>78.1</ele>
        <time>2020-06-30T15:38:42Z</time>
      </trkpt>
      <trkpt lat="48.99761" lon="4.30259">
        <ele>78</ele>
        <time>2020-06-30T15:38:43Z</time>
      </trkpt>
      <trkpt lat="48.99765" lon="4.30252">
        <ele>78</ele>
        <time>2020-06-30T15:38:44Z</time>
      </trkpt>
      <trkpt lat="48.99769" lon="4.30245">
        <ele>78</ele>
        <time>2020-06-30T15:38:45Z</time>
      </trkpt>
      <trkpt lat="48.99773" lon="4.30238">
        <ele>78</ele>
        <time>2020-06-30T15:38:46Z</time>
      </trkpt>
      <trkpt lat="48.99778" lon="4.3023">
        <ele>78</ele>
        <time>2020-06-30T15:38:47Z</time>
      </trkpt>
      <trkpt lat="48.99782" lon="4.30223">
        <ele>78</ele>
        <time>2020-06-30T15:38:48Z</time>
      </trkpt>
      <trkpt lat="48.99786" lon="4.30215">
        <ele>78</ele>
        <time>2020-06-30T15:38:49Z</time>
      </trkpt>
      <trkpt lat="48.9979" lon="4.30208">
        <ele>78</ele>
        <time>2020-06-30T15:38:50Z</time>
      </trkpt>
      <trkpt lat="48.99794" lon="4.30201">
        <ele>78</ele>
        <time>2020-06-30T15:38:51Z</time>
      </trkpt>
      <trkpt lat="48.99798" lon="4.30194">
        <ele>78</ele>
        <time>2020-06-30T15:38:52Z</time>
      </trkpt>
      <trkpt lat="48.99802" lon="4.30186">
        <ele>78</ele>
        <time>2020-06-30T15:38:53Z</time>
      </trkpt>
      <trkpt lat="48.99807" lon="4.30179">
        <ele>78</ele>
        <time>2020-06-30T15:38:54Z</time>
      </trkpt>
      <trkpt lat="48.99811" lon="4.30171">
        <ele>78</ele>
        <time>2020-06-30T15:38:55Z</time>
      </trkpt>
      <trkpt lat="48.99815" lon="4.30164">
        <ele>78</ele>
        <time>2020-06-30T15:38:56Z</time>
      </trkpt>
      <trkpt lat="48.99819" lon="4.30157">
        <ele>78</ele>
        <time>2020-06-30T15:38:57Z</time>
      </trkpt>
      <trkpt lat="48.99824" lon="4.3015">
        <ele>78</ele>
        <time>2020-06-30T15:38:58Z</time>
      </trkpt>
      <trkpt lat="48.99828" lon="4.30143">
        <ele>78.1</ele>
        <time>2020-06-30T15:38:59Z</time>
      </trkpt>
      <trkpt lat="48.99832" lon="4.30136">
        <ele>78</ele>
        <time>2020-06-30T15:39:00Z</time>
      </trkpt>
      <trkpt lat="48.99836" lon="4.30129">
        <ele>77.9</ele>
        <time>2020-06-30T15:39:01Z</time>
      </trkpt>
      <trkpt lat="48.9984" lon="4.30122">
        <ele>77.9</ele>
        <time>2020-06-30T15:39:02Z</time>
      </trkpt>
      <trkpt lat="48.99844" lon="4.30116">
        <ele>77.8</ele>
        <time>2020-06-30T15:39:03Z</time>
      </trkpt>
      <trkpt lat="48.99849" lon="4.30109">
        <ele>77.8</ele>
        <time>2020-06-30T15:39:04Z</time>
      </trkpt>
      <trkpt lat="48.99853" lon="4.30102">
        <ele>77.7</ele>
        <time>2020-06-30T15:39:05Z</time>
      </trkpt>
      <trkpt lat="48.99857" lon="4.30095">
        <ele>77.7</ele>
        <time>2020-06-30T15:39:06Z</time>
      </trkpt>
      <trkpt lat="48.99861" lon="4.30087">
        <ele>77.7</ele>
        <time>2020-06-30T15:39:07Z</time>
      </trkpt>
      <trkpt lat="48.99866" lon="4.3008">
        <ele>77.7</ele>
        <time>2020-06-30T15:39:08Z</time>
      </trkpt>
      <trkpt lat="48.9987" lon="4.30072">
        <ele>77.7</ele>
        <time>2020-06-30T15:39:09Z</time>
      </trkpt>
      <trkpt lat="48.99874" lon="4.30064">
        <ele>77.7</ele>
        <time>2020-06-30T15:39:10Z</time>
      </trkpt>
      <trkpt lat="48.99878" lon="4.30057">
        <ele>77.7</ele>
        <time>2020-06-30T15:39:11Z</time>
      </trkpt>
      <trkpt lat="48.99882" lon="4.3005">
        <ele>77.7</ele>
        <time>2020-06-30T15:39:12Z</time>
      </trkpt>
      <trkpt lat="48.99887" lon="4.30043">
        <ele>77.7</ele>
        <time>2020-06-30T15:39:13Z</time>
      </trkpt>
      <trkpt lat="48.99891" lon="4.30035">
        <ele>77.7</ele>
        <time>2020-06-30T15:39:14Z</time>
      </trkpt>
      <trkpt lat="48.99896" lon="4.30027">
        <ele>77.7</ele>
        <time>2020-06-30T15:39:15Z</time>
      </trkpt>
      <trkpt lat="48.999" lon="4.3002">
        <ele>77.6</ele>
        <time>2020-06-30T15:39:16Z</time>
      </trkpt>
      <trkpt lat="48.99905" lon="4.30013">
        <ele>77.6</ele>
        <time>2020-06-30T15:39:17Z</time>
      </trkpt>
      <trkpt lat="48.99909" lon="4.30006">
        <ele>77.6</ele>
        <time>2020-06-30T15:39:18Z</time>
      </trkpt>
      <trkpt lat="48.99913" lon="4.29998">
        <ele>77.6</ele>
        <time>2020-06-30T15:39:19Z</time>
      </trkpt>
      <trkpt lat="48.99918" lon="4.29991">
        <ele>77.6</ele>
        <time>2020-06-30T15:39:20Z</time>
      </trkpt>
      <trkpt lat="48.99923" lon="4.29982">
        <ele>77.6</ele>
        <time>2020-06-30T15:39:21Z</time>
      </trkpt>
      <trkpt lat="48.99927" lon="4.29975">
        <ele>77.6</ele>
        <time>2020-06-30T15:39:22Z</time>
      </trkpt>
      <trkpt lat="48.99931" lon="4.29967">
        <ele>77.6</ele>
        <time>2020-06-30T15:39:23Z</time>
      </trkpt>
      <trkpt lat="48.99936" lon="4.2996">
        <ele>77.7</ele>
        <time>2020-06-30T15:39:24Z</time>
      </trkpt>
      <trkpt lat="48.9994" lon="4.29952">
        <ele>77.7</ele>
        <time>2020-06-30T15:39:25Z</time>
      </trkpt>
      <trkpt lat="48.99945" lon="4.29945">
        <ele>77.8</ele>
        <time>2020-06-30T15:39:26Z</time>
      </trkpt>
      <trkpt lat="48.9995" lon="4.29938">
        <ele>77.8</ele>
        <time>2020-06-30T15:39:27Z</time>
      </trkpt>
      <trkpt lat="48.99954" lon="4.29931">
        <ele>77.9</ele>
        <time>2020-06-30T15:39:28Z</time>
      </trkpt>
      <trkpt lat="48.99959" lon="4.29924">
        <ele>77.9</ele>
        <time>2020-06-30T15:39:29Z</time>
      </trkpt>
      <trkpt lat="48.99963" lon="4.29917">
        <ele>77.9</ele>
        <time>2020-06-30T15:39:30Z</time>
      </trkpt>
      <trkpt lat="48.99967" lon="4.29909">
        <ele>77.9</ele>
        <time>2020-06-30T15:39:31Z</time>
      </trkpt>
      <trkpt lat="48.99972" lon="4.29902">
        <ele>77.8</ele>
        <time>2020-06-30T15:39:32Z</time>
      </trkpt>
      <trkpt lat="48.99976" lon="4.29894">
        <ele>77.8</ele>
        <time>2020-06-30T15:39:33Z</time>
      </trkpt>
      <trkpt lat="48.9998" lon="4.29887">
        <ele>77.8</ele>
        <time>2020-06-30T15:39:34Z</time>
      </trkpt>
      <trkpt lat="48.99985" lon="4.29879">
        <ele>77.8</ele>
        <time>2020-06-30T15:39:35Z</time>
      </trkpt>
      <trkpt lat="48.99989" lon="4.29872">
        <ele>77.8</ele>
        <time>2020-06-30T15:39:36Z</time>
      </trkpt>
      <trkpt lat="48.99993" lon="4.29864">
        <ele>77.8</ele>
        <time>2020-06-30T15:39:37Z</time>
      </trkpt>
      <trkpt lat="48.99998" lon="4.29857">
        <ele>77.8</ele>
        <time>2020-06-30T15:39:38Z</time>
      </trkpt>
      <trkpt lat="49.00002" lon="4.2985">
        <ele>77.9</ele>
        <time>2020-06-30T15:39:39Z</time>
      </trkpt>
      <trkpt lat="49.00007" lon="4.29842">
        <ele>77.9</ele>
        <time>2020-06-30T15:39:40Z</time>
      </trkpt>
      <trkpt lat="49.00011" lon="4.29835">
        <ele>78</ele>
        <time>2020-06-30T15:39:41Z</time>
      </trkpt>
      <trkpt lat="49.00015" lon="4.29827">
        <ele>78</ele>
        <time>2020-06-30T15:39:42Z</time>
      </trkpt>
      <trkpt lat="49.0002" lon="4.2982">
        <ele>78</ele>
        <time>2020-06-30T15:39:43Z</time>
      </trkpt>
      <trkpt lat="49.00024" lon="4.29813">
        <ele>78</ele>
        <time>2020-06-30T15:39:44Z</time>
      </trkpt>
      <trkpt lat="49.00028" lon="4.29806">
        <ele>78</ele>
        <time>2020-06-30T15:39:45Z</time>
      </trkpt>
      <trkpt lat="49.00032" lon="4.29799">
        <ele>78</ele>
        <time>2020-06-30T15:39:46Z</time>
      </trkpt>
      <trkpt lat="49.00036" lon="4.29792">
        <ele>78</ele>
        <time>2020-06-30T15:39:47Z</time>
      </trkpt>
      <trkpt lat="49.0004" lon="4.29786">
        <ele>78</ele>
        <time>2020-06-30T15:39:48Z</time>
      </trkpt>
      <trkpt lat="49.00044" lon="4.2978">
        <ele>78</ele>
        <time>2020-06-30T15:39:49Z</time>
      </trkpt>
      <trkpt lat="49.00048" lon="4.29774">
        <ele>78</ele>
        <time>2020-06-30T15:39:50Z</time>
      </trkpt>
      <trkpt lat="49.00051" lon="4.29767">
        <ele>78</ele>
        <time>2020-06-30T15:39:51Z</time>
      </trkpt>
      <trkpt lat="49.00055" lon="4.2976">
        <ele>78</ele>
        <time>2020-06-30T15:39:52Z</time>
      </trkpt>
      <trkpt lat="49.00058" lon="4.29752">
        <ele>78</ele>
        <time>2020-06-30T15:39:53Z</time>
      </trkpt>
      <trkpt lat="49.00062" lon="4.29745">
        <ele>78</ele>
        <time>2020-06-30T15:39:54Z</time>
      </trkpt>
      <trkpt lat="49.00066" lon="4.29738">
        <ele>78</ele>
        <time>2020-06-30T15:39:55Z</time>
      </trkpt>
      <trkpt lat="49.0007" lon="4.2973">
        <ele>78</ele>
        <time>2020-06-30T15:39:56Z</time>
      </trkpt>
      <trkpt lat="49.00074" lon="4.29724">
        <ele>78</ele>
        <time>2020-06-30T15:39:57Z</time>
      </trkpt>
      <trkpt lat="49.00079" lon="4.29718">
        <ele>78</ele>
        <time>2020-06-30T15:39:58Z</time>
      </trkpt>
      <trkpt lat="49.00083" lon="4.29711">
        <ele>78</ele>
        <time>2020-06-30T15:39:59Z</time>
      </trkpt>
      <trkpt lat="49.00087" lon="4.29705">
        <ele>78</ele>
        <time>2020-06-30T15:40:00Z</time>
      </trkpt>
      <trkpt lat="49.00091" lon="4.29698">
        <ele>78.1</ele>
        <time>2020-06-30T15:40:01Z</time>
      </trkpt>
      <trkpt lat="49.00094" lon="4.29691">
        <ele>78.1</ele>
        <time>2020-06-30T15:40:02Z</time>
      </trkpt>
      <trkpt lat="49.00098" lon="4.29683">
        <ele>78.2</ele>
        <time>2020-06-30T15:40:03Z</time>
      </trkpt>
      <trkpt lat="49.00102" lon="4.29676">
        <ele>78.3</ele>
        <time>2020-06-30T15:40:04Z</time>
      </trkpt>
      <trkpt lat="49.00106" lon="4.29669">
        <ele>78.5</ele>
        <time>2020-06-30T15:40:05Z</time>
      </trkpt>
      <trkpt lat="49.0011" lon="4.29662">
        <ele>78.6</ele>
        <time>2020-06-30T15:40:06Z</time>
      </trkpt>
      <trkpt lat="49.00114" lon="4.29656">
        <ele>78.6</ele>
        <time>2020-06-30T15:40:07Z</time>
      </trkpt>
      <trkpt lat="49.00119" lon="4.29649">
        <ele>78.6</ele>
        <time>2020-06-30T15:40:08Z</time>
      </trkpt>
      <trkpt lat="49.00123" lon="4.29641">
        <ele>78.6</ele>
        <time>2020-06-30T15:40:09Z</time>
      </trkpt>
      <trkpt lat="49.00127" lon="4.29633">
        <ele>78.6</ele>
        <time>2020-06-30T15:40:10Z</time>
      </trkpt>
      <trkpt lat="49.00131" lon="4.29626">
        <ele>78.6</ele>
        <time>2020-06-30T15:40:11Z</time>
      </trkpt>
      <trkpt lat="49.00136" lon="4.29619">
        <ele>78.6</ele>
        <time>2020-06-30T15:40:12Z</time>
      </trkpt>
      <trkpt lat="49.00141" lon="4.29612">
        <ele>78.6</ele>
        <time>2020-06-30T15:40:13Z</time>
      </trkpt>
      <trkpt lat="49.00145" lon="4.29605">
        <ele>78.5</ele>
        <time>2020-06-30T15:40:14Z</time>
      </trkpt>
      <trkpt lat="49.00149" lon="4.29597">
        <ele>78.4</ele>
        <time>2020-06-30T15:40:15Z</time>
      </trkpt>
      <trkpt lat="49.00154" lon="4.2959">
        <ele>78.4</ele>
        <time>2020-06-30T15:40:16Z</time>
      </trkpt>
      <trkpt lat="49.00158" lon="4.29583">
        <ele>78.4</ele>
        <time>2020-06-30T15:40:17Z</time>
      </trkpt>
      <trkpt lat="49.00162" lon="4.29575">
        <ele>78.4</ele>
        <time>2020-06-30T15:40:18Z</time>
      </trkpt>
      <trkpt lat="49.00166" lon="4.29567">
        <ele>78.5</ele>
        <time>2020-06-30T15:40:19Z</time>
      </trkpt>
      <trkpt lat="49.0017" lon="4.2956">
        <ele>78.5</ele>
        <time>2020-06-30T15:40:20Z</time>
      </trkpt>
      <trkpt lat="49.00175" lon="4.29553">
        <ele>78.5</ele>
        <time>2020-06-30T15:40:21Z</time>
      </trkpt>
      <trkpt lat="49.00179" lon="4.29545">
        <ele>78.5</ele>
        <time>2020-06-30T15:40:22Z</time>
      </trkpt>
      <trkpt lat="49.00183" lon="4.29538">
        <ele>78.5</ele>
        <time>2020-06-30T15:40:23Z</time>
      </trkpt>
      <trkpt lat="49.00187" lon="4.29531">
        <ele>78.5</ele>
        <time>2020-06-30T15:40:24Z</time>
      </trkpt>
      <trkpt lat="49.00192" lon="4.29524">
        <ele>78.6</ele>
        <time>2020-06-30T15:40:25Z</time>
      </trkpt>
      <trkpt lat="49.00196" lon="4.29517">
        <ele>78.6</ele>
        <time>2020-06-30T15:40:26Z</time>
      </trkpt>
      <trkpt lat="49.002" lon="4.29509">
        <ele>78.6</ele>
        <time>2020-06-30T15:40:27Z</time>
      </trkpt>
      <trkpt lat="49.00204" lon="4.29502">
        <ele>78.6</ele>
        <time>2020-06-30T15:40:28Z</time>
      </trkpt>
      <trkpt lat="49.00209" lon="4.29494">
        <ele>78.6</ele>
        <time>2020-06-30T15:40:29Z</time>
      </trkpt>
      <trkpt lat="49.00213" lon="4.29487">
        <ele>78.5</ele>
        <time>2020-06-30T15:40:30Z</time>
      </trkpt>
      <trkpt lat="49.00217" lon="4.29479">
        <ele>78.5</ele>
        <time>2020-06-30T15:40:31Z</time>
      </trkpt>
      <trkpt lat="49.00222" lon="4.29472">
        <ele>78.5</ele>
        <time>2020-06-30T15:40:32Z</time>
      </trkpt>
      <trkpt lat="49.00226" lon="4.29464">
        <ele>78.4</ele>
        <time>2020-06-30T15:40:33Z</time>
      </trkpt>
      <trkpt lat="49.0023" lon="4.29457">
        <ele>78.4</ele>
        <time>2020-06-30T15:40:34Z</time>
      </trkpt>
      <trkpt lat="49.00235" lon="4.29449">
        <ele>78.3</ele>
        <time>2020-06-30T15:40:35Z</time>
      </trkpt>
      <trkpt lat="49.0024" lon="4.29442">
        <ele>78.3</ele>
        <time>2020-06-30T15:40:36Z</time>
      </trkpt>
      <trkpt lat="49.00244" lon="4.29434">
        <ele>78.2</ele>
        <time>2020-06-30T15:40:37Z</time>
      </trkpt>
      <trkpt lat="49.00249" lon="4.29426">
        <ele>78.2</ele>
        <time>2020-06-30T15:40:38Z</time>
      </trkpt>
      <trkpt lat="49.00254" lon="4.29418">
        <ele>78.1</ele>
        <time>2020-06-30T15:40:39Z</time>
      </trkpt>
      <trkpt lat="49.00258" lon="4.2941">
        <ele>78.1</ele>
        <time>2020-06-30T15:40:40Z</time>
      </trkpt>
      <trkpt lat="49.00263" lon="4.29402">
        <ele>78</ele>
        <time>2020-06-30T15:40:41Z</time>
      </trkpt>
      <trkpt lat="49.00268" lon="4.29394">
        <ele>78</ele>
        <time>2020-06-30T15:40:42Z</time>
      </trkpt>
      <trkpt lat="49.00273" lon="4.29386">
        <ele>78</ele>
        <time>2020-06-30T15:40:43Z</time>
      </trkpt>
      <trkpt lat="49.00278" lon="4.29378">
        <ele>77.9</ele>
        <time>2020-06-30T15:40:44Z</time>
      </trkpt>
      <trkpt lat="49.00283" lon="4.2937">
        <ele>77.9</ele>
        <time>2020-06-30T15:40:45Z</time>
      </trkpt>
      <trkpt lat="49.00287" lon="4.29361">
        <ele>77.8</ele>
        <time>2020-06-30T15:40:46Z</time>
      </trkpt>
      <trkpt lat="49.00292" lon="4.29353">
        <ele>77.8</ele>
        <time>2020-06-30T15:40:47Z</time>
      </trkpt>
      <trkpt lat="49.00297" lon="4.29345">
        <ele>77.8</ele>
        <time>2020-06-30T15:40:48Z</time>
      </trkpt>
      <trkpt lat="49.00302" lon="4.29336">
        <ele>77.7</ele>
        <time>2020-06-30T15:40:49Z</time>
      </trkpt>
      <trkpt lat="49.00307" lon="4.29328">
        <ele>77.7</ele>
        <time>2020-06-30T15:40:50Z</time>
      </trkpt>
      <trkpt lat="49.00312" lon="4.29319">
        <ele>77.6</ele>
        <time>2020-06-30T15:40:51Z</time>
      </trkpt>
      <trkpt lat="49.00317" lon="4.29311">
        <ele>77.6</ele>
        <time>2020-06-30T15:40:52Z</time>
      </trkpt>
      <trkpt lat="49.00321" lon="4.29303">
        <ele>77.5</ele>
        <time>2020-06-30T15:40:53Z</time>
      </trkpt>
      <trkpt lat="49.00326" lon="4.29294">
        <ele>77.5</ele>
        <time>2020-06-30T15:40:54Z</time>
      </trkpt>
      <trkpt lat="49.00331" lon="4.29286">
        <ele>77.5</ele>
        <time>2020-06-30T15:40:55Z</time>
      </trkpt>
      <trkpt lat="49.00336" lon="4.29278">
        <ele>77.5</ele>
        <time>2020-06-30T15:40:56Z</time>
      </trkpt>
      <trkpt lat="49.00341" lon="4.2927">
        <ele>77.5</ele>
        <time>2020-06-30T15:40:57Z</time>
      </trkpt>
      <trkpt lat="49.00346" lon="4.29261">
        <ele>77.5</ele>
        <time>2020-06-30T15:40:58Z</time>
      </trkpt>
      <trkpt lat="49.00351" lon="4.29253">
        <ele>77.4</ele>
        <time>2020-06-30T15:40:59Z</time>
      </trkpt>
      <trkpt lat="49.00355" lon="4.29244">
        <ele>77.4</ele>
        <time>2020-06-30T15:41:00Z</time>
      </trkpt>
      <trkpt lat="49.0036" lon="4.29236">
        <ele>77.4</ele>
        <time>2020-06-30T15:41:01Z</time>
      </trkpt>
      <trkpt lat="49.00365" lon="4.29227">
        <ele>77.4</ele>
        <time>2020-06-30T15:41:02Z</time>
      </trkpt>
      <trkpt lat="49.0037" lon="4.2922">
        <ele>77.5</ele>
        <time>2020-06-30T15:41:03Z</time>
      </trkpt>
      <trkpt lat="49.00374" lon="4.29212">
        <ele>77.5</ele>
        <time>2020-06-30T15:41:04Z</time>
      </trkpt>
      <trkpt lat="49.00379" lon="4.29203">
        <ele>77.5</ele>
        <time>2020-06-30T15:41:05Z</time>
      </trkpt>
      <trkpt lat="49.00383" lon="4.29195">
        <ele>77.5</ele>
        <time>2020-06-30T15:41:06Z</time>
      </trkpt>
      <trkpt lat="49.00388" lon="4.29188">
        <ele>77.5</ele>
        <time>2020-06-30T15:41:07Z</time>
      </trkpt>
      <trkpt lat="49.00392" lon="4.2918">
        <ele>77.6</ele>
        <time>2020-06-30T15:41:08Z</time>
      </trkpt>
      <trkpt lat="49.00397" lon="4.29172">
        <ele>77.6</ele>
        <time>2020-06-30T15:41:09Z</time>
      </trkpt>
      <trkpt lat="49.00402" lon="4.29165">
        <ele>77.6</ele>
        <time>2020-06-30T15:41:10Z</time>
      </trkpt>
      <trkpt lat="49.00406" lon="4.29158">
        <ele>77.5</ele>
        <time>2020-06-30T15:41:11Z</time>
      </trkpt>
      <trkpt lat="49.00411" lon="4.29151">
        <ele>77.5</ele>
        <time>2020-06-30T15:41:12Z</time>
      </trkpt>
      <trkpt lat="49.00415" lon="4.29143">
        <ele>77.5</ele>
        <time>2020-06-30T15:41:13Z</time>
      </trkpt>
      <trkpt lat="49.0042" lon="4.29136">
        <ele>77.5</ele>
        <time>2020-06-30T15:41:14Z</time>
      </trkpt>
      <trkpt lat="49.00424" lon="4.29128">
        <ele>77.5</ele>
        <time>2020-06-30T15:41:15Z</time>
      </trkpt>
      <trkpt lat="49.00429" lon="4.2912">
        <ele>77.5</ele>
        <time>2020-06-30T15:41:16Z</time>
      </trkpt>
      <trkpt lat="49.00433" lon="4.29113">
        <ele>77.5</ele>
        <time>2020-06-30T15:41:17Z</time>
      </trkpt>
      <trkpt lat="49.00438" lon="4.29105">
        <ele>77.5</ele>
        <time>2020-06-30T15:41:18Z</time>
      </trkpt>
      <trkpt lat="49.00442" lon="4.29098">
        <ele>77.5</ele>
        <time>2020-06-30T15:41:19Z</time>
      </trkpt>
      <trkpt lat="49.00446" lon="4.2909">
        <ele>77.5</ele>
        <time>2020-06-30T15:41:20Z</time>
      </trkpt>
      <trkpt lat="49.0045" lon="4.29083">
        <ele>77.6</ele>
        <time>2020-06-30T15:41:21Z</time>
      </trkpt>
      <trkpt lat="49.00455" lon="4.29075">
        <ele>77.6</ele>
        <time>2020-06-30T15:41:22Z</time>
      </trkpt>
      <trkpt lat="49.00459" lon="4.29068">
        <ele>77.6</ele>
        <time>2020-06-30T15:41:23Z</time>
      </trkpt>
      <trkpt lat="49.00463" lon="4.29061">
        <ele>77.6</ele>
        <time>2020-06-30T15:41:24Z</time>
      </trkpt>
      <trkpt lat="49.00467" lon="4.29053">
        <ele>77.6</ele>
        <time>2020-06-30T15:41:25Z</time>
      </trkpt>
      <trkpt lat="49.00472" lon="4.29046">
        <ele>77.6</ele>
        <time>2020-06-30T15:41:26Z</time>
      </trkpt>
      <trkpt lat="49.00476" lon="4.29039">
        <ele>77.5</ele>
        <time>2020-06-30T15:41:27Z</time>
      </trkpt>
      <trkpt lat="49.0048" lon="4.29032">
        <ele>77.5</ele>
        <time>2020-06-30T15:41:28Z</time>
      </trkpt>
      <trkpt lat="49.00485" lon="4.29025">
        <ele>77.5</ele>
        <time>2020-06-30T15:41:29Z</time>
      </trkpt>
      <trkpt lat="49.00489" lon="4.29017">
        <ele>77.5</ele>
        <time>2020-06-30T15:41:30Z</time>
      </trkpt>
      <trkpt lat="49.00493" lon="4.2901">
        <ele>77.5</ele>
        <time>2020-06-30T15:41:31Z</time>
      </trkpt>
      <trkpt lat="49.00498" lon="4.29002">
        <ele>77.5</ele>
        <time>2020-06-30T15:41:32Z</time>
      </trkpt>
      <trkpt lat="49.00502" lon="4.28995">
        <ele>77.5</ele>
        <time>2020-06-30T15:41:33Z</time>
      </trkpt>
      <trkpt lat="49.00507" lon="4.28987">
        <ele>77.5</ele>
        <time>2020-06-30T15:41:34Z</time>
      </trkpt>
      <trkpt lat="49.00511" lon="4.28979">
        <ele>77.5</ele>
        <time>2020-06-30T15:41:35Z</time>
      </trkpt>
      <trkpt lat="49.00515" lon="4.28972">
        <ele>77.5</ele>
        <time>2020-06-30T15:41:36Z</time>
      </trkpt>
      <trkpt lat="49.00519" lon="4.28964">
        <ele>77.5</ele>
        <time>2020-06-30T15:41:37Z</time>
      </trkpt>
      <trkpt lat="49.00524" lon="4.28956">
        <ele>77.5</ele>
        <time>2020-06-30T15:41:38Z</time>
      </trkpt>
      <trkpt lat="49.00528" lon="4.28948">
        <ele>77.6</ele>
        <time>2020-06-30T15:41:39Z</time>
      </trkpt>
      <trkpt lat="49.00531" lon="4.2894">
        <ele>77.6</ele>
        <time>2020-06-30T15:41:40Z</time>
      </trkpt>
      <trkpt lat="49.00536" lon="4.28933">
        <ele>77.6</ele>
        <time>2020-06-30T15:41:41Z</time>
      </trkpt>
      <trkpt lat="49.0054" lon="4.28926">
        <ele>77.6</ele>
        <time>2020-06-30T15:41:42Z</time>
      </trkpt>
      <trkpt lat="49.00545" lon="4.28919">
        <ele>77.6</ele>
        <time>2020-06-30T15:41:43Z</time>
      </trkpt>
      <trkpt lat="49.0055" lon="4.28911">
        <ele>77.6</ele>
        <time>2020-06-30T15:41:44Z</time>
      </trkpt>
      <trkpt lat="49.00554" lon="4.28904">
        <ele>77.6</ele>
        <time>2020-06-30T15:41:45Z</time>
      </trkpt>
      <trkpt lat="49.00559" lon="4.28897">
        <ele>77.6</ele>
        <time>2020-06-30T15:41:46Z</time>
      </trkpt>
      <trkpt lat="49.00563" lon="4.28889">
        <ele>77.6</ele>
        <time>2020-06-30T15:41:47Z</time>
      </trkpt>
      <trkpt lat="49.00567" lon="4.28881">
        <ele>77.6</ele>
        <time>2020-06-30T15:41:48Z</time>
      </trkpt>
      <trkpt lat="49.00572" lon="4.28874">
        <ele>77.7</ele>
        <time>2020-06-30T15:41:49Z</time>
      </trkpt>
      <trkpt lat="49.00576" lon="4.28866">
        <ele>77.7</ele>
        <time>2020-06-30T15:41:50Z</time>
      </trkpt>
      <trkpt lat="49.00581" lon="4.28858">
        <ele>77.7</ele>
        <time>2020-06-30T15:41:51Z</time>
      </trkpt>
      <trkpt lat="49.00585" lon="4.28851">
        <ele>77.8</ele>
        <time>2020-06-30T15:41:52Z</time>
      </trkpt>
      <trkpt lat="49.00589" lon="4.28843">
        <ele>77.8</ele>
        <time>2020-06-30T15:41:53Z</time>
      </trkpt>
      <trkpt lat="49.00594" lon="4.28836">
        <ele>77.8</ele>
        <time>2020-06-30T15:41:54Z</time>
      </trkpt>
      <trkpt lat="49.00598" lon="4.28828">
        <ele>77.8</ele>
        <time>2020-06-30T15:41:55Z</time>
      </trkpt>
      <trkpt lat="49.00602" lon="4.28821">
        <ele>77.8</ele>
        <time>2020-06-30T15:41:56Z</time>
      </trkpt>
      <trkpt lat="49.00607" lon="4.28813">
        <ele>77.8</ele>
        <time>2020-06-30T15:41:57Z</time>
      </trkpt>
      <trkpt lat="49.00611" lon="4.28806">
        <ele>77.8</ele>
        <time>2020-06-30T15:41:58Z</time>
      </trkpt>
      <trkpt lat="49.00615" lon="4.28797">
        <ele>77.8</ele>
        <time>2020-06-30T15:41:59Z</time>
      </trkpt>
      <trkpt lat="49.0062" lon="4.2879">
        <ele>77.9</ele>
        <time>2020-06-30T15:42:00Z</time>
      </trkpt>
      <trkpt lat="49.00624" lon="4.28783">
        <ele>77.9</ele>
        <time>2020-06-30T15:42:01Z</time>
      </trkpt>
      <trkpt lat="49.00629" lon="4.28775">
        <ele>77.9</ele>
        <time>2020-06-30T15:42:02Z</time>
      </trkpt>
      <trkpt lat="49.00633" lon="4.28768">
        <ele>77.9</ele>
        <time>2020-06-30T15:42:03Z</time>
      </trkpt>
      <trkpt lat="49.00638" lon="4.2876">
        <ele>77.9</ele>
        <time>2020-06-30T15:42:04Z</time>
      </trkpt>
      <trkpt lat="49.00642" lon="4.28753">
        <ele>78</ele>
        <time>2020-06-30T15:42:05Z</time>
      </trkpt>
      <trkpt lat="49.00646" lon="4.28745">
        <ele>78</ele>
        <time>2020-06-30T15:42:06Z</time>
      </trkpt>
      <trkpt lat="49.0065" lon="4.28738">
        <ele>78</ele>
        <time>2020-06-30T15:42:07Z</time>
      </trkpt>
      <trkpt lat="49.00654" lon="4.2873">
        <ele>78</ele>
        <time>2020-06-30T15:42:08Z</time>
      </trkpt>
      <trkpt lat="49.00659" lon="4.28723">
        <ele>78</ele>
        <time>2020-06-30T15:42:09Z</time>
      </trkpt>
      <trkpt lat="49.00663" lon="4.28716">
        <ele>78</ele>
        <time>2020-06-30T15:42:10Z</time>
      </trkpt>
      <trkpt lat="49.00668" lon="4.28709">
        <ele>78</ele>
        <time>2020-06-30T15:42:11Z</time>
      </trkpt>
      <trkpt lat="49.00672" lon="4.28702">
        <ele>78</ele>
        <time>2020-06-30T15:42:12Z</time>
      </trkpt>
      <trkpt lat="49.00676" lon="4.28695">
        <ele>78</ele>
        <time>2020-06-30T15:42:13Z</time>
      </trkpt>
      <trkpt lat="49.00681" lon="4.28687">
        <ele>78</ele>
        <time>2020-06-30T15:42:14Z</time>
      </trkpt>
      <trkpt lat="49.00685" lon="4.2868">
        <ele>78</ele>
        <time>2020-06-30T15:42:15Z</time>
      </trkpt>
      <trkpt lat="49.00689" lon="4.28673">
        <ele>78.1</ele>
        <time>2020-06-30T15:42:16Z</time>
      </trkpt>
      <trkpt lat="49.00694" lon="4.28665">
        <ele>78.2</ele>
        <time>2020-06-30T15:42:17Z</time>
      </trkpt>
      <trkpt lat="49.00698" lon="4.28658">
        <ele>78.3</ele>
        <time>2020-06-30T15:42:18Z</time>
      </trkpt>
      <trkpt lat="49.00702" lon="4.2865">
        <ele>78.3</ele>
        <time>2020-06-30T15:42:19Z</time>
      </trkpt>
      <trkpt lat="49.00707" lon="4.28643">
        <ele>78.4</ele>
        <time>2020-06-30T15:42:20Z</time>
      </trkpt>
      <trkpt lat="49.00711" lon="4.28635">
        <ele>78.3</ele>
        <time>2020-06-30T15:42:21Z</time>
      </trkpt>
      <trkpt lat="49.00716" lon="4.28628">
        <ele>78.3</ele>
        <time>2020-06-30T15:42:22Z</time>
      </trkpt>
      <trkpt lat="49.0072" lon="4.28621">
        <ele>78.3</ele>
        <time>2020-06-30T15:42:23Z</time>
      </trkpt>
      <trkpt lat="49.00724" lon="4.28613">
        <ele>78.3</ele>
        <time>2020-06-30T15:42:24Z</time>
      </trkpt>
      <trkpt lat="49.00729" lon="4.28606">
        <ele>78.3</ele>
        <time>2020-06-30T15:42:25Z</time>
      </trkpt>
      <trkpt lat="49.00733" lon="4.28599">
        <ele>78.3</ele>
        <time>2020-06-30T15:42:26Z</time>
      </trkpt>
      <trkpt lat="49.00737" lon="4.28592">
        <ele>78.3</ele>
        <time>2020-06-30T15:42:27Z</time>
      </trkpt>
      <trkpt lat="49.00742" lon="4.28584">
        <ele>78.3</ele>
        <time>2020-06-30T15:42:28Z</time>
      </trkpt>
      <trkpt lat="49.00746" lon="4.28577">
        <ele>78.3</ele>
        <time>2020-06-30T15:42:29Z</time>
      </trkpt>
      <trkpt lat="49.0075" lon="4.28569">
        <ele>78.3</ele>
        <time>2020-06-30T15:42:30Z</time>
      </trkpt>
      <trkpt lat="49.00755" lon="4.28562">
        <ele>78.3</ele>
        <time>2020-06-30T15:42:31Z</time>
      </trkpt>
      <trkpt lat="49.00759" lon="4.28554">
        <ele>78.3</ele>
        <time>2020-06-30T15:42:32Z</time>
      </trkpt>
      <trkpt lat="49.00763" lon="4.28547">
        <ele>78.2</ele>
        <time>2020-06-30T15:42:33Z</time>
      </trkpt>
      <trkpt lat="49.00767" lon="4.28539">
        <ele>78.2</ele>
        <time>2020-06-30T15:42:34Z</time>
      </trkpt>
      <trkpt lat="49.00772" lon="4.28532">
        <ele>78.1</ele>
        <time>2020-06-30T15:42:35Z</time>
      </trkpt>
      <trkpt lat="49.00776" lon="4.28524">
        <ele>78.1</ele>
        <time>2020-06-30T15:42:36Z</time>
      </trkpt>
      <trkpt lat="49.0078" lon="4.28516">
        <ele>78.1</ele>
        <time>2020-06-30T15:42:37Z</time>
      </trkpt>
      <trkpt lat="49.00785" lon="4.28509">
        <ele>78.1</ele>
        <time>2020-06-30T15:42:38Z</time>
      </trkpt>
      <trkpt lat="49.00789" lon="4.28502">
        <ele>78.1</ele>
        <time>2020-06-30T15:42:39Z</time>
      </trkpt>
      <trkpt lat="49.00794" lon="4.28495">
        <ele>78</ele>
        <time>2020-06-30T15:42:40Z</time>
      </trkpt>
      <trkpt lat="49.00798" lon="4.28487">
        <ele>78</ele>
        <time>2020-06-30T15:42:41Z</time>
      </trkpt>
      <trkpt lat="49.00802" lon="4.2848">
        <ele>78</ele>
        <time>2020-06-30T15:42:42Z</time>
      </trkpt>
      <trkpt lat="49.00807" lon="4.28472">
        <ele>78</ele>
        <time>2020-06-30T15:42:43Z</time>
      </trkpt>
      <trkpt lat="49.00811" lon="4.28465">
        <ele>78</ele>
        <time>2020-06-30T15:42:44Z</time>
      </trkpt>
      <trkpt lat="49.00815" lon="4.28457">
        <ele>78</ele>
        <time>2020-06-30T15:42:45Z</time>
      </trkpt>
      <trkpt lat="49.0082" lon="4.2845">
        <ele>77.9</ele>
        <time>2020-06-30T15:42:46Z</time>
      </trkpt>
      <trkpt lat="49.00824" lon="4.28442">
        <ele>77.9</ele>
        <time>2020-06-30T15:42:47Z</time>
      </trkpt>
      <trkpt lat="49.00829" lon="4.28434">
        <ele>77.9</ele>
        <time>2020-06-30T15:42:48Z</time>
      </trkpt>
      <trkpt lat="49.00834" lon="4.28426">
        <ele>77.8</ele>
        <time>2020-06-30T15:42:49Z</time>
      </trkpt>
      <trkpt lat="49.00838" lon="4.28419">
        <ele>77.8</ele>
        <time>2020-06-30T15:42:50Z</time>
      </trkpt>
      <trkpt lat="49.00843" lon="4.28411">
        <ele>77.7</ele>
        <time>2020-06-30T15:42:51Z</time>
      </trkpt>
      <trkpt lat="49.00847" lon="4.28403">
        <ele>77.7</ele>
        <time>2020-06-30T15:42:52Z</time>
      </trkpt>
      <trkpt lat="49.00852" lon="4.28395">
        <ele>77.7</ele>
        <time>2020-06-30T15:42:53Z</time>
      </trkpt>
      <trkpt lat="49.00857" lon="4.28387">
        <ele>77.6</ele>
        <time>2020-06-30T15:42:54Z</time>
      </trkpt>
      <trkpt lat="49.00861" lon="4.28379">
        <ele>77.6</ele>
        <time>2020-06-30T15:42:55Z</time>
      </trkpt>
      <trkpt lat="49.00866" lon="4.28371">
        <ele>77.6</ele>
        <time>2020-06-30T15:42:56Z</time>
      </trkpt>
      <trkpt lat="49.00871" lon="4.28363">
        <ele>77.5</ele>
        <time>2020-06-30T15:42:57Z</time>
      </trkpt>
      <trkpt lat="49.00875" lon="4.28355">
        <ele>77.5</ele>
        <time>2020-06-30T15:42:58Z</time>
      </trkpt>
      <trkpt lat="49.0088" lon="4.28347">
        <ele>77.5</ele>
        <time>2020-06-30T15:42:59Z</time>
      </trkpt>
      <trkpt lat="49.00884" lon="4.28338">
        <ele>77.5</ele>
        <time>2020-06-30T15:43:00Z</time>
      </trkpt>
      <trkpt lat="49.00889" lon="4.2833">
        <ele>77.5</ele>
        <time>2020-06-30T15:43:01Z</time>
      </trkpt>
      <trkpt lat="49.00894" lon="4.28322">
        <ele>77.4</ele>
        <time>2020-06-30T15:43:02Z</time>
      </trkpt>
      <trkpt lat="49.00899" lon="4.28314">
        <ele>77.4</ele>
        <time>2020-06-30T15:43:03Z</time>
      </trkpt>
      <trkpt lat="49.00904" lon="4.28307">
        <ele>77.4</ele>
        <time>2020-06-30T15:43:04Z</time>
      </trkpt>
      <trkpt lat="49.00908" lon="4.28298">
        <ele>77.4</ele>
        <time>2020-06-30T15:43:05Z</time>
      </trkpt>
      <trkpt lat="49.00913" lon="4.2829">
        <ele>77.4</ele>
        <time>2020-06-30T15:43:06Z</time>
      </trkpt>
      <trkpt lat="49.00918" lon="4.28282">
        <ele>77.5</ele>
        <time>2020-06-30T15:43:07Z</time>
      </trkpt>
      <trkpt lat="49.00923" lon="4.28274">
        <ele>77.5</ele>
        <time>2020-06-30T15:43:08Z</time>
      </trkpt>
      <trkpt lat="49.00928" lon="4.28265">
        <ele>77.6</ele>
        <time>2020-06-30T15:43:09Z</time>
      </trkpt>
      <trkpt lat="49.00933" lon="4.28257">
        <ele>77.6</ele>
        <time>2020-06-30T15:43:10Z</time>
      </trkpt>
      <trkpt lat="49.00937" lon="4.28249">
        <ele>77.5</ele>
        <time>2020-06-30T15:43:11Z</time>
      </trkpt>
      <trkpt lat="49.00942" lon="4.28241">
        <ele>77.4</ele>
        <time>2020-06-30T15:43:12Z</time>
      </trkpt>
      <trkpt lat="49.00947" lon="4.28232">
        <ele>77.4</ele>
        <time>2020-06-30T15:43:13Z</time>
      </trkpt>
      <trkpt lat="49.00951" lon="4.28224">
        <ele>77.4</ele>
        <time>2020-06-30T15:43:14Z</time>
      </trkpt>
      <trkpt lat="49.00956" lon="4.28216">
        <ele>77.4</ele>
        <time>2020-06-30T15:43:15Z</time>
      </trkpt>
      <trkpt lat="49.0096" lon="4.28207">
        <ele>77.4</ele>
        <time>2020-06-30T15:43:16Z</time>
      </trkpt>
      <trkpt lat="49.00965" lon="4.282">
        <ele>77.5</ele>
        <time>2020-06-30T15:43:17Z</time>
      </trkpt>
      <trkpt lat="49.0097" lon="4.28191">
        <ele>77.5</ele>
        <time>2020-06-30T15:43:18Z</time>
      </trkpt>
      <trkpt lat="49.00975" lon="4.28184">
        <ele>77.6</ele>
        <time>2020-06-30T15:43:19Z</time>
      </trkpt>
      <trkpt lat="49.00979" lon="4.28176">
        <ele>77.6</ele>
        <time>2020-06-30T15:43:20Z</time>
      </trkpt>
      <trkpt lat="49.00983" lon="4.28168">
        <ele>77.6</ele>
        <time>2020-06-30T15:43:21Z</time>
      </trkpt>
      <trkpt lat="49.00988" lon="4.2816">
        <ele>77.6</ele>
        <time>2020-06-30T15:43:22Z</time>
      </trkpt>
      <trkpt lat="49.00992" lon="4.28151">
        <ele>77.6</ele>
        <time>2020-06-30T15:43:23Z</time>
      </trkpt>
      <trkpt lat="49.00996" lon="4.28143">
        <ele>77.6</ele>
        <time>2020-06-30T15:43:24Z</time>
      </trkpt>
      <trkpt lat="49.01002" lon="4.28136">
        <ele>77.6</ele>
        <time>2020-06-30T15:43:25Z</time>
      </trkpt>
      <trkpt lat="49.01006" lon="4.28127">
        <ele>77.6</ele>
        <time>2020-06-30T15:43:26Z</time>
      </trkpt>
      <trkpt lat="49.01011" lon="4.2812">
        <ele>77.6</ele>
        <time>2020-06-30T15:43:27Z</time>
      </trkpt>
      <trkpt lat="49.01015" lon="4.28112">
        <ele>77.5</ele>
        <time>2020-06-30T15:43:28Z</time>
      </trkpt>
      <trkpt lat="49.01019" lon="4.28104">
        <ele>77.5</ele>
        <time>2020-06-30T15:43:29Z</time>
      </trkpt>
      <trkpt lat="49.01024" lon="4.28096">
        <ele>77.5</ele>
        <time>2020-06-30T15:43:30Z</time>
      </trkpt>
      <trkpt lat="49.0103" lon="4.28088">
        <ele>77.5</ele>
        <time>2020-06-30T15:43:31Z</time>
      </trkpt>
      <trkpt lat="49.01034" lon="4.28079">
        <ele>77.5</ele>
        <time>2020-06-30T15:43:32Z</time>
      </trkpt>
      <trkpt lat="49.01039" lon="4.28071">
        <ele>77.5</ele>
        <time>2020-06-30T15:43:33Z</time>
      </trkpt>
      <trkpt lat="49.01044" lon="4.28062">
        <ele>77.5</ele>
        <time>2020-06-30T15:43:34Z</time>
      </trkpt>
      <trkpt lat="49.01048" lon="4.28054">
        <ele>77.5</ele>
        <time>2020-06-30T15:43:35Z</time>
      </trkpt>
      <trkpt lat="49.01053" lon="4.28046">
        <ele>77.5</ele>
        <time>2020-06-30T15:43:36Z</time>
      </trkpt>
      <trkpt lat="49.01058" lon="4.28037">
        <ele>77.5</ele>
        <time>2020-06-30T15:43:37Z</time>
      </trkpt>
      <trkpt lat="49.01063" lon="4.28029">
        <ele>77.5</ele>
        <time>2020-06-30T15:43:38Z</time>
      </trkpt>
      <trkpt lat="49.01068" lon="4.2802">
        <ele>77.5</ele>
        <time>2020-06-30T15:43:39Z</time>
      </trkpt>
      <trkpt lat="49.01073" lon="4.28012">
        <ele>77.6</ele>
        <time>2020-06-30T15:43:40Z</time>
      </trkpt>
      <trkpt lat="49.01078" lon="4.28004">
        <ele>77.7</ele>
        <time>2020-06-30T15:43:41Z</time>
      </trkpt>
      <trkpt lat="49.01083" lon="4.27996">
        <ele>77.7</ele>
        <time>2020-06-30T15:43:42Z</time>
      </trkpt>
      <trkpt lat="49.01087" lon="4.27987">
        <ele>77.7</ele>
        <time>2020-06-30T15:43:43Z</time>
      </trkpt>
      <trkpt lat="49.01092" lon="4.2798">
        <ele>77.7</ele>
        <time>2020-06-30T15:43:44Z</time>
      </trkpt>
      <trkpt lat="49.01097" lon="4.27972">
        <ele>77.7</ele>
        <time>2020-06-30T15:43:45Z</time>
      </trkpt>
      <trkpt lat="49.01102" lon="4.27965">
        <ele>77.7</ele>
        <time>2020-06-30T15:43:46Z</time>
      </trkpt>
      <trkpt lat="49.01106" lon="4.27957">
        <ele>77.7</ele>
        <time>2020-06-30T15:43:47Z</time>
      </trkpt>
      <trkpt lat="49.01111" lon="4.27949">
        <ele>77.8</ele>
        <time>2020-06-30T15:43:48Z</time>
      </trkpt>
      <trkpt lat="49.01116" lon="4.27942">
        <ele>77.8</ele>
        <time>2020-06-30T15:43:49Z</time>
      </trkpt>
      <trkpt lat="49.01121" lon="4.27935">
        <ele>77.8</ele>
        <time>2020-06-30T15:43:50Z</time>
      </trkpt>
      <trkpt lat="49.01125" lon="4.27927">
        <ele>77.8</ele>
        <time>2020-06-30T15:43:51Z</time>
      </trkpt>
      <trkpt lat="49.0113" lon="4.27919">
        <ele>77.8</ele>
        <time>2020-06-30T15:43:52Z</time>
      </trkpt>
      <trkpt lat="49.01134" lon="4.27911">
        <ele>77.8</ele>
        <time>2020-06-30T15:43:53Z</time>
      </trkpt>
      <trkpt lat="49.01138" lon="4.27903">
        <ele>77.8</ele>
        <time>2020-06-30T15:43:54Z</time>
      </trkpt>
      <trkpt lat="49.01143" lon="4.27895">
        <ele>77.8</ele>
        <time>2020-06-30T15:43:55Z</time>
      </trkpt>
      <trkpt lat="49.01147" lon="4.27888">
        <ele>77.9</ele>
        <time>2020-06-30T15:43:56Z</time>
      </trkpt>
      <trkpt lat="49.01152" lon="4.27881">
        <ele>77.9</ele>
        <time>2020-06-30T15:43:57Z</time>
      </trkpt>
      <trkpt lat="49.01156" lon="4.27873">
        <ele>77.9</ele>
        <time>2020-06-30T15:43:58Z</time>
      </trkpt>
      <trkpt lat="49.01161" lon="4.27865">
        <ele>77.9</ele>
        <time>2020-06-30T15:43:59Z</time>
      </trkpt>
      <trkpt lat="49.01165" lon="4.27857">
        <ele>77.9</ele>
        <time>2020-06-30T15:44:00Z</time>
      </trkpt>
      <trkpt lat="49.01169" lon="4.2785">
        <ele>77.9</ele>
        <time>2020-06-30T15:44:01Z</time>
      </trkpt>
      <trkpt lat="49.01174" lon="4.27842">
        <ele>77.9</ele>
        <time>2020-06-30T15:44:02Z</time>
      </trkpt>
      <trkpt lat="49.01178" lon="4.27834">
        <ele>77.9</ele>
        <time>2020-06-30T15:44:03Z</time>
      </trkpt>
      <trkpt lat="49.01182" lon="4.27826">
        <ele>77.9</ele>
        <time>2020-06-30T15:44:04Z</time>
      </trkpt>
      <trkpt lat="49.01186" lon="4.27819">
        <ele>78</ele>
        <time>2020-06-30T15:44:05Z</time>
      </trkpt>
      <trkpt lat="49.01191" lon="4.27811">
        <ele>78</ele>
        <time>2020-06-30T15:44:06Z</time>
      </trkpt>
      <trkpt lat="49.01195" lon="4.27804">
        <ele>78</ele>
        <time>2020-06-30T15:44:07Z</time>
      </trkpt>
      <trkpt lat="49.012" lon="4.27797">
        <ele>78</ele>
        <time>2020-06-30T15:44:08Z</time>
      </trkpt>
      <trkpt lat="49.01204" lon="4.2779">
        <ele>78</ele>
        <time>2020-06-30T15:44:09Z</time>
      </trkpt>
      <trkpt lat="49.01209" lon="4.27783">
        <ele>78.1</ele>
        <time>2020-06-30T15:44:10Z</time>
      </trkpt>
      <trkpt lat="49.01213" lon="4.27776">
        <ele>78.1</ele>
        <time>2020-06-30T15:44:11Z</time>
      </trkpt>
      <trkpt lat="49.01217" lon="4.27768">
        <ele>78.1</ele>
        <time>2020-06-30T15:44:12Z</time>
      </trkpt>
      <trkpt lat="49.01221" lon="4.27761">
        <ele>78.1</ele>
        <time>2020-06-30T15:44:13Z</time>
      </trkpt>
      <trkpt lat="49.01225" lon="4.27754">
        <ele>78.1</ele>
        <time>2020-06-30T15:44:14Z</time>
      </trkpt>
      <trkpt lat="49.01229" lon="4.27747">
        <ele>78.1</ele>
        <time>2020-06-30T15:44:15Z</time>
      </trkpt>
      <trkpt lat="49.01234" lon="4.27741">
        <ele>78.1</ele>
        <time>2020-06-30T15:44:16Z</time>
      </trkpt>
      <trkpt lat="49.01238" lon="4.27734">
        <ele>78.1</ele>
        <time>2020-06-30T15:44:17Z</time>
      </trkpt>
      <trkpt lat="49.01242" lon="4.27726">
        <ele>78.1</ele>
        <time>2020-06-30T15:44:18Z</time>
      </trkpt>
      <trkpt lat="49.01246" lon="4.27719">
        <ele>78.1</ele>
        <time>2020-06-30T15:44:19Z</time>
      </trkpt>
      <trkpt lat="49.0125" lon="4.27712">
        <ele>78.1</ele>
        <time>2020-06-30T15:44:20Z</time>
      </trkpt>
      <trkpt lat="49.01254" lon="4.27705">
        <ele>78.1</ele>
        <time>2020-06-30T15:44:21Z</time>
      </trkpt>
      <trkpt lat="49.01258" lon="4.27698">
        <ele>78</ele>
        <time>2020-06-30T15:44:22Z</time>
      </trkpt>
      <trkpt lat="49.01263" lon="4.2769">
        <ele>78</ele>
        <time>2020-06-30T15:44:23Z</time>
      </trkpt>
      <trkpt lat="49.01267" lon="4.27683">
        <ele>78</ele>
        <time>2020-06-30T15:44:24Z</time>
      </trkpt>
      <trkpt lat="49.01272" lon="4.27676">
        <ele>77.9</ele>
        <time>2020-06-30T15:44:25Z</time>
      </trkpt>
      <trkpt lat="49.01276" lon="4.27668">
        <ele>77.9</ele>
        <time>2020-06-30T15:44:26Z</time>
      </trkpt>
      <trkpt lat="49.0128" lon="4.27661">
        <ele>77.8</ele>
        <time>2020-06-30T15:44:27Z</time>
      </trkpt>
      <trkpt lat="49.01284" lon="4.27653">
        <ele>77.8</ele>
        <time>2020-06-30T15:44:28Z</time>
      </trkpt>
      <trkpt lat="49.01288" lon="4.27646">
        <ele>77.8</ele>
        <time>2020-06-30T15:44:29Z</time>
      </trkpt>
      <trkpt lat="49.01293" lon="4.27638">
        <ele>77.8</ele>
        <time>2020-06-30T15:44:30Z</time>
      </trkpt>
      <trkpt lat="49.01297" lon="4.27631">
        <ele>77.8</ele>
        <time>2020-06-30T15:44:31Z</time>
      </trkpt>
      <trkpt lat="49.01302" lon="4.27624">
        <ele>77.8</ele>
        <time>2020-06-30T15:44:32Z</time>
      </trkpt>
      <trkpt lat="49.01306" lon="4.27617">
        <ele>77.7</ele>
        <time>2020-06-30T15:44:33Z</time>
      </trkpt>
      <trkpt lat="49.0131" lon="4.27609">
        <ele>77.7</ele>
        <time>2020-06-30T15:44:34Z</time>
      </trkpt>
      <trkpt lat="49.01315" lon="4.27601">
        <ele>77.7</ele>
        <time>2020-06-30T15:44:35Z</time>
      </trkpt>
      <trkpt lat="49.01319" lon="4.27593">
        <ele>77.7</ele>
        <time>2020-06-30T15:44:36Z</time>
      </trkpt>
      <trkpt lat="49.01324" lon="4.27586">
        <ele>77.6</ele>
        <time>2020-06-30T15:44:37Z</time>
      </trkpt>
      <trkpt lat="49.01328" lon="4.27578">
        <ele>77.6</ele>
        <time>2020-06-30T15:44:38Z</time>
      </trkpt>
      <trkpt lat="49.01332" lon="4.2757">
        <ele>77.6</ele>
        <time>2020-06-30T15:44:39Z</time>
      </trkpt>
      <trkpt lat="49.01337" lon="4.27563">
        <ele>77.6</ele>
        <time>2020-06-30T15:44:40Z</time>
      </trkpt>
      <trkpt lat="49.01341" lon="4.27555">
        <ele>77.6</ele>
        <time>2020-06-30T15:44:41Z</time>
      </trkpt>
      <trkpt lat="49.01346" lon="4.27548">
        <ele>77.6</ele>
        <time>2020-06-30T15:44:42Z</time>
      </trkpt>
      <trkpt lat="49.0135" lon="4.27541">
        <ele>77.6</ele>
        <time>2020-06-30T15:44:43Z</time>
      </trkpt>
      <trkpt lat="49.01354" lon="4.27533">
        <ele>77.7</ele>
        <time>2020-06-30T15:44:44Z</time>
      </trkpt>
      <trkpt lat="49.01359" lon="4.27525">
        <ele>77.8</ele>
        <time>2020-06-30T15:44:45Z</time>
      </trkpt>
      <trkpt lat="49.01363" lon="4.27518">
        <ele>77.8</ele>
        <time>2020-06-30T15:44:46Z</time>
      </trkpt>
      <trkpt lat="49.01367" lon="4.2751">
        <ele>77.7</ele>
        <time>2020-06-30T15:44:47Z</time>
      </trkpt>
      <trkpt lat="49.01372" lon="4.27503">
        <ele>77.7</ele>
        <time>2020-06-30T15:44:48Z</time>
      </trkpt>
      <trkpt lat="49.01376" lon="4.27495">
        <ele>77.7</ele>
        <time>2020-06-30T15:44:49Z</time>
      </trkpt>
      <trkpt lat="49.01381" lon="4.27488">
        <ele>77.7</ele>
        <time>2020-06-30T15:44:50Z</time>
      </trkpt>
      <trkpt lat="49.01385" lon="4.2748">
        <ele>77.7</ele>
        <time>2020-06-30T15:44:51Z</time>
      </trkpt>
      <trkpt lat="49.01389" lon="4.27473">
        <ele>77.6</ele>
        <time>2020-06-30T15:44:52Z</time>
      </trkpt>
      <trkpt lat="49.01394" lon="4.27465">
        <ele>77.4</ele>
        <time>2020-06-30T15:44:53Z</time>
      </trkpt>
      <trkpt lat="49.01398" lon="4.27458">
        <ele>77.3</ele>
        <time>2020-06-30T15:44:54Z</time>
      </trkpt>
      <trkpt lat="49.01402" lon="4.2745">
        <ele>77.3</ele>
        <time>2020-06-30T15:44:55Z</time>
      </trkpt>
      <trkpt lat="49.01406" lon="4.27442">
        <ele>77.2</ele>
        <time>2020-06-30T15:44:56Z</time>
      </trkpt>
      <trkpt lat="49.01411" lon="4.27435">
        <ele>77.2</ele>
        <time>2020-06-30T15:44:57Z</time>
      </trkpt>
      <trkpt lat="49.01415" lon="4.27428">
        <ele>77.1</ele>
        <time>2020-06-30T15:44:58Z</time>
      </trkpt>
      <trkpt lat="49.01419" lon="4.27421">
        <ele>77.1</ele>
        <time>2020-06-30T15:44:59Z</time>
      </trkpt>
      <trkpt lat="49.01424" lon="4.27414">
        <ele>77.1</ele>
        <time>2020-06-30T15:45:00Z</time>
      </trkpt>
      <trkpt lat="49.01428" lon="4.27407">
        <ele>77</ele>
        <time>2020-06-30T15:45:01Z</time>
      </trkpt>
      <trkpt lat="49.01432" lon="4.274">
        <ele>77</ele>
        <time>2020-06-30T15:45:02Z</time>
      </trkpt>
      <trkpt lat="49.01436" lon="4.27395">
        <ele>77</ele>
        <time>2020-06-30T15:45:03Z</time>
      </trkpt>
      <trkpt lat="49.0144" lon="4.27389">
        <ele>77</ele>
        <time>2020-06-30T15:45:04Z</time>
      </trkpt>
      <trkpt lat="49.01444" lon="4.27383">
        <ele>77</ele>
        <time>2020-06-30T15:45:05Z</time>
      </trkpt>
      <trkpt lat="49.01448" lon="4.27377">
        <ele>76.9</ele>
        <time>2020-06-30T15:45:06Z</time>
      </trkpt>
      <trkpt lat="49.01451" lon="4.2737">
        <ele>76.9</ele>
        <time>2020-06-30T15:45:07Z</time>
      </trkpt>
      <trkpt lat="49.01454" lon="4.27363">
        <ele>76.9</ele>
        <time>2020-06-30T15:45:08Z</time>
      </trkpt>
      <trkpt lat="49.01458" lon="4.27357">
        <ele>76.9</ele>
        <time>2020-06-30T15:45:09Z</time>
      </trkpt>
      <trkpt lat="49.01462" lon="4.27352">
        <ele>76.9</ele>
        <time>2020-06-30T15:45:10Z</time>
      </trkpt>
      <trkpt lat="49.01465" lon="4.27345">
        <ele>76.9</ele>
        <time>2020-06-30T15:45:11Z</time>
      </trkpt>
      <trkpt lat="49.01469" lon="4.27339">
        <ele>76.9</ele>
        <time>2020-06-30T15:45:12Z</time>
      </trkpt>
      <trkpt lat="49.01472" lon="4.27333">
        <ele>76.9</ele>
        <time>2020-06-30T15:45:13Z</time>
      </trkpt>
      <trkpt lat="49.01476" lon="4.27327">
        <ele>77</ele>
        <time>2020-06-30T15:45:14Z</time>
      </trkpt>
      <trkpt lat="49.0148" lon="4.2732">
        <ele>77.1</ele>
        <time>2020-06-30T15:45:15Z</time>
      </trkpt>
      <trkpt lat="49.01484" lon="4.27313">
        <ele>77.2</ele>
        <time>2020-06-30T15:45:16Z</time>
      </trkpt>
      <trkpt lat="49.01487" lon="4.27306">
        <ele>77.4</ele>
        <time>2020-06-30T15:45:17Z</time>
      </trkpt>
      <trkpt lat="49.01491" lon="4.27299">
        <ele>77.3</ele>
        <time>2020-06-30T15:45:18Z</time>
      </trkpt>
      <trkpt lat="49.01494" lon="4.27291">
        <ele>77.2</ele>
        <time>2020-06-30T15:45:19Z</time>
      </trkpt>
      <trkpt lat="49.01498" lon="4.27284">
        <ele>77.2</ele>
        <time>2020-06-30T15:45:20Z</time>
      </trkpt>
      <trkpt lat="49.01502" lon="4.27276">
        <ele>77.2</ele>
        <time>2020-06-30T15:45:21Z</time>
      </trkpt>
      <trkpt lat="49.01506" lon="4.27269">
        <ele>77.2</ele>
        <time>2020-06-30T15:45:22Z</time>
      </trkpt>
      <trkpt lat="49.0151" lon="4.27262">
        <ele>77.2</ele>
        <time>2020-06-30T15:45:23Z</time>
      </trkpt>
      <trkpt lat="49.01515" lon="4.27256">
        <ele>77.2</ele>
        <time>2020-06-30T15:45:24Z</time>
      </trkpt>
      <trkpt lat="49.01518" lon="4.27248">
        <ele>77.2</ele>
        <time>2020-06-30T15:45:25Z</time>
      </trkpt>
      <trkpt lat="49.01523" lon="4.27241">
        <ele>77.1</ele>
        <time>2020-06-30T15:45:26Z</time>
      </trkpt>
      <trkpt lat="49.01527" lon="4.27234">
        <ele>77.1</ele>
        <time>2020-06-30T15:45:27Z</time>
      </trkpt>
      <trkpt lat="49.01531" lon="4.27227">
        <ele>77.1</ele>
        <time>2020-06-30T15:45:28Z</time>
      </trkpt>
      <trkpt lat="49.01534" lon="4.27219">
        <ele>77.1</ele>
        <time>2020-06-30T15:45:29Z</time>
      </trkpt>
      <trkpt lat="49.01539" lon="4.27212">
        <ele>77.1</ele>
        <time>2020-06-30T15:45:30Z</time>
      </trkpt>
      <trkpt lat="49.01542" lon="4.27205">
        <ele>77.1</ele>
        <time>2020-06-30T15:45:31Z</time>
      </trkpt>
      <trkpt lat="49.01545" lon="4.27197">
        <ele>77.2</ele>
        <time>2020-06-30T15:45:32Z</time>
      </trkpt>
      <trkpt lat="49.01549" lon="4.27189">
        <ele>77.3</ele>
        <time>2020-06-30T15:45:33Z</time>
      </trkpt>
      <trkpt lat="49.01553" lon="4.27182">
        <ele>77.1</ele>
        <time>2020-06-30T15:45:34Z</time>
      </trkpt>
      <trkpt lat="49.01558" lon="4.27174">
        <ele>77</ele>
        <time>2020-06-30T15:45:35Z</time>
      </trkpt>
      <trkpt lat="49.01562" lon="4.27168">
        <ele>76.9</ele>
        <time>2020-06-30T15:45:36Z</time>
      </trkpt>
      <trkpt lat="49.01566" lon="4.2716">
        <ele>76.8</ele>
        <time>2020-06-30T15:45:37Z</time>
      </trkpt>
      <trkpt lat="49.0157" lon="4.27153">
        <ele>76.8</ele>
        <time>2020-06-30T15:45:38Z</time>
      </trkpt>
      <trkpt lat="49.01575" lon="4.27146">
        <ele>76.7</ele>
        <time>2020-06-30T15:45:39Z</time>
      </trkpt>
      <trkpt lat="49.01579" lon="4.2714">
        <ele>76.7</ele>
        <time>2020-06-30T15:45:40Z</time>
      </trkpt>
      <trkpt lat="49.01583" lon="4.27133">
        <ele>76.7</ele>
        <time>2020-06-30T15:45:41Z</time>
      </trkpt>
      <trkpt lat="49.01587" lon="4.27127">
        <ele>76.6</ele>
        <time>2020-06-30T15:45:42Z</time>
      </trkpt>
      <trkpt lat="49.01591" lon="4.27121">
        <ele>76.6</ele>
        <time>2020-06-30T15:45:43Z</time>
      </trkpt>
      <trkpt lat="49.01595" lon="4.27114">
        <ele>76.6</ele>
        <time>2020-06-30T15:45:44Z</time>
      </trkpt>
      <trkpt lat="49.016" lon="4.27109">
        <ele>76.6</ele>
        <time>2020-06-30T15:45:45Z</time>
      </trkpt>
      <trkpt lat="49.01604" lon="4.27103">
        <ele>76.6</ele>
        <time>2020-06-30T15:45:46Z</time>
      </trkpt>
      <trkpt lat="49.01609" lon="4.27098">
        <ele>76.6</ele>
        <time>2020-06-30T15:45:47Z</time>
      </trkpt>
      <trkpt lat="49.01612" lon="4.27091">
        <ele>76.6</ele>
        <time>2020-06-30T15:45:48Z</time>
      </trkpt>
      <trkpt lat="49.01616" lon="4.27085">
        <ele>76.6</ele>
        <time>2020-06-30T15:45:49Z</time>
      </trkpt>
      <trkpt lat="49.0162" lon="4.2708">
        <ele>76.7</ele>
        <time>2020-06-30T15:45:50Z</time>
      </trkpt>
      <trkpt lat="49.01623" lon="4.27073">
        <ele>76.8</ele>
        <time>2020-06-30T15:45:51Z</time>
      </trkpt>
      <trkpt lat="49.01627" lon="4.27067">
        <ele>76.9</ele>
        <time>2020-06-30T15:45:52Z</time>
      </trkpt>
      <trkpt lat="49.0163" lon="4.27062">
        <ele>76.9</ele>
        <time>2020-06-30T15:45:53Z</time>
      </trkpt>
      <trkpt lat="49.01634" lon="4.27056">
        <ele>76.9</ele>
        <time>2020-06-30T15:45:54Z</time>
      </trkpt>
      <trkpt lat="49.01636" lon="4.2705">
        <ele>76.9</ele>
        <time>2020-06-30T15:45:55Z</time>
      </trkpt>
      <trkpt lat="49.01639" lon="4.27045">
        <ele>77</ele>
        <time>2020-06-30T15:45:56Z</time>
      </trkpt>
      <trkpt lat="49.01642" lon="4.2704">
        <ele>77</ele>
        <time>2020-06-30T15:45:57Z</time>
      </trkpt>
      <trkpt lat="49.01646" lon="4.27036">
        <ele>77</ele>
        <time>2020-06-30T15:45:58Z</time>
      </trkpt>
      <trkpt lat="49.0165" lon="4.27031">
        <ele>77.1</ele>
        <time>2020-06-30T15:45:59Z</time>
      </trkpt>
      <trkpt lat="49.01654" lon="4.27029">
        <ele>77.1</ele>
        <time>2020-06-30T15:46:00Z</time>
      </trkpt>
      <trkpt lat="49.01659" lon="4.27026">
        <ele>77.2</ele>
        <time>2020-06-30T15:46:01Z</time>
      </trkpt>
      <trkpt lat="49.01663" lon="4.27022">
        <ele>77.2</ele>
        <time>2020-06-30T15:46:02Z</time>
      </trkpt>
      <trkpt lat="49.01667" lon="4.27018">
        <ele>77.2</ele>
        <time>2020-06-30T15:46:03Z</time>
      </trkpt>
      <trkpt lat="49.01671" lon="4.27014">
        <ele>77.2</ele>
        <time>2020-06-30T15:46:04Z</time>
      </trkpt>
      <trkpt lat="49.01675" lon="4.27009">
        <ele>77.1</ele>
        <time>2020-06-30T15:46:05Z</time>
      </trkpt>
      <trkpt lat="49.01678" lon="4.27003">
        <ele>77.1</ele>
        <time>2020-06-30T15:46:06Z</time>
      </trkpt>
      <trkpt lat="49.01678" lon="4.26996">
        <ele>77.1</ele>
        <time>2020-06-30T15:46:07Z</time>
      </trkpt>
      <trkpt lat="49.01679" lon="4.26989">
        <ele>77.1</ele>
        <time>2020-06-30T15:46:08Z</time>
      </trkpt>
      <trkpt lat="49.01681" lon="4.26982">
        <ele>77</ele>
        <time>2020-06-30T15:46:09Z</time>
      </trkpt>
      <trkpt lat="49.01683" lon="4.26975">
        <ele>77</ele>
        <time>2020-06-30T15:46:10Z</time>
      </trkpt>
      <trkpt lat="49.01685" lon="4.26968">
        <ele>77</ele>
        <time>2020-06-30T15:46:11Z</time>
      </trkpt>
      <trkpt lat="49.01689" lon="4.26963">
        <ele>77</ele>
        <time>2020-06-30T15:46:12Z</time>
      </trkpt>
      <trkpt lat="49.01691" lon="4.26955">
        <ele>77</ele>
        <time>2020-06-30T15:46:13Z</time>
      </trkpt>
      <trkpt lat="49.01695" lon="4.26949">
        <ele>77</ele>
        <time>2020-06-30T15:46:14Z</time>
      </trkpt>
      <trkpt lat="49.01697" lon="4.26942">
        <ele>76.9</ele>
        <time>2020-06-30T15:46:15Z</time>
      </trkpt>
      <trkpt lat="49.017" lon="4.26936">
        <ele>77</ele>
        <time>2020-06-30T15:46:16Z</time>
      </trkpt>
      <trkpt lat="49.01703" lon="4.2693">
        <ele>77.1</ele>
        <time>2020-06-30T15:46:17Z</time>
      </trkpt>
      <trkpt lat="49.01708" lon="4.26925">
        <ele>77.2</ele>
        <time>2020-06-30T15:46:18Z</time>
      </trkpt>
      <trkpt lat="49.01712" lon="4.26919">
        <ele>77.3</ele>
        <time>2020-06-30T15:46:19Z</time>
      </trkpt>
      <trkpt lat="49.01716" lon="4.26913">
        <ele>77.4</ele>
        <time>2020-06-30T15:46:20Z</time>
      </trkpt>
      <trkpt lat="49.01719" lon="4.26905">
        <ele>77.5</ele>
        <time>2020-06-30T15:46:21Z</time>
      </trkpt>
      <trkpt lat="49.01723" lon="4.26899">
        <ele>77.6</ele>
        <time>2020-06-30T15:46:22Z</time>
      </trkpt>
      <trkpt lat="49.01727" lon="4.26892">
        <ele>77.5</ele>
        <time>2020-06-30T15:46:23Z</time>
      </trkpt>
      <trkpt lat="49.0173" lon="4.26885">
        <ele>77.4</ele>
        <time>2020-06-30T15:46:24Z</time>
      </trkpt>
      <trkpt lat="49.01734" lon="4.26878">
        <ele>77.4</ele>
        <time>2020-06-30T15:46:25Z</time>
      </trkpt>
      <trkpt lat="49.01738" lon="4.26871">
        <ele>77.3</ele>
        <time>2020-06-30T15:46:26Z</time>
      </trkpt>
      <trkpt lat="49.01741" lon="4.26863">
        <ele>77.2</ele>
        <time>2020-06-30T15:46:27Z</time>
      </trkpt>
      <trkpt lat="49.01745" lon="4.26855">
        <ele>77.1</ele>
        <time>2020-06-30T15:46:28Z</time>
      </trkpt>
      <trkpt lat="49.01749" lon="4.26848">
        <ele>77.1</ele>
        <time>2020-06-30T15:46:29Z</time>
      </trkpt>
      <trkpt lat="49.01754" lon="4.26841">
        <ele>77</ele>
        <time>2020-06-30T15:46:30Z</time>
      </trkpt>
      <trkpt lat="49.01757" lon="4.26834">
        <ele>76.9</ele>
        <time>2020-06-30T15:46:31Z</time>
      </trkpt>
      <trkpt lat="49.0176" lon="4.26826">
        <ele>76.9</ele>
        <time>2020-06-30T15:46:32Z</time>
      </trkpt>
      <trkpt lat="49.01763" lon="4.26817">
        <ele>76.8</ele>
        <time>2020-06-30T15:46:33Z</time>
      </trkpt>
      <trkpt lat="49.01766" lon="4.26809">
        <ele>76.8</ele>
        <time>2020-06-30T15:46:34Z</time>
      </trkpt>
      <trkpt lat="49.01767" lon="4.268">
        <ele>76.8</ele>
        <time>2020-06-30T15:46:35Z</time>
      </trkpt>
      <trkpt lat="49.01769" lon="4.26791">
        <ele>76.7</ele>
        <time>2020-06-30T15:46:36Z</time>
      </trkpt>
      <trkpt lat="49.0177" lon="4.26781">
        <ele>76.7</ele>
        <time>2020-06-30T15:46:37Z</time>
      </trkpt>
      <trkpt lat="49.01771" lon="4.26772">
        <ele>76.6</ele>
        <time>2020-06-30T15:46:38Z</time>
      </trkpt>
      <trkpt lat="49.01771" lon="4.26762">
        <ele>76.5</ele>
        <time>2020-06-30T15:46:39Z</time>
      </trkpt>
      <trkpt lat="49.01772" lon="4.26753">
        <ele>76.5</ele>
        <time>2020-06-30T15:46:40Z</time>
      </trkpt>
      <trkpt lat="49.01774" lon="4.26744">
        <ele>76.4</ele>
        <time>2020-06-30T15:46:41Z</time>
      </trkpt>
      <trkpt lat="49.01775" lon="4.26735">
        <ele>76.4</ele>
        <time>2020-06-30T15:46:42Z</time>
      </trkpt>
      <trkpt lat="49.01776" lon="4.26727">
        <ele>76.4</ele>
        <time>2020-06-30T15:46:43Z</time>
      </trkpt>
      <trkpt lat="49.01777" lon="4.26718">
        <ele>76.3</ele>
        <time>2020-06-30T15:46:44Z</time>
      </trkpt>
      <trkpt lat="49.01778" lon="4.2671">
        <ele>76.3</ele>
        <time>2020-06-30T15:46:45Z</time>
      </trkpt>
      <trkpt lat="49.01778" lon="4.26702">
        <ele>76.3</ele>
        <time>2020-06-30T15:46:46Z</time>
      </trkpt>
      <trkpt lat="49.01778" lon="4.26695">
        <ele>76.3</ele>
        <time>2020-06-30T15:46:47Z</time>
      </trkpt>
      <trkpt lat="49.01779" lon="4.26688">
        <ele>76.3</ele>
        <time>2020-06-30T15:46:48Z</time>
      </trkpt>
      <trkpt lat="49.01779" lon="4.2668">
        <ele>76.4</ele>
        <time>2020-06-30T15:46:49Z</time>
      </trkpt>
      <trkpt lat="49.01779" lon="4.26673">
        <ele>76.4</ele>
        <time>2020-06-30T15:46:50Z</time>
      </trkpt>
      <trkpt lat="49.0178" lon="4.26666">
        <ele>76.4</ele>
        <time>2020-06-30T15:46:51Z</time>
      </trkpt>
      <trkpt lat="49.0178" lon="4.26659">
        <ele>76.4</ele>
        <time>2020-06-30T15:46:52Z</time>
      </trkpt>
      <trkpt lat="49.01781" lon="4.26653">
        <ele>76.5</ele>
        <time>2020-06-30T15:46:53Z</time>
      </trkpt>
      <trkpt lat="49.01781" lon="4.26647">
        <ele>76.5</ele>
        <time>2020-06-30T15:46:54Z</time>
      </trkpt>
      <trkpt lat="49.01782" lon="4.2664">
        <ele>76.4</ele>
        <time>2020-06-30T15:46:55Z</time>
      </trkpt>
      <trkpt lat="49.01783" lon="4.26634">
        <ele>76.4</ele>
        <time>2020-06-30T15:46:56Z</time>
      </trkpt>
      <trkpt lat="49.01784" lon="4.26627">
        <ele>76.4</ele>
        <time>2020-06-30T15:46:57Z</time>
      </trkpt>
      <trkpt lat="49.01785" lon="4.26619">
        <ele>76.3</ele>
        <time>2020-06-30T15:46:58Z</time>
      </trkpt>
      <trkpt lat="49.01785" lon="4.26612">
        <ele>76.3</ele>
        <time>2020-06-30T15:46:59Z</time>
      </trkpt>
      <trkpt lat="49.01786" lon="4.26605">
        <ele>76.3</ele>
        <time>2020-06-30T15:47:00Z</time>
      </trkpt>
      <trkpt lat="49.01786" lon="4.26597">
        <ele>76.3</ele>
        <time>2020-06-30T15:47:01Z</time>
      </trkpt>
      <trkpt lat="49.01787" lon="4.2659">
        <ele>76.3</ele>
        <time>2020-06-30T15:47:02Z</time>
      </trkpt>
      <trkpt lat="49.01789" lon="4.26583">
        <ele>76.3</ele>
        <time>2020-06-30T15:47:03Z</time>
      </trkpt>
      <trkpt lat="49.01792" lon="4.26577">
        <ele>76.3</ele>
        <time>2020-06-30T15:47:04Z</time>
      </trkpt>
      <trkpt lat="49.01794" lon="4.2657">
        <ele>76.3</ele>
        <time>2020-06-30T15:47:05Z</time>
      </trkpt>
      <trkpt lat="49.01796" lon="4.26563">
        <ele>76.3</ele>
        <time>2020-06-30T15:47:06Z</time>
      </trkpt>
      <trkpt lat="49.01797" lon="4.26555">
        <ele>76.3</ele>
        <time>2020-06-30T15:47:07Z</time>
      </trkpt>
      <trkpt lat="49.01798" lon="4.26546">
        <ele>76.3</ele>
        <time>2020-06-30T15:47:08Z</time>
      </trkpt>
      <trkpt lat="49.018" lon="4.26537">
        <ele>76.3</ele>
        <time>2020-06-30T15:47:09Z</time>
      </trkpt>
      <trkpt lat="49.01801" lon="4.26528">
        <ele>76.3</ele>
        <time>2020-06-30T15:47:10Z</time>
      </trkpt>
      <trkpt lat="49.01802" lon="4.26519">
        <ele>76.3</ele>
        <time>2020-06-30T15:47:11Z</time>
      </trkpt>
      <trkpt lat="49.01804" lon="4.26512">
        <ele>76.4</ele>
        <time>2020-06-30T15:47:12Z</time>
      </trkpt>
      <trkpt lat="49.01807" lon="4.26504">
        <ele>76.5</ele>
        <time>2020-06-30T15:47:13Z</time>
      </trkpt>
      <trkpt lat="49.0181" lon="4.26496">
        <ele>76.5</ele>
        <time>2020-06-30T15:47:14Z</time>
      </trkpt>
      <trkpt lat="49.01812" lon="4.26489">
        <ele>76.6</ele>
        <time>2020-06-30T15:47:15Z</time>
      </trkpt>
      <trkpt lat="49.01814" lon="4.2648">
        <ele>76.6</ele>
        <time>2020-06-30T15:47:16Z</time>
      </trkpt>
      <trkpt lat="49.01817" lon="4.26473">
        <ele>76.6</ele>
        <time>2020-06-30T15:47:17Z</time>
      </trkpt>
      <trkpt lat="49.01819" lon="4.26465">
        <ele>76.7</ele>
        <time>2020-06-30T15:47:18Z</time>
      </trkpt>
      <trkpt lat="49.01822" lon="4.26457">
        <ele>76.7</ele>
        <time>2020-06-30T15:47:19Z</time>
      </trkpt>
      <trkpt lat="49.01824" lon="4.26449">
        <ele>76.7</ele>
        <time>2020-06-30T15:47:20Z</time>
      </trkpt>
      <trkpt lat="49.01826" lon="4.26441">
        <ele>76.8</ele>
        <time>2020-06-30T15:47:21Z</time>
      </trkpt>
      <trkpt lat="49.01829" lon="4.26433">
        <ele>76.8</ele>
        <time>2020-06-30T15:47:22Z</time>
      </trkpt>
      <trkpt lat="49.0183" lon="4.26424">
        <ele>76.8</ele>
        <time>2020-06-30T15:47:23Z</time>
      </trkpt>
      <trkpt lat="49.01831" lon="4.26416">
        <ele>76.8</ele>
        <time>2020-06-30T15:47:24Z</time>
      </trkpt>
      <trkpt lat="49.01834" lon="4.26409">
        <ele>76.8</ele>
        <time>2020-06-30T15:47:25Z</time>
      </trkpt>
      <trkpt lat="49.01836" lon="4.26401">
        <ele>76.8</ele>
        <time>2020-06-30T15:47:26Z</time>
      </trkpt>
      <trkpt lat="49.01838" lon="4.26394">
        <ele>76.8</ele>
        <time>2020-06-30T15:47:27Z</time>
      </trkpt>
      <trkpt lat="49.01841" lon="4.26386">
        <ele>76.8</ele>
        <time>2020-06-30T15:47:28Z</time>
      </trkpt>
      <trkpt lat="49.01844" lon="4.26378">
        <ele>76.9</ele>
        <time>2020-06-30T15:47:29Z</time>
      </trkpt>
      <trkpt lat="49.01846" lon="4.2637">
        <ele>76.9</ele>
        <time>2020-06-30T15:47:30Z</time>
      </trkpt>
      <trkpt lat="49.01848" lon="4.26363">
        <ele>76.9</ele>
        <time>2020-06-30T15:47:31Z</time>
      </trkpt>
      <trkpt lat="49.0185" lon="4.26356">
        <ele>76.9</ele>
        <time>2020-06-30T15:47:32Z</time>
      </trkpt>
      <trkpt lat="49.01853" lon="4.26348">
        <ele>76.9</ele>
        <time>2020-06-30T15:47:33Z</time>
      </trkpt>
      <trkpt lat="49.01856" lon="4.26342">
        <ele>76.9</ele>
        <time>2020-06-30T15:47:34Z</time>
      </trkpt>
      <trkpt lat="49.01858" lon="4.26335">
        <ele>77</ele>
        <time>2020-06-30T15:47:35Z</time>
      </trkpt>
      <trkpt lat="49.01861" lon="4.26328">
        <ele>77</ele>
        <time>2020-06-30T15:47:36Z</time>
      </trkpt>
      <trkpt lat="49.01864" lon="4.26322">
        <ele>77</ele>
        <time>2020-06-30T15:47:37Z</time>
      </trkpt>
      <trkpt lat="49.01867" lon="4.26315">
        <ele>77</ele>
        <time>2020-06-30T15:47:38Z</time>
      </trkpt>
      <trkpt lat="49.0187" lon="4.26308">
        <ele>77.1</ele>
        <time>2020-06-30T15:47:39Z</time>
      </trkpt>
      <trkpt lat="49.01873" lon="4.26301">
        <ele>77.1</ele>
        <time>2020-06-30T15:47:40Z</time>
      </trkpt>
      <trkpt lat="49.01873" lon="4.26292">
        <ele>77.1</ele>
        <time>2020-06-30T15:47:41Z</time>
      </trkpt>
      <trkpt lat="49.01873" lon="4.26283">
        <ele>77.1</ele>
        <time>2020-06-30T15:47:42Z</time>
      </trkpt>
      <trkpt lat="49.01875" lon="4.26275">
        <ele>77.1</ele>
        <time>2020-06-30T15:47:43Z</time>
      </trkpt>
      <trkpt lat="49.01877" lon="4.26267">
        <ele>77.1</ele>
        <time>2020-06-30T15:47:44Z</time>
      </trkpt>
      <trkpt lat="49.01878" lon="4.26259">
        <ele>77.1</ele>
        <time>2020-06-30T15:47:45Z</time>
      </trkpt>
      <trkpt lat="49.01882" lon="4.26252">
        <ele>77.1</ele>
        <time>2020-06-30T15:47:46Z</time>
      </trkpt>
      <trkpt lat="49.01885" lon="4.26246">
        <ele>77.1</ele>
        <time>2020-06-30T15:47:47Z</time>
      </trkpt>
      <trkpt lat="49.01888" lon="4.26238">
        <ele>77.1</ele>
        <time>2020-06-30T15:47:48Z</time>
      </trkpt>
      <trkpt lat="49.0189" lon="4.26232">
        <ele>77.1</ele>
        <time>2020-06-30T15:47:49Z</time>
      </trkpt>
      <trkpt lat="49.01892" lon="4.26225">
        <ele>77.1</ele>
        <time>2020-06-30T15:47:50Z</time>
      </trkpt>
      <trkpt lat="49.01895" lon="4.26218">
        <ele>77</ele>
        <time>2020-06-30T15:47:51Z</time>
      </trkpt>
      <trkpt lat="49.01898" lon="4.26211">
        <ele>77</ele>
        <time>2020-06-30T15:47:52Z</time>
      </trkpt>
      <trkpt lat="49.01902" lon="4.26206">
        <ele>77</ele>
        <time>2020-06-30T15:47:53Z</time>
      </trkpt>
      <trkpt lat="49.01905" lon="4.262">
        <ele>76.9</ele>
        <time>2020-06-30T15:47:54Z</time>
      </trkpt>
      <trkpt lat="49.01908" lon="4.26194">
        <ele>76.9</ele>
        <time>2020-06-30T15:47:55Z</time>
      </trkpt>
      <trkpt lat="49.01911" lon="4.26188">
        <ele>76.9</ele>
        <time>2020-06-30T15:47:56Z</time>
      </trkpt>
      <trkpt lat="49.01915" lon="4.26182">
        <ele>76.8</ele>
        <time>2020-06-30T15:47:57Z</time>
      </trkpt>
      <trkpt lat="49.01919" lon="4.26176">
        <ele>76.8</ele>
        <time>2020-06-30T15:47:58Z</time>
      </trkpt>
      <trkpt lat="49.01923" lon="4.2617">
        <ele>76.8</ele>
        <time>2020-06-30T15:47:59Z</time>
      </trkpt>
      <trkpt lat="49.01926" lon="4.26163">
        <ele>76.9</ele>
        <time>2020-06-30T15:48:00Z</time>
      </trkpt>
      <trkpt lat="49.01929" lon="4.26157">
        <ele>77</ele>
        <time>2020-06-30T15:48:01Z</time>
      </trkpt>
      <trkpt lat="49.01932" lon="4.26151">
        <ele>77</ele>
        <time>2020-06-30T15:48:02Z</time>
      </trkpt>
      <trkpt lat="49.01936" lon="4.26145">
        <ele>77.1</ele>
        <time>2020-06-30T15:48:03Z</time>
      </trkpt>
      <trkpt lat="49.01938" lon="4.26139">
        <ele>77.1</ele>
        <time>2020-06-30T15:48:04Z</time>
      </trkpt>
      <trkpt lat="49.0194" lon="4.26132">
        <ele>77.1</ele>
        <time>2020-06-30T15:48:05Z</time>
      </trkpt>
      <trkpt lat="49.01942" lon="4.26124">
        <ele>77.2</ele>
        <time>2020-06-30T15:48:06Z</time>
      </trkpt>
      <trkpt lat="49.01944" lon="4.26117">
        <ele>77.2</ele>
        <time>2020-06-30T15:48:07Z</time>
      </trkpt>
      <trkpt lat="49.01947" lon="4.2611">
        <ele>77.3</ele>
        <time>2020-06-30T15:48:08Z</time>
      </trkpt>
      <trkpt lat="49.01949" lon="4.26103">
        <ele>77.3</ele>
        <time>2020-06-30T15:48:09Z</time>
      </trkpt>
      <trkpt lat="49.01952" lon="4.26095">
        <ele>77.4</ele>
        <time>2020-06-30T15:48:10Z</time>
      </trkpt>
      <trkpt lat="49.01954" lon="4.26088">
        <ele>77.4</ele>
        <time>2020-06-30T15:48:11Z</time>
      </trkpt>
      <trkpt lat="49.01956" lon="4.26081">
        <ele>77.5</ele>
        <time>2020-06-30T15:48:12Z</time>
      </trkpt>
      <trkpt lat="49.01958" lon="4.26074">
        <ele>77.5</ele>
        <time>2020-06-30T15:48:13Z</time>
      </trkpt>
      <trkpt lat="49.0196" lon="4.26067">
        <ele>77.6</ele>
        <time>2020-06-30T15:48:14Z</time>
      </trkpt>
      <trkpt lat="49.01962" lon="4.2606">
        <ele>77.6</ele>
        <time>2020-06-30T15:48:15Z</time>
      </trkpt>
      <trkpt lat="49.01965" lon="4.26054">
        <ele>77.6</ele>
        <time>2020-06-30T15:48:16Z</time>
      </trkpt>
      <trkpt lat="49.01967" lon="4.26048">
        <ele>77.6</ele>
        <time>2020-06-30T15:48:17Z</time>
      </trkpt>
      <trkpt lat="49.01968" lon="4.2604">
        <ele>77.7</ele>
        <time>2020-06-30T15:48:18Z</time>
      </trkpt>
      <trkpt lat="49.0197" lon="4.26033">
        <ele>77.7</ele>
        <time>2020-06-30T15:48:19Z</time>
      </trkpt>
      <trkpt lat="49.01973" lon="4.26026">
        <ele>77.7</ele>
        <time>2020-06-30T15:48:20Z</time>
      </trkpt>
      <trkpt lat="49.01975" lon="4.26018">
        <ele>77.6</ele>
        <time>2020-06-30T15:48:21Z</time>
      </trkpt>
      <trkpt lat="49.01978" lon="4.26012">
        <ele>77.6</ele>
        <time>2020-06-30T15:48:22Z</time>
      </trkpt>
      <trkpt lat="49.0198" lon="4.26004">
        <ele>77.6</ele>
        <time>2020-06-30T15:48:23Z</time>
      </trkpt>
      <trkpt lat="49.01983" lon="4.25997">
        <ele>77.6</ele>
        <time>2020-06-30T15:48:24Z</time>
      </trkpt>
      <trkpt lat="49.01984" lon="4.25989">
        <ele>77.5</ele>
        <time>2020-06-30T15:48:25Z</time>
      </trkpt>
      <trkpt lat="49.01987" lon="4.25982">
        <ele>77.5</ele>
        <time>2020-06-30T15:48:26Z</time>
      </trkpt>
      <trkpt lat="49.01989" lon="4.25974">
        <ele>77.4</ele>
        <time>2020-06-30T15:48:27Z</time>
      </trkpt>
      <trkpt lat="49.01992" lon="4.25967">
        <ele>77.4</ele>
        <time>2020-06-30T15:48:28Z</time>
      </trkpt>
      <trkpt lat="49.01994" lon="4.25958">
        <ele>77.4</ele>
        <time>2020-06-30T15:48:29Z</time>
      </trkpt>
      <trkpt lat="49.01997" lon="4.2595">
        <ele>77.4</ele>
        <time>2020-06-30T15:48:30Z</time>
      </trkpt>
      <trkpt lat="49.01999" lon="4.25942">
        <ele>77.3</ele>
        <time>2020-06-30T15:48:31Z</time>
      </trkpt>
      <trkpt lat="49.02001" lon="4.25934">
        <ele>77.3</ele>
        <time>2020-06-30T15:48:32Z</time>
      </trkpt>
      <trkpt lat="49.02001" lon="4.25925">
        <ele>77.2</ele>
        <time>2020-06-30T15:48:33Z</time>
      </trkpt>
      <trkpt lat="49.02004" lon="4.25917">
        <ele>77.1</ele>
        <time>2020-06-30T15:48:34Z</time>
      </trkpt>
      <trkpt lat="49.02006" lon="4.2591">
        <ele>77</ele>
        <time>2020-06-30T15:48:35Z</time>
      </trkpt>
      <trkpt lat="49.02009" lon="4.25903">
        <ele>77</ele>
        <time>2020-06-30T15:48:36Z</time>
      </trkpt>
      <trkpt lat="49.02011" lon="4.25895">
        <ele>76.9</ele>
        <time>2020-06-30T15:48:37Z</time>
      </trkpt>
      <trkpt lat="49.02012" lon="4.25887">
        <ele>76.8</ele>
        <time>2020-06-30T15:48:38Z</time>
      </trkpt>
      <trkpt lat="49.02015" lon="4.25879">
        <ele>76.7</ele>
        <time>2020-06-30T15:48:39Z</time>
      </trkpt>
      <trkpt lat="49.02016" lon="4.2587">
        <ele>76.7</ele>
        <time>2020-06-30T15:48:40Z</time>
      </trkpt>
      <trkpt lat="49.02018" lon="4.25862">
        <ele>76.6</ele>
        <time>2020-06-30T15:48:41Z</time>
      </trkpt>
      <trkpt lat="49.0202" lon="4.25853">
        <ele>76.5</ele>
        <time>2020-06-30T15:48:42Z</time>
      </trkpt>
      <trkpt lat="49.02021" lon="4.25844">
        <ele>76.4</ele>
        <time>2020-06-30T15:48:43Z</time>
      </trkpt>
      <trkpt lat="49.02023" lon="4.25835">
        <ele>76.4</ele>
        <time>2020-06-30T15:48:44Z</time>
      </trkpt>
      <trkpt lat="49.02025" lon="4.25826">
        <ele>76.4</ele>
        <time>2020-06-30T15:48:45Z</time>
      </trkpt>
      <trkpt lat="49.02028" lon="4.25818">
        <ele>76.3</ele>
        <time>2020-06-30T15:48:46Z</time>
      </trkpt>
      <trkpt lat="49.0203" lon="4.25809">
        <ele>76.3</ele>
        <time>2020-06-30T15:48:47Z</time>
      </trkpt>
      <trkpt lat="49.02032" lon="4.258">
        <ele>76.3</ele>
        <time>2020-06-30T15:48:48Z</time>
      </trkpt>
      <trkpt lat="49.02034" lon="4.25791">
        <ele>76.3</ele>
        <time>2020-06-30T15:48:49Z</time>
      </trkpt>
      <trkpt lat="49.02036" lon="4.25781">
        <ele>76.2</ele>
        <time>2020-06-30T15:48:50Z</time>
      </trkpt>
      <trkpt lat="49.02037" lon="4.25772">
        <ele>76.2</ele>
        <time>2020-06-30T15:48:51Z</time>
      </trkpt>
      <trkpt lat="49.02039" lon="4.25763">
        <ele>76.1</ele>
        <time>2020-06-30T15:48:52Z</time>
      </trkpt>
      <trkpt lat="49.02041" lon="4.25754">
        <ele>76.1</ele>
        <time>2020-06-30T15:48:53Z</time>
      </trkpt>
      <trkpt lat="49.02043" lon="4.25745">
        <ele>76.1</ele>
        <time>2020-06-30T15:48:54Z</time>
      </trkpt>
      <trkpt lat="49.02045" lon="4.25736">
        <ele>76.1</ele>
        <time>2020-06-30T15:48:55Z</time>
      </trkpt>
      <trkpt lat="49.02047" lon="4.25728">
        <ele>76.1</ele>
        <time>2020-06-30T15:48:56Z</time>
      </trkpt>
      <trkpt lat="49.0205" lon="4.2572">
        <ele>76.1</ele>
        <time>2020-06-30T15:48:57Z</time>
      </trkpt>
      <trkpt lat="49.02052" lon="4.25712">
        <ele>76.2</ele>
        <time>2020-06-30T15:48:58Z</time>
      </trkpt>
      <trkpt lat="49.02055" lon="4.25703">
        <ele>76.1</ele>
        <time>2020-06-30T15:48:59Z</time>
      </trkpt>
      <trkpt lat="49.02058" lon="4.25695">
        <ele>76.1</ele>
        <time>2020-06-30T15:49:00Z</time>
      </trkpt>
      <trkpt lat="49.0206" lon="4.25686">
        <ele>76.1</ele>
        <time>2020-06-30T15:49:01Z</time>
      </trkpt>
      <trkpt lat="49.02062" lon="4.25678">
        <ele>76.1</ele>
        <time>2020-06-30T15:49:02Z</time>
      </trkpt>
      <trkpt lat="49.02061" lon="4.25668">
        <ele>76.1</ele>
        <time>2020-06-30T15:49:03Z</time>
      </trkpt>
      <trkpt lat="49.02064" lon="4.2566">
        <ele>76.2</ele>
        <time>2020-06-30T15:49:04Z</time>
      </trkpt>
      <trkpt lat="49.02065" lon="4.25651">
        <ele>76.2</ele>
        <time>2020-06-30T15:49:05Z</time>
      </trkpt>
      <trkpt lat="49.02066" lon="4.25643">
        <ele>76.2</ele>
        <time>2020-06-30T15:49:06Z</time>
      </trkpt>
      <trkpt lat="49.02068" lon="4.25634">
        <ele>76.3</ele>
        <time>2020-06-30T15:49:07Z</time>
      </trkpt>
      <trkpt lat="49.02069" lon="4.25625">
        <ele>76.3</ele>
        <time>2020-06-30T15:49:08Z</time>
      </trkpt>
      <trkpt lat="49.02073" lon="4.25618">
        <ele>76.4</ele>
        <time>2020-06-30T15:49:09Z</time>
      </trkpt>
      <trkpt lat="49.02075" lon="4.2561">
        <ele>76.4</ele>
        <time>2020-06-30T15:49:10Z</time>
      </trkpt>
      <trkpt lat="49.02077" lon="4.25602">
        <ele>76.5</ele>
        <time>2020-06-30T15:49:11Z</time>
      </trkpt>
      <trkpt lat="49.0208" lon="4.25594">
        <ele>76.5</ele>
        <time>2020-06-30T15:49:12Z</time>
      </trkpt>
      <trkpt lat="49.02083" lon="4.25586">
        <ele>76.6</ele>
        <time>2020-06-30T15:49:13Z</time>
      </trkpt>
      <trkpt lat="49.02087" lon="4.25578">
        <ele>76.6</ele>
        <time>2020-06-30T15:49:14Z</time>
      </trkpt>
      <trkpt lat="49.02089" lon="4.2557">
        <ele>76.7</ele>
        <time>2020-06-30T15:49:15Z</time>
      </trkpt>
      <trkpt lat="49.02092" lon="4.25562">
        <ele>76.8</ele>
        <time>2020-06-30T15:49:16Z</time>
      </trkpt>
      <trkpt lat="49.02095" lon="4.25554">
        <ele>76.9</ele>
        <time>2020-06-30T15:49:17Z</time>
      </trkpt>
      <trkpt lat="49.02098" lon="4.25546">
        <ele>77.1</ele>
        <time>2020-06-30T15:49:18Z</time>
      </trkpt>
      <trkpt lat="49.02101" lon="4.25539">
        <ele>77.3</ele>
        <time>2020-06-30T15:49:19Z</time>
      </trkpt>
      <trkpt lat="49.02105" lon="4.25532">
        <ele>77.5</ele>
        <time>2020-06-30T15:49:20Z</time>
      </trkpt>
      <trkpt lat="49.02109" lon="4.25525">
        <ele>77.6</ele>
        <time>2020-06-30T15:49:21Z</time>
      </trkpt>
      <trkpt lat="49.02113" lon="4.25518">
        <ele>77.4</ele>
        <time>2020-06-30T15:49:22Z</time>
      </trkpt>
      <trkpt lat="49.02117" lon="4.25511">
        <ele>77.3</ele>
        <time>2020-06-30T15:49:23Z</time>
      </trkpt>
      <trkpt lat="49.02121" lon="4.25505">
        <ele>77.3</ele>
        <time>2020-06-30T15:49:24Z</time>
      </trkpt>
      <trkpt lat="49.02125" lon="4.25498">
        <ele>77.2</ele>
        <time>2020-06-30T15:49:25Z</time>
      </trkpt>
      <trkpt lat="49.02129" lon="4.25491">
        <ele>77.2</ele>
        <time>2020-06-30T15:49:26Z</time>
      </trkpt>
      <trkpt lat="49.02133" lon="4.25484">
        <ele>77.1</ele>
        <time>2020-06-30T15:49:27Z</time>
      </trkpt>
      <trkpt lat="49.02137" lon="4.25477">
        <ele>77</ele>
        <time>2020-06-30T15:49:28Z</time>
      </trkpt>
      <trkpt lat="49.0214" lon="4.2547">
        <ele>77</ele>
        <time>2020-06-30T15:49:29Z</time>
      </trkpt>
      <trkpt lat="49.02143" lon="4.25462">
        <ele>76.7</ele>
        <time>2020-06-30T15:49:30Z</time>
      </trkpt>
      <trkpt lat="49.02148" lon="4.25457">
        <ele>76.7</ele>
        <time>2020-06-30T15:49:31Z</time>
      </trkpt>
      <trkpt lat="49.02151" lon="4.25451">
        <ele>76.7</ele>
        <time>2020-06-30T15:49:32Z</time>
      </trkpt>
      <trkpt lat="49.02154" lon="4.25445">
        <ele>76.7</ele>
        <time>2020-06-30T15:49:33Z</time>
      </trkpt>
      <trkpt lat="49.02157" lon="4.25438">
        <ele>76.7</ele>
        <time>2020-06-30T15:49:34Z</time>
      </trkpt>
      <trkpt lat="49.0216" lon="4.25431">
        <ele>76.7</ele>
        <time>2020-06-30T15:49:35Z</time>
      </trkpt>
      <trkpt lat="49.02164" lon="4.25425">
        <ele>76.7</ele>
        <time>2020-06-30T15:49:36Z</time>
      </trkpt>
      <trkpt lat="49.02168" lon="4.2542">
        <ele>76.7</ele>
        <time>2020-06-30T15:49:37Z</time>
      </trkpt>
      <trkpt lat="49.02172" lon="4.25416">
        <ele>76.8</ele>
        <time>2020-06-30T15:49:38Z</time>
      </trkpt>
      <trkpt lat="49.02175" lon="4.25411">
        <ele>76.9</ele>
        <time>2020-06-30T15:49:39Z</time>
      </trkpt>
      <trkpt lat="49.02178" lon="4.25405">
        <ele>77</ele>
        <time>2020-06-30T15:49:40Z</time>
      </trkpt>
      <trkpt lat="49.02182" lon="4.254">
        <ele>77.1</ele>
        <time>2020-06-30T15:49:41Z</time>
      </trkpt>
      <trkpt lat="49.02185" lon="4.25395">
        <ele>77.2</ele>
        <time>2020-06-30T15:49:42Z</time>
      </trkpt>
      <trkpt lat="49.02187" lon="4.25389">
        <ele>77.3</ele>
        <time>2020-06-30T15:49:43Z</time>
      </trkpt>
      <trkpt lat="49.0219" lon="4.25384">
        <ele>77.3</ele>
        <time>2020-06-30T15:49:44Z</time>
      </trkpt>
      <trkpt lat="49.02193" lon="4.25379">
        <ele>77.4</ele>
        <time>2020-06-30T15:49:45Z</time>
      </trkpt>
      <trkpt lat="49.02195" lon="4.25372">
        <ele>77.5</ele>
        <time>2020-06-30T15:49:46Z</time>
      </trkpt>
      <trkpt lat="49.02197" lon="4.25367">
        <ele>77.6</ele>
        <time>2020-06-30T15:49:47Z</time>
      </trkpt>
      <trkpt lat="49.022" lon="4.25362">
        <ele>77.7</ele>
        <time>2020-06-30T15:49:48Z</time>
      </trkpt>
      <trkpt lat="49.02203" lon="4.25356">
        <ele>77.8</ele>
        <time>2020-06-30T15:49:49Z</time>
      </trkpt>
      <trkpt lat="49.02206" lon="4.2535">
        <ele>78</ele>
        <time>2020-06-30T15:49:50Z</time>
      </trkpt>
      <trkpt lat="49.02209" lon="4.25345">
        <ele>78.1</ele>
        <time>2020-06-30T15:49:51Z</time>
      </trkpt>
      <trkpt lat="49.02212" lon="4.25339">
        <ele>78.2</ele>
        <time>2020-06-30T15:49:52Z</time>
      </trkpt>
      <trkpt lat="49.02214" lon="4.25332">
        <ele>78.3</ele>
        <time>2020-06-30T15:49:53Z</time>
      </trkpt>
      <trkpt lat="49.02217" lon="4.25325">
        <ele>78.5</ele>
        <time>2020-06-30T15:49:54Z</time>
      </trkpt>
      <trkpt lat="49.02219" lon="4.25318">
        <ele>78.6</ele>
        <time>2020-06-30T15:49:55Z</time>
      </trkpt>
      <trkpt lat="49.02222" lon="4.25312">
        <ele>78.8</ele>
        <time>2020-06-30T15:49:56Z</time>
      </trkpt>
      <trkpt lat="49.02224" lon="4.25306">
        <ele>78.9</ele>
        <time>2020-06-30T15:49:57Z</time>
      </trkpt>
      <trkpt lat="49.02227" lon="4.253">
        <ele>79</ele>
        <time>2020-06-30T15:49:58Z</time>
      </trkpt>
      <trkpt lat="49.02229" lon="4.25294">
        <ele>79.3</ele>
        <time>2020-06-30T15:49:59Z</time>
      </trkpt>
      <trkpt lat="49.02232" lon="4.25288">
        <ele>79.5</ele>
        <time>2020-06-30T15:50:00Z</time>
      </trkpt>
      <trkpt lat="49.02235" lon="4.25281">
        <ele>79.7</ele>
        <time>2020-06-30T15:50:01Z</time>
      </trkpt>
      <trkpt lat="49.02238" lon="4.25274">
        <ele>79.8</ele>
        <time>2020-06-30T15:50:02Z</time>
      </trkpt>
      <trkpt lat="49.02241" lon="4.25267">
        <ele>80</ele>
        <time>2020-06-30T15:50:03Z</time>
      </trkpt>
      <trkpt lat="49.02244" lon="4.25261">
        <ele>80.2</ele>
        <time>2020-06-30T15:50:04Z</time>
      </trkpt>
      <trkpt lat="49.02247" lon="4.25254">
        <ele>80.3</ele>
        <time>2020-06-30T15:50:05Z</time>
      </trkpt>
      <trkpt lat="49.02249" lon="4.25249">
        <ele>80.5</ele>
        <time>2020-06-30T15:50:06Z</time>
      </trkpt>
      <trkpt lat="49.02252" lon="4.25243">
        <ele>80.7</ele>
        <time>2020-06-30T15:50:07Z</time>
      </trkpt>
      <trkpt lat="49.02254" lon="4.25237">
        <ele>80.8</ele>
        <time>2020-06-30T15:50:08Z</time>
      </trkpt>
      <trkpt lat="49.02257" lon="4.2523">
        <ele>81</ele>
        <time>2020-06-30T15:50:09Z</time>
      </trkpt>
      <trkpt lat="49.02259" lon="4.25226">
        <ele>81.1</ele>
        <time>2020-06-30T15:50:10Z</time>
      </trkpt>
      <trkpt lat="49.02262" lon="4.25219">
        <ele>81.3</ele>
        <time>2020-06-30T15:50:11Z</time>
      </trkpt>
      <trkpt lat="49.02264" lon="4.25212">
        <ele>81.5</ele>
        <time>2020-06-30T15:50:12Z</time>
      </trkpt>
      <trkpt lat="49.02267" lon="4.25205">
        <ele>81.6</ele>
        <time>2020-06-30T15:50:13Z</time>
      </trkpt>
      <trkpt lat="49.02269" lon="4.25199">
        <ele>81.7</ele>
        <time>2020-06-30T15:50:14Z</time>
      </trkpt>
      <trkpt lat="49.02272" lon="4.25194">
        <ele>81.9</ele>
        <time>2020-06-30T15:50:15Z</time>
      </trkpt>
      <trkpt lat="49.02276" lon="4.25187">
        <ele>82</ele>
        <time>2020-06-30T15:50:16Z</time>
      </trkpt>
      <trkpt lat="49.02279" lon="4.25181">
        <ele>82.2</ele>
        <time>2020-06-30T15:50:17Z</time>
      </trkpt>
      <trkpt lat="49.02282" lon="4.25175">
        <ele>82.3</ele>
        <time>2020-06-30T15:50:18Z</time>
      </trkpt>
      <trkpt lat="49.02284" lon="4.25168">
        <ele>82.5</ele>
        <time>2020-06-30T15:50:19Z</time>
      </trkpt>
      <trkpt lat="49.02286" lon="4.25165">
        <ele>82.6</ele>
        <time>2020-06-30T15:50:20Z</time>
      </trkpt>
      <trkpt lat="49.02289" lon="4.25159">
        <ele>82.7</ele>
        <time>2020-06-30T15:50:21Z</time>
      </trkpt>
      <trkpt lat="49.02292" lon="4.25152">
        <ele>82.9</ele>
        <time>2020-06-30T15:50:22Z</time>
      </trkpt>
      <trkpt lat="49.02295" lon="4.25145">
        <ele>83.1</ele>
        <time>2020-06-30T15:50:23Z</time>
      </trkpt>
      <trkpt lat="49.02297" lon="4.2514">
        <ele>83.2</ele>
        <time>2020-06-30T15:50:24Z</time>
      </trkpt>
      <trkpt lat="49.023" lon="4.25132">
        <ele>83.4</ele>
        <time>2020-06-30T15:50:25Z</time>
      </trkpt>
      <trkpt lat="49.02302" lon="4.25127">
        <ele>83.5</ele>
        <time>2020-06-30T15:50:26Z</time>
      </trkpt>
      <trkpt lat="49.02305" lon="4.25121">
        <ele>83.6</ele>
        <time>2020-06-30T15:50:27Z</time>
      </trkpt>
      <trkpt lat="49.02307" lon="4.25114">
        <ele>83.8</ele>
        <time>2020-06-30T15:50:28Z</time>
      </trkpt>
      <trkpt lat="49.02309" lon="4.25108">
        <ele>84</ele>
        <time>2020-06-30T15:50:29Z</time>
      </trkpt>
      <trkpt lat="49.02312" lon="4.25102">
        <ele>84.1</ele>
        <time>2020-06-30T15:50:30Z</time>
      </trkpt>
      <trkpt lat="49.02314" lon="4.25095">
        <ele>84.3</ele>
        <time>2020-06-30T15:50:31Z</time>
      </trkpt>
      <trkpt lat="49.02318" lon="4.25089">
        <ele>84.4</ele>
        <time>2020-06-30T15:50:32Z</time>
      </trkpt>
      <trkpt lat="49.0232" lon="4.25083">
        <ele>84.6</ele>
        <time>2020-06-30T15:50:33Z</time>
      </trkpt>
      <trkpt lat="49.02323" lon="4.25078">
        <ele>84.7</ele>
        <time>2020-06-30T15:50:34Z</time>
      </trkpt>
      <trkpt lat="49.02325" lon="4.25071">
        <ele>84.9</ele>
        <time>2020-06-30T15:50:35Z</time>
      </trkpt>
      <trkpt lat="49.02328" lon="4.25065">
        <ele>85.1</ele>
        <time>2020-06-30T15:50:36Z</time>
      </trkpt>
      <trkpt lat="49.0233" lon="4.25058">
        <ele>85.2</ele>
        <time>2020-06-30T15:50:37Z</time>
      </trkpt>
      <trkpt lat="49.02334" lon="4.25052">
        <ele>85.4</ele>
        <time>2020-06-30T15:50:38Z</time>
      </trkpt>
      <trkpt lat="49.02337" lon="4.25043">
        <ele>85.6</ele>
        <time>2020-06-30T15:50:39Z</time>
      </trkpt>
      <trkpt lat="49.0234" lon="4.25038">
        <ele>85.7</ele>
        <time>2020-06-30T15:50:40Z</time>
      </trkpt>
      <trkpt lat="49.02342" lon="4.25031">
        <ele>85.8</ele>
        <time>2020-06-30T15:50:41Z</time>
      </trkpt>
      <trkpt lat="49.02345" lon="4.25027">
        <ele>85.9</ele>
        <time>2020-06-30T15:50:42Z</time>
      </trkpt>
      <trkpt lat="49.02348" lon="4.25019">
        <ele>86</ele>
        <time>2020-06-30T15:50:43Z</time>
      </trkpt>
      <trkpt lat="49.02351" lon="4.25014">
        <ele>86.2</ele>
        <time>2020-06-30T15:50:44Z</time>
      </trkpt>
      <trkpt lat="49.02354" lon="4.25008">
        <ele>86.3</ele>
        <time>2020-06-30T15:50:45Z</time>
      </trkpt>
      <trkpt lat="49.02356" lon="4.25001">
        <ele>86.4</ele>
        <time>2020-06-30T15:50:46Z</time>
      </trkpt>
      <trkpt lat="49.0236" lon="4.24994">
        <ele>86.5</ele>
        <time>2020-06-30T15:50:47Z</time>
      </trkpt>
      <trkpt lat="49.02362" lon="4.24987">
        <ele>86.6</ele>
        <time>2020-06-30T15:50:48Z</time>
      </trkpt>
      <trkpt lat="49.02365" lon="4.24982">
        <ele>86.7</ele>
        <time>2020-06-30T15:50:49Z</time>
      </trkpt>
      <trkpt lat="49.02368" lon="4.24974">
        <ele>86.8</ele>
        <time>2020-06-30T15:50:50Z</time>
      </trkpt>
      <trkpt lat="49.02371" lon="4.2497">
        <ele>86.9</ele>
        <time>2020-06-30T15:50:51Z</time>
      </trkpt>
      <trkpt lat="49.02373" lon="4.24965">
        <ele>87</ele>
        <time>2020-06-30T15:50:52Z</time>
      </trkpt>
      <trkpt lat="49.02374" lon="4.24959">
        <ele>87</ele>
        <time>2020-06-30T15:50:53Z</time>
      </trkpt>
      <trkpt lat="49.02377" lon="4.24954">
        <ele>87.1</ele>
        <time>2020-06-30T15:50:54Z</time>
      </trkpt>
      <trkpt lat="49.02379" lon="4.24948">
        <ele>87.1</ele>
        <time>2020-06-30T15:50:55Z</time>
      </trkpt>
      <trkpt lat="49.02382" lon="4.24942">
        <ele>87.2</ele>
        <time>2020-06-30T15:50:56Z</time>
      </trkpt>
      <trkpt lat="49.02385" lon="4.24934">
        <ele>87.2</ele>
        <time>2020-06-30T15:50:57Z</time>
      </trkpt>
      <trkpt lat="49.02388" lon="4.24928">
        <ele>87.2</ele>
        <time>2020-06-30T15:50:58Z</time>
      </trkpt>
      <trkpt lat="49.02391" lon="4.2492">
        <ele>87.2</ele>
        <time>2020-06-30T15:50:59Z</time>
      </trkpt>
      <trkpt lat="49.02393" lon="4.24914">
        <ele>87.2</ele>
        <time>2020-06-30T15:51:00Z</time>
      </trkpt>
      <trkpt lat="49.02396" lon="4.24908">
        <ele>87.2</ele>
        <time>2020-06-30T15:51:01Z</time>
      </trkpt>
      <trkpt lat="49.02398" lon="4.24903">
        <ele>87.2</ele>
        <time>2020-06-30T15:51:02Z</time>
      </trkpt>
      <trkpt lat="49.02401" lon="4.24895">
        <ele>87.2</ele>
        <time>2020-06-30T15:51:03Z</time>
      </trkpt>
      <trkpt lat="49.02403" lon="4.24888">
        <ele>87.1</ele>
        <time>2020-06-30T15:51:04Z</time>
      </trkpt>
      <trkpt lat="49.02405" lon="4.2488">
        <ele>87.1</ele>
        <time>2020-06-30T15:51:05Z</time>
      </trkpt>
      <trkpt lat="49.02407" lon="4.24874">
        <ele>87.1</ele>
        <time>2020-06-30T15:51:06Z</time>
      </trkpt>
      <trkpt lat="49.0241" lon="4.24866">
        <ele>87</ele>
        <time>2020-06-30T15:51:07Z</time>
      </trkpt>
      <trkpt lat="49.02413" lon="4.2486">
        <ele>87</ele>
        <time>2020-06-30T15:51:08Z</time>
      </trkpt>
      <trkpt lat="49.02415" lon="4.24852">
        <ele>86.9</ele>
        <time>2020-06-30T15:51:09Z</time>
      </trkpt>
      <trkpt lat="49.02417" lon="4.24844">
        <ele>86.8</ele>
        <time>2020-06-30T15:51:10Z</time>
      </trkpt>
      <trkpt lat="49.02419" lon="4.24836">
        <ele>86.7</ele>
        <time>2020-06-30T15:51:11Z</time>
      </trkpt>
      <trkpt lat="49.02422" lon="4.24828">
        <ele>86.5</ele>
        <time>2020-06-30T15:51:12Z</time>
      </trkpt>
      <trkpt lat="49.02424" lon="4.24819">
        <ele>86.4</ele>
        <time>2020-06-30T15:51:13Z</time>
      </trkpt>
      <trkpt lat="49.02427" lon="4.24811">
        <ele>86.2</ele>
        <time>2020-06-30T15:51:14Z</time>
      </trkpt>
      <trkpt lat="49.02429" lon="4.24803">
        <ele>86.1</ele>
        <time>2020-06-30T15:51:15Z</time>
      </trkpt>
      <trkpt lat="49.02431" lon="4.24794">
        <ele>85.9</ele>
        <time>2020-06-30T15:51:16Z</time>
      </trkpt>
      <trkpt lat="49.02433" lon="4.24786">
        <ele>85.7</ele>
        <time>2020-06-30T15:51:17Z</time>
      </trkpt>
      <trkpt lat="49.02435" lon="4.24778">
        <ele>85.5</ele>
        <time>2020-06-30T15:51:18Z</time>
      </trkpt>
      <trkpt lat="49.02438" lon="4.24769">
        <ele>85.4</ele>
        <time>2020-06-30T15:51:19Z</time>
      </trkpt>
      <trkpt lat="49.02439" lon="4.2476">
        <ele>85.1</ele>
        <time>2020-06-30T15:51:20Z</time>
      </trkpt>
      <trkpt lat="49.02442" lon="4.24751">
        <ele>84.8</ele>
        <time>2020-06-30T15:51:21Z</time>
      </trkpt>
      <trkpt lat="49.02443" lon="4.2474">
        <ele>84.5</ele>
        <time>2020-06-30T15:51:22Z</time>
      </trkpt>
      <trkpt lat="49.02446" lon="4.24732">
        <ele>84.2</ele>
        <time>2020-06-30T15:51:23Z</time>
      </trkpt>
      <trkpt lat="49.02449" lon="4.24722">
        <ele>83.9</ele>
        <time>2020-06-30T15:51:24Z</time>
      </trkpt>
      <trkpt lat="49.02452" lon="4.24713">
        <ele>83.6</ele>
        <time>2020-06-30T15:51:25Z</time>
      </trkpt>
      <trkpt lat="49.02454" lon="4.24703">
        <ele>83.3</ele>
        <time>2020-06-30T15:51:26Z</time>
      </trkpt>
      <trkpt lat="49.02457" lon="4.24694">
        <ele>82.9</ele>
        <time>2020-06-30T15:51:27Z</time>
      </trkpt>
      <trkpt lat="49.0246" lon="4.24683">
        <ele>82.5</ele>
        <time>2020-06-30T15:51:28Z</time>
      </trkpt>
      <trkpt lat="49.02463" lon="4.24674">
        <ele>82.2</ele>
        <time>2020-06-30T15:51:29Z</time>
      </trkpt>
      <trkpt lat="49.02466" lon="4.24664">
        <ele>81.8</ele>
        <time>2020-06-30T15:51:30Z</time>
      </trkpt>
      <trkpt lat="49.0247" lon="4.24654">
        <ele>81.4</ele>
        <time>2020-06-30T15:51:31Z</time>
      </trkpt>
      <trkpt lat="49.02473" lon="4.24644">
        <ele>81.1</ele>
        <time>2020-06-30T15:51:32Z</time>
      </trkpt>
      <trkpt lat="49.02477" lon="4.24634">
        <ele>80.7</ele>
        <time>2020-06-30T15:51:33Z</time>
      </trkpt>
      <trkpt lat="49.02481" lon="4.24624">
        <ele>80.4</ele>
        <time>2020-06-30T15:51:34Z</time>
      </trkpt>
      <trkpt lat="49.02485" lon="4.24614">
        <ele>80</ele>
        <time>2020-06-30T15:51:35Z</time>
      </trkpt>
      <trkpt lat="49.02489" lon="4.24604">
        <ele>79.6</ele>
        <time>2020-06-30T15:51:36Z</time>
      </trkpt>
      <trkpt lat="49.02494" lon="4.24594">
        <ele>79.3</ele>
        <time>2020-06-30T15:51:37Z</time>
      </trkpt>
      <trkpt lat="49.02498" lon="4.24584">
        <ele>79</ele>
        <time>2020-06-30T15:51:38Z</time>
      </trkpt>
      <trkpt lat="49.02503" lon="4.24574">
        <ele>78.7</ele>
        <time>2020-06-30T15:51:39Z</time>
      </trkpt>
      <trkpt lat="49.02507" lon="4.24563">
        <ele>78.4</ele>
        <time>2020-06-30T15:51:40Z</time>
      </trkpt>
      <trkpt lat="49.02512" lon="4.24553">
        <ele>78.1</ele>
        <time>2020-06-30T15:51:41Z</time>
      </trkpt>
      <trkpt lat="49.02517" lon="4.24543">
        <ele>77.9</ele>
        <time>2020-06-30T15:51:42Z</time>
      </trkpt>
      <trkpt lat="49.02522" lon="4.24533">
        <ele>77.7</ele>
        <time>2020-06-30T15:51:43Z</time>
      </trkpt>
      <trkpt lat="49.02527" lon="4.24523">
        <ele>77.6</ele>
        <time>2020-06-30T15:51:44Z</time>
      </trkpt>
      <trkpt lat="49.02532" lon="4.24513">
        <ele>77.5</ele>
        <time>2020-06-30T15:51:45Z</time>
      </trkpt>
      <trkpt lat="49.02536" lon="4.24503">
        <ele>77.3</ele>
        <time>2020-06-30T15:51:46Z</time>
      </trkpt>
      <trkpt lat="49.02541" lon="4.24494">
        <ele>77.2</ele>
        <time>2020-06-30T15:51:47Z</time>
      </trkpt>
      <trkpt lat="49.02545" lon="4.24485">
        <ele>77.1</ele>
        <time>2020-06-30T15:51:48Z</time>
      </trkpt>
      <trkpt lat="49.02549" lon="4.24476">
        <ele>77.1</ele>
        <time>2020-06-30T15:51:49Z</time>
      </trkpt>
      <trkpt lat="49.02553" lon="4.24467">
        <ele>77</ele>
        <time>2020-06-30T15:51:50Z</time>
      </trkpt>
      <trkpt lat="49.02557" lon="4.24459">
        <ele>77</ele>
        <time>2020-06-30T15:51:51Z</time>
      </trkpt>
      <trkpt lat="49.0256" lon="4.2445">
        <ele>77</ele>
        <time>2020-06-30T15:51:52Z</time>
      </trkpt>
      <trkpt lat="49.02564" lon="4.24443">
        <ele>77</ele>
        <time>2020-06-30T15:51:53Z</time>
      </trkpt>
      <trkpt lat="49.02568" lon="4.24435">
        <ele>77</ele>
        <time>2020-06-30T15:51:54Z</time>
      </trkpt>
      <trkpt lat="49.02572" lon="4.24426">
        <ele>77</ele>
        <time>2020-06-30T15:51:55Z</time>
      </trkpt>
      <trkpt lat="49.02576" lon="4.24419">
        <ele>77</ele>
        <time>2020-06-30T15:51:56Z</time>
      </trkpt>
      <trkpt lat="49.0258" lon="4.24411">
        <ele>77</ele>
        <time>2020-06-30T15:51:57Z</time>
      </trkpt>
      <trkpt lat="49.02583" lon="4.24403">
        <ele>77</ele>
        <time>2020-06-30T15:51:58Z</time>
      </trkpt>
      <trkpt lat="49.02587" lon="4.24395">
        <ele>77.1</ele>
        <time>2020-06-30T15:51:59Z</time>
      </trkpt>
      <trkpt lat="49.0259" lon="4.24387">
        <ele>77.1</ele>
        <time>2020-06-30T15:52:00Z</time>
      </trkpt>
      <trkpt lat="49.02594" lon="4.24379">
        <ele>77.2</ele>
        <time>2020-06-30T15:52:01Z</time>
      </trkpt>
      <trkpt lat="49.02597" lon="4.24372">
        <ele>77.3</ele>
        <time>2020-06-30T15:52:02Z</time>
      </trkpt>
      <trkpt lat="49.02601" lon="4.24364">
        <ele>77.3</ele>
        <time>2020-06-30T15:52:03Z</time>
      </trkpt>
      <trkpt lat="49.02604" lon="4.24357">
        <ele>77.4</ele>
        <time>2020-06-30T15:52:04Z</time>
      </trkpt>
      <trkpt lat="49.02608" lon="4.24349">
        <ele>77.4</ele>
        <time>2020-06-30T15:52:05Z</time>
      </trkpt>
      <trkpt lat="49.02612" lon="4.24342">
        <ele>77.5</ele>
        <time>2020-06-30T15:52:06Z</time>
      </trkpt>
      <trkpt lat="49.02615" lon="4.24334">
        <ele>77.5</ele>
        <time>2020-06-30T15:52:07Z</time>
      </trkpt>
      <trkpt lat="49.02619" lon="4.24326">
        <ele>77.6</ele>
        <time>2020-06-30T15:52:08Z</time>
      </trkpt>
      <trkpt lat="49.02623" lon="4.24319">
        <ele>77.6</ele>
        <time>2020-06-30T15:52:09Z</time>
      </trkpt>
      <trkpt lat="49.02626" lon="4.24311">
        <ele>77.7</ele>
        <time>2020-06-30T15:52:10Z</time>
      </trkpt>
      <trkpt lat="49.0263" lon="4.24303">
        <ele>77.8</ele>
        <time>2020-06-30T15:52:11Z</time>
      </trkpt>
      <trkpt lat="49.02633" lon="4.24295">
        <ele>77.9</ele>
        <time>2020-06-30T15:52:12Z</time>
      </trkpt>
      <trkpt lat="49.02637" lon="4.24287">
        <ele>78</ele>
        <time>2020-06-30T15:52:13Z</time>
      </trkpt>
      <trkpt lat="49.02641" lon="4.24279">
        <ele>78</ele>
        <time>2020-06-30T15:52:14Z</time>
      </trkpt>
      <trkpt lat="49.02644" lon="4.24271">
        <ele>78.1</ele>
        <time>2020-06-30T15:52:15Z</time>
      </trkpt>
      <trkpt lat="49.02647" lon="4.24263">
        <ele>78.2</ele>
        <time>2020-06-30T15:52:16Z</time>
      </trkpt>
      <trkpt lat="49.0265" lon="4.24255">
        <ele>78.4</ele>
        <time>2020-06-30T15:52:17Z</time>
      </trkpt>
      <trkpt lat="49.02654" lon="4.24248">
        <ele>78.5</ele>
        <time>2020-06-30T15:52:18Z</time>
      </trkpt>
      <trkpt lat="49.02658" lon="4.24242">
        <ele>78.6</ele>
        <time>2020-06-30T15:52:19Z</time>
      </trkpt>
      <trkpt lat="49.02661" lon="4.24234">
        <ele>78.7</ele>
        <time>2020-06-30T15:52:20Z</time>
      </trkpt>
      <trkpt lat="49.02665" lon="4.24227">
        <ele>78.9</ele>
        <time>2020-06-30T15:52:21Z</time>
      </trkpt>
      <trkpt lat="49.02668" lon="4.24221">
        <ele>79</ele>
        <time>2020-06-30T15:52:22Z</time>
      </trkpt>
      <trkpt lat="49.02672" lon="4.24213">
        <ele>79.1</ele>
        <time>2020-06-30T15:52:23Z</time>
      </trkpt>
      <trkpt lat="49.02676" lon="4.24205">
        <ele>79.1</ele>
        <time>2020-06-30T15:52:24Z</time>
      </trkpt>
      <trkpt lat="49.0268" lon="4.24198">
        <ele>79.2</ele>
        <time>2020-06-30T15:52:25Z</time>
      </trkpt>
      <trkpt lat="49.02682" lon="4.24191">
        <ele>79.3</ele>
        <time>2020-06-30T15:52:26Z</time>
      </trkpt>
      <trkpt lat="49.02688" lon="4.24182">
        <ele>79.4</ele>
        <time>2020-06-30T15:52:27Z</time>
      </trkpt>
      <trkpt lat="49.0269" lon="4.24175">
        <ele>79.3</ele>
        <time>2020-06-30T15:52:28Z</time>
      </trkpt>
      <trkpt lat="49.02692" lon="4.24167">
        <ele>79.3</ele>
        <time>2020-06-30T15:52:29Z</time>
      </trkpt>
      <trkpt lat="49.02695" lon="4.24159">
        <ele>79.2</ele>
        <time>2020-06-30T15:52:30Z</time>
      </trkpt>
      <trkpt lat="49.02698" lon="4.24152">
        <ele>79.2</ele>
        <time>2020-06-30T15:52:31Z</time>
      </trkpt>
      <trkpt lat="49.02701" lon="4.24147">
        <ele>79.2</ele>
        <time>2020-06-30T15:52:32Z</time>
      </trkpt>
      <trkpt lat="49.02705" lon="4.24139">
        <ele>79.2</ele>
        <time>2020-06-30T15:52:33Z</time>
      </trkpt>
      <trkpt lat="49.02709" lon="4.2413">
        <ele>79.2</ele>
        <time>2020-06-30T15:52:34Z</time>
      </trkpt>
      <trkpt lat="49.02712" lon="4.24123">
        <ele>79.2</ele>
        <time>2020-06-30T15:52:35Z</time>
      </trkpt>
      <trkpt lat="49.02715" lon="4.24115">
        <ele>79.2</ele>
        <time>2020-06-30T15:52:36Z</time>
      </trkpt>
      <trkpt lat="49.02718" lon="4.24107">
        <ele>79.2</ele>
        <time>2020-06-30T15:52:37Z</time>
      </trkpt>
      <trkpt lat="49.02721" lon="4.241">
        <ele>79.2</ele>
        <time>2020-06-30T15:52:38Z</time>
      </trkpt>
      <trkpt lat="49.02724" lon="4.24092">
        <ele>79.3</ele>
        <time>2020-06-30T15:52:39Z</time>
      </trkpt>
      <trkpt lat="49.02726" lon="4.24083">
        <ele>79.3</ele>
        <time>2020-06-30T15:52:40Z</time>
      </trkpt>
      <trkpt lat="49.02729" lon="4.24075">
        <ele>79.3</ele>
        <time>2020-06-30T15:52:41Z</time>
      </trkpt>
      <trkpt lat="49.02731" lon="4.24068">
        <ele>79.3</ele>
        <time>2020-06-30T15:52:42Z</time>
      </trkpt>
      <trkpt lat="49.02733" lon="4.2406">
        <ele>79.3</ele>
        <time>2020-06-30T15:52:43Z</time>
      </trkpt>
      <trkpt lat="49.02735" lon="4.24054">
        <ele>79.3</ele>
        <time>2020-06-30T15:52:44Z</time>
      </trkpt>
      <trkpt lat="49.02737" lon="4.24048">
        <ele>79.3</ele>
        <time>2020-06-30T15:52:45Z</time>
      </trkpt>
      <trkpt lat="49.02739" lon="4.24041">
        <ele>79.4</ele>
        <time>2020-06-30T15:52:46Z</time>
      </trkpt>
      <trkpt lat="49.02741" lon="4.24034">
        <ele>79.4</ele>
        <time>2020-06-30T15:52:47Z</time>
      </trkpt>
      <trkpt lat="49.02744" lon="4.24027">
        <ele>79.4</ele>
        <time>2020-06-30T15:52:48Z</time>
      </trkpt>
      <trkpt lat="49.02746" lon="4.24018">
        <ele>79.4</ele>
        <time>2020-06-30T15:52:49Z</time>
      </trkpt>
      <trkpt lat="49.02748" lon="4.24009">
        <ele>79.5</ele>
        <time>2020-06-30T15:52:50Z</time>
      </trkpt>
      <trkpt lat="49.0275" lon="4.24">
        <ele>79.5</ele>
        <time>2020-06-30T15:52:51Z</time>
      </trkpt>
      <trkpt lat="49.02752" lon="4.23992">
        <ele>79.6</ele>
        <time>2020-06-30T15:52:52Z</time>
      </trkpt>
      <trkpt lat="49.02754" lon="4.23985">
        <ele>79.6</ele>
        <time>2020-06-30T15:52:53Z</time>
      </trkpt>
      <trkpt lat="49.02757" lon="4.23978">
        <ele>79.7</ele>
        <time>2020-06-30T15:52:54Z</time>
      </trkpt>
      <trkpt lat="49.02759" lon="4.23969">
        <ele>79.7</ele>
        <time>2020-06-30T15:52:55Z</time>
      </trkpt>
      <trkpt lat="49.02761" lon="4.23961">
        <ele>79.7</ele>
        <time>2020-06-30T15:52:56Z</time>
      </trkpt>
      <trkpt lat="49.02763" lon="4.23952">
        <ele>79.7</ele>
        <time>2020-06-30T15:52:57Z</time>
      </trkpt>
      <trkpt lat="49.02764" lon="4.23943">
        <ele>79.7</ele>
        <time>2020-06-30T15:52:58Z</time>
      </trkpt>
      <trkpt lat="49.02766" lon="4.23936">
        <ele>79.8</ele>
        <time>2020-06-30T15:52:59Z</time>
      </trkpt>
      <trkpt lat="49.02768" lon="4.23926">
        <ele>79.8</ele>
        <time>2020-06-30T15:53:00Z</time>
      </trkpt>
      <trkpt lat="49.02771" lon="4.2392">
        <ele>79.8</ele>
        <time>2020-06-30T15:53:01Z</time>
      </trkpt>
      <trkpt lat="49.02774" lon="4.23911">
        <ele>79.9</ele>
        <time>2020-06-30T15:53:02Z</time>
      </trkpt>
      <trkpt lat="49.02776" lon="4.23904">
        <ele>79.9</ele>
        <time>2020-06-30T15:53:03Z</time>
      </trkpt>
      <trkpt lat="49.02778" lon="4.23896">
        <ele>79.9</ele>
        <time>2020-06-30T15:53:04Z</time>
      </trkpt>
      <trkpt lat="49.0278" lon="4.23887">
        <ele>80</ele>
        <time>2020-06-30T15:53:05Z</time>
      </trkpt>
      <trkpt lat="49.02782" lon="4.23879">
        <ele>80</ele>
        <time>2020-06-30T15:53:06Z</time>
      </trkpt>
      <trkpt lat="49.02784" lon="4.2387">
        <ele>80</ele>
        <time>2020-06-30T15:53:07Z</time>
      </trkpt>
      <trkpt lat="49.02786" lon="4.23862">
        <ele>80</ele>
        <time>2020-06-30T15:53:08Z</time>
      </trkpt>
      <trkpt lat="49.02788" lon="4.23856">
        <ele>80</ele>
        <time>2020-06-30T15:53:09Z</time>
      </trkpt>
      <trkpt lat="49.02789" lon="4.23849">
        <ele>80</ele>
        <time>2020-06-30T15:53:10Z</time>
      </trkpt>
      <trkpt lat="49.02792" lon="4.23841">
        <ele>80.1</ele>
        <time>2020-06-30T15:53:11Z</time>
      </trkpt>
      <trkpt lat="49.02794" lon="4.23834">
        <ele>80.1</ele>
        <time>2020-06-30T15:53:12Z</time>
      </trkpt>
      <trkpt lat="49.02795" lon="4.23826">
        <ele>80.1</ele>
        <time>2020-06-30T15:53:13Z</time>
      </trkpt>
      <trkpt lat="49.02797" lon="4.23819">
        <ele>80.1</ele>
        <time>2020-06-30T15:53:14Z</time>
      </trkpt>
      <trkpt lat="49.02799" lon="4.23812">
        <ele>80.1</ele>
        <time>2020-06-30T15:53:15Z</time>
      </trkpt>
      <trkpt lat="49.02801" lon="4.23804">
        <ele>80.2</ele>
        <time>2020-06-30T15:53:16Z</time>
      </trkpt>
      <trkpt lat="49.02803" lon="4.23797">
        <ele>80.2</ele>
        <time>2020-06-30T15:53:17Z</time>
      </trkpt>
      <trkpt lat="49.02805" lon="4.23789">
        <ele>80.2</ele>
        <time>2020-06-30T15:53:18Z</time>
      </trkpt>
      <trkpt lat="49.02806" lon="4.2378">
        <ele>80.2</ele>
        <time>2020-06-30T15:53:19Z</time>
      </trkpt>
      <trkpt lat="49.02808" lon="4.23772">
        <ele>80.3</ele>
        <time>2020-06-30T15:53:20Z</time>
      </trkpt>
      <trkpt lat="49.02809" lon="4.23763">
        <ele>80.3</ele>
        <time>2020-06-30T15:53:21Z</time>
      </trkpt>
      <trkpt lat="49.02812" lon="4.23755">
        <ele>80.4</ele>
        <time>2020-06-30T15:53:22Z</time>
      </trkpt>
      <trkpt lat="49.02813" lon="4.23747">
        <ele>80.4</ele>
        <time>2020-06-30T15:53:23Z</time>
      </trkpt>
      <trkpt lat="49.02815" lon="4.23738">
        <ele>80.5</ele>
        <time>2020-06-30T15:53:24Z</time>
      </trkpt>
      <trkpt lat="49.02816" lon="4.23732">
        <ele>80.5</ele>
        <time>2020-06-30T15:53:25Z</time>
      </trkpt>
      <trkpt lat="49.02817" lon="4.23726">
        <ele>80.5</ele>
        <time>2020-06-30T15:53:26Z</time>
      </trkpt>
      <trkpt lat="49.02818" lon="4.23717">
        <ele>80.5</ele>
        <time>2020-06-30T15:53:27Z</time>
      </trkpt>
      <trkpt lat="49.02819" lon="4.23712">
        <ele>80.4</ele>
        <time>2020-06-30T15:53:28Z</time>
      </trkpt>
      <trkpt lat="49.0282" lon="4.23706">
        <ele>80.4</ele>
        <time>2020-06-30T15:53:29Z</time>
      </trkpt>
      <trkpt lat="49.02822" lon="4.237">
        <ele>80.4</ele>
        <time>2020-06-30T15:53:30Z</time>
      </trkpt>
      <trkpt lat="49.02824" lon="4.23691">
        <ele>80.5</ele>
        <time>2020-06-30T15:53:31Z</time>
      </trkpt>
      <trkpt lat="49.02826" lon="4.23682">
        <ele>80.5</ele>
        <time>2020-06-30T15:53:32Z</time>
      </trkpt>
      <trkpt lat="49.02827" lon="4.23673">
        <ele>80.5</ele>
        <time>2020-06-30T15:53:33Z</time>
      </trkpt>
      <trkpt lat="49.02829" lon="4.23664">
        <ele>80.3</ele>
        <time>2020-06-30T15:53:34Z</time>
      </trkpt>
      <trkpt lat="49.0283" lon="4.23656">
        <ele>80.1</ele>
        <time>2020-06-30T15:53:35Z</time>
      </trkpt>
      <trkpt lat="49.02831" lon="4.23647">
        <ele>79.9</ele>
        <time>2020-06-30T15:53:36Z</time>
      </trkpt>
      <trkpt lat="49.02832" lon="4.23639">
        <ele>79.7</ele>
        <time>2020-06-30T15:53:37Z</time>
      </trkpt>
      <trkpt lat="49.02833" lon="4.23629">
        <ele>79.5</ele>
        <time>2020-06-30T15:53:38Z</time>
      </trkpt>
      <trkpt lat="49.02834" lon="4.23623">
        <ele>79.4</ele>
        <time>2020-06-30T15:53:39Z</time>
      </trkpt>
      <trkpt lat="49.02835" lon="4.23615">
        <ele>79.3</ele>
        <time>2020-06-30T15:53:40Z</time>
      </trkpt>
      <trkpt lat="49.02837" lon="4.23606">
        <ele>79.2</ele>
        <time>2020-06-30T15:53:41Z</time>
      </trkpt>
      <trkpt lat="49.02837" lon="4.23597">
        <ele>79.1</ele>
        <time>2020-06-30T15:53:42Z</time>
      </trkpt>
      <trkpt lat="49.02838" lon="4.23589">
        <ele>79</ele>
        <time>2020-06-30T15:53:43Z</time>
      </trkpt>
      <trkpt lat="49.02839" lon="4.23578">
        <ele>78.9</ele>
        <time>2020-06-30T15:53:44Z</time>
      </trkpt>
      <trkpt lat="49.0284" lon="4.23569">
        <ele>78.8</ele>
        <time>2020-06-30T15:53:45Z</time>
      </trkpt>
      <trkpt lat="49.02842" lon="4.23561">
        <ele>78.7</ele>
        <time>2020-06-30T15:53:46Z</time>
      </trkpt>
      <trkpt lat="49.02843" lon="4.23552">
        <ele>78.6</ele>
        <time>2020-06-30T15:53:47Z</time>
      </trkpt>
      <trkpt lat="49.02844" lon="4.23544">
        <ele>78.5</ele>
        <time>2020-06-30T15:53:48Z</time>
      </trkpt>
      <trkpt lat="49.02845" lon="4.23535">
        <ele>78.4</ele>
        <time>2020-06-30T15:53:49Z</time>
      </trkpt>
      <trkpt lat="49.02845" lon="4.23525">
        <ele>78.2</ele>
        <time>2020-06-30T15:53:50Z</time>
      </trkpt>
      <trkpt lat="49.02847" lon="4.23515">
        <ele>78.2</ele>
        <time>2020-06-30T15:53:51Z</time>
      </trkpt>
      <trkpt lat="49.02847" lon="4.23505">
        <ele>78</ele>
        <time>2020-06-30T15:53:52Z</time>
      </trkpt>
      <trkpt lat="49.02848" lon="4.23497">
        <ele>77.9</ele>
        <time>2020-06-30T15:53:53Z</time>
      </trkpt>
      <trkpt lat="49.02849" lon="4.23489">
        <ele>77.7</ele>
        <time>2020-06-30T15:53:54Z</time>
      </trkpt>
      <trkpt lat="49.0285" lon="4.23479">
        <ele>77.6</ele>
        <time>2020-06-30T15:53:55Z</time>
      </trkpt>
      <trkpt lat="49.02851" lon="4.23469">
        <ele>77.4</ele>
        <time>2020-06-30T15:53:56Z</time>
      </trkpt>
      <trkpt lat="49.02852" lon="4.23459">
        <ele>77.3</ele>
        <time>2020-06-30T15:53:57Z</time>
      </trkpt>
      <trkpt lat="49.02853" lon="4.2345">
        <ele>77.2</ele>
        <time>2020-06-30T15:53:58Z</time>
      </trkpt>
      <trkpt lat="49.02854" lon="4.23442">
        <ele>77.1</ele>
        <time>2020-06-30T15:53:59Z</time>
      </trkpt>
      <trkpt lat="49.02853" lon="4.23435">
        <ele>77.1</ele>
        <time>2020-06-30T15:54:00Z</time>
      </trkpt>
      <trkpt lat="49.02854" lon="4.23426">
        <ele>77</ele>
        <time>2020-06-30T15:54:01Z</time>
      </trkpt>
      <trkpt lat="49.02855" lon="4.23416">
        <ele>77</ele>
        <time>2020-06-30T15:54:02Z</time>
      </trkpt>
      <trkpt lat="49.02855" lon="4.23408">
        <ele>77</ele>
        <time>2020-06-30T15:54:03Z</time>
      </trkpt>
      <trkpt lat="49.02857" lon="4.23397">
        <ele>76.9</ele>
        <time>2020-06-30T15:54:04Z</time>
      </trkpt>
      <trkpt lat="49.02858" lon="4.23386">
        <ele>76.9</ele>
        <time>2020-06-30T15:54:05Z</time>
      </trkpt>
      <trkpt lat="49.02859" lon="4.23377">
        <ele>76.9</ele>
        <time>2020-06-30T15:54:06Z</time>
      </trkpt>
      <trkpt lat="49.0286" lon="4.23369">
        <ele>76.9</ele>
        <time>2020-06-30T15:54:07Z</time>
      </trkpt>
      <trkpt lat="49.02861" lon="4.2336">
        <ele>76.9</ele>
        <time>2020-06-30T15:54:08Z</time>
      </trkpt>
      <trkpt lat="49.02862" lon="4.23351">
        <ele>76.8</ele>
        <time>2020-06-30T15:54:09Z</time>
      </trkpt>
      <trkpt lat="49.02863" lon="4.23343">
        <ele>76.8</ele>
        <time>2020-06-30T15:54:10Z</time>
      </trkpt>
      <trkpt lat="49.02864" lon="4.23335">
        <ele>76.8</ele>
        <time>2020-06-30T15:54:11Z</time>
      </trkpt>
      <trkpt lat="49.02865" lon="4.23326">
        <ele>76.9</ele>
        <time>2020-06-30T15:54:12Z</time>
      </trkpt>
      <trkpt lat="49.02866" lon="4.23317">
        <ele>76.9</ele>
        <time>2020-06-30T15:54:13Z</time>
      </trkpt>
      <trkpt lat="49.02867" lon="4.23307">
        <ele>76.7</ele>
        <time>2020-06-30T15:54:14Z</time>
      </trkpt>
      <trkpt lat="49.02868" lon="4.23297">
        <ele>76.6</ele>
        <time>2020-06-30T15:54:15Z</time>
      </trkpt>
      <trkpt lat="49.0287" lon="4.23286">
        <ele>76.5</ele>
        <time>2020-06-30T15:54:16Z</time>
      </trkpt>
      <trkpt lat="49.02871" lon="4.23277">
        <ele>76.5</ele>
        <time>2020-06-30T15:54:17Z</time>
      </trkpt>
      <trkpt lat="49.02872" lon="4.23267">
        <ele>76.4</ele>
        <time>2020-06-30T15:54:18Z</time>
      </trkpt>
      <trkpt lat="49.02873" lon="4.23257">
        <ele>76.4</ele>
        <time>2020-06-30T15:54:19Z</time>
      </trkpt>
      <trkpt lat="49.02874" lon="4.23248">
        <ele>76.3</ele>
        <time>2020-06-30T15:54:20Z</time>
      </trkpt>
      <trkpt lat="49.02875" lon="4.23238">
        <ele>76.3</ele>
        <time>2020-06-30T15:54:21Z</time>
      </trkpt>
      <trkpt lat="49.02877" lon="4.2323">
        <ele>76.3</ele>
        <time>2020-06-30T15:54:22Z</time>
      </trkpt>
      <trkpt lat="49.02878" lon="4.23221">
        <ele>76.4</ele>
        <time>2020-06-30T15:54:23Z</time>
      </trkpt>
      <trkpt lat="49.02879" lon="4.2321">
        <ele>76.4</ele>
        <time>2020-06-30T15:54:24Z</time>
      </trkpt>
      <trkpt lat="49.0288" lon="4.23204">
        <ele>76.4</ele>
        <time>2020-06-30T15:54:25Z</time>
      </trkpt>
      <trkpt lat="49.02881" lon="4.23196">
        <ele>76.4</ele>
        <time>2020-06-30T15:54:26Z</time>
      </trkpt>
      <trkpt lat="49.02884" lon="4.23188">
        <ele>76.5</ele>
        <time>2020-06-30T15:54:27Z</time>
      </trkpt>
      <trkpt lat="49.02887" lon="4.23181">
        <ele>76.5</ele>
        <time>2020-06-30T15:54:28Z</time>
      </trkpt>
      <trkpt lat="49.0289" lon="4.23175">
        <ele>76.5</ele>
        <time>2020-06-30T15:54:29Z</time>
      </trkpt>
      <trkpt lat="49.02892" lon="4.23166">
        <ele>76.6</ele>
        <time>2020-06-30T15:54:30Z</time>
      </trkpt>
      <trkpt lat="49.02895" lon="4.23158">
        <ele>76.7</ele>
        <time>2020-06-30T15:54:31Z</time>
      </trkpt>
      <trkpt lat="49.02898" lon="4.23151">
        <ele>76.7</ele>
        <time>2020-06-30T15:54:32Z</time>
      </trkpt>
      <trkpt lat="49.029" lon="4.23144">
        <ele>76.7</ele>
        <time>2020-06-30T15:54:33Z</time>
      </trkpt>
      <trkpt lat="49.02903" lon="4.23137">
        <ele>76.8</ele>
        <time>2020-06-30T15:54:34Z</time>
      </trkpt>
      <trkpt lat="49.02905" lon="4.23131">
        <ele>76.8</ele>
        <time>2020-06-30T15:54:35Z</time>
      </trkpt>
      <trkpt lat="49.02907" lon="4.23123">
        <ele>76.9</ele>
        <time>2020-06-30T15:54:36Z</time>
      </trkpt>
      <trkpt lat="49.02909" lon="4.23117">
        <ele>77.1</ele>
        <time>2020-06-30T15:54:37Z</time>
      </trkpt>
      <trkpt lat="49.02912" lon="4.2311">
        <ele>77.2</ele>
        <time>2020-06-30T15:54:38Z</time>
      </trkpt>
      <trkpt lat="49.02914" lon="4.23103">
        <ele>77.3</ele>
        <time>2020-06-30T15:54:39Z</time>
      </trkpt>
      <trkpt lat="49.02916" lon="4.23096">
        <ele>77.4</ele>
        <time>2020-06-30T15:54:40Z</time>
      </trkpt>
      <trkpt lat="49.02919" lon="4.23088">
        <ele>77.6</ele>
        <time>2020-06-30T15:54:41Z</time>
      </trkpt>
      <trkpt lat="49.02921" lon="4.23082">
        <ele>77.7</ele>
        <time>2020-06-30T15:54:42Z</time>
      </trkpt>
      <trkpt lat="49.02924" lon="4.23075">
        <ele>77.8</ele>
        <time>2020-06-30T15:54:43Z</time>
      </trkpt>
      <trkpt lat="49.02925" lon="4.23071">
        <ele>77.9</ele>
        <time>2020-06-30T15:54:44Z</time>
      </trkpt>
      <trkpt lat="49.02928" lon="4.23064">
        <ele>78</ele>
        <time>2020-06-30T15:54:45Z</time>
      </trkpt>
      <trkpt lat="49.0293" lon="4.23059">
        <ele>78.1</ele>
        <time>2020-06-30T15:54:46Z</time>
      </trkpt>
      <trkpt lat="49.02931" lon="4.23054">
        <ele>78.2</ele>
        <time>2020-06-30T15:54:47Z</time>
      </trkpt>
      <trkpt lat="49.02934" lon="4.23045">
        <ele>78.4</ele>
        <time>2020-06-30T15:54:48Z</time>
      </trkpt>
      <trkpt lat="49.02935" lon="4.23038">
        <ele>78.5</ele>
        <time>2020-06-30T15:54:49Z</time>
      </trkpt>
      <trkpt lat="49.02937" lon="4.23032">
        <ele>78.6</ele>
        <time>2020-06-30T15:54:50Z</time>
      </trkpt>
      <trkpt lat="49.02938" lon="4.23024">
        <ele>78.7</ele>
        <time>2020-06-30T15:54:51Z</time>
      </trkpt>
      <trkpt lat="49.0294" lon="4.23017">
        <ele>78.8</ele>
        <time>2020-06-30T15:54:52Z</time>
      </trkpt>
      <trkpt lat="49.02942" lon="4.23009">
        <ele>79</ele>
        <time>2020-06-30T15:54:53Z</time>
      </trkpt>
      <trkpt lat="49.02945" lon="4.23003">
        <ele>79</ele>
        <time>2020-06-30T15:54:54Z</time>
      </trkpt>
      <trkpt lat="49.02948" lon="4.22996">
        <ele>79.1</ele>
        <time>2020-06-30T15:54:55Z</time>
      </trkpt>
      <trkpt lat="49.0295" lon="4.2299">
        <ele>79.2</ele>
        <time>2020-06-30T15:54:56Z</time>
      </trkpt>
      <trkpt lat="49.02953" lon="4.22983">
        <ele>79.3</ele>
        <time>2020-06-30T15:54:57Z</time>
      </trkpt>
      <trkpt lat="49.02954" lon="4.22974">
        <ele>79.4</ele>
        <time>2020-06-30T15:54:58Z</time>
      </trkpt>
      <trkpt lat="49.02957" lon="4.22967">
        <ele>79.4</ele>
        <time>2020-06-30T15:54:59Z</time>
      </trkpt>
      <trkpt lat="49.0296" lon="4.22959">
        <ele>79.5</ele>
        <time>2020-06-30T15:55:00Z</time>
      </trkpt>
      <trkpt lat="49.02961" lon="4.22953">
        <ele>79.5</ele>
        <time>2020-06-30T15:55:01Z</time>
      </trkpt>
      <trkpt lat="49.02964" lon="4.22945">
        <ele>79.6</ele>
        <time>2020-06-30T15:55:02Z</time>
      </trkpt>
      <trkpt lat="49.02966" lon="4.22937">
        <ele>79.7</ele>
        <time>2020-06-30T15:55:03Z</time>
      </trkpt>
      <trkpt lat="49.02968" lon="4.22931">
        <ele>79.7</ele>
        <time>2020-06-30T15:55:04Z</time>
      </trkpt>
      <trkpt lat="49.0297" lon="4.22923">
        <ele>79.7</ele>
        <time>2020-06-30T15:55:05Z</time>
      </trkpt>
      <trkpt lat="49.02973" lon="4.22915">
        <ele>79.8</ele>
        <time>2020-06-30T15:55:06Z</time>
      </trkpt>
      <trkpt lat="49.02976" lon="4.22908">
        <ele>79.8</ele>
        <time>2020-06-30T15:55:07Z</time>
      </trkpt>
      <trkpt lat="49.02977" lon="4.22903">
        <ele>79.8</ele>
        <time>2020-06-30T15:55:08Z</time>
      </trkpt>
      <trkpt lat="49.0298" lon="4.22894">
        <ele>79.8</ele>
        <time>2020-06-30T15:55:09Z</time>
      </trkpt>
      <trkpt lat="49.02982" lon="4.22887">
        <ele>79.8</ele>
        <time>2020-06-30T15:55:10Z</time>
      </trkpt>
      <trkpt lat="49.02984" lon="4.22881">
        <ele>79.9</ele>
        <time>2020-06-30T15:55:11Z</time>
      </trkpt>
      <trkpt lat="49.02986" lon="4.22875">
        <ele>79.9</ele>
        <time>2020-06-30T15:55:12Z</time>
      </trkpt>
      <trkpt lat="49.02987" lon="4.22867">
        <ele>79.9</ele>
        <time>2020-06-30T15:55:13Z</time>
      </trkpt>
      <trkpt lat="49.0299" lon="4.22859">
        <ele>79.9</ele>
        <time>2020-06-30T15:55:14Z</time>
      </trkpt>
      <trkpt lat="49.02993" lon="4.22851">
        <ele>79.9</ele>
        <time>2020-06-30T15:55:15Z</time>
      </trkpt>
      <trkpt lat="49.02996" lon="4.22843">
        <ele>80</ele>
        <time>2020-06-30T15:55:16Z</time>
      </trkpt>
      <trkpt lat="49.02999" lon="4.22835">
        <ele>80</ele>
        <time>2020-06-30T15:55:17Z</time>
      </trkpt>
      <trkpt lat="49.03001" lon="4.22827">
        <ele>80</ele>
        <time>2020-06-30T15:55:18Z</time>
      </trkpt>
      <trkpt lat="49.03003" lon="4.22819">
        <ele>80</ele>
        <time>2020-06-30T15:55:19Z</time>
      </trkpt>
      <trkpt lat="49.03005" lon="4.22811">
        <ele>80</ele>
        <time>2020-06-30T15:55:20Z</time>
      </trkpt>
      <trkpt lat="49.03008" lon="4.22802">
        <ele>80</ele>
        <time>2020-06-30T15:55:21Z</time>
      </trkpt>
      <trkpt lat="49.0301" lon="4.22796">
        <ele>80</ele>
        <time>2020-06-30T15:55:22Z</time>
      </trkpt>
      <trkpt lat="49.03012" lon="4.22788">
        <ele>80</ele>
        <time>2020-06-30T15:55:23Z</time>
      </trkpt>
      <trkpt lat="49.03015" lon="4.22778">
        <ele>80</ele>
        <time>2020-06-30T15:55:24Z</time>
      </trkpt>
      <trkpt lat="49.03018" lon="4.22771">
        <ele>80</ele>
        <time>2020-06-30T15:55:25Z</time>
      </trkpt>
      <trkpt lat="49.03021" lon="4.22762">
        <ele>80.1</ele>
        <time>2020-06-30T15:55:26Z</time>
      </trkpt>
      <trkpt lat="49.03024" lon="4.22754">
        <ele>80.1</ele>
        <time>2020-06-30T15:55:27Z</time>
      </trkpt>
      <trkpt lat="49.03027" lon="4.22746">
        <ele>80.1</ele>
        <time>2020-06-30T15:55:28Z</time>
      </trkpt>
      <trkpt lat="49.03029" lon="4.22739">
        <ele>80.1</ele>
        <time>2020-06-30T15:55:29Z</time>
      </trkpt>
      <trkpt lat="49.03032" lon="4.22732">
        <ele>80.1</ele>
        <time>2020-06-30T15:55:30Z</time>
      </trkpt>
      <trkpt lat="49.03034" lon="4.22724">
        <ele>80.1</ele>
        <time>2020-06-30T15:55:31Z</time>
      </trkpt>
      <trkpt lat="49.03036" lon="4.22715">
        <ele>80.1</ele>
        <time>2020-06-30T15:55:32Z</time>
      </trkpt>
      <trkpt lat="49.03039" lon="4.22707">
        <ele>80.1</ele>
        <time>2020-06-30T15:55:33Z</time>
      </trkpt>
      <trkpt lat="49.03041" lon="4.22699">
        <ele>80</ele>
        <time>2020-06-30T15:55:34Z</time>
      </trkpt>
      <trkpt lat="49.03045" lon="4.2269">
        <ele>80</ele>
        <time>2020-06-30T15:55:35Z</time>
      </trkpt>
      <trkpt lat="49.03048" lon="4.22681">
        <ele>80</ele>
        <time>2020-06-30T15:55:36Z</time>
      </trkpt>
      <trkpt lat="49.0305" lon="4.22673">
        <ele>80</ele>
        <time>2020-06-30T15:55:37Z</time>
      </trkpt>
      <trkpt lat="49.03053" lon="4.22663">
        <ele>80</ele>
        <time>2020-06-30T15:55:38Z</time>
      </trkpt>
      <trkpt lat="49.03056" lon="4.22655">
        <ele>79.9</ele>
        <time>2020-06-30T15:55:39Z</time>
      </trkpt>
      <trkpt lat="49.03058" lon="4.22648">
        <ele>79.9</ele>
        <time>2020-06-30T15:55:40Z</time>
      </trkpt>
      <trkpt lat="49.03061" lon="4.2264">
        <ele>79.9</ele>
        <time>2020-06-30T15:55:41Z</time>
      </trkpt>
      <trkpt lat="49.03064" lon="4.22631">
        <ele>80</ele>
        <time>2020-06-30T15:55:42Z</time>
      </trkpt>
      <trkpt lat="49.03066" lon="4.22622">
        <ele>80</ele>
        <time>2020-06-30T15:55:43Z</time>
      </trkpt>
      <trkpt lat="49.03069" lon="4.22614">
        <ele>80</ele>
        <time>2020-06-30T15:55:44Z</time>
      </trkpt>
      <trkpt lat="49.03071" lon="4.22607">
        <ele>80.1</ele>
        <time>2020-06-30T15:55:45Z</time>
      </trkpt>
      <trkpt lat="49.03074" lon="4.22597">
        <ele>80.1</ele>
        <time>2020-06-30T15:55:46Z</time>
      </trkpt>
      <trkpt lat="49.03076" lon="4.22589">
        <ele>80.1</ele>
        <time>2020-06-30T15:55:47Z</time>
      </trkpt>
      <trkpt lat="49.03079" lon="4.22581">
        <ele>80.2</ele>
        <time>2020-06-30T15:55:48Z</time>
      </trkpt>
      <trkpt lat="49.03082" lon="4.22572">
        <ele>80.2</ele>
        <time>2020-06-30T15:55:49Z</time>
      </trkpt>
      <trkpt lat="49.03085" lon="4.22563">
        <ele>80.2</ele>
        <time>2020-06-30T15:55:50Z</time>
      </trkpt>
      <trkpt lat="49.03087" lon="4.22555">
        <ele>80.2</ele>
        <time>2020-06-30T15:55:51Z</time>
      </trkpt>
      <trkpt lat="49.0309" lon="4.22546">
        <ele>80.2</ele>
        <time>2020-06-30T15:55:52Z</time>
      </trkpt>
      <trkpt lat="49.03093" lon="4.2254">
        <ele>80.3</ele>
        <time>2020-06-30T15:55:53Z</time>
      </trkpt>
      <trkpt lat="49.03095" lon="4.22533">
        <ele>80.3</ele>
        <time>2020-06-30T15:55:54Z</time>
      </trkpt>
      <trkpt lat="49.03097" lon="4.22527">
        <ele>80.3</ele>
        <time>2020-06-30T15:55:55Z</time>
      </trkpt>
      <trkpt lat="49.03099" lon="4.22519">
        <ele>80.3</ele>
        <time>2020-06-30T15:55:56Z</time>
      </trkpt>
      <trkpt lat="49.03101" lon="4.22511">
        <ele>80.4</ele>
        <time>2020-06-30T15:55:57Z</time>
      </trkpt>
      <trkpt lat="49.03104" lon="4.22502">
        <ele>80.4</ele>
        <time>2020-06-30T15:55:58Z</time>
      </trkpt>
      <trkpt lat="49.03106" lon="4.22495">
        <ele>80.4</ele>
        <time>2020-06-30T15:55:59Z</time>
      </trkpt>
      <trkpt lat="49.03108" lon="4.22489">
        <ele>80.5</ele>
        <time>2020-06-30T15:56:00Z</time>
      </trkpt>
      <trkpt lat="49.0311" lon="4.22481">
        <ele>80.5</ele>
        <time>2020-06-30T15:56:01Z</time>
      </trkpt>
      <trkpt lat="49.03112" lon="4.22473">
        <ele>80.5</ele>
        <time>2020-06-30T15:56:02Z</time>
      </trkpt>
      <trkpt lat="49.03114" lon="4.22465">
        <ele>80.5</ele>
        <time>2020-06-30T15:56:03Z</time>
      </trkpt>
      <trkpt lat="49.03117" lon="4.22458">
        <ele>80.5</ele>
        <time>2020-06-30T15:56:04Z</time>
      </trkpt>
      <trkpt lat="49.0312" lon="4.22449">
        <ele>80.6</ele>
        <time>2020-06-30T15:56:05Z</time>
      </trkpt>
      <trkpt lat="49.03123" lon="4.2244">
        <ele>80.6</ele>
        <time>2020-06-30T15:56:06Z</time>
      </trkpt>
      <trkpt lat="49.03126" lon="4.22435">
        <ele>80.6</ele>
        <time>2020-06-30T15:56:07Z</time>
      </trkpt>
      <trkpt lat="49.03128" lon="4.22426">
        <ele>80.6</ele>
        <time>2020-06-30T15:56:08Z</time>
      </trkpt>
      <trkpt lat="49.0313" lon="4.22419">
        <ele>80.6</ele>
        <time>2020-06-30T15:56:09Z</time>
      </trkpt>
      <trkpt lat="49.03133" lon="4.22411">
        <ele>80.6</ele>
        <time>2020-06-30T15:56:10Z</time>
      </trkpt>
      <trkpt lat="49.03136" lon="4.22404">
        <ele>80.6</ele>
        <time>2020-06-30T15:56:11Z</time>
      </trkpt>
      <trkpt lat="49.03139" lon="4.22395">
        <ele>80.7</ele>
        <time>2020-06-30T15:56:12Z</time>
      </trkpt>
      <trkpt lat="49.03141" lon="4.22386">
        <ele>80.7</ele>
        <time>2020-06-30T15:56:13Z</time>
      </trkpt>
      <trkpt lat="49.03143" lon="4.22379">
        <ele>80.8</ele>
        <time>2020-06-30T15:56:14Z</time>
      </trkpt>
      <trkpt lat="49.03147" lon="4.22371">
        <ele>80.8</ele>
        <time>2020-06-30T15:56:15Z</time>
      </trkpt>
      <trkpt lat="49.0315" lon="4.22362">
        <ele>80.8</ele>
        <time>2020-06-30T15:56:16Z</time>
      </trkpt>
      <trkpt lat="49.03153" lon="4.22354">
        <ele>80.7</ele>
        <time>2020-06-30T15:56:17Z</time>
      </trkpt>
      <trkpt lat="49.03155" lon="4.22347">
        <ele>80.7</ele>
        <time>2020-06-30T15:56:18Z</time>
      </trkpt>
      <trkpt lat="49.03158" lon="4.22339">
        <ele>80.6</ele>
        <time>2020-06-30T15:56:19Z</time>
      </trkpt>
      <trkpt lat="49.03161" lon="4.22331">
        <ele>80.6</ele>
        <time>2020-06-30T15:56:20Z</time>
      </trkpt>
      <trkpt lat="49.03163" lon="4.22321">
        <ele>80.5</ele>
        <time>2020-06-30T15:56:21Z</time>
      </trkpt>
      <trkpt lat="49.03166" lon="4.22313">
        <ele>80.5</ele>
        <time>2020-06-30T15:56:22Z</time>
      </trkpt>
      <trkpt lat="49.03169" lon="4.22304">
        <ele>80.5</ele>
        <time>2020-06-30T15:56:23Z</time>
      </trkpt>
      <trkpt lat="49.03172" lon="4.22295">
        <ele>80.4</ele>
        <time>2020-06-30T15:56:24Z</time>
      </trkpt>
      <trkpt lat="49.03174" lon="4.22286">
        <ele>80.4</ele>
        <time>2020-06-30T15:56:25Z</time>
      </trkpt>
      <trkpt lat="49.03177" lon="4.22277">
        <ele>80.3</ele>
        <time>2020-06-30T15:56:26Z</time>
      </trkpt>
      <trkpt lat="49.03179" lon="4.22268">
        <ele>80.2</ele>
        <time>2020-06-30T15:56:27Z</time>
      </trkpt>
      <trkpt lat="49.03182" lon="4.2226">
        <ele>80.2</ele>
        <time>2020-06-30T15:56:28Z</time>
      </trkpt>
      <trkpt lat="49.03185" lon="4.22251">
        <ele>80.1</ele>
        <time>2020-06-30T15:56:29Z</time>
      </trkpt>
      <trkpt lat="49.03187" lon="4.22243">
        <ele>80.1</ele>
        <time>2020-06-30T15:56:30Z</time>
      </trkpt>
      <trkpt lat="49.0319" lon="4.22234">
        <ele>80</ele>
        <time>2020-06-30T15:56:31Z</time>
      </trkpt>
      <trkpt lat="49.03192" lon="4.22227">
        <ele>79.9</ele>
        <time>2020-06-30T15:56:32Z</time>
      </trkpt>
      <trkpt lat="49.03194" lon="4.22219">
        <ele>79.8</ele>
        <time>2020-06-30T15:56:33Z</time>
      </trkpt>
      <trkpt lat="49.03197" lon="4.22211">
        <ele>79.7</ele>
        <time>2020-06-30T15:56:34Z</time>
      </trkpt>
      <trkpt lat="49.03201" lon="4.22201">
        <ele>79.6</ele>
        <time>2020-06-30T15:56:35Z</time>
      </trkpt>
      <trkpt lat="49.03203" lon="4.22192">
        <ele>79.5</ele>
        <time>2020-06-30T15:56:36Z</time>
      </trkpt>
      <trkpt lat="49.03206" lon="4.22184">
        <ele>79.3</ele>
        <time>2020-06-30T15:56:37Z</time>
      </trkpt>
      <trkpt lat="49.03209" lon="4.22174">
        <ele>79.2</ele>
        <time>2020-06-30T15:56:38Z</time>
      </trkpt>
      <trkpt lat="49.03212" lon="4.22165">
        <ele>79</ele>
        <time>2020-06-30T15:56:39Z</time>
      </trkpt>
      <trkpt lat="49.03215" lon="4.22155">
        <ele>78.8</ele>
        <time>2020-06-30T15:56:40Z</time>
      </trkpt>
      <trkpt lat="49.03218" lon="4.22146">
        <ele>78.7</ele>
        <time>2020-06-30T15:56:41Z</time>
      </trkpt>
      <trkpt lat="49.03221" lon="4.22137">
        <ele>78.6</ele>
        <time>2020-06-30T15:56:42Z</time>
      </trkpt>
      <trkpt lat="49.03223" lon="4.22128">
        <ele>78.5</ele>
        <time>2020-06-30T15:56:43Z</time>
      </trkpt>
      <trkpt lat="49.03226" lon="4.22119">
        <ele>78.4</ele>
        <time>2020-06-30T15:56:44Z</time>
      </trkpt>
      <trkpt lat="49.03229" lon="4.2211">
        <ele>78.3</ele>
        <time>2020-06-30T15:56:45Z</time>
      </trkpt>
      <trkpt lat="49.03232" lon="4.22101">
        <ele>78.4</ele>
        <time>2020-06-30T15:56:46Z</time>
      </trkpt>
      <trkpt lat="49.03235" lon="4.22092">
        <ele>78.4</ele>
        <time>2020-06-30T15:56:47Z</time>
      </trkpt>
      <trkpt lat="49.03238" lon="4.22083">
        <ele>78.4</ele>
        <time>2020-06-30T15:56:48Z</time>
      </trkpt>
      <trkpt lat="49.03241" lon="4.22074">
        <ele>78.3</ele>
        <time>2020-06-30T15:56:49Z</time>
      </trkpt>
      <trkpt lat="49.03244" lon="4.22065">
        <ele>78.1</ele>
        <time>2020-06-30T15:56:50Z</time>
      </trkpt>
      <trkpt lat="49.03246" lon="4.22056">
        <ele>78</ele>
        <time>2020-06-30T15:56:51Z</time>
      </trkpt>
      <trkpt lat="49.03249" lon="4.22047">
        <ele>78</ele>
        <time>2020-06-30T15:56:52Z</time>
      </trkpt>
      <trkpt lat="49.03252" lon="4.22038">
        <ele>77.9</ele>
        <time>2020-06-30T15:56:53Z</time>
      </trkpt>
      <trkpt lat="49.03255" lon="4.22029">
        <ele>77.8</ele>
        <time>2020-06-30T15:56:54Z</time>
      </trkpt>
      <trkpt lat="49.03258" lon="4.2202">
        <ele>77.8</ele>
        <time>2020-06-30T15:56:55Z</time>
      </trkpt>
      <trkpt lat="49.03261" lon="4.22011">
        <ele>77.8</ele>
        <time>2020-06-30T15:56:56Z</time>
      </trkpt>
      <trkpt lat="49.03264" lon="4.22002">
        <ele>77.8</ele>
        <time>2020-06-30T15:56:57Z</time>
      </trkpt>
      <trkpt lat="49.03266" lon="4.21994">
        <ele>77.9</ele>
        <time>2020-06-30T15:56:58Z</time>
      </trkpt>
      <trkpt lat="49.03269" lon="4.21985">
        <ele>77.9</ele>
        <time>2020-06-30T15:56:59Z</time>
      </trkpt>
      <trkpt lat="49.03272" lon="4.21976">
        <ele>77.9</ele>
        <time>2020-06-30T15:57:00Z</time>
      </trkpt>
      <trkpt lat="49.03274" lon="4.21967">
        <ele>78</ele>
        <time>2020-06-30T15:57:01Z</time>
      </trkpt>
      <trkpt lat="49.03277" lon="4.21958">
        <ele>78</ele>
        <time>2020-06-30T15:57:02Z</time>
      </trkpt>
      <trkpt lat="49.0328" lon="4.21949">
        <ele>78</ele>
        <time>2020-06-30T15:57:03Z</time>
      </trkpt>
      <trkpt lat="49.03283" lon="4.21941">
        <ele>78.1</ele>
        <time>2020-06-30T15:57:04Z</time>
      </trkpt>
      <trkpt lat="49.03286" lon="4.21933">
        <ele>78.1</ele>
        <time>2020-06-30T15:57:05Z</time>
      </trkpt>
      <trkpt lat="49.03288" lon="4.21924">
        <ele>78.2</ele>
        <time>2020-06-30T15:57:06Z</time>
      </trkpt>
      <trkpt lat="49.0329" lon="4.21916">
        <ele>78.2</ele>
        <time>2020-06-30T15:57:07Z</time>
      </trkpt>
      <trkpt lat="49.03293" lon="4.21907">
        <ele>78.3</ele>
        <time>2020-06-30T15:57:08Z</time>
      </trkpt>
      <trkpt lat="49.03296" lon="4.21899">
        <ele>78.3</ele>
        <time>2020-06-30T15:57:09Z</time>
      </trkpt>
      <trkpt lat="49.03298" lon="4.21891">
        <ele>78.4</ele>
        <time>2020-06-30T15:57:10Z</time>
      </trkpt>
      <trkpt lat="49.03301" lon="4.21882">
        <ele>78.4</ele>
        <time>2020-06-30T15:57:11Z</time>
      </trkpt>
      <trkpt lat="49.03303" lon="4.21874">
        <ele>78.5</ele>
        <time>2020-06-30T15:57:12Z</time>
      </trkpt>
      <trkpt lat="49.03306" lon="4.21866">
        <ele>78.5</ele>
        <time>2020-06-30T15:57:13Z</time>
      </trkpt>
      <trkpt lat="49.03309" lon="4.21858">
        <ele>78.5</ele>
        <time>2020-06-30T15:57:14Z</time>
      </trkpt>
      <trkpt lat="49.03311" lon="4.2185">
        <ele>78.6</ele>
        <time>2020-06-30T15:57:15Z</time>
      </trkpt>
      <trkpt lat="49.03314" lon="4.21842">
        <ele>78.7</ele>
        <time>2020-06-30T15:57:16Z</time>
      </trkpt>
      <trkpt lat="49.03317" lon="4.21833">
        <ele>78.8</ele>
        <time>2020-06-30T15:57:17Z</time>
      </trkpt>
      <trkpt lat="49.0332" lon="4.21826">
        <ele>78.9</ele>
        <time>2020-06-30T15:57:18Z</time>
      </trkpt>
      <trkpt lat="49.03323" lon="4.21818">
        <ele>79</ele>
        <time>2020-06-30T15:57:19Z</time>
      </trkpt>
      <trkpt lat="49.03325" lon="4.2181">
        <ele>79</ele>
        <time>2020-06-30T15:57:20Z</time>
      </trkpt>
      <trkpt lat="49.03328" lon="4.21802">
        <ele>79.1</ele>
        <time>2020-06-30T15:57:21Z</time>
      </trkpt>
      <trkpt lat="49.0333" lon="4.21795">
        <ele>79.2</ele>
        <time>2020-06-30T15:57:22Z</time>
      </trkpt>
      <trkpt lat="49.03332" lon="4.21787">
        <ele>79.2</ele>
        <time>2020-06-30T15:57:23Z</time>
      </trkpt>
      <trkpt lat="49.03335" lon="4.21779">
        <ele>79.3</ele>
        <time>2020-06-30T15:57:24Z</time>
      </trkpt>
      <trkpt lat="49.03337" lon="4.21771">
        <ele>79.3</ele>
        <time>2020-06-30T15:57:25Z</time>
      </trkpt>
      <trkpt lat="49.03339" lon="4.21763">
        <ele>79.4</ele>
        <time>2020-06-30T15:57:26Z</time>
      </trkpt>
      <trkpt lat="49.03342" lon="4.21755">
        <ele>79.4</ele>
        <time>2020-06-30T15:57:27Z</time>
      </trkpt>
      <trkpt lat="49.03344" lon="4.21747">
        <ele>79.5</ele>
        <time>2020-06-30T15:57:28Z</time>
      </trkpt>
      <trkpt lat="49.03347" lon="4.21739">
        <ele>79.5</ele>
        <time>2020-06-30T15:57:29Z</time>
      </trkpt>
      <trkpt lat="49.03349" lon="4.21731">
        <ele>79.6</ele>
        <time>2020-06-30T15:57:30Z</time>
      </trkpt>
      <trkpt lat="49.03351" lon="4.21723">
        <ele>79.6</ele>
        <time>2020-06-30T15:57:31Z</time>
      </trkpt>
      <trkpt lat="49.03353" lon="4.21715">
        <ele>79.7</ele>
        <time>2020-06-30T15:57:32Z</time>
      </trkpt>
      <trkpt lat="49.03356" lon="4.21707">
        <ele>79.7</ele>
        <time>2020-06-30T15:57:33Z</time>
      </trkpt>
      <trkpt lat="49.0336" lon="4.21699">
        <ele>79.8</ele>
        <time>2020-06-30T15:57:34Z</time>
      </trkpt>
      <trkpt lat="49.03363" lon="4.21691">
        <ele>79.8</ele>
        <time>2020-06-30T15:57:35Z</time>
      </trkpt>
      <trkpt lat="49.03366" lon="4.21683">
        <ele>79.9</ele>
        <time>2020-06-30T15:57:36Z</time>
      </trkpt>
      <trkpt lat="49.03369" lon="4.21675">
        <ele>79.9</ele>
        <time>2020-06-30T15:57:37Z</time>
      </trkpt>
      <trkpt lat="49.03371" lon="4.21666">
        <ele>79.9</ele>
        <time>2020-06-30T15:57:38Z</time>
      </trkpt>
      <trkpt lat="49.03373" lon="4.21658">
        <ele>80</ele>
        <time>2020-06-30T15:57:39Z</time>
      </trkpt>
      <trkpt lat="49.03375" lon="4.2165">
        <ele>80</ele>
        <time>2020-06-30T15:57:40Z</time>
      </trkpt>
      <trkpt lat="49.03377" lon="4.21643">
        <ele>80</ele>
        <time>2020-06-30T15:57:41Z</time>
      </trkpt>
      <trkpt lat="49.03379" lon="4.21634">
        <ele>80.1</ele>
        <time>2020-06-30T15:57:42Z</time>
      </trkpt>
      <trkpt lat="49.03381" lon="4.21627">
        <ele>80.2</ele>
        <time>2020-06-30T15:57:43Z</time>
      </trkpt>
      <trkpt lat="49.03384" lon="4.2162">
        <ele>80.2</ele>
        <time>2020-06-30T15:57:44Z</time>
      </trkpt>
      <trkpt lat="49.03386" lon="4.21612">
        <ele>80.3</ele>
        <time>2020-06-30T15:57:45Z</time>
      </trkpt>
      <trkpt lat="49.03389" lon="4.21604">
        <ele>80.3</ele>
        <time>2020-06-30T15:57:46Z</time>
      </trkpt>
      <trkpt lat="49.03392" lon="4.21595">
        <ele>80.4</ele>
        <time>2020-06-30T15:57:47Z</time>
      </trkpt>
      <trkpt lat="49.03394" lon="4.21587">
        <ele>80.4</ele>
        <time>2020-06-30T15:57:48Z</time>
      </trkpt>
      <trkpt lat="49.03397" lon="4.2158">
        <ele>80.5</ele>
        <time>2020-06-30T15:57:49Z</time>
      </trkpt>
      <trkpt lat="49.034" lon="4.21571">
        <ele>80.5</ele>
        <time>2020-06-30T15:57:50Z</time>
      </trkpt>
      <trkpt lat="49.03403" lon="4.21561">
        <ele>80.5</ele>
        <time>2020-06-30T15:57:51Z</time>
      </trkpt>
      <trkpt lat="49.03405" lon="4.21554">
        <ele>80.5</ele>
        <time>2020-06-30T15:57:52Z</time>
      </trkpt>
      <trkpt lat="49.03406" lon="4.21546">
        <ele>80.5</ele>
        <time>2020-06-30T15:57:53Z</time>
      </trkpt>
      <trkpt lat="49.03408" lon="4.21539">
        <ele>80.5</ele>
        <time>2020-06-30T15:57:54Z</time>
      </trkpt>
      <trkpt lat="49.03411" lon="4.21531">
        <ele>80.5</ele>
        <time>2020-06-30T15:57:55Z</time>
      </trkpt>
      <trkpt lat="49.03414" lon="4.21523">
        <ele>80.5</ele>
        <time>2020-06-30T15:57:56Z</time>
      </trkpt>
      <trkpt lat="49.03416" lon="4.21518">
        <ele>80.5</ele>
        <time>2020-06-30T15:57:57Z</time>
      </trkpt>
      <trkpt lat="49.03418" lon="4.2151">
        <ele>80.5</ele>
        <time>2020-06-30T15:57:58Z</time>
      </trkpt>
      <trkpt lat="49.0342" lon="4.21503">
        <ele>80.5</ele>
        <time>2020-06-30T15:57:59Z</time>
      </trkpt>
      <trkpt lat="49.03424" lon="4.21497">
        <ele>80.5</ele>
        <time>2020-06-30T15:58:00Z</time>
      </trkpt>
      <trkpt lat="49.03426" lon="4.21488">
        <ele>80.5</ele>
        <time>2020-06-30T15:58:01Z</time>
      </trkpt>
      <trkpt lat="49.03428" lon="4.21481">
        <ele>80.5</ele>
        <time>2020-06-30T15:58:02Z</time>
      </trkpt>
      <trkpt lat="49.0343" lon="4.21474">
        <ele>80.5</ele>
        <time>2020-06-30T15:58:03Z</time>
      </trkpt>
      <trkpt lat="49.03432" lon="4.21467">
        <ele>80.5</ele>
        <time>2020-06-30T15:58:04Z</time>
      </trkpt>
      <trkpt lat="49.03435" lon="4.21458">
        <ele>80.5</ele>
        <time>2020-06-30T15:58:05Z</time>
      </trkpt>
      <trkpt lat="49.03437" lon="4.2145">
        <ele>80.4</ele>
        <time>2020-06-30T15:58:06Z</time>
      </trkpt>
      <trkpt lat="49.0344" lon="4.21443">
        <ele>80.4</ele>
        <time>2020-06-30T15:58:07Z</time>
      </trkpt>
      <trkpt lat="49.03442" lon="4.21436">
        <ele>80.4</ele>
        <time>2020-06-30T15:58:08Z</time>
      </trkpt>
      <trkpt lat="49.03445" lon="4.21427">
        <ele>80.4</ele>
        <time>2020-06-30T15:58:09Z</time>
      </trkpt>
      <trkpt lat="49.03447" lon="4.21419">
        <ele>80.3</ele>
        <time>2020-06-30T15:58:10Z</time>
      </trkpt>
      <trkpt lat="49.0345" lon="4.21412">
        <ele>80.3</ele>
        <time>2020-06-30T15:58:11Z</time>
      </trkpt>
      <trkpt lat="49.03452" lon="4.21402">
        <ele>80.2</ele>
        <time>2020-06-30T15:58:12Z</time>
      </trkpt>
      <trkpt lat="49.03455" lon="4.21396">
        <ele>80.2</ele>
        <time>2020-06-30T15:58:13Z</time>
      </trkpt>
      <trkpt lat="49.03458" lon="4.21386">
        <ele>80</ele>
        <time>2020-06-30T15:58:14Z</time>
      </trkpt>
      <trkpt lat="49.0346" lon="4.21378">
        <ele>79.9</ele>
        <time>2020-06-30T15:58:15Z</time>
      </trkpt>
      <trkpt lat="49.03463" lon="4.21369">
        <ele>79.8</ele>
        <time>2020-06-30T15:58:16Z</time>
      </trkpt>
      <trkpt lat="49.03466" lon="4.21361">
        <ele>79.7</ele>
        <time>2020-06-30T15:58:17Z</time>
      </trkpt>
      <trkpt lat="49.03468" lon="4.21352">
        <ele>79.6</ele>
        <time>2020-06-30T15:58:18Z</time>
      </trkpt>
      <trkpt lat="49.03471" lon="4.21345">
        <ele>79.6</ele>
        <time>2020-06-30T15:58:19Z</time>
      </trkpt>
      <trkpt lat="49.03474" lon="4.21335">
        <ele>79.4</ele>
        <time>2020-06-30T15:58:20Z</time>
      </trkpt>
      <trkpt lat="49.03476" lon="4.21327">
        <ele>79.2</ele>
        <time>2020-06-30T15:58:21Z</time>
      </trkpt>
      <trkpt lat="49.03479" lon="4.21318">
        <ele>79.1</ele>
        <time>2020-06-30T15:58:22Z</time>
      </trkpt>
      <trkpt lat="49.03482" lon="4.21311">
        <ele>79</ele>
        <time>2020-06-30T15:58:23Z</time>
      </trkpt>
      <trkpt lat="49.03485" lon="4.21302">
        <ele>78.9</ele>
        <time>2020-06-30T15:58:24Z</time>
      </trkpt>
      <trkpt lat="49.03488" lon="4.21294">
        <ele>78.8</ele>
        <time>2020-06-30T15:58:25Z</time>
      </trkpt>
      <trkpt lat="49.0349" lon="4.21285">
        <ele>78.7</ele>
        <time>2020-06-30T15:58:26Z</time>
      </trkpt>
      <trkpt lat="49.03493" lon="4.21276">
        <ele>78.7</ele>
        <time>2020-06-30T15:58:27Z</time>
      </trkpt>
      <trkpt lat="49.03495" lon="4.21268">
        <ele>78.6</ele>
        <time>2020-06-30T15:58:28Z</time>
      </trkpt>
      <trkpt lat="49.03498" lon="4.21261">
        <ele>78.5</ele>
        <time>2020-06-30T15:58:29Z</time>
      </trkpt>
      <trkpt lat="49.03501" lon="4.21253">
        <ele>78.4</ele>
        <time>2020-06-30T15:58:30Z</time>
      </trkpt>
      <trkpt lat="49.03504" lon="4.21245">
        <ele>78.4</ele>
        <time>2020-06-30T15:58:31Z</time>
      </trkpt>
      <trkpt lat="49.03506" lon="4.21238">
        <ele>78.3</ele>
        <time>2020-06-30T15:58:32Z</time>
      </trkpt>
      <trkpt lat="49.0351" lon="4.2123">
        <ele>78.3</ele>
        <time>2020-06-30T15:58:33Z</time>
      </trkpt>
      <trkpt lat="49.03513" lon="4.21225">
        <ele>78.2</ele>
        <time>2020-06-30T15:58:34Z</time>
      </trkpt>
      <trkpt lat="49.03516" lon="4.21215">
        <ele>78.2</ele>
        <time>2020-06-30T15:58:35Z</time>
      </trkpt>
      <trkpt lat="49.0352" lon="4.21205">
        <ele>78.1</ele>
        <time>2020-06-30T15:58:36Z</time>
      </trkpt>
      <trkpt lat="49.03522" lon="4.21197">
        <ele>78.1</ele>
        <time>2020-06-30T15:58:37Z</time>
      </trkpt>
      <trkpt lat="49.03525" lon="4.21189">
        <ele>78.1</ele>
        <time>2020-06-30T15:58:38Z</time>
      </trkpt>
      <trkpt lat="49.03528" lon="4.21181">
        <ele>78.1</ele>
        <time>2020-06-30T15:58:39Z</time>
      </trkpt>
      <trkpt lat="49.0353" lon="4.21174">
        <ele>78.1</ele>
        <time>2020-06-30T15:58:40Z</time>
      </trkpt>
      <trkpt lat="49.03534" lon="4.21167">
        <ele>78.1</ele>
        <time>2020-06-30T15:58:41Z</time>
      </trkpt>
      <trkpt lat="49.03537" lon="4.2116">
        <ele>78.1</ele>
        <time>2020-06-30T15:58:42Z</time>
      </trkpt>
      <trkpt lat="49.0354" lon="4.21151">
        <ele>78.1</ele>
        <time>2020-06-30T15:58:43Z</time>
      </trkpt>
      <trkpt lat="49.03543" lon="4.21143">
        <ele>78.2</ele>
        <time>2020-06-30T15:58:44Z</time>
      </trkpt>
      <trkpt lat="49.03546" lon="4.21136">
        <ele>78.2</ele>
        <time>2020-06-30T15:58:45Z</time>
      </trkpt>
      <trkpt lat="49.0355" lon="4.21127">
        <ele>78.2</ele>
        <time>2020-06-30T15:58:46Z</time>
      </trkpt>
      <trkpt lat="49.03553" lon="4.2112">
        <ele>78.2</ele>
        <time>2020-06-30T15:58:47Z</time>
      </trkpt>
      <trkpt lat="49.03557" lon="4.21112">
        <ele>78.2</ele>
        <time>2020-06-30T15:58:48Z</time>
      </trkpt>
      <trkpt lat="49.0356" lon="4.21104">
        <ele>78.2</ele>
        <time>2020-06-30T15:58:49Z</time>
      </trkpt>
      <trkpt lat="49.03563" lon="4.21095">
        <ele>78.3</ele>
        <time>2020-06-30T15:58:50Z</time>
      </trkpt>
      <trkpt lat="49.03566" lon="4.21087">
        <ele>78.3</ele>
        <time>2020-06-30T15:58:51Z</time>
      </trkpt>
      <trkpt lat="49.03569" lon="4.21081">
        <ele>78.3</ele>
        <time>2020-06-30T15:58:52Z</time>
      </trkpt>
      <trkpt lat="49.03572" lon="4.21074">
        <ele>78.3</ele>
        <time>2020-06-30T15:58:53Z</time>
      </trkpt>
      <trkpt lat="49.03576" lon="4.21064">
        <ele>78.4</ele>
        <time>2020-06-30T15:58:54Z</time>
      </trkpt>
      <trkpt lat="49.03578" lon="4.21057">
        <ele>78.5</ele>
        <time>2020-06-30T15:58:55Z</time>
      </trkpt>
      <trkpt lat="49.03581" lon="4.21052">
        <ele>78.5</ele>
        <time>2020-06-30T15:58:56Z</time>
      </trkpt>
      <trkpt lat="49.03585" lon="4.21045">
        <ele>78.6</ele>
        <time>2020-06-30T15:58:57Z</time>
      </trkpt>
      <trkpt lat="49.03588" lon="4.21037">
        <ele>78.7</ele>
        <time>2020-06-30T15:58:58Z</time>
      </trkpt>
      <trkpt lat="49.03592" lon="4.2103">
        <ele>78.8</ele>
        <time>2020-06-30T15:58:59Z</time>
      </trkpt>
      <trkpt lat="49.03596" lon="4.21025">
        <ele>78.8</ele>
        <time>2020-06-30T15:59:00Z</time>
      </trkpt>
      <trkpt lat="49.03598" lon="4.21018">
        <ele>78.6</ele>
        <time>2020-06-30T15:59:01Z</time>
      </trkpt>
      <trkpt lat="49.03601" lon="4.2101">
        <ele>78.5</ele>
        <time>2020-06-30T15:59:02Z</time>
      </trkpt>
      <trkpt lat="49.03603" lon="4.21003">
        <ele>78.4</ele>
        <time>2020-06-30T15:59:03Z</time>
      </trkpt>
      <trkpt lat="49.03605" lon="4.20996">
        <ele>78.3</ele>
        <time>2020-06-30T15:59:04Z</time>
      </trkpt>
      <trkpt lat="49.03607" lon="4.20988">
        <ele>78.1</ele>
        <time>2020-06-30T15:59:05Z</time>
      </trkpt>
      <trkpt lat="49.03609" lon="4.20981">
        <ele>78</ele>
        <time>2020-06-30T15:59:06Z</time>
      </trkpt>
      <trkpt lat="49.0361" lon="4.20974">
        <ele>78</ele>
        <time>2020-06-30T15:59:07Z</time>
      </trkpt>
      <trkpt lat="49.03612" lon="4.20967">
        <ele>78</ele>
        <time>2020-06-30T15:59:08Z</time>
      </trkpt>
      <trkpt lat="49.03615" lon="4.2096">
        <ele>78</ele>
        <time>2020-06-30T15:59:09Z</time>
      </trkpt>
      <trkpt lat="49.03618" lon="4.2095">
        <ele>77.9</ele>
        <time>2020-06-30T15:59:10Z</time>
      </trkpt>
      <trkpt lat="49.03621" lon="4.20942">
        <ele>77.9</ele>
        <time>2020-06-30T15:59:11Z</time>
      </trkpt>
      <trkpt lat="49.03623" lon="4.20935">
        <ele>77.9</ele>
        <time>2020-06-30T15:59:12Z</time>
      </trkpt>
      <trkpt lat="49.03626" lon="4.20928">
        <ele>77.9</ele>
        <time>2020-06-30T15:59:13Z</time>
      </trkpt>
      <trkpt lat="49.03628" lon="4.20922">
        <ele>78</ele>
        <time>2020-06-30T15:59:14Z</time>
      </trkpt>
      <trkpt lat="49.0363" lon="4.20915">
        <ele>78</ele>
        <time>2020-06-30T15:59:15Z</time>
      </trkpt>
      <trkpt lat="49.03632" lon="4.20907">
        <ele>78</ele>
        <time>2020-06-30T15:59:16Z</time>
      </trkpt>
      <trkpt lat="49.03634" lon="4.20899">
        <ele>78</ele>
        <time>2020-06-30T15:59:17Z</time>
      </trkpt>
      <trkpt lat="49.03636" lon="4.20892">
        <ele>78</ele>
        <time>2020-06-30T15:59:18Z</time>
      </trkpt>
      <trkpt lat="49.03638" lon="4.20885">
        <ele>78</ele>
        <time>2020-06-30T15:59:19Z</time>
      </trkpt>
      <trkpt lat="49.0364" lon="4.20879">
        <ele>78.1</ele>
        <time>2020-06-30T15:59:20Z</time>
      </trkpt>
      <trkpt lat="49.03642" lon="4.20874">
        <ele>78.1</ele>
        <time>2020-06-30T15:59:21Z</time>
      </trkpt>
      <trkpt lat="49.03643" lon="4.20867">
        <ele>78.1</ele>
        <time>2020-06-30T15:59:22Z</time>
      </trkpt>
      <trkpt lat="49.03644" lon="4.20859">
        <ele>78.1</ele>
        <time>2020-06-30T15:59:23Z</time>
      </trkpt>
      <trkpt lat="49.03646" lon="4.20851">
        <ele>78.2</ele>
        <time>2020-06-30T15:59:24Z</time>
      </trkpt>
      <trkpt lat="49.03648" lon="4.20843">
        <ele>78.3</ele>
        <time>2020-06-30T15:59:25Z</time>
      </trkpt>
      <trkpt lat="49.0365" lon="4.20839">
        <ele>78.3</ele>
        <time>2020-06-30T15:59:26Z</time>
      </trkpt>
      <trkpt lat="49.03653" lon="4.20832">
        <ele>78.4</ele>
        <time>2020-06-30T15:59:27Z</time>
      </trkpt>
      <trkpt lat="49.03655" lon="4.20828">
        <ele>78.5</ele>
        <time>2020-06-30T15:59:28Z</time>
      </trkpt>
      <trkpt lat="49.03657" lon="4.20823">
        <ele>78.5</ele>
        <time>2020-06-30T15:59:29Z</time>
      </trkpt>
      <trkpt lat="49.03658" lon="4.20818">
        <ele>78.6</ele>
        <time>2020-06-30T15:59:30Z</time>
      </trkpt>
      <trkpt lat="49.03661" lon="4.20813">
        <ele>78.7</ele>
        <time>2020-06-30T15:59:31Z</time>
      </trkpt>
      <trkpt lat="49.03663" lon="4.20808">
        <ele>78.7</ele>
        <time>2020-06-30T15:59:32Z</time>
      </trkpt>
      <trkpt lat="49.03665" lon="4.20804">
        <ele>78.7</ele>
        <time>2020-06-30T15:59:33Z</time>
      </trkpt>
      <trkpt lat="49.03666" lon="4.20803">
        <ele>78.7</ele>
        <time>2020-06-30T15:59:34Z</time>
      </trkpt>
      <trkpt lat="49.03668" lon="4.208">
        <ele>78.7</ele>
        <time>2020-06-30T15:59:35Z</time>
      </trkpt>
      <trkpt lat="49.0367" lon="4.20795">
        <ele>78.7</ele>
        <time>2020-06-30T15:59:36Z</time>
      </trkpt>
      <trkpt lat="49.03671" lon="4.20791">
        <ele>78.7</ele>
        <time>2020-06-30T15:59:37Z</time>
      </trkpt>
      <trkpt lat="49.03673" lon="4.20787">
        <ele>78.6</ele>
        <time>2020-06-30T15:59:38Z</time>
      </trkpt>
      <trkpt lat="49.03673" lon="4.20786">
        <ele>78.6</ele>
        <time>2020-06-30T15:59:39Z</time>
      </trkpt>
      <trkpt lat="49.03672" lon="4.20781">
        <ele>78.6</ele>
        <time>2020-06-30T15:59:40Z</time>
      </trkpt>
      <trkpt lat="49.03671" lon="4.20779">
        <ele>78.6</ele>
        <time>2020-06-30T15:59:41Z</time>
      </trkpt>
      <trkpt lat="49.03668" lon="4.20775">
        <ele>78.6</ele>
        <time>2020-06-30T15:59:42Z</time>
      </trkpt>
      <trkpt lat="49.03665" lon="4.20773">
        <ele>78.5</ele>
        <time>2020-06-30T15:59:43Z</time>
      </trkpt>
      <trkpt lat="49.03662" lon="4.20771">
        <ele>78.4</ele>
        <time>2020-06-30T15:59:44Z</time>
      </trkpt>
      <trkpt lat="49.03657" lon="4.20767">
        <ele>78.3</ele>
        <time>2020-06-30T15:59:45Z</time>
      </trkpt>
      <trkpt lat="49.03652" lon="4.20763">
        <ele>78.2</ele>
        <time>2020-06-30T15:59:46Z</time>
      </trkpt>
      <trkpt lat="49.03648" lon="4.20759">
        <ele>78.2</ele>
        <time>2020-06-30T15:59:47Z</time>
      </trkpt>
      <trkpt lat="49.03644" lon="4.20754">
        <ele>78.2</ele>
        <time>2020-06-30T15:59:48Z</time>
      </trkpt>
      <trkpt lat="49.03641" lon="4.20749">
        <ele>78.1</ele>
        <time>2020-06-30T15:59:49Z</time>
      </trkpt>
      <trkpt lat="49.03637" lon="4.20745">
        <ele>78.1</ele>
        <time>2020-06-30T15:59:50Z</time>
      </trkpt>
      <trkpt lat="49.03632" lon="4.20739">
        <ele>78.1</ele>
        <time>2020-06-30T15:59:51Z</time>
      </trkpt>
      <trkpt lat="49.03629" lon="4.20734">
        <ele>78.1</ele>
        <time>2020-06-30T15:59:52Z</time>
      </trkpt>
      <trkpt lat="49.03627" lon="4.20728">
        <ele>78.2</ele>
        <time>2020-06-30T15:59:53Z</time>
      </trkpt>
      <trkpt lat="49.03624" lon="4.20724">
        <ele>78.3</ele>
        <time>2020-06-30T15:59:54Z</time>
      </trkpt>
      <trkpt lat="49.03621" lon="4.2072">
        <ele>78.3</ele>
        <time>2020-06-30T15:59:55Z</time>
      </trkpt>
      <trkpt lat="49.03616" lon="4.20718">
        <ele>78.4</ele>
        <time>2020-06-30T15:59:56Z</time>
      </trkpt>
      <trkpt lat="49.03612" lon="4.20714">
        <ele>78.5</ele>
        <time>2020-06-30T15:59:57Z</time>
      </trkpt>
      <trkpt lat="49.03607" lon="4.20708">
        <ele>78.6</ele>
        <time>2020-06-30T15:59:58Z</time>
      </trkpt>
      <trkpt lat="49.03603" lon="4.20705">
        <ele>78.7</ele>
        <time>2020-06-30T15:59:59Z</time>
      </trkpt>
      <trkpt lat="49.036" lon="4.20701">
        <ele>78.7</ele>
        <time>2020-06-30T16:00:00Z</time>
      </trkpt>
      <trkpt lat="49.03595" lon="4.20698">
        <ele>78.5</ele>
        <time>2020-06-30T16:00:01Z</time>
      </trkpt>
      <trkpt lat="49.03591" lon="4.20696">
        <ele>78.5</ele>
        <time>2020-06-30T16:00:02Z</time>
      </trkpt>
      <trkpt lat="49.03586" lon="4.20699">
        <ele>78.5</ele>
        <time>2020-06-30T16:00:03Z</time>
      </trkpt>
      <trkpt lat="49.03582" lon="4.20703">
        <ele>78.4</ele>
        <time>2020-06-30T16:00:04Z</time>
      </trkpt>
      <trkpt lat="49.03577" lon="4.20706">
        <ele>78.3</ele>
        <time>2020-06-30T16:00:05Z</time>
      </trkpt>
      <trkpt lat="49.03572" lon="4.20708">
        <ele>78.2</ele>
        <time>2020-06-30T16:00:06Z</time>
      </trkpt>
      <trkpt lat="49.03568" lon="4.2071">
        <ele>78.1</ele>
        <time>2020-06-30T16:00:07Z</time>
      </trkpt>
      <trkpt lat="49.03565" lon="4.20711">
        <ele>78</ele>
        <time>2020-06-30T16:00:08Z</time>
      </trkpt>
      <trkpt lat="49.03559" lon="4.20712">
        <ele>77.8</ele>
        <time>2020-06-30T16:00:09Z</time>
      </trkpt>
      <trkpt lat="49.03554" lon="4.20712">
        <ele>77.5</ele>
        <time>2020-06-30T16:00:10Z</time>
      </trkpt>
      <trkpt lat="49.03548" lon="4.20712">
        <ele>77.4</ele>
        <time>2020-06-30T16:00:11Z</time>
      </trkpt>
      <trkpt lat="49.03543" lon="4.2071">
        <ele>77.3</ele>
        <time>2020-06-30T16:00:12Z</time>
      </trkpt>
      <trkpt lat="49.03539" lon="4.20708">
        <ele>77.3</ele>
        <time>2020-06-30T16:00:13Z</time>
      </trkpt>
      <trkpt lat="49.03535" lon="4.20705">
        <ele>77.2</ele>
        <time>2020-06-30T16:00:14Z</time>
      </trkpt>
      <trkpt lat="49.03531" lon="4.20702">
        <ele>77.2</ele>
        <time>2020-06-30T16:00:15Z</time>
      </trkpt>
      <trkpt lat="49.03527" lon="4.20698">
        <ele>77.1</ele>
        <time>2020-06-30T16:00:16Z</time>
      </trkpt>
      <trkpt lat="49.03523" lon="4.20694">
        <ele>76.9</ele>
        <time>2020-06-30T16:00:17Z</time>
      </trkpt>
      <trkpt lat="49.03519" lon="4.20691">
        <ele>76.9</ele>
        <time>2020-06-30T16:00:18Z</time>
      </trkpt>
      <trkpt lat="49.03515" lon="4.20687">
        <ele>76.8</ele>
        <time>2020-06-30T16:00:19Z</time>
      </trkpt>
      <trkpt lat="49.0351" lon="4.20685">
        <ele>76.8</ele>
        <time>2020-06-30T16:00:20Z</time>
      </trkpt>
      <trkpt lat="49.03507" lon="4.20688">
        <ele>76.8</ele>
        <time>2020-06-30T16:00:21Z</time>
      </trkpt>
      <trkpt lat="49.03506" lon="4.20697">
        <ele>76.8</ele>
        <time>2020-06-30T16:00:22Z</time>
      </trkpt>
      <trkpt lat="49.03509" lon="4.20704">
        <ele>76.8</ele>
        <time>2020-06-30T16:00:23Z</time>
      </trkpt>
      <trkpt lat="49.03512" lon="4.20706">
        <ele>76.9</ele>
        <time>2020-06-30T16:00:24Z</time>
      </trkpt>
      <trkpt lat="49.03515" lon="4.20705">
        <ele>76.9</ele>
        <time>2020-06-30T16:00:25Z</time>
      </trkpt>
      <trkpt lat="49.03518" lon="4.20702">
        <ele>76.9</ele>
        <time>2020-06-30T16:00:26Z</time>
      </trkpt>
      <trkpt lat="49.0352" lon="4.20701">
        <ele>76.9</ele>
        <time>2020-06-30T16:00:27Z</time>
      </trkpt>
      <trkpt lat="49.03523" lon="4.207">
        <ele>76.9</ele>
        <time>2020-06-30T16:00:28Z</time>
      </trkpt>
      <trkpt lat="49.03526" lon="4.207">
        <ele>77</ele>
        <time>2020-06-30T16:00:29Z</time>
      </trkpt>
      <trkpt lat="49.03527" lon="4.20699">
        <ele>77</ele>
        <time>2020-06-30T16:00:30Z</time>
      </trkpt>
      <trkpt lat="49.03531" lon="4.20701">
        <ele>77</ele>
        <time>2020-06-30T16:00:31Z</time>
      </trkpt>
      <trkpt lat="49.03534" lon="4.20703">
        <ele>77</ele>
        <time>2020-06-30T16:00:32Z</time>
      </trkpt>
      <trkpt lat="49.03536" lon="4.20705">
        <ele>77</ele>
        <time>2020-06-30T16:00:33Z</time>
      </trkpt>
      <trkpt lat="49.03539" lon="4.20708">
        <ele>77</ele>
        <time>2020-06-30T16:00:34Z</time>
      </trkpt>
      <trkpt lat="49.03542" lon="4.20711">
        <ele>77.1</ele>
        <time>2020-06-30T16:00:35Z</time>
      </trkpt>
      <trkpt lat="49.03543" lon="4.20712">
        <ele>77.1</ele>
        <time>2020-06-30T16:00:36Z</time>
      </trkpt>
      <trkpt lat="49.03544" lon="4.20711">
        <ele>77.1</ele>
        <time>2020-06-30T16:00:37Z</time>
      </trkpt>
      <trkpt lat="49.03542" lon="4.2071">
        <ele>77.1</ele>
        <time>2020-06-30T16:00:38Z</time>
      </trkpt>
      <trkpt lat="49.03541" lon="4.20709">
        <ele>77.1</ele>
        <time>2020-06-30T16:00:39Z</time>
      </trkpt>
      <trkpt lat="49.0354" lon="4.20708">
        <ele>77.1</ele>
        <time>2020-06-30T16:00:40Z</time>
      </trkpt>
      <trkpt lat="49.03539" lon="4.20707">
        <ele>77.1</ele>
        <time>2020-06-30T16:00:41Z</time>
      </trkpt>
      <trkpt lat="49.03538" lon="4.20705">
        <ele>77.1</ele>
        <time>2020-06-30T16:00:42Z</time>
      </trkpt>
      <trkpt lat="49.03534" lon="4.20702">
        <ele>77.1</ele>
        <time>2020-06-30T16:00:43Z</time>
      </trkpt>
      <trkpt lat="49.03533" lon="4.20701">
        <ele>77.1</ele>
        <time>2020-06-30T16:00:44Z</time>
      </trkpt>
      <trkpt lat="49.0353" lon="4.20699">
        <ele>77.1</ele>
        <time>2020-06-30T16:00:45Z</time>
      </trkpt>
      <trkpt lat="49.03528" lon="4.20697">
        <ele>77.1</ele>
        <time>2020-06-30T16:00:46Z</time>
      </trkpt>
      <trkpt lat="49.03525" lon="4.20695">
        <ele>77.2</ele>
        <time>2020-06-30T16:00:47Z</time>
      </trkpt>
      <trkpt lat="49.03523" lon="4.20694">
        <ele>77.2</ele>
        <time>2020-06-30T16:00:48Z</time>
      </trkpt>
      <trkpt lat="49.03522" lon="4.20693">
        <ele>77.2</ele>
        <time>2020-06-30T16:00:49Z</time>
      </trkpt>
      <trkpt lat="49.03521" lon="4.20692">
        <ele>77.2</ele>
        <time>2020-06-30T16:00:50Z</time>
      </trkpt>
      <trkpt lat="49.0352" lon="4.20692">
        <ele>77.2</ele>
        <time>2020-06-30T16:00:51Z</time>
      </trkpt>
      <trkpt lat="49.03519" lon="4.20691">
        <ele>77.2</ele>
        <time>2020-06-30T16:00:52Z</time>
      </trkpt>
      <trkpt lat="49.03519" lon="4.20691">
        <ele>77.2</ele>
        <time>2020-06-30T16:00:53Z</time>
      </trkpt>
      <trkpt lat="49.03519" lon="4.20691">
        <ele>77.2</ele>
        <time>2020-06-30T16:00:54Z</time>
      </trkpt>
      <trkpt lat="49.0352" lon="4.20691">
        <ele>77.2</ele>
        <time>2020-06-30T16:00:55Z</time>
      </trkpt>
      <trkpt lat="49.0352" lon="4.20691">
        <ele>77.2</ele>
        <time>2020-06-30T16:00:56Z</time>
      </trkpt>
      <trkpt lat="49.0352" lon="4.20691">
        <ele>77.2</ele>
        <time>2020-06-30T16:00:57Z</time>
      </trkpt>
      <trkpt lat="49.0352" lon="4.2069">
        <ele>77.2</ele>
        <time>2020-06-30T16:00:58Z</time>
      </trkpt>
      <trkpt lat="49.03519" lon="4.2069">
        <ele>77.2</ele>
        <time>2020-06-30T16:00:59Z</time>
      </trkpt>
      <trkpt lat="49.0352" lon="4.20691">
        <ele>77.2</ele>
        <time>2020-06-30T16:01:00Z</time>
      </trkpt>
      <trkpt lat="49.0352" lon="4.2069">
        <ele>77.2</ele>
        <time>2020-06-30T16:01:01Z</time>
      </trkpt>
      <trkpt lat="49.0352" lon="4.20691">
        <ele>77.2</ele>
        <time>2020-06-30T16:01:02Z</time>
      </trkpt>
      <trkpt lat="49.03509" lon="4.20688">
        <ele>77.2</ele>
        <time>2020-06-30T16:05:48Z</time>
      </trkpt>
      <trkpt lat="49.03508" lon="4.20689">
        <ele>77.2</ele>
        <time>2020-06-30T16:05:49Z</time>
      </trkpt>
      <trkpt lat="49.03507" lon="4.20688">
        <ele>77.2</ele>
        <time>2020-06-30T16:05:50Z</time>
      </trkpt>
      <trkpt lat="49.03507" lon="4.20688">
        <ele>77.2</ele>
        <time>2020-06-30T16:05:51Z</time>
      </trkpt>
      <trkpt lat="49.03506" lon="4.20688">
        <ele>77.2</ele>
        <time>2020-06-30T16:05:52Z</time>
      </trkpt>
      <trkpt lat="49.03506" lon="4.20688">
        <ele>77.2</ele>
        <time>2020-06-30T16:05:53Z</time>
      </trkpt>
      <trkpt lat="49.03505" lon="4.20689">
        <ele>77.2</ele>
        <time>2020-06-30T16:05:54Z</time>
      </trkpt>
      <trkpt lat="49.03505" lon="4.20689">
        <ele>77.2</ele>
        <time>2020-06-30T16:05:55Z</time>
      </trkpt>
      <trkpt lat="49.03505" lon="4.20689">
        <ele>77.2</ele>
        <time>2020-06-30T16:05:56Z</time>
      </trkpt>
      <trkpt lat="49.03504" lon="4.20689">
        <ele>77.2</ele>
        <time>2020-06-30T16:05:57Z</time>
      </trkpt>
      <trkpt lat="49.03504" lon="4.20689">
        <ele>77.2</ele>
        <time>2020-06-30T16:05:58Z</time>
      </trkpt>
      <trkpt lat="49.03503" lon="4.20689">
        <ele>77.2</ele>
        <time>2020-06-30T16:05:59Z</time>
      </trkpt>
      <trkpt lat="49.03502" lon="4.2069">
        <ele>77.2</ele>
        <time>2020-06-30T16:06:00Z</time>
      </trkpt>
      <trkpt lat="49.03501" lon="4.2069">
        <ele>77.2</ele>
        <time>2020-06-30T16:06:01Z</time>
      </trkpt>
      <trkpt lat="49.03501" lon="4.20691">
        <ele>77.2</ele>
        <time>2020-06-30T16:06:02Z</time>
      </trkpt>
      <trkpt lat="49.035" lon="4.20691">
        <ele>77.2</ele>
        <time>2020-06-30T16:06:03Z</time>
      </trkpt>
      <trkpt lat="49.03499" lon="4.20691">
        <ele>77.2</ele>
        <time>2020-06-30T16:06:04Z</time>
      </trkpt>
      <trkpt lat="49.03499" lon="4.20692">
        <ele>77.2</ele>
        <time>2020-06-30T16:06:05Z</time>
      </trkpt>
      <trkpt lat="49.03499" lon="4.20692">
        <ele>77.2</ele>
        <time>2020-06-30T16:06:06Z</time>
      </trkpt>
      <trkpt lat="49.03499" lon="4.20692">
        <ele>77.2</ele>
        <time>2020-06-30T16:06:07Z</time>
      </trkpt>
      <trkpt lat="49.03499" lon="4.20692">
        <ele>77.2</ele>
        <time>2020-06-30T16:06:08Z</time>
      </trkpt>
      <trkpt lat="49.035" lon="4.20701">
        <ele>77.2</ele>
        <time>2020-06-30T16:08:41Z</time>
      </trkpt>
      <trkpt lat="49.035" lon="4.20704">
        <ele>77.2</ele>
        <time>2020-06-30T16:08:42Z</time>
      </trkpt>
      <trkpt lat="49.03502" lon="4.20704">
        <ele>77.2</ele>
        <time>2020-06-30T16:08:43Z</time>
      </trkpt>
      <trkpt lat="49.03503" lon="4.20705">
        <ele>77.3</ele>
        <time>2020-06-30T16:08:44Z</time>
      </trkpt>
      <trkpt lat="49.03505" lon="4.20706">
        <ele>77.3</ele>
        <time>2020-06-30T16:08:45Z</time>
      </trkpt>
      <trkpt lat="49.03505" lon="4.20708">
        <ele>77.3</ele>
        <time>2020-06-30T16:08:46Z</time>
      </trkpt>
      <trkpt lat="49.03505" lon="4.2071">
        <ele>77.3</ele>
        <time>2020-06-30T16:08:47Z</time>
      </trkpt>
      <trkpt lat="49.03505" lon="4.20711">
        <ele>77.3</ele>
        <time>2020-06-30T16:08:48Z</time>
      </trkpt>
      <trkpt lat="49.03504" lon="4.20711">
        <ele>77.3</ele>
        <time>2020-06-30T16:08:49Z</time>
      </trkpt>
      <trkpt lat="49.03502" lon="4.20713">
        <ele>77.3</ele>
        <time>2020-06-30T16:08:50Z</time>
      </trkpt>
      <trkpt lat="49.03502" lon="4.20714">
        <ele>77.3</ele>
        <time>2020-06-30T16:08:51Z</time>
      </trkpt>
      <trkpt lat="49.03501" lon="4.20716">
        <ele>77.3</ele>
        <time>2020-06-30T16:08:52Z</time>
      </trkpt>
      <trkpt lat="49.03502" lon="4.20716">
        <ele>77.3</ele>
        <time>2020-06-30T16:08:53Z</time>
      </trkpt>
      <trkpt lat="49.03503" lon="4.20716">
        <ele>77.3</ele>
        <time>2020-06-30T16:08:54Z</time>
      </trkpt>
      <trkpt lat="49.03504" lon="4.20716">
        <ele>77.3</ele>
        <time>2020-06-30T16:08:55Z</time>
      </trkpt>
      <trkpt lat="49.03505" lon="4.20715">
        <ele>77.3</ele>
        <time>2020-06-30T16:08:56Z</time>
      </trkpt>
      <trkpt lat="49.03508" lon="4.20712">
        <ele>77.3</ele>
        <time>2020-06-30T16:08:57Z</time>
      </trkpt>
      <trkpt lat="49.03508" lon="4.2071">
        <ele>77.3</ele>
        <time>2020-06-30T16:08:58Z</time>
      </trkpt>
      <trkpt lat="49.03511" lon="4.20708">
        <ele>77.3</ele>
        <time>2020-06-30T16:08:59Z</time>
      </trkpt>
      <trkpt lat="49.03514" lon="4.20705">
        <ele>77.3</ele>
        <time>2020-06-30T16:09:00Z</time>
      </trkpt>
      <trkpt lat="49.03515" lon="4.20704">
        <ele>77.3</ele>
        <time>2020-06-30T16:09:01Z</time>
      </trkpt>
      <trkpt lat="49.03517" lon="4.20702">
        <ele>77.3</ele>
        <time>2020-06-30T16:09:02Z</time>
      </trkpt>
      <trkpt lat="49.03521" lon="4.20701">
        <ele>77.3</ele>
        <time>2020-06-30T16:09:03Z</time>
      </trkpt>
      <trkpt lat="49.03523" lon="4.20702">
        <ele>77.3</ele>
        <time>2020-06-30T16:09:04Z</time>
      </trkpt>
      <trkpt lat="49.03527" lon="4.20703">
        <ele>77.4</ele>
        <time>2020-06-30T16:09:05Z</time>
      </trkpt>
      <trkpt lat="49.03531" lon="4.20705">
        <ele>77.4</ele>
        <time>2020-06-30T16:09:06Z</time>
      </trkpt>
      <trkpt lat="49.03536" lon="4.20706">
        <ele>77.4</ele>
        <time>2020-06-30T16:09:07Z</time>
      </trkpt>
      <trkpt lat="49.03541" lon="4.20707">
        <ele>77.4</ele>
        <time>2020-06-30T16:09:08Z</time>
      </trkpt>
      <trkpt lat="49.03546" lon="4.20711">
        <ele>77.4</ele>
        <time>2020-06-30T16:09:09Z</time>
      </trkpt>
      <trkpt lat="49.03551" lon="4.20713">
        <ele>77.4</ele>
        <time>2020-06-30T16:09:10Z</time>
      </trkpt>
      <trkpt lat="49.03556" lon="4.20716">
        <ele>77.6</ele>
        <time>2020-06-30T16:09:11Z</time>
      </trkpt>
      <trkpt lat="49.03561" lon="4.20715">
        <ele>77.9</ele>
        <time>2020-06-30T16:09:12Z</time>
      </trkpt>
      <trkpt lat="49.03566" lon="4.20714">
        <ele>78.1</ele>
        <time>2020-06-30T16:09:13Z</time>
      </trkpt>
      <trkpt lat="49.0357" lon="4.20713">
        <ele>78.2</ele>
        <time>2020-06-30T16:09:14Z</time>
      </trkpt>
      <trkpt lat="49.03575" lon="4.20711">
        <ele>78.3</ele>
        <time>2020-06-30T16:09:15Z</time>
      </trkpt>
      <trkpt lat="49.03579" lon="4.20708">
        <ele>78.4</ele>
        <time>2020-06-30T16:09:16Z</time>
      </trkpt>
      <trkpt lat="49.03583" lon="4.20706">
        <ele>78.4</ele>
        <time>2020-06-30T16:09:17Z</time>
      </trkpt>
      <trkpt lat="49.03587" lon="4.20702">
        <ele>78.5</ele>
        <time>2020-06-30T16:09:18Z</time>
      </trkpt>
      <trkpt lat="49.03591" lon="4.207">
        <ele>78.5</ele>
        <time>2020-06-30T16:09:19Z</time>
      </trkpt>
      <trkpt lat="49.03597" lon="4.20701">
        <ele>78.6</ele>
        <time>2020-06-30T16:09:20Z</time>
      </trkpt>
      <trkpt lat="49.03602" lon="4.20705">
        <ele>78.7</ele>
        <time>2020-06-30T16:09:21Z</time>
      </trkpt>
      <trkpt lat="49.03606" lon="4.2071">
        <ele>78.7</ele>
        <time>2020-06-30T16:09:22Z</time>
      </trkpt>
      <trkpt lat="49.03609" lon="4.20716">
        <ele>78.6</ele>
        <time>2020-06-30T16:09:23Z</time>
      </trkpt>
      <trkpt lat="49.03613" lon="4.2072">
        <ele>78.5</ele>
        <time>2020-06-30T16:09:24Z</time>
      </trkpt>
      <trkpt lat="49.03616" lon="4.20724">
        <ele>78.4</ele>
        <time>2020-06-30T16:09:25Z</time>
      </trkpt>
      <trkpt lat="49.0362" lon="4.20727">
        <ele>78.3</ele>
        <time>2020-06-30T16:09:26Z</time>
      </trkpt>
      <trkpt lat="49.03624" lon="4.20731">
        <ele>78.2</ele>
        <time>2020-06-30T16:09:27Z</time>
      </trkpt>
      <trkpt lat="49.03627" lon="4.20734">
        <ele>78.2</ele>
        <time>2020-06-30T16:09:28Z</time>
      </trkpt>
      <trkpt lat="49.0363" lon="4.20738">
        <ele>78.1</ele>
        <time>2020-06-30T16:09:29Z</time>
      </trkpt>
      <trkpt lat="49.03633" lon="4.20741">
        <ele>78.1</ele>
        <time>2020-06-30T16:09:30Z</time>
      </trkpt>
      <trkpt lat="49.03636" lon="4.20745">
        <ele>78.1</ele>
        <time>2020-06-30T16:09:31Z</time>
      </trkpt>
      <trkpt lat="49.03639" lon="4.20749">
        <ele>78.1</ele>
        <time>2020-06-30T16:09:32Z</time>
      </trkpt>
      <trkpt lat="49.03641" lon="4.20753">
        <ele>78.2</ele>
        <time>2020-06-30T16:09:33Z</time>
      </trkpt>
      <trkpt lat="49.03644" lon="4.20757">
        <ele>78.2</ele>
        <time>2020-06-30T16:09:34Z</time>
      </trkpt>
      <trkpt lat="49.03647" lon="4.2076">
        <ele>78.2</ele>
        <time>2020-06-30T16:09:35Z</time>
      </trkpt>
      <trkpt lat="49.0365" lon="4.20763">
        <ele>78.2</ele>
        <time>2020-06-30T16:09:36Z</time>
      </trkpt>
      <trkpt lat="49.03653" lon="4.20768">
        <ele>78.2</ele>
        <time>2020-06-30T16:09:37Z</time>
      </trkpt>
      <trkpt lat="49.03655" lon="4.20772">
        <ele>78.3</ele>
        <time>2020-06-30T16:09:38Z</time>
      </trkpt>
      <trkpt lat="49.03659" lon="4.20775">
        <ele>78.4</ele>
        <time>2020-06-30T16:09:39Z</time>
      </trkpt>
      <trkpt lat="49.03662" lon="4.20778">
        <ele>78.5</ele>
        <time>2020-06-30T16:09:40Z</time>
      </trkpt>
      <trkpt lat="49.03664" lon="4.20781">
        <ele>78.5</ele>
        <time>2020-06-30T16:09:41Z</time>
      </trkpt>
      <trkpt lat="49.03666" lon="4.20783">
        <ele>78.6</ele>
        <time>2020-06-30T16:09:42Z</time>
      </trkpt>
      <trkpt lat="49.03668" lon="4.20785">
        <ele>78.6</ele>
        <time>2020-06-30T16:09:43Z</time>
      </trkpt>
      <trkpt lat="49.03669" lon="4.20787">
        <ele>78.7</ele>
        <time>2020-06-30T16:09:44Z</time>
      </trkpt>
      <trkpt lat="49.0367" lon="4.20787">
        <ele>78.7</ele>
        <time>2020-06-30T16:09:45Z</time>
      </trkpt>
      <trkpt lat="49.03671" lon="4.20786">
        <ele>78.7</ele>
        <time>2020-06-30T16:09:46Z</time>
      </trkpt>
      <trkpt lat="49.03671" lon="4.20785">
        <ele>78.7</ele>
        <time>2020-06-30T16:09:47Z</time>
      </trkpt>
      <trkpt lat="49.03671" lon="4.20784">
        <ele>78.7</ele>
        <time>2020-06-30T16:09:48Z</time>
      </trkpt>
      <trkpt lat="49.03671" lon="4.20784">
        <ele>78.7</ele>
        <time>2020-06-30T16:09:49Z</time>
      </trkpt>
      <trkpt lat="49.03671" lon="4.20783">
        <ele>78.7</ele>
        <time>2020-06-30T16:09:50Z</time>
      </trkpt>
      <trkpt lat="49.03671" lon="4.20782">
        <ele>78.7</ele>
        <time>2020-06-30T16:09:51Z</time>
      </trkpt>
      <trkpt lat="49.0367" lon="4.20782">
        <ele>78.8</ele>
        <time>2020-06-30T16:09:52Z</time>
      </trkpt>
      <trkpt lat="49.03671" lon="4.20785">
        <ele>78.8</ele>
        <time>2020-06-30T16:09:53Z</time>
      </trkpt>
      <trkpt lat="49.03673" lon="4.20786">
        <ele>78.8</ele>
        <time>2020-06-30T16:09:54Z</time>
      </trkpt>
      <trkpt lat="49.03675" lon="4.20785">
        <ele>78.8</ele>
        <time>2020-06-30T16:09:55Z</time>
      </trkpt>
      <trkpt lat="49.03677" lon="4.2078">
        <ele>78.9</ele>
        <time>2020-06-30T16:09:56Z</time>
      </trkpt>
      <trkpt lat="49.03677" lon="4.20778">
        <ele>78.9</ele>
        <time>2020-06-30T16:09:57Z</time>
      </trkpt>
      <trkpt lat="49.03679" lon="4.20772">
        <ele>79</ele>
        <time>2020-06-30T16:09:58Z</time>
      </trkpt>
      <trkpt lat="49.03679" lon="4.20771">
        <ele>79</ele>
        <time>2020-06-30T16:09:59Z</time>
      </trkpt>
      <trkpt lat="49.03681" lon="4.20767">
        <ele>79.1</ele>
        <time>2020-06-30T16:10:00Z</time>
      </trkpt>
      <trkpt lat="49.03683" lon="4.20762">
        <ele>79.1</ele>
        <time>2020-06-30T16:10:01Z</time>
      </trkpt>
      <trkpt lat="49.03686" lon="4.20756">
        <ele>79.2</ele>
        <time>2020-06-30T16:10:02Z</time>
      </trkpt>
      <trkpt lat="49.03687" lon="4.20753">
        <ele>79.3</ele>
        <time>2020-06-30T16:10:03Z</time>
      </trkpt>
      <trkpt lat="49.03689" lon="4.20749">
        <ele>79.4</ele>
        <time>2020-06-30T16:10:04Z</time>
      </trkpt>
      <trkpt lat="49.03692" lon="4.20745">
        <ele>79.5</ele>
        <time>2020-06-30T16:10:05Z</time>
      </trkpt>
      <trkpt lat="49.03695" lon="4.2074">
        <ele>79.6</ele>
        <time>2020-06-30T16:10:06Z</time>
      </trkpt>
      <trkpt lat="49.03698" lon="4.20736">
        <ele>79.7</ele>
        <time>2020-06-30T16:10:07Z</time>
      </trkpt>
      <trkpt lat="49.03701" lon="4.20731">
        <ele>79.8</ele>
        <time>2020-06-30T16:10:08Z</time>
      </trkpt>
      <trkpt lat="49.03703" lon="4.20725">
        <ele>79.9</ele>
        <time>2020-06-30T16:10:09Z</time>
      </trkpt>
      <trkpt lat="49.03706" lon="4.2072">
        <ele>80</ele>
        <time>2020-06-30T16:10:10Z</time>
      </trkpt>
      <trkpt lat="49.03709" lon="4.20715">
        <ele>80.1</ele>
        <time>2020-06-30T16:10:11Z</time>
      </trkpt>
      <trkpt lat="49.03711" lon="4.2071">
        <ele>80.3</ele>
        <time>2020-06-30T16:10:12Z</time>
      </trkpt>
      <trkpt lat="49.03713" lon="4.20705">
        <ele>80.5</ele>
        <time>2020-06-30T16:10:13Z</time>
      </trkpt>
      <trkpt lat="49.03716" lon="4.20701">
        <ele>80.6</ele>
        <time>2020-06-30T16:10:14Z</time>
      </trkpt>
      <trkpt lat="49.03719" lon="4.20696">
        <ele>80.8</ele>
        <time>2020-06-30T16:10:15Z</time>
      </trkpt>
      <trkpt lat="49.03722" lon="4.20691">
        <ele>81.1</ele>
        <time>2020-06-30T16:10:16Z</time>
      </trkpt>
      <trkpt lat="49.03725" lon="4.20685">
        <ele>81.3</ele>
        <time>2020-06-30T16:10:17Z</time>
      </trkpt>
      <trkpt lat="49.03728" lon="4.2068">
        <ele>81.6</ele>
        <time>2020-06-30T16:10:18Z</time>
      </trkpt>
      <trkpt lat="49.03731" lon="4.20675">
        <ele>81.8</ele>
        <time>2020-06-30T16:10:19Z</time>
      </trkpt>
      <trkpt lat="49.03732" lon="4.2067">
        <ele>82</ele>
        <time>2020-06-30T16:10:20Z</time>
      </trkpt>
      <trkpt lat="49.03735" lon="4.20666">
        <ele>82.2</ele>
        <time>2020-06-30T16:10:21Z</time>
      </trkpt>
      <trkpt lat="49.03736" lon="4.20661">
        <ele>82.5</ele>
        <time>2020-06-30T16:10:22Z</time>
      </trkpt>
      <trkpt lat="49.03739" lon="4.20656">
        <ele>82.7</ele>
        <time>2020-06-30T16:10:23Z</time>
      </trkpt>
      <trkpt lat="49.03741" lon="4.2065">
        <ele>83</ele>
        <time>2020-06-30T16:10:24Z</time>
      </trkpt>
      <trkpt lat="49.03743" lon="4.20645">
        <ele>83.2</ele>
        <time>2020-06-30T16:10:25Z</time>
      </trkpt>
      <trkpt lat="49.03745" lon="4.2064">
        <ele>83.5</ele>
        <time>2020-06-30T16:10:26Z</time>
      </trkpt>
      <trkpt lat="49.03748" lon="4.20636">
        <ele>83.7</ele>
        <time>2020-06-30T16:10:27Z</time>
      </trkpt>
      <trkpt lat="49.0375" lon="4.20631">
        <ele>84</ele>
        <time>2020-06-30T16:10:28Z</time>
      </trkpt>
      <trkpt lat="49.03752" lon="4.20626">
        <ele>84.2</ele>
        <time>2020-06-30T16:10:29Z</time>
      </trkpt>
      <trkpt lat="49.03755" lon="4.20622">
        <ele>84.4</ele>
        <time>2020-06-30T16:10:30Z</time>
      </trkpt>
      <trkpt lat="49.03757" lon="4.20619">
        <ele>84.7</ele>
        <time>2020-06-30T16:10:31Z</time>
      </trkpt>
      <trkpt lat="49.03759" lon="4.20614">
        <ele>84.9</ele>
        <time>2020-06-30T16:10:32Z</time>
      </trkpt>
      <trkpt lat="49.03761" lon="4.20609">
        <ele>85.2</ele>
        <time>2020-06-30T16:10:33Z</time>
      </trkpt>
      <trkpt lat="49.03763" lon="4.20605">
        <ele>85.4</ele>
        <time>2020-06-30T16:10:34Z</time>
      </trkpt>
      <trkpt lat="49.03765" lon="4.206">
        <ele>85.6</ele>
        <time>2020-06-30T16:10:35Z</time>
      </trkpt>
      <trkpt lat="49.03766" lon="4.20594">
        <ele>85.9</ele>
        <time>2020-06-30T16:10:36Z</time>
      </trkpt>
      <trkpt lat="49.03768" lon="4.2059">
        <ele>86.1</ele>
        <time>2020-06-30T16:10:37Z</time>
      </trkpt>
      <trkpt lat="49.03771" lon="4.20586">
        <ele>86.3</ele>
        <time>2020-06-30T16:10:38Z</time>
      </trkpt>
      <trkpt lat="49.03773" lon="4.20581">
        <ele>86.5</ele>
        <time>2020-06-30T16:10:39Z</time>
      </trkpt>
      <trkpt lat="49.03775" lon="4.20576">
        <ele>86.8</ele>
        <time>2020-06-30T16:10:40Z</time>
      </trkpt>
      <trkpt lat="49.03777" lon="4.2057">
        <ele>87</ele>
        <time>2020-06-30T16:10:41Z</time>
      </trkpt>
      <trkpt lat="49.03779" lon="4.20565">
        <ele>87.2</ele>
        <time>2020-06-30T16:10:42Z</time>
      </trkpt>
      <trkpt lat="49.03781" lon="4.2056">
        <ele>87.4</ele>
        <time>2020-06-30T16:10:43Z</time>
      </trkpt>
      <trkpt lat="49.03783" lon="4.20554">
        <ele>87.7</ele>
        <time>2020-06-30T16:10:44Z</time>
      </trkpt>
      <trkpt lat="49.03785" lon="4.20547">
        <ele>87.9</ele>
        <time>2020-06-30T16:10:45Z</time>
      </trkpt>
      <trkpt lat="49.03787" lon="4.20542">
        <ele>88.1</ele>
        <time>2020-06-30T16:10:46Z</time>
      </trkpt>
      <trkpt lat="49.03789" lon="4.20537">
        <ele>88.3</ele>
        <time>2020-06-30T16:10:47Z</time>
      </trkpt>
      <trkpt lat="49.03791" lon="4.20531">
        <ele>88.5</ele>
        <time>2020-06-30T16:10:48Z</time>
      </trkpt>
      <trkpt lat="49.03793" lon="4.20525">
        <ele>88.7</ele>
        <time>2020-06-30T16:10:49Z</time>
      </trkpt>
      <trkpt lat="49.03795" lon="4.2052">
        <ele>88.8</ele>
        <time>2020-06-30T16:10:50Z</time>
      </trkpt>
      <trkpt lat="49.03797" lon="4.20514">
        <ele>88.9</ele>
        <time>2020-06-30T16:10:51Z</time>
      </trkpt>
      <trkpt lat="49.03799" lon="4.20508">
        <ele>89</ele>
        <time>2020-06-30T16:10:52Z</time>
      </trkpt>
      <trkpt lat="49.03801" lon="4.20504">
        <ele>89.1</ele>
        <time>2020-06-30T16:10:53Z</time>
      </trkpt>
      <trkpt lat="49.03802" lon="4.20498">
        <ele>89.2</ele>
        <time>2020-06-30T16:10:54Z</time>
      </trkpt>
      <trkpt lat="49.03804" lon="4.20494">
        <ele>89.3</ele>
        <time>2020-06-30T16:10:55Z</time>
      </trkpt>
      <trkpt lat="49.03806" lon="4.20489">
        <ele>89.4</ele>
        <time>2020-06-30T16:10:56Z</time>
      </trkpt>
      <trkpt lat="49.03808" lon="4.20482">
        <ele>89.5</ele>
        <time>2020-06-30T16:10:57Z</time>
      </trkpt>
      <trkpt lat="49.0381" lon="4.20476">
        <ele>89.6</ele>
        <time>2020-06-30T16:10:58Z</time>
      </trkpt>
      <trkpt lat="49.0381" lon="4.2047">
        <ele>89.7</ele>
        <time>2020-06-30T16:10:59Z</time>
      </trkpt>
      <trkpt lat="49.03811" lon="4.20464">
        <ele>89.8</ele>
        <time>2020-06-30T16:11:00Z</time>
      </trkpt>
      <trkpt lat="49.03812" lon="4.20458">
        <ele>89.9</ele>
        <time>2020-06-30T16:11:01Z</time>
      </trkpt>
      <trkpt lat="49.03814" lon="4.20452">
        <ele>90</ele>
        <time>2020-06-30T16:11:02Z</time>
      </trkpt>
      <trkpt lat="49.03815" lon="4.20446">
        <ele>90.1</ele>
        <time>2020-06-30T16:11:03Z</time>
      </trkpt>
      <trkpt lat="49.03817" lon="4.2044">
        <ele>90.2</ele>
        <time>2020-06-30T16:11:04Z</time>
      </trkpt>
      <trkpt lat="49.03818" lon="4.20434">
        <ele>90.3</ele>
        <time>2020-06-30T16:11:05Z</time>
      </trkpt>
      <trkpt lat="49.0382" lon="4.20428">
        <ele>90.4</ele>
        <time>2020-06-30T16:11:06Z</time>
      </trkpt>
      <trkpt lat="49.03822" lon="4.20422">
        <ele>90.5</ele>
        <time>2020-06-30T16:11:07Z</time>
      </trkpt>
      <trkpt lat="49.03824" lon="4.20416">
        <ele>90.5</ele>
        <time>2020-06-30T16:11:08Z</time>
      </trkpt>
      <trkpt lat="49.03825" lon="4.20411">
        <ele>90.5</ele>
        <time>2020-06-30T16:11:09Z</time>
      </trkpt>
      <trkpt lat="49.03826" lon="4.20406">
        <ele>90.5</ele>
        <time>2020-06-30T16:11:10Z</time>
      </trkpt>
      <trkpt lat="49.03828" lon="4.20399">
        <ele>90.5</ele>
        <time>2020-06-30T16:11:11Z</time>
      </trkpt>
      <trkpt lat="49.0383" lon="4.20392">
        <ele>90.5</ele>
        <time>2020-06-30T16:11:12Z</time>
      </trkpt>
      <trkpt lat="49.03832" lon="4.20386">
        <ele>90.5</ele>
        <time>2020-06-30T16:11:13Z</time>
      </trkpt>
      <trkpt lat="49.03832" lon="4.20378">
        <ele>90.5</ele>
        <time>2020-06-30T16:11:14Z</time>
      </trkpt>
      <trkpt lat="49.03834" lon="4.20371">
        <ele>90.5</ele>
        <time>2020-06-30T16:11:15Z</time>
      </trkpt>
      <trkpt lat="49.03835" lon="4.20364">
        <ele>90.5</ele>
        <time>2020-06-30T16:11:16Z</time>
      </trkpt>
      <trkpt lat="49.03836" lon="4.20357">
        <ele>90.6</ele>
        <time>2020-06-30T16:11:17Z</time>
      </trkpt>
      <trkpt lat="49.03838" lon="4.2035">
        <ele>90.6</ele>
        <time>2020-06-30T16:11:18Z</time>
      </trkpt>
      <trkpt lat="49.03839" lon="4.20345">
        <ele>90.6</ele>
        <time>2020-06-30T16:11:19Z</time>
      </trkpt>
      <trkpt lat="49.03842" lon="4.20339">
        <ele>90.6</ele>
        <time>2020-06-30T16:11:20Z</time>
      </trkpt>
      <trkpt lat="49.03843" lon="4.20333">
        <ele>90.7</ele>
        <time>2020-06-30T16:11:21Z</time>
      </trkpt>
      <trkpt lat="49.03846" lon="4.20326">
        <ele>90.7</ele>
        <time>2020-06-30T16:11:22Z</time>
      </trkpt>
      <trkpt lat="49.03848" lon="4.2032">
        <ele>90.7</ele>
        <time>2020-06-30T16:11:23Z</time>
      </trkpt>
      <trkpt lat="49.0385" lon="4.20313">
        <ele>90.8</ele>
        <time>2020-06-30T16:11:24Z</time>
      </trkpt>
      <trkpt lat="49.03853" lon="4.20305">
        <ele>90.8</ele>
        <time>2020-06-30T16:11:25Z</time>
      </trkpt>
      <trkpt lat="49.03855" lon="4.20298">
        <ele>90.8</ele>
        <time>2020-06-30T16:11:26Z</time>
      </trkpt>
      <trkpt lat="49.03857" lon="4.2029">
        <ele>90.8</ele>
        <time>2020-06-30T16:11:27Z</time>
      </trkpt>
      <trkpt lat="49.03859" lon="4.20282">
        <ele>90.7</ele>
        <time>2020-06-30T16:11:28Z</time>
      </trkpt>
      <trkpt lat="49.0386" lon="4.20275">
        <ele>90.7</ele>
        <time>2020-06-30T16:11:29Z</time>
      </trkpt>
      <trkpt lat="49.03862" lon="4.20267">
        <ele>90.7</ele>
        <time>2020-06-30T16:11:30Z</time>
      </trkpt>
      <trkpt lat="49.03864" lon="4.2026">
        <ele>90.6</ele>
        <time>2020-06-30T16:11:31Z</time>
      </trkpt>
      <trkpt lat="49.03866" lon="4.20253">
        <ele>90.5</ele>
        <time>2020-06-30T16:11:32Z</time>
      </trkpt>
      <trkpt lat="49.03867" lon="4.20246">
        <ele>90.5</ele>
        <time>2020-06-30T16:11:33Z</time>
      </trkpt>
      <trkpt lat="49.03869" lon="4.20238">
        <ele>90.4</ele>
        <time>2020-06-30T16:11:34Z</time>
      </trkpt>
      <trkpt lat="49.03871" lon="4.2023">
        <ele>90.4</ele>
        <time>2020-06-30T16:11:35Z</time>
      </trkpt>
      <trkpt lat="49.03873" lon="4.20222">
        <ele>90.3</ele>
        <time>2020-06-30T16:11:36Z</time>
      </trkpt>
      <trkpt lat="49.03874" lon="4.20214">
        <ele>90.2</ele>
        <time>2020-06-30T16:11:37Z</time>
      </trkpt>
      <trkpt lat="49.03876" lon="4.20207">
        <ele>90.2</ele>
        <time>2020-06-30T16:11:38Z</time>
      </trkpt>
      <trkpt lat="49.03878" lon="4.202">
        <ele>90.1</ele>
        <time>2020-06-30T16:11:39Z</time>
      </trkpt>
      <trkpt lat="49.0388" lon="4.20193">
        <ele>90.1</ele>
        <time>2020-06-30T16:11:40Z</time>
      </trkpt>
      <trkpt lat="49.03882" lon="4.20184">
        <ele>90</ele>
        <time>2020-06-30T16:11:41Z</time>
      </trkpt>
      <trkpt lat="49.03883" lon="4.20175">
        <ele>89.9</ele>
        <time>2020-06-30T16:11:42Z</time>
      </trkpt>
      <trkpt lat="49.03886" lon="4.20165">
        <ele>89.9</ele>
        <time>2020-06-30T16:11:43Z</time>
      </trkpt>
      <trkpt lat="49.03888" lon="4.20156">
        <ele>89.8</ele>
        <time>2020-06-30T16:11:44Z</time>
      </trkpt>
      <trkpt lat="49.0389" lon="4.20147">
        <ele>89.7</ele>
        <time>2020-06-30T16:11:45Z</time>
      </trkpt>
      <trkpt lat="49.03892" lon="4.20137">
        <ele>89.7</ele>
        <time>2020-06-30T16:11:46Z</time>
      </trkpt>
      <trkpt lat="49.03895" lon="4.20128">
        <ele>89.6</ele>
        <time>2020-06-30T16:11:47Z</time>
      </trkpt>
      <trkpt lat="49.03898" lon="4.20118">
        <ele>89.5</ele>
        <time>2020-06-30T16:11:48Z</time>
      </trkpt>
      <trkpt lat="49.039" lon="4.20108">
        <ele>89.5</ele>
        <time>2020-06-30T16:11:49Z</time>
      </trkpt>
      <trkpt lat="49.03901" lon="4.20099">
        <ele>89.5</ele>
        <time>2020-06-30T16:11:50Z</time>
      </trkpt>
      <trkpt lat="49.03904" lon="4.20091">
        <ele>89.5</ele>
        <time>2020-06-30T16:11:51Z</time>
      </trkpt>
      <trkpt lat="49.03907" lon="4.20083">
        <ele>89.5</ele>
        <time>2020-06-30T16:11:52Z</time>
      </trkpt>
      <trkpt lat="49.0391" lon="4.20075">
        <ele>89.4</ele>
        <time>2020-06-30T16:11:53Z</time>
      </trkpt>
      <trkpt lat="49.03912" lon="4.20066">
        <ele>89.4</ele>
        <time>2020-06-30T16:11:54Z</time>
      </trkpt>
      <trkpt lat="49.03914" lon="4.20058">
        <ele>89.4</ele>
        <time>2020-06-30T16:11:55Z</time>
      </trkpt>
      <trkpt lat="49.03916" lon="4.20051">
        <ele>89.3</ele>
        <time>2020-06-30T16:11:56Z</time>
      </trkpt>
      <trkpt lat="49.03919" lon="4.20041">
        <ele>89.3</ele>
        <time>2020-06-30T16:11:57Z</time>
      </trkpt>
      <trkpt lat="49.03921" lon="4.20032">
        <ele>89.3</ele>
        <time>2020-06-30T16:11:58Z</time>
      </trkpt>
      <trkpt lat="49.03923" lon="4.20023">
        <ele>89.3</ele>
        <time>2020-06-30T16:11:59Z</time>
      </trkpt>
      <trkpt lat="49.03926" lon="4.20014">
        <ele>89.2</ele>
        <time>2020-06-30T16:12:00Z</time>
      </trkpt>
      <trkpt lat="49.03929" lon="4.20006">
        <ele>89.2</ele>
        <time>2020-06-30T16:12:01Z</time>
      </trkpt>
      <trkpt lat="49.03931" lon="4.19996">
        <ele>89.2</ele>
        <time>2020-06-30T16:12:02Z</time>
      </trkpt>
      <trkpt lat="49.03934" lon="4.19988">
        <ele>89.3</ele>
        <time>2020-06-30T16:12:03Z</time>
      </trkpt>
      <trkpt lat="49.03935" lon="4.19979">
        <ele>89.3</ele>
        <time>2020-06-30T16:12:04Z</time>
      </trkpt>
      <trkpt lat="49.03937" lon="4.1997">
        <ele>89.3</ele>
        <time>2020-06-30T16:12:05Z</time>
      </trkpt>
      <trkpt lat="49.03939" lon="4.19961">
        <ele>89.3</ele>
        <time>2020-06-30T16:12:06Z</time>
      </trkpt>
      <trkpt lat="49.03941" lon="4.19954">
        <ele>89.4</ele>
        <time>2020-06-30T16:12:07Z</time>
      </trkpt>
      <trkpt lat="49.03943" lon="4.19946">
        <ele>89.4</ele>
        <time>2020-06-30T16:12:08Z</time>
      </trkpt>
      <trkpt lat="49.03945" lon="4.19938">
        <ele>89.4</ele>
        <time>2020-06-30T16:12:09Z</time>
      </trkpt>
      <trkpt lat="49.03947" lon="4.1993">
        <ele>89.4</ele>
        <time>2020-06-30T16:12:10Z</time>
      </trkpt>
      <trkpt lat="49.03949" lon="4.19922">
        <ele>89.5</ele>
        <time>2020-06-30T16:12:11Z</time>
      </trkpt>
      <trkpt lat="49.03951" lon="4.19914">
        <ele>89.5</ele>
        <time>2020-06-30T16:12:12Z</time>
      </trkpt>
      <trkpt lat="49.03954" lon="4.19906">
        <ele>89.5</ele>
        <time>2020-06-30T16:12:13Z</time>
      </trkpt>
      <trkpt lat="49.03956" lon="4.19897">
        <ele>89.5</ele>
        <time>2020-06-30T16:12:14Z</time>
      </trkpt>
      <trkpt lat="49.03958" lon="4.19889">
        <ele>89.5</ele>
        <time>2020-06-30T16:12:15Z</time>
      </trkpt>
      <trkpt lat="49.0396" lon="4.19881">
        <ele>89.6</ele>
        <time>2020-06-30T16:12:16Z</time>
      </trkpt>
      <trkpt lat="49.03963" lon="4.19873">
        <ele>89.6</ele>
        <time>2020-06-30T16:12:17Z</time>
      </trkpt>
      <trkpt lat="49.03965" lon="4.19865">
        <ele>89.7</ele>
        <time>2020-06-30T16:12:18Z</time>
      </trkpt>
      <trkpt lat="49.03967" lon="4.19857">
        <ele>89.7</ele>
        <time>2020-06-30T16:12:19Z</time>
      </trkpt>
      <trkpt lat="49.03968" lon="4.19848">
        <ele>89.8</ele>
        <time>2020-06-30T16:12:20Z</time>
      </trkpt>
      <trkpt lat="49.03971" lon="4.19839">
        <ele>89.8</ele>
        <time>2020-06-30T16:12:21Z</time>
      </trkpt>
      <trkpt lat="49.03973" lon="4.19831">
        <ele>89.9</ele>
        <time>2020-06-30T16:12:22Z</time>
      </trkpt>
      <trkpt lat="49.03975" lon="4.19823">
        <ele>89.9</ele>
        <time>2020-06-30T16:12:23Z</time>
      </trkpt>
      <trkpt lat="49.03977" lon="4.19814">
        <ele>89.9</ele>
        <time>2020-06-30T16:12:24Z</time>
      </trkpt>
      <trkpt lat="49.03979" lon="4.19807">
        <ele>89.9</ele>
        <time>2020-06-30T16:12:25Z</time>
      </trkpt>
      <trkpt lat="49.03981" lon="4.19798">
        <ele>90</ele>
        <time>2020-06-30T16:12:26Z</time>
      </trkpt>
      <trkpt lat="49.03983" lon="4.19791">
        <ele>90</ele>
        <time>2020-06-30T16:12:27Z</time>
      </trkpt>
      <trkpt lat="49.03984" lon="4.19784">
        <ele>90</ele>
        <time>2020-06-30T16:12:28Z</time>
      </trkpt>
      <trkpt lat="49.03986" lon="4.19778">
        <ele>90.1</ele>
        <time>2020-06-30T16:12:29Z</time>
      </trkpt>
      <trkpt lat="49.03988" lon="4.1977">
        <ele>90.2</ele>
        <time>2020-06-30T16:12:30Z</time>
      </trkpt>
      <trkpt lat="49.0399" lon="4.19762">
        <ele>90.2</ele>
        <time>2020-06-30T16:12:31Z</time>
      </trkpt>
      <trkpt lat="49.03992" lon="4.19754">
        <ele>90.3</ele>
        <time>2020-06-30T16:12:32Z</time>
      </trkpt>
      <trkpt lat="49.03993" lon="4.19745">
        <ele>90.4</ele>
        <time>2020-06-30T16:12:33Z</time>
      </trkpt>
      <trkpt lat="49.03995" lon="4.19739">
        <ele>90.5</ele>
        <time>2020-06-30T16:12:34Z</time>
      </trkpt>
      <trkpt lat="49.03997" lon="4.19731">
        <ele>90.6</ele>
        <time>2020-06-30T16:12:35Z</time>
      </trkpt>
      <trkpt lat="49.03999" lon="4.19724">
        <ele>90.7</ele>
        <time>2020-06-30T16:12:36Z</time>
      </trkpt>
      <trkpt lat="49.04" lon="4.19718">
        <ele>90.7</ele>
        <time>2020-06-30T16:12:37Z</time>
      </trkpt>
      <trkpt lat="49.04002" lon="4.19711">
        <ele>90.8</ele>
        <time>2020-06-30T16:12:38Z</time>
      </trkpt>
      <trkpt lat="49.04003" lon="4.19705">
        <ele>90.8</ele>
        <time>2020-06-30T16:12:39Z</time>
      </trkpt>
      <trkpt lat="49.04005" lon="4.19697">
        <ele>90.9</ele>
        <time>2020-06-30T16:12:40Z</time>
      </trkpt>
      <trkpt lat="49.04006" lon="4.19689">
        <ele>91</ele>
        <time>2020-06-30T16:12:41Z</time>
      </trkpt>
      <trkpt lat="49.04007" lon="4.19681">
        <ele>91</ele>
        <time>2020-06-30T16:12:42Z</time>
      </trkpt>
      <trkpt lat="49.0401" lon="4.19674">
        <ele>91.1</ele>
        <time>2020-06-30T16:12:43Z</time>
      </trkpt>
      <trkpt lat="49.04011" lon="4.19667">
        <ele>91.2</ele>
        <time>2020-06-30T16:12:44Z</time>
      </trkpt>
      <trkpt lat="49.04013" lon="4.19659">
        <ele>91.2</ele>
        <time>2020-06-30T16:12:45Z</time>
      </trkpt>
      <trkpt lat="49.04016" lon="4.1965">
        <ele>91.3</ele>
        <time>2020-06-30T16:12:46Z</time>
      </trkpt>
      <trkpt lat="49.04019" lon="4.19642">
        <ele>91.3</ele>
        <time>2020-06-30T16:12:47Z</time>
      </trkpt>
      <trkpt lat="49.04021" lon="4.19635">
        <ele>91.4</ele>
        <time>2020-06-30T16:12:48Z</time>
      </trkpt>
      <trkpt lat="49.04023" lon="4.19628">
        <ele>91.4</ele>
        <time>2020-06-30T16:12:49Z</time>
      </trkpt>
      <trkpt lat="49.04025" lon="4.19622">
        <ele>91.4</ele>
        <time>2020-06-30T16:12:50Z</time>
      </trkpt>
      <trkpt lat="49.04027" lon="4.19614">
        <ele>91.5</ele>
        <time>2020-06-30T16:12:51Z</time>
      </trkpt>
      <trkpt lat="49.0403" lon="4.19606">
        <ele>91.6</ele>
        <time>2020-06-30T16:12:52Z</time>
      </trkpt>
      <trkpt lat="49.04032" lon="4.19598">
        <ele>91.6</ele>
        <time>2020-06-30T16:12:53Z</time>
      </trkpt>
      <trkpt lat="49.04035" lon="4.1959">
        <ele>91.7</ele>
        <time>2020-06-30T16:12:54Z</time>
      </trkpt>
      <trkpt lat="49.04036" lon="4.19582">
        <ele>91.7</ele>
        <time>2020-06-30T16:12:55Z</time>
      </trkpt>
      <trkpt lat="49.04039" lon="4.19574">
        <ele>91.7</ele>
        <time>2020-06-30T16:12:56Z</time>
      </trkpt>
      <trkpt lat="49.04041" lon="4.19567">
        <ele>91.7</ele>
        <time>2020-06-30T16:12:57Z</time>
      </trkpt>
      <trkpt lat="49.04043" lon="4.1956">
        <ele>91.7</ele>
        <time>2020-06-30T16:12:58Z</time>
      </trkpt>
      <trkpt lat="49.04045" lon="4.19554">
        <ele>91.7</ele>
        <time>2020-06-30T16:12:59Z</time>
      </trkpt>
      <trkpt lat="49.04047" lon="4.19545">
        <ele>91.7</ele>
        <time>2020-06-30T16:13:00Z</time>
      </trkpt>
      <trkpt lat="49.0405" lon="4.19535">
        <ele>91.6</ele>
        <time>2020-06-30T16:13:01Z</time>
      </trkpt>
      <trkpt lat="49.04052" lon="4.19527">
        <ele>91.6</ele>
        <time>2020-06-30T16:13:02Z</time>
      </trkpt>
      <trkpt lat="49.04054" lon="4.1952">
        <ele>91.6</ele>
        <time>2020-06-30T16:13:03Z</time>
      </trkpt>
      <trkpt lat="49.04056" lon="4.19513">
        <ele>91.5</ele>
        <time>2020-06-30T16:13:04Z</time>
      </trkpt>
      <trkpt lat="49.04057" lon="4.19506">
        <ele>91.5</ele>
        <time>2020-06-30T16:13:05Z</time>
      </trkpt>
      <trkpt lat="49.0406" lon="4.19499">
        <ele>91.5</ele>
        <time>2020-06-30T16:13:06Z</time>
      </trkpt>
      <trkpt lat="49.04062" lon="4.19489">
        <ele>91.6</ele>
        <time>2020-06-30T16:13:07Z</time>
      </trkpt>
      <trkpt lat="49.04064" lon="4.1948">
        <ele>91.6</ele>
        <time>2020-06-30T16:13:08Z</time>
      </trkpt>
      <trkpt lat="49.04066" lon="4.19472">
        <ele>91.8</ele>
        <time>2020-06-30T16:13:09Z</time>
      </trkpt>
      <trkpt lat="49.04068" lon="4.19464">
        <ele>91.7</ele>
        <time>2020-06-30T16:13:10Z</time>
      </trkpt>
      <trkpt lat="49.0407" lon="4.19456">
        <ele>91.6</ele>
        <time>2020-06-30T16:13:11Z</time>
      </trkpt>
      <trkpt lat="49.04073" lon="4.19447">
        <ele>91.5</ele>
        <time>2020-06-30T16:13:12Z</time>
      </trkpt>
      <trkpt lat="49.04075" lon="4.19439">
        <ele>91.4</ele>
        <time>2020-06-30T16:13:13Z</time>
      </trkpt>
      <trkpt lat="49.04078" lon="4.1943">
        <ele>91.4</ele>
        <time>2020-06-30T16:13:14Z</time>
      </trkpt>
      <trkpt lat="49.0408" lon="4.1942">
        <ele>91.4</ele>
        <time>2020-06-30T16:13:15Z</time>
      </trkpt>
      <trkpt lat="49.04082" lon="4.19411">
        <ele>91.3</ele>
        <time>2020-06-30T16:13:16Z</time>
      </trkpt>
      <trkpt lat="49.04084" lon="4.19402">
        <ele>91.3</ele>
        <time>2020-06-30T16:13:17Z</time>
      </trkpt>
      <trkpt lat="49.04086" lon="4.19393">
        <ele>91.3</ele>
        <time>2020-06-30T16:13:18Z</time>
      </trkpt>
      <trkpt lat="49.04088" lon="4.19383">
        <ele>91.2</ele>
        <time>2020-06-30T16:13:19Z</time>
      </trkpt>
      <trkpt lat="49.0409" lon="4.19374">
        <ele>91.2</ele>
        <time>2020-06-30T16:13:20Z</time>
      </trkpt>
      <trkpt lat="49.04092" lon="4.19364">
        <ele>91.1</ele>
        <time>2020-06-30T16:13:21Z</time>
      </trkpt>
      <trkpt lat="49.04095" lon="4.19355">
        <ele>91.1</ele>
        <time>2020-06-30T16:13:22Z</time>
      </trkpt>
      <trkpt lat="49.04096" lon="4.19346">
        <ele>91</ele>
        <time>2020-06-30T16:13:23Z</time>
      </trkpt>
      <trkpt lat="49.04099" lon="4.19337">
        <ele>91</ele>
        <time>2020-06-30T16:13:24Z</time>
      </trkpt>
      <trkpt lat="49.04101" lon="4.19327">
        <ele>90.9</ele>
        <time>2020-06-30T16:13:25Z</time>
      </trkpt>
      <trkpt lat="49.04104" lon="4.19317">
        <ele>90.8</ele>
        <time>2020-06-30T16:13:26Z</time>
      </trkpt>
      <trkpt lat="49.04106" lon="4.19308">
        <ele>90.7</ele>
        <time>2020-06-30T16:13:27Z</time>
      </trkpt>
      <trkpt lat="49.04108" lon="4.19299">
        <ele>90.7</ele>
        <time>2020-06-30T16:13:28Z</time>
      </trkpt>
      <trkpt lat="49.04111" lon="4.1929">
        <ele>90.6</ele>
        <time>2020-06-30T16:13:29Z</time>
      </trkpt>
      <trkpt lat="49.04113" lon="4.1928">
        <ele>90.5</ele>
        <time>2020-06-30T16:13:30Z</time>
      </trkpt>
      <trkpt lat="49.04116" lon="4.19271">
        <ele>90.5</ele>
        <time>2020-06-30T16:13:31Z</time>
      </trkpt>
      <trkpt lat="49.04118" lon="4.19263">
        <ele>90.4</ele>
        <time>2020-06-30T16:13:32Z</time>
      </trkpt>
      <trkpt lat="49.0412" lon="4.19253">
        <ele>90.3</ele>
        <time>2020-06-30T16:13:33Z</time>
      </trkpt>
      <trkpt lat="49.04122" lon="4.19244">
        <ele>90.2</ele>
        <time>2020-06-30T16:13:34Z</time>
      </trkpt>
      <trkpt lat="49.04125" lon="4.19235">
        <ele>90.1</ele>
        <time>2020-06-30T16:13:35Z</time>
      </trkpt>
      <trkpt lat="49.04127" lon="4.19226">
        <ele>89.9</ele>
        <time>2020-06-30T16:13:36Z</time>
      </trkpt>
      <trkpt lat="49.04129" lon="4.19216">
        <ele>89.8</ele>
        <time>2020-06-30T16:13:37Z</time>
      </trkpt>
      <trkpt lat="49.04131" lon="4.19206">
        <ele>89.6</ele>
        <time>2020-06-30T16:13:38Z</time>
      </trkpt>
      <trkpt lat="49.04134" lon="4.19198">
        <ele>89.5</ele>
        <time>2020-06-30T16:13:39Z</time>
      </trkpt>
      <trkpt lat="49.04136" lon="4.19191">
        <ele>89.3</ele>
        <time>2020-06-30T16:13:40Z</time>
      </trkpt>
      <trkpt lat="49.04137" lon="4.19183">
        <ele>89.2</ele>
        <time>2020-06-30T16:13:41Z</time>
      </trkpt>
      <trkpt lat="49.04139" lon="4.19175">
        <ele>89.1</ele>
        <time>2020-06-30T16:13:42Z</time>
      </trkpt>
      <trkpt lat="49.04141" lon="4.19167">
        <ele>88.9</ele>
        <time>2020-06-30T16:13:43Z</time>
      </trkpt>
      <trkpt lat="49.04143" lon="4.19159">
        <ele>88.8</ele>
        <time>2020-06-30T16:13:44Z</time>
      </trkpt>
      <trkpt lat="49.04145" lon="4.1915">
        <ele>88.6</ele>
        <time>2020-06-30T16:13:45Z</time>
      </trkpt>
      <trkpt lat="49.04148" lon="4.1914">
        <ele>88.4</ele>
        <time>2020-06-30T16:13:46Z</time>
      </trkpt>
      <trkpt lat="49.0415" lon="4.19132">
        <ele>88.2</ele>
        <time>2020-06-30T16:13:47Z</time>
      </trkpt>
      <trkpt lat="49.04152" lon="4.19123">
        <ele>88</ele>
        <time>2020-06-30T16:13:48Z</time>
      </trkpt>
      <trkpt lat="49.04154" lon="4.19115">
        <ele>87.7</ele>
        <time>2020-06-30T16:13:49Z</time>
      </trkpt>
      <trkpt lat="49.04157" lon="4.19107">
        <ele>87.5</ele>
        <time>2020-06-30T16:13:50Z</time>
      </trkpt>
      <trkpt lat="49.04159" lon="4.19099">
        <ele>87.2</ele>
        <time>2020-06-30T16:13:51Z</time>
      </trkpt>
      <trkpt lat="49.04161" lon="4.19091">
        <ele>87</ele>
        <time>2020-06-30T16:13:52Z</time>
      </trkpt>
      <trkpt lat="49.04163" lon="4.19081">
        <ele>86.7</ele>
        <time>2020-06-30T16:13:53Z</time>
      </trkpt>
      <trkpt lat="49.04166" lon="4.19071">
        <ele>86.4</ele>
        <time>2020-06-30T16:13:54Z</time>
      </trkpt>
      <trkpt lat="49.04169" lon="4.19063">
        <ele>86.1</ele>
        <time>2020-06-30T16:13:55Z</time>
      </trkpt>
      <trkpt lat="49.04172" lon="4.19054">
        <ele>85.8</ele>
        <time>2020-06-30T16:13:56Z</time>
      </trkpt>
      <trkpt lat="49.04174" lon="4.19045">
        <ele>85.5</ele>
        <time>2020-06-30T16:13:57Z</time>
      </trkpt>
      <trkpt lat="49.04177" lon="4.19035">
        <ele>85.2</ele>
        <time>2020-06-30T16:13:58Z</time>
      </trkpt>
      <trkpt lat="49.0418" lon="4.19025">
        <ele>84.9</ele>
        <time>2020-06-30T16:13:59Z</time>
      </trkpt>
      <trkpt lat="49.04182" lon="4.19014">
        <ele>84.5</ele>
        <time>2020-06-30T16:14:00Z</time>
      </trkpt>
      <trkpt lat="49.04185" lon="4.19003">
        <ele>84.2</ele>
        <time>2020-06-30T16:14:01Z</time>
      </trkpt>
      <trkpt lat="49.04188" lon="4.18994">
        <ele>84</ele>
        <time>2020-06-30T16:14:02Z</time>
      </trkpt>
      <trkpt lat="49.0419" lon="4.18983">
        <ele>83.7</ele>
        <time>2020-06-30T16:14:03Z</time>
      </trkpt>
      <trkpt lat="49.04193" lon="4.18972">
        <ele>83.4</ele>
        <time>2020-06-30T16:14:04Z</time>
      </trkpt>
      <trkpt lat="49.04195" lon="4.18962">
        <ele>83.1</ele>
        <time>2020-06-30T16:14:05Z</time>
      </trkpt>
      <trkpt lat="49.04198" lon="4.18952">
        <ele>82.8</ele>
        <time>2020-06-30T16:14:06Z</time>
      </trkpt>
      <trkpt lat="49.042" lon="4.18941">
        <ele>82.6</ele>
        <time>2020-06-30T16:14:07Z</time>
      </trkpt>
      <trkpt lat="49.04203" lon="4.18931">
        <ele>82.3</ele>
        <time>2020-06-30T16:14:08Z</time>
      </trkpt>
      <trkpt lat="49.04205" lon="4.18921">
        <ele>82.1</ele>
        <time>2020-06-30T16:14:09Z</time>
      </trkpt>
      <trkpt lat="49.04208" lon="4.18912">
        <ele>81.9</ele>
        <time>2020-06-30T16:14:10Z</time>
      </trkpt>
      <trkpt lat="49.0421" lon="4.18902">
        <ele>81.7</ele>
        <time>2020-06-30T16:14:11Z</time>
      </trkpt>
      <trkpt lat="49.04212" lon="4.18893">
        <ele>81.5</ele>
        <time>2020-06-30T16:14:12Z</time>
      </trkpt>
      <trkpt lat="49.04215" lon="4.18883">
        <ele>81.3</ele>
        <time>2020-06-30T16:14:13Z</time>
      </trkpt>
      <trkpt lat="49.04218" lon="4.18873">
        <ele>81.1</ele>
        <time>2020-06-30T16:14:14Z</time>
      </trkpt>
      <trkpt lat="49.0422" lon="4.18863">
        <ele>80.9</ele>
        <time>2020-06-30T16:14:15Z</time>
      </trkpt>
      <trkpt lat="49.04223" lon="4.18852">
        <ele>80.6</ele>
        <time>2020-06-30T16:14:16Z</time>
      </trkpt>
      <trkpt lat="49.04226" lon="4.18841">
        <ele>80.3</ele>
        <time>2020-06-30T16:14:17Z</time>
      </trkpt>
      <trkpt lat="49.04228" lon="4.1883">
        <ele>80.1</ele>
        <time>2020-06-30T16:14:18Z</time>
      </trkpt>
      <trkpt lat="49.0423" lon="4.1882">
        <ele>79.9</ele>
        <time>2020-06-30T16:14:19Z</time>
      </trkpt>
      <trkpt lat="49.04232" lon="4.1881">
        <ele>79.7</ele>
        <time>2020-06-30T16:14:20Z</time>
      </trkpt>
      <trkpt lat="49.04236" lon="4.188">
        <ele>79.6</ele>
        <time>2020-06-30T16:14:21Z</time>
      </trkpt>
      <trkpt lat="49.04238" lon="4.1879">
        <ele>79.5</ele>
        <time>2020-06-30T16:14:22Z</time>
      </trkpt>
      <trkpt lat="49.0424" lon="4.1878">
        <ele>79.4</ele>
        <time>2020-06-30T16:14:23Z</time>
      </trkpt>
      <trkpt lat="49.04243" lon="4.18769">
        <ele>79.4</ele>
        <time>2020-06-30T16:14:24Z</time>
      </trkpt>
      <trkpt lat="49.04245" lon="4.18759">
        <ele>79.2</ele>
        <time>2020-06-30T16:14:25Z</time>
      </trkpt>
      <trkpt lat="49.04248" lon="4.18749">
        <ele>79.1</ele>
        <time>2020-06-30T16:14:26Z</time>
      </trkpt>
      <trkpt lat="49.04251" lon="4.18739">
        <ele>78.9</ele>
        <time>2020-06-30T16:14:27Z</time>
      </trkpt>
      <trkpt lat="49.04254" lon="4.18729">
        <ele>78.7</ele>
        <time>2020-06-30T16:14:28Z</time>
      </trkpt>
      <trkpt lat="49.04256" lon="4.18718">
        <ele>78.6</ele>
        <time>2020-06-30T16:14:29Z</time>
      </trkpt>
      <trkpt lat="49.04258" lon="4.18707">
        <ele>78.3</ele>
        <time>2020-06-30T16:14:30Z</time>
      </trkpt>
      <trkpt lat="49.04261" lon="4.18697">
        <ele>78.1</ele>
        <time>2020-06-30T16:14:31Z</time>
      </trkpt>
      <trkpt lat="49.04264" lon="4.18686">
        <ele>78</ele>
        <time>2020-06-30T16:14:32Z</time>
      </trkpt>
      <trkpt lat="49.04266" lon="4.18675">
        <ele>77.9</ele>
        <time>2020-06-30T16:14:33Z</time>
      </trkpt>
      <trkpt lat="49.04268" lon="4.18665">
        <ele>77.7</ele>
        <time>2020-06-30T16:14:34Z</time>
      </trkpt>
      <trkpt lat="49.04271" lon="4.18655">
        <ele>77.6</ele>
        <time>2020-06-30T16:14:35Z</time>
      </trkpt>
      <trkpt lat="49.04273" lon="4.18645">
        <ele>77.4</ele>
        <time>2020-06-30T16:14:36Z</time>
      </trkpt>
      <trkpt lat="49.04275" lon="4.18635">
        <ele>77.3</ele>
        <time>2020-06-30T16:14:37Z</time>
      </trkpt>
      <trkpt lat="49.04277" lon="4.18626">
        <ele>77.1</ele>
        <time>2020-06-30T16:14:38Z</time>
      </trkpt>
      <trkpt lat="49.0428" lon="4.18616">
        <ele>77</ele>
        <time>2020-06-30T16:14:39Z</time>
      </trkpt>
      <trkpt lat="49.04283" lon="4.18606">
        <ele>76.8</ele>
        <time>2020-06-30T16:14:40Z</time>
      </trkpt>
      <trkpt lat="49.04285" lon="4.18597">
        <ele>76.7</ele>
        <time>2020-06-30T16:14:41Z</time>
      </trkpt>
      <trkpt lat="49.04288" lon="4.18587">
        <ele>76.6</ele>
        <time>2020-06-30T16:14:42Z</time>
      </trkpt>
      <trkpt lat="49.04291" lon="4.18576">
        <ele>76.5</ele>
        <time>2020-06-30T16:14:43Z</time>
      </trkpt>
      <trkpt lat="49.04293" lon="4.18565">
        <ele>76.4</ele>
        <time>2020-06-30T16:14:44Z</time>
      </trkpt>
      <trkpt lat="49.04296" lon="4.18555">
        <ele>76.4</ele>
        <time>2020-06-30T16:14:45Z</time>
      </trkpt>
      <trkpt lat="49.04298" lon="4.18545">
        <ele>76.3</ele>
        <time>2020-06-30T16:14:46Z</time>
      </trkpt>
      <trkpt lat="49.04301" lon="4.18535">
        <ele>76.3</ele>
        <time>2020-06-30T16:14:47Z</time>
      </trkpt>
      <trkpt lat="49.04304" lon="4.18525">
        <ele>76.3</ele>
        <time>2020-06-30T16:14:48Z</time>
      </trkpt>
      <trkpt lat="49.04307" lon="4.18515">
        <ele>76.4</ele>
        <time>2020-06-30T16:14:49Z</time>
      </trkpt>
      <trkpt lat="49.0431" lon="4.18505">
        <ele>76.4</ele>
        <time>2020-06-30T16:14:50Z</time>
      </trkpt>
      <trkpt lat="49.04312" lon="4.18495">
        <ele>76.5</ele>
        <time>2020-06-30T16:14:51Z</time>
      </trkpt>
      <trkpt lat="49.04314" lon="4.18485">
        <ele>76.5</ele>
        <time>2020-06-30T16:14:52Z</time>
      </trkpt>
      <trkpt lat="49.04316" lon="4.18474">
        <ele>76.5</ele>
        <time>2020-06-30T16:14:53Z</time>
      </trkpt>
      <trkpt lat="49.04319" lon="4.18465">
        <ele>76.6</ele>
        <time>2020-06-30T16:14:54Z</time>
      </trkpt>
      <trkpt lat="49.04322" lon="4.18455">
        <ele>76.6</ele>
        <time>2020-06-30T16:14:55Z</time>
      </trkpt>
      <trkpt lat="49.04326" lon="4.18446">
        <ele>76.4</ele>
        <time>2020-06-30T16:14:56Z</time>
      </trkpt>
      <trkpt lat="49.04328" lon="4.18437">
        <ele>76.3</ele>
        <time>2020-06-30T16:14:57Z</time>
      </trkpt>
      <trkpt lat="49.04331" lon="4.18428">
        <ele>76.3</ele>
        <time>2020-06-30T16:14:58Z</time>
      </trkpt>
      <trkpt lat="49.04334" lon="4.18419">
        <ele>76.2</ele>
        <time>2020-06-30T16:14:59Z</time>
      </trkpt>
      <trkpt lat="49.04337" lon="4.18411">
        <ele>76.2</ele>
        <time>2020-06-30T16:15:00Z</time>
      </trkpt>
      <trkpt lat="49.0434" lon="4.18403">
        <ele>76.2</ele>
        <time>2020-06-30T16:15:01Z</time>
      </trkpt>
      <trkpt lat="49.04343" lon="4.18395">
        <ele>76.3</ele>
        <time>2020-06-30T16:15:02Z</time>
      </trkpt>
      <trkpt lat="49.04346" lon="4.18386">
        <ele>76.3</ele>
        <time>2020-06-30T16:15:03Z</time>
      </trkpt>
      <trkpt lat="49.04348" lon="4.18378">
        <ele>76.3</ele>
        <time>2020-06-30T16:15:04Z</time>
      </trkpt>
      <trkpt lat="49.04351" lon="4.1837">
        <ele>76.4</ele>
        <time>2020-06-30T16:15:05Z</time>
      </trkpt>
      <trkpt lat="49.04353" lon="4.18362">
        <ele>76.4</ele>
        <time>2020-06-30T16:15:06Z</time>
      </trkpt>
      <trkpt lat="49.04356" lon="4.18354">
        <ele>76.4</ele>
        <time>2020-06-30T16:15:07Z</time>
      </trkpt>
      <trkpt lat="49.04359" lon="4.18345">
        <ele>76.5</ele>
        <time>2020-06-30T16:15:08Z</time>
      </trkpt>
      <trkpt lat="49.04362" lon="4.18338">
        <ele>76.5</ele>
        <time>2020-06-30T16:15:09Z</time>
      </trkpt>
      <trkpt lat="49.04364" lon="4.1833">
        <ele>76.6</ele>
        <time>2020-06-30T16:15:10Z</time>
      </trkpt>
      <trkpt lat="49.04367" lon="4.18322">
        <ele>76.7</ele>
        <time>2020-06-30T16:15:11Z</time>
      </trkpt>
      <trkpt lat="49.0437" lon="4.18314">
        <ele>76.7</ele>
        <time>2020-06-30T16:15:12Z</time>
      </trkpt>
      <trkpt lat="49.04372" lon="4.18306">
        <ele>76.8</ele>
        <time>2020-06-30T16:15:13Z</time>
      </trkpt>
      <trkpt lat="49.04374" lon="4.18298">
        <ele>76.9</ele>
        <time>2020-06-30T16:15:14Z</time>
      </trkpt>
      <trkpt lat="49.04376" lon="4.1829">
        <ele>76.9</ele>
        <time>2020-06-30T16:15:15Z</time>
      </trkpt>
      <trkpt lat="49.04379" lon="4.18283">
        <ele>76.9</ele>
        <time>2020-06-30T16:15:16Z</time>
      </trkpt>
      <trkpt lat="49.0438" lon="4.18276">
        <ele>77</ele>
        <time>2020-06-30T16:15:17Z</time>
      </trkpt>
      <trkpt lat="49.04383" lon="4.18269">
        <ele>77</ele>
        <time>2020-06-30T16:15:18Z</time>
      </trkpt>
      <trkpt lat="49.04385" lon="4.18263">
        <ele>77</ele>
        <time>2020-06-30T16:15:19Z</time>
      </trkpt>
      <trkpt lat="49.04387" lon="4.18257">
        <ele>77.1</ele>
        <time>2020-06-30T16:15:20Z</time>
      </trkpt>
      <trkpt lat="49.04389" lon="4.1825">
        <ele>77.1</ele>
        <time>2020-06-30T16:15:21Z</time>
      </trkpt>
      <trkpt lat="49.04391" lon="4.18243">
        <ele>77.2</ele>
        <time>2020-06-30T16:15:22Z</time>
      </trkpt>
      <trkpt lat="49.04394" lon="4.18236">
        <ele>77.3</ele>
        <time>2020-06-30T16:15:23Z</time>
      </trkpt>
      <trkpt lat="49.04396" lon="4.1823">
        <ele>77.4</ele>
        <time>2020-06-30T16:15:24Z</time>
      </trkpt>
      <trkpt lat="49.04398" lon="4.18224">
        <ele>77.5</ele>
        <time>2020-06-30T16:15:25Z</time>
      </trkpt>
      <trkpt lat="49.044" lon="4.18217">
        <ele>77.4</ele>
        <time>2020-06-30T16:15:26Z</time>
      </trkpt>
      <trkpt lat="49.04403" lon="4.1821">
        <ele>77.1</ele>
        <time>2020-06-30T16:15:27Z</time>
      </trkpt>
      <trkpt lat="49.04406" lon="4.18202">
        <ele>76.9</ele>
        <time>2020-06-30T16:15:28Z</time>
      </trkpt>
      <trkpt lat="49.04408" lon="4.18194">
        <ele>76.7</ele>
        <time>2020-06-30T16:15:29Z</time>
      </trkpt>
      <trkpt lat="49.0441" lon="4.18185">
        <ele>76.5</ele>
        <time>2020-06-30T16:15:30Z</time>
      </trkpt>
      <trkpt lat="49.04412" lon="4.18177">
        <ele>76.2</ele>
        <time>2020-06-30T16:15:31Z</time>
      </trkpt>
      <trkpt lat="49.04414" lon="4.18169">
        <ele>76.2</ele>
        <time>2020-06-30T16:15:32Z</time>
      </trkpt>
      <trkpt lat="49.04415" lon="4.18162">
        <ele>76.2</ele>
        <time>2020-06-30T16:15:33Z</time>
      </trkpt>
      <trkpt lat="49.04416" lon="4.18155">
        <ele>76.3</ele>
        <time>2020-06-30T16:15:34Z</time>
      </trkpt>
      <trkpt lat="49.04418" lon="4.18148">
        <ele>76.3</ele>
        <time>2020-06-30T16:15:35Z</time>
      </trkpt>
      <trkpt lat="49.0442" lon="4.18141">
        <ele>76.3</ele>
        <time>2020-06-30T16:15:36Z</time>
      </trkpt>
      <trkpt lat="49.04422" lon="4.18134">
        <ele>76.4</ele>
        <time>2020-06-30T16:15:37Z</time>
      </trkpt>
      <trkpt lat="49.04424" lon="4.18129">
        <ele>76.4</ele>
        <time>2020-06-30T16:15:38Z</time>
      </trkpt>
      <trkpt lat="49.04427" lon="4.18122">
        <ele>76.5</ele>
        <time>2020-06-30T16:15:39Z</time>
      </trkpt>
      <trkpt lat="49.04429" lon="4.18115">
        <ele>76.5</ele>
        <time>2020-06-30T16:15:40Z</time>
      </trkpt>
      <trkpt lat="49.04431" lon="4.18108">
        <ele>76.6</ele>
        <time>2020-06-30T16:15:41Z</time>
      </trkpt>
      <trkpt lat="49.04433" lon="4.18101">
        <ele>76.7</ele>
        <time>2020-06-30T16:15:42Z</time>
      </trkpt>
      <trkpt lat="49.04435" lon="4.18095">
        <ele>76.8</ele>
        <time>2020-06-30T16:15:43Z</time>
      </trkpt>
      <trkpt lat="49.04437" lon="4.18089">
        <ele>76.9</ele>
        <time>2020-06-30T16:15:44Z</time>
      </trkpt>
      <trkpt lat="49.04439" lon="4.18082">
        <ele>77</ele>
        <time>2020-06-30T16:15:45Z</time>
      </trkpt>
      <trkpt lat="49.04441" lon="4.18075">
        <ele>77.1</ele>
        <time>2020-06-30T16:15:46Z</time>
      </trkpt>
      <trkpt lat="49.04444" lon="4.18069">
        <ele>77.2</ele>
        <time>2020-06-30T16:15:47Z</time>
      </trkpt>
      <trkpt lat="49.04445" lon="4.18063">
        <ele>77.3</ele>
        <time>2020-06-30T16:15:48Z</time>
      </trkpt>
      <trkpt lat="49.04446" lon="4.18057">
        <ele>77.3</ele>
        <time>2020-06-30T16:15:49Z</time>
      </trkpt>
      <trkpt lat="49.04448" lon="4.18051">
        <ele>77.4</ele>
        <time>2020-06-30T16:15:50Z</time>
      </trkpt>
      <trkpt lat="49.0445" lon="4.18046">
        <ele>77.4</ele>
        <time>2020-06-30T16:15:51Z</time>
      </trkpt>
      <trkpt lat="49.04451" lon="4.18041">
        <ele>77.5</ele>
        <time>2020-06-30T16:15:52Z</time>
      </trkpt>
      <trkpt lat="49.04452" lon="4.18037">
        <ele>77.5</ele>
        <time>2020-06-30T16:15:53Z</time>
      </trkpt>
      <trkpt lat="49.04455" lon="4.18034">
        <ele>77.6</ele>
        <time>2020-06-30T16:15:54Z</time>
      </trkpt>
      <trkpt lat="49.04457" lon="4.18031">
        <ele>77.7</ele>
        <time>2020-06-30T16:15:55Z</time>
      </trkpt>
      <trkpt lat="49.04457" lon="4.18028">
        <ele>77.7</ele>
        <time>2020-06-30T16:15:56Z</time>
      </trkpt>
      <trkpt lat="49.04456" lon="4.18026">
        <ele>77.8</ele>
        <time>2020-06-30T16:15:57Z</time>
      </trkpt>
      <trkpt lat="49.04455" lon="4.18025">
        <ele>77.8</ele>
        <time>2020-06-30T16:15:58Z</time>
      </trkpt>
      <trkpt lat="49.04454" lon="4.18025">
        <ele>77.8</ele>
        <time>2020-06-30T16:15:59Z</time>
      </trkpt>
      <trkpt lat="49.04451" lon="4.18024">
        <ele>78.4</ele>
        <time>2020-06-30T16:16:00Z</time>
      </trkpt>
      <trkpt lat="49.0445" lon="4.18023">
        <ele>78.5</ele>
        <time>2020-06-30T16:16:01Z</time>
      </trkpt>
      <trkpt lat="49.04447" lon="4.18021">
        <ele>78.7</ele>
        <time>2020-06-30T16:16:02Z</time>
      </trkpt>
      <trkpt lat="49.04446" lon="4.18021">
        <ele>78.7</ele>
        <time>2020-06-30T16:16:03Z</time>
      </trkpt>
      <trkpt lat="49.04444" lon="4.18018">
        <ele>78.9</ele>
        <time>2020-06-30T16:16:04Z</time>
      </trkpt>
      <trkpt lat="49.04441" lon="4.18017">
        <ele>79.2</ele>
        <time>2020-06-30T16:16:05Z</time>
      </trkpt>
      <trkpt lat="49.04438" lon="4.18015">
        <ele>79.1</ele>
        <time>2020-06-30T16:16:06Z</time>
      </trkpt>
      <trkpt lat="49.04434" lon="4.18014">
        <ele>79.1</ele>
        <time>2020-06-30T16:16:07Z</time>
      </trkpt>
      <trkpt lat="49.0443" lon="4.18012">
        <ele>79</ele>
        <time>2020-06-30T16:16:08Z</time>
      </trkpt>
      <trkpt lat="49.04426" lon="4.18009">
        <ele>79</ele>
        <time>2020-06-30T16:16:09Z</time>
      </trkpt>
      <trkpt lat="49.04422" lon="4.18006">
        <ele>79</ele>
        <time>2020-06-30T16:16:10Z</time>
      </trkpt>
      <trkpt lat="49.04419" lon="4.18001">
        <ele>79</ele>
        <time>2020-06-30T16:16:11Z</time>
      </trkpt>
      <trkpt lat="49.04416" lon="4.17996">
        <ele>79</ele>
        <time>2020-06-30T16:16:12Z</time>
      </trkpt>
      <trkpt lat="49.04413" lon="4.1799">
        <ele>79</ele>
        <time>2020-06-30T16:16:13Z</time>
      </trkpt>
      <trkpt lat="49.04409" lon="4.17986">
        <ele>79</ele>
        <time>2020-06-30T16:16:14Z</time>
      </trkpt>
      <trkpt lat="49.04406" lon="4.17982">
        <ele>79</ele>
        <time>2020-06-30T16:16:15Z</time>
      </trkpt>
      <trkpt lat="49.04401" lon="4.17979">
        <ele>79.1</ele>
        <time>2020-06-30T16:16:16Z</time>
      </trkpt>
      <trkpt lat="49.04397" lon="4.17975">
        <ele>79.1</ele>
        <time>2020-06-30T16:16:17Z</time>
      </trkpt>
      <trkpt lat="49.04393" lon="4.17972">
        <ele>79.1</ele>
        <time>2020-06-30T16:16:18Z</time>
      </trkpt>
      <trkpt lat="49.04389" lon="4.1797">
        <ele>79.1</ele>
        <time>2020-06-30T16:16:19Z</time>
      </trkpt>
      <trkpt lat="49.04385" lon="4.17968">
        <ele>79.1</ele>
        <time>2020-06-30T16:16:20Z</time>
      </trkpt>
      <trkpt lat="49.04381" lon="4.17968">
        <ele>79.1</ele>
        <time>2020-06-30T16:16:21Z</time>
      </trkpt>
      <trkpt lat="49.04378" lon="4.17967">
        <ele>79.1</ele>
        <time>2020-06-30T16:16:22Z</time>
      </trkpt>
      <trkpt lat="49.04374" lon="4.17965">
        <ele>79.1</ele>
        <time>2020-06-30T16:16:23Z</time>
      </trkpt>
      <trkpt lat="49.04371" lon="4.17964">
        <ele>79.1</ele>
        <time>2020-06-30T16:16:24Z</time>
      </trkpt>
      <trkpt lat="49.04368" lon="4.17963">
        <ele>79.1</ele>
        <time>2020-06-30T16:16:25Z</time>
      </trkpt>
      <trkpt lat="49.04364" lon="4.17963">
        <ele>79.1</ele>
        <time>2020-06-30T16:16:26Z</time>
      </trkpt>
      <trkpt lat="49.0436" lon="4.17963">
        <ele>79.1</ele>
        <time>2020-06-30T16:16:27Z</time>
      </trkpt>
      <trkpt lat="49.04356" lon="4.17961">
        <ele>79.1</ele>
        <time>2020-06-30T16:16:28Z</time>
      </trkpt>
      <trkpt lat="49.04351" lon="4.17958">
        <ele>79.1</ele>
        <time>2020-06-30T16:16:29Z</time>
      </trkpt>
      <trkpt lat="49.04347" lon="4.17955">
        <ele>78.9</ele>
        <time>2020-06-30T16:16:30Z</time>
      </trkpt>
      <trkpt lat="49.04343" lon="4.17953">
        <ele>78.6</ele>
        <time>2020-06-30T16:16:31Z</time>
      </trkpt>
      <trkpt lat="49.04338" lon="4.17952">
        <ele>78.4</ele>
        <time>2020-06-30T16:16:32Z</time>
      </trkpt>
      <trkpt lat="49.04334" lon="4.1795">
        <ele>78.2</ele>
        <time>2020-06-30T16:16:33Z</time>
      </trkpt>
      <trkpt lat="49.04329" lon="4.17948">
        <ele>78</ele>
        <time>2020-06-30T16:16:34Z</time>
      </trkpt>
      <trkpt lat="49.04324" lon="4.17945">
        <ele>77.7</ele>
        <time>2020-06-30T16:16:35Z</time>
      </trkpt>
      <trkpt lat="49.0432" lon="4.17941">
        <ele>77.5</ele>
        <time>2020-06-30T16:16:36Z</time>
      </trkpt>
      <trkpt lat="49.04317" lon="4.17937">
        <ele>77.5</ele>
        <time>2020-06-30T16:16:37Z</time>
      </trkpt>
      <trkpt lat="49.04314" lon="4.17932">
        <ele>77.5</ele>
        <time>2020-06-30T16:16:38Z</time>
      </trkpt>
      <trkpt lat="49.04312" lon="4.17927">
        <ele>77.5</ele>
        <time>2020-06-30T16:16:39Z</time>
      </trkpt>
      <trkpt lat="49.04311" lon="4.1792">
        <ele>77.6</ele>
        <time>2020-06-30T16:16:40Z</time>
      </trkpt>
      <trkpt lat="49.04312" lon="4.17913">
        <ele>77.6</ele>
        <time>2020-06-30T16:16:41Z</time>
      </trkpt>
      <trkpt lat="49.04311" lon="4.17907">
        <ele>77.6</ele>
        <time>2020-06-30T16:16:42Z</time>
      </trkpt>
      <trkpt lat="49.04311" lon="4.17901">
        <ele>77.6</ele>
        <time>2020-06-30T16:16:43Z</time>
      </trkpt>
      <trkpt lat="49.04311" lon="4.17896">
        <ele>77.7</ele>
        <time>2020-06-30T16:16:44Z</time>
      </trkpt>
      <trkpt lat="49.04312" lon="4.1789">
        <ele>77.7</ele>
        <time>2020-06-30T16:16:45Z</time>
      </trkpt>
      <trkpt lat="49.04313" lon="4.17885">
        <ele>77.7</ele>
        <time>2020-06-30T16:16:46Z</time>
      </trkpt>
      <trkpt lat="49.04315" lon="4.17879">
        <ele>77.7</ele>
        <time>2020-06-30T16:16:47Z</time>
      </trkpt>
      <trkpt lat="49.04317" lon="4.17874">
        <ele>77.7</ele>
        <time>2020-06-30T16:16:48Z</time>
      </trkpt>
      <trkpt lat="49.04319" lon="4.17869">
        <ele>77.7</ele>
        <time>2020-06-30T16:16:49Z</time>
      </trkpt>
      <trkpt lat="49.04321" lon="4.17864">
        <ele>77.6</ele>
        <time>2020-06-30T16:16:50Z</time>
      </trkpt>
      <trkpt lat="49.04322" lon="4.17858">
        <ele>77.6</ele>
        <time>2020-06-30T16:16:51Z</time>
      </trkpt>
      <trkpt lat="49.04324" lon="4.17854">
        <ele>77.6</ele>
        <time>2020-06-30T16:16:52Z</time>
      </trkpt>
      <trkpt lat="49.04326" lon="4.1785">
        <ele>77.5</ele>
        <time>2020-06-30T16:16:53Z</time>
      </trkpt>
      <trkpt lat="49.04328" lon="4.17846">
        <ele>77.5</ele>
        <time>2020-06-30T16:16:54Z</time>
      </trkpt>
      <trkpt lat="49.04331" lon="4.17841">
        <ele>77.5</ele>
        <time>2020-06-30T16:16:55Z</time>
      </trkpt>
      <trkpt lat="49.04333" lon="4.17837">
        <ele>77.4</ele>
        <time>2020-06-30T16:16:56Z</time>
      </trkpt>
      <trkpt lat="49.04335" lon="4.17832">
        <ele>77.4</ele>
        <time>2020-06-30T16:16:57Z</time>
      </trkpt>
      <trkpt lat="49.04336" lon="4.17827">
        <ele>77.4</ele>
        <time>2020-06-30T16:16:58Z</time>
      </trkpt>
      <trkpt lat="49.04338" lon="4.17823">
        <ele>77.4</ele>
        <time>2020-06-30T16:16:59Z</time>
      </trkpt>
      <trkpt lat="49.04339" lon="4.17819">
        <ele>77.4</ele>
        <time>2020-06-30T16:17:00Z</time>
      </trkpt>
      <trkpt lat="49.04339" lon="4.17814">
        <ele>77</ele>
        <time>2020-06-30T16:17:01Z</time>
      </trkpt>
      <trkpt lat="49.04338" lon="4.17812">
        <ele>76.9</ele>
        <time>2020-06-30T16:17:02Z</time>
      </trkpt>
      <trkpt lat="49.04334" lon="4.17809">
        <ele>76.7</ele>
        <time>2020-06-30T16:17:03Z</time>
      </trkpt>
      <trkpt lat="49.04331" lon="4.17806">
        <ele>76.5</ele>
        <time>2020-06-30T16:17:04Z</time>
      </trkpt>
      <trkpt lat="49.04328" lon="4.17801">
        <ele>76.3</ele>
        <time>2020-06-30T16:17:05Z</time>
      </trkpt>
      <trkpt lat="49.04324" lon="4.17797">
        <ele>76.2</ele>
        <time>2020-06-30T16:17:06Z</time>
      </trkpt>
      <trkpt lat="49.0432" lon="4.17793">
        <ele>76</ele>
        <time>2020-06-30T16:17:07Z</time>
      </trkpt>
      <trkpt lat="49.04316" lon="4.17787">
        <ele>75.8</ele>
        <time>2020-06-30T16:17:08Z</time>
      </trkpt>
      <trkpt lat="49.04312" lon="4.17783">
        <ele>75.7</ele>
        <time>2020-06-30T16:17:09Z</time>
      </trkpt>
      <trkpt lat="49.04308" lon="4.17779">
        <ele>75.7</ele>
        <time>2020-06-30T16:17:10Z</time>
      </trkpt>
      <trkpt lat="49.04303" lon="4.17774">
        <ele>75.6</ele>
        <time>2020-06-30T16:17:11Z</time>
      </trkpt>
      <trkpt lat="49.04299" lon="4.17768">
        <ele>75.6</ele>
        <time>2020-06-30T16:17:12Z</time>
      </trkpt>
      <trkpt lat="49.04295" lon="4.17763">
        <ele>75.6</ele>
        <time>2020-06-30T16:17:13Z</time>
      </trkpt>
      <trkpt lat="49.04291" lon="4.17759">
        <ele>75.7</ele>
        <time>2020-06-30T16:17:14Z</time>
      </trkpt>
      <trkpt lat="49.04287" lon="4.17756">
        <ele>75.8</ele>
        <time>2020-06-30T16:17:15Z</time>
      </trkpt>
      <trkpt lat="49.04284" lon="4.17753">
        <ele>75.9</ele>
        <time>2020-06-30T16:17:16Z</time>
      </trkpt>
      <trkpt lat="49.0428" lon="4.17749">
        <ele>76.1</ele>
        <time>2020-06-30T16:17:17Z</time>
      </trkpt>
      <trkpt lat="49.04276" lon="4.17745">
        <ele>76.3</ele>
        <time>2020-06-30T16:17:18Z</time>
      </trkpt>
      <trkpt lat="49.04272" lon="4.17743">
        <ele>76.5</ele>
        <time>2020-06-30T16:17:19Z</time>
      </trkpt>
      <trkpt lat="49.04268" lon="4.1774">
        <ele>76.7</ele>
        <time>2020-06-30T16:17:20Z</time>
      </trkpt>
      <trkpt lat="49.04265" lon="4.17738">
        <ele>76.8</ele>
        <time>2020-06-30T16:17:21Z</time>
      </trkpt>
      <trkpt lat="49.04262" lon="4.17734">
        <ele>77</ele>
        <time>2020-06-30T16:17:22Z</time>
      </trkpt>
      <trkpt lat="49.0426" lon="4.17731">
        <ele>77.2</ele>
        <time>2020-06-30T16:17:23Z</time>
      </trkpt>
      <trkpt lat="49.04258" lon="4.17728">
        <ele>77.3</ele>
        <time>2020-06-30T16:17:24Z</time>
      </trkpt>
      <trkpt lat="49.04255" lon="4.17725">
        <ele>77.5</ele>
        <time>2020-06-30T16:17:25Z</time>
      </trkpt>
      <trkpt lat="49.04254" lon="4.17724">
        <ele>77.5</ele>
        <time>2020-06-30T16:17:26Z</time>
      </trkpt>
      <trkpt lat="49.04253" lon="4.1772">
        <ele>77.7</ele>
        <time>2020-06-30T16:17:27Z</time>
      </trkpt>
      <trkpt lat="49.04253" lon="4.17718">
        <ele>77.7</ele>
        <time>2020-06-30T16:17:28Z</time>
      </trkpt>
      <trkpt lat="49.04254" lon="4.17716">
        <ele>77.8</ele>
        <time>2020-06-30T16:17:29Z</time>
      </trkpt>
      <trkpt lat="49.04254" lon="4.17713">
        <ele>77.9</ele>
        <time>2020-06-30T16:17:30Z</time>
      </trkpt>
      <trkpt lat="49.04255" lon="4.17709">
        <ele>78</ele>
        <time>2020-06-30T16:17:31Z</time>
      </trkpt>
      <trkpt lat="49.04256" lon="4.17708">
        <ele>78.1</ele>
        <time>2020-06-30T16:17:32Z</time>
      </trkpt>
      <trkpt lat="49.04258" lon="4.17706">
        <ele>78.1</ele>
        <time>2020-06-30T16:17:33Z</time>
      </trkpt>
      <trkpt lat="49.04261" lon="4.17704">
        <ele>78.1</ele>
        <time>2020-06-30T16:17:34Z</time>
      </trkpt>
      <trkpt lat="49.04263" lon="4.17701">
        <ele>78.1</ele>
        <time>2020-06-30T16:17:35Z</time>
      </trkpt>
      <trkpt lat="49.04266" lon="4.17697">
        <ele>78.1</ele>
        <time>2020-06-30T16:17:36Z</time>
      </trkpt>
      <trkpt lat="49.04266" lon="4.17696">
        <ele>78.1</ele>
        <time>2020-06-30T16:17:37Z</time>
      </trkpt>
      <trkpt lat="49.04267" lon="4.17691">
        <ele>78.2</ele>
        <time>2020-06-30T16:17:38Z</time>
      </trkpt>
      <trkpt lat="49.04267" lon="4.1769">
        <ele>78.2</ele>
        <time>2020-06-30T16:17:39Z</time>
      </trkpt>
      <trkpt lat="49.04265" lon="4.17687">
        <ele>78.2</ele>
        <time>2020-06-30T16:17:40Z</time>
      </trkpt>
      <trkpt lat="49.04263" lon="4.17683">
        <ele>78.2</ele>
        <time>2020-06-30T16:17:41Z</time>
      </trkpt>
      <trkpt lat="49.04261" lon="4.1768">
        <ele>78.2</ele>
        <time>2020-06-30T16:17:42Z</time>
      </trkpt>
      <trkpt lat="49.04258" lon="4.17678">
        <ele>78.2</ele>
        <time>2020-06-30T16:17:43Z</time>
      </trkpt>
      <trkpt lat="49.04255" lon="4.17676">
        <ele>78.2</ele>
        <time>2020-06-30T16:17:44Z</time>
      </trkpt>
      <trkpt lat="49.04253" lon="4.17674">
        <ele>78.2</ele>
        <time>2020-06-30T16:17:45Z</time>
      </trkpt>
      <trkpt lat="49.0425" lon="4.17672">
        <ele>78.2</ele>
        <time>2020-06-30T16:17:46Z</time>
      </trkpt>
      <trkpt lat="49.04247" lon="4.17671">
        <ele>78.2</ele>
        <time>2020-06-30T16:17:47Z</time>
      </trkpt>
      <trkpt lat="49.04244" lon="4.17671">
        <ele>78.2</ele>
        <time>2020-06-30T16:17:48Z</time>
      </trkpt>
      <trkpt lat="49.04241" lon="4.17671">
        <ele>78.2</ele>
        <time>2020-06-30T16:17:49Z</time>
      </trkpt>
      <trkpt lat="49.04238" lon="4.17671">
        <ele>78.1</ele>
        <time>2020-06-30T16:17:50Z</time>
      </trkpt>
      <trkpt lat="49.04235" lon="4.1767">
        <ele>78.1</ele>
        <time>2020-06-30T16:17:51Z</time>
      </trkpt>
      <trkpt lat="49.04233" lon="4.1767">
        <ele>78.1</ele>
        <time>2020-06-30T16:17:52Z</time>
      </trkpt>
      <trkpt lat="49.0423" lon="4.17668">
        <ele>78.1</ele>
        <time>2020-06-30T16:17:53Z</time>
      </trkpt>
      <trkpt lat="49.04229" lon="4.17668">
        <ele>78.1</ele>
        <time>2020-06-30T16:17:54Z</time>
      </trkpt>
      <trkpt lat="49.04226" lon="4.17666">
        <ele>78.1</ele>
        <time>2020-06-30T16:17:55Z</time>
      </trkpt>
      <trkpt lat="49.04226" lon="4.17664">
        <ele>78.1</ele>
        <time>2020-06-30T16:17:56Z</time>
      </trkpt>
      <trkpt lat="49.04228" lon="4.17662">
        <ele>77.5</ele>
        <time>2020-06-30T16:17:57Z</time>
      </trkpt>
      <trkpt lat="49.04229" lon="4.17658">
        <ele>77.2</ele>
        <time>2020-06-30T16:17:58Z</time>
      </trkpt>
      <trkpt lat="49.04232" lon="4.17654">
        <ele>76.9</ele>
        <time>2020-06-30T16:17:59Z</time>
      </trkpt>
      <trkpt lat="49.04235" lon="4.17648">
        <ele>76.6</ele>
        <time>2020-06-30T16:18:00Z</time>
      </trkpt>
      <trkpt lat="49.04239" lon="4.17641">
        <ele>76.1</ele>
        <time>2020-06-30T16:18:01Z</time>
      </trkpt>
      <trkpt lat="49.04243" lon="4.17632">
        <ele>75.6</ele>
        <time>2020-06-30T16:18:02Z</time>
      </trkpt>
      <trkpt lat="49.04246" lon="4.17622">
        <ele>75.2</ele>
        <time>2020-06-30T16:18:03Z</time>
      </trkpt>
      <trkpt lat="49.04251" lon="4.17613">
        <ele>74.7</ele>
        <time>2020-06-30T16:18:04Z</time>
      </trkpt>
      <trkpt lat="49.04255" lon="4.17603">
        <ele>74.5</ele>
        <time>2020-06-30T16:18:05Z</time>
      </trkpt>
      <trkpt lat="49.04258" lon="4.17594">
        <ele>74.3</ele>
        <time>2020-06-30T16:18:06Z</time>
      </trkpt>
      <trkpt lat="49.04262" lon="4.17584">
        <ele>74.2</ele>
        <time>2020-06-30T16:18:07Z</time>
      </trkpt>
      <trkpt lat="49.04264" lon="4.17573">
        <ele>74.2</ele>
        <time>2020-06-30T16:18:08Z</time>
      </trkpt>
      <trkpt lat="49.04267" lon="4.17564">
        <ele>74.2</ele>
        <time>2020-06-30T16:18:09Z</time>
      </trkpt>
      <trkpt lat="49.0427" lon="4.17553">
        <ele>74.2</ele>
        <time>2020-06-30T16:18:10Z</time>
      </trkpt>
      <trkpt lat="49.04272" lon="4.17542">
        <ele>74.2</ele>
        <time>2020-06-30T16:18:11Z</time>
      </trkpt>
      <trkpt lat="49.04275" lon="4.17532">
        <ele>74.2</ele>
        <time>2020-06-30T16:18:12Z</time>
      </trkpt>
      <trkpt lat="49.04276" lon="4.17521">
        <ele>74.1</ele>
        <time>2020-06-30T16:18:13Z</time>
      </trkpt>
      <trkpt lat="49.04278" lon="4.1751">
        <ele>74</ele>
        <time>2020-06-30T16:18:14Z</time>
      </trkpt>
      <trkpt lat="49.0428" lon="4.175">
        <ele>74</ele>
        <time>2020-06-30T16:18:15Z</time>
      </trkpt>
      <trkpt lat="49.04281" lon="4.17491">
        <ele>73.9</ele>
        <time>2020-06-30T16:18:16Z</time>
      </trkpt>
      <trkpt lat="49.04283" lon="4.1748">
        <ele>73.9</ele>
        <time>2020-06-30T16:18:17Z</time>
      </trkpt>
      <trkpt lat="49.04284" lon="4.17471">
        <ele>73.9</ele>
        <time>2020-06-30T16:18:18Z</time>
      </trkpt>
      <trkpt lat="49.04285" lon="4.17461">
        <ele>73.9</ele>
        <time>2020-06-30T16:18:19Z</time>
      </trkpt>
      <trkpt lat="49.04286" lon="4.17453">
        <ele>73.9</ele>
        <time>2020-06-30T16:18:20Z</time>
      </trkpt>
      <trkpt lat="49.04287" lon="4.17444">
        <ele>73.9</ele>
        <time>2020-06-30T16:18:21Z</time>
      </trkpt>
      <trkpt lat="49.04288" lon="4.17434">
        <ele>73.9</ele>
        <time>2020-06-30T16:18:22Z</time>
      </trkpt>
      <trkpt lat="49.04288" lon="4.17423">
        <ele>73.9</ele>
        <time>2020-06-30T16:18:23Z</time>
      </trkpt>
      <trkpt lat="49.04289" lon="4.17413">
        <ele>73.9</ele>
        <time>2020-06-30T16:18:24Z</time>
      </trkpt>
      <trkpt lat="49.04289" lon="4.17404">
        <ele>73.9</ele>
        <time>2020-06-30T16:18:25Z</time>
      </trkpt>
      <trkpt lat="49.04289" lon="4.17396">
        <ele>73.9</ele>
        <time>2020-06-30T16:18:26Z</time>
      </trkpt>
      <trkpt lat="49.04289" lon="4.17387">
        <ele>74</ele>
        <time>2020-06-30T16:18:27Z</time>
      </trkpt>
      <trkpt lat="49.0429" lon="4.17381">
        <ele>74</ele>
        <time>2020-06-30T16:18:28Z</time>
      </trkpt>
      <trkpt lat="49.04289" lon="4.17372">
        <ele>74</ele>
        <time>2020-06-30T16:18:29Z</time>
      </trkpt>
      <trkpt lat="49.0429" lon="4.17366">
        <ele>74</ele>
        <time>2020-06-30T16:18:30Z</time>
      </trkpt>
      <trkpt lat="49.0429" lon="4.17357">
        <ele>73.9</ele>
        <time>2020-06-30T16:18:31Z</time>
      </trkpt>
      <trkpt lat="49.0429" lon="4.17347">
        <ele>73.9</ele>
        <time>2020-06-30T16:18:32Z</time>
      </trkpt>
      <trkpt lat="49.04289" lon="4.17339">
        <ele>73.9</ele>
        <time>2020-06-30T16:18:33Z</time>
      </trkpt>
      <trkpt lat="49.04288" lon="4.17331">
        <ele>73.9</ele>
        <time>2020-06-30T16:18:34Z</time>
      </trkpt>
      <trkpt lat="49.04286" lon="4.17322">
        <ele>73.9</ele>
        <time>2020-06-30T16:18:35Z</time>
      </trkpt>
      <trkpt lat="49.04286" lon="4.17314">
        <ele>73.9</ele>
        <time>2020-06-30T16:18:36Z</time>
      </trkpt>
      <trkpt lat="49.04286" lon="4.17307">
        <ele>73.9</ele>
        <time>2020-06-30T16:18:37Z</time>
      </trkpt>
      <trkpt lat="49.04285" lon="4.173">
        <ele>73.9</ele>
        <time>2020-06-30T16:18:38Z</time>
      </trkpt>
      <trkpt lat="49.04283" lon="4.17291">
        <ele>73.9</ele>
        <time>2020-06-30T16:18:39Z</time>
      </trkpt>
      <trkpt lat="49.04283" lon="4.17283">
        <ele>74</ele>
        <time>2020-06-30T16:18:40Z</time>
      </trkpt>
      <trkpt lat="49.04281" lon="4.17275">
        <ele>74</ele>
        <time>2020-06-30T16:18:41Z</time>
      </trkpt>
      <trkpt lat="49.04279" lon="4.17267">
        <ele>74</ele>
        <time>2020-06-30T16:18:42Z</time>
      </trkpt>
      <trkpt lat="49.04278" lon="4.17262">
        <ele>74</ele>
        <time>2020-06-30T16:18:43Z</time>
      </trkpt>
      <trkpt lat="49.04277" lon="4.17256">
        <ele>74</ele>
        <time>2020-06-30T16:18:44Z</time>
      </trkpt>
      <trkpt lat="49.04276" lon="4.17249">
        <ele>74</ele>
        <time>2020-06-30T16:18:45Z</time>
      </trkpt>
      <trkpt lat="49.04273" lon="4.17242">
        <ele>74</ele>
        <time>2020-06-30T16:18:46Z</time>
      </trkpt>
      <trkpt lat="49.04272" lon="4.17234">
        <ele>74</ele>
        <time>2020-06-30T16:18:47Z</time>
      </trkpt>
      <trkpt lat="49.04271" lon="4.17227">
        <ele>74.1</ele>
        <time>2020-06-30T16:18:48Z</time>
      </trkpt>
      <trkpt lat="49.04269" lon="4.17221">
        <ele>74.1</ele>
        <time>2020-06-30T16:18:49Z</time>
      </trkpt>
      <trkpt lat="49.04267" lon="4.17213">
        <ele>74.1</ele>
        <time>2020-06-30T16:18:50Z</time>
      </trkpt>
      <trkpt lat="49.04265" lon="4.17206">
        <ele>74.1</ele>
        <time>2020-06-30T16:18:51Z</time>
      </trkpt>
      <trkpt lat="49.04263" lon="4.17199">
        <ele>74.1</ele>
        <time>2020-06-30T16:18:52Z</time>
      </trkpt>
      <trkpt lat="49.0426" lon="4.17191">
        <ele>74.1</ele>
        <time>2020-06-30T16:18:53Z</time>
      </trkpt>
      <trkpt lat="49.04258" lon="4.17183">
        <ele>74</ele>
        <time>2020-06-30T16:18:54Z</time>
      </trkpt>
      <trkpt lat="49.04256" lon="4.17175">
        <ele>74</ele>
        <time>2020-06-30T16:18:55Z</time>
      </trkpt>
      <trkpt lat="49.04254" lon="4.17167">
        <ele>74</ele>
        <time>2020-06-30T16:18:56Z</time>
      </trkpt>
      <trkpt lat="49.04251" lon="4.17159">
        <ele>74</ele>
        <time>2020-06-30T16:18:57Z</time>
      </trkpt>
      <trkpt lat="49.04249" lon="4.17149">
        <ele>74</ele>
        <time>2020-06-30T16:18:58Z</time>
      </trkpt>
      <trkpt lat="49.04247" lon="4.17141">
        <ele>74</ele>
        <time>2020-06-30T16:18:59Z</time>
      </trkpt>
      <trkpt lat="49.04244" lon="4.17133">
        <ele>74</ele>
        <time>2020-06-30T16:19:00Z</time>
      </trkpt>
      <trkpt lat="49.04243" lon="4.17125">
        <ele>74</ele>
        <time>2020-06-30T16:19:01Z</time>
      </trkpt>
      <trkpt lat="49.0424" lon="4.17115">
        <ele>74</ele>
        <time>2020-06-30T16:19:02Z</time>
      </trkpt>
      <trkpt lat="49.04239" lon="4.17106">
        <ele>74.1</ele>
        <time>2020-06-30T16:19:03Z</time>
      </trkpt>
      <trkpt lat="49.04237" lon="4.17098">
        <ele>74.1</ele>
        <time>2020-06-30T16:19:04Z</time>
      </trkpt>
      <trkpt lat="49.04235" lon="4.17091">
        <ele>74.1</ele>
        <time>2020-06-30T16:19:05Z</time>
      </trkpt>
      <trkpt lat="49.04233" lon="4.17084">
        <ele>74.1</ele>
        <time>2020-06-30T16:19:06Z</time>
      </trkpt>
      <trkpt lat="49.04231" lon="4.17076">
        <ele>74.1</ele>
        <time>2020-06-30T16:19:07Z</time>
      </trkpt>
      <trkpt lat="49.04229" lon="4.1707">
        <ele>74.1</ele>
        <time>2020-06-30T16:19:08Z</time>
      </trkpt>
      <trkpt lat="49.04228" lon="4.17062">
        <ele>74</ele>
        <time>2020-06-30T16:19:09Z</time>
      </trkpt>
      <trkpt lat="49.04226" lon="4.17055">
        <ele>74</ele>
        <time>2020-06-30T16:19:10Z</time>
      </trkpt>
      <trkpt lat="49.04225" lon="4.17049">
        <ele>74</ele>
        <time>2020-06-30T16:19:11Z</time>
      </trkpt>
      <trkpt lat="49.04222" lon="4.17038">
        <ele>74</ele>
        <time>2020-06-30T16:19:12Z</time>
      </trkpt>
      <trkpt lat="49.04221" lon="4.17033">
        <ele>73.9</ele>
        <time>2020-06-30T16:19:13Z</time>
      </trkpt>
      <trkpt lat="49.04219" lon="4.17027">
        <ele>73.9</ele>
        <time>2020-06-30T16:19:14Z</time>
      </trkpt>
      <trkpt lat="49.04218" lon="4.1702">
        <ele>73.9</ele>
        <time>2020-06-30T16:19:15Z</time>
      </trkpt>
      <trkpt lat="49.04216" lon="4.17013">
        <ele>73.9</ele>
        <time>2020-06-30T16:19:16Z</time>
      </trkpt>
      <trkpt lat="49.04215" lon="4.17005">
        <ele>73.9</ele>
        <time>2020-06-30T16:19:17Z</time>
      </trkpt>
      <trkpt lat="49.04213" lon="4.16998">
        <ele>73.9</ele>
        <time>2020-06-30T16:19:18Z</time>
      </trkpt>
      <trkpt lat="49.04211" lon="4.16991">
        <ele>73.9</ele>
        <time>2020-06-30T16:19:19Z</time>
      </trkpt>
      <trkpt lat="49.0421" lon="4.16985">
        <ele>73.9</ele>
        <time>2020-06-30T16:19:20Z</time>
      </trkpt>
      <trkpt lat="49.04207" lon="4.16977">
        <ele>73.9</ele>
        <time>2020-06-30T16:19:21Z</time>
      </trkpt>
      <trkpt lat="49.04205" lon="4.16969">
        <ele>73.9</ele>
        <time>2020-06-30T16:19:22Z</time>
      </trkpt>
      <trkpt lat="49.04204" lon="4.16962">
        <ele>74</ele>
        <time>2020-06-30T16:19:23Z</time>
      </trkpt>
      <trkpt lat="49.04202" lon="4.16955">
        <ele>74</ele>
        <time>2020-06-30T16:19:24Z</time>
      </trkpt>
      <trkpt lat="49.042" lon="4.16949">
        <ele>74</ele>
        <time>2020-06-30T16:19:25Z</time>
      </trkpt>
      <trkpt lat="49.04198" lon="4.16943">
        <ele>74</ele>
        <time>2020-06-30T16:19:26Z</time>
      </trkpt>
      <trkpt lat="49.04197" lon="4.16936">
        <ele>74</ele>
        <time>2020-06-30T16:19:27Z</time>
      </trkpt>
      <trkpt lat="49.04195" lon="4.1693">
        <ele>74</ele>
        <time>2020-06-30T16:19:28Z</time>
      </trkpt>
      <trkpt lat="49.04193" lon="4.16923">
        <ele>74</ele>
        <time>2020-06-30T16:19:29Z</time>
      </trkpt>
      <trkpt lat="49.04191" lon="4.16917">
        <ele>74</ele>
        <time>2020-06-30T16:19:30Z</time>
      </trkpt>
      <trkpt lat="49.0419" lon="4.16911">
        <ele>74</ele>
        <time>2020-06-30T16:19:31Z</time>
      </trkpt>
      <trkpt lat="49.04188" lon="4.16904">
        <ele>74</ele>
        <time>2020-06-30T16:19:32Z</time>
      </trkpt>
      <trkpt lat="49.04187" lon="4.16898">
        <ele>74</ele>
        <time>2020-06-30T16:19:33Z</time>
      </trkpt>
      <trkpt lat="49.04185" lon="4.16892">
        <ele>74</ele>
        <time>2020-06-30T16:19:34Z</time>
      </trkpt>
      <trkpt lat="49.04182" lon="4.16886">
        <ele>74</ele>
        <time>2020-06-30T16:19:35Z</time>
      </trkpt>
      <trkpt lat="49.0418" lon="4.1688">
        <ele>74</ele>
        <time>2020-06-30T16:19:36Z</time>
      </trkpt>
      <trkpt lat="49.04178" lon="4.16873">
        <ele>74</ele>
        <time>2020-06-30T16:19:37Z</time>
      </trkpt>
      <trkpt lat="49.04176" lon="4.16866">
        <ele>74</ele>
        <time>2020-06-30T16:19:38Z</time>
      </trkpt>
      <trkpt lat="49.04175" lon="4.16857">
        <ele>74</ele>
        <time>2020-06-30T16:19:39Z</time>
      </trkpt>
      <trkpt lat="49.04174" lon="4.16851">
        <ele>74</ele>
        <time>2020-06-30T16:19:40Z</time>
      </trkpt>
      <trkpt lat="49.04173" lon="4.16844">
        <ele>74.1</ele>
        <time>2020-06-30T16:19:41Z</time>
      </trkpt>
      <trkpt lat="49.04171" lon="4.16838">
        <ele>74.1</ele>
        <time>2020-06-30T16:19:42Z</time>
      </trkpt>
      <trkpt lat="49.04169" lon="4.16831">
        <ele>74.1</ele>
        <time>2020-06-30T16:19:43Z</time>
      </trkpt>
      <trkpt lat="49.04168" lon="4.16824">
        <ele>74.1</ele>
        <time>2020-06-30T16:19:44Z</time>
      </trkpt>
      <trkpt lat="49.04167" lon="4.16817">
        <ele>74.1</ele>
        <time>2020-06-30T16:19:45Z</time>
      </trkpt>
      <trkpt lat="49.04165" lon="4.1681">
        <ele>74.1</ele>
        <time>2020-06-30T16:19:46Z</time>
      </trkpt>
      <trkpt lat="49.04162" lon="4.16803">
        <ele>74.1</ele>
        <time>2020-06-30T16:19:47Z</time>
      </trkpt>
      <trkpt lat="49.04161" lon="4.16798">
        <ele>74.1</ele>
        <time>2020-06-30T16:19:48Z</time>
      </trkpt>
      <trkpt lat="49.04161" lon="4.16797">
        <ele>74.1</ele>
        <time>2020-06-30T16:19:49Z</time>
      </trkpt>
      <trkpt lat="49.04161" lon="4.16798">
        <ele>74.1</ele>
        <time>2020-06-30T16:19:50Z</time>
      </trkpt>
      <trkpt lat="49.04161" lon="4.16801">
        <ele>74.1</ele>
        <time>2020-06-30T16:19:51Z</time>
      </trkpt>
      <trkpt lat="49.04161" lon="4.16803">
        <ele>74.1</ele>
        <time>2020-06-30T16:19:52Z</time>
      </trkpt>
      <trkpt lat="49.0416" lon="4.16803">
        <ele>74.1</ele>
        <time>2020-06-30T16:19:53Z</time>
      </trkpt>
      <trkpt lat="49.04161" lon="4.16802">
        <ele>74.1</ele>
        <time>2020-06-30T16:19:54Z</time>
      </trkpt>
      <trkpt lat="49.04161" lon="4.16801">
        <ele>74.1</ele>
        <time>2020-06-30T16:19:55Z</time>
      </trkpt>
      <trkpt lat="49.04161" lon="4.16801">
        <ele>74.1</ele>
        <time>2020-06-30T16:19:56Z</time>
      </trkpt>
      <trkpt lat="49.04161" lon="4.16801">
        <ele>74.1</ele>
        <time>2020-06-30T16:19:57Z</time>
      </trkpt>
      <trkpt lat="49.0416" lon="4.16802">
        <ele>74.1</ele>
        <time>2020-06-30T16:19:58Z</time>
      </trkpt>
      <trkpt lat="49.04162" lon="4.16805">
        <ele>74.1</ele>
        <time>2020-06-30T16:19:59Z</time>
      </trkpt>
      <trkpt lat="49.04162" lon="4.16806">
        <ele>74.1</ele>
        <time>2020-06-30T16:20:00Z</time>
      </trkpt>
      <trkpt lat="49.04161" lon="4.16804">
        <ele>74.1</ele>
        <time>2020-06-30T16:20:01Z</time>
      </trkpt>
      <trkpt lat="49.04156" lon="4.16789">
        <ele>74.1</ele>
        <time>2020-06-30T16:20:25Z</time>
      </trkpt>
      <trkpt lat="49.04155" lon="4.16783">
        <ele>74.1</ele>
        <time>2020-06-30T16:20:26Z</time>
      </trkpt>
      <trkpt lat="49.04155" lon="4.16778">
        <ele>74.1</ele>
        <time>2020-06-30T16:20:27Z</time>
      </trkpt>
      <trkpt lat="49.04155" lon="4.16773">
        <ele>74</ele>
        <time>2020-06-30T16:20:28Z</time>
      </trkpt>
      <trkpt lat="49.04154" lon="4.16767">
        <ele>74</ele>
        <time>2020-06-30T16:20:29Z</time>
      </trkpt>
      <trkpt lat="49.04154" lon="4.1676">
        <ele>74</ele>
        <time>2020-06-30T16:20:30Z</time>
      </trkpt>
      <trkpt lat="49.04153" lon="4.16754">
        <ele>74</ele>
        <time>2020-06-30T16:20:31Z</time>
      </trkpt>
      <trkpt lat="49.04152" lon="4.16748">
        <ele>74</ele>
        <time>2020-06-30T16:20:32Z</time>
      </trkpt>
      <trkpt lat="49.04152" lon="4.16742">
        <ele>74</ele>
        <time>2020-06-30T16:20:33Z</time>
      </trkpt>
      <trkpt lat="49.04152" lon="4.16734">
        <ele>73.9</ele>
        <time>2020-06-30T16:20:34Z</time>
      </trkpt>
      <trkpt lat="49.04151" lon="4.16728">
        <ele>73.9</ele>
        <time>2020-06-30T16:20:35Z</time>
      </trkpt>
      <trkpt lat="49.0415" lon="4.16721">
        <ele>73.9</ele>
        <time>2020-06-30T16:20:36Z</time>
      </trkpt>
      <trkpt lat="49.04149" lon="4.16715">
        <ele>74</ele>
        <time>2020-06-30T16:20:37Z</time>
      </trkpt>
      <trkpt lat="49.04148" lon="4.16709">
        <ele>74</ele>
        <time>2020-06-30T16:20:38Z</time>
      </trkpt>
      <trkpt lat="49.04147" lon="4.16703">
        <ele>74</ele>
        <time>2020-06-30T16:20:39Z</time>
      </trkpt>
      <trkpt lat="49.04146" lon="4.16698">
        <ele>74</ele>
        <time>2020-06-30T16:20:40Z</time>
      </trkpt>
      <trkpt lat="49.04145" lon="4.16692">
        <ele>74</ele>
        <time>2020-06-30T16:20:41Z</time>
      </trkpt>
      <trkpt lat="49.04144" lon="4.16686">
        <ele>74</ele>
        <time>2020-06-30T16:20:42Z</time>
      </trkpt>
      <trkpt lat="49.04144" lon="4.1668">
        <ele>74</ele>
        <time>2020-06-30T16:20:43Z</time>
      </trkpt>
      <trkpt lat="49.04145" lon="4.16673">
        <ele>74</ele>
        <time>2020-06-30T16:20:44Z</time>
      </trkpt>
      <trkpt lat="49.04144" lon="4.16666">
        <ele>74</ele>
        <time>2020-06-30T16:20:45Z</time>
      </trkpt>
      <trkpt lat="49.04144" lon="4.1666">
        <ele>74</ele>
        <time>2020-06-30T16:20:46Z</time>
      </trkpt>
      <trkpt lat="49.04144" lon="4.16654">
        <ele>74</ele>
        <time>2020-06-30T16:20:47Z</time>
      </trkpt>
      <trkpt lat="49.04143" lon="4.16647">
        <ele>74</ele>
        <time>2020-06-30T16:20:48Z</time>
      </trkpt>
      <trkpt lat="49.04144" lon="4.1664">
        <ele>74</ele>
        <time>2020-06-30T16:20:49Z</time>
      </trkpt>
      <trkpt lat="49.04145" lon="4.16633">
        <ele>74</ele>
        <time>2020-06-30T16:20:50Z</time>
      </trkpt>
      <trkpt lat="49.04146" lon="4.16627">
        <ele>74</ele>
        <time>2020-06-30T16:20:51Z</time>
      </trkpt>
      <trkpt lat="49.04146" lon="4.16621">
        <ele>74</ele>
        <time>2020-06-30T16:20:52Z</time>
      </trkpt>
      <trkpt lat="49.04148" lon="4.16615">
        <ele>74</ele>
        <time>2020-06-30T16:20:53Z</time>
      </trkpt>
      <trkpt lat="49.04148" lon="4.16608">
        <ele>74.1</ele>
        <time>2020-06-30T16:20:54Z</time>
      </trkpt>
      <trkpt lat="49.04148" lon="4.166">
        <ele>74.1</ele>
        <time>2020-06-30T16:20:55Z</time>
      </trkpt>
      <trkpt lat="49.04148" lon="4.16593">
        <ele>74.1</ele>
        <time>2020-06-30T16:20:56Z</time>
      </trkpt>
      <trkpt lat="49.04148" lon="4.16585">
        <ele>74.1</ele>
        <time>2020-06-30T16:20:57Z</time>
      </trkpt>
      <trkpt lat="49.04148" lon="4.16576">
        <ele>74.2</ele>
        <time>2020-06-30T16:20:58Z</time>
      </trkpt>
      <trkpt lat="49.04148" lon="4.16567">
        <ele>74.2</ele>
        <time>2020-06-30T16:20:59Z</time>
      </trkpt>
      <trkpt lat="49.04148" lon="4.16558">
        <ele>74.2</ele>
        <time>2020-06-30T16:21:00Z</time>
      </trkpt>
      <trkpt lat="49.04149" lon="4.16551">
        <ele>74.2</ele>
        <time>2020-06-30T16:21:01Z</time>
      </trkpt>
      <trkpt lat="49.0415" lon="4.16544">
        <ele>74.2</ele>
        <time>2020-06-30T16:21:02Z</time>
      </trkpt>
      <trkpt lat="49.04152" lon="4.16538">
        <ele>74.2</ele>
        <time>2020-06-30T16:21:03Z</time>
      </trkpt>
      <trkpt lat="49.04153" lon="4.1653">
        <ele>74.3</ele>
        <time>2020-06-30T16:21:04Z</time>
      </trkpt>
      <trkpt lat="49.04153" lon="4.16522">
        <ele>74.3</ele>
        <time>2020-06-30T16:21:05Z</time>
      </trkpt>
      <trkpt lat="49.04154" lon="4.16514">
        <ele>74.3</ele>
        <time>2020-06-30T16:21:06Z</time>
      </trkpt>
      <trkpt lat="49.04154" lon="4.16506">
        <ele>74.2</ele>
        <time>2020-06-30T16:21:07Z</time>
      </trkpt>
      <trkpt lat="49.04156" lon="4.16499">
        <ele>74.2</ele>
        <time>2020-06-30T16:21:08Z</time>
      </trkpt>
      <trkpt lat="49.04157" lon="4.16491">
        <ele>74.2</ele>
        <time>2020-06-30T16:21:09Z</time>
      </trkpt>
      <trkpt lat="49.04159" lon="4.16483">
        <ele>74.2</ele>
        <time>2020-06-30T16:21:10Z</time>
      </trkpt>
      <trkpt lat="49.0416" lon="4.16475">
        <ele>74.2</ele>
        <time>2020-06-30T16:21:11Z</time>
      </trkpt>
      <trkpt lat="49.0416" lon="4.16466">
        <ele>74.2</ele>
        <time>2020-06-30T16:21:12Z</time>
      </trkpt>
      <trkpt lat="49.04161" lon="4.16458">
        <ele>74.2</ele>
        <time>2020-06-30T16:21:13Z</time>
      </trkpt>
      <trkpt lat="49.04162" lon="4.1645">
        <ele>74.2</ele>
        <time>2020-06-30T16:21:14Z</time>
      </trkpt>
      <trkpt lat="49.04164" lon="4.1644">
        <ele>74.2</ele>
        <time>2020-06-30T16:21:15Z</time>
      </trkpt>
      <trkpt lat="49.04166" lon="4.1643">
        <ele>74.3</ele>
        <time>2020-06-30T16:21:16Z</time>
      </trkpt>
      <trkpt lat="49.04167" lon="4.16421">
        <ele>74.3</ele>
        <time>2020-06-30T16:21:17Z</time>
      </trkpt>
      <trkpt lat="49.04168" lon="4.16412">
        <ele>74.3</ele>
        <time>2020-06-30T16:21:18Z</time>
      </trkpt>
      <trkpt lat="49.04168" lon="4.16403">
        <ele>74.3</ele>
        <time>2020-06-30T16:21:19Z</time>
      </trkpt>
      <trkpt lat="49.04169" lon="4.16395">
        <ele>74.3</ele>
        <time>2020-06-30T16:21:20Z</time>
      </trkpt>
      <trkpt lat="49.04169" lon="4.16388">
        <ele>74.2</ele>
        <time>2020-06-30T16:21:21Z</time>
      </trkpt>
      <trkpt lat="49.0417" lon="4.16381">
        <ele>74.2</ele>
        <time>2020-06-30T16:21:22Z</time>
      </trkpt>
      <trkpt lat="49.04171" lon="4.16374">
        <ele>74.2</ele>
        <time>2020-06-30T16:21:23Z</time>
      </trkpt>
      <trkpt lat="49.04173" lon="4.16367">
        <ele>74.2</ele>
        <time>2020-06-30T16:21:24Z</time>
      </trkpt>
      <trkpt lat="49.04174" lon="4.16359">
        <ele>74.2</ele>
        <time>2020-06-30T16:21:25Z</time>
      </trkpt>
      <trkpt lat="49.04174" lon="4.16351">
        <ele>74.2</ele>
        <time>2020-06-30T16:21:26Z</time>
      </trkpt>
      <trkpt lat="49.04175" lon="4.16346">
        <ele>74.2</ele>
        <time>2020-06-30T16:21:27Z</time>
      </trkpt>
      <trkpt lat="49.04176" lon="4.1634">
        <ele>74.2</ele>
        <time>2020-06-30T16:21:28Z</time>
      </trkpt>
      <trkpt lat="49.04176" lon="4.16335">
        <ele>74.2</ele>
        <time>2020-06-30T16:21:29Z</time>
      </trkpt>
      <trkpt lat="49.04176" lon="4.16329">
        <ele>74.1</ele>
        <time>2020-06-30T16:21:30Z</time>
      </trkpt>
      <trkpt lat="49.04177" lon="4.16323">
        <ele>74.1</ele>
        <time>2020-06-30T16:21:31Z</time>
      </trkpt>
      <trkpt lat="49.04178" lon="4.16318">
        <ele>74.1</ele>
        <time>2020-06-30T16:21:32Z</time>
      </trkpt>
      <trkpt lat="49.0418" lon="4.16314">
        <ele>74.1</ele>
        <time>2020-06-30T16:21:33Z</time>
      </trkpt>
      <trkpt lat="49.0418" lon="4.16312">
        <ele>74.1</ele>
        <time>2020-06-30T16:21:34Z</time>
      </trkpt>
      <trkpt lat="49.04182" lon="4.16308">
        <ele>74.1</ele>
        <time>2020-06-30T16:21:35Z</time>
      </trkpt>
      <trkpt lat="49.04182" lon="4.16307">
        <ele>74</ele>
        <time>2020-06-30T16:21:36Z</time>
      </trkpt>
      <trkpt lat="49.04182" lon="4.16304">
        <ele>74</ele>
        <time>2020-06-30T16:21:37Z</time>
      </trkpt>
      <trkpt lat="49.04182" lon="4.16302">
        <ele>74</ele>
        <time>2020-06-30T16:21:38Z</time>
      </trkpt>
      <trkpt lat="49.04181" lon="4.163">
        <ele>74</ele>
        <time>2020-06-30T16:21:39Z</time>
      </trkpt>
      <trkpt lat="49.0418" lon="4.16298">
        <ele>74</ele>
        <time>2020-06-30T16:21:40Z</time>
      </trkpt>
      <trkpt lat="49.04181" lon="4.16293">
        <ele>74</ele>
        <time>2020-06-30T16:21:41Z</time>
      </trkpt>
      <trkpt lat="49.04182" lon="4.16292">
        <ele>74</ele>
        <time>2020-06-30T16:21:42Z</time>
      </trkpt>
      <trkpt lat="49.04183" lon="4.16287">
        <ele>74</ele>
        <time>2020-06-30T16:21:43Z</time>
      </trkpt>
      <trkpt lat="49.04183" lon="4.16282">
        <ele>74</ele>
        <time>2020-06-30T16:21:44Z</time>
      </trkpt>
      <trkpt lat="49.04182" lon="4.16276">
        <ele>74</ele>
        <time>2020-06-30T16:21:45Z</time>
      </trkpt>
      <trkpt lat="49.04183" lon="4.16271">
        <ele>74</ele>
        <time>2020-06-30T16:21:46Z</time>
      </trkpt>
      <trkpt lat="49.04184" lon="4.16265">
        <ele>73.9</ele>
        <time>2020-06-30T16:21:47Z</time>
      </trkpt>
      <trkpt lat="49.04186" lon="4.1626">
        <ele>73.9</ele>
        <time>2020-06-30T16:21:48Z</time>
      </trkpt>
      <trkpt lat="49.04187" lon="4.16253">
        <ele>73.9</ele>
        <time>2020-06-30T16:21:49Z</time>
      </trkpt>
      <trkpt lat="49.04187" lon="4.16246">
        <ele>73.9</ele>
        <time>2020-06-30T16:21:50Z</time>
      </trkpt>
      <trkpt lat="49.04188" lon="4.16239">
        <ele>73.9</ele>
        <time>2020-06-30T16:21:51Z</time>
      </trkpt>
      <trkpt lat="49.04188" lon="4.1623">
        <ele>73.9</ele>
        <time>2020-06-30T16:21:52Z</time>
      </trkpt>
      <trkpt lat="49.04189" lon="4.16222">
        <ele>73.9</ele>
        <time>2020-06-30T16:21:53Z</time>
      </trkpt>
      <trkpt lat="49.0419" lon="4.16215">
        <ele>73.9</ele>
        <time>2020-06-30T16:21:54Z</time>
      </trkpt>
      <trkpt lat="49.04191" lon="4.16208">
        <ele>73.9</ele>
        <time>2020-06-30T16:21:55Z</time>
      </trkpt>
      <trkpt lat="49.04192" lon="4.16201">
        <ele>73.9</ele>
        <time>2020-06-30T16:21:56Z</time>
      </trkpt>
      <trkpt lat="49.04193" lon="4.16195">
        <ele>73.9</ele>
        <time>2020-06-30T16:21:57Z</time>
      </trkpt>
      <trkpt lat="49.04194" lon="4.16188">
        <ele>73.8</ele>
        <time>2020-06-30T16:21:58Z</time>
      </trkpt>
      <trkpt lat="49.04195" lon="4.16182">
        <ele>73.8</ele>
        <time>2020-06-30T16:21:59Z</time>
      </trkpt>
      <trkpt lat="49.04195" lon="4.16176">
        <ele>73.9</ele>
        <time>2020-06-30T16:22:00Z</time>
      </trkpt>
      <trkpt lat="49.04195" lon="4.1617">
        <ele>73.9</ele>
        <time>2020-06-30T16:22:01Z</time>
      </trkpt>
      <trkpt lat="49.04196" lon="4.16164">
        <ele>73.9</ele>
        <time>2020-06-30T16:22:02Z</time>
      </trkpt>
      <trkpt lat="49.04196" lon="4.16161">
        <ele>73.9</ele>
        <time>2020-06-30T16:22:03Z</time>
      </trkpt>
      <trkpt lat="49.04197" lon="4.16155">
        <ele>73.9</ele>
        <time>2020-06-30T16:22:04Z</time>
      </trkpt>
      <trkpt lat="49.04198" lon="4.16149">
        <ele>73.9</ele>
        <time>2020-06-30T16:22:05Z</time>
      </trkpt>
      <trkpt lat="49.04198" lon="4.16144">
        <ele>73.9</ele>
        <time>2020-06-30T16:22:06Z</time>
      </trkpt>
      <trkpt lat="49.04199" lon="4.16139">
        <ele>74</ele>
        <time>2020-06-30T16:22:07Z</time>
      </trkpt>
      <trkpt lat="49.04199" lon="4.16133">
        <ele>74.1</ele>
        <time>2020-06-30T16:22:08Z</time>
      </trkpt>
      <trkpt lat="49.04199" lon="4.16127">
        <ele>74.1</ele>
        <time>2020-06-30T16:22:09Z</time>
      </trkpt>
      <trkpt lat="49.042" lon="4.16122">
        <ele>74.1</ele>
        <time>2020-06-30T16:22:10Z</time>
      </trkpt>
      <trkpt lat="49.042" lon="4.16115">
        <ele>74.2</ele>
        <time>2020-06-30T16:22:11Z</time>
      </trkpt>
      <trkpt lat="49.04201" lon="4.16109">
        <ele>74.2</ele>
        <time>2020-06-30T16:22:12Z</time>
      </trkpt>
      <trkpt lat="49.04201" lon="4.16102">
        <ele>74.2</ele>
        <time>2020-06-30T16:22:13Z</time>
      </trkpt>
      <trkpt lat="49.04202" lon="4.16094">
        <ele>74.2</ele>
        <time>2020-06-30T16:22:14Z</time>
      </trkpt>
      <trkpt lat="49.04203" lon="4.16086">
        <ele>74.2</ele>
        <time>2020-06-30T16:22:15Z</time>
      </trkpt>
      <trkpt lat="49.04204" lon="4.16078">
        <ele>74.3</ele>
        <time>2020-06-30T16:22:16Z</time>
      </trkpt>
      <trkpt lat="49.04205" lon="4.16069">
        <ele>74.3</ele>
        <time>2020-06-30T16:22:17Z</time>
      </trkpt>
      <trkpt lat="49.04206" lon="4.1606">
        <ele>74.3</ele>
        <time>2020-06-30T16:22:18Z</time>
      </trkpt>
      <trkpt lat="49.04206" lon="4.1605">
        <ele>74.4</ele>
        <time>2020-06-30T16:22:19Z</time>
      </trkpt>
      <trkpt lat="49.04206" lon="4.16042">
        <ele>74.4</ele>
        <time>2020-06-30T16:22:20Z</time>
      </trkpt>
      <trkpt lat="49.04207" lon="4.16034">
        <ele>74.4</ele>
        <time>2020-06-30T16:22:21Z</time>
      </trkpt>
      <trkpt lat="49.04207" lon="4.16026">
        <ele>74.4</ele>
        <time>2020-06-30T16:22:22Z</time>
      </trkpt>
      <trkpt lat="49.04206" lon="4.16017">
        <ele>74.4</ele>
        <time>2020-06-30T16:22:23Z</time>
      </trkpt>
      <trkpt lat="49.04206" lon="4.16009">
        <ele>74.4</ele>
        <time>2020-06-30T16:22:24Z</time>
      </trkpt>
      <trkpt lat="49.04207" lon="4.15999">
        <ele>74.3</ele>
        <time>2020-06-30T16:22:25Z</time>
      </trkpt>
      <trkpt lat="49.04207" lon="4.1599">
        <ele>74.3</ele>
        <time>2020-06-30T16:22:26Z</time>
      </trkpt>
      <trkpt lat="49.04205" lon="4.1598">
        <ele>74.3</ele>
        <time>2020-06-30T16:22:27Z</time>
      </trkpt>
      <trkpt lat="49.04207" lon="4.15971">
        <ele>74.3</ele>
        <time>2020-06-30T16:22:28Z</time>
      </trkpt>
      <trkpt lat="49.04208" lon="4.15961">
        <ele>74.3</ele>
        <time>2020-06-30T16:22:29Z</time>
      </trkpt>
      <trkpt lat="49.04208" lon="4.15952">
        <ele>74.3</ele>
        <time>2020-06-30T16:22:30Z</time>
      </trkpt>
      <trkpt lat="49.04209" lon="4.15943">
        <ele>74.3</ele>
        <time>2020-06-30T16:22:31Z</time>
      </trkpt>
      <trkpt lat="49.0421" lon="4.15934">
        <ele>74.4</ele>
        <time>2020-06-30T16:22:32Z</time>
      </trkpt>
      <trkpt lat="49.0421" lon="4.15925">
        <ele>74.4</ele>
        <time>2020-06-30T16:22:33Z</time>
      </trkpt>
      <trkpt lat="49.0421" lon="4.15916">
        <ele>74.4</ele>
        <time>2020-06-30T16:22:34Z</time>
      </trkpt>
      <trkpt lat="49.04211" lon="4.15907">
        <ele>74.4</ele>
        <time>2020-06-30T16:22:35Z</time>
      </trkpt>
      <trkpt lat="49.04211" lon="4.15898">
        <ele>74.5</ele>
        <time>2020-06-30T16:22:36Z</time>
      </trkpt>
      <trkpt lat="49.04211" lon="4.1589">
        <ele>74.5</ele>
        <time>2020-06-30T16:22:37Z</time>
      </trkpt>
      <trkpt lat="49.04212" lon="4.15881">
        <ele>74.5</ele>
        <time>2020-06-30T16:22:38Z</time>
      </trkpt>
      <trkpt lat="49.04212" lon="4.15871">
        <ele>74.5</ele>
        <time>2020-06-30T16:22:39Z</time>
      </trkpt>
      <trkpt lat="49.04212" lon="4.15861">
        <ele>74.5</ele>
        <time>2020-06-30T16:22:40Z</time>
      </trkpt>
      <trkpt lat="49.04212" lon="4.15852">
        <ele>74.4</ele>
        <time>2020-06-30T16:22:41Z</time>
      </trkpt>
      <trkpt lat="49.04212" lon="4.15842">
        <ele>74.4</ele>
        <time>2020-06-30T16:22:42Z</time>
      </trkpt>
      <trkpt lat="49.04211" lon="4.15834">
        <ele>74.4</ele>
        <time>2020-06-30T16:22:43Z</time>
      </trkpt>
      <trkpt lat="49.04211" lon="4.15824">
        <ele>74.4</ele>
        <time>2020-06-30T16:22:44Z</time>
      </trkpt>
      <trkpt lat="49.04211" lon="4.15814">
        <ele>74.4</ele>
        <time>2020-06-30T16:22:45Z</time>
      </trkpt>
      <trkpt lat="49.0421" lon="4.15803">
        <ele>74.4</ele>
        <time>2020-06-30T16:22:46Z</time>
      </trkpt>
      <trkpt lat="49.0421" lon="4.15795">
        <ele>74.5</ele>
        <time>2020-06-30T16:22:47Z</time>
      </trkpt>
      <trkpt lat="49.04211" lon="4.15786">
        <ele>74.5</ele>
        <time>2020-06-30T16:22:48Z</time>
      </trkpt>
      <trkpt lat="49.04211" lon="4.15776">
        <ele>74.5</ele>
        <time>2020-06-30T16:22:49Z</time>
      </trkpt>
      <trkpt lat="49.04211" lon="4.15766">
        <ele>74.5</ele>
        <time>2020-06-30T16:22:50Z</time>
      </trkpt>
      <trkpt lat="49.0421" lon="4.15758">
        <ele>74.5</ele>
        <time>2020-06-30T16:22:51Z</time>
      </trkpt>
      <trkpt lat="49.0421" lon="4.1575">
        <ele>74.5</ele>
        <time>2020-06-30T16:22:52Z</time>
      </trkpt>
      <trkpt lat="49.04209" lon="4.1574">
        <ele>74.5</ele>
        <time>2020-06-30T16:22:53Z</time>
      </trkpt>
      <trkpt lat="49.0421" lon="4.15731">
        <ele>74.5</ele>
        <time>2020-06-30T16:22:54Z</time>
      </trkpt>
      <trkpt lat="49.0421" lon="4.15721">
        <ele>74.4</ele>
        <time>2020-06-30T16:22:55Z</time>
      </trkpt>
      <trkpt lat="49.0421" lon="4.15711">
        <ele>74.4</ele>
        <time>2020-06-30T16:22:56Z</time>
      </trkpt>
      <trkpt lat="49.0421" lon="4.15701">
        <ele>74.4</ele>
        <time>2020-06-30T16:22:57Z</time>
      </trkpt>
      <trkpt lat="49.0421" lon="4.15692">
        <ele>74.5</ele>
        <time>2020-06-30T16:22:58Z</time>
      </trkpt>
      <trkpt lat="49.0421" lon="4.15682">
        <ele>74.5</ele>
        <time>2020-06-30T16:22:59Z</time>
      </trkpt>
      <trkpt lat="49.04209" lon="4.15675">
        <ele>74.5</ele>
        <time>2020-06-30T16:23:00Z</time>
      </trkpt>
      <trkpt lat="49.04209" lon="4.15667">
        <ele>74.5</ele>
        <time>2020-06-30T16:23:01Z</time>
      </trkpt>
      <trkpt lat="49.04209" lon="4.15657">
        <ele>74.4</ele>
        <time>2020-06-30T16:23:02Z</time>
      </trkpt>
      <trkpt lat="49.04209" lon="4.15646">
        <ele>74.4</ele>
        <time>2020-06-30T16:23:03Z</time>
      </trkpt>
      <trkpt lat="49.04209" lon="4.15637">
        <ele>74.4</ele>
        <time>2020-06-30T16:23:04Z</time>
      </trkpt>
      <trkpt lat="49.04209" lon="4.1563">
        <ele>74.4</ele>
        <time>2020-06-30T16:23:05Z</time>
      </trkpt>
      <trkpt lat="49.04208" lon="4.15619">
        <ele>74.4</ele>
        <time>2020-06-30T16:23:06Z</time>
      </trkpt>
      <trkpt lat="49.04209" lon="4.1561">
        <ele>74.4</ele>
        <time>2020-06-30T16:23:07Z</time>
      </trkpt>
      <trkpt lat="49.0421" lon="4.15603">
        <ele>74.4</ele>
        <time>2020-06-30T16:23:08Z</time>
      </trkpt>
      <trkpt lat="49.0421" lon="4.15594">
        <ele>74.4</ele>
        <time>2020-06-30T16:23:09Z</time>
      </trkpt>
      <trkpt lat="49.0421" lon="4.15583">
        <ele>74.4</ele>
        <time>2020-06-30T16:23:10Z</time>
      </trkpt>
      <trkpt lat="49.04211" lon="4.15574">
        <ele>74.4</ele>
        <time>2020-06-30T16:23:11Z</time>
      </trkpt>
      <trkpt lat="49.04211" lon="4.15565">
        <ele>74.4</ele>
        <time>2020-06-30T16:23:12Z</time>
      </trkpt>
      <trkpt lat="49.04211" lon="4.15556">
        <ele>74.4</ele>
        <time>2020-06-30T16:23:13Z</time>
      </trkpt>
      <trkpt lat="49.04211" lon="4.15547">
        <ele>74.4</ele>
        <time>2020-06-30T16:23:14Z</time>
      </trkpt>
      <trkpt lat="49.0421" lon="4.15537">
        <ele>74.4</ele>
        <time>2020-06-30T16:23:15Z</time>
      </trkpt>
      <trkpt lat="49.0421" lon="4.15529">
        <ele>74.5</ele>
        <time>2020-06-30T16:23:16Z</time>
      </trkpt>
      <trkpt lat="49.0421" lon="4.1552">
        <ele>74.5</ele>
        <time>2020-06-30T16:23:17Z</time>
      </trkpt>
      <trkpt lat="49.0421" lon="4.15511">
        <ele>74.5</ele>
        <time>2020-06-30T16:23:18Z</time>
      </trkpt>
      <trkpt lat="49.04211" lon="4.15501">
        <ele>74.5</ele>
        <time>2020-06-30T16:23:19Z</time>
      </trkpt>
      <trkpt lat="49.04211" lon="4.15492">
        <ele>74.5</ele>
        <time>2020-06-30T16:23:20Z</time>
      </trkpt>
      <trkpt lat="49.04212" lon="4.15482">
        <ele>74.5</ele>
        <time>2020-06-30T16:23:21Z</time>
      </trkpt>
      <trkpt lat="49.04212" lon="4.15474">
        <ele>74.5</ele>
        <time>2020-06-30T16:23:22Z</time>
      </trkpt>
      <trkpt lat="49.04212" lon="4.15464">
        <ele>74.4</ele>
        <time>2020-06-30T16:23:23Z</time>
      </trkpt>
      <trkpt lat="49.04213" lon="4.15454">
        <ele>74.4</ele>
        <time>2020-06-30T16:23:24Z</time>
      </trkpt>
      <trkpt lat="49.04213" lon="4.15444">
        <ele>74.4</ele>
        <time>2020-06-30T16:23:25Z</time>
      </trkpt>
      <trkpt lat="49.04214" lon="4.15433">
        <ele>74.4</ele>
        <time>2020-06-30T16:23:26Z</time>
      </trkpt>
      <trkpt lat="49.04215" lon="4.15426">
        <ele>74.4</ele>
        <time>2020-06-30T16:23:27Z</time>
      </trkpt>
      <trkpt lat="49.04215" lon="4.15416">
        <ele>74.4</ele>
        <time>2020-06-30T16:23:28Z</time>
      </trkpt>
      <trkpt lat="49.04215" lon="4.15408">
        <ele>74.4</ele>
        <time>2020-06-30T16:23:29Z</time>
      </trkpt>
      <trkpt lat="49.04215" lon="4.15398">
        <ele>74.4</ele>
        <time>2020-06-30T16:23:30Z</time>
      </trkpt>
      <trkpt lat="49.04215" lon="4.15389">
        <ele>74.4</ele>
        <time>2020-06-30T16:23:31Z</time>
      </trkpt>
      <trkpt lat="49.04216" lon="4.15378">
        <ele>74.4</ele>
        <time>2020-06-30T16:23:32Z</time>
      </trkpt>
      <trkpt lat="49.04218" lon="4.1537">
        <ele>74.3</ele>
        <time>2020-06-30T16:23:33Z</time>
      </trkpt>
      <trkpt lat="49.04219" lon="4.1536">
        <ele>74.3</ele>
        <time>2020-06-30T16:23:34Z</time>
      </trkpt>
      <trkpt lat="49.0422" lon="4.15352">
        <ele>74.4</ele>
        <time>2020-06-30T16:23:35Z</time>
      </trkpt>
      <trkpt lat="49.04222" lon="4.15343">
        <ele>74.4</ele>
        <time>2020-06-30T16:23:36Z</time>
      </trkpt>
      <trkpt lat="49.04223" lon="4.15332">
        <ele>74.4</ele>
        <time>2020-06-30T16:23:37Z</time>
      </trkpt>
      <trkpt lat="49.04226" lon="4.15323">
        <ele>74.4</ele>
        <time>2020-06-30T16:23:38Z</time>
      </trkpt>
      <trkpt lat="49.04227" lon="4.15314">
        <ele>74.4</ele>
        <time>2020-06-30T16:23:39Z</time>
      </trkpt>
      <trkpt lat="49.04229" lon="4.15305">
        <ele>74.3</ele>
        <time>2020-06-30T16:23:40Z</time>
      </trkpt>
      <trkpt lat="49.04231" lon="4.15297">
        <ele>74.3</ele>
        <time>2020-06-30T16:23:41Z</time>
      </trkpt>
      <trkpt lat="49.04232" lon="4.15288">
        <ele>74.3</ele>
        <time>2020-06-30T16:23:42Z</time>
      </trkpt>
      <trkpt lat="49.04233" lon="4.15278">
        <ele>74.3</ele>
        <time>2020-06-30T16:23:43Z</time>
      </trkpt>
      <trkpt lat="49.04234" lon="4.15269">
        <ele>74.3</ele>
        <time>2020-06-30T16:23:44Z</time>
      </trkpt>
      <trkpt lat="49.04236" lon="4.15261">
        <ele>74.3</ele>
        <time>2020-06-30T16:23:45Z</time>
      </trkpt>
      <trkpt lat="49.04236" lon="4.15251">
        <ele>74.3</ele>
        <time>2020-06-30T16:23:46Z</time>
      </trkpt>
      <trkpt lat="49.04238" lon="4.15242">
        <ele>74.3</ele>
        <time>2020-06-30T16:23:47Z</time>
      </trkpt>
      <trkpt lat="49.0424" lon="4.15232">
        <ele>74.3</ele>
        <time>2020-06-30T16:23:48Z</time>
      </trkpt>
      <trkpt lat="49.04242" lon="4.15223">
        <ele>74.3</ele>
        <time>2020-06-30T16:23:49Z</time>
      </trkpt>
      <trkpt lat="49.04243" lon="4.15214">
        <ele>74.3</ele>
        <time>2020-06-30T16:23:50Z</time>
      </trkpt>
      <trkpt lat="49.04245" lon="4.15205">
        <ele>74.3</ele>
        <time>2020-06-30T16:23:51Z</time>
      </trkpt>
      <trkpt lat="49.04246" lon="4.15197">
        <ele>74.3</ele>
        <time>2020-06-30T16:23:52Z</time>
      </trkpt>
      <trkpt lat="49.04247" lon="4.15187">
        <ele>74.3</ele>
        <time>2020-06-30T16:23:53Z</time>
      </trkpt>
      <trkpt lat="49.04249" lon="4.15179">
        <ele>74.3</ele>
        <time>2020-06-30T16:23:54Z</time>
      </trkpt>
      <trkpt lat="49.04251" lon="4.15171">
        <ele>74.3</ele>
        <time>2020-06-30T16:23:55Z</time>
      </trkpt>
      <trkpt lat="49.04253" lon="4.15164">
        <ele>74.3</ele>
        <time>2020-06-30T16:23:56Z</time>
      </trkpt>
      <trkpt lat="49.04256" lon="4.15156">
        <ele>74.3</ele>
        <time>2020-06-30T16:23:57Z</time>
      </trkpt>
      <trkpt lat="49.04257" lon="4.15147">
        <ele>74.3</ele>
        <time>2020-06-30T16:23:58Z</time>
      </trkpt>
      <trkpt lat="49.04259" lon="4.15137">
        <ele>74.3</ele>
        <time>2020-06-30T16:23:59Z</time>
      </trkpt>
      <trkpt lat="49.0426" lon="4.15128">
        <ele>74.3</ele>
        <time>2020-06-30T16:24:00Z</time>
      </trkpt>
      <trkpt lat="49.04262" lon="4.15116">
        <ele>74.3</ele>
        <time>2020-06-30T16:24:01Z</time>
      </trkpt>
      <trkpt lat="49.04264" lon="4.15105">
        <ele>74.3</ele>
        <time>2020-06-30T16:24:02Z</time>
      </trkpt>
      <trkpt lat="49.04266" lon="4.15096">
        <ele>74.3</ele>
        <time>2020-06-30T16:24:03Z</time>
      </trkpt>
      <trkpt lat="49.04267" lon="4.15086">
        <ele>74.3</ele>
        <time>2020-06-30T16:24:04Z</time>
      </trkpt>
      <trkpt lat="49.04268" lon="4.15076">
        <ele>74.3</ele>
        <time>2020-06-30T16:24:05Z</time>
      </trkpt>
      <trkpt lat="49.0427" lon="4.15068">
        <ele>74.2</ele>
        <time>2020-06-30T16:24:06Z</time>
      </trkpt>
      <trkpt lat="49.04272" lon="4.15058">
        <ele>74.2</ele>
        <time>2020-06-30T16:24:07Z</time>
      </trkpt>
      <trkpt lat="49.04274" lon="4.15049">
        <ele>74.2</ele>
        <time>2020-06-30T16:24:08Z</time>
      </trkpt>
      <trkpt lat="49.04277" lon="4.1504">
        <ele>74.3</ele>
        <time>2020-06-30T16:24:09Z</time>
      </trkpt>
      <trkpt lat="49.04279" lon="4.1503">
        <ele>74.3</ele>
        <time>2020-06-30T16:24:10Z</time>
      </trkpt>
      <trkpt lat="49.04281" lon="4.15021">
        <ele>74.3</ele>
        <time>2020-06-30T16:24:11Z</time>
      </trkpt>
      <trkpt lat="49.04282" lon="4.15013">
        <ele>74.3</ele>
        <time>2020-06-30T16:24:12Z</time>
      </trkpt>
      <trkpt lat="49.04284" lon="4.15003">
        <ele>74.2</ele>
        <time>2020-06-30T16:24:13Z</time>
      </trkpt>
      <trkpt lat="49.04286" lon="4.14993">
        <ele>74.2</ele>
        <time>2020-06-30T16:24:14Z</time>
      </trkpt>
      <trkpt lat="49.04289" lon="4.14986">
        <ele>74.2</ele>
        <time>2020-06-30T16:24:15Z</time>
      </trkpt>
      <trkpt lat="49.04291" lon="4.14978">
        <ele>74.2</ele>
        <time>2020-06-30T16:24:16Z</time>
      </trkpt>
      <trkpt lat="49.04292" lon="4.14972">
        <ele>74.2</ele>
        <time>2020-06-30T16:24:17Z</time>
      </trkpt>
      <trkpt lat="49.04295" lon="4.14963">
        <ele>74.1</ele>
        <time>2020-06-30T16:24:18Z</time>
      </trkpt>
      <trkpt lat="49.04297" lon="4.14952">
        <ele>74.1</ele>
        <time>2020-06-30T16:24:19Z</time>
      </trkpt>
      <trkpt lat="49.04298" lon="4.14943">
        <ele>74.1</ele>
        <time>2020-06-30T16:24:20Z</time>
      </trkpt>
      <trkpt lat="49.043" lon="4.14935">
        <ele>74.1</ele>
        <time>2020-06-30T16:24:21Z</time>
      </trkpt>
      <trkpt lat="49.04302" lon="4.14927">
        <ele>74.1</ele>
        <time>2020-06-30T16:24:22Z</time>
      </trkpt>
      <trkpt lat="49.04304" lon="4.14919">
        <ele>74.1</ele>
        <time>2020-06-30T16:24:23Z</time>
      </trkpt>
      <trkpt lat="49.04306" lon="4.14912">
        <ele>74.2</ele>
        <time>2020-06-30T16:24:24Z</time>
      </trkpt>
      <trkpt lat="49.04309" lon="4.14904">
        <ele>74.2</ele>
        <time>2020-06-30T16:24:25Z</time>
      </trkpt>
      <trkpt lat="49.04312" lon="4.14896">
        <ele>74.2</ele>
        <time>2020-06-30T16:24:26Z</time>
      </trkpt>
      <trkpt lat="49.04315" lon="4.14887">
        <ele>74.2</ele>
        <time>2020-06-30T16:24:27Z</time>
      </trkpt>
      <trkpt lat="49.04317" lon="4.14879">
        <ele>74.2</ele>
        <time>2020-06-30T16:24:28Z</time>
      </trkpt>
      <trkpt lat="49.0432" lon="4.14873">
        <ele>74.2</ele>
        <time>2020-06-30T16:24:29Z</time>
      </trkpt>
      <trkpt lat="49.04323" lon="4.14864">
        <ele>74.2</ele>
        <time>2020-06-30T16:24:30Z</time>
      </trkpt>
      <trkpt lat="49.04325" lon="4.14857">
        <ele>74.2</ele>
        <time>2020-06-30T16:24:31Z</time>
      </trkpt>
      <trkpt lat="49.04328" lon="4.14848">
        <ele>74.2</ele>
        <time>2020-06-30T16:24:32Z</time>
      </trkpt>
      <trkpt lat="49.0433" lon="4.1484">
        <ele>74.2</ele>
        <time>2020-06-30T16:24:33Z</time>
      </trkpt>
      <trkpt lat="49.04333" lon="4.1483">
        <ele>74.2</ele>
        <time>2020-06-30T16:24:34Z</time>
      </trkpt>
      <trkpt lat="49.04335" lon="4.14822">
        <ele>74.2</ele>
        <time>2020-06-30T16:24:35Z</time>
      </trkpt>
      <trkpt lat="49.04338" lon="4.14814">
        <ele>74.1</ele>
        <time>2020-06-30T16:24:36Z</time>
      </trkpt>
      <trkpt lat="49.0434" lon="4.14805">
        <ele>74.1</ele>
        <time>2020-06-30T16:24:37Z</time>
      </trkpt>
      <trkpt lat="49.04343" lon="4.14796">
        <ele>74.1</ele>
        <time>2020-06-30T16:24:38Z</time>
      </trkpt>
      <trkpt lat="49.04345" lon="4.14789">
        <ele>74.1</ele>
        <time>2020-06-30T16:24:39Z</time>
      </trkpt>
      <trkpt lat="49.04347" lon="4.1478">
        <ele>74.1</ele>
        <time>2020-06-30T16:24:40Z</time>
      </trkpt>
      <trkpt lat="49.04349" lon="4.14773">
        <ele>74.1</ele>
        <time>2020-06-30T16:24:41Z</time>
      </trkpt>
      <trkpt lat="49.04352" lon="4.14763">
        <ele>74.1</ele>
        <time>2020-06-30T16:24:42Z</time>
      </trkpt>
      <trkpt lat="49.04356" lon="4.14755">
        <ele>74.1</ele>
        <time>2020-06-30T16:24:43Z</time>
      </trkpt>
      <trkpt lat="49.04359" lon="4.14746">
        <ele>74.1</ele>
        <time>2020-06-30T16:24:44Z</time>
      </trkpt>
      <trkpt lat="49.04361" lon="4.14737">
        <ele>74</ele>
        <time>2020-06-30T16:24:45Z</time>
      </trkpt>
      <trkpt lat="49.04364" lon="4.14729">
        <ele>74</ele>
        <time>2020-06-30T16:24:46Z</time>
      </trkpt>
      <trkpt lat="49.04366" lon="4.14721">
        <ele>74</ele>
        <time>2020-06-30T16:24:47Z</time>
      </trkpt>
      <trkpt lat="49.04369" lon="4.14712">
        <ele>74</ele>
        <time>2020-06-30T16:24:48Z</time>
      </trkpt>
      <trkpt lat="49.04372" lon="4.14704">
        <ele>74</ele>
        <time>2020-06-30T16:24:49Z</time>
      </trkpt>
      <trkpt lat="49.04375" lon="4.14696">
        <ele>74</ele>
        <time>2020-06-30T16:24:50Z</time>
      </trkpt>
      <trkpt lat="49.04379" lon="4.14687">
        <ele>74</ele>
        <time>2020-06-30T16:24:51Z</time>
      </trkpt>
      <trkpt lat="49.04382" lon="4.14679">
        <ele>74</ele>
        <time>2020-06-30T16:24:52Z</time>
      </trkpt>
      <trkpt lat="49.04385" lon="4.14671">
        <ele>74</ele>
        <time>2020-06-30T16:24:53Z</time>
      </trkpt>
      <trkpt lat="49.04387" lon="4.14664">
        <ele>74</ele>
        <time>2020-06-30T16:24:54Z</time>
      </trkpt>
      <trkpt lat="49.0439" lon="4.14655">
        <ele>74.1</ele>
        <time>2020-06-30T16:24:55Z</time>
      </trkpt>
      <trkpt lat="49.04394" lon="4.14645">
        <ele>74.1</ele>
        <time>2020-06-30T16:24:56Z</time>
      </trkpt>
      <trkpt lat="49.04396" lon="4.14637">
        <ele>74.1</ele>
        <time>2020-06-30T16:24:57Z</time>
      </trkpt>
      <trkpt lat="49.04398" lon="4.14629">
        <ele>74.1</ele>
        <time>2020-06-30T16:24:58Z</time>
      </trkpt>
      <trkpt lat="49.04401" lon="4.14618">
        <ele>74.1</ele>
        <time>2020-06-30T16:24:59Z</time>
      </trkpt>
      <trkpt lat="49.04404" lon="4.14609">
        <ele>74.1</ele>
        <time>2020-06-30T16:25:00Z</time>
      </trkpt>
      <trkpt lat="49.04407" lon="4.14599">
        <ele>74.1</ele>
        <time>2020-06-30T16:25:01Z</time>
      </trkpt>
      <trkpt lat="49.0441" lon="4.14592">
        <ele>74.1</ele>
        <time>2020-06-30T16:25:02Z</time>
      </trkpt>
      <trkpt lat="49.04413" lon="4.14584">
        <ele>74</ele>
        <time>2020-06-30T16:25:03Z</time>
      </trkpt>
      <trkpt lat="49.04415" lon="4.14575">
        <ele>74</ele>
        <time>2020-06-30T16:25:04Z</time>
      </trkpt>
      <trkpt lat="49.04417" lon="4.14566">
        <ele>74</ele>
        <time>2020-06-30T16:25:05Z</time>
      </trkpt>
      <trkpt lat="49.04419" lon="4.14556">
        <ele>74.1</ele>
        <time>2020-06-30T16:25:06Z</time>
      </trkpt>
      <trkpt lat="49.04422" lon="4.14549">
        <ele>74.1</ele>
        <time>2020-06-30T16:25:07Z</time>
      </trkpt>
      <trkpt lat="49.04424" lon="4.14541">
        <ele>74.1</ele>
        <time>2020-06-30T16:25:08Z</time>
      </trkpt>
      <trkpt lat="49.04427" lon="4.14534">
        <ele>74.1</ele>
        <time>2020-06-30T16:25:09Z</time>
      </trkpt>
      <trkpt lat="49.04431" lon="4.14524">
        <ele>74.1</ele>
        <time>2020-06-30T16:25:10Z</time>
      </trkpt>
      <trkpt lat="49.04433" lon="4.14515">
        <ele>74.2</ele>
        <time>2020-06-30T16:25:11Z</time>
      </trkpt>
      <trkpt lat="49.04436" lon="4.14508">
        <ele>74.2</ele>
        <time>2020-06-30T16:25:12Z</time>
      </trkpt>
      <trkpt lat="49.04437" lon="4.14499">
        <ele>74.2</ele>
        <time>2020-06-30T16:25:13Z</time>
      </trkpt>
      <trkpt lat="49.04439" lon="4.1449">
        <ele>74.1</ele>
        <time>2020-06-30T16:25:14Z</time>
      </trkpt>
      <trkpt lat="49.04441" lon="4.14482">
        <ele>74.1</ele>
        <time>2020-06-30T16:25:15Z</time>
      </trkpt>
      <trkpt lat="49.04444" lon="4.14473">
        <ele>74.1</ele>
        <time>2020-06-30T16:25:16Z</time>
      </trkpt>
      <trkpt lat="49.04445" lon="4.14466">
        <ele>74.1</ele>
        <time>2020-06-30T16:25:17Z</time>
      </trkpt>
      <trkpt lat="49.04448" lon="4.14457">
        <ele>74.1</ele>
        <time>2020-06-30T16:25:18Z</time>
      </trkpt>
      <trkpt lat="49.04451" lon="4.14448">
        <ele>74.1</ele>
        <time>2020-06-30T16:25:19Z</time>
      </trkpt>
      <trkpt lat="49.04453" lon="4.14439">
        <ele>74.1</ele>
        <time>2020-06-30T16:25:20Z</time>
      </trkpt>
      <trkpt lat="49.04456" lon="4.14428">
        <ele>74.1</ele>
        <time>2020-06-30T16:25:21Z</time>
      </trkpt>
      <trkpt lat="49.04457" lon="4.14419">
        <ele>74.1</ele>
        <time>2020-06-30T16:25:22Z</time>
      </trkpt>
      <trkpt lat="49.0446" lon="4.14411">
        <ele>74.1</ele>
        <time>2020-06-30T16:25:23Z</time>
      </trkpt>
      <trkpt lat="49.04461" lon="4.14403">
        <ele>74.1</ele>
        <time>2020-06-30T16:25:24Z</time>
      </trkpt>
      <trkpt lat="49.04464" lon="4.14394">
        <ele>74.1</ele>
        <time>2020-06-30T16:25:25Z</time>
      </trkpt>
      <trkpt lat="49.04466" lon="4.14386">
        <ele>74.1</ele>
        <time>2020-06-30T16:25:26Z</time>
      </trkpt>
      <trkpt lat="49.04468" lon="4.14377">
        <ele>74.1</ele>
        <time>2020-06-30T16:25:27Z</time>
      </trkpt>
      <trkpt lat="49.04471" lon="4.14367">
        <ele>74.1</ele>
        <time>2020-06-30T16:25:28Z</time>
      </trkpt>
      <trkpt lat="49.04473" lon="4.14358">
        <ele>74.1</ele>
        <time>2020-06-30T16:25:29Z</time>
      </trkpt>
      <trkpt lat="49.04475" lon="4.1435">
        <ele>74.1</ele>
        <time>2020-06-30T16:25:30Z</time>
      </trkpt>
      <trkpt lat="49.04478" lon="4.14343">
        <ele>74</ele>
        <time>2020-06-30T16:25:31Z</time>
      </trkpt>
      <trkpt lat="49.0448" lon="4.14333">
        <ele>74</ele>
        <time>2020-06-30T16:25:32Z</time>
      </trkpt>
      <trkpt lat="49.04481" lon="4.14326">
        <ele>74</ele>
        <time>2020-06-30T16:25:33Z</time>
      </trkpt>
      <trkpt lat="49.04483" lon="4.14315">
        <ele>74</ele>
        <time>2020-06-30T16:25:34Z</time>
      </trkpt>
      <trkpt lat="49.04485" lon="4.14308">
        <ele>74</ele>
        <time>2020-06-30T16:25:35Z</time>
      </trkpt>
      <trkpt lat="49.04487" lon="4.143">
        <ele>74</ele>
        <time>2020-06-30T16:25:36Z</time>
      </trkpt>
      <trkpt lat="49.04488" lon="4.14291">
        <ele>74</ele>
        <time>2020-06-30T16:25:37Z</time>
      </trkpt>
      <trkpt lat="49.0449" lon="4.14283">
        <ele>74.1</ele>
        <time>2020-06-30T16:25:38Z</time>
      </trkpt>
      <trkpt lat="49.04492" lon="4.14274">
        <ele>74.1</ele>
        <time>2020-06-30T16:25:39Z</time>
      </trkpt>
      <trkpt lat="49.04493" lon="4.14265">
        <ele>74.1</ele>
        <time>2020-06-30T16:25:40Z</time>
      </trkpt>
      <trkpt lat="49.04495" lon="4.1426">
        <ele>74.1</ele>
        <time>2020-06-30T16:25:41Z</time>
      </trkpt>
      <trkpt lat="49.04497" lon="4.14251">
        <ele>74.1</ele>
        <time>2020-06-30T16:25:42Z</time>
      </trkpt>
      <trkpt lat="49.04499" lon="4.14242">
        <ele>74</ele>
        <time>2020-06-30T16:25:43Z</time>
      </trkpt>
      <trkpt lat="49.04501" lon="4.14233">
        <ele>74</ele>
        <time>2020-06-30T16:25:44Z</time>
      </trkpt>
      <trkpt lat="49.04503" lon="4.14224">
        <ele>74</ele>
        <time>2020-06-30T16:25:45Z</time>
      </trkpt>
      <trkpt lat="49.04505" lon="4.14215">
        <ele>74</ele>
        <time>2020-06-30T16:25:46Z</time>
      </trkpt>
      <trkpt lat="49.04506" lon="4.14208">
        <ele>73.9</ele>
        <time>2020-06-30T16:25:47Z</time>
      </trkpt>
      <trkpt lat="49.04508" lon="4.142">
        <ele>73.9</ele>
        <time>2020-06-30T16:25:48Z</time>
      </trkpt>
      <trkpt lat="49.04509" lon="4.14191">
        <ele>73.9</ele>
        <time>2020-06-30T16:25:49Z</time>
      </trkpt>
      <trkpt lat="49.04511" lon="4.14182">
        <ele>73.9</ele>
        <time>2020-06-30T16:25:50Z</time>
      </trkpt>
      <trkpt lat="49.04513" lon="4.14174">
        <ele>73.9</ele>
        <time>2020-06-30T16:25:51Z</time>
      </trkpt>
      <trkpt lat="49.04515" lon="4.14165">
        <ele>73.9</ele>
        <time>2020-06-30T16:25:52Z</time>
      </trkpt>
      <trkpt lat="49.04518" lon="4.14156">
        <ele>73.9</ele>
        <time>2020-06-30T16:25:53Z</time>
      </trkpt>
      <trkpt lat="49.0452" lon="4.14148">
        <ele>74</ele>
        <time>2020-06-30T16:25:54Z</time>
      </trkpt>
      <trkpt lat="49.04521" lon="4.14141">
        <ele>74</ele>
        <time>2020-06-30T16:25:55Z</time>
      </trkpt>
      <trkpt lat="49.04523" lon="4.1413">
        <ele>74</ele>
        <time>2020-06-30T16:25:56Z</time>
      </trkpt>
      <trkpt lat="49.04525" lon="4.14122">
        <ele>74</ele>
        <time>2020-06-30T16:25:57Z</time>
      </trkpt>
      <trkpt lat="49.04527" lon="4.14114">
        <ele>74</ele>
        <time>2020-06-30T16:25:58Z</time>
      </trkpt>
      <trkpt lat="49.04529" lon="4.14106">
        <ele>74</ele>
        <time>2020-06-30T16:25:59Z</time>
      </trkpt>
      <trkpt lat="49.04531" lon="4.14098">
        <ele>74</ele>
        <time>2020-06-30T16:26:00Z</time>
      </trkpt>
      <trkpt lat="49.04533" lon="4.14089">
        <ele>74</ele>
        <time>2020-06-30T16:26:01Z</time>
      </trkpt>
      <trkpt lat="49.04535" lon="4.14079">
        <ele>74</ele>
        <time>2020-06-30T16:26:02Z</time>
      </trkpt>
      <trkpt lat="49.04537" lon="4.1407">
        <ele>74</ele>
        <time>2020-06-30T16:26:03Z</time>
      </trkpt>
      <trkpt lat="49.04539" lon="4.14062">
        <ele>74</ele>
        <time>2020-06-30T16:26:04Z</time>
      </trkpt>
      <trkpt lat="49.04541" lon="4.14054">
        <ele>74</ele>
        <time>2020-06-30T16:26:05Z</time>
      </trkpt>
      <trkpt lat="49.04543" lon="4.14044">
        <ele>74</ele>
        <time>2020-06-30T16:26:06Z</time>
      </trkpt>
      <trkpt lat="49.04544" lon="4.14037">
        <ele>74</ele>
        <time>2020-06-30T16:26:07Z</time>
      </trkpt>
      <trkpt lat="49.04545" lon="4.14032">
        <ele>74</ele>
        <time>2020-06-30T16:26:08Z</time>
      </trkpt>
      <trkpt lat="49.04546" lon="4.14023">
        <ele>74</ele>
        <time>2020-06-30T16:26:09Z</time>
      </trkpt>
      <trkpt lat="49.04549" lon="4.14012">
        <ele>74</ele>
        <time>2020-06-30T16:26:10Z</time>
      </trkpt>
      <trkpt lat="49.04552" lon="4.14003">
        <ele>74</ele>
        <time>2020-06-30T16:26:11Z</time>
      </trkpt>
      <trkpt lat="49.04553" lon="4.13994">
        <ele>74</ele>
        <time>2020-06-30T16:26:12Z</time>
      </trkpt>
      <trkpt lat="49.04554" lon="4.13986">
        <ele>74</ele>
        <time>2020-06-30T16:26:13Z</time>
      </trkpt>
      <trkpt lat="49.04555" lon="4.13976">
        <ele>74</ele>
        <time>2020-06-30T16:26:14Z</time>
      </trkpt>
      <trkpt lat="49.04556" lon="4.13967">
        <ele>74</ele>
        <time>2020-06-30T16:26:15Z</time>
      </trkpt>
      <trkpt lat="49.04558" lon="4.13957">
        <ele>74</ele>
        <time>2020-06-30T16:26:16Z</time>
      </trkpt>
      <trkpt lat="49.04559" lon="4.13948">
        <ele>74</ele>
        <time>2020-06-30T16:26:17Z</time>
      </trkpt>
      <trkpt lat="49.0456" lon="4.13941">
        <ele>74.1</ele>
        <time>2020-06-30T16:26:18Z</time>
      </trkpt>
      <trkpt lat="49.04561" lon="4.13933">
        <ele>74.1</ele>
        <time>2020-06-30T16:26:19Z</time>
      </trkpt>
      <trkpt lat="49.04561" lon="4.13924">
        <ele>74.1</ele>
        <time>2020-06-30T16:26:20Z</time>
      </trkpt>
      <trkpt lat="49.04562" lon="4.13916">
        <ele>74.1</ele>
        <time>2020-06-30T16:26:21Z</time>
      </trkpt>
      <trkpt lat="49.04563" lon="4.13906">
        <ele>74.1</ele>
        <time>2020-06-30T16:26:22Z</time>
      </trkpt>
      <trkpt lat="49.04563" lon="4.13898">
        <ele>74.1</ele>
        <time>2020-06-30T16:26:23Z</time>
      </trkpt>
      <trkpt lat="49.04566" lon="4.13889">
        <ele>74.1</ele>
        <time>2020-06-30T16:26:24Z</time>
      </trkpt>
      <trkpt lat="49.04566" lon="4.13879">
        <ele>74.1</ele>
        <time>2020-06-30T16:26:25Z</time>
      </trkpt>
      <trkpt lat="49.04567" lon="4.1387">
        <ele>74.1</ele>
        <time>2020-06-30T16:26:26Z</time>
      </trkpt>
      <trkpt lat="49.04567" lon="4.13859">
        <ele>74.1</ele>
        <time>2020-06-30T16:26:27Z</time>
      </trkpt>
      <trkpt lat="49.04567" lon="4.13849">
        <ele>74</ele>
        <time>2020-06-30T16:26:28Z</time>
      </trkpt>
      <trkpt lat="49.04568" lon="4.13841">
        <ele>74</ele>
        <time>2020-06-30T16:26:29Z</time>
      </trkpt>
      <trkpt lat="49.04567" lon="4.13831">
        <ele>74</ele>
        <time>2020-06-30T16:26:30Z</time>
      </trkpt>
      <trkpt lat="49.04568" lon="4.13824">
        <ele>74</ele>
        <time>2020-06-30T16:26:31Z</time>
      </trkpt>
      <trkpt lat="49.04568" lon="4.13815">
        <ele>74</ele>
        <time>2020-06-30T16:26:32Z</time>
      </trkpt>
      <trkpt lat="49.04569" lon="4.13805">
        <ele>74</ele>
        <time>2020-06-30T16:26:33Z</time>
      </trkpt>
      <trkpt lat="49.04569" lon="4.13796">
        <ele>74</ele>
        <time>2020-06-30T16:26:34Z</time>
      </trkpt>
      <trkpt lat="49.04569" lon="4.13785">
        <ele>73.9</ele>
        <time>2020-06-30T16:26:35Z</time>
      </trkpt>
      <trkpt lat="49.04569" lon="4.13775">
        <ele>73.9</ele>
        <time>2020-06-30T16:26:36Z</time>
      </trkpt>
      <trkpt lat="49.04568" lon="4.13767">
        <ele>73.9</ele>
        <time>2020-06-30T16:26:37Z</time>
      </trkpt>
      <trkpt lat="49.04567" lon="4.13757">
        <ele>73.9</ele>
        <time>2020-06-30T16:26:38Z</time>
      </trkpt>
      <trkpt lat="49.04567" lon="4.13746">
        <ele>73.8</ele>
        <time>2020-06-30T16:26:39Z</time>
      </trkpt>
      <trkpt lat="49.04567" lon="4.13737">
        <ele>73.8</ele>
        <time>2020-06-30T16:26:40Z</time>
      </trkpt>
      <trkpt lat="49.04566" lon="4.13728">
        <ele>73.8</ele>
        <time>2020-06-30T16:26:41Z</time>
      </trkpt>
      <trkpt lat="49.04565" lon="4.13719">
        <ele>73.8</ele>
        <time>2020-06-30T16:26:42Z</time>
      </trkpt>
      <trkpt lat="49.04564" lon="4.13708">
        <ele>73.8</ele>
        <time>2020-06-30T16:26:43Z</time>
      </trkpt>
      <trkpt lat="49.04564" lon="4.13698">
        <ele>73.7</ele>
        <time>2020-06-30T16:26:44Z</time>
      </trkpt>
      <trkpt lat="49.04564" lon="4.13689">
        <ele>73.7</ele>
        <time>2020-06-30T16:26:45Z</time>
      </trkpt>
      <trkpt lat="49.04564" lon="4.1368">
        <ele>73.7</ele>
        <time>2020-06-30T16:26:46Z</time>
      </trkpt>
      <trkpt lat="49.04563" lon="4.13671">
        <ele>73.7</ele>
        <time>2020-06-30T16:26:47Z</time>
      </trkpt>
      <trkpt lat="49.04562" lon="4.13662">
        <ele>73.7</ele>
        <time>2020-06-30T16:26:48Z</time>
      </trkpt>
      <trkpt lat="49.04561" lon="4.13654">
        <ele>73.7</ele>
        <time>2020-06-30T16:26:49Z</time>
      </trkpt>
      <trkpt lat="49.04561" lon="4.13644">
        <ele>73.7</ele>
        <time>2020-06-30T16:26:50Z</time>
      </trkpt>
      <trkpt lat="49.0456" lon="4.13633">
        <ele>73.7</ele>
        <time>2020-06-30T16:26:51Z</time>
      </trkpt>
      <trkpt lat="49.04559" lon="4.13625">
        <ele>73.7</ele>
        <time>2020-06-30T16:26:52Z</time>
      </trkpt>
      <trkpt lat="49.04558" lon="4.13617">
        <ele>73.7</ele>
        <time>2020-06-30T16:26:53Z</time>
      </trkpt>
      <trkpt lat="49.04557" lon="4.13607">
        <ele>73.7</ele>
        <time>2020-06-30T16:26:54Z</time>
      </trkpt>
      <trkpt lat="49.04556" lon="4.13598">
        <ele>73.7</ele>
        <time>2020-06-30T16:26:55Z</time>
      </trkpt>
      <trkpt lat="49.04555" lon="4.13586">
        <ele>73.7</ele>
        <time>2020-06-30T16:26:56Z</time>
      </trkpt>
      <trkpt lat="49.04554" lon="4.13578">
        <ele>73.7</ele>
        <time>2020-06-30T16:26:57Z</time>
      </trkpt>
      <trkpt lat="49.04554" lon="4.1357">
        <ele>73.7</ele>
        <time>2020-06-30T16:26:58Z</time>
      </trkpt>
      <trkpt lat="49.04554" lon="4.1356">
        <ele>73.7</ele>
        <time>2020-06-30T16:26:59Z</time>
      </trkpt>
      <trkpt lat="49.04555" lon="4.13552">
        <ele>73.7</ele>
        <time>2020-06-30T16:27:00Z</time>
      </trkpt>
      <trkpt lat="49.04554" lon="4.13543">
        <ele>73.7</ele>
        <time>2020-06-30T16:27:01Z</time>
      </trkpt>
      <trkpt lat="49.04554" lon="4.13534">
        <ele>73.7</ele>
        <time>2020-06-30T16:27:02Z</time>
      </trkpt>
      <trkpt lat="49.04554" lon="4.13525">
        <ele>73.7</ele>
        <time>2020-06-30T16:27:03Z</time>
      </trkpt>
      <trkpt lat="49.04555" lon="4.13514">
        <ele>73.7</ele>
        <time>2020-06-30T16:27:04Z</time>
      </trkpt>
      <trkpt lat="49.04556" lon="4.13505">
        <ele>73.7</ele>
        <time>2020-06-30T16:27:05Z</time>
      </trkpt>
      <trkpt lat="49.04556" lon="4.13495">
        <ele>73.7</ele>
        <time>2020-06-30T16:27:06Z</time>
      </trkpt>
      <trkpt lat="49.04555" lon="4.13486">
        <ele>73.6</ele>
        <time>2020-06-30T16:27:07Z</time>
      </trkpt>
      <trkpt lat="49.04554" lon="4.13476">
        <ele>73.6</ele>
        <time>2020-06-30T16:27:08Z</time>
      </trkpt>
      <trkpt lat="49.04554" lon="4.13467">
        <ele>73.6</ele>
        <time>2020-06-30T16:27:09Z</time>
      </trkpt>
      <trkpt lat="49.04554" lon="4.13457">
        <ele>73.6</ele>
        <time>2020-06-30T16:27:10Z</time>
      </trkpt>
      <trkpt lat="49.04553" lon="4.13449">
        <ele>73.6</ele>
        <time>2020-06-30T16:27:11Z</time>
      </trkpt>
      <trkpt lat="49.04553" lon="4.13442">
        <ele>73.6</ele>
        <time>2020-06-30T16:27:12Z</time>
      </trkpt>
      <trkpt lat="49.04552" lon="4.13431">
        <ele>73.6</ele>
        <time>2020-06-30T16:27:13Z</time>
      </trkpt>
      <trkpt lat="49.04552" lon="4.13423">
        <ele>73.6</ele>
        <time>2020-06-30T16:27:14Z</time>
      </trkpt>
      <trkpt lat="49.04551" lon="4.13414">
        <ele>73.7</ele>
        <time>2020-06-30T16:27:15Z</time>
      </trkpt>
      <trkpt lat="49.04549" lon="4.13405">
        <ele>73.7</ele>
        <time>2020-06-30T16:27:16Z</time>
      </trkpt>
      <trkpt lat="49.04549" lon="4.13394">
        <ele>73.7</ele>
        <time>2020-06-30T16:27:17Z</time>
      </trkpt>
      <trkpt lat="49.04549" lon="4.13383">
        <ele>73.7</ele>
        <time>2020-06-30T16:27:18Z</time>
      </trkpt>
      <trkpt lat="49.04549" lon="4.13375">
        <ele>73.7</ele>
        <time>2020-06-30T16:27:19Z</time>
      </trkpt>
      <trkpt lat="49.04548" lon="4.13366">
        <ele>73.7</ele>
        <time>2020-06-30T16:27:20Z</time>
      </trkpt>
      <trkpt lat="49.04547" lon="4.13358">
        <ele>73.7</ele>
        <time>2020-06-30T16:27:21Z</time>
      </trkpt>
      <trkpt lat="49.04546" lon="4.13349">
        <ele>73.7</ele>
        <time>2020-06-30T16:27:22Z</time>
      </trkpt>
      <trkpt lat="49.04546" lon="4.13342">
        <ele>73.7</ele>
        <time>2020-06-30T16:27:23Z</time>
      </trkpt>
      <trkpt lat="49.04545" lon="4.13332">
        <ele>73.7</ele>
        <time>2020-06-30T16:27:24Z</time>
      </trkpt>
      <trkpt lat="49.04543" lon="4.13322">
        <ele>73.7</ele>
        <time>2020-06-30T16:27:25Z</time>
      </trkpt>
      <trkpt lat="49.04542" lon="4.13314">
        <ele>73.7</ele>
        <time>2020-06-30T16:27:26Z</time>
      </trkpt>
      <trkpt lat="49.04542" lon="4.13306">
        <ele>73.7</ele>
        <time>2020-06-30T16:27:27Z</time>
      </trkpt>
      <trkpt lat="49.0454" lon="4.13297">
        <ele>73.7</ele>
        <time>2020-06-30T16:27:28Z</time>
      </trkpt>
      <trkpt lat="49.0454" lon="4.13287">
        <ele>73.7</ele>
        <time>2020-06-30T16:27:29Z</time>
      </trkpt>
      <trkpt lat="49.0454" lon="4.13277">
        <ele>73.7</ele>
        <time>2020-06-30T16:27:30Z</time>
      </trkpt>
      <trkpt lat="49.0454" lon="4.13269">
        <ele>73.7</ele>
        <time>2020-06-30T16:27:31Z</time>
      </trkpt>
      <trkpt lat="49.04539" lon="4.1326">
        <ele>73.7</ele>
        <time>2020-06-30T16:27:32Z</time>
      </trkpt>
      <trkpt lat="49.04539" lon="4.1325">
        <ele>73.7</ele>
        <time>2020-06-30T16:27:33Z</time>
      </trkpt>
      <trkpt lat="49.04539" lon="4.13242">
        <ele>73.6</ele>
        <time>2020-06-30T16:27:34Z</time>
      </trkpt>
      <trkpt lat="49.04538" lon="4.13232">
        <ele>73.6</ele>
        <time>2020-06-30T16:27:35Z</time>
      </trkpt>
      <trkpt lat="49.04538" lon="4.13222">
        <ele>73.6</ele>
        <time>2020-06-30T16:27:36Z</time>
      </trkpt>
      <trkpt lat="49.04538" lon="4.13211">
        <ele>73.6</ele>
        <time>2020-06-30T16:27:37Z</time>
      </trkpt>
      <trkpt lat="49.04537" lon="4.13202">
        <ele>73.6</ele>
        <time>2020-06-30T16:27:38Z</time>
      </trkpt>
      <trkpt lat="49.04536" lon="4.13193">
        <ele>73.6</ele>
        <time>2020-06-30T16:27:39Z</time>
      </trkpt>
      <trkpt lat="49.04536" lon="4.13186">
        <ele>73.6</ele>
        <time>2020-06-30T16:27:40Z</time>
      </trkpt>
      <trkpt lat="49.04536" lon="4.13176">
        <ele>73.6</ele>
        <time>2020-06-30T16:27:41Z</time>
      </trkpt>
      <trkpt lat="49.04536" lon="4.13166">
        <ele>73.6</ele>
        <time>2020-06-30T16:27:42Z</time>
      </trkpt>
      <trkpt lat="49.04535" lon="4.13158">
        <ele>73.6</ele>
        <time>2020-06-30T16:27:43Z</time>
      </trkpt>
      <trkpt lat="49.04535" lon="4.13148">
        <ele>73.6</ele>
        <time>2020-06-30T16:27:44Z</time>
      </trkpt>
      <trkpt lat="49.04534" lon="4.13137">
        <ele>73.6</ele>
        <time>2020-06-30T16:27:45Z</time>
      </trkpt>
      <trkpt lat="49.04533" lon="4.13127">
        <ele>73.6</ele>
        <time>2020-06-30T16:27:46Z</time>
      </trkpt>
      <trkpt lat="49.04533" lon="4.13118">
        <ele>73.6</ele>
        <time>2020-06-30T16:27:47Z</time>
      </trkpt>
      <trkpt lat="49.04533" lon="4.13108">
        <ele>73.6</ele>
        <time>2020-06-30T16:27:48Z</time>
      </trkpt>
      <trkpt lat="49.04531" lon="4.131">
        <ele>73.6</ele>
        <time>2020-06-30T16:27:49Z</time>
      </trkpt>
      <trkpt lat="49.0453" lon="4.13092">
        <ele>73.7</ele>
        <time>2020-06-30T16:27:50Z</time>
      </trkpt>
      <trkpt lat="49.0453" lon="4.13083">
        <ele>73.7</ele>
        <time>2020-06-30T16:27:51Z</time>
      </trkpt>
      <trkpt lat="49.0453" lon="4.13073">
        <ele>73.7</ele>
        <time>2020-06-30T16:27:52Z</time>
      </trkpt>
      <trkpt lat="49.0453" lon="4.13063">
        <ele>73.7</ele>
        <time>2020-06-30T16:27:53Z</time>
      </trkpt>
      <trkpt lat="49.04529" lon="4.13053">
        <ele>73.8</ele>
        <time>2020-06-30T16:27:54Z</time>
      </trkpt>
      <trkpt lat="49.04528" lon="4.13044">
        <ele>73.8</ele>
        <time>2020-06-30T16:27:55Z</time>
      </trkpt>
      <trkpt lat="49.04528" lon="4.13037">
        <ele>73.8</ele>
        <time>2020-06-30T16:27:56Z</time>
      </trkpt>
      <trkpt lat="49.04527" lon="4.13027">
        <ele>73.8</ele>
        <time>2020-06-30T16:27:57Z</time>
      </trkpt>
      <trkpt lat="49.04527" lon="4.13017">
        <ele>73.8</ele>
        <time>2020-06-30T16:27:58Z</time>
      </trkpt>
      <trkpt lat="49.04526" lon="4.13007">
        <ele>73.8</ele>
        <time>2020-06-30T16:27:59Z</time>
      </trkpt>
      <trkpt lat="49.04525" lon="4.12997">
        <ele>73.8</ele>
        <time>2020-06-30T16:28:00Z</time>
      </trkpt>
      <trkpt lat="49.04525" lon="4.12989">
        <ele>73.8</ele>
        <time>2020-06-30T16:28:01Z</time>
      </trkpt>
      <trkpt lat="49.04524" lon="4.12981">
        <ele>73.8</ele>
        <time>2020-06-30T16:28:02Z</time>
      </trkpt>
      <trkpt lat="49.04525" lon="4.12972">
        <ele>73.8</ele>
        <time>2020-06-30T16:28:03Z</time>
      </trkpt>
      <trkpt lat="49.04525" lon="4.12963">
        <ele>73.8</ele>
        <time>2020-06-30T16:28:04Z</time>
      </trkpt>
      <trkpt lat="49.04525" lon="4.12953">
        <ele>73.7</ele>
        <time>2020-06-30T16:28:05Z</time>
      </trkpt>
      <trkpt lat="49.04524" lon="4.12943">
        <ele>73.7</ele>
        <time>2020-06-30T16:28:06Z</time>
      </trkpt>
      <trkpt lat="49.04524" lon="4.12935">
        <ele>73.7</ele>
        <time>2020-06-30T16:28:07Z</time>
      </trkpt>
      <trkpt lat="49.04525" lon="4.12924">
        <ele>73.7</ele>
        <time>2020-06-30T16:28:08Z</time>
      </trkpt>
      <trkpt lat="49.04527" lon="4.12913">
        <ele>73.7</ele>
        <time>2020-06-30T16:28:09Z</time>
      </trkpt>
      <trkpt lat="49.04529" lon="4.12903">
        <ele>73.7</ele>
        <time>2020-06-30T16:28:10Z</time>
      </trkpt>
      <trkpt lat="49.04529" lon="4.12893">
        <ele>73.6</ele>
        <time>2020-06-30T16:28:11Z</time>
      </trkpt>
      <trkpt lat="49.04531" lon="4.12884">
        <ele>73.6</ele>
        <time>2020-06-30T16:28:12Z</time>
      </trkpt>
      <trkpt lat="49.04532" lon="4.12874">
        <ele>73.6</ele>
        <time>2020-06-30T16:28:13Z</time>
      </trkpt>
      <trkpt lat="49.04532" lon="4.12864">
        <ele>73.6</ele>
        <time>2020-06-30T16:28:14Z</time>
      </trkpt>
      <trkpt lat="49.04534" lon="4.12854">
        <ele>73.6</ele>
        <time>2020-06-30T16:28:15Z</time>
      </trkpt>
      <trkpt lat="49.04537" lon="4.12845">
        <ele>73.6</ele>
        <time>2020-06-30T16:28:16Z</time>
      </trkpt>
      <trkpt lat="49.04539" lon="4.12837">
        <ele>73.7</ele>
        <time>2020-06-30T16:28:17Z</time>
      </trkpt>
      <trkpt lat="49.0454" lon="4.12828">
        <ele>73.7</ele>
        <time>2020-06-30T16:28:18Z</time>
      </trkpt>
      <trkpt lat="49.04539" lon="4.12819">
        <ele>73.7</ele>
        <time>2020-06-30T16:28:19Z</time>
      </trkpt>
      <trkpt lat="49.0454" lon="4.12809">
        <ele>73.7</ele>
        <time>2020-06-30T16:28:20Z</time>
      </trkpt>
      <trkpt lat="49.04541" lon="4.128">
        <ele>73.7</ele>
        <time>2020-06-30T16:28:21Z</time>
      </trkpt>
      <trkpt lat="49.04542" lon="4.1279">
        <ele>73.6</ele>
        <time>2020-06-30T16:28:22Z</time>
      </trkpt>
      <trkpt lat="49.04543" lon="4.12781">
        <ele>73.6</ele>
        <time>2020-06-30T16:28:23Z</time>
      </trkpt>
      <trkpt lat="49.04543" lon="4.12774">
        <ele>73.6</ele>
        <time>2020-06-30T16:28:24Z</time>
      </trkpt>
      <trkpt lat="49.04544" lon="4.12764">
        <ele>73.6</ele>
        <time>2020-06-30T16:28:25Z</time>
      </trkpt>
      <trkpt lat="49.04545" lon="4.12754">
        <ele>73.7</ele>
        <time>2020-06-30T16:28:26Z</time>
      </trkpt>
      <trkpt lat="49.04545" lon="4.12744">
        <ele>73.7</ele>
        <time>2020-06-30T16:28:27Z</time>
      </trkpt>
      <trkpt lat="49.04547" lon="4.12734">
        <ele>73.7</ele>
        <time>2020-06-30T16:28:28Z</time>
      </trkpt>
      <trkpt lat="49.04548" lon="4.12725">
        <ele>73.7</ele>
        <time>2020-06-30T16:28:29Z</time>
      </trkpt>
      <trkpt lat="49.04548" lon="4.12714">
        <ele>73.7</ele>
        <time>2020-06-30T16:28:30Z</time>
      </trkpt>
      <trkpt lat="49.04548" lon="4.12705">
        <ele>73.7</ele>
        <time>2020-06-30T16:28:31Z</time>
      </trkpt>
      <trkpt lat="49.04548" lon="4.12695">
        <ele>73.7</ele>
        <time>2020-06-30T16:28:32Z</time>
      </trkpt>
      <trkpt lat="49.04548" lon="4.12686">
        <ele>73.7</ele>
        <time>2020-06-30T16:28:33Z</time>
      </trkpt>
      <trkpt lat="49.04549" lon="4.12675">
        <ele>73.7</ele>
        <time>2020-06-30T16:28:34Z</time>
      </trkpt>
      <trkpt lat="49.0455" lon="4.12665">
        <ele>73.7</ele>
        <time>2020-06-30T16:28:35Z</time>
      </trkpt>
      <trkpt lat="49.04551" lon="4.12655">
        <ele>73.7</ele>
        <time>2020-06-30T16:28:36Z</time>
      </trkpt>
      <trkpt lat="49.04551" lon="4.12646">
        <ele>73.7</ele>
        <time>2020-06-30T16:28:37Z</time>
      </trkpt>
      <trkpt lat="49.04551" lon="4.12638">
        <ele>73.7</ele>
        <time>2020-06-30T16:28:38Z</time>
      </trkpt>
      <trkpt lat="49.04552" lon="4.12628">
        <ele>73.7</ele>
        <time>2020-06-30T16:28:39Z</time>
      </trkpt>
      <trkpt lat="49.04553" lon="4.12619">
        <ele>73.7</ele>
        <time>2020-06-30T16:28:40Z</time>
      </trkpt>
      <trkpt lat="49.04555" lon="4.1261">
        <ele>73.7</ele>
        <time>2020-06-30T16:28:41Z</time>
      </trkpt>
      <trkpt lat="49.04556" lon="4.12601">
        <ele>73.7</ele>
        <time>2020-06-30T16:28:42Z</time>
      </trkpt>
      <trkpt lat="49.04556" lon="4.12592">
        <ele>73.7</ele>
        <time>2020-06-30T16:28:43Z</time>
      </trkpt>
      <trkpt lat="49.04556" lon="4.12583">
        <ele>73.7</ele>
        <time>2020-06-30T16:28:44Z</time>
      </trkpt>
      <trkpt lat="49.04556" lon="4.12574">
        <ele>73.7</ele>
        <time>2020-06-30T16:28:45Z</time>
      </trkpt>
      <trkpt lat="49.04557" lon="4.12566">
        <ele>73.7</ele>
        <time>2020-06-30T16:28:46Z</time>
      </trkpt>
      <trkpt lat="49.04559" lon="4.12557">
        <ele>73.7</ele>
        <time>2020-06-30T16:28:47Z</time>
      </trkpt>
      <trkpt lat="49.04561" lon="4.12548">
        <ele>73.7</ele>
        <time>2020-06-30T16:28:48Z</time>
      </trkpt>
      <trkpt lat="49.04562" lon="4.1254">
        <ele>73.7</ele>
        <time>2020-06-30T16:28:49Z</time>
      </trkpt>
      <trkpt lat="49.04564" lon="4.1253">
        <ele>73.7</ele>
        <time>2020-06-30T16:28:50Z</time>
      </trkpt>
      <trkpt lat="49.04566" lon="4.1252">
        <ele>73.7</ele>
        <time>2020-06-30T16:28:51Z</time>
      </trkpt>
      <trkpt lat="49.04567" lon="4.12513">
        <ele>73.7</ele>
        <time>2020-06-30T16:28:52Z</time>
      </trkpt>
      <trkpt lat="49.04569" lon="4.12502">
        <ele>73.7</ele>
        <time>2020-06-30T16:28:53Z</time>
      </trkpt>
      <trkpt lat="49.04571" lon="4.12492">
        <ele>73.6</ele>
        <time>2020-06-30T16:28:54Z</time>
      </trkpt>
      <trkpt lat="49.04572" lon="4.12483">
        <ele>73.6</ele>
        <time>2020-06-30T16:28:55Z</time>
      </trkpt>
      <trkpt lat="49.04574" lon="4.12473">
        <ele>73.6</ele>
        <time>2020-06-30T16:28:56Z</time>
      </trkpt>
      <trkpt lat="49.04575" lon="4.12464">
        <ele>73.6</ele>
        <time>2020-06-30T16:28:57Z</time>
      </trkpt>
      <trkpt lat="49.04576" lon="4.12455">
        <ele>73.6</ele>
        <time>2020-06-30T16:28:58Z</time>
      </trkpt>
      <trkpt lat="49.04578" lon="4.12446">
        <ele>73.6</ele>
        <time>2020-06-30T16:28:59Z</time>
      </trkpt>
      <trkpt lat="49.04579" lon="4.12438">
        <ele>73.6</ele>
        <time>2020-06-30T16:29:00Z</time>
      </trkpt>
      <trkpt lat="49.0458" lon="4.12431">
        <ele>73.6</ele>
        <time>2020-06-30T16:29:01Z</time>
      </trkpt>
      <trkpt lat="49.04582" lon="4.12422">
        <ele>73.7</ele>
        <time>2020-06-30T16:29:02Z</time>
      </trkpt>
      <trkpt lat="49.04583" lon="4.12413">
        <ele>73.7</ele>
        <time>2020-06-30T16:29:03Z</time>
      </trkpt>
      <trkpt lat="49.04584" lon="4.12406">
        <ele>73.7</ele>
        <time>2020-06-30T16:29:04Z</time>
      </trkpt>
      <trkpt lat="49.04585" lon="4.12396">
        <ele>73.6</ele>
        <time>2020-06-30T16:29:05Z</time>
      </trkpt>
      <trkpt lat="49.04586" lon="4.12387">
        <ele>73.6</ele>
        <time>2020-06-30T16:29:06Z</time>
      </trkpt>
      <trkpt lat="49.04588" lon="4.12379">
        <ele>73.6</ele>
        <time>2020-06-30T16:29:07Z</time>
      </trkpt>
      <trkpt lat="49.0459" lon="4.12371">
        <ele>73.6</ele>
        <time>2020-06-30T16:29:08Z</time>
      </trkpt>
      <trkpt lat="49.04591" lon="4.12362">
        <ele>73.6</ele>
        <time>2020-06-30T16:29:09Z</time>
      </trkpt>
      <trkpt lat="49.04593" lon="4.12353">
        <ele>73.6</ele>
        <time>2020-06-30T16:29:10Z</time>
      </trkpt>
      <trkpt lat="49.04596" lon="4.12345">
        <ele>73.6</ele>
        <time>2020-06-30T16:29:11Z</time>
      </trkpt>
      <trkpt lat="49.04597" lon="4.12335">
        <ele>73.6</ele>
        <time>2020-06-30T16:29:12Z</time>
      </trkpt>
      <trkpt lat="49.04599" lon="4.12325">
        <ele>73.6</ele>
        <time>2020-06-30T16:29:13Z</time>
      </trkpt>
      <trkpt lat="49.04601" lon="4.12315">
        <ele>73.6</ele>
        <time>2020-06-30T16:29:14Z</time>
      </trkpt>
      <trkpt lat="49.04602" lon="4.12306">
        <ele>73.6</ele>
        <time>2020-06-30T16:29:15Z</time>
      </trkpt>
      <trkpt lat="49.04603" lon="4.12299">
        <ele>73.6</ele>
        <time>2020-06-30T16:29:16Z</time>
      </trkpt>
      <trkpt lat="49.04604" lon="4.12291">
        <ele>73.6</ele>
        <time>2020-06-30T16:29:17Z</time>
      </trkpt>
      <trkpt lat="49.04606" lon="4.12284">
        <ele>73.7</ele>
        <time>2020-06-30T16:29:18Z</time>
      </trkpt>
      <trkpt lat="49.04607" lon="4.12275">
        <ele>73.7</ele>
        <time>2020-06-30T16:29:19Z</time>
      </trkpt>
      <trkpt lat="49.04608" lon="4.12268">
        <ele>73.7</ele>
        <time>2020-06-30T16:29:20Z</time>
      </trkpt>
      <trkpt lat="49.0461" lon="4.1226">
        <ele>73.7</ele>
        <time>2020-06-30T16:29:21Z</time>
      </trkpt>
      <trkpt lat="49.04612" lon="4.12251">
        <ele>73.7</ele>
        <time>2020-06-30T16:29:22Z</time>
      </trkpt>
      <trkpt lat="49.04613" lon="4.12245">
        <ele>73.7</ele>
        <time>2020-06-30T16:29:23Z</time>
      </trkpt>
      <trkpt lat="49.04614" lon="4.12236">
        <ele>73.7</ele>
        <time>2020-06-30T16:29:24Z</time>
      </trkpt>
      <trkpt lat="49.04615" lon="4.12226">
        <ele>73.7</ele>
        <time>2020-06-30T16:29:25Z</time>
      </trkpt>
      <trkpt lat="49.04618" lon="4.12216">
        <ele>73.7</ele>
        <time>2020-06-30T16:29:26Z</time>
      </trkpt>
      <trkpt lat="49.0462" lon="4.12206">
        <ele>73.7</ele>
        <time>2020-06-30T16:29:27Z</time>
      </trkpt>
      <trkpt lat="49.04622" lon="4.12198">
        <ele>73.7</ele>
        <time>2020-06-30T16:29:28Z</time>
      </trkpt>
      <trkpt lat="49.04624" lon="4.12191">
        <ele>73.7</ele>
        <time>2020-06-30T16:29:29Z</time>
      </trkpt>
      <trkpt lat="49.04624" lon="4.12183">
        <ele>73.7</ele>
        <time>2020-06-30T16:29:30Z</time>
      </trkpt>
      <trkpt lat="49.04625" lon="4.12175">
        <ele>73.6</ele>
        <time>2020-06-30T16:29:31Z</time>
      </trkpt>
      <trkpt lat="49.04625" lon="4.12167">
        <ele>73.6</ele>
        <time>2020-06-30T16:29:32Z</time>
      </trkpt>
      <trkpt lat="49.04627" lon="4.12158">
        <ele>73.6</ele>
        <time>2020-06-30T16:29:33Z</time>
      </trkpt>
      <trkpt lat="49.04629" lon="4.1215">
        <ele>73.6</ele>
        <time>2020-06-30T16:29:34Z</time>
      </trkpt>
      <trkpt lat="49.0463" lon="4.12142">
        <ele>73.6</ele>
        <time>2020-06-30T16:29:35Z</time>
      </trkpt>
      <trkpt lat="49.04631" lon="4.12134">
        <ele>73.6</ele>
        <time>2020-06-30T16:29:36Z</time>
      </trkpt>
      <trkpt lat="49.04632" lon="4.12124">
        <ele>73.6</ele>
        <time>2020-06-30T16:29:37Z</time>
      </trkpt>
      <trkpt lat="49.04632" lon="4.12116">
        <ele>73.6</ele>
        <time>2020-06-30T16:29:38Z</time>
      </trkpt>
      <trkpt lat="49.04633" lon="4.12109">
        <ele>73.6</ele>
        <time>2020-06-30T16:29:39Z</time>
      </trkpt>
      <trkpt lat="49.04633" lon="4.12103">
        <ele>73.6</ele>
        <time>2020-06-30T16:29:40Z</time>
      </trkpt>
      <trkpt lat="49.04632" lon="4.12097">
        <ele>73.7</ele>
        <time>2020-06-30T16:29:41Z</time>
      </trkpt>
      <trkpt lat="49.04631" lon="4.1209">
        <ele>73.7</ele>
        <time>2020-06-30T16:29:42Z</time>
      </trkpt>
      <trkpt lat="49.0463" lon="4.12084">
        <ele>73.7</ele>
        <time>2020-06-30T16:29:43Z</time>
      </trkpt>
      <trkpt lat="49.04629" lon="4.12077">
        <ele>73.7</ele>
        <time>2020-06-30T16:29:44Z</time>
      </trkpt>
      <trkpt lat="49.04628" lon="4.1207">
        <ele>73.7</ele>
        <time>2020-06-30T16:29:45Z</time>
      </trkpt>
      <trkpt lat="49.04628" lon="4.12064">
        <ele>73.7</ele>
        <time>2020-06-30T16:29:46Z</time>
      </trkpt>
      <trkpt lat="49.04627" lon="4.12058">
        <ele>73.7</ele>
        <time>2020-06-30T16:29:47Z</time>
      </trkpt>
      <trkpt lat="49.04626" lon="4.12053">
        <ele>73.8</ele>
        <time>2020-06-30T16:29:48Z</time>
      </trkpt>
      <trkpt lat="49.04625" lon="4.12048">
        <ele>73.8</ele>
        <time>2020-06-30T16:29:49Z</time>
      </trkpt>
      <trkpt lat="49.04624" lon="4.12042">
        <ele>73.8</ele>
        <time>2020-06-30T16:29:50Z</time>
      </trkpt>
      <trkpt lat="49.04623" lon="4.1204">
        <ele>73.9</ele>
        <time>2020-06-30T16:29:51Z</time>
      </trkpt>
      <trkpt lat="49.04622" lon="4.12034">
        <ele>73.9</ele>
        <time>2020-06-30T16:29:52Z</time>
      </trkpt>
      <trkpt lat="49.04623" lon="4.12028">
        <ele>73.9</ele>
        <time>2020-06-30T16:29:53Z</time>
      </trkpt>
      <trkpt lat="49.04621" lon="4.12018">
        <ele>74</ele>
        <time>2020-06-30T16:29:54Z</time>
      </trkpt>
      <trkpt lat="49.0462" lon="4.12012">
        <ele>74.1</ele>
        <time>2020-06-30T16:29:55Z</time>
      </trkpt>
      <trkpt lat="49.04619" lon="4.12004">
        <ele>74.1</ele>
        <time>2020-06-30T16:29:56Z</time>
      </trkpt>
      <trkpt lat="49.04618" lon="4.12">
        <ele>74.2</ele>
        <time>2020-06-30T16:29:57Z</time>
      </trkpt>
      <trkpt lat="49.04618" lon="4.11994">
        <ele>74.3</ele>
        <time>2020-06-30T16:29:58Z</time>
      </trkpt>
      <trkpt lat="49.04617" lon="4.11991">
        <ele>74.3</ele>
        <time>2020-06-30T16:29:59Z</time>
      </trkpt>
      <trkpt lat="49.04617" lon="4.11987">
        <ele>74.5</ele>
        <time>2020-06-30T16:30:00Z</time>
      </trkpt>
      <trkpt lat="49.04617" lon="4.11983">
        <ele>74.5</ele>
        <time>2020-06-30T16:30:01Z</time>
      </trkpt>
      <trkpt lat="49.04617" lon="4.11981">
        <ele>74.5</ele>
        <time>2020-06-30T16:30:02Z</time>
      </trkpt>
      <trkpt lat="49.04617" lon="4.11982">
        <ele>74.5</ele>
        <time>2020-06-30T16:30:03Z</time>
      </trkpt>
      <trkpt lat="49.04617" lon="4.11982">
        <ele>74.5</ele>
        <time>2020-06-30T16:30:04Z</time>
      </trkpt>
      <trkpt lat="49.04617" lon="4.11981">
        <ele>74.5</ele>
        <time>2020-06-30T16:30:05Z</time>
      </trkpt>
      <trkpt lat="49.04616" lon="4.11981">
        <ele>74.5</ele>
        <time>2020-06-30T16:30:06Z</time>
      </trkpt>
      <trkpt lat="49.04616" lon="4.11981">
        <ele>74.5</ele>
        <time>2020-06-30T16:30:07Z</time>
      </trkpt>
      <trkpt lat="49.04616" lon="4.11982">
        <ele>74.5</ele>
        <time>2020-06-30T16:30:08Z</time>
      </trkpt>
      <trkpt lat="49.04617" lon="4.11982">
        <ele>74.5</ele>
        <time>2020-06-30T16:30:09Z</time>
      </trkpt>
      <trkpt lat="49.04617" lon="4.11983">
        <ele>74.5</ele>
        <time>2020-06-30T16:30:10Z</time>
      </trkpt>
      <trkpt lat="49.04617" lon="4.11983">
        <ele>74.5</ele>
        <time>2020-06-30T16:30:11Z</time>
      </trkpt>
      <trkpt lat="49.04617" lon="4.11983">
        <ele>74.6</ele>
        <time>2020-06-30T16:30:12Z</time>
      </trkpt>
      <trkpt lat="49.04616" lon="4.11974">
        <ele>74.7</ele>
        <time>2020-06-30T16:30:17Z</time>
      </trkpt>
      <trkpt lat="49.04614" lon="4.11973">
        <ele>74.8</ele>
        <time>2020-06-30T16:30:18Z</time>
      </trkpt>
      <trkpt lat="49.04613" lon="4.11969">
        <ele>74.9</ele>
        <time>2020-06-30T16:30:19Z</time>
      </trkpt>
      <trkpt lat="49.04613" lon="4.11968">
        <ele>74.9</ele>
        <time>2020-06-30T16:30:20Z</time>
      </trkpt>
      <trkpt lat="49.04614" lon="4.11964">
        <ele>75</ele>
        <time>2020-06-30T16:30:21Z</time>
      </trkpt>
      <trkpt lat="49.04614" lon="4.11959">
        <ele>75.1</ele>
        <time>2020-06-30T16:30:22Z</time>
      </trkpt>
      <trkpt lat="49.04613" lon="4.11956">
        <ele>75.2</ele>
        <time>2020-06-30T16:30:23Z</time>
      </trkpt>
      <trkpt lat="49.04612" lon="4.11954">
        <ele>75.2</ele>
        <time>2020-06-30T16:30:24Z</time>
      </trkpt>
      <trkpt lat="49.04613" lon="4.1195">
        <ele>75.3</ele>
        <time>2020-06-30T16:30:25Z</time>
      </trkpt>
      <trkpt lat="49.04613" lon="4.11948">
        <ele>75.4</ele>
        <time>2020-06-30T16:30:26Z</time>
      </trkpt>
      <trkpt lat="49.04613" lon="4.11943">
        <ele>75.5</ele>
        <time>2020-06-30T16:30:27Z</time>
      </trkpt>
      <trkpt lat="49.04614" lon="4.11938">
        <ele>75.6</ele>
        <time>2020-06-30T16:30:28Z</time>
      </trkpt>
      <trkpt lat="49.04614" lon="4.11937">
        <ele>75.7</ele>
        <time>2020-06-30T16:30:29Z</time>
      </trkpt>
      <trkpt lat="49.04615" lon="4.11936">
        <ele>75.7</ele>
        <time>2020-06-30T16:30:30Z</time>
      </trkpt>
      <trkpt lat="49.04617" lon="4.11934">
        <ele>75.9</ele>
        <time>2020-06-30T16:30:31Z</time>
      </trkpt>
      <trkpt lat="49.0462" lon="4.11932">
        <ele>76</ele>
        <time>2020-06-30T16:30:32Z</time>
      </trkpt>
      <trkpt lat="49.04621" lon="4.11931">
        <ele>76</ele>
        <time>2020-06-30T16:30:33Z</time>
      </trkpt>
      <trkpt lat="49.04624" lon="4.11931">
        <ele>76.1</ele>
        <time>2020-06-30T16:30:34Z</time>
      </trkpt>
      <trkpt lat="49.04628" lon="4.1193">
        <ele>76.1</ele>
        <time>2020-06-30T16:30:35Z</time>
      </trkpt>
      <trkpt lat="49.04631" lon="4.1193">
        <ele>76.2</ele>
        <time>2020-06-30T16:30:36Z</time>
      </trkpt>
      <trkpt lat="49.04633" lon="4.11931">
        <ele>76.2</ele>
        <time>2020-06-30T16:30:37Z</time>
      </trkpt>
      <trkpt lat="49.04635" lon="4.11931">
        <ele>76.2</ele>
        <time>2020-06-30T16:30:38Z</time>
      </trkpt>
      <trkpt lat="49.04636" lon="4.1193">
        <ele>76.2</ele>
        <time>2020-06-30T16:30:39Z</time>
      </trkpt>
      <trkpt lat="49.04637" lon="4.11929">
        <ele>76.2</ele>
        <time>2020-06-30T16:30:40Z</time>
      </trkpt>
      <trkpt lat="49.04638" lon="4.11929">
        <ele>76.2</ele>
        <time>2020-06-30T16:30:41Z</time>
      </trkpt>
      <trkpt lat="49.04638" lon="4.11928">
        <ele>76.2</ele>
        <time>2020-06-30T16:30:42Z</time>
      </trkpt>
      <trkpt lat="49.04639" lon="4.11927">
        <ele>76.2</ele>
        <time>2020-06-30T16:30:43Z</time>
      </trkpt>
      <trkpt lat="49.0464" lon="4.11927">
        <ele>76.2</ele>
        <time>2020-06-30T16:30:44Z</time>
      </trkpt>
      <trkpt lat="49.04642" lon="4.11928">
        <ele>76.1</ele>
        <time>2020-06-30T16:30:45Z</time>
      </trkpt>
      <trkpt lat="49.04642" lon="4.11928">
        <ele>76.1</ele>
        <time>2020-06-30T16:30:46Z</time>
      </trkpt>
      <trkpt lat="49.04643" lon="4.11929">
        <ele>76.1</ele>
        <time>2020-06-30T16:30:47Z</time>
      </trkpt>
      <trkpt lat="49.04643" lon="4.11931">
        <ele>76.1</ele>
        <time>2020-06-30T16:30:48Z</time>
      </trkpt>
      <trkpt lat="49.04643" lon="4.11932">
        <ele>76.1</ele>
        <time>2020-06-30T16:30:49Z</time>
      </trkpt>
      <trkpt lat="49.04644" lon="4.11933">
        <ele>76.1</ele>
        <time>2020-06-30T16:30:50Z</time>
      </trkpt>
      <trkpt lat="49.04644" lon="4.11933">
        <ele>76.1</ele>
        <time>2020-06-30T16:30:51Z</time>
      </trkpt>
      <trkpt lat="49.04644" lon="4.11933">
        <ele>76.1</ele>
        <time>2020-06-30T16:30:52Z</time>
      </trkpt>
      <trkpt lat="49.04644" lon="4.11933">
        <ele>76.1</ele>
        <time>2020-06-30T16:30:53Z</time>
      </trkpt>
      <trkpt lat="49.04644" lon="4.11933">
        <ele>76.1</ele>
        <time>2020-06-30T16:30:54Z</time>
      </trkpt>
      <trkpt lat="49.04644" lon="4.11933">
        <ele>76.1</ele>
        <time>2020-06-30T16:30:55Z</time>
      </trkpt>
      <trkpt lat="49.04644" lon="4.11933">
        <ele>76.1</ele>
        <time>2020-06-30T16:30:56Z</time>
      </trkpt>
      <trkpt lat="49.04645" lon="4.11933">
        <ele>76.1</ele>
        <time>2020-06-30T16:30:57Z</time>
      </trkpt>
      <trkpt lat="49.04645" lon="4.11933">
        <ele>76.1</ele>
        <time>2020-06-30T16:30:58Z</time>
      </trkpt>
      <trkpt lat="49.04645" lon="4.11933">
        <ele>76.1</ele>
        <time>2020-06-30T16:30:59Z</time>
      </trkpt>
      <trkpt lat="49.04645" lon="4.11933">
        <ele>76.1</ele>
        <time>2020-06-30T16:31:00Z</time>
      </trkpt>
      <trkpt lat="49.04645" lon="4.11943">
        <ele>75.7</ele>
        <time>2020-06-30T16:31:04Z</time>
      </trkpt>
      <trkpt lat="49.04644" lon="4.1195">
        <ele>75.7</ele>
        <time>2020-06-30T16:31:05Z</time>
      </trkpt>
      <trkpt lat="49.04643" lon="4.11956">
        <ele>75.6</ele>
        <time>2020-06-30T16:31:06Z</time>
      </trkpt>
      <trkpt lat="49.04643" lon="4.11965">
        <ele>75.5</ele>
        <time>2020-06-30T16:31:07Z</time>
      </trkpt>
      <trkpt lat="49.04643" lon="4.11971">
        <ele>75.5</ele>
        <time>2020-06-30T16:31:08Z</time>
      </trkpt>
      <trkpt lat="49.04642" lon="4.11977">
        <ele>75.4</ele>
        <time>2020-06-30T16:31:09Z</time>
      </trkpt>
      <trkpt lat="49.04642" lon="4.11981">
        <ele>75.4</ele>
        <time>2020-06-30T16:31:10Z</time>
      </trkpt>
      <trkpt lat="49.04642" lon="4.11982">
        <ele>75.4</ele>
        <time>2020-06-30T16:31:11Z</time>
      </trkpt>
      <trkpt lat="49.04645" lon="4.11981">
        <ele>75.4</ele>
        <time>2020-06-30T16:31:12Z</time>
      </trkpt>
      <trkpt lat="49.04645" lon="4.11978">
        <ele>75.3</ele>
        <time>2020-06-30T16:31:13Z</time>
      </trkpt>
      <trkpt lat="49.04644" lon="4.11976">
        <ele>75.3</ele>
        <time>2020-06-30T16:31:14Z</time>
      </trkpt>
      <trkpt lat="49.04644" lon="4.11971">
        <ele>75.3</ele>
        <time>2020-06-30T16:31:15Z</time>
      </trkpt>
      <trkpt lat="49.04644" lon="4.11965">
        <ele>75.2</ele>
        <time>2020-06-30T16:31:16Z</time>
      </trkpt>
      <trkpt lat="49.04644" lon="4.11958">
        <ele>75.4</ele>
        <time>2020-06-30T16:31:17Z</time>
      </trkpt>
      <trkpt lat="49.04642" lon="4.11952">
        <ele>75.5</ele>
        <time>2020-06-30T16:31:18Z</time>
      </trkpt>
      <trkpt lat="49.04642" lon="4.11946">
        <ele>75.6</ele>
        <time>2020-06-30T16:31:19Z</time>
      </trkpt>
      <trkpt lat="49.04641" lon="4.11941">
        <ele>75.8</ele>
        <time>2020-06-30T16:31:20Z</time>
      </trkpt>
      <trkpt lat="49.0464" lon="4.11936">
        <ele>75.9</ele>
        <time>2020-06-30T16:31:21Z</time>
      </trkpt>
      <trkpt lat="49.04641" lon="4.11932">
        <ele>76</ele>
        <time>2020-06-30T16:31:22Z</time>
      </trkpt>
      <trkpt lat="49.04641" lon="4.1193">
        <ele>76</ele>
        <time>2020-06-30T16:31:23Z</time>
      </trkpt>
      <trkpt lat="49.04641" lon="4.11923">
        <ele>76</ele>
        <time>2020-06-30T16:31:24Z</time>
      </trkpt>
      <trkpt lat="49.04641" lon="4.1192">
        <ele>76</ele>
        <time>2020-06-30T16:31:25Z</time>
      </trkpt>
      <trkpt lat="49.04642" lon="4.11914">
        <ele>75.8</ele>
        <time>2020-06-30T16:31:26Z</time>
      </trkpt>
      <trkpt lat="49.04642" lon="4.11907">
        <ele>75.7</ele>
        <time>2020-06-30T16:31:27Z</time>
      </trkpt>
      <trkpt lat="49.04642" lon="4.11903">
        <ele>75.6</ele>
        <time>2020-06-30T16:31:28Z</time>
      </trkpt>
      <trkpt lat="49.04642" lon="4.11896">
        <ele>75.4</ele>
        <time>2020-06-30T16:31:29Z</time>
      </trkpt>
      <trkpt lat="49.04643" lon="4.1189">
        <ele>75.2</ele>
        <time>2020-06-30T16:31:30Z</time>
      </trkpt>
      <trkpt lat="49.04644" lon="4.11883">
        <ele>75.1</ele>
        <time>2020-06-30T16:31:31Z</time>
      </trkpt>
      <trkpt lat="49.04645" lon="4.11878">
        <ele>75</ele>
        <time>2020-06-30T16:31:32Z</time>
      </trkpt>
      <trkpt lat="49.04647" lon="4.11872">
        <ele>74.9</ele>
        <time>2020-06-30T16:31:33Z</time>
      </trkpt>
      <trkpt lat="49.04648" lon="4.11865">
        <ele>75</ele>
        <time>2020-06-30T16:31:34Z</time>
      </trkpt>
      <trkpt lat="49.04651" lon="4.11857">
        <ele>75.2</ele>
        <time>2020-06-30T16:31:35Z</time>
      </trkpt>
      <trkpt lat="49.04652" lon="4.11849">
        <ele>75.3</ele>
        <time>2020-06-30T16:31:36Z</time>
      </trkpt>
      <trkpt lat="49.04653" lon="4.11842">
        <ele>75.5</ele>
        <time>2020-06-30T16:31:37Z</time>
      </trkpt>
      <trkpt lat="49.04654" lon="4.11834">
        <ele>75.7</ele>
        <time>2020-06-30T16:31:38Z</time>
      </trkpt>
      <trkpt lat="49.04656" lon="4.11825">
        <ele>76</ele>
        <time>2020-06-30T16:31:39Z</time>
      </trkpt>
      <trkpt lat="49.04657" lon="4.11816">
        <ele>76.2</ele>
        <time>2020-06-30T16:31:40Z</time>
      </trkpt>
      <trkpt lat="49.04658" lon="4.11808">
        <ele>76.5</ele>
        <time>2020-06-30T16:31:41Z</time>
      </trkpt>
      <trkpt lat="49.0466" lon="4.11801">
        <ele>76.8</ele>
        <time>2020-06-30T16:31:42Z</time>
      </trkpt>
      <trkpt lat="49.04662" lon="4.11795">
        <ele>77.1</ele>
        <time>2020-06-30T16:31:43Z</time>
      </trkpt>
      <trkpt lat="49.04664" lon="4.1179">
        <ele>77.3</ele>
        <time>2020-06-30T16:31:44Z</time>
      </trkpt>
      <trkpt lat="49.04668" lon="4.11784">
        <ele>77.6</ele>
        <time>2020-06-30T16:31:45Z</time>
      </trkpt>
      <trkpt lat="49.04671" lon="4.11779">
        <ele>77.9</ele>
        <time>2020-06-30T16:31:46Z</time>
      </trkpt>
      <trkpt lat="49.04674" lon="4.11775">
        <ele>78.1</ele>
        <time>2020-06-30T16:31:47Z</time>
      </trkpt>
      <trkpt lat="49.04677" lon="4.11772">
        <ele>78.3</ele>
        <time>2020-06-30T16:31:48Z</time>
      </trkpt>
      <trkpt lat="49.0468" lon="4.1177">
        <ele>78.6</ele>
        <time>2020-06-30T16:31:49Z</time>
      </trkpt>
      <trkpt lat="49.04683" lon="4.11768">
        <ele>78.8</ele>
        <time>2020-06-30T16:31:50Z</time>
      </trkpt>
      <trkpt lat="49.04687" lon="4.11766">
        <ele>79</ele>
        <time>2020-06-30T16:31:51Z</time>
      </trkpt>
      <trkpt lat="49.0469" lon="4.11765">
        <ele>79.2</ele>
        <time>2020-06-30T16:31:52Z</time>
      </trkpt>
      <trkpt lat="49.04694" lon="4.11763">
        <ele>79.5</ele>
        <time>2020-06-30T16:31:53Z</time>
      </trkpt>
      <trkpt lat="49.04698" lon="4.11763">
        <ele>79.7</ele>
        <time>2020-06-30T16:31:54Z</time>
      </trkpt>
      <trkpt lat="49.04701" lon="4.11762">
        <ele>79.9</ele>
        <time>2020-06-30T16:31:55Z</time>
      </trkpt>
      <trkpt lat="49.04705" lon="4.11761">
        <ele>80.1</ele>
        <time>2020-06-30T16:31:56Z</time>
      </trkpt>
      <trkpt lat="49.04708" lon="4.11761">
        <ele>80.2</ele>
        <time>2020-06-30T16:31:57Z</time>
      </trkpt>
      <trkpt lat="49.04712" lon="4.11761">
        <ele>80.4</ele>
        <time>2020-06-30T16:31:58Z</time>
      </trkpt>
      <trkpt lat="49.04716" lon="4.1176">
        <ele>80.6</ele>
        <time>2020-06-30T16:31:59Z</time>
      </trkpt>
      <trkpt lat="49.0472" lon="4.11759">
        <ele>80.7</ele>
        <time>2020-06-30T16:32:00Z</time>
      </trkpt>
      <trkpt lat="49.04723" lon="4.11759">
        <ele>80.8</ele>
        <time>2020-06-30T16:32:01Z</time>
      </trkpt>
      <trkpt lat="49.04726" lon="4.11759">
        <ele>80.9</ele>
        <time>2020-06-30T16:32:02Z</time>
      </trkpt>
      <trkpt lat="49.04728" lon="4.11758">
        <ele>80.9</ele>
        <time>2020-06-30T16:32:03Z</time>
      </trkpt>
      <trkpt lat="49.0473" lon="4.11758">
        <ele>80.9</ele>
        <time>2020-06-30T16:32:04Z</time>
      </trkpt>
      <trkpt lat="49.04732" lon="4.11757">
        <ele>80.9</ele>
        <time>2020-06-30T16:32:05Z</time>
      </trkpt>
      <trkpt lat="49.04733" lon="4.11757">
        <ele>80.9</ele>
        <time>2020-06-30T16:32:06Z</time>
      </trkpt>
      <trkpt lat="49.04736" lon="4.11756">
        <ele>80.9</ele>
        <time>2020-06-30T16:32:07Z</time>
      </trkpt>
      <trkpt lat="49.04737" lon="4.11755">
        <ele>80.9</ele>
        <time>2020-06-30T16:32:08Z</time>
      </trkpt>
      <trkpt lat="49.0474" lon="4.11755">
        <ele>80.9</ele>
        <time>2020-06-30T16:32:09Z</time>
      </trkpt>
      <trkpt lat="49.04742" lon="4.11757">
        <ele>81</ele>
        <time>2020-06-30T16:32:10Z</time>
      </trkpt>
      <trkpt lat="49.04746" lon="4.11757">
        <ele>81</ele>
        <time>2020-06-30T16:32:11Z</time>
      </trkpt>
      <trkpt lat="49.04748" lon="4.11756">
        <ele>81</ele>
        <time>2020-06-30T16:32:12Z</time>
      </trkpt>
      <trkpt lat="49.04752" lon="4.11757">
        <ele>81</ele>
        <time>2020-06-30T16:32:13Z</time>
      </trkpt>
      <trkpt lat="49.04756" lon="4.11757">
        <ele>81</ele>
        <time>2020-06-30T16:32:14Z</time>
      </trkpt>
      <trkpt lat="49.0476" lon="4.11756">
        <ele>81</ele>
        <time>2020-06-30T16:32:15Z</time>
      </trkpt>
      <trkpt lat="49.04763" lon="4.11756">
        <ele>81.1</ele>
        <time>2020-06-30T16:32:16Z</time>
      </trkpt>
      <trkpt lat="49.04766" lon="4.11755">
        <ele>81.1</ele>
        <time>2020-06-30T16:32:17Z</time>
      </trkpt>
      <trkpt lat="49.0477" lon="4.11755">
        <ele>81.1</ele>
        <time>2020-06-30T16:32:18Z</time>
      </trkpt>
      <trkpt lat="49.04773" lon="4.11754">
        <ele>81.1</ele>
        <time>2020-06-30T16:32:19Z</time>
      </trkpt>
      <trkpt lat="49.04777" lon="4.11754">
        <ele>81.1</ele>
        <time>2020-06-30T16:32:20Z</time>
      </trkpt>
      <trkpt lat="49.04781" lon="4.11752">
        <ele>81.1</ele>
        <time>2020-06-30T16:32:21Z</time>
      </trkpt>
      <trkpt lat="49.04785" lon="4.11751">
        <ele>81.1</ele>
        <time>2020-06-30T16:32:22Z</time>
      </trkpt>
      <trkpt lat="49.04791" lon="4.1175">
        <ele>81.1</ele>
        <time>2020-06-30T16:32:23Z</time>
      </trkpt>
      <trkpt lat="49.04795" lon="4.11749">
        <ele>81.1</ele>
        <time>2020-06-30T16:32:24Z</time>
      </trkpt>
      <trkpt lat="49.04802" lon="4.1175">
        <ele>81.1</ele>
        <time>2020-06-30T16:32:25Z</time>
      </trkpt>
      <trkpt lat="49.04808" lon="4.1175">
        <ele>81.1</ele>
        <time>2020-06-30T16:32:26Z</time>
      </trkpt>
      <trkpt lat="49.04814" lon="4.1175">
        <ele>81.1</ele>
        <time>2020-06-30T16:32:27Z</time>
      </trkpt>
      <trkpt lat="49.04822" lon="4.1175">
        <ele>81.1</ele>
        <time>2020-06-30T16:32:28Z</time>
      </trkpt>
      <trkpt lat="49.04827" lon="4.11748">
        <ele>81.1</ele>
        <time>2020-06-30T16:32:29Z</time>
      </trkpt>
      <trkpt lat="49.04832" lon="4.11747">
        <ele>81.1</ele>
        <time>2020-06-30T16:32:30Z</time>
      </trkpt>
      <trkpt lat="49.04838" lon="4.11747">
        <ele>81.1</ele>
        <time>2020-06-30T16:32:31Z</time>
      </trkpt>
      <trkpt lat="49.04844" lon="4.11747">
        <ele>81.1</ele>
        <time>2020-06-30T16:32:32Z</time>
      </trkpt>
      <trkpt lat="49.0485" lon="4.11747">
        <ele>81.1</ele>
        <time>2020-06-30T16:32:33Z</time>
      </trkpt>
      <trkpt lat="49.04856" lon="4.11746">
        <ele>81.1</ele>
        <time>2020-06-30T16:32:34Z</time>
      </trkpt>
      <trkpt lat="49.04862" lon="4.11749">
        <ele>81.1</ele>
        <time>2020-06-30T16:32:35Z</time>
      </trkpt>
      <trkpt lat="49.04869" lon="4.11748">
        <ele>81.2</ele>
        <time>2020-06-30T16:32:36Z</time>
      </trkpt>
      <trkpt lat="49.04875" lon="4.11747">
        <ele>81.1</ele>
        <time>2020-06-30T16:32:37Z</time>
      </trkpt>
      <trkpt lat="49.0488" lon="4.11747">
        <ele>81</ele>
        <time>2020-06-30T16:32:38Z</time>
      </trkpt>
      <trkpt lat="49.04885" lon="4.11746">
        <ele>80.9</ele>
        <time>2020-06-30T16:32:39Z</time>
      </trkpt>
      <trkpt lat="49.0489" lon="4.11745">
        <ele>80.8</ele>
        <time>2020-06-30T16:32:40Z</time>
      </trkpt>
      <trkpt lat="49.04895" lon="4.11745">
        <ele>80.8</ele>
        <time>2020-06-30T16:32:41Z</time>
      </trkpt>
      <trkpt lat="49.049" lon="4.11743">
        <ele>80.8</ele>
        <time>2020-06-30T16:32:42Z</time>
      </trkpt>
      <trkpt lat="49.04905" lon="4.11742">
        <ele>80.8</ele>
        <time>2020-06-30T16:32:43Z</time>
      </trkpt>
      <trkpt lat="49.0491" lon="4.11741">
        <ele>80.8</ele>
        <time>2020-06-30T16:32:44Z</time>
      </trkpt>
      <trkpt lat="49.04915" lon="4.1174">
        <ele>80.8</ele>
        <time>2020-06-30T16:32:45Z</time>
      </trkpt>
      <trkpt lat="49.04919" lon="4.11741">
        <ele>80.8</ele>
        <time>2020-06-30T16:32:46Z</time>
      </trkpt>
      <trkpt lat="49.04923" lon="4.11741">
        <ele>80.8</ele>
        <time>2020-06-30T16:32:47Z</time>
      </trkpt>
      <trkpt lat="49.04926" lon="4.1174">
        <ele>80.9</ele>
        <time>2020-06-30T16:32:48Z</time>
      </trkpt>
      <trkpt lat="49.04929" lon="4.11741">
        <ele>80.9</ele>
        <time>2020-06-30T16:32:49Z</time>
      </trkpt>
      <trkpt lat="49.04933" lon="4.1174">
        <ele>80.9</ele>
        <time>2020-06-30T16:32:50Z</time>
      </trkpt>
      <trkpt lat="49.04936" lon="4.1174">
        <ele>81</ele>
        <time>2020-06-30T16:32:51Z</time>
      </trkpt>
      <trkpt lat="49.0494" lon="4.11739">
        <ele>81</ele>
        <time>2020-06-30T16:32:52Z</time>
      </trkpt>
      <trkpt lat="49.04944" lon="4.11739">
        <ele>81.1</ele>
        <time>2020-06-30T16:32:53Z</time>
      </trkpt>
      <trkpt lat="49.04948" lon="4.11741">
        <ele>81.2</ele>
        <time>2020-06-30T16:32:54Z</time>
      </trkpt>
      <trkpt lat="49.04952" lon="4.11741">
        <ele>81.2</ele>
        <time>2020-06-30T16:32:55Z</time>
      </trkpt>
      <trkpt lat="49.04955" lon="4.11742">
        <ele>81.3</ele>
        <time>2020-06-30T16:32:56Z</time>
      </trkpt>
      <trkpt lat="49.04959" lon="4.11743">
        <ele>81.4</ele>
        <time>2020-06-30T16:32:57Z</time>
      </trkpt>
      <trkpt lat="49.04962" lon="4.11747">
        <ele>81.4</ele>
        <time>2020-06-30T16:32:58Z</time>
      </trkpt>
      <trkpt lat="49.04964" lon="4.1175">
        <ele>81.6</ele>
        <time>2020-06-30T16:32:59Z</time>
      </trkpt>
      <trkpt lat="49.04966" lon="4.11755">
        <ele>81.6</ele>
        <time>2020-06-30T16:33:00Z</time>
      </trkpt>
      <trkpt lat="49.04967" lon="4.11759">
        <ele>81.6</ele>
        <time>2020-06-30T16:33:01Z</time>
      </trkpt>
      <trkpt lat="49.04968" lon="4.11763">
        <ele>81.6</ele>
        <time>2020-06-30T16:33:02Z</time>
      </trkpt>
      <trkpt lat="49.04969" lon="4.11769">
        <ele>81.6</ele>
        <time>2020-06-30T16:33:03Z</time>
      </trkpt>
      <trkpt lat="49.0497" lon="4.11776">
        <ele>81.5</ele>
        <time>2020-06-30T16:33:04Z</time>
      </trkpt>
      <trkpt lat="49.0497" lon="4.11781">
        <ele>81.5</ele>
        <time>2020-06-30T16:33:05Z</time>
      </trkpt>
      <trkpt lat="49.04969" lon="4.11787">
        <ele>81.5</ele>
        <time>2020-06-30T16:33:06Z</time>
      </trkpt>
      <trkpt lat="49.04968" lon="4.11793">
        <ele>81.4</ele>
        <time>2020-06-30T16:33:07Z</time>
      </trkpt>
      <trkpt lat="49.04969" lon="4.118">
        <ele>81.4</ele>
        <time>2020-06-30T16:33:08Z</time>
      </trkpt>
      <trkpt lat="49.04968" lon="4.11805">
        <ele>81.3</ele>
        <time>2020-06-30T16:33:09Z</time>
      </trkpt>
      <trkpt lat="49.04967" lon="4.11812">
        <ele>81.3</ele>
        <time>2020-06-30T16:33:10Z</time>
      </trkpt>
      <trkpt lat="49.04966" lon="4.11818">
        <ele>81.2</ele>
        <time>2020-06-30T16:33:11Z</time>
      </trkpt>
      <trkpt lat="49.04966" lon="4.11825">
        <ele>81.2</ele>
        <time>2020-06-30T16:33:12Z</time>
      </trkpt>
      <trkpt lat="49.04967" lon="4.11834">
        <ele>81.2</ele>
        <time>2020-06-30T16:33:13Z</time>
      </trkpt>
      <trkpt lat="49.04967" lon="4.1184">
        <ele>81.1</ele>
        <time>2020-06-30T16:33:14Z</time>
      </trkpt>
      <trkpt lat="49.04967" lon="4.11847">
        <ele>81.1</ele>
        <time>2020-06-30T16:33:15Z</time>
      </trkpt>
      <trkpt lat="49.04968" lon="4.11854">
        <ele>81.1</ele>
        <time>2020-06-30T16:33:16Z</time>
      </trkpt>
      <trkpt lat="49.04968" lon="4.11863">
        <ele>81</ele>
        <time>2020-06-30T16:33:17Z</time>
      </trkpt>
      <trkpt lat="49.04967" lon="4.11871">
        <ele>80.9</ele>
        <time>2020-06-30T16:33:18Z</time>
      </trkpt>
      <trkpt lat="49.04968" lon="4.11877">
        <ele>80.7</ele>
        <time>2020-06-30T16:33:19Z</time>
      </trkpt>
      <trkpt lat="49.04968" lon="4.11881">
        <ele>80.7</ele>
        <time>2020-06-30T16:33:20Z</time>
      </trkpt>
      <trkpt lat="49.04969" lon="4.11888">
        <ele>80.5</ele>
        <time>2020-06-30T16:33:21Z</time>
      </trkpt>
      <trkpt lat="49.0497" lon="4.11895">
        <ele>80.4</ele>
        <time>2020-06-30T16:33:22Z</time>
      </trkpt>
      <trkpt lat="49.0497" lon="4.11903">
        <ele>80.3</ele>
        <time>2020-06-30T16:33:23Z</time>
      </trkpt>
      <trkpt lat="49.04971" lon="4.1191">
        <ele>80.1</ele>
        <time>2020-06-30T16:33:24Z</time>
      </trkpt>
      <trkpt lat="49.04972" lon="4.11916">
        <ele>80</ele>
        <time>2020-06-30T16:33:25Z</time>
      </trkpt>
      <trkpt lat="49.04973" lon="4.11923">
        <ele>79.9</ele>
        <time>2020-06-30T16:33:26Z</time>
      </trkpt>
      <trkpt lat="49.04975" lon="4.1193">
        <ele>79.8</ele>
        <time>2020-06-30T16:33:27Z</time>
      </trkpt>
      <trkpt lat="49.04975" lon="4.11937">
        <ele>79.7</ele>
        <time>2020-06-30T16:33:28Z</time>
      </trkpt>
      <trkpt lat="49.04976" lon="4.11944">
        <ele>79.6</ele>
        <time>2020-06-30T16:33:29Z</time>
      </trkpt>
      <trkpt lat="49.04978" lon="4.11951">
        <ele>79.5</ele>
        <time>2020-06-30T16:33:30Z</time>
      </trkpt>
      <trkpt lat="49.0498" lon="4.11959">
        <ele>79.4</ele>
        <time>2020-06-30T16:33:31Z</time>
      </trkpt>
      <trkpt lat="49.04981" lon="4.11965">
        <ele>79.2</ele>
        <time>2020-06-30T16:33:32Z</time>
      </trkpt>
      <trkpt lat="49.04983" lon="4.11972">
        <ele>79.2</ele>
        <time>2020-06-30T16:33:33Z</time>
      </trkpt>
      <trkpt lat="49.04985" lon="4.11978">
        <ele>79.2</ele>
        <time>2020-06-30T16:33:34Z</time>
      </trkpt>
      <trkpt lat="49.04986" lon="4.11985">
        <ele>79.2</ele>
        <time>2020-06-30T16:33:35Z</time>
      </trkpt>
      <trkpt lat="49.04988" lon="4.11992">
        <ele>79.1</ele>
        <time>2020-06-30T16:33:36Z</time>
      </trkpt>
      <trkpt lat="49.0499" lon="4.11997">
        <ele>79.1</ele>
        <time>2020-06-30T16:33:37Z</time>
      </trkpt>
      <trkpt lat="49.04992" lon="4.12003">
        <ele>79.1</ele>
        <time>2020-06-30T16:33:38Z</time>
      </trkpt>
      <trkpt lat="49.04994" lon="4.12007">
        <ele>79.1</ele>
        <time>2020-06-30T16:33:39Z</time>
      </trkpt>
      <trkpt lat="49.04994" lon="4.12009">
        <ele>79.1</ele>
        <time>2020-06-30T16:33:40Z</time>
      </trkpt>
      <trkpt lat="49.04994" lon="4.12011">
        <ele>79.1</ele>
        <time>2020-06-30T16:33:41Z</time>
      </trkpt>
      <trkpt lat="49.04993" lon="4.1201">
        <ele>79.1</ele>
        <time>2020-06-30T16:33:42Z</time>
      </trkpt>
      <trkpt lat="49.04993" lon="4.1201">
        <ele>79.1</ele>
        <time>2020-06-30T16:33:43Z</time>
      </trkpt>
      <trkpt lat="49.04993" lon="4.12009">
        <ele>79.1</ele>
        <time>2020-06-30T16:33:44Z</time>
      </trkpt>
      <trkpt lat="49.04993" lon="4.12007">
        <ele>79.1</ele>
        <time>2020-06-30T16:33:45Z</time>
      </trkpt>
      <trkpt lat="49.04992" lon="4.12007">
        <ele>79.1</ele>
        <time>2020-06-30T16:33:46Z</time>
      </trkpt>
      <trkpt lat="49.04991" lon="4.12007">
        <ele>79.1</ele>
        <time>2020-06-30T16:33:47Z</time>
      </trkpt>
      <trkpt lat="49.04991" lon="4.12006">
        <ele>79.1</ele>
        <time>2020-06-30T16:33:48Z</time>
      </trkpt>
      <trkpt lat="49.04991" lon="4.12004">
        <ele>79.1</ele>
        <time>2020-06-30T16:33:49Z</time>
      </trkpt>
      <trkpt lat="49.0499" lon="4.12002">
        <ele>79.2</ele>
        <time>2020-06-30T16:33:50Z</time>
      </trkpt>
      <trkpt lat="49.0499" lon="4.12">
        <ele>79.2</ele>
        <time>2020-06-30T16:33:51Z</time>
      </trkpt>
      <trkpt lat="49.0499" lon="4.11998">
        <ele>79.2</ele>
        <time>2020-06-30T16:33:52Z</time>
      </trkpt>
      <trkpt lat="49.04989" lon="4.11997">
        <ele>79.2</ele>
        <time>2020-06-30T16:33:53Z</time>
      </trkpt>
      <trkpt lat="49.04989" lon="4.11995">
        <ele>79.2</ele>
        <time>2020-06-30T16:33:54Z</time>
      </trkpt>
      <trkpt lat="49.04989" lon="4.11993">
        <ele>79.2</ele>
        <time>2020-06-30T16:33:55Z</time>
      </trkpt>
      <trkpt lat="49.04989" lon="4.11992">
        <ele>79.2</ele>
        <time>2020-06-30T16:33:56Z</time>
      </trkpt>
      <trkpt lat="49.0499" lon="4.11992">
        <ele>79.2</ele>
        <time>2020-06-30T16:33:57Z</time>
      </trkpt>
      <trkpt lat="49.0499" lon="4.11992">
        <ele>79.2</ele>
        <time>2020-06-30T16:33:58Z</time>
      </trkpt>
      <trkpt lat="49.04989" lon="4.11992">
        <ele>79.2</ele>
        <time>2020-06-30T16:33:59Z</time>
      </trkpt>
      <trkpt lat="49.04988" lon="4.11992">
        <ele>79.2</ele>
        <time>2020-06-30T16:34:00Z</time>
      </trkpt>
      <trkpt lat="49.04988" lon="4.11991">
        <ele>79.2</ele>
        <time>2020-06-30T16:34:01Z</time>
      </trkpt>
      <trkpt lat="49.04988" lon="4.11991">
        <ele>79.2</ele>
        <time>2020-06-30T16:34:02Z</time>
      </trkpt>
      <trkpt lat="49.04987" lon="4.11991">
        <ele>79.2</ele>
        <time>2020-06-30T16:34:03Z</time>
      </trkpt>
      <trkpt lat="49.04987" lon="4.11991">
        <ele>79.2</ele>
        <time>2020-06-30T16:34:04Z</time>
      </trkpt>
      <trkpt lat="49.04987" lon="4.11991">
        <ele>79.2</ele>
        <time>2020-06-30T16:34:05Z</time>
      </trkpt>
      <trkpt lat="49.04987" lon="4.11991">
        <ele>79.2</ele>
        <time>2020-06-30T16:34:06Z</time>
      </trkpt>
      <trkpt lat="49.04987" lon="4.11991">
        <ele>79.2</ele>
        <time>2020-06-30T16:34:07Z</time>
      </trkpt>
      <trkpt lat="49.04987" lon="4.11991">
        <ele>79.2</ele>
        <time>2020-06-30T16:34:08Z</time>
      </trkpt>
      <trkpt lat="49.04987" lon="4.11991">
        <ele>79.2</ele>
        <time>2020-06-30T16:34:09Z</time>
      </trkpt>
      <trkpt lat="49.04987" lon="4.1199">
        <ele>79.2</ele>
        <time>2020-06-30T16:34:10Z</time>
      </trkpt>
      <trkpt lat="49.04988" lon="4.1199">
        <ele>79.2</ele>
        <time>2020-06-30T16:34:11Z</time>
      </trkpt>
      <trkpt lat="49.04982" lon="4.1198">
        <ele>79.2</ele>
        <time>2020-06-30T16:56:38Z</time>
      </trkpt>
      <trkpt lat="49.04982" lon="4.11978">
        <ele>79.2</ele>
        <time>2020-06-30T16:56:39Z</time>
      </trkpt>
      <trkpt lat="49.04984" lon="4.11974">
        <ele>79.2</ele>
        <time>2020-06-30T16:56:40Z</time>
      </trkpt>
      <trkpt lat="49.04986" lon="4.11972">
        <ele>79.2</ele>
        <time>2020-06-30T16:56:41Z</time>
      </trkpt>
      <trkpt lat="49.04986" lon="4.11972">
        <ele>79.2</ele>
        <time>2020-06-30T16:56:42Z</time>
      </trkpt>
      <trkpt lat="49.04987" lon="4.1197">
        <ele>79.2</ele>
        <time>2020-06-30T16:56:43Z</time>
      </trkpt>
      <trkpt lat="49.04987" lon="4.11968">
        <ele>79.3</ele>
        <time>2020-06-30T16:56:44Z</time>
      </trkpt>
      <trkpt lat="49.04987" lon="4.11966">
        <ele>79.3</ele>
        <time>2020-06-30T16:56:45Z</time>
      </trkpt>
      <trkpt lat="49.04986" lon="4.11964">
        <ele>79.3</ele>
        <time>2020-06-30T16:56:46Z</time>
      </trkpt>
      <trkpt lat="49.04985" lon="4.11962">
        <ele>79.4</ele>
        <time>2020-06-30T16:56:47Z</time>
      </trkpt>
      <trkpt lat="49.04984" lon="4.1196">
        <ele>79.4</ele>
        <time>2020-06-30T16:56:48Z</time>
      </trkpt>
      <trkpt lat="49.04982" lon="4.11955">
        <ele>79.5</ele>
        <time>2020-06-30T16:56:49Z</time>
      </trkpt>
      <trkpt lat="49.04982" lon="4.11953">
        <ele>79.5</ele>
        <time>2020-06-30T16:56:50Z</time>
      </trkpt>
      <trkpt lat="49.04981" lon="4.11947">
        <ele>79.6</ele>
        <time>2020-06-30T16:56:51Z</time>
      </trkpt>
      <trkpt lat="49.0498" lon="4.11942">
        <ele>79.6</ele>
        <time>2020-06-30T16:56:52Z</time>
      </trkpt>
      <trkpt lat="49.0498" lon="4.11936">
        <ele>79.7</ele>
        <time>2020-06-30T16:56:53Z</time>
      </trkpt>
      <trkpt lat="49.04979" lon="4.11931">
        <ele>79.8</ele>
        <time>2020-06-30T16:56:54Z</time>
      </trkpt>
      <trkpt lat="49.04978" lon="4.11925">
        <ele>79.9</ele>
        <time>2020-06-30T16:56:55Z</time>
      </trkpt>
      <trkpt lat="49.04977" lon="4.1192">
        <ele>80</ele>
        <time>2020-06-30T16:56:56Z</time>
      </trkpt>
      <trkpt lat="49.04976" lon="4.11914">
        <ele>80.1</ele>
        <time>2020-06-30T16:56:57Z</time>
      </trkpt>
      <trkpt lat="49.04975" lon="4.11908">
        <ele>80.2</ele>
        <time>2020-06-30T16:56:58Z</time>
      </trkpt>
      <trkpt lat="49.04974" lon="4.11902">
        <ele>80.3</ele>
        <time>2020-06-30T16:56:59Z</time>
      </trkpt>
      <trkpt lat="49.04973" lon="4.11895">
        <ele>80.4</ele>
        <time>2020-06-30T16:57:00Z</time>
      </trkpt>
      <trkpt lat="49.04971" lon="4.11888">
        <ele>80.5</ele>
        <time>2020-06-30T16:57:01Z</time>
      </trkpt>
      <trkpt lat="49.0497" lon="4.11882">
        <ele>80.6</ele>
        <time>2020-06-30T16:57:02Z</time>
      </trkpt>
      <trkpt lat="49.04968" lon="4.11875">
        <ele>80.8</ele>
        <time>2020-06-30T16:57:03Z</time>
      </trkpt>
      <trkpt lat="49.04967" lon="4.1187">
        <ele>80.9</ele>
        <time>2020-06-30T16:57:04Z</time>
      </trkpt>
      <trkpt lat="49.04966" lon="4.11866">
        <ele>81</ele>
        <time>2020-06-30T16:57:05Z</time>
      </trkpt>
      <trkpt lat="49.04964" lon="4.11862">
        <ele>81.1</ele>
        <time>2020-06-30T16:57:06Z</time>
      </trkpt>
      <trkpt lat="49.0496" lon="4.1186">
        <ele>81.1</ele>
        <time>2020-06-30T16:57:07Z</time>
      </trkpt>
      <trkpt lat="49.04959" lon="4.11859">
        <ele>81.1</ele>
        <time>2020-06-30T16:57:08Z</time>
      </trkpt>
      <trkpt lat="49.04955" lon="4.1186">
        <ele>81</ele>
        <time>2020-06-30T16:57:09Z</time>
      </trkpt>
      <trkpt lat="49.04952" lon="4.1186">
        <ele>81</ele>
        <time>2020-06-30T16:57:10Z</time>
      </trkpt>
      <trkpt lat="49.04949" lon="4.11861">
        <ele>81</ele>
        <time>2020-06-30T16:57:11Z</time>
      </trkpt>
      <trkpt lat="49.04946" lon="4.11861">
        <ele>81</ele>
        <time>2020-06-30T16:57:12Z</time>
      </trkpt>
      <trkpt lat="49.04943" lon="4.11863">
        <ele>80.9</ele>
        <time>2020-06-30T16:57:13Z</time>
      </trkpt>
      <trkpt lat="49.04939" lon="4.11865">
        <ele>80.9</ele>
        <time>2020-06-30T16:57:14Z</time>
      </trkpt>
      <trkpt lat="49.04937" lon="4.11866">
        <ele>80.9</ele>
        <time>2020-06-30T16:57:15Z</time>
      </trkpt>
      <trkpt lat="49.04933" lon="4.11868">
        <ele>80.9</ele>
        <time>2020-06-30T16:57:16Z</time>
      </trkpt>
      <trkpt lat="49.04932" lon="4.11868">
        <ele>80.9</ele>
        <time>2020-06-30T16:57:17Z</time>
      </trkpt>
      <trkpt lat="49.04929" lon="4.11869">
        <ele>80.9</ele>
        <time>2020-06-30T16:57:18Z</time>
      </trkpt>
      <trkpt lat="49.04925" lon="4.11872">
        <ele>80.9</ele>
        <time>2020-06-30T16:57:19Z</time>
      </trkpt>
      <trkpt lat="49.04923" lon="4.11873">
        <ele>80.9</ele>
        <time>2020-06-30T16:57:20Z</time>
      </trkpt>
      <trkpt lat="49.0492" lon="4.11874">
        <ele>80.9</ele>
        <time>2020-06-30T16:57:21Z</time>
      </trkpt>
      <trkpt lat="49.04916" lon="4.11876">
        <ele>80.9</ele>
        <time>2020-06-30T16:57:22Z</time>
      </trkpt>
      <trkpt lat="49.04914" lon="4.11877">
        <ele>80.9</ele>
        <time>2020-06-30T16:57:23Z</time>
      </trkpt>
      <trkpt lat="49.0491" lon="4.11878">
        <ele>80.9</ele>
        <time>2020-06-30T16:57:24Z</time>
      </trkpt>
      <trkpt lat="49.04906" lon="4.11879">
        <ele>80.9</ele>
        <time>2020-06-30T16:57:25Z</time>
      </trkpt>
      <trkpt lat="49.04902" lon="4.11881">
        <ele>80.8</ele>
        <time>2020-06-30T16:57:26Z</time>
      </trkpt>
      <trkpt lat="49.04897" lon="4.11884">
        <ele>80.7</ele>
        <time>2020-06-30T16:57:27Z</time>
      </trkpt>
      <trkpt lat="49.04893" lon="4.11886">
        <ele>80.7</ele>
        <time>2020-06-30T16:57:28Z</time>
      </trkpt>
      <trkpt lat="49.04889" lon="4.11887">
        <ele>80.6</ele>
        <time>2020-06-30T16:57:29Z</time>
      </trkpt>
      <trkpt lat="49.04885" lon="4.11888">
        <ele>80.5</ele>
        <time>2020-06-30T16:57:30Z</time>
      </trkpt>
      <trkpt lat="49.04882" lon="4.11889">
        <ele>80.4</ele>
        <time>2020-06-30T16:57:31Z</time>
      </trkpt>
      <trkpt lat="49.04877" lon="4.11889">
        <ele>80.3</ele>
        <time>2020-06-30T16:57:32Z</time>
      </trkpt>
      <trkpt lat="49.04873" lon="4.11889">
        <ele>80.3</ele>
        <time>2020-06-30T16:57:33Z</time>
      </trkpt>
      <trkpt lat="49.04869" lon="4.11889">
        <ele>80.2</ele>
        <time>2020-06-30T16:57:34Z</time>
      </trkpt>
      <trkpt lat="49.04864" lon="4.1189">
        <ele>80.1</ele>
        <time>2020-06-30T16:57:35Z</time>
      </trkpt>
      <trkpt lat="49.0486" lon="4.1189">
        <ele>80</ele>
        <time>2020-06-30T16:57:36Z</time>
      </trkpt>
      <trkpt lat="49.04855" lon="4.1189">
        <ele>81</ele>
        <time>2020-06-30T16:57:37Z</time>
      </trkpt>
      <trkpt lat="49.04852" lon="4.11892">
        <ele>81.3</ele>
        <time>2020-06-30T16:57:38Z</time>
      </trkpt>
      <trkpt lat="49.04849" lon="4.11892">
        <ele>81.6</ele>
        <time>2020-06-30T16:57:39Z</time>
      </trkpt>
      <trkpt lat="49.04845" lon="4.11893">
        <ele>82.1</ele>
        <time>2020-06-30T16:57:40Z</time>
      </trkpt>
      <trkpt lat="49.04844" lon="4.11893">
        <ele>82.1</ele>
        <time>2020-06-30T16:57:41Z</time>
      </trkpt>
      <trkpt lat="49.04843" lon="4.11892">
        <ele>82.1</ele>
        <time>2020-06-30T16:57:42Z</time>
      </trkpt>
      <trkpt lat="49.04843" lon="4.11889">
        <ele>82.1</ele>
        <time>2020-06-30T16:57:43Z</time>
      </trkpt>
      <trkpt lat="49.04842" lon="4.11884">
        <ele>82.1</ele>
        <time>2020-06-30T16:57:44Z</time>
      </trkpt>
      <trkpt lat="49.04842" lon="4.11883">
        <ele>82.1</ele>
        <time>2020-06-30T16:57:45Z</time>
      </trkpt>
      <trkpt lat="49.04841" lon="4.11878">
        <ele>82.1</ele>
        <time>2020-06-30T16:57:46Z</time>
      </trkpt>
      <trkpt lat="49.04841" lon="4.11877">
        <ele>82.1</ele>
        <time>2020-06-30T16:57:47Z</time>
      </trkpt>
      <trkpt lat="49.04838" lon="4.11875">
        <ele>82</ele>
        <time>2020-06-30T16:57:48Z</time>
      </trkpt>
      <trkpt lat="49.04837" lon="4.11875">
        <ele>82</ele>
        <time>2020-06-30T16:57:49Z</time>
      </trkpt>
      <trkpt lat="49.04834" lon="4.11876">
        <ele>81.9</ele>
        <time>2020-06-30T16:57:50Z</time>
      </trkpt>
      <trkpt lat="49.04832" lon="4.11877">
        <ele>81.9</ele>
        <time>2020-06-30T16:57:51Z</time>
      </trkpt>
      <trkpt lat="49.04829" lon="4.11877">
        <ele>81.8</ele>
        <time>2020-06-30T16:57:52Z</time>
      </trkpt>
      <trkpt lat="49.04826" lon="4.11878">
        <ele>81.8</ele>
        <time>2020-06-30T16:57:53Z</time>
      </trkpt>
      <trkpt lat="49.04823" lon="4.11879">
        <ele>81.7</ele>
        <time>2020-06-30T16:57:54Z</time>
      </trkpt>
      <trkpt lat="49.04819" lon="4.11881">
        <ele>81.6</ele>
        <time>2020-06-30T16:57:55Z</time>
      </trkpt>
      <trkpt lat="49.04816" lon="4.11882">
        <ele>81.5</ele>
        <time>2020-06-30T16:57:56Z</time>
      </trkpt>
      <trkpt lat="49.04812" lon="4.11882">
        <ele>81.4</ele>
        <time>2020-06-30T16:57:57Z</time>
      </trkpt>
      <trkpt lat="49.04809" lon="4.11882">
        <ele>81.4</ele>
        <time>2020-06-30T16:57:58Z</time>
      </trkpt>
      <trkpt lat="49.04805" lon="4.11884">
        <ele>81.3</ele>
        <time>2020-06-30T16:57:59Z</time>
      </trkpt>
      <trkpt lat="49.04801" lon="4.11886">
        <ele>81.2</ele>
        <time>2020-06-30T16:58:00Z</time>
      </trkpt>
      <trkpt lat="49.04798" lon="4.11887">
        <ele>81.2</ele>
        <time>2020-06-30T16:58:01Z</time>
      </trkpt>
      <trkpt lat="49.04795" lon="4.11887">
        <ele>81.1</ele>
        <time>2020-06-30T16:58:02Z</time>
      </trkpt>
      <trkpt lat="49.04792" lon="4.11888">
        <ele>81.1</ele>
        <time>2020-06-30T16:58:03Z</time>
      </trkpt>
      <trkpt lat="49.04788" lon="4.11889">
        <ele>81</ele>
        <time>2020-06-30T16:58:04Z</time>
      </trkpt>
      <trkpt lat="49.04785" lon="4.11892">
        <ele>81</ele>
        <time>2020-06-30T16:58:05Z</time>
      </trkpt>
      <trkpt lat="49.04782" lon="4.11893">
        <ele>80.9</ele>
        <time>2020-06-30T16:58:06Z</time>
      </trkpt>
      <trkpt lat="49.04778" lon="4.11895">
        <ele>80.9</ele>
        <time>2020-06-30T16:58:07Z</time>
      </trkpt>
      <trkpt lat="49.04774" lon="4.11894">
        <ele>80.8</ele>
        <time>2020-06-30T16:58:08Z</time>
      </trkpt>
      <trkpt lat="49.0477" lon="4.11896">
        <ele>80.7</ele>
        <time>2020-06-30T16:58:09Z</time>
      </trkpt>
      <trkpt lat="49.04766" lon="4.11897">
        <ele>80.6</ele>
        <time>2020-06-30T16:58:10Z</time>
      </trkpt>
      <trkpt lat="49.04762" lon="4.11898">
        <ele>80.5</ele>
        <time>2020-06-30T16:58:11Z</time>
      </trkpt>
      <trkpt lat="49.04758" lon="4.11898">
        <ele>80.4</ele>
        <time>2020-06-30T16:58:12Z</time>
      </trkpt>
      <trkpt lat="49.04755" lon="4.11899">
        <ele>80.3</ele>
        <time>2020-06-30T16:58:13Z</time>
      </trkpt>
      <trkpt lat="49.0475" lon="4.11899">
        <ele>80.2</ele>
        <time>2020-06-30T16:58:14Z</time>
      </trkpt>
      <trkpt lat="49.04746" lon="4.11898">
        <ele>80.1</ele>
        <time>2020-06-30T16:58:15Z</time>
      </trkpt>
      <trkpt lat="49.04742" lon="4.11899">
        <ele>79.9</ele>
        <time>2020-06-30T16:58:16Z</time>
      </trkpt>
      <trkpt lat="49.04738" lon="4.11899">
        <ele>79.8</ele>
        <time>2020-06-30T16:58:17Z</time>
      </trkpt>
      <trkpt lat="49.04734" lon="4.119">
        <ele>79.6</ele>
        <time>2020-06-30T16:58:18Z</time>
      </trkpt>
      <trkpt lat="49.0473" lon="4.11902">
        <ele>79.5</ele>
        <time>2020-06-30T16:58:19Z</time>
      </trkpt>
      <trkpt lat="49.04729" lon="4.11906">
        <ele>79.4</ele>
        <time>2020-06-30T16:58:20Z</time>
      </trkpt>
      <trkpt lat="49.04726" lon="4.1191">
        <ele>79</ele>
        <time>2020-06-30T16:58:21Z</time>
      </trkpt>
      <trkpt lat="49.04722" lon="4.1191">
        <ele>78.8</ele>
        <time>2020-06-30T16:58:22Z</time>
      </trkpt>
      <trkpt lat="49.04721" lon="4.1191">
        <ele>78.8</ele>
        <time>2020-06-30T16:58:23Z</time>
      </trkpt>
      <trkpt lat="49.04718" lon="4.1191">
        <ele>78.7</ele>
        <time>2020-06-30T16:58:24Z</time>
      </trkpt>
      <trkpt lat="49.04715" lon="4.1191">
        <ele>78.6</ele>
        <time>2020-06-30T16:58:25Z</time>
      </trkpt>
      <trkpt lat="49.04714" lon="4.1191">
        <ele>78.6</ele>
        <time>2020-06-30T16:58:26Z</time>
      </trkpt>
      <trkpt lat="49.04711" lon="4.11909">
        <ele>78.5</ele>
        <time>2020-06-30T16:58:27Z</time>
      </trkpt>
      <trkpt lat="49.0471" lon="4.11909">
        <ele>78.5</ele>
        <time>2020-06-30T16:58:28Z</time>
      </trkpt>
      <trkpt lat="49.04706" lon="4.11907">
        <ele>78.4</ele>
        <time>2020-06-30T16:58:29Z</time>
      </trkpt>
      <trkpt lat="49.04705" lon="4.11906">
        <ele>78.4</ele>
        <time>2020-06-30T16:58:30Z</time>
      </trkpt>
      <trkpt lat="49.04702" lon="4.11904">
        <ele>78.3</ele>
        <time>2020-06-30T16:58:31Z</time>
      </trkpt>
      <trkpt lat="49.04699" lon="4.11903">
        <ele>78.2</ele>
        <time>2020-06-30T16:58:32Z</time>
      </trkpt>
      <trkpt lat="49.04696" lon="4.11903">
        <ele>78</ele>
        <time>2020-06-30T16:58:33Z</time>
      </trkpt>
      <trkpt lat="49.04693" lon="4.11903">
        <ele>77.9</ele>
        <time>2020-06-30T16:58:34Z</time>
      </trkpt>
      <trkpt lat="49.0469" lon="4.11901">
        <ele>77.9</ele>
        <time>2020-06-30T16:58:35Z</time>
      </trkpt>
      <trkpt lat="49.04686" lon="4.11901">
        <ele>77.9</ele>
        <time>2020-06-30T16:58:36Z</time>
      </trkpt>
      <trkpt lat="49.04685" lon="4.11901">
        <ele>77.9</ele>
        <time>2020-06-30T16:58:37Z</time>
      </trkpt>
      <trkpt lat="49.04682" lon="4.11898">
        <ele>77.8</ele>
        <time>2020-06-30T16:58:38Z</time>
      </trkpt>
      <trkpt lat="49.0468" lon="4.11897">
        <ele>77.8</ele>
        <time>2020-06-30T16:58:39Z</time>
      </trkpt>
      <trkpt lat="49.04677" lon="4.11896">
        <ele>77.7</ele>
        <time>2020-06-30T16:58:40Z</time>
      </trkpt>
      <trkpt lat="49.04673" lon="4.11895">
        <ele>77.5</ele>
        <time>2020-06-30T16:58:41Z</time>
      </trkpt>
      <trkpt lat="49.04669" lon="4.11894">
        <ele>77.4</ele>
        <time>2020-06-30T16:58:42Z</time>
      </trkpt>
      <trkpt lat="49.04666" lon="4.11894">
        <ele>77.2</ele>
        <time>2020-06-30T16:58:43Z</time>
      </trkpt>
      <trkpt lat="49.04662" lon="4.11893">
        <ele>77</ele>
        <time>2020-06-30T16:58:44Z</time>
      </trkpt>
      <trkpt lat="49.04658" lon="4.11892">
        <ele>76.7</ele>
        <time>2020-06-30T16:58:45Z</time>
      </trkpt>
      <trkpt lat="49.04656" lon="4.11891">
        <ele>76.6</ele>
        <time>2020-06-30T16:58:46Z</time>
      </trkpt>
      <trkpt lat="49.04653" lon="4.11891">
        <ele>76.3</ele>
        <time>2020-06-30T16:58:47Z</time>
      </trkpt>
      <trkpt lat="49.0465" lon="4.1189">
        <ele>76</ele>
        <time>2020-06-30T16:58:48Z</time>
      </trkpt>
      <trkpt lat="49.04648" lon="4.1189">
        <ele>75.9</ele>
        <time>2020-06-30T16:58:49Z</time>
      </trkpt>
      <trkpt lat="49.04647" lon="4.11889">
        <ele>75.2</ele>
        <time>2020-06-30T16:58:50Z</time>
      </trkpt>
      <trkpt lat="49.04646" lon="4.11889">
        <ele>75.3</ele>
        <time>2020-06-30T16:58:51Z</time>
      </trkpt>
      <trkpt lat="49.04645" lon="4.11889">
        <ele>75.3</ele>
        <time>2020-06-30T16:58:52Z</time>
      </trkpt>
      <trkpt lat="49.04644" lon="4.1189">
        <ele>75.3</ele>
        <time>2020-06-30T16:58:53Z</time>
      </trkpt>
      <trkpt lat="49.04644" lon="4.1189">
        <ele>75.3</ele>
        <time>2020-06-30T16:58:54Z</time>
      </trkpt>
      <trkpt lat="49.04643" lon="4.11888">
        <ele>75.3</ele>
        <time>2020-06-30T16:58:55Z</time>
      </trkpt>
      <trkpt lat="49.04643" lon="4.11887">
        <ele>75.4</ele>
        <time>2020-06-30T16:58:56Z</time>
      </trkpt>
      <trkpt lat="49.04643" lon="4.11886">
        <ele>75.4</ele>
        <time>2020-06-30T16:58:57Z</time>
      </trkpt>
      <trkpt lat="49.04642" lon="4.11886">
        <ele>75.4</ele>
        <time>2020-06-30T16:58:58Z</time>
      </trkpt>
      <trkpt lat="49.04642" lon="4.11886">
        <ele>75.4</ele>
        <time>2020-06-30T16:58:59Z</time>
      </trkpt>
      <trkpt lat="49.04641" lon="4.11886">
        <ele>75.4</ele>
        <time>2020-06-30T16:59:00Z</time>
      </trkpt>
      <trkpt lat="49.0464" lon="4.11887">
        <ele>75.4</ele>
        <time>2020-06-30T16:59:01Z</time>
      </trkpt>
      <trkpt lat="49.0464" lon="4.11887">
        <ele>75.4</ele>
        <time>2020-06-30T16:59:02Z</time>
      </trkpt>
      <trkpt lat="49.04639" lon="4.11888">
        <ele>75.5</ele>
        <time>2020-06-30T16:59:03Z</time>
      </trkpt>
      <trkpt lat="49.04639" lon="4.1189">
        <ele>75.5</ele>
        <time>2020-06-30T16:59:04Z</time>
      </trkpt>
      <trkpt lat="49.04639" lon="4.11891">
        <ele>75.5</ele>
        <time>2020-06-30T16:59:05Z</time>
      </trkpt>
      <trkpt lat="49.0464" lon="4.11896">
        <ele>75.6</ele>
        <time>2020-06-30T16:59:06Z</time>
      </trkpt>
      <trkpt lat="49.0464" lon="4.11897">
        <ele>75.6</ele>
        <time>2020-06-30T16:59:07Z</time>
      </trkpt>
      <trkpt lat="49.04641" lon="4.11902">
        <ele>75.7</ele>
        <time>2020-06-30T16:59:08Z</time>
      </trkpt>
      <trkpt lat="49.04642" lon="4.11904">
        <ele>75.7</ele>
        <time>2020-06-30T16:59:09Z</time>
      </trkpt>
      <trkpt lat="49.04641" lon="4.11907">
        <ele>75.7</ele>
        <time>2020-06-30T16:59:10Z</time>
      </trkpt>
      <trkpt lat="49.0464" lon="4.11908">
        <ele>75.7</ele>
        <time>2020-06-30T16:59:11Z</time>
      </trkpt>
      <trkpt lat="49.0464" lon="4.1191">
        <ele>75.8</ele>
        <time>2020-06-30T16:59:12Z</time>
      </trkpt>
      <trkpt lat="49.0464" lon="4.11912">
        <ele>75.8</ele>
        <time>2020-06-30T16:59:13Z</time>
      </trkpt>
      <trkpt lat="49.0464" lon="4.11916">
        <ele>76.1</ele>
        <time>2020-06-30T16:59:14Z</time>
      </trkpt>
      <trkpt lat="49.04639" lon="4.11921">
        <ele>76.1</ele>
        <time>2020-06-30T16:59:15Z</time>
      </trkpt>
      <trkpt lat="49.04638" lon="4.11923">
        <ele>76.1</ele>
        <time>2020-06-30T16:59:16Z</time>
      </trkpt>
      <trkpt lat="49.04637" lon="4.11925">
        <ele>76.2</ele>
        <time>2020-06-30T16:59:17Z</time>
      </trkpt>
      <trkpt lat="49.04635" lon="4.11926">
        <ele>76.2</ele>
        <time>2020-06-30T16:59:18Z</time>
      </trkpt>
      <trkpt lat="49.04632" lon="4.11928">
        <ele>76.2</ele>
        <time>2020-06-30T16:59:19Z</time>
      </trkpt>
      <trkpt lat="49.04629" lon="4.11929">
        <ele>76.2</ele>
        <time>2020-06-30T16:59:20Z</time>
      </trkpt>
      <trkpt lat="49.04628" lon="4.1193">
        <ele>76.2</ele>
        <time>2020-06-30T16:59:21Z</time>
      </trkpt>
      <trkpt lat="49.04625" lon="4.11929">
        <ele>76.1</ele>
        <time>2020-06-30T16:59:22Z</time>
      </trkpt>
      <trkpt lat="49.04623" lon="4.11929">
        <ele>76.1</ele>
        <time>2020-06-30T16:59:23Z</time>
      </trkpt>
      <trkpt lat="49.0462" lon="4.1193">
        <ele>76</ele>
        <time>2020-06-30T16:59:24Z</time>
      </trkpt>
      <trkpt lat="49.04619" lon="4.1193">
        <ele>76</ele>
        <time>2020-06-30T16:59:25Z</time>
      </trkpt>
      <trkpt lat="49.04616" lon="4.1193">
        <ele>75.9</ele>
        <time>2020-06-30T16:59:26Z</time>
      </trkpt>
      <trkpt lat="49.04614" lon="4.11927">
        <ele>75.9</ele>
        <time>2020-06-30T16:59:27Z</time>
      </trkpt>
      <trkpt lat="49.04612" lon="4.11923">
        <ele>75.5</ele>
        <time>2020-06-30T16:59:28Z</time>
      </trkpt>
      <trkpt lat="49.04612" lon="4.11917">
        <ele>75.4</ele>
        <time>2020-06-30T16:59:29Z</time>
      </trkpt>
      <trkpt lat="49.04611" lon="4.11912">
        <ele>75.3</ele>
        <time>2020-06-30T16:59:30Z</time>
      </trkpt>
      <trkpt lat="49.04611" lon="4.11907">
        <ele>75.1</ele>
        <time>2020-06-30T16:59:31Z</time>
      </trkpt>
      <trkpt lat="49.0461" lon="4.11901">
        <ele>75</ele>
        <time>2020-06-30T16:59:32Z</time>
      </trkpt>
      <trkpt lat="49.0461" lon="4.11896">
        <ele>74.8</ele>
        <time>2020-06-30T16:59:33Z</time>
      </trkpt>
      <trkpt lat="49.04609" lon="4.11889">
        <ele>74.7</ele>
        <time>2020-06-30T16:59:34Z</time>
      </trkpt>
      <trkpt lat="49.04608" lon="4.1188">
        <ele>74.5</ele>
        <time>2020-06-30T16:59:35Z</time>
      </trkpt>
      <trkpt lat="49.04607" lon="4.11872">
        <ele>74.3</ele>
        <time>2020-06-30T16:59:36Z</time>
      </trkpt>
      <trkpt lat="49.04607" lon="4.11862">
        <ele>74.2</ele>
        <time>2020-06-30T16:59:37Z</time>
      </trkpt>
      <trkpt lat="49.04608" lon="4.11851">
        <ele>74.1</ele>
        <time>2020-06-30T16:59:38Z</time>
      </trkpt>
      <trkpt lat="49.04608" lon="4.1184">
        <ele>74</ele>
        <time>2020-06-30T16:59:39Z</time>
      </trkpt>
      <trkpt lat="49.04608" lon="4.11829">
        <ele>74</ele>
        <time>2020-06-30T16:59:40Z</time>
      </trkpt>
      <trkpt lat="49.04608" lon="4.1182">
        <ele>73.9</ele>
        <time>2020-06-30T16:59:41Z</time>
      </trkpt>
      <trkpt lat="49.04608" lon="4.1181">
        <ele>73.9</ele>
        <time>2020-06-30T16:59:42Z</time>
      </trkpt>
      <trkpt lat="49.04608" lon="4.11803">
        <ele>74</ele>
        <time>2020-06-30T16:59:43Z</time>
      </trkpt>
      <trkpt lat="49.04607" lon="4.11794">
        <ele>74</ele>
        <time>2020-06-30T16:59:44Z</time>
      </trkpt>
      <trkpt lat="49.04606" lon="4.11783">
        <ele>74</ele>
        <time>2020-06-30T16:59:45Z</time>
      </trkpt>
      <trkpt lat="49.04605" lon="4.11774">
        <ele>73.9</ele>
        <time>2020-06-30T16:59:46Z</time>
      </trkpt>
      <trkpt lat="49.04604" lon="4.11767">
        <ele>73.9</ele>
        <time>2020-06-30T16:59:47Z</time>
      </trkpt>
      <trkpt lat="49.04603" lon="4.11759">
        <ele>73.9</ele>
        <time>2020-06-30T16:59:48Z</time>
      </trkpt>
      <trkpt lat="49.04602" lon="4.11748">
        <ele>73.9</ele>
        <time>2020-06-30T16:59:49Z</time>
      </trkpt>
      <trkpt lat="49.04601" lon="4.1174">
        <ele>73.9</ele>
        <time>2020-06-30T16:59:50Z</time>
      </trkpt>
      <trkpt lat="49.04599" lon="4.1173">
        <ele>73.9</ele>
        <time>2020-06-30T16:59:51Z</time>
      </trkpt>
      <trkpt lat="49.04598" lon="4.11721">
        <ele>73.9</ele>
        <time>2020-06-30T16:59:52Z</time>
      </trkpt>
      <trkpt lat="49.04598" lon="4.11713">
        <ele>73.9</ele>
        <time>2020-06-30T16:59:53Z</time>
      </trkpt>
      <trkpt lat="49.04597" lon="4.11706">
        <ele>73.9</ele>
        <time>2020-06-30T16:59:54Z</time>
      </trkpt>
      <trkpt lat="49.04595" lon="4.117">
        <ele>73.9</ele>
        <time>2020-06-30T16:59:55Z</time>
      </trkpt>
      <trkpt lat="49.04594" lon="4.11692">
        <ele>73.9</ele>
        <time>2020-06-30T16:59:56Z</time>
      </trkpt>
      <trkpt lat="49.04594" lon="4.11683">
        <ele>73.9</ele>
        <time>2020-06-30T16:59:57Z</time>
      </trkpt>
      <trkpt lat="49.04593" lon="4.11674">
        <ele>73.9</ele>
        <time>2020-06-30T16:59:58Z</time>
      </trkpt>
      <trkpt lat="49.04592" lon="4.11663">
        <ele>73.9</ele>
        <time>2020-06-30T16:59:59Z</time>
      </trkpt>
      <trkpt lat="49.04591" lon="4.11656">
        <ele>73.9</ele>
        <time>2020-06-30T17:00:00Z</time>
      </trkpt>
      <trkpt lat="49.04591" lon="4.11648">
        <ele>73.9</ele>
        <time>2020-06-30T17:00:01Z</time>
      </trkpt>
      <trkpt lat="49.0459" lon="4.11639">
        <ele>73.8</ele>
        <time>2020-06-30T17:00:02Z</time>
      </trkpt>
      <trkpt lat="49.0459" lon="4.11632">
        <ele>73.8</ele>
        <time>2020-06-30T17:00:03Z</time>
      </trkpt>
      <trkpt lat="49.04589" lon="4.11624">
        <ele>73.8</ele>
        <time>2020-06-30T17:00:04Z</time>
      </trkpt>
      <trkpt lat="49.04588" lon="4.11617">
        <ele>73.8</ele>
        <time>2020-06-30T17:00:05Z</time>
      </trkpt>
      <trkpt lat="49.04587" lon="4.11609">
        <ele>73.7</ele>
        <time>2020-06-30T17:00:06Z</time>
      </trkpt>
      <trkpt lat="49.04587" lon="4.11603">
        <ele>73.7</ele>
        <time>2020-06-30T17:00:07Z</time>
      </trkpt>
      <trkpt lat="49.04587" lon="4.11597">
        <ele>73.7</ele>
        <time>2020-06-30T17:00:08Z</time>
      </trkpt>
      <trkpt lat="49.04587" lon="4.11589">
        <ele>73.7</ele>
        <time>2020-06-30T17:00:09Z</time>
      </trkpt>
      <trkpt lat="49.04586" lon="4.11581">
        <ele>73.7</ele>
        <time>2020-06-30T17:00:10Z</time>
      </trkpt>
      <trkpt lat="49.04586" lon="4.11577">
        <ele>73.7</ele>
        <time>2020-06-30T17:00:11Z</time>
      </trkpt>
      <trkpt lat="49.04586" lon="4.11569">
        <ele>73.7</ele>
        <time>2020-06-30T17:00:12Z</time>
      </trkpt>
      <trkpt lat="49.04585" lon="4.11564">
        <ele>73.7</ele>
        <time>2020-06-30T17:00:13Z</time>
      </trkpt>
      <trkpt lat="49.04584" lon="4.11557">
        <ele>73.7</ele>
        <time>2020-06-30T17:00:14Z</time>
      </trkpt>
      <trkpt lat="49.04582" lon="4.11548">
        <ele>73.7</ele>
        <time>2020-06-30T17:00:15Z</time>
      </trkpt>
      <trkpt lat="49.04581" lon="4.11541">
        <ele>73.6</ele>
        <time>2020-06-30T17:00:16Z</time>
      </trkpt>
      <trkpt lat="49.0458" lon="4.11534">
        <ele>73.6</ele>
        <time>2020-06-30T17:00:17Z</time>
      </trkpt>
      <trkpt lat="49.04579" lon="4.11527">
        <ele>73.5</ele>
        <time>2020-06-30T17:00:18Z</time>
      </trkpt>
      <trkpt lat="49.04578" lon="4.11521">
        <ele>73.5</ele>
        <time>2020-06-30T17:00:19Z</time>
      </trkpt>
      <trkpt lat="49.04577" lon="4.11513">
        <ele>73.4</ele>
        <time>2020-06-30T17:00:20Z</time>
      </trkpt>
      <trkpt lat="49.04576" lon="4.11508">
        <ele>73.4</ele>
        <time>2020-06-30T17:00:21Z</time>
      </trkpt>
      <trkpt lat="49.04576" lon="4.115">
        <ele>73.3</ele>
        <time>2020-06-30T17:00:22Z</time>
      </trkpt>
      <trkpt lat="49.04576" lon="4.11497">
        <ele>73.3</ele>
        <time>2020-06-30T17:00:23Z</time>
      </trkpt>
      <trkpt lat="49.04576" lon="4.1149">
        <ele>73.3</ele>
        <time>2020-06-30T17:00:24Z</time>
      </trkpt>
      <trkpt lat="49.04575" lon="4.11484">
        <ele>73.2</ele>
        <time>2020-06-30T17:00:25Z</time>
      </trkpt>
      <trkpt lat="49.04575" lon="4.11479">
        <ele>73.2</ele>
        <time>2020-06-30T17:00:26Z</time>
      </trkpt>
      <trkpt lat="49.04574" lon="4.11472">
        <ele>73.2</ele>
        <time>2020-06-30T17:00:27Z</time>
      </trkpt>
      <trkpt lat="49.04574" lon="4.11466">
        <ele>73.1</ele>
        <time>2020-06-30T17:00:28Z</time>
      </trkpt>
      <trkpt lat="49.04574" lon="4.1146">
        <ele>73.1</ele>
        <time>2020-06-30T17:00:29Z</time>
      </trkpt>
      <trkpt lat="49.04573" lon="4.11453">
        <ele>73.1</ele>
        <time>2020-06-30T17:00:30Z</time>
      </trkpt>
      <trkpt lat="49.04572" lon="4.11445">
        <ele>73</ele>
        <time>2020-06-30T17:00:31Z</time>
      </trkpt>
      <trkpt lat="49.04571" lon="4.11437">
        <ele>73</ele>
        <time>2020-06-30T17:00:32Z</time>
      </trkpt>
      <trkpt lat="49.0457" lon="4.11431">
        <ele>73</ele>
        <time>2020-06-30T17:00:33Z</time>
      </trkpt>
      <trkpt lat="49.0457" lon="4.11422">
        <ele>73</ele>
        <time>2020-06-30T17:00:34Z</time>
      </trkpt>
      <trkpt lat="49.04568" lon="4.11416">
        <ele>73</ele>
        <time>2020-06-30T17:00:35Z</time>
      </trkpt>
      <trkpt lat="49.04567" lon="4.11408">
        <ele>72.9</ele>
        <time>2020-06-30T17:00:36Z</time>
      </trkpt>
      <trkpt lat="49.04565" lon="4.114">
        <ele>72.9</ele>
        <time>2020-06-30T17:00:37Z</time>
      </trkpt>
      <trkpt lat="49.04563" lon="4.11392">
        <ele>72.9</ele>
        <time>2020-06-30T17:00:38Z</time>
      </trkpt>
      <trkpt lat="49.04562" lon="4.11383">
        <ele>72.9</ele>
        <time>2020-06-30T17:00:39Z</time>
      </trkpt>
      <trkpt lat="49.04561" lon="4.11377">
        <ele>72.9</ele>
        <time>2020-06-30T17:00:40Z</time>
      </trkpt>
      <trkpt lat="49.04561" lon="4.11371">
        <ele>72.9</ele>
        <time>2020-06-30T17:00:41Z</time>
      </trkpt>
      <trkpt lat="49.0456" lon="4.11364">
        <ele>72.9</ele>
        <time>2020-06-30T17:00:42Z</time>
      </trkpt>
      <trkpt lat="49.0456" lon="4.11357">
        <ele>72.9</ele>
        <time>2020-06-30T17:00:43Z</time>
      </trkpt>
      <trkpt lat="49.04559" lon="4.1135">
        <ele>72.9</ele>
        <time>2020-06-30T17:00:44Z</time>
      </trkpt>
      <trkpt lat="49.04558" lon="4.11343">
        <ele>72.9</ele>
        <time>2020-06-30T17:00:45Z</time>
      </trkpt>
      <trkpt lat="49.04555" lon="4.11336">
        <ele>72.9</ele>
        <time>2020-06-30T17:00:46Z</time>
      </trkpt>
      <trkpt lat="49.04554" lon="4.11329">
        <ele>72.9</ele>
        <time>2020-06-30T17:00:47Z</time>
      </trkpt>
      <trkpt lat="49.04552" lon="4.11321">
        <ele>72.9</ele>
        <time>2020-06-30T17:00:48Z</time>
      </trkpt>
      <trkpt lat="49.04551" lon="4.11314">
        <ele>72.9</ele>
        <time>2020-06-30T17:00:49Z</time>
      </trkpt>
      <trkpt lat="49.0455" lon="4.11307">
        <ele>72.9</ele>
        <time>2020-06-30T17:00:50Z</time>
      </trkpt>
      <trkpt lat="49.04549" lon="4.113">
        <ele>72.9</ele>
        <time>2020-06-30T17:00:51Z</time>
      </trkpt>
      <trkpt lat="49.04549" lon="4.11293">
        <ele>72.9</ele>
        <time>2020-06-30T17:00:52Z</time>
      </trkpt>
      <trkpt lat="49.04548" lon="4.11286">
        <ele>72.9</ele>
        <time>2020-06-30T17:00:53Z</time>
      </trkpt>
      <trkpt lat="49.04548" lon="4.11277">
        <ele>72.9</ele>
        <time>2020-06-30T17:00:54Z</time>
      </trkpt>
      <trkpt lat="49.04547" lon="4.11269">
        <ele>72.9</ele>
        <time>2020-06-30T17:00:55Z</time>
      </trkpt>
      <trkpt lat="49.04546" lon="4.11261">
        <ele>72.9</ele>
        <time>2020-06-30T17:00:56Z</time>
      </trkpt>
      <trkpt lat="49.04545" lon="4.11254">
        <ele>72.9</ele>
        <time>2020-06-30T17:00:57Z</time>
      </trkpt>
      <trkpt lat="49.04544" lon="4.11248">
        <ele>72.9</ele>
        <time>2020-06-30T17:00:58Z</time>
      </trkpt>
      <trkpt lat="49.04542" lon="4.11243">
        <ele>72.9</ele>
        <time>2020-06-30T17:00:59Z</time>
      </trkpt>
      <trkpt lat="49.04541" lon="4.11236">
        <ele>72.9</ele>
        <time>2020-06-30T17:01:00Z</time>
      </trkpt>
      <trkpt lat="49.0454" lon="4.11228">
        <ele>72.9</ele>
        <time>2020-06-30T17:01:01Z</time>
      </trkpt>
      <trkpt lat="49.04538" lon="4.11221">
        <ele>72.9</ele>
        <time>2020-06-30T17:01:02Z</time>
      </trkpt>
      <trkpt lat="49.04537" lon="4.11212">
        <ele>72.9</ele>
        <time>2020-06-30T17:01:03Z</time>
      </trkpt>
      <trkpt lat="49.04535" lon="4.11204">
        <ele>73</ele>
        <time>2020-06-30T17:01:04Z</time>
      </trkpt>
      <trkpt lat="49.04535" lon="4.11196">
        <ele>73</ele>
        <time>2020-06-30T17:01:05Z</time>
      </trkpt>
      <trkpt lat="49.04534" lon="4.1119">
        <ele>73</ele>
        <time>2020-06-30T17:01:06Z</time>
      </trkpt>
      <trkpt lat="49.04534" lon="4.11184">
        <ele>73</ele>
        <time>2020-06-30T17:01:07Z</time>
      </trkpt>
      <trkpt lat="49.04534" lon="4.11177">
        <ele>73</ele>
        <time>2020-06-30T17:01:08Z</time>
      </trkpt>
      <trkpt lat="49.04533" lon="4.1117">
        <ele>73</ele>
        <time>2020-06-30T17:01:09Z</time>
      </trkpt>
      <trkpt lat="49.04532" lon="4.11161">
        <ele>73</ele>
        <time>2020-06-30T17:01:10Z</time>
      </trkpt>
      <trkpt lat="49.04532" lon="4.11153">
        <ele>73</ele>
        <time>2020-06-30T17:01:11Z</time>
      </trkpt>
      <trkpt lat="49.04532" lon="4.11145">
        <ele>73</ele>
        <time>2020-06-30T17:01:12Z</time>
      </trkpt>
      <trkpt lat="49.04531" lon="4.11137">
        <ele>72.9</ele>
        <time>2020-06-30T17:01:13Z</time>
      </trkpt>
      <trkpt lat="49.0453" lon="4.11131">
        <ele>72.9</ele>
        <time>2020-06-30T17:01:14Z</time>
      </trkpt>
      <trkpt lat="49.04528" lon="4.11123">
        <ele>72.9</ele>
        <time>2020-06-30T17:01:15Z</time>
      </trkpt>
      <trkpt lat="49.04527" lon="4.11115">
        <ele>72.9</ele>
        <time>2020-06-30T17:01:16Z</time>
      </trkpt>
      <trkpt lat="49.04527" lon="4.11108">
        <ele>73</ele>
        <time>2020-06-30T17:01:17Z</time>
      </trkpt>
      <trkpt lat="49.04526" lon="4.111">
        <ele>73</ele>
        <time>2020-06-30T17:01:18Z</time>
      </trkpt>
      <trkpt lat="49.04525" lon="4.11092">
        <ele>73</ele>
        <time>2020-06-30T17:01:19Z</time>
      </trkpt>
      <trkpt lat="49.04524" lon="4.11084">
        <ele>73</ele>
        <time>2020-06-30T17:01:20Z</time>
      </trkpt>
      <trkpt lat="49.04523" lon="4.11077">
        <ele>73.1</ele>
        <time>2020-06-30T17:01:21Z</time>
      </trkpt>
      <trkpt lat="49.04521" lon="4.11071">
        <ele>73.1</ele>
        <time>2020-06-30T17:01:22Z</time>
      </trkpt>
      <trkpt lat="49.04519" lon="4.11063">
        <ele>73.1</ele>
        <time>2020-06-30T17:01:23Z</time>
      </trkpt>
      <trkpt lat="49.04516" lon="4.11058">
        <ele>73.1</ele>
        <time>2020-06-30T17:01:24Z</time>
      </trkpt>
      <trkpt lat="49.04514" lon="4.11051">
        <ele>73.1</ele>
        <time>2020-06-30T17:01:25Z</time>
      </trkpt>
      <trkpt lat="49.04512" lon="4.11044">
        <ele>73.2</ele>
        <time>2020-06-30T17:01:26Z</time>
      </trkpt>
      <trkpt lat="49.04511" lon="4.11037">
        <ele>73.2</ele>
        <time>2020-06-30T17:01:27Z</time>
      </trkpt>
      <trkpt lat="49.04508" lon="4.11031">
        <ele>73.2</ele>
        <time>2020-06-30T17:01:28Z</time>
      </trkpt>
      <trkpt lat="49.04507" lon="4.11023">
        <ele>73.2</ele>
        <time>2020-06-30T17:01:29Z</time>
      </trkpt>
      <trkpt lat="49.04506" lon="4.11016">
        <ele>73.3</ele>
        <time>2020-06-30T17:01:30Z</time>
      </trkpt>
      <trkpt lat="49.04504" lon="4.1101">
        <ele>73.3</ele>
        <time>2020-06-30T17:01:31Z</time>
      </trkpt>
      <trkpt lat="49.04503" lon="4.11004">
        <ele>73.3</ele>
        <time>2020-06-30T17:01:32Z</time>
      </trkpt>
      <trkpt lat="49.04502" lon="4.10998">
        <ele>73.3</ele>
        <time>2020-06-30T17:01:33Z</time>
      </trkpt>
      <trkpt lat="49.045" lon="4.10992">
        <ele>73.3</ele>
        <time>2020-06-30T17:01:34Z</time>
      </trkpt>
      <trkpt lat="49.04498" lon="4.10986">
        <ele>73.3</ele>
        <time>2020-06-30T17:01:35Z</time>
      </trkpt>
      <trkpt lat="49.04496" lon="4.1098">
        <ele>73.2</ele>
        <time>2020-06-30T17:01:36Z</time>
      </trkpt>
      <trkpt lat="49.04495" lon="4.10976">
        <ele>73.2</ele>
        <time>2020-06-30T17:01:37Z</time>
      </trkpt>
      <trkpt lat="49.04494" lon="4.1097">
        <ele>73.2</ele>
        <time>2020-06-30T17:01:38Z</time>
      </trkpt>
      <trkpt lat="49.04493" lon="4.10962">
        <ele>73.2</ele>
        <time>2020-06-30T17:01:39Z</time>
      </trkpt>
      <trkpt lat="49.04491" lon="4.10953">
        <ele>73.2</ele>
        <time>2020-06-30T17:01:40Z</time>
      </trkpt>
      <trkpt lat="49.04489" lon="4.10944">
        <ele>73.2</ele>
        <time>2020-06-30T17:01:41Z</time>
      </trkpt>
      <trkpt lat="49.04486" lon="4.10936">
        <ele>73.2</ele>
        <time>2020-06-30T17:01:42Z</time>
      </trkpt>
      <trkpt lat="49.04484" lon="4.1093">
        <ele>73.2</ele>
        <time>2020-06-30T17:01:43Z</time>
      </trkpt>
      <trkpt lat="49.04482" lon="4.10923">
        <ele>73.2</ele>
        <time>2020-06-30T17:01:44Z</time>
      </trkpt>
      <trkpt lat="49.0448" lon="4.10915">
        <ele>73.3</ele>
        <time>2020-06-30T17:01:45Z</time>
      </trkpt>
      <trkpt lat="49.04478" lon="4.10907">
        <ele>73.3</ele>
        <time>2020-06-30T17:01:46Z</time>
      </trkpt>
      <trkpt lat="49.04476" lon="4.109">
        <ele>73.3</ele>
        <time>2020-06-30T17:01:47Z</time>
      </trkpt>
      <trkpt lat="49.04474" lon="4.10892">
        <ele>73.3</ele>
        <time>2020-06-30T17:01:48Z</time>
      </trkpt>
      <trkpt lat="49.04473" lon="4.10884">
        <ele>73.3</ele>
        <time>2020-06-30T17:01:49Z</time>
      </trkpt>
      <trkpt lat="49.04471" lon="4.10876">
        <ele>73.3</ele>
        <time>2020-06-30T17:01:50Z</time>
      </trkpt>
      <trkpt lat="49.04469" lon="4.1087">
        <ele>73.3</ele>
        <time>2020-06-30T17:01:51Z</time>
      </trkpt>
      <trkpt lat="49.04467" lon="4.10863">
        <ele>73.2</ele>
        <time>2020-06-30T17:01:52Z</time>
      </trkpt>
      <trkpt lat="49.04465" lon="4.10855">
        <ele>73.2</ele>
        <time>2020-06-30T17:01:53Z</time>
      </trkpt>
      <trkpt lat="49.04463" lon="4.10847">
        <ele>73.1</ele>
        <time>2020-06-30T17:01:54Z</time>
      </trkpt>
      <trkpt lat="49.04462" lon="4.10838">
        <ele>73</ele>
        <time>2020-06-30T17:01:55Z</time>
      </trkpt>
      <trkpt lat="49.0446" lon="4.1083">
        <ele>73</ele>
        <time>2020-06-30T17:01:56Z</time>
      </trkpt>
      <trkpt lat="49.04459" lon="4.10821">
        <ele>72.9</ele>
        <time>2020-06-30T17:01:57Z</time>
      </trkpt>
      <trkpt lat="49.04457" lon="4.10813">
        <ele>72.8</ele>
        <time>2020-06-30T17:01:58Z</time>
      </trkpt>
      <trkpt lat="49.04455" lon="4.10805">
        <ele>72.8</ele>
        <time>2020-06-30T17:01:59Z</time>
      </trkpt>
      <trkpt lat="49.04453" lon="4.10797">
        <ele>72.7</ele>
        <time>2020-06-30T17:02:00Z</time>
      </trkpt>
      <trkpt lat="49.04451" lon="4.1079">
        <ele>72.7</ele>
        <time>2020-06-30T17:02:01Z</time>
      </trkpt>
      <trkpt lat="49.0445" lon="4.10782">
        <ele>72.7</ele>
        <time>2020-06-30T17:02:02Z</time>
      </trkpt>
      <trkpt lat="49.04449" lon="4.10774">
        <ele>72.7</ele>
        <time>2020-06-30T17:02:03Z</time>
      </trkpt>
      <trkpt lat="49.04448" lon="4.10766">
        <ele>72.7</ele>
        <time>2020-06-30T17:02:04Z</time>
      </trkpt>
      <trkpt lat="49.04447" lon="4.10756">
        <ele>72.7</ele>
        <time>2020-06-30T17:02:05Z</time>
      </trkpt>
      <trkpt lat="49.04446" lon="4.10748">
        <ele>72.7</ele>
        <time>2020-06-30T17:02:06Z</time>
      </trkpt>
      <trkpt lat="49.04444" lon="4.1074">
        <ele>72.7</ele>
        <time>2020-06-30T17:02:07Z</time>
      </trkpt>
      <trkpt lat="49.04444" lon="4.10731">
        <ele>72.7</ele>
        <time>2020-06-30T17:02:08Z</time>
      </trkpt>
      <trkpt lat="49.04442" lon="4.10722">
        <ele>72.7</ele>
        <time>2020-06-30T17:02:09Z</time>
      </trkpt>
      <trkpt lat="49.04441" lon="4.10714">
        <ele>72.7</ele>
        <time>2020-06-30T17:02:10Z</time>
      </trkpt>
      <trkpt lat="49.04439" lon="4.10706">
        <ele>72.7</ele>
        <time>2020-06-30T17:02:11Z</time>
      </trkpt>
      <trkpt lat="49.04438" lon="4.10698">
        <ele>72.7</ele>
        <time>2020-06-30T17:02:12Z</time>
      </trkpt>
      <trkpt lat="49.04436" lon="4.1069">
        <ele>72.7</ele>
        <time>2020-06-30T17:02:13Z</time>
      </trkpt>
      <trkpt lat="49.04435" lon="4.10681">
        <ele>72.7</ele>
        <time>2020-06-30T17:02:14Z</time>
      </trkpt>
      <trkpt lat="49.04434" lon="4.10671">
        <ele>72.7</ele>
        <time>2020-06-30T17:02:15Z</time>
      </trkpt>
      <trkpt lat="49.04434" lon="4.10662">
        <ele>72.7</ele>
        <time>2020-06-30T17:02:16Z</time>
      </trkpt>
      <trkpt lat="49.04433" lon="4.10655">
        <ele>72.7</ele>
        <time>2020-06-30T17:02:17Z</time>
      </trkpt>
      <trkpt lat="49.04433" lon="4.10648">
        <ele>72.7</ele>
        <time>2020-06-30T17:02:18Z</time>
      </trkpt>
      <trkpt lat="49.04433" lon="4.1064">
        <ele>72.7</ele>
        <time>2020-06-30T17:02:19Z</time>
      </trkpt>
      <trkpt lat="49.04433" lon="4.10634">
        <ele>72.7</ele>
        <time>2020-06-30T17:02:20Z</time>
      </trkpt>
      <trkpt lat="49.04433" lon="4.10625">
        <ele>72.7</ele>
        <time>2020-06-30T17:02:21Z</time>
      </trkpt>
      <trkpt lat="49.04434" lon="4.10618">
        <ele>72.7</ele>
        <time>2020-06-30T17:02:22Z</time>
      </trkpt>
      <trkpt lat="49.04434" lon="4.1061">
        <ele>72.7</ele>
        <time>2020-06-30T17:02:23Z</time>
      </trkpt>
      <trkpt lat="49.04434" lon="4.10603">
        <ele>72.7</ele>
        <time>2020-06-30T17:02:24Z</time>
      </trkpt>
      <trkpt lat="49.04433" lon="4.10596">
        <ele>72.7</ele>
        <time>2020-06-30T17:02:25Z</time>
      </trkpt>
      <trkpt lat="49.04433" lon="4.1059">
        <ele>72.7</ele>
        <time>2020-06-30T17:02:26Z</time>
      </trkpt>
      <trkpt lat="49.04433" lon="4.10583">
        <ele>72.7</ele>
        <time>2020-06-30T17:02:27Z</time>
      </trkpt>
      <trkpt lat="49.04432" lon="4.10576">
        <ele>72.7</ele>
        <time>2020-06-30T17:02:28Z</time>
      </trkpt>
      <trkpt lat="49.04432" lon="4.10567">
        <ele>72.7</ele>
        <time>2020-06-30T17:02:29Z</time>
      </trkpt>
      <trkpt lat="49.04432" lon="4.10559">
        <ele>72.7</ele>
        <time>2020-06-30T17:02:30Z</time>
      </trkpt>
      <trkpt lat="49.04432" lon="4.10551">
        <ele>72.7</ele>
        <time>2020-06-30T17:02:31Z</time>
      </trkpt>
      <trkpt lat="49.04433" lon="4.10542">
        <ele>72.6</ele>
        <time>2020-06-30T17:02:32Z</time>
      </trkpt>
      <trkpt lat="49.04434" lon="4.10533">
        <ele>72.6</ele>
        <time>2020-06-30T17:02:33Z</time>
      </trkpt>
      <trkpt lat="49.04434" lon="4.10524">
        <ele>72.6</ele>
        <time>2020-06-30T17:02:34Z</time>
      </trkpt>
      <trkpt lat="49.04435" lon="4.10516">
        <ele>72.6</ele>
        <time>2020-06-30T17:02:35Z</time>
      </trkpt>
      <trkpt lat="49.04435" lon="4.10508">
        <ele>72.6</ele>
        <time>2020-06-30T17:02:36Z</time>
      </trkpt>
      <trkpt lat="49.04434" lon="4.105">
        <ele>72.6</ele>
        <time>2020-06-30T17:02:37Z</time>
      </trkpt>
      <trkpt lat="49.04434" lon="4.10492">
        <ele>72.6</ele>
        <time>2020-06-30T17:02:38Z</time>
      </trkpt>
      <trkpt lat="49.04434" lon="4.10485">
        <ele>72.6</ele>
        <time>2020-06-30T17:02:39Z</time>
      </trkpt>
      <trkpt lat="49.04434" lon="4.10477">
        <ele>72.6</ele>
        <time>2020-06-30T17:02:40Z</time>
      </trkpt>
      <trkpt lat="49.04434" lon="4.10469">
        <ele>72.6</ele>
        <time>2020-06-30T17:02:41Z</time>
      </trkpt>
      <trkpt lat="49.04434" lon="4.10461">
        <ele>72.6</ele>
        <time>2020-06-30T17:02:42Z</time>
      </trkpt>
      <trkpt lat="49.04434" lon="4.10453">
        <ele>72.6</ele>
        <time>2020-06-30T17:02:43Z</time>
      </trkpt>
      <trkpt lat="49.04434" lon="4.10446">
        <ele>72.6</ele>
        <time>2020-06-30T17:02:44Z</time>
      </trkpt>
      <trkpt lat="49.04433" lon="4.10438">
        <ele>72.6</ele>
        <time>2020-06-30T17:02:45Z</time>
      </trkpt>
      <trkpt lat="49.04433" lon="4.10431">
        <ele>72.7</ele>
        <time>2020-06-30T17:02:46Z</time>
      </trkpt>
      <trkpt lat="49.04432" lon="4.10423">
        <ele>72.7</ele>
        <time>2020-06-30T17:02:47Z</time>
      </trkpt>
      <trkpt lat="49.04433" lon="4.10416">
        <ele>72.7</ele>
        <time>2020-06-30T17:02:48Z</time>
      </trkpt>
      <trkpt lat="49.04433" lon="4.10407">
        <ele>72.8</ele>
        <time>2020-06-30T17:02:49Z</time>
      </trkpt>
      <trkpt lat="49.04434" lon="4.10398">
        <ele>72.8</ele>
        <time>2020-06-30T17:02:50Z</time>
      </trkpt>
      <trkpt lat="49.04435" lon="4.10388">
        <ele>72.8</ele>
        <time>2020-06-30T17:02:51Z</time>
      </trkpt>
      <trkpt lat="49.04435" lon="4.10379">
        <ele>72.8</ele>
        <time>2020-06-30T17:02:52Z</time>
      </trkpt>
      <trkpt lat="49.04437" lon="4.1037">
        <ele>72.8</ele>
        <time>2020-06-30T17:02:53Z</time>
      </trkpt>
      <trkpt lat="49.04437" lon="4.1036">
        <ele>72.8</ele>
        <time>2020-06-30T17:02:54Z</time>
      </trkpt>
      <trkpt lat="49.04437" lon="4.10351">
        <ele>72.8</ele>
        <time>2020-06-30T17:02:55Z</time>
      </trkpt>
      <trkpt lat="49.04437" lon="4.10343">
        <ele>72.8</ele>
        <time>2020-06-30T17:02:56Z</time>
      </trkpt>
      <trkpt lat="49.04438" lon="4.10333">
        <ele>72.8</ele>
        <time>2020-06-30T17:02:57Z</time>
      </trkpt>
      <trkpt lat="49.04438" lon="4.10324">
        <ele>72.8</ele>
        <time>2020-06-30T17:02:58Z</time>
      </trkpt>
      <trkpt lat="49.04438" lon="4.10315">
        <ele>72.8</ele>
        <time>2020-06-30T17:02:59Z</time>
      </trkpt>
      <trkpt lat="49.04438" lon="4.10307">
        <ele>72.8</ele>
        <time>2020-06-30T17:03:00Z</time>
      </trkpt>
      <trkpt lat="49.04438" lon="4.10298">
        <ele>72.8</ele>
        <time>2020-06-30T17:03:01Z</time>
      </trkpt>
      <trkpt lat="49.04439" lon="4.1029">
        <ele>72.8</ele>
        <time>2020-06-30T17:03:02Z</time>
      </trkpt>
      <trkpt lat="49.04439" lon="4.10282">
        <ele>72.8</ele>
        <time>2020-06-30T17:03:03Z</time>
      </trkpt>
      <trkpt lat="49.04439" lon="4.10273">
        <ele>72.8</ele>
        <time>2020-06-30T17:03:04Z</time>
      </trkpt>
      <trkpt lat="49.0444" lon="4.10264">
        <ele>72.8</ele>
        <time>2020-06-30T17:03:05Z</time>
      </trkpt>
      <trkpt lat="49.0444" lon="4.10254">
        <ele>72.8</ele>
        <time>2020-06-30T17:03:06Z</time>
      </trkpt>
      <trkpt lat="49.04441" lon="4.10246">
        <ele>72.8</ele>
        <time>2020-06-30T17:03:07Z</time>
      </trkpt>
      <trkpt lat="49.04442" lon="4.10238">
        <ele>72.8</ele>
        <time>2020-06-30T17:03:08Z</time>
      </trkpt>
      <trkpt lat="49.04442" lon="4.10229">
        <ele>72.8</ele>
        <time>2020-06-30T17:03:09Z</time>
      </trkpt>
      <trkpt lat="49.04442" lon="4.1022">
        <ele>72.8</ele>
        <time>2020-06-30T17:03:10Z</time>
      </trkpt>
      <trkpt lat="49.04442" lon="4.10211">
        <ele>72.8</ele>
        <time>2020-06-30T17:03:11Z</time>
      </trkpt>
      <trkpt lat="49.04442" lon="4.10203">
        <ele>72.9</ele>
        <time>2020-06-30T17:03:12Z</time>
      </trkpt>
      <trkpt lat="49.04441" lon="4.10193">
        <ele>72.9</ele>
        <time>2020-06-30T17:03:13Z</time>
      </trkpt>
      <trkpt lat="49.04442" lon="4.10184">
        <ele>72.9</ele>
        <time>2020-06-30T17:03:14Z</time>
      </trkpt>
      <trkpt lat="49.04443" lon="4.10175">
        <ele>72.9</ele>
        <time>2020-06-30T17:03:15Z</time>
      </trkpt>
      <trkpt lat="49.04445" lon="4.10167">
        <ele>72.9</ele>
        <time>2020-06-30T17:03:16Z</time>
      </trkpt>
      <trkpt lat="49.04445" lon="4.10158">
        <ele>72.9</ele>
        <time>2020-06-30T17:03:17Z</time>
      </trkpt>
      <trkpt lat="49.04445" lon="4.10148">
        <ele>72.9</ele>
        <time>2020-06-30T17:03:18Z</time>
      </trkpt>
      <trkpt lat="49.04446" lon="4.10139">
        <ele>72.9</ele>
        <time>2020-06-30T17:03:19Z</time>
      </trkpt>
      <trkpt lat="49.04447" lon="4.1013">
        <ele>72.9</ele>
        <time>2020-06-30T17:03:20Z</time>
      </trkpt>
      <trkpt lat="49.04447" lon="4.10121">
        <ele>72.9</ele>
        <time>2020-06-30T17:03:21Z</time>
      </trkpt>
      <trkpt lat="49.04448" lon="4.10113">
        <ele>72.9</ele>
        <time>2020-06-30T17:03:22Z</time>
      </trkpt>
      <trkpt lat="49.04448" lon="4.10101">
        <ele>72.9</ele>
        <time>2020-06-30T17:03:23Z</time>
      </trkpt>
      <trkpt lat="49.04449" lon="4.10092">
        <ele>72.9</ele>
        <time>2020-06-30T17:03:24Z</time>
      </trkpt>
      <trkpt lat="49.0445" lon="4.10083">
        <ele>72.9</ele>
        <time>2020-06-30T17:03:25Z</time>
      </trkpt>
      <trkpt lat="49.0445" lon="4.10074">
        <ele>72.9</ele>
        <time>2020-06-30T17:03:26Z</time>
      </trkpt>
      <trkpt lat="49.04451" lon="4.10065">
        <ele>72.9</ele>
        <time>2020-06-30T17:03:27Z</time>
      </trkpt>
      <trkpt lat="49.04451" lon="4.10058">
        <ele>72.9</ele>
        <time>2020-06-30T17:03:28Z</time>
      </trkpt>
      <trkpt lat="49.04451" lon="4.10051">
        <ele>72.9</ele>
        <time>2020-06-30T17:03:29Z</time>
      </trkpt>
      <trkpt lat="49.04451" lon="4.10042">
        <ele>72.9</ele>
        <time>2020-06-30T17:03:30Z</time>
      </trkpt>
      <trkpt lat="49.04452" lon="4.10034">
        <ele>72.9</ele>
        <time>2020-06-30T17:03:31Z</time>
      </trkpt>
      <trkpt lat="49.04452" lon="4.10026">
        <ele>72.9</ele>
        <time>2020-06-30T17:03:32Z</time>
      </trkpt>
      <trkpt lat="49.04452" lon="4.10016">
        <ele>72.9</ele>
        <time>2020-06-30T17:03:33Z</time>
      </trkpt>
      <trkpt lat="49.04452" lon="4.10007">
        <ele>72.9</ele>
        <time>2020-06-30T17:03:34Z</time>
      </trkpt>
      <trkpt lat="49.04453" lon="4.09997">
        <ele>72.9</ele>
        <time>2020-06-30T17:03:35Z</time>
      </trkpt>
      <trkpt lat="49.04454" lon="4.09987">
        <ele>72.9</ele>
        <time>2020-06-30T17:03:36Z</time>
      </trkpt>
      <trkpt lat="49.04454" lon="4.09978">
        <ele>72.9</ele>
        <time>2020-06-30T17:03:37Z</time>
      </trkpt>
      <trkpt lat="49.04455" lon="4.0997">
        <ele>72.9</ele>
        <time>2020-06-30T17:03:38Z</time>
      </trkpt>
      <trkpt lat="49.04456" lon="4.0996">
        <ele>72.9</ele>
        <time>2020-06-30T17:03:39Z</time>
      </trkpt>
      <trkpt lat="49.04457" lon="4.09951">
        <ele>72.9</ele>
        <time>2020-06-30T17:03:40Z</time>
      </trkpt>
      <trkpt lat="49.04456" lon="4.09944">
        <ele>72.9</ele>
        <time>2020-06-30T17:03:41Z</time>
      </trkpt>
      <trkpt lat="49.04455" lon="4.09934">
        <ele>72.9</ele>
        <time>2020-06-30T17:03:42Z</time>
      </trkpt>
      <trkpt lat="49.04455" lon="4.09925">
        <ele>73</ele>
        <time>2020-06-30T17:03:43Z</time>
      </trkpt>
      <trkpt lat="49.04455" lon="4.09917">
        <ele>73</ele>
        <time>2020-06-30T17:03:44Z</time>
      </trkpt>
      <trkpt lat="49.04456" lon="4.09908">
        <ele>73</ele>
        <time>2020-06-30T17:03:45Z</time>
      </trkpt>
      <trkpt lat="49.04456" lon="4.09898">
        <ele>73</ele>
        <time>2020-06-30T17:03:46Z</time>
      </trkpt>
      <trkpt lat="49.04457" lon="4.09889">
        <ele>72.9</ele>
        <time>2020-06-30T17:03:47Z</time>
      </trkpt>
      <trkpt lat="49.04458" lon="4.0988">
        <ele>72.9</ele>
        <time>2020-06-30T17:03:48Z</time>
      </trkpt>
      <trkpt lat="49.04459" lon="4.0987">
        <ele>72.9</ele>
        <time>2020-06-30T17:03:49Z</time>
      </trkpt>
      <trkpt lat="49.04459" lon="4.09861">
        <ele>72.9</ele>
        <time>2020-06-30T17:03:50Z</time>
      </trkpt>
      <trkpt lat="49.04459" lon="4.09852">
        <ele>72.9</ele>
        <time>2020-06-30T17:03:51Z</time>
      </trkpt>
      <trkpt lat="49.04459" lon="4.09843">
        <ele>72.9</ele>
        <time>2020-06-30T17:03:52Z</time>
      </trkpt>
      <trkpt lat="49.0446" lon="4.09834">
        <ele>72.9</ele>
        <time>2020-06-30T17:03:53Z</time>
      </trkpt>
      <trkpt lat="49.0446" lon="4.09825">
        <ele>72.9</ele>
        <time>2020-06-30T17:03:54Z</time>
      </trkpt>
      <trkpt lat="49.04462" lon="4.09815">
        <ele>72.9</ele>
        <time>2020-06-30T17:03:55Z</time>
      </trkpt>
      <trkpt lat="49.04464" lon="4.09807">
        <ele>72.9</ele>
        <time>2020-06-30T17:03:56Z</time>
      </trkpt>
      <trkpt lat="49.04465" lon="4.09796">
        <ele>72.9</ele>
        <time>2020-06-30T17:03:57Z</time>
      </trkpt>
      <trkpt lat="49.04465" lon="4.09787">
        <ele>72.9</ele>
        <time>2020-06-30T17:03:58Z</time>
      </trkpt>
      <trkpt lat="49.04465" lon="4.09777">
        <ele>72.9</ele>
        <time>2020-06-30T17:03:59Z</time>
      </trkpt>
      <trkpt lat="49.04464" lon="4.09767">
        <ele>72.9</ele>
        <time>2020-06-30T17:04:00Z</time>
      </trkpt>
      <trkpt lat="49.04464" lon="4.09757">
        <ele>72.9</ele>
        <time>2020-06-30T17:04:01Z</time>
      </trkpt>
      <trkpt lat="49.04465" lon="4.09748">
        <ele>72.9</ele>
        <time>2020-06-30T17:04:02Z</time>
      </trkpt>
      <trkpt lat="49.04465" lon="4.09741">
        <ele>72.9</ele>
        <time>2020-06-30T17:04:03Z</time>
      </trkpt>
      <trkpt lat="49.04465" lon="4.09733">
        <ele>72.9</ele>
        <time>2020-06-30T17:04:04Z</time>
      </trkpt>
      <trkpt lat="49.04466" lon="4.09725">
        <ele>72.9</ele>
        <time>2020-06-30T17:04:05Z</time>
      </trkpt>
      <trkpt lat="49.04466" lon="4.09716">
        <ele>72.9</ele>
        <time>2020-06-30T17:04:06Z</time>
      </trkpt>
      <trkpt lat="49.04467" lon="4.09707">
        <ele>72.9</ele>
        <time>2020-06-30T17:04:07Z</time>
      </trkpt>
      <trkpt lat="49.04467" lon="4.09698">
        <ele>73</ele>
        <time>2020-06-30T17:04:08Z</time>
      </trkpt>
      <trkpt lat="49.04466" lon="4.09688">
        <ele>73</ele>
        <time>2020-06-30T17:04:09Z</time>
      </trkpt>
      <trkpt lat="49.04466" lon="4.09678">
        <ele>73</ele>
        <time>2020-06-30T17:04:10Z</time>
      </trkpt>
      <trkpt lat="49.04466" lon="4.09669">
        <ele>73</ele>
        <time>2020-06-30T17:04:11Z</time>
      </trkpt>
      <trkpt lat="49.04466" lon="4.0966">
        <ele>73</ele>
        <time>2020-06-30T17:04:12Z</time>
      </trkpt>
      <trkpt lat="49.04467" lon="4.09651">
        <ele>73</ele>
        <time>2020-06-30T17:04:13Z</time>
      </trkpt>
      <trkpt lat="49.04467" lon="4.09643">
        <ele>73</ele>
        <time>2020-06-30T17:04:14Z</time>
      </trkpt>
      <trkpt lat="49.04468" lon="4.09634">
        <ele>73</ele>
        <time>2020-06-30T17:04:15Z</time>
      </trkpt>
      <trkpt lat="49.04469" lon="4.09624">
        <ele>73</ele>
        <time>2020-06-30T17:04:16Z</time>
      </trkpt>
      <trkpt lat="49.04469" lon="4.09614">
        <ele>73</ele>
        <time>2020-06-30T17:04:17Z</time>
      </trkpt>
      <trkpt lat="49.0447" lon="4.09604">
        <ele>73</ele>
        <time>2020-06-30T17:04:18Z</time>
      </trkpt>
      <trkpt lat="49.0447" lon="4.09593">
        <ele>73</ele>
        <time>2020-06-30T17:04:19Z</time>
      </trkpt>
      <trkpt lat="49.0447" lon="4.09583">
        <ele>73.1</ele>
        <time>2020-06-30T17:04:20Z</time>
      </trkpt>
      <trkpt lat="49.04471" lon="4.09575">
        <ele>73.1</ele>
        <time>2020-06-30T17:04:21Z</time>
      </trkpt>
      <trkpt lat="49.04472" lon="4.09566">
        <ele>73.1</ele>
        <time>2020-06-30T17:04:22Z</time>
      </trkpt>
      <trkpt lat="49.04473" lon="4.09556">
        <ele>73.1</ele>
        <time>2020-06-30T17:04:23Z</time>
      </trkpt>
      <trkpt lat="49.04473" lon="4.09546">
        <ele>73.1</ele>
        <time>2020-06-30T17:04:24Z</time>
      </trkpt>
      <trkpt lat="49.04474" lon="4.09537">
        <ele>73.1</ele>
        <time>2020-06-30T17:04:25Z</time>
      </trkpt>
      <trkpt lat="49.04475" lon="4.09528">
        <ele>73.1</ele>
        <time>2020-06-30T17:04:26Z</time>
      </trkpt>
      <trkpt lat="49.04475" lon="4.09518">
        <ele>73.1</ele>
        <time>2020-06-30T17:04:27Z</time>
      </trkpt>
      <trkpt lat="49.04475" lon="4.09509">
        <ele>73.1</ele>
        <time>2020-06-30T17:04:28Z</time>
      </trkpt>
      <trkpt lat="49.04475" lon="4.095">
        <ele>73.1</ele>
        <time>2020-06-30T17:04:29Z</time>
      </trkpt>
      <trkpt lat="49.04475" lon="4.09492">
        <ele>73.2</ele>
        <time>2020-06-30T17:04:30Z</time>
      </trkpt>
      <trkpt lat="49.04475" lon="4.09482">
        <ele>73.2</ele>
        <time>2020-06-30T17:04:31Z</time>
      </trkpt>
      <trkpt lat="49.04476" lon="4.09472">
        <ele>73.2</ele>
        <time>2020-06-30T17:04:32Z</time>
      </trkpt>
      <trkpt lat="49.04476" lon="4.09463">
        <ele>73.2</ele>
        <time>2020-06-30T17:04:33Z</time>
      </trkpt>
      <trkpt lat="49.04476" lon="4.09454">
        <ele>73.2</ele>
        <time>2020-06-30T17:04:34Z</time>
      </trkpt>
      <trkpt lat="49.04476" lon="4.09447">
        <ele>73.2</ele>
        <time>2020-06-30T17:04:35Z</time>
      </trkpt>
      <trkpt lat="49.04476" lon="4.09437">
        <ele>73.2</ele>
        <time>2020-06-30T17:04:36Z</time>
      </trkpt>
      <trkpt lat="49.04477" lon="4.09428">
        <ele>73.2</ele>
        <time>2020-06-30T17:04:37Z</time>
      </trkpt>
      <trkpt lat="49.04476" lon="4.0942">
        <ele>73.2</ele>
        <time>2020-06-30T17:04:38Z</time>
      </trkpt>
      <trkpt lat="49.04477" lon="4.09411">
        <ele>73.2</ele>
        <time>2020-06-30T17:04:39Z</time>
      </trkpt>
      <trkpt lat="49.04477" lon="4.09402">
        <ele>73.2</ele>
        <time>2020-06-30T17:04:40Z</time>
      </trkpt>
      <trkpt lat="49.04477" lon="4.09394">
        <ele>73.2</ele>
        <time>2020-06-30T17:04:41Z</time>
      </trkpt>
      <trkpt lat="49.04477" lon="4.09384">
        <ele>73.2</ele>
        <time>2020-06-30T17:04:42Z</time>
      </trkpt>
      <trkpt lat="49.04478" lon="4.09376">
        <ele>73.2</ele>
        <time>2020-06-30T17:04:43Z</time>
      </trkpt>
      <trkpt lat="49.04479" lon="4.09368">
        <ele>73.2</ele>
        <time>2020-06-30T17:04:44Z</time>
      </trkpt>
      <trkpt lat="49.04479" lon="4.09359">
        <ele>73.2</ele>
        <time>2020-06-30T17:04:45Z</time>
      </trkpt>
      <trkpt lat="49.0448" lon="4.09351">
        <ele>73.2</ele>
        <time>2020-06-30T17:04:46Z</time>
      </trkpt>
      <trkpt lat="49.0448" lon="4.09342">
        <ele>73.2</ele>
        <time>2020-06-30T17:04:47Z</time>
      </trkpt>
      <trkpt lat="49.04481" lon="4.09333">
        <ele>73.1</ele>
        <time>2020-06-30T17:04:48Z</time>
      </trkpt>
      <trkpt lat="49.04481" lon="4.09324">
        <ele>73.1</ele>
        <time>2020-06-30T17:04:49Z</time>
      </trkpt>
      <trkpt lat="49.04482" lon="4.09316">
        <ele>73.1</ele>
        <time>2020-06-30T17:04:50Z</time>
      </trkpt>
      <trkpt lat="49.04482" lon="4.09307">
        <ele>73.1</ele>
        <time>2020-06-30T17:04:51Z</time>
      </trkpt>
      <trkpt lat="49.04482" lon="4.09298">
        <ele>73.1</ele>
        <time>2020-06-30T17:04:52Z</time>
      </trkpt>
      <trkpt lat="49.04482" lon="4.09288">
        <ele>73.1</ele>
        <time>2020-06-30T17:04:53Z</time>
      </trkpt>
      <trkpt lat="49.04482" lon="4.0928">
        <ele>73.1</ele>
        <time>2020-06-30T17:04:54Z</time>
      </trkpt>
      <trkpt lat="49.04483" lon="4.09271">
        <ele>73.1</ele>
        <time>2020-06-30T17:04:55Z</time>
      </trkpt>
      <trkpt lat="49.04483" lon="4.09263">
        <ele>73.1</ele>
        <time>2020-06-30T17:04:56Z</time>
      </trkpt>
      <trkpt lat="49.04484" lon="4.09254">
        <ele>73.1</ele>
        <time>2020-06-30T17:04:57Z</time>
      </trkpt>
      <trkpt lat="49.04484" lon="4.09246">
        <ele>73.1</ele>
        <time>2020-06-30T17:04:58Z</time>
      </trkpt>
      <trkpt lat="49.04485" lon="4.09239">
        <ele>73.1</ele>
        <time>2020-06-30T17:04:59Z</time>
      </trkpt>
      <trkpt lat="49.04485" lon="4.09232">
        <ele>73.1</ele>
        <time>2020-06-30T17:05:00Z</time>
      </trkpt>
      <trkpt lat="49.04486" lon="4.09225">
        <ele>73.2</ele>
        <time>2020-06-30T17:05:01Z</time>
      </trkpt>
      <trkpt lat="49.04486" lon="4.09218">
        <ele>73.2</ele>
        <time>2020-06-30T17:05:02Z</time>
      </trkpt>
      <trkpt lat="49.04486" lon="4.09211">
        <ele>73.2</ele>
        <time>2020-06-30T17:05:03Z</time>
      </trkpt>
      <trkpt lat="49.04487" lon="4.09204">
        <ele>73.2</ele>
        <time>2020-06-30T17:05:04Z</time>
      </trkpt>
      <trkpt lat="49.04487" lon="4.09197">
        <ele>73.2</ele>
        <time>2020-06-30T17:05:05Z</time>
      </trkpt>
      <trkpt lat="49.04487" lon="4.09191">
        <ele>73.2</ele>
        <time>2020-06-30T17:05:06Z</time>
      </trkpt>
      <trkpt lat="49.04487" lon="4.09185">
        <ele>73.2</ele>
        <time>2020-06-30T17:05:07Z</time>
      </trkpt>
      <trkpt lat="49.04487" lon="4.09182">
        <ele>73.2</ele>
        <time>2020-06-30T17:05:08Z</time>
      </trkpt>
      <trkpt lat="49.04489" lon="4.09176">
        <ele>73.2</ele>
        <time>2020-06-30T17:05:09Z</time>
      </trkpt>
      <trkpt lat="49.04489" lon="4.0917">
        <ele>73.2</ele>
        <time>2020-06-30T17:05:10Z</time>
      </trkpt>
      <trkpt lat="49.04489" lon="4.09163">
        <ele>73.1</ele>
        <time>2020-06-30T17:05:11Z</time>
      </trkpt>
      <trkpt lat="49.04489" lon="4.09157">
        <ele>73.1</ele>
        <time>2020-06-30T17:05:12Z</time>
      </trkpt>
      <trkpt lat="49.0449" lon="4.0915">
        <ele>73.1</ele>
        <time>2020-06-30T17:05:13Z</time>
      </trkpt>
      <trkpt lat="49.0449" lon="4.09144">
        <ele>73.1</ele>
        <time>2020-06-30T17:05:14Z</time>
      </trkpt>
      <trkpt lat="49.04491" lon="4.09138">
        <ele>73.1</ele>
        <time>2020-06-30T17:05:15Z</time>
      </trkpt>
      <trkpt lat="49.04491" lon="4.09132">
        <ele>73.1</ele>
        <time>2020-06-30T17:05:16Z</time>
      </trkpt>
      <trkpt lat="49.0449" lon="4.09125">
        <ele>73.1</ele>
        <time>2020-06-30T17:05:17Z</time>
      </trkpt>
      <trkpt lat="49.0449" lon="4.09117">
        <ele>73.1</ele>
        <time>2020-06-30T17:05:18Z</time>
      </trkpt>
      <trkpt lat="49.0449" lon="4.09108">
        <ele>73.1</ele>
        <time>2020-06-30T17:05:19Z</time>
      </trkpt>
      <trkpt lat="49.04492" lon="4.091">
        <ele>73.1</ele>
        <time>2020-06-30T17:05:20Z</time>
      </trkpt>
      <trkpt lat="49.04492" lon="4.09093">
        <ele>73.1</ele>
        <time>2020-06-30T17:05:21Z</time>
      </trkpt>
      <trkpt lat="49.04492" lon="4.09088">
        <ele>73.1</ele>
        <time>2020-06-30T17:05:22Z</time>
      </trkpt>
      <trkpt lat="49.04492" lon="4.09083">
        <ele>73.1</ele>
        <time>2020-06-30T17:05:23Z</time>
      </trkpt>
      <trkpt lat="49.04491" lon="4.09077">
        <ele>73.1</ele>
        <time>2020-06-30T17:05:24Z</time>
      </trkpt>
      <trkpt lat="49.04491" lon="4.0907">
        <ele>73.1</ele>
        <time>2020-06-30T17:05:25Z</time>
      </trkpt>
      <trkpt lat="49.0449" lon="4.09062">
        <ele>73.1</ele>
        <time>2020-06-30T17:05:26Z</time>
      </trkpt>
      <trkpt lat="49.0449" lon="4.09053">
        <ele>73.1</ele>
        <time>2020-06-30T17:05:27Z</time>
      </trkpt>
      <trkpt lat="49.04489" lon="4.09046">
        <ele>73.1</ele>
        <time>2020-06-30T17:05:28Z</time>
      </trkpt>
      <trkpt lat="49.04489" lon="4.09039">
        <ele>73.1</ele>
        <time>2020-06-30T17:05:29Z</time>
      </trkpt>
      <trkpt lat="49.0449" lon="4.09032">
        <ele>73.1</ele>
        <time>2020-06-30T17:05:30Z</time>
      </trkpt>
      <trkpt lat="49.0449" lon="4.09025">
        <ele>73.1</ele>
        <time>2020-06-30T17:05:31Z</time>
      </trkpt>
      <trkpt lat="49.04489" lon="4.09019">
        <ele>73.2</ele>
        <time>2020-06-30T17:05:32Z</time>
      </trkpt>
      <trkpt lat="49.04488" lon="4.09013">
        <ele>73.1</ele>
        <time>2020-06-30T17:05:33Z</time>
      </trkpt>
      <trkpt lat="49.04488" lon="4.09008">
        <ele>73.1</ele>
        <time>2020-06-30T17:05:34Z</time>
      </trkpt>
      <trkpt lat="49.04488" lon="4.09002">
        <ele>73.1</ele>
        <time>2020-06-30T17:05:35Z</time>
      </trkpt>
      <trkpt lat="49.04488" lon="4.08995">
        <ele>73.1</ele>
        <time>2020-06-30T17:05:36Z</time>
      </trkpt>
      <trkpt lat="49.04488" lon="4.0899">
        <ele>73.1</ele>
        <time>2020-06-30T17:05:37Z</time>
      </trkpt>
      <trkpt lat="49.04489" lon="4.08984">
        <ele>73.1</ele>
        <time>2020-06-30T17:05:38Z</time>
      </trkpt>
      <trkpt lat="49.04489" lon="4.08978">
        <ele>73.1</ele>
        <time>2020-06-30T17:05:39Z</time>
      </trkpt>
      <trkpt lat="49.04488" lon="4.08971">
        <ele>73.1</ele>
        <time>2020-06-30T17:05:40Z</time>
      </trkpt>
      <trkpt lat="49.04488" lon="4.08965">
        <ele>73.1</ele>
        <time>2020-06-30T17:05:41Z</time>
      </trkpt>
      <trkpt lat="49.04488" lon="4.08959">
        <ele>73.1</ele>
        <time>2020-06-30T17:05:42Z</time>
      </trkpt>
      <trkpt lat="49.04487" lon="4.08953">
        <ele>73.1</ele>
        <time>2020-06-30T17:05:43Z</time>
      </trkpt>
      <trkpt lat="49.04487" lon="4.08947">
        <ele>73.1</ele>
        <time>2020-06-30T17:05:44Z</time>
      </trkpt>
      <trkpt lat="49.04487" lon="4.08941">
        <ele>73.1</ele>
        <time>2020-06-30T17:05:45Z</time>
      </trkpt>
      <trkpt lat="49.04487" lon="4.08933">
        <ele>73.1</ele>
        <time>2020-06-30T17:05:46Z</time>
      </trkpt>
      <trkpt lat="49.04487" lon="4.08925">
        <ele>73.2</ele>
        <time>2020-06-30T17:05:47Z</time>
      </trkpt>
      <trkpt lat="49.04487" lon="4.08917">
        <ele>73.2</ele>
        <time>2020-06-30T17:05:48Z</time>
      </trkpt>
      <trkpt lat="49.04488" lon="4.08909">
        <ele>73.2</ele>
        <time>2020-06-30T17:05:49Z</time>
      </trkpt>
      <trkpt lat="49.04488" lon="4.08901">
        <ele>73.2</ele>
        <time>2020-06-30T17:05:50Z</time>
      </trkpt>
      <trkpt lat="49.04488" lon="4.08893">
        <ele>73.2</ele>
        <time>2020-06-30T17:05:51Z</time>
      </trkpt>
      <trkpt lat="49.04489" lon="4.08885">
        <ele>73.2</ele>
        <time>2020-06-30T17:05:52Z</time>
      </trkpt>
      <trkpt lat="49.04488" lon="4.08877">
        <ele>73.2</ele>
        <time>2020-06-30T17:05:53Z</time>
      </trkpt>
      <trkpt lat="49.04488" lon="4.08869">
        <ele>73.2</ele>
        <time>2020-06-30T17:05:54Z</time>
      </trkpt>
      <trkpt lat="49.04487" lon="4.08862">
        <ele>73.2</ele>
        <time>2020-06-30T17:05:55Z</time>
      </trkpt>
      <trkpt lat="49.04487" lon="4.08855">
        <ele>73.3</ele>
        <time>2020-06-30T17:05:56Z</time>
      </trkpt>
      <trkpt lat="49.04486" lon="4.08847">
        <ele>73.3</ele>
        <time>2020-06-30T17:05:57Z</time>
      </trkpt>
      <trkpt lat="49.04485" lon="4.08839">
        <ele>73.4</ele>
        <time>2020-06-30T17:05:58Z</time>
      </trkpt>
      <trkpt lat="49.04485" lon="4.08832">
        <ele>73.4</ele>
        <time>2020-06-30T17:05:59Z</time>
      </trkpt>
      <trkpt lat="49.04486" lon="4.08825">
        <ele>73.5</ele>
        <time>2020-06-30T17:06:00Z</time>
      </trkpt>
      <trkpt lat="49.04486" lon="4.08819">
        <ele>73.5</ele>
        <time>2020-06-30T17:06:01Z</time>
      </trkpt>
      <trkpt lat="49.04487" lon="4.08813">
        <ele>73.6</ele>
        <time>2020-06-30T17:06:02Z</time>
      </trkpt>
      <trkpt lat="49.04487" lon="4.08806">
        <ele>73.6</ele>
        <time>2020-06-30T17:06:03Z</time>
      </trkpt>
      <trkpt lat="49.04486" lon="4.08799">
        <ele>73.6</ele>
        <time>2020-06-30T17:06:04Z</time>
      </trkpt>
      <trkpt lat="49.04487" lon="4.08793">
        <ele>73.6</ele>
        <time>2020-06-30T17:06:05Z</time>
      </trkpt>
      <trkpt lat="49.04485" lon="4.08786">
        <ele>73.7</ele>
        <time>2020-06-30T17:06:06Z</time>
      </trkpt>
      <trkpt lat="49.04485" lon="4.08781">
        <ele>73.7</ele>
        <time>2020-06-30T17:06:07Z</time>
      </trkpt>
      <trkpt lat="49.04485" lon="4.08776">
        <ele>73.7</ele>
        <time>2020-06-30T17:06:08Z</time>
      </trkpt>
      <trkpt lat="49.04485" lon="4.08775">
        <ele>73.6</ele>
        <time>2020-06-30T17:06:09Z</time>
      </trkpt>
      <trkpt lat="49.04485" lon="4.08775">
        <ele>73.6</ele>
        <time>2020-06-30T17:06:10Z</time>
      </trkpt>
      <trkpt lat="49.04484" lon="4.08773">
        <ele>73.6</ele>
        <time>2020-06-30T17:06:11Z</time>
      </trkpt>
      <trkpt lat="49.04484" lon="4.0877">
        <ele>73.6</ele>
        <time>2020-06-30T17:06:12Z</time>
      </trkpt>
      <trkpt lat="49.04484" lon="4.08764">
        <ele>73.5</ele>
        <time>2020-06-30T17:06:13Z</time>
      </trkpt>
      <trkpt lat="49.04484" lon="4.08757">
        <ele>73.5</ele>
        <time>2020-06-30T17:06:14Z</time>
      </trkpt>
      <trkpt lat="49.04483" lon="4.08749">
        <ele>73.4</ele>
        <time>2020-06-30T17:06:15Z</time>
      </trkpt>
      <trkpt lat="49.04483" lon="4.08744">
        <ele>73.4</ele>
        <time>2020-06-30T17:06:16Z</time>
      </trkpt>
      <trkpt lat="49.04484" lon="4.08737">
        <ele>73.3</ele>
        <time>2020-06-30T17:06:17Z</time>
      </trkpt>
      <trkpt lat="49.04484" lon="4.08729">
        <ele>73.3</ele>
        <time>2020-06-30T17:06:18Z</time>
      </trkpt>
      <trkpt lat="49.04485" lon="4.08721">
        <ele>73.2</ele>
        <time>2020-06-30T17:06:19Z</time>
      </trkpt>
      <trkpt lat="49.04485" lon="4.08714">
        <ele>73.2</ele>
        <time>2020-06-30T17:06:20Z</time>
      </trkpt>
      <trkpt lat="49.04486" lon="4.08708">
        <ele>73.2</ele>
        <time>2020-06-30T17:06:21Z</time>
      </trkpt>
      <trkpt lat="49.04486" lon="4.087">
        <ele>73.1</ele>
        <time>2020-06-30T17:06:22Z</time>
      </trkpt>
      <trkpt lat="49.04484" lon="4.08691">
        <ele>73.1</ele>
        <time>2020-06-30T17:06:23Z</time>
      </trkpt>
      <trkpt lat="49.04483" lon="4.08684">
        <ele>73.1</ele>
        <time>2020-06-30T17:06:24Z</time>
      </trkpt>
      <trkpt lat="49.04483" lon="4.08678">
        <ele>73.1</ele>
        <time>2020-06-30T17:06:25Z</time>
      </trkpt>
      <trkpt lat="49.04483" lon="4.08671">
        <ele>73.1</ele>
        <time>2020-06-30T17:06:26Z</time>
      </trkpt>
      <trkpt lat="49.04483" lon="4.08662">
        <ele>73</ele>
        <time>2020-06-30T17:06:27Z</time>
      </trkpt>
      <trkpt lat="49.04482" lon="4.08654">
        <ele>73</ele>
        <time>2020-06-30T17:06:28Z</time>
      </trkpt>
      <trkpt lat="49.04482" lon="4.08646">
        <ele>73</ele>
        <time>2020-06-30T17:06:29Z</time>
      </trkpt>
      <trkpt lat="49.04482" lon="4.08638">
        <ele>73</ele>
        <time>2020-06-30T17:06:30Z</time>
      </trkpt>
      <trkpt lat="49.04481" lon="4.08631">
        <ele>73</ele>
        <time>2020-06-30T17:06:31Z</time>
      </trkpt>
      <trkpt lat="49.04481" lon="4.08623">
        <ele>73</ele>
        <time>2020-06-30T17:06:32Z</time>
      </trkpt>
      <trkpt lat="49.04481" lon="4.08615">
        <ele>73</ele>
        <time>2020-06-30T17:06:33Z</time>
      </trkpt>
      <trkpt lat="49.0448" lon="4.08607">
        <ele>73</ele>
        <time>2020-06-30T17:06:34Z</time>
      </trkpt>
      <trkpt lat="49.0448" lon="4.08599">
        <ele>73</ele>
        <time>2020-06-30T17:06:35Z</time>
      </trkpt>
      <trkpt lat="49.0448" lon="4.08591">
        <ele>73</ele>
        <time>2020-06-30T17:06:36Z</time>
      </trkpt>
      <trkpt lat="49.0448" lon="4.08584">
        <ele>73</ele>
        <time>2020-06-30T17:06:37Z</time>
      </trkpt>
      <trkpt lat="49.04479" lon="4.08576">
        <ele>73</ele>
        <time>2020-06-30T17:06:38Z</time>
      </trkpt>
      <trkpt lat="49.04479" lon="4.08567">
        <ele>73</ele>
        <time>2020-06-30T17:06:39Z</time>
      </trkpt>
      <trkpt lat="49.04479" lon="4.08559">
        <ele>73</ele>
        <time>2020-06-30T17:06:40Z</time>
      </trkpt>
      <trkpt lat="49.04479" lon="4.08551">
        <ele>73</ele>
        <time>2020-06-30T17:06:41Z</time>
      </trkpt>
      <trkpt lat="49.04479" lon="4.08544">
        <ele>73</ele>
        <time>2020-06-30T17:06:42Z</time>
      </trkpt>
      <trkpt lat="49.04479" lon="4.08536">
        <ele>73</ele>
        <time>2020-06-30T17:06:43Z</time>
      </trkpt>
      <trkpt lat="49.04478" lon="4.08527">
        <ele>73</ele>
        <time>2020-06-30T17:06:44Z</time>
      </trkpt>
      <trkpt lat="49.04478" lon="4.08518">
        <ele>73</ele>
        <time>2020-06-30T17:06:45Z</time>
      </trkpt>
      <trkpt lat="49.04478" lon="4.0851">
        <ele>73</ele>
        <time>2020-06-30T17:06:46Z</time>
      </trkpt>
      <trkpt lat="49.04478" lon="4.08502">
        <ele>73</ele>
        <time>2020-06-30T17:06:47Z</time>
      </trkpt>
      <trkpt lat="49.04478" lon="4.08494">
        <ele>73</ele>
        <time>2020-06-30T17:06:48Z</time>
      </trkpt>
      <trkpt lat="49.04477" lon="4.08486">
        <ele>73</ele>
        <time>2020-06-30T17:06:49Z</time>
      </trkpt>
      <trkpt lat="49.04478" lon="4.08478">
        <ele>73</ele>
        <time>2020-06-30T17:06:50Z</time>
      </trkpt>
      <trkpt lat="49.04478" lon="4.0847">
        <ele>73</ele>
        <time>2020-06-30T17:06:51Z</time>
      </trkpt>
      <trkpt lat="49.04478" lon="4.08461">
        <ele>73</ele>
        <time>2020-06-30T17:06:52Z</time>
      </trkpt>
      <trkpt lat="49.04477" lon="4.08453">
        <ele>73</ele>
        <time>2020-06-30T17:06:53Z</time>
      </trkpt>
      <trkpt lat="49.04477" lon="4.08444">
        <ele>73</ele>
        <time>2020-06-30T17:06:54Z</time>
      </trkpt>
      <trkpt lat="49.04477" lon="4.08436">
        <ele>73</ele>
        <time>2020-06-30T17:06:55Z</time>
      </trkpt>
      <trkpt lat="49.04477" lon="4.08428">
        <ele>73</ele>
        <time>2020-06-30T17:06:56Z</time>
      </trkpt>
      <trkpt lat="49.04477" lon="4.08419">
        <ele>73</ele>
        <time>2020-06-30T17:06:57Z</time>
      </trkpt>
      <trkpt lat="49.04477" lon="4.08413">
        <ele>73</ele>
        <time>2020-06-30T17:06:58Z</time>
      </trkpt>
      <trkpt lat="49.04477" lon="4.08406">
        <ele>73</ele>
        <time>2020-06-30T17:06:59Z</time>
      </trkpt>
      <trkpt lat="49.04476" lon="4.08398">
        <ele>73</ele>
        <time>2020-06-30T17:07:00Z</time>
      </trkpt>
      <trkpt lat="49.04476" lon="4.0839">
        <ele>73</ele>
        <time>2020-06-30T17:07:01Z</time>
      </trkpt>
      <trkpt lat="49.04476" lon="4.08381">
        <ele>73</ele>
        <time>2020-06-30T17:07:02Z</time>
      </trkpt>
      <trkpt lat="49.04475" lon="4.08373">
        <ele>73</ele>
        <time>2020-06-30T17:07:03Z</time>
      </trkpt>
      <trkpt lat="49.04476" lon="4.08365">
        <ele>73</ele>
        <time>2020-06-30T17:07:04Z</time>
      </trkpt>
      <trkpt lat="49.04476" lon="4.08357">
        <ele>73</ele>
        <time>2020-06-30T17:07:05Z</time>
      </trkpt>
      <trkpt lat="49.04476" lon="4.08348">
        <ele>73</ele>
        <time>2020-06-30T17:07:06Z</time>
      </trkpt>
      <trkpt lat="49.04475" lon="4.08339">
        <ele>73</ele>
        <time>2020-06-30T17:07:07Z</time>
      </trkpt>
      <trkpt lat="49.04475" lon="4.08332">
        <ele>73</ele>
        <time>2020-06-30T17:07:08Z</time>
      </trkpt>
      <trkpt lat="49.04476" lon="4.08324">
        <ele>73</ele>
        <time>2020-06-30T17:07:09Z</time>
      </trkpt>
      <trkpt lat="49.04477" lon="4.08315">
        <ele>73.1</ele>
        <time>2020-06-30T17:07:10Z</time>
      </trkpt>
      <trkpt lat="49.04477" lon="4.0831">
        <ele>73.1</ele>
        <time>2020-06-30T17:07:11Z</time>
      </trkpt>
      <trkpt lat="49.04476" lon="4.08303">
        <ele>73.1</ele>
        <time>2020-06-30T17:07:12Z</time>
      </trkpt>
      <trkpt lat="49.04475" lon="4.08296">
        <ele>73.1</ele>
        <time>2020-06-30T17:07:13Z</time>
      </trkpt>
      <trkpt lat="49.04474" lon="4.08288">
        <ele>73.1</ele>
        <time>2020-06-30T17:07:14Z</time>
      </trkpt>
      <trkpt lat="49.04474" lon="4.0828">
        <ele>73</ele>
        <time>2020-06-30T17:07:15Z</time>
      </trkpt>
      <trkpt lat="49.04474" lon="4.08272">
        <ele>73</ele>
        <time>2020-06-30T17:07:16Z</time>
      </trkpt>
      <trkpt lat="49.04473" lon="4.08264">
        <ele>73</ele>
        <time>2020-06-30T17:07:17Z</time>
      </trkpt>
      <trkpt lat="49.04473" lon="4.08254">
        <ele>72.9</ele>
        <time>2020-06-30T17:07:18Z</time>
      </trkpt>
      <trkpt lat="49.04472" lon="4.08246">
        <ele>72.9</ele>
        <time>2020-06-30T17:07:19Z</time>
      </trkpt>
      <trkpt lat="49.04472" lon="4.08237">
        <ele>72.9</ele>
        <time>2020-06-30T17:07:20Z</time>
      </trkpt>
      <trkpt lat="49.04471" lon="4.08227">
        <ele>72.9</ele>
        <time>2020-06-30T17:07:21Z</time>
      </trkpt>
      <trkpt lat="49.04471" lon="4.08219">
        <ele>72.9</ele>
        <time>2020-06-30T17:07:22Z</time>
      </trkpt>
      <trkpt lat="49.0447" lon="4.08209">
        <ele>72.9</ele>
        <time>2020-06-30T17:07:23Z</time>
      </trkpt>
      <trkpt lat="49.0447" lon="4.08201">
        <ele>72.9</ele>
        <time>2020-06-30T17:07:24Z</time>
      </trkpt>
      <trkpt lat="49.04471" lon="4.08193">
        <ele>72.9</ele>
        <time>2020-06-30T17:07:25Z</time>
      </trkpt>
      <trkpt lat="49.04471" lon="4.08184">
        <ele>72.8</ele>
        <time>2020-06-30T17:07:26Z</time>
      </trkpt>
      <trkpt lat="49.04472" lon="4.08175">
        <ele>72.8</ele>
        <time>2020-06-30T17:07:27Z</time>
      </trkpt>
      <trkpt lat="49.04472" lon="4.08166">
        <ele>72.8</ele>
        <time>2020-06-30T17:07:28Z</time>
      </trkpt>
      <trkpt lat="49.04474" lon="4.08156">
        <ele>72.8</ele>
        <time>2020-06-30T17:07:29Z</time>
      </trkpt>
      <trkpt lat="49.04473" lon="4.08147">
        <ele>72.8</ele>
        <time>2020-06-30T17:07:30Z</time>
      </trkpt>
      <trkpt lat="49.04473" lon="4.08138">
        <ele>72.8</ele>
        <time>2020-06-30T17:07:31Z</time>
      </trkpt>
      <trkpt lat="49.04473" lon="4.08129">
        <ele>72.8</ele>
        <time>2020-06-30T17:07:32Z</time>
      </trkpt>
      <trkpt lat="49.04473" lon="4.08121">
        <ele>72.8</ele>
        <time>2020-06-30T17:07:33Z</time>
      </trkpt>
      <trkpt lat="49.04473" lon="4.08112">
        <ele>72.8</ele>
        <time>2020-06-30T17:07:34Z</time>
      </trkpt>
      <trkpt lat="49.04473" lon="4.08104">
        <ele>72.7</ele>
        <time>2020-06-30T17:07:35Z</time>
      </trkpt>
      <trkpt lat="49.04473" lon="4.08094">
        <ele>72.7</ele>
        <time>2020-06-30T17:07:36Z</time>
      </trkpt>
      <trkpt lat="49.04472" lon="4.08085">
        <ele>72.7</ele>
        <time>2020-06-30T17:07:37Z</time>
      </trkpt>
      <trkpt lat="49.04472" lon="4.08076">
        <ele>72.7</ele>
        <time>2020-06-30T17:07:38Z</time>
      </trkpt>
      <trkpt lat="49.04472" lon="4.08068">
        <ele>72.7</ele>
        <time>2020-06-30T17:07:39Z</time>
      </trkpt>
      <trkpt lat="49.04471" lon="4.08059">
        <ele>72.6</ele>
        <time>2020-06-30T17:07:40Z</time>
      </trkpt>
      <trkpt lat="49.04471" lon="4.0805">
        <ele>72.6</ele>
        <time>2020-06-30T17:07:41Z</time>
      </trkpt>
      <trkpt lat="49.04471" lon="4.0804">
        <ele>72.6</ele>
        <time>2020-06-30T17:07:42Z</time>
      </trkpt>
      <trkpt lat="49.0447" lon="4.08031">
        <ele>72.6</ele>
        <time>2020-06-30T17:07:43Z</time>
      </trkpt>
      <trkpt lat="49.0447" lon="4.08022">
        <ele>72.6</ele>
        <time>2020-06-30T17:07:44Z</time>
      </trkpt>
      <trkpt lat="49.0447" lon="4.08013">
        <ele>72.7</ele>
        <time>2020-06-30T17:07:45Z</time>
      </trkpt>
      <trkpt lat="49.04471" lon="4.08003">
        <ele>72.7</ele>
        <time>2020-06-30T17:07:46Z</time>
      </trkpt>
      <trkpt lat="49.04471" lon="4.07994">
        <ele>72.7</ele>
        <time>2020-06-30T17:07:47Z</time>
      </trkpt>
      <trkpt lat="49.0447" lon="4.07986">
        <ele>72.7</ele>
        <time>2020-06-30T17:07:48Z</time>
      </trkpt>
      <trkpt lat="49.04469" lon="4.07979">
        <ele>72.7</ele>
        <time>2020-06-30T17:07:49Z</time>
      </trkpt>
      <trkpt lat="49.04469" lon="4.07971">
        <ele>72.7</ele>
        <time>2020-06-30T17:07:50Z</time>
      </trkpt>
      <trkpt lat="49.04469" lon="4.07962">
        <ele>72.7</ele>
        <time>2020-06-30T17:07:51Z</time>
      </trkpt>
      <trkpt lat="49.04469" lon="4.07952">
        <ele>72.7</ele>
        <time>2020-06-30T17:07:52Z</time>
      </trkpt>
      <trkpt lat="49.0447" lon="4.07943">
        <ele>72.7</ele>
        <time>2020-06-30T17:07:53Z</time>
      </trkpt>
      <trkpt lat="49.04469" lon="4.07934">
        <ele>72.7</ele>
        <time>2020-06-30T17:07:54Z</time>
      </trkpt>
      <trkpt lat="49.04469" lon="4.07924">
        <ele>72.7</ele>
        <time>2020-06-30T17:07:55Z</time>
      </trkpt>
      <trkpt lat="49.04469" lon="4.07914">
        <ele>72.7</ele>
        <time>2020-06-30T17:07:56Z</time>
      </trkpt>
      <trkpt lat="49.04468" lon="4.07904">
        <ele>72.7</ele>
        <time>2020-06-30T17:07:57Z</time>
      </trkpt>
      <trkpt lat="49.04468" lon="4.07895">
        <ele>72.7</ele>
        <time>2020-06-30T17:07:58Z</time>
      </trkpt>
      <trkpt lat="49.04468" lon="4.07886">
        <ele>72.7</ele>
        <time>2020-06-30T17:07:59Z</time>
      </trkpt>
      <trkpt lat="49.04468" lon="4.07878">
        <ele>72.7</ele>
        <time>2020-06-30T17:08:00Z</time>
      </trkpt>
      <trkpt lat="49.04468" lon="4.07869">
        <ele>72.7</ele>
        <time>2020-06-30T17:08:01Z</time>
      </trkpt>
      <trkpt lat="49.04467" lon="4.0786">
        <ele>72.7</ele>
        <time>2020-06-30T17:08:02Z</time>
      </trkpt>
      <trkpt lat="49.04466" lon="4.07851">
        <ele>72.6</ele>
        <time>2020-06-30T17:08:03Z</time>
      </trkpt>
      <trkpt lat="49.04467" lon="4.07842">
        <ele>72.6</ele>
        <time>2020-06-30T17:08:04Z</time>
      </trkpt>
      <trkpt lat="49.04466" lon="4.07832">
        <ele>72.6</ele>
        <time>2020-06-30T17:08:05Z</time>
      </trkpt>
      <trkpt lat="49.04465" lon="4.07824">
        <ele>72.6</ele>
        <time>2020-06-30T17:08:06Z</time>
      </trkpt>
      <trkpt lat="49.04465" lon="4.07816">
        <ele>72.6</ele>
        <time>2020-06-30T17:08:07Z</time>
      </trkpt>
      <trkpt lat="49.04464" lon="4.07807">
        <ele>72.6</ele>
        <time>2020-06-30T17:08:08Z</time>
      </trkpt>
      <trkpt lat="49.04464" lon="4.07799">
        <ele>72.6</ele>
        <time>2020-06-30T17:08:09Z</time>
      </trkpt>
      <trkpt lat="49.04464" lon="4.07789">
        <ele>72.5</ele>
        <time>2020-06-30T17:08:10Z</time>
      </trkpt>
      <trkpt lat="49.04464" lon="4.07781">
        <ele>72.5</ele>
        <time>2020-06-30T17:08:11Z</time>
      </trkpt>
      <trkpt lat="49.04464" lon="4.07773">
        <ele>72.5</ele>
        <time>2020-06-30T17:08:12Z</time>
      </trkpt>
      <trkpt lat="49.04464" lon="4.07763">
        <ele>72.5</ele>
        <time>2020-06-30T17:08:13Z</time>
      </trkpt>
      <trkpt lat="49.04463" lon="4.07753">
        <ele>72.5</ele>
        <time>2020-06-30T17:08:14Z</time>
      </trkpt>
      <trkpt lat="49.04463" lon="4.07745">
        <ele>72.5</ele>
        <time>2020-06-30T17:08:15Z</time>
      </trkpt>
      <trkpt lat="49.04463" lon="4.07736">
        <ele>72.5</ele>
        <time>2020-06-30T17:08:16Z</time>
      </trkpt>
      <trkpt lat="49.04463" lon="4.07727">
        <ele>72.5</ele>
        <time>2020-06-30T17:08:17Z</time>
      </trkpt>
      <trkpt lat="49.04463" lon="4.07717">
        <ele>72.5</ele>
        <time>2020-06-30T17:08:18Z</time>
      </trkpt>
      <trkpt lat="49.04462" lon="4.07708">
        <ele>72.5</ele>
        <time>2020-06-30T17:08:19Z</time>
      </trkpt>
      <trkpt lat="49.04461" lon="4.07701">
        <ele>72.5</ele>
        <time>2020-06-30T17:08:20Z</time>
      </trkpt>
      <trkpt lat="49.04461" lon="4.07692">
        <ele>72.5</ele>
        <time>2020-06-30T17:08:21Z</time>
      </trkpt>
      <trkpt lat="49.04462" lon="4.07683">
        <ele>72.6</ele>
        <time>2020-06-30T17:08:22Z</time>
      </trkpt>
      <trkpt lat="49.04463" lon="4.07674">
        <ele>72.6</ele>
        <time>2020-06-30T17:08:23Z</time>
      </trkpt>
      <trkpt lat="49.04463" lon="4.07664">
        <ele>72.6</ele>
        <time>2020-06-30T17:08:24Z</time>
      </trkpt>
      <trkpt lat="49.04463" lon="4.07655">
        <ele>72.6</ele>
        <time>2020-06-30T17:08:25Z</time>
      </trkpt>
      <trkpt lat="49.04464" lon="4.07647">
        <ele>72.6</ele>
        <time>2020-06-30T17:08:26Z</time>
      </trkpt>
      <trkpt lat="49.04464" lon="4.07639">
        <ele>72.6</ele>
        <time>2020-06-30T17:08:27Z</time>
      </trkpt>
      <trkpt lat="49.04464" lon="4.07632">
        <ele>72.6</ele>
        <time>2020-06-30T17:08:28Z</time>
      </trkpt>
      <trkpt lat="49.04463" lon="4.07623">
        <ele>72.6</ele>
        <time>2020-06-30T17:08:29Z</time>
      </trkpt>
      <trkpt lat="49.04462" lon="4.07612">
        <ele>72.6</ele>
        <time>2020-06-30T17:08:30Z</time>
      </trkpt>
      <trkpt lat="49.04461" lon="4.07601">
        <ele>72.6</ele>
        <time>2020-06-30T17:08:31Z</time>
      </trkpt>
      <trkpt lat="49.04461" lon="4.07592">
        <ele>72.5</ele>
        <time>2020-06-30T17:08:32Z</time>
      </trkpt>
      <trkpt lat="49.0446" lon="4.07582">
        <ele>72.5</ele>
        <time>2020-06-30T17:08:33Z</time>
      </trkpt>
      <trkpt lat="49.04461" lon="4.07572">
        <ele>72.5</ele>
        <time>2020-06-30T17:08:34Z</time>
      </trkpt>
      <trkpt lat="49.04462" lon="4.07563">
        <ele>72.4</ele>
        <time>2020-06-30T17:08:35Z</time>
      </trkpt>
      <trkpt lat="49.04461" lon="4.07554">
        <ele>72.4</ele>
        <time>2020-06-30T17:08:36Z</time>
      </trkpt>
      <trkpt lat="49.04462" lon="4.07545">
        <ele>72.4</ele>
        <time>2020-06-30T17:08:37Z</time>
      </trkpt>
      <trkpt lat="49.04461" lon="4.07537">
        <ele>72.4</ele>
        <time>2020-06-30T17:08:38Z</time>
      </trkpt>
      <trkpt lat="49.04461" lon="4.07528">
        <ele>72.4</ele>
        <time>2020-06-30T17:08:39Z</time>
      </trkpt>
      <trkpt lat="49.0446" lon="4.0752">
        <ele>72.4</ele>
        <time>2020-06-30T17:08:40Z</time>
      </trkpt>
      <trkpt lat="49.0446" lon="4.07511">
        <ele>72.4</ele>
        <time>2020-06-30T17:08:41Z</time>
      </trkpt>
      <trkpt lat="49.04459" lon="4.07502">
        <ele>72.4</ele>
        <time>2020-06-30T17:08:42Z</time>
      </trkpt>
      <trkpt lat="49.04459" lon="4.07492">
        <ele>72.4</ele>
        <time>2020-06-30T17:08:43Z</time>
      </trkpt>
      <trkpt lat="49.04459" lon="4.07484">
        <ele>72.4</ele>
        <time>2020-06-30T17:08:44Z</time>
      </trkpt>
      <trkpt lat="49.0446" lon="4.07476">
        <ele>72.3</ele>
        <time>2020-06-30T17:08:45Z</time>
      </trkpt>
      <trkpt lat="49.0446" lon="4.07467">
        <ele>72.3</ele>
        <time>2020-06-30T17:08:46Z</time>
      </trkpt>
      <trkpt lat="49.0446" lon="4.0746">
        <ele>72.3</ele>
        <time>2020-06-30T17:08:47Z</time>
      </trkpt>
      <trkpt lat="49.04459" lon="4.07451">
        <ele>72.3</ele>
        <time>2020-06-30T17:08:48Z</time>
      </trkpt>
      <trkpt lat="49.04458" lon="4.07443">
        <ele>72.3</ele>
        <time>2020-06-30T17:08:49Z</time>
      </trkpt>
      <trkpt lat="49.04458" lon="4.07435">
        <ele>72.3</ele>
        <time>2020-06-30T17:08:50Z</time>
      </trkpt>
      <trkpt lat="49.04457" lon="4.07427">
        <ele>72.3</ele>
        <time>2020-06-30T17:08:51Z</time>
      </trkpt>
      <trkpt lat="49.04457" lon="4.07419">
        <ele>72.3</ele>
        <time>2020-06-30T17:08:52Z</time>
      </trkpt>
      <trkpt lat="49.04457" lon="4.0741">
        <ele>72.3</ele>
        <time>2020-06-30T17:08:53Z</time>
      </trkpt>
      <trkpt lat="49.04456" lon="4.074">
        <ele>72.3</ele>
        <time>2020-06-30T17:08:54Z</time>
      </trkpt>
      <trkpt lat="49.04456" lon="4.07391">
        <ele>72.3</ele>
        <time>2020-06-30T17:08:55Z</time>
      </trkpt>
      <trkpt lat="49.04457" lon="4.07381">
        <ele>72.3</ele>
        <time>2020-06-30T17:08:56Z</time>
      </trkpt>
      <trkpt lat="49.04457" lon="4.07371">
        <ele>72.3</ele>
        <time>2020-06-30T17:08:57Z</time>
      </trkpt>
      <trkpt lat="49.04457" lon="4.07362">
        <ele>72.3</ele>
        <time>2020-06-30T17:08:58Z</time>
      </trkpt>
      <trkpt lat="49.04457" lon="4.07352">
        <ele>72.3</ele>
        <time>2020-06-30T17:08:59Z</time>
      </trkpt>
      <trkpt lat="49.04457" lon="4.07343">
        <ele>72.3</ele>
        <time>2020-06-30T17:09:00Z</time>
      </trkpt>
      <trkpt lat="49.04456" lon="4.07334">
        <ele>72.3</ele>
        <time>2020-06-30T17:09:01Z</time>
      </trkpt>
      <trkpt lat="49.04456" lon="4.07325">
        <ele>72.3</ele>
        <time>2020-06-30T17:09:02Z</time>
      </trkpt>
      <trkpt lat="49.04456" lon="4.07315">
        <ele>72.2</ele>
        <time>2020-06-30T17:09:03Z</time>
      </trkpt>
      <trkpt lat="49.04456" lon="4.07306">
        <ele>72.2</ele>
        <time>2020-06-30T17:09:04Z</time>
      </trkpt>
      <trkpt lat="49.04456" lon="4.07296">
        <ele>72.2</ele>
        <time>2020-06-30T17:09:05Z</time>
      </trkpt>
      <trkpt lat="49.04456" lon="4.07286">
        <ele>72.2</ele>
        <time>2020-06-30T17:09:06Z</time>
      </trkpt>
      <trkpt lat="49.04456" lon="4.07275">
        <ele>72.2</ele>
        <time>2020-06-30T17:09:07Z</time>
      </trkpt>
      <trkpt lat="49.04457" lon="4.07267">
        <ele>72.2</ele>
        <time>2020-06-30T17:09:08Z</time>
      </trkpt>
      <trkpt lat="49.04457" lon="4.07257">
        <ele>72.2</ele>
        <time>2020-06-30T17:09:09Z</time>
      </trkpt>
      <trkpt lat="49.04457" lon="4.07248">
        <ele>72.2</ele>
        <time>2020-06-30T17:09:10Z</time>
      </trkpt>
      <trkpt lat="49.04457" lon="4.0724">
        <ele>72.2</ele>
        <time>2020-06-30T17:09:11Z</time>
      </trkpt>
      <trkpt lat="49.04457" lon="4.07232">
        <ele>72.2</ele>
        <time>2020-06-30T17:09:12Z</time>
      </trkpt>
      <trkpt lat="49.04457" lon="4.07222">
        <ele>72.2</ele>
        <time>2020-06-30T17:09:13Z</time>
      </trkpt>
      <trkpt lat="49.04456" lon="4.07211">
        <ele>72.2</ele>
        <time>2020-06-30T17:09:14Z</time>
      </trkpt>
      <trkpt lat="49.04456" lon="4.07206">
        <ele>72.2</ele>
        <time>2020-06-30T17:09:15Z</time>
      </trkpt>
      <trkpt lat="49.04456" lon="4.07197">
        <ele>72.2</ele>
        <time>2020-06-30T17:09:16Z</time>
      </trkpt>
      <trkpt lat="49.04455" lon="4.07186">
        <ele>72.2</ele>
        <time>2020-06-30T17:09:17Z</time>
      </trkpt>
      <trkpt lat="49.04455" lon="4.07176">
        <ele>72.2</ele>
        <time>2020-06-30T17:09:18Z</time>
      </trkpt>
      <trkpt lat="49.04455" lon="4.07167">
        <ele>72.2</ele>
        <time>2020-06-30T17:09:19Z</time>
      </trkpt>
      <trkpt lat="49.04455" lon="4.07158">
        <ele>72.2</ele>
        <time>2020-06-30T17:09:20Z</time>
      </trkpt>
      <trkpt lat="49.04455" lon="4.07148">
        <ele>72.2</ele>
        <time>2020-06-30T17:09:21Z</time>
      </trkpt>
      <trkpt lat="49.04455" lon="4.0714">
        <ele>72.2</ele>
        <time>2020-06-30T17:09:22Z</time>
      </trkpt>
      <trkpt lat="49.04456" lon="4.07131">
        <ele>72.2</ele>
        <time>2020-06-30T17:09:23Z</time>
      </trkpt>
      <trkpt lat="49.04456" lon="4.07122">
        <ele>72.2</ele>
        <time>2020-06-30T17:09:24Z</time>
      </trkpt>
      <trkpt lat="49.04455" lon="4.07112">
        <ele>72.2</ele>
        <time>2020-06-30T17:09:25Z</time>
      </trkpt>
      <trkpt lat="49.04454" lon="4.07106">
        <ele>72.2</ele>
        <time>2020-06-30T17:09:26Z</time>
      </trkpt>
      <trkpt lat="49.04453" lon="4.07096">
        <ele>72.2</ele>
        <time>2020-06-30T17:09:27Z</time>
      </trkpt>
      <trkpt lat="49.04453" lon="4.07088">
        <ele>72.2</ele>
        <time>2020-06-30T17:09:28Z</time>
      </trkpt>
      <trkpt lat="49.04453" lon="4.07077">
        <ele>72.2</ele>
        <time>2020-06-30T17:09:29Z</time>
      </trkpt>
      <trkpt lat="49.04453" lon="4.07067">
        <ele>72.2</ele>
        <time>2020-06-30T17:09:30Z</time>
      </trkpt>
      <trkpt lat="49.04453" lon="4.07057">
        <ele>72.2</ele>
        <time>2020-06-30T17:09:31Z</time>
      </trkpt>
      <trkpt lat="49.04454" lon="4.07049">
        <ele>72.2</ele>
        <time>2020-06-30T17:09:32Z</time>
      </trkpt>
      <trkpt lat="49.04454" lon="4.0704">
        <ele>72.2</ele>
        <time>2020-06-30T17:09:33Z</time>
      </trkpt>
      <trkpt lat="49.04453" lon="4.07031">
        <ele>72.3</ele>
        <time>2020-06-30T17:09:34Z</time>
      </trkpt>
      <trkpt lat="49.04452" lon="4.07023">
        <ele>72.3</ele>
        <time>2020-06-30T17:09:35Z</time>
      </trkpt>
      <trkpt lat="49.04452" lon="4.07014">
        <ele>72.3</ele>
        <time>2020-06-30T17:09:36Z</time>
      </trkpt>
      <trkpt lat="49.04452" lon="4.07007">
        <ele>72.3</ele>
        <time>2020-06-30T17:09:37Z</time>
      </trkpt>
      <trkpt lat="49.04451" lon="4.07">
        <ele>72.3</ele>
        <time>2020-06-30T17:09:38Z</time>
      </trkpt>
      <trkpt lat="49.04451" lon="4.0699">
        <ele>72.3</ele>
        <time>2020-06-30T17:09:39Z</time>
      </trkpt>
      <trkpt lat="49.0445" lon="4.06982">
        <ele>72.3</ele>
        <time>2020-06-30T17:09:40Z</time>
      </trkpt>
      <trkpt lat="49.0445" lon="4.06971">
        <ele>72.3</ele>
        <time>2020-06-30T17:09:41Z</time>
      </trkpt>
      <trkpt lat="49.0445" lon="4.06961">
        <ele>72.3</ele>
        <time>2020-06-30T17:09:42Z</time>
      </trkpt>
      <trkpt lat="49.04451" lon="4.06952">
        <ele>72.3</ele>
        <time>2020-06-30T17:09:43Z</time>
      </trkpt>
      <trkpt lat="49.04451" lon="4.06942">
        <ele>72.3</ele>
        <time>2020-06-30T17:09:44Z</time>
      </trkpt>
      <trkpt lat="49.04451" lon="4.06932">
        <ele>72.2</ele>
        <time>2020-06-30T17:09:45Z</time>
      </trkpt>
      <trkpt lat="49.04451" lon="4.06923">
        <ele>72.2</ele>
        <time>2020-06-30T17:09:46Z</time>
      </trkpt>
      <trkpt lat="49.04452" lon="4.06913">
        <ele>72.2</ele>
        <time>2020-06-30T17:09:47Z</time>
      </trkpt>
      <trkpt lat="49.04453" lon="4.06905">
        <ele>72.2</ele>
        <time>2020-06-30T17:09:48Z</time>
      </trkpt>
      <trkpt lat="49.04453" lon="4.06896">
        <ele>72.2</ele>
        <time>2020-06-30T17:09:49Z</time>
      </trkpt>
      <trkpt lat="49.04455" lon="4.06887">
        <ele>72.2</ele>
        <time>2020-06-30T17:09:50Z</time>
      </trkpt>
      <trkpt lat="49.04456" lon="4.06877">
        <ele>72.1</ele>
        <time>2020-06-30T17:09:51Z</time>
      </trkpt>
      <trkpt lat="49.04457" lon="4.06868">
        <ele>72.1</ele>
        <time>2020-06-30T17:09:52Z</time>
      </trkpt>
      <trkpt lat="49.04458" lon="4.0686">
        <ele>72.1</ele>
        <time>2020-06-30T17:09:53Z</time>
      </trkpt>
      <trkpt lat="49.04458" lon="4.0685">
        <ele>72.1</ele>
        <time>2020-06-30T17:09:54Z</time>
      </trkpt>
      <trkpt lat="49.04459" lon="4.06843">
        <ele>72.1</ele>
        <time>2020-06-30T17:09:55Z</time>
      </trkpt>
      <trkpt lat="49.04459" lon="4.06832">
        <ele>72.1</ele>
        <time>2020-06-30T17:09:56Z</time>
      </trkpt>
      <trkpt lat="49.0446" lon="4.06822">
        <ele>72.1</ele>
        <time>2020-06-30T17:09:57Z</time>
      </trkpt>
      <trkpt lat="49.04462" lon="4.06813">
        <ele>72.1</ele>
        <time>2020-06-30T17:09:58Z</time>
      </trkpt>
      <trkpt lat="49.04463" lon="4.06803">
        <ele>72.1</ele>
        <time>2020-06-30T17:09:59Z</time>
      </trkpt>
      <trkpt lat="49.04465" lon="4.06793">
        <ele>72.1</ele>
        <time>2020-06-30T17:10:00Z</time>
      </trkpt>
      <trkpt lat="49.04466" lon="4.06784">
        <ele>72.1</ele>
        <time>2020-06-30T17:10:01Z</time>
      </trkpt>
      <trkpt lat="49.04468" lon="4.06774">
        <ele>72.1</ele>
        <time>2020-06-30T17:10:02Z</time>
      </trkpt>
      <trkpt lat="49.0447" lon="4.06766">
        <ele>72.1</ele>
        <time>2020-06-30T17:10:03Z</time>
      </trkpt>
      <trkpt lat="49.04472" lon="4.06758">
        <ele>72.2</ele>
        <time>2020-06-30T17:10:04Z</time>
      </trkpt>
      <trkpt lat="49.04473" lon="4.06749">
        <ele>72.2</ele>
        <time>2020-06-30T17:10:05Z</time>
      </trkpt>
      <trkpt lat="49.04474" lon="4.06739">
        <ele>72.2</ele>
        <time>2020-06-30T17:10:06Z</time>
      </trkpt>
      <trkpt lat="49.04474" lon="4.06732">
        <ele>72.2</ele>
        <time>2020-06-30T17:10:07Z</time>
      </trkpt>
      <trkpt lat="49.04476" lon="4.06723">
        <ele>72.2</ele>
        <time>2020-06-30T17:10:08Z</time>
      </trkpt>
      <trkpt lat="49.04477" lon="4.06716">
        <ele>72.2</ele>
        <time>2020-06-30T17:10:09Z</time>
      </trkpt>
      <trkpt lat="49.04478" lon="4.06708">
        <ele>72.2</ele>
        <time>2020-06-30T17:10:10Z</time>
      </trkpt>
      <trkpt lat="49.04479" lon="4.067">
        <ele>72.3</ele>
        <time>2020-06-30T17:10:11Z</time>
      </trkpt>
      <trkpt lat="49.0448" lon="4.06693">
        <ele>72.3</ele>
        <time>2020-06-30T17:10:12Z</time>
      </trkpt>
      <trkpt lat="49.04482" lon="4.06684">
        <ele>72.3</ele>
        <time>2020-06-30T17:10:13Z</time>
      </trkpt>
      <trkpt lat="49.04484" lon="4.06677">
        <ele>72.3</ele>
        <time>2020-06-30T17:10:14Z</time>
      </trkpt>
      <trkpt lat="49.04485" lon="4.06666">
        <ele>72.3</ele>
        <time>2020-06-30T17:10:15Z</time>
      </trkpt>
      <trkpt lat="49.04486" lon="4.06655">
        <ele>72.4</ele>
        <time>2020-06-30T17:10:16Z</time>
      </trkpt>
      <trkpt lat="49.04486" lon="4.06644">
        <ele>72.4</ele>
        <time>2020-06-30T17:10:17Z</time>
      </trkpt>
      <trkpt lat="49.04487" lon="4.06634">
        <ele>72.4</ele>
        <time>2020-06-30T17:10:18Z</time>
      </trkpt>
      <trkpt lat="49.04489" lon="4.06623">
        <ele>72.4</ele>
        <time>2020-06-30T17:10:19Z</time>
      </trkpt>
      <trkpt lat="49.04491" lon="4.06613">
        <ele>72.4</ele>
        <time>2020-06-30T17:10:20Z</time>
      </trkpt>
      <trkpt lat="49.04492" lon="4.06603">
        <ele>72.4</ele>
        <time>2020-06-30T17:10:21Z</time>
      </trkpt>
      <trkpt lat="49.04493" lon="4.06594">
        <ele>72.4</ele>
        <time>2020-06-30T17:10:22Z</time>
      </trkpt>
      <trkpt lat="49.04494" lon="4.06588">
        <ele>72.4</ele>
        <time>2020-06-30T17:10:23Z</time>
      </trkpt>
      <trkpt lat="49.04494" lon="4.06577">
        <ele>72.4</ele>
        <time>2020-06-30T17:10:24Z</time>
      </trkpt>
      <trkpt lat="49.04494" lon="4.0657">
        <ele>72.4</ele>
        <time>2020-06-30T17:10:25Z</time>
      </trkpt>
      <trkpt lat="49.04494" lon="4.06559">
        <ele>72.4</ele>
        <time>2020-06-30T17:10:26Z</time>
      </trkpt>
      <trkpt lat="49.04494" lon="4.06551">
        <ele>72.4</ele>
        <time>2020-06-30T17:10:27Z</time>
      </trkpt>
      <trkpt lat="49.04493" lon="4.06541">
        <ele>72.4</ele>
        <time>2020-06-30T17:10:28Z</time>
      </trkpt>
      <trkpt lat="49.04493" lon="4.06531">
        <ele>72.4</ele>
        <time>2020-06-30T17:10:29Z</time>
      </trkpt>
      <trkpt lat="49.04494" lon="4.06522">
        <ele>72.4</ele>
        <time>2020-06-30T17:10:30Z</time>
      </trkpt>
      <trkpt lat="49.04494" lon="4.06512">
        <ele>72.4</ele>
        <time>2020-06-30T17:10:31Z</time>
      </trkpt>
      <trkpt lat="49.04494" lon="4.06502">
        <ele>72.4</ele>
        <time>2020-06-30T17:10:32Z</time>
      </trkpt>
      <trkpt lat="49.04494" lon="4.06494">
        <ele>72.4</ele>
        <time>2020-06-30T17:10:33Z</time>
      </trkpt>
      <trkpt lat="49.04495" lon="4.06486">
        <ele>72.4</ele>
        <time>2020-06-30T17:10:34Z</time>
      </trkpt>
      <trkpt lat="49.04495" lon="4.06476">
        <ele>72.4</ele>
        <time>2020-06-30T17:10:35Z</time>
      </trkpt>
      <trkpt lat="49.04496" lon="4.06466">
        <ele>72.4</ele>
        <time>2020-06-30T17:10:36Z</time>
      </trkpt>
      <trkpt lat="49.04497" lon="4.06458">
        <ele>72.3</ele>
        <time>2020-06-30T17:10:37Z</time>
      </trkpt>
      <trkpt lat="49.04497" lon="4.06447">
        <ele>72.3</ele>
        <time>2020-06-30T17:10:38Z</time>
      </trkpt>
      <trkpt lat="49.04497" lon="4.06436">
        <ele>72.3</ele>
        <time>2020-06-30T17:10:39Z</time>
      </trkpt>
      <trkpt lat="49.04498" lon="4.06429">
        <ele>72.3</ele>
        <time>2020-06-30T17:10:40Z</time>
      </trkpt>
      <trkpt lat="49.04498" lon="4.06419">
        <ele>72.2</ele>
        <time>2020-06-30T17:10:41Z</time>
      </trkpt>
      <trkpt lat="49.04498" lon="4.06408">
        <ele>72.2</ele>
        <time>2020-06-30T17:10:42Z</time>
      </trkpt>
      <trkpt lat="49.04499" lon="4.06399">
        <ele>72.2</ele>
        <time>2020-06-30T17:10:43Z</time>
      </trkpt>
      <trkpt lat="49.045" lon="4.06388">
        <ele>72.2</ele>
        <time>2020-06-30T17:10:44Z</time>
      </trkpt>
      <trkpt lat="49.045" lon="4.06377">
        <ele>72.2</ele>
        <time>2020-06-30T17:10:45Z</time>
      </trkpt>
      <trkpt lat="49.04501" lon="4.06368">
        <ele>72.1</ele>
        <time>2020-06-30T17:10:46Z</time>
      </trkpt>
      <trkpt lat="49.04501" lon="4.06358">
        <ele>72.1</ele>
        <time>2020-06-30T17:10:47Z</time>
      </trkpt>
      <trkpt lat="49.04501" lon="4.06349">
        <ele>72.1</ele>
        <time>2020-06-30T17:10:48Z</time>
      </trkpt>
      <trkpt lat="49.04501" lon="4.06341">
        <ele>72.2</ele>
        <time>2020-06-30T17:10:49Z</time>
      </trkpt>
      <trkpt lat="49.04502" lon="4.06334">
        <ele>72.2</ele>
        <time>2020-06-30T17:10:50Z</time>
      </trkpt>
      <trkpt lat="49.04502" lon="4.06325">
        <ele>72.2</ele>
        <time>2020-06-30T17:10:51Z</time>
      </trkpt>
      <trkpt lat="49.04503" lon="4.06315">
        <ele>72.2</ele>
        <time>2020-06-30T17:10:52Z</time>
      </trkpt>
      <trkpt lat="49.04503" lon="4.06307">
        <ele>72.3</ele>
        <time>2020-06-30T17:10:53Z</time>
      </trkpt>
      <trkpt lat="49.04503" lon="4.06301">
        <ele>72.3</ele>
        <time>2020-06-30T17:10:54Z</time>
      </trkpt>
      <trkpt lat="49.04503" lon="4.06295">
        <ele>72.3</ele>
        <time>2020-06-30T17:10:55Z</time>
      </trkpt>
      <trkpt lat="49.04503" lon="4.06286">
        <ele>72.3</ele>
        <time>2020-06-30T17:10:56Z</time>
      </trkpt>
      <trkpt lat="49.04503" lon="4.06281">
        <ele>72.3</ele>
        <time>2020-06-30T17:10:57Z</time>
      </trkpt>
      <trkpt lat="49.04503" lon="4.06275">
        <ele>72.3</ele>
        <time>2020-06-30T17:10:58Z</time>
      </trkpt>
      <trkpt lat="49.04504" lon="4.06268">
        <ele>72.3</ele>
        <time>2020-06-30T17:10:59Z</time>
      </trkpt>
      <trkpt lat="49.04503" lon="4.06259">
        <ele>72.3</ele>
        <time>2020-06-30T17:11:00Z</time>
      </trkpt>
      <trkpt lat="49.04503" lon="4.0625">
        <ele>72.3</ele>
        <time>2020-06-30T17:11:01Z</time>
      </trkpt>
      <trkpt lat="49.04503" lon="4.06246">
        <ele>72.3</ele>
        <time>2020-06-30T17:11:02Z</time>
      </trkpt>
      <trkpt lat="49.04504" lon="4.06238">
        <ele>72.3</ele>
        <time>2020-06-30T17:11:03Z</time>
      </trkpt>
      <trkpt lat="49.04504" lon="4.06228">
        <ele>72.3</ele>
        <time>2020-06-30T17:11:04Z</time>
      </trkpt>
      <trkpt lat="49.04504" lon="4.0622">
        <ele>72.3</ele>
        <time>2020-06-30T17:11:05Z</time>
      </trkpt>
      <trkpt lat="49.04503" lon="4.06211">
        <ele>72.3</ele>
        <time>2020-06-30T17:11:06Z</time>
      </trkpt>
      <trkpt lat="49.04503" lon="4.06202">
        <ele>72.3</ele>
        <time>2020-06-30T17:11:07Z</time>
      </trkpt>
      <trkpt lat="49.04503" lon="4.06192">
        <ele>72.3</ele>
        <time>2020-06-30T17:11:08Z</time>
      </trkpt>
      <trkpt lat="49.04503" lon="4.06183">
        <ele>72.2</ele>
        <time>2020-06-30T17:11:09Z</time>
      </trkpt>
      <trkpt lat="49.04502" lon="4.06174">
        <ele>72.2</ele>
        <time>2020-06-30T17:11:10Z</time>
      </trkpt>
      <trkpt lat="49.04501" lon="4.06164">
        <ele>72.2</ele>
        <time>2020-06-30T17:11:11Z</time>
      </trkpt>
      <trkpt lat="49.045" lon="4.06155">
        <ele>72.2</ele>
        <time>2020-06-30T17:11:12Z</time>
      </trkpt>
      <trkpt lat="49.04499" lon="4.06146">
        <ele>72.1</ele>
        <time>2020-06-30T17:11:13Z</time>
      </trkpt>
      <trkpt lat="49.04498" lon="4.06136">
        <ele>72.1</ele>
        <time>2020-06-30T17:11:14Z</time>
      </trkpt>
      <trkpt lat="49.04497" lon="4.06128">
        <ele>72.1</ele>
        <time>2020-06-30T17:11:15Z</time>
      </trkpt>
      <trkpt lat="49.04497" lon="4.06119">
        <ele>72.1</ele>
        <time>2020-06-30T17:11:16Z</time>
      </trkpt>
      <trkpt lat="49.04497" lon="4.06109">
        <ele>72.1</ele>
        <time>2020-06-30T17:11:17Z</time>
      </trkpt>
      <trkpt lat="49.04496" lon="4.06101">
        <ele>72.1</ele>
        <time>2020-06-30T17:11:18Z</time>
      </trkpt>
      <trkpt lat="49.04494" lon="4.06092">
        <ele>72.1</ele>
        <time>2020-06-30T17:11:19Z</time>
      </trkpt>
      <trkpt lat="49.04493" lon="4.06083">
        <ele>72.1</ele>
        <time>2020-06-30T17:11:20Z</time>
      </trkpt>
      <trkpt lat="49.04492" lon="4.06073">
        <ele>72.1</ele>
        <time>2020-06-30T17:11:21Z</time>
      </trkpt>
      <trkpt lat="49.0449" lon="4.06065">
        <ele>72.2</ele>
        <time>2020-06-30T17:11:22Z</time>
      </trkpt>
      <trkpt lat="49.04489" lon="4.06056">
        <ele>72.2</ele>
        <time>2020-06-30T17:11:23Z</time>
      </trkpt>
      <trkpt lat="49.04488" lon="4.06048">
        <ele>72.2</ele>
        <time>2020-06-30T17:11:24Z</time>
      </trkpt>
      <trkpt lat="49.04486" lon="4.06038">
        <ele>72.2</ele>
        <time>2020-06-30T17:11:25Z</time>
      </trkpt>
      <trkpt lat="49.04485" lon="4.0603">
        <ele>72.2</ele>
        <time>2020-06-30T17:11:26Z</time>
      </trkpt>
      <trkpt lat="49.04484" lon="4.06021">
        <ele>72.2</ele>
        <time>2020-06-30T17:11:27Z</time>
      </trkpt>
      <trkpt lat="49.04483" lon="4.06011">
        <ele>72.2</ele>
        <time>2020-06-30T17:11:28Z</time>
      </trkpt>
      <trkpt lat="49.04482" lon="4.06002">
        <ele>72.2</ele>
        <time>2020-06-30T17:11:29Z</time>
      </trkpt>
      <trkpt lat="49.0448" lon="4.05994">
        <ele>72.3</ele>
        <time>2020-06-30T17:11:30Z</time>
      </trkpt>
      <trkpt lat="49.04479" lon="4.05987">
        <ele>72.3</ele>
        <time>2020-06-30T17:11:31Z</time>
      </trkpt>
      <trkpt lat="49.04478" lon="4.05978">
        <ele>72.3</ele>
        <time>2020-06-30T17:11:32Z</time>
      </trkpt>
      <trkpt lat="49.04477" lon="4.05969">
        <ele>72.2</ele>
        <time>2020-06-30T17:11:33Z</time>
      </trkpt>
      <trkpt lat="49.04475" lon="4.05959">
        <ele>72.2</ele>
        <time>2020-06-30T17:11:34Z</time>
      </trkpt>
      <trkpt lat="49.04474" lon="4.05951">
        <ele>72.2</ele>
        <time>2020-06-30T17:11:35Z</time>
      </trkpt>
      <trkpt lat="49.04472" lon="4.05942">
        <ele>72.2</ele>
        <time>2020-06-30T17:11:36Z</time>
      </trkpt>
      <trkpt lat="49.0447" lon="4.05932">
        <ele>72.1</ele>
        <time>2020-06-30T17:11:37Z</time>
      </trkpt>
      <trkpt lat="49.04467" lon="4.05924">
        <ele>72.1</ele>
        <time>2020-06-30T17:11:38Z</time>
      </trkpt>
      <trkpt lat="49.04464" lon="4.05915">
        <ele>72.1</ele>
        <time>2020-06-30T17:11:39Z</time>
      </trkpt>
      <trkpt lat="49.04461" lon="4.05907">
        <ele>72.1</ele>
        <time>2020-06-30T17:11:40Z</time>
      </trkpt>
      <trkpt lat="49.04458" lon="4.05897">
        <ele>72.1</ele>
        <time>2020-06-30T17:11:41Z</time>
      </trkpt>
      <trkpt lat="49.04455" lon="4.05887">
        <ele>72.2</ele>
        <time>2020-06-30T17:11:42Z</time>
      </trkpt>
      <trkpt lat="49.04453" lon="4.05878">
        <ele>72.2</ele>
        <time>2020-06-30T17:11:43Z</time>
      </trkpt>
      <trkpt lat="49.04451" lon="4.05869">
        <ele>72.2</ele>
        <time>2020-06-30T17:11:44Z</time>
      </trkpt>
      <trkpt lat="49.04448" lon="4.05862">
        <ele>72.2</ele>
        <time>2020-06-30T17:11:45Z</time>
      </trkpt>
      <trkpt lat="49.04446" lon="4.05854">
        <ele>72.3</ele>
        <time>2020-06-30T17:11:46Z</time>
      </trkpt>
      <trkpt lat="49.04443" lon="4.05845">
        <ele>72.3</ele>
        <time>2020-06-30T17:11:47Z</time>
      </trkpt>
      <trkpt lat="49.04439" lon="4.05836">
        <ele>72.3</ele>
        <time>2020-06-30T17:11:48Z</time>
      </trkpt>
      <trkpt lat="49.04437" lon="4.05827">
        <ele>72.3</ele>
        <time>2020-06-30T17:11:49Z</time>
      </trkpt>
      <trkpt lat="49.04434" lon="4.05818">
        <ele>72.3</ele>
        <time>2020-06-30T17:11:50Z</time>
      </trkpt>
      <trkpt lat="49.04431" lon="4.0581">
        <ele>72.3</ele>
        <time>2020-06-30T17:11:51Z</time>
      </trkpt>
      <trkpt lat="49.04428" lon="4.05799">
        <ele>72.3</ele>
        <time>2020-06-30T17:11:52Z</time>
      </trkpt>
      <trkpt lat="49.04425" lon="4.05791">
        <ele>72.3</ele>
        <time>2020-06-30T17:11:53Z</time>
      </trkpt>
      <trkpt lat="49.04423" lon="4.05782">
        <ele>72.4</ele>
        <time>2020-06-30T17:11:54Z</time>
      </trkpt>
      <trkpt lat="49.04421" lon="4.05776">
        <ele>72.4</ele>
        <time>2020-06-30T17:11:55Z</time>
      </trkpt>
      <trkpt lat="49.04419" lon="4.05768">
        <ele>72.4</ele>
        <time>2020-06-30T17:11:56Z</time>
      </trkpt>
      <trkpt lat="49.04417" lon="4.0576">
        <ele>72.4</ele>
        <time>2020-06-30T17:11:57Z</time>
      </trkpt>
      <trkpt lat="49.04415" lon="4.05752">
        <ele>72.4</ele>
        <time>2020-06-30T17:11:58Z</time>
      </trkpt>
      <trkpt lat="49.04413" lon="4.05743">
        <ele>72.4</ele>
        <time>2020-06-30T17:11:59Z</time>
      </trkpt>
      <trkpt lat="49.04411" lon="4.05736">
        <ele>72.4</ele>
        <time>2020-06-30T17:12:00Z</time>
      </trkpt>
      <trkpt lat="49.04408" lon="4.05728">
        <ele>72.5</ele>
        <time>2020-06-30T17:12:01Z</time>
      </trkpt>
      <trkpt lat="49.04405" lon="4.05721">
        <ele>72.5</ele>
        <time>2020-06-30T17:12:02Z</time>
      </trkpt>
      <trkpt lat="49.04403" lon="4.05714">
        <ele>72.5</ele>
        <time>2020-06-30T17:12:03Z</time>
      </trkpt>
      <trkpt lat="49.04401" lon="4.05705">
        <ele>72.4</ele>
        <time>2020-06-30T17:12:04Z</time>
      </trkpt>
      <trkpt lat="49.04399" lon="4.05696">
        <ele>72.4</ele>
        <time>2020-06-30T17:12:05Z</time>
      </trkpt>
      <trkpt lat="49.04396" lon="4.05687">
        <ele>72.4</ele>
        <time>2020-06-30T17:12:06Z</time>
      </trkpt>
      <trkpt lat="49.04393" lon="4.05678">
        <ele>72.4</ele>
        <time>2020-06-30T17:12:07Z</time>
      </trkpt>
      <trkpt lat="49.04391" lon="4.05668">
        <ele>72.4</ele>
        <time>2020-06-30T17:12:08Z</time>
      </trkpt>
      <trkpt lat="49.04388" lon="4.05658">
        <ele>72.4</ele>
        <time>2020-06-30T17:12:09Z</time>
      </trkpt>
      <trkpt lat="49.04386" lon="4.0565">
        <ele>72.4</ele>
        <time>2020-06-30T17:12:10Z</time>
      </trkpt>
      <trkpt lat="49.04383" lon="4.0564">
        <ele>72.4</ele>
        <time>2020-06-30T17:12:11Z</time>
      </trkpt>
      <trkpt lat="49.0438" lon="4.05631">
        <ele>72.4</ele>
        <time>2020-06-30T17:12:12Z</time>
      </trkpt>
      <trkpt lat="49.04378" lon="4.05624">
        <ele>72.4</ele>
        <time>2020-06-30T17:12:13Z</time>
      </trkpt>
      <trkpt lat="49.04376" lon="4.05615">
        <ele>72.4</ele>
        <time>2020-06-30T17:12:14Z</time>
      </trkpt>
      <trkpt lat="49.04374" lon="4.05608">
        <ele>72.4</ele>
        <time>2020-06-30T17:12:15Z</time>
      </trkpt>
      <trkpt lat="49.04372" lon="4.05599">
        <ele>72.4</ele>
        <time>2020-06-30T17:12:16Z</time>
      </trkpt>
      <trkpt lat="49.0437" lon="4.05593">
        <ele>72.4</ele>
        <time>2020-06-30T17:12:17Z</time>
      </trkpt>
      <trkpt lat="49.04367" lon="4.05586">
        <ele>72.4</ele>
        <time>2020-06-30T17:12:18Z</time>
      </trkpt>
      <trkpt lat="49.04365" lon="4.05579">
        <ele>72.5</ele>
        <time>2020-06-30T17:12:19Z</time>
      </trkpt>
      <trkpt lat="49.04362" lon="4.05571">
        <ele>72.5</ele>
        <time>2020-06-30T17:12:20Z</time>
      </trkpt>
      <trkpt lat="49.0436" lon="4.05564">
        <ele>72.5</ele>
        <time>2020-06-30T17:12:21Z</time>
      </trkpt>
      <trkpt lat="49.04358" lon="4.05556">
        <ele>72.5</ele>
        <time>2020-06-30T17:12:22Z</time>
      </trkpt>
      <trkpt lat="49.04356" lon="4.05546">
        <ele>72.5</ele>
        <time>2020-06-30T17:12:23Z</time>
      </trkpt>
      <trkpt lat="49.04354" lon="4.05538">
        <ele>72.5</ele>
        <time>2020-06-30T17:12:24Z</time>
      </trkpt>
      <trkpt lat="49.04351" lon="4.05529">
        <ele>72.5</ele>
        <time>2020-06-30T17:12:25Z</time>
      </trkpt>
      <trkpt lat="49.04349" lon="4.05521">
        <ele>72.6</ele>
        <time>2020-06-30T17:12:26Z</time>
      </trkpt>
      <trkpt lat="49.04347" lon="4.05512">
        <ele>72.6</ele>
        <time>2020-06-30T17:12:27Z</time>
      </trkpt>
      <trkpt lat="49.04344" lon="4.05502">
        <ele>72.6</ele>
        <time>2020-06-30T17:12:28Z</time>
      </trkpt>
      <trkpt lat="49.04342" lon="4.05494">
        <ele>72.6</ele>
        <time>2020-06-30T17:12:29Z</time>
      </trkpt>
      <trkpt lat="49.04339" lon="4.05486">
        <ele>72.6</ele>
        <time>2020-06-30T17:12:30Z</time>
      </trkpt>
      <trkpt lat="49.04337" lon="4.05478">
        <ele>72.6</ele>
        <time>2020-06-30T17:12:31Z</time>
      </trkpt>
      <trkpt lat="49.04334" lon="4.0547">
        <ele>72.6</ele>
        <time>2020-06-30T17:12:32Z</time>
      </trkpt>
      <trkpt lat="49.04331" lon="4.05461">
        <ele>72.6</ele>
        <time>2020-06-30T17:12:33Z</time>
      </trkpt>
      <trkpt lat="49.04328" lon="4.05453">
        <ele>72.6</ele>
        <time>2020-06-30T17:12:34Z</time>
      </trkpt>
      <trkpt lat="49.04325" lon="4.05444">
        <ele>72.7</ele>
        <time>2020-06-30T17:12:35Z</time>
      </trkpt>
      <trkpt lat="49.04322" lon="4.05434">
        <ele>72.7</ele>
        <time>2020-06-30T17:12:36Z</time>
      </trkpt>
      <trkpt lat="49.0432" lon="4.05426">
        <ele>72.7</ele>
        <time>2020-06-30T17:12:37Z</time>
      </trkpt>
      <trkpt lat="49.04318" lon="4.05419">
        <ele>72.7</ele>
        <time>2020-06-30T17:12:38Z</time>
      </trkpt>
      <trkpt lat="49.04316" lon="4.05411">
        <ele>72.7</ele>
        <time>2020-06-30T17:12:39Z</time>
      </trkpt>
      <trkpt lat="49.04313" lon="4.05401">
        <ele>72.7</ele>
        <time>2020-06-30T17:12:40Z</time>
      </trkpt>
      <trkpt lat="49.0431" lon="4.05391">
        <ele>72.7</ele>
        <time>2020-06-30T17:12:41Z</time>
      </trkpt>
      <trkpt lat="49.04307" lon="4.05383">
        <ele>72.7</ele>
        <time>2020-06-30T17:12:42Z</time>
      </trkpt>
      <trkpt lat="49.04305" lon="4.05373">
        <ele>72.7</ele>
        <time>2020-06-30T17:12:43Z</time>
      </trkpt>
      <trkpt lat="49.04303" lon="4.05365">
        <ele>72.7</ele>
        <time>2020-06-30T17:12:44Z</time>
      </trkpt>
      <trkpt lat="49.04301" lon="4.05356">
        <ele>72.7</ele>
        <time>2020-06-30T17:12:45Z</time>
      </trkpt>
      <trkpt lat="49.04298" lon="4.05347">
        <ele>72.7</ele>
        <time>2020-06-30T17:12:46Z</time>
      </trkpt>
      <trkpt lat="49.04294" lon="4.05338">
        <ele>72.6</ele>
        <time>2020-06-30T17:12:47Z</time>
      </trkpt>
      <trkpt lat="49.04291" lon="4.05326">
        <ele>72.6</ele>
        <time>2020-06-30T17:12:48Z</time>
      </trkpt>
      <trkpt lat="49.04289" lon="4.05317">
        <ele>72.6</ele>
        <time>2020-06-30T17:12:49Z</time>
      </trkpt>
      <trkpt lat="49.04287" lon="4.0531">
        <ele>72.6</ele>
        <time>2020-06-30T17:12:50Z</time>
      </trkpt>
      <trkpt lat="49.04286" lon="4.05303">
        <ele>72.7</ele>
        <time>2020-06-30T17:12:51Z</time>
      </trkpt>
      <trkpt lat="49.04284" lon="4.05294">
        <ele>72.7</ele>
        <time>2020-06-30T17:12:52Z</time>
      </trkpt>
      <trkpt lat="49.04283" lon="4.05286">
        <ele>72.7</ele>
        <time>2020-06-30T17:12:53Z</time>
      </trkpt>
      <trkpt lat="49.04282" lon="4.05278">
        <ele>72.7</ele>
        <time>2020-06-30T17:12:54Z</time>
      </trkpt>
      <trkpt lat="49.0428" lon="4.05271">
        <ele>72.7</ele>
        <time>2020-06-30T17:12:55Z</time>
      </trkpt>
      <trkpt lat="49.04279" lon="4.05263">
        <ele>72.7</ele>
        <time>2020-06-30T17:12:56Z</time>
      </trkpt>
      <trkpt lat="49.04278" lon="4.05255">
        <ele>72.7</ele>
        <time>2020-06-30T17:12:57Z</time>
      </trkpt>
      <trkpt lat="49.04278" lon="4.05248">
        <ele>72.7</ele>
        <time>2020-06-30T17:12:58Z</time>
      </trkpt>
      <trkpt lat="49.04277" lon="4.05239">
        <ele>72.7</ele>
        <time>2020-06-30T17:12:59Z</time>
      </trkpt>
      <trkpt lat="49.04276" lon="4.05231">
        <ele>72.7</ele>
        <time>2020-06-30T17:13:00Z</time>
      </trkpt>
      <trkpt lat="49.04276" lon="4.05225">
        <ele>72.7</ele>
        <time>2020-06-30T17:13:01Z</time>
      </trkpt>
      <trkpt lat="49.04275" lon="4.05217">
        <ele>72.7</ele>
        <time>2020-06-30T17:13:02Z</time>
      </trkpt>
      <trkpt lat="49.04274" lon="4.05208">
        <ele>72.7</ele>
        <time>2020-06-30T17:13:03Z</time>
      </trkpt>
      <trkpt lat="49.04274" lon="4.05198">
        <ele>72.7</ele>
        <time>2020-06-30T17:13:04Z</time>
      </trkpt>
      <trkpt lat="49.04274" lon="4.05191">
        <ele>72.6</ele>
        <time>2020-06-30T17:13:05Z</time>
      </trkpt>
      <trkpt lat="49.04274" lon="4.05183">
        <ele>72.6</ele>
        <time>2020-06-30T17:13:06Z</time>
      </trkpt>
      <trkpt lat="49.04273" lon="4.05174">
        <ele>72.6</ele>
        <time>2020-06-30T17:13:07Z</time>
      </trkpt>
      <trkpt lat="49.04272" lon="4.05164">
        <ele>72.6</ele>
        <time>2020-06-30T17:13:08Z</time>
      </trkpt>
      <trkpt lat="49.04271" lon="4.05154">
        <ele>72.5</ele>
        <time>2020-06-30T17:13:09Z</time>
      </trkpt>
      <trkpt lat="49.0427" lon="4.05145">
        <ele>72.5</ele>
        <time>2020-06-30T17:13:10Z</time>
      </trkpt>
      <trkpt lat="49.04269" lon="4.05137">
        <ele>72.5</ele>
        <time>2020-06-30T17:13:11Z</time>
      </trkpt>
      <trkpt lat="49.04268" lon="4.0513">
        <ele>72.4</ele>
        <time>2020-06-30T17:13:12Z</time>
      </trkpt>
      <trkpt lat="49.04268" lon="4.05123">
        <ele>72.4</ele>
        <time>2020-06-30T17:13:13Z</time>
      </trkpt>
      <trkpt lat="49.04267" lon="4.05114">
        <ele>72.4</ele>
        <time>2020-06-30T17:13:14Z</time>
      </trkpt>
      <trkpt lat="49.04267" lon="4.05105">
        <ele>72.4</ele>
        <time>2020-06-30T17:13:15Z</time>
      </trkpt>
      <trkpt lat="49.04266" lon="4.05095">
        <ele>72.3</ele>
        <time>2020-06-30T17:13:16Z</time>
      </trkpt>
      <trkpt lat="49.04266" lon="4.05086">
        <ele>72.3</ele>
        <time>2020-06-30T17:13:17Z</time>
      </trkpt>
      <trkpt lat="49.04265" lon="4.05078">
        <ele>72.2</ele>
        <time>2020-06-30T17:13:18Z</time>
      </trkpt>
      <trkpt lat="49.04264" lon="4.05068">
        <ele>72.1</ele>
        <time>2020-06-30T17:13:19Z</time>
      </trkpt>
      <trkpt lat="49.04263" lon="4.0506">
        <ele>72.1</ele>
        <time>2020-06-30T17:13:20Z</time>
      </trkpt>
      <trkpt lat="49.04261" lon="4.05051">
        <ele>71.9</ele>
        <time>2020-06-30T17:13:21Z</time>
      </trkpt>
      <trkpt lat="49.04259" lon="4.05042">
        <ele>71.8</ele>
        <time>2020-06-30T17:13:22Z</time>
      </trkpt>
      <trkpt lat="49.04258" lon="4.05034">
        <ele>71.7</ele>
        <time>2020-06-30T17:13:23Z</time>
      </trkpt>
      <trkpt lat="49.04256" lon="4.05022">
        <ele>71.5</ele>
        <time>2020-06-30T17:13:24Z</time>
      </trkpt>
      <trkpt lat="49.04255" lon="4.05011">
        <ele>71.4</ele>
        <time>2020-06-30T17:13:25Z</time>
      </trkpt>
      <trkpt lat="49.04254" lon="4.05001">
        <ele>71.3</ele>
        <time>2020-06-30T17:13:26Z</time>
      </trkpt>
      <trkpt lat="49.04252" lon="4.04989">
        <ele>71.2</ele>
        <time>2020-06-30T17:13:27Z</time>
      </trkpt>
      <trkpt lat="49.04251" lon="4.04978">
        <ele>71.1</ele>
        <time>2020-06-30T17:13:28Z</time>
      </trkpt>
      <trkpt lat="49.04249" lon="4.04968">
        <ele>71</ele>
        <time>2020-06-30T17:13:29Z</time>
      </trkpt>
      <trkpt lat="49.04247" lon="4.04957">
        <ele>71</ele>
        <time>2020-06-30T17:13:30Z</time>
      </trkpt>
      <trkpt lat="49.04244" lon="4.04946">
        <ele>70.9</ele>
        <time>2020-06-30T17:13:31Z</time>
      </trkpt>
      <trkpt lat="49.04242" lon="4.04935">
        <ele>70.9</ele>
        <time>2020-06-30T17:13:32Z</time>
      </trkpt>
      <trkpt lat="49.0424" lon="4.04926">
        <ele>70.9</ele>
        <time>2020-06-30T17:13:33Z</time>
      </trkpt>
      <trkpt lat="49.04237" lon="4.04917">
        <ele>70.9</ele>
        <time>2020-06-30T17:13:34Z</time>
      </trkpt>
      <trkpt lat="49.04235" lon="4.04908">
        <ele>70.9</ele>
        <time>2020-06-30T17:13:35Z</time>
      </trkpt>
      <trkpt lat="49.04232" lon="4.04899">
        <ele>70.9</ele>
        <time>2020-06-30T17:13:36Z</time>
      </trkpt>
      <trkpt lat="49.04229" lon="4.04889">
        <ele>70.9</ele>
        <time>2020-06-30T17:13:37Z</time>
      </trkpt>
      <trkpt lat="49.04226" lon="4.0488">
        <ele>70.9</ele>
        <time>2020-06-30T17:13:38Z</time>
      </trkpt>
      <trkpt lat="49.04224" lon="4.04871">
        <ele>71</ele>
        <time>2020-06-30T17:13:39Z</time>
      </trkpt>
      <trkpt lat="49.04223" lon="4.04862">
        <ele>70.9</ele>
        <time>2020-06-30T17:13:40Z</time>
      </trkpt>
      <trkpt lat="49.04221" lon="4.04853">
        <ele>70.9</ele>
        <time>2020-06-30T17:13:41Z</time>
      </trkpt>
      <trkpt lat="49.04219" lon="4.04844">
        <ele>70.9</ele>
        <time>2020-06-30T17:13:42Z</time>
      </trkpt>
      <trkpt lat="49.04217" lon="4.04836">
        <ele>71</ele>
        <time>2020-06-30T17:13:43Z</time>
      </trkpt>
      <trkpt lat="49.04215" lon="4.04828">
        <ele>71</ele>
        <time>2020-06-30T17:13:44Z</time>
      </trkpt>
      <trkpt lat="49.04214" lon="4.04818">
        <ele>71.1</ele>
        <time>2020-06-30T17:13:45Z</time>
      </trkpt>
      <trkpt lat="49.04212" lon="4.04809">
        <ele>71.2</ele>
        <time>2020-06-30T17:13:46Z</time>
      </trkpt>
      <trkpt lat="49.04211" lon="4.04799">
        <ele>71.3</ele>
        <time>2020-06-30T17:13:47Z</time>
      </trkpt>
      <trkpt lat="49.04211" lon="4.04791">
        <ele>71.3</ele>
        <time>2020-06-30T17:13:48Z</time>
      </trkpt>
      <trkpt lat="49.0421" lon="4.04782">
        <ele>71.4</ele>
        <time>2020-06-30T17:13:49Z</time>
      </trkpt>
      <trkpt lat="49.0421" lon="4.04774">
        <ele>71.4</ele>
        <time>2020-06-30T17:13:50Z</time>
      </trkpt>
      <trkpt lat="49.0421" lon="4.04766">
        <ele>71.5</ele>
        <time>2020-06-30T17:13:51Z</time>
      </trkpt>
      <trkpt lat="49.04209" lon="4.04758">
        <ele>71.5</ele>
        <time>2020-06-30T17:13:52Z</time>
      </trkpt>
      <trkpt lat="49.04209" lon="4.0475">
        <ele>71.5</ele>
        <time>2020-06-30T17:13:53Z</time>
      </trkpt>
      <trkpt lat="49.04209" lon="4.04742">
        <ele>71.5</ele>
        <time>2020-06-30T17:13:54Z</time>
      </trkpt>
      <trkpt lat="49.04207" lon="4.04734">
        <ele>71.5</ele>
        <time>2020-06-30T17:13:55Z</time>
      </trkpt>
      <trkpt lat="49.04207" lon="4.04726">
        <ele>71.5</ele>
        <time>2020-06-30T17:13:56Z</time>
      </trkpt>
      <trkpt lat="49.04207" lon="4.04718">
        <ele>71.5</ele>
        <time>2020-06-30T17:13:57Z</time>
      </trkpt>
      <trkpt lat="49.04208" lon="4.0471">
        <ele>71.5</ele>
        <time>2020-06-30T17:13:58Z</time>
      </trkpt>
      <trkpt lat="49.04208" lon="4.04702">
        <ele>71.5</ele>
        <time>2020-06-30T17:13:59Z</time>
      </trkpt>
      <trkpt lat="49.04208" lon="4.04695">
        <ele>71.6</ele>
        <time>2020-06-30T17:14:00Z</time>
      </trkpt>
      <trkpt lat="49.04208" lon="4.04688">
        <ele>71.6</ele>
        <time>2020-06-30T17:14:01Z</time>
      </trkpt>
      <trkpt lat="49.04208" lon="4.0468">
        <ele>71.6</ele>
        <time>2020-06-30T17:14:02Z</time>
      </trkpt>
      <trkpt lat="49.04208" lon="4.04672">
        <ele>71.6</ele>
        <time>2020-06-30T17:14:03Z</time>
      </trkpt>
      <trkpt lat="49.04209" lon="4.04663">
        <ele>71.6</ele>
        <time>2020-06-30T17:14:04Z</time>
      </trkpt>
      <trkpt lat="49.04208" lon="4.04654">
        <ele>71.6</ele>
        <time>2020-06-30T17:14:05Z</time>
      </trkpt>
      <trkpt lat="49.04209" lon="4.04644">
        <ele>71.6</ele>
        <time>2020-06-30T17:14:06Z</time>
      </trkpt>
      <trkpt lat="49.04209" lon="4.04636">
        <ele>71.6</ele>
        <time>2020-06-30T17:14:07Z</time>
      </trkpt>
      <trkpt lat="49.0421" lon="4.04628">
        <ele>71.5</ele>
        <time>2020-06-30T17:14:08Z</time>
      </trkpt>
      <trkpt lat="49.0421" lon="4.04621">
        <ele>71.5</ele>
        <time>2020-06-30T17:14:09Z</time>
      </trkpt>
      <trkpt lat="49.0421" lon="4.04612">
        <ele>71.5</ele>
        <time>2020-06-30T17:14:10Z</time>
      </trkpt>
      <trkpt lat="49.0421" lon="4.04601">
        <ele>71.4</ele>
        <time>2020-06-30T17:14:11Z</time>
      </trkpt>
      <trkpt lat="49.04211" lon="4.04591">
        <ele>71.4</ele>
        <time>2020-06-30T17:14:12Z</time>
      </trkpt>
      <trkpt lat="49.04212" lon="4.04582">
        <ele>71.4</ele>
        <time>2020-06-30T17:14:13Z</time>
      </trkpt>
      <trkpt lat="49.04213" lon="4.04574">
        <ele>71.4</ele>
        <time>2020-06-30T17:14:14Z</time>
      </trkpt>
      <trkpt lat="49.04214" lon="4.04565">
        <ele>71.4</ele>
        <time>2020-06-30T17:14:15Z</time>
      </trkpt>
      <trkpt lat="49.04214" lon="4.04556">
        <ele>71.4</ele>
        <time>2020-06-30T17:14:16Z</time>
      </trkpt>
      <trkpt lat="49.04213" lon="4.04546">
        <ele>71.4</ele>
        <time>2020-06-30T17:14:17Z</time>
      </trkpt>
      <trkpt lat="49.04214" lon="4.04537">
        <ele>71.4</ele>
        <time>2020-06-30T17:14:18Z</time>
      </trkpt>
      <trkpt lat="49.04214" lon="4.04528">
        <ele>71.4</ele>
        <time>2020-06-30T17:14:19Z</time>
      </trkpt>
      <trkpt lat="49.04215" lon="4.04519">
        <ele>71.4</ele>
        <time>2020-06-30T17:14:20Z</time>
      </trkpt>
      <trkpt lat="49.04214" lon="4.04509">
        <ele>71.3</ele>
        <time>2020-06-30T17:14:21Z</time>
      </trkpt>
      <trkpt lat="49.04214" lon="4.04498">
        <ele>71.3</ele>
        <time>2020-06-30T17:14:22Z</time>
      </trkpt>
      <trkpt lat="49.04214" lon="4.04488">
        <ele>71.2</ele>
        <time>2020-06-30T17:14:23Z</time>
      </trkpt>
      <trkpt lat="49.04214" lon="4.04477">
        <ele>71.2</ele>
        <time>2020-06-30T17:14:24Z</time>
      </trkpt>
      <trkpt lat="49.04214" lon="4.04466">
        <ele>71.1</ele>
        <time>2020-06-30T17:14:25Z</time>
      </trkpt>
      <trkpt lat="49.04214" lon="4.04456">
        <ele>71.1</ele>
        <time>2020-06-30T17:14:26Z</time>
      </trkpt>
      <trkpt lat="49.04215" lon="4.04445">
        <ele>71.1</ele>
        <time>2020-06-30T17:14:27Z</time>
      </trkpt>
      <trkpt lat="49.04214" lon="4.04435">
        <ele>71.2</ele>
        <time>2020-06-30T17:14:28Z</time>
      </trkpt>
      <trkpt lat="49.04214" lon="4.04427">
        <ele>71.2</ele>
        <time>2020-06-30T17:14:29Z</time>
      </trkpt>
      <trkpt lat="49.04215" lon="4.04416">
        <ele>71.2</ele>
        <time>2020-06-30T17:14:30Z</time>
      </trkpt>
      <trkpt lat="49.04215" lon="4.04405">
        <ele>71.3</ele>
        <time>2020-06-30T17:14:31Z</time>
      </trkpt>
      <trkpt lat="49.04215" lon="4.04398">
        <ele>71.3</ele>
        <time>2020-06-30T17:14:32Z</time>
      </trkpt>
      <trkpt lat="49.04215" lon="4.04385">
        <ele>71.3</ele>
        <time>2020-06-30T17:14:33Z</time>
      </trkpt>
      <trkpt lat="49.04216" lon="4.04374">
        <ele>71.3</ele>
        <time>2020-06-30T17:14:34Z</time>
      </trkpt>
      <trkpt lat="49.04216" lon="4.04365">
        <ele>71.3</ele>
        <time>2020-06-30T17:14:35Z</time>
      </trkpt>
      <trkpt lat="49.04216" lon="4.04356">
        <ele>71.4</ele>
        <time>2020-06-30T17:14:36Z</time>
      </trkpt>
      <trkpt lat="49.04216" lon="4.04347">
        <ele>71.4</ele>
        <time>2020-06-30T17:14:37Z</time>
      </trkpt>
      <trkpt lat="49.04216" lon="4.04337">
        <ele>71.4</ele>
        <time>2020-06-30T17:14:38Z</time>
      </trkpt>
      <trkpt lat="49.04217" lon="4.04329">
        <ele>71.4</ele>
        <time>2020-06-30T17:14:39Z</time>
      </trkpt>
      <trkpt lat="49.04217" lon="4.0432">
        <ele>71.5</ele>
        <time>2020-06-30T17:14:40Z</time>
      </trkpt>
      <trkpt lat="49.04217" lon="4.04311">
        <ele>71.5</ele>
        <time>2020-06-30T17:14:41Z</time>
      </trkpt>
      <trkpt lat="49.04217" lon="4.043">
        <ele>71.6</ele>
        <time>2020-06-30T17:14:42Z</time>
      </trkpt>
      <trkpt lat="49.04217" lon="4.0429">
        <ele>71.7</ele>
        <time>2020-06-30T17:14:43Z</time>
      </trkpt>
      <trkpt lat="49.04217" lon="4.0428">
        <ele>71.8</ele>
        <time>2020-06-30T17:14:44Z</time>
      </trkpt>
      <trkpt lat="49.04216" lon="4.04272">
        <ele>71.9</ele>
        <time>2020-06-30T17:14:45Z</time>
      </trkpt>
      <trkpt lat="49.04217" lon="4.04265">
        <ele>71.9</ele>
        <time>2020-06-30T17:14:46Z</time>
      </trkpt>
      <trkpt lat="49.04216" lon="4.04255">
        <ele>72</ele>
        <time>2020-06-30T17:14:47Z</time>
      </trkpt>
      <trkpt lat="49.04216" lon="4.04245">
        <ele>72.1</ele>
        <time>2020-06-30T17:14:48Z</time>
      </trkpt>
      <trkpt lat="49.04215" lon="4.04236">
        <ele>72.2</ele>
        <time>2020-06-30T17:14:49Z</time>
      </trkpt>
      <trkpt lat="49.04214" lon="4.04228">
        <ele>72.3</ele>
        <time>2020-06-30T17:14:50Z</time>
      </trkpt>
      <trkpt lat="49.04213" lon="4.0422">
        <ele>72.4</ele>
        <time>2020-06-30T17:14:51Z</time>
      </trkpt>
      <trkpt lat="49.04213" lon="4.04212">
        <ele>72.4</ele>
        <time>2020-06-30T17:14:52Z</time>
      </trkpt>
      <trkpt lat="49.04215" lon="4.04205">
        <ele>72.5</ele>
        <time>2020-06-30T17:14:53Z</time>
      </trkpt>
      <trkpt lat="49.04217" lon="4.04198">
        <ele>72.6</ele>
        <time>2020-06-30T17:14:54Z</time>
      </trkpt>
      <trkpt lat="49.04219" lon="4.0419">
        <ele>72.6</ele>
        <time>2020-06-30T17:14:55Z</time>
      </trkpt>
      <trkpt lat="49.0422" lon="4.04184">
        <ele>72.7</ele>
        <time>2020-06-30T17:14:56Z</time>
      </trkpt>
      <trkpt lat="49.04222" lon="4.04177">
        <ele>72.8</ele>
        <time>2020-06-30T17:14:57Z</time>
      </trkpt>
      <trkpt lat="49.04223" lon="4.04172">
        <ele>72.9</ele>
        <time>2020-06-30T17:14:58Z</time>
      </trkpt>
      <trkpt lat="49.04225" lon="4.04165">
        <ele>73.1</ele>
        <time>2020-06-30T17:14:59Z</time>
      </trkpt>
      <trkpt lat="49.04227" lon="4.0416">
        <ele>73.2</ele>
        <time>2020-06-30T17:15:00Z</time>
      </trkpt>
      <trkpt lat="49.04228" lon="4.04155">
        <ele>73.3</ele>
        <time>2020-06-30T17:15:01Z</time>
      </trkpt>
      <trkpt lat="49.0423" lon="4.04152">
        <ele>73.5</ele>
        <time>2020-06-30T17:15:02Z</time>
      </trkpt>
      <trkpt lat="49.04233" lon="4.04147">
        <ele>73.6</ele>
        <time>2020-06-30T17:15:03Z</time>
      </trkpt>
      <trkpt lat="49.04233" lon="4.04146">
        <ele>73.7</ele>
        <time>2020-06-30T17:15:04Z</time>
      </trkpt>
      <trkpt lat="49.04234" lon="4.04142">
        <ele>73.8</ele>
        <time>2020-06-30T17:15:05Z</time>
      </trkpt>
      <trkpt lat="49.04237" lon="4.04138">
        <ele>74</ele>
        <time>2020-06-30T17:15:06Z</time>
      </trkpt>
      <trkpt lat="49.04238" lon="4.04136">
        <ele>74.1</ele>
        <time>2020-06-30T17:15:07Z</time>
      </trkpt>
      <trkpt lat="49.04241" lon="4.04134">
        <ele>74.2</ele>
        <time>2020-06-30T17:15:08Z</time>
      </trkpt>
      <trkpt lat="49.04244" lon="4.04133">
        <ele>74.4</ele>
        <time>2020-06-30T17:15:09Z</time>
      </trkpt>
      <trkpt lat="49.04248" lon="4.04133">
        <ele>74.5</ele>
        <time>2020-06-30T17:15:10Z</time>
      </trkpt>
      <trkpt lat="49.04249" lon="4.04134">
        <ele>74.5</ele>
        <time>2020-06-30T17:15:11Z</time>
      </trkpt>
      <trkpt lat="49.04253" lon="4.04135">
        <ele>74.4</ele>
        <time>2020-06-30T17:15:12Z</time>
      </trkpt>
      <trkpt lat="49.04254" lon="4.04135">
        <ele>74.4</ele>
        <time>2020-06-30T17:15:13Z</time>
      </trkpt>
      <trkpt lat="49.04257" lon="4.04136">
        <ele>74.4</ele>
        <time>2020-06-30T17:15:14Z</time>
      </trkpt>
      <trkpt lat="49.04262" lon="4.04136">
        <ele>74.3</ele>
        <time>2020-06-30T17:15:15Z</time>
      </trkpt>
      <trkpt lat="49.04265" lon="4.04138">
        <ele>74.3</ele>
        <time>2020-06-30T17:15:16Z</time>
      </trkpt>
      <trkpt lat="49.04269" lon="4.04141">
        <ele>74.3</ele>
        <time>2020-06-30T17:15:17Z</time>
      </trkpt>
      <trkpt lat="49.04272" lon="4.04143">
        <ele>74.3</ele>
        <time>2020-06-30T17:15:18Z</time>
      </trkpt>
      <trkpt lat="49.04276" lon="4.04144">
        <ele>74.2</ele>
        <time>2020-06-30T17:15:19Z</time>
      </trkpt>
      <trkpt lat="49.04281" lon="4.04146">
        <ele>74.2</ele>
        <time>2020-06-30T17:15:20Z</time>
      </trkpt>
      <trkpt lat="49.04286" lon="4.04148">
        <ele>74.2</ele>
        <time>2020-06-30T17:15:21Z</time>
      </trkpt>
      <trkpt lat="49.0429" lon="4.04149">
        <ele>74.2</ele>
        <time>2020-06-30T17:15:22Z</time>
      </trkpt>
      <trkpt lat="49.04293" lon="4.04151">
        <ele>74</ele>
        <time>2020-06-30T17:15:23Z</time>
      </trkpt>
      <trkpt lat="49.04295" lon="4.04151">
        <ele>73.9</ele>
        <time>2020-06-30T17:15:24Z</time>
      </trkpt>
      <trkpt lat="49.04296" lon="4.0415">
        <ele>73.8</ele>
        <time>2020-06-30T17:15:25Z</time>
      </trkpt>
      <trkpt lat="49.04296" lon="4.0415">
        <ele>73.8</ele>
        <time>2020-06-30T17:15:26Z</time>
      </trkpt>
      <trkpt lat="49.04296" lon="4.0415">
        <ele>73.8</ele>
        <time>2020-06-30T17:15:27Z</time>
      </trkpt>
      <trkpt lat="49.04297" lon="4.0415">
        <ele>73.8</ele>
        <time>2020-06-30T17:15:28Z</time>
      </trkpt>
      <trkpt lat="49.04297" lon="4.0415">
        <ele>73.8</ele>
        <time>2020-06-30T17:15:29Z</time>
      </trkpt>
      <trkpt lat="49.04298" lon="4.0415">
        <ele>73.7</ele>
        <time>2020-06-30T17:15:30Z</time>
      </trkpt>
      <trkpt lat="49.04299" lon="4.0415">
        <ele>73.7</ele>
        <time>2020-06-30T17:15:31Z</time>
      </trkpt>
      <trkpt lat="49.043" lon="4.04151">
        <ele>73.6</ele>
        <time>2020-06-30T17:15:32Z</time>
      </trkpt>
      <trkpt lat="49.043" lon="4.04154">
        <ele>73.6</ele>
        <time>2020-06-30T17:15:33Z</time>
      </trkpt>
      <trkpt lat="49.043" lon="4.04156">
        <ele>73.5</ele>
        <time>2020-06-30T17:15:34Z</time>
      </trkpt>
      <trkpt lat="49.04299" lon="4.04159">
        <ele>73.4</ele>
        <time>2020-06-30T17:15:35Z</time>
      </trkpt>
      <trkpt lat="49.04299" lon="4.04162">
        <ele>73.3</ele>
        <time>2020-06-30T17:15:54Z</time>
      </trkpt>
      <trkpt lat="49.04298" lon="4.04165">
        <ele>73.2</ele>
        <time>2020-06-30T17:15:55Z</time>
      </trkpt>
      <trkpt lat="49.04296" lon="4.04168">
        <ele>73</ele>
        <time>2020-06-30T17:15:56Z</time>
      </trkpt>
      <trkpt lat="49.04295" lon="4.04169">
        <ele>73</ele>
        <time>2020-06-30T17:15:57Z</time>
      </trkpt>
      <trkpt lat="49.04293" lon="4.04173">
        <ele>72.9</ele>
        <time>2020-06-30T17:15:58Z</time>
      </trkpt>
      <trkpt lat="49.04292" lon="4.04177">
        <ele>72.7</ele>
        <time>2020-06-30T17:15:59Z</time>
      </trkpt>
      <trkpt lat="49.0429" lon="4.0418">
        <ele>72.6</ele>
        <time>2020-06-30T17:16:00Z</time>
      </trkpt>
      <trkpt lat="49.04291" lon="4.04182">
        <ele>72.5</ele>
        <time>2020-06-30T17:16:01Z</time>
      </trkpt>
      <trkpt lat="49.04293" lon="4.04181">
        <ele>72.4</ele>
        <time>2020-06-30T17:16:02Z</time>
      </trkpt>
      <trkpt lat="49.04294" lon="4.04179">
        <ele>72.3</ele>
        <time>2020-06-30T17:16:03Z</time>
      </trkpt>
      <trkpt lat="49.04296" lon="4.04177">
        <ele>72.2</ele>
        <time>2020-06-30T17:16:04Z</time>
      </trkpt>
      <trkpt lat="49.04299" lon="4.04172">
        <ele>70.8</ele>
        <time>2020-06-30T17:16:05Z</time>
      </trkpt>
      <trkpt lat="49.043" lon="4.0417">
        <ele>70.8</ele>
        <time>2020-06-30T17:16:06Z</time>
      </trkpt>
      <trkpt lat="49.04303" lon="4.04167">
        <ele>70.8</ele>
        <time>2020-06-30T17:16:07Z</time>
      </trkpt>
      <trkpt lat="49.04306" lon="4.04163">
        <ele>70.7</ele>
        <time>2020-06-30T17:16:08Z</time>
      </trkpt>
      <trkpt lat="49.04309" lon="4.04159">
        <ele>70.7</ele>
        <time>2020-06-30T17:16:09Z</time>
      </trkpt>
      <trkpt lat="49.04312" lon="4.04154">
        <ele>70.7</ele>
        <time>2020-06-30T17:16:10Z</time>
      </trkpt>
      <trkpt lat="49.04313" lon="4.0415">
        <ele>70.7</ele>
        <time>2020-06-30T17:16:11Z</time>
      </trkpt>
      <trkpt lat="49.04316" lon="4.04145">
        <ele>70.7</ele>
        <time>2020-06-30T17:16:12Z</time>
      </trkpt>
      <trkpt lat="49.04316" lon="4.04143">
        <ele>70.7</ele>
        <time>2020-06-30T17:16:13Z</time>
      </trkpt>
      <trkpt lat="49.04317" lon="4.04138">
        <ele>70.7</ele>
        <time>2020-06-30T17:16:14Z</time>
      </trkpt>
      <trkpt lat="49.04317" lon="4.04133">
        <ele>70.7</ele>
        <time>2020-06-30T17:16:15Z</time>
      </trkpt>
      <trkpt lat="49.04317" lon="4.04125">
        <ele>70.7</ele>
        <time>2020-06-30T17:16:16Z</time>
      </trkpt>
      <trkpt lat="49.04316" lon="4.04118">
        <ele>70.7</ele>
        <time>2020-06-30T17:16:17Z</time>
      </trkpt>
      <trkpt lat="49.04315" lon="4.0411">
        <ele>70.8</ele>
        <time>2020-06-30T17:16:18Z</time>
      </trkpt>
      <trkpt lat="49.04314" lon="4.04102">
        <ele>70.8</ele>
        <time>2020-06-30T17:16:19Z</time>
      </trkpt>
      <trkpt lat="49.04313" lon="4.04094">
        <ele>70.9</ele>
        <time>2020-06-30T17:16:20Z</time>
      </trkpt>
      <trkpt lat="49.04312" lon="4.04086">
        <ele>70.9</ele>
        <time>2020-06-30T17:16:21Z</time>
      </trkpt>
      <trkpt lat="49.04311" lon="4.04079">
        <ele>70.9</ele>
        <time>2020-06-30T17:16:22Z</time>
      </trkpt>
      <trkpt lat="49.0431" lon="4.04073">
        <ele>70.9</ele>
        <time>2020-06-30T17:16:23Z</time>
      </trkpt>
      <trkpt lat="49.0431" lon="4.04066">
        <ele>71</ele>
        <time>2020-06-30T17:16:24Z</time>
      </trkpt>
      <trkpt lat="49.04311" lon="4.04059">
        <ele>71</ele>
        <time>2020-06-30T17:16:25Z</time>
      </trkpt>
      <trkpt lat="49.0431" lon="4.04052">
        <ele>71</ele>
        <time>2020-06-30T17:16:26Z</time>
      </trkpt>
      <trkpt lat="49.0431" lon="4.04046">
        <ele>71</ele>
        <time>2020-06-30T17:16:27Z</time>
      </trkpt>
      <trkpt lat="49.0431" lon="4.04038">
        <ele>71</ele>
        <time>2020-06-30T17:16:28Z</time>
      </trkpt>
      <trkpt lat="49.04311" lon="4.04031">
        <ele>71</ele>
        <time>2020-06-30T17:16:29Z</time>
      </trkpt>
      <trkpt lat="49.04312" lon="4.04023">
        <ele>71</ele>
        <time>2020-06-30T17:16:30Z</time>
      </trkpt>
      <trkpt lat="49.04313" lon="4.04015">
        <ele>71</ele>
        <time>2020-06-30T17:16:31Z</time>
      </trkpt>
      <trkpt lat="49.04314" lon="4.04007">
        <ele>71</ele>
        <time>2020-06-30T17:16:32Z</time>
      </trkpt>
      <trkpt lat="49.04314" lon="4.03998">
        <ele>71</ele>
        <time>2020-06-30T17:16:33Z</time>
      </trkpt>
      <trkpt lat="49.04315" lon="4.03991">
        <ele>71</ele>
        <time>2020-06-30T17:16:34Z</time>
      </trkpt>
      <trkpt lat="49.04315" lon="4.03984">
        <ele>71</ele>
        <time>2020-06-30T17:16:35Z</time>
      </trkpt>
      <trkpt lat="49.04316" lon="4.03976">
        <ele>71</ele>
        <time>2020-06-30T17:16:36Z</time>
      </trkpt>
      <trkpt lat="49.04317" lon="4.03969">
        <ele>71</ele>
        <time>2020-06-30T17:16:37Z</time>
      </trkpt>
      <trkpt lat="49.04317" lon="4.03961">
        <ele>71</ele>
        <time>2020-06-30T17:16:38Z</time>
      </trkpt>
      <trkpt lat="49.04318" lon="4.03952">
        <ele>71</ele>
        <time>2020-06-30T17:16:39Z</time>
      </trkpt>
      <trkpt lat="49.04318" lon="4.03944">
        <ele>70.9</ele>
        <time>2020-06-30T17:16:40Z</time>
      </trkpt>
      <trkpt lat="49.04318" lon="4.03936">
        <ele>70.9</ele>
        <time>2020-06-30T17:16:41Z</time>
      </trkpt>
      <trkpt lat="49.04318" lon="4.03928">
        <ele>70.9</ele>
        <time>2020-06-30T17:16:42Z</time>
      </trkpt>
      <trkpt lat="49.04319" lon="4.03919">
        <ele>70.9</ele>
        <time>2020-06-30T17:16:43Z</time>
      </trkpt>
      <trkpt lat="49.04319" lon="4.03911">
        <ele>70.9</ele>
        <time>2020-06-30T17:16:44Z</time>
      </trkpt>
      <trkpt lat="49.0432" lon="4.03902">
        <ele>70.8</ele>
        <time>2020-06-30T17:16:45Z</time>
      </trkpt>
      <trkpt lat="49.04321" lon="4.03892">
        <ele>70.8</ele>
        <time>2020-06-30T17:16:46Z</time>
      </trkpt>
      <trkpt lat="49.04322" lon="4.03882">
        <ele>70.7</ele>
        <time>2020-06-30T17:16:47Z</time>
      </trkpt>
      <trkpt lat="49.04324" lon="4.03872">
        <ele>70.7</ele>
        <time>2020-06-30T17:16:48Z</time>
      </trkpt>
      <trkpt lat="49.04327" lon="4.03862">
        <ele>70.7</ele>
        <time>2020-06-30T17:16:49Z</time>
      </trkpt>
      <trkpt lat="49.04329" lon="4.03854">
        <ele>70.7</ele>
        <time>2020-06-30T17:16:50Z</time>
      </trkpt>
      <trkpt lat="49.04331" lon="4.03846">
        <ele>70.8</ele>
        <time>2020-06-30T17:16:51Z</time>
      </trkpt>
      <trkpt lat="49.04334" lon="4.03838">
        <ele>70.8</ele>
        <time>2020-06-30T17:16:52Z</time>
      </trkpt>
      <trkpt lat="49.04335" lon="4.03829">
        <ele>70.8</ele>
        <time>2020-06-30T17:16:53Z</time>
      </trkpt>
      <trkpt lat="49.04337" lon="4.03821">
        <ele>70.8</ele>
        <time>2020-06-30T17:16:54Z</time>
      </trkpt>
      <trkpt lat="49.0434" lon="4.03813">
        <ele>70.8</ele>
        <time>2020-06-30T17:16:55Z</time>
      </trkpt>
      <trkpt lat="49.04342" lon="4.03804">
        <ele>70.9</ele>
        <time>2020-06-30T17:16:56Z</time>
      </trkpt>
      <trkpt lat="49.04344" lon="4.03795">
        <ele>70.9</ele>
        <time>2020-06-30T17:16:57Z</time>
      </trkpt>
      <trkpt lat="49.04347" lon="4.03787">
        <ele>70.9</ele>
        <time>2020-06-30T17:16:58Z</time>
      </trkpt>
      <trkpt lat="49.04349" lon="4.03779">
        <ele>70.9</ele>
        <time>2020-06-30T17:16:59Z</time>
      </trkpt>
      <trkpt lat="49.0435" lon="4.03772">
        <ele>70.9</ele>
        <time>2020-06-30T17:17:00Z</time>
      </trkpt>
      <trkpt lat="49.04352" lon="4.03764">
        <ele>70.9</ele>
        <time>2020-06-30T17:17:01Z</time>
      </trkpt>
      <trkpt lat="49.04354" lon="4.03756">
        <ele>70.9</ele>
        <time>2020-06-30T17:17:02Z</time>
      </trkpt>
      <trkpt lat="49.04357" lon="4.03747">
        <ele>70.8</ele>
        <time>2020-06-30T17:17:03Z</time>
      </trkpt>
      <trkpt lat="49.04359" lon="4.03737">
        <ele>70.9</ele>
        <time>2020-06-30T17:17:04Z</time>
      </trkpt>
      <trkpt lat="49.04362" lon="4.03728">
        <ele>70.9</ele>
        <time>2020-06-30T17:17:05Z</time>
      </trkpt>
      <trkpt lat="49.04364" lon="4.03719">
        <ele>70.9</ele>
        <time>2020-06-30T17:17:06Z</time>
      </trkpt>
      <trkpt lat="49.04367" lon="4.0371">
        <ele>70.9</ele>
        <time>2020-06-30T17:17:07Z</time>
      </trkpt>
      <trkpt lat="49.0437" lon="4.03702">
        <ele>70.9</ele>
        <time>2020-06-30T17:17:08Z</time>
      </trkpt>
      <trkpt lat="49.04372" lon="4.03694">
        <ele>70.9</ele>
        <time>2020-06-30T17:17:09Z</time>
      </trkpt>
      <trkpt lat="49.04374" lon="4.03685">
        <ele>70.9</ele>
        <time>2020-06-30T17:17:10Z</time>
      </trkpt>
      <trkpt lat="49.04377" lon="4.03676">
        <ele>70.9</ele>
        <time>2020-06-30T17:17:11Z</time>
      </trkpt>
      <trkpt lat="49.04379" lon="4.03667">
        <ele>70.9</ele>
        <time>2020-06-30T17:17:12Z</time>
      </trkpt>
      <trkpt lat="49.04381" lon="4.03659">
        <ele>70.9</ele>
        <time>2020-06-30T17:17:13Z</time>
      </trkpt>
      <trkpt lat="49.04383" lon="4.03651">
        <ele>70.9</ele>
        <time>2020-06-30T17:17:14Z</time>
      </trkpt>
      <trkpt lat="49.04385" lon="4.03644">
        <ele>70.9</ele>
        <time>2020-06-30T17:17:15Z</time>
      </trkpt>
      <trkpt lat="49.04387" lon="4.03636">
        <ele>70.8</ele>
        <time>2020-06-30T17:17:16Z</time>
      </trkpt>
      <trkpt lat="49.04389" lon="4.03628">
        <ele>70.8</ele>
        <time>2020-06-30T17:17:17Z</time>
      </trkpt>
      <trkpt lat="49.04391" lon="4.03619">
        <ele>70.8</ele>
        <time>2020-06-30T17:17:18Z</time>
      </trkpt>
      <trkpt lat="49.04394" lon="4.03611">
        <ele>70.8</ele>
        <time>2020-06-30T17:17:19Z</time>
      </trkpt>
      <trkpt lat="49.04396" lon="4.03602">
        <ele>70.8</ele>
        <time>2020-06-30T17:17:20Z</time>
      </trkpt>
      <trkpt lat="49.04399" lon="4.03594">
        <ele>70.8</ele>
        <time>2020-06-30T17:17:21Z</time>
      </trkpt>
      <trkpt lat="49.04401" lon="4.03584">
        <ele>70.8</ele>
        <time>2020-06-30T17:17:22Z</time>
      </trkpt>
      <trkpt lat="49.04404" lon="4.03575">
        <ele>70.8</ele>
        <time>2020-06-30T17:17:23Z</time>
      </trkpt>
      <trkpt lat="49.04407" lon="4.03567">
        <ele>70.8</ele>
        <time>2020-06-30T17:17:24Z</time>
      </trkpt>
      <trkpt lat="49.04409" lon="4.03559">
        <ele>70.8</ele>
        <time>2020-06-30T17:17:25Z</time>
      </trkpt>
      <trkpt lat="49.04412" lon="4.03551">
        <ele>70.9</ele>
        <time>2020-06-30T17:17:26Z</time>
      </trkpt>
      <trkpt lat="49.04414" lon="4.03542">
        <ele>70.9</ele>
        <time>2020-06-30T17:17:27Z</time>
      </trkpt>
      <trkpt lat="49.04416" lon="4.03535">
        <ele>70.9</ele>
        <time>2020-06-30T17:17:28Z</time>
      </trkpt>
      <trkpt lat="49.04419" lon="4.03525">
        <ele>70.8</ele>
        <time>2020-06-30T17:17:29Z</time>
      </trkpt>
      <trkpt lat="49.04421" lon="4.03516">
        <ele>70.8</ele>
        <time>2020-06-30T17:17:30Z</time>
      </trkpt>
      <trkpt lat="49.04423" lon="4.03508">
        <ele>70.8</ele>
        <time>2020-06-30T17:17:31Z</time>
      </trkpt>
      <trkpt lat="49.04426" lon="4.03501">
        <ele>70.8</ele>
        <time>2020-06-30T17:17:32Z</time>
      </trkpt>
      <trkpt lat="49.04428" lon="4.03492">
        <ele>70.8</ele>
        <time>2020-06-30T17:17:33Z</time>
      </trkpt>
      <trkpt lat="49.0443" lon="4.03484">
        <ele>70.8</ele>
        <time>2020-06-30T17:17:34Z</time>
      </trkpt>
      <trkpt lat="49.04432" lon="4.03476">
        <ele>70.8</ele>
        <time>2020-06-30T17:17:35Z</time>
      </trkpt>
      <trkpt lat="49.04434" lon="4.03467">
        <ele>70.8</ele>
        <time>2020-06-30T17:17:36Z</time>
      </trkpt>
      <trkpt lat="49.04437" lon="4.03459">
        <ele>70.8</ele>
        <time>2020-06-30T17:17:37Z</time>
      </trkpt>
      <trkpt lat="49.04438" lon="4.03451">
        <ele>70.8</ele>
        <time>2020-06-30T17:17:38Z</time>
      </trkpt>
      <trkpt lat="49.0444" lon="4.03443">
        <ele>70.8</ele>
        <time>2020-06-30T17:17:39Z</time>
      </trkpt>
      <trkpt lat="49.04442" lon="4.03436">
        <ele>70.7</ele>
        <time>2020-06-30T17:17:40Z</time>
      </trkpt>
      <trkpt lat="49.04444" lon="4.03428">
        <ele>70.7</ele>
        <time>2020-06-30T17:17:41Z</time>
      </trkpt>
      <trkpt lat="49.04446" lon="4.0342">
        <ele>70.7</ele>
        <time>2020-06-30T17:17:42Z</time>
      </trkpt>
      <trkpt lat="49.04449" lon="4.03412">
        <ele>70.7</ele>
        <time>2020-06-30T17:17:43Z</time>
      </trkpt>
      <trkpt lat="49.04451" lon="4.03404">
        <ele>70.7</ele>
        <time>2020-06-30T17:17:44Z</time>
      </trkpt>
      <trkpt lat="49.04453" lon="4.03397">
        <ele>70.7</ele>
        <time>2020-06-30T17:17:45Z</time>
      </trkpt>
      <trkpt lat="49.04455" lon="4.03392">
        <ele>70.7</ele>
        <time>2020-06-30T17:17:46Z</time>
      </trkpt>
      <trkpt lat="49.04458" lon="4.03383">
        <ele>70.7</ele>
        <time>2020-06-30T17:17:47Z</time>
      </trkpt>
      <trkpt lat="49.0446" lon="4.03374">
        <ele>70.7</ele>
        <time>2020-06-30T17:17:48Z</time>
      </trkpt>
      <trkpt lat="49.04463" lon="4.03364">
        <ele>70.7</ele>
        <time>2020-06-30T17:17:49Z</time>
      </trkpt>
      <trkpt lat="49.04465" lon="4.03355">
        <ele>70.7</ele>
        <time>2020-06-30T17:17:50Z</time>
      </trkpt>
      <trkpt lat="49.04468" lon="4.03347">
        <ele>70.7</ele>
        <time>2020-06-30T17:17:51Z</time>
      </trkpt>
      <trkpt lat="49.0447" lon="4.03338">
        <ele>70.7</ele>
        <time>2020-06-30T17:17:52Z</time>
      </trkpt>
      <trkpt lat="49.04472" lon="4.0333">
        <ele>70.7</ele>
        <time>2020-06-30T17:17:53Z</time>
      </trkpt>
      <trkpt lat="49.04475" lon="4.03321">
        <ele>70.7</ele>
        <time>2020-06-30T17:17:54Z</time>
      </trkpt>
      <trkpt lat="49.04477" lon="4.03313">
        <ele>70.7</ele>
        <time>2020-06-30T17:17:55Z</time>
      </trkpt>
      <trkpt lat="49.04479" lon="4.03305">
        <ele>70.7</ele>
        <time>2020-06-30T17:17:56Z</time>
      </trkpt>
      <trkpt lat="49.04481" lon="4.03297">
        <ele>70.7</ele>
        <time>2020-06-30T17:17:57Z</time>
      </trkpt>
      <trkpt lat="49.04483" lon="4.0329">
        <ele>70.7</ele>
        <time>2020-06-30T17:17:58Z</time>
      </trkpt>
      <trkpt lat="49.04484" lon="4.03282">
        <ele>70.7</ele>
        <time>2020-06-30T17:17:59Z</time>
      </trkpt>
      <trkpt lat="49.04486" lon="4.03274">
        <ele>70.7</ele>
        <time>2020-06-30T17:18:00Z</time>
      </trkpt>
      <trkpt lat="49.04488" lon="4.03265">
        <ele>70.7</ele>
        <time>2020-06-30T17:18:01Z</time>
      </trkpt>
      <trkpt lat="49.04489" lon="4.03257">
        <ele>70.7</ele>
        <time>2020-06-30T17:18:02Z</time>
      </trkpt>
      <trkpt lat="49.04492" lon="4.03247">
        <ele>70.7</ele>
        <time>2020-06-30T17:18:03Z</time>
      </trkpt>
      <trkpt lat="49.04493" lon="4.03239">
        <ele>70.8</ele>
        <time>2020-06-30T17:18:04Z</time>
      </trkpt>
      <trkpt lat="49.04495" lon="4.03231">
        <ele>70.9</ele>
        <time>2020-06-30T17:18:05Z</time>
      </trkpt>
      <trkpt lat="49.04496" lon="4.03223">
        <ele>70.9</ele>
        <time>2020-06-30T17:18:06Z</time>
      </trkpt>
      <trkpt lat="49.04498" lon="4.03215">
        <ele>71</ele>
        <time>2020-06-30T17:18:07Z</time>
      </trkpt>
      <trkpt lat="49.045" lon="4.03208">
        <ele>71</ele>
        <time>2020-06-30T17:18:08Z</time>
      </trkpt>
      <trkpt lat="49.04501" lon="4.03202">
        <ele>71</ele>
        <time>2020-06-30T17:18:09Z</time>
      </trkpt>
      <trkpt lat="49.04503" lon="4.03195">
        <ele>71</ele>
        <time>2020-06-30T17:18:10Z</time>
      </trkpt>
      <trkpt lat="49.04505" lon="4.03186">
        <ele>71</ele>
        <time>2020-06-30T17:18:11Z</time>
      </trkpt>
      <trkpt lat="49.04507" lon="4.03176">
        <ele>70.9</ele>
        <time>2020-06-30T17:18:12Z</time>
      </trkpt>
      <trkpt lat="49.04508" lon="4.03166">
        <ele>70.9</ele>
        <time>2020-06-30T17:18:13Z</time>
      </trkpt>
      <trkpt lat="49.0451" lon="4.03157">
        <ele>70.9</ele>
        <time>2020-06-30T17:18:14Z</time>
      </trkpt>
      <trkpt lat="49.04512" lon="4.03149">
        <ele>70.9</ele>
        <time>2020-06-30T17:18:15Z</time>
      </trkpt>
      <trkpt lat="49.04514" lon="4.03141">
        <ele>70.9</ele>
        <time>2020-06-30T17:18:16Z</time>
      </trkpt>
      <trkpt lat="49.04516" lon="4.03132">
        <ele>71</ele>
        <time>2020-06-30T17:18:17Z</time>
      </trkpt>
      <trkpt lat="49.04517" lon="4.03124">
        <ele>71</ele>
        <time>2020-06-30T17:18:18Z</time>
      </trkpt>
      <trkpt lat="49.04519" lon="4.03116">
        <ele>71</ele>
        <time>2020-06-30T17:18:19Z</time>
      </trkpt>
      <trkpt lat="49.04521" lon="4.03107">
        <ele>71</ele>
        <time>2020-06-30T17:18:20Z</time>
      </trkpt>
      <trkpt lat="49.04523" lon="4.03098">
        <ele>71</ele>
        <time>2020-06-30T17:18:21Z</time>
      </trkpt>
      <trkpt lat="49.04526" lon="4.03089">
        <ele>70.9</ele>
        <time>2020-06-30T17:18:22Z</time>
      </trkpt>
      <trkpt lat="49.04528" lon="4.03081">
        <ele>70.9</ele>
        <time>2020-06-30T17:18:23Z</time>
      </trkpt>
      <trkpt lat="49.0453" lon="4.03072">
        <ele>70.9</ele>
        <time>2020-06-30T17:18:24Z</time>
      </trkpt>
      <trkpt lat="49.04532" lon="4.03063">
        <ele>70.8</ele>
        <time>2020-06-30T17:18:25Z</time>
      </trkpt>
      <trkpt lat="49.04534" lon="4.03054">
        <ele>70.8</ele>
        <time>2020-06-30T17:18:26Z</time>
      </trkpt>
      <trkpt lat="49.04536" lon="4.03045">
        <ele>70.8</ele>
        <time>2020-06-30T17:18:27Z</time>
      </trkpt>
      <trkpt lat="49.04538" lon="4.03037">
        <ele>70.8</ele>
        <time>2020-06-30T17:18:28Z</time>
      </trkpt>
      <trkpt lat="49.0454" lon="4.03028">
        <ele>70.8</ele>
        <time>2020-06-30T17:18:29Z</time>
      </trkpt>
      <trkpt lat="49.04542" lon="4.03019">
        <ele>70.8</ele>
        <time>2020-06-30T17:18:30Z</time>
      </trkpt>
      <trkpt lat="49.04544" lon="4.0301">
        <ele>70.8</ele>
        <time>2020-06-30T17:18:31Z</time>
      </trkpt>
      <trkpt lat="49.04545" lon="4.03003">
        <ele>70.8</ele>
        <time>2020-06-30T17:18:32Z</time>
      </trkpt>
      <trkpt lat="49.04547" lon="4.02995">
        <ele>70.7</ele>
        <time>2020-06-30T17:18:33Z</time>
      </trkpt>
      <trkpt lat="49.04549" lon="4.02985">
        <ele>70.7</ele>
        <time>2020-06-30T17:18:34Z</time>
      </trkpt>
      <trkpt lat="49.04551" lon="4.02977">
        <ele>70.7</ele>
        <time>2020-06-30T17:18:35Z</time>
      </trkpt>
      <trkpt lat="49.04553" lon="4.02968">
        <ele>70.6</ele>
        <time>2020-06-30T17:18:36Z</time>
      </trkpt>
      <trkpt lat="49.04555" lon="4.02959">
        <ele>70.6</ele>
        <time>2020-06-30T17:18:37Z</time>
      </trkpt>
      <trkpt lat="49.04557" lon="4.02952">
        <ele>70.6</ele>
        <time>2020-06-30T17:18:38Z</time>
      </trkpt>
      <trkpt lat="49.04559" lon="4.02942">
        <ele>70.7</ele>
        <time>2020-06-30T17:18:39Z</time>
      </trkpt>
      <trkpt lat="49.04562" lon="4.02935">
        <ele>70.7</ele>
        <time>2020-06-30T17:18:40Z</time>
      </trkpt>
      <trkpt lat="49.04563" lon="4.02926">
        <ele>70.8</ele>
        <time>2020-06-30T17:18:41Z</time>
      </trkpt>
      <trkpt lat="49.04566" lon="4.02917">
        <ele>70.8</ele>
        <time>2020-06-30T17:18:42Z</time>
      </trkpt>
      <trkpt lat="49.04567" lon="4.02907">
        <ele>70.9</ele>
        <time>2020-06-30T17:18:43Z</time>
      </trkpt>
      <trkpt lat="49.04568" lon="4.029">
        <ele>70.9</ele>
        <time>2020-06-30T17:18:44Z</time>
      </trkpt>
      <trkpt lat="49.0457" lon="4.02892">
        <ele>70.9</ele>
        <time>2020-06-30T17:18:45Z</time>
      </trkpt>
      <trkpt lat="49.04572" lon="4.02884">
        <ele>70.9</ele>
        <time>2020-06-30T17:18:46Z</time>
      </trkpt>
      <trkpt lat="49.04573" lon="4.02876">
        <ele>70.9</ele>
        <time>2020-06-30T17:18:47Z</time>
      </trkpt>
      <trkpt lat="49.04574" lon="4.02866">
        <ele>70.9</ele>
        <time>2020-06-30T17:18:48Z</time>
      </trkpt>
      <trkpt lat="49.04575" lon="4.02859">
        <ele>70.9</ele>
        <time>2020-06-30T17:18:49Z</time>
      </trkpt>
      <trkpt lat="49.04577" lon="4.02851">
        <ele>70.9</ele>
        <time>2020-06-30T17:18:50Z</time>
      </trkpt>
      <trkpt lat="49.0458" lon="4.02843">
        <ele>70.9</ele>
        <time>2020-06-30T17:18:51Z</time>
      </trkpt>
      <trkpt lat="49.04582" lon="4.02835">
        <ele>71</ele>
        <time>2020-06-30T17:18:52Z</time>
      </trkpt>
      <trkpt lat="49.04584" lon="4.02825">
        <ele>71</ele>
        <time>2020-06-30T17:18:53Z</time>
      </trkpt>
      <trkpt lat="49.04586" lon="4.02816">
        <ele>71</ele>
        <time>2020-06-30T17:18:54Z</time>
      </trkpt>
      <trkpt lat="49.04588" lon="4.02806">
        <ele>71</ele>
        <time>2020-06-30T17:18:55Z</time>
      </trkpt>
      <trkpt lat="49.04591" lon="4.02798">
        <ele>71.1</ele>
        <time>2020-06-30T17:18:56Z</time>
      </trkpt>
      <trkpt lat="49.04593" lon="4.0279">
        <ele>71.1</ele>
        <time>2020-06-30T17:18:57Z</time>
      </trkpt>
      <trkpt lat="49.04595" lon="4.02782">
        <ele>71.1</ele>
        <time>2020-06-30T17:18:58Z</time>
      </trkpt>
      <trkpt lat="49.04596" lon="4.02773">
        <ele>71.1</ele>
        <time>2020-06-30T17:18:59Z</time>
      </trkpt>
      <trkpt lat="49.04599" lon="4.02765">
        <ele>71.1</ele>
        <time>2020-06-30T17:19:00Z</time>
      </trkpt>
      <trkpt lat="49.046" lon="4.02757">
        <ele>71.1</ele>
        <time>2020-06-30T17:19:01Z</time>
      </trkpt>
      <trkpt lat="49.04603" lon="4.02747">
        <ele>71.1</ele>
        <time>2020-06-30T17:19:02Z</time>
      </trkpt>
      <trkpt lat="49.04605" lon="4.02738">
        <ele>71.1</ele>
        <time>2020-06-30T17:19:03Z</time>
      </trkpt>
      <trkpt lat="49.04607" lon="4.02729">
        <ele>71.1</ele>
        <time>2020-06-30T17:19:04Z</time>
      </trkpt>
      <trkpt lat="49.04609" lon="4.0272">
        <ele>71.1</ele>
        <time>2020-06-30T17:19:05Z</time>
      </trkpt>
      <trkpt lat="49.0461" lon="4.0271">
        <ele>71.1</ele>
        <time>2020-06-30T17:19:06Z</time>
      </trkpt>
      <trkpt lat="49.04612" lon="4.02701">
        <ele>71</ele>
        <time>2020-06-30T17:19:07Z</time>
      </trkpt>
      <trkpt lat="49.04614" lon="4.02693">
        <ele>71</ele>
        <time>2020-06-30T17:19:08Z</time>
      </trkpt>
      <trkpt lat="49.04616" lon="4.02686">
        <ele>71</ele>
        <time>2020-06-30T17:19:09Z</time>
      </trkpt>
      <trkpt lat="49.04618" lon="4.02677">
        <ele>71</ele>
        <time>2020-06-30T17:19:10Z</time>
      </trkpt>
      <trkpt lat="49.0462" lon="4.02668">
        <ele>71.1</ele>
        <time>2020-06-30T17:19:11Z</time>
      </trkpt>
      <trkpt lat="49.04622" lon="4.02659">
        <ele>71.1</ele>
        <time>2020-06-30T17:19:12Z</time>
      </trkpt>
      <trkpt lat="49.04623" lon="4.0265">
        <ele>71.1</ele>
        <time>2020-06-30T17:19:13Z</time>
      </trkpt>
      <trkpt lat="49.04625" lon="4.02641">
        <ele>71.1</ele>
        <time>2020-06-30T17:19:14Z</time>
      </trkpt>
      <trkpt lat="49.04627" lon="4.02631">
        <ele>71.2</ele>
        <time>2020-06-30T17:19:15Z</time>
      </trkpt>
      <trkpt lat="49.0463" lon="4.02622">
        <ele>71.2</ele>
        <time>2020-06-30T17:19:16Z</time>
      </trkpt>
      <trkpt lat="49.04631" lon="4.02614">
        <ele>71.2</ele>
        <time>2020-06-30T17:19:17Z</time>
      </trkpt>
      <trkpt lat="49.04633" lon="4.02607">
        <ele>71.2</ele>
        <time>2020-06-30T17:19:18Z</time>
      </trkpt>
      <trkpt lat="49.04634" lon="4.026">
        <ele>71.2</ele>
        <time>2020-06-30T17:19:19Z</time>
      </trkpt>
      <trkpt lat="49.04636" lon="4.02592">
        <ele>71.2</ele>
        <time>2020-06-30T17:19:20Z</time>
      </trkpt>
      <trkpt lat="49.04637" lon="4.02584">
        <ele>71.2</ele>
        <time>2020-06-30T17:19:21Z</time>
      </trkpt>
      <trkpt lat="49.0464" lon="4.02577">
        <ele>71.2</ele>
        <time>2020-06-30T17:19:22Z</time>
      </trkpt>
      <trkpt lat="49.04641" lon="4.02568">
        <ele>71.2</ele>
        <time>2020-06-30T17:19:23Z</time>
      </trkpt>
      <trkpt lat="49.04642" lon="4.0256">
        <ele>71.2</ele>
        <time>2020-06-30T17:19:24Z</time>
      </trkpt>
      <trkpt lat="49.04644" lon="4.02552">
        <ele>71.2</ele>
        <time>2020-06-30T17:19:25Z</time>
      </trkpt>
      <trkpt lat="49.04646" lon="4.02544">
        <ele>71.2</ele>
        <time>2020-06-30T17:19:26Z</time>
      </trkpt>
      <trkpt lat="49.04648" lon="4.02535">
        <ele>71.2</ele>
        <time>2020-06-30T17:19:27Z</time>
      </trkpt>
      <trkpt lat="49.0465" lon="4.02527">
        <ele>71.3</ele>
        <time>2020-06-30T17:19:28Z</time>
      </trkpt>
      <trkpt lat="49.04652" lon="4.0252">
        <ele>71.3</ele>
        <time>2020-06-30T17:19:29Z</time>
      </trkpt>
      <trkpt lat="49.04654" lon="4.02512">
        <ele>71.3</ele>
        <time>2020-06-30T17:19:30Z</time>
      </trkpt>
      <trkpt lat="49.04655" lon="4.02504">
        <ele>71.3</ele>
        <time>2020-06-30T17:19:31Z</time>
      </trkpt>
      <trkpt lat="49.04656" lon="4.02496">
        <ele>71.3</ele>
        <time>2020-06-30T17:19:32Z</time>
      </trkpt>
      <trkpt lat="49.04659" lon="4.02489">
        <ele>71.3</ele>
        <time>2020-06-30T17:19:33Z</time>
      </trkpt>
      <trkpt lat="49.04661" lon="4.02482">
        <ele>71.3</ele>
        <time>2020-06-30T17:19:34Z</time>
      </trkpt>
      <trkpt lat="49.04663" lon="4.02473">
        <ele>71.4</ele>
        <time>2020-06-30T17:19:35Z</time>
      </trkpt>
      <trkpt lat="49.04664" lon="4.02465">
        <ele>71.4</ele>
        <time>2020-06-30T17:19:36Z</time>
      </trkpt>
      <trkpt lat="49.04666" lon="4.02458">
        <ele>71.4</ele>
        <time>2020-06-30T17:19:37Z</time>
      </trkpt>
      <trkpt lat="49.04667" lon="4.0245">
        <ele>71.4</ele>
        <time>2020-06-30T17:19:38Z</time>
      </trkpt>
      <trkpt lat="49.04669" lon="4.02442">
        <ele>71.4</ele>
        <time>2020-06-30T17:19:39Z</time>
      </trkpt>
      <trkpt lat="49.04671" lon="4.02433">
        <ele>71.4</ele>
        <time>2020-06-30T17:19:40Z</time>
      </trkpt>
      <trkpt lat="49.04673" lon="4.02424">
        <ele>71.4</ele>
        <time>2020-06-30T17:19:41Z</time>
      </trkpt>
      <trkpt lat="49.04675" lon="4.02416">
        <ele>71.5</ele>
        <time>2020-06-30T17:19:42Z</time>
      </trkpt>
      <trkpt lat="49.04676" lon="4.02407">
        <ele>71.6</ele>
        <time>2020-06-30T17:19:43Z</time>
      </trkpt>
      <trkpt lat="49.04678" lon="4.02399">
        <ele>71.7</ele>
        <time>2020-06-30T17:19:44Z</time>
      </trkpt>
      <trkpt lat="49.04679" lon="4.02392">
        <ele>71.8</ele>
        <time>2020-06-30T17:19:45Z</time>
      </trkpt>
      <trkpt lat="49.04681" lon="4.02384">
        <ele>72</ele>
        <time>2020-06-30T17:19:46Z</time>
      </trkpt>
      <trkpt lat="49.04682" lon="4.02377">
        <ele>72.2</ele>
        <time>2020-06-30T17:19:47Z</time>
      </trkpt>
      <trkpt lat="49.04683" lon="4.0237">
        <ele>72.3</ele>
        <time>2020-06-30T17:19:48Z</time>
      </trkpt>
      <trkpt lat="49.04684" lon="4.02365">
        <ele>72.4</ele>
        <time>2020-06-30T17:19:49Z</time>
      </trkpt>
      <trkpt lat="49.04685" lon="4.02358">
        <ele>72.5</ele>
        <time>2020-06-30T17:19:50Z</time>
      </trkpt>
      <trkpt lat="49.04686" lon="4.02352">
        <ele>72.7</ele>
        <time>2020-06-30T17:19:51Z</time>
      </trkpt>
      <trkpt lat="49.04687" lon="4.02347">
        <ele>72.8</ele>
        <time>2020-06-30T17:19:52Z</time>
      </trkpt>
      <trkpt lat="49.04687" lon="4.02342">
        <ele>72.9</ele>
        <time>2020-06-30T17:19:53Z</time>
      </trkpt>
      <trkpt lat="49.04688" lon="4.02338">
        <ele>72.8</ele>
        <time>2020-06-30T17:19:54Z</time>
      </trkpt>
      <trkpt lat="49.04689" lon="4.02337">
        <ele>72.8</ele>
        <time>2020-06-30T17:19:55Z</time>
      </trkpt>
      <trkpt lat="49.04689" lon="4.02336">
        <ele>72.8</ele>
        <time>2020-06-30T17:19:56Z</time>
      </trkpt>
      <trkpt lat="49.04689" lon="4.02335">
        <ele>72.8</ele>
        <time>2020-06-30T17:19:57Z</time>
      </trkpt>
      <trkpt lat="49.04689" lon="4.02331">
        <ele>72.7</ele>
        <time>2020-06-30T17:19:58Z</time>
      </trkpt>
      <trkpt lat="49.04691" lon="4.02327">
        <ele>72.6</ele>
        <time>2020-06-30T17:19:59Z</time>
      </trkpt>
      <trkpt lat="49.04693" lon="4.02321">
        <ele>72.5</ele>
        <time>2020-06-30T17:20:00Z</time>
      </trkpt>
      <trkpt lat="49.04694" lon="4.02315">
        <ele>72.5</ele>
        <time>2020-06-30T17:20:01Z</time>
      </trkpt>
      <trkpt lat="49.04696" lon="4.02306">
        <ele>72.2</ele>
        <time>2020-06-30T17:20:02Z</time>
      </trkpt>
      <trkpt lat="49.04697" lon="4.02298">
        <ele>72</ele>
        <time>2020-06-30T17:20:03Z</time>
      </trkpt>
      <trkpt lat="49.04699" lon="4.0229">
        <ele>71.8</ele>
        <time>2020-06-30T17:20:04Z</time>
      </trkpt>
      <trkpt lat="49.04701" lon="4.02281">
        <ele>71.6</ele>
        <time>2020-06-30T17:20:05Z</time>
      </trkpt>
      <trkpt lat="49.04703" lon="4.02273">
        <ele>71.5</ele>
        <time>2020-06-30T17:20:06Z</time>
      </trkpt>
      <trkpt lat="49.04706" lon="4.02265">
        <ele>71.3</ele>
        <time>2020-06-30T17:20:07Z</time>
      </trkpt>
      <trkpt lat="49.04709" lon="4.02256">
        <ele>71.2</ele>
        <time>2020-06-30T17:20:08Z</time>
      </trkpt>
      <trkpt lat="49.04712" lon="4.02247">
        <ele>71.1</ele>
        <time>2020-06-30T17:20:09Z</time>
      </trkpt>
      <trkpt lat="49.04713" lon="4.02237">
        <ele>71.1</ele>
        <time>2020-06-30T17:20:10Z</time>
      </trkpt>
      <trkpt lat="49.04715" lon="4.02229">
        <ele>71.1</ele>
        <time>2020-06-30T17:20:11Z</time>
      </trkpt>
      <trkpt lat="49.04717" lon="4.02219">
        <ele>71.1</ele>
        <time>2020-06-30T17:20:12Z</time>
      </trkpt>
      <trkpt lat="49.04719" lon="4.0221">
        <ele>71</ele>
        <time>2020-06-30T17:20:13Z</time>
      </trkpt>
      <trkpt lat="49.0472" lon="4.02202">
        <ele>71</ele>
        <time>2020-06-30T17:20:14Z</time>
      </trkpt>
      <trkpt lat="49.04722" lon="4.02194">
        <ele>71</ele>
        <time>2020-06-30T17:20:15Z</time>
      </trkpt>
      <trkpt lat="49.04723" lon="4.02184">
        <ele>71</ele>
        <time>2020-06-30T17:20:16Z</time>
      </trkpt>
      <trkpt lat="49.04726" lon="4.02175">
        <ele>71</ele>
        <time>2020-06-30T17:20:17Z</time>
      </trkpt>
      <trkpt lat="49.04728" lon="4.02167">
        <ele>71</ele>
        <time>2020-06-30T17:20:18Z</time>
      </trkpt>
      <trkpt lat="49.0473" lon="4.02159">
        <ele>71</ele>
        <time>2020-06-30T17:20:19Z</time>
      </trkpt>
      <trkpt lat="49.04732" lon="4.02151">
        <ele>71</ele>
        <time>2020-06-30T17:20:20Z</time>
      </trkpt>
      <trkpt lat="49.04734" lon="4.02142">
        <ele>71</ele>
        <time>2020-06-30T17:20:21Z</time>
      </trkpt>
      <trkpt lat="49.04735" lon="4.02132">
        <ele>71</ele>
        <time>2020-06-30T17:20:22Z</time>
      </trkpt>
      <trkpt lat="49.04736" lon="4.02123">
        <ele>71</ele>
        <time>2020-06-30T17:20:23Z</time>
      </trkpt>
      <trkpt lat="49.04739" lon="4.02114">
        <ele>71</ele>
        <time>2020-06-30T17:20:24Z</time>
      </trkpt>
      <trkpt lat="49.04741" lon="4.02106">
        <ele>71</ele>
        <time>2020-06-30T17:20:25Z</time>
      </trkpt>
      <trkpt lat="49.04743" lon="4.02096">
        <ele>71.1</ele>
        <time>2020-06-30T17:20:26Z</time>
      </trkpt>
      <trkpt lat="49.04745" lon="4.02087">
        <ele>71.1</ele>
        <time>2020-06-30T17:20:27Z</time>
      </trkpt>
      <trkpt lat="49.04747" lon="4.02078">
        <ele>71.1</ele>
        <time>2020-06-30T17:20:28Z</time>
      </trkpt>
      <trkpt lat="49.04749" lon="4.02069">
        <ele>71.1</ele>
        <time>2020-06-30T17:20:29Z</time>
      </trkpt>
      <trkpt lat="49.04752" lon="4.02061">
        <ele>71.1</ele>
        <time>2020-06-30T17:20:30Z</time>
      </trkpt>
      <trkpt lat="49.04754" lon="4.02053">
        <ele>71.1</ele>
        <time>2020-06-30T17:20:31Z</time>
      </trkpt>
      <trkpt lat="49.04756" lon="4.02045">
        <ele>71.1</ele>
        <time>2020-06-30T17:20:32Z</time>
      </trkpt>
      <trkpt lat="49.04758" lon="4.02036">
        <ele>71.1</ele>
        <time>2020-06-30T17:20:33Z</time>
      </trkpt>
      <trkpt lat="49.04759" lon="4.02027">
        <ele>71.1</ele>
        <time>2020-06-30T17:20:34Z</time>
      </trkpt>
      <trkpt lat="49.04761" lon="4.02017">
        <ele>71.1</ele>
        <time>2020-06-30T17:20:35Z</time>
      </trkpt>
      <trkpt lat="49.04763" lon="4.02009">
        <ele>71.1</ele>
        <time>2020-06-30T17:20:36Z</time>
      </trkpt>
      <trkpt lat="49.04765" lon="4.02">
        <ele>71.2</ele>
        <time>2020-06-30T17:20:37Z</time>
      </trkpt>
      <trkpt lat="49.04767" lon="4.01993">
        <ele>71.2</ele>
        <time>2020-06-30T17:20:38Z</time>
      </trkpt>
      <trkpt lat="49.04769" lon="4.01983">
        <ele>71.2</ele>
        <time>2020-06-30T17:20:39Z</time>
      </trkpt>
      <trkpt lat="49.04771" lon="4.01974">
        <ele>71.3</ele>
        <time>2020-06-30T17:20:40Z</time>
      </trkpt>
      <trkpt lat="49.04773" lon="4.01965">
        <ele>71.3</ele>
        <time>2020-06-30T17:20:41Z</time>
      </trkpt>
      <trkpt lat="49.04775" lon="4.01955">
        <ele>71.3</ele>
        <time>2020-06-30T17:20:42Z</time>
      </trkpt>
      <trkpt lat="49.04777" lon="4.01946">
        <ele>71.3</ele>
        <time>2020-06-30T17:20:43Z</time>
      </trkpt>
      <trkpt lat="49.04778" lon="4.01937">
        <ele>71.3</ele>
        <time>2020-06-30T17:20:44Z</time>
      </trkpt>
      <trkpt lat="49.0478" lon="4.01929">
        <ele>71.3</ele>
        <time>2020-06-30T17:20:45Z</time>
      </trkpt>
      <trkpt lat="49.04782" lon="4.0192">
        <ele>71.3</ele>
        <time>2020-06-30T17:20:46Z</time>
      </trkpt>
      <trkpt lat="49.04784" lon="4.01911">
        <ele>71.3</ele>
        <time>2020-06-30T17:20:47Z</time>
      </trkpt>
      <trkpt lat="49.04785" lon="4.01903">
        <ele>71.3</ele>
        <time>2020-06-30T17:20:48Z</time>
      </trkpt>
      <trkpt lat="49.04787" lon="4.01895">
        <ele>71.3</ele>
        <time>2020-06-30T17:20:49Z</time>
      </trkpt>
      <trkpt lat="49.04789" lon="4.01886">
        <ele>71.2</ele>
        <time>2020-06-30T17:20:50Z</time>
      </trkpt>
      <trkpt lat="49.04791" lon="4.01878">
        <ele>71.2</ele>
        <time>2020-06-30T17:20:51Z</time>
      </trkpt>
      <trkpt lat="49.04793" lon="4.01867">
        <ele>71.2</ele>
        <time>2020-06-30T17:20:52Z</time>
      </trkpt>
      <trkpt lat="49.04796" lon="4.01858">
        <ele>71.2</ele>
        <time>2020-06-30T17:20:53Z</time>
      </trkpt>
      <trkpt lat="49.04797" lon="4.0185">
        <ele>71.2</ele>
        <time>2020-06-30T17:20:54Z</time>
      </trkpt>
      <trkpt lat="49.04799" lon="4.01841">
        <ele>71.2</ele>
        <time>2020-06-30T17:20:55Z</time>
      </trkpt>
      <trkpt lat="49.04801" lon="4.01833">
        <ele>71.1</ele>
        <time>2020-06-30T17:20:56Z</time>
      </trkpt>
      <trkpt lat="49.04802" lon="4.01825">
        <ele>71.1</ele>
        <time>2020-06-30T17:20:57Z</time>
      </trkpt>
      <trkpt lat="49.04804" lon="4.01818">
        <ele>71.1</ele>
        <time>2020-06-30T17:20:58Z</time>
      </trkpt>
      <trkpt lat="49.04805" lon="4.0181">
        <ele>71.1</ele>
        <time>2020-06-30T17:20:59Z</time>
      </trkpt>
      <trkpt lat="49.04807" lon="4.01803">
        <ele>71.1</ele>
        <time>2020-06-30T17:21:00Z</time>
      </trkpt>
      <trkpt lat="49.04809" lon="4.01795">
        <ele>71.1</ele>
        <time>2020-06-30T17:21:01Z</time>
      </trkpt>
      <trkpt lat="49.04811" lon="4.01788">
        <ele>71.1</ele>
        <time>2020-06-30T17:21:02Z</time>
      </trkpt>
      <trkpt lat="49.04813" lon="4.01779">
        <ele>71.1</ele>
        <time>2020-06-30T17:21:03Z</time>
      </trkpt>
      <trkpt lat="49.04815" lon="4.01772">
        <ele>71.2</ele>
        <time>2020-06-30T17:21:04Z</time>
      </trkpt>
      <trkpt lat="49.04817" lon="4.01761">
        <ele>71.2</ele>
        <time>2020-06-30T17:21:05Z</time>
      </trkpt>
      <trkpt lat="49.04818" lon="4.01752">
        <ele>71.2</ele>
        <time>2020-06-30T17:21:06Z</time>
      </trkpt>
      <trkpt lat="49.0482" lon="4.01743">
        <ele>71.2</ele>
        <time>2020-06-30T17:21:07Z</time>
      </trkpt>
      <trkpt lat="49.04822" lon="4.01734">
        <ele>71.2</ele>
        <time>2020-06-30T17:21:08Z</time>
      </trkpt>
      <trkpt lat="49.04824" lon="4.01725">
        <ele>71.2</ele>
        <time>2020-06-30T17:21:09Z</time>
      </trkpt>
      <trkpt lat="49.04827" lon="4.01715">
        <ele>71.2</ele>
        <time>2020-06-30T17:21:10Z</time>
      </trkpt>
      <trkpt lat="49.04829" lon="4.01707">
        <ele>71.2</ele>
        <time>2020-06-30T17:21:11Z</time>
      </trkpt>
      <trkpt lat="49.04831" lon="4.01699">
        <ele>71.2</ele>
        <time>2020-06-30T17:21:12Z</time>
      </trkpt>
      <trkpt lat="49.04832" lon="4.01691">
        <ele>71.2</ele>
        <time>2020-06-30T17:21:13Z</time>
      </trkpt>
      <trkpt lat="49.04834" lon="4.01684">
        <ele>71.2</ele>
        <time>2020-06-30T17:21:14Z</time>
      </trkpt>
      <trkpt lat="49.04836" lon="4.01675">
        <ele>71.2</ele>
        <time>2020-06-30T17:21:15Z</time>
      </trkpt>
      <trkpt lat="49.04838" lon="4.01666">
        <ele>71.2</ele>
        <time>2020-06-30T17:21:16Z</time>
      </trkpt>
      <trkpt lat="49.0484" lon="4.01656">
        <ele>71.2</ele>
        <time>2020-06-30T17:21:17Z</time>
      </trkpt>
      <trkpt lat="49.04842" lon="4.01647">
        <ele>71.2</ele>
        <time>2020-06-30T17:21:18Z</time>
      </trkpt>
      <trkpt lat="49.04844" lon="4.01638">
        <ele>71.2</ele>
        <time>2020-06-30T17:21:19Z</time>
      </trkpt>
      <trkpt lat="49.04846" lon="4.0163">
        <ele>71.2</ele>
        <time>2020-06-30T17:21:20Z</time>
      </trkpt>
      <trkpt lat="49.04848" lon="4.01623">
        <ele>71.2</ele>
        <time>2020-06-30T17:21:21Z</time>
      </trkpt>
      <trkpt lat="49.0485" lon="4.01615">
        <ele>71.2</ele>
        <time>2020-06-30T17:21:22Z</time>
      </trkpt>
      <trkpt lat="49.04852" lon="4.01606">
        <ele>71.1</ele>
        <time>2020-06-30T17:21:23Z</time>
      </trkpt>
      <trkpt lat="49.04853" lon="4.01599">
        <ele>71.1</ele>
        <time>2020-06-30T17:21:24Z</time>
      </trkpt>
      <trkpt lat="49.04855" lon="4.01592">
        <ele>71.1</ele>
        <time>2020-06-30T17:21:25Z</time>
      </trkpt>
      <trkpt lat="49.04857" lon="4.01584">
        <ele>71.1</ele>
        <time>2020-06-30T17:21:26Z</time>
      </trkpt>
      <trkpt lat="49.04859" lon="4.01575">
        <ele>71.1</ele>
        <time>2020-06-30T17:21:27Z</time>
      </trkpt>
      <trkpt lat="49.04862" lon="4.01566">
        <ele>71.1</ele>
        <time>2020-06-30T17:21:28Z</time>
      </trkpt>
      <trkpt lat="49.04863" lon="4.01555">
        <ele>71.1</ele>
        <time>2020-06-30T17:21:29Z</time>
      </trkpt>
      <trkpt lat="49.04865" lon="4.01547">
        <ele>71.1</ele>
        <time>2020-06-30T17:21:30Z</time>
      </trkpt>
      <trkpt lat="49.04867" lon="4.01537">
        <ele>71.1</ele>
        <time>2020-06-30T17:21:31Z</time>
      </trkpt>
      <trkpt lat="49.04869" lon="4.01528">
        <ele>71.2</ele>
        <time>2020-06-30T17:21:32Z</time>
      </trkpt>
      <trkpt lat="49.0487" lon="4.01519">
        <ele>71.2</ele>
        <time>2020-06-30T17:21:33Z</time>
      </trkpt>
      <trkpt lat="49.04871" lon="4.0151">
        <ele>71.2</ele>
        <time>2020-06-30T17:21:34Z</time>
      </trkpt>
      <trkpt lat="49.04873" lon="4.01502">
        <ele>71.2</ele>
        <time>2020-06-30T17:21:35Z</time>
      </trkpt>
      <trkpt lat="49.04874" lon="4.01493">
        <ele>71.3</ele>
        <time>2020-06-30T17:21:36Z</time>
      </trkpt>
      <trkpt lat="49.04876" lon="4.01484">
        <ele>71.3</ele>
        <time>2020-06-30T17:21:37Z</time>
      </trkpt>
      <trkpt lat="49.04878" lon="4.01476">
        <ele>71.3</ele>
        <time>2020-06-30T17:21:38Z</time>
      </trkpt>
      <trkpt lat="49.0488" lon="4.01467">
        <ele>71.3</ele>
        <time>2020-06-30T17:21:39Z</time>
      </trkpt>
      <trkpt lat="49.04882" lon="4.01458">
        <ele>71.3</ele>
        <time>2020-06-30T17:21:40Z</time>
      </trkpt>
      <trkpt lat="49.04885" lon="4.01449">
        <ele>71.3</ele>
        <time>2020-06-30T17:21:41Z</time>
      </trkpt>
      <trkpt lat="49.04887" lon="4.01442">
        <ele>71.3</ele>
        <time>2020-06-30T17:21:42Z</time>
      </trkpt>
      <trkpt lat="49.0489" lon="4.01434">
        <ele>71.3</ele>
        <time>2020-06-30T17:21:43Z</time>
      </trkpt>
      <trkpt lat="49.04891" lon="4.01427">
        <ele>71.3</ele>
        <time>2020-06-30T17:21:44Z</time>
      </trkpt>
      <trkpt lat="49.04893" lon="4.01418">
        <ele>71.2</ele>
        <time>2020-06-30T17:21:45Z</time>
      </trkpt>
      <trkpt lat="49.04895" lon="4.01407">
        <ele>71.2</ele>
        <time>2020-06-30T17:21:46Z</time>
      </trkpt>
      <trkpt lat="49.04898" lon="4.01398">
        <ele>71.2</ele>
        <time>2020-06-30T17:21:47Z</time>
      </trkpt>
      <trkpt lat="49.049" lon="4.01389">
        <ele>71.2</ele>
        <time>2020-06-30T17:21:48Z</time>
      </trkpt>
      <trkpt lat="49.04902" lon="4.01379">
        <ele>71.2</ele>
        <time>2020-06-30T17:21:49Z</time>
      </trkpt>
      <trkpt lat="49.04904" lon="4.01368">
        <ele>71.3</ele>
        <time>2020-06-30T17:21:50Z</time>
      </trkpt>
      <trkpt lat="49.04905" lon="4.01359">
        <ele>71.3</ele>
        <time>2020-06-30T17:21:51Z</time>
      </trkpt>
      <trkpt lat="49.04907" lon="4.01351">
        <ele>71.3</ele>
        <time>2020-06-30T17:21:52Z</time>
      </trkpt>
      <trkpt lat="49.04908" lon="4.01344">
        <ele>71.3</ele>
        <time>2020-06-30T17:21:53Z</time>
      </trkpt>
      <trkpt lat="49.0491" lon="4.01335">
        <ele>71.3</ele>
        <time>2020-06-30T17:21:54Z</time>
      </trkpt>
      <trkpt lat="49.04912" lon="4.01326">
        <ele>71.3</ele>
        <time>2020-06-30T17:21:55Z</time>
      </trkpt>
      <trkpt lat="49.04914" lon="4.01318">
        <ele>71.3</ele>
        <time>2020-06-30T17:21:56Z</time>
      </trkpt>
      <trkpt lat="49.04917" lon="4.01308">
        <ele>71.3</ele>
        <time>2020-06-30T17:21:57Z</time>
      </trkpt>
      <trkpt lat="49.04919" lon="4.013">
        <ele>71.3</ele>
        <time>2020-06-30T17:21:58Z</time>
      </trkpt>
      <trkpt lat="49.0492" lon="4.01291">
        <ele>71.3</ele>
        <time>2020-06-30T17:21:59Z</time>
      </trkpt>
      <trkpt lat="49.04921" lon="4.01284">
        <ele>71.3</ele>
        <time>2020-06-30T17:22:00Z</time>
      </trkpt>
      <trkpt lat="49.04924" lon="4.01272">
        <ele>71.3</ele>
        <time>2020-06-30T17:22:01Z</time>
      </trkpt>
      <trkpt lat="49.04925" lon="4.01264">
        <ele>71.3</ele>
        <time>2020-06-30T17:22:02Z</time>
      </trkpt>
      <trkpt lat="49.04927" lon="4.01258">
        <ele>71.4</ele>
        <time>2020-06-30T17:22:03Z</time>
      </trkpt>
      <trkpt lat="49.04928" lon="4.01249">
        <ele>71.4</ele>
        <time>2020-06-30T17:22:04Z</time>
      </trkpt>
      <trkpt lat="49.0493" lon="4.01241">
        <ele>71.4</ele>
        <time>2020-06-30T17:22:05Z</time>
      </trkpt>
      <trkpt lat="49.04932" lon="4.01232">
        <ele>71.4</ele>
        <time>2020-06-30T17:22:06Z</time>
      </trkpt>
      <trkpt lat="49.04934" lon="4.01224">
        <ele>71.4</ele>
        <time>2020-06-30T17:22:07Z</time>
      </trkpt>
      <trkpt lat="49.04936" lon="4.01216">
        <ele>71.4</ele>
        <time>2020-06-30T17:22:08Z</time>
      </trkpt>
      <trkpt lat="49.04937" lon="4.0121">
        <ele>71.4</ele>
        <time>2020-06-30T17:22:09Z</time>
      </trkpt>
      <trkpt lat="49.04938" lon="4.01202">
        <ele>71.4</ele>
        <time>2020-06-30T17:22:10Z</time>
      </trkpt>
      <trkpt lat="49.04939" lon="4.01195">
        <ele>71.4</ele>
        <time>2020-06-30T17:22:11Z</time>
      </trkpt>
      <trkpt lat="49.04941" lon="4.01187">
        <ele>71.4</ele>
        <time>2020-06-30T17:22:12Z</time>
      </trkpt>
      <trkpt lat="49.04942" lon="4.0118">
        <ele>71.4</ele>
        <time>2020-06-30T17:22:13Z</time>
      </trkpt>
      <trkpt lat="49.04944" lon="4.01171">
        <ele>71.4</ele>
        <time>2020-06-30T17:22:14Z</time>
      </trkpt>
      <trkpt lat="49.04945" lon="4.01164">
        <ele>71.4</ele>
        <time>2020-06-30T17:22:15Z</time>
      </trkpt>
      <trkpt lat="49.04947" lon="4.01158">
        <ele>71.4</ele>
        <time>2020-06-30T17:22:16Z</time>
      </trkpt>
      <trkpt lat="49.04949" lon="4.0115">
        <ele>71.4</ele>
        <time>2020-06-30T17:22:17Z</time>
      </trkpt>
      <trkpt lat="49.0495" lon="4.01142">
        <ele>71.4</ele>
        <time>2020-06-30T17:22:18Z</time>
      </trkpt>
      <trkpt lat="49.04953" lon="4.01134">
        <ele>71.4</ele>
        <time>2020-06-30T17:22:19Z</time>
      </trkpt>
      <trkpt lat="49.04954" lon="4.01125">
        <ele>71.4</ele>
        <time>2020-06-30T17:22:20Z</time>
      </trkpt>
      <trkpt lat="49.04957" lon="4.01119">
        <ele>71.5</ele>
        <time>2020-06-30T17:22:21Z</time>
      </trkpt>
      <trkpt lat="49.04959" lon="4.01112">
        <ele>71.5</ele>
        <time>2020-06-30T17:22:22Z</time>
      </trkpt>
      <trkpt lat="49.0496" lon="4.01105">
        <ele>71.5</ele>
        <time>2020-06-30T17:22:23Z</time>
      </trkpt>
      <trkpt lat="49.04961" lon="4.01098">
        <ele>71.5</ele>
        <time>2020-06-30T17:22:24Z</time>
      </trkpt>
      <trkpt lat="49.04962" lon="4.01091">
        <ele>71.5</ele>
        <time>2020-06-30T17:22:25Z</time>
      </trkpt>
      <trkpt lat="49.04964" lon="4.01083">
        <ele>71.5</ele>
        <time>2020-06-30T17:22:26Z</time>
      </trkpt>
      <trkpt lat="49.04967" lon="4.01074">
        <ele>71.6</ele>
        <time>2020-06-30T17:22:27Z</time>
      </trkpt>
      <trkpt lat="49.04968" lon="4.0107">
        <ele>71.6</ele>
        <time>2020-06-30T17:22:28Z</time>
      </trkpt>
      <trkpt lat="49.0497" lon="4.01059">
        <ele>71.6</ele>
        <time>2020-06-30T17:22:29Z</time>
      </trkpt>
      <trkpt lat="49.04971" lon="4.01052">
        <ele>71.6</ele>
        <time>2020-06-30T17:22:30Z</time>
      </trkpt>
      <trkpt lat="49.04972" lon="4.01044">
        <ele>71.7</ele>
        <time>2020-06-30T17:22:31Z</time>
      </trkpt>
      <trkpt lat="49.04974" lon="4.01037">
        <ele>71.8</ele>
        <time>2020-06-30T17:22:32Z</time>
      </trkpt>
      <trkpt lat="49.04975" lon="4.0103">
        <ele>71.9</ele>
        <time>2020-06-30T17:22:33Z</time>
      </trkpt>
      <trkpt lat="49.04976" lon="4.01023">
        <ele>72</ele>
        <time>2020-06-30T17:22:34Z</time>
      </trkpt>
      <trkpt lat="49.04976" lon="4.01016">
        <ele>72.2</ele>
        <time>2020-06-30T17:22:35Z</time>
      </trkpt>
      <trkpt lat="49.04975" lon="4.01009">
        <ele>72.4</ele>
        <time>2020-06-30T17:22:36Z</time>
      </trkpt>
      <trkpt lat="49.04974" lon="4.01004">
        <ele>72.5</ele>
        <time>2020-06-30T17:22:37Z</time>
      </trkpt>
      <trkpt lat="49.04973" lon="4.01">
        <ele>72.6</ele>
        <time>2020-06-30T17:22:38Z</time>
      </trkpt>
      <trkpt lat="49.04974" lon="4.00995">
        <ele>72.7</ele>
        <time>2020-06-30T17:22:39Z</time>
      </trkpt>
      <trkpt lat="49.04975" lon="4.00993">
        <ele>72.7</ele>
        <time>2020-06-30T17:22:40Z</time>
      </trkpt>
      <trkpt lat="49.04975" lon="4.00988">
        <ele>72.8</ele>
        <time>2020-06-30T17:22:41Z</time>
      </trkpt>
      <trkpt lat="49.04975" lon="4.00986">
        <ele>72.9</ele>
        <time>2020-06-30T17:22:42Z</time>
      </trkpt>
      <trkpt lat="49.04975" lon="4.00984">
        <ele>72.9</ele>
        <time>2020-06-30T17:22:43Z</time>
      </trkpt>
      <trkpt lat="49.04975" lon="4.00981">
        <ele>72.9</ele>
        <time>2020-06-30T17:22:44Z</time>
      </trkpt>
      <trkpt lat="49.04975" lon="4.0098">
        <ele>73</ele>
        <time>2020-06-30T17:22:45Z</time>
      </trkpt>
      <trkpt lat="49.04975" lon="4.00976">
        <ele>73</ele>
        <time>2020-06-30T17:22:46Z</time>
      </trkpt>
      <trkpt lat="49.04977" lon="4.00972">
        <ele>73</ele>
        <time>2020-06-30T17:22:47Z</time>
      </trkpt>
      <trkpt lat="49.04978" lon="4.0097">
        <ele>73</ele>
        <time>2020-06-30T17:22:48Z</time>
      </trkpt>
      <trkpt lat="49.04979" lon="4.00966">
        <ele>73</ele>
        <time>2020-06-30T17:22:49Z</time>
      </trkpt>
      <trkpt lat="49.04981" lon="4.00961">
        <ele>72.9</ele>
        <time>2020-06-30T17:22:50Z</time>
      </trkpt>
      <trkpt lat="49.04982" lon="4.00955">
        <ele>72.9</ele>
        <time>2020-06-30T17:22:51Z</time>
      </trkpt>
      <trkpt lat="49.04984" lon="4.00951">
        <ele>72.8</ele>
        <time>2020-06-30T17:22:52Z</time>
      </trkpt>
      <trkpt lat="49.04986" lon="4.00944">
        <ele>72.6</ele>
        <time>2020-06-30T17:22:53Z</time>
      </trkpt>
      <trkpt lat="49.04987" lon="4.00937">
        <ele>72.5</ele>
        <time>2020-06-30T17:22:54Z</time>
      </trkpt>
      <trkpt lat="49.04989" lon="4.00928">
        <ele>72.3</ele>
        <time>2020-06-30T17:22:55Z</time>
      </trkpt>
      <trkpt lat="49.04991" lon="4.00919">
        <ele>72.1</ele>
        <time>2020-06-30T17:22:56Z</time>
      </trkpt>
      <trkpt lat="49.04993" lon="4.00912">
        <ele>71.9</ele>
        <time>2020-06-30T17:22:57Z</time>
      </trkpt>
      <trkpt lat="49.04994" lon="4.00904">
        <ele>71.8</ele>
        <time>2020-06-30T17:22:58Z</time>
      </trkpt>
      <trkpt lat="49.04996" lon="4.00896">
        <ele>71.7</ele>
        <time>2020-06-30T17:22:59Z</time>
      </trkpt>
      <trkpt lat="49.04998" lon="4.00888">
        <ele>71.6</ele>
        <time>2020-06-30T17:23:00Z</time>
      </trkpt>
      <trkpt lat="49.05" lon="4.00881">
        <ele>71.5</ele>
        <time>2020-06-30T17:23:01Z</time>
      </trkpt>
      <trkpt lat="49.05001" lon="4.00874">
        <ele>71.5</ele>
        <time>2020-06-30T17:23:02Z</time>
      </trkpt>
      <trkpt lat="49.05003" lon="4.00866">
        <ele>71.4</ele>
        <time>2020-06-30T17:23:03Z</time>
      </trkpt>
      <trkpt lat="49.05004" lon="4.00858">
        <ele>71.4</ele>
        <time>2020-06-30T17:23:04Z</time>
      </trkpt>
      <trkpt lat="49.05005" lon="4.00851">
        <ele>71.3</ele>
        <time>2020-06-30T17:23:05Z</time>
      </trkpt>
      <trkpt lat="49.05006" lon="4.00843">
        <ele>71.3</ele>
        <time>2020-06-30T17:23:06Z</time>
      </trkpt>
      <trkpt lat="49.05007" lon="4.00837">
        <ele>71.3</ele>
        <time>2020-06-30T17:23:07Z</time>
      </trkpt>
      <trkpt lat="49.0501" lon="4.00832">
        <ele>71.3</ele>
        <time>2020-06-30T17:23:08Z</time>
      </trkpt>
      <trkpt lat="49.05014" lon="4.00828">
        <ele>71.3</ele>
        <time>2020-06-30T17:23:09Z</time>
      </trkpt>
      <trkpt lat="49.05017" lon="4.00822">
        <ele>71.3</ele>
        <time>2020-06-30T17:23:10Z</time>
      </trkpt>
      <trkpt lat="49.05019" lon="4.00815">
        <ele>71.3</ele>
        <time>2020-06-30T17:23:11Z</time>
      </trkpt>
      <trkpt lat="49.05022" lon="4.00809">
        <ele>71.3</ele>
        <time>2020-06-30T17:23:12Z</time>
      </trkpt>
      <trkpt lat="49.05026" lon="4.00805">
        <ele>71.3</ele>
        <time>2020-06-30T17:23:13Z</time>
      </trkpt>
      <trkpt lat="49.05029" lon="4.00802">
        <ele>71.3</ele>
        <time>2020-06-30T17:23:14Z</time>
      </trkpt>
      <trkpt lat="49.05032" lon="4.00799">
        <ele>71.3</ele>
        <time>2020-06-30T17:23:15Z</time>
      </trkpt>
      <trkpt lat="49.05035" lon="4.00796">
        <ele>71.3</ele>
        <time>2020-06-30T17:23:16Z</time>
      </trkpt>
      <trkpt lat="49.05037" lon="4.00793">
        <ele>71.3</ele>
        <time>2020-06-30T17:23:17Z</time>
      </trkpt>
      <trkpt lat="49.0504" lon="4.0079">
        <ele>71.3</ele>
        <time>2020-06-30T17:23:18Z</time>
      </trkpt>
      <trkpt lat="49.05041" lon="4.00786">
        <ele>71.3</ele>
        <time>2020-06-30T17:23:19Z</time>
      </trkpt>
      <trkpt lat="49.05042" lon="4.00781">
        <ele>71.3</ele>
        <time>2020-06-30T17:23:20Z</time>
      </trkpt>
      <trkpt lat="49.05042" lon="4.00776">
        <ele>71.3</ele>
        <time>2020-06-30T17:23:21Z</time>
      </trkpt>
      <trkpt lat="49.05043" lon="4.0077">
        <ele>71.3</ele>
        <time>2020-06-30T17:23:22Z</time>
      </trkpt>
      <trkpt lat="49.05044" lon="4.00763">
        <ele>71.3</ele>
        <time>2020-06-30T17:23:23Z</time>
      </trkpt>
      <trkpt lat="49.05045" lon="4.00756">
        <ele>71.3</ele>
        <time>2020-06-30T17:23:24Z</time>
      </trkpt>
      <trkpt lat="49.05044" lon="4.00749">
        <ele>71.3</ele>
        <time>2020-06-30T17:23:25Z</time>
      </trkpt>
      <trkpt lat="49.05044" lon="4.00741">
        <ele>71.3</ele>
        <time>2020-06-30T17:23:26Z</time>
      </trkpt>
      <trkpt lat="49.05044" lon="4.00733">
        <ele>71.3</ele>
        <time>2020-06-30T17:23:27Z</time>
      </trkpt>
      <trkpt lat="49.05044" lon="4.00725">
        <ele>71.3</ele>
        <time>2020-06-30T17:23:28Z</time>
      </trkpt>
      <trkpt lat="49.05043" lon="4.00718">
        <ele>71.4</ele>
        <time>2020-06-30T17:23:29Z</time>
      </trkpt>
      <trkpt lat="49.05044" lon="4.00712">
        <ele>71.4</ele>
        <time>2020-06-30T17:23:30Z</time>
      </trkpt>
      <trkpt lat="49.05045" lon="4.00706">
        <ele>71.4</ele>
        <time>2020-06-30T17:23:31Z</time>
      </trkpt>
      <trkpt lat="49.05046" lon="4.00701">
        <ele>71.4</ele>
        <time>2020-06-30T17:23:32Z</time>
      </trkpt>
      <trkpt lat="49.05047" lon="4.00696">
        <ele>71.4</ele>
        <time>2020-06-30T17:23:33Z</time>
      </trkpt>
      <trkpt lat="49.05048" lon="4.0069">
        <ele>71.3</ele>
        <time>2020-06-30T17:23:34Z</time>
      </trkpt>
      <trkpt lat="49.0505" lon="4.00683">
        <ele>71.3</ele>
        <time>2020-06-30T17:23:35Z</time>
      </trkpt>
      <trkpt lat="49.05051" lon="4.00675">
        <ele>71.2</ele>
        <time>2020-06-30T17:23:36Z</time>
      </trkpt>
      <trkpt lat="49.05052" lon="4.00668">
        <ele>71.2</ele>
        <time>2020-06-30T17:23:37Z</time>
      </trkpt>
      <trkpt lat="49.05053" lon="4.0066">
        <ele>71.1</ele>
        <time>2020-06-30T17:23:38Z</time>
      </trkpt>
      <trkpt lat="49.05054" lon="4.00653">
        <ele>71.1</ele>
        <time>2020-06-30T17:23:39Z</time>
      </trkpt>
      <trkpt lat="49.05054" lon="4.00644">
        <ele>71.1</ele>
        <time>2020-06-30T17:23:40Z</time>
      </trkpt>
      <trkpt lat="49.05056" lon="4.00637">
        <ele>71.1</ele>
        <time>2020-06-30T17:23:41Z</time>
      </trkpt>
      <trkpt lat="49.05058" lon="4.0063">
        <ele>71.1</ele>
        <time>2020-06-30T17:23:42Z</time>
      </trkpt>
      <trkpt lat="49.05059" lon="4.00624">
        <ele>71.1</ele>
        <time>2020-06-30T17:23:43Z</time>
      </trkpt>
      <trkpt lat="49.05061" lon="4.00618">
        <ele>71.1</ele>
        <time>2020-06-30T17:23:44Z</time>
      </trkpt>
      <trkpt lat="49.05062" lon="4.00612">
        <ele>71.2</ele>
        <time>2020-06-30T17:23:45Z</time>
      </trkpt>
      <trkpt lat="49.05064" lon="4.00606">
        <ele>71.2</ele>
        <time>2020-06-30T17:23:46Z</time>
      </trkpt>
      <trkpt lat="49.05065" lon="4.006">
        <ele>71.2</ele>
        <time>2020-06-30T17:23:47Z</time>
      </trkpt>
      <trkpt lat="49.05066" lon="4.00594">
        <ele>71.2</ele>
        <time>2020-06-30T17:23:48Z</time>
      </trkpt>
      <trkpt lat="49.05068" lon="4.00589">
        <ele>71.2</ele>
        <time>2020-06-30T17:23:49Z</time>
      </trkpt>
      <trkpt lat="49.0507" lon="4.00582">
        <ele>71.2</ele>
        <time>2020-06-30T17:23:50Z</time>
      </trkpt>
      <trkpt lat="49.05071" lon="4.00574">
        <ele>71.2</ele>
        <time>2020-06-30T17:23:51Z</time>
      </trkpt>
      <trkpt lat="49.05072" lon="4.00567">
        <ele>71.2</ele>
        <time>2020-06-30T17:23:52Z</time>
      </trkpt>
      <trkpt lat="49.05073" lon="4.00559">
        <ele>71.2</ele>
        <time>2020-06-30T17:23:53Z</time>
      </trkpt>
      <trkpt lat="49.05075" lon="4.00552">
        <ele>71.2</ele>
        <time>2020-06-30T17:23:54Z</time>
      </trkpt>
      <trkpt lat="49.05077" lon="4.00544">
        <ele>71.3</ele>
        <time>2020-06-30T17:23:55Z</time>
      </trkpt>
      <trkpt lat="49.05079" lon="4.00537">
        <ele>71.3</ele>
        <time>2020-06-30T17:23:56Z</time>
      </trkpt>
      <trkpt lat="49.05081" lon="4.0053">
        <ele>71.3</ele>
        <time>2020-06-30T17:23:57Z</time>
      </trkpt>
      <trkpt lat="49.05082" lon="4.00523">
        <ele>71.3</ele>
        <time>2020-06-30T17:23:58Z</time>
      </trkpt>
      <trkpt lat="49.05084" lon="4.00515">
        <ele>71.3</ele>
        <time>2020-06-30T17:23:59Z</time>
      </trkpt>
      <trkpt lat="49.05086" lon="4.00507">
        <ele>71.3</ele>
        <time>2020-06-30T17:24:00Z</time>
      </trkpt>
      <trkpt lat="49.05087" lon="4.00499">
        <ele>71.3</ele>
        <time>2020-06-30T17:24:01Z</time>
      </trkpt>
      <trkpt lat="49.05088" lon="4.0049">
        <ele>71.3</ele>
        <time>2020-06-30T17:24:02Z</time>
      </trkpt>
      <trkpt lat="49.05089" lon="4.00484">
        <ele>71.3</ele>
        <time>2020-06-30T17:24:03Z</time>
      </trkpt>
      <trkpt lat="49.05091" lon="4.00476">
        <ele>71.3</ele>
        <time>2020-06-30T17:24:04Z</time>
      </trkpt>
      <trkpt lat="49.05093" lon="4.00469">
        <ele>71.3</ele>
        <time>2020-06-30T17:24:05Z</time>
      </trkpt>
      <trkpt lat="49.05094" lon="4.0046">
        <ele>71.3</ele>
        <time>2020-06-30T17:24:06Z</time>
      </trkpt>
      <trkpt lat="49.05096" lon="4.00453">
        <ele>71.3</ele>
        <time>2020-06-30T17:24:07Z</time>
      </trkpt>
      <trkpt lat="49.05097" lon="4.00446">
        <ele>71.3</ele>
        <time>2020-06-30T17:24:08Z</time>
      </trkpt>
      <trkpt lat="49.05098" lon="4.00439">
        <ele>71.4</ele>
        <time>2020-06-30T17:24:09Z</time>
      </trkpt>
      <trkpt lat="49.05099" lon="4.00432">
        <ele>71.4</ele>
        <time>2020-06-30T17:24:10Z</time>
      </trkpt>
      <trkpt lat="49.05101" lon="4.00425">
        <ele>71.4</ele>
        <time>2020-06-30T17:24:11Z</time>
      </trkpt>
      <trkpt lat="49.05103" lon="4.00418">
        <ele>71.4</ele>
        <time>2020-06-30T17:24:12Z</time>
      </trkpt>
      <trkpt lat="49.05105" lon="4.00413">
        <ele>71.4</ele>
        <time>2020-06-30T17:24:13Z</time>
      </trkpt>
      <trkpt lat="49.05106" lon="4.00407">
        <ele>71.4</ele>
        <time>2020-06-30T17:24:14Z</time>
      </trkpt>
      <trkpt lat="49.05107" lon="4.00403">
        <ele>71.5</ele>
        <time>2020-06-30T17:24:15Z</time>
      </trkpt>
      <trkpt lat="49.05108" lon="4.00397">
        <ele>71.5</ele>
        <time>2020-06-30T17:24:16Z</time>
      </trkpt>
      <trkpt lat="49.05108" lon="4.00393">
        <ele>71.5</ele>
        <time>2020-06-30T17:24:17Z</time>
      </trkpt>
      <trkpt lat="49.05109" lon="4.00387">
        <ele>71.8</ele>
        <time>2020-06-30T17:24:18Z</time>
      </trkpt>
      <trkpt lat="49.0511" lon="4.00382">
        <ele>71.9</ele>
        <time>2020-06-30T17:24:19Z</time>
      </trkpt>
      <trkpt lat="49.05111" lon="4.00377">
        <ele>72</ele>
        <time>2020-06-30T17:24:20Z</time>
      </trkpt>
      <trkpt lat="49.05113" lon="4.00371">
        <ele>72.2</ele>
        <time>2020-06-30T17:24:21Z</time>
      </trkpt>
      <trkpt lat="49.05114" lon="4.00364">
        <ele>72.3</ele>
        <time>2020-06-30T17:24:22Z</time>
      </trkpt>
      <trkpt lat="49.05114" lon="4.00357">
        <ele>72.5</ele>
        <time>2020-06-30T17:24:23Z</time>
      </trkpt>
      <trkpt lat="49.05116" lon="4.00351">
        <ele>72.6</ele>
        <time>2020-06-30T17:24:24Z</time>
      </trkpt>
      <trkpt lat="49.05116" lon="4.00346">
        <ele>72.7</ele>
        <time>2020-06-30T17:24:25Z</time>
      </trkpt>
      <trkpt lat="49.05117" lon="4.00342">
        <ele>72.8</ele>
        <time>2020-06-30T17:24:26Z</time>
      </trkpt>
      <trkpt lat="49.05118" lon="4.00336">
        <ele>73</ele>
        <time>2020-06-30T17:24:27Z</time>
      </trkpt>
      <trkpt lat="49.05119" lon="4.00331">
        <ele>73.1</ele>
        <time>2020-06-30T17:24:28Z</time>
      </trkpt>
      <trkpt lat="49.05119" lon="4.00326">
        <ele>73.2</ele>
        <time>2020-06-30T17:24:29Z</time>
      </trkpt>
      <trkpt lat="49.05119" lon="4.00324">
        <ele>73.2</ele>
        <time>2020-06-30T17:24:30Z</time>
      </trkpt>
      <trkpt lat="49.05121" lon="4.0032">
        <ele>73.3</ele>
        <time>2020-06-30T17:24:31Z</time>
      </trkpt>
      <trkpt lat="49.05123" lon="4.00316">
        <ele>74.1</ele>
        <time>2020-06-30T17:24:32Z</time>
      </trkpt>
      <trkpt lat="49.05123" lon="4.00315">
        <ele>74.1</ele>
        <time>2020-06-30T17:24:33Z</time>
      </trkpt>
      <trkpt lat="49.0512" lon="4.00314">
        <ele>74.1</ele>
        <time>2020-06-30T17:24:34Z</time>
      </trkpt>
      <trkpt lat="49.0512" lon="4.00313">
        <ele>74.1</ele>
        <time>2020-06-30T17:24:35Z</time>
      </trkpt>
      <trkpt lat="49.05119" lon="4.00307">
        <ele>74.1</ele>
        <time>2020-06-30T17:24:36Z</time>
      </trkpt>
      <trkpt lat="49.05119" lon="4.00306">
        <ele>74.1</ele>
        <time>2020-06-30T17:24:37Z</time>
      </trkpt>
      <trkpt lat="49.05118" lon="4.003">
        <ele>73.8</ele>
        <time>2020-06-30T17:24:38Z</time>
      </trkpt>
      <trkpt lat="49.0512" lon="4.00294">
        <ele>73.6</ele>
        <time>2020-06-30T17:24:39Z</time>
      </trkpt>
      <trkpt lat="49.0512" lon="4.00286">
        <ele>73.3</ele>
        <time>2020-06-30T17:24:40Z</time>
      </trkpt>
      <trkpt lat="49.05121" lon="4.00278">
        <ele>72.9</ele>
        <time>2020-06-30T17:24:41Z</time>
      </trkpt>
      <trkpt lat="49.05123" lon="4.00271">
        <ele>72.5</ele>
        <time>2020-06-30T17:24:42Z</time>
      </trkpt>
      <trkpt lat="49.05124" lon="4.00264">
        <ele>72.2</ele>
        <time>2020-06-30T17:24:43Z</time>
      </trkpt>
      <trkpt lat="49.05125" lon="4.00256">
        <ele>71.8</ele>
        <time>2020-06-30T17:24:44Z</time>
      </trkpt>
      <trkpt lat="49.05125" lon="4.00248">
        <ele>71.5</ele>
        <time>2020-06-30T17:24:45Z</time>
      </trkpt>
      <trkpt lat="49.05127" lon="4.0024">
        <ele>71.2</ele>
        <time>2020-06-30T17:24:46Z</time>
      </trkpt>
      <trkpt lat="49.05128" lon="4.00231">
        <ele>70.9</ele>
        <time>2020-06-30T17:24:47Z</time>
      </trkpt>
      <trkpt lat="49.05128" lon="4.00223">
        <ele>70.8</ele>
        <time>2020-06-30T17:24:48Z</time>
      </trkpt>
      <trkpt lat="49.05128" lon="4.00215">
        <ele>70.8</ele>
        <time>2020-06-30T17:24:49Z</time>
      </trkpt>
      <trkpt lat="49.0513" lon="4.00208">
        <ele>70.8</ele>
        <time>2020-06-30T17:24:50Z</time>
      </trkpt>
      <trkpt lat="49.05131" lon="4.00202">
        <ele>70.8</ele>
        <time>2020-06-30T17:24:51Z</time>
      </trkpt>
      <trkpt lat="49.05132" lon="4.00196">
        <ele>70.7</ele>
        <time>2020-06-30T17:24:52Z</time>
      </trkpt>
      <trkpt lat="49.05134" lon="4.00189">
        <ele>70.7</ele>
        <time>2020-06-30T17:24:53Z</time>
      </trkpt>
      <trkpt lat="49.05134" lon="4.00183">
        <ele>70.7</ele>
        <time>2020-06-30T17:24:54Z</time>
      </trkpt>
      <trkpt lat="49.05135" lon="4.00177">
        <ele>70.7</ele>
        <time>2020-06-30T17:24:55Z</time>
      </trkpt>
      <trkpt lat="49.05136" lon="4.00169">
        <ele>70.7</ele>
        <time>2020-06-30T17:24:56Z</time>
      </trkpt>
      <trkpt lat="49.05137" lon="4.00162">
        <ele>70.6</ele>
        <time>2020-06-30T17:24:57Z</time>
      </trkpt>
      <trkpt lat="49.05138" lon="4.00153">
        <ele>70.5</ele>
        <time>2020-06-30T17:24:58Z</time>
      </trkpt>
      <trkpt lat="49.05139" lon="4.00145">
        <ele>70.5</ele>
        <time>2020-06-30T17:24:59Z</time>
      </trkpt>
      <trkpt lat="49.05141" lon="4.00134">
        <ele>70.4</ele>
        <time>2020-06-30T17:25:00Z</time>
      </trkpt>
      <trkpt lat="49.05142" lon="4.00125">
        <ele>70.4</ele>
        <time>2020-06-30T17:25:01Z</time>
      </trkpt>
      <trkpt lat="49.05142" lon="4.00118">
        <ele>70.3</ele>
        <time>2020-06-30T17:25:02Z</time>
      </trkpt>
      <trkpt lat="49.05143" lon="4.00109">
        <ele>70.3</ele>
        <time>2020-06-30T17:25:03Z</time>
      </trkpt>
      <trkpt lat="49.05145" lon="4.00101">
        <ele>70.3</ele>
        <time>2020-06-30T17:25:04Z</time>
      </trkpt>
      <trkpt lat="49.05147" lon="4.00092">
        <ele>70.2</ele>
        <time>2020-06-30T17:25:05Z</time>
      </trkpt>
      <trkpt lat="49.05148" lon="4.00084">
        <ele>70.2</ele>
        <time>2020-06-30T17:25:06Z</time>
      </trkpt>
      <trkpt lat="49.0515" lon="4.00076">
        <ele>70.2</ele>
        <time>2020-06-30T17:25:07Z</time>
      </trkpt>
      <trkpt lat="49.05151" lon="4.00068">
        <ele>70.2</ele>
        <time>2020-06-30T17:25:08Z</time>
      </trkpt>
      <trkpt lat="49.05152" lon="4.00061">
        <ele>70.2</ele>
        <time>2020-06-30T17:25:09Z</time>
      </trkpt>
      <trkpt lat="49.05154" lon="4.00054">
        <ele>70.2</ele>
        <time>2020-06-30T17:25:10Z</time>
      </trkpt>
      <trkpt lat="49.05155" lon="4.00047">
        <ele>70.2</ele>
        <time>2020-06-30T17:25:11Z</time>
      </trkpt>
      <trkpt lat="49.05156" lon="4.00039">
        <ele>70.2</ele>
        <time>2020-06-30T17:25:12Z</time>
      </trkpt>
      <trkpt lat="49.05157" lon="4.00031">
        <ele>70.2</ele>
        <time>2020-06-30T17:25:13Z</time>
      </trkpt>
      <trkpt lat="49.05158" lon="4.00024">
        <ele>70.2</ele>
        <time>2020-06-30T17:25:14Z</time>
      </trkpt>
      <trkpt lat="49.05158" lon="4.00018">
        <ele>70.2</ele>
        <time>2020-06-30T17:25:15Z</time>
      </trkpt>
      <trkpt lat="49.05158" lon="4.00011">
        <ele>70.2</ele>
        <time>2020-06-30T17:25:16Z</time>
      </trkpt>
      <trkpt lat="49.05158" lon="4.00004">
        <ele>70.2</ele>
        <time>2020-06-30T17:25:17Z</time>
      </trkpt>
      <trkpt lat="49.05159" lon="3.99996">
        <ele>70.2</ele>
        <time>2020-06-30T17:25:18Z</time>
      </trkpt>
      <trkpt lat="49.0516" lon="3.99988">
        <ele>70.3</ele>
        <time>2020-06-30T17:25:19Z</time>
      </trkpt>
      <trkpt lat="49.05162" lon="3.99981">
        <ele>70.3</ele>
        <time>2020-06-30T17:25:20Z</time>
      </trkpt>
      <trkpt lat="49.05163" lon="3.99974">
        <ele>70.3</ele>
        <time>2020-06-30T17:25:21Z</time>
      </trkpt>
      <trkpt lat="49.05165" lon="3.99968">
        <ele>70.3</ele>
        <time>2020-06-30T17:25:22Z</time>
      </trkpt>
      <trkpt lat="49.05168" lon="3.99961">
        <ele>70.3</ele>
        <time>2020-06-30T17:25:23Z</time>
      </trkpt>
      <trkpt lat="49.0517" lon="3.99954">
        <ele>70.2</ele>
        <time>2020-06-30T17:25:24Z</time>
      </trkpt>
      <trkpt lat="49.05174" lon="3.99948">
        <ele>70.2</ele>
        <time>2020-06-30T17:25:25Z</time>
      </trkpt>
      <trkpt lat="49.05176" lon="3.99941">
        <ele>70.2</ele>
        <time>2020-06-30T17:25:26Z</time>
      </trkpt>
      <trkpt lat="49.05178" lon="3.99934">
        <ele>70.2</ele>
        <time>2020-06-30T17:25:27Z</time>
      </trkpt>
      <trkpt lat="49.05181" lon="3.99927">
        <ele>70.2</ele>
        <time>2020-06-30T17:25:28Z</time>
      </trkpt>
      <trkpt lat="49.05183" lon="3.9992">
        <ele>70.2</ele>
        <time>2020-06-30T17:25:29Z</time>
      </trkpt>
      <trkpt lat="49.05186" lon="3.99913">
        <ele>70.1</ele>
        <time>2020-06-30T17:25:30Z</time>
      </trkpt>
      <trkpt lat="49.05188" lon="3.99907">
        <ele>70.1</ele>
        <time>2020-06-30T17:25:31Z</time>
      </trkpt>
      <trkpt lat="49.05191" lon="3.99899">
        <ele>70.1</ele>
        <time>2020-06-30T17:25:32Z</time>
      </trkpt>
      <trkpt lat="49.05193" lon="3.99891">
        <ele>70.1</ele>
        <time>2020-06-30T17:25:33Z</time>
      </trkpt>
      <trkpt lat="49.05194" lon="3.99883">
        <ele>70.1</ele>
        <time>2020-06-30T17:25:34Z</time>
      </trkpt>
      <trkpt lat="49.05196" lon="3.99876">
        <ele>70</ele>
        <time>2020-06-30T17:25:35Z</time>
      </trkpt>
      <trkpt lat="49.05198" lon="3.99868">
        <ele>70</ele>
        <time>2020-06-30T17:25:36Z</time>
      </trkpt>
      <trkpt lat="49.05199" lon="3.99861">
        <ele>70</ele>
        <time>2020-06-30T17:25:37Z</time>
      </trkpt>
      <trkpt lat="49.052" lon="3.99854">
        <ele>70</ele>
        <time>2020-06-30T17:25:38Z</time>
      </trkpt>
      <trkpt lat="49.05202" lon="3.99846">
        <ele>70</ele>
        <time>2020-06-30T17:25:39Z</time>
      </trkpt>
      <trkpt lat="49.05203" lon="3.99838">
        <ele>70</ele>
        <time>2020-06-30T17:25:40Z</time>
      </trkpt>
      <trkpt lat="49.05205" lon="3.9983">
        <ele>69.9</ele>
        <time>2020-06-30T17:25:41Z</time>
      </trkpt>
      <trkpt lat="49.05207" lon="3.99821">
        <ele>69.9</ele>
        <time>2020-06-30T17:25:42Z</time>
      </trkpt>
      <trkpt lat="49.05209" lon="3.99814">
        <ele>69.9</ele>
        <time>2020-06-30T17:25:43Z</time>
      </trkpt>
      <trkpt lat="49.0521" lon="3.99806">
        <ele>69.9</ele>
        <time>2020-06-30T17:25:44Z</time>
      </trkpt>
      <trkpt lat="49.05212" lon="3.99798">
        <ele>69.9</ele>
        <time>2020-06-30T17:25:45Z</time>
      </trkpt>
      <trkpt lat="49.05213" lon="3.9979">
        <ele>69.9</ele>
        <time>2020-06-30T17:25:46Z</time>
      </trkpt>
      <trkpt lat="49.05214" lon="3.99783">
        <ele>69.8</ele>
        <time>2020-06-30T17:25:47Z</time>
      </trkpt>
      <trkpt lat="49.05216" lon="3.99775">
        <ele>69.8</ele>
        <time>2020-06-30T17:25:48Z</time>
      </trkpt>
      <trkpt lat="49.05218" lon="3.99768">
        <ele>69.8</ele>
        <time>2020-06-30T17:25:49Z</time>
      </trkpt>
      <trkpt lat="49.0522" lon="3.9976">
        <ele>69.8</ele>
        <time>2020-06-30T17:25:50Z</time>
      </trkpt>
      <trkpt lat="49.05222" lon="3.99751">
        <ele>69.8</ele>
        <time>2020-06-30T17:25:51Z</time>
      </trkpt>
      <trkpt lat="49.05224" lon="3.99744">
        <ele>69.8</ele>
        <time>2020-06-30T17:25:52Z</time>
      </trkpt>
      <trkpt lat="49.05227" lon="3.99738">
        <ele>69.8</ele>
        <time>2020-06-30T17:25:53Z</time>
      </trkpt>
      <trkpt lat="49.05228" lon="3.99731">
        <ele>69.8</ele>
        <time>2020-06-30T17:25:54Z</time>
      </trkpt>
      <trkpt lat="49.05229" lon="3.99724">
        <ele>69.8</ele>
        <time>2020-06-30T17:25:55Z</time>
      </trkpt>
      <trkpt lat="49.0523" lon="3.99717">
        <ele>69.8</ele>
        <time>2020-06-30T17:25:56Z</time>
      </trkpt>
      <trkpt lat="49.05232" lon="3.99712">
        <ele>69.8</ele>
        <time>2020-06-30T17:25:57Z</time>
      </trkpt>
      <trkpt lat="49.05233" lon="3.99706">
        <ele>69.8</ele>
        <time>2020-06-30T17:25:58Z</time>
      </trkpt>
      <trkpt lat="49.05234" lon="3.997">
        <ele>69.8</ele>
        <time>2020-06-30T17:25:59Z</time>
      </trkpt>
      <trkpt lat="49.05236" lon="3.99695">
        <ele>69.8</ele>
        <time>2020-06-30T17:26:00Z</time>
      </trkpt>
      <trkpt lat="49.05238" lon="3.99691">
        <ele>69.8</ele>
        <time>2020-06-30T17:26:01Z</time>
      </trkpt>
      <trkpt lat="49.05242" lon="3.9969">
        <ele>69.8</ele>
        <time>2020-06-30T17:26:02Z</time>
      </trkpt>
      <trkpt lat="49.05245" lon="3.99694">
        <ele>69.8</ele>
        <time>2020-06-30T17:26:03Z</time>
      </trkpt>
      <trkpt lat="49.0525" lon="3.99697">
        <ele>69.8</ele>
        <time>2020-06-30T17:26:04Z</time>
      </trkpt>
      <trkpt lat="49.05254" lon="3.99698">
        <ele>69.8</ele>
        <time>2020-06-30T17:26:05Z</time>
      </trkpt>
      <trkpt lat="49.05258" lon="3.99698">
        <ele>69.8</ele>
        <time>2020-06-30T17:26:06Z</time>
      </trkpt>
      <trkpt lat="49.05261" lon="3.99697">
        <ele>69.8</ele>
        <time>2020-06-30T17:26:07Z</time>
      </trkpt>
      <trkpt lat="49.05265" lon="3.99694">
        <ele>69.8</ele>
        <time>2020-06-30T17:26:08Z</time>
      </trkpt>
      <trkpt lat="49.05267" lon="3.99689">
        <ele>69.8</ele>
        <time>2020-06-30T17:26:09Z</time>
      </trkpt>
      <trkpt lat="49.05269" lon="3.99683">
        <ele>69.8</ele>
        <time>2020-06-30T17:26:10Z</time>
      </trkpt>
      <trkpt lat="49.05271" lon="3.99675">
        <ele>69.9</ele>
        <time>2020-06-30T17:26:11Z</time>
      </trkpt>
      <trkpt lat="49.05274" lon="3.99667">
        <ele>69.9</ele>
        <time>2020-06-30T17:26:12Z</time>
      </trkpt>
      <trkpt lat="49.05275" lon="3.9966">
        <ele>69.9</ele>
        <time>2020-06-30T17:26:13Z</time>
      </trkpt>
      <trkpt lat="49.05276" lon="3.99654">
        <ele>69.9</ele>
        <time>2020-06-30T17:26:14Z</time>
      </trkpt>
      <trkpt lat="49.05277" lon="3.99646">
        <ele>69.9</ele>
        <time>2020-06-30T17:26:15Z</time>
      </trkpt>
      <trkpt lat="49.05279" lon="3.9964">
        <ele>69.9</ele>
        <time>2020-06-30T17:26:16Z</time>
      </trkpt>
      <trkpt lat="49.0528" lon="3.99632">
        <ele>69.9</ele>
        <time>2020-06-30T17:26:17Z</time>
      </trkpt>
      <trkpt lat="49.05283" lon="3.99624">
        <ele>69.9</ele>
        <time>2020-06-30T17:26:18Z</time>
      </trkpt>
      <trkpt lat="49.05286" lon="3.99617">
        <ele>69.9</ele>
        <time>2020-06-30T17:26:19Z</time>
      </trkpt>
      <trkpt lat="49.05289" lon="3.99609">
        <ele>69.9</ele>
        <time>2020-06-30T17:26:20Z</time>
      </trkpt>
      <trkpt lat="49.05292" lon="3.99601">
        <ele>69.9</ele>
        <time>2020-06-30T17:26:21Z</time>
      </trkpt>
      <trkpt lat="49.05295" lon="3.99593">
        <ele>69.9</ele>
        <time>2020-06-30T17:26:22Z</time>
      </trkpt>
      <trkpt lat="49.05297" lon="3.99586">
        <ele>69.9</ele>
        <time>2020-06-30T17:26:23Z</time>
      </trkpt>
      <trkpt lat="49.05299" lon="3.99578">
        <ele>70</ele>
        <time>2020-06-30T17:26:24Z</time>
      </trkpt>
      <trkpt lat="49.053" lon="3.99572">
        <ele>70</ele>
        <time>2020-06-30T17:26:25Z</time>
      </trkpt>
      <trkpt lat="49.05302" lon="3.99564">
        <ele>70</ele>
        <time>2020-06-30T17:26:26Z</time>
      </trkpt>
      <trkpt lat="49.05304" lon="3.99556">
        <ele>70</ele>
        <time>2020-06-30T17:26:27Z</time>
      </trkpt>
      <trkpt lat="49.05306" lon="3.99549">
        <ele>70</ele>
        <time>2020-06-30T17:26:28Z</time>
      </trkpt>
      <trkpt lat="49.05307" lon="3.99542">
        <ele>70</ele>
        <time>2020-06-30T17:26:29Z</time>
      </trkpt>
      <trkpt lat="49.05309" lon="3.99534">
        <ele>70</ele>
        <time>2020-06-30T17:26:30Z</time>
      </trkpt>
      <trkpt lat="49.05311" lon="3.99526">
        <ele>70</ele>
        <time>2020-06-30T17:26:31Z</time>
      </trkpt>
      <trkpt lat="49.05313" lon="3.99519">
        <ele>70</ele>
        <time>2020-06-30T17:26:32Z</time>
      </trkpt>
      <trkpt lat="49.05314" lon="3.99512">
        <ele>70</ele>
        <time>2020-06-30T17:26:33Z</time>
      </trkpt>
      <trkpt lat="49.05316" lon="3.99504">
        <ele>70</ele>
        <time>2020-06-30T17:26:34Z</time>
      </trkpt>
      <trkpt lat="49.05319" lon="3.99497">
        <ele>70</ele>
        <time>2020-06-30T17:26:35Z</time>
      </trkpt>
      <trkpt lat="49.0532" lon="3.99488">
        <ele>70</ele>
        <time>2020-06-30T17:26:36Z</time>
      </trkpt>
      <trkpt lat="49.05323" lon="3.99478">
        <ele>70.1</ele>
        <time>2020-06-30T17:26:37Z</time>
      </trkpt>
      <trkpt lat="49.05325" lon="3.9947">
        <ele>70.1</ele>
        <time>2020-06-30T17:26:38Z</time>
      </trkpt>
      <trkpt lat="49.05327" lon="3.99461">
        <ele>70.1</ele>
        <time>2020-06-30T17:26:39Z</time>
      </trkpt>
      <trkpt lat="49.05329" lon="3.99454">
        <ele>70.2</ele>
        <time>2020-06-30T17:26:40Z</time>
      </trkpt>
      <trkpt lat="49.05331" lon="3.99446">
        <ele>70.2</ele>
        <time>2020-06-30T17:26:41Z</time>
      </trkpt>
      <trkpt lat="49.05333" lon="3.99439">
        <ele>70.2</ele>
        <time>2020-06-30T17:26:42Z</time>
      </trkpt>
      <trkpt lat="49.05335" lon="3.99431">
        <ele>70.3</ele>
        <time>2020-06-30T17:26:43Z</time>
      </trkpt>
      <trkpt lat="49.05338" lon="3.99424">
        <ele>70.3</ele>
        <time>2020-06-30T17:26:44Z</time>
      </trkpt>
      <trkpt lat="49.05341" lon="3.99417">
        <ele>70.3</ele>
        <time>2020-06-30T17:26:45Z</time>
      </trkpt>
      <trkpt lat="49.05343" lon="3.99409">
        <ele>70.3</ele>
        <time>2020-06-30T17:26:46Z</time>
      </trkpt>
      <trkpt lat="49.05345" lon="3.99401">
        <ele>70.4</ele>
        <time>2020-06-30T17:26:47Z</time>
      </trkpt>
      <trkpt lat="49.05345" lon="3.99394">
        <ele>70.4</ele>
        <time>2020-06-30T17:26:48Z</time>
      </trkpt>
      <trkpt lat="49.05346" lon="3.99386">
        <ele>70.4</ele>
        <time>2020-06-30T17:26:49Z</time>
      </trkpt>
      <trkpt lat="49.05348" lon="3.99378">
        <ele>70.4</ele>
        <time>2020-06-30T17:26:50Z</time>
      </trkpt>
      <trkpt lat="49.05351" lon="3.99371">
        <ele>70.4</ele>
        <time>2020-06-30T17:26:51Z</time>
      </trkpt>
      <trkpt lat="49.05353" lon="3.99364">
        <ele>70.4</ele>
        <time>2020-06-30T17:26:52Z</time>
      </trkpt>
      <trkpt lat="49.05356" lon="3.99355">
        <ele>70.4</ele>
        <time>2020-06-30T17:26:53Z</time>
      </trkpt>
      <trkpt lat="49.05358" lon="3.99349">
        <ele>70.4</ele>
        <time>2020-06-30T17:26:54Z</time>
      </trkpt>
      <trkpt lat="49.0536" lon="3.99341">
        <ele>70.4</ele>
        <time>2020-06-30T17:26:55Z</time>
      </trkpt>
      <trkpt lat="49.05363" lon="3.99335">
        <ele>70.4</ele>
        <time>2020-06-30T17:26:56Z</time>
      </trkpt>
      <trkpt lat="49.05365" lon="3.9933">
        <ele>70.4</ele>
        <time>2020-06-30T17:26:57Z</time>
      </trkpt>
      <trkpt lat="49.05367" lon="3.99324">
        <ele>70.4</ele>
        <time>2020-06-30T17:26:58Z</time>
      </trkpt>
      <trkpt lat="49.05369" lon="3.99315">
        <ele>70.5</ele>
        <time>2020-06-30T17:26:59Z</time>
      </trkpt>
      <trkpt lat="49.05369" lon="3.99307">
        <ele>70.5</ele>
        <time>2020-06-30T17:27:00Z</time>
      </trkpt>
      <trkpt lat="49.05372" lon="3.99299">
        <ele>70.5</ele>
        <time>2020-06-30T17:27:01Z</time>
      </trkpt>
      <trkpt lat="49.05375" lon="3.99294">
        <ele>70.5</ele>
        <time>2020-06-30T17:27:02Z</time>
      </trkpt>
      <trkpt lat="49.05379" lon="3.99287">
        <ele>70.5</ele>
        <time>2020-06-30T17:27:03Z</time>
      </trkpt>
      <trkpt lat="49.05382" lon="3.99281">
        <ele>70.5</ele>
        <time>2020-06-30T17:27:04Z</time>
      </trkpt>
      <trkpt lat="49.05384" lon="3.99275">
        <ele>70.7</ele>
        <time>2020-06-30T17:27:05Z</time>
      </trkpt>
      <trkpt lat="49.05386" lon="3.99269">
        <ele>70.8</ele>
        <time>2020-06-30T17:27:06Z</time>
      </trkpt>
      <trkpt lat="49.05387" lon="3.99264">
        <ele>71</ele>
        <time>2020-06-30T17:27:07Z</time>
      </trkpt>
      <trkpt lat="49.05389" lon="3.99258">
        <ele>71.1</ele>
        <time>2020-06-30T17:27:08Z</time>
      </trkpt>
      <trkpt lat="49.0539" lon="3.99252">
        <ele>71.3</ele>
        <time>2020-06-30T17:27:09Z</time>
      </trkpt>
      <trkpt lat="49.05391" lon="3.99247">
        <ele>71.5</ele>
        <time>2020-06-30T17:27:10Z</time>
      </trkpt>
      <trkpt lat="49.05392" lon="3.99242">
        <ele>71.6</ele>
        <time>2020-06-30T17:27:11Z</time>
      </trkpt>
      <trkpt lat="49.05392" lon="3.99237">
        <ele>71.8</ele>
        <time>2020-06-30T17:27:12Z</time>
      </trkpt>
      <trkpt lat="49.05393" lon="3.99235">
        <ele>71.9</ele>
        <time>2020-06-30T17:27:13Z</time>
      </trkpt>
      <trkpt lat="49.05394" lon="3.99229">
        <ele>72.1</ele>
        <time>2020-06-30T17:27:14Z</time>
      </trkpt>
      <trkpt lat="49.05394" lon="3.99226">
        <ele>72.2</ele>
        <time>2020-06-30T17:27:15Z</time>
      </trkpt>
      <trkpt lat="49.05395" lon="3.99222">
        <ele>72.3</ele>
        <time>2020-06-30T17:27:16Z</time>
      </trkpt>
      <trkpt lat="49.05397" lon="3.99218">
        <ele>72.5</ele>
        <time>2020-06-30T17:27:17Z</time>
      </trkpt>
      <trkpt lat="49.05397" lon="3.99212">
        <ele>72.7</ele>
        <time>2020-06-30T17:27:18Z</time>
      </trkpt>
      <trkpt lat="49.05397" lon="3.9921">
        <ele>72.8</ele>
        <time>2020-06-30T17:27:19Z</time>
      </trkpt>
      <trkpt lat="49.05397" lon="3.99205">
        <ele>73</ele>
        <time>2020-06-30T17:27:20Z</time>
      </trkpt>
      <trkpt lat="49.05397" lon="3.99203">
        <ele>73.1</ele>
        <time>2020-06-30T17:27:21Z</time>
      </trkpt>
      <trkpt lat="49.05397" lon="3.992">
        <ele>73.2</ele>
        <time>2020-06-30T17:27:22Z</time>
      </trkpt>
      <trkpt lat="49.05397" lon="3.99198">
        <ele>73.2</ele>
        <time>2020-06-30T17:27:23Z</time>
      </trkpt>
      <trkpt lat="49.05397" lon="3.99196">
        <ele>73.2</ele>
        <time>2020-06-30T17:27:24Z</time>
      </trkpt>
      <trkpt lat="49.05397" lon="3.99192">
        <ele>73.2</ele>
        <time>2020-06-30T17:27:25Z</time>
      </trkpt>
      <trkpt lat="49.05398" lon="3.99187">
        <ele>73.2</ele>
        <time>2020-06-30T17:27:26Z</time>
      </trkpt>
      <trkpt lat="49.05398" lon="3.99185">
        <ele>73.2</ele>
        <time>2020-06-30T17:27:27Z</time>
      </trkpt>
      <trkpt lat="49.05398" lon="3.99182">
        <ele>73.2</ele>
        <time>2020-06-30T17:27:28Z</time>
      </trkpt>
      <trkpt lat="49.05398" lon="3.9918">
        <ele>73.2</ele>
        <time>2020-06-30T17:27:29Z</time>
      </trkpt>
      <trkpt lat="49.05398" lon="3.99176">
        <ele>73.2</ele>
        <time>2020-06-30T17:27:30Z</time>
      </trkpt>
      <trkpt lat="49.05397" lon="3.99175">
        <ele>73.1</ele>
        <time>2020-06-30T17:27:31Z</time>
      </trkpt>
      <trkpt lat="49.05396" lon="3.99171">
        <ele>73.1</ele>
        <time>2020-06-30T17:27:32Z</time>
      </trkpt>
      <trkpt lat="49.05395" lon="3.99165">
        <ele>73</ele>
        <time>2020-06-30T17:27:33Z</time>
      </trkpt>
      <trkpt lat="49.05395" lon="3.99164">
        <ele>73</ele>
        <time>2020-06-30T17:27:34Z</time>
      </trkpt>
      <trkpt lat="49.05394" lon="3.99163">
        <ele>73</ele>
        <time>2020-06-30T17:27:35Z</time>
      </trkpt>
      <trkpt lat="49.05394" lon="3.99161">
        <ele>73</ele>
        <time>2020-06-30T17:27:36Z</time>
      </trkpt>
      <trkpt lat="49.05393" lon="3.99159">
        <ele>73</ele>
        <time>2020-06-30T17:27:37Z</time>
      </trkpt>
      <trkpt lat="49.05392" lon="3.99156">
        <ele>72.9</ele>
        <time>2020-06-30T17:27:38Z</time>
      </trkpt>
      <trkpt lat="49.05392" lon="3.99155">
        <ele>72.9</ele>
        <time>2020-06-30T17:27:39Z</time>
      </trkpt>
      <trkpt lat="49.05392" lon="3.99153">
        <ele>72.9</ele>
        <time>2020-06-30T17:27:40Z</time>
      </trkpt>
      <trkpt lat="49.05391" lon="3.99151">
        <ele>72.9</ele>
        <time>2020-06-30T17:27:41Z</time>
      </trkpt>
      <trkpt lat="49.05391" lon="3.99151">
        <ele>72.9</ele>
        <time>2020-06-30T17:27:42Z</time>
      </trkpt>
      <trkpt lat="49.05391" lon="3.9915">
        <ele>72.9</ele>
        <time>2020-06-30T17:27:43Z</time>
      </trkpt>
      <trkpt lat="49.0539" lon="3.9915">
        <ele>72.9</ele>
        <time>2020-06-30T17:27:44Z</time>
      </trkpt>
      <trkpt lat="49.0539" lon="3.99149">
        <ele>72.9</ele>
        <time>2020-06-30T17:27:45Z</time>
      </trkpt>
      <trkpt lat="49.0539" lon="3.99149">
        <ele>72.9</ele>
        <time>2020-06-30T17:27:46Z</time>
      </trkpt>
      <trkpt lat="49.0539" lon="3.99148">
        <ele>72.9</ele>
        <time>2020-06-30T17:27:47Z</time>
      </trkpt>
      <trkpt lat="49.05389" lon="3.99148">
        <ele>72.9</ele>
        <time>2020-06-30T17:27:48Z</time>
      </trkpt>
      <trkpt lat="49.05389" lon="3.99147">
        <ele>72.8</ele>
        <time>2020-06-30T17:27:49Z</time>
      </trkpt>
      <trkpt lat="49.05389" lon="3.99147">
        <ele>72.8</ele>
        <time>2020-06-30T17:27:50Z</time>
      </trkpt>
      <trkpt lat="49.05389" lon="3.99146">
        <ele>72.8</ele>
        <time>2020-06-30T17:27:51Z</time>
      </trkpt>
      <trkpt lat="49.05388" lon="3.99146">
        <ele>72.8</ele>
        <time>2020-06-30T17:27:52Z</time>
      </trkpt>
      <trkpt lat="49.05388" lon="3.99145">
        <ele>72.8</ele>
        <time>2020-06-30T17:28:15Z</time>
      </trkpt>
      <trkpt lat="49.05388" lon="3.99144">
        <ele>72.8</ele>
        <time>2020-06-30T17:28:16Z</time>
      </trkpt>
      <trkpt lat="49.05386" lon="3.9914">
        <ele>72.8</ele>
        <time>2020-06-30T17:28:17Z</time>
      </trkpt>
      <trkpt lat="49.05384" lon="3.99134">
        <ele>72.7</ele>
        <time>2020-06-30T17:28:18Z</time>
      </trkpt>
      <trkpt lat="49.05383" lon="3.99127">
        <ele>72.5</ele>
        <time>2020-06-30T17:28:19Z</time>
      </trkpt>
      <trkpt lat="49.05382" lon="3.99121">
        <ele>72.4</ele>
        <time>2020-06-30T17:28:20Z</time>
      </trkpt>
      <trkpt lat="49.05379" lon="3.99116">
        <ele>72.3</ele>
        <time>2020-06-30T17:28:21Z</time>
      </trkpt>
      <trkpt lat="49.05377" lon="3.9911">
        <ele>72.1</ele>
        <time>2020-06-30T17:28:22Z</time>
      </trkpt>
      <trkpt lat="49.05375" lon="3.99103">
        <ele>72</ele>
        <time>2020-06-30T17:28:23Z</time>
      </trkpt>
      <trkpt lat="49.05373" lon="3.99097">
        <ele>71.9</ele>
        <time>2020-06-30T17:28:24Z</time>
      </trkpt>
      <trkpt lat="49.05371" lon="3.9909">
        <ele>71.8</ele>
        <time>2020-06-30T17:28:25Z</time>
      </trkpt>
      <trkpt lat="49.05368" lon="3.99082">
        <ele>71.6</ele>
        <time>2020-06-30T17:28:26Z</time>
      </trkpt>
      <trkpt lat="49.05365" lon="3.99074">
        <ele>71.5</ele>
        <time>2020-06-30T17:28:27Z</time>
      </trkpt>
      <trkpt lat="49.05362" lon="3.99066">
        <ele>71.4</ele>
        <time>2020-06-30T17:28:28Z</time>
      </trkpt>
      <trkpt lat="49.05359" lon="3.99058">
        <ele>71.3</ele>
        <time>2020-06-30T17:28:29Z</time>
      </trkpt>
      <trkpt lat="49.05356" lon="3.99049">
        <ele>71.3</ele>
        <time>2020-06-30T17:28:30Z</time>
      </trkpt>
      <trkpt lat="49.05354" lon="3.9904">
        <ele>71.2</ele>
        <time>2020-06-30T17:28:31Z</time>
      </trkpt>
      <trkpt lat="49.05352" lon="3.99032">
        <ele>71.2</ele>
        <time>2020-06-30T17:28:32Z</time>
      </trkpt>
      <trkpt lat="49.05349" lon="3.99025">
        <ele>71.1</ele>
        <time>2020-06-30T17:28:33Z</time>
      </trkpt>
      <trkpt lat="49.05346" lon="3.99017">
        <ele>71.1</ele>
        <time>2020-06-30T17:28:34Z</time>
      </trkpt>
      <trkpt lat="49.05344" lon="3.9901">
        <ele>71</ele>
        <time>2020-06-30T17:28:35Z</time>
      </trkpt>
      <trkpt lat="49.05342" lon="3.99003">
        <ele>71</ele>
        <time>2020-06-30T17:28:36Z</time>
      </trkpt>
      <trkpt lat="49.0534" lon="3.98995">
        <ele>71</ele>
        <time>2020-06-30T17:28:37Z</time>
      </trkpt>
      <trkpt lat="49.05337" lon="3.98987">
        <ele>71</ele>
        <time>2020-06-30T17:28:38Z</time>
      </trkpt>
      <trkpt lat="49.05334" lon="3.9898">
        <ele>71</ele>
        <time>2020-06-30T17:28:39Z</time>
      </trkpt>
      <trkpt lat="49.05332" lon="3.98972">
        <ele>71</ele>
        <time>2020-06-30T17:28:40Z</time>
      </trkpt>
      <trkpt lat="49.0533" lon="3.98963">
        <ele>70.9</ele>
        <time>2020-06-30T17:28:41Z</time>
      </trkpt>
      <trkpt lat="49.05328" lon="3.98956">
        <ele>70.9</ele>
        <time>2020-06-30T17:28:42Z</time>
      </trkpt>
      <trkpt lat="49.05326" lon="3.98948">
        <ele>70.9</ele>
        <time>2020-06-30T17:28:43Z</time>
      </trkpt>
      <trkpt lat="49.05324" lon="3.9894">
        <ele>70.9</ele>
        <time>2020-06-30T17:28:44Z</time>
      </trkpt>
      <trkpt lat="49.05322" lon="3.98932">
        <ele>70.9</ele>
        <time>2020-06-30T17:28:45Z</time>
      </trkpt>
      <trkpt lat="49.05319" lon="3.98924">
        <ele>70.9</ele>
        <time>2020-06-30T17:28:46Z</time>
      </trkpt>
      <trkpt lat="49.05317" lon="3.98915">
        <ele>70.9</ele>
        <time>2020-06-30T17:28:47Z</time>
      </trkpt>
      <trkpt lat="49.05314" lon="3.98906">
        <ele>70.9</ele>
        <time>2020-06-30T17:28:48Z</time>
      </trkpt>
      <trkpt lat="49.05313" lon="3.98897">
        <ele>70.8</ele>
        <time>2020-06-30T17:28:49Z</time>
      </trkpt>
      <trkpt lat="49.05311" lon="3.9889">
        <ele>70.8</ele>
        <time>2020-06-30T17:28:50Z</time>
      </trkpt>
      <trkpt lat="49.05308" lon="3.98883">
        <ele>70.8</ele>
        <time>2020-06-30T17:28:51Z</time>
      </trkpt>
      <trkpt lat="49.05306" lon="3.98875">
        <ele>70.8</ele>
        <time>2020-06-30T17:28:52Z</time>
      </trkpt>
      <trkpt lat="49.05304" lon="3.98868">
        <ele>70.8</ele>
        <time>2020-06-30T17:28:53Z</time>
      </trkpt>
      <trkpt lat="49.05302" lon="3.9886">
        <ele>70.8</ele>
        <time>2020-06-30T17:28:54Z</time>
      </trkpt>
      <trkpt lat="49.053" lon="3.98852">
        <ele>70.8</ele>
        <time>2020-06-30T17:28:55Z</time>
      </trkpt>
      <trkpt lat="49.05298" lon="3.98843">
        <ele>70.8</ele>
        <time>2020-06-30T17:28:56Z</time>
      </trkpt>
      <trkpt lat="49.05296" lon="3.98836">
        <ele>70.8</ele>
        <time>2020-06-30T17:28:57Z</time>
      </trkpt>
      <trkpt lat="49.05294" lon="3.98827">
        <ele>70.8</ele>
        <time>2020-06-30T17:28:58Z</time>
      </trkpt>
      <trkpt lat="49.05292" lon="3.98819">
        <ele>70.9</ele>
        <time>2020-06-30T17:28:59Z</time>
      </trkpt>
      <trkpt lat="49.0529" lon="3.98813">
        <ele>70.9</ele>
        <time>2020-06-30T17:29:00Z</time>
      </trkpt>
      <trkpt lat="49.05287" lon="3.98804">
        <ele>70.9</ele>
        <time>2020-06-30T17:29:01Z</time>
      </trkpt>
      <trkpt lat="49.05284" lon="3.98796">
        <ele>70.9</ele>
        <time>2020-06-30T17:29:02Z</time>
      </trkpt>
      <trkpt lat="49.05284" lon="3.98788">
        <ele>70.9</ele>
        <time>2020-06-30T17:29:03Z</time>
      </trkpt>
      <trkpt lat="49.05281" lon="3.98779">
        <ele>70.9</ele>
        <time>2020-06-30T17:29:04Z</time>
      </trkpt>
      <trkpt lat="49.05279" lon="3.98773">
        <ele>70.8</ele>
        <time>2020-06-30T17:29:05Z</time>
      </trkpt>
      <trkpt lat="49.05277" lon="3.98765">
        <ele>70.8</ele>
        <time>2020-06-30T17:29:06Z</time>
      </trkpt>
      <trkpt lat="49.05274" lon="3.98756">
        <ele>70.8</ele>
        <time>2020-06-30T17:29:07Z</time>
      </trkpt>
      <trkpt lat="49.05271" lon="3.98747">
        <ele>70.8</ele>
        <time>2020-06-30T17:29:08Z</time>
      </trkpt>
      <trkpt lat="49.05269" lon="3.98739">
        <ele>70.8</ele>
        <time>2020-06-30T17:29:09Z</time>
      </trkpt>
      <trkpt lat="49.05267" lon="3.98731">
        <ele>70.8</ele>
        <time>2020-06-30T17:29:10Z</time>
      </trkpt>
      <trkpt lat="49.05265" lon="3.98723">
        <ele>70.8</ele>
        <time>2020-06-30T17:29:11Z</time>
      </trkpt>
      <trkpt lat="49.05262" lon="3.98716">
        <ele>70.8</ele>
        <time>2020-06-30T17:29:12Z</time>
      </trkpt>
      <trkpt lat="49.0526" lon="3.98707">
        <ele>70.8</ele>
        <time>2020-06-30T17:29:13Z</time>
      </trkpt>
      <trkpt lat="49.05257" lon="3.98698">
        <ele>70.8</ele>
        <time>2020-06-30T17:29:14Z</time>
      </trkpt>
      <trkpt lat="49.05255" lon="3.98693">
        <ele>70.8</ele>
        <time>2020-06-30T17:29:15Z</time>
      </trkpt>
      <trkpt lat="49.05254" lon="3.98684">
        <ele>70.8</ele>
        <time>2020-06-30T17:29:16Z</time>
      </trkpt>
      <trkpt lat="49.05252" lon="3.98677">
        <ele>70.8</ele>
        <time>2020-06-30T17:29:17Z</time>
      </trkpt>
      <trkpt lat="49.0525" lon="3.9867">
        <ele>70.8</ele>
        <time>2020-06-30T17:29:18Z</time>
      </trkpt>
      <trkpt lat="49.05247" lon="3.98663">
        <ele>70.9</ele>
        <time>2020-06-30T17:29:19Z</time>
      </trkpt>
      <trkpt lat="49.05245" lon="3.98656">
        <ele>70.9</ele>
        <time>2020-06-30T17:29:20Z</time>
      </trkpt>
      <trkpt lat="49.05242" lon="3.98649">
        <ele>70.9</ele>
        <time>2020-06-30T17:29:21Z</time>
      </trkpt>
      <trkpt lat="49.05239" lon="3.98642">
        <ele>71</ele>
        <time>2020-06-30T17:29:22Z</time>
      </trkpt>
      <trkpt lat="49.05237" lon="3.98636">
        <ele>71</ele>
        <time>2020-06-30T17:29:23Z</time>
      </trkpt>
      <trkpt lat="49.05235" lon="3.98628">
        <ele>71.1</ele>
        <time>2020-06-30T17:29:24Z</time>
      </trkpt>
      <trkpt lat="49.05233" lon="3.9862">
        <ele>71.1</ele>
        <time>2020-06-30T17:29:25Z</time>
      </trkpt>
      <trkpt lat="49.0523" lon="3.98613">
        <ele>71.2</ele>
        <time>2020-06-30T17:29:26Z</time>
      </trkpt>
      <trkpt lat="49.05229" lon="3.98606">
        <ele>71.2</ele>
        <time>2020-06-30T17:29:27Z</time>
      </trkpt>
      <trkpt lat="49.05227" lon="3.98599">
        <ele>71.3</ele>
        <time>2020-06-30T17:29:28Z</time>
      </trkpt>
      <trkpt lat="49.05223" lon="3.98591">
        <ele>71.3</ele>
        <time>2020-06-30T17:29:29Z</time>
      </trkpt>
      <trkpt lat="49.05221" lon="3.98583">
        <ele>71.3</ele>
        <time>2020-06-30T17:29:30Z</time>
      </trkpt>
      <trkpt lat="49.05219" lon="3.98575">
        <ele>71.4</ele>
        <time>2020-06-30T17:29:31Z</time>
      </trkpt>
      <trkpt lat="49.05216" lon="3.98568">
        <ele>71.4</ele>
        <time>2020-06-30T17:29:32Z</time>
      </trkpt>
      <trkpt lat="49.05214" lon="3.98561">
        <ele>71.4</ele>
        <time>2020-06-30T17:29:33Z</time>
      </trkpt>
      <trkpt lat="49.05212" lon="3.98554">
        <ele>71.4</ele>
        <time>2020-06-30T17:29:34Z</time>
      </trkpt>
      <trkpt lat="49.0521" lon="3.98548">
        <ele>71.4</ele>
        <time>2020-06-30T17:29:35Z</time>
      </trkpt>
      <trkpt lat="49.05208" lon="3.9854">
        <ele>71.4</ele>
        <time>2020-06-30T17:29:36Z</time>
      </trkpt>
      <trkpt lat="49.05206" lon="3.98533">
        <ele>71.4</ele>
        <time>2020-06-30T17:29:37Z</time>
      </trkpt>
      <trkpt lat="49.05205" lon="3.98526">
        <ele>71.4</ele>
        <time>2020-06-30T17:29:38Z</time>
      </trkpt>
      <trkpt lat="49.05203" lon="3.98519">
        <ele>71.3</ele>
        <time>2020-06-30T17:29:39Z</time>
      </trkpt>
      <trkpt lat="49.05201" lon="3.98512">
        <ele>71.3</ele>
        <time>2020-06-30T17:29:40Z</time>
      </trkpt>
      <trkpt lat="49.05199" lon="3.98505">
        <ele>71.2</ele>
        <time>2020-06-30T17:29:41Z</time>
      </trkpt>
      <trkpt lat="49.05197" lon="3.98497">
        <ele>71.2</ele>
        <time>2020-06-30T17:29:42Z</time>
      </trkpt>
      <trkpt lat="49.05195" lon="3.9849">
        <ele>71.1</ele>
        <time>2020-06-30T17:29:43Z</time>
      </trkpt>
      <trkpt lat="49.05192" lon="3.98483">
        <ele>71.1</ele>
        <time>2020-06-30T17:29:44Z</time>
      </trkpt>
      <trkpt lat="49.05191" lon="3.98476">
        <ele>71</ele>
        <time>2020-06-30T17:29:45Z</time>
      </trkpt>
      <trkpt lat="49.05189" lon="3.9847">
        <ele>71</ele>
        <time>2020-06-30T17:29:46Z</time>
      </trkpt>
      <trkpt lat="49.05187" lon="3.98463">
        <ele>71</ele>
        <time>2020-06-30T17:29:47Z</time>
      </trkpt>
      <trkpt lat="49.05186" lon="3.98457">
        <ele>70.9</ele>
        <time>2020-06-30T17:29:48Z</time>
      </trkpt>
      <trkpt lat="49.05184" lon="3.98449">
        <ele>70.9</ele>
        <time>2020-06-30T17:29:49Z</time>
      </trkpt>
      <trkpt lat="49.05181" lon="3.98441">
        <ele>70.9</ele>
        <time>2020-06-30T17:29:50Z</time>
      </trkpt>
      <trkpt lat="49.05179" lon="3.98433">
        <ele>70.8</ele>
        <time>2020-06-30T17:29:51Z</time>
      </trkpt>
      <trkpt lat="49.05177" lon="3.98425">
        <ele>70.8</ele>
        <time>2020-06-30T17:29:52Z</time>
      </trkpt>
      <trkpt lat="49.05176" lon="3.98418">
        <ele>70.8</ele>
        <time>2020-06-30T17:29:53Z</time>
      </trkpt>
      <trkpt lat="49.05174" lon="3.98411">
        <ele>70.8</ele>
        <time>2020-06-30T17:29:54Z</time>
      </trkpt>
      <trkpt lat="49.05172" lon="3.98403">
        <ele>70.8</ele>
        <time>2020-06-30T17:29:55Z</time>
      </trkpt>
      <trkpt lat="49.0517" lon="3.98396">
        <ele>70.7</ele>
        <time>2020-06-30T17:29:56Z</time>
      </trkpt>
      <trkpt lat="49.05168" lon="3.98389">
        <ele>70.7</ele>
        <time>2020-06-30T17:29:57Z</time>
      </trkpt>
      <trkpt lat="49.05166" lon="3.98382">
        <ele>70.7</ele>
        <time>2020-06-30T17:29:58Z</time>
      </trkpt>
      <trkpt lat="49.05164" lon="3.98374">
        <ele>70.7</ele>
        <time>2020-06-30T17:29:59Z</time>
      </trkpt>
      <trkpt lat="49.05161" lon="3.98366">
        <ele>70.7</ele>
        <time>2020-06-30T17:30:00Z</time>
      </trkpt>
      <trkpt lat="49.05158" lon="3.98359">
        <ele>70.7</ele>
        <time>2020-06-30T17:30:01Z</time>
      </trkpt>
      <trkpt lat="49.05156" lon="3.98352">
        <ele>70.7</ele>
        <time>2020-06-30T17:30:02Z</time>
      </trkpt>
      <trkpt lat="49.05153" lon="3.98345">
        <ele>70.6</ele>
        <time>2020-06-30T17:30:03Z</time>
      </trkpt>
      <trkpt lat="49.0515" lon="3.98338">
        <ele>70.6</ele>
        <time>2020-06-30T17:30:04Z</time>
      </trkpt>
      <trkpt lat="49.05148" lon="3.9833">
        <ele>70.6</ele>
        <time>2020-06-30T17:30:05Z</time>
      </trkpt>
      <trkpt lat="49.05146" lon="3.98323">
        <ele>70.6</ele>
        <time>2020-06-30T17:30:06Z</time>
      </trkpt>
      <trkpt lat="49.05143" lon="3.98315">
        <ele>70.6</ele>
        <time>2020-06-30T17:30:07Z</time>
      </trkpt>
      <trkpt lat="49.05141" lon="3.98308">
        <ele>70.6</ele>
        <time>2020-06-30T17:30:08Z</time>
      </trkpt>
      <trkpt lat="49.05139" lon="3.983">
        <ele>70.6</ele>
        <time>2020-06-30T17:30:09Z</time>
      </trkpt>
      <trkpt lat="49.05136" lon="3.98293">
        <ele>70.6</ele>
        <time>2020-06-30T17:30:10Z</time>
      </trkpt>
      <trkpt lat="49.05134" lon="3.98285">
        <ele>70.7</ele>
        <time>2020-06-30T17:30:11Z</time>
      </trkpt>
      <trkpt lat="49.05132" lon="3.98278">
        <ele>70.7</ele>
        <time>2020-06-30T17:30:12Z</time>
      </trkpt>
      <trkpt lat="49.0513" lon="3.9827">
        <ele>70.7</ele>
        <time>2020-06-30T17:30:13Z</time>
      </trkpt>
      <trkpt lat="49.05128" lon="3.98262">
        <ele>70.6</ele>
        <time>2020-06-30T17:30:14Z</time>
      </trkpt>
      <trkpt lat="49.05125" lon="3.98255">
        <ele>70.6</ele>
        <time>2020-06-30T17:30:15Z</time>
      </trkpt>
      <trkpt lat="49.05123" lon="3.98248">
        <ele>70.6</ele>
        <time>2020-06-30T17:30:16Z</time>
      </trkpt>
      <trkpt lat="49.05121" lon="3.98239">
        <ele>70.6</ele>
        <time>2020-06-30T17:30:17Z</time>
      </trkpt>
      <trkpt lat="49.05119" lon="3.98232">
        <ele>70.6</ele>
        <time>2020-06-30T17:30:18Z</time>
      </trkpt>
      <trkpt lat="49.05117" lon="3.98224">
        <ele>70.6</ele>
        <time>2020-06-30T17:30:19Z</time>
      </trkpt>
      <trkpt lat="49.05115" lon="3.98217">
        <ele>70.6</ele>
        <time>2020-06-30T17:30:20Z</time>
      </trkpt>
      <trkpt lat="49.05113" lon="3.9821">
        <ele>70.6</ele>
        <time>2020-06-30T17:30:21Z</time>
      </trkpt>
      <trkpt lat="49.05111" lon="3.98202">
        <ele>70.6</ele>
        <time>2020-06-30T17:30:22Z</time>
      </trkpt>
      <trkpt lat="49.05109" lon="3.98194">
        <ele>70.6</ele>
        <time>2020-06-30T17:30:23Z</time>
      </trkpt>
      <trkpt lat="49.05106" lon="3.98187">
        <ele>70.6</ele>
        <time>2020-06-30T17:30:24Z</time>
      </trkpt>
      <trkpt lat="49.05104" lon="3.9818">
        <ele>70.6</ele>
        <time>2020-06-30T17:30:25Z</time>
      </trkpt>
      <trkpt lat="49.05101" lon="3.98172">
        <ele>70.6</ele>
        <time>2020-06-30T17:30:26Z</time>
      </trkpt>
      <trkpt lat="49.05099" lon="3.98164">
        <ele>70.6</ele>
        <time>2020-06-30T17:30:27Z</time>
      </trkpt>
      <trkpt lat="49.05097" lon="3.98157">
        <ele>70.6</ele>
        <time>2020-06-30T17:30:28Z</time>
      </trkpt>
      <trkpt lat="49.05094" lon="3.98149">
        <ele>70.6</ele>
        <time>2020-06-30T17:30:29Z</time>
      </trkpt>
      <trkpt lat="49.05092" lon="3.98141">
        <ele>70.6</ele>
        <time>2020-06-30T17:30:30Z</time>
      </trkpt>
      <trkpt lat="49.0509" lon="3.98134">
        <ele>70.6</ele>
        <time>2020-06-30T17:30:31Z</time>
      </trkpt>
      <trkpt lat="49.05088" lon="3.98124">
        <ele>70.6</ele>
        <time>2020-06-30T17:30:32Z</time>
      </trkpt>
      <trkpt lat="49.05085" lon="3.98116">
        <ele>70.6</ele>
        <time>2020-06-30T17:30:33Z</time>
      </trkpt>
      <trkpt lat="49.05082" lon="3.98108">
        <ele>70.6</ele>
        <time>2020-06-30T17:30:34Z</time>
      </trkpt>
      <trkpt lat="49.0508" lon="3.981">
        <ele>70.6</ele>
        <time>2020-06-30T17:30:35Z</time>
      </trkpt>
      <trkpt lat="49.05077" lon="3.98093">
        <ele>70.6</ele>
        <time>2020-06-30T17:30:36Z</time>
      </trkpt>
      <trkpt lat="49.05075" lon="3.98085">
        <ele>70.6</ele>
        <time>2020-06-30T17:30:37Z</time>
      </trkpt>
      <trkpt lat="49.05073" lon="3.98077">
        <ele>70.6</ele>
        <time>2020-06-30T17:30:38Z</time>
      </trkpt>
      <trkpt lat="49.05072" lon="3.9807">
        <ele>70.6</ele>
        <time>2020-06-30T17:30:39Z</time>
      </trkpt>
      <trkpt lat="49.05069" lon="3.98062">
        <ele>70.6</ele>
        <time>2020-06-30T17:30:40Z</time>
      </trkpt>
      <trkpt lat="49.05067" lon="3.98054">
        <ele>70.6</ele>
        <time>2020-06-30T17:30:41Z</time>
      </trkpt>
      <trkpt lat="49.05065" lon="3.98047">
        <ele>70.6</ele>
        <time>2020-06-30T17:30:42Z</time>
      </trkpt>
      <trkpt lat="49.05063" lon="3.9804">
        <ele>70.6</ele>
        <time>2020-06-30T17:30:43Z</time>
      </trkpt>
      <trkpt lat="49.05061" lon="3.98033">
        <ele>70.6</ele>
        <time>2020-06-30T17:30:44Z</time>
      </trkpt>
      <trkpt lat="49.05059" lon="3.98026">
        <ele>70.7</ele>
        <time>2020-06-30T17:30:45Z</time>
      </trkpt>
      <trkpt lat="49.05058" lon="3.98018">
        <ele>70.7</ele>
        <time>2020-06-30T17:30:46Z</time>
      </trkpt>
      <trkpt lat="49.05054" lon="3.98011">
        <ele>70.7</ele>
        <time>2020-06-30T17:30:47Z</time>
      </trkpt>
      <trkpt lat="49.05051" lon="3.98003">
        <ele>70.7</ele>
        <time>2020-06-30T17:30:48Z</time>
      </trkpt>
      <trkpt lat="49.05048" lon="3.97995">
        <ele>70.7</ele>
        <time>2020-06-30T17:30:49Z</time>
      </trkpt>
      <trkpt lat="49.05046" lon="3.97986">
        <ele>70.7</ele>
        <time>2020-06-30T17:30:50Z</time>
      </trkpt>
      <trkpt lat="49.05044" lon="3.97978">
        <ele>70.7</ele>
        <time>2020-06-30T17:30:51Z</time>
      </trkpt>
      <trkpt lat="49.05042" lon="3.9797">
        <ele>70.8</ele>
        <time>2020-06-30T17:30:52Z</time>
      </trkpt>
      <trkpt lat="49.0504" lon="3.97963">
        <ele>70.8</ele>
        <time>2020-06-30T17:30:53Z</time>
      </trkpt>
      <trkpt lat="49.05038" lon="3.97956">
        <ele>70.8</ele>
        <time>2020-06-30T17:30:54Z</time>
      </trkpt>
      <trkpt lat="49.05037" lon="3.97949">
        <ele>70.9</ele>
        <time>2020-06-30T17:30:55Z</time>
      </trkpt>
      <trkpt lat="49.05035" lon="3.97942">
        <ele>70.9</ele>
        <time>2020-06-30T17:30:56Z</time>
      </trkpt>
      <trkpt lat="49.05033" lon="3.97935">
        <ele>70.9</ele>
        <time>2020-06-30T17:30:57Z</time>
      </trkpt>
      <trkpt lat="49.05031" lon="3.97926">
        <ele>70.9</ele>
        <time>2020-06-30T17:30:58Z</time>
      </trkpt>
      <trkpt lat="49.05028" lon="3.97919">
        <ele>71</ele>
        <time>2020-06-30T17:30:59Z</time>
      </trkpt>
      <trkpt lat="49.05025" lon="3.97912">
        <ele>71</ele>
        <time>2020-06-30T17:31:00Z</time>
      </trkpt>
      <trkpt lat="49.05022" lon="3.97904">
        <ele>71</ele>
        <time>2020-06-30T17:31:01Z</time>
      </trkpt>
      <trkpt lat="49.0502" lon="3.97897">
        <ele>71</ele>
        <time>2020-06-30T17:31:02Z</time>
      </trkpt>
      <trkpt lat="49.05018" lon="3.9789">
        <ele>71.1</ele>
        <time>2020-06-30T17:31:03Z</time>
      </trkpt>
      <trkpt lat="49.05015" lon="3.97882">
        <ele>71.1</ele>
        <time>2020-06-30T17:31:04Z</time>
      </trkpt>
      <trkpt lat="49.05014" lon="3.97874">
        <ele>71.2</ele>
        <time>2020-06-30T17:31:05Z</time>
      </trkpt>
      <trkpt lat="49.05012" lon="3.97867">
        <ele>71.2</ele>
        <time>2020-06-30T17:31:06Z</time>
      </trkpt>
      <trkpt lat="49.0501" lon="3.9786">
        <ele>71.3</ele>
        <time>2020-06-30T17:31:07Z</time>
      </trkpt>
      <trkpt lat="49.05008" lon="3.97852">
        <ele>71.3</ele>
        <time>2020-06-30T17:31:08Z</time>
      </trkpt>
      <trkpt lat="49.05006" lon="3.97847">
        <ele>71.4</ele>
        <time>2020-06-30T17:31:09Z</time>
      </trkpt>
      <trkpt lat="49.05004" lon="3.9784">
        <ele>71.4</ele>
        <time>2020-06-30T17:31:10Z</time>
      </trkpt>
      <trkpt lat="49.05002" lon="3.97833">
        <ele>71.5</ele>
        <time>2020-06-30T17:31:11Z</time>
      </trkpt>
      <trkpt lat="49.05" lon="3.97827">
        <ele>71.5</ele>
        <time>2020-06-30T17:31:12Z</time>
      </trkpt>
      <trkpt lat="49.04999" lon="3.97821">
        <ele>71.6</ele>
        <time>2020-06-30T17:31:13Z</time>
      </trkpt>
      <trkpt lat="49.04997" lon="3.97814">
        <ele>71.6</ele>
        <time>2020-06-30T17:31:14Z</time>
      </trkpt>
      <trkpt lat="49.04995" lon="3.97807">
        <ele>71.6</ele>
        <time>2020-06-30T17:31:15Z</time>
      </trkpt>
      <trkpt lat="49.04993" lon="3.97801">
        <ele>71.6</ele>
        <time>2020-06-30T17:31:16Z</time>
      </trkpt>
      <trkpt lat="49.04991" lon="3.97792">
        <ele>71.7</ele>
        <time>2020-06-30T17:31:17Z</time>
      </trkpt>
      <trkpt lat="49.04989" lon="3.97785">
        <ele>71.7</ele>
        <time>2020-06-30T17:31:18Z</time>
      </trkpt>
      <trkpt lat="49.04987" lon="3.97778">
        <ele>71.7</ele>
        <time>2020-06-30T17:31:19Z</time>
      </trkpt>
      <trkpt lat="49.04986" lon="3.97771">
        <ele>71.7</ele>
        <time>2020-06-30T17:31:20Z</time>
      </trkpt>
      <trkpt lat="49.04984" lon="3.97765">
        <ele>71.7</ele>
        <time>2020-06-30T17:31:21Z</time>
      </trkpt>
      <trkpt lat="49.04982" lon="3.97759">
        <ele>71.7</ele>
        <time>2020-06-30T17:31:22Z</time>
      </trkpt>
      <trkpt lat="49.04979" lon="3.97751">
        <ele>71.7</ele>
        <time>2020-06-30T17:31:23Z</time>
      </trkpt>
      <trkpt lat="49.04976" lon="3.97744">
        <ele>71.6</ele>
        <time>2020-06-30T17:31:24Z</time>
      </trkpt>
      <trkpt lat="49.04974" lon="3.97737">
        <ele>71.6</ele>
        <time>2020-06-30T17:31:25Z</time>
      </trkpt>
      <trkpt lat="49.04972" lon="3.9773">
        <ele>71.6</ele>
        <time>2020-06-30T17:31:26Z</time>
      </trkpt>
      <trkpt lat="49.04969" lon="3.97724">
        <ele>71.5</ele>
        <time>2020-06-30T17:31:27Z</time>
      </trkpt>
      <trkpt lat="49.04968" lon="3.97717">
        <ele>71.5</ele>
        <time>2020-06-30T17:31:28Z</time>
      </trkpt>
      <trkpt lat="49.04965" lon="3.97709">
        <ele>71.4</ele>
        <time>2020-06-30T17:31:29Z</time>
      </trkpt>
      <trkpt lat="49.04963" lon="3.97701">
        <ele>71.4</ele>
        <time>2020-06-30T17:31:30Z</time>
      </trkpt>
      <trkpt lat="49.04961" lon="3.97695">
        <ele>71.3</ele>
        <time>2020-06-30T17:31:31Z</time>
      </trkpt>
      <trkpt lat="49.04959" lon="3.97688">
        <ele>71.3</ele>
        <time>2020-06-30T17:31:32Z</time>
      </trkpt>
      <trkpt lat="49.04958" lon="3.97679">
        <ele>71.2</ele>
        <time>2020-06-30T17:31:33Z</time>
      </trkpt>
      <trkpt lat="49.04956" lon="3.97671">
        <ele>71.2</ele>
        <time>2020-06-30T17:31:34Z</time>
      </trkpt>
      <trkpt lat="49.04953" lon="3.97663">
        <ele>71.2</ele>
        <time>2020-06-30T17:31:35Z</time>
      </trkpt>
      <trkpt lat="49.0495" lon="3.97655">
        <ele>71.1</ele>
        <time>2020-06-30T17:31:36Z</time>
      </trkpt>
      <trkpt lat="49.04947" lon="3.97649">
        <ele>71.1</ele>
        <time>2020-06-30T17:31:37Z</time>
      </trkpt>
      <trkpt lat="49.04944" lon="3.97642">
        <ele>71.1</ele>
        <time>2020-06-30T17:31:38Z</time>
      </trkpt>
      <trkpt lat="49.04942" lon="3.97635">
        <ele>71.1</ele>
        <time>2020-06-30T17:31:39Z</time>
      </trkpt>
      <trkpt lat="49.0494" lon="3.97627">
        <ele>71</ele>
        <time>2020-06-30T17:31:40Z</time>
      </trkpt>
      <trkpt lat="49.04938" lon="3.97622">
        <ele>71</ele>
        <time>2020-06-30T17:31:41Z</time>
      </trkpt>
      <trkpt lat="49.04937" lon="3.97615">
        <ele>71</ele>
        <time>2020-06-30T17:31:42Z</time>
      </trkpt>
      <trkpt lat="49.04935" lon="3.97609">
        <ele>71</ele>
        <time>2020-06-30T17:31:43Z</time>
      </trkpt>
      <trkpt lat="49.04933" lon="3.97602">
        <ele>71</ele>
        <time>2020-06-30T17:31:44Z</time>
      </trkpt>
      <trkpt lat="49.04932" lon="3.97596">
        <ele>71</ele>
        <time>2020-06-30T17:31:45Z</time>
      </trkpt>
      <trkpt lat="49.0493" lon="3.97589">
        <ele>71</ele>
        <time>2020-06-30T17:31:46Z</time>
      </trkpt>
      <trkpt lat="49.04929" lon="3.97581">
        <ele>71</ele>
        <time>2020-06-30T17:31:47Z</time>
      </trkpt>
      <trkpt lat="49.04926" lon="3.97576">
        <ele>71</ele>
        <time>2020-06-30T17:31:48Z</time>
      </trkpt>
      <trkpt lat="49.04924" lon="3.97569">
        <ele>71</ele>
        <time>2020-06-30T17:31:49Z</time>
      </trkpt>
      <trkpt lat="49.04922" lon="3.97561">
        <ele>71</ele>
        <time>2020-06-30T17:31:50Z</time>
      </trkpt>
      <trkpt lat="49.04921" lon="3.97555">
        <ele>71</ele>
        <time>2020-06-30T17:31:51Z</time>
      </trkpt>
      <trkpt lat="49.04919" lon="3.9755">
        <ele>71</ele>
        <time>2020-06-30T17:31:52Z</time>
      </trkpt>
      <trkpt lat="49.04917" lon="3.97544">
        <ele>71.1</ele>
        <time>2020-06-30T17:31:53Z</time>
      </trkpt>
      <trkpt lat="49.04915" lon="3.97538">
        <ele>71.1</ele>
        <time>2020-06-30T17:31:54Z</time>
      </trkpt>
      <trkpt lat="49.04913" lon="3.97533">
        <ele>71.1</ele>
        <time>2020-06-30T17:31:55Z</time>
      </trkpt>
      <trkpt lat="49.04911" lon="3.97526">
        <ele>71.1</ele>
        <time>2020-06-30T17:31:56Z</time>
      </trkpt>
      <trkpt lat="49.04909" lon="3.97518">
        <ele>71.1</ele>
        <time>2020-06-30T17:31:57Z</time>
      </trkpt>
      <trkpt lat="49.04907" lon="3.97513">
        <ele>71.1</ele>
        <time>2020-06-30T17:31:58Z</time>
      </trkpt>
      <trkpt lat="49.04906" lon="3.97506">
        <ele>71.1</ele>
        <time>2020-06-30T17:31:59Z</time>
      </trkpt>
      <trkpt lat="49.04903" lon="3.97497">
        <ele>71.1</ele>
        <time>2020-06-30T17:32:00Z</time>
      </trkpt>
      <trkpt lat="49.04901" lon="3.9749">
        <ele>71</ele>
        <time>2020-06-30T17:32:01Z</time>
      </trkpt>
      <trkpt lat="49.04898" lon="3.97483">
        <ele>71</ele>
        <time>2020-06-30T17:32:02Z</time>
      </trkpt>
      <trkpt lat="49.04896" lon="3.97475">
        <ele>71</ele>
        <time>2020-06-30T17:32:03Z</time>
      </trkpt>
      <trkpt lat="49.04894" lon="3.97469">
        <ele>71</ele>
        <time>2020-06-30T17:32:04Z</time>
      </trkpt>
      <trkpt lat="49.04892" lon="3.97463">
        <ele>71</ele>
        <time>2020-06-30T17:32:05Z</time>
      </trkpt>
      <trkpt lat="49.0489" lon="3.97457">
        <ele>71</ele>
        <time>2020-06-30T17:32:06Z</time>
      </trkpt>
      <trkpt lat="49.04889" lon="3.97451">
        <ele>71</ele>
        <time>2020-06-30T17:32:07Z</time>
      </trkpt>
      <trkpt lat="49.04886" lon="3.97443">
        <ele>71</ele>
        <time>2020-06-30T17:32:08Z</time>
      </trkpt>
      <trkpt lat="49.04884" lon="3.97436">
        <ele>71</ele>
        <time>2020-06-30T17:32:09Z</time>
      </trkpt>
      <trkpt lat="49.04883" lon="3.97431">
        <ele>71</ele>
        <time>2020-06-30T17:32:10Z</time>
      </trkpt>
      <trkpt lat="49.04881" lon="3.97425">
        <ele>71</ele>
        <time>2020-06-30T17:32:11Z</time>
      </trkpt>
      <trkpt lat="49.04881" lon="3.97418">
        <ele>70.9</ele>
        <time>2020-06-30T17:32:12Z</time>
      </trkpt>
      <trkpt lat="49.04879" lon="3.97411">
        <ele>70.9</ele>
        <time>2020-06-30T17:32:13Z</time>
      </trkpt>
      <trkpt lat="49.04877" lon="3.97404">
        <ele>71</ele>
        <time>2020-06-30T17:32:14Z</time>
      </trkpt>
      <trkpt lat="49.04876" lon="3.97399">
        <ele>71</ele>
        <time>2020-06-30T17:32:15Z</time>
      </trkpt>
      <trkpt lat="49.04874" lon="3.97393">
        <ele>71</ele>
        <time>2020-06-30T17:32:16Z</time>
      </trkpt>
      <trkpt lat="49.04872" lon="3.97386">
        <ele>71</ele>
        <time>2020-06-30T17:32:17Z</time>
      </trkpt>
      <trkpt lat="49.04869" lon="3.97378">
        <ele>71.1</ele>
        <time>2020-06-30T17:32:18Z</time>
      </trkpt>
      <trkpt lat="49.04868" lon="3.97372">
        <ele>71.1</ele>
        <time>2020-06-30T17:32:19Z</time>
      </trkpt>
      <trkpt lat="49.04866" lon="3.97366">
        <ele>71.2</ele>
        <time>2020-06-30T17:32:20Z</time>
      </trkpt>
      <trkpt lat="49.04863" lon="3.9736">
        <ele>71.2</ele>
        <time>2020-06-30T17:32:21Z</time>
      </trkpt>
      <trkpt lat="49.04861" lon="3.97353">
        <ele>71.3</ele>
        <time>2020-06-30T17:32:22Z</time>
      </trkpt>
      <trkpt lat="49.04859" lon="3.97347">
        <ele>71.3</ele>
        <time>2020-06-30T17:32:23Z</time>
      </trkpt>
      <trkpt lat="49.04858" lon="3.97341">
        <ele>71.3</ele>
        <time>2020-06-30T17:32:24Z</time>
      </trkpt>
      <trkpt lat="49.04856" lon="3.97336">
        <ele>71.4</ele>
        <time>2020-06-30T17:32:25Z</time>
      </trkpt>
      <trkpt lat="49.04854" lon="3.97327">
        <ele>71.4</ele>
        <time>2020-06-30T17:32:26Z</time>
      </trkpt>
      <trkpt lat="49.04851" lon="3.9732">
        <ele>71.5</ele>
        <time>2020-06-30T17:32:27Z</time>
      </trkpt>
      <trkpt lat="49.0485" lon="3.97311">
        <ele>71.6</ele>
        <time>2020-06-30T17:32:28Z</time>
      </trkpt>
      <trkpt lat="49.04849" lon="3.97304">
        <ele>71.6</ele>
        <time>2020-06-30T17:32:29Z</time>
      </trkpt>
      <trkpt lat="49.04847" lon="3.97299">
        <ele>71.6</ele>
        <time>2020-06-30T17:32:30Z</time>
      </trkpt>
      <trkpt lat="49.04846" lon="3.97293">
        <ele>71.7</ele>
        <time>2020-06-30T17:32:31Z</time>
      </trkpt>
      <trkpt lat="49.04844" lon="3.97288">
        <ele>71.7</ele>
        <time>2020-06-30T17:32:32Z</time>
      </trkpt>
      <trkpt lat="49.04842" lon="3.97283">
        <ele>71.7</ele>
        <time>2020-06-30T17:32:33Z</time>
      </trkpt>
      <trkpt lat="49.04841" lon="3.97276">
        <ele>71.8</ele>
        <time>2020-06-30T17:32:34Z</time>
      </trkpt>
      <trkpt lat="49.04838" lon="3.9727">
        <ele>71.8</ele>
        <time>2020-06-30T17:32:35Z</time>
      </trkpt>
      <trkpt lat="49.04835" lon="3.97262">
        <ele>71.8</ele>
        <time>2020-06-30T17:32:36Z</time>
      </trkpt>
      <trkpt lat="49.04833" lon="3.97256">
        <ele>71.9</ele>
        <time>2020-06-30T17:32:37Z</time>
      </trkpt>
      <trkpt lat="49.04831" lon="3.97249">
        <ele>71.9</ele>
        <time>2020-06-30T17:32:38Z</time>
      </trkpt>
      <trkpt lat="49.04829" lon="3.97244">
        <ele>72</ele>
        <time>2020-06-30T17:32:39Z</time>
      </trkpt>
      <trkpt lat="49.04827" lon="3.97237">
        <ele>72</ele>
        <time>2020-06-30T17:32:40Z</time>
      </trkpt>
      <trkpt lat="49.04825" lon="3.97231">
        <ele>72.1</ele>
        <time>2020-06-30T17:32:41Z</time>
      </trkpt>
      <trkpt lat="49.04823" lon="3.97226">
        <ele>72.1</ele>
        <time>2020-06-30T17:32:42Z</time>
      </trkpt>
      <trkpt lat="49.04822" lon="3.97221">
        <ele>72.1</ele>
        <time>2020-06-30T17:32:43Z</time>
      </trkpt>
      <trkpt lat="49.04821" lon="3.97214">
        <ele>72.1</ele>
        <time>2020-06-30T17:32:44Z</time>
      </trkpt>
      <trkpt lat="49.04819" lon="3.97208">
        <ele>72.2</ele>
        <time>2020-06-30T17:32:45Z</time>
      </trkpt>
      <trkpt lat="49.04817" lon="3.97201">
        <ele>72.2</ele>
        <time>2020-06-30T17:32:46Z</time>
      </trkpt>
      <trkpt lat="49.04814" lon="3.97194">
        <ele>72.2</ele>
        <time>2020-06-30T17:32:47Z</time>
      </trkpt>
      <trkpt lat="49.04811" lon="3.97187">
        <ele>72.3</ele>
        <time>2020-06-30T17:32:48Z</time>
      </trkpt>
      <trkpt lat="49.04809" lon="3.9718">
        <ele>72.3</ele>
        <time>2020-06-30T17:32:49Z</time>
      </trkpt>
      <trkpt lat="49.04808" lon="3.97172">
        <ele>72.2</ele>
        <time>2020-06-30T17:32:50Z</time>
      </trkpt>
      <trkpt lat="49.04807" lon="3.97166">
        <ele>72.2</ele>
        <time>2020-06-30T17:32:51Z</time>
      </trkpt>
      <trkpt lat="49.04804" lon="3.97159">
        <ele>72.2</ele>
        <time>2020-06-30T17:32:52Z</time>
      </trkpt>
      <trkpt lat="49.04801" lon="3.97153">
        <ele>72.2</ele>
        <time>2020-06-30T17:32:53Z</time>
      </trkpt>
      <trkpt lat="49.048" lon="3.97146">
        <ele>72.2</ele>
        <time>2020-06-30T17:32:54Z</time>
      </trkpt>
      <trkpt lat="49.04798" lon="3.9714">
        <ele>72.2</ele>
        <time>2020-06-30T17:32:55Z</time>
      </trkpt>
      <trkpt lat="49.04796" lon="3.97133">
        <ele>72.2</ele>
        <time>2020-06-30T17:32:56Z</time>
      </trkpt>
      <trkpt lat="49.04794" lon="3.97126">
        <ele>72.2</ele>
        <time>2020-06-30T17:32:57Z</time>
      </trkpt>
      <trkpt lat="49.04793" lon="3.97119">
        <ele>72.2</ele>
        <time>2020-06-30T17:32:58Z</time>
      </trkpt>
      <trkpt lat="49.0479" lon="3.97113">
        <ele>72.1</ele>
        <time>2020-06-30T17:32:59Z</time>
      </trkpt>
      <trkpt lat="49.04788" lon="3.97107">
        <ele>72.1</ele>
        <time>2020-06-30T17:33:00Z</time>
      </trkpt>
      <trkpt lat="49.04787" lon="3.97101">
        <ele>72.1</ele>
        <time>2020-06-30T17:33:01Z</time>
      </trkpt>
      <trkpt lat="49.04786" lon="3.97096">
        <ele>72.1</ele>
        <time>2020-06-30T17:33:02Z</time>
      </trkpt>
      <trkpt lat="49.04785" lon="3.97089">
        <ele>72.1</ele>
        <time>2020-06-30T17:33:03Z</time>
      </trkpt>
      <trkpt lat="49.04783" lon="3.97083">
        <ele>72.1</ele>
        <time>2020-06-30T17:33:04Z</time>
      </trkpt>
      <trkpt lat="49.0478" lon="3.97077">
        <ele>72.1</ele>
        <time>2020-06-30T17:33:05Z</time>
      </trkpt>
      <trkpt lat="49.04777" lon="3.9707">
        <ele>72.2</ele>
        <time>2020-06-30T17:33:06Z</time>
      </trkpt>
      <trkpt lat="49.04775" lon="3.97064">
        <ele>72.1</ele>
        <time>2020-06-30T17:33:07Z</time>
      </trkpt>
      <trkpt lat="49.04773" lon="3.97059">
        <ele>72.1</ele>
        <time>2020-06-30T17:33:08Z</time>
      </trkpt>
      <trkpt lat="49.04771" lon="3.97053">
        <ele>72.1</ele>
        <time>2020-06-30T17:33:09Z</time>
      </trkpt>
      <trkpt lat="49.04769" lon="3.97045">
        <ele>72.1</ele>
        <time>2020-06-30T17:33:10Z</time>
      </trkpt>
      <trkpt lat="49.04768" lon="3.9704">
        <ele>72</ele>
        <time>2020-06-30T17:33:11Z</time>
      </trkpt>
      <trkpt lat="49.04767" lon="3.97033">
        <ele>72</ele>
        <time>2020-06-30T17:33:12Z</time>
      </trkpt>
      <trkpt lat="49.04765" lon="3.97025">
        <ele>72</ele>
        <time>2020-06-30T17:33:13Z</time>
      </trkpt>
      <trkpt lat="49.04763" lon="3.97017">
        <ele>71.9</ele>
        <time>2020-06-30T17:33:14Z</time>
      </trkpt>
      <trkpt lat="49.04762" lon="3.97009">
        <ele>71.9</ele>
        <time>2020-06-30T17:33:15Z</time>
      </trkpt>
      <trkpt lat="49.0476" lon="3.97002">
        <ele>71.9</ele>
        <time>2020-06-30T17:33:16Z</time>
      </trkpt>
      <trkpt lat="49.04757" lon="3.96995">
        <ele>71.9</ele>
        <time>2020-06-30T17:33:17Z</time>
      </trkpt>
      <trkpt lat="49.04757" lon="3.96988">
        <ele>71.9</ele>
        <time>2020-06-30T17:33:18Z</time>
      </trkpt>
      <trkpt lat="49.04754" lon="3.96982">
        <ele>71.9</ele>
        <time>2020-06-30T17:33:19Z</time>
      </trkpt>
      <trkpt lat="49.04751" lon="3.96977">
        <ele>71.9</ele>
        <time>2020-06-30T17:33:20Z</time>
      </trkpt>
      <trkpt lat="49.04749" lon="3.96971">
        <ele>71.8</ele>
        <time>2020-06-30T17:33:21Z</time>
      </trkpt>
      <trkpt lat="49.04746" lon="3.96965">
        <ele>71.8</ele>
        <time>2020-06-30T17:33:22Z</time>
      </trkpt>
      <trkpt lat="49.04744" lon="3.96958">
        <ele>71.8</ele>
        <time>2020-06-30T17:33:23Z</time>
      </trkpt>
      <trkpt lat="49.04743" lon="3.96953">
        <ele>71.8</ele>
        <time>2020-06-30T17:33:24Z</time>
      </trkpt>
      <trkpt lat="49.04742" lon="3.96949">
        <ele>71.8</ele>
        <time>2020-06-30T17:33:25Z</time>
      </trkpt>
      <trkpt lat="49.04743" lon="3.96947">
        <ele>71.8</ele>
        <time>2020-06-30T17:33:26Z</time>
      </trkpt>
      <trkpt lat="49.04742" lon="3.96945">
        <ele>71.8</ele>
        <time>2020-06-30T17:33:27Z</time>
      </trkpt>
      <trkpt lat="49.04743" lon="3.96944">
        <ele>71.8</ele>
        <time>2020-06-30T17:33:28Z</time>
      </trkpt>
      <trkpt lat="49.04743" lon="3.96943">
        <ele>71.8</ele>
        <time>2020-06-30T17:33:29Z</time>
      </trkpt>
      <trkpt lat="49.04743" lon="3.96943">
        <ele>71.8</ele>
        <time>2020-06-30T17:33:30Z</time>
      </trkpt>
      <trkpt lat="49.04743" lon="3.96942">
        <ele>71.8</ele>
        <time>2020-06-30T17:33:31Z</time>
      </trkpt>
      <trkpt lat="49.04742" lon="3.96942">
        <ele>71.8</ele>
        <time>2020-06-30T17:33:32Z</time>
      </trkpt>
      <trkpt lat="49.04742" lon="3.96941">
        <ele>71.8</ele>
        <time>2020-06-30T17:33:33Z</time>
      </trkpt>
      <trkpt lat="49.04742" lon="3.96941">
        <ele>71.8</ele>
        <time>2020-06-30T17:33:34Z</time>
      </trkpt>
      <trkpt lat="49.04742" lon="3.96941">
        <ele>71.8</ele>
        <time>2020-06-30T17:33:35Z</time>
      </trkpt>
      <trkpt lat="49.04744" lon="3.96942">
        <ele>71.8</ele>
        <time>2020-06-30T17:33:36Z</time>
      </trkpt>
      <trkpt lat="49.04744" lon="3.96941">
        <ele>71.8</ele>
        <time>2020-06-30T17:33:37Z</time>
      </trkpt>
      <trkpt lat="49.04745" lon="3.9694">
        <ele>71.8</ele>
        <time>2020-06-30T17:33:38Z</time>
      </trkpt>
      <trkpt lat="49.04745" lon="3.96941">
        <ele>71.8</ele>
        <time>2020-06-30T17:33:39Z</time>
      </trkpt>
      <trkpt lat="49.04745" lon="3.96941">
        <ele>71.8</ele>
        <time>2020-06-30T17:33:40Z</time>
      </trkpt>
      <trkpt lat="49.04746" lon="3.96941">
        <ele>71.8</ele>
        <time>2020-06-30T17:33:41Z</time>
      </trkpt>
      <trkpt lat="49.04746" lon="3.96942">
        <ele>71.8</ele>
        <time>2020-06-30T17:33:42Z</time>
      </trkpt>
      <trkpt lat="49.04746" lon="3.96941">
        <ele>71.8</ele>
        <time>2020-06-30T17:33:43Z</time>
      </trkpt>
      <trkpt lat="49.04746" lon="3.96939">
        <ele>71.8</ele>
        <time>2020-06-30T17:33:44Z</time>
      </trkpt>
      <trkpt lat="49.04746" lon="3.96937">
        <ele>71.8</ele>
        <time>2020-06-30T17:33:45Z</time>
      </trkpt>
      <trkpt lat="49.04746" lon="3.96938">
        <ele>71.8</ele>
        <time>2020-06-30T17:33:46Z</time>
      </trkpt>
      <trkpt lat="49.04746" lon="3.96938">
        <ele>71.8</ele>
        <time>2020-06-30T17:33:47Z</time>
      </trkpt>
      <trkpt lat="49.04746" lon="3.96938">
        <ele>71.8</ele>
        <time>2020-06-30T17:33:48Z</time>
      </trkpt>
      <trkpt lat="49.04746" lon="3.96938">
        <ele>71.8</ele>
        <time>2020-06-30T17:33:49Z</time>
      </trkpt>
      <trkpt lat="49.04746" lon="3.96937">
        <ele>71.8</ele>
        <time>2020-06-30T17:33:50Z</time>
      </trkpt>
      <trkpt lat="49.04746" lon="3.96937">
        <ele>71.8</ele>
        <time>2020-06-30T17:33:51Z</time>
      </trkpt>
      <trkpt lat="49.04745" lon="3.96935">
        <ele>71.8</ele>
        <time>2020-06-30T17:33:52Z</time>
      </trkpt>
      <trkpt lat="49.04745" lon="3.96935">
        <ele>71.8</ele>
        <time>2020-06-30T17:33:53Z</time>
      </trkpt>
      <trkpt lat="49.04745" lon="3.96935">
        <ele>71.8</ele>
        <time>2020-06-30T17:33:54Z</time>
      </trkpt>
      <trkpt lat="49.04745" lon="3.96935">
        <ele>71.8</ele>
        <time>2020-06-30T17:33:55Z</time>
      </trkpt>
      <trkpt lat="49.04745" lon="3.96934">
        <ele>71.8</ele>
        <time>2020-06-30T17:33:56Z</time>
      </trkpt>
      <trkpt lat="49.04744" lon="3.96935">
        <ele>71.8</ele>
        <time>2020-06-30T17:33:57Z</time>
      </trkpt>
      <trkpt lat="49.04744" lon="3.96934">
        <ele>71.8</ele>
        <time>2020-06-30T17:33:58Z</time>
      </trkpt>
      <trkpt lat="49.04745" lon="3.96934">
        <ele>71.8</ele>
        <time>2020-06-30T17:33:59Z</time>
      </trkpt>
      <trkpt lat="49.04745" lon="3.96934">
        <ele>71.8</ele>
        <time>2020-06-30T17:34:00Z</time>
      </trkpt>
      <trkpt lat="49.04745" lon="3.96934">
        <ele>71.8</ele>
        <time>2020-06-30T17:34:01Z</time>
      </trkpt>
      <trkpt lat="49.04745" lon="3.96934">
        <ele>71.8</ele>
        <time>2020-06-30T17:34:02Z</time>
      </trkpt>
      <trkpt lat="49.04745" lon="3.96935">
        <ele>71.8</ele>
        <time>2020-06-30T17:34:03Z</time>
      </trkpt>
      <trkpt lat="49.04745" lon="3.96935">
        <ele>71.8</ele>
        <time>2020-06-30T17:34:04Z</time>
      </trkpt>
      <trkpt lat="49.04745" lon="3.96935">
        <ele>71.8</ele>
        <time>2020-06-30T17:34:05Z</time>
      </trkpt>
      <trkpt lat="49.04736" lon="3.96945">
        <ele>71.7</ele>
        <time>2020-06-30T17:46:23Z</time>
      </trkpt>
      <trkpt lat="49.04735" lon="3.96942">
        <ele>71.7</ele>
        <time>2020-06-30T17:46:24Z</time>
      </trkpt>
      <trkpt lat="49.04734" lon="3.96937">
        <ele>71.7</ele>
        <time>2020-06-30T17:46:25Z</time>
      </trkpt>
      <trkpt lat="49.04733" lon="3.96934">
        <ele>71.6</ele>
        <time>2020-06-30T17:46:26Z</time>
      </trkpt>
      <trkpt lat="49.04732" lon="3.9693">
        <ele>71.6</ele>
        <time>2020-06-30T17:46:27Z</time>
      </trkpt>
      <trkpt lat="49.04731" lon="3.96926">
        <ele>71.6</ele>
        <time>2020-06-30T17:46:28Z</time>
      </trkpt>
      <trkpt lat="49.0473" lon="3.96922">
        <ele>71.6</ele>
        <time>2020-06-30T17:46:29Z</time>
      </trkpt>
      <trkpt lat="49.04729" lon="3.96918">
        <ele>71.6</ele>
        <time>2020-06-30T17:46:30Z</time>
      </trkpt>
      <trkpt lat="49.04728" lon="3.96912">
        <ele>71.5</ele>
        <time>2020-06-30T17:46:31Z</time>
      </trkpt>
      <trkpt lat="49.04727" lon="3.96907">
        <ele>71.5</ele>
        <time>2020-06-30T17:46:32Z</time>
      </trkpt>
      <trkpt lat="49.04726" lon="3.96903">
        <ele>71.5</ele>
        <time>2020-06-30T17:46:33Z</time>
      </trkpt>
      <trkpt lat="49.04725" lon="3.96899">
        <ele>71.5</ele>
        <time>2020-06-30T17:46:34Z</time>
      </trkpt>
      <trkpt lat="49.04724" lon="3.96895">
        <ele>71.5</ele>
        <time>2020-06-30T17:46:35Z</time>
      </trkpt>
      <trkpt lat="49.04723" lon="3.9689">
        <ele>71.5</ele>
        <time>2020-06-30T17:46:36Z</time>
      </trkpt>
      <trkpt lat="49.04723" lon="3.96888">
        <ele>71.5</ele>
        <time>2020-06-30T17:46:37Z</time>
      </trkpt>
      <trkpt lat="49.04721" lon="3.96883">
        <ele>71.4</ele>
        <time>2020-06-30T17:46:38Z</time>
      </trkpt>
      <trkpt lat="49.0472" lon="3.96881">
        <ele>71.4</ele>
        <time>2020-06-30T17:46:39Z</time>
      </trkpt>
      <trkpt lat="49.04718" lon="3.96875">
        <ele>71.4</ele>
        <time>2020-06-30T17:46:40Z</time>
      </trkpt>
      <trkpt lat="49.04717" lon="3.96868">
        <ele>71.4</ele>
        <time>2020-06-30T17:46:41Z</time>
      </trkpt>
      <trkpt lat="49.04715" lon="3.96862">
        <ele>71.3</ele>
        <time>2020-06-30T17:46:42Z</time>
      </trkpt>
      <trkpt lat="49.04712" lon="3.96858">
        <ele>71.3</ele>
        <time>2020-06-30T17:46:43Z</time>
      </trkpt>
      <trkpt lat="49.04712" lon="3.96854">
        <ele>71.3</ele>
        <time>2020-06-30T17:46:44Z</time>
      </trkpt>
      <trkpt lat="49.0471" lon="3.9685">
        <ele>71.3</ele>
        <time>2020-06-30T17:46:45Z</time>
      </trkpt>
      <trkpt lat="49.04709" lon="3.96845">
        <ele>71.2</ele>
        <time>2020-06-30T17:46:46Z</time>
      </trkpt>
      <trkpt lat="49.04707" lon="3.9684">
        <ele>71.2</ele>
        <time>2020-06-30T17:46:47Z</time>
      </trkpt>
      <trkpt lat="49.04706" lon="3.96836">
        <ele>71.2</ele>
        <time>2020-06-30T17:46:48Z</time>
      </trkpt>
      <trkpt lat="49.04705" lon="3.9683">
        <ele>71.1</ele>
        <time>2020-06-30T17:46:49Z</time>
      </trkpt>
      <trkpt lat="49.04703" lon="3.96825">
        <ele>71.1</ele>
        <time>2020-06-30T17:46:50Z</time>
      </trkpt>
      <trkpt lat="49.04703" lon="3.96818">
        <ele>71.1</ele>
        <time>2020-06-30T17:46:51Z</time>
      </trkpt>
      <trkpt lat="49.04701" lon="3.96811">
        <ele>71.1</ele>
        <time>2020-06-30T17:46:52Z</time>
      </trkpt>
      <trkpt lat="49.04701" lon="3.96808">
        <ele>71</ele>
        <time>2020-06-30T17:46:53Z</time>
      </trkpt>
      <trkpt lat="49.04701" lon="3.96802">
        <ele>71</ele>
        <time>2020-06-30T17:46:54Z</time>
      </trkpt>
      <trkpt lat="49.04699" lon="3.96798">
        <ele>71</ele>
        <time>2020-06-30T17:46:55Z</time>
      </trkpt>
      <trkpt lat="49.04697" lon="3.96793">
        <ele>71</ele>
        <time>2020-06-30T17:46:56Z</time>
      </trkpt>
      <trkpt lat="49.04696" lon="3.9679">
        <ele>71</ele>
        <time>2020-06-30T17:46:57Z</time>
      </trkpt>
      <trkpt lat="49.04695" lon="3.96785">
        <ele>71</ele>
        <time>2020-06-30T17:46:58Z</time>
      </trkpt>
      <trkpt lat="49.04695" lon="3.9678">
        <ele>71</ele>
        <time>2020-06-30T17:46:59Z</time>
      </trkpt>
      <trkpt lat="49.04695" lon="3.96773">
        <ele>71.1</ele>
        <time>2020-06-30T17:47:00Z</time>
      </trkpt>
      <trkpt lat="49.04695" lon="3.96768">
        <ele>71.1</ele>
        <time>2020-06-30T17:47:01Z</time>
      </trkpt>
      <trkpt lat="49.04695" lon="3.96761">
        <ele>71.1</ele>
        <time>2020-06-30T17:47:02Z</time>
      </trkpt>
      <trkpt lat="49.04695" lon="3.96754">
        <ele>71.2</ele>
        <time>2020-06-30T17:47:03Z</time>
      </trkpt>
      <trkpt lat="49.04696" lon="3.96748">
        <ele>71.2</ele>
        <time>2020-06-30T17:47:04Z</time>
      </trkpt>
      <trkpt lat="49.04696" lon="3.96742">
        <ele>71.2</ele>
        <time>2020-06-30T17:47:05Z</time>
      </trkpt>
      <trkpt lat="49.04695" lon="3.96737">
        <ele>71.3</ele>
        <time>2020-06-30T17:47:06Z</time>
      </trkpt>
      <trkpt lat="49.04695" lon="3.9673">
        <ele>71.3</ele>
        <time>2020-06-30T17:47:07Z</time>
      </trkpt>
      <trkpt lat="49.04694" lon="3.96722">
        <ele>71.4</ele>
        <time>2020-06-30T17:47:08Z</time>
      </trkpt>
      <trkpt lat="49.04694" lon="3.96715">
        <ele>71.4</ele>
        <time>2020-06-30T17:47:09Z</time>
      </trkpt>
      <trkpt lat="49.04695" lon="3.96707">
        <ele>71.5</ele>
        <time>2020-06-30T17:47:10Z</time>
      </trkpt>
      <trkpt lat="49.04696" lon="3.96701">
        <ele>71.5</ele>
        <time>2020-06-30T17:47:11Z</time>
      </trkpt>
      <trkpt lat="49.04696" lon="3.96695">
        <ele>71.5</ele>
        <time>2020-06-30T17:47:12Z</time>
      </trkpt>
      <trkpt lat="49.04695" lon="3.96689">
        <ele>71.6</ele>
        <time>2020-06-30T17:47:13Z</time>
      </trkpt>
      <trkpt lat="49.04696" lon="3.96682">
        <ele>71.6</ele>
        <time>2020-06-30T17:47:14Z</time>
      </trkpt>
      <trkpt lat="49.04695" lon="3.96676">
        <ele>71.7</ele>
        <time>2020-06-30T17:47:15Z</time>
      </trkpt>
      <trkpt lat="49.04695" lon="3.96669">
        <ele>71.7</ele>
        <time>2020-06-30T17:47:16Z</time>
      </trkpt>
      <trkpt lat="49.04695" lon="3.96662">
        <ele>71.7</ele>
        <time>2020-06-30T17:47:17Z</time>
      </trkpt>
      <trkpt lat="49.04695" lon="3.96656">
        <ele>71.8</ele>
        <time>2020-06-30T17:47:18Z</time>
      </trkpt>
      <trkpt lat="49.04695" lon="3.96649">
        <ele>71.8</ele>
        <time>2020-06-30T17:47:19Z</time>
      </trkpt>
      <trkpt lat="49.04696" lon="3.96643">
        <ele>71.9</ele>
        <time>2020-06-30T17:47:20Z</time>
      </trkpt>
      <trkpt lat="49.04696" lon="3.96637">
        <ele>71.9</ele>
        <time>2020-06-30T17:47:21Z</time>
      </trkpt>
      <trkpt lat="49.04695" lon="3.96631">
        <ele>71.9</ele>
        <time>2020-06-30T17:47:22Z</time>
      </trkpt>
      <trkpt lat="49.04696" lon="3.96624">
        <ele>72</ele>
        <time>2020-06-30T17:47:23Z</time>
      </trkpt>
      <trkpt lat="49.04696" lon="3.96618">
        <ele>72</ele>
        <time>2020-06-30T17:47:24Z</time>
      </trkpt>
      <trkpt lat="49.04696" lon="3.96613">
        <ele>72.1</ele>
        <time>2020-06-30T17:47:25Z</time>
      </trkpt>
      <trkpt lat="49.04696" lon="3.96609">
        <ele>72.1</ele>
        <time>2020-06-30T17:47:26Z</time>
      </trkpt>
      <trkpt lat="49.04695" lon="3.96603">
        <ele>72.2</ele>
        <time>2020-06-30T17:47:27Z</time>
      </trkpt>
      <trkpt lat="49.04695" lon="3.96597">
        <ele>72.2</ele>
        <time>2020-06-30T17:47:28Z</time>
      </trkpt>
      <trkpt lat="49.04695" lon="3.9659">
        <ele>72.3</ele>
        <time>2020-06-30T17:47:29Z</time>
      </trkpt>
      <trkpt lat="49.04695" lon="3.96583">
        <ele>72.4</ele>
        <time>2020-06-30T17:47:30Z</time>
      </trkpt>
      <trkpt lat="49.04695" lon="3.96576">
        <ele>72.5</ele>
        <time>2020-06-30T17:47:31Z</time>
      </trkpt>
      <trkpt lat="49.04695" lon="3.96568">
        <ele>72.7</ele>
        <time>2020-06-30T17:47:32Z</time>
      </trkpt>
      <trkpt lat="49.04695" lon="3.9656">
        <ele>72.8</ele>
        <time>2020-06-30T17:47:33Z</time>
      </trkpt>
      <trkpt lat="49.04695" lon="3.96554">
        <ele>72.9</ele>
        <time>2020-06-30T17:47:34Z</time>
      </trkpt>
      <trkpt lat="49.04694" lon="3.96548">
        <ele>73</ele>
        <time>2020-06-30T17:47:35Z</time>
      </trkpt>
      <trkpt lat="49.04694" lon="3.96543">
        <ele>73.1</ele>
        <time>2020-06-30T17:47:36Z</time>
      </trkpt>
      <trkpt lat="49.04693" lon="3.96538">
        <ele>73.2</ele>
        <time>2020-06-30T17:47:37Z</time>
      </trkpt>
      <trkpt lat="49.04693" lon="3.96532">
        <ele>73.3</ele>
        <time>2020-06-30T17:47:38Z</time>
      </trkpt>
      <trkpt lat="49.04693" lon="3.9653">
        <ele>73.4</ele>
        <time>2020-06-30T17:47:39Z</time>
      </trkpt>
      <trkpt lat="49.04693" lon="3.96524">
        <ele>73.5</ele>
        <time>2020-06-30T17:47:40Z</time>
      </trkpt>
      <trkpt lat="49.04693" lon="3.96522">
        <ele>73.5</ele>
        <time>2020-06-30T17:47:41Z</time>
      </trkpt>
      <trkpt lat="49.04695" lon="3.96518">
        <ele>73.6</ele>
        <time>2020-06-30T17:47:42Z</time>
      </trkpt>
      <trkpt lat="49.04695" lon="3.96516">
        <ele>73.6</ele>
        <time>2020-06-30T17:47:43Z</time>
      </trkpt>
      <trkpt lat="49.04695" lon="3.96514">
        <ele>73.7</ele>
        <time>2020-06-30T17:47:44Z</time>
      </trkpt>
      <trkpt lat="49.04695" lon="3.96513">
        <ele>73.7</ele>
        <time>2020-06-30T17:47:45Z</time>
      </trkpt>
      <trkpt lat="49.04695" lon="3.96513">
        <ele>73.7</ele>
        <time>2020-06-30T17:47:46Z</time>
      </trkpt>
      <trkpt lat="49.04695" lon="3.96512">
        <ele>73.7</ele>
        <time>2020-06-30T17:47:47Z</time>
      </trkpt>
      <trkpt lat="49.04695" lon="3.96511">
        <ele>73.7</ele>
        <time>2020-06-30T17:47:48Z</time>
      </trkpt>
      <trkpt lat="49.04695" lon="3.96511">
        <ele>73.7</ele>
        <time>2020-06-30T17:47:49Z</time>
      </trkpt>
      <trkpt lat="49.04695" lon="3.9651">
        <ele>73.7</ele>
        <time>2020-06-30T17:47:50Z</time>
      </trkpt>
      <trkpt lat="49.04694" lon="3.96509">
        <ele>73.7</ele>
        <time>2020-06-30T17:47:51Z</time>
      </trkpt>
      <trkpt lat="49.04694" lon="3.96507">
        <ele>73.7</ele>
        <time>2020-06-30T17:47:52Z</time>
      </trkpt>
      <trkpt lat="49.04694" lon="3.96505">
        <ele>73.8</ele>
        <time>2020-06-30T17:47:53Z</time>
      </trkpt>
      <trkpt lat="49.04694" lon="3.965">
        <ele>73.8</ele>
        <time>2020-06-30T17:47:54Z</time>
      </trkpt>
      <trkpt lat="49.04694" lon="3.96498">
        <ele>73.8</ele>
        <time>2020-06-30T17:47:55Z</time>
      </trkpt>
      <trkpt lat="49.04693" lon="3.96492">
        <ele>73.9</ele>
        <time>2020-06-30T17:47:56Z</time>
      </trkpt>
      <trkpt lat="49.04693" lon="3.9649">
        <ele>74</ele>
        <time>2020-06-30T17:47:57Z</time>
      </trkpt>
      <trkpt lat="49.04691" lon="3.96486">
        <ele>74.1</ele>
        <time>2020-06-30T17:47:58Z</time>
      </trkpt>
      <trkpt lat="49.04689" lon="3.96482">
        <ele>74.2</ele>
        <time>2020-06-30T17:47:59Z</time>
      </trkpt>
      <trkpt lat="49.04688" lon="3.96476">
        <ele>74.4</ele>
        <time>2020-06-30T17:48:00Z</time>
      </trkpt>
      <trkpt lat="49.04686" lon="3.96472">
        <ele>74.4</ele>
        <time>2020-06-30T17:48:01Z</time>
      </trkpt>
      <trkpt lat="49.04683" lon="3.96469">
        <ele>74.5</ele>
        <time>2020-06-30T17:48:02Z</time>
      </trkpt>
      <trkpt lat="49.0468" lon="3.96466">
        <ele>74.5</ele>
        <time>2020-06-30T17:48:03Z</time>
      </trkpt>
      <trkpt lat="49.04677" lon="3.96462">
        <ele>74.5</ele>
        <time>2020-06-30T17:48:04Z</time>
      </trkpt>
      <trkpt lat="49.04674" lon="3.96458">
        <ele>74.5</ele>
        <time>2020-06-30T17:48:05Z</time>
      </trkpt>
      <trkpt lat="49.04672" lon="3.96454">
        <ele>74.6</ele>
        <time>2020-06-30T17:48:06Z</time>
      </trkpt>
      <trkpt lat="49.04669" lon="3.96451">
        <ele>74.6</ele>
        <time>2020-06-30T17:48:07Z</time>
      </trkpt>
      <trkpt lat="49.04667" lon="3.96447">
        <ele>74.6</ele>
        <time>2020-06-30T17:48:08Z</time>
      </trkpt>
      <trkpt lat="49.04665" lon="3.96444">
        <ele>74.6</ele>
        <time>2020-06-30T17:48:09Z</time>
      </trkpt>
      <trkpt lat="49.04662" lon="3.96439">
        <ele>74.6</ele>
        <time>2020-06-30T17:48:10Z</time>
      </trkpt>
      <trkpt lat="49.04662" lon="3.96437">
        <ele>74.6</ele>
        <time>2020-06-30T17:48:11Z</time>
      </trkpt>
      <trkpt lat="49.04659" lon="3.96434">
        <ele>74.6</ele>
        <time>2020-06-30T17:48:12Z</time>
      </trkpt>
      <trkpt lat="49.04658" lon="3.96431">
        <ele>74.6</ele>
        <time>2020-06-30T17:48:13Z</time>
      </trkpt>
      <trkpt lat="49.04656" lon="3.96427">
        <ele>74.6</ele>
        <time>2020-06-30T17:48:14Z</time>
      </trkpt>
      <trkpt lat="49.04653" lon="3.96424">
        <ele>74.6</ele>
        <time>2020-06-30T17:48:15Z</time>
      </trkpt>
      <trkpt lat="49.04651" lon="3.96421">
        <ele>74.6</ele>
        <time>2020-06-30T17:48:16Z</time>
      </trkpt>
      <trkpt lat="49.04649" lon="3.96417">
        <ele>74.6</ele>
        <time>2020-06-30T17:48:17Z</time>
      </trkpt>
      <trkpt lat="49.04646" lon="3.96413">
        <ele>74.5</ele>
        <time>2020-06-30T17:48:18Z</time>
      </trkpt>
      <trkpt lat="49.04644" lon="3.96411">
        <ele>74.5</ele>
        <time>2020-06-30T17:48:19Z</time>
      </trkpt>
      <trkpt lat="49.04643" lon="3.96407">
        <ele>74.5</ele>
        <time>2020-06-30T17:48:20Z</time>
      </trkpt>
      <trkpt lat="49.04641" lon="3.96404">
        <ele>74.5</ele>
        <time>2020-06-30T17:48:21Z</time>
      </trkpt>
      <trkpt lat="49.04639" lon="3.96399">
        <ele>74.5</ele>
        <time>2020-06-30T17:48:22Z</time>
      </trkpt>
      <trkpt lat="49.04639" lon="3.96397">
        <ele>74.5</ele>
        <time>2020-06-30T17:48:23Z</time>
      </trkpt>
      <trkpt lat="49.04636" lon="3.96392">
        <ele>74.4</ele>
        <time>2020-06-30T17:48:24Z</time>
      </trkpt>
      <trkpt lat="49.04635" lon="3.96391">
        <ele>74.4</ele>
        <time>2020-06-30T17:48:25Z</time>
      </trkpt>
      <trkpt lat="49.04633" lon="3.96387">
        <ele>74.4</ele>
        <time>2020-06-30T17:48:26Z</time>
      </trkpt>
      <trkpt lat="49.04632" lon="3.96386">
        <ele>74.3</ele>
        <time>2020-06-30T17:48:27Z</time>
      </trkpt>
      <trkpt lat="49.0463" lon="3.96382">
        <ele>74.3</ele>
        <time>2020-06-30T17:48:28Z</time>
      </trkpt>
      <trkpt lat="49.04629" lon="3.96381">
        <ele>74.3</ele>
        <time>2020-06-30T17:48:29Z</time>
      </trkpt>
      <trkpt lat="49.04626" lon="3.96377">
        <ele>74.3</ele>
        <time>2020-06-30T17:48:30Z</time>
      </trkpt>
      <trkpt lat="49.04625" lon="3.96376">
        <ele>74.3</ele>
        <time>2020-06-30T17:48:31Z</time>
      </trkpt>
      <trkpt lat="49.04622" lon="3.96373">
        <ele>74.3</ele>
        <time>2020-06-30T17:48:32Z</time>
      </trkpt>
      <trkpt lat="49.04619" lon="3.96368">
        <ele>74.3</ele>
        <time>2020-06-30T17:48:33Z</time>
      </trkpt>
      <trkpt lat="49.04617" lon="3.96364">
        <ele>74.4</ele>
        <time>2020-06-30T17:48:34Z</time>
      </trkpt>
      <trkpt lat="49.04614" lon="3.9636">
        <ele>74.4</ele>
        <time>2020-06-30T17:48:35Z</time>
      </trkpt>
      <trkpt lat="49.04611" lon="3.96355">
        <ele>74.4</ele>
        <time>2020-06-30T17:48:36Z</time>
      </trkpt>
      <trkpt lat="49.04609" lon="3.96354">
        <ele>74.4</ele>
        <time>2020-06-30T17:48:37Z</time>
      </trkpt>
      <trkpt lat="49.04607" lon="3.9635">
        <ele>74.5</ele>
        <time>2020-06-30T17:48:38Z</time>
      </trkpt>
      <trkpt lat="49.04605" lon="3.96347">
        <ele>74.5</ele>
        <time>2020-06-30T17:48:39Z</time>
      </trkpt>
      <trkpt lat="49.04603" lon="3.96342">
        <ele>74.6</ele>
        <time>2020-06-30T17:48:40Z</time>
      </trkpt>
      <trkpt lat="49.04602" lon="3.9634">
        <ele>74.7</ele>
        <time>2020-06-30T17:48:41Z</time>
      </trkpt>
      <trkpt lat="49.04601" lon="3.96333">
        <ele>74.7</ele>
        <time>2020-06-30T17:48:42Z</time>
      </trkpt>
      <trkpt lat="49.046" lon="3.96327">
        <ele>74.9</ele>
        <time>2020-06-30T17:48:43Z</time>
      </trkpt>
      <trkpt lat="49.04597" lon="3.96322">
        <ele>75</ele>
        <time>2020-06-30T17:48:44Z</time>
      </trkpt>
      <trkpt lat="49.04595" lon="3.96317">
        <ele>75.1</ele>
        <time>2020-06-30T17:48:45Z</time>
      </trkpt>
      <trkpt lat="49.04593" lon="3.96309">
        <ele>75.2</ele>
        <time>2020-06-30T17:48:46Z</time>
      </trkpt>
      <trkpt lat="49.04592" lon="3.96303">
        <ele>75.3</ele>
        <time>2020-06-30T17:48:47Z</time>
      </trkpt>
      <trkpt lat="49.04591" lon="3.96296">
        <ele>75.5</ele>
        <time>2020-06-30T17:48:48Z</time>
      </trkpt>
      <trkpt lat="49.04589" lon="3.96288">
        <ele>75.6</ele>
        <time>2020-06-30T17:48:49Z</time>
      </trkpt>
      <trkpt lat="49.04587" lon="3.96281">
        <ele>75.8</ele>
        <time>2020-06-30T17:48:50Z</time>
      </trkpt>
      <trkpt lat="49.04584" lon="3.96274">
        <ele>75.9</ele>
        <time>2020-06-30T17:48:51Z</time>
      </trkpt>
      <trkpt lat="49.04583" lon="3.96266">
        <ele>76</ele>
        <time>2020-06-30T17:48:52Z</time>
      </trkpt>
      <trkpt lat="49.04582" lon="3.96259">
        <ele>76.1</ele>
        <time>2020-06-30T17:48:53Z</time>
      </trkpt>
      <trkpt lat="49.04581" lon="3.96254">
        <ele>76.2</ele>
        <time>2020-06-30T17:48:54Z</time>
      </trkpt>
      <trkpt lat="49.04579" lon="3.96249">
        <ele>76.4</ele>
        <time>2020-06-30T17:48:55Z</time>
      </trkpt>
      <trkpt lat="49.04577" lon="3.96244">
        <ele>76.4</ele>
        <time>2020-06-30T17:48:56Z</time>
      </trkpt>
      <trkpt lat="49.04575" lon="3.96239">
        <ele>76.5</ele>
        <time>2020-06-30T17:48:57Z</time>
      </trkpt>
      <trkpt lat="49.04574" lon="3.96234">
        <ele>76.6</ele>
        <time>2020-06-30T17:48:58Z</time>
      </trkpt>
      <trkpt lat="49.04573" lon="3.96229">
        <ele>76.6</ele>
        <time>2020-06-30T17:48:59Z</time>
      </trkpt>
      <trkpt lat="49.04571" lon="3.96225">
        <ele>76.6</ele>
        <time>2020-06-30T17:49:00Z</time>
      </trkpt>
      <trkpt lat="49.0457" lon="3.9622">
        <ele>76.6</ele>
        <time>2020-06-30T17:49:01Z</time>
      </trkpt>
      <trkpt lat="49.04569" lon="3.96216">
        <ele>76.6</ele>
        <time>2020-06-30T17:49:02Z</time>
      </trkpt>
      <trkpt lat="49.04569" lon="3.96214">
        <ele>76.6</ele>
        <time>2020-06-30T17:49:03Z</time>
      </trkpt>
      <trkpt lat="49.04568" lon="3.9621">
        <ele>76.6</ele>
        <time>2020-06-30T17:49:04Z</time>
      </trkpt>
      <trkpt lat="49.04567" lon="3.96204">
        <ele>76.6</ele>
        <time>2020-06-30T17:49:05Z</time>
      </trkpt>
      <trkpt lat="49.04565" lon="3.96196">
        <ele>76.5</ele>
        <time>2020-06-30T17:49:06Z</time>
      </trkpt>
      <trkpt lat="49.04564" lon="3.9619">
        <ele>76.5</ele>
        <time>2020-06-30T17:49:07Z</time>
      </trkpt>
      <trkpt lat="49.04562" lon="3.96185">
        <ele>76.4</ele>
        <time>2020-06-30T17:49:08Z</time>
      </trkpt>
      <trkpt lat="49.0456" lon="3.9618">
        <ele>76.3</ele>
        <time>2020-06-30T17:49:09Z</time>
      </trkpt>
      <trkpt lat="49.04559" lon="3.96178">
        <ele>76.3</ele>
        <time>2020-06-30T17:49:10Z</time>
      </trkpt>
      <trkpt lat="49.04558" lon="3.96177">
        <ele>76.3</ele>
        <time>2020-06-30T17:49:11Z</time>
      </trkpt>
      <trkpt lat="49.04557" lon="3.96176">
        <ele>76.3</ele>
        <time>2020-06-30T17:49:12Z</time>
      </trkpt>
      <trkpt lat="49.04556" lon="3.96176">
        <ele>76.2</ele>
        <time>2020-06-30T17:49:13Z</time>
      </trkpt>
      <trkpt lat="49.04555" lon="3.96176">
        <ele>76.2</ele>
        <time>2020-06-30T17:49:14Z</time>
      </trkpt>
      <trkpt lat="49.04554" lon="3.96177">
        <ele>76.2</ele>
        <time>2020-06-30T17:49:15Z</time>
      </trkpt>
      <trkpt lat="49.04553" lon="3.96176">
        <ele>76.2</ele>
        <time>2020-06-30T17:49:16Z</time>
      </trkpt>
      <trkpt lat="49.04553" lon="3.96176">
        <ele>76.2</ele>
        <time>2020-06-30T17:49:17Z</time>
      </trkpt>
      <trkpt lat="49.04551" lon="3.96176">
        <ele>76.2</ele>
        <time>2020-06-30T17:49:18Z</time>
      </trkpt>
      <trkpt lat="49.04548" lon="3.96174">
        <ele>76.1</ele>
        <time>2020-06-30T17:49:19Z</time>
      </trkpt>
      <trkpt lat="49.04547" lon="3.96173">
        <ele>76.1</ele>
        <time>2020-06-30T17:49:20Z</time>
      </trkpt>
      <trkpt lat="49.04544" lon="3.96171">
        <ele>76</ele>
        <time>2020-06-30T17:49:21Z</time>
      </trkpt>
      <trkpt lat="49.0454" lon="3.96169">
        <ele>76</ele>
        <time>2020-06-30T17:49:22Z</time>
      </trkpt>
      <trkpt lat="49.04534" lon="3.96166">
        <ele>75.9</ele>
        <time>2020-06-30T17:49:23Z</time>
      </trkpt>
      <trkpt lat="49.0453" lon="3.96163">
        <ele>75.8</ele>
        <time>2020-06-30T17:49:24Z</time>
      </trkpt>
      <trkpt lat="49.04527" lon="3.96161">
        <ele>75.6</ele>
        <time>2020-06-30T17:49:25Z</time>
      </trkpt>
      <trkpt lat="49.04522" lon="3.96159">
        <ele>75.5</ele>
        <time>2020-06-30T17:49:26Z</time>
      </trkpt>
      <trkpt lat="49.04517" lon="3.96156">
        <ele>75.4</ele>
        <time>2020-06-30T17:49:27Z</time>
      </trkpt>
      <trkpt lat="49.04513" lon="3.96153">
        <ele>75.3</ele>
        <time>2020-06-30T17:49:28Z</time>
      </trkpt>
      <trkpt lat="49.04509" lon="3.9615">
        <ele>75.1</ele>
        <time>2020-06-30T17:49:29Z</time>
      </trkpt>
      <trkpt lat="49.04506" lon="3.96147">
        <ele>75.1</ele>
        <time>2020-06-30T17:49:30Z</time>
      </trkpt>
      <trkpt lat="49.04503" lon="3.96142">
        <ele>75</ele>
        <time>2020-06-30T17:49:31Z</time>
      </trkpt>
      <trkpt lat="49.04499" lon="3.96137">
        <ele>75</ele>
        <time>2020-06-30T17:49:32Z</time>
      </trkpt>
      <trkpt lat="49.04494" lon="3.96134">
        <ele>75</ele>
        <time>2020-06-30T17:49:33Z</time>
      </trkpt>
      <trkpt lat="49.04491" lon="3.96132">
        <ele>75</ele>
        <time>2020-06-30T17:49:34Z</time>
      </trkpt>
      <trkpt lat="49.04489" lon="3.96128">
        <ele>75</ele>
        <time>2020-06-30T17:49:35Z</time>
      </trkpt>
      <trkpt lat="49.04487" lon="3.96124">
        <ele>75.1</ele>
        <time>2020-06-30T17:49:36Z</time>
      </trkpt>
      <trkpt lat="49.04486" lon="3.9612">
        <ele>75.1</ele>
        <time>2020-06-30T17:49:37Z</time>
      </trkpt>
      <trkpt lat="49.04486" lon="3.96115">
        <ele>75.1</ele>
        <time>2020-06-30T17:49:38Z</time>
      </trkpt>
      <trkpt lat="49.04485" lon="3.96109">
        <ele>75.1</ele>
        <time>2020-06-30T17:49:39Z</time>
      </trkpt>
      <trkpt lat="49.04485" lon="3.96101">
        <ele>75.2</ele>
        <time>2020-06-30T17:49:40Z</time>
      </trkpt>
      <trkpt lat="49.04485" lon="3.96094">
        <ele>75.2</ele>
        <time>2020-06-30T17:49:41Z</time>
      </trkpt>
      <trkpt lat="49.04484" lon="3.96089">
        <ele>75.2</ele>
        <time>2020-06-30T17:49:42Z</time>
      </trkpt>
      <trkpt lat="49.04483" lon="3.96085">
        <ele>75.3</ele>
        <time>2020-06-30T17:49:43Z</time>
      </trkpt>
      <trkpt lat="49.04481" lon="3.96079">
        <ele>75.3</ele>
        <time>2020-06-30T17:49:44Z</time>
      </trkpt>
      <trkpt lat="49.0448" lon="3.96072">
        <ele>75.4</ele>
        <time>2020-06-30T17:49:45Z</time>
      </trkpt>
      <trkpt lat="49.04479" lon="3.96067">
        <ele>75.5</ele>
        <time>2020-06-30T17:49:46Z</time>
      </trkpt>
      <trkpt lat="49.04479" lon="3.96061">
        <ele>75.5</ele>
        <time>2020-06-30T17:49:47Z</time>
      </trkpt>
      <trkpt lat="49.04479" lon="3.96053">
        <ele>75.6</ele>
        <time>2020-06-30T17:49:48Z</time>
      </trkpt>
      <trkpt lat="49.04479" lon="3.96046">
        <ele>75.6</ele>
        <time>2020-06-30T17:49:49Z</time>
      </trkpt>
      <trkpt lat="49.04478" lon="3.96041">
        <ele>75.6</ele>
        <time>2020-06-30T17:49:50Z</time>
      </trkpt>
      <trkpt lat="49.04479" lon="3.96035">
        <ele>75.7</ele>
        <time>2020-06-30T17:49:51Z</time>
      </trkpt>
      <trkpt lat="49.04479" lon="3.96029">
        <ele>75.7</ele>
        <time>2020-06-30T17:49:52Z</time>
      </trkpt>
      <trkpt lat="49.04479" lon="3.96027">
        <ele>75.7</ele>
        <time>2020-06-30T17:49:53Z</time>
      </trkpt>
      <trkpt lat="49.04479" lon="3.96021">
        <ele>75.7</ele>
        <time>2020-06-30T17:49:54Z</time>
      </trkpt>
      <trkpt lat="49.04479" lon="3.96016">
        <ele>75.7</ele>
        <time>2020-06-30T17:49:55Z</time>
      </trkpt>
      <trkpt lat="49.04479" lon="3.96008">
        <ele>75.7</ele>
        <time>2020-06-30T17:49:56Z</time>
      </trkpt>
      <trkpt lat="49.04478" lon="3.96001">
        <ele>75.8</ele>
        <time>2020-06-30T17:49:57Z</time>
      </trkpt>
      <trkpt lat="49.04478" lon="3.95994">
        <ele>75.8</ele>
        <time>2020-06-30T17:49:58Z</time>
      </trkpt>
      <trkpt lat="49.04479" lon="3.95988">
        <ele>75.8</ele>
        <time>2020-06-30T17:49:59Z</time>
      </trkpt>
      <trkpt lat="49.0448" lon="3.95982">
        <ele>75.8</ele>
        <time>2020-06-30T17:50:00Z</time>
      </trkpt>
      <trkpt lat="49.04479" lon="3.95975">
        <ele>75.8</ele>
        <time>2020-06-30T17:50:01Z</time>
      </trkpt>
      <trkpt lat="49.04479" lon="3.95969">
        <ele>75.9</ele>
        <time>2020-06-30T17:50:02Z</time>
      </trkpt>
      <trkpt lat="49.04479" lon="3.95963">
        <ele>75.9</ele>
        <time>2020-06-30T17:50:03Z</time>
      </trkpt>
      <trkpt lat="49.0448" lon="3.95957">
        <ele>75.9</ele>
        <time>2020-06-30T17:50:04Z</time>
      </trkpt>
      <trkpt lat="49.04479" lon="3.95952">
        <ele>76</ele>
        <time>2020-06-30T17:50:05Z</time>
      </trkpt>
      <trkpt lat="49.04479" lon="3.95945">
        <ele>76</ele>
        <time>2020-06-30T17:50:06Z</time>
      </trkpt>
      <trkpt lat="49.04481" lon="3.95942">
        <ele>76.1</ele>
        <time>2020-06-30T17:50:07Z</time>
      </trkpt>
      <trkpt lat="49.04481" lon="3.95938">
        <ele>76.1</ele>
        <time>2020-06-30T17:50:08Z</time>
      </trkpt>
      <trkpt lat="49.04481" lon="3.95933">
        <ele>76.2</ele>
        <time>2020-06-30T17:50:09Z</time>
      </trkpt>
      <trkpt lat="49.0448" lon="3.95927">
        <ele>76.3</ele>
        <time>2020-06-30T17:50:10Z</time>
      </trkpt>
      <trkpt lat="49.04482" lon="3.95922">
        <ele>76.4</ele>
        <time>2020-06-30T17:50:11Z</time>
      </trkpt>
      <trkpt lat="49.04482" lon="3.95917">
        <ele>76.4</ele>
        <time>2020-06-30T17:50:12Z</time>
      </trkpt>
      <trkpt lat="49.0448" lon="3.95911">
        <ele>76.4</ele>
        <time>2020-06-30T17:50:13Z</time>
      </trkpt>
      <trkpt lat="49.0448" lon="3.95906">
        <ele>76.4</ele>
        <time>2020-06-30T17:50:14Z</time>
      </trkpt>
      <trkpt lat="49.04479" lon="3.95901">
        <ele>76.3</ele>
        <time>2020-06-30T17:50:15Z</time>
      </trkpt>
      <trkpt lat="49.04479" lon="3.95899">
        <ele>76.3</ele>
        <time>2020-06-30T17:50:16Z</time>
      </trkpt>
      <trkpt lat="49.04478" lon="3.95895">
        <ele>76.1</ele>
        <time>2020-06-30T17:50:17Z</time>
      </trkpt>
      <trkpt lat="49.04478" lon="3.95892">
        <ele>76.1</ele>
        <time>2020-06-30T17:50:18Z</time>
      </trkpt>
      <trkpt lat="49.04481" lon="3.95889">
        <ele>75.9</ele>
        <time>2020-06-30T17:50:19Z</time>
      </trkpt>
      <trkpt lat="49.04482" lon="3.95887">
        <ele>75.8</ele>
        <time>2020-06-30T17:50:20Z</time>
      </trkpt>
      <trkpt lat="49.04484" lon="3.95883">
        <ele>75.7</ele>
        <time>2020-06-30T17:50:21Z</time>
      </trkpt>
      <trkpt lat="49.04486" lon="3.95877">
        <ele>75.6</ele>
        <time>2020-06-30T17:50:22Z</time>
      </trkpt>
      <trkpt lat="49.04488" lon="3.95872">
        <ele>75.4</ele>
        <time>2020-06-30T17:50:23Z</time>
      </trkpt>
      <trkpt lat="49.0449" lon="3.95868">
        <ele>75.3</ele>
        <time>2020-06-30T17:50:24Z</time>
      </trkpt>
      <trkpt lat="49.04493" lon="3.95863">
        <ele>75.1</ele>
        <time>2020-06-30T17:50:25Z</time>
      </trkpt>
      <trkpt lat="49.04496" lon="3.95858">
        <ele>74.7</ele>
        <time>2020-06-30T17:50:26Z</time>
      </trkpt>
      <trkpt lat="49.04499" lon="3.95852">
        <ele>74.6</ele>
        <time>2020-06-30T17:50:27Z</time>
      </trkpt>
      <trkpt lat="49.04502" lon="3.95847">
        <ele>74.6</ele>
        <time>2020-06-30T17:50:28Z</time>
      </trkpt>
      <trkpt lat="49.04504" lon="3.95843">
        <ele>74.5</ele>
        <time>2020-06-30T17:50:29Z</time>
      </trkpt>
      <trkpt lat="49.04505" lon="3.95842">
        <ele>74.5</ele>
        <time>2020-06-30T17:50:30Z</time>
      </trkpt>
      <trkpt lat="49.04507" lon="3.95841">
        <ele>74.5</ele>
        <time>2020-06-30T17:50:31Z</time>
      </trkpt>
      <trkpt lat="49.04506" lon="3.95837">
        <ele>74.5</ele>
        <time>2020-06-30T17:50:32Z</time>
      </trkpt>
      <trkpt lat="49.04506" lon="3.95836">
        <ele>74.4</ele>
        <time>2020-06-30T17:50:33Z</time>
      </trkpt>
      <trkpt lat="49.04503" lon="3.95837">
        <ele>74.4</ele>
        <time>2020-06-30T17:50:34Z</time>
      </trkpt>
      <trkpt lat="49.04501" lon="3.95838">
        <ele>74.4</ele>
        <time>2020-06-30T17:50:35Z</time>
      </trkpt>
      <trkpt lat="49.04499" lon="3.95837">
        <ele>74.4</ele>
        <time>2020-06-30T17:50:36Z</time>
      </trkpt>
      <trkpt lat="49.04495" lon="3.95834">
        <ele>74.4</ele>
        <time>2020-06-30T17:50:37Z</time>
      </trkpt>
      <trkpt lat="49.04494" lon="3.95833">
        <ele>74.4</ele>
        <time>2020-06-30T17:50:38Z</time>
      </trkpt>
      <trkpt lat="49.04492" lon="3.9583">
        <ele>74.5</ele>
        <time>2020-06-30T17:50:39Z</time>
      </trkpt>
      <trkpt lat="49.04489" lon="3.95827">
        <ele>74.5</ele>
        <time>2020-06-30T17:50:40Z</time>
      </trkpt>
      <trkpt lat="49.04486" lon="3.95827">
        <ele>74.5</ele>
        <time>2020-06-30T17:50:41Z</time>
      </trkpt>
      <trkpt lat="49.04483" lon="3.95824">
        <ele>74.6</ele>
        <time>2020-06-30T17:50:42Z</time>
      </trkpt>
      <trkpt lat="49.04479" lon="3.95821">
        <ele>74.6</ele>
        <time>2020-06-30T17:50:43Z</time>
      </trkpt>
      <trkpt lat="49.04477" lon="3.95817">
        <ele>74.7</ele>
        <time>2020-06-30T17:50:44Z</time>
      </trkpt>
      <trkpt lat="49.04475" lon="3.95814">
        <ele>74.7</ele>
        <time>2020-06-30T17:50:45Z</time>
      </trkpt>
      <trkpt lat="49.04471" lon="3.95808">
        <ele>74.8</ele>
        <time>2020-06-30T17:50:46Z</time>
      </trkpt>
      <trkpt lat="49.04468" lon="3.95803">
        <ele>74.8</ele>
        <time>2020-06-30T17:50:47Z</time>
      </trkpt>
      <trkpt lat="49.04464" lon="3.95798">
        <ele>74.8</ele>
        <time>2020-06-30T17:50:48Z</time>
      </trkpt>
      <trkpt lat="49.0446" lon="3.95793">
        <ele>74.9</ele>
        <time>2020-06-30T17:50:49Z</time>
      </trkpt>
      <trkpt lat="49.04458" lon="3.95788">
        <ele>75</ele>
        <time>2020-06-30T17:50:50Z</time>
      </trkpt>
      <trkpt lat="49.04456" lon="3.95784">
        <ele>75</ele>
        <time>2020-06-30T17:50:51Z</time>
      </trkpt>
      <trkpt lat="49.04453" lon="3.9578">
        <ele>75.1</ele>
        <time>2020-06-30T17:50:52Z</time>
      </trkpt>
      <trkpt lat="49.0445" lon="3.95777">
        <ele>75.2</ele>
        <time>2020-06-30T17:50:53Z</time>
      </trkpt>
      <trkpt lat="49.04448" lon="3.95774">
        <ele>75.2</ele>
        <time>2020-06-30T17:50:54Z</time>
      </trkpt>
      <trkpt lat="49.04445" lon="3.95769">
        <ele>75.3</ele>
        <time>2020-06-30T17:50:55Z</time>
      </trkpt>
      <trkpt lat="49.04444" lon="3.95765">
        <ele>75.4</ele>
        <time>2020-06-30T17:50:56Z</time>
      </trkpt>
      <trkpt lat="49.04441" lon="3.95761">
        <ele>75.5</ele>
        <time>2020-06-30T17:50:57Z</time>
      </trkpt>
      <trkpt lat="49.04439" lon="3.95756">
        <ele>75.6</ele>
        <time>2020-06-30T17:50:58Z</time>
      </trkpt>
      <trkpt lat="49.04437" lon="3.95751">
        <ele>75.7</ele>
        <time>2020-06-30T17:50:59Z</time>
      </trkpt>
      <trkpt lat="49.04434" lon="3.95747">
        <ele>75.8</ele>
        <time>2020-06-30T17:51:00Z</time>
      </trkpt>
      <trkpt lat="49.04431" lon="3.95742">
        <ele>75.9</ele>
        <time>2020-06-30T17:51:01Z</time>
      </trkpt>
      <trkpt lat="49.04429" lon="3.95737">
        <ele>76</ele>
        <time>2020-06-30T17:51:02Z</time>
      </trkpt>
      <trkpt lat="49.04427" lon="3.95734">
        <ele>76</ele>
        <time>2020-06-30T17:51:03Z</time>
      </trkpt>
      <trkpt lat="49.04424" lon="3.95731">
        <ele>76.1</ele>
        <time>2020-06-30T17:51:04Z</time>
      </trkpt>
      <trkpt lat="49.04421" lon="3.95729">
        <ele>76.2</ele>
        <time>2020-06-30T17:51:05Z</time>
      </trkpt>
      <trkpt lat="49.04419" lon="3.95725">
        <ele>76.3</ele>
        <time>2020-06-30T17:51:06Z</time>
      </trkpt>
      <trkpt lat="49.04416" lon="3.95721">
        <ele>76.4</ele>
        <time>2020-06-30T17:51:07Z</time>
      </trkpt>
      <trkpt lat="49.04414" lon="3.95717">
        <ele>76.5</ele>
        <time>2020-06-30T17:51:08Z</time>
      </trkpt>
      <trkpt lat="49.04412" lon="3.95713">
        <ele>76.6</ele>
        <time>2020-06-30T17:51:09Z</time>
      </trkpt>
      <trkpt lat="49.0441" lon="3.95709">
        <ele>76.7</ele>
        <time>2020-06-30T17:51:10Z</time>
      </trkpt>
      <trkpt lat="49.04406" lon="3.95706">
        <ele>76.8</ele>
        <time>2020-06-30T17:51:11Z</time>
      </trkpt>
      <trkpt lat="49.04401" lon="3.95703">
        <ele>76.9</ele>
        <time>2020-06-30T17:51:12Z</time>
      </trkpt>
      <trkpt lat="49.04399" lon="3.957">
        <ele>77</ele>
        <time>2020-06-30T17:51:13Z</time>
      </trkpt>
      <trkpt lat="49.04395" lon="3.95695">
        <ele>77.2</ele>
        <time>2020-06-30T17:51:14Z</time>
      </trkpt>
      <trkpt lat="49.04393" lon="3.9569">
        <ele>77.3</ele>
        <time>2020-06-30T17:51:15Z</time>
      </trkpt>
      <trkpt lat="49.04391" lon="3.95688">
        <ele>77.4</ele>
        <time>2020-06-30T17:51:16Z</time>
      </trkpt>
      <trkpt lat="49.04387" lon="3.95689">
        <ele>77.5</ele>
        <time>2020-06-30T17:51:17Z</time>
      </trkpt>
      <trkpt lat="49.04384" lon="3.95689">
        <ele>77.6</ele>
        <time>2020-06-30T17:51:18Z</time>
      </trkpt>
      <trkpt lat="49.0438" lon="3.95688">
        <ele>77.6</ele>
        <time>2020-06-30T17:51:19Z</time>
      </trkpt>
      <trkpt lat="49.04379" lon="3.95688">
        <ele>77.6</ele>
        <time>2020-06-30T17:51:20Z</time>
      </trkpt>
      <trkpt lat="49.04376" lon="3.95687">
        <ele>77.7</ele>
        <time>2020-06-30T17:51:21Z</time>
      </trkpt>
      <trkpt lat="49.04373" lon="3.95685">
        <ele>77.7</ele>
        <time>2020-06-30T17:51:22Z</time>
      </trkpt>
      <trkpt lat="49.0437" lon="3.95681">
        <ele>77.8</ele>
        <time>2020-06-30T17:51:23Z</time>
      </trkpt>
      <trkpt lat="49.04367" lon="3.95678">
        <ele>77.8</ele>
        <time>2020-06-30T17:51:24Z</time>
      </trkpt>
      <trkpt lat="49.04364" lon="3.95677">
        <ele>77.8</ele>
        <time>2020-06-30T17:51:25Z</time>
      </trkpt>
      <trkpt lat="49.04362" lon="3.95675">
        <ele>77.9</ele>
        <time>2020-06-30T17:51:26Z</time>
      </trkpt>
      <trkpt lat="49.04358" lon="3.95673">
        <ele>78</ele>
        <time>2020-06-30T17:51:27Z</time>
      </trkpt>
      <trkpt lat="49.04357" lon="3.95673">
        <ele>78</ele>
        <time>2020-06-30T17:51:28Z</time>
      </trkpt>
      <trkpt lat="49.04353" lon="3.95674">
        <ele>78</ele>
        <time>2020-06-30T17:51:29Z</time>
      </trkpt>
      <trkpt lat="49.04351" lon="3.95675">
        <ele>78.1</ele>
        <time>2020-06-30T17:51:30Z</time>
      </trkpt>
      <trkpt lat="49.04349" lon="3.95675">
        <ele>78.1</ele>
        <time>2020-06-30T17:51:31Z</time>
      </trkpt>
      <trkpt lat="49.04347" lon="3.95678">
        <ele>78.2</ele>
        <time>2020-06-30T17:51:32Z</time>
      </trkpt>
      <trkpt lat="49.04344" lon="3.95679">
        <ele>78.2</ele>
        <time>2020-06-30T17:51:33Z</time>
      </trkpt>
      <trkpt lat="49.04342" lon="3.95683">
        <ele>78.3</ele>
        <time>2020-06-30T17:51:34Z</time>
      </trkpt>
      <trkpt lat="49.04341" lon="3.95689">
        <ele>78.3</ele>
        <time>2020-06-30T17:51:35Z</time>
      </trkpt>
      <trkpt lat="49.04341" lon="3.95696">
        <ele>78.5</ele>
        <time>2020-06-30T17:51:36Z</time>
      </trkpt>
      <trkpt lat="49.04339" lon="3.95702">
        <ele>78.6</ele>
        <time>2020-06-30T17:51:37Z</time>
      </trkpt>
      <trkpt lat="49.04338" lon="3.95706">
        <ele>78.6</ele>
        <time>2020-06-30T17:51:38Z</time>
      </trkpt>
      <trkpt lat="49.04339" lon="3.95711">
        <ele>78.6</ele>
        <time>2020-06-30T17:51:39Z</time>
      </trkpt>
      <trkpt lat="49.04339" lon="3.95715">
        <ele>78.6</ele>
        <time>2020-06-30T17:51:40Z</time>
      </trkpt>
      <trkpt lat="49.04339" lon="3.9572">
        <ele>78.6</ele>
        <time>2020-06-30T17:51:41Z</time>
      </trkpt>
      <trkpt lat="49.04342" lon="3.95723">
        <ele>78.6</ele>
        <time>2020-06-30T17:51:42Z</time>
      </trkpt>
      <trkpt lat="49.04344" lon="3.95728">
        <ele>78.5</ele>
        <time>2020-06-30T17:51:43Z</time>
      </trkpt>
      <trkpt lat="49.04345" lon="3.95732">
        <ele>78.5</ele>
        <time>2020-06-30T17:51:44Z</time>
      </trkpt>
      <trkpt lat="49.04349" lon="3.95735">
        <ele>78.5</ele>
        <time>2020-06-30T17:51:45Z</time>
      </trkpt>
      <trkpt lat="49.04351" lon="3.9574">
        <ele>78.5</ele>
        <time>2020-06-30T17:51:46Z</time>
      </trkpt>
      <trkpt lat="49.04352" lon="3.95744">
        <ele>78.5</ele>
        <time>2020-06-30T17:51:47Z</time>
      </trkpt>
      <trkpt lat="49.04353" lon="3.95749">
        <ele>78.8</ele>
        <time>2020-06-30T17:51:48Z</time>
      </trkpt>
      <trkpt lat="49.04353" lon="3.95754">
        <ele>78.9</ele>
        <time>2020-06-30T17:51:49Z</time>
      </trkpt>
      <trkpt lat="49.04352" lon="3.9576">
        <ele>79</ele>
        <time>2020-06-30T17:51:50Z</time>
      </trkpt>
      <trkpt lat="49.04351" lon="3.95766">
        <ele>79.1</ele>
        <time>2020-06-30T17:51:51Z</time>
      </trkpt>
      <trkpt lat="49.04349" lon="3.95771">
        <ele>79.2</ele>
        <time>2020-06-30T17:51:52Z</time>
      </trkpt>
      <trkpt lat="49.04349" lon="3.95775">
        <ele>79.3</ele>
        <time>2020-06-30T17:51:53Z</time>
      </trkpt>
      <trkpt lat="49.04348" lon="3.9578">
        <ele>79.3</ele>
        <time>2020-06-30T17:51:54Z</time>
      </trkpt>
      <trkpt lat="49.04347" lon="3.95787">
        <ele>79.5</ele>
        <time>2020-06-30T17:51:55Z</time>
      </trkpt>
      <trkpt lat="49.04346" lon="3.9579">
        <ele>79.5</ele>
        <time>2020-06-30T17:51:56Z</time>
      </trkpt>
      <trkpt lat="49.04345" lon="3.95796">
        <ele>79.6</ele>
        <time>2020-06-30T17:51:57Z</time>
      </trkpt>
      <trkpt lat="49.04344" lon="3.95802">
        <ele>79.7</ele>
        <time>2020-06-30T17:51:58Z</time>
      </trkpt>
      <trkpt lat="49.04343" lon="3.95808">
        <ele>79.8</ele>
        <time>2020-06-30T17:51:59Z</time>
      </trkpt>
      <trkpt lat="49.04341" lon="3.95813">
        <ele>79.9</ele>
        <time>2020-06-30T17:52:00Z</time>
      </trkpt>
      <trkpt lat="49.04341" lon="3.95819">
        <ele>80</ele>
        <time>2020-06-30T17:52:01Z</time>
      </trkpt>
      <trkpt lat="49.04339" lon="3.95827">
        <ele>80.1</ele>
        <time>2020-06-30T17:52:02Z</time>
      </trkpt>
      <trkpt lat="49.04338" lon="3.95832">
        <ele>80.2</ele>
        <time>2020-06-30T17:52:03Z</time>
      </trkpt>
      <trkpt lat="49.04336" lon="3.95838">
        <ele>80.3</ele>
        <time>2020-06-30T17:52:04Z</time>
      </trkpt>
      <trkpt lat="49.04334" lon="3.95842">
        <ele>80.4</ele>
        <time>2020-06-30T17:52:05Z</time>
      </trkpt>
      <trkpt lat="49.04333" lon="3.95845">
        <ele>80.4</ele>
        <time>2020-06-30T17:52:06Z</time>
      </trkpt>
      <trkpt lat="49.04333" lon="3.9585">
        <ele>80.5</ele>
        <time>2020-06-30T17:52:07Z</time>
      </trkpt>
      <trkpt lat="49.04331" lon="3.95855">
        <ele>80.5</ele>
        <time>2020-06-30T17:52:08Z</time>
      </trkpt>
      <trkpt lat="49.04331" lon="3.95859">
        <ele>80.5</ele>
        <time>2020-06-30T17:52:09Z</time>
      </trkpt>
      <trkpt lat="49.04331" lon="3.95864">
        <ele>80.5</ele>
        <time>2020-06-30T17:52:10Z</time>
      </trkpt>
      <trkpt lat="49.04331" lon="3.95868">
        <ele>80.5</ele>
        <time>2020-06-30T17:52:11Z</time>
      </trkpt>
      <trkpt lat="49.04332" lon="3.95873">
        <ele>80.6</ele>
        <time>2020-06-30T17:52:12Z</time>
      </trkpt>
      <trkpt lat="49.04332" lon="3.95875">
        <ele>80.6</ele>
        <time>2020-06-30T17:52:13Z</time>
      </trkpt>
      <trkpt lat="49.04332" lon="3.95877">
        <ele>80.6</ele>
        <time>2020-06-30T17:52:14Z</time>
      </trkpt>
      <trkpt lat="49.04332" lon="3.9588">
        <ele>80.6</ele>
        <time>2020-06-30T17:52:15Z</time>
      </trkpt>
      <trkpt lat="49.04332" lon="3.95882">
        <ele>80.6</ele>
        <time>2020-06-30T17:52:16Z</time>
      </trkpt>
      <trkpt lat="49.04333" lon="3.9589">
        <ele>80.7</ele>
        <time>2020-06-30T17:52:17Z</time>
      </trkpt>
      <trkpt lat="49.0433" lon="3.95895">
        <ele>80.7</ele>
        <time>2020-06-30T17:52:18Z</time>
      </trkpt>
      <trkpt lat="49.04332" lon="3.95902">
        <ele>80.8</ele>
        <time>2020-06-30T17:52:19Z</time>
      </trkpt>
      <trkpt lat="49.04331" lon="3.95907">
        <ele>80.8</ele>
        <time>2020-06-30T17:52:20Z</time>
      </trkpt>
      <trkpt lat="49.04328" lon="3.95912">
        <ele>80.9</ele>
        <time>2020-06-30T17:52:21Z</time>
      </trkpt>
      <trkpt lat="49.04327" lon="3.95914">
        <ele>80.9</ele>
        <time>2020-06-30T17:52:22Z</time>
      </trkpt>
      <trkpt lat="49.04326" lon="3.95918">
        <ele>80.9</ele>
        <time>2020-06-30T17:52:23Z</time>
      </trkpt>
      <trkpt lat="49.04323" lon="3.95924">
        <ele>81</ele>
        <time>2020-06-30T17:52:24Z</time>
      </trkpt>
      <trkpt lat="49.04322" lon="3.95927">
        <ele>81</ele>
        <time>2020-06-30T17:52:25Z</time>
      </trkpt>
      <trkpt lat="49.04319" lon="3.95931">
        <ele>81</ele>
        <time>2020-06-30T17:52:26Z</time>
      </trkpt>
      <trkpt lat="49.04317" lon="3.95934">
        <ele>81</ele>
        <time>2020-06-30T17:52:27Z</time>
      </trkpt>
      <trkpt lat="49.04314" lon="3.95937">
        <ele>81</ele>
        <time>2020-06-30T17:52:28Z</time>
      </trkpt>
      <trkpt lat="49.04314" lon="3.95939">
        <ele>81</ele>
        <time>2020-06-30T17:52:29Z</time>
      </trkpt>
      <trkpt lat="49.04312" lon="3.95943">
        <ele>81</ele>
        <time>2020-06-30T17:52:30Z</time>
      </trkpt>
      <trkpt lat="49.04311" lon="3.95944">
        <ele>81</ele>
        <time>2020-06-30T17:52:31Z</time>
      </trkpt>
      <trkpt lat="49.04308" lon="3.95946">
        <ele>81</ele>
        <time>2020-06-30T17:52:32Z</time>
      </trkpt>
      <trkpt lat="49.04308" lon="3.95947">
        <ele>81</ele>
        <time>2020-06-30T17:52:33Z</time>
      </trkpt>
      <trkpt lat="49.04308" lon="3.95949">
        <ele>81.2</ele>
        <time>2020-06-30T17:52:34Z</time>
      </trkpt>
      <trkpt lat="49.04308" lon="3.95952">
        <ele>81.2</ele>
        <time>2020-06-30T17:52:35Z</time>
      </trkpt>
      <trkpt lat="49.04309" lon="3.95957">
        <ele>81.4</ele>
        <time>2020-06-30T17:52:36Z</time>
      </trkpt>
      <trkpt lat="49.0431" lon="3.95963">
        <ele>81.5</ele>
        <time>2020-06-30T17:52:37Z</time>
      </trkpt>
      <trkpt lat="49.04311" lon="3.95967">
        <ele>81.5</ele>
        <time>2020-06-30T17:52:38Z</time>
      </trkpt>
      <trkpt lat="49.04311" lon="3.9597">
        <ele>81.6</ele>
        <time>2020-06-30T17:52:39Z</time>
      </trkpt>
      <trkpt lat="49.04311" lon="3.9597">
        <ele>81.6</ele>
        <time>2020-06-30T17:52:40Z</time>
      </trkpt>
      <trkpt lat="49.04311" lon="3.9597">
        <ele>81.6</ele>
        <time>2020-06-30T17:52:41Z</time>
      </trkpt>
      <trkpt lat="49.04311" lon="3.95971">
        <ele>81.6</ele>
        <time>2020-06-30T17:52:42Z</time>
      </trkpt>
      <trkpt lat="49.0431" lon="3.95971">
        <ele>81.6</ele>
        <time>2020-06-30T17:52:43Z</time>
      </trkpt>
      <trkpt lat="49.0431" lon="3.95972">
        <ele>81.6</ele>
        <time>2020-06-30T17:52:44Z</time>
      </trkpt>
      <trkpt lat="49.0431" lon="3.95972">
        <ele>81.6</ele>
        <time>2020-06-30T17:52:45Z</time>
      </trkpt>
      <trkpt lat="49.0431" lon="3.95973">
        <ele>81.6</ele>
        <time>2020-06-30T17:52:46Z</time>
      </trkpt>
      <trkpt lat="49.0431" lon="3.95973">
        <ele>81.6</ele>
        <time>2020-06-30T17:52:47Z</time>
      </trkpt>
      <trkpt lat="49.04309" lon="3.95976">
        <ele>81.7</ele>
        <time>2020-06-30T17:52:48Z</time>
      </trkpt>
      <trkpt lat="49.0431" lon="3.95978">
        <ele>81.7</ele>
        <time>2020-06-30T17:52:49Z</time>
      </trkpt>
      <trkpt lat="49.0431" lon="3.95981">
        <ele>81.8</ele>
        <time>2020-06-30T17:52:50Z</time>
      </trkpt>
      <trkpt lat="49.0431" lon="3.95984">
        <ele>81.8</ele>
        <time>2020-06-30T17:52:55Z</time>
      </trkpt>
      <trkpt lat="49.0431" lon="3.95987">
        <ele>81.8</ele>
        <time>2020-06-30T17:52:56Z</time>
      </trkpt>
      <trkpt lat="49.04309" lon="3.9599">
        <ele>81.9</ele>
        <time>2020-06-30T17:52:57Z</time>
      </trkpt>
      <trkpt lat="49.04309" lon="3.95992">
        <ele>81.9</ele>
        <time>2020-06-30T17:52:58Z</time>
      </trkpt>
      <trkpt lat="49.04307" lon="3.95993">
        <ele>82</ele>
        <time>2020-06-30T17:52:59Z</time>
      </trkpt>
      <trkpt lat="49.04306" lon="3.95996">
        <ele>82</ele>
        <time>2020-06-30T17:53:00Z</time>
      </trkpt>
      <trkpt lat="49.04305" lon="3.95998">
        <ele>82.1</ele>
        <time>2020-06-30T17:53:01Z</time>
      </trkpt>
      <trkpt lat="49.04305" lon="3.95999">
        <ele>82.1</ele>
        <time>2020-06-30T17:53:02Z</time>
      </trkpt>
      <trkpt lat="49.04305" lon="3.96001">
        <ele>82.1</ele>
        <time>2020-06-30T17:53:03Z</time>
      </trkpt>
      <trkpt lat="49.04305" lon="3.96002">
        <ele>82.2</ele>
        <time>2020-06-30T17:53:04Z</time>
      </trkpt>
      <trkpt lat="49.04305" lon="3.96004">
        <ele>82.2</ele>
        <time>2020-06-30T17:53:05Z</time>
      </trkpt>
      <trkpt lat="49.04305" lon="3.96006">
        <ele>82.2</ele>
        <time>2020-06-30T17:53:06Z</time>
      </trkpt>
      <trkpt lat="49.04303" lon="3.96008">
        <ele>82.3</ele>
        <time>2020-06-30T17:53:07Z</time>
      </trkpt>
      <trkpt lat="49.04302" lon="3.96011">
        <ele>82.3</ele>
        <time>2020-06-30T17:53:08Z</time>
      </trkpt>
      <trkpt lat="49.04301" lon="3.96012">
        <ele>82.4</ele>
        <time>2020-06-30T17:53:09Z</time>
      </trkpt>
      <trkpt lat="49.04301" lon="3.96013">
        <ele>82.4</ele>
        <time>2020-06-30T17:53:10Z</time>
      </trkpt>
      <trkpt lat="49.04301" lon="3.96018">
        <ele>82.5</ele>
        <time>2020-06-30T17:53:11Z</time>
      </trkpt>
      <trkpt lat="49.043" lon="3.96026">
        <ele>82.6</ele>
        <time>2020-06-30T17:53:12Z</time>
      </trkpt>
      <trkpt lat="49.04299" lon="3.96032">
        <ele>82.7</ele>
        <time>2020-06-30T17:53:13Z</time>
      </trkpt>
      <trkpt lat="49.04298" lon="3.96038">
        <ele>82.7</ele>
        <time>2020-06-30T17:53:14Z</time>
      </trkpt>
      <trkpt lat="49.04298" lon="3.96046">
        <ele>82.8</ele>
        <time>2020-06-30T17:53:15Z</time>
      </trkpt>
      <trkpt lat="49.04297" lon="3.9605">
        <ele>82.9</ele>
        <time>2020-06-30T17:53:16Z</time>
      </trkpt>
      <trkpt lat="49.04297" lon="3.96053">
        <ele>83</ele>
        <time>2020-06-30T17:53:17Z</time>
      </trkpt>
      <trkpt lat="49.04297" lon="3.96054">
        <ele>83</ele>
        <time>2020-06-30T17:53:18Z</time>
      </trkpt>
      <trkpt lat="49.04297" lon="3.96056">
        <ele>83</ele>
        <time>2020-06-30T17:53:19Z</time>
      </trkpt>
      <trkpt lat="49.04296" lon="3.96058">
        <ele>83.1</ele>
        <time>2020-06-30T17:53:20Z</time>
      </trkpt>
      <trkpt lat="49.04296" lon="3.96061">
        <ele>83.1</ele>
        <time>2020-06-30T17:53:21Z</time>
      </trkpt>
      <trkpt lat="49.04296" lon="3.96064">
        <ele>83.1</ele>
        <time>2020-06-30T17:53:22Z</time>
      </trkpt>
      <trkpt lat="49.04296" lon="3.96065">
        <ele>83.2</ele>
        <time>2020-06-30T17:53:23Z</time>
      </trkpt>
      <trkpt lat="49.04297" lon="3.96067">
        <ele>83.2</ele>
        <time>2020-06-30T17:53:24Z</time>
      </trkpt>
      <trkpt lat="49.04297" lon="3.96071">
        <ele>83.2</ele>
        <time>2020-06-30T17:53:25Z</time>
      </trkpt>
      <trkpt lat="49.04297" lon="3.96073">
        <ele>83.3</ele>
        <time>2020-06-30T17:53:26Z</time>
      </trkpt>
      <trkpt lat="49.04297" lon="3.96077">
        <ele>83.3</ele>
        <time>2020-06-30T17:53:27Z</time>
      </trkpt>
      <trkpt lat="49.04297" lon="3.96078">
        <ele>83.4</ele>
        <time>2020-06-30T17:53:28Z</time>
      </trkpt>
      <trkpt lat="49.04296" lon="3.96083">
        <ele>83.4</ele>
        <time>2020-06-30T17:53:29Z</time>
      </trkpt>
      <trkpt lat="49.04296" lon="3.96084">
        <ele>83.4</ele>
        <time>2020-06-30T17:53:30Z</time>
      </trkpt>
      <trkpt lat="49.04296" lon="3.9609">
        <ele>83.5</ele>
        <time>2020-06-30T17:53:31Z</time>
      </trkpt>
      <trkpt lat="49.04295" lon="3.96091">
        <ele>83.6</ele>
        <time>2020-06-30T17:53:32Z</time>
      </trkpt>
      <trkpt lat="49.04293" lon="3.96091">
        <ele>83.6</ele>
        <time>2020-06-30T17:53:33Z</time>
      </trkpt>
      <trkpt lat="49.04293" lon="3.96093">
        <ele>83.6</ele>
        <time>2020-06-30T17:53:34Z</time>
      </trkpt>
      <trkpt lat="49.04293" lon="3.96095">
        <ele>83.7</ele>
        <time>2020-06-30T17:53:35Z</time>
      </trkpt>
      <trkpt lat="49.04292" lon="3.961">
        <ele>83.8</ele>
        <time>2020-06-30T17:53:36Z</time>
      </trkpt>
      <trkpt lat="49.04292" lon="3.96102">
        <ele>83.8</ele>
        <time>2020-06-30T17:53:37Z</time>
      </trkpt>
      <trkpt lat="49.04291" lon="3.96107">
        <ele>83.9</ele>
        <time>2020-06-30T17:53:38Z</time>
      </trkpt>
      <trkpt lat="49.0429" lon="3.96109">
        <ele>83.9</ele>
        <time>2020-06-30T17:53:39Z</time>
      </trkpt>
      <trkpt lat="49.0429" lon="3.96111">
        <ele>84</ele>
        <time>2020-06-30T17:53:40Z</time>
      </trkpt>
      <trkpt lat="49.04289" lon="3.96113">
        <ele>84</ele>
        <time>2020-06-30T17:53:41Z</time>
      </trkpt>
      <trkpt lat="49.04289" lon="3.96118">
        <ele>84.1</ele>
        <time>2020-06-30T17:53:42Z</time>
      </trkpt>
      <trkpt lat="49.04288" lon="3.9612">
        <ele>84.2</ele>
        <time>2020-06-30T17:53:43Z</time>
      </trkpt>
      <trkpt lat="49.04288" lon="3.96125">
        <ele>84.3</ele>
        <time>2020-06-30T17:53:44Z</time>
      </trkpt>
      <trkpt lat="49.04288" lon="3.9613">
        <ele>84.3</ele>
        <time>2020-06-30T17:53:45Z</time>
      </trkpt>
      <trkpt lat="49.04286" lon="3.96136">
        <ele>84.4</ele>
        <time>2020-06-30T17:53:46Z</time>
      </trkpt>
      <trkpt lat="49.04285" lon="3.96142">
        <ele>84.5</ele>
        <time>2020-06-30T17:53:47Z</time>
      </trkpt>
      <trkpt lat="49.04284" lon="3.96148">
        <ele>84.6</ele>
        <time>2020-06-30T17:53:48Z</time>
      </trkpt>
      <trkpt lat="49.04283" lon="3.96156">
        <ele>84.7</ele>
        <time>2020-06-30T17:53:49Z</time>
      </trkpt>
      <trkpt lat="49.04281" lon="3.9616">
        <ele>84.7</ele>
        <time>2020-06-30T17:53:50Z</time>
      </trkpt>
      <trkpt lat="49.0428" lon="3.96162">
        <ele>84.8</ele>
        <time>2020-06-30T17:53:51Z</time>
      </trkpt>
      <trkpt lat="49.04279" lon="3.96163">
        <ele>84.8</ele>
        <time>2020-06-30T17:53:52Z</time>
      </trkpt>
      <trkpt lat="49.04278" lon="3.96167">
        <ele>84.9</ele>
        <time>2020-06-30T17:53:53Z</time>
      </trkpt>
      <trkpt lat="49.04277" lon="3.96168">
        <ele>84.9</ele>
        <time>2020-06-30T17:53:54Z</time>
      </trkpt>
      <trkpt lat="49.04277" lon="3.96174">
        <ele>85.1</ele>
        <time>2020-06-30T17:53:55Z</time>
      </trkpt>
      <trkpt lat="49.04277" lon="3.96176">
        <ele>85.1</ele>
        <time>2020-06-30T17:53:56Z</time>
      </trkpt>
      <trkpt lat="49.04277" lon="3.96181">
        <ele>85.2</ele>
        <time>2020-06-30T17:53:57Z</time>
      </trkpt>
      <trkpt lat="49.04277" lon="3.96182">
        <ele>85.2</ele>
        <time>2020-06-30T17:53:58Z</time>
      </trkpt>
      <trkpt lat="49.04276" lon="3.96188">
        <ele>85.3</ele>
        <time>2020-06-30T17:53:59Z</time>
      </trkpt>
      <trkpt lat="49.04276" lon="3.9619">
        <ele>85.4</ele>
        <time>2020-06-30T17:54:00Z</time>
      </trkpt>
      <trkpt lat="49.04275" lon="3.96195">
        <ele>85.5</ele>
        <time>2020-06-30T17:54:01Z</time>
      </trkpt>
      <trkpt lat="49.04274" lon="3.96198">
        <ele>85.6</ele>
        <time>2020-06-30T17:54:02Z</time>
      </trkpt>
      <trkpt lat="49.04273" lon="3.96203">
        <ele>85.7</ele>
        <time>2020-06-30T17:54:03Z</time>
      </trkpt>
      <trkpt lat="49.04272" lon="3.96207">
        <ele>85.8</ele>
        <time>2020-06-30T17:54:04Z</time>
      </trkpt>
      <trkpt lat="49.04271" lon="3.96211">
        <ele>85.9</ele>
        <time>2020-06-30T17:54:05Z</time>
      </trkpt>
      <trkpt lat="49.04269" lon="3.96216">
        <ele>86</ele>
        <time>2020-06-30T17:54:06Z</time>
      </trkpt>
      <trkpt lat="49.04268" lon="3.9622">
        <ele>86.1</ele>
        <time>2020-06-30T17:54:07Z</time>
      </trkpt>
      <trkpt lat="49.04266" lon="3.96224">
        <ele>86.2</ele>
        <time>2020-06-30T17:54:08Z</time>
      </trkpt>
      <trkpt lat="49.04264" lon="3.96229">
        <ele>86.4</ele>
        <time>2020-06-30T17:54:09Z</time>
      </trkpt>
      <trkpt lat="49.04263" lon="3.96233">
        <ele>86.5</ele>
        <time>2020-06-30T17:54:10Z</time>
      </trkpt>
      <trkpt lat="49.04263" lon="3.96235">
        <ele>86.5</ele>
        <time>2020-06-30T17:54:11Z</time>
      </trkpt>
      <trkpt lat="49.04263" lon="3.96239">
        <ele>86.6</ele>
        <time>2020-06-30T17:54:12Z</time>
      </trkpt>
      <trkpt lat="49.04262" lon="3.9624">
        <ele>86.7</ele>
        <time>2020-06-30T17:54:13Z</time>
      </trkpt>
      <trkpt lat="49.04261" lon="3.96245">
        <ele>86.8</ele>
        <time>2020-06-30T17:54:14Z</time>
      </trkpt>
      <trkpt lat="49.04261" lon="3.96247">
        <ele>86.8</ele>
        <time>2020-06-30T17:54:15Z</time>
      </trkpt>
      <trkpt lat="49.04259" lon="3.96253">
        <ele>87</ele>
        <time>2020-06-30T17:54:16Z</time>
      </trkpt>
      <trkpt lat="49.04259" lon="3.96255">
        <ele>87</ele>
        <time>2020-06-30T17:54:17Z</time>
      </trkpt>
      <trkpt lat="49.04258" lon="3.96257">
        <ele>87.1</ele>
        <time>2020-06-30T17:54:18Z</time>
      </trkpt>
      <trkpt lat="49.04258" lon="3.96259">
        <ele>87.1</ele>
        <time>2020-06-30T17:54:19Z</time>
      </trkpt>
      <trkpt lat="49.04257" lon="3.96265">
        <ele>87.3</ele>
        <time>2020-06-30T17:54:20Z</time>
      </trkpt>
      <trkpt lat="49.04257" lon="3.96272">
        <ele>87.4</ele>
        <time>2020-06-30T17:54:21Z</time>
      </trkpt>
      <trkpt lat="49.04256" lon="3.9628">
        <ele>87.6</ele>
        <time>2020-06-30T17:54:22Z</time>
      </trkpt>
      <trkpt lat="49.04256" lon="3.96289">
        <ele>87.8</ele>
        <time>2020-06-30T17:54:23Z</time>
      </trkpt>
      <trkpt lat="49.04256" lon="3.96296">
        <ele>88</ele>
        <time>2020-06-30T17:54:24Z</time>
      </trkpt>
      <trkpt lat="49.04256" lon="3.96301">
        <ele>88.1</ele>
        <time>2020-06-30T17:54:25Z</time>
      </trkpt>
      <trkpt lat="49.04256" lon="3.96305">
        <ele>88.2</ele>
        <time>2020-06-30T17:54:26Z</time>
      </trkpt>
      <trkpt lat="49.04255" lon="3.96311">
        <ele>88.3</ele>
        <time>2020-06-30T17:54:27Z</time>
      </trkpt>
      <trkpt lat="49.04254" lon="3.96313">
        <ele>88.4</ele>
        <time>2020-06-30T17:54:28Z</time>
      </trkpt>
      <trkpt lat="49.04253" lon="3.96317">
        <ele>88.4</ele>
        <time>2020-06-30T17:54:29Z</time>
      </trkpt>
      <trkpt lat="49.04253" lon="3.96325">
        <ele>88.5</ele>
        <time>2020-06-30T17:54:30Z</time>
      </trkpt>
      <trkpt lat="49.04252" lon="3.9633">
        <ele>88.6</ele>
        <time>2020-06-30T17:54:31Z</time>
      </trkpt>
      <trkpt lat="49.04251" lon="3.96334">
        <ele>88.7</ele>
        <time>2020-06-30T17:54:32Z</time>
      </trkpt>
      <trkpt lat="49.0425" lon="3.9634">
        <ele>88.8</ele>
        <time>2020-06-30T17:54:33Z</time>
      </trkpt>
      <trkpt lat="49.04248" lon="3.96347">
        <ele>89</ele>
        <time>2020-06-30T17:54:34Z</time>
      </trkpt>
      <trkpt lat="49.04247" lon="3.96351">
        <ele>89.1</ele>
        <time>2020-06-30T17:54:35Z</time>
      </trkpt>
      <trkpt lat="49.04246" lon="3.96355">
        <ele>89.2</ele>
        <time>2020-06-30T17:54:36Z</time>
      </trkpt>
      <trkpt lat="49.04243" lon="3.9636">
        <ele>89.4</ele>
        <time>2020-06-30T17:54:37Z</time>
      </trkpt>
      <trkpt lat="49.04242" lon="3.96362">
        <ele>89.4</ele>
        <time>2020-06-30T17:54:38Z</time>
      </trkpt>
      <trkpt lat="49.04241" lon="3.96365">
        <ele>89.5</ele>
        <time>2020-06-30T17:54:39Z</time>
      </trkpt>
      <trkpt lat="49.0424" lon="3.9637">
        <ele>89.6</ele>
        <time>2020-06-30T17:54:40Z</time>
      </trkpt>
      <trkpt lat="49.0424" lon="3.96375">
        <ele>89.7</ele>
        <time>2020-06-30T17:54:41Z</time>
      </trkpt>
      <trkpt lat="49.04239" lon="3.9638">
        <ele>89.8</ele>
        <time>2020-06-30T17:54:42Z</time>
      </trkpt>
      <trkpt lat="49.04238" lon="3.96384">
        <ele>89.9</ele>
        <time>2020-06-30T17:54:43Z</time>
      </trkpt>
      <trkpt lat="49.04237" lon="3.9639">
        <ele>90</ele>
        <time>2020-06-30T17:54:44Z</time>
      </trkpt>
      <trkpt lat="49.04237" lon="3.96392">
        <ele>90.1</ele>
        <time>2020-06-30T17:54:45Z</time>
      </trkpt>
      <trkpt lat="49.04235" lon="3.96397">
        <ele>90.2</ele>
        <time>2020-06-30T17:54:46Z</time>
      </trkpt>
      <trkpt lat="49.04235" lon="3.96399">
        <ele>90.2</ele>
        <time>2020-06-30T17:54:47Z</time>
      </trkpt>
      <trkpt lat="49.04233" lon="3.96402">
        <ele>90.3</ele>
        <time>2020-06-30T17:54:48Z</time>
      </trkpt>
      <trkpt lat="49.04233" lon="3.96403">
        <ele>90.3</ele>
        <time>2020-06-30T17:54:49Z</time>
      </trkpt>
      <trkpt lat="49.04232" lon="3.96405">
        <ele>90.3</ele>
        <time>2020-06-30T17:54:50Z</time>
      </trkpt>
      <trkpt lat="49.04231" lon="3.96408">
        <ele>90.4</ele>
        <time>2020-06-30T17:54:51Z</time>
      </trkpt>
      <trkpt lat="49.0423" lon="3.9641">
        <ele>90.4</ele>
        <time>2020-06-30T17:54:52Z</time>
      </trkpt>
      <trkpt lat="49.04231" lon="3.96412">
        <ele>90.4</ele>
        <time>2020-06-30T17:54:53Z</time>
      </trkpt>
      <trkpt lat="49.04231" lon="3.96418">
        <ele>90.5</ele>
        <time>2020-06-30T17:54:54Z</time>
      </trkpt>
      <trkpt lat="49.04231" lon="3.96424">
        <ele>90.7</ele>
        <time>2020-06-30T17:54:55Z</time>
      </trkpt>
      <trkpt lat="49.04231" lon="3.96426">
        <ele>90.7</ele>
        <time>2020-06-30T17:54:56Z</time>
      </trkpt>
      <trkpt lat="49.0423" lon="3.96428">
        <ele>90.7</ele>
        <time>2020-06-30T17:54:57Z</time>
      </trkpt>
      <trkpt lat="49.0423" lon="3.9643">
        <ele>90.7</ele>
        <time>2020-06-30T17:54:58Z</time>
      </trkpt>
      <trkpt lat="49.0423" lon="3.96435">
        <ele>90.8</ele>
        <time>2020-06-30T17:54:59Z</time>
      </trkpt>
      <trkpt lat="49.04229" lon="3.96437">
        <ele>90.8</ele>
        <time>2020-06-30T17:55:00Z</time>
      </trkpt>
      <trkpt lat="49.04228" lon="3.96441">
        <ele>90.8</ele>
        <time>2020-06-30T17:55:01Z</time>
      </trkpt>
      <trkpt lat="49.04228" lon="3.96442">
        <ele>90.8</ele>
        <time>2020-06-30T17:55:02Z</time>
      </trkpt>
      <trkpt lat="49.04227" lon="3.96446">
        <ele>90.9</ele>
        <time>2020-06-30T17:55:03Z</time>
      </trkpt>
      <trkpt lat="49.04227" lon="3.96448">
        <ele>90.9</ele>
        <time>2020-06-30T17:55:04Z</time>
      </trkpt>
      <trkpt lat="49.04226" lon="3.96449">
        <ele>90.9</ele>
        <time>2020-06-30T17:55:05Z</time>
      </trkpt>
      <trkpt lat="49.04225" lon="3.96453">
        <ele>90.9</ele>
        <time>2020-06-30T17:55:06Z</time>
      </trkpt>
      <trkpt lat="49.04224" lon="3.96455">
        <ele>90.9</ele>
        <time>2020-06-30T17:55:07Z</time>
      </trkpt>
      <trkpt lat="49.04224" lon="3.96459">
        <ele>91</ele>
        <time>2020-06-30T17:55:08Z</time>
      </trkpt>
      <trkpt lat="49.04224" lon="3.9646">
        <ele>91</ele>
        <time>2020-06-30T17:55:09Z</time>
      </trkpt>
      <trkpt lat="49.04222" lon="3.96464">
        <ele>91</ele>
        <time>2020-06-30T17:55:10Z</time>
      </trkpt>
      <trkpt lat="49.04221" lon="3.96469">
        <ele>91</ele>
        <time>2020-06-30T17:55:11Z</time>
      </trkpt>
      <trkpt lat="49.04221" lon="3.96471">
        <ele>91.1</ele>
        <time>2020-06-30T17:55:12Z</time>
      </trkpt>
      <trkpt lat="49.04221" lon="3.96476">
        <ele>91.1</ele>
        <time>2020-06-30T17:55:13Z</time>
      </trkpt>
      <trkpt lat="49.04221" lon="3.96477">
        <ele>91.1</ele>
        <time>2020-06-30T17:55:14Z</time>
      </trkpt>
      <trkpt lat="49.04221" lon="3.96479">
        <ele>91.1</ele>
        <time>2020-06-30T17:55:15Z</time>
      </trkpt>
      <trkpt lat="49.04221" lon="3.96481">
        <ele>91.1</ele>
        <time>2020-06-30T17:55:16Z</time>
      </trkpt>
      <trkpt lat="49.0422" lon="3.96485">
        <ele>91.2</ele>
        <time>2020-06-30T17:55:17Z</time>
      </trkpt>
      <trkpt lat="49.0422" lon="3.96487">
        <ele>91.2</ele>
        <time>2020-06-30T17:55:18Z</time>
      </trkpt>
      <trkpt lat="49.0422" lon="3.96493">
        <ele>91.2</ele>
        <time>2020-06-30T17:55:19Z</time>
      </trkpt>
      <trkpt lat="49.0422" lon="3.96495">
        <ele>91.2</ele>
        <time>2020-06-30T17:55:20Z</time>
      </trkpt>
      <trkpt lat="49.04218" lon="3.965">
        <ele>91.3</ele>
        <time>2020-06-30T17:55:21Z</time>
      </trkpt>
      <trkpt lat="49.04217" lon="3.96504">
        <ele>91.3</ele>
        <time>2020-06-30T17:55:22Z</time>
      </trkpt>
      <trkpt lat="49.04216" lon="3.96509">
        <ele>91.4</ele>
        <time>2020-06-30T17:55:23Z</time>
      </trkpt>
      <trkpt lat="49.04215" lon="3.96515">
        <ele>91.5</ele>
        <time>2020-06-30T17:55:24Z</time>
      </trkpt>
      <trkpt lat="49.04215" lon="3.96517">
        <ele>91.5</ele>
        <time>2020-06-30T17:55:25Z</time>
      </trkpt>
      <trkpt lat="49.04214" lon="3.96521">
        <ele>91.5</ele>
        <time>2020-06-30T17:55:26Z</time>
      </trkpt>
      <trkpt lat="49.04213" lon="3.96523">
        <ele>91.5</ele>
        <time>2020-06-30T17:55:27Z</time>
      </trkpt>
      <trkpt lat="49.04213" lon="3.96528">
        <ele>91.6</ele>
        <time>2020-06-30T17:55:28Z</time>
      </trkpt>
      <trkpt lat="49.04212" lon="3.96533">
        <ele>91.6</ele>
        <time>2020-06-30T17:55:29Z</time>
      </trkpt>
      <trkpt lat="49.04212" lon="3.96534">
        <ele>91.6</ele>
        <time>2020-06-30T17:55:30Z</time>
      </trkpt>
      <trkpt lat="49.04212" lon="3.96536">
        <ele>91.7</ele>
        <time>2020-06-30T17:55:31Z</time>
      </trkpt>
      <trkpt lat="49.04212" lon="3.96539">
        <ele>91.7</ele>
        <time>2020-06-30T17:55:32Z</time>
      </trkpt>
      <trkpt lat="49.04211" lon="3.96541">
        <ele>91.7</ele>
        <time>2020-06-30T17:55:33Z</time>
      </trkpt>
      <trkpt lat="49.04211" lon="3.96542">
        <ele>91.7</ele>
        <time>2020-06-30T17:55:34Z</time>
      </trkpt>
      <trkpt lat="49.0421" lon="3.96543">
        <ele>91.7</ele>
        <time>2020-06-30T17:55:35Z</time>
      </trkpt>
      <trkpt lat="49.0421" lon="3.96544">
        <ele>91.7</ele>
        <time>2020-06-30T17:55:36Z</time>
      </trkpt>
      <trkpt lat="49.04209" lon="3.96546">
        <ele>91.7</ele>
        <time>2020-06-30T17:55:37Z</time>
      </trkpt>
      <trkpt lat="49.0421" lon="3.96545">
        <ele>91.7</ele>
        <time>2020-06-30T17:55:38Z</time>
      </trkpt>
      <trkpt lat="49.04209" lon="3.96546">
        <ele>91.7</ele>
        <time>2020-06-30T17:55:39Z</time>
      </trkpt>
      <trkpt lat="49.04209" lon="3.96546">
        <ele>91.7</ele>
        <time>2020-06-30T17:55:40Z</time>
      </trkpt>
      <trkpt lat="49.04209" lon="3.96546">
        <ele>91.7</ele>
        <time>2020-06-30T17:55:41Z</time>
      </trkpt>
      <trkpt lat="49.04209" lon="3.96546">
        <ele>91.7</ele>
        <time>2020-06-30T17:55:42Z</time>
      </trkpt>
      <trkpt lat="49.0421" lon="3.96546">
        <ele>91.7</ele>
        <time>2020-06-30T17:55:43Z</time>
      </trkpt>
      <trkpt lat="49.04209" lon="3.96546">
        <ele>91.7</ele>
        <time>2020-06-30T17:55:44Z</time>
      </trkpt>
      <trkpt lat="49.04209" lon="3.96546">
        <ele>91.7</ele>
        <time>2020-06-30T17:55:45Z</time>
      </trkpt>
      <trkpt lat="49.04209" lon="3.96546">
        <ele>91.7</ele>
        <time>2020-06-30T17:55:46Z</time>
      </trkpt>
      <trkpt lat="49.04209" lon="3.96546">
        <ele>91.7</ele>
        <time>2020-06-30T17:55:47Z</time>
      </trkpt>
      <trkpt lat="49.04209" lon="3.96546">
        <ele>91.7</ele>
        <time>2020-06-30T17:55:48Z</time>
      </trkpt>
      <trkpt lat="49.04204" lon="3.9655">
        <ele>91.8</ele>
        <time>2020-06-30T17:55:56Z</time>
      </trkpt>
      <trkpt lat="49.04203" lon="3.96551">
        <ele>91.8</ele>
        <time>2020-06-30T17:55:57Z</time>
      </trkpt>
      <trkpt lat="49.04201" lon="3.96556">
        <ele>91.8</ele>
        <time>2020-06-30T17:55:58Z</time>
      </trkpt>
      <trkpt lat="49.04201" lon="3.96558">
        <ele>91.8</ele>
        <time>2020-06-30T17:55:59Z</time>
      </trkpt>
      <trkpt lat="49.04201" lon="3.96562">
        <ele>91.8</ele>
        <time>2020-06-30T17:56:00Z</time>
      </trkpt>
      <trkpt lat="49.04201" lon="3.96562">
        <ele>91.8</ele>
        <time>2020-06-30T17:56:01Z</time>
      </trkpt>
      <trkpt lat="49.042" lon="3.96566">
        <ele>91.8</ele>
        <time>2020-06-30T17:56:02Z</time>
      </trkpt>
      <trkpt lat="49.04201" lon="3.96569">
        <ele>91.8</ele>
        <time>2020-06-30T17:56:03Z</time>
      </trkpt>
      <trkpt lat="49.04202" lon="3.96569">
        <ele>91.8</ele>
        <time>2020-06-30T17:56:04Z</time>
      </trkpt>
      <trkpt lat="49.04203" lon="3.96569">
        <ele>91.8</ele>
        <time>2020-06-30T17:56:05Z</time>
      </trkpt>
      <trkpt lat="49.04204" lon="3.96567">
        <ele>91.8</ele>
        <time>2020-06-30T17:56:06Z</time>
      </trkpt>
      <trkpt lat="49.04205" lon="3.96564">
        <ele>91.8</ele>
        <time>2020-06-30T17:56:07Z</time>
      </trkpt>
      <trkpt lat="49.04206" lon="3.96564">
        <ele>91.8</ele>
        <time>2020-06-30T17:56:08Z</time>
      </trkpt>
      <trkpt lat="49.04207" lon="3.96561">
        <ele>91.8</ele>
        <time>2020-06-30T17:56:09Z</time>
      </trkpt>
      <trkpt lat="49.04207" lon="3.9656">
        <ele>91.8</ele>
        <time>2020-06-30T17:56:10Z</time>
      </trkpt>
      <trkpt lat="49.04207" lon="3.96559">
        <ele>91.8</ele>
        <time>2020-06-30T17:56:11Z</time>
      </trkpt>
      <trkpt lat="49.04208" lon="3.96558">
        <ele>91.8</ele>
        <time>2020-06-30T17:56:12Z</time>
      </trkpt>
      <trkpt lat="49.0421" lon="3.96556">
        <ele>91.8</ele>
        <time>2020-06-30T17:56:13Z</time>
      </trkpt>
      <trkpt lat="49.0421" lon="3.96555">
        <ele>91.8</ele>
        <time>2020-06-30T17:56:14Z</time>
      </trkpt>
      <trkpt lat="49.0421" lon="3.96554">
        <ele>91.8</ele>
        <time>2020-06-30T17:56:15Z</time>
      </trkpt>
      <trkpt lat="49.0421" lon="3.96555">
        <ele>91.8</ele>
        <time>2020-06-30T17:56:16Z</time>
      </trkpt>
      <trkpt lat="49.0421" lon="3.96555">
        <ele>91.8</ele>
        <time>2020-06-30T17:56:17Z</time>
      </trkpt>
      <trkpt lat="49.04209" lon="3.96556">
        <ele>91.8</ele>
        <time>2020-06-30T17:56:18Z</time>
      </trkpt>
      <trkpt lat="49.04209" lon="3.96557">
        <ele>91.8</ele>
        <time>2020-06-30T17:56:19Z</time>
      </trkpt>
      <trkpt lat="49.04208" lon="3.96557">
        <ele>91.8</ele>
        <time>2020-06-30T17:56:20Z</time>
      </trkpt>
      <trkpt lat="49.04208" lon="3.96558">
        <ele>91.8</ele>
        <time>2020-06-30T17:56:21Z</time>
      </trkpt>
      <trkpt lat="49.04208" lon="3.96559">
        <ele>91.8</ele>
        <time>2020-06-30T17:56:22Z</time>
      </trkpt>
      <trkpt lat="49.04207" lon="3.9656">
        <ele>91.8</ele>
        <time>2020-06-30T17:56:23Z</time>
      </trkpt>
      <trkpt lat="49.04207" lon="3.9656">
        <ele>91.8</ele>
        <time>2020-06-30T17:56:24Z</time>
      </trkpt>
      <trkpt lat="49.04206" lon="3.96561">
        <ele>91.8</ele>
        <time>2020-06-30T17:57:12Z</time>
      </trkpt>
      <trkpt lat="49.04206" lon="3.96562">
        <ele>91.8</ele>
        <time>2020-06-30T17:57:13Z</time>
      </trkpt>
      <trkpt lat="49.04204" lon="3.96565">
        <ele>91.8</ele>
        <time>2020-06-30T17:57:14Z</time>
      </trkpt>
      <trkpt lat="49.04202" lon="3.96568">
        <ele>91.8</ele>
        <time>2020-06-30T17:57:15Z</time>
      </trkpt>
      <trkpt lat="49.04202" lon="3.96574">
        <ele>91.8</ele>
        <time>2020-06-30T17:57:16Z</time>
      </trkpt>
      <trkpt lat="49.04202" lon="3.96576">
        <ele>91.8</ele>
        <time>2020-06-30T17:57:17Z</time>
      </trkpt>
      <trkpt lat="49.04201" lon="3.96582">
        <ele>91.8</ele>
        <time>2020-06-30T17:57:18Z</time>
      </trkpt>
      <trkpt lat="49.042" lon="3.96584">
        <ele>91.8</ele>
        <time>2020-06-30T17:57:19Z</time>
      </trkpt>
      <trkpt lat="49.04199" lon="3.96589">
        <ele>91.8</ele>
        <time>2020-06-30T17:57:20Z</time>
      </trkpt>
      <trkpt lat="49.04198" lon="3.96591">
        <ele>91.8</ele>
        <time>2020-06-30T17:57:21Z</time>
      </trkpt>
      <trkpt lat="49.04197" lon="3.96596">
        <ele>91.8</ele>
        <time>2020-06-30T17:57:22Z</time>
      </trkpt>
      <trkpt lat="49.04196" lon="3.96601">
        <ele>91.8</ele>
        <time>2020-06-30T17:57:23Z</time>
      </trkpt>
      <trkpt lat="49.04196" lon="3.96607">
        <ele>91.8</ele>
        <time>2020-06-30T17:57:24Z</time>
      </trkpt>
      <trkpt lat="49.04196" lon="3.96608">
        <ele>91.8</ele>
        <time>2020-06-30T17:57:25Z</time>
      </trkpt>
      <trkpt lat="49.04196" lon="3.96611">
        <ele>91.8</ele>
        <time>2020-06-30T17:57:26Z</time>
      </trkpt>
      <trkpt lat="49.04196" lon="3.96613">
        <ele>91.8</ele>
        <time>2020-06-30T17:57:27Z</time>
      </trkpt>
      <trkpt lat="49.04195" lon="3.96618">
        <ele>91.8</ele>
        <time>2020-06-30T17:57:28Z</time>
      </trkpt>
      <trkpt lat="49.04194" lon="3.96622">
        <ele>91.8</ele>
        <time>2020-06-30T17:57:29Z</time>
      </trkpt>
      <trkpt lat="49.04193" lon="3.96626">
        <ele>91.8</ele>
        <time>2020-06-30T17:57:30Z</time>
      </trkpt>
      <trkpt lat="49.04193" lon="3.96627">
        <ele>91.8</ele>
        <time>2020-06-30T17:57:31Z</time>
      </trkpt>
      <trkpt lat="49.04192" lon="3.9663">
        <ele>91.8</ele>
        <time>2020-06-30T17:57:32Z</time>
      </trkpt>
      <trkpt lat="49.04192" lon="3.96633">
        <ele>91.8</ele>
        <time>2020-06-30T17:57:33Z</time>
      </trkpt>
      <trkpt lat="49.04191" lon="3.96638">
        <ele>91.8</ele>
        <time>2020-06-30T17:57:34Z</time>
      </trkpt>
      <trkpt lat="49.0419" lon="3.9664">
        <ele>91.8</ele>
        <time>2020-06-30T17:57:35Z</time>
      </trkpt>
      <trkpt lat="49.04188" lon="3.96643">
        <ele>91.8</ele>
        <time>2020-06-30T17:57:36Z</time>
      </trkpt>
      <trkpt lat="49.04187" lon="3.96647">
        <ele>91.8</ele>
        <time>2020-06-30T17:57:37Z</time>
      </trkpt>
      <trkpt lat="49.04186" lon="3.96649">
        <ele>91.8</ele>
        <time>2020-06-30T17:57:38Z</time>
      </trkpt>
      <trkpt lat="49.04185" lon="3.96651">
        <ele>91.7</ele>
        <time>2020-06-30T17:57:39Z</time>
      </trkpt>
      <trkpt lat="49.04184" lon="3.96653">
        <ele>91.7</ele>
        <time>2020-06-30T17:57:40Z</time>
      </trkpt>
      <trkpt lat="49.04183" lon="3.96657">
        <ele>91.7</ele>
        <time>2020-06-30T17:57:41Z</time>
      </trkpt>
      <trkpt lat="49.04182" lon="3.96658">
        <ele>91.7</ele>
        <time>2020-06-30T17:57:42Z</time>
      </trkpt>
      <trkpt lat="49.04181" lon="3.96663">
        <ele>91.6</ele>
        <time>2020-06-30T17:57:43Z</time>
      </trkpt>
      <trkpt lat="49.04181" lon="3.96665">
        <ele>91.6</ele>
        <time>2020-06-30T17:57:44Z</time>
      </trkpt>
      <trkpt lat="49.04181" lon="3.96669">
        <ele>91.6</ele>
        <time>2020-06-30T17:57:45Z</time>
      </trkpt>
      <trkpt lat="49.0418" lon="3.96673">
        <ele>91.5</ele>
        <time>2020-06-30T17:57:46Z</time>
      </trkpt>
      <trkpt lat="49.0418" lon="3.96676">
        <ele>91.5</ele>
        <time>2020-06-30T17:57:47Z</time>
      </trkpt>
      <trkpt lat="49.04179" lon="3.9668">
        <ele>91.4</ele>
        <time>2020-06-30T17:57:48Z</time>
      </trkpt>
      <trkpt lat="49.04179" lon="3.96685">
        <ele>91.4</ele>
        <time>2020-06-30T17:57:49Z</time>
      </trkpt>
      <trkpt lat="49.04179" lon="3.96687">
        <ele>91.4</ele>
        <time>2020-06-30T17:57:50Z</time>
      </trkpt>
      <trkpt lat="49.04178" lon="3.96691">
        <ele>91.3</ele>
        <time>2020-06-30T17:57:51Z</time>
      </trkpt>
      <trkpt lat="49.04177" lon="3.96693">
        <ele>91.3</ele>
        <time>2020-06-30T17:57:52Z</time>
      </trkpt>
      <trkpt lat="49.04176" lon="3.96698">
        <ele>91.3</ele>
        <time>2020-06-30T17:57:53Z</time>
      </trkpt>
      <trkpt lat="49.04175" lon="3.967">
        <ele>91.3</ele>
        <time>2020-06-30T17:57:54Z</time>
      </trkpt>
      <trkpt lat="49.04174" lon="3.96705">
        <ele>91.2</ele>
        <time>2020-06-30T17:57:55Z</time>
      </trkpt>
      <trkpt lat="49.04173" lon="3.96711">
        <ele>91.2</ele>
        <time>2020-06-30T17:57:56Z</time>
      </trkpt>
      <trkpt lat="49.04171" lon="3.96715">
        <ele>91.2</ele>
        <time>2020-06-30T17:57:57Z</time>
      </trkpt>
      <trkpt lat="49.0417" lon="3.9672">
        <ele>91.1</ele>
        <time>2020-06-30T17:57:58Z</time>
      </trkpt>
      <trkpt lat="49.04169" lon="3.96721">
        <ele>91.1</ele>
        <time>2020-06-30T17:57:59Z</time>
      </trkpt>
      <trkpt lat="49.04168" lon="3.96726">
        <ele>91.1</ele>
        <time>2020-06-30T17:58:00Z</time>
      </trkpt>
      <trkpt lat="49.04168" lon="3.96728">
        <ele>91.1</ele>
        <time>2020-06-30T17:58:01Z</time>
      </trkpt>
      <trkpt lat="49.04167" lon="3.96732">
        <ele>91</ele>
        <time>2020-06-30T17:58:02Z</time>
      </trkpt>
      <trkpt lat="49.04166" lon="3.96737">
        <ele>90.9</ele>
        <time>2020-06-30T17:58:03Z</time>
      </trkpt>
      <trkpt lat="49.04165" lon="3.96742">
        <ele>90.8</ele>
        <time>2020-06-30T17:58:04Z</time>
      </trkpt>
      <trkpt lat="49.04164" lon="3.96747">
        <ele>90.8</ele>
        <time>2020-06-30T17:58:05Z</time>
      </trkpt>
      <trkpt lat="49.04164" lon="3.96753">
        <ele>90.7</ele>
        <time>2020-06-30T17:58:06Z</time>
      </trkpt>
      <trkpt lat="49.04162" lon="3.96758">
        <ele>90.6</ele>
        <time>2020-06-30T17:58:07Z</time>
      </trkpt>
      <trkpt lat="49.0416" lon="3.96765">
        <ele>90.4</ele>
        <time>2020-06-30T17:58:08Z</time>
      </trkpt>
      <trkpt lat="49.04159" lon="3.96771">
        <ele>90.3</ele>
        <time>2020-06-30T17:58:09Z</time>
      </trkpt>
      <trkpt lat="49.04158" lon="3.96777">
        <ele>90.2</ele>
        <time>2020-06-30T17:58:10Z</time>
      </trkpt>
      <trkpt lat="49.04157" lon="3.96782">
        <ele>90.2</ele>
        <time>2020-06-30T17:58:11Z</time>
      </trkpt>
      <trkpt lat="49.04156" lon="3.96784">
        <ele>90.1</ele>
        <time>2020-06-30T17:58:12Z</time>
      </trkpt>
      <trkpt lat="49.04155" lon="3.96789">
        <ele>90.1</ele>
        <time>2020-06-30T17:58:13Z</time>
      </trkpt>
      <trkpt lat="49.04154" lon="3.96793">
        <ele>90.1</ele>
        <time>2020-06-30T17:58:14Z</time>
      </trkpt>
      <trkpt lat="49.04153" lon="3.96798">
        <ele>90.1</ele>
        <time>2020-06-30T17:58:15Z</time>
      </trkpt>
      <trkpt lat="49.04151" lon="3.96802">
        <ele>90</ele>
        <time>2020-06-30T17:58:16Z</time>
      </trkpt>
      <trkpt lat="49.04151" lon="3.96807">
        <ele>89.9</ele>
        <time>2020-06-30T17:58:17Z</time>
      </trkpt>
      <trkpt lat="49.0415" lon="3.96812">
        <ele>89.9</ele>
        <time>2020-06-30T17:58:18Z</time>
      </trkpt>
      <trkpt lat="49.0415" lon="3.96814">
        <ele>89.8</ele>
        <time>2020-06-30T17:58:19Z</time>
      </trkpt>
      <trkpt lat="49.04151" lon="3.9682">
        <ele>89.8</ele>
        <time>2020-06-30T17:58:20Z</time>
      </trkpt>
      <trkpt lat="49.04151" lon="3.96822">
        <ele>89.7</ele>
        <time>2020-06-30T17:58:21Z</time>
      </trkpt>
      <trkpt lat="49.04151" lon="3.96827">
        <ele>89.6</ele>
        <time>2020-06-30T17:58:22Z</time>
      </trkpt>
      <trkpt lat="49.04151" lon="3.96829">
        <ele>89.6</ele>
        <time>2020-06-30T17:58:23Z</time>
      </trkpt>
      <trkpt lat="49.04152" lon="3.96833">
        <ele>89.5</ele>
        <time>2020-06-30T17:58:24Z</time>
      </trkpt>
      <trkpt lat="49.04151" lon="3.96838">
        <ele>89.4</ele>
        <time>2020-06-30T17:58:25Z</time>
      </trkpt>
      <trkpt lat="49.0415" lon="3.96843">
        <ele>89.3</ele>
        <time>2020-06-30T17:58:26Z</time>
      </trkpt>
      <trkpt lat="49.0415" lon="3.96844">
        <ele>89.3</ele>
        <time>2020-06-30T17:58:27Z</time>
      </trkpt>
      <trkpt lat="49.04149" lon="3.96846">
        <ele>89.2</ele>
        <time>2020-06-30T17:58:28Z</time>
      </trkpt>
      <trkpt lat="49.04148" lon="3.96848">
        <ele>89.2</ele>
        <time>2020-06-30T17:58:29Z</time>
      </trkpt>
      <trkpt lat="49.04147" lon="3.96849">
        <ele>89.1</ele>
        <time>2020-06-30T17:58:30Z</time>
      </trkpt>
      <trkpt lat="49.04147" lon="3.96853">
        <ele>89</ele>
        <time>2020-06-30T17:58:31Z</time>
      </trkpt>
      <trkpt lat="49.04146" lon="3.96857">
        <ele>88.9</ele>
        <time>2020-06-30T17:58:32Z</time>
      </trkpt>
      <trkpt lat="49.04146" lon="3.96859">
        <ele>88.9</ele>
        <time>2020-06-30T17:58:33Z</time>
      </trkpt>
      <trkpt lat="49.04146" lon="3.96864">
        <ele>88.8</ele>
        <time>2020-06-30T17:58:34Z</time>
      </trkpt>
      <trkpt lat="49.04144" lon="3.96868">
        <ele>88.6</ele>
        <time>2020-06-30T17:58:35Z</time>
      </trkpt>
      <trkpt lat="49.04145" lon="3.96872">
        <ele>88.5</ele>
        <time>2020-06-30T17:58:36Z</time>
      </trkpt>
      <trkpt lat="49.04145" lon="3.96872">
        <ele>88.5</ele>
        <time>2020-06-30T17:58:37Z</time>
      </trkpt>
      <trkpt lat="49.04145" lon="3.96875">
        <ele>88.5</ele>
        <time>2020-06-30T17:58:38Z</time>
      </trkpt>
      <trkpt lat="49.04145" lon="3.96877">
        <ele>88.4</ele>
        <time>2020-06-30T17:58:39Z</time>
      </trkpt>
      <trkpt lat="49.04143" lon="3.96882">
        <ele>88.3</ele>
        <time>2020-06-30T17:58:40Z</time>
      </trkpt>
      <trkpt lat="49.04142" lon="3.96884">
        <ele>88.2</ele>
        <time>2020-06-30T17:58:41Z</time>
      </trkpt>
      <trkpt lat="49.0414" lon="3.9689">
        <ele>88</ele>
        <time>2020-06-30T17:58:42Z</time>
      </trkpt>
      <trkpt lat="49.04138" lon="3.96894">
        <ele>87.9</ele>
        <time>2020-06-30T17:58:43Z</time>
      </trkpt>
      <trkpt lat="49.04137" lon="3.96899">
        <ele>87.8</ele>
        <time>2020-06-30T17:58:44Z</time>
      </trkpt>
      <trkpt lat="49.04137" lon="3.96901">
        <ele>87.7</ele>
        <time>2020-06-30T17:58:45Z</time>
      </trkpt>
      <trkpt lat="49.04136" lon="3.96905">
        <ele>87.6</ele>
        <time>2020-06-30T17:58:46Z</time>
      </trkpt>
      <trkpt lat="49.04136" lon="3.96911">
        <ele>87.5</ele>
        <time>2020-06-30T17:58:47Z</time>
      </trkpt>
      <trkpt lat="49.04136" lon="3.96913">
        <ele>87.5</ele>
        <time>2020-06-30T17:58:48Z</time>
      </trkpt>
      <trkpt lat="49.04136" lon="3.96918">
        <ele>87.4</ele>
        <time>2020-06-30T17:58:49Z</time>
      </trkpt>
      <trkpt lat="49.04134" lon="3.96924">
        <ele>87.3</ele>
        <time>2020-06-30T17:58:50Z</time>
      </trkpt>
      <trkpt lat="49.04133" lon="3.9693">
        <ele>87.2</ele>
        <time>2020-06-30T17:58:51Z</time>
      </trkpt>
      <trkpt lat="49.04132" lon="3.96932">
        <ele>87.2</ele>
        <time>2020-06-30T17:58:52Z</time>
      </trkpt>
      <trkpt lat="49.04129" lon="3.96935">
        <ele>87.2</ele>
        <time>2020-06-30T17:58:53Z</time>
      </trkpt>
      <trkpt lat="49.04128" lon="3.96935">
        <ele>87.2</ele>
        <time>2020-06-30T17:58:54Z</time>
      </trkpt>
      <trkpt lat="49.04125" lon="3.96935">
        <ele>87.2</ele>
        <time>2020-06-30T17:58:55Z</time>
      </trkpt>
      <trkpt lat="49.04124" lon="3.96936">
        <ele>87.2</ele>
        <time>2020-06-30T17:58:56Z</time>
      </trkpt>
      <trkpt lat="49.04121" lon="3.96937">
        <ele>87.3</ele>
        <time>2020-06-30T17:58:57Z</time>
      </trkpt>
      <trkpt lat="49.04118" lon="3.96939">
        <ele>87.4</ele>
        <time>2020-06-30T17:58:58Z</time>
      </trkpt>
      <trkpt lat="49.04117" lon="3.96939">
        <ele>87.4</ele>
        <time>2020-06-30T17:58:59Z</time>
      </trkpt>
      <trkpt lat="49.04114" lon="3.96941">
        <ele>87.4</ele>
        <time>2020-06-30T17:59:00Z</time>
      </trkpt>
      <trkpt lat="49.04113" lon="3.9694">
        <ele>87.4</ele>
        <time>2020-06-30T17:59:01Z</time>
      </trkpt>
      <trkpt lat="49.04111" lon="3.96941">
        <ele>87.4</ele>
        <time>2020-06-30T17:59:02Z</time>
      </trkpt>
      <trkpt lat="49.04109" lon="3.96942">
        <ele>87.4</ele>
        <time>2020-06-30T17:59:03Z</time>
      </trkpt>
      <trkpt lat="49.04109" lon="3.96943">
        <ele>87.4</ele>
        <time>2020-06-30T17:59:04Z</time>
      </trkpt>
      <trkpt lat="49.04108" lon="3.96944">
        <ele>87.4</ele>
        <time>2020-06-30T17:59:05Z</time>
      </trkpt>
      <trkpt lat="49.04107" lon="3.96946">
        <ele>87.4</ele>
        <time>2020-06-30T17:59:06Z</time>
      </trkpt>
      <trkpt lat="49.04106" lon="3.96948">
        <ele>87.4</ele>
        <time>2020-06-30T17:59:07Z</time>
      </trkpt>
      <trkpt lat="49.04106" lon="3.96953">
        <ele>87.4</ele>
        <time>2020-06-30T17:59:08Z</time>
      </trkpt>
      <trkpt lat="49.04106" lon="3.96955">
        <ele>87.5</ele>
        <time>2020-06-30T17:59:09Z</time>
      </trkpt>
      <trkpt lat="49.04107" lon="3.96959">
        <ele>87.4</ele>
        <time>2020-06-30T17:59:10Z</time>
      </trkpt>
      <trkpt lat="49.04107" lon="3.96963">
        <ele>87.3</ele>
        <time>2020-06-30T17:59:11Z</time>
      </trkpt>
      <trkpt lat="49.04108" lon="3.96968">
        <ele>87.3</ele>
        <time>2020-06-30T17:59:12Z</time>
      </trkpt>
      <trkpt lat="49.04109" lon="3.96972">
        <ele>87.2</ele>
        <time>2020-06-30T17:59:13Z</time>
      </trkpt>
      <trkpt lat="49.04109" lon="3.96976">
        <ele>87.1</ele>
        <time>2020-06-30T17:59:14Z</time>
      </trkpt>
      <trkpt lat="49.0411" lon="3.96981">
        <ele>87.1</ele>
        <time>2020-06-30T17:59:15Z</time>
      </trkpt>
      <trkpt lat="49.04111" lon="3.96983">
        <ele>87</ele>
        <time>2020-06-30T17:59:16Z</time>
      </trkpt>
      <trkpt lat="49.04112" lon="3.96988">
        <ele>87</ele>
        <time>2020-06-30T17:59:17Z</time>
      </trkpt>
      <trkpt lat="49.04112" lon="3.96989">
        <ele>87</ele>
        <time>2020-06-30T17:59:18Z</time>
      </trkpt>
      <trkpt lat="49.04114" lon="3.96991">
        <ele>86.9</ele>
        <time>2020-06-30T17:59:19Z</time>
      </trkpt>
      <trkpt lat="49.04116" lon="3.96992">
        <ele>86.8</ele>
        <time>2020-06-30T17:59:20Z</time>
      </trkpt>
      <trkpt lat="49.04117" lon="3.96996">
        <ele>86.8</ele>
        <time>2020-06-30T17:59:21Z</time>
      </trkpt>
      <trkpt lat="49.04119" lon="3.97">
        <ele>86.7</ele>
        <time>2020-06-30T17:59:22Z</time>
      </trkpt>
      <trkpt lat="49.04119" lon="3.97002">
        <ele>86.7</ele>
        <time>2020-06-30T17:59:23Z</time>
      </trkpt>
      <trkpt lat="49.04119" lon="3.97006">
        <ele>86.7</ele>
        <time>2020-06-30T17:59:24Z</time>
      </trkpt>
      <trkpt lat="49.04119" lon="3.9701">
        <ele>86.6</ele>
        <time>2020-06-30T17:59:25Z</time>
      </trkpt>
      <trkpt lat="49.04118" lon="3.97015">
        <ele>86.6</ele>
        <time>2020-06-30T17:59:26Z</time>
      </trkpt>
      <trkpt lat="49.04117" lon="3.9702">
        <ele>86.6</ele>
        <time>2020-06-30T17:59:27Z</time>
      </trkpt>
      <trkpt lat="49.04114" lon="3.97025">
        <ele>86.6</ele>
        <time>2020-06-30T17:59:28Z</time>
      </trkpt>
      <trkpt lat="49.04113" lon="3.9703">
        <ele>86.7</ele>
        <time>2020-06-30T17:59:29Z</time>
      </trkpt>
      <trkpt lat="49.04112" lon="3.97035">
        <ele>86.7</ele>
        <time>2020-06-30T17:59:30Z</time>
      </trkpt>
      <trkpt lat="49.04111" lon="3.97041">
        <ele>86.8</ele>
        <time>2020-06-30T17:59:31Z</time>
      </trkpt>
      <trkpt lat="49.0411" lon="3.97043">
        <ele>86.9</ele>
        <time>2020-06-30T17:59:32Z</time>
      </trkpt>
      <trkpt lat="49.04108" lon="3.97048">
        <ele>87</ele>
        <time>2020-06-30T17:59:33Z</time>
      </trkpt>
      <trkpt lat="49.04107" lon="3.9705">
        <ele>87.1</ele>
        <time>2020-06-30T17:59:34Z</time>
      </trkpt>
      <trkpt lat="49.04107" lon="3.97054">
        <ele>87.2</ele>
        <time>2020-06-30T17:59:35Z</time>
      </trkpt>
      <trkpt lat="49.04106" lon="3.97059">
        <ele>87.3</ele>
        <time>2020-06-30T17:59:36Z</time>
      </trkpt>
      <trkpt lat="49.04105" lon="3.97063">
        <ele>87.5</ele>
        <time>2020-06-30T17:59:37Z</time>
      </trkpt>
      <trkpt lat="49.04106" lon="3.97067">
        <ele>87.6</ele>
        <time>2020-06-30T17:59:38Z</time>
      </trkpt>
      <trkpt lat="49.04106" lon="3.97072">
        <ele>87.8</ele>
        <time>2020-06-30T17:59:39Z</time>
      </trkpt>
      <trkpt lat="49.04104" lon="3.97077">
        <ele>88</ele>
        <time>2020-06-30T17:59:40Z</time>
      </trkpt>
      <trkpt lat="49.04104" lon="3.97081">
        <ele>88.2</ele>
        <time>2020-06-30T17:59:41Z</time>
      </trkpt>
      <trkpt lat="49.04104" lon="3.97087">
        <ele>88.4</ele>
        <time>2020-06-30T17:59:42Z</time>
      </trkpt>
      <trkpt lat="49.04102" lon="3.97092">
        <ele>88.6</ele>
        <time>2020-06-30T17:59:43Z</time>
      </trkpt>
      <trkpt lat="49.04101" lon="3.97095">
        <ele>88.7</ele>
        <time>2020-06-30T17:59:44Z</time>
      </trkpt>
      <trkpt lat="49.041" lon="3.971">
        <ele>88.9</ele>
        <time>2020-06-30T17:59:45Z</time>
      </trkpt>
      <trkpt lat="49.041" lon="3.97102">
        <ele>89</ele>
        <time>2020-06-30T17:59:46Z</time>
      </trkpt>
      <trkpt lat="49.04099" lon="3.97108">
        <ele>89.2</ele>
        <time>2020-06-30T17:59:47Z</time>
      </trkpt>
      <trkpt lat="49.04099" lon="3.9711">
        <ele>89.3</ele>
        <time>2020-06-30T17:59:48Z</time>
      </trkpt>
      <trkpt lat="49.04098" lon="3.97115">
        <ele>89.4</ele>
        <time>2020-06-30T17:59:49Z</time>
      </trkpt>
      <trkpt lat="49.04097" lon="3.9712">
        <ele>89.6</ele>
        <time>2020-06-30T17:59:50Z</time>
      </trkpt>
      <trkpt lat="49.04096" lon="3.97122">
        <ele>89.7</ele>
        <time>2020-06-30T17:59:51Z</time>
      </trkpt>
      <trkpt lat="49.04097" lon="3.97126">
        <ele>89.8</ele>
        <time>2020-06-30T17:59:52Z</time>
      </trkpt>
      <trkpt lat="49.04095" lon="3.97132">
        <ele>90</ele>
        <time>2020-06-30T17:59:53Z</time>
      </trkpt>
      <trkpt lat="49.04095" lon="3.97133">
        <ele>90</ele>
        <time>2020-06-30T17:59:54Z</time>
      </trkpt>
      <trkpt lat="49.04093" lon="3.97137">
        <ele>90.1</ele>
        <time>2020-06-30T17:59:55Z</time>
      </trkpt>
      <trkpt lat="49.04091" lon="3.97142">
        <ele>90.2</ele>
        <time>2020-06-30T17:59:56Z</time>
      </trkpt>
      <trkpt lat="49.0409" lon="3.97143">
        <ele>90.2</ele>
        <time>2020-06-30T17:59:57Z</time>
      </trkpt>
      <trkpt lat="49.04089" lon="3.97148">
        <ele>90.3</ele>
        <time>2020-06-30T17:59:58Z</time>
      </trkpt>
      <trkpt lat="49.04088" lon="3.97149">
        <ele>90.3</ele>
        <time>2020-06-30T17:59:59Z</time>
      </trkpt>
      <trkpt lat="49.04088" lon="3.97156">
        <ele>90.4</ele>
        <time>2020-06-30T18:00:00Z</time>
      </trkpt>
      <trkpt lat="49.04087" lon="3.97159">
        <ele>90.5</ele>
        <time>2020-06-30T18:00:01Z</time>
      </trkpt>
      <trkpt lat="49.04086" lon="3.97161">
        <ele>90.5</ele>
        <time>2020-06-30T18:00:02Z</time>
      </trkpt>
      <trkpt lat="49.04086" lon="3.97163">
        <ele>90.5</ele>
        <time>2020-06-30T18:00:03Z</time>
      </trkpt>
      <trkpt lat="49.04085" lon="3.97165">
        <ele>90.6</ele>
        <time>2020-06-30T18:00:04Z</time>
      </trkpt>
      <trkpt lat="49.04084" lon="3.97167">
        <ele>90.6</ele>
        <time>2020-06-30T18:00:05Z</time>
      </trkpt>
      <trkpt lat="49.04084" lon="3.97169">
        <ele>90.6</ele>
        <time>2020-06-30T18:00:06Z</time>
      </trkpt>
      <trkpt lat="49.04083" lon="3.9717">
        <ele>90.6</ele>
        <time>2020-06-30T18:00:07Z</time>
      </trkpt>
      <trkpt lat="49.04081" lon="3.9717">
        <ele>90.5</ele>
        <time>2020-06-30T18:00:08Z</time>
      </trkpt>
      <trkpt lat="49.0408" lon="3.97171">
        <ele>90.5</ele>
        <time>2020-06-30T18:00:09Z</time>
      </trkpt>
      <trkpt lat="49.0408" lon="3.97173">
        <ele>90.5</ele>
        <time>2020-06-30T18:00:10Z</time>
      </trkpt>
      <trkpt lat="49.0408" lon="3.97172">
        <ele>90.5</ele>
        <time>2020-06-30T18:00:11Z</time>
      </trkpt>
      <trkpt lat="49.04081" lon="3.97172">
        <ele>90.5</ele>
        <time>2020-06-30T18:00:12Z</time>
      </trkpt>
      <trkpt lat="49.04082" lon="3.9717">
        <ele>90.4</ele>
        <time>2020-06-30T18:00:13Z</time>
      </trkpt>
      <trkpt lat="49.04083" lon="3.97166">
        <ele>90.4</ele>
        <time>2020-06-30T18:00:14Z</time>
      </trkpt>
      <trkpt lat="49.04083" lon="3.97165">
        <ele>90.4</ele>
        <time>2020-06-30T18:00:15Z</time>
      </trkpt>
      <trkpt lat="49.04084" lon="3.97166">
        <ele>90.4</ele>
        <time>2020-06-30T18:00:16Z</time>
      </trkpt>
      <trkpt lat="49.04085" lon="3.97166">
        <ele>90.3</ele>
        <time>2020-06-30T18:00:17Z</time>
      </trkpt>
      <trkpt lat="49.04085" lon="3.97167">
        <ele>90.3</ele>
        <time>2020-06-30T18:00:18Z</time>
      </trkpt>
      <trkpt lat="49.04085" lon="3.97166">
        <ele>90.3</ele>
        <time>2020-06-30T18:00:19Z</time>
      </trkpt>
      <trkpt lat="49.04086" lon="3.97165">
        <ele>90.3</ele>
        <time>2020-06-30T18:00:20Z</time>
      </trkpt>
      <trkpt lat="49.04086" lon="3.97163">
        <ele>90.2</ele>
        <time>2020-06-30T18:00:21Z</time>
      </trkpt>
      <trkpt lat="49.04086" lon="3.97162">
        <ele>90.2</ele>
        <time>2020-06-30T18:00:22Z</time>
      </trkpt>
      <trkpt lat="49.04087" lon="3.97161">
        <ele>90.2</ele>
        <time>2020-06-30T18:00:23Z</time>
      </trkpt>
      <trkpt lat="49.04087" lon="3.97159">
        <ele>90.2</ele>
        <time>2020-06-30T18:00:24Z</time>
      </trkpt>
      <trkpt lat="49.04087" lon="3.97158">
        <ele>90.2</ele>
        <time>2020-06-30T18:00:25Z</time>
      </trkpt>
      <trkpt lat="49.04088" lon="3.97156">
        <ele>90.1</ele>
        <time>2020-06-30T18:00:26Z</time>
      </trkpt>
      <trkpt lat="49.04088" lon="3.97155">
        <ele>90.1</ele>
        <time>2020-06-30T18:00:27Z</time>
      </trkpt>
      <trkpt lat="49.04088" lon="3.97154">
        <ele>90.1</ele>
        <time>2020-06-30T18:02:03Z</time>
      </trkpt>
      <trkpt lat="49.04089" lon="3.97152">
        <ele>90</ele>
        <time>2020-06-30T18:02:04Z</time>
      </trkpt>
      <trkpt lat="49.0409" lon="3.97148">
        <ele>90</ele>
        <time>2020-06-30T18:02:05Z</time>
      </trkpt>
      <trkpt lat="49.04092" lon="3.97144">
        <ele>89.8</ele>
        <time>2020-06-30T18:02:06Z</time>
      </trkpt>
      <trkpt lat="49.04093" lon="3.97139">
        <ele>89.7</ele>
        <time>2020-06-30T18:02:07Z</time>
      </trkpt>
      <trkpt lat="49.04095" lon="3.97134">
        <ele>89.6</ele>
        <time>2020-06-30T18:02:08Z</time>
      </trkpt>
      <trkpt lat="49.04098" lon="3.97129">
        <ele>89.4</ele>
        <time>2020-06-30T18:02:09Z</time>
      </trkpt>
      <trkpt lat="49.041" lon="3.97124">
        <ele>89.2</ele>
        <time>2020-06-30T18:02:10Z</time>
      </trkpt>
      <trkpt lat="49.04101" lon="3.97118">
        <ele>89</ele>
        <time>2020-06-30T18:02:11Z</time>
      </trkpt>
      <trkpt lat="49.04103" lon="3.97113">
        <ele>88.9</ele>
        <time>2020-06-30T18:02:12Z</time>
      </trkpt>
      <trkpt lat="49.04104" lon="3.97107">
        <ele>88.6</ele>
        <time>2020-06-30T18:02:13Z</time>
      </trkpt>
      <trkpt lat="49.04105" lon="3.97101">
        <ele>88.4</ele>
        <time>2020-06-30T18:02:14Z</time>
      </trkpt>
      <trkpt lat="49.04106" lon="3.97095">
        <ele>88.2</ele>
        <time>2020-06-30T18:02:15Z</time>
      </trkpt>
      <trkpt lat="49.04107" lon="3.97089">
        <ele>88</ele>
        <time>2020-06-30T18:02:16Z</time>
      </trkpt>
      <trkpt lat="49.04108" lon="3.97084">
        <ele>87.9</ele>
        <time>2020-06-30T18:02:17Z</time>
      </trkpt>
      <trkpt lat="49.04108" lon="3.97077">
        <ele>87.7</ele>
        <time>2020-06-30T18:02:18Z</time>
      </trkpt>
      <trkpt lat="49.0411" lon="3.97071">
        <ele>87.5</ele>
        <time>2020-06-30T18:02:19Z</time>
      </trkpt>
      <trkpt lat="49.04112" lon="3.97063">
        <ele>87.2</ele>
        <time>2020-06-30T18:02:20Z</time>
      </trkpt>
      <trkpt lat="49.04114" lon="3.97056">
        <ele>87</ele>
        <time>2020-06-30T18:02:21Z</time>
      </trkpt>
      <trkpt lat="49.04117" lon="3.97048">
        <ele>86.9</ele>
        <time>2020-06-30T18:02:22Z</time>
      </trkpt>
      <trkpt lat="49.04118" lon="3.97041">
        <ele>86.8</ele>
        <time>2020-06-30T18:02:23Z</time>
      </trkpt>
      <trkpt lat="49.0412" lon="3.97034">
        <ele>86.7</ele>
        <time>2020-06-30T18:02:24Z</time>
      </trkpt>
      <trkpt lat="49.0412" lon="3.97027">
        <ele>86.6</ele>
        <time>2020-06-30T18:02:25Z</time>
      </trkpt>
      <trkpt lat="49.04121" lon="3.97021">
        <ele>86.6</ele>
        <time>2020-06-30T18:02:26Z</time>
      </trkpt>
      <trkpt lat="49.04122" lon="3.97016">
        <ele>86.6</ele>
        <time>2020-06-30T18:02:27Z</time>
      </trkpt>
      <trkpt lat="49.04123" lon="3.97012">
        <ele>86.5</ele>
        <time>2020-06-30T18:02:28Z</time>
      </trkpt>
      <trkpt lat="49.04123" lon="3.97007">
        <ele>86.5</ele>
        <time>2020-06-30T18:02:29Z</time>
      </trkpt>
      <trkpt lat="49.04123" lon="3.97004">
        <ele>86.5</ele>
        <time>2020-06-30T18:02:30Z</time>
      </trkpt>
      <trkpt lat="49.04123" lon="3.97003">
        <ele>86.5</ele>
        <time>2020-06-30T18:02:31Z</time>
      </trkpt>
      <trkpt lat="49.04124" lon="3.97002">
        <ele>86.5</ele>
        <time>2020-06-30T18:02:32Z</time>
      </trkpt>
      <trkpt lat="49.04124" lon="3.97002">
        <ele>86.5</ele>
        <time>2020-06-30T18:02:33Z</time>
      </trkpt>
      <trkpt lat="49.04125" lon="3.97002">
        <ele>86.5</ele>
        <time>2020-06-30T18:02:34Z</time>
      </trkpt>
      <trkpt lat="49.04126" lon="3.97002">
        <ele>86.5</ele>
        <time>2020-06-30T18:02:35Z</time>
      </trkpt>
      <trkpt lat="49.04127" lon="3.97001">
        <ele>86.5</ele>
        <time>2020-06-30T18:02:36Z</time>
      </trkpt>
      <trkpt lat="49.04128" lon="3.97001">
        <ele>86.5</ele>
        <time>2020-06-30T18:02:37Z</time>
      </trkpt>
      <trkpt lat="49.04129" lon="3.97001">
        <ele>86.5</ele>
        <time>2020-06-30T18:02:38Z</time>
      </trkpt>
      <trkpt lat="49.0413" lon="3.97001">
        <ele>86.5</ele>
        <time>2020-06-30T18:02:39Z</time>
      </trkpt>
      <trkpt lat="49.0413" lon="3.97001">
        <ele>86.5</ele>
        <time>2020-06-30T18:02:40Z</time>
      </trkpt>
      <trkpt lat="49.04131" lon="3.97">
        <ele>86.5</ele>
        <time>2020-06-30T18:02:41Z</time>
      </trkpt>
      <trkpt lat="49.04132" lon="3.97">
        <ele>86.4</ele>
        <time>2020-06-30T18:02:42Z</time>
      </trkpt>
      <trkpt lat="49.04133" lon="3.97">
        <ele>86.4</ele>
        <time>2020-06-30T18:03:13Z</time>
      </trkpt>
      <trkpt lat="49.04134" lon="3.97">
        <ele>86.4</ele>
        <time>2020-06-30T18:03:14Z</time>
      </trkpt>
      <trkpt lat="49.04136" lon="3.96997">
        <ele>86.4</ele>
        <time>2020-06-30T18:03:15Z</time>
      </trkpt>
      <trkpt lat="49.04137" lon="3.96996">
        <ele>86.4</ele>
        <time>2020-06-30T18:03:16Z</time>
      </trkpt>
      <trkpt lat="49.0414" lon="3.96992">
        <ele>86.4</ele>
        <time>2020-06-30T18:03:17Z</time>
      </trkpt>
      <trkpt lat="49.04141" lon="3.9699">
        <ele>86.4</ele>
        <time>2020-06-30T18:03:18Z</time>
      </trkpt>
      <trkpt lat="49.04144" lon="3.96986">
        <ele>86.3</ele>
        <time>2020-06-30T18:03:19Z</time>
      </trkpt>
      <trkpt lat="49.04145" lon="3.96984">
        <ele>86.3</ele>
        <time>2020-06-30T18:03:20Z</time>
      </trkpt>
      <trkpt lat="49.04147" lon="3.9698">
        <ele>86.3</ele>
        <time>2020-06-30T18:03:21Z</time>
      </trkpt>
      <trkpt lat="49.04148" lon="3.96979">
        <ele>86.3</ele>
        <time>2020-06-30T18:03:22Z</time>
      </trkpt>
      <trkpt lat="49.04151" lon="3.96975">
        <ele>86.2</ele>
        <time>2020-06-30T18:03:23Z</time>
      </trkpt>
      <trkpt lat="49.04152" lon="3.96974">
        <ele>86.2</ele>
        <time>2020-06-30T18:03:24Z</time>
      </trkpt>
      <trkpt lat="49.04156" lon="3.96973">
        <ele>86</ele>
        <time>2020-06-30T18:03:25Z</time>
      </trkpt>
      <trkpt lat="49.04161" lon="3.96972">
        <ele>85.8</ele>
        <time>2020-06-30T18:03:26Z</time>
      </trkpt>
      <trkpt lat="49.04165" lon="3.96971">
        <ele>85.6</ele>
        <time>2020-06-30T18:03:27Z</time>
      </trkpt>
      <trkpt lat="49.04169" lon="3.9697">
        <ele>85.4</ele>
        <time>2020-06-30T18:03:28Z</time>
      </trkpt>
      <trkpt lat="49.04173" lon="3.96969">
        <ele>85.2</ele>
        <time>2020-06-30T18:03:29Z</time>
      </trkpt>
      <trkpt lat="49.04176" lon="3.9697">
        <ele>85.1</ele>
        <time>2020-06-30T18:03:30Z</time>
      </trkpt>
      <trkpt lat="49.04179" lon="3.9697">
        <ele>84.9</ele>
        <time>2020-06-30T18:03:31Z</time>
      </trkpt>
      <trkpt lat="49.04183" lon="3.96968">
        <ele>84.7</ele>
        <time>2020-06-30T18:03:32Z</time>
      </trkpt>
      <trkpt lat="49.04187" lon="3.96966">
        <ele>84.4</ele>
        <time>2020-06-30T18:03:33Z</time>
      </trkpt>
      <trkpt lat="49.04191" lon="3.96963">
        <ele>84.2</ele>
        <time>2020-06-30T18:03:34Z</time>
      </trkpt>
      <trkpt lat="49.04195" lon="3.96961">
        <ele>83.9</ele>
        <time>2020-06-30T18:03:35Z</time>
      </trkpt>
      <trkpt lat="49.04199" lon="3.96959">
        <ele>83.7</ele>
        <time>2020-06-30T18:03:36Z</time>
      </trkpt>
      <trkpt lat="49.04202" lon="3.96957">
        <ele>83.4</ele>
        <time>2020-06-30T18:03:37Z</time>
      </trkpt>
      <trkpt lat="49.04205" lon="3.96952">
        <ele>83.4</ele>
        <time>2020-06-30T18:03:38Z</time>
      </trkpt>
      <trkpt lat="49.04208" lon="3.96947">
        <ele>83.1</ele>
        <time>2020-06-30T18:03:39Z</time>
      </trkpt>
      <trkpt lat="49.04212" lon="3.96941">
        <ele>82.7</ele>
        <time>2020-06-30T18:03:40Z</time>
      </trkpt>
      <trkpt lat="49.04216" lon="3.96937">
        <ele>82.4</ele>
        <time>2020-06-30T18:03:41Z</time>
      </trkpt>
      <trkpt lat="49.0422" lon="3.96931">
        <ele>82.1</ele>
        <time>2020-06-30T18:03:42Z</time>
      </trkpt>
      <trkpt lat="49.04224" lon="3.96924">
        <ele>81.8</ele>
        <time>2020-06-30T18:03:43Z</time>
      </trkpt>
      <trkpt lat="49.04228" lon="3.96916">
        <ele>81.5</ele>
        <time>2020-06-30T18:03:44Z</time>
      </trkpt>
      <trkpt lat="49.04232" lon="3.9691">
        <ele>81.3</ele>
        <time>2020-06-30T18:03:45Z</time>
      </trkpt>
      <trkpt lat="49.04235" lon="3.96902">
        <ele>81.1</ele>
        <time>2020-06-30T18:03:46Z</time>
      </trkpt>
      <trkpt lat="49.04238" lon="3.96895">
        <ele>80.9</ele>
        <time>2020-06-30T18:03:47Z</time>
      </trkpt>
      <trkpt lat="49.04241" lon="3.96889">
        <ele>80.7</ele>
        <time>2020-06-30T18:03:48Z</time>
      </trkpt>
      <trkpt lat="49.04244" lon="3.96883">
        <ele>80.5</ele>
        <time>2020-06-30T18:03:49Z</time>
      </trkpt>
      <trkpt lat="49.04246" lon="3.96878">
        <ele>80.4</ele>
        <time>2020-06-30T18:03:50Z</time>
      </trkpt>
      <trkpt lat="49.04247" lon="3.96872">
        <ele>80.2</ele>
        <time>2020-06-30T18:03:51Z</time>
      </trkpt>
      <trkpt lat="49.04249" lon="3.96865">
        <ele>80.1</ele>
        <time>2020-06-30T18:03:52Z</time>
      </trkpt>
      <trkpt lat="49.04251" lon="3.96859">
        <ele>79.9</ele>
        <time>2020-06-30T18:03:53Z</time>
      </trkpt>
      <trkpt lat="49.04254" lon="3.96852">
        <ele>79.7</ele>
        <time>2020-06-30T18:03:54Z</time>
      </trkpt>
      <trkpt lat="49.04256" lon="3.96845">
        <ele>79.5</ele>
        <time>2020-06-30T18:03:55Z</time>
      </trkpt>
      <trkpt lat="49.04259" lon="3.96839">
        <ele>79.3</ele>
        <time>2020-06-30T18:03:56Z</time>
      </trkpt>
      <trkpt lat="49.04263" lon="3.96837">
        <ele>79.1</ele>
        <time>2020-06-30T18:03:57Z</time>
      </trkpt>
      <trkpt lat="49.04267" lon="3.96836">
        <ele>79</ele>
        <time>2020-06-30T18:03:58Z</time>
      </trkpt>
      <trkpt lat="49.0427" lon="3.96834">
        <ele>78.8</ele>
        <time>2020-06-30T18:03:59Z</time>
      </trkpt>
      <trkpt lat="49.04274" lon="3.96832">
        <ele>78.6</ele>
        <time>2020-06-30T18:04:00Z</time>
      </trkpt>
      <trkpt lat="49.04279" lon="3.96832">
        <ele>78.3</ele>
        <time>2020-06-30T18:04:01Z</time>
      </trkpt>
      <trkpt lat="49.04284" lon="3.96836">
        <ele>77.9</ele>
        <time>2020-06-30T18:04:02Z</time>
      </trkpt>
      <trkpt lat="49.0429" lon="3.9684">
        <ele>77.4</ele>
        <time>2020-06-30T18:04:03Z</time>
      </trkpt>
      <trkpt lat="49.04297" lon="3.9684">
        <ele>76.9</ele>
        <time>2020-06-30T18:04:04Z</time>
      </trkpt>
      <trkpt lat="49.04303" lon="3.96841">
        <ele>76</ele>
        <time>2020-06-30T18:04:05Z</time>
      </trkpt>
      <trkpt lat="49.04308" lon="3.96838">
        <ele>75.7</ele>
        <time>2020-06-30T18:04:06Z</time>
      </trkpt>
      <trkpt lat="49.04315" lon="3.96835">
        <ele>75.4</ele>
        <time>2020-06-30T18:04:07Z</time>
      </trkpt>
      <trkpt lat="49.04321" lon="3.96831">
        <ele>75.1</ele>
        <time>2020-06-30T18:04:08Z</time>
      </trkpt>
      <trkpt lat="49.04326" lon="3.96825">
        <ele>75</ele>
        <time>2020-06-30T18:04:09Z</time>
      </trkpt>
      <trkpt lat="49.04331" lon="3.96818">
        <ele>74.8</ele>
        <time>2020-06-30T18:04:10Z</time>
      </trkpt>
      <trkpt lat="49.04335" lon="3.96807">
        <ele>74.6</ele>
        <time>2020-06-30T18:04:11Z</time>
      </trkpt>
      <trkpt lat="49.04338" lon="3.96797">
        <ele>74.4</ele>
        <time>2020-06-30T18:04:12Z</time>
      </trkpt>
      <trkpt lat="49.04341" lon="3.96788">
        <ele>74.2</ele>
        <time>2020-06-30T18:04:13Z</time>
      </trkpt>
      <trkpt lat="49.04344" lon="3.96779">
        <ele>74.1</ele>
        <time>2020-06-30T18:04:14Z</time>
      </trkpt>
      <trkpt lat="49.04348" lon="3.9677">
        <ele>73.9</ele>
        <time>2020-06-30T18:04:15Z</time>
      </trkpt>
      <trkpt lat="49.04351" lon="3.96761">
        <ele>73.8</ele>
        <time>2020-06-30T18:04:16Z</time>
      </trkpt>
      <trkpt lat="49.04354" lon="3.96752">
        <ele>73.7</ele>
        <time>2020-06-30T18:04:17Z</time>
      </trkpt>
      <trkpt lat="49.04358" lon="3.96743">
        <ele>73.6</ele>
        <time>2020-06-30T18:04:18Z</time>
      </trkpt>
      <trkpt lat="49.04361" lon="3.96733">
        <ele>73.4</ele>
        <time>2020-06-30T18:04:19Z</time>
      </trkpt>
      <trkpt lat="49.04364" lon="3.96724">
        <ele>73.3</ele>
        <time>2020-06-30T18:04:20Z</time>
      </trkpt>
      <trkpt lat="49.04367" lon="3.96716">
        <ele>73.2</ele>
        <time>2020-06-30T18:04:21Z</time>
      </trkpt>
      <trkpt lat="49.0437" lon="3.96708">
        <ele>73</ele>
        <time>2020-06-30T18:04:22Z</time>
      </trkpt>
      <trkpt lat="49.04373" lon="3.96699">
        <ele>72.9</ele>
        <time>2020-06-30T18:04:23Z</time>
      </trkpt>
      <trkpt lat="49.04377" lon="3.96691">
        <ele>72.8</ele>
        <time>2020-06-30T18:04:24Z</time>
      </trkpt>
      <trkpt lat="49.0438" lon="3.96682">
        <ele>72.7</ele>
        <time>2020-06-30T18:04:25Z</time>
      </trkpt>
      <trkpt lat="49.04383" lon="3.96674">
        <ele>72.6</ele>
        <time>2020-06-30T18:04:26Z</time>
      </trkpt>
      <trkpt lat="49.04386" lon="3.96666">
        <ele>72.5</ele>
        <time>2020-06-30T18:04:27Z</time>
      </trkpt>
      <trkpt lat="49.04389" lon="3.96657">
        <ele>72.4</ele>
        <time>2020-06-30T18:04:28Z</time>
      </trkpt>
      <trkpt lat="49.04392" lon="3.96648">
        <ele>72.2</ele>
        <time>2020-06-30T18:04:29Z</time>
      </trkpt>
      <trkpt lat="49.04395" lon="3.9664">
        <ele>72.1</ele>
        <time>2020-06-30T18:04:30Z</time>
      </trkpt>
      <trkpt lat="49.04398" lon="3.96632">
        <ele>72.1</ele>
        <time>2020-06-30T18:04:31Z</time>
      </trkpt>
      <trkpt lat="49.04401" lon="3.96624">
        <ele>72</ele>
        <time>2020-06-30T18:04:32Z</time>
      </trkpt>
      <trkpt lat="49.04404" lon="3.96618">
        <ele>72</ele>
        <time>2020-06-30T18:04:33Z</time>
      </trkpt>
      <trkpt lat="49.04406" lon="3.96611">
        <ele>71.9</ele>
        <time>2020-06-30T18:04:34Z</time>
      </trkpt>
      <trkpt lat="49.04409" lon="3.96604">
        <ele>71.9</ele>
        <time>2020-06-30T18:04:35Z</time>
      </trkpt>
      <trkpt lat="49.04411" lon="3.96598">
        <ele>71.9</ele>
        <time>2020-06-30T18:04:36Z</time>
      </trkpt>
      <trkpt lat="49.04416" lon="3.96591">
        <ele>71.9</ele>
        <time>2020-06-30T18:04:37Z</time>
      </trkpt>
      <trkpt lat="49.04417" lon="3.96584">
        <ele>71.9</ele>
        <time>2020-06-30T18:04:38Z</time>
      </trkpt>
      <trkpt lat="49.04419" lon="3.96577">
        <ele>72</ele>
        <time>2020-06-30T18:04:39Z</time>
      </trkpt>
      <trkpt lat="49.0442" lon="3.9657">
        <ele>72</ele>
        <time>2020-06-30T18:04:40Z</time>
      </trkpt>
      <trkpt lat="49.04423" lon="3.96564">
        <ele>72</ele>
        <time>2020-06-30T18:04:41Z</time>
      </trkpt>
      <trkpt lat="49.04424" lon="3.96558">
        <ele>72</ele>
        <time>2020-06-30T18:04:42Z</time>
      </trkpt>
      <trkpt lat="49.04426" lon="3.96552">
        <ele>72.1</ele>
        <time>2020-06-30T18:04:43Z</time>
      </trkpt>
      <trkpt lat="49.04428" lon="3.96545">
        <ele>72.1</ele>
        <time>2020-06-30T18:04:44Z</time>
      </trkpt>
      <trkpt lat="49.04429" lon="3.9654">
        <ele>72.1</ele>
        <time>2020-06-30T18:04:45Z</time>
      </trkpt>
      <trkpt lat="49.0443" lon="3.96536">
        <ele>72.1</ele>
        <time>2020-06-30T18:04:46Z</time>
      </trkpt>
      <trkpt lat="49.04431" lon="3.96531">
        <ele>72.1</ele>
        <time>2020-06-30T18:04:47Z</time>
      </trkpt>
      <trkpt lat="49.04432" lon="3.96526">
        <ele>72.1</ele>
        <time>2020-06-30T18:04:48Z</time>
      </trkpt>
      <trkpt lat="49.04433" lon="3.96521">
        <ele>72.1</ele>
        <time>2020-06-30T18:04:49Z</time>
      </trkpt>
      <trkpt lat="49.04435" lon="3.96515">
        <ele>72.1</ele>
        <time>2020-06-30T18:04:50Z</time>
      </trkpt>
      <trkpt lat="49.04437" lon="3.96505">
        <ele>72.2</ele>
        <time>2020-06-30T18:04:51Z</time>
      </trkpt>
      <trkpt lat="49.04439" lon="3.96499">
        <ele>72.2</ele>
        <time>2020-06-30T18:04:52Z</time>
      </trkpt>
      <trkpt lat="49.04442" lon="3.96493">
        <ele>72.2</ele>
        <time>2020-06-30T18:04:53Z</time>
      </trkpt>
      <trkpt lat="49.04444" lon="3.96487">
        <ele>72.2</ele>
        <time>2020-06-30T18:04:54Z</time>
      </trkpt>
      <trkpt lat="49.04446" lon="3.96482">
        <ele>72.2</ele>
        <time>2020-06-30T18:04:55Z</time>
      </trkpt>
      <trkpt lat="49.04448" lon="3.96478">
        <ele>72.2</ele>
        <time>2020-06-30T18:04:56Z</time>
      </trkpt>
      <trkpt lat="49.0445" lon="3.96474">
        <ele>72.2</ele>
        <time>2020-06-30T18:04:57Z</time>
      </trkpt>
      <trkpt lat="49.04453" lon="3.96469">
        <ele>72.2</ele>
        <time>2020-06-30T18:04:58Z</time>
      </trkpt>
      <trkpt lat="49.04456" lon="3.96462">
        <ele>72.2</ele>
        <time>2020-06-30T18:04:59Z</time>
      </trkpt>
      <trkpt lat="49.04459" lon="3.96455">
        <ele>72.1</ele>
        <time>2020-06-30T18:05:00Z</time>
      </trkpt>
      <trkpt lat="49.04461" lon="3.96448">
        <ele>72.1</ele>
        <time>2020-06-30T18:05:01Z</time>
      </trkpt>
      <trkpt lat="49.04464" lon="3.96441">
        <ele>72.1</ele>
        <time>2020-06-30T18:05:02Z</time>
      </trkpt>
      <trkpt lat="49.04466" lon="3.96433">
        <ele>72.1</ele>
        <time>2020-06-30T18:05:03Z</time>
      </trkpt>
      <trkpt lat="49.04468" lon="3.96427">
        <ele>72.1</ele>
        <time>2020-06-30T18:05:04Z</time>
      </trkpt>
      <trkpt lat="49.04469" lon="3.9642">
        <ele>72.1</ele>
        <time>2020-06-30T18:05:05Z</time>
      </trkpt>
      <trkpt lat="49.04472" lon="3.96413">
        <ele>72.2</ele>
        <time>2020-06-30T18:05:06Z</time>
      </trkpt>
      <trkpt lat="49.04472" lon="3.96408">
        <ele>72.2</ele>
        <time>2020-06-30T18:05:07Z</time>
      </trkpt>
      <trkpt lat="49.04474" lon="3.96401">
        <ele>72.2</ele>
        <time>2020-06-30T18:05:08Z</time>
      </trkpt>
      <trkpt lat="49.04477" lon="3.96393">
        <ele>72.3</ele>
        <time>2020-06-30T18:05:09Z</time>
      </trkpt>
      <trkpt lat="49.04479" lon="3.96387">
        <ele>72.3</ele>
        <time>2020-06-30T18:05:10Z</time>
      </trkpt>
      <trkpt lat="49.04482" lon="3.96383">
        <ele>72.3</ele>
        <time>2020-06-30T18:05:11Z</time>
      </trkpt>
      <trkpt lat="49.04484" lon="3.96376">
        <ele>72.3</ele>
        <time>2020-06-30T18:05:12Z</time>
      </trkpt>
      <trkpt lat="49.04486" lon="3.96371">
        <ele>72.4</ele>
        <time>2020-06-30T18:05:13Z</time>
      </trkpt>
      <trkpt lat="49.04488" lon="3.96361">
        <ele>72.4</ele>
        <time>2020-06-30T18:05:14Z</time>
      </trkpt>
      <trkpt lat="49.0449" lon="3.96356">
        <ele>72.5</ele>
        <time>2020-06-30T18:05:15Z</time>
      </trkpt>
      <trkpt lat="49.04493" lon="3.96351">
        <ele>72.5</ele>
        <time>2020-06-30T18:05:16Z</time>
      </trkpt>
      <trkpt lat="49.04495" lon="3.96344">
        <ele>72.6</ele>
        <time>2020-06-30T18:05:17Z</time>
      </trkpt>
      <trkpt lat="49.04497" lon="3.96337">
        <ele>72.7</ele>
        <time>2020-06-30T18:05:18Z</time>
      </trkpt>
      <trkpt lat="49.04499" lon="3.96332">
        <ele>72.7</ele>
        <time>2020-06-30T18:05:19Z</time>
      </trkpt>
      <trkpt lat="49.045" lon="3.96327">
        <ele>72.8</ele>
        <time>2020-06-30T18:05:20Z</time>
      </trkpt>
      <trkpt lat="49.04502" lon="3.96323">
        <ele>72.8</ele>
        <time>2020-06-30T18:05:21Z</time>
      </trkpt>
      <trkpt lat="49.04502" lon="3.96318">
        <ele>72.9</ele>
        <time>2020-06-30T18:05:22Z</time>
      </trkpt>
      <trkpt lat="49.04504" lon="3.96313">
        <ele>73</ele>
        <time>2020-06-30T18:05:23Z</time>
      </trkpt>
      <trkpt lat="49.04506" lon="3.9631">
        <ele>73</ele>
        <time>2020-06-30T18:05:24Z</time>
      </trkpt>
      <trkpt lat="49.04509" lon="3.96306">
        <ele>73.1</ele>
        <time>2020-06-30T18:05:25Z</time>
      </trkpt>
      <trkpt lat="49.04511" lon="3.96298">
        <ele>73.2</ele>
        <time>2020-06-30T18:05:26Z</time>
      </trkpt>
      <trkpt lat="49.04513" lon="3.96292">
        <ele>73.3</ele>
        <time>2020-06-30T18:05:27Z</time>
      </trkpt>
      <trkpt lat="49.04515" lon="3.96286">
        <ele>73.4</ele>
        <time>2020-06-30T18:05:28Z</time>
      </trkpt>
      <trkpt lat="49.04516" lon="3.9628">
        <ele>73.5</ele>
        <time>2020-06-30T18:05:29Z</time>
      </trkpt>
      <trkpt lat="49.04518" lon="3.96273">
        <ele>73.7</ele>
        <time>2020-06-30T18:05:30Z</time>
      </trkpt>
      <trkpt lat="49.0452" lon="3.96265">
        <ele>73.8</ele>
        <time>2020-06-30T18:05:31Z</time>
      </trkpt>
      <trkpt lat="49.04522" lon="3.96259">
        <ele>73.9</ele>
        <time>2020-06-30T18:05:32Z</time>
      </trkpt>
      <trkpt lat="49.04524" lon="3.96256">
        <ele>74</ele>
        <time>2020-06-30T18:05:33Z</time>
      </trkpt>
      <trkpt lat="49.04527" lon="3.96249">
        <ele>74.2</ele>
        <time>2020-06-30T18:05:34Z</time>
      </trkpt>
      <trkpt lat="49.04529" lon="3.96243">
        <ele>74.3</ele>
        <time>2020-06-30T18:05:35Z</time>
      </trkpt>
      <trkpt lat="49.0453" lon="3.9624">
        <ele>74.4</ele>
        <time>2020-06-30T18:05:36Z</time>
      </trkpt>
      <trkpt lat="49.04531" lon="3.96233">
        <ele>74.6</ele>
        <time>2020-06-30T18:05:37Z</time>
      </trkpt>
      <trkpt lat="49.04533" lon="3.96229">
        <ele>74.7</ele>
        <time>2020-06-30T18:05:38Z</time>
      </trkpt>
      <trkpt lat="49.04534" lon="3.96225">
        <ele>74.8</ele>
        <time>2020-06-30T18:05:39Z</time>
      </trkpt>
      <trkpt lat="49.04535" lon="3.96218">
        <ele>75.1</ele>
        <time>2020-06-30T18:05:40Z</time>
      </trkpt>
      <trkpt lat="49.04536" lon="3.96216">
        <ele>75.1</ele>
        <time>2020-06-30T18:05:41Z</time>
      </trkpt>
      <trkpt lat="49.04539" lon="3.9621">
        <ele>75.6</ele>
        <time>2020-06-30T18:05:42Z</time>
      </trkpt>
      <trkpt lat="49.04541" lon="3.96204">
        <ele>75.7</ele>
        <time>2020-06-30T18:05:43Z</time>
      </trkpt>
      <trkpt lat="49.04543" lon="3.962">
        <ele>75.7</ele>
        <time>2020-06-30T18:05:44Z</time>
      </trkpt>
      <trkpt lat="49.04544" lon="3.96198">
        <ele>75.7</ele>
        <time>2020-06-30T18:05:45Z</time>
      </trkpt>
      <trkpt lat="49.04546" lon="3.96194">
        <ele>75.8</ele>
        <time>2020-06-30T18:05:46Z</time>
      </trkpt>
      <trkpt lat="49.04549" lon="3.96191">
        <ele>75.9</ele>
        <time>2020-06-30T18:05:47Z</time>
      </trkpt>
      <trkpt lat="49.0455" lon="3.9619">
        <ele>75.9</ele>
        <time>2020-06-30T18:05:48Z</time>
      </trkpt>
      <trkpt lat="49.04552" lon="3.96188">
        <ele>75.9</ele>
        <time>2020-06-30T18:05:49Z</time>
      </trkpt>
      <trkpt lat="49.04553" lon="3.96186">
        <ele>75.9</ele>
        <time>2020-06-30T18:05:50Z</time>
      </trkpt>
      <trkpt lat="49.04553" lon="3.96185">
        <ele>76.1</ele>
        <time>2020-06-30T18:05:51Z</time>
      </trkpt>
      <trkpt lat="49.04553" lon="3.96181">
        <ele>76.1</ele>
        <time>2020-06-30T18:05:52Z</time>
      </trkpt>
      <trkpt lat="49.04552" lon="3.96183">
        <ele>76.1</ele>
        <time>2020-06-30T18:05:53Z</time>
      </trkpt>
      <trkpt lat="49.04551" lon="3.96184">
        <ele>76</ele>
        <time>2020-06-30T18:05:54Z</time>
      </trkpt>
      <trkpt lat="49.04551" lon="3.96185">
        <ele>76</ele>
        <time>2020-06-30T18:05:55Z</time>
      </trkpt>
      <trkpt lat="49.0455" lon="3.96183">
        <ele>76</ele>
        <time>2020-06-30T18:05:56Z</time>
      </trkpt>
      <trkpt lat="49.04549" lon="3.96181">
        <ele>76.1</ele>
        <time>2020-06-30T18:05:57Z</time>
      </trkpt>
      <trkpt lat="49.04547" lon="3.96178">
        <ele>76</ele>
        <time>2020-06-30T18:05:58Z</time>
      </trkpt>
      <trkpt lat="49.04546" lon="3.96177">
        <ele>76</ele>
        <time>2020-06-30T18:05:59Z</time>
      </trkpt>
      <trkpt lat="49.04545" lon="3.96175">
        <ele>76</ele>
        <time>2020-06-30T18:06:00Z</time>
      </trkpt>
      <trkpt lat="49.04544" lon="3.96174">
        <ele>76</ele>
        <time>2020-06-30T18:06:01Z</time>
      </trkpt>
      <trkpt lat="49.04544" lon="3.96173">
        <ele>76</ele>
        <time>2020-06-30T18:06:02Z</time>
      </trkpt>
      <trkpt lat="49.04544" lon="3.96173">
        <ele>76</ele>
        <time>2020-06-30T18:06:03Z</time>
      </trkpt>
      <trkpt lat="49.04544" lon="3.96173">
        <ele>76</ele>
        <time>2020-06-30T18:06:04Z</time>
      </trkpt>
      <trkpt lat="49.04544" lon="3.96173">
        <ele>76</ele>
        <time>2020-06-30T18:06:05Z</time>
      </trkpt>
      <trkpt lat="49.04544" lon="3.96172">
        <ele>76</ele>
        <time>2020-06-30T18:06:06Z</time>
      </trkpt>
      <trkpt lat="49.04544" lon="3.96172">
        <ele>76</ele>
        <time>2020-06-30T18:06:07Z</time>
      </trkpt>
      <trkpt lat="49.04543" lon="3.96172">
        <ele>76</ele>
        <time>2020-06-30T18:06:08Z</time>
      </trkpt>
      <trkpt lat="49.04543" lon="3.96172">
        <ele>76</ele>
        <time>2020-06-30T18:06:09Z</time>
      </trkpt>
      <trkpt lat="49.04543" lon="3.96171">
        <ele>75.9</ele>
        <time>2020-06-30T18:06:10Z</time>
      </trkpt>
      <trkpt lat="49.04542" lon="3.9617">
        <ele>75.9</ele>
        <time>2020-06-30T18:06:11Z</time>
      </trkpt>
      <trkpt lat="49.04541" lon="3.96169">
        <ele>75.9</ele>
        <time>2020-06-30T18:06:12Z</time>
      </trkpt>
      <trkpt lat="49.04539" lon="3.96168">
        <ele>75.9</ele>
        <time>2020-06-30T18:06:13Z</time>
      </trkpt>
      <trkpt lat="49.04536" lon="3.96166">
        <ele>75.8</ele>
        <time>2020-06-30T18:06:14Z</time>
      </trkpt>
      <trkpt lat="49.04533" lon="3.96164">
        <ele>75.7</ele>
        <time>2020-06-30T18:06:15Z</time>
      </trkpt>
      <trkpt lat="49.04529" lon="3.96162">
        <ele>75.6</ele>
        <time>2020-06-30T18:06:16Z</time>
      </trkpt>
      <trkpt lat="49.04526" lon="3.96161">
        <ele>75.5</ele>
        <time>2020-06-30T18:06:17Z</time>
      </trkpt>
      <trkpt lat="49.04524" lon="3.96161">
        <ele>75.4</ele>
        <time>2020-06-30T18:06:18Z</time>
      </trkpt>
      <trkpt lat="49.04521" lon="3.96159">
        <ele>75.3</ele>
        <time>2020-06-30T18:06:19Z</time>
      </trkpt>
      <trkpt lat="49.04518" lon="3.96158">
        <ele>75.3</ele>
        <time>2020-06-30T18:06:20Z</time>
      </trkpt>
      <trkpt lat="49.04515" lon="3.96157">
        <ele>75.2</ele>
        <time>2020-06-30T18:06:21Z</time>
      </trkpt>
      <trkpt lat="49.04512" lon="3.96156">
        <ele>75.1</ele>
        <time>2020-06-30T18:06:22Z</time>
      </trkpt>
      <trkpt lat="49.04509" lon="3.96153">
        <ele>75.1</ele>
        <time>2020-06-30T18:06:23Z</time>
      </trkpt>
      <trkpt lat="49.04505" lon="3.9615">
        <ele>75</ele>
        <time>2020-06-30T18:06:24Z</time>
      </trkpt>
      <trkpt lat="49.04504" lon="3.96149">
        <ele>75</ele>
        <time>2020-06-30T18:06:25Z</time>
      </trkpt>
      <trkpt lat="49.04502" lon="3.96146">
        <ele>75</ele>
        <time>2020-06-30T18:06:26Z</time>
      </trkpt>
      <trkpt lat="49.04499" lon="3.96142">
        <ele>75</ele>
        <time>2020-06-30T18:06:27Z</time>
      </trkpt>
      <trkpt lat="49.04497" lon="3.96139">
        <ele>75</ele>
        <time>2020-06-30T18:06:28Z</time>
      </trkpt>
      <trkpt lat="49.04494" lon="3.96138">
        <ele>75</ele>
        <time>2020-06-30T18:06:29Z</time>
      </trkpt>
      <trkpt lat="49.0449" lon="3.96135">
        <ele>75</ele>
        <time>2020-06-30T18:06:30Z</time>
      </trkpt>
      <trkpt lat="49.04489" lon="3.96134">
        <ele>75</ele>
        <time>2020-06-30T18:06:31Z</time>
      </trkpt>
      <trkpt lat="49.04487" lon="3.96131">
        <ele>75.1</ele>
        <time>2020-06-30T18:06:32Z</time>
      </trkpt>
      <trkpt lat="49.04487" lon="3.9613">
        <ele>75.1</ele>
        <time>2020-06-30T18:06:33Z</time>
      </trkpt>
      <trkpt lat="49.04487" lon="3.96125">
        <ele>75.1</ele>
        <time>2020-06-30T18:06:34Z</time>
      </trkpt>
      <trkpt lat="49.04486" lon="3.96122">
        <ele>75.1</ele>
        <time>2020-06-30T18:06:35Z</time>
      </trkpt>
      <trkpt lat="49.04486" lon="3.96118">
        <ele>75.1</ele>
        <time>2020-06-30T18:06:36Z</time>
      </trkpt>
      <trkpt lat="49.04486" lon="3.96111">
        <ele>75.1</ele>
        <time>2020-06-30T18:06:37Z</time>
      </trkpt>
      <trkpt lat="49.04486" lon="3.96108">
        <ele>75.1</ele>
        <time>2020-06-30T18:06:38Z</time>
      </trkpt>
      <trkpt lat="49.04486" lon="3.96103">
        <ele>75.2</ele>
        <time>2020-06-30T18:06:39Z</time>
      </trkpt>
      <trkpt lat="49.04487" lon="3.96096">
        <ele>75.2</ele>
        <time>2020-06-30T18:06:40Z</time>
      </trkpt>
      <trkpt lat="49.04486" lon="3.96092">
        <ele>75.2</ele>
        <time>2020-06-30T18:06:41Z</time>
      </trkpt>
      <trkpt lat="49.04486" lon="3.96086">
        <ele>75.3</ele>
        <time>2020-06-30T18:06:42Z</time>
      </trkpt>
      <trkpt lat="49.04485" lon="3.96081">
        <ele>75.3</ele>
        <time>2020-06-30T18:06:43Z</time>
      </trkpt>
      <trkpt lat="49.04485" lon="3.96079">
        <ele>75.4</ele>
        <time>2020-06-30T18:06:44Z</time>
      </trkpt>
      <trkpt lat="49.04485" lon="3.96074">
        <ele>75.4</ele>
        <time>2020-06-30T18:06:45Z</time>
      </trkpt>
      <trkpt lat="49.04485" lon="3.96068">
        <ele>75.5</ele>
        <time>2020-06-30T18:06:46Z</time>
      </trkpt>
      <trkpt lat="49.04485" lon="3.96062">
        <ele>75.5</ele>
        <time>2020-06-30T18:06:47Z</time>
      </trkpt>
      <trkpt lat="49.04485" lon="3.96056">
        <ele>75.5</ele>
        <time>2020-06-30T18:06:48Z</time>
      </trkpt>
      <trkpt lat="49.04484" lon="3.9605">
        <ele>75.6</ele>
        <time>2020-06-30T18:06:49Z</time>
      </trkpt>
      <trkpt lat="49.04483" lon="3.96046">
        <ele>75.6</ele>
        <time>2020-06-30T18:06:50Z</time>
      </trkpt>
      <trkpt lat="49.04483" lon="3.96041">
        <ele>75.6</ele>
        <time>2020-06-30T18:06:51Z</time>
      </trkpt>
      <trkpt lat="49.04483" lon="3.96037">
        <ele>75.6</ele>
        <time>2020-06-30T18:06:52Z</time>
      </trkpt>
      <trkpt lat="49.04484" lon="3.96031">
        <ele>75.7</ele>
        <time>2020-06-30T18:06:53Z</time>
      </trkpt>
      <trkpt lat="49.04483" lon="3.96026">
        <ele>75.7</ele>
        <time>2020-06-30T18:06:54Z</time>
      </trkpt>
      <trkpt lat="49.04483" lon="3.9602">
        <ele>75.7</ele>
        <time>2020-06-30T18:06:55Z</time>
      </trkpt>
      <trkpt lat="49.04483" lon="3.96018">
        <ele>75.7</ele>
        <time>2020-06-30T18:06:56Z</time>
      </trkpt>
      <trkpt lat="49.04484" lon="3.96012">
        <ele>75.7</ele>
        <time>2020-06-30T18:06:57Z</time>
      </trkpt>
      <trkpt lat="49.04484" lon="3.9601">
        <ele>75.7</ele>
        <time>2020-06-30T18:06:58Z</time>
      </trkpt>
      <trkpt lat="49.04483" lon="3.96003">
        <ele>75.7</ele>
        <time>2020-06-30T18:06:59Z</time>
      </trkpt>
      <trkpt lat="49.04483" lon="3.96">
        <ele>75.7</ele>
        <time>2020-06-30T18:07:00Z</time>
      </trkpt>
      <trkpt lat="49.04483" lon="3.95995">
        <ele>75.8</ele>
        <time>2020-06-30T18:07:01Z</time>
      </trkpt>
      <trkpt lat="49.04483" lon="3.9599">
        <ele>75.8</ele>
        <time>2020-06-30T18:07:02Z</time>
      </trkpt>
      <trkpt lat="49.04483" lon="3.95984">
        <ele>75.8</ele>
        <time>2020-06-30T18:07:03Z</time>
      </trkpt>
      <trkpt lat="49.04483" lon="3.95982">
        <ele>75.8</ele>
        <time>2020-06-30T18:07:04Z</time>
      </trkpt>
      <trkpt lat="49.04483" lon="3.95976">
        <ele>75.8</ele>
        <time>2020-06-30T18:07:05Z</time>
      </trkpt>
      <trkpt lat="49.04482" lon="3.95971">
        <ele>75.9</ele>
        <time>2020-06-30T18:07:06Z</time>
      </trkpt>
      <trkpt lat="49.04482" lon="3.95966">
        <ele>75.9</ele>
        <time>2020-06-30T18:07:07Z</time>
      </trkpt>
      <trkpt lat="49.04482" lon="3.95962">
        <ele>75.9</ele>
        <time>2020-06-30T18:07:08Z</time>
      </trkpt>
      <trkpt lat="49.04482" lon="3.95957">
        <ele>75.9</ele>
        <time>2020-06-30T18:07:09Z</time>
      </trkpt>
      <trkpt lat="49.04481" lon="3.95953">
        <ele>76</ele>
        <time>2020-06-30T18:07:10Z</time>
      </trkpt>
      <trkpt lat="49.04481" lon="3.95948">
        <ele>76</ele>
        <time>2020-06-30T18:07:11Z</time>
      </trkpt>
      <trkpt lat="49.04481" lon="3.95942">
        <ele>76.1</ele>
        <time>2020-06-30T18:07:12Z</time>
      </trkpt>
      <trkpt lat="49.04481" lon="3.95937">
        <ele>76.1</ele>
        <time>2020-06-30T18:07:13Z</time>
      </trkpt>
      <trkpt lat="49.04481" lon="3.95935">
        <ele>76.2</ele>
        <time>2020-06-30T18:07:14Z</time>
      </trkpt>
      <trkpt lat="49.04481" lon="3.95929">
        <ele>76.3</ele>
        <time>2020-06-30T18:07:15Z</time>
      </trkpt>
      <trkpt lat="49.04482" lon="3.95927">
        <ele>76.3</ele>
        <time>2020-06-30T18:07:16Z</time>
      </trkpt>
      <trkpt lat="49.04482" lon="3.95922">
        <ele>76.4</ele>
        <time>2020-06-30T18:07:17Z</time>
      </trkpt>
      <trkpt lat="49.04483" lon="3.95921">
        <ele>76.4</ele>
        <time>2020-06-30T18:07:18Z</time>
      </trkpt>
      <trkpt lat="49.04484" lon="3.95916">
        <ele>76.4</ele>
        <time>2020-06-30T18:07:19Z</time>
      </trkpt>
      <trkpt lat="49.04484" lon="3.95914">
        <ele>76.4</ele>
        <time>2020-06-30T18:07:20Z</time>
      </trkpt>
      <trkpt lat="49.04484" lon="3.9591">
        <ele>76.4</ele>
        <time>2020-06-30T18:07:21Z</time>
      </trkpt>
      <trkpt lat="49.04485" lon="3.95906">
        <ele>76.3</ele>
        <time>2020-06-30T18:07:22Z</time>
      </trkpt>
      <trkpt lat="49.04486" lon="3.95904">
        <ele>76.2</ele>
        <time>2020-06-30T18:07:23Z</time>
      </trkpt>
      <trkpt lat="49.04487" lon="3.95899">
        <ele>76</ele>
        <time>2020-06-30T18:07:24Z</time>
      </trkpt>
      <trkpt lat="49.04488" lon="3.95897">
        <ele>75.9</ele>
        <time>2020-06-30T18:07:25Z</time>
      </trkpt>
      <trkpt lat="49.0449" lon="3.95892">
        <ele>75.7</ele>
        <time>2020-06-30T18:07:26Z</time>
      </trkpt>
      <trkpt lat="49.04491" lon="3.9589">
        <ele>75.6</ele>
        <time>2020-06-30T18:07:27Z</time>
      </trkpt>
      <trkpt lat="49.04491" lon="3.95888">
        <ele>75.5</ele>
        <time>2020-06-30T18:07:28Z</time>
      </trkpt>
      <trkpt lat="49.04492" lon="3.95886">
        <ele>75.4</ele>
        <time>2020-06-30T18:07:29Z</time>
      </trkpt>
      <trkpt lat="49.04494" lon="3.95881">
        <ele>75.2</ele>
        <time>2020-06-30T18:07:30Z</time>
      </trkpt>
      <trkpt lat="49.04494" lon="3.9588">
        <ele>75.1</ele>
        <time>2020-06-30T18:07:31Z</time>
      </trkpt>
      <trkpt lat="49.04495" lon="3.95878">
        <ele>75.1</ele>
        <time>2020-06-30T18:07:32Z</time>
      </trkpt>
      <trkpt lat="49.04496" lon="3.95875">
        <ele>75</ele>
        <time>2020-06-30T18:07:33Z</time>
      </trkpt>
      <trkpt lat="49.04497" lon="3.95871">
        <ele>74.9</ele>
        <time>2020-06-30T18:07:34Z</time>
      </trkpt>
      <trkpt lat="49.04498" lon="3.9587">
        <ele>74.9</ele>
        <time>2020-06-30T18:07:35Z</time>
      </trkpt>
      <trkpt lat="49.04499" lon="3.95865">
        <ele>74.8</ele>
        <time>2020-06-30T18:07:36Z</time>
      </trkpt>
      <trkpt lat="49.04499" lon="3.95864">
        <ele>74.8</ele>
        <time>2020-06-30T18:07:37Z</time>
      </trkpt>
      <trkpt lat="49.04502" lon="3.95862">
        <ele>74.7</ele>
        <time>2020-06-30T18:07:38Z</time>
      </trkpt>
      <trkpt lat="49.04504" lon="3.95862">
        <ele>74.6</ele>
        <time>2020-06-30T18:07:39Z</time>
      </trkpt>
      <trkpt lat="49.04508" lon="3.95864">
        <ele>74.5</ele>
        <time>2020-06-30T18:07:40Z</time>
      </trkpt>
      <trkpt lat="49.04511" lon="3.95864">
        <ele>74.4</ele>
        <time>2020-06-30T18:07:41Z</time>
      </trkpt>
      <trkpt lat="49.04515" lon="3.95861">
        <ele>74.3</ele>
        <time>2020-06-30T18:07:42Z</time>
      </trkpt>
      <trkpt lat="49.04517" lon="3.95856">
        <ele>74.3</ele>
        <time>2020-06-30T18:07:43Z</time>
      </trkpt>
      <trkpt lat="49.0452" lon="3.95854">
        <ele>74.2</ele>
        <time>2020-06-30T18:07:44Z</time>
      </trkpt>
      <trkpt lat="49.04524" lon="3.95851">
        <ele>74.2</ele>
        <time>2020-06-30T18:07:45Z</time>
      </trkpt>
      <trkpt lat="49.04526" lon="3.9585">
        <ele>74.1</ele>
        <time>2020-06-30T18:07:46Z</time>
      </trkpt>
      <trkpt lat="49.0453" lon="3.95846">
        <ele>74.1</ele>
        <time>2020-06-30T18:07:47Z</time>
      </trkpt>
      <trkpt lat="49.04533" lon="3.95843">
        <ele>74</ele>
        <time>2020-06-30T18:07:48Z</time>
      </trkpt>
      <trkpt lat="49.04534" lon="3.95843">
        <ele>74</ele>
        <time>2020-06-30T18:07:49Z</time>
      </trkpt>
      <trkpt lat="49.04537" lon="3.9584">
        <ele>74</ele>
        <time>2020-06-30T18:07:50Z</time>
      </trkpt>
      <trkpt lat="49.04538" lon="3.95839">
        <ele>74</ele>
        <time>2020-06-30T18:07:51Z</time>
      </trkpt>
      <trkpt lat="49.04539" lon="3.95834">
        <ele>74</ele>
        <time>2020-06-30T18:07:52Z</time>
      </trkpt>
      <trkpt lat="49.04536" lon="3.95829">
        <ele>73.9</ele>
        <time>2020-06-30T18:07:53Z</time>
      </trkpt>
      <trkpt lat="49.04535" lon="3.95828">
        <ele>73.9</ele>
        <time>2020-06-30T18:07:54Z</time>
      </trkpt>
      <trkpt lat="49.04533" lon="3.95823">
        <ele>73.9</ele>
        <time>2020-06-30T18:07:55Z</time>
      </trkpt>
      <trkpt lat="49.04533" lon="3.95822">
        <ele>73.9</ele>
        <time>2020-06-30T18:07:56Z</time>
      </trkpt>
      <trkpt lat="49.04531" lon="3.95819">
        <ele>73.9</ele>
        <time>2020-06-30T18:07:57Z</time>
      </trkpt>
      <trkpt lat="49.04528" lon="3.95815">
        <ele>73.9</ele>
        <time>2020-06-30T18:07:58Z</time>
      </trkpt>
      <trkpt lat="49.04526" lon="3.95812">
        <ele>73.9</ele>
        <time>2020-06-30T18:07:59Z</time>
      </trkpt>
      <trkpt lat="49.04523" lon="3.95807">
        <ele>73.9</ele>
        <time>2020-06-30T18:08:00Z</time>
      </trkpt>
      <trkpt lat="49.04523" lon="3.95805">
        <ele>73.9</ele>
        <time>2020-06-30T18:08:01Z</time>
      </trkpt>
      <trkpt lat="49.04522" lon="3.958">
        <ele>73.9</ele>
        <time>2020-06-30T18:08:02Z</time>
      </trkpt>
      <trkpt lat="49.04521" lon="3.95795">
        <ele>73.9</ele>
        <time>2020-06-30T18:08:03Z</time>
      </trkpt>
      <trkpt lat="49.04521" lon="3.95793">
        <ele>73.9</ele>
        <time>2020-06-30T18:08:04Z</time>
      </trkpt>
      <trkpt lat="49.04519" lon="3.95788">
        <ele>73.9</ele>
        <time>2020-06-30T18:08:05Z</time>
      </trkpt>
      <trkpt lat="49.04518" lon="3.95784">
        <ele>73.9</ele>
        <time>2020-06-30T18:08:06Z</time>
      </trkpt>
      <trkpt lat="49.04515" lon="3.9578">
        <ele>73.9</ele>
        <time>2020-06-30T18:08:07Z</time>
      </trkpt>
      <trkpt lat="49.04513" lon="3.95776">
        <ele>73.9</ele>
        <time>2020-06-30T18:08:08Z</time>
      </trkpt>
      <trkpt lat="49.04512" lon="3.95772">
        <ele>74</ele>
        <time>2020-06-30T18:08:09Z</time>
      </trkpt>
      <trkpt lat="49.0451" lon="3.95767">
        <ele>74</ele>
        <time>2020-06-30T18:08:10Z</time>
      </trkpt>
      <trkpt lat="49.04509" lon="3.95765">
        <ele>74</ele>
        <time>2020-06-30T18:08:11Z</time>
      </trkpt>
      <trkpt lat="49.04507" lon="3.95762">
        <ele>74</ele>
        <time>2020-06-30T18:08:12Z</time>
      </trkpt>
      <trkpt lat="49.04506" lon="3.95762">
        <ele>74</ele>
        <time>2020-06-30T18:08:13Z</time>
      </trkpt>
      <trkpt lat="49.04505" lon="3.95761">
        <ele>74</ele>
        <time>2020-06-30T18:08:14Z</time>
      </trkpt>
      <trkpt lat="49.04504" lon="3.95759">
        <ele>74.1</ele>
        <time>2020-06-30T18:08:15Z</time>
      </trkpt>
      <trkpt lat="49.04503" lon="3.95754">
        <ele>74.1</ele>
        <time>2020-06-30T18:08:16Z</time>
      </trkpt>
      <trkpt lat="49.04503" lon="3.95752">
        <ele>74.1</ele>
        <time>2020-06-30T18:08:17Z</time>
      </trkpt>
      <trkpt lat="49.04503" lon="3.95746">
        <ele>74.1</ele>
        <time>2020-06-30T18:08:18Z</time>
      </trkpt>
      <trkpt lat="49.04502" lon="3.95741">
        <ele>74.1</ele>
        <time>2020-06-30T18:08:19Z</time>
      </trkpt>
      <trkpt lat="49.04502" lon="3.95736">
        <ele>74.2</ele>
        <time>2020-06-30T18:08:20Z</time>
      </trkpt>
      <trkpt lat="49.04501" lon="3.95732">
        <ele>74.2</ele>
        <time>2020-06-30T18:08:21Z</time>
      </trkpt>
      <trkpt lat="49.04501" lon="3.95728">
        <ele>74.2</ele>
        <time>2020-06-30T18:08:22Z</time>
      </trkpt>
      <trkpt lat="49.04502" lon="3.95722">
        <ele>74.2</ele>
        <time>2020-06-30T18:08:23Z</time>
      </trkpt>
      <trkpt lat="49.04502" lon="3.9572">
        <ele>74.2</ele>
        <time>2020-06-30T18:08:24Z</time>
      </trkpt>
      <trkpt lat="49.04501" lon="3.95716">
        <ele>74.2</ele>
        <time>2020-06-30T18:08:25Z</time>
      </trkpt>
      <trkpt lat="49.045" lon="3.95714">
        <ele>74.2</ele>
        <time>2020-06-30T18:08:26Z</time>
      </trkpt>
      <trkpt lat="49.04498" lon="3.9571">
        <ele>74.2</ele>
        <time>2020-06-30T18:08:27Z</time>
      </trkpt>
      <trkpt lat="49.04497" lon="3.95709">
        <ele>74.2</ele>
        <time>2020-06-30T18:08:28Z</time>
      </trkpt>
      <trkpt lat="49.04496" lon="3.95706">
        <ele>74.2</ele>
        <time>2020-06-30T18:08:29Z</time>
      </trkpt>
      <trkpt lat="49.04495" lon="3.95705">
        <ele>74.3</ele>
        <time>2020-06-30T18:08:30Z</time>
      </trkpt>
      <trkpt lat="49.04493" lon="3.95703">
        <ele>74.3</ele>
        <time>2020-06-30T18:08:31Z</time>
      </trkpt>
      <trkpt lat="49.04492" lon="3.95702">
        <ele>74.3</ele>
        <time>2020-06-30T18:08:32Z</time>
      </trkpt>
      <trkpt lat="49.04491" lon="3.95701">
        <ele>74.3</ele>
        <time>2020-06-30T18:08:33Z</time>
      </trkpt>
      <trkpt lat="49.04491" lon="3.957">
        <ele>74.3</ele>
        <time>2020-06-30T18:08:34Z</time>
      </trkpt>
      <trkpt lat="49.0449" lon="3.95699">
        <ele>74.3</ele>
        <time>2020-06-30T18:08:35Z</time>
      </trkpt>
      <trkpt lat="49.0449" lon="3.95698">
        <ele>74.3</ele>
        <time>2020-06-30T18:08:36Z</time>
      </trkpt>
      <trkpt lat="49.0449" lon="3.95698">
        <ele>74.3</ele>
        <time>2020-06-30T18:08:37Z</time>
      </trkpt>
      <trkpt lat="49.0449" lon="3.95698">
        <ele>74.3</ele>
        <time>2020-06-30T18:08:38Z</time>
      </trkpt>
      <trkpt lat="49.0449" lon="3.95698">
        <ele>74.3</ele>
        <time>2020-06-30T18:08:39Z</time>
      </trkpt>
      <trkpt lat="49.0449" lon="3.95698">
        <ele>74.3</ele>
        <time>2020-06-30T18:08:40Z</time>
      </trkpt>
      <trkpt lat="49.0449" lon="3.95698">
        <ele>74.3</ele>
        <time>2020-06-30T18:08:41Z</time>
      </trkpt>
      <trkpt lat="49.0449" lon="3.95698">
        <ele>74.3</ele>
        <time>2020-06-30T18:08:42Z</time>
      </trkpt>
      <trkpt lat="49.0449" lon="3.95698">
        <ele>74.3</ele>
        <time>2020-06-30T18:08:43Z</time>
      </trkpt>
      <trkpt lat="49.0449" lon="3.95698">
        <ele>74.3</ele>
        <time>2020-06-30T18:08:44Z</time>
      </trkpt>
      <trkpt lat="49.0449" lon="3.95698">
        <ele>74.3</ele>
        <time>2020-06-30T18:08:45Z</time>
      </trkpt>
      <trkpt lat="49.0449" lon="3.95698">
        <ele>74.3</ele>
        <time>2020-06-30T18:08:46Z</time>
      </trkpt>
      <trkpt lat="49.0449" lon="3.95698">
        <ele>74.3</ele>
        <time>2020-06-30T18:08:47Z</time>
      </trkpt>
      <trkpt lat="49.04492" lon="3.95695">
        <ele>74.3</ele>
        <time>2020-06-30T18:10:29Z</time>
      </trkpt>
      <trkpt lat="49.04493" lon="3.95695">
        <ele>74.3</ele>
        <time>2020-06-30T18:10:30Z</time>
      </trkpt>
      <trkpt lat="49.04494" lon="3.95698">
        <ele>74.3</ele>
        <time>2020-06-30T18:10:31Z</time>
      </trkpt>
      <trkpt lat="49.04494" lon="3.957">
        <ele>74.3</ele>
        <time>2020-06-30T18:10:32Z</time>
      </trkpt>
      <trkpt lat="49.04494" lon="3.95701">
        <ele>74.3</ele>
        <time>2020-06-30T18:10:33Z</time>
      </trkpt>
      <trkpt lat="49.04494" lon="3.95705">
        <ele>74.3</ele>
        <time>2020-06-30T18:10:34Z</time>
      </trkpt>
      <trkpt lat="49.04495" lon="3.95707">
        <ele>74.3</ele>
        <time>2020-06-30T18:10:35Z</time>
      </trkpt>
      <trkpt lat="49.04495" lon="3.95711">
        <ele>74.3</ele>
        <time>2020-06-30T18:10:36Z</time>
      </trkpt>
      <trkpt lat="49.04495" lon="3.95713">
        <ele>74.4</ele>
        <time>2020-06-30T18:10:37Z</time>
      </trkpt>
      <trkpt lat="49.04496" lon="3.95718">
        <ele>74.4</ele>
        <time>2020-06-30T18:10:38Z</time>
      </trkpt>
      <trkpt lat="49.04496" lon="3.9572">
        <ele>74.4</ele>
        <time>2020-06-30T18:10:39Z</time>
      </trkpt>
      <trkpt lat="49.04496" lon="3.95725">
        <ele>74.4</ele>
        <time>2020-06-30T18:10:40Z</time>
      </trkpt>
      <trkpt lat="49.04496" lon="3.95727">
        <ele>74.4</ele>
        <time>2020-06-30T18:10:41Z</time>
      </trkpt>
      <trkpt lat="49.04496" lon="3.95732">
        <ele>74.4</ele>
        <time>2020-06-30T18:10:42Z</time>
      </trkpt>
      <trkpt lat="49.04496" lon="3.95733">
        <ele>74.4</ele>
        <time>2020-06-30T18:10:43Z</time>
      </trkpt>
      <trkpt lat="49.04496" lon="3.95736">
        <ele>74.4</ele>
        <time>2020-06-30T18:10:44Z</time>
      </trkpt>
      <trkpt lat="49.04497" lon="3.95736">
        <ele>74.4</ele>
        <time>2020-06-30T18:10:45Z</time>
      </trkpt>
      <trkpt lat="49.04496" lon="3.95732">
        <ele>74.4</ele>
        <time>2020-06-30T18:10:46Z</time>
      </trkpt>
      <trkpt lat="49.04496" lon="3.95728">
        <ele>74.4</ele>
        <time>2020-06-30T18:10:47Z</time>
      </trkpt>
      <trkpt lat="49.04496" lon="3.95724">
        <ele>74.4</ele>
        <time>2020-06-30T18:10:48Z</time>
      </trkpt>
      <trkpt lat="49.04496" lon="3.95722">
        <ele>74.4</ele>
        <time>2020-06-30T18:10:49Z</time>
      </trkpt>
      <trkpt lat="49.04495" lon="3.95717">
        <ele>74.5</ele>
        <time>2020-06-30T18:10:50Z</time>
      </trkpt>
      <trkpt lat="49.04494" lon="3.95715">
        <ele>74.5</ele>
        <time>2020-06-30T18:10:51Z</time>
      </trkpt>
      <trkpt lat="49.04492" lon="3.95711">
        <ele>74.5</ele>
        <time>2020-06-30T18:10:52Z</time>
      </trkpt>
      <trkpt lat="49.04491" lon="3.95709">
        <ele>74.5</ele>
        <time>2020-06-30T18:10:53Z</time>
      </trkpt>
      <trkpt lat="49.04489" lon="3.95707">
        <ele>74.6</ele>
        <time>2020-06-30T18:10:54Z</time>
      </trkpt>
      <trkpt lat="49.04486" lon="3.95707">
        <ele>74.6</ele>
        <time>2020-06-30T18:10:55Z</time>
      </trkpt>
      <trkpt lat="49.04482" lon="3.95707">
        <ele>74.6</ele>
        <time>2020-06-30T18:10:56Z</time>
      </trkpt>
      <trkpt lat="49.04479" lon="3.95708">
        <ele>74.6</ele>
        <time>2020-06-30T18:10:57Z</time>
      </trkpt>
      <trkpt lat="49.04476" lon="3.95707">
        <ele>74.6</ele>
        <time>2020-06-30T18:10:58Z</time>
      </trkpt>
      <trkpt lat="49.04475" lon="3.95707">
        <ele>74.6</ele>
        <time>2020-06-30T18:10:59Z</time>
      </trkpt>
      <trkpt lat="49.04472" lon="3.95708">
        <ele>74.6</ele>
        <time>2020-06-30T18:11:00Z</time>
      </trkpt>
      <trkpt lat="49.04471" lon="3.95709">
        <ele>74.6</ele>
        <time>2020-06-30T18:11:01Z</time>
      </trkpt>
      <trkpt lat="49.04467" lon="3.9571">
        <ele>74.6</ele>
        <time>2020-06-30T18:11:02Z</time>
      </trkpt>
      <trkpt lat="49.04466" lon="3.9571">
        <ele>74.6</ele>
        <time>2020-06-30T18:11:03Z</time>
      </trkpt>
      <trkpt lat="49.04462" lon="3.95711">
        <ele>74.7</ele>
        <time>2020-06-30T18:11:04Z</time>
      </trkpt>
      <trkpt lat="49.0446" lon="3.95711">
        <ele>74.7</ele>
        <time>2020-06-30T18:11:05Z</time>
      </trkpt>
      <trkpt lat="49.04457" lon="3.95712">
        <ele>74.8</ele>
        <time>2020-06-30T18:11:06Z</time>
      </trkpt>
      <trkpt lat="49.04454" lon="3.95712">
        <ele>74.8</ele>
        <time>2020-06-30T18:11:07Z</time>
      </trkpt>
      <trkpt lat="49.04453" lon="3.95712">
        <ele>74.8</ele>
        <time>2020-06-30T18:11:08Z</time>
      </trkpt>
      <trkpt lat="49.0445" lon="3.95712">
        <ele>74.9</ele>
        <time>2020-06-30T18:11:09Z</time>
      </trkpt>
      <trkpt lat="49.04447" lon="3.95711">
        <ele>75</ele>
        <time>2020-06-30T18:11:10Z</time>
      </trkpt>
      <trkpt lat="49.04443" lon="3.9571">
        <ele>75.1</ele>
        <time>2020-06-30T18:11:11Z</time>
      </trkpt>
      <trkpt lat="49.0444" lon="3.95709">
        <ele>75.2</ele>
        <time>2020-06-30T18:11:12Z</time>
      </trkpt>
      <trkpt lat="49.04439" lon="3.95708">
        <ele>75.2</ele>
        <time>2020-06-30T18:11:13Z</time>
      </trkpt>
      <trkpt lat="49.04436" lon="3.95706">
        <ele>75.4</ele>
        <time>2020-06-30T18:11:14Z</time>
      </trkpt>
      <trkpt lat="49.04435" lon="3.95705">
        <ele>75.4</ele>
        <time>2020-06-30T18:11:15Z</time>
      </trkpt>
      <trkpt lat="49.04433" lon="3.95702">
        <ele>75.5</ele>
        <time>2020-06-30T18:11:16Z</time>
      </trkpt>
      <trkpt lat="49.04432" lon="3.95701">
        <ele>75.6</ele>
        <time>2020-06-30T18:11:17Z</time>
      </trkpt>
      <trkpt lat="49.04431" lon="3.95699">
        <ele>75.7</ele>
        <time>2020-06-30T18:11:18Z</time>
      </trkpt>
      <trkpt lat="49.0443" lon="3.95697">
        <ele>75.7</ele>
        <time>2020-06-30T18:11:19Z</time>
      </trkpt>
      <trkpt lat="49.04428" lon="3.95693">
        <ele>75.8</ele>
        <time>2020-06-30T18:11:20Z</time>
      </trkpt>
      <trkpt lat="49.04428" lon="3.95692">
        <ele>75.9</ele>
        <time>2020-06-30T18:11:21Z</time>
      </trkpt>
      <trkpt lat="49.04426" lon="3.95688">
        <ele>76</ele>
        <time>2020-06-30T18:11:22Z</time>
      </trkpt>
      <trkpt lat="49.04426" lon="3.95687">
        <ele>76</ele>
        <time>2020-06-30T18:11:23Z</time>
      </trkpt>
      <trkpt lat="49.04424" lon="3.95686">
        <ele>76.1</ele>
        <time>2020-06-30T18:11:24Z</time>
      </trkpt>
      <trkpt lat="49.04422" lon="3.95685">
        <ele>76.2</ele>
        <time>2020-06-30T18:11:25Z</time>
      </trkpt>
      <trkpt lat="49.04419" lon="3.95683">
        <ele>76.3</ele>
        <time>2020-06-30T18:11:26Z</time>
      </trkpt>
      <trkpt lat="49.04418" lon="3.95682">
        <ele>76.4</ele>
        <time>2020-06-30T18:11:27Z</time>
      </trkpt>
      <trkpt lat="49.04414" lon="3.95679">
        <ele>76.5</ele>
        <time>2020-06-30T18:11:28Z</time>
      </trkpt>
      <trkpt lat="49.04413" lon="3.95678">
        <ele>76.6</ele>
        <time>2020-06-30T18:11:29Z</time>
      </trkpt>
      <trkpt lat="49.0441" lon="3.95676">
        <ele>76.7</ele>
        <time>2020-06-30T18:11:30Z</time>
      </trkpt>
      <trkpt lat="49.04409" lon="3.95675">
        <ele>76.8</ele>
        <time>2020-06-30T18:11:31Z</time>
      </trkpt>
      <trkpt lat="49.04407" lon="3.95674">
        <ele>76.8</ele>
        <time>2020-06-30T18:11:32Z</time>
      </trkpt>
      <trkpt lat="49.04406" lon="3.95674">
        <ele>76.9</ele>
        <time>2020-06-30T18:11:33Z</time>
      </trkpt>
      <trkpt lat="49.04406" lon="3.95673">
        <ele>76.9</ele>
        <time>2020-06-30T18:11:34Z</time>
      </trkpt>
      <trkpt lat="49.04405" lon="3.9567">
        <ele>77</ele>
        <time>2020-06-30T18:11:35Z</time>
      </trkpt>
      <trkpt lat="49.04403" lon="3.95667">
        <ele>77.1</ele>
        <time>2020-06-30T18:11:36Z</time>
      </trkpt>
      <trkpt lat="49.04402" lon="3.95665">
        <ele>77.1</ele>
        <time>2020-06-30T18:11:37Z</time>
      </trkpt>
      <trkpt lat="49.04402" lon="3.95663">
        <ele>77.2</ele>
        <time>2020-06-30T18:11:38Z</time>
      </trkpt>
      <trkpt lat="49.04401" lon="3.95662">
        <ele>77.3</ele>
        <time>2020-06-30T18:11:39Z</time>
      </trkpt>
      <trkpt lat="49.04399" lon="3.95658">
        <ele>77.4</ele>
        <time>2020-06-30T18:11:40Z</time>
      </trkpt>
      <trkpt lat="49.04398" lon="3.95657">
        <ele>77.4</ele>
        <time>2020-06-30T18:11:41Z</time>
      </trkpt>
      <trkpt lat="49.04395" lon="3.95653">
        <ele>77.5</ele>
        <time>2020-06-30T18:11:42Z</time>
      </trkpt>
      <trkpt lat="49.04394" lon="3.95652">
        <ele>77.5</ele>
        <time>2020-06-30T18:11:43Z</time>
      </trkpt>
      <trkpt lat="49.04392" lon="3.9565">
        <ele>77.6</ele>
        <time>2020-06-30T18:11:44Z</time>
      </trkpt>
      <trkpt lat="49.04391" lon="3.95649">
        <ele>77.6</ele>
        <time>2020-06-30T18:11:45Z</time>
      </trkpt>
      <trkpt lat="49.04388" lon="3.95647">
        <ele>77.7</ele>
        <time>2020-06-30T18:11:46Z</time>
      </trkpt>
      <trkpt lat="49.04387" lon="3.95646">
        <ele>77.7</ele>
        <time>2020-06-30T18:11:47Z</time>
      </trkpt>
      <trkpt lat="49.04383" lon="3.95645">
        <ele>77.8</ele>
        <time>2020-06-30T18:11:48Z</time>
      </trkpt>
      <trkpt lat="49.04381" lon="3.95642">
        <ele>77.9</ele>
        <time>2020-06-30T18:11:49Z</time>
      </trkpt>
      <trkpt lat="49.04379" lon="3.95639">
        <ele>77.9</ele>
        <time>2020-06-30T18:11:50Z</time>
      </trkpt>
      <trkpt lat="49.04376" lon="3.95636">
        <ele>78</ele>
        <time>2020-06-30T18:11:51Z</time>
      </trkpt>
      <trkpt lat="49.04376" lon="3.95636">
        <ele>78</ele>
        <time>2020-06-30T18:11:52Z</time>
      </trkpt>
      <trkpt lat="49.04373" lon="3.95635">
        <ele>78.1</ele>
        <time>2020-06-30T18:11:53Z</time>
      </trkpt>
      <trkpt lat="49.04372" lon="3.95635">
        <ele>78.1</ele>
        <time>2020-06-30T18:11:54Z</time>
      </trkpt>
      <trkpt lat="49.04372" lon="3.95632">
        <ele>78.1</ele>
        <time>2020-06-30T18:11:55Z</time>
      </trkpt>
      <trkpt lat="49.04372" lon="3.95631">
        <ele>78.1</ele>
        <time>2020-06-30T18:11:56Z</time>
      </trkpt>
      <trkpt lat="49.04373" lon="3.9563">
        <ele>78.2</ele>
        <time>2020-06-30T18:11:57Z</time>
      </trkpt>
      <trkpt lat="49.04374" lon="3.95629">
        <ele>78.2</ele>
        <time>2020-06-30T18:11:58Z</time>
      </trkpt>
      <trkpt lat="49.04374" lon="3.95629">
        <ele>78.2</ele>
        <time>2020-06-30T18:11:59Z</time>
      </trkpt>
      <trkpt lat="49.04374" lon="3.95627">
        <ele>78.2</ele>
        <time>2020-06-30T18:12:00Z</time>
      </trkpt>
      <trkpt lat="49.04375" lon="3.95624">
        <ele>78.2</ele>
        <time>2020-06-30T18:12:01Z</time>
      </trkpt>
      <trkpt lat="49.04374" lon="3.9562">
        <ele>78.3</ele>
        <time>2020-06-30T18:12:02Z</time>
      </trkpt>
      <trkpt lat="49.04374" lon="3.95618">
        <ele>78.3</ele>
        <time>2020-06-30T18:12:03Z</time>
      </trkpt>
      <trkpt lat="49.04373" lon="3.95615">
        <ele>78.4</ele>
        <time>2020-06-30T18:12:04Z</time>
      </trkpt>
      <trkpt lat="49.04373" lon="3.95613">
        <ele>78.3</ele>
        <time>2020-06-30T18:12:05Z</time>
      </trkpt>
      <trkpt lat="49.0437" lon="3.9561">
        <ele>78.3</ele>
        <time>2020-06-30T18:12:06Z</time>
      </trkpt>
      <trkpt lat="49.0437" lon="3.9561">
        <ele>78.3</ele>
        <time>2020-06-30T18:12:07Z</time>
      </trkpt>
      <trkpt lat="49.04367" lon="3.95608">
        <ele>78.3</ele>
        <time>2020-06-30T18:12:08Z</time>
      </trkpt>
      <trkpt lat="49.04366" lon="3.95607">
        <ele>78.3</ele>
        <time>2020-06-30T18:12:09Z</time>
      </trkpt>
      <trkpt lat="49.04364" lon="3.95604">
        <ele>78.3</ele>
        <time>2020-06-30T18:12:10Z</time>
      </trkpt>
      <trkpt lat="49.04363" lon="3.95602">
        <ele>78.3</ele>
        <time>2020-06-30T18:12:11Z</time>
      </trkpt>
      <trkpt lat="49.04361" lon="3.95599">
        <ele>78.2</ele>
        <time>2020-06-30T18:12:12Z</time>
      </trkpt>
      <trkpt lat="49.04358" lon="3.95595">
        <ele>78.2</ele>
        <time>2020-06-30T18:12:13Z</time>
      </trkpt>
      <trkpt lat="49.04357" lon="3.95594">
        <ele>78.2</ele>
        <time>2020-06-30T18:12:14Z</time>
      </trkpt>
      <trkpt lat="49.04354" lon="3.95593">
        <ele>78.2</ele>
        <time>2020-06-30T18:12:15Z</time>
      </trkpt>
      <trkpt lat="49.04351" lon="3.95591">
        <ele>78.1</ele>
        <time>2020-06-30T18:12:16Z</time>
      </trkpt>
      <trkpt lat="49.04346" lon="3.9559">
        <ele>78.1</ele>
        <time>2020-06-30T18:12:17Z</time>
      </trkpt>
      <trkpt lat="49.04342" lon="3.95588">
        <ele>78.1</ele>
        <time>2020-06-30T18:12:18Z</time>
      </trkpt>
      <trkpt lat="49.04339" lon="3.95587">
        <ele>78.2</ele>
        <time>2020-06-30T18:12:19Z</time>
      </trkpt>
      <trkpt lat="49.04338" lon="3.95586">
        <ele>78.2</ele>
        <time>2020-06-30T18:12:20Z</time>
      </trkpt>
      <trkpt lat="49.04336" lon="3.95585">
        <ele>78.2</ele>
        <time>2020-06-30T18:12:21Z</time>
      </trkpt>
      <trkpt lat="49.04336" lon="3.95584">
        <ele>78.2</ele>
        <time>2020-06-30T18:12:22Z</time>
      </trkpt>
      <trkpt lat="49.04334" lon="3.95582">
        <ele>78.3</ele>
        <time>2020-06-30T18:12:23Z</time>
      </trkpt>
      <trkpt lat="49.04333" lon="3.95582">
        <ele>78.3</ele>
        <time>2020-06-30T18:12:24Z</time>
      </trkpt>
      <trkpt lat="49.04333" lon="3.95581">
        <ele>78.3</ele>
        <time>2020-06-30T18:12:25Z</time>
      </trkpt>
      <trkpt lat="49.04333" lon="3.95581">
        <ele>78.3</ele>
        <time>2020-06-30T18:12:26Z</time>
      </trkpt>
      <trkpt lat="49.04332" lon="3.9558">
        <ele>78.3</ele>
        <time>2020-06-30T18:12:27Z</time>
      </trkpt>
      <trkpt lat="49.04332" lon="3.9558">
        <ele>78.3</ele>
        <time>2020-06-30T18:12:28Z</time>
      </trkpt>
      <trkpt lat="49.04332" lon="3.95579">
        <ele>78.3</ele>
        <time>2020-06-30T18:12:29Z</time>
      </trkpt>
      <trkpt lat="49.04332" lon="3.95579">
        <ele>78.3</ele>
        <time>2020-06-30T18:12:30Z</time>
      </trkpt>
      <trkpt lat="49.04331" lon="3.95579">
        <ele>78.3</ele>
        <time>2020-06-30T18:12:31Z</time>
      </trkpt>
      <trkpt lat="49.04331" lon="3.95578">
        <ele>78.3</ele>
        <time>2020-06-30T18:12:32Z</time>
      </trkpt>
      <trkpt lat="49.04331" lon="3.95578">
        <ele>78.3</ele>
        <time>2020-06-30T18:12:33Z</time>
      </trkpt>
      <trkpt lat="49.04331" lon="3.95577">
        <ele>78.3</ele>
        <time>2020-06-30T18:12:34Z</time>
      </trkpt>
      <trkpt lat="49.04329" lon="3.95576">
        <ele>78.3</ele>
        <time>2020-06-30T18:12:35Z</time>
      </trkpt>
      <trkpt lat="49.04329" lon="3.95575">
        <ele>78.4</ele>
        <time>2020-06-30T18:12:36Z</time>
      </trkpt>
      <trkpt lat="49.04329" lon="3.95574">
        <ele>78.4</ele>
        <time>2020-06-30T18:12:37Z</time>
      </trkpt>
      <trkpt lat="49.04328" lon="3.95573">
        <ele>78.4</ele>
        <time>2020-06-30T18:12:38Z</time>
      </trkpt>
      <trkpt lat="49.04327" lon="3.95571">
        <ele>78.4</ele>
        <time>2020-06-30T18:12:39Z</time>
      </trkpt>
      <trkpt lat="49.04327" lon="3.9557">
        <ele>78.4</ele>
        <time>2020-06-30T18:12:40Z</time>
      </trkpt>
      <trkpt lat="49.04326" lon="3.95569">
        <ele>78.4</ele>
        <time>2020-06-30T18:12:41Z</time>
      </trkpt>
      <trkpt lat="49.04326" lon="3.95569">
        <ele>78.4</ele>
        <time>2020-06-30T18:12:42Z</time>
      </trkpt>
      <trkpt lat="49.04325" lon="3.95568">
        <ele>78.4</ele>
        <time>2020-06-30T18:12:43Z</time>
      </trkpt>
      <trkpt lat="49.04325" lon="3.95568">
        <ele>78.4</ele>
        <time>2020-06-30T18:12:44Z</time>
      </trkpt>
      <trkpt lat="49.04325" lon="3.95568">
        <ele>78.4</ele>
        <time>2020-06-30T18:12:45Z</time>
      </trkpt>
      <trkpt lat="49.04325" lon="3.95568">
        <ele>78.4</ele>
        <time>2020-06-30T18:12:46Z</time>
      </trkpt>
      <trkpt lat="49.04325" lon="3.95568">
        <ele>78.4</ele>
        <time>2020-06-30T18:12:47Z</time>
      </trkpt>
      <trkpt lat="49.04325" lon="3.95568">
        <ele>78.4</ele>
        <time>2020-06-30T18:12:48Z</time>
      </trkpt>
      <trkpt lat="49.04325" lon="3.95568">
        <ele>78.4</ele>
        <time>2020-06-30T18:12:49Z</time>
      </trkpt>
      <trkpt lat="49.04325" lon="3.95568">
        <ele>78.4</ele>
        <time>2020-06-30T18:12:50Z</time>
      </trkpt>
      <trkpt lat="49.04325" lon="3.95568">
        <ele>78.4</ele>
        <time>2020-06-30T18:12:51Z</time>
      </trkpt>
      <trkpt lat="49.04325" lon="3.95568">
        <ele>78.4</ele>
        <time>2020-06-30T18:12:52Z</time>
      </trkpt>
      <trkpt lat="49.04329" lon="3.95579">
        <ele>78.3</ele>
        <time>2020-06-30T18:14:06Z</time>
      </trkpt>
      <trkpt lat="49.04331" lon="3.9558">
        <ele>78.3</ele>
        <time>2020-06-30T18:14:07Z</time>
      </trkpt>
      <trkpt lat="49.04334" lon="3.95582">
        <ele>78.3</ele>
        <time>2020-06-30T18:14:08Z</time>
      </trkpt>
      <trkpt lat="49.04334" lon="3.95583">
        <ele>78.3</ele>
        <time>2020-06-30T18:14:09Z</time>
      </trkpt>
      <trkpt lat="49.04337" lon="3.95586">
        <ele>78.2</ele>
        <time>2020-06-30T18:14:10Z</time>
      </trkpt>
      <trkpt lat="49.04338" lon="3.95587">
        <ele>78.2</ele>
        <time>2020-06-30T18:14:11Z</time>
      </trkpt>
      <trkpt lat="49.0434" lon="3.95592">
        <ele>78.1</ele>
        <time>2020-06-30T18:14:12Z</time>
      </trkpt>
      <trkpt lat="49.04341" lon="3.95593">
        <ele>78.1</ele>
        <time>2020-06-30T18:14:13Z</time>
      </trkpt>
      <trkpt lat="49.04344" lon="3.95598">
        <ele>78.1</ele>
        <time>2020-06-30T18:14:14Z</time>
      </trkpt>
      <trkpt lat="49.04344" lon="3.95599">
        <ele>78.1</ele>
        <time>2020-06-30T18:14:15Z</time>
      </trkpt>
      <trkpt lat="49.04347" lon="3.95603">
        <ele>78.1</ele>
        <time>2020-06-30T18:14:16Z</time>
      </trkpt>
      <trkpt lat="49.04349" lon="3.95604">
        <ele>78.2</ele>
        <time>2020-06-30T18:14:17Z</time>
      </trkpt>
      <trkpt lat="49.04352" lon="3.95608">
        <ele>78.2</ele>
        <time>2020-06-30T18:14:18Z</time>
      </trkpt>
      <trkpt lat="49.04354" lon="3.95611">
        <ele>78.2</ele>
        <time>2020-06-30T18:14:19Z</time>
      </trkpt>
      <trkpt lat="49.04356" lon="3.95615">
        <ele>78.3</ele>
        <time>2020-06-30T18:14:20Z</time>
      </trkpt>
      <trkpt lat="49.04358" lon="3.9562">
        <ele>78.3</ele>
        <time>2020-06-30T18:14:21Z</time>
      </trkpt>
      <trkpt lat="49.04359" lon="3.95625">
        <ele>78.3</ele>
        <time>2020-06-30T18:14:22Z</time>
      </trkpt>
      <trkpt lat="49.0436" lon="3.95631">
        <ele>78.4</ele>
        <time>2020-06-30T18:14:23Z</time>
      </trkpt>
      <trkpt lat="49.04361" lon="3.95636">
        <ele>78.4</ele>
        <time>2020-06-30T18:14:24Z</time>
      </trkpt>
      <trkpt lat="49.0436" lon="3.9564">
        <ele>78.3</ele>
        <time>2020-06-30T18:14:25Z</time>
      </trkpt>
      <trkpt lat="49.04359" lon="3.95645">
        <ele>78.3</ele>
        <time>2020-06-30T18:14:26Z</time>
      </trkpt>
      <trkpt lat="49.04358" lon="3.95651">
        <ele>78.3</ele>
        <time>2020-06-30T18:14:27Z</time>
      </trkpt>
      <trkpt lat="49.04358" lon="3.95654">
        <ele>78.3</ele>
        <time>2020-06-30T18:14:28Z</time>
      </trkpt>
      <trkpt lat="49.04357" lon="3.95658">
        <ele>78.3</ele>
        <time>2020-06-30T18:14:29Z</time>
      </trkpt>
      <trkpt lat="49.04356" lon="3.95663">
        <ele>78.2</ele>
        <time>2020-06-30T18:14:30Z</time>
      </trkpt>
      <trkpt lat="49.04355" lon="3.95665">
        <ele>78.1</ele>
        <time>2020-06-30T18:14:31Z</time>
      </trkpt>
      <trkpt lat="49.04354" lon="3.95669">
        <ele>78</ele>
        <time>2020-06-30T18:14:32Z</time>
      </trkpt>
      <trkpt lat="49.04352" lon="3.95673">
        <ele>78.1</ele>
        <time>2020-06-30T18:14:33Z</time>
      </trkpt>
      <trkpt lat="49.04351" lon="3.95677">
        <ele>78.1</ele>
        <time>2020-06-30T18:14:34Z</time>
      </trkpt>
      <trkpt lat="49.04349" lon="3.9568">
        <ele>78.2</ele>
        <time>2020-06-30T18:14:35Z</time>
      </trkpt>
      <trkpt lat="49.04348" lon="3.95685">
        <ele>78.2</ele>
        <time>2020-06-30T18:14:36Z</time>
      </trkpt>
      <trkpt lat="49.04346" lon="3.9569">
        <ele>78.3</ele>
        <time>2020-06-30T18:14:37Z</time>
      </trkpt>
      <trkpt lat="49.04344" lon="3.95695">
        <ele>78.4</ele>
        <time>2020-06-30T18:14:38Z</time>
      </trkpt>
      <trkpt lat="49.04342" lon="3.95701">
        <ele>78.6</ele>
        <time>2020-06-30T18:14:39Z</time>
      </trkpt>
      <trkpt lat="49.04342" lon="3.95705">
        <ele>78.6</ele>
        <time>2020-06-30T18:14:40Z</time>
      </trkpt>
      <trkpt lat="49.04342" lon="3.95712">
        <ele>78.6</ele>
        <time>2020-06-30T18:14:41Z</time>
      </trkpt>
      <trkpt lat="49.04343" lon="3.95714">
        <ele>78.6</ele>
        <time>2020-06-30T18:14:42Z</time>
      </trkpt>
      <trkpt lat="49.04345" lon="3.95719">
        <ele>78.6</ele>
        <time>2020-06-30T18:14:43Z</time>
      </trkpt>
      <trkpt lat="49.04347" lon="3.95723">
        <ele>78.5</ele>
        <time>2020-06-30T18:14:44Z</time>
      </trkpt>
      <trkpt lat="49.0435" lon="3.95727">
        <ele>78.5</ele>
        <time>2020-06-30T18:14:45Z</time>
      </trkpt>
      <trkpt lat="49.04353" lon="3.9573">
        <ele>78.5</ele>
        <time>2020-06-30T18:14:46Z</time>
      </trkpt>
      <trkpt lat="49.04356" lon="3.95731">
        <ele>78.5</ele>
        <time>2020-06-30T18:14:47Z</time>
      </trkpt>
      <trkpt lat="49.0436" lon="3.95731">
        <ele>78.3</ele>
        <time>2020-06-30T18:14:48Z</time>
      </trkpt>
      <trkpt lat="49.04363" lon="3.95731">
        <ele>78.3</ele>
        <time>2020-06-30T18:14:49Z</time>
      </trkpt>
      <trkpt lat="49.04367" lon="3.9573">
        <ele>78.2</ele>
        <time>2020-06-30T18:14:50Z</time>
      </trkpt>
      <trkpt lat="49.0437" lon="3.95729">
        <ele>78.1</ele>
        <time>2020-06-30T18:14:51Z</time>
      </trkpt>
      <trkpt lat="49.04373" lon="3.95726">
        <ele>78.1</ele>
        <time>2020-06-30T18:14:52Z</time>
      </trkpt>
      <trkpt lat="49.04376" lon="3.95723">
        <ele>78</ele>
        <time>2020-06-30T18:14:53Z</time>
      </trkpt>
      <trkpt lat="49.04378" lon="3.95719">
        <ele>78</ele>
        <time>2020-06-30T18:14:54Z</time>
      </trkpt>
      <trkpt lat="49.0438" lon="3.95715">
        <ele>77.9</ele>
        <time>2020-06-30T18:14:55Z</time>
      </trkpt>
      <trkpt lat="49.04382" lon="3.95709">
        <ele>77.9</ele>
        <time>2020-06-30T18:14:56Z</time>
      </trkpt>
      <trkpt lat="49.04382" lon="3.95707">
        <ele>77.9</ele>
        <time>2020-06-30T18:14:57Z</time>
      </trkpt>
      <trkpt lat="49.04382" lon="3.95702">
        <ele>77.8</ele>
        <time>2020-06-30T18:14:58Z</time>
      </trkpt>
      <trkpt lat="49.04382" lon="3.95697">
        <ele>77.6</ele>
        <time>2020-06-30T18:14:59Z</time>
      </trkpt>
      <trkpt lat="49.04383" lon="3.95692">
        <ele>77.6</ele>
        <time>2020-06-30T18:15:00Z</time>
      </trkpt>
      <trkpt lat="49.04384" lon="3.95691">
        <ele>77.6</ele>
        <time>2020-06-30T18:15:01Z</time>
      </trkpt>
      <trkpt lat="49.04384" lon="3.95691">
        <ele>77.5</ele>
        <time>2020-06-30T18:15:02Z</time>
      </trkpt>
      <trkpt lat="49.04386" lon="3.95692">
        <ele>77.5</ele>
        <time>2020-06-30T18:15:03Z</time>
      </trkpt>
      <trkpt lat="49.04387" lon="3.95692">
        <ele>77.5</ele>
        <time>2020-06-30T18:15:04Z</time>
      </trkpt>
      <trkpt lat="49.04388" lon="3.95693">
        <ele>77.5</ele>
        <time>2020-06-30T18:15:05Z</time>
      </trkpt>
      <trkpt lat="49.0439" lon="3.95694">
        <ele>77.5</ele>
        <time>2020-06-30T18:15:06Z</time>
      </trkpt>
      <trkpt lat="49.04393" lon="3.95696">
        <ele>77.5</ele>
        <time>2020-06-30T18:15:07Z</time>
      </trkpt>
      <trkpt lat="49.04394" lon="3.95697">
        <ele>77.4</ele>
        <time>2020-06-30T18:15:08Z</time>
      </trkpt>
      <trkpt lat="49.04396" lon="3.95698">
        <ele>77.1</ele>
        <time>2020-06-30T18:15:09Z</time>
      </trkpt>
      <trkpt lat="49.04397" lon="3.95699">
        <ele>77.1</ele>
        <time>2020-06-30T18:15:10Z</time>
      </trkpt>
      <trkpt lat="49.04401" lon="3.95701">
        <ele>77</ele>
        <time>2020-06-30T18:15:11Z</time>
      </trkpt>
      <trkpt lat="49.04401" lon="3.95702">
        <ele>77</ele>
        <time>2020-06-30T18:15:12Z</time>
      </trkpt>
      <trkpt lat="49.04405" lon="3.95705">
        <ele>76.9</ele>
        <time>2020-06-30T18:15:13Z</time>
      </trkpt>
      <trkpt lat="49.04406" lon="3.95706">
        <ele>76.9</ele>
        <time>2020-06-30T18:15:14Z</time>
      </trkpt>
      <trkpt lat="49.04409" lon="3.95707">
        <ele>76.8</ele>
        <time>2020-06-30T18:15:15Z</time>
      </trkpt>
      <trkpt lat="49.04409" lon="3.95707">
        <ele>76.8</ele>
        <time>2020-06-30T18:15:16Z</time>
      </trkpt>
      <trkpt lat="49.04412" lon="3.9571">
        <ele>76.7</ele>
        <time>2020-06-30T18:15:17Z</time>
      </trkpt>
      <trkpt lat="49.04412" lon="3.95711">
        <ele>76.7</ele>
        <time>2020-06-30T18:15:18Z</time>
      </trkpt>
      <trkpt lat="49.04413" lon="3.95713">
        <ele>76.6</ele>
        <time>2020-06-30T18:15:19Z</time>
      </trkpt>
      <trkpt lat="49.04415" lon="3.95715">
        <ele>76.6</ele>
        <time>2020-06-30T18:15:20Z</time>
      </trkpt>
      <trkpt lat="49.04416" lon="3.95716">
        <ele>76.5</ele>
        <time>2020-06-30T18:15:21Z</time>
      </trkpt>
      <trkpt lat="49.04416" lon="3.95717">
        <ele>76.5</ele>
        <time>2020-06-30T18:15:22Z</time>
      </trkpt>
      <trkpt lat="49.04417" lon="3.95718">
        <ele>76.5</ele>
        <time>2020-06-30T18:15:23Z</time>
      </trkpt>
      <trkpt lat="49.04417" lon="3.95719">
        <ele>76.5</ele>
        <time>2020-06-30T18:15:24Z</time>
      </trkpt>
      <trkpt lat="49.04418" lon="3.95721">
        <ele>76.5</ele>
        <time>2020-06-30T18:15:25Z</time>
      </trkpt>
      <trkpt lat="49.04419" lon="3.95723">
        <ele>76.4</ele>
        <time>2020-06-30T18:15:26Z</time>
      </trkpt>
      <trkpt lat="49.0442" lon="3.95725">
        <ele>76.4</ele>
        <time>2020-06-30T18:15:27Z</time>
      </trkpt>
      <trkpt lat="49.04422" lon="3.95727">
        <ele>76.3</ele>
        <time>2020-06-30T18:15:28Z</time>
      </trkpt>
      <trkpt lat="49.04422" lon="3.95728">
        <ele>76.3</ele>
        <time>2020-06-30T18:15:29Z</time>
      </trkpt>
      <trkpt lat="49.04422" lon="3.95729">
        <ele>76.3</ele>
        <time>2020-06-30T18:15:30Z</time>
      </trkpt>
      <trkpt lat="49.04423" lon="3.95729">
        <ele>76.3</ele>
        <time>2020-06-30T18:15:31Z</time>
      </trkpt>
      <trkpt lat="49.04423" lon="3.95731">
        <ele>76.3</ele>
        <time>2020-06-30T18:15:32Z</time>
      </trkpt>
      <trkpt lat="49.04423" lon="3.95733">
        <ele>76.3</ele>
        <time>2020-06-30T18:15:33Z</time>
      </trkpt>
      <trkpt lat="49.04423" lon="3.95734">
        <ele>76.2</ele>
        <time>2020-06-30T18:15:34Z</time>
      </trkpt>
      <trkpt lat="49.04423" lon="3.95735">
        <ele>76.2</ele>
        <time>2020-06-30T18:15:35Z</time>
      </trkpt>
      <trkpt lat="49.04423" lon="3.95736">
        <ele>76.2</ele>
        <time>2020-06-30T18:15:36Z</time>
      </trkpt>
      <trkpt lat="49.04424" lon="3.95737">
        <ele>76.2</ele>
        <time>2020-06-30T18:15:37Z</time>
      </trkpt>
      <trkpt lat="49.04424" lon="3.95738">
        <ele>76.2</ele>
        <time>2020-06-30T18:15:38Z</time>
      </trkpt>
      <trkpt lat="49.04424" lon="3.95739">
        <ele>76.2</ele>
        <time>2020-06-30T18:15:39Z</time>
      </trkpt>
      <trkpt lat="49.04424" lon="3.95739">
        <ele>76.2</ele>
        <time>2020-06-30T18:15:40Z</time>
      </trkpt>
      <trkpt lat="49.04425" lon="3.95739">
        <ele>76.2</ele>
        <time>2020-06-30T18:15:41Z</time>
      </trkpt>
      <trkpt lat="49.04425" lon="3.95738">
        <ele>76.2</ele>
        <time>2020-06-30T18:15:42Z</time>
      </trkpt>
      <trkpt lat="49.04425" lon="3.95738">
        <ele>76.1</ele>
        <time>2020-06-30T18:15:43Z</time>
      </trkpt>
      <trkpt lat="49.04425" lon="3.95738">
        <ele>76.1</ele>
        <time>2020-06-30T18:15:44Z</time>
      </trkpt>
      <trkpt lat="49.04425" lon="3.95738">
        <ele>76.1</ele>
        <time>2020-06-30T18:15:45Z</time>
      </trkpt>
      <trkpt lat="49.04425" lon="3.95738">
        <ele>76.1</ele>
        <time>2020-06-30T18:15:46Z</time>
      </trkpt>
      <trkpt lat="49.04425" lon="3.95738">
        <ele>76.1</ele>
        <time>2020-06-30T18:15:47Z</time>
      </trkpt>
      <trkpt lat="49.04425" lon="3.95738">
        <ele>76.1</ele>
        <time>2020-06-30T18:15:48Z</time>
      </trkpt>
      <trkpt lat="49.04426" lon="3.95739">
        <ele>76.1</ele>
        <time>2020-06-30T18:15:49Z</time>
      </trkpt>
      <trkpt lat="49.04444" lon="3.95738">
        <ele>75.8</ele>
        <time>2020-06-30T18:19:15Z</time>
      </trkpt>
      <trkpt lat="49.04442" lon="3.95739">
        <ele>75.7</ele>
        <time>2020-06-30T18:19:16Z</time>
      </trkpt>
      <trkpt lat="49.04441" lon="3.95739">
        <ele>75.8</ele>
        <time>2020-06-30T18:19:17Z</time>
      </trkpt>
      <trkpt lat="49.04439" lon="3.9574">
        <ele>75.8</ele>
        <time>2020-06-30T18:19:18Z</time>
      </trkpt>
      <trkpt lat="49.0444" lon="3.95741">
        <ele>75.7</ele>
        <time>2020-06-30T18:19:19Z</time>
      </trkpt>
      <trkpt lat="49.0444" lon="3.95742">
        <ele>75.7</ele>
        <time>2020-06-30T18:19:20Z</time>
      </trkpt>
      <trkpt lat="49.04441" lon="3.95742">
        <ele>75.7</ele>
        <time>2020-06-30T18:19:21Z</time>
      </trkpt>
      <trkpt lat="49.0444" lon="3.95744">
        <ele>75.7</ele>
        <time>2020-06-30T18:19:22Z</time>
      </trkpt>
      <trkpt lat="49.0444" lon="3.95746">
        <ele>75.7</ele>
        <time>2020-06-30T18:19:23Z</time>
      </trkpt>
      <trkpt lat="49.04441" lon="3.95747">
        <ele>75.7</ele>
        <time>2020-06-30T18:19:24Z</time>
      </trkpt>
      <trkpt lat="49.04441" lon="3.95748">
        <ele>75.7</ele>
        <time>2020-06-30T18:19:25Z</time>
      </trkpt>
      <trkpt lat="49.04442" lon="3.95748">
        <ele>75.7</ele>
        <time>2020-06-30T18:19:26Z</time>
      </trkpt>
      <trkpt lat="49.04442" lon="3.95748">
        <ele>75.7</ele>
        <time>2020-06-30T18:19:27Z</time>
      </trkpt>
      <trkpt lat="49.04442" lon="3.95747">
        <ele>75.7</ele>
        <time>2020-06-30T18:19:28Z</time>
      </trkpt>
      <trkpt lat="49.04442" lon="3.95747">
        <ele>75.7</ele>
        <time>2020-06-30T18:19:29Z</time>
      </trkpt>
      <trkpt lat="49.04443" lon="3.95746">
        <ele>75.7</ele>
        <time>2020-06-30T18:19:30Z</time>
      </trkpt>
      <trkpt lat="49.04443" lon="3.95745">
        <ele>75.7</ele>
        <time>2020-06-30T18:19:31Z</time>
      </trkpt>
      <trkpt lat="49.04443" lon="3.95745">
        <ele>75.7</ele>
        <time>2020-06-30T18:23:46Z</time>
      </trkpt>
      <trkpt lat="49.04443" lon="3.95744">
        <ele>75.7</ele>
        <time>2020-06-30T18:23:47Z</time>
      </trkpt>
      <trkpt lat="49.04443" lon="3.95743">
        <ele>75.7</ele>
        <time>2020-06-30T18:23:48Z</time>
      </trkpt>
      <trkpt lat="49.04444" lon="3.95743">
        <ele>75.7</ele>
        <time>2020-06-30T18:23:49Z</time>
      </trkpt>
      <trkpt lat="49.04444" lon="3.95742">
        <ele>75.7</ele>
        <time>2020-06-30T18:23:50Z</time>
      </trkpt>
      <trkpt lat="49.04444" lon="3.95742">
        <ele>75.7</ele>
        <time>2020-06-30T18:23:51Z</time>
      </trkpt>
      <trkpt lat="49.04444" lon="3.95741">
        <ele>75.7</ele>
        <time>2020-06-30T18:23:52Z</time>
      </trkpt>
      <trkpt lat="49.04444" lon="3.9574">
        <ele>75.7</ele>
        <time>2020-06-30T18:23:53Z</time>
      </trkpt>
      <trkpt lat="49.04444" lon="3.9574">
        <ele>75.7</ele>
        <time>2020-06-30T18:23:54Z</time>
      </trkpt>
      <trkpt lat="49.04445" lon="3.95739">
        <ele>75.7</ele>
        <time>2020-06-30T18:23:55Z</time>
      </trkpt>
      <trkpt lat="49.04445" lon="3.95738">
        <ele>75.7</ele>
        <time>2020-06-30T18:23:56Z</time>
      </trkpt>
      <trkpt lat="49.04445" lon="3.95738">
        <ele>75.7</ele>
        <time>2020-06-30T18:24:33Z</time>
      </trkpt>
      <trkpt lat="49.04445" lon="3.95737">
        <ele>75.7</ele>
        <time>2020-06-30T18:24:34Z</time>
      </trkpt>
      <trkpt lat="49.04445" lon="3.95737">
        <ele>75.7</ele>
        <time>2020-06-30T18:24:35Z</time>
      </trkpt>
      <trkpt lat="49.04446" lon="3.95736">
        <ele>75.7</ele>
        <time>2020-06-30T18:24:36Z</time>
      </trkpt>
      <trkpt lat="49.04446" lon="3.95735">
        <ele>75.7</ele>
        <time>2020-06-30T18:24:37Z</time>
      </trkpt>
      <trkpt lat="49.04446" lon="3.95735">
        <ele>75.7</ele>
        <time>2020-06-30T18:24:38Z</time>
      </trkpt>
      <trkpt lat="49.04445" lon="3.95736">
        <ele>75.7</ele>
        <time>2020-06-30T18:24:39Z</time>
      </trkpt>
      <trkpt lat="49.04446" lon="3.95734">
        <ele>75.7</ele>
        <time>2020-06-30T18:24:40Z</time>
      </trkpt>
      <trkpt lat="49.04446" lon="3.95734">
        <ele>75.7</ele>
        <time>2020-06-30T18:24:41Z</time>
      </trkpt>
      <trkpt lat="49.04446" lon="3.95733">
        <ele>75.7</ele>
        <time>2020-06-30T18:24:42Z</time>
      </trkpt>
      <trkpt lat="49.04446" lon="3.95733">
        <ele>75.7</ele>
        <time>2020-06-30T18:24:43Z</time>
      </trkpt>
      <trkpt lat="49.04446" lon="3.95733">
        <ele>75.7</ele>
        <time>2020-06-30T18:24:44Z</time>
      </trkpt>
      <trkpt lat="49.04446" lon="3.95732">
        <ele>75.7</ele>
        <time>2020-06-30T18:24:45Z</time>
      </trkpt>
      <trkpt lat="49.04446" lon="3.95732">
        <ele>75.7</ele>
        <time>2020-06-30T18:24:46Z</time>
      </trkpt>
      <trkpt lat="49.04446" lon="3.95732">
        <ele>75.8</ele>
        <time>2020-06-30T18:24:47Z</time>
      </trkpt>
      <trkpt lat="49.04446" lon="3.95732">
        <ele>75.8</ele>
        <time>2020-06-30T18:24:48Z</time>
      </trkpt>
      <trkpt lat="49.04446" lon="3.95732">
        <ele>75.8</ele>
        <time>2020-06-30T18:24:49Z</time>
      </trkpt>
      <trkpt lat="49.04446" lon="3.95732">
        <ele>75.8</ele>
        <time>2020-06-30T18:24:50Z</time>
      </trkpt>
      <trkpt lat="49.04446" lon="3.95731">
        <ele>75.8</ele>
        <time>2020-06-30T18:24:51Z</time>
      </trkpt>
      <trkpt lat="49.04446" lon="3.9573">
        <ele>75.8</ele>
        <time>2020-06-30T18:24:52Z</time>
      </trkpt>
      <trkpt lat="49.04447" lon="3.95728">
        <ele>75.8</ele>
        <time>2020-06-30T18:24:53Z</time>
      </trkpt>
      <trkpt lat="49.04448" lon="3.95727">
        <ele>75.8</ele>
        <time>2020-06-30T18:24:54Z</time>
      </trkpt>
      <trkpt lat="49.04449" lon="3.95726">
        <ele>75.8</ele>
        <time>2020-06-30T18:24:55Z</time>
      </trkpt>
      <trkpt lat="49.0445" lon="3.95726">
        <ele>75.8</ele>
        <time>2020-06-30T18:24:56Z</time>
      </trkpt>
      <trkpt lat="49.04451" lon="3.95725">
        <ele>75.9</ele>
        <time>2020-06-30T18:24:57Z</time>
      </trkpt>
      <trkpt lat="49.04452" lon="3.95724">
        <ele>75.9</ele>
        <time>2020-06-30T18:24:58Z</time>
      </trkpt>
      <trkpt lat="49.04452" lon="3.95723">
        <ele>75.9</ele>
        <time>2020-06-30T18:24:59Z</time>
      </trkpt>
      <trkpt lat="49.04453" lon="3.95723">
        <ele>75.9</ele>
        <time>2020-06-30T18:25:00Z</time>
      </trkpt>
      <trkpt lat="49.04454" lon="3.95722">
        <ele>75.9</ele>
        <time>2020-06-30T18:25:01Z</time>
      </trkpt>
      <trkpt lat="49.04455" lon="3.95721">
        <ele>75.9</ele>
        <time>2020-06-30T18:25:02Z</time>
      </trkpt>
      <trkpt lat="49.04456" lon="3.9572">
        <ele>75.9</ele>
        <time>2020-06-30T18:25:03Z</time>
      </trkpt>
      <trkpt lat="49.04457" lon="3.95719">
        <ele>75.9</ele>
        <time>2020-06-30T18:25:04Z</time>
      </trkpt>
      <trkpt lat="49.04458" lon="3.95718">
        <ele>76</ele>
        <time>2020-06-30T18:25:05Z</time>
      </trkpt>
      <trkpt lat="49.04459" lon="3.95717">
        <ele>76</ele>
        <time>2020-06-30T18:25:06Z</time>
      </trkpt>
      <trkpt lat="49.04459" lon="3.95717">
        <ele>76</ele>
        <time>2020-06-30T18:25:07Z</time>
      </trkpt>
      <trkpt lat="49.04457" lon="3.95718">
        <ele>76</ele>
        <time>2020-06-30T18:25:08Z</time>
      </trkpt>
      <trkpt lat="49.04456" lon="3.95719">
        <ele>76</ele>
        <time>2020-06-30T18:25:09Z</time>
      </trkpt>
      <trkpt lat="49.04455" lon="3.9572">
        <ele>76</ele>
        <time>2020-06-30T18:25:10Z</time>
      </trkpt>
      <trkpt lat="49.04454" lon="3.95721">
        <ele>76</ele>
        <time>2020-06-30T18:25:11Z</time>
      </trkpt>
      <trkpt lat="49.04453" lon="3.95721">
        <ele>76.1</ele>
        <time>2020-06-30T18:25:12Z</time>
      </trkpt>
      <trkpt lat="49.04452" lon="3.95722">
        <ele>76.1</ele>
        <time>2020-06-30T18:25:13Z</time>
      </trkpt>
      <trkpt lat="49.04451" lon="3.95723">
        <ele>76.1</ele>
        <time>2020-06-30T18:25:14Z</time>
      </trkpt>
      <trkpt lat="49.0445" lon="3.95724">
        <ele>76.1</ele>
        <time>2020-06-30T18:25:15Z</time>
      </trkpt>
      <trkpt lat="49.04448" lon="3.95724">
        <ele>76.1</ele>
        <time>2020-06-30T18:25:16Z</time>
      </trkpt>
      <trkpt lat="49.04447" lon="3.95725">
        <ele>76.1</ele>
        <time>2020-06-30T18:25:17Z</time>
      </trkpt>
      <trkpt lat="49.04446" lon="3.95726">
        <ele>76.1</ele>
        <time>2020-06-30T18:25:18Z</time>
      </trkpt>
      <trkpt lat="49.04445" lon="3.95727">
        <ele>76.2</ele>
        <time>2020-06-30T18:25:19Z</time>
      </trkpt>
      <trkpt lat="49.04444" lon="3.95728">
        <ele>76.2</ele>
        <time>2020-06-30T18:25:57Z</time>
      </trkpt>
      <trkpt lat="49.04443" lon="3.95728">
        <ele>76.2</ele>
        <time>2020-06-30T18:25:58Z</time>
      </trkpt>
      <trkpt lat="49.04442" lon="3.95729">
        <ele>76.2</ele>
        <time>2020-06-30T18:25:59Z</time>
      </trkpt>
      <trkpt lat="49.04441" lon="3.9573">
        <ele>76.2</ele>
        <time>2020-06-30T18:26:00Z</time>
      </trkpt>
      <trkpt lat="49.0444" lon="3.95731">
        <ele>76.2</ele>
        <time>2020-06-30T18:26:01Z</time>
      </trkpt>
      <trkpt lat="49.04438" lon="3.95731">
        <ele>76.3</ele>
        <time>2020-06-30T18:26:02Z</time>
      </trkpt>
      <trkpt lat="49.04437" lon="3.95732">
        <ele>76.3</ele>
        <time>2020-06-30T18:26:03Z</time>
      </trkpt>
      <trkpt lat="49.04436" lon="3.95733">
        <ele>76.3</ele>
        <time>2020-06-30T18:26:04Z</time>
      </trkpt>
      <trkpt lat="49.04435" lon="3.95734">
        <ele>76.3</ele>
        <time>2020-06-30T18:26:05Z</time>
      </trkpt>
      <trkpt lat="49.04434" lon="3.95735">
        <ele>76.3</ele>
        <time>2020-06-30T18:26:06Z</time>
      </trkpt>
      <trkpt lat="49.04433" lon="3.95735">
        <ele>76.3</ele>
        <time>2020-06-30T18:26:07Z</time>
      </trkpt>
      <trkpt lat="49.04432" lon="3.95736">
        <ele>76.4</ele>
        <time>2020-06-30T19:21:51Z</time>
      </trkpt>
      <trkpt lat="49.04431" lon="3.95737">
        <ele>76.4</ele>
        <time>2020-06-30T19:21:52Z</time>
      </trkpt>
      <trkpt lat="49.04427" lon="3.95734">
        <ele>76.4</ele>
        <time>2020-06-30T19:21:53Z</time>
      </trkpt>
      <trkpt lat="49.04426" lon="3.95734">
        <ele>76.4</ele>
        <time>2020-06-30T19:21:54Z</time>
      </trkpt>
      <trkpt lat="49.04423" lon="3.95733">
        <ele>76.5</ele>
        <time>2020-06-30T19:21:55Z</time>
      </trkpt>
      <trkpt lat="49.04419" lon="3.9573">
        <ele>76.5</ele>
        <time>2020-06-30T19:21:56Z</time>
      </trkpt>
      <trkpt lat="49.04418" lon="3.95729">
        <ele>76.6</ele>
        <time>2020-06-30T19:21:57Z</time>
      </trkpt>
      <trkpt lat="49.04415" lon="3.95726">
        <ele>76.6</ele>
        <time>2020-06-30T19:21:58Z</time>
      </trkpt>
      <trkpt lat="49.04414" lon="3.95725">
        <ele>76.6</ele>
        <time>2020-06-30T19:21:59Z</time>
      </trkpt>
      <trkpt lat="49.04411" lon="3.95724">
        <ele>76.7</ele>
        <time>2020-06-30T19:22:00Z</time>
      </trkpt>
      <trkpt lat="49.04407" lon="3.95722">
        <ele>76.7</ele>
        <time>2020-06-30T19:22:01Z</time>
      </trkpt>
      <trkpt lat="49.04404" lon="3.95719">
        <ele>76.8</ele>
        <time>2020-06-30T19:22:02Z</time>
      </trkpt>
      <trkpt lat="49.04401" lon="3.95717">
        <ele>76.9</ele>
        <time>2020-06-30T19:22:03Z</time>
      </trkpt>
      <trkpt lat="49.04397" lon="3.95715">
        <ele>76.9</ele>
        <time>2020-06-30T19:22:04Z</time>
      </trkpt>
      <trkpt lat="49.04394" lon="3.95714">
        <ele>77</ele>
        <time>2020-06-30T19:22:05Z</time>
      </trkpt>
      <trkpt lat="49.04391" lon="3.95712">
        <ele>77</ele>
        <time>2020-06-30T19:22:06Z</time>
      </trkpt>
      <trkpt lat="49.04388" lon="3.95713">
        <ele>77.5</ele>
        <time>2020-06-30T19:22:07Z</time>
      </trkpt>
      <trkpt lat="49.04385" lon="3.95712">
        <ele>77.5</ele>
        <time>2020-06-30T19:22:08Z</time>
      </trkpt>
      <trkpt lat="49.04384" lon="3.95711">
        <ele>77.5</ele>
        <time>2020-06-30T19:22:09Z</time>
      </trkpt>
      <trkpt lat="49.04381" lon="3.9571">
        <ele>77.5</ele>
        <time>2020-06-30T19:22:10Z</time>
      </trkpt>
      <trkpt lat="49.0438" lon="3.9571">
        <ele>77.6</ele>
        <time>2020-06-30T19:22:11Z</time>
      </trkpt>
      <trkpt lat="49.04377" lon="3.95709">
        <ele>77.6</ele>
        <time>2020-06-30T19:22:12Z</time>
      </trkpt>
      <trkpt lat="49.04376" lon="3.95709">
        <ele>77.6</ele>
        <time>2020-06-30T19:22:13Z</time>
      </trkpt>
      <trkpt lat="49.04375" lon="3.95708">
        <ele>77.6</ele>
        <time>2020-06-30T19:22:14Z</time>
      </trkpt>
      <trkpt lat="49.04373" lon="3.95707">
        <ele>77.6</ele>
        <time>2020-06-30T19:22:15Z</time>
      </trkpt>
      <trkpt lat="49.0437" lon="3.95705">
        <ele>77.6</ele>
        <time>2020-06-30T19:22:16Z</time>
      </trkpt>
      <trkpt lat="49.04369" lon="3.95705">
        <ele>77.7</ele>
        <time>2020-06-30T19:22:17Z</time>
      </trkpt>
      <trkpt lat="49.04368" lon="3.95704">
        <ele>77.7</ele>
        <time>2020-06-30T19:22:18Z</time>
      </trkpt>
      <trkpt lat="49.04366" lon="3.95704">
        <ele>77.7</ele>
        <time>2020-06-30T19:22:19Z</time>
      </trkpt>
      <trkpt lat="49.04367" lon="3.95703">
        <ele>77.7</ele>
        <time>2020-06-30T19:22:20Z</time>
      </trkpt>
      <trkpt lat="49.04368" lon="3.957">
        <ele>77.7</ele>
        <time>2020-06-30T19:22:21Z</time>
      </trkpt>
      <trkpt lat="49.04369" lon="3.95698">
        <ele>77.7</ele>
        <time>2020-06-30T19:22:22Z</time>
      </trkpt>
      <trkpt lat="49.04369" lon="3.95697">
        <ele>77.7</ele>
        <time>2020-06-30T19:22:23Z</time>
      </trkpt>
      <trkpt lat="49.04369" lon="3.95695">
        <ele>77.7</ele>
        <time>2020-06-30T19:22:24Z</time>
      </trkpt>
      <trkpt lat="49.04369" lon="3.95693">
        <ele>77.7</ele>
        <time>2020-06-30T19:22:25Z</time>
      </trkpt>
      <trkpt lat="49.04369" lon="3.95692">
        <ele>77.7</ele>
        <time>2020-06-30T19:22:26Z</time>
      </trkpt>
      <trkpt lat="49.0437" lon="3.9569">
        <ele>77.7</ele>
        <time>2020-06-30T19:22:27Z</time>
      </trkpt>
      <trkpt lat="49.0437" lon="3.95688">
        <ele>77.7</ele>
        <time>2020-06-30T19:22:28Z</time>
      </trkpt>
      <trkpt lat="49.0437" lon="3.95687">
        <ele>77.7</ele>
        <time>2020-06-30T19:22:29Z</time>
      </trkpt>
      <trkpt lat="49.0437" lon="3.95685">
        <ele>77.7</ele>
        <time>2020-06-30T19:22:30Z</time>
      </trkpt>
      <trkpt lat="49.04371" lon="3.95683">
        <ele>77.8</ele>
        <time>2020-06-30T19:22:31Z</time>
      </trkpt>
      <trkpt lat="49.04371" lon="3.95682">
        <ele>77.8</ele>
        <time>2020-06-30T19:22:32Z</time>
      </trkpt>
      <trkpt lat="49.04371" lon="3.9568">
        <ele>77.8</ele>
        <time>2020-06-30T19:22:43Z</time>
      </trkpt>
      <trkpt lat="49.04371" lon="3.95678">
        <ele>77.8</ele>
        <time>2020-06-30T19:22:44Z</time>
      </trkpt>
      <trkpt lat="49.04371" lon="3.95674">
        <ele>78</ele>
        <time>2020-06-30T19:22:45Z</time>
      </trkpt>
      <trkpt lat="49.04371" lon="3.95672">
        <ele>78</ele>
        <time>2020-06-30T19:22:46Z</time>
      </trkpt>
      <trkpt lat="49.04374" lon="3.95668">
        <ele>78.1</ele>
        <time>2020-06-30T19:22:47Z</time>
      </trkpt>
      <trkpt lat="49.04374" lon="3.95667">
        <ele>78.3</ele>
        <time>2020-06-30T19:22:48Z</time>
      </trkpt>
      <trkpt lat="49.04375" lon="3.95665">
        <ele>78.3</ele>
        <time>2020-06-30T19:22:49Z</time>
      </trkpt>
      <trkpt lat="49.04376" lon="3.95661">
        <ele>78.3</ele>
        <time>2020-06-30T19:22:50Z</time>
      </trkpt>
      <trkpt lat="49.04376" lon="3.9566">
        <ele>78.3</ele>
        <time>2020-06-30T19:22:51Z</time>
      </trkpt>
      <trkpt lat="49.04376" lon="3.95655">
        <ele>78.3</ele>
        <time>2020-06-30T19:22:52Z</time>
      </trkpt>
      <trkpt lat="49.04376" lon="3.95651">
        <ele>78.3</ele>
        <time>2020-06-30T19:22:53Z</time>
      </trkpt>
      <trkpt lat="49.04377" lon="3.95649">
        <ele>78.3</ele>
        <time>2020-06-30T19:22:54Z</time>
      </trkpt>
      <trkpt lat="49.04377" lon="3.95644">
        <ele>78.4</ele>
        <time>2020-06-30T19:22:55Z</time>
      </trkpt>
      <trkpt lat="49.04379" lon="3.95639">
        <ele>78.4</ele>
        <time>2020-06-30T19:22:56Z</time>
      </trkpt>
      <trkpt lat="49.0438" lon="3.95635">
        <ele>78.4</ele>
        <time>2020-06-30T19:22:57Z</time>
      </trkpt>
      <trkpt lat="49.04381" lon="3.95629">
        <ele>78.3</ele>
        <time>2020-06-30T19:22:58Z</time>
      </trkpt>
      <trkpt lat="49.04381" lon="3.95627">
        <ele>78.3</ele>
        <time>2020-06-30T19:22:59Z</time>
      </trkpt>
      <trkpt lat="49.04382" lon="3.95623">
        <ele>78.3</ele>
        <time>2020-06-30T19:23:00Z</time>
      </trkpt>
      <trkpt lat="49.04383" lon="3.95618">
        <ele>78.2</ele>
        <time>2020-06-30T19:23:01Z</time>
      </trkpt>
      <trkpt lat="49.04384" lon="3.95617">
        <ele>78.2</ele>
        <time>2020-06-30T19:23:02Z</time>
      </trkpt>
      <trkpt lat="49.04385" lon="3.95612">
        <ele>78.2</ele>
        <time>2020-06-30T19:23:03Z</time>
      </trkpt>
      <trkpt lat="49.04385" lon="3.95607">
        <ele>78.1</ele>
        <time>2020-06-30T19:23:04Z</time>
      </trkpt>
      <trkpt lat="49.04385" lon="3.95603">
        <ele>78.1</ele>
        <time>2020-06-30T19:23:05Z</time>
      </trkpt>
      <trkpt lat="49.04388" lon="3.95598">
        <ele>78</ele>
        <time>2020-06-30T19:23:06Z</time>
      </trkpt>
      <trkpt lat="49.04388" lon="3.95597">
        <ele>78</ele>
        <time>2020-06-30T19:23:07Z</time>
      </trkpt>
      <trkpt lat="49.04389" lon="3.95593">
        <ele>78</ele>
        <time>2020-06-30T19:23:08Z</time>
      </trkpt>
      <trkpt lat="49.0439" lon="3.95591">
        <ele>77.9</ele>
        <time>2020-06-30T19:23:09Z</time>
      </trkpt>
      <trkpt lat="49.04391" lon="3.95589">
        <ele>77.9</ele>
        <time>2020-06-30T19:23:10Z</time>
      </trkpt>
      <trkpt lat="49.04393" lon="3.95585">
        <ele>77.8</ele>
        <time>2020-06-30T19:23:11Z</time>
      </trkpt>
      <trkpt lat="49.04393" lon="3.95584">
        <ele>77.8</ele>
        <time>2020-06-30T19:23:12Z</time>
      </trkpt>
      <trkpt lat="49.04395" lon="3.95578">
        <ele>77.7</ele>
        <time>2020-06-30T19:23:13Z</time>
      </trkpt>
      <trkpt lat="49.04395" lon="3.95576">
        <ele>77.7</ele>
        <time>2020-06-30T19:23:14Z</time>
      </trkpt>
      <trkpt lat="49.04397" lon="3.9557">
        <ele>77.6</ele>
        <time>2020-06-30T19:23:15Z</time>
      </trkpt>
      <trkpt lat="49.04398" lon="3.95566">
        <ele>77.6</ele>
        <time>2020-06-30T19:23:16Z</time>
      </trkpt>
      <trkpt lat="49.04399" lon="3.95561">
        <ele>77.5</ele>
        <time>2020-06-30T19:23:17Z</time>
      </trkpt>
      <trkpt lat="49.044" lon="3.95559">
        <ele>77.5</ele>
        <time>2020-06-30T19:23:18Z</time>
      </trkpt>
      <trkpt lat="49.04402" lon="3.95555">
        <ele>77.4</ele>
        <time>2020-06-30T19:23:19Z</time>
      </trkpt>
      <trkpt lat="49.04403" lon="3.9555">
        <ele>77.4</ele>
        <time>2020-06-30T19:23:20Z</time>
      </trkpt>
      <trkpt lat="49.04405" lon="3.95546">
        <ele>77.4</ele>
        <time>2020-06-30T19:23:21Z</time>
      </trkpt>
      <trkpt lat="49.04407" lon="3.95542">
        <ele>77.3</ele>
        <time>2020-06-30T19:23:22Z</time>
      </trkpt>
      <trkpt lat="49.04408" lon="3.95536">
        <ele>77.3</ele>
        <time>2020-06-30T19:23:23Z</time>
      </trkpt>
      <trkpt lat="49.0441" lon="3.95531">
        <ele>77.2</ele>
        <time>2020-06-30T19:23:24Z</time>
      </trkpt>
      <trkpt lat="49.0441" lon="3.95528">
        <ele>77.2</ele>
        <time>2020-06-30T19:23:25Z</time>
      </trkpt>
      <trkpt lat="49.04412" lon="3.95525">
        <ele>77.2</ele>
        <time>2020-06-30T19:23:26Z</time>
      </trkpt>
      <trkpt lat="49.04414" lon="3.9552">
        <ele>77.1</ele>
        <time>2020-06-30T19:23:27Z</time>
      </trkpt>
      <trkpt lat="49.04416" lon="3.95515">
        <ele>77.1</ele>
        <time>2020-06-30T19:23:28Z</time>
      </trkpt>
      <trkpt lat="49.04417" lon="3.95514">
        <ele>77</ele>
        <time>2020-06-30T19:23:29Z</time>
      </trkpt>
      <trkpt lat="49.04418" lon="3.9551">
        <ele>77</ele>
        <time>2020-06-30T19:23:30Z</time>
      </trkpt>
      <trkpt lat="49.04419" lon="3.95504">
        <ele>76.9</ele>
        <time>2020-06-30T19:23:31Z</time>
      </trkpt>
      <trkpt lat="49.04419" lon="3.95498">
        <ele>76.9</ele>
        <time>2020-06-30T19:23:32Z</time>
      </trkpt>
      <trkpt lat="49.0442" lon="3.95496">
        <ele>76.9</ele>
        <time>2020-06-30T19:23:33Z</time>
      </trkpt>
      <trkpt lat="49.0442" lon="3.95486">
        <ele>76.8</ele>
        <time>2020-06-30T19:23:34Z</time>
      </trkpt>
      <trkpt lat="49.04419" lon="3.9548">
        <ele>76.7</ele>
        <time>2020-06-30T19:23:35Z</time>
      </trkpt>
      <trkpt lat="49.0442" lon="3.95475">
        <ele>76.7</ele>
        <time>2020-06-30T19:23:36Z</time>
      </trkpt>
      <trkpt lat="49.04421" lon="3.95473">
        <ele>76.7</ele>
        <time>2020-06-30T19:23:37Z</time>
      </trkpt>
      <trkpt lat="49.04424" lon="3.95472">
        <ele>76.6</ele>
        <time>2020-06-30T19:23:38Z</time>
      </trkpt>
      <trkpt lat="49.04425" lon="3.95469">
        <ele>76.6</ele>
        <time>2020-06-30T19:23:39Z</time>
      </trkpt>
      <trkpt lat="49.04428" lon="3.95464">
        <ele>76.2</ele>
        <time>2020-06-30T19:23:40Z</time>
      </trkpt>
      <trkpt lat="49.04431" lon="3.95465">
        <ele>76.2</ele>
        <time>2020-06-30T19:23:41Z</time>
      </trkpt>
      <trkpt lat="49.04432" lon="3.95465">
        <ele>76.2</ele>
        <time>2020-06-30T19:23:42Z</time>
      </trkpt>
      <trkpt lat="49.04435" lon="3.95467">
        <ele>76.1</ele>
        <time>2020-06-30T19:23:43Z</time>
      </trkpt>
      <trkpt lat="49.04436" lon="3.95466">
        <ele>76.1</ele>
        <time>2020-06-30T19:23:44Z</time>
      </trkpt>
      <trkpt lat="49.04439" lon="3.95465">
        <ele>76.1</ele>
        <time>2020-06-30T19:23:45Z</time>
      </trkpt>
      <trkpt lat="49.0444" lon="3.95465">
        <ele>76</ele>
        <time>2020-06-30T19:23:46Z</time>
      </trkpt>
      <trkpt lat="49.04443" lon="3.95464">
        <ele>76</ele>
        <time>2020-06-30T19:23:47Z</time>
      </trkpt>
      <trkpt lat="49.04444" lon="3.95464">
        <ele>76</ele>
        <time>2020-06-30T19:23:48Z</time>
      </trkpt>
      <trkpt lat="49.04447" lon="3.95464">
        <ele>75.9</ele>
        <time>2020-06-30T19:23:49Z</time>
      </trkpt>
      <trkpt lat="49.04448" lon="3.95465">
        <ele>75.9</ele>
        <time>2020-06-30T19:23:50Z</time>
      </trkpt>
      <trkpt lat="49.04451" lon="3.95463">
        <ele>75.8</ele>
        <time>2020-06-30T19:23:51Z</time>
      </trkpt>
      <trkpt lat="49.04453" lon="3.95463">
        <ele>75.8</ele>
        <time>2020-06-30T19:23:52Z</time>
      </trkpt>
      <trkpt lat="49.04456" lon="3.95463">
        <ele>75.7</ele>
        <time>2020-06-30T19:23:53Z</time>
      </trkpt>
      <trkpt lat="49.04458" lon="3.95463">
        <ele>75.7</ele>
        <time>2020-06-30T19:23:54Z</time>
      </trkpt>
      <trkpt lat="49.04462" lon="3.95463">
        <ele>75.6</ele>
        <time>2020-06-30T19:23:55Z</time>
      </trkpt>
      <trkpt lat="49.04466" lon="3.95462">
        <ele>75.5</ele>
        <time>2020-06-30T19:23:56Z</time>
      </trkpt>
      <trkpt lat="49.04468" lon="3.95462">
        <ele>75.5</ele>
        <time>2020-06-30T19:23:57Z</time>
      </trkpt>
      <trkpt lat="49.04472" lon="3.95461">
        <ele>75.4</ele>
        <time>2020-06-30T19:23:58Z</time>
      </trkpt>
      <trkpt lat="49.04473" lon="3.95461">
        <ele>75.4</ele>
        <time>2020-06-30T19:23:59Z</time>
      </trkpt>
      <trkpt lat="49.04476" lon="3.95462">
        <ele>75.3</ele>
        <time>2020-06-30T19:24:00Z</time>
      </trkpt>
      <trkpt lat="49.04479" lon="3.9546">
        <ele>75.3</ele>
        <time>2020-06-30T19:24:01Z</time>
      </trkpt>
      <trkpt lat="49.0448" lon="3.95459">
        <ele>75</ele>
        <time>2020-06-30T19:24:02Z</time>
      </trkpt>
      <trkpt lat="49.0448" lon="3.95456">
        <ele>75</ele>
        <time>2020-06-30T19:24:03Z</time>
      </trkpt>
      <trkpt lat="49.04481" lon="3.95454">
        <ele>75</ele>
        <time>2020-06-30T19:24:04Z</time>
      </trkpt>
      <trkpt lat="49.04482" lon="3.9545">
        <ele>74.9</ele>
        <time>2020-06-30T19:24:05Z</time>
      </trkpt>
      <trkpt lat="49.04483" lon="3.95449">
        <ele>74.9</ele>
        <time>2020-06-30T19:24:06Z</time>
      </trkpt>
      <trkpt lat="49.04483" lon="3.95444">
        <ele>74.9</ele>
        <time>2020-06-30T19:24:07Z</time>
      </trkpt>
      <trkpt lat="49.04484" lon="3.95442">
        <ele>74.8</ele>
        <time>2020-06-30T19:24:08Z</time>
      </trkpt>
      <trkpt lat="49.04483" lon="3.95438">
        <ele>74.8</ele>
        <time>2020-06-30T19:24:09Z</time>
      </trkpt>
      <trkpt lat="49.04483" lon="3.95435">
        <ele>74.8</ele>
        <time>2020-06-30T19:24:10Z</time>
      </trkpt>
      <trkpt lat="49.04484" lon="3.95432">
        <ele>74.7</ele>
        <time>2020-06-30T19:24:11Z</time>
      </trkpt>
      <trkpt lat="49.04485" lon="3.9543">
        <ele>74.7</ele>
        <time>2020-06-30T19:24:12Z</time>
      </trkpt>
      <trkpt lat="49.04486" lon="3.95428">
        <ele>74.7</ele>
        <time>2020-06-30T19:24:13Z</time>
      </trkpt>
      <trkpt lat="49.04488" lon="3.95425">
        <ele>74.6</ele>
        <time>2020-06-30T19:24:14Z</time>
      </trkpt>
      <trkpt lat="49.04489" lon="3.95424">
        <ele>74.6</ele>
        <time>2020-06-30T19:24:15Z</time>
      </trkpt>
      <trkpt lat="49.04491" lon="3.9542">
        <ele>74.6</ele>
        <time>2020-06-30T19:24:16Z</time>
      </trkpt>
      <trkpt lat="49.04492" lon="3.95414">
        <ele>74.5</ele>
        <time>2020-06-30T19:24:17Z</time>
      </trkpt>
      <trkpt lat="49.04494" lon="3.95411">
        <ele>74.5</ele>
        <time>2020-06-30T19:24:18Z</time>
      </trkpt>
      <trkpt lat="49.04496" lon="3.95408">
        <ele>74.4</ele>
        <time>2020-06-30T19:24:19Z</time>
      </trkpt>
      <trkpt lat="49.04498" lon="3.95404">
        <ele>74.4</ele>
        <time>2020-06-30T19:24:20Z</time>
      </trkpt>
      <trkpt lat="49.045" lon="3.954">
        <ele>74.3</ele>
        <time>2020-06-30T19:24:21Z</time>
      </trkpt>
      <trkpt lat="49.04501" lon="3.95399">
        <ele>74.3</ele>
        <time>2020-06-30T19:24:22Z</time>
      </trkpt>
      <trkpt lat="49.04504" lon="3.95396">
        <ele>74.2</ele>
        <time>2020-06-30T19:24:23Z</time>
      </trkpt>
      <trkpt lat="49.04506" lon="3.95392">
        <ele>74.1</ele>
        <time>2020-06-30T19:24:24Z</time>
      </trkpt>
      <trkpt lat="49.04508" lon="3.95388">
        <ele>74.1</ele>
        <time>2020-06-30T19:24:25Z</time>
      </trkpt>
      <trkpt lat="49.0451" lon="3.95384">
        <ele>74</ele>
        <time>2020-06-30T19:24:26Z</time>
      </trkpt>
      <trkpt lat="49.04513" lon="3.9538">
        <ele>74</ele>
        <time>2020-06-30T19:24:27Z</time>
      </trkpt>
      <trkpt lat="49.04513" lon="3.95378">
        <ele>73.9</ele>
        <time>2020-06-30T19:24:28Z</time>
      </trkpt>
      <trkpt lat="49.04515" lon="3.95375">
        <ele>73.9</ele>
        <time>2020-06-30T19:24:29Z</time>
      </trkpt>
      <trkpt lat="49.04517" lon="3.9537">
        <ele>73.8</ele>
        <time>2020-06-30T19:24:30Z</time>
      </trkpt>
      <trkpt lat="49.04518" lon="3.95368">
        <ele>73.8</ele>
        <time>2020-06-30T19:24:31Z</time>
      </trkpt>
      <trkpt lat="49.04519" lon="3.95364">
        <ele>73.7</ele>
        <time>2020-06-30T19:24:32Z</time>
      </trkpt>
      <trkpt lat="49.04521" lon="3.9536">
        <ele>73.7</ele>
        <time>2020-06-30T19:24:33Z</time>
      </trkpt>
      <trkpt lat="49.04521" lon="3.9535">
        <ele>73.6</ele>
        <time>2020-06-30T19:24:34Z</time>
      </trkpt>
      <trkpt lat="49.0452" lon="3.95344">
        <ele>73.5</ele>
        <time>2020-06-30T19:24:35Z</time>
      </trkpt>
      <trkpt lat="49.04521" lon="3.9534">
        <ele>73.5</ele>
        <time>2020-06-30T19:24:36Z</time>
      </trkpt>
      <trkpt lat="49.04524" lon="3.95335">
        <ele>73.5</ele>
        <time>2020-06-30T19:24:37Z</time>
      </trkpt>
      <trkpt lat="49.04526" lon="3.95331">
        <ele>73.5</ele>
        <time>2020-06-30T19:24:38Z</time>
      </trkpt>
      <trkpt lat="49.04529" lon="3.95328">
        <ele>73.4</ele>
        <time>2020-06-30T19:24:39Z</time>
      </trkpt>
      <trkpt lat="49.04531" lon="3.95315">
        <ele>73.4</ele>
        <time>2020-06-30T19:24:40Z</time>
      </trkpt>
      <trkpt lat="49.04533" lon="3.95311">
        <ele>73.4</ele>
        <time>2020-06-30T19:24:41Z</time>
      </trkpt>
      <trkpt lat="49.04535" lon="3.95308">
        <ele>73.4</ele>
        <time>2020-06-30T19:24:42Z</time>
      </trkpt>
      <trkpt lat="49.04536" lon="3.95291">
        <ele>73.6</ele>
        <time>2020-06-30T19:24:43Z</time>
      </trkpt>
      <trkpt lat="49.04539" lon="3.95287">
        <ele>73.6</ele>
        <time>2020-06-30T19:24:44Z</time>
      </trkpt>
      <trkpt lat="49.04541" lon="3.95284">
        <ele>73.6</ele>
        <time>2020-06-30T19:24:45Z</time>
      </trkpt>
      <trkpt lat="49.04544" lon="3.95279">
        <ele>73.6</ele>
        <time>2020-06-30T19:24:46Z</time>
      </trkpt>
      <trkpt lat="49.04546" lon="3.95276">
        <ele>73.6</ele>
        <time>2020-06-30T19:24:47Z</time>
      </trkpt>
      <trkpt lat="49.0455" lon="3.95271">
        <ele>73.7</ele>
        <time>2020-06-30T19:24:48Z</time>
      </trkpt>
      <trkpt lat="49.04553" lon="3.95269">
        <ele>73.7</ele>
        <time>2020-06-30T19:24:49Z</time>
      </trkpt>
      <trkpt lat="49.04555" lon="3.95269">
        <ele>73.5</ele>
        <time>2020-06-30T19:24:50Z</time>
      </trkpt>
      <trkpt lat="49.04558" lon="3.95271">
        <ele>73.4</ele>
        <time>2020-06-30T19:24:51Z</time>
      </trkpt>
      <trkpt lat="49.04559" lon="3.95272">
        <ele>73.4</ele>
        <time>2020-06-30T19:24:52Z</time>
      </trkpt>
      <trkpt lat="49.04562" lon="3.95275">
        <ele>73.3</ele>
        <time>2020-06-30T19:24:53Z</time>
      </trkpt>
      <trkpt lat="49.04565" lon="3.9528">
        <ele>73.2</ele>
        <time>2020-06-30T19:24:54Z</time>
      </trkpt>
      <trkpt lat="49.04567" lon="3.95284">
        <ele>73.1</ele>
        <time>2020-06-30T19:24:55Z</time>
      </trkpt>
      <trkpt lat="49.0457" lon="3.95288">
        <ele>73.1</ele>
        <time>2020-06-30T19:24:56Z</time>
      </trkpt>
      <trkpt lat="49.04572" lon="3.95291">
        <ele>73</ele>
        <time>2020-06-30T19:24:57Z</time>
      </trkpt>
      <trkpt lat="49.04575" lon="3.95294">
        <ele>72.9</ele>
        <time>2020-06-30T19:24:58Z</time>
      </trkpt>
      <trkpt lat="49.04576" lon="3.95294">
        <ele>72.9</ele>
        <time>2020-06-30T19:24:59Z</time>
      </trkpt>
      <trkpt lat="49.04579" lon="3.95298">
        <ele>72.8</ele>
        <time>2020-06-30T19:25:00Z</time>
      </trkpt>
      <trkpt lat="49.04583" lon="3.953">
        <ele>72.8</ele>
        <time>2020-06-30T19:25:01Z</time>
      </trkpt>
      <trkpt lat="49.04586" lon="3.95301">
        <ele>72.8</ele>
        <time>2020-06-30T19:25:02Z</time>
      </trkpt>
      <trkpt lat="49.04589" lon="3.95303">
        <ele>72.8</ele>
        <time>2020-06-30T19:25:03Z</time>
      </trkpt>
      <trkpt lat="49.04591" lon="3.95303">
        <ele>72.9</ele>
        <time>2020-06-30T19:25:04Z</time>
      </trkpt>
      <trkpt lat="49.04593" lon="3.95307">
        <ele>72.9</ele>
        <time>2020-06-30T19:25:05Z</time>
      </trkpt>
      <trkpt lat="49.04595" lon="3.95312">
        <ele>72.9</ele>
        <time>2020-06-30T19:25:06Z</time>
      </trkpt>
      <trkpt lat="49.04595" lon="3.95318">
        <ele>72.9</ele>
        <time>2020-06-30T19:25:07Z</time>
      </trkpt>
      <trkpt lat="49.04597" lon="3.95323">
        <ele>73</ele>
        <time>2020-06-30T19:25:08Z</time>
      </trkpt>
      <trkpt lat="49.04597" lon="3.95329">
        <ele>73</ele>
        <time>2020-06-30T19:25:09Z</time>
      </trkpt>
      <trkpt lat="49.04598" lon="3.95333">
        <ele>73</ele>
        <time>2020-06-30T19:25:10Z</time>
      </trkpt>
      <trkpt lat="49.04599" lon="3.95337">
        <ele>73</ele>
        <time>2020-06-30T19:25:11Z</time>
      </trkpt>
      <trkpt lat="49.046" lon="3.95336">
        <ele>73</ele>
        <time>2020-06-30T19:25:12Z</time>
      </trkpt>
      <trkpt lat="49.04603" lon="3.95332">
        <ele>73</ele>
        <time>2020-06-30T19:25:13Z</time>
      </trkpt>
      <trkpt lat="49.04606" lon="3.95332">
        <ele>73.8</ele>
        <time>2020-06-30T19:25:14Z</time>
      </trkpt>
      <trkpt lat="49.0461" lon="3.95332">
        <ele>73.8</ele>
        <time>2020-06-30T19:25:15Z</time>
      </trkpt>
      <trkpt lat="49.04613" lon="3.95334">
        <ele>73.8</ele>
        <time>2020-06-30T19:25:16Z</time>
      </trkpt>
      <trkpt lat="49.04618" lon="3.95333">
        <ele>73.8</ele>
        <time>2020-06-30T19:25:17Z</time>
      </trkpt>
      <trkpt lat="49.04622" lon="3.95331">
        <ele>73.8</ele>
        <time>2020-06-30T19:25:18Z</time>
      </trkpt>
      <trkpt lat="49.04625" lon="3.95328">
        <ele>73.8</ele>
        <time>2020-06-30T19:25:19Z</time>
      </trkpt>
      <trkpt lat="49.04626" lon="3.95324">
        <ele>73.8</ele>
        <time>2020-06-30T19:25:20Z</time>
      </trkpt>
      <trkpt lat="49.04628" lon="3.95321">
        <ele>73.8</ele>
        <time>2020-06-30T19:25:21Z</time>
      </trkpt>
      <trkpt lat="49.04629" lon="3.95316">
        <ele>73.8</ele>
        <time>2020-06-30T19:25:22Z</time>
      </trkpt>
      <trkpt lat="49.04632" lon="3.95312">
        <ele>73.8</ele>
        <time>2020-06-30T19:25:23Z</time>
      </trkpt>
      <trkpt lat="49.04634" lon="3.95308">
        <ele>73.9</ele>
        <time>2020-06-30T19:25:24Z</time>
      </trkpt>
      <trkpt lat="49.04633" lon="3.95303">
        <ele>73.9</ele>
        <time>2020-06-30T19:25:25Z</time>
      </trkpt>
      <trkpt lat="49.04633" lon="3.95301">
        <ele>73.9</ele>
        <time>2020-06-30T19:25:26Z</time>
      </trkpt>
      <trkpt lat="49.04632" lon="3.95297">
        <ele>73.9</ele>
        <time>2020-06-30T19:25:27Z</time>
      </trkpt>
      <trkpt lat="49.04631" lon="3.9529">
        <ele>73.7</ele>
        <time>2020-06-30T19:25:28Z</time>
      </trkpt>
      <trkpt lat="49.0463" lon="3.95285">
        <ele>73.5</ele>
        <time>2020-06-30T19:25:29Z</time>
      </trkpt>
      <trkpt lat="49.0463" lon="3.9528">
        <ele>73.4</ele>
        <time>2020-06-30T19:25:30Z</time>
      </trkpt>
      <trkpt lat="49.04629" lon="3.95276">
        <ele>73.3</ele>
        <time>2020-06-30T19:25:31Z</time>
      </trkpt>
      <trkpt lat="49.04629" lon="3.95275">
        <ele>73.2</ele>
        <time>2020-06-30T19:25:32Z</time>
      </trkpt>
      <trkpt lat="49.04629" lon="3.9527">
        <ele>73.1</ele>
        <time>2020-06-30T19:25:33Z</time>
      </trkpt>
      <trkpt lat="49.04628" lon="3.95268">
        <ele>73</ele>
        <time>2020-06-30T19:25:34Z</time>
      </trkpt>
      <trkpt lat="49.04627" lon="3.95266">
        <ele>73</ele>
        <time>2020-06-30T19:25:35Z</time>
      </trkpt>
      <trkpt lat="49.04626" lon="3.95261">
        <ele>72.9</ele>
        <time>2020-06-30T19:25:36Z</time>
      </trkpt>
      <trkpt lat="49.04626" lon="3.95259">
        <ele>72.9</ele>
        <time>2020-06-30T19:25:37Z</time>
      </trkpt>
      <trkpt lat="49.04626" lon="3.95255">
        <ele>72.9</ele>
        <time>2020-06-30T19:25:38Z</time>
      </trkpt>
      <trkpt lat="49.04627" lon="3.95248">
        <ele>72.9</ele>
        <time>2020-06-30T19:25:39Z</time>
      </trkpt>
      <trkpt lat="49.04627" lon="3.95246">
        <ele>72.9</ele>
        <time>2020-06-30T19:25:40Z</time>
      </trkpt>
      <trkpt lat="49.04626" lon="3.95241">
        <ele>73</ele>
        <time>2020-06-30T19:25:41Z</time>
      </trkpt>
      <trkpt lat="49.04628" lon="3.95237">
        <ele>73</ele>
        <time>2020-06-30T19:25:42Z</time>
      </trkpt>
      <trkpt lat="49.04628" lon="3.95233">
        <ele>73</ele>
        <time>2020-06-30T19:25:43Z</time>
      </trkpt>
      <trkpt lat="49.04628" lon="3.95228">
        <ele>73</ele>
        <time>2020-06-30T19:25:44Z</time>
      </trkpt>
      <trkpt lat="49.04628" lon="3.95222">
        <ele>73</ele>
        <time>2020-06-30T19:25:45Z</time>
      </trkpt>
      <trkpt lat="49.04628" lon="3.95216">
        <ele>73.1</ele>
        <time>2020-06-30T19:25:46Z</time>
      </trkpt>
      <trkpt lat="49.04628" lon="3.95211">
        <ele>73.1</ele>
        <time>2020-06-30T19:25:47Z</time>
      </trkpt>
      <trkpt lat="49.04628" lon="3.95206">
        <ele>73.2</ele>
        <time>2020-06-30T19:25:48Z</time>
      </trkpt>
      <trkpt lat="49.04629" lon="3.95201">
        <ele>73.2</ele>
        <time>2020-06-30T19:25:49Z</time>
      </trkpt>
      <trkpt lat="49.04632" lon="3.95197">
        <ele>73.3</ele>
        <time>2020-06-30T19:25:50Z</time>
      </trkpt>
      <trkpt lat="49.04633" lon="3.95195">
        <ele>73.4</ele>
        <time>2020-06-30T19:25:51Z</time>
      </trkpt>
      <trkpt lat="49.04634" lon="3.95189">
        <ele>73.5</ele>
        <time>2020-06-30T19:25:52Z</time>
      </trkpt>
      <trkpt lat="49.04635" lon="3.95184">
        <ele>73.6</ele>
        <time>2020-06-30T19:25:53Z</time>
      </trkpt>
      <trkpt lat="49.04635" lon="3.95177">
        <ele>73.8</ele>
        <time>2020-06-30T19:25:54Z</time>
      </trkpt>
      <trkpt lat="49.04637" lon="3.95172">
        <ele>73.9</ele>
        <time>2020-06-30T19:25:55Z</time>
      </trkpt>
      <trkpt lat="49.04638" lon="3.95165">
        <ele>74.1</ele>
        <time>2020-06-30T19:25:56Z</time>
      </trkpt>
      <trkpt lat="49.04641" lon="3.9516">
        <ele>74.3</ele>
        <time>2020-06-30T19:25:57Z</time>
      </trkpt>
      <trkpt lat="49.04644" lon="3.95156">
        <ele>74.4</ele>
        <time>2020-06-30T19:25:58Z</time>
      </trkpt>
      <trkpt lat="49.04644" lon="3.95151">
        <ele>74.5</ele>
        <time>2020-06-30T19:25:59Z</time>
      </trkpt>
      <trkpt lat="49.04646" lon="3.95147">
        <ele>74.7</ele>
        <time>2020-06-30T19:26:00Z</time>
      </trkpt>
      <trkpt lat="49.04647" lon="3.95142">
        <ele>74.8</ele>
        <time>2020-06-30T19:26:01Z</time>
      </trkpt>
      <trkpt lat="49.04647" lon="3.95136">
        <ele>75.2</ele>
        <time>2020-06-30T19:26:02Z</time>
      </trkpt>
      <trkpt lat="49.04648" lon="3.95131">
        <ele>75.2</ele>
        <time>2020-06-30T19:26:03Z</time>
      </trkpt>
      <trkpt lat="49.04647" lon="3.95126">
        <ele>75.3</ele>
        <time>2020-06-30T19:26:04Z</time>
      </trkpt>
      <trkpt lat="49.04646" lon="3.95121">
        <ele>75.3</ele>
        <time>2020-06-30T19:26:05Z</time>
      </trkpt>
      <trkpt lat="49.04645" lon="3.95114">
        <ele>75.4</ele>
        <time>2020-06-30T19:26:06Z</time>
      </trkpt>
      <trkpt lat="49.04645" lon="3.9511">
        <ele>75.5</ele>
        <time>2020-06-30T19:26:07Z</time>
      </trkpt>
      <trkpt lat="49.04644" lon="3.95105">
        <ele>75.6</ele>
        <time>2020-06-30T19:26:08Z</time>
      </trkpt>
      <trkpt lat="49.04645" lon="3.951">
        <ele>75.7</ele>
        <time>2020-06-30T19:26:09Z</time>
      </trkpt>
      <trkpt lat="49.04644" lon="3.95093">
        <ele>75.7</ele>
        <time>2020-06-30T19:26:10Z</time>
      </trkpt>
      <trkpt lat="49.04644" lon="3.95087">
        <ele>75.7</ele>
        <time>2020-06-30T19:26:11Z</time>
      </trkpt>
      <trkpt lat="49.04645" lon="3.95082">
        <ele>75.7</ele>
        <time>2020-06-30T19:26:12Z</time>
      </trkpt>
      <trkpt lat="49.04645" lon="3.9508">
        <ele>75.7</ele>
        <time>2020-06-30T19:26:13Z</time>
      </trkpt>
      <trkpt lat="49.04646" lon="3.95076">
        <ele>75.8</ele>
        <time>2020-06-30T19:26:14Z</time>
      </trkpt>
      <trkpt lat="49.04648" lon="3.95072">
        <ele>75.9</ele>
        <time>2020-06-30T19:26:15Z</time>
      </trkpt>
      <trkpt lat="49.0465" lon="3.95069">
        <ele>76</ele>
        <time>2020-06-30T19:26:16Z</time>
      </trkpt>
      <trkpt lat="49.04652" lon="3.95064">
        <ele>76</ele>
        <time>2020-06-30T19:26:17Z</time>
      </trkpt>
      <trkpt lat="49.04655" lon="3.9506">
        <ele>76.1</ele>
        <time>2020-06-30T19:26:18Z</time>
      </trkpt>
      <trkpt lat="49.04658" lon="3.95056">
        <ele>76.2</ele>
        <time>2020-06-30T19:26:19Z</time>
      </trkpt>
      <trkpt lat="49.0466" lon="3.95053">
        <ele>76.3</ele>
        <time>2020-06-30T19:26:20Z</time>
      </trkpt>
      <trkpt lat="49.04663" lon="3.95049">
        <ele>76.3</ele>
        <time>2020-06-30T19:26:21Z</time>
      </trkpt>
      <trkpt lat="49.04666" lon="3.95044">
        <ele>76.4</ele>
        <time>2020-06-30T19:26:22Z</time>
      </trkpt>
      <trkpt lat="49.04669" lon="3.95039">
        <ele>76.5</ele>
        <time>2020-06-30T19:26:23Z</time>
      </trkpt>
      <trkpt lat="49.04671" lon="3.95034">
        <ele>76.6</ele>
        <time>2020-06-30T19:26:24Z</time>
      </trkpt>
      <trkpt lat="49.04675" lon="3.95028">
        <ele>76.8</ele>
        <time>2020-06-30T19:26:25Z</time>
      </trkpt>
      <trkpt lat="49.04678" lon="3.95023">
        <ele>76.9</ele>
        <time>2020-06-30T19:26:26Z</time>
      </trkpt>
      <trkpt lat="49.0468" lon="3.95017">
        <ele>77</ele>
        <time>2020-06-30T19:26:27Z</time>
      </trkpt>
      <trkpt lat="49.04682" lon="3.95011">
        <ele>77.2</ele>
        <time>2020-06-30T19:26:28Z</time>
      </trkpt>
      <trkpt lat="49.04684" lon="3.95005">
        <ele>77.3</ele>
        <time>2020-06-30T19:26:29Z</time>
      </trkpt>
      <trkpt lat="49.04686" lon="3.94999">
        <ele>77.5</ele>
        <time>2020-06-30T19:26:30Z</time>
      </trkpt>
      <trkpt lat="49.04688" lon="3.94992">
        <ele>77.6</ele>
        <time>2020-06-30T19:26:31Z</time>
      </trkpt>
      <trkpt lat="49.04689" lon="3.94988">
        <ele>77.7</ele>
        <time>2020-06-30T19:26:32Z</time>
      </trkpt>
      <trkpt lat="49.0469" lon="3.94983">
        <ele>77.9</ele>
        <time>2020-06-30T19:26:33Z</time>
      </trkpt>
      <trkpt lat="49.04692" lon="3.94977">
        <ele>78</ele>
        <time>2020-06-30T19:26:34Z</time>
      </trkpt>
      <trkpt lat="49.04694" lon="3.94971">
        <ele>78.2</ele>
        <time>2020-06-30T19:26:35Z</time>
      </trkpt>
      <trkpt lat="49.04696" lon="3.94967">
        <ele>78.3</ele>
        <time>2020-06-30T19:26:36Z</time>
      </trkpt>
      <trkpt lat="49.04697" lon="3.94962">
        <ele>78.5</ele>
        <time>2020-06-30T19:26:37Z</time>
      </trkpt>
      <trkpt lat="49.04699" lon="3.94957">
        <ele>78.6</ele>
        <time>2020-06-30T19:26:38Z</time>
      </trkpt>
      <trkpt lat="49.04701" lon="3.94953">
        <ele>78.8</ele>
        <time>2020-06-30T19:26:39Z</time>
      </trkpt>
      <trkpt lat="49.04702" lon="3.94948">
        <ele>79</ele>
        <time>2020-06-30T19:26:40Z</time>
      </trkpt>
      <trkpt lat="49.04703" lon="3.94943">
        <ele>79.2</ele>
        <time>2020-06-30T19:26:41Z</time>
      </trkpt>
      <trkpt lat="49.04704" lon="3.94939">
        <ele>79.4</ele>
        <time>2020-06-30T19:26:42Z</time>
      </trkpt>
      <trkpt lat="49.04705" lon="3.94934">
        <ele>79.5</ele>
        <time>2020-06-30T19:26:43Z</time>
      </trkpt>
      <trkpt lat="49.04706" lon="3.94929">
        <ele>79.7</ele>
        <time>2020-06-30T19:26:44Z</time>
      </trkpt>
      <trkpt lat="49.04708" lon="3.94924">
        <ele>79.9</ele>
        <time>2020-06-30T19:26:45Z</time>
      </trkpt>
      <trkpt lat="49.04708" lon="3.94922">
        <ele>80</ele>
        <time>2020-06-30T19:26:46Z</time>
      </trkpt>
      <trkpt lat="49.0471" lon="3.94917">
        <ele>80.2</ele>
        <time>2020-06-30T19:26:47Z</time>
      </trkpt>
      <trkpt lat="49.04711" lon="3.94912">
        <ele>80.4</ele>
        <time>2020-06-30T19:26:48Z</time>
      </trkpt>
      <trkpt lat="49.04712" lon="3.94906">
        <ele>80.7</ele>
        <time>2020-06-30T19:26:49Z</time>
      </trkpt>
      <trkpt lat="49.04712" lon="3.94904">
        <ele>80.8</ele>
        <time>2020-06-30T19:26:50Z</time>
      </trkpt>
      <trkpt lat="49.04715" lon="3.94899">
        <ele>80.9</ele>
        <time>2020-06-30T19:26:51Z</time>
      </trkpt>
      <trkpt lat="49.04715" lon="3.94897">
        <ele>81</ele>
        <time>2020-06-30T19:26:52Z</time>
      </trkpt>
      <trkpt lat="49.04717" lon="3.94893">
        <ele>81.2</ele>
        <time>2020-06-30T19:26:53Z</time>
      </trkpt>
      <trkpt lat="49.04718" lon="3.94891">
        <ele>81.2</ele>
        <time>2020-06-30T19:26:54Z</time>
      </trkpt>
      <trkpt lat="49.0472" lon="3.94887">
        <ele>81.4</ele>
        <time>2020-06-30T19:26:55Z</time>
      </trkpt>
      <trkpt lat="49.04721" lon="3.94882">
        <ele>81.5</ele>
        <time>2020-06-30T19:26:56Z</time>
      </trkpt>
      <trkpt lat="49.04722" lon="3.94881">
        <ele>81.6</ele>
        <time>2020-06-30T19:26:57Z</time>
      </trkpt>
      <trkpt lat="49.04723" lon="3.94877">
        <ele>82.1</ele>
        <time>2020-06-30T19:26:58Z</time>
      </trkpt>
      <trkpt lat="49.04725" lon="3.94873">
        <ele>82.4</ele>
        <time>2020-06-30T19:26:59Z</time>
      </trkpt>
      <trkpt lat="49.04727" lon="3.94868">
        <ele>82.7</ele>
        <time>2020-06-30T19:27:00Z</time>
      </trkpt>
      <trkpt lat="49.04728" lon="3.94866">
        <ele>82.9</ele>
        <time>2020-06-30T19:27:01Z</time>
      </trkpt>
      <trkpt lat="49.0473" lon="3.94861">
        <ele>83.3</ele>
        <time>2020-06-30T19:27:02Z</time>
      </trkpt>
      <trkpt lat="49.04731" lon="3.9486">
        <ele>83.4</ele>
        <time>2020-06-30T19:27:03Z</time>
      </trkpt>
      <trkpt lat="49.04733" lon="3.94856">
        <ele>83.7</ele>
        <time>2020-06-30T19:27:04Z</time>
      </trkpt>
      <trkpt lat="49.04733" lon="3.94854">
        <ele>83.8</ele>
        <time>2020-06-30T19:27:05Z</time>
      </trkpt>
      <trkpt lat="49.04734" lon="3.9485">
        <ele>84.1</ele>
        <time>2020-06-30T19:27:06Z</time>
      </trkpt>
      <trkpt lat="49.04737" lon="3.94846">
        <ele>84.4</ele>
        <time>2020-06-30T19:27:07Z</time>
      </trkpt>
      <trkpt lat="49.04738" lon="3.94841">
        <ele>84.8</ele>
        <time>2020-06-30T19:27:08Z</time>
      </trkpt>
      <trkpt lat="49.04739" lon="3.94839">
        <ele>84.9</ele>
        <time>2020-06-30T19:27:09Z</time>
      </trkpt>
      <trkpt lat="49.04741" lon="3.94833">
        <ele>85.4</ele>
        <time>2020-06-30T19:27:10Z</time>
      </trkpt>
      <trkpt lat="49.04741" lon="3.94831">
        <ele>85.5</ele>
        <time>2020-06-30T19:27:11Z</time>
      </trkpt>
      <trkpt lat="49.04744" lon="3.94827">
        <ele>85.6</ele>
        <time>2020-06-30T19:27:12Z</time>
      </trkpt>
      <trkpt lat="49.04744" lon="3.94825">
        <ele>85.6</ele>
        <time>2020-06-30T19:27:13Z</time>
      </trkpt>
      <trkpt lat="49.04746" lon="3.94822">
        <ele>85.7</ele>
        <time>2020-06-30T19:27:14Z</time>
      </trkpt>
      <trkpt lat="49.04749" lon="3.94819">
        <ele>85.8</ele>
        <time>2020-06-30T19:27:15Z</time>
      </trkpt>
      <trkpt lat="49.04751" lon="3.94815">
        <ele>85.9</ele>
        <time>2020-06-30T19:27:16Z</time>
      </trkpt>
      <trkpt lat="49.04753" lon="3.94811">
        <ele>86</ele>
        <time>2020-06-30T19:27:17Z</time>
      </trkpt>
      <trkpt lat="49.04754" lon="3.9481">
        <ele>86.1</ele>
        <time>2020-06-30T19:27:18Z</time>
      </trkpt>
      <trkpt lat="49.04755" lon="3.94809">
        <ele>86.2</ele>
        <time>2020-06-30T19:27:19Z</time>
      </trkpt>
      <trkpt lat="49.04755" lon="3.94806">
        <ele>86.4</ele>
        <time>2020-06-30T19:27:20Z</time>
      </trkpt>
      <trkpt lat="49.04757" lon="3.94802">
        <ele>86.6</ele>
        <time>2020-06-30T19:27:21Z</time>
      </trkpt>
      <trkpt lat="49.04758" lon="3.948">
        <ele>86.7</ele>
        <time>2020-06-30T19:27:22Z</time>
      </trkpt>
      <trkpt lat="49.04759" lon="3.94796">
        <ele>87</ele>
        <time>2020-06-30T19:27:23Z</time>
      </trkpt>
      <trkpt lat="49.0476" lon="3.94794">
        <ele>87.1</ele>
        <time>2020-06-30T19:27:24Z</time>
      </trkpt>
      <trkpt lat="49.04762" lon="3.94789">
        <ele>87.4</ele>
        <time>2020-06-30T19:27:25Z</time>
      </trkpt>
      <trkpt lat="49.04762" lon="3.94788">
        <ele>87.5</ele>
        <time>2020-06-30T19:27:26Z</time>
      </trkpt>
      <trkpt lat="49.04764" lon="3.94784">
        <ele>87.7</ele>
        <time>2020-06-30T19:27:27Z</time>
      </trkpt>
      <trkpt lat="49.04767" lon="3.94782">
        <ele>88</ele>
        <time>2020-06-30T19:27:28Z</time>
      </trkpt>
      <trkpt lat="49.04768" lon="3.94782">
        <ele>88.1</ele>
        <time>2020-06-30T19:27:29Z</time>
      </trkpt>
      <trkpt lat="49.04769" lon="3.94777">
        <ele>88.4</ele>
        <time>2020-06-30T19:27:30Z</time>
      </trkpt>
      <trkpt lat="49.0477" lon="3.94775">
        <ele>88.5</ele>
        <time>2020-06-30T19:27:31Z</time>
      </trkpt>
      <trkpt lat="49.04772" lon="3.94771">
        <ele>88.7</ele>
        <time>2020-06-30T19:27:32Z</time>
      </trkpt>
      <trkpt lat="49.04774" lon="3.94767">
        <ele>89</ele>
        <time>2020-06-30T19:27:33Z</time>
      </trkpt>
      <trkpt lat="49.04775" lon="3.94765">
        <ele>89.2</ele>
        <time>2020-06-30T19:27:34Z</time>
      </trkpt>
      <trkpt lat="49.04776" lon="3.9476">
        <ele>89.4</ele>
        <time>2020-06-30T19:27:35Z</time>
      </trkpt>
      <trkpt lat="49.04778" lon="3.94755">
        <ele>89.7</ele>
        <time>2020-06-30T19:27:36Z</time>
      </trkpt>
      <trkpt lat="49.04778" lon="3.94753">
        <ele>89.9</ele>
        <time>2020-06-30T19:27:37Z</time>
      </trkpt>
      <trkpt lat="49.04779" lon="3.94749">
        <ele>90.1</ele>
        <time>2020-06-30T19:27:38Z</time>
      </trkpt>
      <trkpt lat="49.0478" lon="3.94744">
        <ele>90.4</ele>
        <time>2020-06-30T19:27:39Z</time>
      </trkpt>
      <trkpt lat="49.0478" lon="3.94743">
        <ele>90.5</ele>
        <time>2020-06-30T19:27:40Z</time>
      </trkpt>
      <trkpt lat="49.04781" lon="3.94738">
        <ele>90.7</ele>
        <time>2020-06-30T19:27:41Z</time>
      </trkpt>
      <trkpt lat="49.04783" lon="3.94734">
        <ele>91</ele>
        <time>2020-06-30T19:27:42Z</time>
      </trkpt>
      <trkpt lat="49.04784" lon="3.94729">
        <ele>91.3</ele>
        <time>2020-06-30T19:27:43Z</time>
      </trkpt>
      <trkpt lat="49.04785" lon="3.94728">
        <ele>91.3</ele>
        <time>2020-06-30T19:27:44Z</time>
      </trkpt>
      <trkpt lat="49.04787" lon="3.94725">
        <ele>91.6</ele>
        <time>2020-06-30T19:27:45Z</time>
      </trkpt>
      <trkpt lat="49.04788" lon="3.94723">
        <ele>91.7</ele>
        <time>2020-06-30T19:27:46Z</time>
      </trkpt>
      <trkpt lat="49.04789" lon="3.94718">
        <ele>92</ele>
        <time>2020-06-30T19:27:47Z</time>
      </trkpt>
      <trkpt lat="49.0479" lon="3.94716">
        <ele>92.1</ele>
        <time>2020-06-30T19:27:48Z</time>
      </trkpt>
      <trkpt lat="49.04791" lon="3.94712">
        <ele>92.3</ele>
        <time>2020-06-30T19:27:49Z</time>
      </trkpt>
      <trkpt lat="49.04791" lon="3.9471">
        <ele>92.4</ele>
        <time>2020-06-30T19:27:50Z</time>
      </trkpt>
      <trkpt lat="49.04792" lon="3.94708">
        <ele>92.6</ele>
        <time>2020-06-30T19:27:51Z</time>
      </trkpt>
      <trkpt lat="49.04793" lon="3.94706">
        <ele>92.7</ele>
        <time>2020-06-30T19:27:52Z</time>
      </trkpt>
      <trkpt lat="49.04794" lon="3.94702">
        <ele>92.9</ele>
        <time>2020-06-30T19:27:53Z</time>
      </trkpt>
      <trkpt lat="49.04794" lon="3.94701">
        <ele>93</ele>
        <time>2020-06-30T19:27:54Z</time>
      </trkpt>
      <trkpt lat="49.04797" lon="3.94696">
        <ele>93.3</ele>
        <time>2020-06-30T19:27:55Z</time>
      </trkpt>
      <trkpt lat="49.04797" lon="3.94694">
        <ele>93.4</ele>
        <time>2020-06-30T19:27:56Z</time>
      </trkpt>
      <trkpt lat="49.04799" lon="3.9469">
        <ele>93.7</ele>
        <time>2020-06-30T19:27:57Z</time>
      </trkpt>
      <trkpt lat="49.048" lon="3.94688">
        <ele>93.8</ele>
        <time>2020-06-30T19:27:58Z</time>
      </trkpt>
      <trkpt lat="49.04801" lon="3.94684">
        <ele>94.1</ele>
        <time>2020-06-30T19:27:59Z</time>
      </trkpt>
      <trkpt lat="49.04801" lon="3.94682">
        <ele>94.2</ele>
        <time>2020-06-30T19:28:00Z</time>
      </trkpt>
      <trkpt lat="49.04802" lon="3.94678">
        <ele>94.4</ele>
        <time>2020-06-30T19:28:01Z</time>
      </trkpt>
      <trkpt lat="49.04803" lon="3.94676">
        <ele>94.5</ele>
        <time>2020-06-30T19:28:02Z</time>
      </trkpt>
      <trkpt lat="49.04804" lon="3.94672">
        <ele>94.8</ele>
        <time>2020-06-30T19:28:03Z</time>
      </trkpt>
      <trkpt lat="49.04804" lon="3.94671">
        <ele>94.9</ele>
        <time>2020-06-30T19:28:04Z</time>
      </trkpt>
      <trkpt lat="49.04805" lon="3.94667">
        <ele>95.1</ele>
        <time>2020-06-30T19:28:05Z</time>
      </trkpt>
      <trkpt lat="49.04805" lon="3.94665">
        <ele>95.2</ele>
        <time>2020-06-30T19:28:06Z</time>
      </trkpt>
      <trkpt lat="49.04807" lon="3.94661">
        <ele>95.5</ele>
        <time>2020-06-30T19:28:07Z</time>
      </trkpt>
      <trkpt lat="49.04808" lon="3.94659">
        <ele>95.6</ele>
        <time>2020-06-30T19:28:08Z</time>
      </trkpt>
      <trkpt lat="49.04809" lon="3.94653">
        <ele>95.9</ele>
        <time>2020-06-30T19:28:09Z</time>
      </trkpt>
      <trkpt lat="49.0481" lon="3.94652">
        <ele>96</ele>
        <time>2020-06-30T19:28:10Z</time>
      </trkpt>
      <trkpt lat="49.0481" lon="3.9465">
        <ele>96.1</ele>
        <time>2020-06-30T19:28:11Z</time>
      </trkpt>
      <trkpt lat="49.04811" lon="3.94648">
        <ele>96.3</ele>
        <time>2020-06-30T19:28:12Z</time>
      </trkpt>
      <trkpt lat="49.04813" lon="3.94644">
        <ele>96.6</ele>
        <time>2020-06-30T19:28:13Z</time>
      </trkpt>
      <trkpt lat="49.04813" lon="3.94643">
        <ele>96.6</ele>
        <time>2020-06-30T19:28:14Z</time>
      </trkpt>
      <trkpt lat="49.04815" lon="3.94638">
        <ele>96.9</ele>
        <time>2020-06-30T19:28:15Z</time>
      </trkpt>
      <trkpt lat="49.04815" lon="3.94637">
        <ele>97</ele>
        <time>2020-06-30T19:28:16Z</time>
      </trkpt>
      <trkpt lat="49.04817" lon="3.94632">
        <ele>97.3</ele>
        <time>2020-06-30T19:28:17Z</time>
      </trkpt>
      <trkpt lat="49.04818" lon="3.94631">
        <ele>97.4</ele>
        <time>2020-06-30T19:28:18Z</time>
      </trkpt>
      <trkpt lat="49.04819" lon="3.94628">
        <ele>97.6</ele>
        <time>2020-06-30T19:28:19Z</time>
      </trkpt>
      <trkpt lat="49.0482" lon="3.94626">
        <ele>97.8</ele>
        <time>2020-06-30T19:28:20Z</time>
      </trkpt>
      <trkpt lat="49.04821" lon="3.94623">
        <ele>98</ele>
        <time>2020-06-30T19:28:21Z</time>
      </trkpt>
      <trkpt lat="49.04821" lon="3.94621">
        <ele>98.1</ele>
        <time>2020-06-30T19:28:22Z</time>
      </trkpt>
      <trkpt lat="49.04821" lon="3.9462">
        <ele>98.2</ele>
        <time>2020-06-30T19:28:23Z</time>
      </trkpt>
      <trkpt lat="49.04822" lon="3.94617">
        <ele>98.4</ele>
        <time>2020-06-30T19:28:24Z</time>
      </trkpt>
      <trkpt lat="49.04824" lon="3.94612">
        <ele>98.7</ele>
        <time>2020-06-30T19:28:25Z</time>
      </trkpt>
      <trkpt lat="49.04825" lon="3.94611">
        <ele>98.8</ele>
        <time>2020-06-30T19:28:26Z</time>
      </trkpt>
      <trkpt lat="49.04827" lon="3.94606">
        <ele>99.2</ele>
        <time>2020-06-30T19:28:27Z</time>
      </trkpt>
      <trkpt lat="49.04827" lon="3.94605">
        <ele>99.3</ele>
        <time>2020-06-30T19:28:28Z</time>
      </trkpt>
      <trkpt lat="49.04828" lon="3.946">
        <ele>99.6</ele>
        <time>2020-06-30T19:28:29Z</time>
      </trkpt>
      <trkpt lat="49.04829" lon="3.94599">
        <ele>99.9</ele>
        <time>2020-06-30T19:28:30Z</time>
      </trkpt>
      <trkpt lat="49.0483" lon="3.94593">
        <ele>100.2</ele>
        <time>2020-06-30T19:28:31Z</time>
      </trkpt>
      <trkpt lat="49.04831" lon="3.94591">
        <ele>100.3</ele>
        <time>2020-06-30T19:28:32Z</time>
      </trkpt>
      <trkpt lat="49.04833" lon="3.94587">
        <ele>100.4</ele>
        <time>2020-06-30T19:28:33Z</time>
      </trkpt>
      <trkpt lat="49.04833" lon="3.94586">
        <ele>100.5</ele>
        <time>2020-06-30T19:28:34Z</time>
      </trkpt>
      <trkpt lat="49.04835" lon="3.94582">
        <ele>100.7</ele>
        <time>2020-06-30T19:28:35Z</time>
      </trkpt>
      <trkpt lat="49.04835" lon="3.94581">
        <ele>100.8</ele>
        <time>2020-06-30T19:28:36Z</time>
      </trkpt>
      <trkpt lat="49.04837" lon="3.94577">
        <ele>101</ele>
        <time>2020-06-30T19:28:37Z</time>
      </trkpt>
      <trkpt lat="49.04838" lon="3.94576">
        <ele>101</ele>
        <time>2020-06-30T19:28:38Z</time>
      </trkpt>
      <trkpt lat="49.0484" lon="3.94573">
        <ele>101.2</ele>
        <time>2020-06-30T19:28:39Z</time>
      </trkpt>
      <trkpt lat="49.04843" lon="3.94568">
        <ele>101.5</ele>
        <time>2020-06-30T19:28:40Z</time>
      </trkpt>
      <trkpt lat="49.04843" lon="3.94566">
        <ele>101.6</ele>
        <time>2020-06-30T19:28:41Z</time>
      </trkpt>
      <trkpt lat="49.04845" lon="3.94561">
        <ele>101.8</ele>
        <time>2020-06-30T19:28:42Z</time>
      </trkpt>
      <trkpt lat="49.04846" lon="3.94559">
        <ele>101.9</ele>
        <time>2020-06-30T19:28:43Z</time>
      </trkpt>
      <trkpt lat="49.04848" lon="3.94554">
        <ele>102.2</ele>
        <time>2020-06-30T19:28:44Z</time>
      </trkpt>
      <trkpt lat="49.04848" lon="3.94552">
        <ele>102.3</ele>
        <time>2020-06-30T19:28:45Z</time>
      </trkpt>
      <trkpt lat="49.0485" lon="3.94548">
        <ele>102.5</ele>
        <time>2020-06-30T19:28:46Z</time>
      </trkpt>
      <trkpt lat="49.0485" lon="3.94547">
        <ele>102.5</ele>
        <time>2020-06-30T19:28:47Z</time>
      </trkpt>
      <trkpt lat="49.04853" lon="3.94544">
        <ele>102.7</ele>
        <time>2020-06-30T19:28:48Z</time>
      </trkpt>
      <trkpt lat="49.04853" lon="3.9454">
        <ele>102.9</ele>
        <time>2020-06-30T19:28:49Z</time>
      </trkpt>
      <trkpt lat="49.04854" lon="3.94539">
        <ele>103</ele>
        <time>2020-06-30T19:28:50Z</time>
      </trkpt>
      <trkpt lat="49.04854" lon="3.94536">
        <ele>103.2</ele>
        <time>2020-06-30T19:28:51Z</time>
      </trkpt>
      <trkpt lat="49.04855" lon="3.94534">
        <ele>103.3</ele>
        <time>2020-06-30T19:28:52Z</time>
      </trkpt>
      <trkpt lat="49.04857" lon="3.9453">
        <ele>103.5</ele>
        <time>2020-06-30T19:28:53Z</time>
      </trkpt>
      <trkpt lat="49.04857" lon="3.94528">
        <ele>103.6</ele>
        <time>2020-06-30T19:28:54Z</time>
      </trkpt>
      <trkpt lat="49.0486" lon="3.94525">
        <ele>103.9</ele>
        <time>2020-06-30T19:28:55Z</time>
      </trkpt>
      <trkpt lat="49.0486" lon="3.94524">
        <ele>104</ele>
        <time>2020-06-30T19:28:56Z</time>
      </trkpt>
      <trkpt lat="49.04862" lon="3.94522">
        <ele>104.1</ele>
        <time>2020-06-30T19:28:57Z</time>
      </trkpt>
      <trkpt lat="49.04862" lon="3.9452">
        <ele>104.2</ele>
        <time>2020-06-30T19:28:58Z</time>
      </trkpt>
      <trkpt lat="49.04864" lon="3.94515">
        <ele>104.5</ele>
        <time>2020-06-30T19:28:59Z</time>
      </trkpt>
      <trkpt lat="49.04864" lon="3.94514">
        <ele>104.6</ele>
        <time>2020-06-30T19:29:00Z</time>
      </trkpt>
      <trkpt lat="49.04866" lon="3.94509">
        <ele>104.9</ele>
        <time>2020-06-30T19:29:01Z</time>
      </trkpt>
      <trkpt lat="49.04867" lon="3.94507">
        <ele>105</ele>
        <time>2020-06-30T19:29:02Z</time>
      </trkpt>
      <trkpt lat="49.04868" lon="3.94502">
        <ele>105.2</ele>
        <time>2020-06-30T19:29:03Z</time>
      </trkpt>
      <trkpt lat="49.04868" lon="3.94501">
        <ele>105.3</ele>
        <time>2020-06-30T19:29:04Z</time>
      </trkpt>
      <trkpt lat="49.0487" lon="3.94497">
        <ele>105.5</ele>
        <time>2020-06-30T19:29:05Z</time>
      </trkpt>
      <trkpt lat="49.0487" lon="3.94496">
        <ele>105.6</ele>
        <time>2020-06-30T19:29:06Z</time>
      </trkpt>
      <trkpt lat="49.04872" lon="3.94492">
        <ele>105.8</ele>
        <time>2020-06-30T19:29:07Z</time>
      </trkpt>
      <trkpt lat="49.04873" lon="3.94491">
        <ele>105.9</ele>
        <time>2020-06-30T19:29:08Z</time>
      </trkpt>
      <trkpt lat="49.04874" lon="3.94487">
        <ele>106.1</ele>
        <time>2020-06-30T19:29:09Z</time>
      </trkpt>
      <trkpt lat="49.04874" lon="3.94485">
        <ele>106.2</ele>
        <time>2020-06-30T19:29:10Z</time>
      </trkpt>
      <trkpt lat="49.04875" lon="3.94483">
        <ele>106.4</ele>
        <time>2020-06-30T19:29:11Z</time>
      </trkpt>
      <trkpt lat="49.04876" lon="3.94481">
        <ele>106.5</ele>
        <time>2020-06-30T19:29:12Z</time>
      </trkpt>
      <trkpt lat="49.04877" lon="3.94476">
        <ele>106.7</ele>
        <time>2020-06-30T19:29:13Z</time>
      </trkpt>
      <trkpt lat="49.04877" lon="3.94475">
        <ele>106.8</ele>
        <time>2020-06-30T19:29:14Z</time>
      </trkpt>
      <trkpt lat="49.0488" lon="3.94471">
        <ele>107.1</ele>
        <time>2020-06-30T19:29:15Z</time>
      </trkpt>
      <trkpt lat="49.0488" lon="3.94469">
        <ele>107.2</ele>
        <time>2020-06-30T19:29:16Z</time>
      </trkpt>
      <trkpt lat="49.04882" lon="3.94466">
        <ele>107.4</ele>
        <time>2020-06-30T19:29:17Z</time>
      </trkpt>
      <trkpt lat="49.04883" lon="3.94464">
        <ele>107.5</ele>
        <time>2020-06-30T19:29:18Z</time>
      </trkpt>
      <trkpt lat="49.04883" lon="3.94462">
        <ele>107.6</ele>
        <time>2020-06-30T19:29:19Z</time>
      </trkpt>
      <trkpt lat="49.04884" lon="3.9446">
        <ele>107.7</ele>
        <time>2020-06-30T19:29:20Z</time>
      </trkpt>
      <trkpt lat="49.04885" lon="3.94458">
        <ele>107.9</ele>
        <time>2020-06-30T19:29:21Z</time>
      </trkpt>
      <trkpt lat="49.04885" lon="3.94455">
        <ele>108</ele>
        <time>2020-06-30T19:29:22Z</time>
      </trkpt>
      <trkpt lat="49.04886" lon="3.94454">
        <ele>108.1</ele>
        <time>2020-06-30T19:29:23Z</time>
      </trkpt>
      <trkpt lat="49.04887" lon="3.94451">
        <ele>108.3</ele>
        <time>2020-06-30T19:29:24Z</time>
      </trkpt>
      <trkpt lat="49.04888" lon="3.94447">
        <ele>108.5</ele>
        <time>2020-06-30T19:29:25Z</time>
      </trkpt>
      <trkpt lat="49.04889" lon="3.94446">
        <ele>108.6</ele>
        <time>2020-06-30T19:29:26Z</time>
      </trkpt>
      <trkpt lat="49.04891" lon="3.94442">
        <ele>108.8</ele>
        <time>2020-06-30T19:29:27Z</time>
      </trkpt>
      <trkpt lat="49.04891" lon="3.9444">
        <ele>109</ele>
        <time>2020-06-30T19:29:28Z</time>
      </trkpt>
      <trkpt lat="49.04892" lon="3.94437">
        <ele>109.1</ele>
        <time>2020-06-30T19:29:29Z</time>
      </trkpt>
      <trkpt lat="49.04893" lon="3.94435">
        <ele>109.2</ele>
        <time>2020-06-30T19:29:30Z</time>
      </trkpt>
      <trkpt lat="49.04894" lon="3.94431">
        <ele>109.5</ele>
        <time>2020-06-30T19:29:31Z</time>
      </trkpt>
      <trkpt lat="49.04895" lon="3.9443">
        <ele>109.6</ele>
        <time>2020-06-30T19:29:32Z</time>
      </trkpt>
      <trkpt lat="49.04897" lon="3.94426">
        <ele>109.8</ele>
        <time>2020-06-30T19:29:33Z</time>
      </trkpt>
      <trkpt lat="49.04897" lon="3.94425">
        <ele>109.9</ele>
        <time>2020-06-30T19:29:34Z</time>
      </trkpt>
      <trkpt lat="49.049" lon="3.94421">
        <ele>110.2</ele>
        <time>2020-06-30T19:29:35Z</time>
      </trkpt>
      <trkpt lat="49.049" lon="3.94419">
        <ele>110.3</ele>
        <time>2020-06-30T19:29:36Z</time>
      </trkpt>
      <trkpt lat="49.04902" lon="3.94415">
        <ele>110.6</ele>
        <time>2020-06-30T19:29:37Z</time>
      </trkpt>
      <trkpt lat="49.04903" lon="3.94414">
        <ele>110.7</ele>
        <time>2020-06-30T19:29:38Z</time>
      </trkpt>
      <trkpt lat="49.04906" lon="3.9441">
        <ele>111</ele>
        <time>2020-06-30T19:29:39Z</time>
      </trkpt>
      <trkpt lat="49.04906" lon="3.94408">
        <ele>111.1</ele>
        <time>2020-06-30T19:29:40Z</time>
      </trkpt>
      <trkpt lat="49.04908" lon="3.94404">
        <ele>111.3</ele>
        <time>2020-06-30T19:29:41Z</time>
      </trkpt>
      <trkpt lat="49.0491" lon="3.94401">
        <ele>111.5</ele>
        <time>2020-06-30T19:29:42Z</time>
      </trkpt>
      <trkpt lat="49.04912" lon="3.94396">
        <ele>111.8</ele>
        <time>2020-06-30T19:29:43Z</time>
      </trkpt>
      <trkpt lat="49.04912" lon="3.94395">
        <ele>111.9</ele>
        <time>2020-06-30T19:29:44Z</time>
      </trkpt>
      <trkpt lat="49.04914" lon="3.9439">
        <ele>112.2</ele>
        <time>2020-06-30T19:29:45Z</time>
      </trkpt>
      <trkpt lat="49.04914" lon="3.94389">
        <ele>112.2</ele>
        <time>2020-06-30T19:29:46Z</time>
      </trkpt>
      <trkpt lat="49.04915" lon="3.94387">
        <ele>112.4</ele>
        <time>2020-06-30T19:29:47Z</time>
      </trkpt>
      <trkpt lat="49.04916" lon="3.94385">
        <ele>112.5</ele>
        <time>2020-06-30T19:29:48Z</time>
      </trkpt>
      <trkpt lat="49.04917" lon="3.9438">
        <ele>112.7</ele>
        <time>2020-06-30T19:29:49Z</time>
      </trkpt>
      <trkpt lat="49.04917" lon="3.94379">
        <ele>112.8</ele>
        <time>2020-06-30T19:29:50Z</time>
      </trkpt>
      <trkpt lat="49.04918" lon="3.94375">
        <ele>113.1</ele>
        <time>2020-06-30T19:29:51Z</time>
      </trkpt>
      <trkpt lat="49.04919" lon="3.94373">
        <ele>113.2</ele>
        <time>2020-06-30T19:29:52Z</time>
      </trkpt>
      <trkpt lat="49.0492" lon="3.94371">
        <ele>113.3</ele>
        <time>2020-06-30T19:29:53Z</time>
      </trkpt>
      <trkpt lat="49.04921" lon="3.94369">
        <ele>113.5</ele>
        <time>2020-06-30T19:29:54Z</time>
      </trkpt>
      <trkpt lat="49.04922" lon="3.94365">
        <ele>113.7</ele>
        <time>2020-06-30T19:29:55Z</time>
      </trkpt>
      <trkpt lat="49.04923" lon="3.94363">
        <ele>113.8</ele>
        <time>2020-06-30T19:29:56Z</time>
      </trkpt>
      <trkpt lat="49.04924" lon="3.94358">
        <ele>114.1</ele>
        <time>2020-06-30T19:29:57Z</time>
      </trkpt>
      <trkpt lat="49.04925" lon="3.94357">
        <ele>114.2</ele>
        <time>2020-06-30T19:29:58Z</time>
      </trkpt>
      <trkpt lat="49.04927" lon="3.94354">
        <ele>114.4</ele>
        <time>2020-06-30T19:29:59Z</time>
      </trkpt>
      <trkpt lat="49.04929" lon="3.9435">
        <ele>114.7</ele>
        <time>2020-06-30T19:30:00Z</time>
      </trkpt>
      <trkpt lat="49.0493" lon="3.94349">
        <ele>114.8</ele>
        <time>2020-06-30T19:30:01Z</time>
      </trkpt>
      <trkpt lat="49.04931" lon="3.94345">
        <ele>115</ele>
        <time>2020-06-30T19:30:02Z</time>
      </trkpt>
      <trkpt lat="49.04931" lon="3.94344">
        <ele>115.1</ele>
        <time>2020-06-30T19:30:03Z</time>
      </trkpt>
      <trkpt lat="49.04934" lon="3.9434">
        <ele>115.4</ele>
        <time>2020-06-30T19:30:04Z</time>
      </trkpt>
      <trkpt lat="49.04935" lon="3.94339">
        <ele>115.5</ele>
        <time>2020-06-30T19:30:05Z</time>
      </trkpt>
      <trkpt lat="49.04937" lon="3.94336">
        <ele>115.7</ele>
        <time>2020-06-30T19:30:06Z</time>
      </trkpt>
      <trkpt lat="49.04937" lon="3.94335">
        <ele>115.8</ele>
        <time>2020-06-30T19:30:07Z</time>
      </trkpt>
      <trkpt lat="49.04938" lon="3.94332">
        <ele>115.9</ele>
        <time>2020-06-30T19:30:08Z</time>
      </trkpt>
      <trkpt lat="49.04939" lon="3.94331">
        <ele>116</ele>
        <time>2020-06-30T19:30:09Z</time>
      </trkpt>
      <trkpt lat="49.0494" lon="3.94329">
        <ele>116.2</ele>
        <time>2020-06-30T19:30:10Z</time>
      </trkpt>
      <trkpt lat="49.04941" lon="3.94327">
        <ele>116.2</ele>
        <time>2020-06-30T19:30:11Z</time>
      </trkpt>
      <trkpt lat="49.04942" lon="3.94325">
        <ele>116.3</ele>
        <time>2020-06-30T19:30:12Z</time>
      </trkpt>
      <trkpt lat="49.04943" lon="3.94324">
        <ele>116.4</ele>
        <time>2020-06-30T19:30:13Z</time>
      </trkpt>
      <trkpt lat="49.04944" lon="3.94321">
        <ele>116.6</ele>
        <time>2020-06-30T19:30:14Z</time>
      </trkpt>
      <trkpt lat="49.04944" lon="3.9432">
        <ele>116.7</ele>
        <time>2020-06-30T19:30:15Z</time>
      </trkpt>
      <trkpt lat="49.04944" lon="3.94318">
        <ele>116.7</ele>
        <time>2020-06-30T19:30:16Z</time>
      </trkpt>
      <trkpt lat="49.04945" lon="3.94317">
        <ele>116.9</ele>
        <time>2020-06-30T19:30:17Z</time>
      </trkpt>
      <trkpt lat="49.04946" lon="3.94316">
        <ele>116.9</ele>
        <time>2020-06-30T19:30:18Z</time>
      </trkpt>
      <trkpt lat="49.04946" lon="3.94314">
        <ele>117.1</ele>
        <time>2020-06-30T19:30:19Z</time>
      </trkpt>
      <trkpt lat="49.04948" lon="3.94311">
        <ele>117.3</ele>
        <time>2020-06-30T19:30:20Z</time>
      </trkpt>
      <trkpt lat="49.04948" lon="3.94309">
        <ele>117.4</ele>
        <time>2020-06-30T19:30:21Z</time>
      </trkpt>
      <trkpt lat="49.04949" lon="3.94305">
        <ele>117.6</ele>
        <time>2020-06-30T19:30:22Z</time>
      </trkpt>
      <trkpt lat="49.04949" lon="3.94303">
        <ele>117.7</ele>
        <time>2020-06-30T19:30:23Z</time>
      </trkpt>
      <trkpt lat="49.04951" lon="3.94299">
        <ele>117.9</ele>
        <time>2020-06-30T19:30:24Z</time>
      </trkpt>
      <trkpt lat="49.04951" lon="3.94298">
        <ele>118</ele>
        <time>2020-06-30T19:30:25Z</time>
      </trkpt>
      <trkpt lat="49.04951" lon="3.94296">
        <ele>118.1</ele>
        <time>2020-06-30T19:30:26Z</time>
      </trkpt>
      <trkpt lat="49.04952" lon="3.94293">
        <ele>118.3</ele>
        <time>2020-06-30T19:30:27Z</time>
      </trkpt>
      <trkpt lat="49.04954" lon="3.94289">
        <ele>118.6</ele>
        <time>2020-06-30T19:30:28Z</time>
      </trkpt>
      <trkpt lat="49.04955" lon="3.94287">
        <ele>118.7</ele>
        <time>2020-06-30T19:30:29Z</time>
      </trkpt>
      <trkpt lat="49.04956" lon="3.94282">
        <ele>118.9</ele>
        <time>2020-06-30T19:30:30Z</time>
      </trkpt>
      <trkpt lat="49.04956" lon="3.9428">
        <ele>119</ele>
        <time>2020-06-30T19:30:31Z</time>
      </trkpt>
      <trkpt lat="49.04957" lon="3.94276">
        <ele>119.3</ele>
        <time>2020-06-30T19:30:32Z</time>
      </trkpt>
      <trkpt lat="49.04957" lon="3.94274">
        <ele>119.4</ele>
        <time>2020-06-30T19:30:33Z</time>
      </trkpt>
      <trkpt lat="49.04958" lon="3.9427">
        <ele>119.6</ele>
        <time>2020-06-30T19:30:34Z</time>
      </trkpt>
      <trkpt lat="49.04959" lon="3.94269">
        <ele>119.6</ele>
        <time>2020-06-30T19:30:35Z</time>
      </trkpt>
      <trkpt lat="49.04959" lon="3.94267">
        <ele>119.7</ele>
        <time>2020-06-30T19:30:36Z</time>
      </trkpt>
      <trkpt lat="49.04959" lon="3.94266">
        <ele>119.8</ele>
        <time>2020-06-30T19:30:37Z</time>
      </trkpt>
      <trkpt lat="49.0496" lon="3.94264">
        <ele>119.9</ele>
        <time>2020-06-30T19:30:38Z</time>
      </trkpt>
      <trkpt lat="49.0496" lon="3.94262">
        <ele>120</ele>
        <time>2020-06-30T19:30:39Z</time>
      </trkpt>
      <trkpt lat="49.04961" lon="3.9426">
        <ele>120.1</ele>
        <time>2020-06-30T19:30:40Z</time>
      </trkpt>
      <trkpt lat="49.04961" lon="3.94256">
        <ele>120.2</ele>
        <time>2020-06-30T19:30:41Z</time>
      </trkpt>
      <trkpt lat="49.0496" lon="3.94255">
        <ele>120.3</ele>
        <time>2020-06-30T19:30:42Z</time>
      </trkpt>
      <trkpt lat="49.0496" lon="3.94253">
        <ele>120.4</ele>
        <time>2020-06-30T19:30:43Z</time>
      </trkpt>
      <trkpt lat="49.0496" lon="3.94251">
        <ele>120.5</ele>
        <time>2020-06-30T19:30:44Z</time>
      </trkpt>
      <trkpt lat="49.0496" lon="3.94247">
        <ele>120.6</ele>
        <time>2020-06-30T19:30:45Z</time>
      </trkpt>
      <trkpt lat="49.04961" lon="3.94245">
        <ele>120.8</ele>
        <time>2020-06-30T19:30:46Z</time>
      </trkpt>
      <trkpt lat="49.04961" lon="3.94243">
        <ele>120.9</ele>
        <time>2020-06-30T19:30:47Z</time>
      </trkpt>
      <trkpt lat="49.04962" lon="3.94241">
        <ele>120.9</ele>
        <time>2020-06-30T19:30:48Z</time>
      </trkpt>
      <trkpt lat="49.04962" lon="3.94239">
        <ele>121</ele>
        <time>2020-06-30T19:30:49Z</time>
      </trkpt>
      <trkpt lat="49.04962" lon="3.94237">
        <ele>121.1</ele>
        <time>2020-06-30T19:30:50Z</time>
      </trkpt>
      <trkpt lat="49.04962" lon="3.94234">
        <ele>121.3</ele>
        <time>2020-06-30T19:30:51Z</time>
      </trkpt>
      <trkpt lat="49.04963" lon="3.94229">
        <ele>121.5</ele>
        <time>2020-06-30T19:30:52Z</time>
      </trkpt>
      <trkpt lat="49.04964" lon="3.94227">
        <ele>121.6</ele>
        <time>2020-06-30T19:30:53Z</time>
      </trkpt>
      <trkpt lat="49.04965" lon="3.94223">
        <ele>121.7</ele>
        <time>2020-06-30T19:30:54Z</time>
      </trkpt>
      <trkpt lat="49.04965" lon="3.94222">
        <ele>121.8</ele>
        <time>2020-06-30T19:30:55Z</time>
      </trkpt>
      <trkpt lat="49.04966" lon="3.9422">
        <ele>121.9</ele>
        <time>2020-06-30T19:30:56Z</time>
      </trkpt>
      <trkpt lat="49.04966" lon="3.94218">
        <ele>122</ele>
        <time>2020-06-30T19:30:57Z</time>
      </trkpt>
      <trkpt lat="49.04966" lon="3.94213">
        <ele>122.1</ele>
        <time>2020-06-30T19:30:58Z</time>
      </trkpt>
      <trkpt lat="49.04966" lon="3.9421">
        <ele>122.2</ele>
        <time>2020-06-30T19:30:59Z</time>
      </trkpt>
      <trkpt lat="49.04966" lon="3.94205">
        <ele>122.4</ele>
        <time>2020-06-30T19:31:00Z</time>
      </trkpt>
      <trkpt lat="49.04966" lon="3.94201">
        <ele>122.5</ele>
        <time>2020-06-30T19:31:01Z</time>
      </trkpt>
      <trkpt lat="49.04966" lon="3.94199">
        <ele>122.6</ele>
        <time>2020-06-30T19:31:02Z</time>
      </trkpt>
      <trkpt lat="49.04967" lon="3.94195">
        <ele>122.7</ele>
        <time>2020-06-30T19:31:03Z</time>
      </trkpt>
      <trkpt lat="49.04967" lon="3.94194">
        <ele>123</ele>
        <time>2020-06-30T19:31:04Z</time>
      </trkpt>
      <trkpt lat="49.04968" lon="3.94192">
        <ele>123.4</ele>
        <time>2020-06-30T19:31:05Z</time>
      </trkpt>
      <trkpt lat="49.04968" lon="3.94189">
        <ele>123.6</ele>
        <time>2020-06-30T19:31:06Z</time>
      </trkpt>
      <trkpt lat="49.04968" lon="3.94187">
        <ele>123.9</ele>
        <time>2020-06-30T19:31:07Z</time>
      </trkpt>
      <trkpt lat="49.0497" lon="3.94184">
        <ele>124.1</ele>
        <time>2020-06-30T19:31:08Z</time>
      </trkpt>
      <trkpt lat="49.04972" lon="3.9418">
        <ele>124.2</ele>
        <time>2020-06-30T19:31:09Z</time>
      </trkpt>
      <trkpt lat="49.04973" lon="3.94179">
        <ele>124.6</ele>
        <time>2020-06-30T19:31:10Z</time>
      </trkpt>
      <trkpt lat="49.04976" lon="3.94177">
        <ele>124.6</ele>
        <time>2020-06-30T19:31:11Z</time>
      </trkpt>
      <trkpt lat="49.04977" lon="3.94177">
        <ele>124.8</ele>
        <time>2020-06-30T19:31:12Z</time>
      </trkpt>
      <trkpt lat="49.0498" lon="3.94176">
        <ele>125.1</ele>
        <time>2020-06-30T19:31:13Z</time>
      </trkpt>
      <trkpt lat="49.04984" lon="3.94176">
        <ele>125.3</ele>
        <time>2020-06-30T19:31:14Z</time>
      </trkpt>
      <trkpt lat="49.04985" lon="3.94177">
        <ele>125.7</ele>
        <time>2020-06-30T19:31:15Z</time>
      </trkpt>
      <trkpt lat="49.04988" lon="3.94177">
        <ele>125.9</ele>
        <time>2020-06-30T19:31:16Z</time>
      </trkpt>
      <trkpt lat="49.04989" lon="3.94176">
        <ele>126.1</ele>
        <time>2020-06-30T19:31:17Z</time>
      </trkpt>
      <trkpt lat="49.04992" lon="3.94175">
        <ele>126.2</ele>
        <time>2020-06-30T19:31:18Z</time>
      </trkpt>
      <trkpt lat="49.04993" lon="3.94175">
        <ele>126.7</ele>
        <time>2020-06-30T19:31:19Z</time>
      </trkpt>
      <trkpt lat="49.04996" lon="3.94174">
        <ele>126.8</ele>
        <time>2020-06-30T19:31:20Z</time>
      </trkpt>
      <trkpt lat="49.04996" lon="3.94173">
        <ele>126.5</ele>
        <time>2020-06-30T19:31:21Z</time>
      </trkpt>
      <trkpt lat="49.04998" lon="3.94172">
        <ele>126.6</ele>
        <time>2020-06-30T19:31:22Z</time>
      </trkpt>
      <trkpt lat="49.04999" lon="3.94171">
        <ele>126.6</ele>
        <time>2020-06-30T19:31:23Z</time>
      </trkpt>
      <trkpt lat="49.05" lon="3.9417">
        <ele>126.7</ele>
        <time>2020-06-30T19:31:24Z</time>
      </trkpt>
      <trkpt lat="49.05001" lon="3.94172">
        <ele>126.7</ele>
        <time>2020-06-30T19:31:25Z</time>
      </trkpt>
      <trkpt lat="49.05002" lon="3.94172">
        <ele>126.7</ele>
        <time>2020-06-30T19:31:26Z</time>
      </trkpt>
      <trkpt lat="49.05003" lon="3.94173">
        <ele>126.7</ele>
        <time>2020-06-30T19:31:27Z</time>
      </trkpt>
      <trkpt lat="49.05003" lon="3.94174">
        <ele>126.8</ele>
        <time>2020-06-30T19:31:28Z</time>
      </trkpt>
      <trkpt lat="49.05003" lon="3.94177">
        <ele>126.8</ele>
        <time>2020-06-30T19:31:29Z</time>
      </trkpt>
      <trkpt lat="49.05003" lon="3.94182">
        <ele>126.9</ele>
        <time>2020-06-30T19:31:30Z</time>
      </trkpt>
      <trkpt lat="49.05003" lon="3.94183">
        <ele>126.9</ele>
        <time>2020-06-30T19:31:31Z</time>
      </trkpt>
      <trkpt lat="49.05003" lon="3.94186">
        <ele>126.9</ele>
        <time>2020-06-30T19:31:32Z</time>
      </trkpt>
      <trkpt lat="49.05002" lon="3.94188">
        <ele>127</ele>
        <time>2020-06-30T19:31:33Z</time>
      </trkpt>
      <trkpt lat="49.05002" lon="3.9419">
        <ele>127</ele>
        <time>2020-06-30T19:31:34Z</time>
      </trkpt>
      <trkpt lat="49.05002" lon="3.94193">
        <ele>127</ele>
        <time>2020-06-30T19:31:35Z</time>
      </trkpt>
      <trkpt lat="49.05003" lon="3.94195">
        <ele>127</ele>
        <time>2020-06-30T19:31:36Z</time>
      </trkpt>
      <trkpt lat="49.05003" lon="3.94196">
        <ele>127</ele>
        <time>2020-06-30T19:31:37Z</time>
      </trkpt>
      <trkpt lat="49.05003" lon="3.94197">
        <ele>127.2</ele>
        <time>2020-06-30T19:31:38Z</time>
      </trkpt>
      <trkpt lat="49.05003" lon="3.94199">
        <ele>127.2</ele>
        <time>2020-06-30T19:31:39Z</time>
      </trkpt>
      <trkpt lat="49.05004" lon="3.94194">
        <ele>127</ele>
        <time>2020-06-30T19:31:40Z</time>
      </trkpt>
      <trkpt lat="49.05005" lon="3.94193">
        <ele>127</ele>
        <time>2020-06-30T19:31:41Z</time>
      </trkpt>
      <trkpt lat="49.05005" lon="3.94194">
        <ele>127</ele>
        <time>2020-06-30T19:31:42Z</time>
      </trkpt>
      <trkpt lat="49.05004" lon="3.94196">
        <ele>127</ele>
        <time>2020-06-30T19:31:43Z</time>
      </trkpt>
      <trkpt lat="49.05004" lon="3.94197">
        <ele>127.2</ele>
        <time>2020-06-30T19:31:44Z</time>
      </trkpt>
      <trkpt lat="49.05003" lon="3.94197">
        <ele>127.2</ele>
        <time>2020-06-30T19:31:45Z</time>
      </trkpt>
      <trkpt lat="49.05003" lon="3.94197">
        <ele>127.2</ele>
        <time>2020-06-30T19:31:46Z</time>
      </trkpt>
      <trkpt lat="49.05003" lon="3.94198">
        <ele>127.2</ele>
        <time>2020-06-30T19:31:47Z</time>
      </trkpt>
      <trkpt lat="49.05003" lon="3.94198">
        <ele>127.2</ele>
        <time>2020-06-30T19:31:48Z</time>
      </trkpt>
      <trkpt lat="49.05003" lon="3.94198">
        <ele>127.3</ele>
        <time>2020-06-30T19:31:49Z</time>
      </trkpt>
      <trkpt lat="49.05003" lon="3.94198">
        <ele>127.3</ele>
        <time>2020-06-30T19:31:50Z</time>
      </trkpt>
      <trkpt lat="49.05003" lon="3.94198">
        <ele>127.3</ele>
        <time>2020-06-30T19:31:51Z</time>
      </trkpt>
      <trkpt lat="49.05003" lon="3.94198">
        <ele>127.3</ele>
        <time>2020-06-30T19:31:52Z</time>
      </trkpt>
      <trkpt lat="49.05003" lon="3.94198">
        <ele>127.3</ele>
        <time>2020-06-30T19:31:53Z</time>
      </trkpt>
      <trkpt lat="49.05003" lon="3.94198">
        <ele>127.3</ele>
        <time>2020-06-30T19:31:54Z</time>
      </trkpt>
      <trkpt lat="49.05003" lon="3.94198">
        <ele>127.3</ele>
        <time>2020-06-30T19:31:55Z</time>
      </trkpt>
      <trkpt lat="49.05003" lon="3.94198">
        <ele>127.3</ele>
        <time>2020-06-30T19:31:56Z</time>
      </trkpt>
      <trkpt lat="49.04998" lon="3.94206">
        <ele>127.7</ele>
        <time>2020-06-30T19:41:04Z</time>
      </trkpt>
      <trkpt lat="49.04998" lon="3.94207">
        <ele>127.8</ele>
        <time>2020-06-30T19:41:05Z</time>
      </trkpt>
      <trkpt lat="49.04998" lon="3.94208">
        <ele>127.8</ele>
        <time>2020-06-30T19:41:06Z</time>
      </trkpt>
      <trkpt lat="49.04998" lon="3.94209">
        <ele>127.9</ele>
        <time>2020-06-30T19:41:07Z</time>
      </trkpt>
      <trkpt lat="49.04997" lon="3.94211">
        <ele>128</ele>
        <time>2020-06-30T19:41:08Z</time>
      </trkpt>
      <trkpt lat="49.04997" lon="3.94212">
        <ele>128</ele>
        <time>2020-06-30T19:41:09Z</time>
      </trkpt>
      <trkpt lat="49.04997" lon="3.94214">
        <ele>128</ele>
        <time>2020-06-30T19:41:10Z</time>
      </trkpt>
      <trkpt lat="49.04997" lon="3.94215">
        <ele>128</ele>
        <time>2020-06-30T19:41:11Z</time>
      </trkpt>
      <trkpt lat="49.04996" lon="3.94215">
        <ele>128</ele>
        <time>2020-06-30T19:41:12Z</time>
      </trkpt>
      <trkpt lat="49.04996" lon="3.94216">
        <ele>128</ele>
        <time>2020-06-30T19:41:13Z</time>
      </trkpt>
      <trkpt lat="49.04996" lon="3.94216">
        <ele>128</ele>
        <time>2020-06-30T19:41:14Z</time>
      </trkpt>
      <trkpt lat="49.04996" lon="3.94217">
        <ele>128</ele>
        <time>2020-06-30T19:41:15Z</time>
      </trkpt>
      <trkpt lat="49.04996" lon="3.94218">
        <ele>128</ele>
        <time>2020-06-30T19:41:16Z</time>
      </trkpt>
      <trkpt lat="49.04996" lon="3.94218">
        <ele>128</ele>
        <time>2020-06-30T19:41:17Z</time>
      </trkpt>
      <trkpt lat="49.04996" lon="3.94218">
        <ele>128</ele>
        <time>2020-06-30T19:41:18Z</time>
      </trkpt>
      <trkpt lat="49.04996" lon="3.94218">
        <ele>128</ele>
        <time>2020-06-30T19:41:19Z</time>
      </trkpt>
      <trkpt lat="49.04996" lon="3.94218">
        <ele>128</ele>
        <time>2020-06-30T19:41:20Z</time>
      </trkpt>
      <trkpt lat="49.04996" lon="3.94219">
        <ele>128</ele>
        <time>2020-06-30T19:41:21Z</time>
      </trkpt>
      <trkpt lat="49.04995" lon="3.9422">
        <ele>128</ele>
        <time>2020-06-30T19:41:22Z</time>
      </trkpt>
      <trkpt lat="49.04995" lon="3.9422">
        <ele>128</ele>
        <time>2020-06-30T19:41:23Z</time>
      </trkpt>
      <trkpt lat="49.04995" lon="3.9422">
        <ele>128</ele>
        <time>2020-06-30T19:41:24Z</time>
      </trkpt>
      <trkpt lat="49.05001" lon="3.94211">
        <ele>128</ele>
        <time>2020-06-30T19:42:43Z</time>
      </trkpt>
      <trkpt lat="49.05001" lon="3.94211">
        <ele>128</ele>
        <time>2020-06-30T19:42:44Z</time>
      </trkpt>
      <trkpt lat="49.05001" lon="3.9421">
        <ele>128</ele>
        <time>2020-06-30T19:42:45Z</time>
      </trkpt>
      <trkpt lat="49.05002" lon="3.9421">
        <ele>128</ele>
        <time>2020-06-30T19:42:46Z</time>
      </trkpt>
      <trkpt lat="49.05002" lon="3.9421">
        <ele>128</ele>
        <time>2020-06-30T19:42:47Z</time>
      </trkpt>
      <trkpt lat="49.05002" lon="3.9421">
        <ele>128</ele>
        <time>2020-06-30T19:42:48Z</time>
      </trkpt>
      <trkpt lat="49.05003" lon="3.94211">
        <ele>128</ele>
        <time>2020-06-30T19:42:49Z</time>
      </trkpt>
      <trkpt lat="49.05002" lon="3.9421">
        <ele>128</ele>
        <time>2020-06-30T19:42:50Z</time>
      </trkpt>
      <trkpt lat="49.05002" lon="3.9421">
        <ele>128</ele>
        <time>2020-06-30T19:42:51Z</time>
      </trkpt>
      <trkpt lat="49.05002" lon="3.94209">
        <ele>128</ele>
        <time>2020-06-30T19:42:52Z</time>
      </trkpt>
      <trkpt lat="49.05002" lon="3.94208">
        <ele>128</ele>
        <time>2020-06-30T19:42:53Z</time>
      </trkpt>
      <trkpt lat="49.05002" lon="3.94207">
        <ele>128</ele>
        <time>2020-06-30T19:42:54Z</time>
      </trkpt>
      <trkpt lat="49.05002" lon="3.94207">
        <ele>128</ele>
        <time>2020-06-30T19:42:55Z</time>
      </trkpt>
      <trkpt lat="49.05002" lon="3.94207">
        <ele>128</ele>
        <time>2020-06-30T19:42:56Z</time>
      </trkpt>
      <trkpt lat="49.05002" lon="3.94207">
        <ele>128</ele>
        <time>2020-06-30T19:42:57Z</time>
      </trkpt>
      <trkpt lat="49.05002" lon="3.94207">
        <ele>128</ele>
        <time>2020-06-30T19:42:58Z</time>
      </trkpt>
      <trkpt lat="49.05002" lon="3.94207">
        <ele>128</ele>
        <time>2020-06-30T19:42:59Z</time>
      </trkpt>
      <trkpt lat="49.05002" lon="3.94207">
        <ele>128</ele>
        <time>2020-06-30T19:43:00Z</time>
      </trkpt>
      <trkpt lat="49.05003" lon="3.9421">
        <ele>128</ele>
        <time>2020-06-30T19:43:24Z</time>
      </trkpt>
      <trkpt lat="49.05002" lon="3.9421">
        <ele>128</ele>
        <time>2020-06-30T19:43:25Z</time>
      </trkpt>
      <trkpt lat="49.05003" lon="3.94212">
        <ele>128</ele>
        <time>2020-06-30T19:43:26Z</time>
      </trkpt>
      <trkpt lat="49.05003" lon="3.94213">
        <ele>128</ele>
        <time>2020-06-30T19:43:27Z</time>
      </trkpt>
      <trkpt lat="49.05004" lon="3.94215">
        <ele>127.9</ele>
        <time>2020-06-30T19:43:28Z</time>
      </trkpt>
      <trkpt lat="49.05004" lon="3.94215">
        <ele>127.9</ele>
        <time>2020-06-30T19:43:29Z</time>
      </trkpt>
      <trkpt lat="49.05005" lon="3.94215">
        <ele>127.9</ele>
        <time>2020-06-30T19:43:30Z</time>
      </trkpt>
      <trkpt lat="49.05006" lon="3.94215">
        <ele>127.9</ele>
        <time>2020-06-30T19:43:31Z</time>
      </trkpt>
      <trkpt lat="49.05007" lon="3.94216">
        <ele>127.9</ele>
        <time>2020-06-30T19:43:32Z</time>
      </trkpt>
      <trkpt lat="49.05008" lon="3.94217">
        <ele>127.9</ele>
        <time>2020-06-30T19:43:33Z</time>
      </trkpt>
      <trkpt lat="49.05009" lon="3.94217">
        <ele>127.9</ele>
        <time>2020-06-30T19:43:34Z</time>
      </trkpt>
      <trkpt lat="49.05009" lon="3.94217">
        <ele>127.9</ele>
        <time>2020-06-30T19:43:35Z</time>
      </trkpt>
      <trkpt lat="49.05009" lon="3.94217">
        <ele>127.9</ele>
        <time>2020-06-30T19:43:36Z</time>
      </trkpt>
      <trkpt lat="49.0501" lon="3.94217">
        <ele>127.9</ele>
        <time>2020-06-30T19:43:37Z</time>
      </trkpt>
      <trkpt lat="49.0501" lon="3.94217">
        <ele>127.9</ele>
        <time>2020-06-30T19:43:38Z</time>
      </trkpt>
      <trkpt lat="49.05011" lon="3.94217">
        <ele>127.9</ele>
        <time>2020-06-30T19:43:39Z</time>
      </trkpt>
      <trkpt lat="49.05011" lon="3.94217">
        <ele>127.9</ele>
        <time>2020-06-30T19:43:40Z</time>
      </trkpt>
      <trkpt lat="49.05011" lon="3.94217">
        <ele>127.9</ele>
        <time>2020-06-30T19:43:41Z</time>
      </trkpt>
      <trkpt lat="49.05011" lon="3.94217">
        <ele>127.9</ele>
        <time>2020-06-30T19:43:42Z</time>
      </trkpt>
      <trkpt lat="49.05011" lon="3.94217">
        <ele>127.9</ele>
        <time>2020-06-30T19:43:43Z</time>
      </trkpt>
      <trkpt lat="49.05011" lon="3.94217">
        <ele>127.9</ele>
        <time>2020-06-30T19:43:44Z</time>
      </trkpt>
      <trkpt lat="49.05011" lon="3.94217">
        <ele>127.9</ele>
        <time>2020-06-30T19:43:45Z</time>
      </trkpt>
      <trkpt lat="49.05011" lon="3.94217">
        <ele>127.9</ele>
        <time>2020-06-30T19:43:46Z</time>
      </trkpt>
      <trkpt lat="49.05011" lon="3.94217">
        <ele>127.9</ele>
        <time>2020-06-30T19:43:47Z</time>
      </trkpt>
      <trkpt lat="49.0501" lon="3.94216">
        <ele>127.9</ele>
        <time>2020-06-30T19:43:48Z</time>
      </trkpt>
      <trkpt lat="49.0501" lon="3.94215">
        <ele>127.9</ele>
        <time>2020-06-30T19:43:49Z</time>
      </trkpt>
      <trkpt lat="49.05009" lon="3.94214">
        <ele>127.9</ele>
        <time>2020-06-30T19:43:50Z</time>
      </trkpt>
      <trkpt lat="49.05008" lon="3.94208">
        <ele>127.9</ele>
        <time>2020-06-30T19:44:03Z</time>
      </trkpt>
      <trkpt lat="49.05007" lon="3.94208">
        <ele>127.9</ele>
        <time>2020-06-30T19:44:04Z</time>
      </trkpt>
      <trkpt lat="49.05008" lon="3.94209">
        <ele>127.9</ele>
        <time>2020-06-30T19:44:05Z</time>
      </trkpt>
      <trkpt lat="49.05008" lon="3.94209">
        <ele>127.9</ele>
        <time>2020-06-30T19:44:06Z</time>
      </trkpt>
      <trkpt lat="49.05008" lon="3.9421">
        <ele>127.9</ele>
        <time>2020-06-30T19:44:07Z</time>
      </trkpt>
      <trkpt lat="49.05009" lon="3.94212">
        <ele>127.9</ele>
        <time>2020-06-30T19:44:08Z</time>
      </trkpt>
      <trkpt lat="49.05009" lon="3.94213">
        <ele>127.9</ele>
        <time>2020-06-30T19:44:09Z</time>
      </trkpt>
      <trkpt lat="49.05009" lon="3.94214">
        <ele>127.9</ele>
        <time>2020-06-30T19:44:10Z</time>
      </trkpt>
      <trkpt lat="49.05009" lon="3.94216">
        <ele>127.9</ele>
        <time>2020-06-30T19:44:11Z</time>
      </trkpt>
      <trkpt lat="49.05009" lon="3.94217">
        <ele>127.9</ele>
        <time>2020-06-30T19:44:12Z</time>
      </trkpt>
      <trkpt lat="49.05009" lon="3.94217">
        <ele>127.9</ele>
        <time>2020-06-30T19:44:13Z</time>
      </trkpt>
      <trkpt lat="49.05009" lon="3.94216">
        <ele>127.9</ele>
        <time>2020-06-30T19:44:14Z</time>
      </trkpt>
      <trkpt lat="49.05009" lon="3.94217">
        <ele>127.9</ele>
        <time>2020-06-30T19:44:15Z</time>
      </trkpt>
      <trkpt lat="49.05009" lon="3.94217">
        <ele>127.9</ele>
        <time>2020-06-30T19:44:16Z</time>
      </trkpt>
      <trkpt lat="49.0501" lon="3.94218">
        <ele>127.9</ele>
        <time>2020-06-30T19:44:17Z</time>
      </trkpt>
      <trkpt lat="49.0501" lon="3.94218">
        <ele>127.9</ele>
        <time>2020-06-30T19:44:18Z</time>
      </trkpt>
      <trkpt lat="49.0501" lon="3.94218">
        <ele>127.9</ele>
        <time>2020-06-30T19:44:19Z</time>
      </trkpt>
      <trkpt lat="49.05009" lon="3.94216">
        <ele>127.9</ele>
        <time>2020-06-30T19:44:20Z</time>
      </trkpt>
      <trkpt lat="49.05009" lon="3.94215">
        <ele>127.9</ele>
        <time>2020-06-30T19:44:21Z</time>
      </trkpt>
      <trkpt lat="49.05008" lon="3.94215">
        <ele>127.9</ele>
        <time>2020-06-30T19:44:22Z</time>
      </trkpt>
      <trkpt lat="49.05008" lon="3.94216">
        <ele>127.9</ele>
        <time>2020-06-30T19:44:23Z</time>
      </trkpt>
      <trkpt lat="49.05008" lon="3.94216">
        <ele>127.9</ele>
        <time>2020-06-30T19:44:24Z</time>
      </trkpt>
      <trkpt lat="49.05007" lon="3.94217">
        <ele>127.9</ele>
        <time>2020-06-30T19:44:25Z</time>
      </trkpt>
      <trkpt lat="49.05007" lon="3.94218">
        <ele>127.9</ele>
        <time>2020-06-30T19:44:26Z</time>
      </trkpt>
      <trkpt lat="49.05006" lon="3.94218">
        <ele>127.9</ele>
        <time>2020-06-30T19:44:27Z</time>
      </trkpt>
      <trkpt lat="49.05006" lon="3.94219">
        <ele>127.9</ele>
        <time>2020-06-30T19:44:28Z</time>
      </trkpt>
      <trkpt lat="49.05005" lon="3.94219">
        <ele>127.9</ele>
        <time>2020-06-30T19:44:29Z</time>
      </trkpt>
      <trkpt lat="49.05005" lon="3.94219">
        <ele>127.9</ele>
        <time>2020-06-30T19:44:30Z</time>
      </trkpt>
      <trkpt lat="49.05005" lon="3.94219">
        <ele>127.9</ele>
        <time>2020-06-30T19:44:31Z</time>
      </trkpt>
      <trkpt lat="49.05005" lon="3.94219">
        <ele>127.9</ele>
        <time>2020-06-30T19:44:32Z</time>
      </trkpt>
      <trkpt lat="49.05005" lon="3.94219">
        <ele>127.9</ele>
        <time>2020-06-30T19:44:33Z</time>
      </trkpt>
      <trkpt lat="49.05005" lon="3.9422">
        <ele>127.9</ele>
        <time>2020-06-30T19:44:34Z</time>
      </trkpt>
      <trkpt lat="49.05004" lon="3.9422">
        <ele>127.9</ele>
        <time>2020-06-30T19:44:35Z</time>
      </trkpt>
      <trkpt lat="49.05004" lon="3.9422">
        <ele>127.9</ele>
        <time>2020-06-30T19:44:36Z</time>
      </trkpt>
      <trkpt lat="49.05004" lon="3.9422">
        <ele>127.9</ele>
        <time>2020-06-30T19:44:37Z</time>
      </trkpt>
      <trkpt lat="49.05003" lon="3.94219">
        <ele>127.9</ele>
        <time>2020-06-30T19:44:38Z</time>
      </trkpt>
      <trkpt lat="49.04999" lon="3.94213">
        <ele>127.9</ele>
        <time>2020-06-30T19:45:11Z</time>
      </trkpt>
      <trkpt lat="49.04999" lon="3.94212">
        <ele>127.9</ele>
        <time>2020-06-30T19:45:12Z</time>
      </trkpt>
      <trkpt lat="49.04999" lon="3.9421">
        <ele>127.8</ele>
        <time>2020-06-30T19:45:13Z</time>
      </trkpt>
      <trkpt lat="49.04999" lon="3.94209">
        <ele>127.8</ele>
        <time>2020-06-30T19:45:14Z</time>
      </trkpt>
      <trkpt lat="49.04999" lon="3.94209">
        <ele>127.8</ele>
        <time>2020-06-30T19:45:15Z</time>
      </trkpt>
      <trkpt lat="49.04999" lon="3.94209">
        <ele>127.8</ele>
        <time>2020-06-30T19:45:16Z</time>
      </trkpt>
      <trkpt lat="49.04999" lon="3.94209">
        <ele>127.8</ele>
        <time>2020-06-30T19:45:17Z</time>
      </trkpt>
      <trkpt lat="49.04999" lon="3.94208">
        <ele>127.8</ele>
        <time>2020-06-30T19:45:18Z</time>
      </trkpt>
      <trkpt lat="49.04999" lon="3.94208">
        <ele>127.8</ele>
        <time>2020-06-30T19:45:19Z</time>
      </trkpt>
      <trkpt lat="49.04999" lon="3.94208">
        <ele>127.8</ele>
        <time>2020-06-30T19:45:20Z</time>
      </trkpt>
      <trkpt lat="49.04999" lon="3.94208">
        <ele>127.8</ele>
        <time>2020-06-30T19:45:21Z</time>
      </trkpt>
      <trkpt lat="49.05" lon="3.94207">
        <ele>127.8</ele>
        <time>2020-06-30T19:45:22Z</time>
      </trkpt>
      <trkpt lat="49.04999" lon="3.94207">
        <ele>127.8</ele>
        <time>2020-06-30T19:45:23Z</time>
      </trkpt>
      <trkpt lat="49.04999" lon="3.94206">
        <ele>127.8</ele>
        <time>2020-06-30T19:45:24Z</time>
      </trkpt>
      <trkpt lat="49.04999" lon="3.94205">
        <ele>127.8</ele>
        <time>2020-06-30T19:45:25Z</time>
      </trkpt>
      <trkpt lat="49.04999" lon="3.94204">
        <ele>127.8</ele>
        <time>2020-06-30T19:45:26Z</time>
      </trkpt>
      <trkpt lat="49.04999" lon="3.94204">
        <ele>127.8</ele>
        <time>2020-06-30T19:45:27Z</time>
      </trkpt>
      <trkpt lat="49.04999" lon="3.94204">
        <ele>127.8</ele>
        <time>2020-06-30T19:45:28Z</time>
      </trkpt>
      <trkpt lat="49.04999" lon="3.94203">
        <ele>127.8</ele>
        <time>2020-06-30T19:45:29Z</time>
      </trkpt>
      <trkpt lat="49.04999" lon="3.94203">
        <ele>127.8</ele>
        <time>2020-06-30T19:45:30Z</time>
      </trkpt>
      <trkpt lat="49.04999" lon="3.94203">
        <ele>127.8</ele>
        <time>2020-06-30T19:45:31Z</time>
      </trkpt>
      <trkpt lat="49.04999" lon="3.94203">
        <ele>127.8</ele>
        <time>2020-06-30T19:45:32Z</time>
      </trkpt>
      <trkpt lat="49.04999" lon="3.94203">
        <ele>127.8</ele>
        <time>2020-06-30T19:45:33Z</time>
      </trkpt>
      <trkpt lat="49.04999" lon="3.94202">
        <ele>127.8</ele>
        <time>2020-06-30T19:45:34Z</time>
      </trkpt>
      <trkpt lat="49.04999" lon="3.94202">
        <ele>127.8</ele>
        <time>2020-06-30T19:45:35Z</time>
      </trkpt>
      <trkpt lat="49.04999" lon="3.94201">
        <ele>127.8</ele>
        <time>2020-06-30T19:45:36Z</time>
      </trkpt>
      <trkpt lat="49.04999" lon="3.942">
        <ele>127.8</ele>
        <time>2020-06-30T19:45:37Z</time>
      </trkpt>
      <trkpt lat="49.04999" lon="3.94199">
        <ele>127.8</ele>
        <time>2020-06-30T19:45:38Z</time>
      </trkpt>
      <trkpt lat="49.04999" lon="3.94199">
        <ele>127.8</ele>
        <time>2020-06-30T19:45:39Z</time>
      </trkpt>
      <trkpt lat="49.04999" lon="3.94199">
        <ele>127.8</ele>
        <time>2020-06-30T19:45:40Z</time>
      </trkpt>
      <trkpt lat="49.04999" lon="3.94199">
        <ele>127.8</ele>
        <time>2020-06-30T19:45:41Z</time>
      </trkpt>
      <trkpt lat="49.04999" lon="3.942">
        <ele>127.8</ele>
        <time>2020-06-30T19:45:42Z</time>
      </trkpt>
      <trkpt lat="49.04999" lon="3.942">
        <ele>127.8</ele>
        <time>2020-06-30T19:45:43Z</time>
      </trkpt>
      <trkpt lat="49.04999" lon="3.94201">
        <ele>127.8</ele>
        <time>2020-06-30T19:45:44Z</time>
      </trkpt>
      <trkpt lat="49.04999" lon="3.94201">
        <ele>127.8</ele>
        <time>2020-06-30T19:45:45Z</time>
      </trkpt>
      <trkpt lat="49.04999" lon="3.942">
        <ele>127.8</ele>
        <time>2020-06-30T19:45:46Z</time>
      </trkpt>
      <trkpt lat="49.04999" lon="3.942">
        <ele>127.8</ele>
        <time>2020-06-30T19:45:47Z</time>
      </trkpt>
      <trkpt lat="49.05" lon="3.94198">
        <ele>127.8</ele>
        <time>2020-06-30T19:46:13Z</time>
      </trkpt>
      <trkpt lat="49.04999" lon="3.94196">
        <ele>127.8</ele>
        <time>2020-06-30T19:46:14Z</time>
      </trkpt>
      <trkpt lat="49.04999" lon="3.94195">
        <ele>127.8</ele>
        <time>2020-06-30T19:46:15Z</time>
      </trkpt>
      <trkpt lat="49.04998" lon="3.94194">
        <ele>127.8</ele>
        <time>2020-06-30T19:46:16Z</time>
      </trkpt>
      <trkpt lat="49.04998" lon="3.94194">
        <ele>127.8</ele>
        <time>2020-06-30T19:46:17Z</time>
      </trkpt>
      <trkpt lat="49.04997" lon="3.94194">
        <ele>127.8</ele>
        <time>2020-06-30T19:46:18Z</time>
      </trkpt>
      <trkpt lat="49.04997" lon="3.94193">
        <ele>127.8</ele>
        <time>2020-06-30T19:46:19Z</time>
      </trkpt>
      <trkpt lat="49.04996" lon="3.94193">
        <ele>127.8</ele>
        <time>2020-06-30T19:46:20Z</time>
      </trkpt>
      <trkpt lat="49.04996" lon="3.94193">
        <ele>127.8</ele>
        <time>2020-06-30T19:46:21Z</time>
      </trkpt>
      <trkpt lat="49.04995" lon="3.94193">
        <ele>127.8</ele>
        <time>2020-06-30T19:46:22Z</time>
      </trkpt>
      <trkpt lat="49.04995" lon="3.94192">
        <ele>127.8</ele>
        <time>2020-06-30T19:46:23Z</time>
      </trkpt>
      <trkpt lat="49.04994" lon="3.94192">
        <ele>127.8</ele>
        <time>2020-06-30T19:46:24Z</time>
      </trkpt>
      <trkpt lat="49.04994" lon="3.94192">
        <ele>127.8</ele>
        <time>2020-06-30T19:46:25Z</time>
      </trkpt>
      <trkpt lat="49.04993" lon="3.94192">
        <ele>127.8</ele>
        <time>2020-06-30T19:46:26Z</time>
      </trkpt>
      <trkpt lat="49.04993" lon="3.94192">
        <ele>127.8</ele>
        <time>2020-06-30T19:46:27Z</time>
      </trkpt>
      <trkpt lat="49.04992" lon="3.94191">
        <ele>127.8</ele>
        <time>2020-06-30T19:46:39Z</time>
      </trkpt>
      <trkpt lat="49.04992" lon="3.94191">
        <ele>127.8</ele>
        <time>2020-06-30T19:46:40Z</time>
      </trkpt>
      <trkpt lat="49.04991" lon="3.94191">
        <ele>127.8</ele>
        <time>2020-06-30T19:46:41Z</time>
      </trkpt>
      <trkpt lat="49.04991" lon="3.94191">
        <ele>127.8</ele>
        <time>2020-06-30T19:46:42Z</time>
      </trkpt>
      <trkpt lat="49.04993" lon="3.94193">
        <ele>127.8</ele>
        <time>2020-06-30T19:46:43Z</time>
      </trkpt>
      <trkpt lat="49.04993" lon="3.94193">
        <ele>127.8</ele>
        <time>2020-06-30T19:46:44Z</time>
      </trkpt>
      <trkpt lat="49.04992" lon="3.94193">
        <ele>127.8</ele>
        <time>2020-06-30T19:46:45Z</time>
      </trkpt>
      <trkpt lat="49.0499" lon="3.94193">
        <ele>127.8</ele>
        <time>2020-06-30T19:46:46Z</time>
      </trkpt>
      <trkpt lat="49.0499" lon="3.94193">
        <ele>127.8</ele>
        <time>2020-06-30T19:46:47Z</time>
      </trkpt>
      <trkpt lat="49.0499" lon="3.94193">
        <ele>127.8</ele>
        <time>2020-06-30T19:46:48Z</time>
      </trkpt>
      <trkpt lat="49.04991" lon="3.94193">
        <ele>127.8</ele>
        <time>2020-06-30T19:46:49Z</time>
      </trkpt>
      <trkpt lat="49.04992" lon="3.94193">
        <ele>127.8</ele>
        <time>2020-06-30T19:46:50Z</time>
      </trkpt>
      <trkpt lat="49.04992" lon="3.94193">
        <ele>127.8</ele>
        <time>2020-06-30T19:46:51Z</time>
      </trkpt>
      <trkpt lat="49.04992" lon="3.94193">
        <ele>127.8</ele>
        <time>2020-06-30T19:46:52Z</time>
      </trkpt>
      <trkpt lat="49.04991" lon="3.94193">
        <ele>127.8</ele>
        <time>2020-06-30T19:46:53Z</time>
      </trkpt>
      <trkpt lat="49.04992" lon="3.94193">
        <ele>127.8</ele>
        <time>2020-06-30T19:46:54Z</time>
      </trkpt>
      <trkpt lat="49.04992" lon="3.94193">
        <ele>127.8</ele>
        <time>2020-06-30T19:46:55Z</time>
      </trkpt>
      <trkpt lat="49.04992" lon="3.94192">
        <ele>127.8</ele>
        <time>2020-06-30T19:46:56Z</time>
      </trkpt>
      <trkpt lat="49.04992" lon="3.94191">
        <ele>127.8</ele>
        <time>2020-06-30T19:46:57Z</time>
      </trkpt>
      <trkpt lat="49.04993" lon="3.9419">
        <ele>127.8</ele>
        <time>2020-06-30T19:46:58Z</time>
      </trkpt>
      <trkpt lat="49.04984" lon="3.94185">
        <ele>127.7</ele>
        <time>2020-06-30T19:48:56Z</time>
      </trkpt>
      <trkpt lat="49.04984" lon="3.94184">
        <ele>127.7</ele>
        <time>2020-06-30T19:48:57Z</time>
      </trkpt>
      <trkpt lat="49.04984" lon="3.94184">
        <ele>127.7</ele>
        <time>2020-06-30T19:48:58Z</time>
      </trkpt>
      <trkpt lat="49.04984" lon="3.94184">
        <ele>127.7</ele>
        <time>2020-06-30T19:48:59Z</time>
      </trkpt>
      <trkpt lat="49.04984" lon="3.94184">
        <ele>127.7</ele>
        <time>2020-06-30T19:49:00Z</time>
      </trkpt>
      <trkpt lat="49.04984" lon="3.94184">
        <ele>127.7</ele>
        <time>2020-06-30T19:49:01Z</time>
      </trkpt>
      <trkpt lat="49.04984" lon="3.94184">
        <ele>127.7</ele>
        <time>2020-06-30T19:49:02Z</time>
      </trkpt>
      <trkpt lat="49.04984" lon="3.94184">
        <ele>127.7</ele>
        <time>2020-06-30T19:49:03Z</time>
      </trkpt>
      <trkpt lat="49.04984" lon="3.94184">
        <ele>127.7</ele>
        <time>2020-06-30T19:49:04Z</time>
      </trkpt>
      <trkpt lat="49.04984" lon="3.94184">
        <ele>127.7</ele>
        <time>2020-06-30T19:49:05Z</time>
      </trkpt>
      <trkpt lat="49.04984" lon="3.94184">
        <ele>127.7</ele>
        <time>2020-06-30T19:49:06Z</time>
      </trkpt>
      <trkpt lat="49.04984" lon="3.94184">
        <ele>127.7</ele>
        <time>2020-06-30T19:49:07Z</time>
      </trkpt>
      <trkpt lat="49.04984" lon="3.94184">
        <ele>127.7</ele>
        <time>2020-06-30T19:49:08Z</time>
      </trkpt>
      <trkpt lat="49.04982" lon="3.94184">
        <ele>127.7</ele>
        <time>2020-06-30T19:49:41Z</time>
      </trkpt>
      <trkpt lat="49.04982" lon="3.94183">
        <ele>127.7</ele>
        <time>2020-06-30T19:49:42Z</time>
      </trkpt>
      <trkpt lat="49.04983" lon="3.94184">
        <ele>127.7</ele>
        <time>2020-06-30T19:49:43Z</time>
      </trkpt>
      <trkpt lat="49.04983" lon="3.94184">
        <ele>127.7</ele>
        <time>2020-06-30T19:49:44Z</time>
      </trkpt>
      <trkpt lat="49.04983" lon="3.94184">
        <ele>127.7</ele>
        <time>2020-06-30T19:49:45Z</time>
      </trkpt>
      <trkpt lat="49.04983" lon="3.94184">
        <ele>127.7</ele>
        <time>2020-06-30T19:49:46Z</time>
      </trkpt>
      <trkpt lat="49.04983" lon="3.94184">
        <ele>127.7</ele>
        <time>2020-06-30T19:49:47Z</time>
      </trkpt>
      <trkpt lat="49.04983" lon="3.94184">
        <ele>127.7</ele>
        <time>2020-06-30T19:49:48Z</time>
      </trkpt>
      <trkpt lat="49.04983" lon="3.94184">
        <ele>127.7</ele>
        <time>2020-06-30T19:49:49Z</time>
      </trkpt>
      <trkpt lat="49.04983" lon="3.94184">
        <ele>127.7</ele>
        <time>2020-06-30T19:49:50Z</time>
      </trkpt>
      <trkpt lat="49.04983" lon="3.94184">
        <ele>127.7</ele>
        <time>2020-06-30T19:49:51Z</time>
      </trkpt>
      <trkpt lat="49.04983" lon="3.94184">
        <ele>127.7</ele>
        <time>2020-06-30T19:49:52Z</time>
      </trkpt>
      <trkpt lat="49.04987" lon="3.94186">
        <ele>127.7</ele>
        <time>2020-06-30T19:51:28Z</time>
      </trkpt>
      <trkpt lat="49.04986" lon="3.94185">
        <ele>127.7</ele>
        <time>2020-06-30T19:51:29Z</time>
      </trkpt>
      <trkpt lat="49.04987" lon="3.94185">
        <ele>127.7</ele>
        <time>2020-06-30T19:51:30Z</time>
      </trkpt>
      <trkpt lat="49.04986" lon="3.94185">
        <ele>127.7</ele>
        <time>2020-06-30T19:51:31Z</time>
      </trkpt>
      <trkpt lat="49.04986" lon="3.94185">
        <ele>127.7</ele>
        <time>2020-06-30T19:51:32Z</time>
      </trkpt>
      <trkpt lat="49.04986" lon="3.94185">
        <ele>127.7</ele>
        <time>2020-06-30T19:51:33Z</time>
      </trkpt>
      <trkpt lat="49.04986" lon="3.94184">
        <ele>127.7</ele>
        <time>2020-06-30T19:51:34Z</time>
      </trkpt>
      <trkpt lat="49.04986" lon="3.94184">
        <ele>127.7</ele>
        <time>2020-06-30T19:51:35Z</time>
      </trkpt>
      <trkpt lat="49.04986" lon="3.94184">
        <ele>127.7</ele>
        <time>2020-06-30T19:51:36Z</time>
      </trkpt>
      <trkpt lat="49.04986" lon="3.94184">
        <ele>127.7</ele>
        <time>2020-06-30T19:51:37Z</time>
      </trkpt>
      <trkpt lat="49.04986" lon="3.94184">
        <ele>127.7</ele>
        <time>2020-06-30T19:51:38Z</time>
      </trkpt>
      <trkpt lat="49.04986" lon="3.94184">
        <ele>127.7</ele>
        <time>2020-06-30T19:51:39Z</time>
      </trkpt>
      <trkpt lat="49.04986" lon="3.94184">
        <ele>127.7</ele>
        <time>2020-06-30T19:51:40Z</time>
      </trkpt>
      <trkpt lat="49.04986" lon="3.94184">
        <ele>127.7</ele>
        <time>2020-06-30T19:51:41Z</time>
      </trkpt>
      <trkpt lat="49.04986" lon="3.94184">
        <ele>127.7</ele>
        <time>2020-06-30T19:51:42Z</time>
      </trkpt>
      <trkpt lat="49.04986" lon="3.94184">
        <ele>127.7</ele>
        <time>2020-06-30T19:51:43Z</time>
      </trkpt>
      <trkpt lat="49.04986" lon="3.94184">
        <ele>127.7</ele>
        <time>2020-06-30T19:51:44Z</time>
      </trkpt>
      <trkpt lat="49.04965" lon="3.94177">
        <ele>127.6</ele>
        <time>2020-06-30T19:55:04Z</time>
      </trkpt>
      <trkpt lat="49.04965" lon="3.94178">
        <ele>127.6</ele>
        <time>2020-06-30T19:55:05Z</time>
      </trkpt>
      <trkpt lat="49.04965" lon="3.94178">
        <ele>127.6</ele>
        <time>2020-06-30T19:55:06Z</time>
      </trkpt>
      <trkpt lat="49.04964" lon="3.94177">
        <ele>127.6</ele>
        <time>2020-06-30T19:55:07Z</time>
      </trkpt>
      <trkpt lat="49.04964" lon="3.94177">
        <ele>127.6</ele>
        <time>2020-06-30T19:55:08Z</time>
      </trkpt>
      <trkpt lat="49.04964" lon="3.94177">
        <ele>127.6</ele>
        <time>2020-06-30T19:55:09Z</time>
      </trkpt>
      <trkpt lat="49.04964" lon="3.94177">
        <ele>127.6</ele>
        <time>2020-06-30T19:55:10Z</time>
      </trkpt>
      <trkpt lat="49.04964" lon="3.94177">
        <ele>127.6</ele>
        <time>2020-06-30T19:55:11Z</time>
      </trkpt>
      <trkpt lat="49.04964" lon="3.94177">
        <ele>127.6</ele>
        <time>2020-06-30T19:55:12Z</time>
      </trkpt>
      <trkpt lat="49.04964" lon="3.94177">
        <ele>127.6</ele>
        <time>2020-06-30T19:55:13Z</time>
      </trkpt>
      <trkpt lat="49.04964" lon="3.94177">
        <ele>127.6</ele>
        <time>2020-06-30T19:55:14Z</time>
      </trkpt>
      <trkpt lat="49.04975" lon="3.94191">
        <ele>127.6</ele>
        <time>2020-06-30T19:55:38Z</time>
      </trkpt>
      <trkpt lat="49.04976" lon="3.94191">
        <ele>127.6</ele>
        <time>2020-06-30T19:55:39Z</time>
      </trkpt>
      <trkpt lat="49.04975" lon="3.94191">
        <ele>127.6</ele>
        <time>2020-06-30T19:55:40Z</time>
      </trkpt>
      <trkpt lat="49.04975" lon="3.94191">
        <ele>127.6</ele>
        <time>2020-06-30T19:55:41Z</time>
      </trkpt>
      <trkpt lat="49.04975" lon="3.94192">
        <ele>127.6</ele>
        <time>2020-06-30T19:55:42Z</time>
      </trkpt>
      <trkpt lat="49.04976" lon="3.94193">
        <ele>127.6</ele>
        <time>2020-06-30T19:55:43Z</time>
      </trkpt>
      <trkpt lat="49.04976" lon="3.94193">
        <ele>127.6</ele>
        <time>2020-06-30T19:55:44Z</time>
      </trkpt>
      <trkpt lat="49.04977" lon="3.94194">
        <ele>127.6</ele>
        <time>2020-06-30T19:55:45Z</time>
      </trkpt>
      <trkpt lat="49.04977" lon="3.94194">
        <ele>127.6</ele>
        <time>2020-06-30T19:55:46Z</time>
      </trkpt>
      <trkpt lat="49.04977" lon="3.94194">
        <ele>127.6</ele>
        <time>2020-06-30T19:55:47Z</time>
      </trkpt>
      <trkpt lat="49.04978" lon="3.94194">
        <ele>127.6</ele>
        <time>2020-06-30T19:55:48Z</time>
      </trkpt>
      <trkpt lat="49.04978" lon="3.94194">
        <ele>127.6</ele>
        <time>2020-06-30T19:55:49Z</time>
      </trkpt>
      <trkpt lat="49.04978" lon="3.94194">
        <ele>127.6</ele>
        <time>2020-06-30T19:55:50Z</time>
      </trkpt>
      <trkpt lat="49.04978" lon="3.94193">
        <ele>127.6</ele>
        <time>2020-06-30T19:55:51Z</time>
      </trkpt>
      <trkpt lat="49.04978" lon="3.94193">
        <ele>127.6</ele>
        <time>2020-06-30T19:55:52Z</time>
      </trkpt>
      <trkpt lat="49.04978" lon="3.94195">
        <ele>127.6</ele>
        <time>2020-06-30T19:55:53Z</time>
      </trkpt>
      <trkpt lat="49.04979" lon="3.94195">
        <ele>127.6</ele>
        <time>2020-06-30T19:55:54Z</time>
      </trkpt>
      <trkpt lat="49.0498" lon="3.94195">
        <ele>127.6</ele>
        <time>2020-06-30T19:55:55Z</time>
      </trkpt>
      <trkpt lat="49.04986" lon="3.94196">
        <ele>127.6</ele>
        <time>2020-06-30T19:59:21Z</time>
      </trkpt>
      <trkpt lat="49.04986" lon="3.94196">
        <ele>127.6</ele>
        <time>2020-06-30T19:59:22Z</time>
      </trkpt>
      <trkpt lat="49.04986" lon="3.94196">
        <ele>127.6</ele>
        <time>2020-06-30T19:59:23Z</time>
      </trkpt>
      <trkpt lat="49.04986" lon="3.94195">
        <ele>127.5</ele>
        <time>2020-06-30T19:59:24Z</time>
      </trkpt>
      <trkpt lat="49.04986" lon="3.94195">
        <ele>127.5</ele>
        <time>2020-06-30T19:59:25Z</time>
      </trkpt>
      <trkpt lat="49.04986" lon="3.94195">
        <ele>127.5</ele>
        <time>2020-06-30T19:59:26Z</time>
      </trkpt>
      <trkpt lat="49.04985" lon="3.94195">
        <ele>127.5</ele>
        <time>2020-06-30T19:59:27Z</time>
      </trkpt>
      <trkpt lat="49.04985" lon="3.94195">
        <ele>127.5</ele>
        <time>2020-06-30T19:59:28Z</time>
      </trkpt>
      <trkpt lat="49.04984" lon="3.94196">
        <ele>127.5</ele>
        <time>2020-06-30T19:59:29Z</time>
      </trkpt>
      <trkpt lat="49.04984" lon="3.94197">
        <ele>127.5</ele>
        <time>2020-06-30T19:59:30Z</time>
      </trkpt>
      <trkpt lat="49.04984" lon="3.94197">
        <ele>127.5</ele>
        <time>2020-06-30T19:59:31Z</time>
      </trkpt>
      <trkpt lat="49.04983" lon="3.94197">
        <ele>127.5</ele>
        <time>2020-06-30T19:59:32Z</time>
      </trkpt>
      <trkpt lat="49.04983" lon="3.94197">
        <ele>127.5</ele>
        <time>2020-06-30T19:59:33Z</time>
      </trkpt>
      <trkpt lat="49.04983" lon="3.94197">
        <ele>127.5</ele>
        <time>2020-06-30T19:59:34Z</time>
      </trkpt>
      <trkpt lat="49.04983" lon="3.94198">
        <ele>127.5</ele>
        <time>2020-06-30T19:59:35Z</time>
      </trkpt>
      <trkpt lat="49.04982" lon="3.94198">
        <ele>127.5</ele>
        <time>2020-06-30T19:59:36Z</time>
      </trkpt>
      <trkpt lat="49.04983" lon="3.94198">
        <ele>127.5</ele>
        <time>2020-06-30T19:59:37Z</time>
      </trkpt>
      <trkpt lat="49.04983" lon="3.94203">
        <ele>127.5</ele>
        <time>2020-06-30T20:02:43Z</time>
      </trkpt>
      <trkpt lat="49.04984" lon="3.94204">
        <ele>127.5</ele>
        <time>2020-06-30T20:02:44Z</time>
      </trkpt>
      <trkpt lat="49.04984" lon="3.94205">
        <ele>127.5</ele>
        <time>2020-06-30T20:02:45Z</time>
      </trkpt>
      <trkpt lat="49.04984" lon="3.94205">
        <ele>127.5</ele>
        <time>2020-06-30T20:02:46Z</time>
      </trkpt>
      <trkpt lat="49.04984" lon="3.94206">
        <ele>127.5</ele>
        <time>2020-06-30T20:02:47Z</time>
      </trkpt>
      <trkpt lat="49.04984" lon="3.94206">
        <ele>127.5</ele>
        <time>2020-06-30T20:02:48Z</time>
      </trkpt>
      <trkpt lat="49.04984" lon="3.94206">
        <ele>127.5</ele>
        <time>2020-06-30T20:02:49Z</time>
      </trkpt>
      <trkpt lat="49.04984" lon="3.94207">
        <ele>127.5</ele>
        <time>2020-06-30T20:02:50Z</time>
      </trkpt>
      <trkpt lat="49.04984" lon="3.94209">
        <ele>127.5</ele>
        <time>2020-06-30T20:02:51Z</time>
      </trkpt>
      <trkpt lat="49.04985" lon="3.94209">
        <ele>127.5</ele>
        <time>2020-06-30T20:02:52Z</time>
      </trkpt>
      <trkpt lat="49.04986" lon="3.94209">
        <ele>127.5</ele>
        <time>2020-06-30T20:02:53Z</time>
      </trkpt>
      <trkpt lat="49.04987" lon="3.94208">
        <ele>127.5</ele>
        <time>2020-06-30T20:02:54Z</time>
      </trkpt>
      <trkpt lat="49.04987" lon="3.94208">
        <ele>127.5</ele>
        <time>2020-06-30T20:02:55Z</time>
      </trkpt>
      <trkpt lat="49.04987" lon="3.94208">
        <ele>127.5</ele>
        <time>2020-06-30T20:02:56Z</time>
      </trkpt>
      <trkpt lat="49.04987" lon="3.94208">
        <ele>127.5</ele>
        <time>2020-06-30T20:02:57Z</time>
      </trkpt>
      <trkpt lat="49.04987" lon="3.94208">
        <ele>127.5</ele>
        <time>2020-06-30T20:02:58Z</time>
      </trkpt>
      <trkpt lat="49.04987" lon="3.94208">
        <ele>127.5</ele>
        <time>2020-06-30T20:02:59Z</time>
      </trkpt>
      <trkpt lat="49.04987" lon="3.94208">
        <ele>127.5</ele>
        <time>2020-06-30T20:03:00Z</time>
      </trkpt>
      <trkpt lat="49.04987" lon="3.94208">
        <ele>127.5</ele>
        <time>2020-06-30T20:03:01Z</time>
      </trkpt>
      <trkpt lat="49.04987" lon="3.94208">
        <ele>127.5</ele>
        <time>2020-06-30T20:03:02Z</time>
      </trkpt>
      <trkpt lat="49.04987" lon="3.94208">
        <ele>127.5</ele>
        <time>2020-06-30T20:03:03Z</time>
      </trkpt>
      <trkpt lat="49.04987" lon="3.94208">
        <ele>127.5</ele>
        <time>2020-06-30T20:03:04Z</time>
      </trkpt>
      <trkpt lat="49.04987" lon="3.94208">
        <ele>127.5</ele>
        <time>2020-06-30T20:03:05Z</time>
      </trkpt>
      <trkpt lat="49.04987" lon="3.94208">
        <ele>127.5</ele>
        <time>2020-06-30T20:03:06Z</time>
      </trkpt>
      <trkpt lat="49.04987" lon="3.94208">
        <ele>127.5</ele>
        <time>2020-06-30T20:03:07Z</time>
      </trkpt>
      <trkpt lat="49.04978" lon="3.94207">
        <ele>127.5</ele>
        <time>2020-06-30T20:05:06Z</time>
      </trkpt>
      <trkpt lat="49.04978" lon="3.94208">
        <ele>127.5</ele>
        <time>2020-06-30T20:05:07Z</time>
      </trkpt>
      <trkpt lat="49.04979" lon="3.94208">
        <ele>127.5</ele>
        <time>2020-06-30T20:05:08Z</time>
      </trkpt>
      <trkpt lat="49.04979" lon="3.94208">
        <ele>127.5</ele>
        <time>2020-06-30T20:05:09Z</time>
      </trkpt>
      <trkpt lat="49.04979" lon="3.94208">
        <ele>127.5</ele>
        <time>2020-06-30T20:05:10Z</time>
      </trkpt>
      <trkpt lat="49.04979" lon="3.94208">
        <ele>127.5</ele>
        <time>2020-06-30T20:05:11Z</time>
      </trkpt>
      <trkpt lat="49.04979" lon="3.94208">
        <ele>127.5</ele>
        <time>2020-06-30T20:05:12Z</time>
      </trkpt>
      <trkpt lat="49.04979" lon="3.94208">
        <ele>127.5</ele>
        <time>2020-06-30T20:05:13Z</time>
      </trkpt>
      <trkpt lat="49.04979" lon="3.94208">
        <ele>127.5</ele>
        <time>2020-06-30T20:05:14Z</time>
      </trkpt>
      <trkpt lat="49.04979" lon="3.94208">
        <ele>127.5</ele>
        <time>2020-06-30T20:05:15Z</time>
      </trkpt>
      <trkpt lat="49.04979" lon="3.94208">
        <ele>127.5</ele>
        <time>2020-06-30T20:05:16Z</time>
      </trkpt>
      <trkpt lat="49.04979" lon="3.94208">
        <ele>127.5</ele>
        <time>2020-06-30T20:05:17Z</time>
      </trkpt>
      <trkpt lat="49.04979" lon="3.94208">
        <ele>127.5</ele>
        <time>2020-06-30T20:05:18Z</time>
      </trkpt>
      <trkpt lat="49.04979" lon="3.94208">
        <ele>127.5</ele>
        <time>2020-06-30T20:05:19Z</time>
      </trkpt>
      <trkpt lat="49.04979" lon="3.94208">
        <ele>127.5</ele>
        <time>2020-06-30T20:05:20Z</time>
      </trkpt>
      <trkpt lat="49.04979" lon="3.94208">
        <ele>127.5</ele>
        <time>2020-06-30T20:05:21Z</time>
      </trkpt>
      <trkpt lat="49.04981" lon="3.94199">
        <ele>127.5</ele>
        <time>2020-06-30T20:06:30Z</time>
      </trkpt>
      <trkpt lat="49.04982" lon="3.94198">
        <ele>127.4</ele>
        <time>2020-06-30T20:06:31Z</time>
      </trkpt>
      <trkpt lat="49.04983" lon="3.94197">
        <ele>127.4</ele>
        <time>2020-06-30T20:06:32Z</time>
      </trkpt>
      <trkpt lat="49.04983" lon="3.94197">
        <ele>127.4</ele>
        <time>2020-06-30T20:06:33Z</time>
      </trkpt>
      <trkpt lat="49.04983" lon="3.94196">
        <ele>127.4</ele>
        <time>2020-06-30T20:06:34Z</time>
      </trkpt>
      <trkpt lat="49.04983" lon="3.94196">
        <ele>127.4</ele>
        <time>2020-06-30T20:06:35Z</time>
      </trkpt>
      <trkpt lat="49.04983" lon="3.94196">
        <ele>127.4</ele>
        <time>2020-06-30T20:06:36Z</time>
      </trkpt>
      <trkpt lat="49.04983" lon="3.94196">
        <ele>127.4</ele>
        <time>2020-06-30T20:06:37Z</time>
      </trkpt>
      <trkpt lat="49.04983" lon="3.94197">
        <ele>127.4</ele>
        <time>2020-06-30T20:06:38Z</time>
      </trkpt>
      <trkpt lat="49.04983" lon="3.94197">
        <ele>127.4</ele>
        <time>2020-06-30T20:06:39Z</time>
      </trkpt>
      <trkpt lat="49.04983" lon="3.94197">
        <ele>127.4</ele>
        <time>2020-06-30T20:06:40Z</time>
      </trkpt>
      <trkpt lat="49.04982" lon="3.94197">
        <ele>127.4</ele>
        <time>2020-06-30T20:06:41Z</time>
      </trkpt>
      <trkpt lat="49.04982" lon="3.94198">
        <ele>127.4</ele>
        <time>2020-06-30T20:06:42Z</time>
      </trkpt>
      <trkpt lat="49.04982" lon="3.94198">
        <ele>127.4</ele>
        <time>2020-06-30T20:06:43Z</time>
      </trkpt>
      <trkpt lat="49.04981" lon="3.94198">
        <ele>127.4</ele>
        <time>2020-06-30T20:06:44Z</time>
      </trkpt>
      <trkpt lat="49.04981" lon="3.94198">
        <ele>127.4</ele>
        <time>2020-06-30T20:06:45Z</time>
      </trkpt>
      <trkpt lat="49.04981" lon="3.94198">
        <ele>127.4</ele>
        <time>2020-06-30T20:06:46Z</time>
      </trkpt>
      <trkpt lat="49.04981" lon="3.94198">
        <ele>127.4</ele>
        <time>2020-06-30T20:06:47Z</time>
      </trkpt>
      <trkpt lat="49.04981" lon="3.94198">
        <ele>127.4</ele>
        <time>2020-06-30T20:06:48Z</time>
      </trkpt>
      <trkpt lat="49.04981" lon="3.94198">
        <ele>127.4</ele>
        <time>2020-06-30T20:06:49Z</time>
      </trkpt>
      <trkpt lat="49.04981" lon="3.94197">
        <ele>127.4</ele>
        <time>2020-06-30T20:06:50Z</time>
      </trkpt>
      <trkpt lat="49.04981" lon="3.94196">
        <ele>127.4</ele>
        <time>2020-06-30T20:06:51Z</time>
      </trkpt>
      <trkpt lat="49.04981" lon="3.94196">
        <ele>127.4</ele>
        <time>2020-06-30T20:06:52Z</time>
      </trkpt>
      <trkpt lat="49.04981" lon="3.94195">
        <ele>127.4</ele>
        <time>2020-06-30T20:06:53Z</time>
      </trkpt>
      <trkpt lat="49.04996" lon="3.94195">
        <ele>127.4</ele>
        <time>2020-06-30T20:18:48Z</time>
      </trkpt>
      <trkpt lat="49.04996" lon="3.94195">
        <ele>127.4</ele>
        <time>2020-06-30T20:18:49Z</time>
      </trkpt>
      <trkpt lat="49.04996" lon="3.94195">
        <ele>127.4</ele>
        <time>2020-06-30T20:18:50Z</time>
      </trkpt>
      <trkpt lat="49.04996" lon="3.94195">
        <ele>127.4</ele>
        <time>2020-06-30T20:18:51Z</time>
      </trkpt>
      <trkpt lat="49.04996" lon="3.94195">
        <ele>127.4</ele>
        <time>2020-06-30T20:18:52Z</time>
      </trkpt>
      <trkpt lat="49.04996" lon="3.94195">
        <ele>127.4</ele>
        <time>2020-06-30T20:18:53Z</time>
      </trkpt>
      <trkpt lat="49.04996" lon="3.94195">
        <ele>127.4</ele>
        <time>2020-06-30T20:18:54Z</time>
      </trkpt>
      <trkpt lat="49.04996" lon="3.94195">
        <ele>127.4</ele>
        <time>2020-06-30T20:18:55Z</time>
      </trkpt>
      <trkpt lat="49.04996" lon="3.94195">
        <ele>127.4</ele>
        <time>2020-06-30T20:18:56Z</time>
      </trkpt>
      <trkpt lat="49.04996" lon="3.94195">
        <ele>127.4</ele>
        <time>2020-06-30T20:18:57Z</time>
      </trkpt>
      <trkpt lat="49.04997" lon="3.94194">
        <ele>127.4</ele>
        <time>2020-06-30T20:18:58Z</time>
      </trkpt>
      <trkpt lat="49.04999" lon="3.94199">
        <ele>127.4</ele>
        <time>2020-06-30T20:20:28Z</time>
      </trkpt>
      <trkpt lat="49.04998" lon="3.94201">
        <ele>127.4</ele>
        <time>2020-06-30T20:20:29Z</time>
      </trkpt>
      <trkpt lat="49.04998" lon="3.94201">
        <ele>127.4</ele>
        <time>2020-06-30T20:20:30Z</time>
      </trkpt>
      <trkpt lat="49.04998" lon="3.942">
        <ele>127.4</ele>
        <time>2020-06-30T20:20:31Z</time>
      </trkpt>
      <trkpt lat="49.04998" lon="3.942">
        <ele>127.4</ele>
        <time>2020-06-30T20:20:32Z</time>
      </trkpt>
      <trkpt lat="49.04997" lon="3.94199">
        <ele>127.4</ele>
        <time>2020-06-30T20:20:33Z</time>
      </trkpt>
      <trkpt lat="49.04997" lon="3.94197">
        <ele>127.4</ele>
        <time>2020-06-30T20:20:34Z</time>
      </trkpt>
      <trkpt lat="49.04997" lon="3.94195">
        <ele>127.4</ele>
        <time>2020-06-30T20:20:35Z</time>
      </trkpt>
      <trkpt lat="49.04997" lon="3.94193">
        <ele>127.4</ele>
        <time>2020-06-30T20:20:36Z</time>
      </trkpt>
      <trkpt lat="49.04997" lon="3.94192">
        <ele>127.3</ele>
        <time>2020-06-30T20:20:37Z</time>
      </trkpt>
      <trkpt lat="49.04997" lon="3.94193">
        <ele>127.3</ele>
        <time>2020-06-30T20:20:38Z</time>
      </trkpt>
      <trkpt lat="49.04997" lon="3.94192">
        <ele>127.3</ele>
        <time>2020-06-30T20:20:39Z</time>
      </trkpt>
      <trkpt lat="49.04997" lon="3.94192">
        <ele>127.3</ele>
        <time>2020-06-30T20:20:40Z</time>
      </trkpt>
      <trkpt lat="49.04997" lon="3.94192">
        <ele>127.3</ele>
        <time>2020-06-30T20:20:41Z</time>
      </trkpt>
      <trkpt lat="49.04998" lon="3.94192">
        <ele>127.3</ele>
        <time>2020-06-30T20:20:42Z</time>
      </trkpt>
      <trkpt lat="49.04997" lon="3.94192">
        <ele>127.3</ele>
        <time>2020-06-30T20:20:43Z</time>
      </trkpt>
      <trkpt lat="49.04998" lon="3.94192">
        <ele>127.3</ele>
        <time>2020-06-30T20:20:44Z</time>
      </trkpt>
      <trkpt lat="49.04997" lon="3.94192">
        <ele>127.3</ele>
        <time>2020-06-30T20:20:45Z</time>
      </trkpt>
      <trkpt lat="49.04997" lon="3.94191">
        <ele>127.3</ele>
        <time>2020-06-30T20:20:46Z</time>
      </trkpt>
      <trkpt lat="49.04997" lon="3.94191">
        <ele>127.3</ele>
        <time>2020-06-30T20:20:47Z</time>
      </trkpt>
      <trkpt lat="49.04996" lon="3.94197">
        <ele>127.3</ele>
        <time>2020-06-30T20:21:06Z</time>
      </trkpt>
      <trkpt lat="49.04996" lon="3.94198">
        <ele>127.3</ele>
        <time>2020-06-30T20:21:07Z</time>
      </trkpt>
      <trkpt lat="49.04995" lon="3.942">
        <ele>127.3</ele>
        <time>2020-06-30T20:21:08Z</time>
      </trkpt>
      <trkpt lat="49.04995" lon="3.94202">
        <ele>127.3</ele>
        <time>2020-06-30T20:21:09Z</time>
      </trkpt>
      <trkpt lat="49.04995" lon="3.94202">
        <ele>127.3</ele>
        <time>2020-06-30T20:21:10Z</time>
      </trkpt>
      <trkpt lat="49.04995" lon="3.94202">
        <ele>127.3</ele>
        <time>2020-06-30T20:21:11Z</time>
      </trkpt>
      <trkpt lat="49.04995" lon="3.94201">
        <ele>127.3</ele>
        <time>2020-06-30T20:21:12Z</time>
      </trkpt>
      <trkpt lat="49.04995" lon="3.942">
        <ele>127.3</ele>
        <time>2020-06-30T20:21:13Z</time>
      </trkpt>
      <trkpt lat="49.04996" lon="3.942">
        <ele>127.3</ele>
        <time>2020-06-30T20:21:14Z</time>
      </trkpt>
      <trkpt lat="49.04996" lon="3.94199">
        <ele>127.3</ele>
        <time>2020-06-30T20:21:15Z</time>
      </trkpt>
      <trkpt lat="49.04996" lon="3.94199">
        <ele>127.3</ele>
        <time>2020-06-30T20:21:16Z</time>
      </trkpt>
      <trkpt lat="49.04996" lon="3.94198">
        <ele>127.3</ele>
        <time>2020-06-30T20:21:17Z</time>
      </trkpt>
      <trkpt lat="49.04996" lon="3.94198">
        <ele>127.3</ele>
        <time>2020-06-30T20:21:18Z</time>
      </trkpt>
      <trkpt lat="49.04996" lon="3.94197">
        <ele>127.3</ele>
        <time>2020-06-30T20:21:19Z</time>
      </trkpt>
      <trkpt lat="49.04996" lon="3.94196">
        <ele>127.3</ele>
        <time>2020-06-30T20:21:20Z</time>
      </trkpt>
      <trkpt lat="49.04997" lon="3.94195">
        <ele>127.3</ele>
        <time>2020-06-30T20:21:21Z</time>
      </trkpt>
      <trkpt lat="49.04997" lon="3.94194">
        <ele>127.3</ele>
        <time>2020-06-30T20:21:22Z</time>
      </trkpt>
      <trkpt lat="49.04997" lon="3.94194">
        <ele>127.3</ele>
        <time>2020-06-30T20:21:23Z</time>
      </trkpt>
      <trkpt lat="49.04997" lon="3.94194">
        <ele>127.3</ele>
        <time>2020-06-30T20:21:24Z</time>
      </trkpt>
      <trkpt lat="49.04997" lon="3.94194">
        <ele>127.3</ele>
        <time>2020-06-30T20:21:25Z</time>
      </trkpt>
      <trkpt lat="49.04997" lon="3.94194">
        <ele>127.3</ele>
        <time>2020-06-30T20:21:26Z</time>
      </trkpt>
      <trkpt lat="49.04997" lon="3.94193">
        <ele>127.3</ele>
        <time>2020-06-30T20:21:27Z</time>
      </trkpt>
      <trkpt lat="49.04997" lon="3.94194">
        <ele>127.3</ele>
        <time>2020-06-30T20:21:28Z</time>
      </trkpt>
      <trkpt lat="49.04997" lon="3.94194">
        <ele>127.3</ele>
        <time>2020-06-30T20:21:29Z</time>
      </trkpt>
      <trkpt lat="49.04997" lon="3.94195">
        <ele>127.3</ele>
        <time>2020-06-30T20:21:30Z</time>
      </trkpt>
      <trkpt lat="49.04997" lon="3.94196">
        <ele>127.3</ele>
        <time>2020-06-30T20:21:31Z</time>
      </trkpt>
      <trkpt lat="49.04997" lon="3.94196">
        <ele>127.3</ele>
        <time>2020-06-30T20:21:32Z</time>
      </trkpt>
      <trkpt lat="49.04997" lon="3.94197">
        <ele>127.3</ele>
        <time>2020-06-30T20:21:33Z</time>
      </trkpt>
      <trkpt lat="49.04996" lon="3.94198">
        <ele>127.3</ele>
        <time>2020-06-30T20:21:34Z</time>
      </trkpt>
      <trkpt lat="49.04996" lon="3.94198">
        <ele>127.3</ele>
        <time>2020-06-30T20:21:35Z</time>
      </trkpt>
      <trkpt lat="49.04996" lon="3.94197">
        <ele>127.3</ele>
        <time>2020-06-30T20:21:36Z</time>
      </trkpt>
      <trkpt lat="49.04996" lon="3.94196">
        <ele>127.3</ele>
        <time>2020-06-30T20:21:37Z</time>
      </trkpt>
      <trkpt lat="49.04996" lon="3.94194">
        <ele>127.3</ele>
        <time>2020-06-30T20:21:38Z</time>
      </trkpt>
      <trkpt lat="49.04997" lon="3.94194">
        <ele>127.3</ele>
        <time>2020-06-30T20:21:39Z</time>
      </trkpt>
      <trkpt lat="49.04997" lon="3.94193">
        <ele>127.3</ele>
        <time>2020-06-30T20:21:40Z</time>
      </trkpt>
      <trkpt lat="49.04997" lon="3.94193">
        <ele>127.3</ele>
        <time>2020-06-30T20:21:41Z</time>
      </trkpt>
      <trkpt lat="49.04997" lon="3.94193">
        <ele>127.3</ele>
        <time>2020-06-30T20:21:42Z</time>
      </trkpt>
      <trkpt lat="49.04998" lon="3.94193">
        <ele>127.3</ele>
        <time>2020-06-30T20:21:43Z</time>
      </trkpt>
      <trkpt lat="49.04998" lon="3.94193">
        <ele>127.3</ele>
        <time>2020-06-30T20:21:44Z</time>
      </trkpt>
      <trkpt lat="49.04997" lon="3.94194">
        <ele>127.3</ele>
        <time>2020-06-30T20:21:45Z</time>
      </trkpt>
      <trkpt lat="49.04998" lon="3.94194">
        <ele>127.3</ele>
        <time>2020-06-30T20:21:46Z</time>
      </trkpt>
      <trkpt lat="49.04998" lon="3.94194">
        <ele>127.3</ele>
        <time>2020-06-30T20:21:47Z</time>
      </trkpt>
      <trkpt lat="49.04998" lon="3.94195">
        <ele>127.3</ele>
        <time>2020-06-30T20:21:48Z</time>
      </trkpt>
      <trkpt lat="49.04997" lon="3.94195">
        <ele>127.3</ele>
        <time>2020-06-30T20:21:49Z</time>
      </trkpt>
      <trkpt lat="49.04998" lon="3.94195">
        <ele>127.3</ele>
        <time>2020-06-30T20:21:50Z</time>
      </trkpt>
      <trkpt lat="49.04998" lon="3.94195">
        <ele>127.3</ele>
        <time>2020-06-30T20:21:51Z</time>
      </trkpt>
      <trkpt lat="49.04998" lon="3.94195">
        <ele>127.3</ele>
        <time>2020-06-30T20:21:52Z</time>
      </trkpt>
      <trkpt lat="49.04998" lon="3.94195">
        <ele>127.3</ele>
        <time>2020-06-30T20:21:53Z</time>
      </trkpt>
      <trkpt lat="49.04998" lon="3.94195">
        <ele>127.3</ele>
        <time>2020-06-30T20:21:54Z</time>
      </trkpt>
      <trkpt lat="49.04998" lon="3.94194">
        <ele>127.3</ele>
        <time>2020-06-30T20:21:55Z</time>
      </trkpt>
      <trkpt lat="49.04998" lon="3.94195">
        <ele>127.3</ele>
        <time>2020-06-30T20:21:56Z</time>
      </trkpt>
      <trkpt lat="49.04999" lon="3.94198">
        <ele>127.3</ele>
        <time>2020-06-30T20:22:19Z</time>
      </trkpt>
      <trkpt lat="49.04998" lon="3.94199">
        <ele>127.3</ele>
        <time>2020-06-30T20:22:20Z</time>
      </trkpt>
      <trkpt lat="49.04998" lon="3.94201">
        <ele>127.3</ele>
        <time>2020-06-30T20:22:21Z</time>
      </trkpt>
      <trkpt lat="49.04998" lon="3.94201">
        <ele>127.3</ele>
        <time>2020-06-30T20:22:22Z</time>
      </trkpt>
      <trkpt lat="49.04998" lon="3.94203">
        <ele>127.3</ele>
        <time>2020-06-30T20:22:23Z</time>
      </trkpt>
      <trkpt lat="49.04997" lon="3.94205">
        <ele>127.2</ele>
        <time>2020-06-30T20:22:24Z</time>
      </trkpt>
      <trkpt lat="49.04997" lon="3.94206">
        <ele>127.2</ele>
        <time>2020-06-30T20:22:25Z</time>
      </trkpt>
      <trkpt lat="49.04997" lon="3.94208">
        <ele>127.2</ele>
        <time>2020-06-30T20:22:26Z</time>
      </trkpt>
      <trkpt lat="49.04997" lon="3.9421">
        <ele>127.2</ele>
        <time>2020-06-30T20:22:27Z</time>
      </trkpt>
      <trkpt lat="49.04996" lon="3.94211">
        <ele>127.2</ele>
        <time>2020-06-30T20:22:28Z</time>
      </trkpt>
      <trkpt lat="49.04995" lon="3.94212">
        <ele>127.2</ele>
        <time>2020-06-30T20:22:29Z</time>
      </trkpt>
      <trkpt lat="49.04996" lon="3.94213">
        <ele>127.2</ele>
        <time>2020-06-30T20:22:30Z</time>
      </trkpt>
      <trkpt lat="49.04996" lon="3.94213">
        <ele>127.2</ele>
        <time>2020-06-30T20:22:31Z</time>
      </trkpt>
      <trkpt lat="49.04996" lon="3.94213">
        <ele>127.2</ele>
        <time>2020-06-30T20:22:32Z</time>
      </trkpt>
      <trkpt lat="49.04996" lon="3.94213">
        <ele>127.2</ele>
        <time>2020-06-30T20:22:33Z</time>
      </trkpt>
      <trkpt lat="49.04996" lon="3.94213">
        <ele>127.2</ele>
        <time>2020-06-30T20:22:34Z</time>
      </trkpt>
      <trkpt lat="49.04996" lon="3.94214">
        <ele>127.2</ele>
        <time>2020-06-30T20:22:35Z</time>
      </trkpt>
      <trkpt lat="49.04996" lon="3.94213">
        <ele>127.2</ele>
        <time>2020-06-30T20:22:36Z</time>
      </trkpt>
      <trkpt lat="49.04996" lon="3.94212">
        <ele>127.2</ele>
        <time>2020-06-30T20:22:37Z</time>
      </trkpt>
      <trkpt lat="49.04997" lon="3.94211">
        <ele>127.2</ele>
        <time>2020-06-30T20:22:38Z</time>
      </trkpt>
      <trkpt lat="49.04997" lon="3.94209">
        <ele>127.2</ele>
        <time>2020-06-30T20:22:39Z</time>
      </trkpt>
      <trkpt lat="49.04998" lon="3.94208">
        <ele>127.2</ele>
        <time>2020-06-30T20:23:44Z</time>
      </trkpt>
      <trkpt lat="49.04998" lon="3.94207">
        <ele>127.2</ele>
        <time>2020-06-30T20:23:45Z</time>
      </trkpt>
      <trkpt lat="49.04999" lon="3.94206">
        <ele>127.2</ele>
        <time>2020-06-30T20:23:46Z</time>
      </trkpt>
      <trkpt lat="49.04999" lon="3.94204">
        <ele>127.2</ele>
        <time>2020-06-30T20:23:47Z</time>
      </trkpt>
      <trkpt lat="49.05" lon="3.94202">
        <ele>127.1</ele>
        <time>2020-06-30T20:23:48Z</time>
      </trkpt>
      <trkpt lat="49.05" lon="3.94201">
        <ele>127.1</ele>
        <time>2020-06-30T20:23:49Z</time>
      </trkpt>
      <trkpt lat="49.05001" lon="3.94199">
        <ele>127.1</ele>
        <time>2020-06-30T20:23:50Z</time>
      </trkpt>
      <trkpt lat="49.05001" lon="3.94199">
        <ele>127.1</ele>
        <time>2020-06-30T20:23:51Z</time>
      </trkpt>
      <trkpt lat="49.05001" lon="3.94198">
        <ele>127.1</ele>
        <time>2020-06-30T20:23:52Z</time>
      </trkpt>
      <trkpt lat="49.05002" lon="3.94198">
        <ele>127.1</ele>
        <time>2020-06-30T20:23:53Z</time>
      </trkpt>
      <trkpt lat="49.05002" lon="3.94197">
        <ele>127.1</ele>
        <time>2020-06-30T20:23:54Z</time>
      </trkpt>
      <trkpt lat="49.05002" lon="3.94197">
        <ele>127</ele>
        <time>2020-06-30T20:23:55Z</time>
      </trkpt>
      <trkpt lat="49.05002" lon="3.94196">
        <ele>127</ele>
        <time>2020-06-30T20:23:56Z</time>
      </trkpt>
      <trkpt lat="49.05002" lon="3.94196">
        <ele>127</ele>
        <time>2020-06-30T20:23:57Z</time>
      </trkpt>
      <trkpt lat="49.05002" lon="3.94196">
        <ele>127</ele>
        <time>2020-06-30T20:23:58Z</time>
      </trkpt>
      <trkpt lat="49.05002" lon="3.94196">
        <ele>127</ele>
        <time>2020-06-30T20:23:59Z</time>
      </trkpt>
      <trkpt lat="49.05002" lon="3.94196">
        <ele>127</ele>
        <time>2020-06-30T20:24:00Z</time>
      </trkpt>
      <trkpt lat="49.05001" lon="3.94185">
        <ele>126.8</ele>
        <time>2020-06-30T20:24:47Z</time>
      </trkpt>
      <trkpt lat="49.05" lon="3.94183">
        <ele>126.8</ele>
        <time>2020-06-30T20:24:48Z</time>
      </trkpt>
      <trkpt lat="49.05" lon="3.94181">
        <ele>126.7</ele>
        <time>2020-06-30T20:24:49Z</time>
      </trkpt>
      <trkpt lat="49.04999" lon="3.94179">
        <ele>126.7</ele>
        <time>2020-06-30T20:24:50Z</time>
      </trkpt>
      <trkpt lat="49.04999" lon="3.94175">
        <ele>126.5</ele>
        <time>2020-06-30T20:24:51Z</time>
      </trkpt>
      <trkpt lat="49.04999" lon="3.94173">
        <ele>126.5</ele>
        <time>2020-06-30T20:24:52Z</time>
      </trkpt>
      <trkpt lat="49.04999" lon="3.94172">
        <ele>126.5</ele>
        <time>2020-06-30T20:24:53Z</time>
      </trkpt>
      <trkpt lat="49.04999" lon="3.94168">
        <ele>126.3</ele>
        <time>2020-06-30T20:24:54Z</time>
      </trkpt>
      <trkpt lat="49.04999" lon="3.94166">
        <ele>126.3</ele>
        <time>2020-06-30T20:24:55Z</time>
      </trkpt>
      <trkpt lat="49.04999" lon="3.94164">
        <ele>126.2</ele>
        <time>2020-06-30T20:24:56Z</time>
      </trkpt>
      <trkpt lat="49.04999" lon="3.94162">
        <ele>126.1</ele>
        <time>2020-06-30T20:24:57Z</time>
      </trkpt>
      <trkpt lat="49.04999" lon="3.94159">
        <ele>126.1</ele>
        <time>2020-06-30T20:24:58Z</time>
      </trkpt>
      <trkpt lat="49.04999" lon="3.94156">
        <ele>126</ele>
        <time>2020-06-30T20:24:59Z</time>
      </trkpt>
      <trkpt lat="49.04999" lon="3.94154">
        <ele>125.9</ele>
        <time>2020-06-30T20:25:00Z</time>
      </trkpt>
      <trkpt lat="49.04999" lon="3.94151">
        <ele>125.9</ele>
        <time>2020-06-30T20:25:01Z</time>
      </trkpt>
      <trkpt lat="49.04998" lon="3.94148">
        <ele>125.8</ele>
        <time>2020-06-30T20:25:02Z</time>
      </trkpt>
      <trkpt lat="49.04999" lon="3.94146">
        <ele>125.7</ele>
        <time>2020-06-30T20:25:03Z</time>
      </trkpt>
      <trkpt lat="49.04999" lon="3.94142">
        <ele>125.6</ele>
        <time>2020-06-30T20:25:04Z</time>
      </trkpt>
      <trkpt lat="49.04999" lon="3.9414">
        <ele>125.6</ele>
        <time>2020-06-30T20:25:05Z</time>
      </trkpt>
      <trkpt lat="49.04998" lon="3.94137">
        <ele>125.5</ele>
        <time>2020-06-30T20:25:06Z</time>
      </trkpt>
      <trkpt lat="49.04998" lon="3.94135">
        <ele>125.5</ele>
        <time>2020-06-30T20:25:07Z</time>
      </trkpt>
      <trkpt lat="49.04998" lon="3.9413">
        <ele>125.4</ele>
        <time>2020-06-30T20:25:08Z</time>
      </trkpt>
      <trkpt lat="49.04998" lon="3.94129">
        <ele>125.4</ele>
        <time>2020-06-30T20:25:09Z</time>
      </trkpt>
      <trkpt lat="49.04998" lon="3.94125">
        <ele>125.3</ele>
        <time>2020-06-30T20:25:10Z</time>
      </trkpt>
      <trkpt lat="49.04998" lon="3.94124">
        <ele>125.3</ele>
        <time>2020-06-30T20:25:11Z</time>
      </trkpt>
      <trkpt lat="49.04997" lon="3.94122">
        <ele>125.3</ele>
        <time>2020-06-30T20:25:12Z</time>
      </trkpt>
      <trkpt lat="49.04996" lon="3.9412">
        <ele>125.2</ele>
        <time>2020-06-30T20:25:13Z</time>
      </trkpt>
      <trkpt lat="49.04995" lon="3.94118">
        <ele>125.2</ele>
        <time>2020-06-30T20:25:14Z</time>
      </trkpt>
      <trkpt lat="49.04994" lon="3.94117">
        <ele>125.2</ele>
        <time>2020-06-30T20:25:15Z</time>
      </trkpt>
      <trkpt lat="49.04993" lon="3.94116">
        <ele>125.1</ele>
        <time>2020-06-30T20:25:16Z</time>
      </trkpt>
      <trkpt lat="49.04993" lon="3.94115">
        <ele>125.1</ele>
        <time>2020-06-30T20:25:17Z</time>
      </trkpt>
      <trkpt lat="49.04992" lon="3.94114">
        <ele>125.1</ele>
        <time>2020-06-30T20:25:18Z</time>
      </trkpt>
      <trkpt lat="49.04992" lon="3.94113">
        <ele>125.1</ele>
        <time>2020-06-30T20:25:19Z</time>
      </trkpt>
      <trkpt lat="49.04991" lon="3.94111">
        <ele>125.1</ele>
        <time>2020-06-30T20:25:20Z</time>
      </trkpt>
      <trkpt lat="49.04989" lon="3.9411">
        <ele>125</ele>
        <time>2020-06-30T20:25:21Z</time>
      </trkpt>
      <trkpt lat="49.04988" lon="3.94109">
        <ele>125</ele>
        <time>2020-06-30T20:25:22Z</time>
      </trkpt>
      <trkpt lat="49.04988" lon="3.94108">
        <ele>125</ele>
        <time>2020-06-30T20:25:23Z</time>
      </trkpt>
      <trkpt lat="49.04986" lon="3.94106">
        <ele>124.9</ele>
        <time>2020-06-30T20:25:24Z</time>
      </trkpt>
      <trkpt lat="49.04985" lon="3.94105">
        <ele>124.9</ele>
        <time>2020-06-30T20:25:25Z</time>
      </trkpt>
      <trkpt lat="49.04985" lon="3.94104">
        <ele>124.9</ele>
        <time>2020-06-30T20:25:26Z</time>
      </trkpt>
      <trkpt lat="49.04984" lon="3.94101">
        <ele>124.1</ele>
        <time>2020-06-30T20:25:27Z</time>
      </trkpt>
      <trkpt lat="49.04984" lon="3.94099">
        <ele>124.1</ele>
        <time>2020-06-30T20:25:28Z</time>
      </trkpt>
      <trkpt lat="49.04983" lon="3.94097">
        <ele>124</ele>
        <time>2020-06-30T20:25:29Z</time>
      </trkpt>
      <trkpt lat="49.04983" lon="3.94097">
        <ele>124</ele>
        <time>2020-06-30T20:25:30Z</time>
      </trkpt>
      <trkpt lat="49.04983" lon="3.94096">
        <ele>124</ele>
        <time>2020-06-30T20:25:31Z</time>
      </trkpt>
      <trkpt lat="49.04983" lon="3.94095">
        <ele>124</ele>
        <time>2020-06-30T20:25:32Z</time>
      </trkpt>
      <trkpt lat="49.04983" lon="3.94092">
        <ele>124</ele>
        <time>2020-06-30T20:25:33Z</time>
      </trkpt>
      <trkpt lat="49.04983" lon="3.94091">
        <ele>124</ele>
        <time>2020-06-30T20:25:34Z</time>
      </trkpt>
      <trkpt lat="49.04982" lon="3.9409">
        <ele>123.9</ele>
        <time>2020-06-30T20:25:35Z</time>
      </trkpt>
      <trkpt lat="49.04982" lon="3.94089">
        <ele>123.9</ele>
        <time>2020-06-30T20:25:36Z</time>
      </trkpt>
      <trkpt lat="49.04982" lon="3.94088">
        <ele>123.9</ele>
        <time>2020-06-30T20:25:37Z</time>
      </trkpt>
      <trkpt lat="49.04982" lon="3.94086">
        <ele>123.9</ele>
        <time>2020-06-30T20:25:38Z</time>
      </trkpt>
      <trkpt lat="49.04982" lon="3.94084">
        <ele>123.8</ele>
        <time>2020-06-30T20:25:39Z</time>
      </trkpt>
      <trkpt lat="49.04981" lon="3.94082">
        <ele>123.8</ele>
        <time>2020-06-30T20:25:40Z</time>
      </trkpt>
      <trkpt lat="49.04981" lon="3.9408">
        <ele>123.8</ele>
        <time>2020-06-30T20:25:41Z</time>
      </trkpt>
      <trkpt lat="49.04981" lon="3.94079">
        <ele>123.8</ele>
        <time>2020-06-30T20:25:42Z</time>
      </trkpt>
      <trkpt lat="49.04981" lon="3.94076">
        <ele>123.7</ele>
        <time>2020-06-30T20:25:43Z</time>
      </trkpt>
      <trkpt lat="49.04981" lon="3.94074">
        <ele>123.7</ele>
        <time>2020-06-30T20:25:44Z</time>
      </trkpt>
      <trkpt lat="49.04981" lon="3.94071">
        <ele>123.6</ele>
        <time>2020-06-30T20:25:45Z</time>
      </trkpt>
      <trkpt lat="49.0498" lon="3.94067">
        <ele>123.6</ele>
        <time>2020-06-30T20:25:46Z</time>
      </trkpt>
      <trkpt lat="49.0498" lon="3.94066">
        <ele>123.5</ele>
        <time>2020-06-30T20:25:47Z</time>
      </trkpt>
      <trkpt lat="49.0498" lon="3.94061">
        <ele>123.4</ele>
        <time>2020-06-30T20:25:48Z</time>
      </trkpt>
      <trkpt lat="49.04979" lon="3.94059">
        <ele>123.4</ele>
        <time>2020-06-30T20:25:49Z</time>
      </trkpt>
      <trkpt lat="49.04979" lon="3.94055">
        <ele>123.3</ele>
        <time>2020-06-30T20:25:50Z</time>
      </trkpt>
      <trkpt lat="49.04979" lon="3.94053">
        <ele>123.3</ele>
        <time>2020-06-30T20:25:51Z</time>
      </trkpt>
      <trkpt lat="49.04979" lon="3.94051">
        <ele>123.2</ele>
        <time>2020-06-30T20:25:52Z</time>
      </trkpt>
      <trkpt lat="49.04979" lon="3.94049">
        <ele>123.2</ele>
        <time>2020-06-30T20:25:53Z</time>
      </trkpt>
      <trkpt lat="49.04979" lon="3.94048">
        <ele>123.1</ele>
        <time>2020-06-30T20:25:54Z</time>
      </trkpt>
      <trkpt lat="49.04978" lon="3.94047">
        <ele>123.1</ele>
        <time>2020-06-30T20:25:55Z</time>
      </trkpt>
      <trkpt lat="49.04978" lon="3.94046">
        <ele>123.1</ele>
        <time>2020-06-30T20:25:56Z</time>
      </trkpt>
      <trkpt lat="49.04978" lon="3.94046">
        <ele>123.1</ele>
        <time>2020-06-30T20:25:57Z</time>
      </trkpt>
      <trkpt lat="49.04977" lon="3.94045">
        <ele>123.1</ele>
        <time>2020-06-30T20:25:58Z</time>
      </trkpt>
      <trkpt lat="49.04977" lon="3.94043">
        <ele>123</ele>
        <time>2020-06-30T20:25:59Z</time>
      </trkpt>
      <trkpt lat="49.04977" lon="3.94043">
        <ele>123</ele>
        <time>2020-06-30T20:26:00Z</time>
      </trkpt>
      <trkpt lat="49.04978" lon="3.94043">
        <ele>123</ele>
        <time>2020-06-30T20:26:01Z</time>
      </trkpt>
      <trkpt lat="49.04977" lon="3.94043">
        <ele>123</ele>
        <time>2020-06-30T20:26:02Z</time>
      </trkpt>
      <trkpt lat="49.04977" lon="3.94044">
        <ele>123</ele>
        <time>2020-06-30T20:26:03Z</time>
      </trkpt>
      <trkpt lat="49.04977" lon="3.94043">
        <ele>123</ele>
        <time>2020-06-30T20:26:04Z</time>
      </trkpt>
      <trkpt lat="49.04977" lon="3.94042">
        <ele>122.9</ele>
        <time>2020-06-30T20:26:05Z</time>
      </trkpt>
      <trkpt lat="49.04977" lon="3.94043">
        <ele>122.9</ele>
        <time>2020-06-30T20:26:06Z</time>
      </trkpt>
      <trkpt lat="49.04977" lon="3.94043">
        <ele>122.9</ele>
        <time>2020-06-30T20:26:07Z</time>
      </trkpt>
      <trkpt lat="49.04977" lon="3.94043">
        <ele>122.9</ele>
        <time>2020-06-30T20:26:08Z</time>
      </trkpt>
      <trkpt lat="49.04977" lon="3.94042">
        <ele>122.8</ele>
        <time>2020-06-30T20:26:09Z</time>
      </trkpt>
      <trkpt lat="49.04978" lon="3.94041">
        <ele>122.8</ele>
        <time>2020-06-30T20:26:10Z</time>
      </trkpt>
      <trkpt lat="49.04979" lon="3.94039">
        <ele>122.7</ele>
        <time>2020-06-30T20:26:11Z</time>
      </trkpt>
      <trkpt lat="49.0498" lon="3.94037">
        <ele>122.7</ele>
        <time>2020-06-30T20:26:12Z</time>
      </trkpt>
      <trkpt lat="49.04981" lon="3.94036">
        <ele>122.6</ele>
        <time>2020-06-30T20:26:13Z</time>
      </trkpt>
      <trkpt lat="49.04982" lon="3.94036">
        <ele>122.6</ele>
        <time>2020-06-30T20:26:14Z</time>
      </trkpt>
      <trkpt lat="49.04982" lon="3.94033">
        <ele>122.5</ele>
        <time>2020-06-30T20:26:15Z</time>
      </trkpt>
      <trkpt lat="49.04982" lon="3.94032">
        <ele>122.5</ele>
        <time>2020-06-30T20:26:16Z</time>
      </trkpt>
      <trkpt lat="49.04983" lon="3.9403">
        <ele>122.4</ele>
        <time>2020-06-30T20:26:17Z</time>
      </trkpt>
      <trkpt lat="49.04983" lon="3.94028">
        <ele>122.4</ele>
        <time>2020-06-30T20:26:18Z</time>
      </trkpt>
      <trkpt lat="49.04983" lon="3.94026">
        <ele>122.3</ele>
        <time>2020-06-30T20:26:19Z</time>
      </trkpt>
      <trkpt lat="49.04984" lon="3.94025">
        <ele>122.3</ele>
        <time>2020-06-30T20:26:20Z</time>
      </trkpt>
      <trkpt lat="49.04984" lon="3.94023">
        <ele>122.2</ele>
        <time>2020-06-30T20:26:21Z</time>
      </trkpt>
      <trkpt lat="49.04984" lon="3.94021">
        <ele>122.2</ele>
        <time>2020-06-30T20:26:22Z</time>
      </trkpt>
      <trkpt lat="49.04984" lon="3.9402">
        <ele>122.1</ele>
        <time>2020-06-30T20:26:23Z</time>
      </trkpt>
      <trkpt lat="49.04985" lon="3.94018">
        <ele>122.1</ele>
        <time>2020-06-30T20:26:24Z</time>
      </trkpt>
      <trkpt lat="49.04985" lon="3.94016">
        <ele>122</ele>
        <time>2020-06-30T20:27:29Z</time>
      </trkpt>
      <trkpt lat="49.04985" lon="3.94014">
        <ele>122</ele>
        <time>2020-06-30T20:27:30Z</time>
      </trkpt>
      <trkpt lat="49.04986" lon="3.94013">
        <ele>121.9</ele>
        <time>2020-06-30T20:27:31Z</time>
      </trkpt>
      <trkpt lat="49.04988" lon="3.94009">
        <ele>121.8</ele>
        <time>2020-06-30T20:27:32Z</time>
      </trkpt>
      <trkpt lat="49.04989" lon="3.94008">
        <ele>121.7</ele>
        <time>2020-06-30T20:27:33Z</time>
      </trkpt>
      <trkpt lat="49.0499" lon="3.94004">
        <ele>121.6</ele>
        <time>2020-06-30T20:27:34Z</time>
      </trkpt>
      <trkpt lat="49.04992" lon="3.94">
        <ele>121.4</ele>
        <time>2020-06-30T20:27:35Z</time>
      </trkpt>
      <trkpt lat="49.04995" lon="3.93996">
        <ele>121.3</ele>
        <time>2020-06-30T20:27:36Z</time>
      </trkpt>
      <trkpt lat="49.04996" lon="3.93992">
        <ele>121.1</ele>
        <time>2020-06-30T20:27:37Z</time>
      </trkpt>
      <trkpt lat="49.04998" lon="3.93988">
        <ele>121</ele>
        <time>2020-06-30T20:27:38Z</time>
      </trkpt>
      <trkpt lat="49.04999" lon="3.93984">
        <ele>120.8</ele>
        <time>2020-06-30T20:27:39Z</time>
      </trkpt>
      <trkpt lat="49.05" lon="3.93979">
        <ele>120.7</ele>
        <time>2020-06-30T20:27:40Z</time>
      </trkpt>
      <trkpt lat="49.05001" lon="3.93974">
        <ele>120.5</ele>
        <time>2020-06-30T20:27:41Z</time>
      </trkpt>
      <trkpt lat="49.05002" lon="3.93969">
        <ele>120.4</ele>
        <time>2020-06-30T20:27:42Z</time>
      </trkpt>
      <trkpt lat="49.05003" lon="3.93964">
        <ele>120.2</ele>
        <time>2020-06-30T20:27:43Z</time>
      </trkpt>
      <trkpt lat="49.05004" lon="3.93958">
        <ele>120</ele>
        <time>2020-06-30T20:27:44Z</time>
      </trkpt>
      <trkpt lat="49.05004" lon="3.93951">
        <ele>119.8</ele>
        <time>2020-06-30T20:27:45Z</time>
      </trkpt>
      <trkpt lat="49.05005" lon="3.93944">
        <ele>119.5</ele>
        <time>2020-06-30T20:27:46Z</time>
      </trkpt>
      <trkpt lat="49.05007" lon="3.93937">
        <ele>119.2</ele>
        <time>2020-06-30T20:27:47Z</time>
      </trkpt>
      <trkpt lat="49.05007" lon="3.93929">
        <ele>118.9</ele>
        <time>2020-06-30T20:27:48Z</time>
      </trkpt>
      <trkpt lat="49.05008" lon="3.93921">
        <ele>118.5</ele>
        <time>2020-06-30T20:27:49Z</time>
      </trkpt>
      <trkpt lat="49.05009" lon="3.93913">
        <ele>118.2</ele>
        <time>2020-06-30T20:27:50Z</time>
      </trkpt>
      <trkpt lat="49.05011" lon="3.93906">
        <ele>118</ele>
        <time>2020-06-30T20:27:51Z</time>
      </trkpt>
      <trkpt lat="49.05012" lon="3.93898">
        <ele>117.7</ele>
        <time>2020-06-30T20:27:52Z</time>
      </trkpt>
      <trkpt lat="49.05013" lon="3.9389">
        <ele>117.5</ele>
        <time>2020-06-30T20:27:53Z</time>
      </trkpt>
      <trkpt lat="49.05014" lon="3.93882">
        <ele>117.2</ele>
        <time>2020-06-30T20:27:54Z</time>
      </trkpt>
      <trkpt lat="49.05014" lon="3.93875">
        <ele>117</ele>
        <time>2020-06-30T20:27:55Z</time>
      </trkpt>
      <trkpt lat="49.05015" lon="3.93868">
        <ele>116.8</ele>
        <time>2020-06-30T20:27:56Z</time>
      </trkpt>
      <trkpt lat="49.05016" lon="3.93861">
        <ele>116.5</ele>
        <time>2020-06-30T20:27:57Z</time>
      </trkpt>
      <trkpt lat="49.05016" lon="3.93853">
        <ele>116.3</ele>
        <time>2020-06-30T20:27:58Z</time>
      </trkpt>
      <trkpt lat="49.05017" lon="3.93846">
        <ele>116.1</ele>
        <time>2020-06-30T20:27:59Z</time>
      </trkpt>
      <trkpt lat="49.05018" lon="3.93837">
        <ele>115.8</ele>
        <time>2020-06-30T20:28:00Z</time>
      </trkpt>
      <trkpt lat="49.05018" lon="3.9383">
        <ele>115.6</ele>
        <time>2020-06-30T20:28:01Z</time>
      </trkpt>
      <trkpt lat="49.05019" lon="3.93822">
        <ele>115.4</ele>
        <time>2020-06-30T20:28:02Z</time>
      </trkpt>
      <trkpt lat="49.0502" lon="3.93813">
        <ele>115.2</ele>
        <time>2020-06-30T20:28:03Z</time>
      </trkpt>
      <trkpt lat="49.05021" lon="3.93804">
        <ele>115</ele>
        <time>2020-06-30T20:28:04Z</time>
      </trkpt>
      <trkpt lat="49.05021" lon="3.93795">
        <ele>114.8</ele>
        <time>2020-06-30T20:28:05Z</time>
      </trkpt>
      <trkpt lat="49.05022" lon="3.93786">
        <ele>114.6</ele>
        <time>2020-06-30T20:28:06Z</time>
      </trkpt>
      <trkpt lat="49.05022" lon="3.93777">
        <ele>114.4</ele>
        <time>2020-06-30T20:28:07Z</time>
      </trkpt>
      <trkpt lat="49.05023" lon="3.93768">
        <ele>114.2</ele>
        <time>2020-06-30T20:28:08Z</time>
      </trkpt>
      <trkpt lat="49.05024" lon="3.9376">
        <ele>114.1</ele>
        <time>2020-06-30T20:28:09Z</time>
      </trkpt>
      <trkpt lat="49.05024" lon="3.93751">
        <ele>113.9</ele>
        <time>2020-06-30T20:28:10Z</time>
      </trkpt>
      <trkpt lat="49.05025" lon="3.93744">
        <ele>113.7</ele>
        <time>2020-06-30T20:28:11Z</time>
      </trkpt>
      <trkpt lat="49.05025" lon="3.93736">
        <ele>113.6</ele>
        <time>2020-06-30T20:28:12Z</time>
      </trkpt>
      <trkpt lat="49.05026" lon="3.9373">
        <ele>113.5</ele>
        <time>2020-06-30T20:28:13Z</time>
      </trkpt>
      <trkpt lat="49.05026" lon="3.93726">
        <ele>113.4</ele>
        <time>2020-06-30T20:28:14Z</time>
      </trkpt>
      <trkpt lat="49.05026" lon="3.9372">
        <ele>113.3</ele>
        <time>2020-06-30T20:28:15Z</time>
      </trkpt>
      <trkpt lat="49.05026" lon="3.93718">
        <ele>113.3</ele>
        <time>2020-06-30T20:28:16Z</time>
      </trkpt>
      <trkpt lat="49.05026" lon="3.93714">
        <ele>113.2</ele>
        <time>2020-06-30T20:28:17Z</time>
      </trkpt>
      <trkpt lat="49.05026" lon="3.9371">
        <ele>113.2</ele>
        <time>2020-06-30T20:28:18Z</time>
      </trkpt>
      <trkpt lat="49.05026" lon="3.93705">
        <ele>113.1</ele>
        <time>2020-06-30T20:28:19Z</time>
      </trkpt>
      <trkpt lat="49.05025" lon="3.93701">
        <ele>113.1</ele>
        <time>2020-06-30T20:28:20Z</time>
      </trkpt>
      <trkpt lat="49.05023" lon="3.93697">
        <ele>113</ele>
        <time>2020-06-30T20:28:21Z</time>
      </trkpt>
      <trkpt lat="49.05023" lon="3.93696">
        <ele>113</ele>
        <time>2020-06-30T20:28:22Z</time>
      </trkpt>
      <trkpt lat="49.0502" lon="3.9369">
        <ele>113</ele>
        <time>2020-06-30T20:28:23Z</time>
      </trkpt>
      <trkpt lat="49.05019" lon="3.93687">
        <ele>112.9</ele>
        <time>2020-06-30T20:28:24Z</time>
      </trkpt>
      <trkpt lat="49.05019" lon="3.93686">
        <ele>112.9</ele>
        <time>2020-06-30T20:28:25Z</time>
      </trkpt>
      <trkpt lat="49.05018" lon="3.93685">
        <ele>112.9</ele>
        <time>2020-06-30T20:28:26Z</time>
      </trkpt>
      <trkpt lat="49.05019" lon="3.93683">
        <ele>112.9</ele>
        <time>2020-06-30T20:28:27Z</time>
      </trkpt>
      <trkpt lat="49.05019" lon="3.93681">
        <ele>112.9</ele>
        <time>2020-06-30T20:28:28Z</time>
      </trkpt>
      <trkpt lat="49.05019" lon="3.93679">
        <ele>112.9</ele>
        <time>2020-06-30T20:28:29Z</time>
      </trkpt>
      <trkpt lat="49.05019" lon="3.93678">
        <ele>112.8</ele>
        <time>2020-06-30T20:28:30Z</time>
      </trkpt>
      <trkpt lat="49.05019" lon="3.93676">
        <ele>112.8</ele>
        <time>2020-06-30T20:28:31Z</time>
      </trkpt>
      <trkpt lat="49.05019" lon="3.93674">
        <ele>112.8</ele>
        <time>2020-06-30T20:28:32Z</time>
      </trkpt>
      <trkpt lat="49.0502" lon="3.93672">
        <ele>112.8</ele>
        <time>2020-06-30T20:28:33Z</time>
      </trkpt>
      <trkpt lat="49.0502" lon="3.93671">
        <ele>112.8</ele>
        <time>2020-06-30T20:28:46Z</time>
      </trkpt>
      <trkpt lat="49.0502" lon="3.93669">
        <ele>112.8</ele>
        <time>2020-06-30T20:28:47Z</time>
      </trkpt>
      <trkpt lat="49.05021" lon="3.93664">
        <ele>112.7</ele>
        <time>2020-06-30T20:28:48Z</time>
      </trkpt>
      <trkpt lat="49.05022" lon="3.9366">
        <ele>112.7</ele>
        <time>2020-06-30T20:28:49Z</time>
      </trkpt>
      <trkpt lat="49.05023" lon="3.93654">
        <ele>112.6</ele>
        <time>2020-06-30T20:28:50Z</time>
      </trkpt>
      <trkpt lat="49.05024" lon="3.93649">
        <ele>112.6</ele>
        <time>2020-06-30T20:28:51Z</time>
      </trkpt>
      <trkpt lat="49.05025" lon="3.93643">
        <ele>112.5</ele>
        <time>2020-06-30T20:28:52Z</time>
      </trkpt>
      <trkpt lat="49.05026" lon="3.93637">
        <ele>112.5</ele>
        <time>2020-06-30T20:28:53Z</time>
      </trkpt>
      <trkpt lat="49.05027" lon="3.9363">
        <ele>112.4</ele>
        <time>2020-06-30T20:28:54Z</time>
      </trkpt>
      <trkpt lat="49.05028" lon="3.93623">
        <ele>112.4</ele>
        <time>2020-06-30T20:28:55Z</time>
      </trkpt>
      <trkpt lat="49.05029" lon="3.93615">
        <ele>112.3</ele>
        <time>2020-06-30T20:28:56Z</time>
      </trkpt>
      <trkpt lat="49.0503" lon="3.93608">
        <ele>112.2</ele>
        <time>2020-06-30T20:28:57Z</time>
      </trkpt>
      <trkpt lat="49.05031" lon="3.936">
        <ele>112.2</ele>
        <time>2020-06-30T20:28:58Z</time>
      </trkpt>
      <trkpt lat="49.05032" lon="3.93592">
        <ele>112.1</ele>
        <time>2020-06-30T20:28:59Z</time>
      </trkpt>
      <trkpt lat="49.05033" lon="3.93584">
        <ele>111.9</ele>
        <time>2020-06-30T20:29:00Z</time>
      </trkpt>
      <trkpt lat="49.05034" lon="3.93576">
        <ele>111.8</ele>
        <time>2020-06-30T20:29:01Z</time>
      </trkpt>
      <trkpt lat="49.05035" lon="3.93567">
        <ele>111.6</ele>
        <time>2020-06-30T20:29:02Z</time>
      </trkpt>
      <trkpt lat="49.05035" lon="3.93558">
        <ele>111.4</ele>
        <time>2020-06-30T20:29:03Z</time>
      </trkpt>
      <trkpt lat="49.05036" lon="3.9355">
        <ele>111.2</ele>
        <time>2020-06-30T20:29:04Z</time>
      </trkpt>
      <trkpt lat="49.05036" lon="3.93543">
        <ele>111</ele>
        <time>2020-06-30T20:29:05Z</time>
      </trkpt>
      <trkpt lat="49.05037" lon="3.93535">
        <ele>110.8</ele>
        <time>2020-06-30T20:29:06Z</time>
      </trkpt>
      <trkpt lat="49.05037" lon="3.93527">
        <ele>110.5</ele>
        <time>2020-06-30T20:29:07Z</time>
      </trkpt>
      <trkpt lat="49.05038" lon="3.93518">
        <ele>110.2</ele>
        <time>2020-06-30T20:29:08Z</time>
      </trkpt>
      <trkpt lat="49.05039" lon="3.93508">
        <ele>109.9</ele>
        <time>2020-06-30T20:29:09Z</time>
      </trkpt>
      <trkpt lat="49.05041" lon="3.93498">
        <ele>109.5</ele>
        <time>2020-06-30T20:29:10Z</time>
      </trkpt>
      <trkpt lat="49.05043" lon="3.93488">
        <ele>109</ele>
        <time>2020-06-30T20:29:11Z</time>
      </trkpt>
      <trkpt lat="49.05045" lon="3.93479">
        <ele>108.6</ele>
        <time>2020-06-30T20:29:12Z</time>
      </trkpt>
      <trkpt lat="49.05046" lon="3.93468">
        <ele>108</ele>
        <time>2020-06-30T20:29:13Z</time>
      </trkpt>
      <trkpt lat="49.05048" lon="3.93455">
        <ele>107.4</ele>
        <time>2020-06-30T20:29:14Z</time>
      </trkpt>
      <trkpt lat="49.05049" lon="3.9344">
        <ele>106.7</ele>
        <time>2020-06-30T20:29:15Z</time>
      </trkpt>
      <trkpt lat="49.05051" lon="3.93426">
        <ele>106.3</ele>
        <time>2020-06-30T20:29:16Z</time>
      </trkpt>
      <trkpt lat="49.05053" lon="3.93411">
        <ele>106</ele>
        <time>2020-06-30T20:29:17Z</time>
      </trkpt>
      <trkpt lat="49.05054" lon="3.93395">
        <ele>105.6</ele>
        <time>2020-06-30T20:29:18Z</time>
      </trkpt>
      <trkpt lat="49.05055" lon="3.93379">
        <ele>105.2</ele>
        <time>2020-06-30T20:29:19Z</time>
      </trkpt>
      <trkpt lat="49.05056" lon="3.93366">
        <ele>105</ele>
        <time>2020-06-30T20:29:20Z</time>
      </trkpt>
      <trkpt lat="49.05057" lon="3.93353">
        <ele>104.8</ele>
        <time>2020-06-30T20:29:21Z</time>
      </trkpt>
      <trkpt lat="49.05059" lon="3.93342">
        <ele>104.7</ele>
        <time>2020-06-30T20:29:22Z</time>
      </trkpt>
      <trkpt lat="49.05061" lon="3.93332">
        <ele>104.6</ele>
        <time>2020-06-30T20:29:23Z</time>
      </trkpt>
      <trkpt lat="49.05063" lon="3.93321">
        <ele>104.5</ele>
        <time>2020-06-30T20:29:24Z</time>
      </trkpt>
      <trkpt lat="49.05064" lon="3.93311">
        <ele>104.4</ele>
        <time>2020-06-30T20:29:25Z</time>
      </trkpt>
      <trkpt lat="49.05065" lon="3.933">
        <ele>104.5</ele>
        <time>2020-06-30T20:29:26Z</time>
      </trkpt>
      <trkpt lat="49.05066" lon="3.9329">
        <ele>104.5</ele>
        <time>2020-06-30T20:29:27Z</time>
      </trkpt>
      <trkpt lat="49.05067" lon="3.93279">
        <ele>104.5</ele>
        <time>2020-06-30T20:29:28Z</time>
      </trkpt>
      <trkpt lat="49.05068" lon="3.93269">
        <ele>104.5</ele>
        <time>2020-06-30T20:29:29Z</time>
      </trkpt>
      <trkpt lat="49.05068" lon="3.9326">
        <ele>104.5</ele>
        <time>2020-06-30T20:29:30Z</time>
      </trkpt>
      <trkpt lat="49.05068" lon="3.93251">
        <ele>104.5</ele>
        <time>2020-06-30T20:29:31Z</time>
      </trkpt>
      <trkpt lat="49.05068" lon="3.93244">
        <ele>104.5</ele>
        <time>2020-06-30T20:29:32Z</time>
      </trkpt>
      <trkpt lat="49.05068" lon="3.93235">
        <ele>104.5</ele>
        <time>2020-06-30T20:29:33Z</time>
      </trkpt>
      <trkpt lat="49.05069" lon="3.93228">
        <ele>104.5</ele>
        <time>2020-06-30T20:29:34Z</time>
      </trkpt>
      <trkpt lat="49.0507" lon="3.93221">
        <ele>104.6</ele>
        <time>2020-06-30T20:29:35Z</time>
      </trkpt>
      <trkpt lat="49.05069" lon="3.93213">
        <ele>104.7</ele>
        <time>2020-06-30T20:29:36Z</time>
      </trkpt>
      <trkpt lat="49.05068" lon="3.93207">
        <ele>104.8</ele>
        <time>2020-06-30T20:29:37Z</time>
      </trkpt>
      <trkpt lat="49.05069" lon="3.93202">
        <ele>104.8</ele>
        <time>2020-06-30T20:29:38Z</time>
      </trkpt>
      <trkpt lat="49.05071" lon="3.93195">
        <ele>104.9</ele>
        <time>2020-06-30T20:29:39Z</time>
      </trkpt>
      <trkpt lat="49.05073" lon="3.93189">
        <ele>105</ele>
        <time>2020-06-30T20:29:40Z</time>
      </trkpt>
      <trkpt lat="49.05075" lon="3.93182">
        <ele>105.1</ele>
        <time>2020-06-30T20:29:41Z</time>
      </trkpt>
      <trkpt lat="49.05076" lon="3.93174">
        <ele>105.1</ele>
        <time>2020-06-30T20:29:42Z</time>
      </trkpt>
      <trkpt lat="49.05077" lon="3.93168">
        <ele>105.2</ele>
        <time>2020-06-30T20:29:43Z</time>
      </trkpt>
      <trkpt lat="49.05078" lon="3.93161">
        <ele>105.3</ele>
        <time>2020-06-30T20:29:44Z</time>
      </trkpt>
      <trkpt lat="49.05078" lon="3.93153">
        <ele>105.4</ele>
        <time>2020-06-30T20:29:45Z</time>
      </trkpt>
      <trkpt lat="49.05078" lon="3.93146">
        <ele>105.5</ele>
        <time>2020-06-30T20:29:46Z</time>
      </trkpt>
      <trkpt lat="49.05078" lon="3.93139">
        <ele>105.6</ele>
        <time>2020-06-30T20:29:47Z</time>
      </trkpt>
      <trkpt lat="49.05079" lon="3.93132">
        <ele>105.7</ele>
        <time>2020-06-30T20:29:48Z</time>
      </trkpt>
      <trkpt lat="49.05079" lon="3.93126">
        <ele>105.7</ele>
        <time>2020-06-30T20:29:49Z</time>
      </trkpt>
      <trkpt lat="49.05079" lon="3.93119">
        <ele>105.8</ele>
        <time>2020-06-30T20:29:50Z</time>
      </trkpt>
      <trkpt lat="49.05081" lon="3.93111">
        <ele>105.8</ele>
        <time>2020-06-30T20:29:51Z</time>
      </trkpt>
      <trkpt lat="49.05082" lon="3.93102">
        <ele>105.9</ele>
        <time>2020-06-30T20:29:52Z</time>
      </trkpt>
      <trkpt lat="49.05083" lon="3.93095">
        <ele>105.9</ele>
        <time>2020-06-30T20:29:53Z</time>
      </trkpt>
      <trkpt lat="49.05084" lon="3.93087">
        <ele>105.9</ele>
        <time>2020-06-30T20:29:54Z</time>
      </trkpt>
      <trkpt lat="49.05085" lon="3.93079">
        <ele>106</ele>
        <time>2020-06-30T20:29:55Z</time>
      </trkpt>
      <trkpt lat="49.05086" lon="3.9307">
        <ele>106</ele>
        <time>2020-06-30T20:29:56Z</time>
      </trkpt>
      <trkpt lat="49.05086" lon="3.93061">
        <ele>106</ele>
        <time>2020-06-30T20:29:57Z</time>
      </trkpt>
      <trkpt lat="49.05086" lon="3.9305">
        <ele>105.9</ele>
        <time>2020-06-30T20:29:58Z</time>
      </trkpt>
      <trkpt lat="49.05087" lon="3.93041">
        <ele>105.9</ele>
        <time>2020-06-30T20:29:59Z</time>
      </trkpt>
      <trkpt lat="49.05087" lon="3.93032">
        <ele>105.8</ele>
        <time>2020-06-30T20:30:00Z</time>
      </trkpt>
      <trkpt lat="49.05088" lon="3.93023">
        <ele>105.8</ele>
        <time>2020-06-30T20:30:01Z</time>
      </trkpt>
      <trkpt lat="49.05089" lon="3.93012">
        <ele>105.8</ele>
        <time>2020-06-30T20:30:02Z</time>
      </trkpt>
      <trkpt lat="49.05089" lon="3.93003">
        <ele>105.8</ele>
        <time>2020-06-30T20:30:03Z</time>
      </trkpt>
      <trkpt lat="49.0509" lon="3.92995">
        <ele>105.8</ele>
        <time>2020-06-30T20:30:04Z</time>
      </trkpt>
      <trkpt lat="49.0509" lon="3.92987">
        <ele>105.7</ele>
        <time>2020-06-30T20:30:05Z</time>
      </trkpt>
      <trkpt lat="49.05091" lon="3.92978">
        <ele>105.7</ele>
        <time>2020-06-30T20:30:06Z</time>
      </trkpt>
      <trkpt lat="49.05092" lon="3.92968">
        <ele>105.6</ele>
        <time>2020-06-30T20:30:07Z</time>
      </trkpt>
      <trkpt lat="49.05094" lon="3.92959">
        <ele>105.6</ele>
        <time>2020-06-30T20:30:08Z</time>
      </trkpt>
      <trkpt lat="49.05094" lon="3.92951">
        <ele>105.4</ele>
        <time>2020-06-30T20:30:09Z</time>
      </trkpt>
      <trkpt lat="49.05095" lon="3.92942">
        <ele>105.3</ele>
        <time>2020-06-30T20:30:10Z</time>
      </trkpt>
      <trkpt lat="49.05096" lon="3.92935">
        <ele>105.1</ele>
        <time>2020-06-30T20:30:11Z</time>
      </trkpt>
      <trkpt lat="49.05097" lon="3.92929">
        <ele>105.1</ele>
        <time>2020-06-30T20:30:12Z</time>
      </trkpt>
      <trkpt lat="49.05098" lon="3.92921">
        <ele>104.9</ele>
        <time>2020-06-30T20:30:13Z</time>
      </trkpt>
      <trkpt lat="49.05099" lon="3.92915">
        <ele>104.8</ele>
        <time>2020-06-30T20:30:14Z</time>
      </trkpt>
      <trkpt lat="49.051" lon="3.92906">
        <ele>104.6</ele>
        <time>2020-06-30T20:30:15Z</time>
      </trkpt>
      <trkpt lat="49.05101" lon="3.92898">
        <ele>104.4</ele>
        <time>2020-06-30T20:30:16Z</time>
      </trkpt>
      <trkpt lat="49.05102" lon="3.92891">
        <ele>104.2</ele>
        <time>2020-06-30T20:30:17Z</time>
      </trkpt>
      <trkpt lat="49.05103" lon="3.92882">
        <ele>104</ele>
        <time>2020-06-30T20:30:18Z</time>
      </trkpt>
      <trkpt lat="49.05105" lon="3.92872">
        <ele>103.8</ele>
        <time>2020-06-30T20:30:19Z</time>
      </trkpt>
      <trkpt lat="49.05106" lon="3.92863">
        <ele>103.9</ele>
        <time>2020-06-30T20:30:20Z</time>
      </trkpt>
      <trkpt lat="49.05107" lon="3.92853">
        <ele>103</ele>
        <time>2020-06-30T20:30:21Z</time>
      </trkpt>
      <trkpt lat="49.05108" lon="3.92844">
        <ele>102.6</ele>
        <time>2020-06-30T20:30:22Z</time>
      </trkpt>
      <trkpt lat="49.05109" lon="3.92833">
        <ele>102</ele>
        <time>2020-06-30T20:30:23Z</time>
      </trkpt>
      <trkpt lat="49.0511" lon="3.9282">
        <ele>101.3</ele>
        <time>2020-06-30T20:30:24Z</time>
      </trkpt>
      <trkpt lat="49.05111" lon="3.9281">
        <ele>100.6</ele>
        <time>2020-06-30T20:30:25Z</time>
      </trkpt>
      <trkpt lat="49.05112" lon="3.92798">
        <ele>99.8</ele>
        <time>2020-06-30T20:30:26Z</time>
      </trkpt>
      <trkpt lat="49.05114" lon="3.92783">
        <ele>98.7</ele>
        <time>2020-06-30T20:30:27Z</time>
      </trkpt>
      <trkpt lat="49.05114" lon="3.92768">
        <ele>97.7</ele>
        <time>2020-06-30T20:30:28Z</time>
      </trkpt>
      <trkpt lat="49.05116" lon="3.92754">
        <ele>96.7</ele>
        <time>2020-06-30T20:30:29Z</time>
      </trkpt>
      <trkpt lat="49.05117" lon="3.92739">
        <ele>95.7</ele>
        <time>2020-06-30T20:30:30Z</time>
      </trkpt>
      <trkpt lat="49.05118" lon="3.92726">
        <ele>94.7</ele>
        <time>2020-06-30T20:30:31Z</time>
      </trkpt>
      <trkpt lat="49.05119" lon="3.92711">
        <ele>93.6</ele>
        <time>2020-06-30T20:30:32Z</time>
      </trkpt>
      <trkpt lat="49.0512" lon="3.92693">
        <ele>92.5</ele>
        <time>2020-06-30T20:30:33Z</time>
      </trkpt>
      <trkpt lat="49.05121" lon="3.92678">
        <ele>91.5</ele>
        <time>2020-06-30T20:30:34Z</time>
      </trkpt>
      <trkpt lat="49.05123" lon="3.92661">
        <ele>90.6</ele>
        <time>2020-06-30T20:30:35Z</time>
      </trkpt>
      <trkpt lat="49.05125" lon="3.92646">
        <ele>89.7</ele>
        <time>2020-06-30T20:30:36Z</time>
      </trkpt>
      <trkpt lat="49.05127" lon="3.92633">
        <ele>88.9</ele>
        <time>2020-06-30T20:30:37Z</time>
      </trkpt>
      <trkpt lat="49.05129" lon="3.92618">
        <ele>88.2</ele>
        <time>2020-06-30T20:30:38Z</time>
      </trkpt>
      <trkpt lat="49.05131" lon="3.92602">
        <ele>87.7</ele>
        <time>2020-06-30T20:30:39Z</time>
      </trkpt>
      <trkpt lat="49.05132" lon="3.92584">
        <ele>87.4</ele>
        <time>2020-06-30T20:30:40Z</time>
      </trkpt>
      <trkpt lat="49.05134" lon="3.92571">
        <ele>87.1</ele>
        <time>2020-06-30T20:30:41Z</time>
      </trkpt>
      <trkpt lat="49.05135" lon="3.92556">
        <ele>86.6</ele>
        <time>2020-06-30T20:30:42Z</time>
      </trkpt>
      <trkpt lat="49.05136" lon="3.92541">
        <ele>86.1</ele>
        <time>2020-06-30T20:30:43Z</time>
      </trkpt>
      <trkpt lat="49.05137" lon="3.92528">
        <ele>85.7</ele>
        <time>2020-06-30T20:30:44Z</time>
      </trkpt>
      <trkpt lat="49.05139" lon="3.92516">
        <ele>85.5</ele>
        <time>2020-06-30T20:30:45Z</time>
      </trkpt>
      <trkpt lat="49.0514" lon="3.92501">
        <ele>85.3</ele>
        <time>2020-06-30T20:30:46Z</time>
      </trkpt>
      <trkpt lat="49.05141" lon="3.92489">
        <ele>85.1</ele>
        <time>2020-06-30T20:30:47Z</time>
      </trkpt>
      <trkpt lat="49.05143" lon="3.92478">
        <ele>85</ele>
        <time>2020-06-30T20:30:48Z</time>
      </trkpt>
      <trkpt lat="49.05144" lon="3.92464">
        <ele>84.8</ele>
        <time>2020-06-30T20:30:49Z</time>
      </trkpt>
      <trkpt lat="49.05146" lon="3.9245">
        <ele>84.2</ele>
        <time>2020-06-30T20:30:50Z</time>
      </trkpt>
      <trkpt lat="49.05147" lon="3.92437">
        <ele>83.7</ele>
        <time>2020-06-30T20:30:51Z</time>
      </trkpt>
      <trkpt lat="49.05148" lon="3.92423">
        <ele>83.2</ele>
        <time>2020-06-30T20:30:52Z</time>
      </trkpt>
      <trkpt lat="49.05149" lon="3.92409">
        <ele>82.7</ele>
        <time>2020-06-30T20:30:53Z</time>
      </trkpt>
      <trkpt lat="49.0515" lon="3.92396">
        <ele>82.2</ele>
        <time>2020-06-30T20:30:54Z</time>
      </trkpt>
      <trkpt lat="49.0515" lon="3.92382">
        <ele>81.6</ele>
        <time>2020-06-30T20:30:55Z</time>
      </trkpt>
      <trkpt lat="49.05151" lon="3.92368">
        <ele>81</ele>
        <time>2020-06-30T20:30:56Z</time>
      </trkpt>
      <trkpt lat="49.05152" lon="3.92354">
        <ele>80.6</ele>
        <time>2020-06-30T20:30:57Z</time>
      </trkpt>
      <trkpt lat="49.05154" lon="3.92341">
        <ele>80.3</ele>
        <time>2020-06-30T20:30:58Z</time>
      </trkpt>
      <trkpt lat="49.05156" lon="3.9233">
        <ele>80.1</ele>
        <time>2020-06-30T20:30:59Z</time>
      </trkpt>
      <trkpt lat="49.05158" lon="3.92319">
        <ele>79.9</ele>
        <time>2020-06-30T20:31:00Z</time>
      </trkpt>
      <trkpt lat="49.05161" lon="3.9231">
        <ele>79.5</ele>
        <time>2020-06-30T20:31:01Z</time>
      </trkpt>
      <trkpt lat="49.05164" lon="3.923">
        <ele>79.6</ele>
        <time>2020-06-30T20:31:02Z</time>
      </trkpt>
      <trkpt lat="49.05169" lon="3.92294">
        <ele>79.7</ele>
        <time>2020-06-30T20:31:03Z</time>
      </trkpt>
      <trkpt lat="49.05174" lon="3.92289">
        <ele>78.9</ele>
        <time>2020-06-30T20:31:04Z</time>
      </trkpt>
      <trkpt lat="49.05177" lon="3.9228">
        <ele>78.3</ele>
        <time>2020-06-30T20:31:05Z</time>
      </trkpt>
      <trkpt lat="49.05179" lon="3.9227">
        <ele>78.1</ele>
        <time>2020-06-30T20:31:06Z</time>
      </trkpt>
      <trkpt lat="49.05179" lon="3.92259">
        <ele>78</ele>
        <time>2020-06-30T20:31:07Z</time>
      </trkpt>
      <trkpt lat="49.05178" lon="3.92249">
        <ele>77.9</ele>
        <time>2020-06-30T20:31:08Z</time>
      </trkpt>
      <trkpt lat="49.05177" lon="3.9224">
        <ele>77.8</ele>
        <time>2020-06-30T20:31:09Z</time>
      </trkpt>
      <trkpt lat="49.05174" lon="3.92229">
        <ele>77.9</ele>
        <time>2020-06-30T20:31:10Z</time>
      </trkpt>
      <trkpt lat="49.05172" lon="3.92217">
        <ele>77.8</ele>
        <time>2020-06-30T20:31:11Z</time>
      </trkpt>
      <trkpt lat="49.05172" lon="3.92209">
        <ele>77.8</ele>
        <time>2020-06-30T20:31:12Z</time>
      </trkpt>
      <trkpt lat="49.05172" lon="3.92201">
        <ele>77.8</ele>
        <time>2020-06-30T20:31:13Z</time>
      </trkpt>
      <trkpt lat="49.05173" lon="3.92192">
        <ele>77.9</ele>
        <time>2020-06-30T20:31:14Z</time>
      </trkpt>
      <trkpt lat="49.05175" lon="3.92185">
        <ele>77.9</ele>
        <time>2020-06-30T20:31:15Z</time>
      </trkpt>
      <trkpt lat="49.05175" lon="3.92174">
        <ele>78</ele>
        <time>2020-06-30T20:31:16Z</time>
      </trkpt>
      <trkpt lat="49.05176" lon="3.92163">
        <ele>78.1</ele>
        <time>2020-06-30T20:31:17Z</time>
      </trkpt>
      <trkpt lat="49.05177" lon="3.92155">
        <ele>78.2</ele>
        <time>2020-06-30T20:31:18Z</time>
      </trkpt>
      <trkpt lat="49.05178" lon="3.92147">
        <ele>78.3</ele>
        <time>2020-06-30T20:31:19Z</time>
      </trkpt>
      <trkpt lat="49.0518" lon="3.92137">
        <ele>78.3</ele>
        <time>2020-06-30T20:31:20Z</time>
      </trkpt>
      <trkpt lat="49.0518" lon="3.92127">
        <ele>78.4</ele>
        <time>2020-06-30T20:31:21Z</time>
      </trkpt>
      <trkpt lat="49.05181" lon="3.92117">
        <ele>78.5</ele>
        <time>2020-06-30T20:31:22Z</time>
      </trkpt>
      <trkpt lat="49.05182" lon="3.92108">
        <ele>78.6</ele>
        <time>2020-06-30T20:31:23Z</time>
      </trkpt>
      <trkpt lat="49.05182" lon="3.92101">
        <ele>78.7</ele>
        <time>2020-06-30T20:31:24Z</time>
      </trkpt>
      <trkpt lat="49.05182" lon="3.92093">
        <ele>78.8</ele>
        <time>2020-06-30T20:31:25Z</time>
      </trkpt>
      <trkpt lat="49.05183" lon="3.92089">
        <ele>78.8</ele>
        <time>2020-06-30T20:31:26Z</time>
      </trkpt>
      <trkpt lat="49.05183" lon="3.92083">
        <ele>78.9</ele>
        <time>2020-06-30T20:31:27Z</time>
      </trkpt>
      <trkpt lat="49.05183" lon="3.92076">
        <ele>79</ele>
        <time>2020-06-30T20:31:28Z</time>
      </trkpt>
      <trkpt lat="49.05184" lon="3.92068">
        <ele>79</ele>
        <time>2020-06-30T20:31:29Z</time>
      </trkpt>
      <trkpt lat="49.05184" lon="3.9206">
        <ele>79.1</ele>
        <time>2020-06-30T20:31:30Z</time>
      </trkpt>
      <trkpt lat="49.05185" lon="3.92052">
        <ele>79.2</ele>
        <time>2020-06-30T20:31:31Z</time>
      </trkpt>
      <trkpt lat="49.05186" lon="3.92044">
        <ele>79.3</ele>
        <time>2020-06-30T20:31:32Z</time>
      </trkpt>
      <trkpt lat="49.05186" lon="3.92034">
        <ele>79.4</ele>
        <time>2020-06-30T20:31:33Z</time>
      </trkpt>
      <trkpt lat="49.05186" lon="3.92024">
        <ele>79.5</ele>
        <time>2020-06-30T20:31:34Z</time>
      </trkpt>
      <trkpt lat="49.05187" lon="3.92015">
        <ele>79.6</ele>
        <time>2020-06-30T20:31:35Z</time>
      </trkpt>
      <trkpt lat="49.05189" lon="3.92006">
        <ele>79.7</ele>
        <time>2020-06-30T20:31:36Z</time>
      </trkpt>
      <trkpt lat="49.0519" lon="3.91997">
        <ele>79.8</ele>
        <time>2020-06-30T20:31:37Z</time>
      </trkpt>
      <trkpt lat="49.05191" lon="3.91989">
        <ele>79.9</ele>
        <time>2020-06-30T20:31:38Z</time>
      </trkpt>
      <trkpt lat="49.05192" lon="3.9198">
        <ele>80.4</ele>
        <time>2020-06-30T20:31:39Z</time>
      </trkpt>
      <trkpt lat="49.05193" lon="3.91972">
        <ele>81.3</ele>
        <time>2020-06-30T20:31:40Z</time>
      </trkpt>
      <trkpt lat="49.05194" lon="3.91963">
        <ele>81.9</ele>
        <time>2020-06-30T20:31:41Z</time>
      </trkpt>
      <trkpt lat="49.05195" lon="3.91956">
        <ele>82.1</ele>
        <time>2020-06-30T20:31:42Z</time>
      </trkpt>
      <trkpt lat="49.05196" lon="3.91948">
        <ele>82.2</ele>
        <time>2020-06-30T20:31:43Z</time>
      </trkpt>
      <trkpt lat="49.05197" lon="3.91941">
        <ele>82.2</ele>
        <time>2020-06-30T20:31:44Z</time>
      </trkpt>
      <trkpt lat="49.05197" lon="3.91934">
        <ele>82.2</ele>
        <time>2020-06-30T20:31:45Z</time>
      </trkpt>
      <trkpt lat="49.05198" lon="3.91927">
        <ele>82.1</ele>
        <time>2020-06-30T20:31:46Z</time>
      </trkpt>
      <trkpt lat="49.05199" lon="3.91918">
        <ele>82</ele>
        <time>2020-06-30T20:31:47Z</time>
      </trkpt>
      <trkpt lat="49.052" lon="3.91909">
        <ele>81.9</ele>
        <time>2020-06-30T20:31:48Z</time>
      </trkpt>
      <trkpt lat="49.05201" lon="3.91901">
        <ele>81.7</ele>
        <time>2020-06-30T20:31:49Z</time>
      </trkpt>
      <trkpt lat="49.05202" lon="3.91894">
        <ele>81.6</ele>
        <time>2020-06-30T20:31:50Z</time>
      </trkpt>
      <trkpt lat="49.05203" lon="3.91888">
        <ele>81.5</ele>
        <time>2020-06-30T20:31:51Z</time>
      </trkpt>
      <trkpt lat="49.05204" lon="3.91882">
        <ele>81.4</ele>
        <time>2020-06-30T20:31:52Z</time>
      </trkpt>
      <trkpt lat="49.05205" lon="3.91876">
        <ele>81.3</ele>
        <time>2020-06-30T20:31:53Z</time>
      </trkpt>
      <trkpt lat="49.05207" lon="3.91869">
        <ele>81.2</ele>
        <time>2020-06-30T20:31:54Z</time>
      </trkpt>
      <trkpt lat="49.05208" lon="3.9186">
        <ele>81</ele>
        <time>2020-06-30T20:31:55Z</time>
      </trkpt>
      <trkpt lat="49.0521" lon="3.91851">
        <ele>80.9</ele>
        <time>2020-06-30T20:31:56Z</time>
      </trkpt>
      <trkpt lat="49.05211" lon="3.91844">
        <ele>80.8</ele>
        <time>2020-06-30T20:31:57Z</time>
      </trkpt>
      <trkpt lat="49.05212" lon="3.91836">
        <ele>80.7</ele>
        <time>2020-06-30T20:31:58Z</time>
      </trkpt>
      <trkpt lat="49.05213" lon="3.91828">
        <ele>80.5</ele>
        <time>2020-06-30T20:31:59Z</time>
      </trkpt>
      <trkpt lat="49.05214" lon="3.91822">
        <ele>80.5</ele>
        <time>2020-06-30T20:32:00Z</time>
      </trkpt>
      <trkpt lat="49.05216" lon="3.91815">
        <ele>80.4</ele>
        <time>2020-06-30T20:32:01Z</time>
      </trkpt>
      <trkpt lat="49.05217" lon="3.91807">
        <ele>80.2</ele>
        <time>2020-06-30T20:32:02Z</time>
      </trkpt>
      <trkpt lat="49.05219" lon="3.91799">
        <ele>80.2</ele>
        <time>2020-06-30T20:32:03Z</time>
      </trkpt>
      <trkpt lat="49.0522" lon="3.91791">
        <ele>80.1</ele>
        <time>2020-06-30T20:32:04Z</time>
      </trkpt>
      <trkpt lat="49.05221" lon="3.91783">
        <ele>80</ele>
        <time>2020-06-30T20:32:05Z</time>
      </trkpt>
      <trkpt lat="49.05222" lon="3.91775">
        <ele>80</ele>
        <time>2020-06-30T20:32:06Z</time>
      </trkpt>
      <trkpt lat="49.05224" lon="3.91766">
        <ele>79.9</ele>
        <time>2020-06-30T20:32:07Z</time>
      </trkpt>
      <trkpt lat="49.05225" lon="3.91758">
        <ele>79.9</ele>
        <time>2020-06-30T20:32:08Z</time>
      </trkpt>
      <trkpt lat="49.05226" lon="3.91751">
        <ele>79.8</ele>
        <time>2020-06-30T20:32:09Z</time>
      </trkpt>
      <trkpt lat="49.05227" lon="3.91744">
        <ele>79.8</ele>
        <time>2020-06-30T20:32:10Z</time>
      </trkpt>
      <trkpt lat="49.05228" lon="3.91736">
        <ele>79.7</ele>
        <time>2020-06-30T20:32:11Z</time>
      </trkpt>
      <trkpt lat="49.05229" lon="3.91728">
        <ele>79.7</ele>
        <time>2020-06-30T20:32:12Z</time>
      </trkpt>
      <trkpt lat="49.0523" lon="3.91721">
        <ele>79.6</ele>
        <time>2020-06-30T20:32:13Z</time>
      </trkpt>
      <trkpt lat="49.0523" lon="3.91714">
        <ele>79.4</ele>
        <time>2020-06-30T20:32:14Z</time>
      </trkpt>
      <trkpt lat="49.05231" lon="3.91707">
        <ele>79.3</ele>
        <time>2020-06-30T20:32:15Z</time>
      </trkpt>
      <trkpt lat="49.05232" lon="3.91699">
        <ele>79.2</ele>
        <time>2020-06-30T20:32:16Z</time>
      </trkpt>
      <trkpt lat="49.05233" lon="3.91691">
        <ele>79.1</ele>
        <time>2020-06-30T20:32:17Z</time>
      </trkpt>
      <trkpt lat="49.05234" lon="3.91683">
        <ele>79</ele>
        <time>2020-06-30T20:32:18Z</time>
      </trkpt>
      <trkpt lat="49.05236" lon="3.91674">
        <ele>78.9</ele>
        <time>2020-06-30T20:32:19Z</time>
      </trkpt>
      <trkpt lat="49.05237" lon="3.91662">
        <ele>78.8</ele>
        <time>2020-06-30T20:32:20Z</time>
      </trkpt>
      <trkpt lat="49.05237" lon="3.91651">
        <ele>78.8</ele>
        <time>2020-06-30T20:32:21Z</time>
      </trkpt>
      <trkpt lat="49.05239" lon="3.91642">
        <ele>78.8</ele>
        <time>2020-06-30T20:32:22Z</time>
      </trkpt>
      <trkpt lat="49.0524" lon="3.91633">
        <ele>78.7</ele>
        <time>2020-06-30T20:32:23Z</time>
      </trkpt>
      <trkpt lat="49.0524" lon="3.9162">
        <ele>78.7</ele>
        <time>2020-06-30T20:32:24Z</time>
      </trkpt>
      <trkpt lat="49.05241" lon="3.91609">
        <ele>78.6</ele>
        <time>2020-06-30T20:32:25Z</time>
      </trkpt>
      <trkpt lat="49.05241" lon="3.91597">
        <ele>78.6</ele>
        <time>2020-06-30T20:32:26Z</time>
      </trkpt>
      <trkpt lat="49.05242" lon="3.91587">
        <ele>78.5</ele>
        <time>2020-06-30T20:32:27Z</time>
      </trkpt>
      <trkpt lat="49.05241" lon="3.91575">
        <ele>78.5</ele>
        <time>2020-06-30T20:32:28Z</time>
      </trkpt>
      <trkpt lat="49.0524" lon="3.91563">
        <ele>78.5</ele>
        <time>2020-06-30T20:32:29Z</time>
      </trkpt>
      <trkpt lat="49.0524" lon="3.91552">
        <ele>78.4</ele>
        <time>2020-06-30T20:32:30Z</time>
      </trkpt>
      <trkpt lat="49.0524" lon="3.91542">
        <ele>78.4</ele>
        <time>2020-06-30T20:32:31Z</time>
      </trkpt>
      <trkpt lat="49.05241" lon="3.9153">
        <ele>78.4</ele>
        <time>2020-06-30T20:32:32Z</time>
      </trkpt>
      <trkpt lat="49.05242" lon="3.91519">
        <ele>78.3</ele>
        <time>2020-06-30T20:32:33Z</time>
      </trkpt>
      <trkpt lat="49.05242" lon="3.9151">
        <ele>78.2</ele>
        <time>2020-06-30T20:32:34Z</time>
      </trkpt>
      <trkpt lat="49.05243" lon="3.915">
        <ele>78.1</ele>
        <time>2020-06-30T20:32:35Z</time>
      </trkpt>
      <trkpt lat="49.05244" lon="3.91489">
        <ele>77.9</ele>
        <time>2020-06-30T20:32:36Z</time>
      </trkpt>
      <trkpt lat="49.05245" lon="3.91475">
        <ele>77.7</ele>
        <time>2020-06-30T20:32:37Z</time>
      </trkpt>
      <trkpt lat="49.05246" lon="3.91465">
        <ele>77.6</ele>
        <time>2020-06-30T20:32:38Z</time>
      </trkpt>
      <trkpt lat="49.05247" lon="3.91453">
        <ele>77.5</ele>
        <time>2020-06-30T20:32:39Z</time>
      </trkpt>
      <trkpt lat="49.05247" lon="3.91443">
        <ele>77.4</ele>
        <time>2020-06-30T20:32:40Z</time>
      </trkpt>
      <trkpt lat="49.05247" lon="3.91433">
        <ele>77.3</ele>
        <time>2020-06-30T20:32:41Z</time>
      </trkpt>
      <trkpt lat="49.05247" lon="3.91425">
        <ele>77.3</ele>
        <time>2020-06-30T20:32:42Z</time>
      </trkpt>
      <trkpt lat="49.05248" lon="3.91416">
        <ele>77.4</ele>
        <time>2020-06-30T20:32:43Z</time>
      </trkpt>
      <trkpt lat="49.05249" lon="3.91408">
        <ele>77.7</ele>
        <time>2020-06-30T20:32:44Z</time>
      </trkpt>
      <trkpt lat="49.0525" lon="3.91398">
        <ele>78</ele>
        <time>2020-06-30T20:32:45Z</time>
      </trkpt>
      <trkpt lat="49.05251" lon="3.91388">
        <ele>78</ele>
        <time>2020-06-30T20:32:46Z</time>
      </trkpt>
      <trkpt lat="49.05251" lon="3.91378">
        <ele>78.1</ele>
        <time>2020-06-30T20:32:47Z</time>
      </trkpt>
      <trkpt lat="49.05252" lon="3.91368">
        <ele>78.1</ele>
        <time>2020-06-30T20:32:48Z</time>
      </trkpt>
      <trkpt lat="49.0525" lon="3.91354">
        <ele>78.2</ele>
        <time>2020-06-30T20:32:49Z</time>
      </trkpt>
      <trkpt lat="49.05252" lon="3.91344">
        <ele>78.3</ele>
        <time>2020-06-30T20:32:50Z</time>
      </trkpt>
      <trkpt lat="49.05252" lon="3.91333">
        <ele>78.4</ele>
        <time>2020-06-30T20:32:51Z</time>
      </trkpt>
      <trkpt lat="49.05253" lon="3.91322">
        <ele>78.5</ele>
        <time>2020-06-30T20:32:52Z</time>
      </trkpt>
      <trkpt lat="49.05255" lon="3.91313">
        <ele>78.5</ele>
        <time>2020-06-30T20:32:53Z</time>
      </trkpt>
      <trkpt lat="49.05255" lon="3.91305">
        <ele>78.6</ele>
        <time>2020-06-30T20:32:54Z</time>
      </trkpt>
      <trkpt lat="49.05255" lon="3.91295">
        <ele>78.6</ele>
        <time>2020-06-30T20:32:55Z</time>
      </trkpt>
      <trkpt lat="49.05255" lon="3.91284">
        <ele>78.6</ele>
        <time>2020-06-30T20:32:56Z</time>
      </trkpt>
      <trkpt lat="49.05256" lon="3.91275">
        <ele>78.6</ele>
        <time>2020-06-30T20:32:57Z</time>
      </trkpt>
      <trkpt lat="49.05257" lon="3.91266">
        <ele>78.7</ele>
        <time>2020-06-30T20:32:58Z</time>
      </trkpt>
      <trkpt lat="49.05258" lon="3.91257">
        <ele>78.7</ele>
        <time>2020-06-30T20:32:59Z</time>
      </trkpt>
      <trkpt lat="49.0526" lon="3.91253">
        <ele>78.7</ele>
        <time>2020-06-30T20:33:00Z</time>
      </trkpt>
      <trkpt lat="49.05262" lon="3.91248">
        <ele>78.7</ele>
        <time>2020-06-30T20:33:01Z</time>
      </trkpt>
      <trkpt lat="49.05263" lon="3.91243">
        <ele>78.7</ele>
        <time>2020-06-30T20:33:02Z</time>
      </trkpt>
      <trkpt lat="49.05265" lon="3.91238">
        <ele>78.7</ele>
        <time>2020-06-30T20:33:03Z</time>
      </trkpt>
      <trkpt lat="49.05267" lon="3.91232">
        <ele>78.6</ele>
        <time>2020-06-30T20:33:04Z</time>
      </trkpt>
      <trkpt lat="49.05268" lon="3.91225">
        <ele>78.6</ele>
        <time>2020-06-30T20:33:05Z</time>
      </trkpt>
      <trkpt lat="49.0527" lon="3.91218">
        <ele>78.6</ele>
        <time>2020-06-30T20:33:06Z</time>
      </trkpt>
      <trkpt lat="49.05271" lon="3.91211">
        <ele>78.6</ele>
        <time>2020-06-30T20:33:07Z</time>
      </trkpt>
      <trkpt lat="49.05272" lon="3.91201">
        <ele>78.5</ele>
        <time>2020-06-30T20:33:08Z</time>
      </trkpt>
      <trkpt lat="49.05273" lon="3.91191">
        <ele>78.5</ele>
        <time>2020-06-30T20:33:09Z</time>
      </trkpt>
      <trkpt lat="49.05274" lon="3.9118">
        <ele>78.5</ele>
        <time>2020-06-30T20:33:10Z</time>
      </trkpt>
      <trkpt lat="49.05274" lon="3.91173">
        <ele>78.5</ele>
        <time>2020-06-30T20:33:11Z</time>
      </trkpt>
      <trkpt lat="49.05275" lon="3.91162">
        <ele>78.5</ele>
        <time>2020-06-30T20:33:12Z</time>
      </trkpt>
      <trkpt lat="49.05275" lon="3.91152">
        <ele>78.5</ele>
        <time>2020-06-30T20:33:13Z</time>
      </trkpt>
      <trkpt lat="49.05275" lon="3.91142">
        <ele>78.6</ele>
        <time>2020-06-30T20:33:14Z</time>
      </trkpt>
      <trkpt lat="49.05275" lon="3.91133">
        <ele>78.6</ele>
        <time>2020-06-30T20:33:15Z</time>
      </trkpt>
      <trkpt lat="49.05276" lon="3.91122">
        <ele>78.7</ele>
        <time>2020-06-30T20:33:16Z</time>
      </trkpt>
      <trkpt lat="49.05275" lon="3.91114">
        <ele>78.7</ele>
        <time>2020-06-30T20:33:17Z</time>
      </trkpt>
      <trkpt lat="49.05276" lon="3.91104">
        <ele>78.8</ele>
        <time>2020-06-30T20:33:18Z</time>
      </trkpt>
      <trkpt lat="49.05276" lon="3.91094">
        <ele>78.9</ele>
        <time>2020-06-30T20:33:19Z</time>
      </trkpt>
      <trkpt lat="49.05276" lon="3.91086">
        <ele>79</ele>
        <time>2020-06-30T20:33:20Z</time>
      </trkpt>
      <trkpt lat="49.05278" lon="3.91077">
        <ele>79.1</ele>
        <time>2020-06-30T20:33:21Z</time>
      </trkpt>
      <trkpt lat="49.05279" lon="3.91067">
        <ele>79.2</ele>
        <time>2020-06-30T20:33:22Z</time>
      </trkpt>
      <trkpt lat="49.0528" lon="3.91058">
        <ele>79.2</ele>
        <time>2020-06-30T20:33:23Z</time>
      </trkpt>
      <trkpt lat="49.05281" lon="3.9105">
        <ele>79.3</ele>
        <time>2020-06-30T20:33:24Z</time>
      </trkpt>
      <trkpt lat="49.05282" lon="3.91042">
        <ele>79.4</ele>
        <time>2020-06-30T20:33:25Z</time>
      </trkpt>
      <trkpt lat="49.05282" lon="3.91035">
        <ele>79.5</ele>
        <time>2020-06-30T20:33:26Z</time>
      </trkpt>
      <trkpt lat="49.05282" lon="3.91028">
        <ele>79.5</ele>
        <time>2020-06-30T20:33:27Z</time>
      </trkpt>
      <trkpt lat="49.05283" lon="3.9102">
        <ele>79.6</ele>
        <time>2020-06-30T20:33:28Z</time>
      </trkpt>
      <trkpt lat="49.05283" lon="3.91013">
        <ele>79.7</ele>
        <time>2020-06-30T20:33:29Z</time>
      </trkpt>
      <trkpt lat="49.05283" lon="3.91005">
        <ele>79.8</ele>
        <time>2020-06-30T20:33:30Z</time>
      </trkpt>
      <trkpt lat="49.05283" lon="3.90998">
        <ele>79.8</ele>
        <time>2020-06-30T20:33:31Z</time>
      </trkpt>
      <trkpt lat="49.05283" lon="3.90994">
        <ele>79.8</ele>
        <time>2020-06-30T20:33:32Z</time>
      </trkpt>
      <trkpt lat="49.05282" lon="3.90988">
        <ele>79.9</ele>
        <time>2020-06-30T20:33:33Z</time>
      </trkpt>
      <trkpt lat="49.05282" lon="3.90981">
        <ele>79.9</ele>
        <time>2020-06-30T20:33:34Z</time>
      </trkpt>
      <trkpt lat="49.05283" lon="3.90975">
        <ele>79.9</ele>
        <time>2020-06-30T20:33:35Z</time>
      </trkpt>
      <trkpt lat="49.05283" lon="3.9097">
        <ele>79.9</ele>
        <time>2020-06-30T20:33:36Z</time>
      </trkpt>
      <trkpt lat="49.05283" lon="3.90964">
        <ele>79.8</ele>
        <time>2020-06-30T20:33:37Z</time>
      </trkpt>
      <trkpt lat="49.05285" lon="3.90959">
        <ele>79.8</ele>
        <time>2020-06-30T20:33:38Z</time>
      </trkpt>
      <trkpt lat="49.05285" lon="3.90957">
        <ele>79.8</ele>
        <time>2020-06-30T20:33:39Z</time>
      </trkpt>
      <trkpt lat="49.05286" lon="3.90952">
        <ele>79.7</ele>
        <time>2020-06-30T20:33:40Z</time>
      </trkpt>
      <trkpt lat="49.05287" lon="3.9095">
        <ele>79.7</ele>
        <time>2020-06-30T20:33:41Z</time>
      </trkpt>
      <trkpt lat="49.05288" lon="3.90943">
        <ele>79.7</ele>
        <time>2020-06-30T20:33:42Z</time>
      </trkpt>
      <trkpt lat="49.05289" lon="3.9094">
        <ele>79.6</ele>
        <time>2020-06-30T20:33:43Z</time>
      </trkpt>
      <trkpt lat="49.0529" lon="3.90935">
        <ele>79.6</ele>
        <time>2020-06-30T20:33:44Z</time>
      </trkpt>
      <trkpt lat="49.0529" lon="3.9093">
        <ele>79.6</ele>
        <time>2020-06-30T20:33:45Z</time>
      </trkpt>
      <trkpt lat="49.05292" lon="3.90926">
        <ele>79.5</ele>
        <time>2020-06-30T20:33:46Z</time>
      </trkpt>
      <trkpt lat="49.05293" lon="3.90919">
        <ele>79.5</ele>
        <time>2020-06-30T20:33:47Z</time>
      </trkpt>
      <trkpt lat="49.05294" lon="3.90913">
        <ele>79.4</ele>
        <time>2020-06-30T20:33:48Z</time>
      </trkpt>
      <trkpt lat="49.05296" lon="3.90908">
        <ele>79.4</ele>
        <time>2020-06-30T20:33:49Z</time>
      </trkpt>
      <trkpt lat="49.05297" lon="3.90904">
        <ele>79.4</ele>
        <time>2020-06-30T20:33:50Z</time>
      </trkpt>
      <trkpt lat="49.05299" lon="3.90899">
        <ele>79.3</ele>
        <time>2020-06-30T20:33:51Z</time>
      </trkpt>
      <trkpt lat="49.05301" lon="3.90893">
        <ele>79.2</ele>
        <time>2020-06-30T20:33:52Z</time>
      </trkpt>
      <trkpt lat="49.05302" lon="3.90887">
        <ele>79.2</ele>
        <time>2020-06-30T20:33:53Z</time>
      </trkpt>
      <trkpt lat="49.05304" lon="3.90882">
        <ele>79.2</ele>
        <time>2020-06-30T20:33:54Z</time>
      </trkpt>
      <trkpt lat="49.05305" lon="3.90877">
        <ele>79.1</ele>
        <time>2020-06-30T20:33:55Z</time>
      </trkpt>
      <trkpt lat="49.05306" lon="3.9087">
        <ele>79.1</ele>
        <time>2020-06-30T20:33:56Z</time>
      </trkpt>
      <trkpt lat="49.05307" lon="3.90864">
        <ele>79.1</ele>
        <time>2020-06-30T20:33:57Z</time>
      </trkpt>
      <trkpt lat="49.05308" lon="3.90858">
        <ele>79</ele>
        <time>2020-06-30T20:33:58Z</time>
      </trkpt>
      <trkpt lat="49.05309" lon="3.90852">
        <ele>79</ele>
        <time>2020-06-30T20:33:59Z</time>
      </trkpt>
      <trkpt lat="49.05311" lon="3.90846">
        <ele>78.9</ele>
        <time>2020-06-30T20:34:00Z</time>
      </trkpt>
      <trkpt lat="49.05312" lon="3.90841">
        <ele>78.8</ele>
        <time>2020-06-30T20:34:01Z</time>
      </trkpt>
      <trkpt lat="49.05314" lon="3.90834">
        <ele>78.7</ele>
        <time>2020-06-30T20:34:02Z</time>
      </trkpt>
      <trkpt lat="49.05315" lon="3.90828">
        <ele>78.6</ele>
        <time>2020-06-30T20:34:03Z</time>
      </trkpt>
      <trkpt lat="49.05316" lon="3.90822">
        <ele>78.5</ele>
        <time>2020-06-30T20:34:04Z</time>
      </trkpt>
      <trkpt lat="49.05318" lon="3.90815">
        <ele>78.5</ele>
        <time>2020-06-30T20:34:05Z</time>
      </trkpt>
      <trkpt lat="49.05319" lon="3.90807">
        <ele>78.4</ele>
        <time>2020-06-30T20:34:06Z</time>
      </trkpt>
      <trkpt lat="49.05321" lon="3.908">
        <ele>78.4</ele>
        <time>2020-06-30T20:34:07Z</time>
      </trkpt>
      <trkpt lat="49.05323" lon="3.90791">
        <ele>78.4</ele>
        <time>2020-06-30T20:34:08Z</time>
      </trkpt>
      <trkpt lat="49.05325" lon="3.90781">
        <ele>78.4</ele>
        <time>2020-06-30T20:34:09Z</time>
      </trkpt>
      <trkpt lat="49.05326" lon="3.90772">
        <ele>78.4</ele>
        <time>2020-06-30T20:34:10Z</time>
      </trkpt>
      <trkpt lat="49.05328" lon="3.90762">
        <ele>78.4</ele>
        <time>2020-06-30T20:34:11Z</time>
      </trkpt>
      <trkpt lat="49.05329" lon="3.90753">
        <ele>78.4</ele>
        <time>2020-06-30T20:34:12Z</time>
      </trkpt>
      <trkpt lat="49.0533" lon="3.90744">
        <ele>78.4</ele>
        <time>2020-06-30T20:34:13Z</time>
      </trkpt>
      <trkpt lat="49.0533" lon="3.90736">
        <ele>78.5</ele>
        <time>2020-06-30T20:34:14Z</time>
      </trkpt>
      <trkpt lat="49.05331" lon="3.90728">
        <ele>78.6</ele>
        <time>2020-06-30T20:34:15Z</time>
      </trkpt>
      <trkpt lat="49.05331" lon="3.9072">
        <ele>78.7</ele>
        <time>2020-06-30T20:34:16Z</time>
      </trkpt>
      <trkpt lat="49.05332" lon="3.90714">
        <ele>78.8</ele>
        <time>2020-06-30T20:34:17Z</time>
      </trkpt>
      <trkpt lat="49.05333" lon="3.90706">
        <ele>78.9</ele>
        <time>2020-06-30T20:34:18Z</time>
      </trkpt>
      <trkpt lat="49.05333" lon="3.90699">
        <ele>79</ele>
        <time>2020-06-30T20:34:19Z</time>
      </trkpt>
      <trkpt lat="49.05333" lon="3.90693">
        <ele>79.1</ele>
        <time>2020-06-30T20:34:20Z</time>
      </trkpt>
      <trkpt lat="49.05334" lon="3.90687">
        <ele>79.2</ele>
        <time>2020-06-30T20:34:21Z</time>
      </trkpt>
      <trkpt lat="49.05335" lon="3.9068">
        <ele>79.3</ele>
        <time>2020-06-30T20:34:22Z</time>
      </trkpt>
      <trkpt lat="49.05335" lon="3.90674">
        <ele>79.4</ele>
        <time>2020-06-30T20:34:23Z</time>
      </trkpt>
      <trkpt lat="49.05335" lon="3.90667">
        <ele>79.6</ele>
        <time>2020-06-30T20:34:24Z</time>
      </trkpt>
      <trkpt lat="49.05335" lon="3.9066">
        <ele>79.7</ele>
        <time>2020-06-30T20:34:25Z</time>
      </trkpt>
      <trkpt lat="49.05335" lon="3.90653">
        <ele>79.9</ele>
        <time>2020-06-30T20:34:26Z</time>
      </trkpt>
      <trkpt lat="49.05336" lon="3.90646">
        <ele>80</ele>
        <time>2020-06-30T20:34:27Z</time>
      </trkpt>
      <trkpt lat="49.05336" lon="3.90638">
        <ele>80.2</ele>
        <time>2020-06-30T20:34:28Z</time>
      </trkpt>
      <trkpt lat="49.05335" lon="3.90629">
        <ele>80.5</ele>
        <time>2020-06-30T20:34:29Z</time>
      </trkpt>
      <trkpt lat="49.05335" lon="3.9062">
        <ele>80.7</ele>
        <time>2020-06-30T20:34:30Z</time>
      </trkpt>
      <trkpt lat="49.05334" lon="3.90612">
        <ele>80.9</ele>
        <time>2020-06-30T20:34:31Z</time>
      </trkpt>
      <trkpt lat="49.05334" lon="3.90605">
        <ele>81.1</ele>
        <time>2020-06-30T20:34:32Z</time>
      </trkpt>
      <trkpt lat="49.05334" lon="3.90597">
        <ele>81.3</ele>
        <time>2020-06-30T20:34:33Z</time>
      </trkpt>
      <trkpt lat="49.05334" lon="3.90589">
        <ele>81.6</ele>
        <time>2020-06-30T20:34:34Z</time>
      </trkpt>
      <trkpt lat="49.05335" lon="3.90582">
        <ele>81.8</ele>
        <time>2020-06-30T20:34:35Z</time>
      </trkpt>
      <trkpt lat="49.05335" lon="3.90576">
        <ele>82</ele>
        <time>2020-06-30T20:34:36Z</time>
      </trkpt>
      <trkpt lat="49.05335" lon="3.9057">
        <ele>82.2</ele>
        <time>2020-06-30T20:34:37Z</time>
      </trkpt>
      <trkpt lat="49.05336" lon="3.90563">
        <ele>82.4</ele>
        <time>2020-06-30T20:34:38Z</time>
      </trkpt>
      <trkpt lat="49.05337" lon="3.90558">
        <ele>82.6</ele>
        <time>2020-06-30T20:34:39Z</time>
      </trkpt>
      <trkpt lat="49.05338" lon="3.90552">
        <ele>82.9</ele>
        <time>2020-06-30T20:34:40Z</time>
      </trkpt>
      <trkpt lat="49.05339" lon="3.90547">
        <ele>83.1</ele>
        <time>2020-06-30T20:34:41Z</time>
      </trkpt>
      <trkpt lat="49.05339" lon="3.90541">
        <ele>83.3</ele>
        <time>2020-06-30T20:34:42Z</time>
      </trkpt>
      <trkpt lat="49.05339" lon="3.90534">
        <ele>83.6</ele>
        <time>2020-06-30T20:34:43Z</time>
      </trkpt>
      <trkpt lat="49.05339" lon="3.90528">
        <ele>83.9</ele>
        <time>2020-06-30T20:34:44Z</time>
      </trkpt>
      <trkpt lat="49.0534" lon="3.90523">
        <ele>84.1</ele>
        <time>2020-06-30T20:34:45Z</time>
      </trkpt>
      <trkpt lat="49.05341" lon="3.90519">
        <ele>84.3</ele>
        <time>2020-06-30T20:34:46Z</time>
      </trkpt>
      <trkpt lat="49.05342" lon="3.90512">
        <ele>84.5</ele>
        <time>2020-06-30T20:34:47Z</time>
      </trkpt>
      <trkpt lat="49.05342" lon="3.9051">
        <ele>84.6</ele>
        <time>2020-06-30T20:34:48Z</time>
      </trkpt>
      <trkpt lat="49.05343" lon="3.90505">
        <ele>84.8</ele>
        <time>2020-06-30T20:34:49Z</time>
      </trkpt>
      <trkpt lat="49.05343" lon="3.90499">
        <ele>85.1</ele>
        <time>2020-06-30T20:34:50Z</time>
      </trkpt>
      <trkpt lat="49.05343" lon="3.90492">
        <ele>85.4</ele>
        <time>2020-06-30T20:34:51Z</time>
      </trkpt>
      <trkpt lat="49.05343" lon="3.90487">
        <ele>85.6</ele>
        <time>2020-06-30T20:34:52Z</time>
      </trkpt>
      <trkpt lat="49.05344" lon="3.90481">
        <ele>85.8</ele>
        <time>2020-06-30T20:34:53Z</time>
      </trkpt>
      <trkpt lat="49.05345" lon="3.90475">
        <ele>86.1</ele>
        <time>2020-06-30T20:34:54Z</time>
      </trkpt>
      <trkpt lat="49.05346" lon="3.90469">
        <ele>86.3</ele>
        <time>2020-06-30T20:34:55Z</time>
      </trkpt>
      <trkpt lat="49.05347" lon="3.90464">
        <ele>86.5</ele>
        <time>2020-06-30T20:34:56Z</time>
      </trkpt>
      <trkpt lat="49.05347" lon="3.90458">
        <ele>86.6</ele>
        <time>2020-06-30T20:34:57Z</time>
      </trkpt>
      <trkpt lat="49.05348" lon="3.90453">
        <ele>86.8</ele>
        <time>2020-06-30T20:34:58Z</time>
      </trkpt>
      <trkpt lat="49.05349" lon="3.90447">
        <ele>87</ele>
        <time>2020-06-30T20:34:59Z</time>
      </trkpt>
      <trkpt lat="49.05349" lon="3.9044">
        <ele>87.2</ele>
        <time>2020-06-30T20:35:00Z</time>
      </trkpt>
      <trkpt lat="49.0535" lon="3.90435">
        <ele>87.4</ele>
        <time>2020-06-30T20:35:01Z</time>
      </trkpt>
      <trkpt lat="49.0535" lon="3.9043">
        <ele>87.5</ele>
        <time>2020-06-30T20:35:02Z</time>
      </trkpt>
      <trkpt lat="49.05351" lon="3.90425">
        <ele>87.7</ele>
        <time>2020-06-30T20:35:03Z</time>
      </trkpt>
      <trkpt lat="49.05352" lon="3.9042">
        <ele>87.8</ele>
        <time>2020-06-30T20:35:04Z</time>
      </trkpt>
      <trkpt lat="49.05353" lon="3.90414">
        <ele>88</ele>
        <time>2020-06-30T20:35:05Z</time>
      </trkpt>
      <trkpt lat="49.05353" lon="3.90407">
        <ele>88.2</ele>
        <time>2020-06-30T20:35:06Z</time>
      </trkpt>
      <trkpt lat="49.05354" lon="3.90402">
        <ele>88.3</ele>
        <time>2020-06-30T20:35:07Z</time>
      </trkpt>
      <trkpt lat="49.05354" lon="3.90397">
        <ele>88.4</ele>
        <time>2020-06-30T20:35:08Z</time>
      </trkpt>
      <trkpt lat="49.05356" lon="3.90391">
        <ele>88.5</ele>
        <time>2020-06-30T20:35:09Z</time>
      </trkpt>
      <trkpt lat="49.05356" lon="3.90386">
        <ele>88.6</ele>
        <time>2020-06-30T20:35:10Z</time>
      </trkpt>
      <trkpt lat="49.05357" lon="3.9038">
        <ele>88.7</ele>
        <time>2020-06-30T20:35:11Z</time>
      </trkpt>
      <trkpt lat="49.05359" lon="3.90375">
        <ele>88.8</ele>
        <time>2020-06-30T20:35:12Z</time>
      </trkpt>
      <trkpt lat="49.0536" lon="3.90368">
        <ele>88.9</ele>
        <time>2020-06-30T20:35:13Z</time>
      </trkpt>
      <trkpt lat="49.05361" lon="3.90362">
        <ele>89.2</ele>
        <time>2020-06-30T20:35:14Z</time>
      </trkpt>
      <trkpt lat="49.05363" lon="3.90356">
        <ele>89.4</ele>
        <time>2020-06-30T20:35:15Z</time>
      </trkpt>
      <trkpt lat="49.05364" lon="3.90351">
        <ele>89.5</ele>
        <time>2020-06-30T20:35:16Z</time>
      </trkpt>
      <trkpt lat="49.05366" lon="3.90346">
        <ele>89.6</ele>
        <time>2020-06-30T20:35:17Z</time>
      </trkpt>
      <trkpt lat="49.05367" lon="3.90341">
        <ele>89.6</ele>
        <time>2020-06-30T20:35:18Z</time>
      </trkpt>
      <trkpt lat="49.05369" lon="3.90336">
        <ele>89.6</ele>
        <time>2020-06-30T20:35:19Z</time>
      </trkpt>
      <trkpt lat="49.0537" lon="3.9033">
        <ele>89.6</ele>
        <time>2020-06-30T20:35:20Z</time>
      </trkpt>
      <trkpt lat="49.05372" lon="3.90325">
        <ele>89.6</ele>
        <time>2020-06-30T20:35:21Z</time>
      </trkpt>
      <trkpt lat="49.05373" lon="3.90319">
        <ele>89.5</ele>
        <time>2020-06-30T20:35:22Z</time>
      </trkpt>
      <trkpt lat="49.05374" lon="3.90313">
        <ele>89.5</ele>
        <time>2020-06-30T20:35:23Z</time>
      </trkpt>
      <trkpt lat="49.05376" lon="3.90307">
        <ele>89.4</ele>
        <time>2020-06-30T20:35:24Z</time>
      </trkpt>
      <trkpt lat="49.05378" lon="3.90302">
        <ele>89.3</ele>
        <time>2020-06-30T20:35:25Z</time>
      </trkpt>
      <trkpt lat="49.05379" lon="3.90297">
        <ele>89.2</ele>
        <time>2020-06-30T20:35:26Z</time>
      </trkpt>
      <trkpt lat="49.05382" lon="3.90291">
        <ele>89.1</ele>
        <time>2020-06-30T20:35:27Z</time>
      </trkpt>
      <trkpt lat="49.05384" lon="3.90285">
        <ele>88.9</ele>
        <time>2020-06-30T20:35:28Z</time>
      </trkpt>
      <trkpt lat="49.05386" lon="3.90279">
        <ele>88.8</ele>
        <time>2020-06-30T20:35:29Z</time>
      </trkpt>
      <trkpt lat="49.05388" lon="3.90272">
        <ele>88.7</ele>
        <time>2020-06-30T20:35:30Z</time>
      </trkpt>
      <trkpt lat="49.05391" lon="3.90265">
        <ele>88.5</ele>
        <time>2020-06-30T20:35:31Z</time>
      </trkpt>
      <trkpt lat="49.05393" lon="3.90258">
        <ele>88.3</ele>
        <time>2020-06-30T20:35:32Z</time>
      </trkpt>
      <trkpt lat="49.05395" lon="3.90252">
        <ele>88.2</ele>
        <time>2020-06-30T20:35:33Z</time>
      </trkpt>
      <trkpt lat="49.05397" lon="3.90245">
        <ele>88</ele>
        <time>2020-06-30T20:35:34Z</time>
      </trkpt>
      <trkpt lat="49.054" lon="3.90238">
        <ele>87.8</ele>
        <time>2020-06-30T20:35:35Z</time>
      </trkpt>
      <trkpt lat="49.05402" lon="3.90232">
        <ele>87.6</ele>
        <time>2020-06-30T20:35:36Z</time>
      </trkpt>
      <trkpt lat="49.05404" lon="3.90225">
        <ele>87.4</ele>
        <time>2020-06-30T20:35:37Z</time>
      </trkpt>
      <trkpt lat="49.05406" lon="3.90218">
        <ele>87.2</ele>
        <time>2020-06-30T20:35:38Z</time>
      </trkpt>
      <trkpt lat="49.05408" lon="3.90211">
        <ele>86.9</ele>
        <time>2020-06-30T20:35:39Z</time>
      </trkpt>
      <trkpt lat="49.05411" lon="3.90203">
        <ele>86.7</ele>
        <time>2020-06-30T20:35:40Z</time>
      </trkpt>
      <trkpt lat="49.05414" lon="3.90195">
        <ele>86.4</ele>
        <time>2020-06-30T20:35:41Z</time>
      </trkpt>
      <trkpt lat="49.05417" lon="3.90186">
        <ele>86.1</ele>
        <time>2020-06-30T20:35:42Z</time>
      </trkpt>
      <trkpt lat="49.0542" lon="3.90178">
        <ele>85.8</ele>
        <time>2020-06-30T20:35:43Z</time>
      </trkpt>
      <trkpt lat="49.05425" lon="3.90171">
        <ele>85.5</ele>
        <time>2020-06-30T20:35:44Z</time>
      </trkpt>
      <trkpt lat="49.05429" lon="3.90162">
        <ele>85.1</ele>
        <time>2020-06-30T20:35:45Z</time>
      </trkpt>
      <trkpt lat="49.05433" lon="3.90154">
        <ele>84.8</ele>
        <time>2020-06-30T20:35:46Z</time>
      </trkpt>
      <trkpt lat="49.05436" lon="3.90145">
        <ele>84.6</ele>
        <time>2020-06-30T20:35:47Z</time>
      </trkpt>
      <trkpt lat="49.0544" lon="3.90136">
        <ele>84.4</ele>
        <time>2020-06-30T20:35:48Z</time>
      </trkpt>
      <trkpt lat="49.05443" lon="3.90126">
        <ele>84.3</ele>
        <time>2020-06-30T20:35:49Z</time>
      </trkpt>
      <trkpt lat="49.05446" lon="3.90117">
        <ele>84.1</ele>
        <time>2020-06-30T20:35:50Z</time>
      </trkpt>
      <trkpt lat="49.05449" lon="3.9011">
        <ele>84</ele>
        <time>2020-06-30T20:35:51Z</time>
      </trkpt>
      <trkpt lat="49.05452" lon="3.90101">
        <ele>83.9</ele>
        <time>2020-06-30T20:35:52Z</time>
      </trkpt>
      <trkpt lat="49.05456" lon="3.90095">
        <ele>83.8</ele>
        <time>2020-06-30T20:35:53Z</time>
      </trkpt>
      <trkpt lat="49.0546" lon="3.90088">
        <ele>83.7</ele>
        <time>2020-06-30T20:35:54Z</time>
      </trkpt>
      <trkpt lat="49.05464" lon="3.9008">
        <ele>83.7</ele>
        <time>2020-06-30T20:35:55Z</time>
      </trkpt>
      <trkpt lat="49.05468" lon="3.90074">
        <ele>83.7</ele>
        <time>2020-06-30T20:35:56Z</time>
      </trkpt>
      <trkpt lat="49.0547" lon="3.90067">
        <ele>83.8</ele>
        <time>2020-06-30T20:35:57Z</time>
      </trkpt>
      <trkpt lat="49.05473" lon="3.90061">
        <ele>83.8</ele>
        <time>2020-06-30T20:35:58Z</time>
      </trkpt>
      <trkpt lat="49.05475" lon="3.90054">
        <ele>83.9</ele>
        <time>2020-06-30T20:35:59Z</time>
      </trkpt>
      <trkpt lat="49.05478" lon="3.90045">
        <ele>84</ele>
        <time>2020-06-30T20:36:00Z</time>
      </trkpt>
      <trkpt lat="49.0548" lon="3.90036">
        <ele>84.1</ele>
        <time>2020-06-30T20:36:01Z</time>
      </trkpt>
      <trkpt lat="49.05483" lon="3.90028">
        <ele>84.1</ele>
        <time>2020-06-30T20:36:02Z</time>
      </trkpt>
      <trkpt lat="49.05487" lon="3.90019">
        <ele>84.2</ele>
        <time>2020-06-30T20:36:03Z</time>
      </trkpt>
      <trkpt lat="49.05491" lon="3.90011">
        <ele>84.2</ele>
        <time>2020-06-30T20:36:04Z</time>
      </trkpt>
      <trkpt lat="49.05494" lon="3.90004">
        <ele>84.3</ele>
        <time>2020-06-30T20:36:05Z</time>
      </trkpt>
      <trkpt lat="49.05497" lon="3.89997">
        <ele>84.3</ele>
        <time>2020-06-30T20:36:06Z</time>
      </trkpt>
      <trkpt lat="49.055" lon="3.89988">
        <ele>84.3</ele>
        <time>2020-06-30T20:36:07Z</time>
      </trkpt>
      <trkpt lat="49.05503" lon="3.89979">
        <ele>84.3</ele>
        <time>2020-06-30T20:36:08Z</time>
      </trkpt>
      <trkpt lat="49.05504" lon="3.8997">
        <ele>84.2</ele>
        <time>2020-06-30T20:36:09Z</time>
      </trkpt>
      <trkpt lat="49.05506" lon="3.89959">
        <ele>84.1</ele>
        <time>2020-06-30T20:36:10Z</time>
      </trkpt>
      <trkpt lat="49.05508" lon="3.89947">
        <ele>84</ele>
        <time>2020-06-30T20:36:11Z</time>
      </trkpt>
      <trkpt lat="49.0551" lon="3.89935">
        <ele>83.9</ele>
        <time>2020-06-30T20:36:12Z</time>
      </trkpt>
      <trkpt lat="49.05514" lon="3.89925">
        <ele>83.8</ele>
        <time>2020-06-30T20:36:13Z</time>
      </trkpt>
      <trkpt lat="49.05517" lon="3.89913">
        <ele>83.7</ele>
        <time>2020-06-30T20:36:14Z</time>
      </trkpt>
      <trkpt lat="49.0552" lon="3.89903">
        <ele>83.6</ele>
        <time>2020-06-30T20:36:15Z</time>
      </trkpt>
      <trkpt lat="49.05523" lon="3.89893">
        <ele>83.5</ele>
        <time>2020-06-30T20:36:16Z</time>
      </trkpt>
      <trkpt lat="49.05525" lon="3.89882">
        <ele>83.5</ele>
        <time>2020-06-30T20:36:17Z</time>
      </trkpt>
      <trkpt lat="49.05527" lon="3.89872">
        <ele>83.5</ele>
        <time>2020-06-30T20:36:18Z</time>
      </trkpt>
      <trkpt lat="49.05529" lon="3.89862">
        <ele>83.5</ele>
        <time>2020-06-30T20:36:19Z</time>
      </trkpt>
      <trkpt lat="49.05531" lon="3.89852">
        <ele>83.5</ele>
        <time>2020-06-30T20:36:20Z</time>
      </trkpt>
      <trkpt lat="49.05533" lon="3.89844">
        <ele>83.5</ele>
        <time>2020-06-30T20:36:21Z</time>
      </trkpt>
      <trkpt lat="49.05536" lon="3.89833">
        <ele>83.6</ele>
        <time>2020-06-30T20:36:22Z</time>
      </trkpt>
      <trkpt lat="49.05538" lon="3.89823">
        <ele>83.7</ele>
        <time>2020-06-30T20:36:23Z</time>
      </trkpt>
      <trkpt lat="49.05539" lon="3.89815">
        <ele>83.8</ele>
        <time>2020-06-30T20:36:24Z</time>
      </trkpt>
      <trkpt lat="49.05541" lon="3.89807">
        <ele>83.9</ele>
        <time>2020-06-30T20:36:25Z</time>
      </trkpt>
      <trkpt lat="49.05542" lon="3.89797">
        <ele>84</ele>
        <time>2020-06-30T20:36:26Z</time>
      </trkpt>
      <trkpt lat="49.05542" lon="3.89785">
        <ele>84.2</ele>
        <time>2020-06-30T20:36:27Z</time>
      </trkpt>
      <trkpt lat="49.05543" lon="3.89775">
        <ele>84.3</ele>
        <time>2020-06-30T20:36:28Z</time>
      </trkpt>
      <trkpt lat="49.05543" lon="3.89766">
        <ele>84.5</ele>
        <time>2020-06-30T20:36:29Z</time>
      </trkpt>
      <trkpt lat="49.05543" lon="3.89756">
        <ele>84.6</ele>
        <time>2020-06-30T20:36:30Z</time>
      </trkpt>
      <trkpt lat="49.05545" lon="3.89749">
        <ele>84.7</ele>
        <time>2020-06-30T20:36:31Z</time>
      </trkpt>
      <trkpt lat="49.05546" lon="3.89741">
        <ele>84.8</ele>
        <time>2020-06-30T20:36:32Z</time>
      </trkpt>
      <trkpt lat="49.05548" lon="3.89734">
        <ele>84.8</ele>
        <time>2020-06-30T20:36:33Z</time>
      </trkpt>
      <trkpt lat="49.0555" lon="3.89728">
        <ele>84.8</ele>
        <time>2020-06-30T20:36:34Z</time>
      </trkpt>
      <trkpt lat="49.05551" lon="3.89722">
        <ele>84.8</ele>
        <time>2020-06-30T20:36:35Z</time>
      </trkpt>
      <trkpt lat="49.05553" lon="3.89715">
        <ele>84.7</ele>
        <time>2020-06-30T20:36:36Z</time>
      </trkpt>
      <trkpt lat="49.05554" lon="3.89711">
        <ele>84.7</ele>
        <time>2020-06-30T20:36:37Z</time>
      </trkpt>
      <trkpt lat="49.05556" lon="3.89706">
        <ele>84.6</ele>
        <time>2020-06-30T20:36:38Z</time>
      </trkpt>
      <trkpt lat="49.05559" lon="3.897">
        <ele>84.5</ele>
        <time>2020-06-30T20:36:39Z</time>
      </trkpt>
      <trkpt lat="49.05561" lon="3.89694">
        <ele>84.5</ele>
        <time>2020-06-30T20:36:40Z</time>
      </trkpt>
      <trkpt lat="49.05562" lon="3.89689">
        <ele>84.4</ele>
        <time>2020-06-30T20:36:41Z</time>
      </trkpt>
      <trkpt lat="49.05564" lon="3.89683">
        <ele>84.4</ele>
        <time>2020-06-30T20:36:42Z</time>
      </trkpt>
      <trkpt lat="49.05566" lon="3.89677">
        <ele>84.3</ele>
        <time>2020-06-30T20:36:43Z</time>
      </trkpt>
      <trkpt lat="49.05568" lon="3.89671">
        <ele>84.3</ele>
        <time>2020-06-30T20:36:44Z</time>
      </trkpt>
      <trkpt lat="49.05571" lon="3.89664">
        <ele>84.2</ele>
        <time>2020-06-30T20:36:45Z</time>
      </trkpt>
      <trkpt lat="49.05574" lon="3.89657">
        <ele>84.1</ele>
        <time>2020-06-30T20:36:46Z</time>
      </trkpt>
      <trkpt lat="49.05577" lon="3.8965">
        <ele>84.1</ele>
        <time>2020-06-30T20:36:47Z</time>
      </trkpt>
      <trkpt lat="49.0558" lon="3.89642">
        <ele>83.9</ele>
        <time>2020-06-30T20:36:48Z</time>
      </trkpt>
      <trkpt lat="49.05582" lon="3.89636">
        <ele>83.8</ele>
        <time>2020-06-30T20:36:49Z</time>
      </trkpt>
      <trkpt lat="49.05585" lon="3.8963">
        <ele>83.7</ele>
        <time>2020-06-30T20:36:50Z</time>
      </trkpt>
      <trkpt lat="49.05588" lon="3.89624">
        <ele>83.6</ele>
        <time>2020-06-30T20:36:51Z</time>
      </trkpt>
      <trkpt lat="49.05591" lon="3.89618">
        <ele>83.5</ele>
        <time>2020-06-30T20:36:52Z</time>
      </trkpt>
      <trkpt lat="49.05593" lon="3.89612">
        <ele>83.4</ele>
        <time>2020-06-30T20:36:53Z</time>
      </trkpt>
      <trkpt lat="49.05595" lon="3.89606">
        <ele>83.2</ele>
        <time>2020-06-30T20:36:54Z</time>
      </trkpt>
      <trkpt lat="49.05596" lon="3.89598">
        <ele>83.1</ele>
        <time>2020-06-30T20:36:55Z</time>
      </trkpt>
      <trkpt lat="49.05598" lon="3.89591">
        <ele>82.9</ele>
        <time>2020-06-30T20:36:56Z</time>
      </trkpt>
      <trkpt lat="49.056" lon="3.89582">
        <ele>82.6</ele>
        <time>2020-06-30T20:36:57Z</time>
      </trkpt>
      <trkpt lat="49.05603" lon="3.89573">
        <ele>82.3</ele>
        <time>2020-06-30T20:36:58Z</time>
      </trkpt>
      <trkpt lat="49.05607" lon="3.89564">
        <ele>81.9</ele>
        <time>2020-06-30T20:36:59Z</time>
      </trkpt>
      <trkpt lat="49.05609" lon="3.89554">
        <ele>81.6</ele>
        <time>2020-06-30T20:37:00Z</time>
      </trkpt>
      <trkpt lat="49.05612" lon="3.89541">
        <ele>81.1</ele>
        <time>2020-06-30T20:37:01Z</time>
      </trkpt>
      <trkpt lat="49.05614" lon="3.89528">
        <ele>80.6</ele>
        <time>2020-06-30T20:37:02Z</time>
      </trkpt>
      <trkpt lat="49.05617" lon="3.89516">
        <ele>80.3</ele>
        <time>2020-06-30T20:37:03Z</time>
      </trkpt>
      <trkpt lat="49.0562" lon="3.89505">
        <ele>80</ele>
        <time>2020-06-30T20:37:04Z</time>
      </trkpt>
      <trkpt lat="49.05622" lon="3.89494">
        <ele>79.8</ele>
        <time>2020-06-30T20:37:05Z</time>
      </trkpt>
      <trkpt lat="49.05625" lon="3.89483">
        <ele>79.7</ele>
        <time>2020-06-30T20:37:06Z</time>
      </trkpt>
      <trkpt lat="49.05627" lon="3.89471">
        <ele>79.7</ele>
        <time>2020-06-30T20:37:07Z</time>
      </trkpt>
      <trkpt lat="49.05629" lon="3.89459">
        <ele>79.7</ele>
        <time>2020-06-30T20:37:08Z</time>
      </trkpt>
      <trkpt lat="49.05631" lon="3.89449">
        <ele>79.8</ele>
        <time>2020-06-30T20:37:09Z</time>
      </trkpt>
      <trkpt lat="49.05633" lon="3.89438">
        <ele>79.9</ele>
        <time>2020-06-30T20:37:10Z</time>
      </trkpt>
      <trkpt lat="49.05636" lon="3.89427">
        <ele>80.1</ele>
        <time>2020-06-30T20:37:11Z</time>
      </trkpt>
      <trkpt lat="49.05639" lon="3.89417">
        <ele>80.3</ele>
        <time>2020-06-30T20:37:12Z</time>
      </trkpt>
      <trkpt lat="49.05641" lon="3.89407">
        <ele>80.5</ele>
        <time>2020-06-30T20:37:13Z</time>
      </trkpt>
      <trkpt lat="49.05644" lon="3.89398">
        <ele>80.6</ele>
        <time>2020-06-30T20:37:14Z</time>
      </trkpt>
      <trkpt lat="49.05647" lon="3.89389">
        <ele>80.6</ele>
        <time>2020-06-30T20:37:15Z</time>
      </trkpt>
      <trkpt lat="49.05649" lon="3.89378">
        <ele>80.7</ele>
        <time>2020-06-30T20:37:16Z</time>
      </trkpt>
      <trkpt lat="49.05652" lon="3.89369">
        <ele>80.9</ele>
        <time>2020-06-30T20:37:17Z</time>
      </trkpt>
      <trkpt lat="49.05654" lon="3.89361">
        <ele>81</ele>
        <time>2020-06-30T20:37:18Z</time>
      </trkpt>
      <trkpt lat="49.05656" lon="3.89354">
        <ele>81.2</ele>
        <time>2020-06-30T20:37:19Z</time>
      </trkpt>
      <trkpt lat="49.05658" lon="3.89346">
        <ele>81.3</ele>
        <time>2020-06-30T20:37:20Z</time>
      </trkpt>
      <trkpt lat="49.0566" lon="3.89336">
        <ele>81.5</ele>
        <time>2020-06-30T20:37:21Z</time>
      </trkpt>
      <trkpt lat="49.05662" lon="3.89327">
        <ele>81.7</ele>
        <time>2020-06-30T20:37:22Z</time>
      </trkpt>
      <trkpt lat="49.05664" lon="3.89319">
        <ele>81.9</ele>
        <time>2020-06-30T20:37:23Z</time>
      </trkpt>
      <trkpt lat="49.05667" lon="3.89312">
        <ele>82</ele>
        <time>2020-06-30T20:37:24Z</time>
      </trkpt>
      <trkpt lat="49.05668" lon="3.89305">
        <ele>82.2</ele>
        <time>2020-06-30T20:37:25Z</time>
      </trkpt>
      <trkpt lat="49.0567" lon="3.89297">
        <ele>82.3</ele>
        <time>2020-06-30T20:37:26Z</time>
      </trkpt>
      <trkpt lat="49.05671" lon="3.89289">
        <ele>82.5</ele>
        <time>2020-06-30T20:37:27Z</time>
      </trkpt>
      <trkpt lat="49.05673" lon="3.8928">
        <ele>82.6</ele>
        <time>2020-06-30T20:37:28Z</time>
      </trkpt>
      <trkpt lat="49.05676" lon="3.89273">
        <ele>82.7</ele>
        <time>2020-06-30T20:37:29Z</time>
      </trkpt>
      <trkpt lat="49.05678" lon="3.89265">
        <ele>82.9</ele>
        <time>2020-06-30T20:37:30Z</time>
      </trkpt>
      <trkpt lat="49.05681" lon="3.89257">
        <ele>83</ele>
        <time>2020-06-30T20:37:31Z</time>
      </trkpt>
      <trkpt lat="49.05683" lon="3.89249">
        <ele>83.1</ele>
        <time>2020-06-30T20:37:32Z</time>
      </trkpt>
      <trkpt lat="49.05684" lon="3.89241">
        <ele>83.3</ele>
        <time>2020-06-30T20:37:33Z</time>
      </trkpt>
      <trkpt lat="49.05686" lon="3.89233">
        <ele>83.4</ele>
        <time>2020-06-30T20:37:34Z</time>
      </trkpt>
      <trkpt lat="49.05688" lon="3.89226">
        <ele>83.6</ele>
        <time>2020-06-30T20:37:35Z</time>
      </trkpt>
      <trkpt lat="49.0569" lon="3.89219">
        <ele>83.8</ele>
        <time>2020-06-30T20:37:36Z</time>
      </trkpt>
      <trkpt lat="49.05692" lon="3.89213">
        <ele>83.9</ele>
        <time>2020-06-30T20:37:37Z</time>
      </trkpt>
      <trkpt lat="49.05694" lon="3.89206">
        <ele>84.1</ele>
        <time>2020-06-30T20:37:38Z</time>
      </trkpt>
      <trkpt lat="49.05696" lon="3.89199">
        <ele>84.2</ele>
        <time>2020-06-30T20:37:39Z</time>
      </trkpt>
      <trkpt lat="49.05698" lon="3.89193">
        <ele>84.4</ele>
        <time>2020-06-30T20:37:40Z</time>
      </trkpt>
      <trkpt lat="49.057" lon="3.89186">
        <ele>84.5</ele>
        <time>2020-06-30T20:37:41Z</time>
      </trkpt>
      <trkpt lat="49.05701" lon="3.89179">
        <ele>84.6</ele>
        <time>2020-06-30T20:37:42Z</time>
      </trkpt>
      <trkpt lat="49.05704" lon="3.8917">
        <ele>84.8</ele>
        <time>2020-06-30T20:37:43Z</time>
      </trkpt>
      <trkpt lat="49.05706" lon="3.89163">
        <ele>84.8</ele>
        <time>2020-06-30T20:37:44Z</time>
      </trkpt>
      <trkpt lat="49.05709" lon="3.89156">
        <ele>84.7</ele>
        <time>2020-06-30T20:37:45Z</time>
      </trkpt>
      <trkpt lat="49.05711" lon="3.89148">
        <ele>84.5</ele>
        <time>2020-06-30T20:37:46Z</time>
      </trkpt>
      <trkpt lat="49.05714" lon="3.8914">
        <ele>84.3</ele>
        <time>2020-06-30T20:37:47Z</time>
      </trkpt>
      <trkpt lat="49.05716" lon="3.89131">
        <ele>84.1</ele>
        <time>2020-06-30T20:37:48Z</time>
      </trkpt>
      <trkpt lat="49.05719" lon="3.89122">
        <ele>83.9</ele>
        <time>2020-06-30T20:37:49Z</time>
      </trkpt>
      <trkpt lat="49.05722" lon="3.89113">
        <ele>83.7</ele>
        <time>2020-06-30T20:37:50Z</time>
      </trkpt>
      <trkpt lat="49.05725" lon="3.89103">
        <ele>83.4</ele>
        <time>2020-06-30T20:37:51Z</time>
      </trkpt>
      <trkpt lat="49.05728" lon="3.89092">
        <ele>83.2</ele>
        <time>2020-06-30T20:37:52Z</time>
      </trkpt>
      <trkpt lat="49.0573" lon="3.89083">
        <ele>83.1</ele>
        <time>2020-06-30T20:37:53Z</time>
      </trkpt>
      <trkpt lat="49.05733" lon="3.89075">
        <ele>83</ele>
        <time>2020-06-30T20:37:54Z</time>
      </trkpt>
      <trkpt lat="49.05736" lon="3.89067">
        <ele>83</ele>
        <time>2020-06-30T20:37:55Z</time>
      </trkpt>
      <trkpt lat="49.05738" lon="3.89058">
        <ele>82.9</ele>
        <time>2020-06-30T20:37:56Z</time>
      </trkpt>
      <trkpt lat="49.0574" lon="3.8905">
        <ele>82.9</ele>
        <time>2020-06-30T20:37:57Z</time>
      </trkpt>
      <trkpt lat="49.05742" lon="3.89041">
        <ele>82.9</ele>
        <time>2020-06-30T20:37:58Z</time>
      </trkpt>
      <trkpt lat="49.05745" lon="3.89032">
        <ele>82.9</ele>
        <time>2020-06-30T20:37:59Z</time>
      </trkpt>
      <trkpt lat="49.05747" lon="3.89024">
        <ele>82.9</ele>
        <time>2020-06-30T20:38:00Z</time>
      </trkpt>
      <trkpt lat="49.05749" lon="3.89013">
        <ele>83</ele>
        <time>2020-06-30T20:38:01Z</time>
      </trkpt>
      <trkpt lat="49.05751" lon="3.89004">
        <ele>83</ele>
        <time>2020-06-30T20:38:02Z</time>
      </trkpt>
      <trkpt lat="49.05754" lon="3.88995">
        <ele>83</ele>
        <time>2020-06-30T20:38:03Z</time>
      </trkpt>
      <trkpt lat="49.05757" lon="3.88984">
        <ele>83</ele>
        <time>2020-06-30T20:38:04Z</time>
      </trkpt>
      <trkpt lat="49.0576" lon="3.88975">
        <ele>83.1</ele>
        <time>2020-06-30T20:38:05Z</time>
      </trkpt>
      <trkpt lat="49.05762" lon="3.88964">
        <ele>83.1</ele>
        <time>2020-06-30T20:38:06Z</time>
      </trkpt>
      <trkpt lat="49.05763" lon="3.88955">
        <ele>83.1</ele>
        <time>2020-06-30T20:38:07Z</time>
      </trkpt>
      <trkpt lat="49.05765" lon="3.88946">
        <ele>83.1</ele>
        <time>2020-06-30T20:38:08Z</time>
      </trkpt>
      <trkpt lat="49.05767" lon="3.88939">
        <ele>83</ele>
        <time>2020-06-30T20:38:09Z</time>
      </trkpt>
      <trkpt lat="49.0577" lon="3.88931">
        <ele>83</ele>
        <time>2020-06-30T20:38:10Z</time>
      </trkpt>
      <trkpt lat="49.05773" lon="3.88923">
        <ele>83</ele>
        <time>2020-06-30T20:38:11Z</time>
      </trkpt>
      <trkpt lat="49.05776" lon="3.88914">
        <ele>83</ele>
        <time>2020-06-30T20:38:12Z</time>
      </trkpt>
      <trkpt lat="49.05778" lon="3.88906">
        <ele>83</ele>
        <time>2020-06-30T20:38:13Z</time>
      </trkpt>
      <trkpt lat="49.05779" lon="3.88897">
        <ele>83</ele>
        <time>2020-06-30T20:38:14Z</time>
      </trkpt>
      <trkpt lat="49.05781" lon="3.88888">
        <ele>83</ele>
        <time>2020-06-30T20:38:15Z</time>
      </trkpt>
      <trkpt lat="49.05782" lon="3.88879">
        <ele>83</ele>
        <time>2020-06-30T20:38:16Z</time>
      </trkpt>
      <trkpt lat="49.05785" lon="3.8887">
        <ele>83.1</ele>
        <time>2020-06-30T20:38:17Z</time>
      </trkpt>
      <trkpt lat="49.05787" lon="3.88862">
        <ele>83.1</ele>
        <time>2020-06-30T20:38:18Z</time>
      </trkpt>
      <trkpt lat="49.05788" lon="3.88854">
        <ele>83.3</ele>
        <time>2020-06-30T20:38:19Z</time>
      </trkpt>
      <trkpt lat="49.0579" lon="3.88845">
        <ele>83.4</ele>
        <time>2020-06-30T20:38:20Z</time>
      </trkpt>
      <trkpt lat="49.05793" lon="3.88836">
        <ele>83.6</ele>
        <time>2020-06-30T20:38:21Z</time>
      </trkpt>
      <trkpt lat="49.05794" lon="3.88827">
        <ele>83.8</ele>
        <time>2020-06-30T20:38:22Z</time>
      </trkpt>
      <trkpt lat="49.05796" lon="3.8882">
        <ele>84</ele>
        <time>2020-06-30T20:38:23Z</time>
      </trkpt>
      <trkpt lat="49.05797" lon="3.88812">
        <ele>84.2</ele>
        <time>2020-06-30T20:38:24Z</time>
      </trkpt>
      <trkpt lat="49.05799" lon="3.88803">
        <ele>84.4</ele>
        <time>2020-06-30T20:38:25Z</time>
      </trkpt>
      <trkpt lat="49.05801" lon="3.88792">
        <ele>84.5</ele>
        <time>2020-06-30T20:38:26Z</time>
      </trkpt>
      <trkpt lat="49.05802" lon="3.88782">
        <ele>84.7</ele>
        <time>2020-06-30T20:38:27Z</time>
      </trkpt>
      <trkpt lat="49.05804" lon="3.88774">
        <ele>84.7</ele>
        <time>2020-06-30T20:38:28Z</time>
      </trkpt>
      <trkpt lat="49.05806" lon="3.88765">
        <ele>84.8</ele>
        <time>2020-06-30T20:38:29Z</time>
      </trkpt>
      <trkpt lat="49.05807" lon="3.88758">
        <ele>84.9</ele>
        <time>2020-06-30T20:38:30Z</time>
      </trkpt>
      <trkpt lat="49.0581" lon="3.88751">
        <ele>84.9</ele>
        <time>2020-06-30T20:38:31Z</time>
      </trkpt>
      <trkpt lat="49.05812" lon="3.88743">
        <ele>84.9</ele>
        <time>2020-06-30T20:38:32Z</time>
      </trkpt>
      <trkpt lat="49.05814" lon="3.88735">
        <ele>84.9</ele>
        <time>2020-06-30T20:38:33Z</time>
      </trkpt>
      <trkpt lat="49.05817" lon="3.88727">
        <ele>85</ele>
        <time>2020-06-30T20:38:34Z</time>
      </trkpt>
      <trkpt lat="49.05819" lon="3.88719">
        <ele>85</ele>
        <time>2020-06-30T20:38:35Z</time>
      </trkpt>
      <trkpt lat="49.0582" lon="3.88712">
        <ele>85</ele>
        <time>2020-06-30T20:38:36Z</time>
      </trkpt>
      <trkpt lat="49.05823" lon="3.88704">
        <ele>85</ele>
        <time>2020-06-30T20:38:37Z</time>
      </trkpt>
      <trkpt lat="49.05826" lon="3.88702">
        <ele>85</ele>
        <time>2020-06-30T20:38:38Z</time>
      </trkpt>
      <trkpt lat="49.05829" lon="3.88699">
        <ele>85</ele>
        <time>2020-06-30T20:38:39Z</time>
      </trkpt>
      <trkpt lat="49.05833" lon="3.88694">
        <ele>85.1</ele>
        <time>2020-06-30T20:38:40Z</time>
      </trkpt>
      <trkpt lat="49.05836" lon="3.8869">
        <ele>85</ele>
        <time>2020-06-30T20:38:41Z</time>
      </trkpt>
      <trkpt lat="49.05838" lon="3.88685">
        <ele>85</ele>
        <time>2020-06-30T20:38:42Z</time>
      </trkpt>
      <trkpt lat="49.05841" lon="3.8868">
        <ele>84.9</ele>
        <time>2020-06-30T20:38:43Z</time>
      </trkpt>
      <trkpt lat="49.05844" lon="3.88676">
        <ele>84.8</ele>
        <time>2020-06-30T20:38:44Z</time>
      </trkpt>
      <trkpt lat="49.05848" lon="3.88672">
        <ele>84.7</ele>
        <time>2020-06-30T20:38:45Z</time>
      </trkpt>
      <trkpt lat="49.05851" lon="3.88669">
        <ele>84.6</ele>
        <time>2020-06-30T20:38:46Z</time>
      </trkpt>
      <trkpt lat="49.05854" lon="3.88665">
        <ele>84.4</ele>
        <time>2020-06-30T20:38:47Z</time>
      </trkpt>
      <trkpt lat="49.05858" lon="3.88661">
        <ele>84.2</ele>
        <time>2020-06-30T20:38:48Z</time>
      </trkpt>
      <trkpt lat="49.05861" lon="3.88656">
        <ele>83.9</ele>
        <time>2020-06-30T20:38:49Z</time>
      </trkpt>
      <trkpt lat="49.05864" lon="3.88649">
        <ele>83.5</ele>
        <time>2020-06-30T20:38:50Z</time>
      </trkpt>
      <trkpt lat="49.05869" lon="3.88641">
        <ele>83</ele>
        <time>2020-06-30T20:38:51Z</time>
      </trkpt>
      <trkpt lat="49.05873" lon="3.88633">
        <ele>82.5</ele>
        <time>2020-06-30T20:38:52Z</time>
      </trkpt>
      <trkpt lat="49.05877" lon="3.88625">
        <ele>81.9</ele>
        <time>2020-06-30T20:38:53Z</time>
      </trkpt>
      <trkpt lat="49.05881" lon="3.88617">
        <ele>81.4</ele>
        <time>2020-06-30T20:38:54Z</time>
      </trkpt>
      <trkpt lat="49.05885" lon="3.88608">
        <ele>80.8</ele>
        <time>2020-06-30T20:38:55Z</time>
      </trkpt>
      <trkpt lat="49.0589" lon="3.88598">
        <ele>80.1</ele>
        <time>2020-06-30T20:38:56Z</time>
      </trkpt>
      <trkpt lat="49.05894" lon="3.88588">
        <ele>79.4</ele>
        <time>2020-06-30T20:38:57Z</time>
      </trkpt>
      <trkpt lat="49.05898" lon="3.88577">
        <ele>78.7</ele>
        <time>2020-06-30T20:38:58Z</time>
      </trkpt>
      <trkpt lat="49.05903" lon="3.88565">
        <ele>77.8</ele>
        <time>2020-06-30T20:38:59Z</time>
      </trkpt>
      <trkpt lat="49.05906" lon="3.88552">
        <ele>77.1</ele>
        <time>2020-06-30T20:39:00Z</time>
      </trkpt>
      <trkpt lat="49.05911" lon="3.88539">
        <ele>76.4</ele>
        <time>2020-06-30T20:39:01Z</time>
      </trkpt>
      <trkpt lat="49.05916" lon="3.88529">
        <ele>75.9</ele>
        <time>2020-06-30T20:39:02Z</time>
      </trkpt>
      <trkpt lat="49.05921" lon="3.88518">
        <ele>75.3</ele>
        <time>2020-06-30T20:39:03Z</time>
      </trkpt>
      <trkpt lat="49.05925" lon="3.88505">
        <ele>75</ele>
        <time>2020-06-30T20:39:04Z</time>
      </trkpt>
      <trkpt lat="49.0593" lon="3.88493">
        <ele>74.6</ele>
        <time>2020-06-30T20:39:05Z</time>
      </trkpt>
      <trkpt lat="49.05934" lon="3.88483">
        <ele>74.3</ele>
        <time>2020-06-30T20:39:06Z</time>
      </trkpt>
      <trkpt lat="49.05938" lon="3.88473">
        <ele>74</ele>
        <time>2020-06-30T20:39:07Z</time>
      </trkpt>
      <trkpt lat="49.05941" lon="3.8846">
        <ele>73.8</ele>
        <time>2020-06-30T20:39:08Z</time>
      </trkpt>
      <trkpt lat="49.05945" lon="3.88449">
        <ele>73.6</ele>
        <time>2020-06-30T20:39:09Z</time>
      </trkpt>
      <trkpt lat="49.05948" lon="3.88437">
        <ele>73.5</ele>
        <time>2020-06-30T20:39:10Z</time>
      </trkpt>
      <trkpt lat="49.05951" lon="3.88425">
        <ele>73.3</ele>
        <time>2020-06-30T20:39:11Z</time>
      </trkpt>
      <trkpt lat="49.05954" lon="3.88412">
        <ele>73.1</ele>
        <time>2020-06-30T20:39:12Z</time>
      </trkpt>
      <trkpt lat="49.05958" lon="3.88401">
        <ele>72.8</ele>
        <time>2020-06-30T20:39:13Z</time>
      </trkpt>
      <trkpt lat="49.0596" lon="3.88387">
        <ele>72.4</ele>
        <time>2020-06-30T20:39:14Z</time>
      </trkpt>
      <trkpt lat="49.05963" lon="3.88374">
        <ele>72</ele>
        <time>2020-06-30T20:39:15Z</time>
      </trkpt>
      <trkpt lat="49.05965" lon="3.8836">
        <ele>71.5</ele>
        <time>2020-06-30T20:39:16Z</time>
      </trkpt>
      <trkpt lat="49.05968" lon="3.88346">
        <ele>71.1</ele>
        <time>2020-06-30T20:39:17Z</time>
      </trkpt>
      <trkpt lat="49.0597" lon="3.88332">
        <ele>70.7</ele>
        <time>2020-06-30T20:39:18Z</time>
      </trkpt>
      <trkpt lat="49.05973" lon="3.88318">
        <ele>70.2</ele>
        <time>2020-06-30T20:39:19Z</time>
      </trkpt>
      <trkpt lat="49.05975" lon="3.88304">
        <ele>69.8</ele>
        <time>2020-06-30T20:39:20Z</time>
      </trkpt>
      <trkpt lat="49.05978" lon="3.88292">
        <ele>69.5</ele>
        <time>2020-06-30T20:39:21Z</time>
      </trkpt>
      <trkpt lat="49.05981" lon="3.8828">
        <ele>69.3</ele>
        <time>2020-06-30T20:39:22Z</time>
      </trkpt>
      <trkpt lat="49.05984" lon="3.88268">
        <ele>69.1</ele>
        <time>2020-06-30T20:39:23Z</time>
      </trkpt>
      <trkpt lat="49.05987" lon="3.88255">
        <ele>68.9</ele>
        <time>2020-06-30T20:39:24Z</time>
      </trkpt>
      <trkpt lat="49.0599" lon="3.88243">
        <ele>68.8</ele>
        <time>2020-06-30T20:39:25Z</time>
      </trkpt>
      <trkpt lat="49.05992" lon="3.88232">
        <ele>68.7</ele>
        <time>2020-06-30T20:39:26Z</time>
      </trkpt>
      <trkpt lat="49.05994" lon="3.88222">
        <ele>68.7</ele>
        <time>2020-06-30T20:39:27Z</time>
      </trkpt>
      <trkpt lat="49.05997" lon="3.88212">
        <ele>68.6</ele>
        <time>2020-06-30T20:39:28Z</time>
      </trkpt>
      <trkpt lat="49.05999" lon="3.882">
        <ele>68.6</ele>
        <time>2020-06-30T20:39:29Z</time>
      </trkpt>
      <trkpt lat="49.06001" lon="3.88187">
        <ele>68.5</ele>
        <time>2020-06-30T20:39:30Z</time>
      </trkpt>
      <trkpt lat="49.06003" lon="3.88176">
        <ele>68.5</ele>
        <time>2020-06-30T20:39:31Z</time>
      </trkpt>
      <trkpt lat="49.06006" lon="3.88164">
        <ele>68.5</ele>
        <time>2020-06-30T20:39:32Z</time>
      </trkpt>
      <trkpt lat="49.06009" lon="3.88152">
        <ele>68.5</ele>
        <time>2020-06-30T20:39:33Z</time>
      </trkpt>
      <trkpt lat="49.06012" lon="3.8814">
        <ele>68.5</ele>
        <time>2020-06-30T20:39:34Z</time>
      </trkpt>
      <trkpt lat="49.06014" lon="3.88127">
        <ele>68.6</ele>
        <time>2020-06-30T20:39:35Z</time>
      </trkpt>
      <trkpt lat="49.06017" lon="3.88119">
        <ele>68.6</ele>
        <time>2020-06-30T20:39:36Z</time>
      </trkpt>
      <trkpt lat="49.06018" lon="3.8811">
        <ele>68.6</ele>
        <time>2020-06-30T20:39:37Z</time>
      </trkpt>
      <trkpt lat="49.06021" lon="3.88098">
        <ele>68.7</ele>
        <time>2020-06-30T20:39:38Z</time>
      </trkpt>
      <trkpt lat="49.06022" lon="3.88087">
        <ele>68.8</ele>
        <time>2020-06-30T20:39:39Z</time>
      </trkpt>
      <trkpt lat="49.06024" lon="3.88076">
        <ele>68.9</ele>
        <time>2020-06-30T20:39:40Z</time>
      </trkpt>
      <trkpt lat="49.06025" lon="3.88067">
        <ele>69.1</ele>
        <time>2020-06-30T20:39:41Z</time>
      </trkpt>
      <trkpt lat="49.06027" lon="3.88058">
        <ele>69.3</ele>
        <time>2020-06-30T20:39:42Z</time>
      </trkpt>
      <trkpt lat="49.06029" lon="3.8805">
        <ele>69.5</ele>
        <time>2020-06-30T20:39:43Z</time>
      </trkpt>
      <trkpt lat="49.0603" lon="3.8804">
        <ele>69.8</ele>
        <time>2020-06-30T20:39:44Z</time>
      </trkpt>
      <trkpt lat="49.06032" lon="3.88033">
        <ele>70.1</ele>
        <time>2020-06-30T20:39:45Z</time>
      </trkpt>
      <trkpt lat="49.06034" lon="3.88023">
        <ele>70.4</ele>
        <time>2020-06-30T20:39:46Z</time>
      </trkpt>
      <trkpt lat="49.06035" lon="3.88015">
        <ele>70.7</ele>
        <time>2020-06-30T20:39:47Z</time>
      </trkpt>
      <trkpt lat="49.06036" lon="3.88007">
        <ele>71</ele>
        <time>2020-06-30T20:39:48Z</time>
      </trkpt>
      <trkpt lat="49.06038" lon="3.88">
        <ele>71.2</ele>
        <time>2020-06-30T20:39:49Z</time>
      </trkpt>
      <trkpt lat="49.0604" lon="3.87994">
        <ele>71.4</ele>
        <time>2020-06-30T20:39:50Z</time>
      </trkpt>
      <trkpt lat="49.06042" lon="3.87988">
        <ele>71.6</ele>
        <time>2020-06-30T20:39:51Z</time>
      </trkpt>
      <trkpt lat="49.06043" lon="3.87981">
        <ele>71.8</ele>
        <time>2020-06-30T20:39:52Z</time>
      </trkpt>
      <trkpt lat="49.06045" lon="3.87975">
        <ele>71.8</ele>
        <time>2020-06-30T20:39:53Z</time>
      </trkpt>
      <trkpt lat="49.06046" lon="3.87969">
        <ele>71.8</ele>
        <time>2020-06-30T20:39:54Z</time>
      </trkpt>
      <trkpt lat="49.06049" lon="3.87963">
        <ele>71.8</ele>
        <time>2020-06-30T20:39:55Z</time>
      </trkpt>
      <trkpt lat="49.06052" lon="3.87956">
        <ele>71.6</ele>
        <time>2020-06-30T20:39:56Z</time>
      </trkpt>
      <trkpt lat="49.06055" lon="3.87949">
        <ele>71.5</ele>
        <time>2020-06-30T20:39:57Z</time>
      </trkpt>
      <trkpt lat="49.06059" lon="3.87942">
        <ele>71.2</ele>
        <time>2020-06-30T20:39:58Z</time>
      </trkpt>
      <trkpt lat="49.06063" lon="3.87934">
        <ele>70.9</ele>
        <time>2020-06-30T20:39:59Z</time>
      </trkpt>
      <trkpt lat="49.06067" lon="3.87926">
        <ele>70.5</ele>
        <time>2020-06-30T20:40:00Z</time>
      </trkpt>
      <trkpt lat="49.06071" lon="3.87918">
        <ele>70.2</ele>
        <time>2020-06-30T20:40:01Z</time>
      </trkpt>
      <trkpt lat="49.06075" lon="3.8791">
        <ele>69.9</ele>
        <time>2020-06-30T20:40:02Z</time>
      </trkpt>
      <trkpt lat="49.06078" lon="3.87901">
        <ele>69.6</ele>
        <time>2020-06-30T20:40:03Z</time>
      </trkpt>
      <trkpt lat="49.06082" lon="3.87891">
        <ele>69.5</ele>
        <time>2020-06-30T20:40:04Z</time>
      </trkpt>
      <trkpt lat="49.06084" lon="3.87882">
        <ele>69.4</ele>
        <time>2020-06-30T20:40:05Z</time>
      </trkpt>
      <trkpt lat="49.06088" lon="3.87871">
        <ele>69.1</ele>
        <time>2020-06-30T20:40:06Z</time>
      </trkpt>
      <trkpt lat="49.06091" lon="3.87861">
        <ele>68.9</ele>
        <time>2020-06-30T20:40:07Z</time>
      </trkpt>
      <trkpt lat="49.06094" lon="3.87851">
        <ele>68.8</ele>
        <time>2020-06-30T20:40:08Z</time>
      </trkpt>
      <trkpt lat="49.06097" lon="3.8784">
        <ele>68.6</ele>
        <time>2020-06-30T20:40:09Z</time>
      </trkpt>
      <trkpt lat="49.061" lon="3.8783">
        <ele>68.5</ele>
        <time>2020-06-30T20:40:10Z</time>
      </trkpt>
      <trkpt lat="49.06104" lon="3.87821">
        <ele>68.4</ele>
        <time>2020-06-30T20:40:11Z</time>
      </trkpt>
      <trkpt lat="49.06106" lon="3.87811">
        <ele>68.3</ele>
        <time>2020-06-30T20:40:12Z</time>
      </trkpt>
      <trkpt lat="49.06107" lon="3.87801">
        <ele>68.3</ele>
        <time>2020-06-30T20:40:13Z</time>
      </trkpt>
      <trkpt lat="49.0611" lon="3.87789">
        <ele>68.2</ele>
        <time>2020-06-30T20:40:14Z</time>
      </trkpt>
      <trkpt lat="49.06112" lon="3.87778">
        <ele>68.1</ele>
        <time>2020-06-30T20:40:15Z</time>
      </trkpt>
      <trkpt lat="49.06114" lon="3.87767">
        <ele>68</ele>
        <time>2020-06-30T20:40:16Z</time>
      </trkpt>
      <trkpt lat="49.06116" lon="3.87755">
        <ele>67.9</ele>
        <time>2020-06-30T20:40:17Z</time>
      </trkpt>
      <trkpt lat="49.06119" lon="3.87742">
        <ele>67.8</ele>
        <time>2020-06-30T20:40:18Z</time>
      </trkpt>
      <trkpt lat="49.06121" lon="3.87731">
        <ele>67.7</ele>
        <time>2020-06-30T20:40:19Z</time>
      </trkpt>
      <trkpt lat="49.06123" lon="3.8772">
        <ele>67.7</ele>
        <time>2020-06-30T20:40:20Z</time>
      </trkpt>
      <trkpt lat="49.06126" lon="3.87708">
        <ele>67.7</ele>
        <time>2020-06-30T20:40:21Z</time>
      </trkpt>
      <trkpt lat="49.06128" lon="3.87698">
        <ele>67.7</ele>
        <time>2020-06-30T20:40:22Z</time>
      </trkpt>
      <trkpt lat="49.06131" lon="3.87685">
        <ele>67.7</ele>
        <time>2020-06-30T20:40:23Z</time>
      </trkpt>
      <trkpt lat="49.06133" lon="3.87671">
        <ele>67.7</ele>
        <time>2020-06-30T20:40:24Z</time>
      </trkpt>
      <trkpt lat="49.06135" lon="3.8766">
        <ele>67.8</ele>
        <time>2020-06-30T20:40:25Z</time>
      </trkpt>
      <trkpt lat="49.06137" lon="3.87649">
        <ele>67.8</ele>
        <time>2020-06-30T20:40:26Z</time>
      </trkpt>
      <trkpt lat="49.06138" lon="3.87637">
        <ele>67.9</ele>
        <time>2020-06-30T20:40:27Z</time>
      </trkpt>
      <trkpt lat="49.0614" lon="3.87627">
        <ele>67.9</ele>
        <time>2020-06-30T20:40:28Z</time>
      </trkpt>
      <trkpt lat="49.06141" lon="3.87615">
        <ele>68</ele>
        <time>2020-06-30T20:40:29Z</time>
      </trkpt>
      <trkpt lat="49.06143" lon="3.87606">
        <ele>68.1</ele>
        <time>2020-06-30T20:40:30Z</time>
      </trkpt>
      <trkpt lat="49.06145" lon="3.87595">
        <ele>68.1</ele>
        <time>2020-06-30T20:40:31Z</time>
      </trkpt>
      <trkpt lat="49.06146" lon="3.87582">
        <ele>68.2</ele>
        <time>2020-06-30T20:40:32Z</time>
      </trkpt>
      <trkpt lat="49.06147" lon="3.87569">
        <ele>68.2</ele>
        <time>2020-06-30T20:40:33Z</time>
      </trkpt>
      <trkpt lat="49.06148" lon="3.87558">
        <ele>68.3</ele>
        <time>2020-06-30T20:40:34Z</time>
      </trkpt>
      <trkpt lat="49.0615" lon="3.87547">
        <ele>68.3</ele>
        <time>2020-06-30T20:40:35Z</time>
      </trkpt>
      <trkpt lat="49.06153" lon="3.87537">
        <ele>68.4</ele>
        <time>2020-06-30T20:40:36Z</time>
      </trkpt>
      <trkpt lat="49.06155" lon="3.87527">
        <ele>68.5</ele>
        <time>2020-06-30T20:40:37Z</time>
      </trkpt>
      <trkpt lat="49.06157" lon="3.87517">
        <ele>68.6</ele>
        <time>2020-06-30T20:40:38Z</time>
      </trkpt>
      <trkpt lat="49.06159" lon="3.87505">
        <ele>68.8</ele>
        <time>2020-06-30T20:40:39Z</time>
      </trkpt>
      <trkpt lat="49.0616" lon="3.87494">
        <ele>68.9</ele>
        <time>2020-06-30T20:40:40Z</time>
      </trkpt>
      <trkpt lat="49.06162" lon="3.87482">
        <ele>69.1</ele>
        <time>2020-06-30T20:40:41Z</time>
      </trkpt>
      <trkpt lat="49.06164" lon="3.87472">
        <ele>69.2</ele>
        <time>2020-06-30T20:40:42Z</time>
      </trkpt>
      <trkpt lat="49.06165" lon="3.87462">
        <ele>69.4</ele>
        <time>2020-06-30T20:40:43Z</time>
      </trkpt>
      <trkpt lat="49.06165" lon="3.87453">
        <ele>69.6</ele>
        <time>2020-06-30T20:40:44Z</time>
      </trkpt>
      <trkpt lat="49.06166" lon="3.87445">
        <ele>69.7</ele>
        <time>2020-06-30T20:40:45Z</time>
      </trkpt>
      <trkpt lat="49.06167" lon="3.87436">
        <ele>69.9</ele>
        <time>2020-06-30T20:40:46Z</time>
      </trkpt>
      <trkpt lat="49.06168" lon="3.87429">
        <ele>69.9</ele>
        <time>2020-06-30T20:40:47Z</time>
      </trkpt>
      <trkpt lat="49.0617" lon="3.87425">
        <ele>69.9</ele>
        <time>2020-06-30T20:40:48Z</time>
      </trkpt>
      <trkpt lat="49.06172" lon="3.8742">
        <ele>69.9</ele>
        <time>2020-06-30T20:40:49Z</time>
      </trkpt>
      <trkpt lat="49.06175" lon="3.87419">
        <ele>69.9</ele>
        <time>2020-06-30T20:40:50Z</time>
      </trkpt>
      <trkpt lat="49.06179" lon="3.87423">
        <ele>69.8</ele>
        <time>2020-06-30T20:40:51Z</time>
      </trkpt>
      <trkpt lat="49.06183" lon="3.87426">
        <ele>69.8</ele>
        <time>2020-06-30T20:40:52Z</time>
      </trkpt>
      <trkpt lat="49.06187" lon="3.8743">
        <ele>69.8</ele>
        <time>2020-06-30T20:40:53Z</time>
      </trkpt>
      <trkpt lat="49.06191" lon="3.87432">
        <ele>69.8</ele>
        <time>2020-06-30T20:40:54Z</time>
      </trkpt>
      <trkpt lat="49.06196" lon="3.87431">
        <ele>69.8</ele>
        <time>2020-06-30T20:40:55Z</time>
      </trkpt>
      <trkpt lat="49.062" lon="3.87431">
        <ele>69.8</ele>
        <time>2020-06-30T20:40:56Z</time>
      </trkpt>
      <trkpt lat="49.06204" lon="3.87431">
        <ele>69.9</ele>
        <time>2020-06-30T20:40:57Z</time>
      </trkpt>
      <trkpt lat="49.06208" lon="3.8743">
        <ele>69.9</ele>
        <time>2020-06-30T20:40:58Z</time>
      </trkpt>
      <trkpt lat="49.06213" lon="3.87428">
        <ele>69.9</ele>
        <time>2020-06-30T20:40:59Z</time>
      </trkpt>
      <trkpt lat="49.06216" lon="3.87426">
        <ele>69.9</ele>
        <time>2020-06-30T20:41:00Z</time>
      </trkpt>
      <trkpt lat="49.0622" lon="3.87425">
        <ele>69.9</ele>
        <time>2020-06-30T20:41:01Z</time>
      </trkpt>
      <trkpt lat="49.06223" lon="3.87426">
        <ele>69.9</ele>
        <time>2020-06-30T20:41:02Z</time>
      </trkpt>
      <trkpt lat="49.06226" lon="3.87424">
        <ele>70</ele>
        <time>2020-06-30T20:41:03Z</time>
      </trkpt>
      <trkpt lat="49.06227" lon="3.87423">
        <ele>70</ele>
        <time>2020-06-30T20:41:04Z</time>
      </trkpt>
      <trkpt lat="49.06231" lon="3.87423">
        <ele>69.9</ele>
        <time>2020-06-30T20:41:05Z</time>
      </trkpt>
      <trkpt lat="49.06232" lon="3.87423">
        <ele>69.9</ele>
        <time>2020-06-30T20:41:06Z</time>
      </trkpt>
      <trkpt lat="49.06236" lon="3.87423">
        <ele>69.9</ele>
        <time>2020-06-30T20:41:07Z</time>
      </trkpt>
      <trkpt lat="49.06237" lon="3.87423">
        <ele>69.9</ele>
        <time>2020-06-30T20:41:08Z</time>
      </trkpt>
      <trkpt lat="49.0624" lon="3.87425">
        <ele>69.8</ele>
        <time>2020-06-30T20:41:09Z</time>
      </trkpt>
      <trkpt lat="49.06244" lon="3.87426">
        <ele>69.8</ele>
        <time>2020-06-30T20:41:10Z</time>
      </trkpt>
      <trkpt lat="49.06245" lon="3.87426">
        <ele>69.8</ele>
        <time>2020-06-30T20:41:11Z</time>
      </trkpt>
      <trkpt lat="49.0625" lon="3.87429">
        <ele>69.7</ele>
        <time>2020-06-30T20:41:12Z</time>
      </trkpt>
      <trkpt lat="49.06253" lon="3.87431">
        <ele>69.7</ele>
        <time>2020-06-30T20:41:13Z</time>
      </trkpt>
      <trkpt lat="49.06257" lon="3.87433">
        <ele>69.7</ele>
        <time>2020-06-30T20:41:14Z</time>
      </trkpt>
      <trkpt lat="49.06261" lon="3.87436">
        <ele>69.7</ele>
        <time>2020-06-30T20:41:15Z</time>
      </trkpt>
      <trkpt lat="49.06265" lon="3.87438">
        <ele>69.6</ele>
        <time>2020-06-30T20:41:16Z</time>
      </trkpt>
      <trkpt lat="49.06269" lon="3.8744">
        <ele>69.6</ele>
        <time>2020-06-30T20:41:17Z</time>
      </trkpt>
      <trkpt lat="49.06272" lon="3.87443">
        <ele>69.6</ele>
        <time>2020-06-30T20:41:18Z</time>
      </trkpt>
      <trkpt lat="49.06276" lon="3.87445">
        <ele>69.6</ele>
        <time>2020-06-30T20:41:19Z</time>
      </trkpt>
      <trkpt lat="49.0628" lon="3.87447">
        <ele>69.6</ele>
        <time>2020-06-30T20:41:20Z</time>
      </trkpt>
      <trkpt lat="49.06285" lon="3.87449">
        <ele>69.6</ele>
        <time>2020-06-30T20:41:21Z</time>
      </trkpt>
      <trkpt lat="49.06289" lon="3.87451">
        <ele>69.6</ele>
        <time>2020-06-30T20:41:22Z</time>
      </trkpt>
      <trkpt lat="49.06293" lon="3.87453">
        <ele>69.6</ele>
        <time>2020-06-30T20:41:23Z</time>
      </trkpt>
      <trkpt lat="49.06297" lon="3.87456">
        <ele>69.6</ele>
        <time>2020-06-30T20:41:24Z</time>
      </trkpt>
      <trkpt lat="49.06301" lon="3.87458">
        <ele>69.6</ele>
        <time>2020-06-30T20:41:25Z</time>
      </trkpt>
      <trkpt lat="49.06305" lon="3.87461">
        <ele>69.6</ele>
        <time>2020-06-30T20:41:26Z</time>
      </trkpt>
      <trkpt lat="49.06308" lon="3.87463">
        <ele>69.6</ele>
        <time>2020-06-30T20:41:27Z</time>
      </trkpt>
      <trkpt lat="49.06312" lon="3.87464">
        <ele>69.5</ele>
        <time>2020-06-30T20:41:28Z</time>
      </trkpt>
      <trkpt lat="49.06315" lon="3.87466">
        <ele>69.5</ele>
        <time>2020-06-30T20:41:29Z</time>
      </trkpt>
      <trkpt lat="49.06318" lon="3.87468">
        <ele>69.5</ele>
        <time>2020-06-30T20:41:30Z</time>
      </trkpt>
      <trkpt lat="49.06321" lon="3.87469">
        <ele>69.5</ele>
        <time>2020-06-30T20:41:31Z</time>
      </trkpt>
      <trkpt lat="49.06324" lon="3.87471">
        <ele>69.5</ele>
        <time>2020-06-30T20:41:32Z</time>
      </trkpt>
      <trkpt lat="49.06326" lon="3.87472">
        <ele>69.5</ele>
        <time>2020-06-30T20:41:33Z</time>
      </trkpt>
      <trkpt lat="49.06329" lon="3.87474">
        <ele>69.5</ele>
        <time>2020-06-30T20:41:34Z</time>
      </trkpt>
      <trkpt lat="49.06332" lon="3.87476">
        <ele>69.5</ele>
        <time>2020-06-30T20:41:35Z</time>
      </trkpt>
      <trkpt lat="49.06336" lon="3.87478">
        <ele>69.5</ele>
        <time>2020-06-30T20:41:36Z</time>
      </trkpt>
      <trkpt lat="49.06338" lon="3.8748">
        <ele>69.5</ele>
        <time>2020-06-30T20:41:37Z</time>
      </trkpt>
      <trkpt lat="49.06341" lon="3.87482">
        <ele>69.5</ele>
        <time>2020-06-30T20:41:38Z</time>
      </trkpt>
      <trkpt lat="49.06345" lon="3.87484">
        <ele>69.5</ele>
        <time>2020-06-30T20:41:39Z</time>
      </trkpt>
      <trkpt lat="49.06351" lon="3.87486">
        <ele>69.5</ele>
        <time>2020-06-30T20:41:40Z</time>
      </trkpt>
      <trkpt lat="49.06358" lon="3.87489">
        <ele>69.5</ele>
        <time>2020-06-30T20:41:41Z</time>
      </trkpt>
      <trkpt lat="49.06364" lon="3.87491">
        <ele>69.5</ele>
        <time>2020-06-30T20:41:42Z</time>
      </trkpt>
      <trkpt lat="49.06368" lon="3.87492">
        <ele>69.5</ele>
        <time>2020-06-30T20:41:43Z</time>
      </trkpt>
      <trkpt lat="49.06372" lon="3.87493">
        <ele>69.5</ele>
        <time>2020-06-30T20:41:44Z</time>
      </trkpt>
      <trkpt lat="49.06379" lon="3.87494">
        <ele>69.5</ele>
        <time>2020-06-30T20:41:45Z</time>
      </trkpt>
      <trkpt lat="49.06383" lon="3.87494">
        <ele>69.5</ele>
        <time>2020-06-30T20:41:46Z</time>
      </trkpt>
      <trkpt lat="49.06388" lon="3.87496">
        <ele>69.5</ele>
        <time>2020-06-30T20:41:47Z</time>
      </trkpt>
      <trkpt lat="49.06391" lon="3.87497">
        <ele>69.5</ele>
        <time>2020-06-30T20:41:48Z</time>
      </trkpt>
      <trkpt lat="49.06396" lon="3.87497">
        <ele>69.4</ele>
        <time>2020-06-30T20:41:49Z</time>
      </trkpt>
      <trkpt lat="49.06399" lon="3.87498">
        <ele>69.4</ele>
        <time>2020-06-30T20:41:50Z</time>
      </trkpt>
      <trkpt lat="49.06402" lon="3.87499">
        <ele>69.4</ele>
        <time>2020-06-30T20:41:51Z</time>
      </trkpt>
      <trkpt lat="49.06405" lon="3.87499">
        <ele>69.4</ele>
        <time>2020-06-30T20:41:52Z</time>
      </trkpt>
      <trkpt lat="49.06408" lon="3.875">
        <ele>69.3</ele>
        <time>2020-06-30T20:41:53Z</time>
      </trkpt>
      <trkpt lat="49.06411" lon="3.87501">
        <ele>69.3</ele>
        <time>2020-06-30T20:41:54Z</time>
      </trkpt>
      <trkpt lat="49.06415" lon="3.87503">
        <ele>69.2</ele>
        <time>2020-06-30T20:41:55Z</time>
      </trkpt>
      <trkpt lat="49.0642" lon="3.87505">
        <ele>69.1</ele>
        <time>2020-06-30T20:41:56Z</time>
      </trkpt>
      <trkpt lat="49.06425" lon="3.87507">
        <ele>69</ele>
        <time>2020-06-30T20:41:57Z</time>
      </trkpt>
      <trkpt lat="49.0643" lon="3.8751">
        <ele>68.9</ele>
        <time>2020-06-30T20:41:58Z</time>
      </trkpt>
      <trkpt lat="49.06435" lon="3.87513">
        <ele>68.8</ele>
        <time>2020-06-30T20:41:59Z</time>
      </trkpt>
      <trkpt lat="49.06441" lon="3.87515">
        <ele>68.7</ele>
        <time>2020-06-30T20:42:00Z</time>
      </trkpt>
      <trkpt lat="49.06446" lon="3.87518">
        <ele>68.6</ele>
        <time>2020-06-30T20:42:01Z</time>
      </trkpt>
      <trkpt lat="49.06451" lon="3.87522">
        <ele>68.5</ele>
        <time>2020-06-30T20:42:02Z</time>
      </trkpt>
      <trkpt lat="49.06456" lon="3.87526">
        <ele>68.5</ele>
        <time>2020-06-30T20:42:03Z</time>
      </trkpt>
      <trkpt lat="49.06461" lon="3.87529">
        <ele>68.4</ele>
        <time>2020-06-30T20:42:04Z</time>
      </trkpt>
      <trkpt lat="49.06466" lon="3.87531">
        <ele>68.4</ele>
        <time>2020-06-30T20:42:05Z</time>
      </trkpt>
      <trkpt lat="49.06472" lon="3.87534">
        <ele>68.4</ele>
        <time>2020-06-30T20:42:06Z</time>
      </trkpt>
      <trkpt lat="49.06476" lon="3.87536">
        <ele>68.4</ele>
        <time>2020-06-30T20:42:07Z</time>
      </trkpt>
      <trkpt lat="49.0648" lon="3.87537">
        <ele>68.3</ele>
        <time>2020-06-30T20:42:08Z</time>
      </trkpt>
      <trkpt lat="49.06484" lon="3.87538">
        <ele>68.3</ele>
        <time>2020-06-30T20:42:09Z</time>
      </trkpt>
      <trkpt lat="49.06488" lon="3.87539">
        <ele>68.3</ele>
        <time>2020-06-30T20:42:10Z</time>
      </trkpt>
      <trkpt lat="49.06492" lon="3.87541">
        <ele>68.3</ele>
        <time>2020-06-30T20:42:11Z</time>
      </trkpt>
      <trkpt lat="49.06497" lon="3.87542">
        <ele>68.3</ele>
        <time>2020-06-30T20:42:12Z</time>
      </trkpt>
      <trkpt lat="49.06503" lon="3.87544">
        <ele>68.3</ele>
        <time>2020-06-30T20:42:13Z</time>
      </trkpt>
      <trkpt lat="49.06507" lon="3.87546">
        <ele>68.3</ele>
        <time>2020-06-30T20:42:14Z</time>
      </trkpt>
      <trkpt lat="49.06514" lon="3.87548">
        <ele>68.3</ele>
        <time>2020-06-30T20:42:15Z</time>
      </trkpt>
      <trkpt lat="49.0652" lon="3.87551">
        <ele>68.3</ele>
        <time>2020-06-30T20:42:16Z</time>
      </trkpt>
      <trkpt lat="49.06529" lon="3.87555">
        <ele>68.3</ele>
        <time>2020-06-30T20:42:17Z</time>
      </trkpt>
      <trkpt lat="49.06539" lon="3.87557">
        <ele>68.4</ele>
        <time>2020-06-30T20:42:18Z</time>
      </trkpt>
      <trkpt lat="49.06545" lon="3.8756">
        <ele>68.4</ele>
        <time>2020-06-30T20:42:19Z</time>
      </trkpt>
      <trkpt lat="49.06555" lon="3.8756">
        <ele>68.4</ele>
        <time>2020-06-30T20:42:20Z</time>
      </trkpt>
      <trkpt lat="49.06568" lon="3.8756">
        <ele>68.4</ele>
        <time>2020-06-30T20:42:21Z</time>
      </trkpt>
      <trkpt lat="49.06579" lon="3.8756">
        <ele>68.5</ele>
        <time>2020-06-30T20:42:22Z</time>
      </trkpt>
      <trkpt lat="49.06588" lon="3.87563">
        <ele>68.5</ele>
        <time>2020-06-30T20:42:23Z</time>
      </trkpt>
      <trkpt lat="49.06595" lon="3.87563">
        <ele>68.5</ele>
        <time>2020-06-30T20:42:24Z</time>
      </trkpt>
      <trkpt lat="49.06603" lon="3.87564">
        <ele>68.5</ele>
        <time>2020-06-30T20:42:25Z</time>
      </trkpt>
      <trkpt lat="49.06608" lon="3.87566">
        <ele>68.5</ele>
        <time>2020-06-30T20:42:26Z</time>
      </trkpt>
      <trkpt lat="49.06613" lon="3.87568">
        <ele>68.5</ele>
        <time>2020-06-30T20:42:27Z</time>
      </trkpt>
      <trkpt lat="49.0662" lon="3.8757">
        <ele>68.5</ele>
        <time>2020-06-30T20:42:28Z</time>
      </trkpt>
      <trkpt lat="49.06627" lon="3.87573">
        <ele>68.5</ele>
        <time>2020-06-30T20:42:29Z</time>
      </trkpt>
      <trkpt lat="49.06633" lon="3.87576">
        <ele>68.5</ele>
        <time>2020-06-30T20:42:30Z</time>
      </trkpt>
      <trkpt lat="49.06638" lon="3.87579">
        <ele>68.5</ele>
        <time>2020-06-30T20:42:31Z</time>
      </trkpt>
      <trkpt lat="49.06642" lon="3.87581">
        <ele>68.5</ele>
        <time>2020-06-30T20:42:32Z</time>
      </trkpt>
      <trkpt lat="49.06647" lon="3.87582">
        <ele>68.5</ele>
        <time>2020-06-30T20:42:33Z</time>
      </trkpt>
      <trkpt lat="49.06653" lon="3.87585">
        <ele>68.5</ele>
        <time>2020-06-30T20:42:34Z</time>
      </trkpt>
      <trkpt lat="49.06659" lon="3.87587">
        <ele>68.5</ele>
        <time>2020-06-30T20:42:35Z</time>
      </trkpt>
      <trkpt lat="49.06663" lon="3.87591">
        <ele>68.5</ele>
        <time>2020-06-30T20:42:36Z</time>
      </trkpt>
      <trkpt lat="49.06668" lon="3.87595">
        <ele>68.5</ele>
        <time>2020-06-30T20:42:37Z</time>
      </trkpt>
      <trkpt lat="49.06674" lon="3.87597">
        <ele>68.5</ele>
        <time>2020-06-30T20:42:38Z</time>
      </trkpt>
      <trkpt lat="49.06679" lon="3.876">
        <ele>68.5</ele>
        <time>2020-06-30T20:42:39Z</time>
      </trkpt>
      <trkpt lat="49.06684" lon="3.87603">
        <ele>68.5</ele>
        <time>2020-06-30T20:42:40Z</time>
      </trkpt>
      <trkpt lat="49.0669" lon="3.87604">
        <ele>68.4</ele>
        <time>2020-06-30T20:42:41Z</time>
      </trkpt>
      <trkpt lat="49.06695" lon="3.87605">
        <ele>68.4</ele>
        <time>2020-06-30T20:42:42Z</time>
      </trkpt>
      <trkpt lat="49.06699" lon="3.87607">
        <ele>68.4</ele>
        <time>2020-06-30T20:42:43Z</time>
      </trkpt>
      <trkpt lat="49.06704" lon="3.87609">
        <ele>68.5</ele>
        <time>2020-06-30T20:42:44Z</time>
      </trkpt>
      <trkpt lat="49.0671" lon="3.87611">
        <ele>68.5</ele>
        <time>2020-06-30T20:42:45Z</time>
      </trkpt>
      <trkpt lat="49.06715" lon="3.87616">
        <ele>68.5</ele>
        <time>2020-06-30T20:42:46Z</time>
      </trkpt>
      <trkpt lat="49.06721" lon="3.87619">
        <ele>68.5</ele>
        <time>2020-06-30T20:42:47Z</time>
      </trkpt>
      <trkpt lat="49.06726" lon="3.87622">
        <ele>68.5</ele>
        <time>2020-06-30T20:42:48Z</time>
      </trkpt>
      <trkpt lat="49.06731" lon="3.87625">
        <ele>68.4</ele>
        <time>2020-06-30T20:42:49Z</time>
      </trkpt>
      <trkpt lat="49.06737" lon="3.87626">
        <ele>68.4</ele>
        <time>2020-06-30T20:42:50Z</time>
      </trkpt>
      <trkpt lat="49.06743" lon="3.87628">
        <ele>68.4</ele>
        <time>2020-06-30T20:42:51Z</time>
      </trkpt>
      <trkpt lat="49.06749" lon="3.8763">
        <ele>68.3</ele>
        <time>2020-06-30T20:42:52Z</time>
      </trkpt>
      <trkpt lat="49.06755" lon="3.87634">
        <ele>68.3</ele>
        <time>2020-06-30T20:42:53Z</time>
      </trkpt>
      <trkpt lat="49.06761" lon="3.87637">
        <ele>68.3</ele>
        <time>2020-06-30T20:42:54Z</time>
      </trkpt>
      <trkpt lat="49.06766" lon="3.87639">
        <ele>68.3</ele>
        <time>2020-06-30T20:42:55Z</time>
      </trkpt>
      <trkpt lat="49.0677" lon="3.87639">
        <ele>68.3</ele>
        <time>2020-06-30T20:42:56Z</time>
      </trkpt>
      <trkpt lat="49.06775" lon="3.8764">
        <ele>68.3</ele>
        <time>2020-06-30T20:42:57Z</time>
      </trkpt>
      <trkpt lat="49.06781" lon="3.8764">
        <ele>68.4</ele>
        <time>2020-06-30T20:42:58Z</time>
      </trkpt>
      <trkpt lat="49.06786" lon="3.87642">
        <ele>68.4</ele>
        <time>2020-06-30T20:42:59Z</time>
      </trkpt>
      <trkpt lat="49.0679" lon="3.87643">
        <ele>68.5</ele>
        <time>2020-06-30T20:43:00Z</time>
      </trkpt>
      <trkpt lat="49.06793" lon="3.87646">
        <ele>68.5</ele>
        <time>2020-06-30T20:43:01Z</time>
      </trkpt>
      <trkpt lat="49.06797" lon="3.87647">
        <ele>68.5</ele>
        <time>2020-06-30T20:43:02Z</time>
      </trkpt>
      <trkpt lat="49.06801" lon="3.87649">
        <ele>68.6</ele>
        <time>2020-06-30T20:43:03Z</time>
      </trkpt>
      <trkpt lat="49.06804" lon="3.87651">
        <ele>68.6</ele>
        <time>2020-06-30T20:43:04Z</time>
      </trkpt>
      <trkpt lat="49.06808" lon="3.87652">
        <ele>68.6</ele>
        <time>2020-06-30T20:43:05Z</time>
      </trkpt>
      <trkpt lat="49.06812" lon="3.87654">
        <ele>68.6</ele>
        <time>2020-06-30T20:43:06Z</time>
      </trkpt>
      <trkpt lat="49.06817" lon="3.87657">
        <ele>68.6</ele>
        <time>2020-06-30T20:43:07Z</time>
      </trkpt>
      <trkpt lat="49.0682" lon="3.87659">
        <ele>68.6</ele>
        <time>2020-06-30T20:43:08Z</time>
      </trkpt>
      <trkpt lat="49.06824" lon="3.87663">
        <ele>68.6</ele>
        <time>2020-06-30T20:43:09Z</time>
      </trkpt>
      <trkpt lat="49.06828" lon="3.87667">
        <ele>68.7</ele>
        <time>2020-06-30T20:43:10Z</time>
      </trkpt>
      <trkpt lat="49.06831" lon="3.87668">
        <ele>68.7</ele>
        <time>2020-06-30T20:43:11Z</time>
      </trkpt>
      <trkpt lat="49.06834" lon="3.8767">
        <ele>68.7</ele>
        <time>2020-06-30T20:43:12Z</time>
      </trkpt>
      <trkpt lat="49.06837" lon="3.87671">
        <ele>68.7</ele>
        <time>2020-06-30T20:43:13Z</time>
      </trkpt>
      <trkpt lat="49.06839" lon="3.87676">
        <ele>68.7</ele>
        <time>2020-06-30T20:43:14Z</time>
      </trkpt>
      <trkpt lat="49.06843" lon="3.87677">
        <ele>68.7</ele>
        <time>2020-06-30T20:43:15Z</time>
      </trkpt>
      <trkpt lat="49.06847" lon="3.87678">
        <ele>68.8</ele>
        <time>2020-06-30T20:43:16Z</time>
      </trkpt>
      <trkpt lat="49.06852" lon="3.87679">
        <ele>68.8</ele>
        <time>2020-06-30T20:43:17Z</time>
      </trkpt>
      <trkpt lat="49.06856" lon="3.87681">
        <ele>68.9</ele>
        <time>2020-06-30T20:43:18Z</time>
      </trkpt>
      <trkpt lat="49.06863" lon="3.87686">
        <ele>69</ele>
        <time>2020-06-30T20:43:19Z</time>
      </trkpt>
      <trkpt lat="49.0687" lon="3.8769">
        <ele>69.1</ele>
        <time>2020-06-30T20:43:20Z</time>
      </trkpt>
      <trkpt lat="49.06878" lon="3.87694">
        <ele>69.3</ele>
        <time>2020-06-30T20:43:21Z</time>
      </trkpt>
      <trkpt lat="49.06884" lon="3.87696">
        <ele>69.5</ele>
        <time>2020-06-30T20:43:22Z</time>
      </trkpt>
      <trkpt lat="49.0689" lon="3.87699">
        <ele>69.7</ele>
        <time>2020-06-30T20:43:23Z</time>
      </trkpt>
      <trkpt lat="49.06895" lon="3.87701">
        <ele>69.8</ele>
        <time>2020-06-30T20:43:24Z</time>
      </trkpt>
      <trkpt lat="49.06899" lon="3.87703">
        <ele>69.9</ele>
        <time>2020-06-30T20:43:25Z</time>
      </trkpt>
      <trkpt lat="49.06903" lon="3.87706">
        <ele>70</ele>
        <time>2020-06-30T20:43:26Z</time>
      </trkpt>
      <trkpt lat="49.06906" lon="3.87707">
        <ele>70.1</ele>
        <time>2020-06-30T20:43:27Z</time>
      </trkpt>
      <trkpt lat="49.0691" lon="3.87709">
        <ele>70.2</ele>
        <time>2020-06-30T20:43:28Z</time>
      </trkpt>
      <trkpt lat="49.06913" lon="3.8771">
        <ele>70.2</ele>
        <time>2020-06-30T20:43:29Z</time>
      </trkpt>
      <trkpt lat="49.06916" lon="3.87712">
        <ele>70.3</ele>
        <time>2020-06-30T20:43:30Z</time>
      </trkpt>
      <trkpt lat="49.06919" lon="3.87713">
        <ele>70.4</ele>
        <time>2020-06-30T20:43:31Z</time>
      </trkpt>
      <trkpt lat="49.0692" lon="3.87714">
        <ele>70.4</ele>
        <time>2020-06-30T20:43:32Z</time>
      </trkpt>
      <trkpt lat="49.06923" lon="3.87715">
        <ele>70.5</ele>
        <time>2020-06-30T20:43:33Z</time>
      </trkpt>
      <trkpt lat="49.06927" lon="3.87716">
        <ele>70.6</ele>
        <time>2020-06-30T20:43:34Z</time>
      </trkpt>
      <trkpt lat="49.06928" lon="3.87717">
        <ele>70.6</ele>
        <time>2020-06-30T20:43:35Z</time>
      </trkpt>
      <trkpt lat="49.06931" lon="3.87717">
        <ele>70.7</ele>
        <time>2020-06-30T20:43:36Z</time>
      </trkpt>
      <trkpt lat="49.06932" lon="3.87717">
        <ele>70.7</ele>
        <time>2020-06-30T20:43:37Z</time>
      </trkpt>
      <trkpt lat="49.06932" lon="3.87715">
        <ele>70.7</ele>
        <time>2020-06-30T20:43:38Z</time>
      </trkpt>
      <trkpt lat="49.06934" lon="3.87715">
        <ele>70.7</ele>
        <time>2020-06-30T20:43:39Z</time>
      </trkpt>
      <trkpt lat="49.06935" lon="3.87717">
        <ele>70.8</ele>
        <time>2020-06-30T20:43:40Z</time>
      </trkpt>
      <trkpt lat="49.06938" lon="3.87719">
        <ele>70.8</ele>
        <time>2020-06-30T20:43:41Z</time>
      </trkpt>
      <trkpt lat="49.0694" lon="3.8772">
        <ele>70.9</ele>
        <time>2020-06-30T20:43:42Z</time>
      </trkpt>
      <trkpt lat="49.06941" lon="3.8772">
        <ele>70.9</ele>
        <time>2020-06-30T20:43:43Z</time>
      </trkpt>
      <trkpt lat="49.06943" lon="3.87721">
        <ele>70.9</ele>
        <time>2020-06-30T20:43:44Z</time>
      </trkpt>
      <trkpt lat="49.06944" lon="3.87721">
        <ele>71</ele>
        <time>2020-06-30T20:43:45Z</time>
      </trkpt>
      <trkpt lat="49.06945" lon="3.87722">
        <ele>71</ele>
        <time>2020-06-30T20:43:46Z</time>
      </trkpt>
      <trkpt lat="49.06948" lon="3.87723">
        <ele>71</ele>
        <time>2020-06-30T20:43:47Z</time>
      </trkpt>
      <trkpt lat="49.06949" lon="3.87724">
        <ele>71.1</ele>
        <time>2020-06-30T20:43:48Z</time>
      </trkpt>
      <trkpt lat="49.06952" lon="3.87725">
        <ele>71.1</ele>
        <time>2020-06-30T20:43:49Z</time>
      </trkpt>
      <trkpt lat="49.06952" lon="3.87724">
        <ele>71.1</ele>
        <time>2020-06-30T20:43:50Z</time>
      </trkpt>
      <trkpt lat="49.06953" lon="3.87723">
        <ele>71.1</ele>
        <time>2020-06-30T20:43:51Z</time>
      </trkpt>
      <trkpt lat="49.06953" lon="3.87723">
        <ele>71.1</ele>
        <time>2020-06-30T20:43:52Z</time>
      </trkpt>
      <trkpt lat="49.06953" lon="3.87722">
        <ele>71.1</ele>
        <time>2020-06-30T20:43:53Z</time>
      </trkpt>
      <trkpt lat="49.06953" lon="3.87721">
        <ele>71.2</ele>
        <time>2020-06-30T20:43:54Z</time>
      </trkpt>
      <trkpt lat="49.06954" lon="3.87721">
        <ele>71.2</ele>
        <time>2020-06-30T20:43:55Z</time>
      </trkpt>
      <trkpt lat="49.06954" lon="3.8772">
        <ele>71.2</ele>
        <time>2020-06-30T20:43:56Z</time>
      </trkpt>
      <trkpt lat="49.06954" lon="3.87719">
        <ele>71.2</ele>
        <time>2020-06-30T20:43:57Z</time>
      </trkpt>
      <trkpt lat="49.06954" lon="3.8772">
        <ele>71.2</ele>
        <time>2020-06-30T20:43:58Z</time>
      </trkpt>
      <trkpt lat="49.06953" lon="3.87721">
        <ele>71.2</ele>
        <time>2020-06-30T20:43:59Z</time>
      </trkpt>
      <trkpt lat="49.06953" lon="3.87721">
        <ele>71.2</ele>
        <time>2020-06-30T20:44:00Z</time>
      </trkpt>
      <trkpt lat="49.06953" lon="3.87721">
        <ele>71.2</ele>
        <time>2020-06-30T20:44:01Z</time>
      </trkpt>
      <trkpt lat="49.06953" lon="3.87721">
        <ele>71.2</ele>
        <time>2020-06-30T20:44:02Z</time>
      </trkpt>
      <trkpt lat="49.06953" lon="3.87721">
        <ele>71.2</ele>
        <time>2020-06-30T20:44:03Z</time>
      </trkpt>
      <trkpt lat="49.06953" lon="3.87721">
        <ele>71.2</ele>
        <time>2020-06-30T20:44:04Z</time>
      </trkpt>
      <trkpt lat="49.06953" lon="3.87721">
        <ele>71.2</ele>
        <time>2020-06-30T20:44:05Z</time>
      </trkpt>
      <trkpt lat="49.06953" lon="3.87721">
        <ele>71.2</ele>
        <time>2020-06-30T20:44:06Z</time>
      </trkpt>
      <trkpt lat="49.06953" lon="3.8772">
        <ele>71.2</ele>
        <time>2020-06-30T20:44:07Z</time>
      </trkpt>
      <trkpt lat="49.06953" lon="3.8772">
        <ele>71.2</ele>
        <time>2020-06-30T20:44:08Z</time>
      </trkpt>
      <trkpt lat="49.06962" lon="3.87727">
        <ele>71.4</ele>
        <time>2020-06-30T20:44:39Z</time>
      </trkpt>
      <trkpt lat="49.06964" lon="3.87728">
        <ele>71.4</ele>
        <time>2020-06-30T20:44:40Z</time>
      </trkpt>
      <trkpt lat="49.06966" lon="3.87729">
        <ele>71.4</ele>
        <time>2020-06-30T20:44:41Z</time>
      </trkpt>
      <trkpt lat="49.06967" lon="3.8773">
        <ele>71.4</ele>
        <time>2020-06-30T20:44:42Z</time>
      </trkpt>
      <trkpt lat="49.0697" lon="3.87732">
        <ele>71.4</ele>
        <time>2020-06-30T20:44:43Z</time>
      </trkpt>
      <trkpt lat="49.06971" lon="3.87733">
        <ele>71.4</ele>
        <time>2020-06-30T20:44:44Z</time>
      </trkpt>
      <trkpt lat="49.06974" lon="3.87734">
        <ele>71.4</ele>
        <time>2020-06-30T20:44:45Z</time>
      </trkpt>
      <trkpt lat="49.06976" lon="3.87734">
        <ele>71.4</ele>
        <time>2020-06-30T20:44:46Z</time>
      </trkpt>
      <trkpt lat="49.06979" lon="3.87735">
        <ele>71.4</ele>
        <time>2020-06-30T20:44:47Z</time>
      </trkpt>
      <trkpt lat="49.06983" lon="3.87736">
        <ele>71.4</ele>
        <time>2020-06-30T20:44:48Z</time>
      </trkpt>
      <trkpt lat="49.06986" lon="3.87738">
        <ele>71.4</ele>
        <time>2020-06-30T20:44:49Z</time>
      </trkpt>
      <trkpt lat="49.06989" lon="3.87739">
        <ele>71.4</ele>
        <time>2020-06-30T20:44:50Z</time>
      </trkpt>
      <trkpt lat="49.06992" lon="3.8774">
        <ele>71.3</ele>
        <time>2020-06-30T20:44:51Z</time>
      </trkpt>
      <trkpt lat="49.06996" lon="3.87741">
        <ele>71.3</ele>
        <time>2020-06-30T20:44:52Z</time>
      </trkpt>
      <trkpt lat="49.06997" lon="3.87741">
        <ele>71.3</ele>
        <time>2020-06-30T20:44:53Z</time>
      </trkpt>
      <trkpt lat="49.07" lon="3.87741">
        <ele>71.3</ele>
        <time>2020-06-30T20:44:54Z</time>
      </trkpt>
      <trkpt lat="49.07001" lon="3.8774">
        <ele>70.9</ele>
        <time>2020-06-30T20:44:55Z</time>
      </trkpt>
      <trkpt lat="49.07003" lon="3.87736">
        <ele>70.4</ele>
        <time>2020-06-30T20:44:56Z</time>
      </trkpt>
      <trkpt lat="49.07006" lon="3.87731">
        <ele>69.9</ele>
        <time>2020-06-30T20:44:57Z</time>
      </trkpt>
      <trkpt lat="49.07008" lon="3.87725">
        <ele>69.4</ele>
        <time>2020-06-30T20:44:58Z</time>
      </trkpt>
      <trkpt lat="49.07011" lon="3.87718">
        <ele>68.7</ele>
        <time>2020-06-30T20:44:59Z</time>
      </trkpt>
      <trkpt lat="49.07013" lon="3.87711">
        <ele>68.2</ele>
        <time>2020-06-30T20:45:00Z</time>
      </trkpt>
      <trkpt lat="49.07016" lon="3.87704">
        <ele>67.6</ele>
        <time>2020-06-30T20:45:01Z</time>
      </trkpt>
      <trkpt lat="49.0702" lon="3.87696">
        <ele>67.3</ele>
        <time>2020-06-30T20:45:02Z</time>
      </trkpt>
      <trkpt lat="49.07022" lon="3.8769">
        <ele>67.2</ele>
        <time>2020-06-30T20:45:03Z</time>
      </trkpt>
      <trkpt lat="49.07024" lon="3.87685">
        <ele>67.2</ele>
        <time>2020-06-30T20:45:04Z</time>
      </trkpt>
      <trkpt lat="49.07027" lon="3.87679">
        <ele>67.2</ele>
        <time>2020-06-30T20:45:05Z</time>
      </trkpt>
      <trkpt lat="49.07029" lon="3.87674">
        <ele>67.2</ele>
        <time>2020-06-30T20:45:06Z</time>
      </trkpt>
      <trkpt lat="49.07031" lon="3.87669">
        <ele>67.2</ele>
        <time>2020-06-30T20:45:07Z</time>
      </trkpt>
      <trkpt lat="49.07034" lon="3.87664">
        <ele>67.1</ele>
        <time>2020-06-30T20:45:08Z</time>
      </trkpt>
      <trkpt lat="49.07037" lon="3.87659">
        <ele>67.1</ele>
        <time>2020-06-30T20:45:09Z</time>
      </trkpt>
      <trkpt lat="49.0704" lon="3.87656">
        <ele>67</ele>
        <time>2020-06-30T20:45:10Z</time>
      </trkpt>
      <trkpt lat="49.07043" lon="3.87652">
        <ele>67</ele>
        <time>2020-06-30T20:45:11Z</time>
      </trkpt>
      <trkpt lat="49.07045" lon="3.87648">
        <ele>67</ele>
        <time>2020-06-30T20:45:12Z</time>
      </trkpt>
      <trkpt lat="49.07049" lon="3.87642">
        <ele>66.9</ele>
        <time>2020-06-30T20:45:13Z</time>
      </trkpt>
      <trkpt lat="49.07052" lon="3.87638">
        <ele>66.9</ele>
        <time>2020-06-30T20:45:14Z</time>
      </trkpt>
      <trkpt lat="49.07054" lon="3.87632">
        <ele>66.8</ele>
        <time>2020-06-30T20:45:15Z</time>
      </trkpt>
      <trkpt lat="49.07056" lon="3.87627">
        <ele>66.8</ele>
        <time>2020-06-30T20:45:16Z</time>
      </trkpt>
      <trkpt lat="49.07058" lon="3.87623">
        <ele>66.8</ele>
        <time>2020-06-30T20:45:17Z</time>
      </trkpt>
      <trkpt lat="49.07061" lon="3.87619">
        <ele>66.8</ele>
        <time>2020-06-30T20:45:18Z</time>
      </trkpt>
      <trkpt lat="49.07064" lon="3.87615">
        <ele>66.8</ele>
        <time>2020-06-30T20:45:19Z</time>
      </trkpt>
      <trkpt lat="49.07067" lon="3.87612">
        <ele>66.7</ele>
        <time>2020-06-30T20:45:20Z</time>
      </trkpt>
      <trkpt lat="49.07069" lon="3.87608">
        <ele>66.7</ele>
        <time>2020-06-30T20:45:21Z</time>
      </trkpt>
      <trkpt lat="49.07072" lon="3.87605">
        <ele>66.7</ele>
        <time>2020-06-30T20:45:22Z</time>
      </trkpt>
      <trkpt lat="49.07075" lon="3.876">
        <ele>66.7</ele>
        <time>2020-06-30T20:45:23Z</time>
      </trkpt>
      <trkpt lat="49.07078" lon="3.87596">
        <ele>66.7</ele>
        <time>2020-06-30T20:45:24Z</time>
      </trkpt>
      <trkpt lat="49.07081" lon="3.87591">
        <ele>66.7</ele>
        <time>2020-06-30T20:45:25Z</time>
      </trkpt>
      <trkpt lat="49.07084" lon="3.87585">
        <ele>66.7</ele>
        <time>2020-06-30T20:45:26Z</time>
      </trkpt>
      <trkpt lat="49.07087" lon="3.8758">
        <ele>66.7</ele>
        <time>2020-06-30T20:45:27Z</time>
      </trkpt>
      <trkpt lat="49.0709" lon="3.87574">
        <ele>66.7</ele>
        <time>2020-06-30T20:45:28Z</time>
      </trkpt>
      <trkpt lat="49.07093" lon="3.87568">
        <ele>66.7</ele>
        <time>2020-06-30T20:45:29Z</time>
      </trkpt>
      <trkpt lat="49.07097" lon="3.87564">
        <ele>66.7</ele>
        <time>2020-06-30T20:45:30Z</time>
      </trkpt>
      <trkpt lat="49.071" lon="3.8756">
        <ele>66.7</ele>
        <time>2020-06-30T20:45:31Z</time>
      </trkpt>
      <trkpt lat="49.07103" lon="3.87555">
        <ele>66.7</ele>
        <time>2020-06-30T20:45:32Z</time>
      </trkpt>
      <trkpt lat="49.07106" lon="3.8755">
        <ele>66.7</ele>
        <time>2020-06-30T20:45:33Z</time>
      </trkpt>
      <trkpt lat="49.07109" lon="3.87546">
        <ele>66.7</ele>
        <time>2020-06-30T20:45:34Z</time>
      </trkpt>
      <trkpt lat="49.07112" lon="3.87541">
        <ele>66.7</ele>
        <time>2020-06-30T20:45:35Z</time>
      </trkpt>
      <trkpt lat="49.07115" lon="3.87536">
        <ele>66.7</ele>
        <time>2020-06-30T20:45:36Z</time>
      </trkpt>
      <trkpt lat="49.07118" lon="3.8753">
        <ele>66.7</ele>
        <time>2020-06-30T20:45:37Z</time>
      </trkpt>
      <trkpt lat="49.0712" lon="3.87524">
        <ele>66.7</ele>
        <time>2020-06-30T20:45:38Z</time>
      </trkpt>
      <trkpt lat="49.07123" lon="3.87519">
        <ele>66.7</ele>
        <time>2020-06-30T20:45:39Z</time>
      </trkpt>
      <trkpt lat="49.07126" lon="3.87513">
        <ele>66.8</ele>
        <time>2020-06-30T20:45:40Z</time>
      </trkpt>
      <trkpt lat="49.07128" lon="3.87508">
        <ele>66.8</ele>
        <time>2020-06-30T20:45:41Z</time>
      </trkpt>
      <trkpt lat="49.07131" lon="3.87502">
        <ele>66.8</ele>
        <time>2020-06-30T20:45:42Z</time>
      </trkpt>
      <trkpt lat="49.07135" lon="3.87496">
        <ele>66.8</ele>
        <time>2020-06-30T20:45:43Z</time>
      </trkpt>
      <trkpt lat="49.07138" lon="3.87491">
        <ele>66.8</ele>
        <time>2020-06-30T20:45:44Z</time>
      </trkpt>
      <trkpt lat="49.07141" lon="3.87486">
        <ele>66.8</ele>
        <time>2020-06-30T20:45:45Z</time>
      </trkpt>
      <trkpt lat="49.07144" lon="3.87479">
        <ele>66.8</ele>
        <time>2020-06-30T20:45:46Z</time>
      </trkpt>
      <trkpt lat="49.07147" lon="3.87474">
        <ele>66.8</ele>
        <time>2020-06-30T20:45:47Z</time>
      </trkpt>
      <trkpt lat="49.07148" lon="3.87468">
        <ele>67</ele>
        <time>2020-06-30T20:45:48Z</time>
      </trkpt>
      <trkpt lat="49.07151" lon="3.87463">
        <ele>67.1</ele>
        <time>2020-06-30T20:45:49Z</time>
      </trkpt>
      <trkpt lat="49.07154" lon="3.87457">
        <ele>67.1</ele>
        <time>2020-06-30T20:45:50Z</time>
      </trkpt>
      <trkpt lat="49.07156" lon="3.87452">
        <ele>67.2</ele>
        <time>2020-06-30T20:45:51Z</time>
      </trkpt>
      <trkpt lat="49.07158" lon="3.87448">
        <ele>67.3</ele>
        <time>2020-06-30T20:45:52Z</time>
      </trkpt>
      <trkpt lat="49.07162" lon="3.87444">
        <ele>67.4</ele>
        <time>2020-06-30T20:45:53Z</time>
      </trkpt>
      <trkpt lat="49.07164" lon="3.8744">
        <ele>67.4</ele>
        <time>2020-06-30T20:45:54Z</time>
      </trkpt>
      <trkpt lat="49.07167" lon="3.87437">
        <ele>67.5</ele>
        <time>2020-06-30T20:45:55Z</time>
      </trkpt>
      <trkpt lat="49.0717" lon="3.87433">
        <ele>67.6</ele>
        <time>2020-06-30T20:45:56Z</time>
      </trkpt>
      <trkpt lat="49.07171" lon="3.87432">
        <ele>67.6</ele>
        <time>2020-06-30T20:45:57Z</time>
      </trkpt>
      <trkpt lat="49.07175" lon="3.8743">
        <ele>67.7</ele>
        <time>2020-06-30T20:45:58Z</time>
      </trkpt>
      <trkpt lat="49.07178" lon="3.87428">
        <ele>67.7</ele>
        <time>2020-06-30T20:45:59Z</time>
      </trkpt>
      <trkpt lat="49.07182" lon="3.87426">
        <ele>67.8</ele>
        <time>2020-06-30T20:46:00Z</time>
      </trkpt>
      <trkpt lat="49.07185" lon="3.87421">
        <ele>67.8</ele>
        <time>2020-06-30T20:46:01Z</time>
      </trkpt>
      <trkpt lat="49.07187" lon="3.87416">
        <ele>67.8</ele>
        <time>2020-06-30T20:46:02Z</time>
      </trkpt>
      <trkpt lat="49.07189" lon="3.8741">
        <ele>67.8</ele>
        <time>2020-06-30T20:46:03Z</time>
      </trkpt>
      <trkpt lat="49.0719" lon="3.87403">
        <ele>67.9</ele>
        <time>2020-06-30T20:46:04Z</time>
      </trkpt>
      <trkpt lat="49.07191" lon="3.87396">
        <ele>67.9</ele>
        <time>2020-06-30T20:46:05Z</time>
      </trkpt>
      <trkpt lat="49.07192" lon="3.8739">
        <ele>68</ele>
        <time>2020-06-30T20:46:06Z</time>
      </trkpt>
      <trkpt lat="49.07194" lon="3.87385">
        <ele>68</ele>
        <time>2020-06-30T20:46:07Z</time>
      </trkpt>
      <trkpt lat="49.07196" lon="3.87378">
        <ele>68</ele>
        <time>2020-06-30T20:46:08Z</time>
      </trkpt>
      <trkpt lat="49.07198" lon="3.87371">
        <ele>68</ele>
        <time>2020-06-30T20:46:09Z</time>
      </trkpt>
      <trkpt lat="49.072" lon="3.87365">
        <ele>68.1</ele>
        <time>2020-06-30T20:46:10Z</time>
      </trkpt>
      <trkpt lat="49.07201" lon="3.87359">
        <ele>68</ele>
        <time>2020-06-30T20:46:11Z</time>
      </trkpt>
      <trkpt lat="49.07203" lon="3.87354">
        <ele>68</ele>
        <time>2020-06-30T20:46:12Z</time>
      </trkpt>
      <trkpt lat="49.07204" lon="3.87349">
        <ele>68</ele>
        <time>2020-06-30T20:46:13Z</time>
      </trkpt>
      <trkpt lat="49.07205" lon="3.87343">
        <ele>67.9</ele>
        <time>2020-06-30T20:46:14Z</time>
      </trkpt>
      <trkpt lat="49.07206" lon="3.87339">
        <ele>67.9</ele>
        <time>2020-06-30T20:46:15Z</time>
      </trkpt>
      <trkpt lat="49.07207" lon="3.87335">
        <ele>67.9</ele>
        <time>2020-06-30T20:46:16Z</time>
      </trkpt>
      <trkpt lat="49.07209" lon="3.8733">
        <ele>67.9</ele>
        <time>2020-06-30T20:46:17Z</time>
      </trkpt>
      <trkpt lat="49.0721" lon="3.87325">
        <ele>67.8</ele>
        <time>2020-06-30T20:46:18Z</time>
      </trkpt>
      <trkpt lat="49.0721" lon="3.87319">
        <ele>67.8</ele>
        <time>2020-06-30T20:46:19Z</time>
      </trkpt>
      <trkpt lat="49.07211" lon="3.87314">
        <ele>67.6</ele>
        <time>2020-06-30T20:46:20Z</time>
      </trkpt>
      <trkpt lat="49.07212" lon="3.87307">
        <ele>67.4</ele>
        <time>2020-06-30T20:46:21Z</time>
      </trkpt>
      <trkpt lat="49.07213" lon="3.87299">
        <ele>67.2</ele>
        <time>2020-06-30T20:46:22Z</time>
      </trkpt>
      <trkpt lat="49.07214" lon="3.87292">
        <ele>67</ele>
        <time>2020-06-30T20:46:23Z</time>
      </trkpt>
      <trkpt lat="49.07215" lon="3.87283">
        <ele>66.9</ele>
        <time>2020-06-30T20:46:24Z</time>
      </trkpt>
      <trkpt lat="49.07217" lon="3.87275">
        <ele>66.7</ele>
        <time>2020-06-30T20:46:25Z</time>
      </trkpt>
      <trkpt lat="49.07219" lon="3.87266">
        <ele>66.5</ele>
        <time>2020-06-30T20:46:26Z</time>
      </trkpt>
      <trkpt lat="49.07221" lon="3.87259">
        <ele>66.5</ele>
        <time>2020-06-30T20:46:27Z</time>
      </trkpt>
      <trkpt lat="49.07223" lon="3.87251">
        <ele>66.4</ele>
        <time>2020-06-30T20:46:28Z</time>
      </trkpt>
      <trkpt lat="49.07225" lon="3.87242">
        <ele>66.3</ele>
        <time>2020-06-30T20:46:29Z</time>
      </trkpt>
      <trkpt lat="49.07227" lon="3.87234">
        <ele>66.2</ele>
        <time>2020-06-30T20:46:30Z</time>
      </trkpt>
      <trkpt lat="49.07228" lon="3.87225">
        <ele>66.2</ele>
        <time>2020-06-30T20:46:31Z</time>
      </trkpt>
      <trkpt lat="49.0723" lon="3.87216">
        <ele>66.2</ele>
        <time>2020-06-30T20:46:32Z</time>
      </trkpt>
      <trkpt lat="49.07232" lon="3.87207">
        <ele>66.2</ele>
        <time>2020-06-30T20:46:33Z</time>
      </trkpt>
      <trkpt lat="49.07234" lon="3.87198">
        <ele>66.2</ele>
        <time>2020-06-30T20:46:34Z</time>
      </trkpt>
      <trkpt lat="49.07234" lon="3.87189">
        <ele>66.2</ele>
        <time>2020-06-30T20:46:35Z</time>
      </trkpt>
      <trkpt lat="49.07236" lon="3.8718">
        <ele>66.2</ele>
        <time>2020-06-30T20:46:36Z</time>
      </trkpt>
      <trkpt lat="49.07237" lon="3.87172">
        <ele>66.1</ele>
        <time>2020-06-30T20:46:37Z</time>
      </trkpt>
      <trkpt lat="49.07238" lon="3.87163">
        <ele>66.1</ele>
        <time>2020-06-30T20:46:38Z</time>
      </trkpt>
      <trkpt lat="49.07239" lon="3.87153">
        <ele>66.1</ele>
        <time>2020-06-30T20:46:39Z</time>
      </trkpt>
      <trkpt lat="49.0724" lon="3.87144">
        <ele>66.1</ele>
        <time>2020-06-30T20:46:40Z</time>
      </trkpt>
      <trkpt lat="49.07241" lon="3.87135">
        <ele>66</ele>
        <time>2020-06-30T20:46:41Z</time>
      </trkpt>
      <trkpt lat="49.07242" lon="3.87125">
        <ele>66</ele>
        <time>2020-06-30T20:46:42Z</time>
      </trkpt>
      <trkpt lat="49.07243" lon="3.87115">
        <ele>66</ele>
        <time>2020-06-30T20:46:43Z</time>
      </trkpt>
      <trkpt lat="49.07244" lon="3.87105">
        <ele>66</ele>
        <time>2020-06-30T20:46:44Z</time>
      </trkpt>
      <trkpt lat="49.07244" lon="3.87095">
        <ele>66</ele>
        <time>2020-06-30T20:46:45Z</time>
      </trkpt>
      <trkpt lat="49.07245" lon="3.87086">
        <ele>66</ele>
        <time>2020-06-30T20:46:46Z</time>
      </trkpt>
      <trkpt lat="49.07246" lon="3.87076">
        <ele>66</ele>
        <time>2020-06-30T20:46:47Z</time>
      </trkpt>
      <trkpt lat="49.07247" lon="3.87067">
        <ele>66</ele>
        <time>2020-06-30T20:46:48Z</time>
      </trkpt>
      <trkpt lat="49.07247" lon="3.87059">
        <ele>66</ele>
        <time>2020-06-30T20:46:49Z</time>
      </trkpt>
      <trkpt lat="49.07249" lon="3.87049">
        <ele>65.9</ele>
        <time>2020-06-30T20:46:50Z</time>
      </trkpt>
      <trkpt lat="49.0725" lon="3.8704">
        <ele>65.9</ele>
        <time>2020-06-30T20:46:51Z</time>
      </trkpt>
      <trkpt lat="49.0725" lon="3.87033">
        <ele>65.9</ele>
        <time>2020-06-30T20:46:52Z</time>
      </trkpt>
      <trkpt lat="49.07252" lon="3.87024">
        <ele>65.9</ele>
        <time>2020-06-30T20:46:53Z</time>
      </trkpt>
      <trkpt lat="49.07253" lon="3.87015">
        <ele>66</ele>
        <time>2020-06-30T20:46:54Z</time>
      </trkpt>
      <trkpt lat="49.07254" lon="3.87007">
        <ele>66</ele>
        <time>2020-06-30T20:46:55Z</time>
      </trkpt>
      <trkpt lat="49.07256" lon="3.86998">
        <ele>66</ele>
        <time>2020-06-30T20:46:56Z</time>
      </trkpt>
      <trkpt lat="49.07257" lon="3.86989">
        <ele>66</ele>
        <time>2020-06-30T20:46:57Z</time>
      </trkpt>
      <trkpt lat="49.07259" lon="3.86981">
        <ele>66.1</ele>
        <time>2020-06-30T20:46:58Z</time>
      </trkpt>
      <trkpt lat="49.0726" lon="3.86972">
        <ele>66.1</ele>
        <time>2020-06-30T20:46:59Z</time>
      </trkpt>
      <trkpt lat="49.07261" lon="3.86964">
        <ele>66.2</ele>
        <time>2020-06-30T20:47:00Z</time>
      </trkpt>
      <trkpt lat="49.07263" lon="3.86954">
        <ele>66.2</ele>
        <time>2020-06-30T20:47:01Z</time>
      </trkpt>
      <trkpt lat="49.07264" lon="3.86945">
        <ele>66.3</ele>
        <time>2020-06-30T20:47:02Z</time>
      </trkpt>
      <trkpt lat="49.07265" lon="3.86937">
        <ele>66.4</ele>
        <time>2020-06-30T20:47:03Z</time>
      </trkpt>
      <trkpt lat="49.07267" lon="3.8693">
        <ele>66.5</ele>
        <time>2020-06-30T20:47:04Z</time>
      </trkpt>
      <trkpt lat="49.07269" lon="3.86922">
        <ele>66.7</ele>
        <time>2020-06-30T20:47:05Z</time>
      </trkpt>
      <trkpt lat="49.07271" lon="3.86916">
        <ele>66.8</ele>
        <time>2020-06-30T20:47:06Z</time>
      </trkpt>
      <trkpt lat="49.07274" lon="3.86911">
        <ele>66.8</ele>
        <time>2020-06-30T20:47:07Z</time>
      </trkpt>
      <trkpt lat="49.07275" lon="3.86903">
        <ele>67</ele>
        <time>2020-06-30T20:47:08Z</time>
      </trkpt>
      <trkpt lat="49.07278" lon="3.86896">
        <ele>67</ele>
        <time>2020-06-30T20:47:09Z</time>
      </trkpt>
      <trkpt lat="49.0728" lon="3.86889">
        <ele>67.1</ele>
        <time>2020-06-30T20:47:10Z</time>
      </trkpt>
      <trkpt lat="49.07282" lon="3.8688">
        <ele>67.2</ele>
        <time>2020-06-30T20:47:11Z</time>
      </trkpt>
      <trkpt lat="49.07284" lon="3.86875">
        <ele>67.2</ele>
        <time>2020-06-30T20:47:12Z</time>
      </trkpt>
      <trkpt lat="49.07286" lon="3.86868">
        <ele>67.3</ele>
        <time>2020-06-30T20:47:13Z</time>
      </trkpt>
      <trkpt lat="49.07288" lon="3.86864">
        <ele>67.3</ele>
        <time>2020-06-30T20:47:14Z</time>
      </trkpt>
      <trkpt lat="49.0729" lon="3.86857">
        <ele>67.4</ele>
        <time>2020-06-30T20:47:15Z</time>
      </trkpt>
      <trkpt lat="49.07293" lon="3.86848">
        <ele>67.5</ele>
        <time>2020-06-30T20:47:16Z</time>
      </trkpt>
      <trkpt lat="49.07296" lon="3.86842">
        <ele>67.6</ele>
        <time>2020-06-30T20:47:17Z</time>
      </trkpt>
      <trkpt lat="49.07297" lon="3.86836">
        <ele>67.7</ele>
        <time>2020-06-30T20:47:18Z</time>
      </trkpt>
      <trkpt lat="49.07298" lon="3.86832">
        <ele>67.8</ele>
        <time>2020-06-30T20:47:19Z</time>
      </trkpt>
      <trkpt lat="49.073" lon="3.86826">
        <ele>67.8</ele>
        <time>2020-06-30T20:47:20Z</time>
      </trkpt>
      <trkpt lat="49.07301" lon="3.86821">
        <ele>67.9</ele>
        <time>2020-06-30T20:47:21Z</time>
      </trkpt>
      <trkpt lat="49.07304" lon="3.86816">
        <ele>68</ele>
        <time>2020-06-30T20:47:22Z</time>
      </trkpt>
      <trkpt lat="49.07307" lon="3.86811">
        <ele>68.1</ele>
        <time>2020-06-30T20:47:23Z</time>
      </trkpt>
      <trkpt lat="49.07309" lon="3.86806">
        <ele>68.2</ele>
        <time>2020-06-30T20:47:24Z</time>
      </trkpt>
      <trkpt lat="49.07312" lon="3.86802">
        <ele>68.2</ele>
        <time>2020-06-30T20:47:25Z</time>
      </trkpt>
      <trkpt lat="49.07314" lon="3.86796">
        <ele>68.2</ele>
        <time>2020-06-30T20:47:26Z</time>
      </trkpt>
      <trkpt lat="49.07316" lon="3.86791">
        <ele>68.2</ele>
        <time>2020-06-30T20:47:27Z</time>
      </trkpt>
      <trkpt lat="49.07318" lon="3.86785">
        <ele>68.2</ele>
        <time>2020-06-30T20:47:28Z</time>
      </trkpt>
      <trkpt lat="49.0732" lon="3.86779">
        <ele>68.2</ele>
        <time>2020-06-30T20:47:29Z</time>
      </trkpt>
      <trkpt lat="49.07321" lon="3.86773">
        <ele>68.2</ele>
        <time>2020-06-30T20:47:30Z</time>
      </trkpt>
      <trkpt lat="49.07323" lon="3.86767">
        <ele>68.2</ele>
        <time>2020-06-30T20:47:31Z</time>
      </trkpt>
      <trkpt lat="49.07325" lon="3.86761">
        <ele>68.1</ele>
        <time>2020-06-30T20:47:32Z</time>
      </trkpt>
      <trkpt lat="49.07327" lon="3.86754">
        <ele>68.1</ele>
        <time>2020-06-30T20:47:33Z</time>
      </trkpt>
      <trkpt lat="49.07328" lon="3.86747">
        <ele>68.1</ele>
        <time>2020-06-30T20:47:34Z</time>
      </trkpt>
      <trkpt lat="49.07329" lon="3.8674">
        <ele>68.1</ele>
        <time>2020-06-30T20:47:35Z</time>
      </trkpt>
      <trkpt lat="49.0733" lon="3.86733">
        <ele>68.1</ele>
        <time>2020-06-30T20:47:36Z</time>
      </trkpt>
      <trkpt lat="49.0733" lon="3.86725">
        <ele>68.1</ele>
        <time>2020-06-30T20:47:37Z</time>
      </trkpt>
      <trkpt lat="49.0733" lon="3.86717">
        <ele>68.1</ele>
        <time>2020-06-30T20:47:38Z</time>
      </trkpt>
      <trkpt lat="49.07331" lon="3.86709">
        <ele>68.1</ele>
        <time>2020-06-30T20:47:39Z</time>
      </trkpt>
      <trkpt lat="49.07332" lon="3.86702">
        <ele>68.1</ele>
        <time>2020-06-30T20:47:40Z</time>
      </trkpt>
      <trkpt lat="49.07334" lon="3.86694">
        <ele>68.1</ele>
        <time>2020-06-30T20:47:41Z</time>
      </trkpt>
      <trkpt lat="49.07335" lon="3.86687">
        <ele>68.1</ele>
        <time>2020-06-30T20:47:42Z</time>
      </trkpt>
      <trkpt lat="49.07336" lon="3.86678">
        <ele>68</ele>
        <time>2020-06-30T20:47:43Z</time>
      </trkpt>
      <trkpt lat="49.07335" lon="3.86669">
        <ele>68</ele>
        <time>2020-06-30T20:47:44Z</time>
      </trkpt>
      <trkpt lat="49.07336" lon="3.8666">
        <ele>68</ele>
        <time>2020-06-30T20:47:45Z</time>
      </trkpt>
      <trkpt lat="49.07336" lon="3.86652">
        <ele>68</ele>
        <time>2020-06-30T20:47:46Z</time>
      </trkpt>
      <trkpt lat="49.07336" lon="3.86642">
        <ele>68</ele>
        <time>2020-06-30T20:47:47Z</time>
      </trkpt>
      <trkpt lat="49.07337" lon="3.86634">
        <ele>68</ele>
        <time>2020-06-30T20:47:48Z</time>
      </trkpt>
      <trkpt lat="49.07337" lon="3.86626">
        <ele>68</ele>
        <time>2020-06-30T20:47:49Z</time>
      </trkpt>
      <trkpt lat="49.07337" lon="3.86618">
        <ele>68</ele>
        <time>2020-06-30T20:47:50Z</time>
      </trkpt>
      <trkpt lat="49.07338" lon="3.8661">
        <ele>67.9</ele>
        <time>2020-06-30T20:47:51Z</time>
      </trkpt>
      <trkpt lat="49.07338" lon="3.86601">
        <ele>67.9</ele>
        <time>2020-06-30T20:47:52Z</time>
      </trkpt>
      <trkpt lat="49.07338" lon="3.86592">
        <ele>67.9</ele>
        <time>2020-06-30T20:47:53Z</time>
      </trkpt>
      <trkpt lat="49.07337" lon="3.86584">
        <ele>67.9</ele>
        <time>2020-06-30T20:47:54Z</time>
      </trkpt>
      <trkpt lat="49.07338" lon="3.86575">
        <ele>67.9</ele>
        <time>2020-06-30T20:47:55Z</time>
      </trkpt>
      <trkpt lat="49.07338" lon="3.86568">
        <ele>67.8</ele>
        <time>2020-06-30T20:47:56Z</time>
      </trkpt>
      <trkpt lat="49.07338" lon="3.8656">
        <ele>67.8</ele>
        <time>2020-06-30T20:47:57Z</time>
      </trkpt>
      <trkpt lat="49.07337" lon="3.86552">
        <ele>67.8</ele>
        <time>2020-06-30T20:47:58Z</time>
      </trkpt>
      <trkpt lat="49.07337" lon="3.86544">
        <ele>67.7</ele>
        <time>2020-06-30T20:47:59Z</time>
      </trkpt>
      <trkpt lat="49.07337" lon="3.86536">
        <ele>67.7</ele>
        <time>2020-06-30T20:48:00Z</time>
      </trkpt>
      <trkpt lat="49.07338" lon="3.86528">
        <ele>67.6</ele>
        <time>2020-06-30T20:48:01Z</time>
      </trkpt>
      <trkpt lat="49.07338" lon="3.86521">
        <ele>67.6</ele>
        <time>2020-06-30T20:48:02Z</time>
      </trkpt>
      <trkpt lat="49.07339" lon="3.86513">
        <ele>67.5</ele>
        <time>2020-06-30T20:48:03Z</time>
      </trkpt>
      <trkpt lat="49.0734" lon="3.86506">
        <ele>67.5</ele>
        <time>2020-06-30T20:48:04Z</time>
      </trkpt>
      <trkpt lat="49.07341" lon="3.86499">
        <ele>67.5</ele>
        <time>2020-06-30T20:48:05Z</time>
      </trkpt>
      <trkpt lat="49.07343" lon="3.86491">
        <ele>67.6</ele>
        <time>2020-06-30T20:48:06Z</time>
      </trkpt>
      <trkpt lat="49.07345" lon="3.86484">
        <ele>67.6</ele>
        <time>2020-06-30T20:48:07Z</time>
      </trkpt>
      <trkpt lat="49.07346" lon="3.86478">
        <ele>67.7</ele>
        <time>2020-06-30T20:48:08Z</time>
      </trkpt>
      <trkpt lat="49.07349" lon="3.86471">
        <ele>67.8</ele>
        <time>2020-06-30T20:48:09Z</time>
      </trkpt>
      <trkpt lat="49.07351" lon="3.86464">
        <ele>67.9</ele>
        <time>2020-06-30T20:48:10Z</time>
      </trkpt>
      <trkpt lat="49.07353" lon="3.86457">
        <ele>68</ele>
        <time>2020-06-30T20:48:11Z</time>
      </trkpt>
      <trkpt lat="49.07354" lon="3.86449">
        <ele>68.1</ele>
        <time>2020-06-30T20:48:12Z</time>
      </trkpt>
      <trkpt lat="49.07355" lon="3.86442">
        <ele>68.2</ele>
        <time>2020-06-30T20:48:13Z</time>
      </trkpt>
      <trkpt lat="49.07356" lon="3.86434">
        <ele>68.3</ele>
        <time>2020-06-30T20:48:14Z</time>
      </trkpt>
      <trkpt lat="49.07357" lon="3.86428">
        <ele>68.4</ele>
        <time>2020-06-30T20:48:15Z</time>
      </trkpt>
      <trkpt lat="49.07359" lon="3.8642">
        <ele>68.4</ele>
        <time>2020-06-30T20:48:16Z</time>
      </trkpt>
      <trkpt lat="49.07361" lon="3.86412">
        <ele>68.5</ele>
        <time>2020-06-30T20:48:17Z</time>
      </trkpt>
      <trkpt lat="49.07361" lon="3.86402">
        <ele>68.7</ele>
        <time>2020-06-30T20:48:18Z</time>
      </trkpt>
      <trkpt lat="49.07361" lon="3.86394">
        <ele>68.8</ele>
        <time>2020-06-30T20:48:19Z</time>
      </trkpt>
      <trkpt lat="49.07362" lon="3.86387">
        <ele>68.9</ele>
        <time>2020-06-30T20:48:20Z</time>
      </trkpt>
      <trkpt lat="49.07362" lon="3.8638">
        <ele>69</ele>
        <time>2020-06-30T20:48:21Z</time>
      </trkpt>
      <trkpt lat="49.07362" lon="3.86374">
        <ele>69.2</ele>
        <time>2020-06-30T20:48:22Z</time>
      </trkpt>
      <trkpt lat="49.07362" lon="3.86368">
        <ele>69.3</ele>
        <time>2020-06-30T20:48:23Z</time>
      </trkpt>
      <trkpt lat="49.07362" lon="3.86362">
        <ele>69.5</ele>
        <time>2020-06-30T20:48:24Z</time>
      </trkpt>
      <trkpt lat="49.07362" lon="3.86359">
        <ele>69.6</ele>
        <time>2020-06-30T20:48:25Z</time>
      </trkpt>
      <trkpt lat="49.07363" lon="3.86354">
        <ele>69.7</ele>
        <time>2020-06-30T20:48:26Z</time>
      </trkpt>
      <trkpt lat="49.07362" lon="3.8635">
        <ele>69.8</ele>
        <time>2020-06-30T20:48:27Z</time>
      </trkpt>
      <trkpt lat="49.07363" lon="3.86345">
        <ele>69.9</ele>
        <time>2020-06-30T20:48:28Z</time>
      </trkpt>
      <trkpt lat="49.07363" lon="3.86339">
        <ele>70.1</ele>
        <time>2020-06-30T20:48:29Z</time>
      </trkpt>
      <trkpt lat="49.07362" lon="3.86337">
        <ele>70.1</ele>
        <time>2020-06-30T20:48:30Z</time>
      </trkpt>
      <trkpt lat="49.07362" lon="3.86331">
        <ele>70.1</ele>
        <time>2020-06-30T20:48:31Z</time>
      </trkpt>
      <trkpt lat="49.07362" lon="3.86328">
        <ele>70.2</ele>
        <time>2020-06-30T20:48:32Z</time>
      </trkpt>
      <trkpt lat="49.0736" lon="3.86324">
        <ele>70.2</ele>
        <time>2020-06-30T20:48:33Z</time>
      </trkpt>
      <trkpt lat="49.07359" lon="3.86319">
        <ele>70.2</ele>
        <time>2020-06-30T20:48:34Z</time>
      </trkpt>
      <trkpt lat="49.07357" lon="3.86314">
        <ele>70.2</ele>
        <time>2020-06-30T20:48:35Z</time>
      </trkpt>
      <trkpt lat="49.07355" lon="3.8631">
        <ele>70.3</ele>
        <time>2020-06-30T20:48:36Z</time>
      </trkpt>
      <trkpt lat="49.07354" lon="3.86305">
        <ele>70.2</ele>
        <time>2020-06-30T20:48:37Z</time>
      </trkpt>
      <trkpt lat="49.07353" lon="3.86303">
        <ele>70.2</ele>
        <time>2020-06-30T20:48:38Z</time>
      </trkpt>
      <trkpt lat="49.07353" lon="3.86301">
        <ele>70.2</ele>
        <time>2020-06-30T20:48:39Z</time>
      </trkpt>
      <trkpt lat="49.07354" lon="3.86297">
        <ele>70.2</ele>
        <time>2020-06-30T20:48:40Z</time>
      </trkpt>
      <trkpt lat="49.07354" lon="3.86295">
        <ele>70.2</ele>
        <time>2020-06-30T20:48:41Z</time>
      </trkpt>
      <trkpt lat="49.07354" lon="3.86289">
        <ele>70.2</ele>
        <time>2020-06-30T20:48:42Z</time>
      </trkpt>
      <trkpt lat="49.07354" lon="3.86282">
        <ele>70.1</ele>
        <time>2020-06-30T20:48:43Z</time>
      </trkpt>
      <trkpt lat="49.07355" lon="3.86275">
        <ele>70.1</ele>
        <time>2020-06-30T20:48:44Z</time>
      </trkpt>
      <trkpt lat="49.07355" lon="3.86266">
        <ele>70</ele>
        <time>2020-06-30T20:48:45Z</time>
      </trkpt>
      <trkpt lat="49.07355" lon="3.86259">
        <ele>69.9</ele>
        <time>2020-06-30T20:48:46Z</time>
      </trkpt>
      <trkpt lat="49.07355" lon="3.86251">
        <ele>69.8</ele>
        <time>2020-06-30T20:48:47Z</time>
      </trkpt>
      <trkpt lat="49.07355" lon="3.86242">
        <ele>69.8</ele>
        <time>2020-06-30T20:48:48Z</time>
      </trkpt>
      <trkpt lat="49.07355" lon="3.86232">
        <ele>69.7</ele>
        <time>2020-06-30T20:48:49Z</time>
      </trkpt>
      <trkpt lat="49.07356" lon="3.86224">
        <ele>69.6</ele>
        <time>2020-06-30T20:48:50Z</time>
      </trkpt>
      <trkpt lat="49.07356" lon="3.86216">
        <ele>69.5</ele>
        <time>2020-06-30T20:48:51Z</time>
      </trkpt>
      <trkpt lat="49.07357" lon="3.86206">
        <ele>69.4</ele>
        <time>2020-06-30T20:48:52Z</time>
      </trkpt>
      <trkpt lat="49.07358" lon="3.86199">
        <ele>69.3</ele>
        <time>2020-06-30T20:48:53Z</time>
      </trkpt>
      <trkpt lat="49.0736" lon="3.8619">
        <ele>69.2</ele>
        <time>2020-06-30T20:48:54Z</time>
      </trkpt>
      <trkpt lat="49.0736" lon="3.86181">
        <ele>69.1</ele>
        <time>2020-06-30T20:48:55Z</time>
      </trkpt>
      <trkpt lat="49.07361" lon="3.86172">
        <ele>69</ele>
        <time>2020-06-30T20:48:56Z</time>
      </trkpt>
      <trkpt lat="49.07362" lon="3.86163">
        <ele>68.9</ele>
        <time>2020-06-30T20:48:57Z</time>
      </trkpt>
      <trkpt lat="49.07362" lon="3.86155">
        <ele>68.9</ele>
        <time>2020-06-30T20:48:58Z</time>
      </trkpt>
      <trkpt lat="49.07363" lon="3.86147">
        <ele>68.9</ele>
        <time>2020-06-30T20:48:59Z</time>
      </trkpt>
      <trkpt lat="49.07363" lon="3.86139">
        <ele>68.9</ele>
        <time>2020-06-30T20:49:00Z</time>
      </trkpt>
      <trkpt lat="49.07363" lon="3.86131">
        <ele>68.9</ele>
        <time>2020-06-30T20:49:01Z</time>
      </trkpt>
      <trkpt lat="49.07362" lon="3.86122">
        <ele>68.8</ele>
        <time>2020-06-30T20:49:02Z</time>
      </trkpt>
      <trkpt lat="49.07363" lon="3.86114">
        <ele>68.8</ele>
        <time>2020-06-30T20:49:03Z</time>
      </trkpt>
      <trkpt lat="49.07364" lon="3.86106">
        <ele>68.8</ele>
        <time>2020-06-30T20:49:04Z</time>
      </trkpt>
      <trkpt lat="49.07365" lon="3.86098">
        <ele>68.8</ele>
        <time>2020-06-30T20:49:05Z</time>
      </trkpt>
      <trkpt lat="49.07365" lon="3.8609">
        <ele>68.8</ele>
        <time>2020-06-30T20:49:06Z</time>
      </trkpt>
      <trkpt lat="49.07364" lon="3.86082">
        <ele>68.8</ele>
        <time>2020-06-30T20:49:07Z</time>
      </trkpt>
      <trkpt lat="49.07364" lon="3.86073">
        <ele>68.9</ele>
        <time>2020-06-30T20:49:08Z</time>
      </trkpt>
      <trkpt lat="49.07365" lon="3.86063">
        <ele>68.9</ele>
        <time>2020-06-30T20:49:09Z</time>
      </trkpt>
      <trkpt lat="49.07365" lon="3.86055">
        <ele>68.9</ele>
        <time>2020-06-30T20:49:10Z</time>
      </trkpt>
      <trkpt lat="49.07366" lon="3.86047">
        <ele>68.9</ele>
        <time>2020-06-30T20:49:11Z</time>
      </trkpt>
      <trkpt lat="49.07366" lon="3.86038">
        <ele>68.9</ele>
        <time>2020-06-30T20:49:12Z</time>
      </trkpt>
      <trkpt lat="49.07366" lon="3.8603">
        <ele>68.9</ele>
        <time>2020-06-30T20:49:13Z</time>
      </trkpt>
      <trkpt lat="49.07367" lon="3.86022">
        <ele>68.9</ele>
        <time>2020-06-30T20:49:14Z</time>
      </trkpt>
      <trkpt lat="49.07368" lon="3.86013">
        <ele>68.9</ele>
        <time>2020-06-30T20:49:15Z</time>
      </trkpt>
      <trkpt lat="49.07368" lon="3.86006">
        <ele>68.9</ele>
        <time>2020-06-30T20:49:16Z</time>
      </trkpt>
      <trkpt lat="49.07369" lon="3.85997">
        <ele>68.8</ele>
        <time>2020-06-30T20:49:17Z</time>
      </trkpt>
      <trkpt lat="49.0737" lon="3.8599">
        <ele>68.8</ele>
        <time>2020-06-30T20:49:18Z</time>
      </trkpt>
      <trkpt lat="49.0737" lon="3.85982">
        <ele>68.8</ele>
        <time>2020-06-30T20:49:19Z</time>
      </trkpt>
      <trkpt lat="49.07371" lon="3.85975">
        <ele>68.7</ele>
        <time>2020-06-30T20:49:20Z</time>
      </trkpt>
      <trkpt lat="49.07372" lon="3.85968">
        <ele>68.7</ele>
        <time>2020-06-30T20:49:21Z</time>
      </trkpt>
      <trkpt lat="49.07373" lon="3.8596">
        <ele>68.7</ele>
        <time>2020-06-30T20:49:22Z</time>
      </trkpt>
      <trkpt lat="49.07375" lon="3.8595">
        <ele>68.6</ele>
        <time>2020-06-30T20:49:23Z</time>
      </trkpt>
      <trkpt lat="49.07376" lon="3.8594">
        <ele>68.6</ele>
        <time>2020-06-30T20:49:24Z</time>
      </trkpt>
      <trkpt lat="49.07377" lon="3.85932">
        <ele>68.6</ele>
        <time>2020-06-30T20:49:25Z</time>
      </trkpt>
      <trkpt lat="49.07378" lon="3.85923">
        <ele>68.5</ele>
        <time>2020-06-30T20:49:26Z</time>
      </trkpt>
      <trkpt lat="49.07379" lon="3.85914">
        <ele>68.5</ele>
        <time>2020-06-30T20:49:27Z</time>
      </trkpt>
      <trkpt lat="49.07379" lon="3.85905">
        <ele>68.5</ele>
        <time>2020-06-30T20:49:28Z</time>
      </trkpt>
      <trkpt lat="49.07379" lon="3.85896">
        <ele>68.6</ele>
        <time>2020-06-30T20:49:29Z</time>
      </trkpt>
      <trkpt lat="49.07379" lon="3.85888">
        <ele>68.6</ele>
        <time>2020-06-30T20:49:30Z</time>
      </trkpt>
      <trkpt lat="49.07381" lon="3.8588">
        <ele>68.6</ele>
        <time>2020-06-30T20:49:31Z</time>
      </trkpt>
      <trkpt lat="49.07382" lon="3.85872">
        <ele>68.6</ele>
        <time>2020-06-30T20:49:32Z</time>
      </trkpt>
      <trkpt lat="49.07383" lon="3.85863">
        <ele>68.6</ele>
        <time>2020-06-30T20:49:33Z</time>
      </trkpt>
      <trkpt lat="49.07384" lon="3.85855">
        <ele>68.6</ele>
        <time>2020-06-30T20:49:34Z</time>
      </trkpt>
      <trkpt lat="49.07385" lon="3.85848">
        <ele>68.6</ele>
        <time>2020-06-30T20:49:35Z</time>
      </trkpt>
      <trkpt lat="49.07385" lon="3.85839">
        <ele>68.6</ele>
        <time>2020-06-30T20:49:36Z</time>
      </trkpt>
      <trkpt lat="49.07385" lon="3.8583">
        <ele>68.7</ele>
        <time>2020-06-30T20:49:37Z</time>
      </trkpt>
      <trkpt lat="49.07386" lon="3.85823">
        <ele>68.7</ele>
        <time>2020-06-30T20:49:38Z</time>
      </trkpt>
      <trkpt lat="49.07385" lon="3.85815">
        <ele>68.7</ele>
        <time>2020-06-30T20:49:39Z</time>
      </trkpt>
      <trkpt lat="49.07386" lon="3.85805">
        <ele>68.7</ele>
        <time>2020-06-30T20:49:40Z</time>
      </trkpt>
      <trkpt lat="49.07387" lon="3.85796">
        <ele>68.7</ele>
        <time>2020-06-30T20:49:41Z</time>
      </trkpt>
      <trkpt lat="49.07388" lon="3.85787">
        <ele>68.7</ele>
        <time>2020-06-30T20:49:42Z</time>
      </trkpt>
      <trkpt lat="49.07388" lon="3.85779">
        <ele>68.7</ele>
        <time>2020-06-30T20:49:43Z</time>
      </trkpt>
      <trkpt lat="49.07389" lon="3.85769">
        <ele>68.8</ele>
        <time>2020-06-30T20:49:44Z</time>
      </trkpt>
      <trkpt lat="49.07389" lon="3.85761">
        <ele>68.8</ele>
        <time>2020-06-30T20:49:45Z</time>
      </trkpt>
      <trkpt lat="49.0739" lon="3.85752">
        <ele>68.8</ele>
        <time>2020-06-30T20:49:46Z</time>
      </trkpt>
      <trkpt lat="49.0739" lon="3.85744">
        <ele>68.8</ele>
        <time>2020-06-30T20:49:47Z</time>
      </trkpt>
      <trkpt lat="49.07391" lon="3.85735">
        <ele>68.8</ele>
        <time>2020-06-30T20:49:48Z</time>
      </trkpt>
      <trkpt lat="49.07392" lon="3.85725">
        <ele>68.8</ele>
        <time>2020-06-30T20:49:49Z</time>
      </trkpt>
      <trkpt lat="49.07392" lon="3.85715">
        <ele>68.8</ele>
        <time>2020-06-30T20:49:50Z</time>
      </trkpt>
      <trkpt lat="49.07393" lon="3.85706">
        <ele>68.8</ele>
        <time>2020-06-30T20:49:51Z</time>
      </trkpt>
      <trkpt lat="49.07394" lon="3.85696">
        <ele>68.7</ele>
        <time>2020-06-30T20:49:52Z</time>
      </trkpt>
      <trkpt lat="49.07394" lon="3.85687">
        <ele>68.7</ele>
        <time>2020-06-30T20:49:53Z</time>
      </trkpt>
      <trkpt lat="49.07395" lon="3.85679">
        <ele>68.7</ele>
        <time>2020-06-30T20:49:54Z</time>
      </trkpt>
      <trkpt lat="49.07396" lon="3.85671">
        <ele>68.7</ele>
        <time>2020-06-30T20:49:55Z</time>
      </trkpt>
      <trkpt lat="49.07396" lon="3.85663">
        <ele>68.8</ele>
        <time>2020-06-30T20:49:56Z</time>
      </trkpt>
      <trkpt lat="49.07397" lon="3.85655">
        <ele>68.8</ele>
        <time>2020-06-30T20:49:57Z</time>
      </trkpt>
      <trkpt lat="49.07398" lon="3.85647">
        <ele>68.8</ele>
        <time>2020-06-30T20:49:58Z</time>
      </trkpt>
      <trkpt lat="49.07399" lon="3.85638">
        <ele>68.8</ele>
        <time>2020-06-30T20:49:59Z</time>
      </trkpt>
      <trkpt lat="49.074" lon="3.85629">
        <ele>68.8</ele>
        <time>2020-06-30T20:50:00Z</time>
      </trkpt>
      <trkpt lat="49.07402" lon="3.85618">
        <ele>68.8</ele>
        <time>2020-06-30T20:50:01Z</time>
      </trkpt>
      <trkpt lat="49.07403" lon="3.85609">
        <ele>68.9</ele>
        <time>2020-06-30T20:50:02Z</time>
      </trkpt>
      <trkpt lat="49.07404" lon="3.85601">
        <ele>68.9</ele>
        <time>2020-06-30T20:50:03Z</time>
      </trkpt>
      <trkpt lat="49.07403" lon="3.8559">
        <ele>68.9</ele>
        <time>2020-06-30T20:50:04Z</time>
      </trkpt>
      <trkpt lat="49.07403" lon="3.85581">
        <ele>68.9</ele>
        <time>2020-06-30T20:50:05Z</time>
      </trkpt>
      <trkpt lat="49.07404" lon="3.85573">
        <ele>68.9</ele>
        <time>2020-06-30T20:50:06Z</time>
      </trkpt>
      <trkpt lat="49.07404" lon="3.85565">
        <ele>69</ele>
        <time>2020-06-30T20:50:07Z</time>
      </trkpt>
      <trkpt lat="49.07405" lon="3.85557">
        <ele>69</ele>
        <time>2020-06-30T20:50:08Z</time>
      </trkpt>
      <trkpt lat="49.07404" lon="3.85548">
        <ele>69</ele>
        <time>2020-06-30T20:50:09Z</time>
      </trkpt>
      <trkpt lat="49.07405" lon="3.85538">
        <ele>69</ele>
        <time>2020-06-30T20:50:10Z</time>
      </trkpt>
      <trkpt lat="49.07405" lon="3.85529">
        <ele>69</ele>
        <time>2020-06-30T20:50:11Z</time>
      </trkpt>
      <trkpt lat="49.07406" lon="3.85522">
        <ele>69.1</ele>
        <time>2020-06-30T20:50:12Z</time>
      </trkpt>
      <trkpt lat="49.07407" lon="3.85513">
        <ele>69.1</ele>
        <time>2020-06-30T20:50:13Z</time>
      </trkpt>
      <trkpt lat="49.07408" lon="3.85504">
        <ele>69.1</ele>
        <time>2020-06-30T20:50:14Z</time>
      </trkpt>
      <trkpt lat="49.07409" lon="3.85495">
        <ele>69.2</ele>
        <time>2020-06-30T20:50:15Z</time>
      </trkpt>
      <trkpt lat="49.07409" lon="3.85487">
        <ele>69.2</ele>
        <time>2020-06-30T20:50:16Z</time>
      </trkpt>
      <trkpt lat="49.07409" lon="3.85479">
        <ele>69.2</ele>
        <time>2020-06-30T20:50:17Z</time>
      </trkpt>
      <trkpt lat="49.07409" lon="3.85469">
        <ele>69.3</ele>
        <time>2020-06-30T20:50:18Z</time>
      </trkpt>
      <trkpt lat="49.07409" lon="3.8546">
        <ele>69.3</ele>
        <time>2020-06-30T20:50:19Z</time>
      </trkpt>
      <trkpt lat="49.0741" lon="3.85452">
        <ele>69.3</ele>
        <time>2020-06-30T20:50:20Z</time>
      </trkpt>
      <trkpt lat="49.07411" lon="3.85445">
        <ele>69.3</ele>
        <time>2020-06-30T20:50:21Z</time>
      </trkpt>
      <trkpt lat="49.07412" lon="3.85437">
        <ele>69.3</ele>
        <time>2020-06-30T20:50:22Z</time>
      </trkpt>
      <trkpt lat="49.07413" lon="3.85429">
        <ele>69.3</ele>
        <time>2020-06-30T20:50:23Z</time>
      </trkpt>
      <trkpt lat="49.07413" lon="3.8542">
        <ele>69.3</ele>
        <time>2020-06-30T20:50:24Z</time>
      </trkpt>
      <trkpt lat="49.07414" lon="3.85411">
        <ele>69.3</ele>
        <time>2020-06-30T20:50:25Z</time>
      </trkpt>
      <trkpt lat="49.07415" lon="3.85402">
        <ele>69.2</ele>
        <time>2020-06-30T20:50:26Z</time>
      </trkpt>
      <trkpt lat="49.07415" lon="3.85393">
        <ele>69.2</ele>
        <time>2020-06-30T20:50:27Z</time>
      </trkpt>
      <trkpt lat="49.07416" lon="3.85382">
        <ele>69.1</ele>
        <time>2020-06-30T20:50:28Z</time>
      </trkpt>
      <trkpt lat="49.07416" lon="3.85373">
        <ele>69</ele>
        <time>2020-06-30T20:50:29Z</time>
      </trkpt>
      <trkpt lat="49.07416" lon="3.85365">
        <ele>68.9</ele>
        <time>2020-06-30T20:50:30Z</time>
      </trkpt>
      <trkpt lat="49.07417" lon="3.85356">
        <ele>68.8</ele>
        <time>2020-06-30T20:50:31Z</time>
      </trkpt>
      <trkpt lat="49.07418" lon="3.85347">
        <ele>68.7</ele>
        <time>2020-06-30T20:50:32Z</time>
      </trkpt>
      <trkpt lat="49.07419" lon="3.85337">
        <ele>68.7</ele>
        <time>2020-06-30T20:50:33Z</time>
      </trkpt>
      <trkpt lat="49.0742" lon="3.85327">
        <ele>68.6</ele>
        <time>2020-06-30T20:50:34Z</time>
      </trkpt>
      <trkpt lat="49.07421" lon="3.85318">
        <ele>68.6</ele>
        <time>2020-06-30T20:50:35Z</time>
      </trkpt>
      <trkpt lat="49.07421" lon="3.8531">
        <ele>68.6</ele>
        <time>2020-06-30T20:50:36Z</time>
      </trkpt>
      <trkpt lat="49.07422" lon="3.85302">
        <ele>68.5</ele>
        <time>2020-06-30T20:50:37Z</time>
      </trkpt>
      <trkpt lat="49.07422" lon="3.85293">
        <ele>68.5</ele>
        <time>2020-06-30T20:50:38Z</time>
      </trkpt>
      <trkpt lat="49.07422" lon="3.85284">
        <ele>68.5</ele>
        <time>2020-06-30T20:50:39Z</time>
      </trkpt>
      <trkpt lat="49.07423" lon="3.85275">
        <ele>68.5</ele>
        <time>2020-06-30T20:50:40Z</time>
      </trkpt>
      <trkpt lat="49.07424" lon="3.85266">
        <ele>68.5</ele>
        <time>2020-06-30T20:50:41Z</time>
      </trkpt>
      <trkpt lat="49.07425" lon="3.85257">
        <ele>68.6</ele>
        <time>2020-06-30T20:50:42Z</time>
      </trkpt>
      <trkpt lat="49.07425" lon="3.85248">
        <ele>68.6</ele>
        <time>2020-06-30T20:50:43Z</time>
      </trkpt>
      <trkpt lat="49.07426" lon="3.85239">
        <ele>68.6</ele>
        <time>2020-06-30T20:50:44Z</time>
      </trkpt>
      <trkpt lat="49.07427" lon="3.8523">
        <ele>68.5</ele>
        <time>2020-06-30T20:50:45Z</time>
      </trkpt>
      <trkpt lat="49.07428" lon="3.8522">
        <ele>68.5</ele>
        <time>2020-06-30T20:50:46Z</time>
      </trkpt>
      <trkpt lat="49.07429" lon="3.85211">
        <ele>68.4</ele>
        <time>2020-06-30T20:50:47Z</time>
      </trkpt>
      <trkpt lat="49.07429" lon="3.85203">
        <ele>68.4</ele>
        <time>2020-06-30T20:50:48Z</time>
      </trkpt>
      <trkpt lat="49.0743" lon="3.85195">
        <ele>68.3</ele>
        <time>2020-06-30T20:50:49Z</time>
      </trkpt>
      <trkpt lat="49.07431" lon="3.85185">
        <ele>68.3</ele>
        <time>2020-06-30T20:50:50Z</time>
      </trkpt>
      <trkpt lat="49.07432" lon="3.85175">
        <ele>68.2</ele>
        <time>2020-06-30T20:50:51Z</time>
      </trkpt>
      <trkpt lat="49.07433" lon="3.85165">
        <ele>68.1</ele>
        <time>2020-06-30T20:50:52Z</time>
      </trkpt>
      <trkpt lat="49.07434" lon="3.85157">
        <ele>68.1</ele>
        <time>2020-06-30T20:50:53Z</time>
      </trkpt>
      <trkpt lat="49.07434" lon="3.85149">
        <ele>68.1</ele>
        <time>2020-06-30T20:50:54Z</time>
      </trkpt>
      <trkpt lat="49.07435" lon="3.8514">
        <ele>68.1</ele>
        <time>2020-06-30T20:50:55Z</time>
      </trkpt>
      <trkpt lat="49.07436" lon="3.8513">
        <ele>68.1</ele>
        <time>2020-06-30T20:50:56Z</time>
      </trkpt>
      <trkpt lat="49.07438" lon="3.85124">
        <ele>68.1</ele>
        <time>2020-06-30T20:50:57Z</time>
      </trkpt>
      <trkpt lat="49.07438" lon="3.85114">
        <ele>68.1</ele>
        <time>2020-06-30T20:50:58Z</time>
      </trkpt>
      <trkpt lat="49.07438" lon="3.85106">
        <ele>68.1</ele>
        <time>2020-06-30T20:50:59Z</time>
      </trkpt>
      <trkpt lat="49.07439" lon="3.85098">
        <ele>68.1</ele>
        <time>2020-06-30T20:51:00Z</time>
      </trkpt>
      <trkpt lat="49.0744" lon="3.85088">
        <ele>68.2</ele>
        <time>2020-06-30T20:51:01Z</time>
      </trkpt>
      <trkpt lat="49.07442" lon="3.85078">
        <ele>68.2</ele>
        <time>2020-06-30T20:51:02Z</time>
      </trkpt>
      <trkpt lat="49.07443" lon="3.8507">
        <ele>68.2</ele>
        <time>2020-06-30T20:51:03Z</time>
      </trkpt>
      <trkpt lat="49.07443" lon="3.8506">
        <ele>68.2</ele>
        <time>2020-06-30T20:51:04Z</time>
      </trkpt>
      <trkpt lat="49.07444" lon="3.8505">
        <ele>68.3</ele>
        <time>2020-06-30T20:51:05Z</time>
      </trkpt>
      <trkpt lat="49.07446" lon="3.85042">
        <ele>68.3</ele>
        <time>2020-06-30T20:51:06Z</time>
      </trkpt>
      <trkpt lat="49.07446" lon="3.85034">
        <ele>68.4</ele>
        <time>2020-06-30T20:51:07Z</time>
      </trkpt>
      <trkpt lat="49.07446" lon="3.85026">
        <ele>68.4</ele>
        <time>2020-06-30T20:51:08Z</time>
      </trkpt>
      <trkpt lat="49.07446" lon="3.85017">
        <ele>68.5</ele>
        <time>2020-06-30T20:51:09Z</time>
      </trkpt>
      <trkpt lat="49.07446" lon="3.85008">
        <ele>68.5</ele>
        <time>2020-06-30T20:51:10Z</time>
      </trkpt>
      <trkpt lat="49.07447" lon="3.84999">
        <ele>68.5</ele>
        <time>2020-06-30T20:51:11Z</time>
      </trkpt>
      <trkpt lat="49.07448" lon="3.84988">
        <ele>68.5</ele>
        <time>2020-06-30T20:51:12Z</time>
      </trkpt>
      <trkpt lat="49.07449" lon="3.84979">
        <ele>68.5</ele>
        <time>2020-06-30T20:51:13Z</time>
      </trkpt>
      <trkpt lat="49.07451" lon="3.84972">
        <ele>68.5</ele>
        <time>2020-06-30T20:51:14Z</time>
      </trkpt>
      <trkpt lat="49.07452" lon="3.84965">
        <ele>68.5</ele>
        <time>2020-06-30T20:51:15Z</time>
      </trkpt>
      <trkpt lat="49.07452" lon="3.84958">
        <ele>68.5</ele>
        <time>2020-06-30T20:51:16Z</time>
      </trkpt>
      <trkpt lat="49.07453" lon="3.84948">
        <ele>68.6</ele>
        <time>2020-06-30T20:51:17Z</time>
      </trkpt>
      <trkpt lat="49.07454" lon="3.8494">
        <ele>68.6</ele>
        <time>2020-06-30T20:51:18Z</time>
      </trkpt>
      <trkpt lat="49.07455" lon="3.84934">
        <ele>68.6</ele>
        <time>2020-06-30T20:51:19Z</time>
      </trkpt>
      <trkpt lat="49.07455" lon="3.84923">
        <ele>68.7</ele>
        <time>2020-06-30T20:51:20Z</time>
      </trkpt>
      <trkpt lat="49.07455" lon="3.84915">
        <ele>68.7</ele>
        <time>2020-06-30T20:51:21Z</time>
      </trkpt>
      <trkpt lat="49.07456" lon="3.84907">
        <ele>68.7</ele>
        <time>2020-06-30T20:51:22Z</time>
      </trkpt>
      <trkpt lat="49.07458" lon="3.84898">
        <ele>68.8</ele>
        <time>2020-06-30T20:51:23Z</time>
      </trkpt>
      <trkpt lat="49.07458" lon="3.84888">
        <ele>68.8</ele>
        <time>2020-06-30T20:51:24Z</time>
      </trkpt>
      <trkpt lat="49.0746" lon="3.8488">
        <ele>68.9</ele>
        <time>2020-06-30T20:51:25Z</time>
      </trkpt>
      <trkpt lat="49.0746" lon="3.84871">
        <ele>68.9</ele>
        <time>2020-06-30T20:51:26Z</time>
      </trkpt>
      <trkpt lat="49.0746" lon="3.84862">
        <ele>68.8</ele>
        <time>2020-06-30T20:51:27Z</time>
      </trkpt>
      <trkpt lat="49.07461" lon="3.84854">
        <ele>68.8</ele>
        <time>2020-06-30T20:51:28Z</time>
      </trkpt>
      <trkpt lat="49.07462" lon="3.84848">
        <ele>68.8</ele>
        <time>2020-06-30T20:51:29Z</time>
      </trkpt>
      <trkpt lat="49.07463" lon="3.84841">
        <ele>68.8</ele>
        <time>2020-06-30T20:51:30Z</time>
      </trkpt>
      <trkpt lat="49.07463" lon="3.84835">
        <ele>68.8</ele>
        <time>2020-06-30T20:51:31Z</time>
      </trkpt>
      <trkpt lat="49.07464" lon="3.84828">
        <ele>68.8</ele>
        <time>2020-06-30T20:51:32Z</time>
      </trkpt>
      <trkpt lat="49.07464" lon="3.8482">
        <ele>68.8</ele>
        <time>2020-06-30T20:51:33Z</time>
      </trkpt>
      <trkpt lat="49.07465" lon="3.84811">
        <ele>68.8</ele>
        <time>2020-06-30T20:51:34Z</time>
      </trkpt>
      <trkpt lat="49.07466" lon="3.84803">
        <ele>68.8</ele>
        <time>2020-06-30T20:51:35Z</time>
      </trkpt>
      <trkpt lat="49.07466" lon="3.84797">
        <ele>68.8</ele>
        <time>2020-06-30T20:51:36Z</time>
      </trkpt>
      <trkpt lat="49.07468" lon="3.84793">
        <ele>68.8</ele>
        <time>2020-06-30T20:51:37Z</time>
      </trkpt>
      <trkpt lat="49.07468" lon="3.8479">
        <ele>68.8</ele>
        <time>2020-06-30T20:51:38Z</time>
      </trkpt>
      <trkpt lat="49.07469" lon="3.84783">
        <ele>68.8</ele>
        <time>2020-06-30T20:51:39Z</time>
      </trkpt>
      <trkpt lat="49.0747" lon="3.84774">
        <ele>68.9</ele>
        <time>2020-06-30T20:51:40Z</time>
      </trkpt>
      <trkpt lat="49.0747" lon="3.84766">
        <ele>69</ele>
        <time>2020-06-30T20:51:41Z</time>
      </trkpt>
      <trkpt lat="49.07471" lon="3.84758">
        <ele>69.1</ele>
        <time>2020-06-30T20:51:42Z</time>
      </trkpt>
      <trkpt lat="49.07471" lon="3.8475">
        <ele>69.2</ele>
        <time>2020-06-30T20:51:43Z</time>
      </trkpt>
      <trkpt lat="49.07472" lon="3.84745">
        <ele>69.2</ele>
        <time>2020-06-30T20:51:44Z</time>
      </trkpt>
      <trkpt lat="49.07472" lon="3.8474">
        <ele>69.2</ele>
        <time>2020-06-30T20:51:45Z</time>
      </trkpt>
      <trkpt lat="49.07472" lon="3.84736">
        <ele>69.2</ele>
        <time>2020-06-30T20:51:46Z</time>
      </trkpt>
      <trkpt lat="49.07473" lon="3.84735">
        <ele>69.3</ele>
        <time>2020-06-30T20:51:47Z</time>
      </trkpt>
      <trkpt lat="49.07474" lon="3.84733">
        <ele>69.3</ele>
        <time>2020-06-30T20:51:48Z</time>
      </trkpt>
      <trkpt lat="49.07474" lon="3.84732">
        <ele>69.3</ele>
        <time>2020-06-30T20:51:49Z</time>
      </trkpt>
      <trkpt lat="49.07475" lon="3.8473">
        <ele>69.3</ele>
        <time>2020-06-30T20:51:50Z</time>
      </trkpt>
      <trkpt lat="49.07474" lon="3.84729">
        <ele>69.3</ele>
        <time>2020-06-30T20:51:51Z</time>
      </trkpt>
      <trkpt lat="49.07474" lon="3.84725">
        <ele>69.2</ele>
        <time>2020-06-30T20:51:52Z</time>
      </trkpt>
      <trkpt lat="49.07473" lon="3.84724">
        <ele>69.2</ele>
        <time>2020-06-30T20:51:53Z</time>
      </trkpt>
      <trkpt lat="49.07472" lon="3.84721">
        <ele>69.2</ele>
        <time>2020-06-30T20:51:54Z</time>
      </trkpt>
      <trkpt lat="49.07473" lon="3.84716">
        <ele>69.1</ele>
        <time>2020-06-30T20:51:55Z</time>
      </trkpt>
      <trkpt lat="49.07474" lon="3.84709">
        <ele>68.9</ele>
        <time>2020-06-30T20:51:56Z</time>
      </trkpt>
      <trkpt lat="49.07475" lon="3.84699">
        <ele>68.5</ele>
        <time>2020-06-30T20:51:57Z</time>
      </trkpt>
      <trkpt lat="49.07476" lon="3.84689">
        <ele>68.1</ele>
        <time>2020-06-30T20:51:58Z</time>
      </trkpt>
      <trkpt lat="49.07478" lon="3.8468">
        <ele>67.7</ele>
        <time>2020-06-30T20:51:59Z</time>
      </trkpt>
      <trkpt lat="49.07479" lon="3.84669">
        <ele>67.3</ele>
        <time>2020-06-30T20:52:00Z</time>
      </trkpt>
      <trkpt lat="49.07479" lon="3.84655">
        <ele>67</ele>
        <time>2020-06-30T20:52:01Z</time>
      </trkpt>
      <trkpt lat="49.07479" lon="3.84643">
        <ele>66.8</ele>
        <time>2020-06-30T20:52:02Z</time>
      </trkpt>
      <trkpt lat="49.07479" lon="3.84631">
        <ele>66.7</ele>
        <time>2020-06-30T20:52:03Z</time>
      </trkpt>
      <trkpt lat="49.0748" lon="3.8462">
        <ele>66.6</ele>
        <time>2020-06-30T20:52:04Z</time>
      </trkpt>
      <trkpt lat="49.0748" lon="3.84608">
        <ele>66.5</ele>
        <time>2020-06-30T20:52:05Z</time>
      </trkpt>
      <trkpt lat="49.07481" lon="3.84596">
        <ele>66.4</ele>
        <time>2020-06-30T20:52:06Z</time>
      </trkpt>
      <trkpt lat="49.07483" lon="3.84585">
        <ele>66.4</ele>
        <time>2020-06-30T20:52:07Z</time>
      </trkpt>
      <trkpt lat="49.07484" lon="3.84575">
        <ele>66.3</ele>
        <time>2020-06-30T20:52:08Z</time>
      </trkpt>
      <trkpt lat="49.07485" lon="3.84565">
        <ele>66.3</ele>
        <time>2020-06-30T20:52:09Z</time>
      </trkpt>
      <trkpt lat="49.07487" lon="3.84556">
        <ele>66.3</ele>
        <time>2020-06-30T20:52:10Z</time>
      </trkpt>
      <trkpt lat="49.07488" lon="3.84546">
        <ele>66.3</ele>
        <time>2020-06-30T20:52:11Z</time>
      </trkpt>
      <trkpt lat="49.0749" lon="3.84536">
        <ele>66.4</ele>
        <time>2020-06-30T20:52:12Z</time>
      </trkpt>
      <trkpt lat="49.07491" lon="3.84525">
        <ele>66.4</ele>
        <time>2020-06-30T20:52:13Z</time>
      </trkpt>
      <trkpt lat="49.07493" lon="3.84515">
        <ele>66.5</ele>
        <time>2020-06-30T20:52:14Z</time>
      </trkpt>
      <trkpt lat="49.07495" lon="3.84505">
        <ele>66.5</ele>
        <time>2020-06-30T20:52:15Z</time>
      </trkpt>
      <trkpt lat="49.07496" lon="3.84496">
        <ele>66.5</ele>
        <time>2020-06-30T20:52:16Z</time>
      </trkpt>
      <trkpt lat="49.07497" lon="3.84487">
        <ele>66.5</ele>
        <time>2020-06-30T20:52:17Z</time>
      </trkpt>
      <trkpt lat="49.07499" lon="3.84477">
        <ele>66.5</ele>
        <time>2020-06-30T20:52:18Z</time>
      </trkpt>
      <trkpt lat="49.07501" lon="3.84467">
        <ele>66.5</ele>
        <time>2020-06-30T20:52:19Z</time>
      </trkpt>
      <trkpt lat="49.07502" lon="3.84458">
        <ele>66.5</ele>
        <time>2020-06-30T20:52:20Z</time>
      </trkpt>
      <trkpt lat="49.07504" lon="3.84448">
        <ele>66.5</ele>
        <time>2020-06-30T20:52:21Z</time>
      </trkpt>
      <trkpt lat="49.07505" lon="3.84439">
        <ele>66.6</ele>
        <time>2020-06-30T20:52:22Z</time>
      </trkpt>
      <trkpt lat="49.07507" lon="3.84429">
        <ele>66.6</ele>
        <time>2020-06-30T20:52:23Z</time>
      </trkpt>
      <trkpt lat="49.07508" lon="3.84419">
        <ele>66.6</ele>
        <time>2020-06-30T20:52:24Z</time>
      </trkpt>
      <trkpt lat="49.07509" lon="3.8441">
        <ele>66.7</ele>
        <time>2020-06-30T20:52:25Z</time>
      </trkpt>
      <trkpt lat="49.07511" lon="3.844">
        <ele>66.7</ele>
        <time>2020-06-30T20:52:26Z</time>
      </trkpt>
      <trkpt lat="49.07512" lon="3.84391">
        <ele>66.8</ele>
        <time>2020-06-30T20:52:27Z</time>
      </trkpt>
      <trkpt lat="49.07512" lon="3.84381">
        <ele>66.8</ele>
        <time>2020-06-30T20:52:28Z</time>
      </trkpt>
      <trkpt lat="49.07513" lon="3.84372">
        <ele>66.8</ele>
        <time>2020-06-30T20:52:29Z</time>
      </trkpt>
      <trkpt lat="49.07515" lon="3.84363">
        <ele>66.8</ele>
        <time>2020-06-30T20:52:30Z</time>
      </trkpt>
      <trkpt lat="49.07516" lon="3.84354">
        <ele>66.8</ele>
        <time>2020-06-30T20:52:31Z</time>
      </trkpt>
      <trkpt lat="49.07518" lon="3.84345">
        <ele>66.8</ele>
        <time>2020-06-30T20:52:32Z</time>
      </trkpt>
      <trkpt lat="49.07518" lon="3.84336">
        <ele>66.8</ele>
        <time>2020-06-30T20:52:33Z</time>
      </trkpt>
      <trkpt lat="49.0752" lon="3.8433">
        <ele>66.9</ele>
        <time>2020-06-30T20:52:34Z</time>
      </trkpt>
      <trkpt lat="49.07521" lon="3.84322">
        <ele>66.9</ele>
        <time>2020-06-30T20:52:35Z</time>
      </trkpt>
      <trkpt lat="49.07521" lon="3.84312">
        <ele>66.9</ele>
        <time>2020-06-30T20:52:36Z</time>
      </trkpt>
      <trkpt lat="49.07523" lon="3.84301">
        <ele>66.9</ele>
        <time>2020-06-30T20:52:37Z</time>
      </trkpt>
      <trkpt lat="49.07524" lon="3.84293">
        <ele>66.9</ele>
        <time>2020-06-30T20:52:38Z</time>
      </trkpt>
      <trkpt lat="49.07524" lon="3.84283">
        <ele>66.9</ele>
        <time>2020-06-30T20:52:39Z</time>
      </trkpt>
      <trkpt lat="49.07525" lon="3.84276">
        <ele>66.9</ele>
        <time>2020-06-30T20:52:40Z</time>
      </trkpt>
      <trkpt lat="49.07526" lon="3.84269">
        <ele>66.9</ele>
        <time>2020-06-30T20:52:41Z</time>
      </trkpt>
      <trkpt lat="49.07528" lon="3.84261">
        <ele>66.9</ele>
        <time>2020-06-30T20:52:42Z</time>
      </trkpt>
      <trkpt lat="49.07529" lon="3.84251">
        <ele>66.9</ele>
        <time>2020-06-30T20:52:43Z</time>
      </trkpt>
      <trkpt lat="49.07531" lon="3.84242">
        <ele>67</ele>
        <time>2020-06-30T20:52:44Z</time>
      </trkpt>
      <trkpt lat="49.07532" lon="3.84233">
        <ele>67</ele>
        <time>2020-06-30T20:52:45Z</time>
      </trkpt>
      <trkpt lat="49.07533" lon="3.84227">
        <ele>67</ele>
        <time>2020-06-30T20:52:46Z</time>
      </trkpt>
      <trkpt lat="49.07534" lon="3.84218">
        <ele>67</ele>
        <time>2020-06-30T20:52:47Z</time>
      </trkpt>
      <trkpt lat="49.07535" lon="3.8421">
        <ele>67</ele>
        <time>2020-06-30T20:52:48Z</time>
      </trkpt>
      <trkpt lat="49.07536" lon="3.842">
        <ele>67</ele>
        <time>2020-06-30T20:52:49Z</time>
      </trkpt>
      <trkpt lat="49.07538" lon="3.84191">
        <ele>67</ele>
        <time>2020-06-30T20:52:50Z</time>
      </trkpt>
      <trkpt lat="49.07539" lon="3.84179">
        <ele>67</ele>
        <time>2020-06-30T20:52:51Z</time>
      </trkpt>
      <trkpt lat="49.07541" lon="3.84171">
        <ele>67</ele>
        <time>2020-06-30T20:52:52Z</time>
      </trkpt>
      <trkpt lat="49.07543" lon="3.84162">
        <ele>67</ele>
        <time>2020-06-30T20:52:53Z</time>
      </trkpt>
      <trkpt lat="49.07545" lon="3.84154">
        <ele>67.1</ele>
        <time>2020-06-30T20:52:54Z</time>
      </trkpt>
      <trkpt lat="49.07546" lon="3.84149">
        <ele>67.1</ele>
        <time>2020-06-30T20:52:55Z</time>
      </trkpt>
      <trkpt lat="49.07547" lon="3.84144">
        <ele>67.1</ele>
        <time>2020-06-30T20:52:56Z</time>
      </trkpt>
      <trkpt lat="49.07548" lon="3.84138">
        <ele>67.1</ele>
        <time>2020-06-30T20:52:57Z</time>
      </trkpt>
      <trkpt lat="49.07549" lon="3.84134">
        <ele>67.1</ele>
        <time>2020-06-30T20:52:58Z</time>
      </trkpt>
      <trkpt lat="49.0755" lon="3.84129">
        <ele>67</ele>
        <time>2020-06-30T20:52:59Z</time>
      </trkpt>
      <trkpt lat="49.07551" lon="3.84124">
        <ele>67</ele>
        <time>2020-06-30T20:53:00Z</time>
      </trkpt>
      <trkpt lat="49.07551" lon="3.84121">
        <ele>67</ele>
        <time>2020-06-30T20:53:01Z</time>
      </trkpt>
      <trkpt lat="49.07551" lon="3.84117">
        <ele>67</ele>
        <time>2020-06-30T20:53:02Z</time>
      </trkpt>
      <trkpt lat="49.0755" lon="3.8411">
        <ele>67</ele>
        <time>2020-06-30T20:53:03Z</time>
      </trkpt>
      <trkpt lat="49.07551" lon="3.84102">
        <ele>67</ele>
        <time>2020-06-30T20:53:04Z</time>
      </trkpt>
      <trkpt lat="49.07552" lon="3.84095">
        <ele>66.9</ele>
        <time>2020-06-30T20:53:05Z</time>
      </trkpt>
      <trkpt lat="49.07553" lon="3.84086">
        <ele>66.9</ele>
        <time>2020-06-30T20:53:06Z</time>
      </trkpt>
      <trkpt lat="49.07556" lon="3.84083">
        <ele>66.9</ele>
        <time>2020-06-30T20:53:07Z</time>
      </trkpt>
      <trkpt lat="49.07556" lon="3.84077">
        <ele>66.9</ele>
        <time>2020-06-30T20:53:08Z</time>
      </trkpt>
      <trkpt lat="49.07557" lon="3.84072">
        <ele>66.9</ele>
        <time>2020-06-30T20:53:09Z</time>
      </trkpt>
      <trkpt lat="49.07558" lon="3.84064">
        <ele>66.9</ele>
        <time>2020-06-30T20:53:10Z</time>
      </trkpt>
      <trkpt lat="49.07558" lon="3.84056">
        <ele>66.8</ele>
        <time>2020-06-30T20:53:11Z</time>
      </trkpt>
      <trkpt lat="49.07559" lon="3.84048">
        <ele>66.8</ele>
        <time>2020-06-30T20:53:12Z</time>
      </trkpt>
      <trkpt lat="49.07561" lon="3.84043">
        <ele>66.8</ele>
        <time>2020-06-30T20:53:13Z</time>
      </trkpt>
      <trkpt lat="49.07562" lon="3.84038">
        <ele>66.8</ele>
        <time>2020-06-30T20:53:14Z</time>
      </trkpt>
      <trkpt lat="49.07563" lon="3.84034">
        <ele>66.8</ele>
        <time>2020-06-30T20:53:15Z</time>
      </trkpt>
      <trkpt lat="49.07565" lon="3.84027">
        <ele>66.8</ele>
        <time>2020-06-30T20:53:16Z</time>
      </trkpt>
      <trkpt lat="49.07567" lon="3.8402">
        <ele>66.8</ele>
        <time>2020-06-30T20:53:17Z</time>
      </trkpt>
      <trkpt lat="49.07569" lon="3.84014">
        <ele>66.8</ele>
        <time>2020-06-30T20:53:18Z</time>
      </trkpt>
      <trkpt lat="49.07572" lon="3.84007">
        <ele>66.8</ele>
        <time>2020-06-30T20:53:19Z</time>
      </trkpt>
      <trkpt lat="49.07574" lon="3.84">
        <ele>66.8</ele>
        <time>2020-06-30T20:53:20Z</time>
      </trkpt>
      <trkpt lat="49.07575" lon="3.83993">
        <ele>66.8</ele>
        <time>2020-06-30T20:53:21Z</time>
      </trkpt>
      <trkpt lat="49.07577" lon="3.83984">
        <ele>66.8</ele>
        <time>2020-06-30T20:53:22Z</time>
      </trkpt>
      <trkpt lat="49.0758" lon="3.83975">
        <ele>66.8</ele>
        <time>2020-06-30T20:53:23Z</time>
      </trkpt>
      <trkpt lat="49.07582" lon="3.83968">
        <ele>66.8</ele>
        <time>2020-06-30T20:53:24Z</time>
      </trkpt>
      <trkpt lat="49.07584" lon="3.8396">
        <ele>66.8</ele>
        <time>2020-06-30T20:53:25Z</time>
      </trkpt>
      <trkpt lat="49.07587" lon="3.83953">
        <ele>66.8</ele>
        <time>2020-06-30T20:53:26Z</time>
      </trkpt>
      <trkpt lat="49.07588" lon="3.83946">
        <ele>66.8</ele>
        <time>2020-06-30T20:53:27Z</time>
      </trkpt>
      <trkpt lat="49.0759" lon="3.83938">
        <ele>66.9</ele>
        <time>2020-06-30T20:53:28Z</time>
      </trkpt>
      <trkpt lat="49.07591" lon="3.83932">
        <ele>66.9</ele>
        <time>2020-06-30T20:53:29Z</time>
      </trkpt>
      <trkpt lat="49.07592" lon="3.83928">
        <ele>66.9</ele>
        <time>2020-06-30T20:53:30Z</time>
      </trkpt>
      <trkpt lat="49.07592" lon="3.83923">
        <ele>66.9</ele>
        <time>2020-06-30T20:53:31Z</time>
      </trkpt>
      <trkpt lat="49.07593" lon="3.83918">
        <ele>66.9</ele>
        <time>2020-06-30T20:53:32Z</time>
      </trkpt>
      <trkpt lat="49.07595" lon="3.83911">
        <ele>66.9</ele>
        <time>2020-06-30T20:53:33Z</time>
      </trkpt>
      <trkpt lat="49.07597" lon="3.83906">
        <ele>66.9</ele>
        <time>2020-06-30T20:53:34Z</time>
      </trkpt>
      <trkpt lat="49.07599" lon="3.83899">
        <ele>66.9</ele>
        <time>2020-06-30T20:53:35Z</time>
      </trkpt>
      <trkpt lat="49.07601" lon="3.83894">
        <ele>66.9</ele>
        <time>2020-06-30T20:53:36Z</time>
      </trkpt>
      <trkpt lat="49.07603" lon="3.83888">
        <ele>66.9</ele>
        <time>2020-06-30T20:53:37Z</time>
      </trkpt>
      <trkpt lat="49.07605" lon="3.83883">
        <ele>66.9</ele>
        <time>2020-06-30T20:53:38Z</time>
      </trkpt>
      <trkpt lat="49.07606" lon="3.8388">
        <ele>66.9</ele>
        <time>2020-06-30T20:53:39Z</time>
      </trkpt>
      <trkpt lat="49.07606" lon="3.83881">
        <ele>66.9</ele>
        <time>2020-06-30T20:53:40Z</time>
      </trkpt>
      <trkpt lat="49.07606" lon="3.83881">
        <ele>66.9</ele>
        <time>2020-06-30T20:53:41Z</time>
      </trkpt>
      <trkpt lat="49.07606" lon="3.83881">
        <ele>66.9</ele>
        <time>2020-06-30T20:53:42Z</time>
      </trkpt>
      <trkpt lat="49.07606" lon="3.8388">
        <ele>66.9</ele>
        <time>2020-06-30T20:53:43Z</time>
      </trkpt>
      <trkpt lat="49.07608" lon="3.83879">
        <ele>66.9</ele>
        <time>2020-06-30T20:53:44Z</time>
      </trkpt>
      <trkpt lat="49.07611" lon="3.83882">
        <ele>66.9</ele>
        <time>2020-06-30T20:53:45Z</time>
      </trkpt>
      <trkpt lat="49.07611" lon="3.83882">
        <ele>66.9</ele>
        <time>2020-06-30T20:53:46Z</time>
      </trkpt>
      <trkpt lat="49.07612" lon="3.83882">
        <ele>66.9</ele>
        <time>2020-06-30T20:53:47Z</time>
      </trkpt>
      <trkpt lat="49.07615" lon="3.83881">
        <ele>66.9</ele>
        <time>2020-06-30T20:53:48Z</time>
      </trkpt>
      <trkpt lat="49.07617" lon="3.83877">
        <ele>66.9</ele>
        <time>2020-06-30T20:53:49Z</time>
      </trkpt>
      <trkpt lat="49.07618" lon="3.83876">
        <ele>66.9</ele>
        <time>2020-06-30T20:53:50Z</time>
      </trkpt>
      <trkpt lat="49.07619" lon="3.83871">
        <ele>66.9</ele>
        <time>2020-06-30T20:53:51Z</time>
      </trkpt>
      <trkpt lat="49.0762" lon="3.83868">
        <ele>66.9</ele>
        <time>2020-06-30T20:53:52Z</time>
      </trkpt>
      <trkpt lat="49.07621" lon="3.83862">
        <ele>66.8</ele>
        <time>2020-06-30T20:53:53Z</time>
      </trkpt>
      <trkpt lat="49.07622" lon="3.8386">
        <ele>66.8</ele>
        <time>2020-06-30T20:53:54Z</time>
      </trkpt>
      <trkpt lat="49.07621" lon="3.83854">
        <ele>66.8</ele>
        <time>2020-06-30T20:53:55Z</time>
      </trkpt>
      <trkpt lat="49.07622" lon="3.8385">
        <ele>66.8</ele>
        <time>2020-06-30T20:53:56Z</time>
      </trkpt>
      <trkpt lat="49.07623" lon="3.83842">
        <ele>66.7</ele>
        <time>2020-06-30T20:53:57Z</time>
      </trkpt>
      <trkpt lat="49.07623" lon="3.83837">
        <ele>66.7</ele>
        <time>2020-06-30T20:53:58Z</time>
      </trkpt>
      <trkpt lat="49.07624" lon="3.83832">
        <ele>66.7</ele>
        <time>2020-06-30T20:53:59Z</time>
      </trkpt>
      <trkpt lat="49.07624" lon="3.83825">
        <ele>66.6</ele>
        <time>2020-06-30T20:54:00Z</time>
      </trkpt>
      <trkpt lat="49.07626" lon="3.83819">
        <ele>66.6</ele>
        <time>2020-06-30T20:54:01Z</time>
      </trkpt>
      <trkpt lat="49.07626" lon="3.83811">
        <ele>66.5</ele>
        <time>2020-06-30T20:54:02Z</time>
      </trkpt>
      <trkpt lat="49.07627" lon="3.83804">
        <ele>66.4</ele>
        <time>2020-06-30T20:54:03Z</time>
      </trkpt>
      <trkpt lat="49.07628" lon="3.83796">
        <ele>66.3</ele>
        <time>2020-06-30T20:54:04Z</time>
      </trkpt>
      <trkpt lat="49.07628" lon="3.83789">
        <ele>66.2</ele>
        <time>2020-06-30T20:54:05Z</time>
      </trkpt>
      <trkpt lat="49.07628" lon="3.83782">
        <ele>66.1</ele>
        <time>2020-06-30T20:54:06Z</time>
      </trkpt>
      <trkpt lat="49.07629" lon="3.83772">
        <ele>66</ele>
        <time>2020-06-30T20:54:07Z</time>
      </trkpt>
      <trkpt lat="49.0763" lon="3.83764">
        <ele>65.9</ele>
        <time>2020-06-30T20:54:08Z</time>
      </trkpt>
      <trkpt lat="49.07631" lon="3.83754">
        <ele>65.8</ele>
        <time>2020-06-30T20:54:09Z</time>
      </trkpt>
      <trkpt lat="49.07633" lon="3.83743">
        <ele>65.7</ele>
        <time>2020-06-30T20:54:10Z</time>
      </trkpt>
      <trkpt lat="49.07633" lon="3.83732">
        <ele>65.6</ele>
        <time>2020-06-30T20:54:11Z</time>
      </trkpt>
      <trkpt lat="49.07633" lon="3.83723">
        <ele>65.6</ele>
        <time>2020-06-30T20:54:12Z</time>
      </trkpt>
      <trkpt lat="49.07634" lon="3.83712">
        <ele>65.5</ele>
        <time>2020-06-30T20:54:13Z</time>
      </trkpt>
      <trkpt lat="49.07634" lon="3.83702">
        <ele>65.5</ele>
        <time>2020-06-30T20:54:14Z</time>
      </trkpt>
      <trkpt lat="49.07634" lon="3.83693">
        <ele>65.5</ele>
        <time>2020-06-30T20:54:15Z</time>
      </trkpt>
      <trkpt lat="49.07634" lon="3.83684">
        <ele>65.5</ele>
        <time>2020-06-30T20:54:16Z</time>
      </trkpt>
      <trkpt lat="49.07634" lon="3.83675">
        <ele>65.4</ele>
        <time>2020-06-30T20:54:17Z</time>
      </trkpt>
      <trkpt lat="49.07634" lon="3.83665">
        <ele>65.4</ele>
        <time>2020-06-30T20:54:18Z</time>
      </trkpt>
      <trkpt lat="49.07635" lon="3.83657">
        <ele>65.3</ele>
        <time>2020-06-30T20:54:19Z</time>
      </trkpt>
      <trkpt lat="49.07636" lon="3.83644">
        <ele>65.3</ele>
        <time>2020-06-30T20:54:20Z</time>
      </trkpt>
      <trkpt lat="49.07636" lon="3.83637">
        <ele>65.3</ele>
        <time>2020-06-30T20:54:21Z</time>
      </trkpt>
      <trkpt lat="49.07636" lon="3.83627">
        <ele>65.2</ele>
        <time>2020-06-30T20:54:22Z</time>
      </trkpt>
      <trkpt lat="49.07635" lon="3.83619">
        <ele>65.2</ele>
        <time>2020-06-30T20:54:23Z</time>
      </trkpt>
      <trkpt lat="49.07635" lon="3.83611">
        <ele>65.3</ele>
        <time>2020-06-30T20:54:24Z</time>
      </trkpt>
      <trkpt lat="49.07634" lon="3.83602">
        <ele>65.3</ele>
        <time>2020-06-30T20:54:25Z</time>
      </trkpt>
      <trkpt lat="49.07635" lon="3.83592">
        <ele>65.3</ele>
        <time>2020-06-30T20:54:26Z</time>
      </trkpt>
      <trkpt lat="49.07635" lon="3.83584">
        <ele>65.3</ele>
        <time>2020-06-30T20:54:27Z</time>
      </trkpt>
      <trkpt lat="49.07636" lon="3.83575">
        <ele>65.3</ele>
        <time>2020-06-30T20:54:28Z</time>
      </trkpt>
      <trkpt lat="49.07636" lon="3.83564">
        <ele>65.4</ele>
        <time>2020-06-30T20:54:29Z</time>
      </trkpt>
      <trkpt lat="49.07636" lon="3.83557">
        <ele>65.4</ele>
        <time>2020-06-30T20:54:30Z</time>
      </trkpt>
      <trkpt lat="49.07636" lon="3.83549">
        <ele>65.5</ele>
        <time>2020-06-30T20:54:31Z</time>
      </trkpt>
      <trkpt lat="49.07635" lon="3.83544">
        <ele>65.5</ele>
        <time>2020-06-30T20:54:32Z</time>
      </trkpt>
      <trkpt lat="49.07636" lon="3.83532">
        <ele>65.5</ele>
        <time>2020-06-30T20:54:33Z</time>
      </trkpt>
      <trkpt lat="49.07637" lon="3.83521">
        <ele>65.5</ele>
        <time>2020-06-30T20:54:34Z</time>
      </trkpt>
      <trkpt lat="49.07638" lon="3.83512">
        <ele>65.5</ele>
        <time>2020-06-30T20:54:35Z</time>
      </trkpt>
      <trkpt lat="49.07639" lon="3.83507">
        <ele>65.5</ele>
        <time>2020-06-30T20:54:36Z</time>
      </trkpt>
      <trkpt lat="49.0764" lon="3.83499">
        <ele>65.5</ele>
        <time>2020-06-30T20:54:37Z</time>
      </trkpt>
      <trkpt lat="49.0764" lon="3.83494">
        <ele>65.5</ele>
        <time>2020-06-30T20:54:38Z</time>
      </trkpt>
      <trkpt lat="49.07641" lon="3.83485">
        <ele>65.5</ele>
        <time>2020-06-30T20:54:39Z</time>
      </trkpt>
      <trkpt lat="49.07641" lon="3.83476">
        <ele>65.6</ele>
        <time>2020-06-30T20:54:40Z</time>
      </trkpt>
      <trkpt lat="49.07642" lon="3.83466">
        <ele>65.6</ele>
        <time>2020-06-30T20:54:41Z</time>
      </trkpt>
      <trkpt lat="49.07643" lon="3.83457">
        <ele>65.6</ele>
        <time>2020-06-30T20:54:42Z</time>
      </trkpt>
      <trkpt lat="49.07643" lon="3.83452">
        <ele>65.6</ele>
        <time>2020-06-30T20:54:43Z</time>
      </trkpt>
      <trkpt lat="49.07642" lon="3.83445">
        <ele>65.6</ele>
        <time>2020-06-30T20:54:44Z</time>
      </trkpt>
      <trkpt lat="49.07642" lon="3.83435">
        <ele>65.6</ele>
        <time>2020-06-30T20:54:45Z</time>
      </trkpt>
      <trkpt lat="49.07643" lon="3.83427">
        <ele>65.6</ele>
        <time>2020-06-30T20:54:46Z</time>
      </trkpt>
      <trkpt lat="49.07643" lon="3.83417">
        <ele>65.6</ele>
        <time>2020-06-30T20:54:47Z</time>
      </trkpt>
      <trkpt lat="49.07643" lon="3.83409">
        <ele>65.6</ele>
        <time>2020-06-30T20:54:48Z</time>
      </trkpt>
      <trkpt lat="49.07643" lon="3.83402">
        <ele>65.6</ele>
        <time>2020-06-30T20:54:49Z</time>
      </trkpt>
      <trkpt lat="49.07643" lon="3.83393">
        <ele>65.6</ele>
        <time>2020-06-30T20:54:50Z</time>
      </trkpt>
      <trkpt lat="49.07643" lon="3.83382">
        <ele>65.6</ele>
        <time>2020-06-30T20:54:51Z</time>
      </trkpt>
      <trkpt lat="49.07644" lon="3.8337">
        <ele>65.6</ele>
        <time>2020-06-30T20:54:52Z</time>
      </trkpt>
      <trkpt lat="49.07644" lon="3.83361">
        <ele>65.6</ele>
        <time>2020-06-30T20:54:53Z</time>
      </trkpt>
      <trkpt lat="49.07644" lon="3.83353">
        <ele>65.6</ele>
        <time>2020-06-30T20:54:54Z</time>
      </trkpt>
      <trkpt lat="49.07644" lon="3.83344">
        <ele>65.6</ele>
        <time>2020-06-30T20:54:55Z</time>
      </trkpt>
      <trkpt lat="49.07644" lon="3.83335">
        <ele>65.6</ele>
        <time>2020-06-30T20:54:56Z</time>
      </trkpt>
      <trkpt lat="49.07645" lon="3.83326">
        <ele>65.6</ele>
        <time>2020-06-30T20:54:57Z</time>
      </trkpt>
      <trkpt lat="49.07645" lon="3.83317">
        <ele>65.6</ele>
        <time>2020-06-30T20:54:58Z</time>
      </trkpt>
      <trkpt lat="49.07645" lon="3.83309">
        <ele>65.6</ele>
        <time>2020-06-30T20:54:59Z</time>
      </trkpt>
      <trkpt lat="49.07646" lon="3.83302">
        <ele>65.6</ele>
        <time>2020-06-30T20:55:00Z</time>
      </trkpt>
      <trkpt lat="49.07645" lon="3.83292">
        <ele>65.6</ele>
        <time>2020-06-30T20:55:01Z</time>
      </trkpt>
      <trkpt lat="49.07646" lon="3.83285">
        <ele>65.6</ele>
        <time>2020-06-30T20:55:02Z</time>
      </trkpt>
      <trkpt lat="49.07647" lon="3.83276">
        <ele>65.7</ele>
        <time>2020-06-30T20:55:03Z</time>
      </trkpt>
      <trkpt lat="49.07647" lon="3.83268">
        <ele>65.7</ele>
        <time>2020-06-30T20:55:04Z</time>
      </trkpt>
      <trkpt lat="49.07647" lon="3.8326">
        <ele>65.7</ele>
        <time>2020-06-30T20:55:05Z</time>
      </trkpt>
      <trkpt lat="49.07648" lon="3.83251">
        <ele>65.7</ele>
        <time>2020-06-30T20:55:06Z</time>
      </trkpt>
      <trkpt lat="49.07648" lon="3.83241">
        <ele>65.6</ele>
        <time>2020-06-30T20:55:07Z</time>
      </trkpt>
      <trkpt lat="49.07648" lon="3.83232">
        <ele>65.6</ele>
        <time>2020-06-30T20:55:08Z</time>
      </trkpt>
      <trkpt lat="49.07649" lon="3.83224">
        <ele>65.6</ele>
        <time>2020-06-30T20:55:09Z</time>
      </trkpt>
      <trkpt lat="49.07648" lon="3.83215">
        <ele>65.5</ele>
        <time>2020-06-30T20:55:10Z</time>
      </trkpt>
      <trkpt lat="49.07649" lon="3.83207">
        <ele>65.5</ele>
        <time>2020-06-30T20:55:11Z</time>
      </trkpt>
      <trkpt lat="49.07649" lon="3.83198">
        <ele>65.5</ele>
        <time>2020-06-30T20:55:12Z</time>
      </trkpt>
      <trkpt lat="49.07649" lon="3.8319">
        <ele>65.5</ele>
        <time>2020-06-30T20:55:13Z</time>
      </trkpt>
      <trkpt lat="49.07649" lon="3.83182">
        <ele>65.5</ele>
        <time>2020-06-30T20:55:14Z</time>
      </trkpt>
      <trkpt lat="49.07649" lon="3.83173">
        <ele>65.4</ele>
        <time>2020-06-30T20:55:15Z</time>
      </trkpt>
      <trkpt lat="49.07648" lon="3.83163">
        <ele>65.4</ele>
        <time>2020-06-30T20:55:16Z</time>
      </trkpt>
      <trkpt lat="49.07648" lon="3.83154">
        <ele>65.4</ele>
        <time>2020-06-30T20:55:17Z</time>
      </trkpt>
      <trkpt lat="49.07647" lon="3.83143">
        <ele>65.4</ele>
        <time>2020-06-30T20:55:18Z</time>
      </trkpt>
      <trkpt lat="49.07648" lon="3.83135">
        <ele>65.3</ele>
        <time>2020-06-30T20:55:19Z</time>
      </trkpt>
      <trkpt lat="49.07648" lon="3.83126">
        <ele>65.3</ele>
        <time>2020-06-30T20:55:20Z</time>
      </trkpt>
      <trkpt lat="49.07647" lon="3.83116">
        <ele>65.3</ele>
        <time>2020-06-30T20:55:21Z</time>
      </trkpt>
      <trkpt lat="49.07647" lon="3.83107">
        <ele>65.3</ele>
        <time>2020-06-30T20:55:22Z</time>
      </trkpt>
      <trkpt lat="49.07648" lon="3.83098">
        <ele>65.3</ele>
        <time>2020-06-30T20:55:23Z</time>
      </trkpt>
      <trkpt lat="49.07649" lon="3.83092">
        <ele>65.4</ele>
        <time>2020-06-30T20:55:24Z</time>
      </trkpt>
      <trkpt lat="49.07649" lon="3.83084">
        <ele>65.4</ele>
        <time>2020-06-30T20:55:25Z</time>
      </trkpt>
      <trkpt lat="49.07649" lon="3.83077">
        <ele>65.4</ele>
        <time>2020-06-30T20:55:26Z</time>
      </trkpt>
      <trkpt lat="49.07649" lon="3.83068">
        <ele>65.3</ele>
        <time>2020-06-30T20:55:27Z</time>
      </trkpt>
      <trkpt lat="49.0765" lon="3.83058">
        <ele>65.3</ele>
        <time>2020-06-30T20:55:28Z</time>
      </trkpt>
      <trkpt lat="49.0765" lon="3.83052">
        <ele>65.3</ele>
        <time>2020-06-30T20:55:29Z</time>
      </trkpt>
      <trkpt lat="49.0765" lon="3.83043">
        <ele>65.3</ele>
        <time>2020-06-30T20:55:30Z</time>
      </trkpt>
      <trkpt lat="49.07649" lon="3.83034">
        <ele>65.3</ele>
        <time>2020-06-30T20:55:31Z</time>
      </trkpt>
      <trkpt lat="49.07649" lon="3.83024">
        <ele>65.3</ele>
        <time>2020-06-30T20:55:32Z</time>
      </trkpt>
      <trkpt lat="49.07648" lon="3.83015">
        <ele>65.3</ele>
        <time>2020-06-30T20:55:33Z</time>
      </trkpt>
      <trkpt lat="49.07648" lon="3.83004">
        <ele>65.2</ele>
        <time>2020-06-30T20:55:34Z</time>
      </trkpt>
      <trkpt lat="49.07648" lon="3.82996">
        <ele>65.2</ele>
        <time>2020-06-30T20:55:35Z</time>
      </trkpt>
      <trkpt lat="49.07647" lon="3.82985">
        <ele>65.2</ele>
        <time>2020-06-30T20:55:36Z</time>
      </trkpt>
      <trkpt lat="49.07647" lon="3.82976">
        <ele>65.2</ele>
        <time>2020-06-30T20:55:37Z</time>
      </trkpt>
      <trkpt lat="49.07647" lon="3.82968">
        <ele>65.2</ele>
        <time>2020-06-30T20:55:38Z</time>
      </trkpt>
      <trkpt lat="49.07647" lon="3.82961">
        <ele>65.3</ele>
        <time>2020-06-30T20:55:39Z</time>
      </trkpt>
      <trkpt lat="49.07647" lon="3.82954">
        <ele>65.3</ele>
        <time>2020-06-30T20:55:40Z</time>
      </trkpt>
      <trkpt lat="49.07647" lon="3.82946">
        <ele>65.3</ele>
        <time>2020-06-30T20:55:41Z</time>
      </trkpt>
      <trkpt lat="49.07647" lon="3.82938">
        <ele>65.3</ele>
        <time>2020-06-30T20:55:42Z</time>
      </trkpt>
      <trkpt lat="49.07647" lon="3.82929">
        <ele>65.3</ele>
        <time>2020-06-30T20:55:43Z</time>
      </trkpt>
      <trkpt lat="49.07648" lon="3.82923">
        <ele>65.3</ele>
        <time>2020-06-30T20:55:44Z</time>
      </trkpt>
      <trkpt lat="49.07647" lon="3.82914">
        <ele>65.3</ele>
        <time>2020-06-30T20:55:45Z</time>
      </trkpt>
      <trkpt lat="49.07647" lon="3.82904">
        <ele>65.3</ele>
        <time>2020-06-30T20:55:46Z</time>
      </trkpt>
      <trkpt lat="49.07646" lon="3.82897">
        <ele>65.3</ele>
        <time>2020-06-30T20:55:47Z</time>
      </trkpt>
      <trkpt lat="49.07646" lon="3.82888">
        <ele>65.3</ele>
        <time>2020-06-30T20:55:48Z</time>
      </trkpt>
      <trkpt lat="49.07647" lon="3.82879">
        <ele>65.3</ele>
        <time>2020-06-30T20:55:49Z</time>
      </trkpt>
      <trkpt lat="49.07646" lon="3.82871">
        <ele>65.3</ele>
        <time>2020-06-30T20:55:50Z</time>
      </trkpt>
      <trkpt lat="49.07645" lon="3.82862">
        <ele>65.3</ele>
        <time>2020-06-30T20:55:51Z</time>
      </trkpt>
      <trkpt lat="49.07644" lon="3.82854">
        <ele>65.3</ele>
        <time>2020-06-30T20:55:52Z</time>
      </trkpt>
      <trkpt lat="49.07644" lon="3.82843">
        <ele>65.3</ele>
        <time>2020-06-30T20:55:53Z</time>
      </trkpt>
      <trkpt lat="49.07645" lon="3.82836">
        <ele>65.3</ele>
        <time>2020-06-30T20:55:54Z</time>
      </trkpt>
      <trkpt lat="49.07646" lon="3.82829">
        <ele>65.3</ele>
        <time>2020-06-30T20:55:55Z</time>
      </trkpt>
      <trkpt lat="49.07645" lon="3.82821">
        <ele>65.3</ele>
        <time>2020-06-30T20:55:56Z</time>
      </trkpt>
      <trkpt lat="49.07645" lon="3.82813">
        <ele>65.3</ele>
        <time>2020-06-30T20:55:57Z</time>
      </trkpt>
      <trkpt lat="49.07645" lon="3.82803">
        <ele>65.3</ele>
        <time>2020-06-30T20:55:58Z</time>
      </trkpt>
      <trkpt lat="49.07644" lon="3.82797">
        <ele>65.3</ele>
        <time>2020-06-30T20:55:59Z</time>
      </trkpt>
      <trkpt lat="49.07644" lon="3.82791">
        <ele>65.4</ele>
        <time>2020-06-30T20:56:00Z</time>
      </trkpt>
      <trkpt lat="49.07643" lon="3.82784">
        <ele>65.4</ele>
        <time>2020-06-30T20:56:01Z</time>
      </trkpt>
      <trkpt lat="49.07642" lon="3.82777">
        <ele>65.4</ele>
        <time>2020-06-30T20:56:02Z</time>
      </trkpt>
      <trkpt lat="49.07643" lon="3.82769">
        <ele>65.4</ele>
        <time>2020-06-30T20:56:03Z</time>
      </trkpt>
      <trkpt lat="49.07644" lon="3.82762">
        <ele>65.4</ele>
        <time>2020-06-30T20:56:04Z</time>
      </trkpt>
      <trkpt lat="49.07644" lon="3.82754">
        <ele>65.4</ele>
        <time>2020-06-30T20:56:05Z</time>
      </trkpt>
      <trkpt lat="49.07644" lon="3.82747">
        <ele>65.4</ele>
        <time>2020-06-30T20:56:06Z</time>
      </trkpt>
      <trkpt lat="49.07644" lon="3.82737">
        <ele>65.4</ele>
        <time>2020-06-30T20:56:07Z</time>
      </trkpt>
      <trkpt lat="49.07645" lon="3.82728">
        <ele>65.4</ele>
        <time>2020-06-30T20:56:08Z</time>
      </trkpt>
      <trkpt lat="49.07645" lon="3.82719">
        <ele>65.4</ele>
        <time>2020-06-30T20:56:09Z</time>
      </trkpt>
      <trkpt lat="49.07645" lon="3.82711">
        <ele>65.4</ele>
        <time>2020-06-30T20:56:10Z</time>
      </trkpt>
      <trkpt lat="49.07645" lon="3.82704">
        <ele>65.4</ele>
        <time>2020-06-30T20:56:11Z</time>
      </trkpt>
      <trkpt lat="49.07645" lon="3.82696">
        <ele>65.3</ele>
        <time>2020-06-30T20:56:12Z</time>
      </trkpt>
      <trkpt lat="49.07645" lon="3.82689">
        <ele>65.3</ele>
        <time>2020-06-30T20:56:13Z</time>
      </trkpt>
      <trkpt lat="49.07645" lon="3.82681">
        <ele>65.3</ele>
        <time>2020-06-30T20:56:14Z</time>
      </trkpt>
      <trkpt lat="49.07645" lon="3.82672">
        <ele>65.3</ele>
        <time>2020-06-30T20:56:15Z</time>
      </trkpt>
      <trkpt lat="49.07644" lon="3.82664">
        <ele>65.3</ele>
        <time>2020-06-30T20:56:16Z</time>
      </trkpt>
      <trkpt lat="49.07644" lon="3.82656">
        <ele>65.3</ele>
        <time>2020-06-30T20:56:17Z</time>
      </trkpt>
      <trkpt lat="49.07644" lon="3.82648">
        <ele>65.3</ele>
        <time>2020-06-30T20:56:18Z</time>
      </trkpt>
      <trkpt lat="49.07644" lon="3.82641">
        <ele>65.3</ele>
        <time>2020-06-30T20:56:19Z</time>
      </trkpt>
      <trkpt lat="49.07644" lon="3.82634">
        <ele>65.3</ele>
        <time>2020-06-30T20:56:20Z</time>
      </trkpt>
      <trkpt lat="49.07644" lon="3.82629">
        <ele>65.3</ele>
        <time>2020-06-30T20:56:21Z</time>
      </trkpt>
      <trkpt lat="49.07644" lon="3.82623">
        <ele>65.3</ele>
        <time>2020-06-30T20:56:22Z</time>
      </trkpt>
      <trkpt lat="49.07643" lon="3.82618">
        <ele>65.3</ele>
        <time>2020-06-30T20:56:23Z</time>
      </trkpt>
      <trkpt lat="49.07643" lon="3.82613">
        <ele>65.3</ele>
        <time>2020-06-30T20:56:24Z</time>
      </trkpt>
      <trkpt lat="49.07643" lon="3.82607">
        <ele>65.3</ele>
        <time>2020-06-30T20:56:25Z</time>
      </trkpt>
      <trkpt lat="49.07642" lon="3.82602">
        <ele>65.3</ele>
        <time>2020-06-30T20:56:26Z</time>
      </trkpt>
      <trkpt lat="49.07642" lon="3.82596">
        <ele>65.3</ele>
        <time>2020-06-30T20:56:27Z</time>
      </trkpt>
      <trkpt lat="49.07642" lon="3.8259">
        <ele>65.3</ele>
        <time>2020-06-30T20:56:28Z</time>
      </trkpt>
      <trkpt lat="49.07642" lon="3.82583">
        <ele>65.2</ele>
        <time>2020-06-30T20:56:29Z</time>
      </trkpt>
      <trkpt lat="49.07641" lon="3.82576">
        <ele>65.2</ele>
        <time>2020-06-30T20:56:30Z</time>
      </trkpt>
      <trkpt lat="49.07641" lon="3.82569">
        <ele>65.2</ele>
        <time>2020-06-30T20:56:31Z</time>
      </trkpt>
      <trkpt lat="49.07641" lon="3.82563">
        <ele>65.2</ele>
        <time>2020-06-30T20:56:32Z</time>
      </trkpt>
      <trkpt lat="49.07641" lon="3.82556">
        <ele>65.2</ele>
        <time>2020-06-30T20:56:33Z</time>
      </trkpt>
      <trkpt lat="49.0764" lon="3.82549">
        <ele>65.2</ele>
        <time>2020-06-30T20:56:34Z</time>
      </trkpt>
      <trkpt lat="49.0764" lon="3.8254">
        <ele>65.2</ele>
        <time>2020-06-30T20:56:35Z</time>
      </trkpt>
      <trkpt lat="49.0764" lon="3.82534">
        <ele>65.2</ele>
        <time>2020-06-30T20:56:36Z</time>
      </trkpt>
      <trkpt lat="49.0764" lon="3.82525">
        <ele>65.2</ele>
        <time>2020-06-30T20:56:37Z</time>
      </trkpt>
      <trkpt lat="49.0764" lon="3.82518">
        <ele>65.2</ele>
        <time>2020-06-30T20:56:38Z</time>
      </trkpt>
      <trkpt lat="49.07639" lon="3.8251">
        <ele>65.2</ele>
        <time>2020-06-30T20:56:39Z</time>
      </trkpt>
      <trkpt lat="49.07639" lon="3.82502">
        <ele>65.2</ele>
        <time>2020-06-30T20:56:40Z</time>
      </trkpt>
      <trkpt lat="49.0764" lon="3.82494">
        <ele>65.2</ele>
        <time>2020-06-30T20:56:41Z</time>
      </trkpt>
      <trkpt lat="49.0764" lon="3.82485">
        <ele>65.2</ele>
        <time>2020-06-30T20:56:42Z</time>
      </trkpt>
      <trkpt lat="49.0764" lon="3.82477">
        <ele>65.2</ele>
        <time>2020-06-30T20:56:43Z</time>
      </trkpt>
      <trkpt lat="49.0764" lon="3.82469">
        <ele>65.2</ele>
        <time>2020-06-30T20:56:44Z</time>
      </trkpt>
      <trkpt lat="49.07639" lon="3.82462">
        <ele>65.2</ele>
        <time>2020-06-30T20:56:45Z</time>
      </trkpt>
      <trkpt lat="49.07639" lon="3.82454">
        <ele>65.2</ele>
        <time>2020-06-30T20:56:46Z</time>
      </trkpt>
      <trkpt lat="49.0764" lon="3.82446">
        <ele>65.2</ele>
        <time>2020-06-30T20:56:47Z</time>
      </trkpt>
      <trkpt lat="49.0764" lon="3.82437">
        <ele>65.2</ele>
        <time>2020-06-30T20:56:48Z</time>
      </trkpt>
      <trkpt lat="49.0764" lon="3.82429">
        <ele>65.3</ele>
        <time>2020-06-30T20:56:49Z</time>
      </trkpt>
      <trkpt lat="49.0764" lon="3.8242">
        <ele>65.3</ele>
        <time>2020-06-30T20:56:50Z</time>
      </trkpt>
      <trkpt lat="49.0764" lon="3.82411">
        <ele>65.3</ele>
        <time>2020-06-30T20:56:51Z</time>
      </trkpt>
      <trkpt lat="49.0764" lon="3.82403">
        <ele>65.3</ele>
        <time>2020-06-30T20:56:52Z</time>
      </trkpt>
      <trkpt lat="49.07641" lon="3.82395">
        <ele>65.4</ele>
        <time>2020-06-30T20:56:53Z</time>
      </trkpt>
      <trkpt lat="49.07641" lon="3.82386">
        <ele>65.4</ele>
        <time>2020-06-30T20:56:54Z</time>
      </trkpt>
      <trkpt lat="49.07641" lon="3.82378">
        <ele>65.4</ele>
        <time>2020-06-30T20:56:55Z</time>
      </trkpt>
      <trkpt lat="49.07641" lon="3.8237">
        <ele>65.4</ele>
        <time>2020-06-30T20:56:56Z</time>
      </trkpt>
      <trkpt lat="49.0764" lon="3.82362">
        <ele>65.4</ele>
        <time>2020-06-30T20:56:57Z</time>
      </trkpt>
      <trkpt lat="49.0764" lon="3.82355">
        <ele>65.4</ele>
        <time>2020-06-30T20:56:58Z</time>
      </trkpt>
      <trkpt lat="49.07641" lon="3.82347">
        <ele>65.4</ele>
        <time>2020-06-30T20:56:59Z</time>
      </trkpt>
      <trkpt lat="49.0764" lon="3.82339">
        <ele>65.4</ele>
        <time>2020-06-30T20:57:00Z</time>
      </trkpt>
      <trkpt lat="49.0764" lon="3.82331">
        <ele>65.4</ele>
        <time>2020-06-30T20:57:01Z</time>
      </trkpt>
      <trkpt lat="49.0764" lon="3.82323">
        <ele>65.4</ele>
        <time>2020-06-30T20:57:02Z</time>
      </trkpt>
      <trkpt lat="49.0764" lon="3.82315">
        <ele>65.4</ele>
        <time>2020-06-30T20:57:03Z</time>
      </trkpt>
      <trkpt lat="49.0764" lon="3.82307">
        <ele>65.4</ele>
        <time>2020-06-30T20:57:04Z</time>
      </trkpt>
      <trkpt lat="49.07639" lon="3.82298">
        <ele>65.4</ele>
        <time>2020-06-30T20:57:05Z</time>
      </trkpt>
      <trkpt lat="49.0764" lon="3.8229">
        <ele>65.4</ele>
        <time>2020-06-30T20:57:06Z</time>
      </trkpt>
      <trkpt lat="49.0764" lon="3.82281">
        <ele>65.4</ele>
        <time>2020-06-30T20:57:07Z</time>
      </trkpt>
      <trkpt lat="49.07641" lon="3.82274">
        <ele>65.4</ele>
        <time>2020-06-30T20:57:08Z</time>
      </trkpt>
      <trkpt lat="49.07641" lon="3.82265">
        <ele>65.4</ele>
        <time>2020-06-30T20:57:09Z</time>
      </trkpt>
      <trkpt lat="49.07641" lon="3.82255">
        <ele>65.4</ele>
        <time>2020-06-30T20:57:10Z</time>
      </trkpt>
      <trkpt lat="49.0764" lon="3.82246">
        <ele>65.4</ele>
        <time>2020-06-30T20:57:11Z</time>
      </trkpt>
      <trkpt lat="49.0764" lon="3.82239">
        <ele>65.4</ele>
        <time>2020-06-30T20:57:12Z</time>
      </trkpt>
      <trkpt lat="49.07641" lon="3.8223">
        <ele>65.4</ele>
        <time>2020-06-30T20:57:13Z</time>
      </trkpt>
      <trkpt lat="49.07641" lon="3.82221">
        <ele>65.4</ele>
        <time>2020-06-30T20:57:14Z</time>
      </trkpt>
      <trkpt lat="49.07642" lon="3.82213">
        <ele>65.4</ele>
        <time>2020-06-30T20:57:15Z</time>
      </trkpt>
      <trkpt lat="49.07642" lon="3.82204">
        <ele>65.3</ele>
        <time>2020-06-30T20:57:16Z</time>
      </trkpt>
      <trkpt lat="49.07643" lon="3.82194">
        <ele>65.3</ele>
        <time>2020-06-30T20:57:17Z</time>
      </trkpt>
      <trkpt lat="49.07643" lon="3.82185">
        <ele>65.2</ele>
        <time>2020-06-30T20:57:18Z</time>
      </trkpt>
      <trkpt lat="49.07643" lon="3.82177">
        <ele>65.2</ele>
        <time>2020-06-30T20:57:19Z</time>
      </trkpt>
      <trkpt lat="49.07643" lon="3.82168">
        <ele>65.2</ele>
        <time>2020-06-30T20:57:20Z</time>
      </trkpt>
      <trkpt lat="49.07643" lon="3.82159">
        <ele>65.1</ele>
        <time>2020-06-30T20:57:21Z</time>
      </trkpt>
      <trkpt lat="49.07644" lon="3.8215">
        <ele>65.1</ele>
        <time>2020-06-30T20:57:22Z</time>
      </trkpt>
      <trkpt lat="49.07643" lon="3.82142">
        <ele>65</ele>
        <time>2020-06-30T20:57:23Z</time>
      </trkpt>
      <trkpt lat="49.07644" lon="3.82134">
        <ele>65</ele>
        <time>2020-06-30T20:57:24Z</time>
      </trkpt>
      <trkpt lat="49.07645" lon="3.82126">
        <ele>65</ele>
        <time>2020-06-30T20:57:25Z</time>
      </trkpt>
      <trkpt lat="49.07645" lon="3.82116">
        <ele>65</ele>
        <time>2020-06-30T20:57:26Z</time>
      </trkpt>
      <trkpt lat="49.07646" lon="3.82106">
        <ele>65</ele>
        <time>2020-06-30T20:57:27Z</time>
      </trkpt>
      <trkpt lat="49.07647" lon="3.82097">
        <ele>65</ele>
        <time>2020-06-30T20:57:28Z</time>
      </trkpt>
      <trkpt lat="49.07649" lon="3.82088">
        <ele>65</ele>
        <time>2020-06-30T20:57:29Z</time>
      </trkpt>
      <trkpt lat="49.0765" lon="3.8208">
        <ele>65</ele>
        <time>2020-06-30T20:57:30Z</time>
      </trkpt>
      <trkpt lat="49.07651" lon="3.8207">
        <ele>65</ele>
        <time>2020-06-30T20:57:31Z</time>
      </trkpt>
      <trkpt lat="49.07652" lon="3.82062">
        <ele>65</ele>
        <time>2020-06-30T20:57:32Z</time>
      </trkpt>
      <trkpt lat="49.07653" lon="3.82052">
        <ele>64.9</ele>
        <time>2020-06-30T20:57:33Z</time>
      </trkpt>
      <trkpt lat="49.07655" lon="3.82043">
        <ele>64.9</ele>
        <time>2020-06-30T20:57:34Z</time>
      </trkpt>
      <trkpt lat="49.07656" lon="3.82034">
        <ele>64.9</ele>
        <time>2020-06-30T20:57:35Z</time>
      </trkpt>
      <trkpt lat="49.07658" lon="3.82026">
        <ele>64.9</ele>
        <time>2020-06-30T20:57:36Z</time>
      </trkpt>
      <trkpt lat="49.07659" lon="3.82017">
        <ele>64.9</ele>
        <time>2020-06-30T20:57:37Z</time>
      </trkpt>
      <trkpt lat="49.0766" lon="3.82009">
        <ele>64.9</ele>
        <time>2020-06-30T20:57:38Z</time>
      </trkpt>
      <trkpt lat="49.07662" lon="3.82">
        <ele>64.9</ele>
        <time>2020-06-30T20:57:39Z</time>
      </trkpt>
      <trkpt lat="49.07663" lon="3.81991">
        <ele>64.9</ele>
        <time>2020-06-30T20:57:40Z</time>
      </trkpt>
      <trkpt lat="49.07664" lon="3.81982">
        <ele>64.9</ele>
        <time>2020-06-30T20:57:41Z</time>
      </trkpt>
      <trkpt lat="49.07665" lon="3.81974">
        <ele>64.9</ele>
        <time>2020-06-30T20:57:42Z</time>
      </trkpt>
      <trkpt lat="49.07667" lon="3.81965">
        <ele>64.8</ele>
        <time>2020-06-30T20:57:43Z</time>
      </trkpt>
      <trkpt lat="49.07667" lon="3.81956">
        <ele>64.8</ele>
        <time>2020-06-30T20:57:44Z</time>
      </trkpt>
      <trkpt lat="49.07668" lon="3.81948">
        <ele>64.8</ele>
        <time>2020-06-30T20:57:45Z</time>
      </trkpt>
      <trkpt lat="49.07669" lon="3.8194">
        <ele>64.8</ele>
        <time>2020-06-30T20:57:46Z</time>
      </trkpt>
      <trkpt lat="49.0767" lon="3.81931">
        <ele>64.9</ele>
        <time>2020-06-30T20:57:47Z</time>
      </trkpt>
      <trkpt lat="49.07672" lon="3.81923">
        <ele>64.9</ele>
        <time>2020-06-30T20:57:48Z</time>
      </trkpt>
      <trkpt lat="49.07674" lon="3.81914">
        <ele>64.9</ele>
        <time>2020-06-30T20:57:49Z</time>
      </trkpt>
      <trkpt lat="49.07675" lon="3.81906">
        <ele>64.9</ele>
        <time>2020-06-30T20:57:50Z</time>
      </trkpt>
      <trkpt lat="49.07676" lon="3.81897">
        <ele>64.9</ele>
        <time>2020-06-30T20:57:51Z</time>
      </trkpt>
      <trkpt lat="49.07678" lon="3.81889">
        <ele>64.9</ele>
        <time>2020-06-30T20:57:52Z</time>
      </trkpt>
      <trkpt lat="49.0768" lon="3.81882">
        <ele>64.9</ele>
        <time>2020-06-30T20:57:53Z</time>
      </trkpt>
      <trkpt lat="49.07681" lon="3.81875">
        <ele>64.9</ele>
        <time>2020-06-30T20:57:54Z</time>
      </trkpt>
      <trkpt lat="49.07683" lon="3.81868">
        <ele>64.9</ele>
        <time>2020-06-30T20:57:55Z</time>
      </trkpt>
      <trkpt lat="49.07684" lon="3.8186">
        <ele>64.8</ele>
        <time>2020-06-30T20:57:56Z</time>
      </trkpt>
      <trkpt lat="49.07685" lon="3.81852">
        <ele>64.8</ele>
        <time>2020-06-30T20:57:57Z</time>
      </trkpt>
      <trkpt lat="49.07685" lon="3.81845">
        <ele>64.7</ele>
        <time>2020-06-30T20:57:58Z</time>
      </trkpt>
      <trkpt lat="49.07687" lon="3.81837">
        <ele>64.7</ele>
        <time>2020-06-30T20:57:59Z</time>
      </trkpt>
      <trkpt lat="49.07688" lon="3.81831">
        <ele>64.7</ele>
        <time>2020-06-30T20:58:00Z</time>
      </trkpt>
      <trkpt lat="49.07689" lon="3.81824">
        <ele>64.7</ele>
        <time>2020-06-30T20:58:01Z</time>
      </trkpt>
      <trkpt lat="49.0769" lon="3.81818">
        <ele>64.7</ele>
        <time>2020-06-30T20:58:02Z</time>
      </trkpt>
      <trkpt lat="49.07691" lon="3.81811">
        <ele>64.7</ele>
        <time>2020-06-30T20:58:03Z</time>
      </trkpt>
      <trkpt lat="49.07692" lon="3.81803">
        <ele>64.7</ele>
        <time>2020-06-30T20:58:04Z</time>
      </trkpt>
      <trkpt lat="49.07693" lon="3.81799">
        <ele>64.7</ele>
        <time>2020-06-30T20:58:05Z</time>
      </trkpt>
      <trkpt lat="49.07694" lon="3.81793">
        <ele>64.7</ele>
        <time>2020-06-30T20:58:06Z</time>
      </trkpt>
      <trkpt lat="49.07696" lon="3.81786">
        <ele>64.7</ele>
        <time>2020-06-30T20:58:07Z</time>
      </trkpt>
      <trkpt lat="49.07697" lon="3.81778">
        <ele>64.7</ele>
        <time>2020-06-30T20:58:08Z</time>
      </trkpt>
      <trkpt lat="49.07697" lon="3.8177">
        <ele>64.7</ele>
        <time>2020-06-30T20:58:09Z</time>
      </trkpt>
      <trkpt lat="49.07699" lon="3.81763">
        <ele>64.8</ele>
        <time>2020-06-30T20:58:10Z</time>
      </trkpt>
      <trkpt lat="49.07699" lon="3.81754">
        <ele>64.8</ele>
        <time>2020-06-30T20:58:11Z</time>
      </trkpt>
      <trkpt lat="49.077" lon="3.81748">
        <ele>64.8</ele>
        <time>2020-06-30T20:58:12Z</time>
      </trkpt>
      <trkpt lat="49.07701" lon="3.8174">
        <ele>64.8</ele>
        <time>2020-06-30T20:58:13Z</time>
      </trkpt>
      <trkpt lat="49.07702" lon="3.81734">
        <ele>64.8</ele>
        <time>2020-06-30T20:58:14Z</time>
      </trkpt>
      <trkpt lat="49.07703" lon="3.81726">
        <ele>64.7</ele>
        <time>2020-06-30T20:58:15Z</time>
      </trkpt>
      <trkpt lat="49.07703" lon="3.81718">
        <ele>64.7</ele>
        <time>2020-06-30T20:58:16Z</time>
      </trkpt>
      <trkpt lat="49.07705" lon="3.81709">
        <ele>64.7</ele>
        <time>2020-06-30T20:58:17Z</time>
      </trkpt>
      <trkpt lat="49.07706" lon="3.81701">
        <ele>64.7</ele>
        <time>2020-06-30T20:58:18Z</time>
      </trkpt>
      <trkpt lat="49.07706" lon="3.81693">
        <ele>64.7</ele>
        <time>2020-06-30T20:58:19Z</time>
      </trkpt>
      <trkpt lat="49.07707" lon="3.81685">
        <ele>64.7</ele>
        <time>2020-06-30T20:58:20Z</time>
      </trkpt>
      <trkpt lat="49.07708" lon="3.81677">
        <ele>64.7</ele>
        <time>2020-06-30T20:58:21Z</time>
      </trkpt>
      <trkpt lat="49.07709" lon="3.81668">
        <ele>64.7</ele>
        <time>2020-06-30T20:58:22Z</time>
      </trkpt>
      <trkpt lat="49.07709" lon="3.81659">
        <ele>64.7</ele>
        <time>2020-06-30T20:58:23Z</time>
      </trkpt>
      <trkpt lat="49.0771" lon="3.81652">
        <ele>64.7</ele>
        <time>2020-06-30T20:58:24Z</time>
      </trkpt>
      <trkpt lat="49.07711" lon="3.81646">
        <ele>64.7</ele>
        <time>2020-06-30T20:58:25Z</time>
      </trkpt>
      <trkpt lat="49.07712" lon="3.8164">
        <ele>64.7</ele>
        <time>2020-06-30T20:58:26Z</time>
      </trkpt>
      <trkpt lat="49.07712" lon="3.81633">
        <ele>64.7</ele>
        <time>2020-06-30T20:58:27Z</time>
      </trkpt>
      <trkpt lat="49.07713" lon="3.81627">
        <ele>64.6</ele>
        <time>2020-06-30T20:58:28Z</time>
      </trkpt>
      <trkpt lat="49.07714" lon="3.8162">
        <ele>64.6</ele>
        <time>2020-06-30T20:58:29Z</time>
      </trkpt>
      <trkpt lat="49.07715" lon="3.81614">
        <ele>64.6</ele>
        <time>2020-06-30T20:58:30Z</time>
      </trkpt>
      <trkpt lat="49.07715" lon="3.81607">
        <ele>64.5</ele>
        <time>2020-06-30T20:58:31Z</time>
      </trkpt>
      <trkpt lat="49.07714" lon="3.816">
        <ele>64.5</ele>
        <time>2020-06-30T20:58:32Z</time>
      </trkpt>
      <trkpt lat="49.07715" lon="3.81594">
        <ele>64.5</ele>
        <time>2020-06-30T20:58:33Z</time>
      </trkpt>
      <trkpt lat="49.07716" lon="3.81587">
        <ele>64.5</ele>
        <time>2020-06-30T20:58:34Z</time>
      </trkpt>
      <trkpt lat="49.07718" lon="3.8158">
        <ele>64.5</ele>
        <time>2020-06-30T20:58:35Z</time>
      </trkpt>
      <trkpt lat="49.07719" lon="3.81571">
        <ele>64.5</ele>
        <time>2020-06-30T20:58:36Z</time>
      </trkpt>
      <trkpt lat="49.07721" lon="3.81563">
        <ele>64.5</ele>
        <time>2020-06-30T20:58:37Z</time>
      </trkpt>
      <trkpt lat="49.07722" lon="3.81556">
        <ele>64.5</ele>
        <time>2020-06-30T20:58:38Z</time>
      </trkpt>
      <trkpt lat="49.07724" lon="3.81549">
        <ele>64.5</ele>
        <time>2020-06-30T20:58:39Z</time>
      </trkpt>
      <trkpt lat="49.07725" lon="3.81541">
        <ele>64.5</ele>
        <time>2020-06-30T20:58:40Z</time>
      </trkpt>
      <trkpt lat="49.07725" lon="3.81533">
        <ele>64.5</ele>
        <time>2020-06-30T20:58:41Z</time>
      </trkpt>
      <trkpt lat="49.07725" lon="3.81525">
        <ele>64.4</ele>
        <time>2020-06-30T20:58:42Z</time>
      </trkpt>
      <trkpt lat="49.07725" lon="3.81517">
        <ele>64.4</ele>
        <time>2020-06-30T20:58:43Z</time>
      </trkpt>
      <trkpt lat="49.07726" lon="3.81509">
        <ele>64.4</ele>
        <time>2020-06-30T20:58:44Z</time>
      </trkpt>
      <trkpt lat="49.07727" lon="3.81501">
        <ele>64.4</ele>
        <time>2020-06-30T20:58:45Z</time>
      </trkpt>
      <trkpt lat="49.07729" lon="3.81492">
        <ele>64.4</ele>
        <time>2020-06-30T20:58:46Z</time>
      </trkpt>
      <trkpt lat="49.07731" lon="3.81484">
        <ele>64.4</ele>
        <time>2020-06-30T20:58:47Z</time>
      </trkpt>
      <trkpt lat="49.07734" lon="3.81477">
        <ele>64.4</ele>
        <time>2020-06-30T20:58:48Z</time>
      </trkpt>
      <trkpt lat="49.07735" lon="3.81469">
        <ele>64.4</ele>
        <time>2020-06-30T20:58:49Z</time>
      </trkpt>
      <trkpt lat="49.07738" lon="3.81461">
        <ele>64.4</ele>
        <time>2020-06-30T20:58:50Z</time>
      </trkpt>
      <trkpt lat="49.0774" lon="3.81453">
        <ele>64.4</ele>
        <time>2020-06-30T20:58:51Z</time>
      </trkpt>
      <trkpt lat="49.07741" lon="3.81444">
        <ele>64.4</ele>
        <time>2020-06-30T20:58:52Z</time>
      </trkpt>
      <trkpt lat="49.07743" lon="3.81437">
        <ele>64.4</ele>
        <time>2020-06-30T20:58:53Z</time>
      </trkpt>
      <trkpt lat="49.07745" lon="3.81431">
        <ele>64.4</ele>
        <time>2020-06-30T20:58:54Z</time>
      </trkpt>
      <trkpt lat="49.07746" lon="3.81425">
        <ele>64.3</ele>
        <time>2020-06-30T20:58:55Z</time>
      </trkpt>
      <trkpt lat="49.07746" lon="3.81417">
        <ele>64.3</ele>
        <time>2020-06-30T20:58:56Z</time>
      </trkpt>
      <trkpt lat="49.07747" lon="3.81409">
        <ele>64.3</ele>
        <time>2020-06-30T20:58:57Z</time>
      </trkpt>
      <trkpt lat="49.07747" lon="3.81405">
        <ele>64.3</ele>
        <time>2020-06-30T20:58:58Z</time>
      </trkpt>
      <trkpt lat="49.07748" lon="3.81399">
        <ele>64.3</ele>
        <time>2020-06-30T20:58:59Z</time>
      </trkpt>
      <trkpt lat="49.0775" lon="3.81395">
        <ele>64.3</ele>
        <time>2020-06-30T20:59:00Z</time>
      </trkpt>
      <trkpt lat="49.07752" lon="3.81387">
        <ele>64.4</ele>
        <time>2020-06-30T20:59:01Z</time>
      </trkpt>
      <trkpt lat="49.07753" lon="3.8138">
        <ele>64.4</ele>
        <time>2020-06-30T20:59:02Z</time>
      </trkpt>
      <trkpt lat="49.07754" lon="3.81373">
        <ele>64.4</ele>
        <time>2020-06-30T20:59:03Z</time>
      </trkpt>
      <trkpt lat="49.07755" lon="3.81367">
        <ele>64.4</ele>
        <time>2020-06-30T20:59:04Z</time>
      </trkpt>
      <trkpt lat="49.07756" lon="3.8136">
        <ele>64.4</ele>
        <time>2020-06-30T20:59:05Z</time>
      </trkpt>
      <trkpt lat="49.07757" lon="3.81354">
        <ele>64.4</ele>
        <time>2020-06-30T20:59:06Z</time>
      </trkpt>
      <trkpt lat="49.07758" lon="3.81348">
        <ele>64.3</ele>
        <time>2020-06-30T20:59:07Z</time>
      </trkpt>
      <trkpt lat="49.0776" lon="3.81341">
        <ele>64.3</ele>
        <time>2020-06-30T20:59:08Z</time>
      </trkpt>
      <trkpt lat="49.07761" lon="3.81336">
        <ele>64.3</ele>
        <time>2020-06-30T20:59:09Z</time>
      </trkpt>
      <trkpt lat="49.07762" lon="3.8133">
        <ele>64.3</ele>
        <time>2020-06-30T20:59:10Z</time>
      </trkpt>
      <trkpt lat="49.07763" lon="3.81323">
        <ele>64.3</ele>
        <time>2020-06-30T20:59:11Z</time>
      </trkpt>
      <trkpt lat="49.07765" lon="3.81317">
        <ele>64.3</ele>
        <time>2020-06-30T20:59:12Z</time>
      </trkpt>
      <trkpt lat="49.07766" lon="3.81311">
        <ele>64.3</ele>
        <time>2020-06-30T20:59:13Z</time>
      </trkpt>
      <trkpt lat="49.07767" lon="3.81303">
        <ele>64.3</ele>
        <time>2020-06-30T20:59:14Z</time>
      </trkpt>
      <trkpt lat="49.07768" lon="3.81295">
        <ele>64.3</ele>
        <time>2020-06-30T20:59:15Z</time>
      </trkpt>
      <trkpt lat="49.07768" lon="3.81288">
        <ele>64.3</ele>
        <time>2020-06-30T20:59:16Z</time>
      </trkpt>
      <trkpt lat="49.0777" lon="3.81281">
        <ele>64.3</ele>
        <time>2020-06-30T20:59:17Z</time>
      </trkpt>
      <trkpt lat="49.0777" lon="3.81275">
        <ele>64.3</ele>
        <time>2020-06-30T20:59:18Z</time>
      </trkpt>
      <trkpt lat="49.07771" lon="3.81269">
        <ele>64.4</ele>
        <time>2020-06-30T20:59:19Z</time>
      </trkpt>
      <trkpt lat="49.07771" lon="3.81261">
        <ele>64.4</ele>
        <time>2020-06-30T20:59:20Z</time>
      </trkpt>
      <trkpt lat="49.07773" lon="3.81254">
        <ele>64.4</ele>
        <time>2020-06-30T20:59:21Z</time>
      </trkpt>
      <trkpt lat="49.07775" lon="3.81247">
        <ele>64.4</ele>
        <time>2020-06-30T20:59:22Z</time>
      </trkpt>
      <trkpt lat="49.07776" lon="3.81239">
        <ele>64.4</ele>
        <time>2020-06-30T20:59:23Z</time>
      </trkpt>
      <trkpt lat="49.07777" lon="3.81233">
        <ele>64.4</ele>
        <time>2020-06-30T20:59:24Z</time>
      </trkpt>
      <trkpt lat="49.07778" lon="3.81225">
        <ele>64.4</ele>
        <time>2020-06-30T20:59:25Z</time>
      </trkpt>
      <trkpt lat="49.07781" lon="3.81219">
        <ele>64.5</ele>
        <time>2020-06-30T20:59:26Z</time>
      </trkpt>
      <trkpt lat="49.07785" lon="3.81214">
        <ele>64.5</ele>
        <time>2020-06-30T20:59:27Z</time>
      </trkpt>
      <trkpt lat="49.07788" lon="3.81209">
        <ele>64.5</ele>
        <time>2020-06-30T20:59:28Z</time>
      </trkpt>
      <trkpt lat="49.0779" lon="3.81202">
        <ele>64.5</ele>
        <time>2020-06-30T20:59:29Z</time>
      </trkpt>
      <trkpt lat="49.07793" lon="3.81196">
        <ele>64.5</ele>
        <time>2020-06-30T20:59:30Z</time>
      </trkpt>
      <trkpt lat="49.07795" lon="3.8119">
        <ele>64.5</ele>
        <time>2020-06-30T20:59:31Z</time>
      </trkpt>
      <trkpt lat="49.07798" lon="3.81183">
        <ele>64.5</ele>
        <time>2020-06-30T20:59:32Z</time>
      </trkpt>
      <trkpt lat="49.07801" lon="3.81177">
        <ele>64.5</ele>
        <time>2020-06-30T20:59:33Z</time>
      </trkpt>
      <trkpt lat="49.07805" lon="3.81172">
        <ele>64.5</ele>
        <time>2020-06-30T20:59:34Z</time>
      </trkpt>
      <trkpt lat="49.07809" lon="3.81166">
        <ele>64.5</ele>
        <time>2020-06-30T20:59:35Z</time>
      </trkpt>
      <trkpt lat="49.07812" lon="3.8116">
        <ele>64.5</ele>
        <time>2020-06-30T20:59:36Z</time>
      </trkpt>
      <trkpt lat="49.07815" lon="3.81154">
        <ele>64.4</ele>
        <time>2020-06-30T20:59:37Z</time>
      </trkpt>
      <trkpt lat="49.0782" lon="3.81148">
        <ele>64.4</ele>
        <time>2020-06-30T20:59:38Z</time>
      </trkpt>
      <trkpt lat="49.07824" lon="3.81142">
        <ele>64.4</ele>
        <time>2020-06-30T20:59:39Z</time>
      </trkpt>
      <trkpt lat="49.07828" lon="3.81136">
        <ele>64.3</ele>
        <time>2020-06-30T20:59:40Z</time>
      </trkpt>
      <trkpt lat="49.07832" lon="3.81129">
        <ele>64.3</ele>
        <time>2020-06-30T20:59:41Z</time>
      </trkpt>
      <trkpt lat="49.07835" lon="3.81124">
        <ele>64.3</ele>
        <time>2020-06-30T20:59:42Z</time>
      </trkpt>
      <trkpt lat="49.07839" lon="3.81118">
        <ele>64.3</ele>
        <time>2020-06-30T20:59:43Z</time>
      </trkpt>
      <trkpt lat="49.07842" lon="3.81112">
        <ele>64.2</ele>
        <time>2020-06-30T20:59:44Z</time>
      </trkpt>
      <trkpt lat="49.07845" lon="3.81107">
        <ele>64.2</ele>
        <time>2020-06-30T20:59:45Z</time>
      </trkpt>
      <trkpt lat="49.07849" lon="3.81101">
        <ele>64.2</ele>
        <time>2020-06-30T20:59:46Z</time>
      </trkpt>
      <trkpt lat="49.07852" lon="3.81096">
        <ele>64.2</ele>
        <time>2020-06-30T20:59:47Z</time>
      </trkpt>
      <trkpt lat="49.07855" lon="3.8109">
        <ele>64.2</ele>
        <time>2020-06-30T20:59:48Z</time>
      </trkpt>
      <trkpt lat="49.07859" lon="3.81085">
        <ele>64.2</ele>
        <time>2020-06-30T20:59:49Z</time>
      </trkpt>
      <trkpt lat="49.07862" lon="3.8108">
        <ele>64.2</ele>
        <time>2020-06-30T20:59:50Z</time>
      </trkpt>
      <trkpt lat="49.07865" lon="3.81075">
        <ele>64.2</ele>
        <time>2020-06-30T20:59:51Z</time>
      </trkpt>
      <trkpt lat="49.07869" lon="3.81071">
        <ele>64.1</ele>
        <time>2020-06-30T20:59:52Z</time>
      </trkpt>
      <trkpt lat="49.07872" lon="3.81067">
        <ele>64.1</ele>
        <time>2020-06-30T20:59:53Z</time>
      </trkpt>
      <trkpt lat="49.07875" lon="3.81062">
        <ele>64.1</ele>
        <time>2020-06-30T20:59:54Z</time>
      </trkpt>
      <trkpt lat="49.07879" lon="3.81057">
        <ele>64.1</ele>
        <time>2020-06-30T20:59:55Z</time>
      </trkpt>
      <trkpt lat="49.07882" lon="3.81052">
        <ele>64.2</ele>
        <time>2020-06-30T20:59:56Z</time>
      </trkpt>
      <trkpt lat="49.07886" lon="3.81047">
        <ele>64.2</ele>
        <time>2020-06-30T20:59:57Z</time>
      </trkpt>
      <trkpt lat="49.07891" lon="3.81041">
        <ele>64.2</ele>
        <time>2020-06-30T20:59:58Z</time>
      </trkpt>
      <trkpt lat="49.07894" lon="3.81036">
        <ele>64.2</ele>
        <time>2020-06-30T20:59:59Z</time>
      </trkpt>
      <trkpt lat="49.07898" lon="3.81032">
        <ele>64.3</ele>
        <time>2020-06-30T21:00:00Z</time>
      </trkpt>
      <trkpt lat="49.07902" lon="3.81027">
        <ele>64.3</ele>
        <time>2020-06-30T21:00:01Z</time>
      </trkpt>
      <trkpt lat="49.07905" lon="3.81022">
        <ele>64.3</ele>
        <time>2020-06-30T21:00:02Z</time>
      </trkpt>
      <trkpt lat="49.07908" lon="3.81018">
        <ele>64.4</ele>
        <time>2020-06-30T21:00:03Z</time>
      </trkpt>
      <trkpt lat="49.07912" lon="3.81012">
        <ele>64.4</ele>
        <time>2020-06-30T21:00:04Z</time>
      </trkpt>
      <trkpt lat="49.07916" lon="3.81007">
        <ele>64.4</ele>
        <time>2020-06-30T21:00:05Z</time>
      </trkpt>
      <trkpt lat="49.0792" lon="3.81002">
        <ele>64.5</ele>
        <time>2020-06-30T21:00:06Z</time>
      </trkpt>
      <trkpt lat="49.07923" lon="3.80997">
        <ele>64.5</ele>
        <time>2020-06-30T21:00:07Z</time>
      </trkpt>
      <trkpt lat="49.07925" lon="3.80992">
        <ele>64.5</ele>
        <time>2020-06-30T21:00:08Z</time>
      </trkpt>
      <trkpt lat="49.07929" lon="3.80986">
        <ele>64.6</ele>
        <time>2020-06-30T21:00:09Z</time>
      </trkpt>
      <trkpt lat="49.07932" lon="3.80981">
        <ele>64.6</ele>
        <time>2020-06-30T21:00:10Z</time>
      </trkpt>
      <trkpt lat="49.07934" lon="3.80976">
        <ele>64.6</ele>
        <time>2020-06-30T21:00:11Z</time>
      </trkpt>
      <trkpt lat="49.07937" lon="3.8097">
        <ele>64.6</ele>
        <time>2020-06-30T21:00:12Z</time>
      </trkpt>
      <trkpt lat="49.07939" lon="3.80964">
        <ele>64.7</ele>
        <time>2020-06-30T21:00:13Z</time>
      </trkpt>
      <trkpt lat="49.07941" lon="3.80958">
        <ele>64.7</ele>
        <time>2020-06-30T21:00:14Z</time>
      </trkpt>
      <trkpt lat="49.07943" lon="3.80952">
        <ele>64.7</ele>
        <time>2020-06-30T21:00:15Z</time>
      </trkpt>
      <trkpt lat="49.07947" lon="3.80944">
        <ele>64.7</ele>
        <time>2020-06-30T21:00:16Z</time>
      </trkpt>
      <trkpt lat="49.0795" lon="3.80937">
        <ele>64.7</ele>
        <time>2020-06-30T21:00:17Z</time>
      </trkpt>
      <trkpt lat="49.07952" lon="3.80931">
        <ele>64.7</ele>
        <time>2020-06-30T21:00:18Z</time>
      </trkpt>
      <trkpt lat="49.07955" lon="3.80925">
        <ele>64.7</ele>
        <time>2020-06-30T21:00:19Z</time>
      </trkpt>
      <trkpt lat="49.07959" lon="3.80918">
        <ele>64.8</ele>
        <time>2020-06-30T21:00:20Z</time>
      </trkpt>
      <trkpt lat="49.07961" lon="3.80913">
        <ele>64.9</ele>
        <time>2020-06-30T21:00:21Z</time>
      </trkpt>
      <trkpt lat="49.07965" lon="3.80906">
        <ele>65</ele>
        <time>2020-06-30T21:00:22Z</time>
      </trkpt>
      <trkpt lat="49.07969" lon="3.809">
        <ele>65.1</ele>
        <time>2020-06-30T21:00:23Z</time>
      </trkpt>
      <trkpt lat="49.07972" lon="3.80894">
        <ele>65.1</ele>
        <time>2020-06-30T21:00:24Z</time>
      </trkpt>
      <trkpt lat="49.07976" lon="3.80888">
        <ele>65.2</ele>
        <time>2020-06-30T21:00:25Z</time>
      </trkpt>
      <trkpt lat="49.07979" lon="3.80882">
        <ele>65.3</ele>
        <time>2020-06-30T21:00:26Z</time>
      </trkpt>
      <trkpt lat="49.07982" lon="3.80877">
        <ele>65.3</ele>
        <time>2020-06-30T21:00:27Z</time>
      </trkpt>
      <trkpt lat="49.07985" lon="3.80873">
        <ele>65.3</ele>
        <time>2020-06-30T21:00:28Z</time>
      </trkpt>
      <trkpt lat="49.07987" lon="3.80868">
        <ele>65.3</ele>
        <time>2020-06-30T21:00:29Z</time>
      </trkpt>
      <trkpt lat="49.0799" lon="3.80863">
        <ele>65.3</ele>
        <time>2020-06-30T21:00:30Z</time>
      </trkpt>
      <trkpt lat="49.07992" lon="3.80859">
        <ele>65.3</ele>
        <time>2020-06-30T21:00:31Z</time>
      </trkpt>
      <trkpt lat="49.07995" lon="3.80854">
        <ele>65.2</ele>
        <time>2020-06-30T21:00:32Z</time>
      </trkpt>
      <trkpt lat="49.07997" lon="3.8085">
        <ele>65.2</ele>
        <time>2020-06-30T21:00:33Z</time>
      </trkpt>
      <trkpt lat="49.08" lon="3.80845">
        <ele>65.2</ele>
        <time>2020-06-30T21:00:34Z</time>
      </trkpt>
      <trkpt lat="49.08002" lon="3.80839">
        <ele>65.2</ele>
        <time>2020-06-30T21:00:35Z</time>
      </trkpt>
      <trkpt lat="49.08002" lon="3.80833">
        <ele>65.2</ele>
        <time>2020-06-30T21:00:36Z</time>
      </trkpt>
      <trkpt lat="49.08003" lon="3.80826">
        <ele>65.3</ele>
        <time>2020-06-30T21:00:37Z</time>
      </trkpt>
      <trkpt lat="49.08004" lon="3.80819">
        <ele>65.3</ele>
        <time>2020-06-30T21:00:38Z</time>
      </trkpt>
      <trkpt lat="49.08005" lon="3.80811">
        <ele>65.4</ele>
        <time>2020-06-30T21:00:39Z</time>
      </trkpt>
      <trkpt lat="49.08006" lon="3.80805">
        <ele>65.6</ele>
        <time>2020-06-30T21:00:40Z</time>
      </trkpt>
      <trkpt lat="49.08006" lon="3.80799">
        <ele>65.7</ele>
        <time>2020-06-30T21:00:41Z</time>
      </trkpt>
      <trkpt lat="49.08007" lon="3.80793">
        <ele>65.8</ele>
        <time>2020-06-30T21:00:42Z</time>
      </trkpt>
      <trkpt lat="49.08008" lon="3.80787">
        <ele>65.9</ele>
        <time>2020-06-30T21:00:43Z</time>
      </trkpt>
      <trkpt lat="49.08009" lon="3.80781">
        <ele>66</ele>
        <time>2020-06-30T21:00:44Z</time>
      </trkpt>
      <trkpt lat="49.08009" lon="3.80774">
        <ele>66</ele>
        <time>2020-06-30T21:00:45Z</time>
      </trkpt>
      <trkpt lat="49.0801" lon="3.80768">
        <ele>66.1</ele>
        <time>2020-06-30T21:00:46Z</time>
      </trkpt>
      <trkpt lat="49.0801" lon="3.80762">
        <ele>66.1</ele>
        <time>2020-06-30T21:00:47Z</time>
      </trkpt>
      <trkpt lat="49.08011" lon="3.80755">
        <ele>66.1</ele>
        <time>2020-06-30T21:00:48Z</time>
      </trkpt>
      <trkpt lat="49.08011" lon="3.80748">
        <ele>66.1</ele>
        <time>2020-06-30T21:00:49Z</time>
      </trkpt>
      <trkpt lat="49.08011" lon="3.80742">
        <ele>66.1</ele>
        <time>2020-06-30T21:00:50Z</time>
      </trkpt>
      <trkpt lat="49.08012" lon="3.80734">
        <ele>66.1</ele>
        <time>2020-06-30T21:00:51Z</time>
      </trkpt>
      <trkpt lat="49.08012" lon="3.80726">
        <ele>66</ele>
        <time>2020-06-30T21:00:52Z</time>
      </trkpt>
      <trkpt lat="49.08013" lon="3.80717">
        <ele>66</ele>
        <time>2020-06-30T21:00:53Z</time>
      </trkpt>
      <trkpt lat="49.08014" lon="3.80708">
        <ele>66</ele>
        <time>2020-06-30T21:00:54Z</time>
      </trkpt>
      <trkpt lat="49.08014" lon="3.807">
        <ele>66</ele>
        <time>2020-06-30T21:00:55Z</time>
      </trkpt>
      <trkpt lat="49.08015" lon="3.80692">
        <ele>66</ele>
        <time>2020-06-30T21:00:56Z</time>
      </trkpt>
      <trkpt lat="49.08016" lon="3.80684">
        <ele>66.1</ele>
        <time>2020-06-30T21:00:57Z</time>
      </trkpt>
      <trkpt lat="49.08016" lon="3.80676">
        <ele>66.1</ele>
        <time>2020-06-30T21:00:58Z</time>
      </trkpt>
      <trkpt lat="49.08016" lon="3.80668">
        <ele>66.2</ele>
        <time>2020-06-30T21:00:59Z</time>
      </trkpt>
      <trkpt lat="49.08017" lon="3.80661">
        <ele>66.3</ele>
        <time>2020-06-30T21:01:00Z</time>
      </trkpt>
      <trkpt lat="49.08017" lon="3.80653">
        <ele>66.3</ele>
        <time>2020-06-30T21:01:01Z</time>
      </trkpt>
      <trkpt lat="49.08018" lon="3.80646">
        <ele>66.4</ele>
        <time>2020-06-30T21:01:02Z</time>
      </trkpt>
      <trkpt lat="49.08018" lon="3.80637">
        <ele>66.5</ele>
        <time>2020-06-30T21:01:03Z</time>
      </trkpt>
      <trkpt lat="49.08018" lon="3.8063">
        <ele>66.5</ele>
        <time>2020-06-30T21:01:04Z</time>
      </trkpt>
      <trkpt lat="49.08019" lon="3.80624">
        <ele>66.6</ele>
        <time>2020-06-30T21:01:05Z</time>
      </trkpt>
      <trkpt lat="49.0802" lon="3.80617">
        <ele>66.6</ele>
        <time>2020-06-30T21:01:06Z</time>
      </trkpt>
      <trkpt lat="49.0802" lon="3.80608">
        <ele>66.6</ele>
        <time>2020-06-30T21:01:07Z</time>
      </trkpt>
      <trkpt lat="49.0802" lon="3.80601">
        <ele>66.6</ele>
        <time>2020-06-30T21:01:08Z</time>
      </trkpt>
      <trkpt lat="49.08021" lon="3.80596">
        <ele>66.5</ele>
        <time>2020-06-30T21:01:09Z</time>
      </trkpt>
      <trkpt lat="49.08021" lon="3.80588">
        <ele>66.4</ele>
        <time>2020-06-30T21:01:10Z</time>
      </trkpt>
      <trkpt lat="49.08022" lon="3.80581">
        <ele>66.3</ele>
        <time>2020-06-30T21:01:11Z</time>
      </trkpt>
      <trkpt lat="49.08023" lon="3.80574">
        <ele>66.2</ele>
        <time>2020-06-30T21:01:12Z</time>
      </trkpt>
      <trkpt lat="49.08023" lon="3.80568">
        <ele>66.1</ele>
        <time>2020-06-30T21:01:13Z</time>
      </trkpt>
      <trkpt lat="49.08023" lon="3.80562">
        <ele>66</ele>
        <time>2020-06-30T21:01:14Z</time>
      </trkpt>
      <trkpt lat="49.08023" lon="3.8056">
        <ele>66</ele>
        <time>2020-06-30T21:01:15Z</time>
      </trkpt>
      <trkpt lat="49.08024" lon="3.80555">
        <ele>65.9</ele>
        <time>2020-06-30T21:01:16Z</time>
      </trkpt>
      <trkpt lat="49.08025" lon="3.8055">
        <ele>65.8</ele>
        <time>2020-06-30T21:01:17Z</time>
      </trkpt>
      <trkpt lat="49.08025" lon="3.80545">
        <ele>65.8</ele>
        <time>2020-06-30T21:01:18Z</time>
      </trkpt>
      <trkpt lat="49.08025" lon="3.80538">
        <ele>65.7</ele>
        <time>2020-06-30T21:01:19Z</time>
      </trkpt>
      <trkpt lat="49.08026" lon="3.80531">
        <ele>65.7</ele>
        <time>2020-06-30T21:01:20Z</time>
      </trkpt>
      <trkpt lat="49.08026" lon="3.80523">
        <ele>65.6</ele>
        <time>2020-06-30T21:01:21Z</time>
      </trkpt>
      <trkpt lat="49.08028" lon="3.80517">
        <ele>65.6</ele>
        <time>2020-06-30T21:01:22Z</time>
      </trkpt>
      <trkpt lat="49.08029" lon="3.8051">
        <ele>65.6</ele>
        <time>2020-06-30T21:01:23Z</time>
      </trkpt>
      <trkpt lat="49.08031" lon="3.80504">
        <ele>65.5</ele>
        <time>2020-06-30T21:01:24Z</time>
      </trkpt>
      <trkpt lat="49.08033" lon="3.80499">
        <ele>65.5</ele>
        <time>2020-06-30T21:01:25Z</time>
      </trkpt>
      <trkpt lat="49.08034" lon="3.80492">
        <ele>65.6</ele>
        <time>2020-06-30T21:01:26Z</time>
      </trkpt>
      <trkpt lat="49.08035" lon="3.80484">
        <ele>65.7</ele>
        <time>2020-06-30T21:01:27Z</time>
      </trkpt>
      <trkpt lat="49.08036" lon="3.80477">
        <ele>65.7</ele>
        <time>2020-06-30T21:01:28Z</time>
      </trkpt>
      <trkpt lat="49.08038" lon="3.80468">
        <ele>65.8</ele>
        <time>2020-06-30T21:01:29Z</time>
      </trkpt>
      <trkpt lat="49.08039" lon="3.80462">
        <ele>65.9</ele>
        <time>2020-06-30T21:01:30Z</time>
      </trkpt>
      <trkpt lat="49.0804" lon="3.80455">
        <ele>65.9</ele>
        <time>2020-06-30T21:01:31Z</time>
      </trkpt>
      <trkpt lat="49.08042" lon="3.80448">
        <ele>65.9</ele>
        <time>2020-06-30T21:01:32Z</time>
      </trkpt>
      <trkpt lat="49.08043" lon="3.8044">
        <ele>65.8</ele>
        <time>2020-06-30T21:01:33Z</time>
      </trkpt>
      <trkpt lat="49.08044" lon="3.80433">
        <ele>65.7</ele>
        <time>2020-06-30T21:01:34Z</time>
      </trkpt>
      <trkpt lat="49.08047" lon="3.80427">
        <ele>65.6</ele>
        <time>2020-06-30T21:01:35Z</time>
      </trkpt>
      <trkpt lat="49.08049" lon="3.80421">
        <ele>65.5</ele>
        <time>2020-06-30T21:01:36Z</time>
      </trkpt>
      <trkpt lat="49.0805" lon="3.80414">
        <ele>65.3</ele>
        <time>2020-06-30T21:01:37Z</time>
      </trkpt>
      <trkpt lat="49.08052" lon="3.80408">
        <ele>65.2</ele>
        <time>2020-06-30T21:01:38Z</time>
      </trkpt>
      <trkpt lat="49.08054" lon="3.80401">
        <ele>65.2</ele>
        <time>2020-06-30T21:01:39Z</time>
      </trkpt>
      <trkpt lat="49.08056" lon="3.80394">
        <ele>65.1</ele>
        <time>2020-06-30T21:01:40Z</time>
      </trkpt>
      <trkpt lat="49.08058" lon="3.80388">
        <ele>65</ele>
        <time>2020-06-30T21:01:41Z</time>
      </trkpt>
      <trkpt lat="49.0806" lon="3.80382">
        <ele>64.9</ele>
        <time>2020-06-30T21:01:42Z</time>
      </trkpt>
      <trkpt lat="49.08062" lon="3.80376">
        <ele>64.8</ele>
        <time>2020-06-30T21:01:43Z</time>
      </trkpt>
      <trkpt lat="49.08064" lon="3.8037">
        <ele>64.7</ele>
        <time>2020-06-30T21:01:44Z</time>
      </trkpt>
      <trkpt lat="49.08067" lon="3.80364">
        <ele>64.6</ele>
        <time>2020-06-30T21:01:45Z</time>
      </trkpt>
      <trkpt lat="49.0807" lon="3.80357">
        <ele>64.5</ele>
        <time>2020-06-30T21:01:46Z</time>
      </trkpt>
      <trkpt lat="49.08072" lon="3.8035">
        <ele>64.4</ele>
        <time>2020-06-30T21:01:47Z</time>
      </trkpt>
      <trkpt lat="49.08075" lon="3.80344">
        <ele>64.4</ele>
        <time>2020-06-30T21:01:48Z</time>
      </trkpt>
      <trkpt lat="49.08077" lon="3.80337">
        <ele>64.3</ele>
        <time>2020-06-30T21:01:49Z</time>
      </trkpt>
      <trkpt lat="49.0808" lon="3.80331">
        <ele>64.3</ele>
        <time>2020-06-30T21:01:50Z</time>
      </trkpt>
      <trkpt lat="49.08082" lon="3.80325">
        <ele>64.3</ele>
        <time>2020-06-30T21:01:51Z</time>
      </trkpt>
      <trkpt lat="49.08084" lon="3.80319">
        <ele>64.3</ele>
        <time>2020-06-30T21:01:52Z</time>
      </trkpt>
      <trkpt lat="49.08086" lon="3.80313">
        <ele>64.3</ele>
        <time>2020-06-30T21:01:53Z</time>
      </trkpt>
      <trkpt lat="49.08088" lon="3.80307">
        <ele>64.3</ele>
        <time>2020-06-30T21:01:54Z</time>
      </trkpt>
      <trkpt lat="49.0809" lon="3.80302">
        <ele>64.3</ele>
        <time>2020-06-30T21:01:55Z</time>
      </trkpt>
      <trkpt lat="49.08092" lon="3.80297">
        <ele>64.3</ele>
        <time>2020-06-30T21:01:56Z</time>
      </trkpt>
      <trkpt lat="49.08094" lon="3.80291">
        <ele>64.3</ele>
        <time>2020-06-30T21:01:57Z</time>
      </trkpt>
      <trkpt lat="49.08096" lon="3.80284">
        <ele>64.3</ele>
        <time>2020-06-30T21:01:58Z</time>
      </trkpt>
      <trkpt lat="49.08097" lon="3.80279">
        <ele>64.3</ele>
        <time>2020-06-30T21:01:59Z</time>
      </trkpt>
      <trkpt lat="49.08099" lon="3.80273">
        <ele>64.3</ele>
        <time>2020-06-30T21:02:00Z</time>
      </trkpt>
      <trkpt lat="49.08101" lon="3.80268">
        <ele>64.3</ele>
        <time>2020-06-30T21:02:01Z</time>
      </trkpt>
      <trkpt lat="49.08102" lon="3.80262">
        <ele>64.3</ele>
        <time>2020-06-30T21:02:02Z</time>
      </trkpt>
      <trkpt lat="49.08105" lon="3.80255">
        <ele>64.3</ele>
        <time>2020-06-30T21:02:03Z</time>
      </trkpt>
      <trkpt lat="49.08107" lon="3.80248">
        <ele>64.3</ele>
        <time>2020-06-30T21:02:04Z</time>
      </trkpt>
      <trkpt lat="49.08109" lon="3.80242">
        <ele>64.4</ele>
        <time>2020-06-30T21:02:05Z</time>
      </trkpt>
      <trkpt lat="49.08111" lon="3.80237">
        <ele>64.4</ele>
        <time>2020-06-30T21:02:06Z</time>
      </trkpt>
      <trkpt lat="49.08113" lon="3.80233">
        <ele>64.4</ele>
        <time>2020-06-30T21:02:07Z</time>
      </trkpt>
      <trkpt lat="49.08115" lon="3.80228">
        <ele>64.5</ele>
        <time>2020-06-30T21:02:08Z</time>
      </trkpt>
      <trkpt lat="49.08117" lon="3.80222">
        <ele>64.5</ele>
        <time>2020-06-30T21:02:09Z</time>
      </trkpt>
      <trkpt lat="49.08119" lon="3.80216">
        <ele>64.6</ele>
        <time>2020-06-30T21:02:10Z</time>
      </trkpt>
      <trkpt lat="49.0812" lon="3.8021">
        <ele>64.6</ele>
        <time>2020-06-30T21:02:11Z</time>
      </trkpt>
      <trkpt lat="49.08122" lon="3.80205">
        <ele>64.6</ele>
        <time>2020-06-30T21:02:12Z</time>
      </trkpt>
      <trkpt lat="49.08124" lon="3.80199">
        <ele>64.7</ele>
        <time>2020-06-30T21:02:13Z</time>
      </trkpt>
      <trkpt lat="49.08127" lon="3.80194">
        <ele>64.7</ele>
        <time>2020-06-30T21:02:14Z</time>
      </trkpt>
      <trkpt lat="49.08129" lon="3.80188">
        <ele>64.8</ele>
        <time>2020-06-30T21:02:15Z</time>
      </trkpt>
      <trkpt lat="49.08131" lon="3.80185">
        <ele>64.8</ele>
        <time>2020-06-30T21:02:16Z</time>
      </trkpt>
      <trkpt lat="49.08133" lon="3.80181">
        <ele>64.8</ele>
        <time>2020-06-30T21:02:17Z</time>
      </trkpt>
      <trkpt lat="49.08135" lon="3.80175">
        <ele>64.8</ele>
        <time>2020-06-30T21:02:18Z</time>
      </trkpt>
      <trkpt lat="49.08136" lon="3.8017">
        <ele>64.8</ele>
        <time>2020-06-30T21:02:19Z</time>
      </trkpt>
      <trkpt lat="49.08139" lon="3.80165">
        <ele>64.9</ele>
        <time>2020-06-30T21:02:20Z</time>
      </trkpt>
      <trkpt lat="49.0814" lon="3.8016">
        <ele>64.9</ele>
        <time>2020-06-30T21:02:21Z</time>
      </trkpt>
      <trkpt lat="49.08141" lon="3.80158">
        <ele>64.9</ele>
        <time>2020-06-30T21:02:22Z</time>
      </trkpt>
      <trkpt lat="49.08142" lon="3.80153">
        <ele>64.9</ele>
        <time>2020-06-30T21:02:23Z</time>
      </trkpt>
      <trkpt lat="49.08143" lon="3.80147">
        <ele>64.9</ele>
        <time>2020-06-30T21:02:24Z</time>
      </trkpt>
      <trkpt lat="49.08144" lon="3.80141">
        <ele>64.9</ele>
        <time>2020-06-30T21:02:25Z</time>
      </trkpt>
      <trkpt lat="49.08144" lon="3.80136">
        <ele>64.9</ele>
        <time>2020-06-30T21:02:26Z</time>
      </trkpt>
      <trkpt lat="49.08145" lon="3.80129">
        <ele>64.9</ele>
        <time>2020-06-30T21:02:27Z</time>
      </trkpt>
      <trkpt lat="49.08146" lon="3.80123">
        <ele>65</ele>
        <time>2020-06-30T21:02:28Z</time>
      </trkpt>
      <trkpt lat="49.08148" lon="3.80116">
        <ele>65</ele>
        <time>2020-06-30T21:02:29Z</time>
      </trkpt>
      <trkpt lat="49.08149" lon="3.80111">
        <ele>65</ele>
        <time>2020-06-30T21:02:30Z</time>
      </trkpt>
      <trkpt lat="49.08151" lon="3.80105">
        <ele>65</ele>
        <time>2020-06-30T21:02:31Z</time>
      </trkpt>
      <trkpt lat="49.08152" lon="3.80098">
        <ele>65</ele>
        <time>2020-06-30T21:02:32Z</time>
      </trkpt>
      <trkpt lat="49.08154" lon="3.80093">
        <ele>65.1</ele>
        <time>2020-06-30T21:02:33Z</time>
      </trkpt>
      <trkpt lat="49.08156" lon="3.80089">
        <ele>65.1</ele>
        <time>2020-06-30T21:02:34Z</time>
      </trkpt>
      <trkpt lat="49.08159" lon="3.80083">
        <ele>65.1</ele>
        <time>2020-06-30T21:02:35Z</time>
      </trkpt>
      <trkpt lat="49.0816" lon="3.80079">
        <ele>65.2</ele>
        <time>2020-06-30T21:02:36Z</time>
      </trkpt>
      <trkpt lat="49.08163" lon="3.80072">
        <ele>65.2</ele>
        <time>2020-06-30T21:02:37Z</time>
      </trkpt>
      <trkpt lat="49.08166" lon="3.80066">
        <ele>65.3</ele>
        <time>2020-06-30T21:02:38Z</time>
      </trkpt>
      <trkpt lat="49.08167" lon="3.8006">
        <ele>65.3</ele>
        <time>2020-06-30T21:02:39Z</time>
      </trkpt>
      <trkpt lat="49.08169" lon="3.80054">
        <ele>65.4</ele>
        <time>2020-06-30T21:02:40Z</time>
      </trkpt>
      <trkpt lat="49.08172" lon="3.80047">
        <ele>65.4</ele>
        <time>2020-06-30T21:02:41Z</time>
      </trkpt>
      <trkpt lat="49.08173" lon="3.80041">
        <ele>65.5</ele>
        <time>2020-06-30T21:02:42Z</time>
      </trkpt>
      <trkpt lat="49.08175" lon="3.80035">
        <ele>65.5</ele>
        <time>2020-06-30T21:02:43Z</time>
      </trkpt>
      <trkpt lat="49.08176" lon="3.8003">
        <ele>65.5</ele>
        <time>2020-06-30T21:02:44Z</time>
      </trkpt>
      <trkpt lat="49.08177" lon="3.80025">
        <ele>65.6</ele>
        <time>2020-06-30T21:02:45Z</time>
      </trkpt>
      <trkpt lat="49.08178" lon="3.8002">
        <ele>65.6</ele>
        <time>2020-06-30T21:02:46Z</time>
      </trkpt>
      <trkpt lat="49.0818" lon="3.80014">
        <ele>65.6</ele>
        <time>2020-06-30T21:02:47Z</time>
      </trkpt>
      <trkpt lat="49.08182" lon="3.80007">
        <ele>65.7</ele>
        <time>2020-06-30T21:02:48Z</time>
      </trkpt>
      <trkpt lat="49.08184" lon="3.80001">
        <ele>65.7</ele>
        <time>2020-06-30T21:02:49Z</time>
      </trkpt>
      <trkpt lat="49.08185" lon="3.79996">
        <ele>65.7</ele>
        <time>2020-06-30T21:02:50Z</time>
      </trkpt>
      <trkpt lat="49.08187" lon="3.79989">
        <ele>65.7</ele>
        <time>2020-06-30T21:02:51Z</time>
      </trkpt>
      <trkpt lat="49.08188" lon="3.79982">
        <ele>65.8</ele>
        <time>2020-06-30T21:02:52Z</time>
      </trkpt>
      <trkpt lat="49.0819" lon="3.79976">
        <ele>65.8</ele>
        <time>2020-06-30T21:02:53Z</time>
      </trkpt>
      <trkpt lat="49.08191" lon="3.79969">
        <ele>65.8</ele>
        <time>2020-06-30T21:02:54Z</time>
      </trkpt>
      <trkpt lat="49.08193" lon="3.79962">
        <ele>65.8</ele>
        <time>2020-06-30T21:02:55Z</time>
      </trkpt>
      <trkpt lat="49.08195" lon="3.79957">
        <ele>65.9</ele>
        <time>2020-06-30T21:02:56Z</time>
      </trkpt>
      <trkpt lat="49.08196" lon="3.79951">
        <ele>65.9</ele>
        <time>2020-06-30T21:02:57Z</time>
      </trkpt>
      <trkpt lat="49.08197" lon="3.79944">
        <ele>65.9</ele>
        <time>2020-06-30T21:02:58Z</time>
      </trkpt>
      <trkpt lat="49.08198" lon="3.79939">
        <ele>65.9</ele>
        <time>2020-06-30T21:02:59Z</time>
      </trkpt>
      <trkpt lat="49.08199" lon="3.79931">
        <ele>66</ele>
        <time>2020-06-30T21:03:00Z</time>
      </trkpt>
      <trkpt lat="49.08201" lon="3.79925">
        <ele>66</ele>
        <time>2020-06-30T21:03:01Z</time>
      </trkpt>
      <trkpt lat="49.08202" lon="3.7992">
        <ele>66</ele>
        <time>2020-06-30T21:03:02Z</time>
      </trkpt>
      <trkpt lat="49.08203" lon="3.79915">
        <ele>66</ele>
        <time>2020-06-30T21:03:03Z</time>
      </trkpt>
      <trkpt lat="49.08204" lon="3.7991">
        <ele>66.1</ele>
        <time>2020-06-30T21:03:04Z</time>
      </trkpt>
      <trkpt lat="49.08204" lon="3.79904">
        <ele>66.1</ele>
        <time>2020-06-30T21:03:05Z</time>
      </trkpt>
      <trkpt lat="49.08205" lon="3.79898">
        <ele>66.1</ele>
        <time>2020-06-30T21:03:06Z</time>
      </trkpt>
      <trkpt lat="49.08206" lon="3.79893">
        <ele>66.1</ele>
        <time>2020-06-30T21:03:07Z</time>
      </trkpt>
      <trkpt lat="49.08207" lon="3.79889">
        <ele>66.1</ele>
        <time>2020-06-30T21:03:08Z</time>
      </trkpt>
      <trkpt lat="49.08208" lon="3.79883">
        <ele>66.1</ele>
        <time>2020-06-30T21:03:09Z</time>
      </trkpt>
      <trkpt lat="49.0821" lon="3.79878">
        <ele>66.1</ele>
        <time>2020-06-30T21:03:10Z</time>
      </trkpt>
      <trkpt lat="49.08211" lon="3.79871">
        <ele>66.2</ele>
        <time>2020-06-30T21:03:11Z</time>
      </trkpt>
      <trkpt lat="49.08211" lon="3.79866">
        <ele>66.2</ele>
        <time>2020-06-30T21:03:12Z</time>
      </trkpt>
      <trkpt lat="49.08211" lon="3.7986">
        <ele>66.2</ele>
        <time>2020-06-30T21:03:13Z</time>
      </trkpt>
      <trkpt lat="49.08211" lon="3.79858">
        <ele>66.2</ele>
        <time>2020-06-30T21:03:14Z</time>
      </trkpt>
      <trkpt lat="49.08211" lon="3.79858">
        <ele>66.2</ele>
        <time>2020-06-30T21:03:15Z</time>
      </trkpt>
      <trkpt lat="49.08211" lon="3.79858">
        <ele>66.2</ele>
        <time>2020-06-30T21:03:16Z</time>
      </trkpt>
      <trkpt lat="49.08211" lon="3.79859">
        <ele>66.2</ele>
        <time>2020-06-30T21:03:17Z</time>
      </trkpt>
      <trkpt lat="49.08211" lon="3.79859">
        <ele>66.2</ele>
        <time>2020-06-30T21:03:18Z</time>
      </trkpt>
      <trkpt lat="49.0821" lon="3.79859">
        <ele>66.2</ele>
        <time>2020-06-30T21:03:19Z</time>
      </trkpt>
      <trkpt lat="49.0821" lon="3.79858">
        <ele>66.2</ele>
        <time>2020-06-30T21:03:20Z</time>
      </trkpt>
      <trkpt lat="49.08209" lon="3.79857">
        <ele>66.2</ele>
        <time>2020-06-30T21:03:21Z</time>
      </trkpt>
      <trkpt lat="49.08208" lon="3.79857">
        <ele>66.2</ele>
        <time>2020-06-30T21:03:22Z</time>
      </trkpt>
      <trkpt lat="49.08207" lon="3.79858">
        <ele>66.1</ele>
        <time>2020-06-30T21:03:23Z</time>
      </trkpt>
      <trkpt lat="49.08206" lon="3.79858">
        <ele>66</ele>
        <time>2020-06-30T21:03:24Z</time>
      </trkpt>
      <trkpt lat="49.08205" lon="3.79859">
        <ele>66</ele>
        <time>2020-06-30T21:03:25Z</time>
      </trkpt>
      <trkpt lat="49.08206" lon="3.79859">
        <ele>66</ele>
        <time>2020-06-30T21:03:26Z</time>
      </trkpt>
      <trkpt lat="49.08206" lon="3.79859">
        <ele>66</ele>
        <time>2020-06-30T21:03:27Z</time>
      </trkpt>
      <trkpt lat="49.08206" lon="3.79859">
        <ele>66</ele>
        <time>2020-06-30T21:03:28Z</time>
      </trkpt>
      <trkpt lat="49.08206" lon="3.79859">
        <ele>66</ele>
        <time>2020-06-30T21:03:29Z</time>
      </trkpt>
      <trkpt lat="49.08206" lon="3.79859">
        <ele>66</ele>
        <time>2020-06-30T21:03:30Z</time>
      </trkpt>
      <trkpt lat="49.08206" lon="3.79859">
        <ele>66</ele>
        <time>2020-06-30T21:03:31Z</time>
      </trkpt>
      <trkpt lat="49.08206" lon="3.79859">
        <ele>66</ele>
        <time>2020-06-30T21:03:32Z</time>
      </trkpt>
      <trkpt lat="49.08206" lon="3.79859">
        <ele>66</ele>
        <time>2020-06-30T21:03:33Z</time>
      </trkpt>
      <trkpt lat="49.08206" lon="3.79859">
        <ele>66</ele>
        <time>2020-06-30T21:03:34Z</time>
      </trkpt>
      <trkpt lat="49.08206" lon="3.79859">
        <ele>66</ele>
        <time>2020-06-30T21:03:35Z</time>
      </trkpt>
      <trkpt lat="49.08202" lon="3.79858">
        <ele>65.8</ele>
        <time>2020-06-30T21:03:51Z</time>
      </trkpt>
      <trkpt lat="49.082" lon="3.79857">
        <ele>65.8</ele>
        <time>2020-06-30T21:03:52Z</time>
      </trkpt>
      <trkpt lat="49.08199" lon="3.79857">
        <ele>65.8</ele>
        <time>2020-06-30T21:03:53Z</time>
      </trkpt>
      <trkpt lat="49.08198" lon="3.79857">
        <ele>65.7</ele>
        <time>2020-06-30T21:03:54Z</time>
      </trkpt>
      <trkpt lat="49.08197" lon="3.79858">
        <ele>65.7</ele>
        <time>2020-06-30T21:03:55Z</time>
      </trkpt>
      <trkpt lat="49.08194" lon="3.79857">
        <ele>65.6</ele>
        <time>2020-06-30T21:03:56Z</time>
      </trkpt>
      <trkpt lat="49.08193" lon="3.79857">
        <ele>65.6</ele>
        <time>2020-06-30T21:03:57Z</time>
      </trkpt>
      <trkpt lat="49.0819" lon="3.79855">
        <ele>65.5</ele>
        <time>2020-06-30T21:03:58Z</time>
      </trkpt>
      <trkpt lat="49.08188" lon="3.79854">
        <ele>65.5</ele>
        <time>2020-06-30T21:03:59Z</time>
      </trkpt>
      <trkpt lat="49.08184" lon="3.79853">
        <ele>65.4</ele>
        <time>2020-06-30T21:04:00Z</time>
      </trkpt>
      <trkpt lat="49.08183" lon="3.79852">
        <ele>65.4</ele>
        <time>2020-06-30T21:04:01Z</time>
      </trkpt>
      <trkpt lat="49.08179" lon="3.7985">
        <ele>65.3</ele>
        <time>2020-06-30T21:04:02Z</time>
      </trkpt>
      <trkpt lat="49.08178" lon="3.79849">
        <ele>65.2</ele>
        <time>2020-06-30T21:04:03Z</time>
      </trkpt>
      <trkpt lat="49.08175" lon="3.79847">
        <ele>65.2</ele>
        <time>2020-06-30T21:04:04Z</time>
      </trkpt>
      <trkpt lat="49.08172" lon="3.79846">
        <ele>65.1</ele>
        <time>2020-06-30T21:04:05Z</time>
      </trkpt>
      <trkpt lat="49.08169" lon="3.79844">
        <ele>65</ele>
        <time>2020-06-30T21:04:06Z</time>
      </trkpt>
      <trkpt lat="49.08166" lon="3.79841">
        <ele>65</ele>
        <time>2020-06-30T21:04:07Z</time>
      </trkpt>
      <trkpt lat="49.08163" lon="3.79839">
        <ele>64.9</ele>
        <time>2020-06-30T21:04:08Z</time>
      </trkpt>
      <trkpt lat="49.08161" lon="3.79836">
        <ele>64.9</ele>
        <time>2020-06-30T21:04:09Z</time>
      </trkpt>
      <trkpt lat="49.08158" lon="3.79832">
        <ele>64.8</ele>
        <time>2020-06-30T21:04:10Z</time>
      </trkpt>
      <trkpt lat="49.08156" lon="3.79829">
        <ele>64.8</ele>
        <time>2020-06-30T21:04:11Z</time>
      </trkpt>
      <trkpt lat="49.08154" lon="3.79826">
        <ele>64.8</ele>
        <time>2020-06-30T21:04:12Z</time>
      </trkpt>
      <trkpt lat="49.08152" lon="3.79823">
        <ele>64.7</ele>
        <time>2020-06-30T21:04:13Z</time>
      </trkpt>
      <trkpt lat="49.08149" lon="3.79818">
        <ele>64.7</ele>
        <time>2020-06-30T21:04:14Z</time>
      </trkpt>
      <trkpt lat="49.08148" lon="3.79816">
        <ele>64.7</ele>
        <time>2020-06-30T21:04:15Z</time>
      </trkpt>
      <trkpt lat="49.08145" lon="3.79812">
        <ele>64.6</ele>
        <time>2020-06-30T21:04:16Z</time>
      </trkpt>
      <trkpt lat="49.08142" lon="3.79808">
        <ele>64.6</ele>
        <time>2020-06-30T21:04:17Z</time>
      </trkpt>
      <trkpt lat="49.0814" lon="3.79804">
        <ele>64.6</ele>
        <time>2020-06-30T21:04:18Z</time>
      </trkpt>
      <trkpt lat="49.08139" lon="3.79803">
        <ele>64.6</ele>
        <time>2020-06-30T21:04:19Z</time>
      </trkpt>
      <trkpt lat="49.08139" lon="3.79798">
        <ele>64.6</ele>
        <time>2020-06-30T21:04:20Z</time>
      </trkpt>
      <trkpt lat="49.08138" lon="3.79796">
        <ele>64.6</ele>
        <time>2020-06-30T21:04:21Z</time>
      </trkpt>
      <trkpt lat="49.08137" lon="3.79793">
        <ele>64.5</ele>
        <time>2020-06-30T21:04:22Z</time>
      </trkpt>
      <trkpt lat="49.08134" lon="3.79789">
        <ele>64.5</ele>
        <time>2020-06-30T21:04:23Z</time>
      </trkpt>
      <trkpt lat="49.08133" lon="3.79787">
        <ele>64.5</ele>
        <time>2020-06-30T21:04:24Z</time>
      </trkpt>
      <trkpt lat="49.08131" lon="3.79784">
        <ele>64.5</ele>
        <time>2020-06-30T21:04:25Z</time>
      </trkpt>
      <trkpt lat="49.0813" lon="3.79783">
        <ele>64.5</ele>
        <time>2020-06-30T21:04:26Z</time>
      </trkpt>
      <trkpt lat="49.0813" lon="3.7978">
        <ele>64.5</ele>
        <time>2020-06-30T21:04:27Z</time>
      </trkpt>
      <trkpt lat="49.08131" lon="3.79778">
        <ele>64.5</ele>
        <time>2020-06-30T21:04:28Z</time>
      </trkpt>
      <trkpt lat="49.08133" lon="3.79772">
        <ele>64.5</ele>
        <time>2020-06-30T21:04:29Z</time>
      </trkpt>
      <trkpt lat="49.08133" lon="3.7977">
        <ele>64.5</ele>
        <time>2020-06-30T21:04:30Z</time>
      </trkpt>
      <trkpt lat="49.08135" lon="3.79766">
        <ele>64.5</ele>
        <time>2020-06-30T21:04:31Z</time>
      </trkpt>
      <trkpt lat="49.08138" lon="3.79763">
        <ele>64.5</ele>
        <time>2020-06-30T21:04:32Z</time>
      </trkpt>
      <trkpt lat="49.08141" lon="3.79762">
        <ele>64.5</ele>
        <time>2020-06-30T21:04:33Z</time>
      </trkpt>
      <trkpt lat="49.08144" lon="3.7976">
        <ele>64.4</ele>
        <time>2020-06-30T21:04:34Z</time>
      </trkpt>
      <trkpt lat="49.08145" lon="3.79759">
        <ele>64.4</ele>
        <time>2020-06-30T21:04:35Z</time>
      </trkpt>
      <trkpt lat="49.08147" lon="3.79759">
        <ele>64.4</ele>
        <time>2020-06-30T21:04:36Z</time>
      </trkpt>
      <trkpt lat="49.08149" lon="3.79759">
        <ele>64.4</ele>
        <time>2020-06-30T21:04:37Z</time>
      </trkpt>
      <trkpt lat="49.08152" lon="3.7976">
        <ele>64.4</ele>
        <time>2020-06-30T21:04:38Z</time>
      </trkpt>
      <trkpt lat="49.08153" lon="3.79759">
        <ele>64.4</ele>
        <time>2020-06-30T21:04:39Z</time>
      </trkpt>
      <trkpt lat="49.08155" lon="3.79756">
        <ele>64.3</ele>
        <time>2020-06-30T21:04:40Z</time>
      </trkpt>
      <trkpt lat="49.08158" lon="3.79755">
        <ele>64.3</ele>
        <time>2020-06-30T21:04:41Z</time>
      </trkpt>
      <trkpt lat="49.08161" lon="3.79751">
        <ele>64.3</ele>
        <time>2020-06-30T21:04:42Z</time>
      </trkpt>
      <trkpt lat="49.08165" lon="3.79748">
        <ele>64.2</ele>
        <time>2020-06-30T21:04:43Z</time>
      </trkpt>
      <trkpt lat="49.08168" lon="3.79746">
        <ele>64.2</ele>
        <time>2020-06-30T21:04:44Z</time>
      </trkpt>
      <trkpt lat="49.08172" lon="3.79744">
        <ele>64.2</ele>
        <time>2020-06-30T21:04:45Z</time>
      </trkpt>
      <trkpt lat="49.08176" lon="3.79742">
        <ele>64.2</ele>
        <time>2020-06-30T21:04:46Z</time>
      </trkpt>
      <trkpt lat="49.0818" lon="3.79739">
        <ele>64.2</ele>
        <time>2020-06-30T21:04:47Z</time>
      </trkpt>
      <trkpt lat="49.08184" lon="3.79735">
        <ele>64.2</ele>
        <time>2020-06-30T21:04:48Z</time>
      </trkpt>
      <trkpt lat="49.08188" lon="3.79733">
        <ele>64.2</ele>
        <time>2020-06-30T21:04:49Z</time>
      </trkpt>
      <trkpt lat="49.08193" lon="3.79733">
        <ele>64.3</ele>
        <time>2020-06-30T21:04:50Z</time>
      </trkpt>
      <trkpt lat="49.08197" lon="3.79731">
        <ele>64.3</ele>
        <time>2020-06-30T21:04:51Z</time>
      </trkpt>
      <trkpt lat="49.08201" lon="3.79728">
        <ele>64.3</ele>
        <time>2020-06-30T21:04:52Z</time>
      </trkpt>
      <trkpt lat="49.08206" lon="3.79726">
        <ele>64.4</ele>
        <time>2020-06-30T21:04:53Z</time>
      </trkpt>
      <trkpt lat="49.08209" lon="3.79721">
        <ele>64.4</ele>
        <time>2020-06-30T21:04:54Z</time>
      </trkpt>
      <trkpt lat="49.08213" lon="3.79719">
        <ele>64.4</ele>
        <time>2020-06-30T21:04:55Z</time>
      </trkpt>
      <trkpt lat="49.08217" lon="3.79717">
        <ele>64.4</ele>
        <time>2020-06-30T21:04:56Z</time>
      </trkpt>
      <trkpt lat="49.08221" lon="3.79715">
        <ele>64.4</ele>
        <time>2020-06-30T21:04:57Z</time>
      </trkpt>
      <trkpt lat="49.08225" lon="3.79712">
        <ele>64.4</ele>
        <time>2020-06-30T21:04:58Z</time>
      </trkpt>
      <trkpt lat="49.0823" lon="3.79713">
        <ele>64.5</ele>
        <time>2020-06-30T21:04:59Z</time>
      </trkpt>
      <trkpt lat="49.08234" lon="3.7971">
        <ele>64.5</ele>
        <time>2020-06-30T21:05:00Z</time>
      </trkpt>
      <trkpt lat="49.08237" lon="3.79705">
        <ele>64.5</ele>
        <time>2020-06-30T21:05:01Z</time>
      </trkpt>
      <trkpt lat="49.0824" lon="3.79701">
        <ele>64.5</ele>
        <time>2020-06-30T21:05:02Z</time>
      </trkpt>
      <trkpt lat="49.08243" lon="3.79698">
        <ele>64.5</ele>
        <time>2020-06-30T21:05:03Z</time>
      </trkpt>
      <trkpt lat="49.08245" lon="3.79695">
        <ele>64.5</ele>
        <time>2020-06-30T21:05:04Z</time>
      </trkpt>
      <trkpt lat="49.08247" lon="3.79693">
        <ele>64.5</ele>
        <time>2020-06-30T21:05:05Z</time>
      </trkpt>
      <trkpt lat="49.0825" lon="3.79691">
        <ele>64.5</ele>
        <time>2020-06-30T21:05:06Z</time>
      </trkpt>
      <trkpt lat="49.08252" lon="3.79688">
        <ele>64.6</ele>
        <time>2020-06-30T21:05:07Z</time>
      </trkpt>
      <trkpt lat="49.08254" lon="3.79685">
        <ele>64.6</ele>
        <time>2020-06-30T21:05:08Z</time>
      </trkpt>
      <trkpt lat="49.08256" lon="3.79683">
        <ele>64.6</ele>
        <time>2020-06-30T21:05:09Z</time>
      </trkpt>
      <trkpt lat="49.08256" lon="3.79681">
        <ele>64.6</ele>
        <time>2020-06-30T21:05:10Z</time>
      </trkpt>
      <trkpt lat="49.08256" lon="3.79678">
        <ele>64.6</ele>
        <time>2020-06-30T21:05:11Z</time>
      </trkpt>
      <trkpt lat="49.08257" lon="3.79676">
        <ele>64.6</ele>
        <time>2020-06-30T21:05:12Z</time>
      </trkpt>
      <trkpt lat="49.08259" lon="3.79675">
        <ele>64.6</ele>
        <time>2020-06-30T21:05:13Z</time>
      </trkpt>
      <trkpt lat="49.08261" lon="3.79675">
        <ele>64.6</ele>
        <time>2020-06-30T21:05:14Z</time>
      </trkpt>
      <trkpt lat="49.08262" lon="3.79674">
        <ele>64.6</ele>
        <time>2020-06-30T21:05:15Z</time>
      </trkpt>
      <trkpt lat="49.08264" lon="3.79673">
        <ele>64.7</ele>
        <time>2020-06-30T21:05:16Z</time>
      </trkpt>
      <trkpt lat="49.08267" lon="3.7967">
        <ele>64.7</ele>
        <time>2020-06-30T21:05:17Z</time>
      </trkpt>
      <trkpt lat="49.08267" lon="3.79669">
        <ele>64.7</ele>
        <time>2020-06-30T21:05:18Z</time>
      </trkpt>
      <trkpt lat="49.08269" lon="3.79664">
        <ele>64.7</ele>
        <time>2020-06-30T21:05:19Z</time>
      </trkpt>
      <trkpt lat="49.08269" lon="3.79661">
        <ele>64.7</ele>
        <time>2020-06-30T21:05:20Z</time>
      </trkpt>
      <trkpt lat="49.0827" lon="3.79658">
        <ele>64.7</ele>
        <time>2020-06-30T21:05:21Z</time>
      </trkpt>
      <trkpt lat="49.08272" lon="3.79654">
        <ele>64.7</ele>
        <time>2020-06-30T21:05:22Z</time>
      </trkpt>
      <trkpt lat="49.08274" lon="3.79648">
        <ele>64.7</ele>
        <time>2020-06-30T21:05:23Z</time>
      </trkpt>
      <trkpt lat="49.08275" lon="3.79646">
        <ele>64.8</ele>
        <time>2020-06-30T21:05:24Z</time>
      </trkpt>
      <trkpt lat="49.08276" lon="3.79641">
        <ele>64.8</ele>
        <time>2020-06-30T21:05:25Z</time>
      </trkpt>
      <trkpt lat="49.08278" lon="3.79636">
        <ele>64.8</ele>
        <time>2020-06-30T21:05:26Z</time>
      </trkpt>
      <trkpt lat="49.0828" lon="3.79632">
        <ele>64.9</ele>
        <time>2020-06-30T21:05:27Z</time>
      </trkpt>
      <trkpt lat="49.08281" lon="3.79626">
        <ele>64.9</ele>
        <time>2020-06-30T21:05:28Z</time>
      </trkpt>
      <trkpt lat="49.08282" lon="3.7962">
        <ele>64.9</ele>
        <time>2020-06-30T21:05:29Z</time>
      </trkpt>
      <trkpt lat="49.08285" lon="3.79615">
        <ele>65</ele>
        <time>2020-06-30T21:05:30Z</time>
      </trkpt>
      <trkpt lat="49.08287" lon="3.79609">
        <ele>65</ele>
        <time>2020-06-30T21:05:31Z</time>
      </trkpt>
      <trkpt lat="49.08289" lon="3.79604">
        <ele>65.1</ele>
        <time>2020-06-30T21:05:32Z</time>
      </trkpt>
      <trkpt lat="49.08291" lon="3.79599">
        <ele>65.1</ele>
        <time>2020-06-30T21:05:33Z</time>
      </trkpt>
      <trkpt lat="49.08294" lon="3.79595">
        <ele>65.2</ele>
        <time>2020-06-30T21:05:34Z</time>
      </trkpt>
      <trkpt lat="49.08297" lon="3.79589">
        <ele>65.2</ele>
        <time>2020-06-30T21:05:35Z</time>
      </trkpt>
      <trkpt lat="49.08299" lon="3.79583">
        <ele>65.2</ele>
        <time>2020-06-30T21:05:36Z</time>
      </trkpt>
      <trkpt lat="49.08301" lon="3.79577">
        <ele>65.2</ele>
        <time>2020-06-30T21:05:37Z</time>
      </trkpt>
      <trkpt lat="49.08302" lon="3.79572">
        <ele>65.2</ele>
        <time>2020-06-30T21:05:38Z</time>
      </trkpt>
      <trkpt lat="49.08305" lon="3.79567">
        <ele>65.2</ele>
        <time>2020-06-30T21:05:39Z</time>
      </trkpt>
      <trkpt lat="49.08307" lon="3.79561">
        <ele>65.2</ele>
        <time>2020-06-30T21:05:40Z</time>
      </trkpt>
      <trkpt lat="49.0831" lon="3.79555">
        <ele>65.2</ele>
        <time>2020-06-30T21:05:41Z</time>
      </trkpt>
      <trkpt lat="49.08313" lon="3.79548">
        <ele>65.1</ele>
        <time>2020-06-30T21:05:42Z</time>
      </trkpt>
      <trkpt lat="49.08315" lon="3.79541">
        <ele>65.1</ele>
        <time>2020-06-30T21:05:43Z</time>
      </trkpt>
      <trkpt lat="49.08318" lon="3.79535">
        <ele>65</ele>
        <time>2020-06-30T21:05:44Z</time>
      </trkpt>
      <trkpt lat="49.08321" lon="3.79529">
        <ele>65</ele>
        <time>2020-06-30T21:05:45Z</time>
      </trkpt>
      <trkpt lat="49.08323" lon="3.79523">
        <ele>64.9</ele>
        <time>2020-06-30T21:05:46Z</time>
      </trkpt>
      <trkpt lat="49.08326" lon="3.79516">
        <ele>64.8</ele>
        <time>2020-06-30T21:05:47Z</time>
      </trkpt>
      <trkpt lat="49.08329" lon="3.79511">
        <ele>64.8</ele>
        <time>2020-06-30T21:05:48Z</time>
      </trkpt>
      <trkpt lat="49.08331" lon="3.79504">
        <ele>64.8</ele>
        <time>2020-06-30T21:05:49Z</time>
      </trkpt>
      <trkpt lat="49.08333" lon="3.79498">
        <ele>64.7</ele>
        <time>2020-06-30T21:05:50Z</time>
      </trkpt>
      <trkpt lat="49.08335" lon="3.79492">
        <ele>64.7</ele>
        <time>2020-06-30T21:05:51Z</time>
      </trkpt>
      <trkpt lat="49.08337" lon="3.79486">
        <ele>64.7</ele>
        <time>2020-06-30T21:05:52Z</time>
      </trkpt>
      <trkpt lat="49.08339" lon="3.7948">
        <ele>64.6</ele>
        <time>2020-06-30T21:05:53Z</time>
      </trkpt>
      <trkpt lat="49.0834" lon="3.79474">
        <ele>64.6</ele>
        <time>2020-06-30T21:05:54Z</time>
      </trkpt>
      <trkpt lat="49.08341" lon="3.79467">
        <ele>64.5</ele>
        <time>2020-06-30T21:05:55Z</time>
      </trkpt>
      <trkpt lat="49.08343" lon="3.79462">
        <ele>64.5</ele>
        <time>2020-06-30T21:05:56Z</time>
      </trkpt>
      <trkpt lat="49.08344" lon="3.79456">
        <ele>64.4</ele>
        <time>2020-06-30T21:05:57Z</time>
      </trkpt>
      <trkpt lat="49.08346" lon="3.7945">
        <ele>64.3</ele>
        <time>2020-06-30T21:05:58Z</time>
      </trkpt>
      <trkpt lat="49.08348" lon="3.79443">
        <ele>64.3</ele>
        <time>2020-06-30T21:05:59Z</time>
      </trkpt>
      <trkpt lat="49.08349" lon="3.79435">
        <ele>64.2</ele>
        <time>2020-06-30T21:06:00Z</time>
      </trkpt>
      <trkpt lat="49.08351" lon="3.79428">
        <ele>64.2</ele>
        <time>2020-06-30T21:06:01Z</time>
      </trkpt>
      <trkpt lat="49.08352" lon="3.79421">
        <ele>64.2</ele>
        <time>2020-06-30T21:06:02Z</time>
      </trkpt>
      <trkpt lat="49.08353" lon="3.79414">
        <ele>64.1</ele>
        <time>2020-06-30T21:06:03Z</time>
      </trkpt>
      <trkpt lat="49.08354" lon="3.79407">
        <ele>64.1</ele>
        <time>2020-06-30T21:06:04Z</time>
      </trkpt>
      <trkpt lat="49.08354" lon="3.79399">
        <ele>64.1</ele>
        <time>2020-06-30T21:06:05Z</time>
      </trkpt>
      <trkpt lat="49.08355" lon="3.79391">
        <ele>64.1</ele>
        <time>2020-06-30T21:06:06Z</time>
      </trkpt>
      <trkpt lat="49.08353" lon="3.79383">
        <ele>64</ele>
        <time>2020-06-30T21:06:07Z</time>
      </trkpt>
      <trkpt lat="49.08353" lon="3.79375">
        <ele>64</ele>
        <time>2020-06-30T21:06:08Z</time>
      </trkpt>
      <trkpt lat="49.08354" lon="3.79368">
        <ele>64</ele>
        <time>2020-06-30T21:06:09Z</time>
      </trkpt>
      <trkpt lat="49.08356" lon="3.79362">
        <ele>64</ele>
        <time>2020-06-30T21:06:10Z</time>
      </trkpt>
      <trkpt lat="49.08357" lon="3.79356">
        <ele>64</ele>
        <time>2020-06-30T21:06:11Z</time>
      </trkpt>
      <trkpt lat="49.08357" lon="3.79349">
        <ele>64</ele>
        <time>2020-06-30T21:06:12Z</time>
      </trkpt>
      <trkpt lat="49.08357" lon="3.79342">
        <ele>64</ele>
        <time>2020-06-30T21:06:13Z</time>
      </trkpt>
      <trkpt lat="49.08358" lon="3.79336">
        <ele>64</ele>
        <time>2020-06-30T21:06:14Z</time>
      </trkpt>
      <trkpt lat="49.08359" lon="3.7933">
        <ele>64</ele>
        <time>2020-06-30T21:06:15Z</time>
      </trkpt>
      <trkpt lat="49.0836" lon="3.79324">
        <ele>63.9</ele>
        <time>2020-06-30T21:06:16Z</time>
      </trkpt>
      <trkpt lat="49.08361" lon="3.79318">
        <ele>63.9</ele>
        <time>2020-06-30T21:06:17Z</time>
      </trkpt>
      <trkpt lat="49.08362" lon="3.79312">
        <ele>63.9</ele>
        <time>2020-06-30T21:06:18Z</time>
      </trkpt>
      <trkpt lat="49.08361" lon="3.79306">
        <ele>63.9</ele>
        <time>2020-06-30T21:06:19Z</time>
      </trkpt>
      <trkpt lat="49.0836" lon="3.79299">
        <ele>63.9</ele>
        <time>2020-06-30T21:06:20Z</time>
      </trkpt>
      <trkpt lat="49.08359" lon="3.79293">
        <ele>63.9</ele>
        <time>2020-06-30T21:06:21Z</time>
      </trkpt>
      <trkpt lat="49.08359" lon="3.79288">
        <ele>63.8</ele>
        <time>2020-06-30T21:06:22Z</time>
      </trkpt>
      <trkpt lat="49.0836" lon="3.79283">
        <ele>63.8</ele>
        <time>2020-06-30T21:06:23Z</time>
      </trkpt>
      <trkpt lat="49.0836" lon="3.79278">
        <ele>63.8</ele>
        <time>2020-06-30T21:06:24Z</time>
      </trkpt>
      <trkpt lat="49.08359" lon="3.79277">
        <ele>63.8</ele>
        <time>2020-06-30T21:06:25Z</time>
      </trkpt>
      <trkpt lat="49.08359" lon="3.79274">
        <ele>63.8</ele>
        <time>2020-06-30T21:06:26Z</time>
      </trkpt>
      <trkpt lat="49.08359" lon="3.79272">
        <ele>63.8</ele>
        <time>2020-06-30T21:06:27Z</time>
      </trkpt>
      <trkpt lat="49.08359" lon="3.79269">
        <ele>63.8</ele>
        <time>2020-06-30T21:06:28Z</time>
      </trkpt>
      <trkpt lat="49.08358" lon="3.79267">
        <ele>63.8</ele>
        <time>2020-06-30T21:06:29Z</time>
      </trkpt>
      <trkpt lat="49.08358" lon="3.79265">
        <ele>63.8</ele>
        <time>2020-06-30T21:06:30Z</time>
      </trkpt>
      <trkpt lat="49.08358" lon="3.79261">
        <ele>63.8</ele>
        <time>2020-06-30T21:06:31Z</time>
      </trkpt>
      <trkpt lat="49.08358" lon="3.79257">
        <ele>63.8</ele>
        <time>2020-06-30T21:06:32Z</time>
      </trkpt>
      <trkpt lat="49.08358" lon="3.79252">
        <ele>63.8</ele>
        <time>2020-06-30T21:06:33Z</time>
      </trkpt>
      <trkpt lat="49.08358" lon="3.79247">
        <ele>63.8</ele>
        <time>2020-06-30T21:06:34Z</time>
      </trkpt>
      <trkpt lat="49.08359" lon="3.79241">
        <ele>63.7</ele>
        <time>2020-06-30T21:06:35Z</time>
      </trkpt>
      <trkpt lat="49.08358" lon="3.79236">
        <ele>63.7</ele>
        <time>2020-06-30T21:06:36Z</time>
      </trkpt>
      <trkpt lat="49.08357" lon="3.7923">
        <ele>63.7</ele>
        <time>2020-06-30T21:06:37Z</time>
      </trkpt>
      <trkpt lat="49.08356" lon="3.79225">
        <ele>63.6</ele>
        <time>2020-06-30T21:06:38Z</time>
      </trkpt>
      <trkpt lat="49.08354" lon="3.7922">
        <ele>63.6</ele>
        <time>2020-06-30T21:06:39Z</time>
      </trkpt>
      <trkpt lat="49.08353" lon="3.79215">
        <ele>63.6</ele>
        <time>2020-06-30T21:06:40Z</time>
      </trkpt>
      <trkpt lat="49.08351" lon="3.7921">
        <ele>63.6</ele>
        <time>2020-06-30T21:06:41Z</time>
      </trkpt>
      <trkpt lat="49.08349" lon="3.79206">
        <ele>63.6</ele>
        <time>2020-06-30T21:06:42Z</time>
      </trkpt>
      <trkpt lat="49.08348" lon="3.79202">
        <ele>63.5</ele>
        <time>2020-06-30T21:06:43Z</time>
      </trkpt>
      <trkpt lat="49.08347" lon="3.79197">
        <ele>63.5</ele>
        <time>2020-06-30T21:06:44Z</time>
      </trkpt>
      <trkpt lat="49.08346" lon="3.79195">
        <ele>63.6</ele>
        <time>2020-06-30T21:06:45Z</time>
      </trkpt>
      <trkpt lat="49.08344" lon="3.7919">
        <ele>63.6</ele>
        <time>2020-06-30T21:06:46Z</time>
      </trkpt>
      <trkpt lat="49.08344" lon="3.79188">
        <ele>63.6</ele>
        <time>2020-06-30T21:06:47Z</time>
      </trkpt>
      <trkpt lat="49.08343" lon="3.79183">
        <ele>63.6</ele>
        <time>2020-06-30T21:06:48Z</time>
      </trkpt>
      <trkpt lat="49.08343" lon="3.79181">
        <ele>63.6</ele>
        <time>2020-06-30T21:06:49Z</time>
      </trkpt>
      <trkpt lat="49.08342" lon="3.79177">
        <ele>63.6</ele>
        <time>2020-06-30T21:06:50Z</time>
      </trkpt>
      <trkpt lat="49.08341" lon="3.79176">
        <ele>63.6</ele>
        <time>2020-06-30T21:06:51Z</time>
      </trkpt>
      <trkpt lat="49.0834" lon="3.79172">
        <ele>63.6</ele>
        <time>2020-06-30T21:06:52Z</time>
      </trkpt>
      <trkpt lat="49.08339" lon="3.79171">
        <ele>63.6</ele>
        <time>2020-06-30T21:06:53Z</time>
      </trkpt>
      <trkpt lat="49.08338" lon="3.79169">
        <ele>63.6</ele>
        <time>2020-06-30T21:06:54Z</time>
      </trkpt>
      <trkpt lat="49.08336" lon="3.79168">
        <ele>63.6</ele>
        <time>2020-06-30T21:06:55Z</time>
      </trkpt>
      <trkpt lat="49.08336" lon="3.79167">
        <ele>63.6</ele>
        <time>2020-06-30T21:06:56Z</time>
      </trkpt>
      <trkpt lat="49.08337" lon="3.79166">
        <ele>63.7</ele>
        <time>2020-06-30T21:06:57Z</time>
      </trkpt>
      <trkpt lat="49.08337" lon="3.79166">
        <ele>63.7</ele>
        <time>2020-06-30T21:06:58Z</time>
      </trkpt>
      <trkpt lat="49.08338" lon="3.79166">
        <ele>63.7</ele>
        <time>2020-06-30T21:06:59Z</time>
      </trkpt>
      <trkpt lat="49.08338" lon="3.79166">
        <ele>63.7</ele>
        <time>2020-06-30T21:07:00Z</time>
      </trkpt>
      <trkpt lat="49.08337" lon="3.79166">
        <ele>63.7</ele>
        <time>2020-06-30T21:07:01Z</time>
      </trkpt>
      <trkpt lat="49.08337" lon="3.79166">
        <ele>63.7</ele>
        <time>2020-06-30T21:07:02Z</time>
      </trkpt>
      <trkpt lat="49.08337" lon="3.79165">
        <ele>63.7</ele>
        <time>2020-06-30T21:07:03Z</time>
      </trkpt>
      <trkpt lat="49.08338" lon="3.79165">
        <ele>63.7</ele>
        <time>2020-06-30T21:07:04Z</time>
      </trkpt>
      <trkpt lat="49.08335" lon="3.79163">
        <ele>63.7</ele>
        <time>2020-06-30T21:07:05Z</time>
      </trkpt>
      <trkpt lat="49.08333" lon="3.79161">
        <ele>63.7</ele>
        <time>2020-06-30T21:07:06Z</time>
      </trkpt>
      <trkpt lat="49.08331" lon="3.79159">
        <ele>63.7</ele>
        <time>2020-06-30T21:08:24Z</time>
      </trkpt>
      <trkpt lat="49.08329" lon="3.79157">
        <ele>63.7</ele>
        <time>2020-06-30T21:08:25Z</time>
      </trkpt>
      <trkpt lat="49.08328" lon="3.79153">
        <ele>63.7</ele>
        <time>2020-06-30T21:08:26Z</time>
      </trkpt>
      <trkpt lat="49.08325" lon="3.79149">
        <ele>63.7</ele>
        <time>2020-06-30T21:08:27Z</time>
      </trkpt>
      <trkpt lat="49.08323" lon="3.79147">
        <ele>63.7</ele>
        <time>2020-06-30T21:08:28Z</time>
      </trkpt>
      <trkpt lat="49.0832" lon="3.79143">
        <ele>63.7</ele>
        <time>2020-06-30T21:08:29Z</time>
      </trkpt>
      <trkpt lat="49.08319" lon="3.79142">
        <ele>63.7</ele>
        <time>2020-06-30T21:08:30Z</time>
      </trkpt>
      <trkpt lat="49.08317" lon="3.79139">
        <ele>63.7</ele>
        <time>2020-06-30T21:08:31Z</time>
      </trkpt>
      <trkpt lat="49.08315" lon="3.79134">
        <ele>63.7</ele>
        <time>2020-06-30T21:08:32Z</time>
      </trkpt>
      <trkpt lat="49.08313" lon="3.7913">
        <ele>63.8</ele>
        <time>2020-06-30T21:08:33Z</time>
      </trkpt>
      <trkpt lat="49.0831" lon="3.79127">
        <ele>63.8</ele>
        <time>2020-06-30T21:08:34Z</time>
      </trkpt>
      <trkpt lat="49.08308" lon="3.79122">
        <ele>63.8</ele>
        <time>2020-06-30T21:08:35Z</time>
      </trkpt>
      <trkpt lat="49.08307" lon="3.79121">
        <ele>63.8</ele>
        <time>2020-06-30T21:08:36Z</time>
      </trkpt>
      <trkpt lat="49.08305" lon="3.79116">
        <ele>63.8</ele>
        <time>2020-06-30T21:08:37Z</time>
      </trkpt>
      <trkpt lat="49.08303" lon="3.79111">
        <ele>63.9</ele>
        <time>2020-06-30T21:08:38Z</time>
      </trkpt>
      <trkpt lat="49.08301" lon="3.79107">
        <ele>63.9</ele>
        <time>2020-06-30T21:08:39Z</time>
      </trkpt>
      <trkpt lat="49.08298" lon="3.79103">
        <ele>63.9</ele>
        <time>2020-06-30T21:08:40Z</time>
      </trkpt>
      <trkpt lat="49.08296" lon="3.791">
        <ele>63.9</ele>
        <time>2020-06-30T21:08:41Z</time>
      </trkpt>
      <trkpt lat="49.08294" lon="3.79097">
        <ele>63.9</ele>
        <time>2020-06-30T21:08:42Z</time>
      </trkpt>
      <trkpt lat="49.08291" lon="3.79093">
        <ele>63.9</ele>
        <time>2020-06-30T21:08:43Z</time>
      </trkpt>
      <trkpt lat="49.08288" lon="3.79088">
        <ele>63.8</ele>
        <time>2020-06-30T21:08:44Z</time>
      </trkpt>
      <trkpt lat="49.08286" lon="3.79084">
        <ele>63.8</ele>
        <time>2020-06-30T21:08:45Z</time>
      </trkpt>
      <trkpt lat="49.08282" lon="3.7908">
        <ele>63.7</ele>
        <time>2020-06-30T21:08:46Z</time>
      </trkpt>
      <trkpt lat="49.08279" lon="3.79075">
        <ele>63.6</ele>
        <time>2020-06-30T21:08:47Z</time>
      </trkpt>
      <trkpt lat="49.08277" lon="3.79069">
        <ele>63.6</ele>
        <time>2020-06-30T21:08:48Z</time>
      </trkpt>
      <trkpt lat="49.08274" lon="3.79064">
        <ele>63.5</ele>
        <time>2020-06-30T21:08:49Z</time>
      </trkpt>
      <trkpt lat="49.08272" lon="3.79057">
        <ele>63.4</ele>
        <time>2020-06-30T21:08:50Z</time>
      </trkpt>
      <trkpt lat="49.0827" lon="3.7905">
        <ele>63.4</ele>
        <time>2020-06-30T21:08:51Z</time>
      </trkpt>
      <trkpt lat="49.08267" lon="3.79044">
        <ele>63.3</ele>
        <time>2020-06-30T21:08:52Z</time>
      </trkpt>
      <trkpt lat="49.08265" lon="3.79037">
        <ele>63.3</ele>
        <time>2020-06-30T21:08:53Z</time>
      </trkpt>
      <trkpt lat="49.08262" lon="3.79032">
        <ele>63.2</ele>
        <time>2020-06-30T21:08:54Z</time>
      </trkpt>
      <trkpt lat="49.08261" lon="3.79025">
        <ele>63.2</ele>
        <time>2020-06-30T21:08:55Z</time>
      </trkpt>
      <trkpt lat="49.08258" lon="3.79019">
        <ele>63.2</ele>
        <time>2020-06-30T21:08:56Z</time>
      </trkpt>
      <trkpt lat="49.08256" lon="3.79011">
        <ele>63.2</ele>
        <time>2020-06-30T21:08:57Z</time>
      </trkpt>
      <trkpt lat="49.08253" lon="3.79005">
        <ele>63.2</ele>
        <time>2020-06-30T21:08:58Z</time>
      </trkpt>
      <trkpt lat="49.08251" lon="3.78998">
        <ele>63.2</ele>
        <time>2020-06-30T21:08:59Z</time>
      </trkpt>
      <trkpt lat="49.08248" lon="3.78991">
        <ele>63.2</ele>
        <time>2020-06-30T21:09:00Z</time>
      </trkpt>
      <trkpt lat="49.08246" lon="3.78984">
        <ele>63.2</ele>
        <time>2020-06-30T21:09:01Z</time>
      </trkpt>
      <trkpt lat="49.08245" lon="3.78977">
        <ele>63.3</ele>
        <time>2020-06-30T21:09:02Z</time>
      </trkpt>
      <trkpt lat="49.08244" lon="3.7897">
        <ele>63.3</ele>
        <time>2020-06-30T21:09:03Z</time>
      </trkpt>
      <trkpt lat="49.08243" lon="3.78963">
        <ele>63.3</ele>
        <time>2020-06-30T21:09:04Z</time>
      </trkpt>
      <trkpt lat="49.08243" lon="3.78955">
        <ele>63.4</ele>
        <time>2020-06-30T21:09:05Z</time>
      </trkpt>
      <trkpt lat="49.08242" lon="3.78948">
        <ele>63.4</ele>
        <time>2020-06-30T21:09:06Z</time>
      </trkpt>
      <trkpt lat="49.08243" lon="3.78941">
        <ele>63.4</ele>
        <time>2020-06-30T21:09:07Z</time>
      </trkpt>
      <trkpt lat="49.08244" lon="3.78934">
        <ele>63.4</ele>
        <time>2020-06-30T21:09:08Z</time>
      </trkpt>
      <trkpt lat="49.08245" lon="3.78926">
        <ele>63.4</ele>
        <time>2020-06-30T21:09:09Z</time>
      </trkpt>
      <trkpt lat="49.08246" lon="3.78918">
        <ele>63.4</ele>
        <time>2020-06-30T21:09:10Z</time>
      </trkpt>
      <trkpt lat="49.08247" lon="3.78911">
        <ele>63.4</ele>
        <time>2020-06-30T21:09:11Z</time>
      </trkpt>
      <trkpt lat="49.08248" lon="3.78904">
        <ele>63.5</ele>
        <time>2020-06-30T21:09:12Z</time>
      </trkpt>
      <trkpt lat="49.08248" lon="3.78896">
        <ele>63.5</ele>
        <time>2020-06-30T21:09:13Z</time>
      </trkpt>
      <trkpt lat="49.0825" lon="3.78889">
        <ele>63.5</ele>
        <time>2020-06-30T21:09:14Z</time>
      </trkpt>
      <trkpt lat="49.08252" lon="3.78882">
        <ele>63.6</ele>
        <time>2020-06-30T21:09:15Z</time>
      </trkpt>
      <trkpt lat="49.08254" lon="3.78875">
        <ele>63.7</ele>
        <time>2020-06-30T21:09:16Z</time>
      </trkpt>
      <trkpt lat="49.08256" lon="3.78869">
        <ele>63.7</ele>
        <time>2020-06-30T21:09:17Z</time>
      </trkpt>
      <trkpt lat="49.08258" lon="3.78862">
        <ele>63.8</ele>
        <time>2020-06-30T21:09:18Z</time>
      </trkpt>
      <trkpt lat="49.08259" lon="3.78855">
        <ele>63.8</ele>
        <time>2020-06-30T21:09:19Z</time>
      </trkpt>
      <trkpt lat="49.08261" lon="3.78848">
        <ele>63.9</ele>
        <time>2020-06-30T21:09:20Z</time>
      </trkpt>
      <trkpt lat="49.08263" lon="3.78842">
        <ele>63.9</ele>
        <time>2020-06-30T21:09:21Z</time>
      </trkpt>
      <trkpt lat="49.08266" lon="3.78836">
        <ele>64</ele>
        <time>2020-06-30T21:09:22Z</time>
      </trkpt>
      <trkpt lat="49.08268" lon="3.7883">
        <ele>64.1</ele>
        <time>2020-06-30T21:09:23Z</time>
      </trkpt>
      <trkpt lat="49.0827" lon="3.78825">
        <ele>64.1</ele>
        <time>2020-06-30T21:09:24Z</time>
      </trkpt>
      <trkpt lat="49.08272" lon="3.78819">
        <ele>64.1</ele>
        <time>2020-06-30T21:09:25Z</time>
      </trkpt>
      <trkpt lat="49.08275" lon="3.78815">
        <ele>64.2</ele>
        <time>2020-06-30T21:09:26Z</time>
      </trkpt>
      <trkpt lat="49.08277" lon="3.7881">
        <ele>64.2</ele>
        <time>2020-06-30T21:09:27Z</time>
      </trkpt>
      <trkpt lat="49.08278" lon="3.78804">
        <ele>64.2</ele>
        <time>2020-06-30T21:09:28Z</time>
      </trkpt>
      <trkpt lat="49.0828" lon="3.788">
        <ele>64.2</ele>
        <time>2020-06-30T21:09:29Z</time>
      </trkpt>
      <trkpt lat="49.08282" lon="3.78795">
        <ele>64.3</ele>
        <time>2020-06-30T21:09:30Z</time>
      </trkpt>
      <trkpt lat="49.08284" lon="3.7879">
        <ele>64.3</ele>
        <time>2020-06-30T21:09:31Z</time>
      </trkpt>
      <trkpt lat="49.08286" lon="3.78784">
        <ele>64.3</ele>
        <time>2020-06-30T21:09:32Z</time>
      </trkpt>
      <trkpt lat="49.08288" lon="3.78779">
        <ele>64.4</ele>
        <time>2020-06-30T21:09:33Z</time>
      </trkpt>
      <trkpt lat="49.08292" lon="3.78773">
        <ele>64.4</ele>
        <time>2020-06-30T21:09:34Z</time>
      </trkpt>
      <trkpt lat="49.08296" lon="3.78765">
        <ele>64.5</ele>
        <time>2020-06-30T21:09:35Z</time>
      </trkpt>
      <trkpt lat="49.08299" lon="3.78759">
        <ele>64.5</ele>
        <time>2020-06-30T21:09:36Z</time>
      </trkpt>
      <trkpt lat="49.08303" lon="3.7875">
        <ele>64.5</ele>
        <time>2020-06-30T21:09:37Z</time>
      </trkpt>
      <trkpt lat="49.08306" lon="3.78742">
        <ele>64.6</ele>
        <time>2020-06-30T21:09:38Z</time>
      </trkpt>
      <trkpt lat="49.08309" lon="3.78733">
        <ele>64.6</ele>
        <time>2020-06-30T21:09:39Z</time>
      </trkpt>
      <trkpt lat="49.08312" lon="3.78725">
        <ele>64.6</ele>
        <time>2020-06-30T21:09:40Z</time>
      </trkpt>
      <trkpt lat="49.08314" lon="3.78717">
        <ele>64.6</ele>
        <time>2020-06-30T21:09:41Z</time>
      </trkpt>
      <trkpt lat="49.08316" lon="3.7871">
        <ele>64.6</ele>
        <time>2020-06-30T21:09:42Z</time>
      </trkpt>
      <trkpt lat="49.08317" lon="3.78703">
        <ele>64.6</ele>
        <time>2020-06-30T21:09:43Z</time>
      </trkpt>
      <trkpt lat="49.08318" lon="3.78697">
        <ele>64.6</ele>
        <time>2020-06-30T21:09:44Z</time>
      </trkpt>
      <trkpt lat="49.08318" lon="3.78688">
        <ele>64.6</ele>
        <time>2020-06-30T21:09:45Z</time>
      </trkpt>
      <trkpt lat="49.08319" lon="3.78681">
        <ele>64.6</ele>
        <time>2020-06-30T21:09:46Z</time>
      </trkpt>
      <trkpt lat="49.08321" lon="3.78674">
        <ele>64.5</ele>
        <time>2020-06-30T21:09:47Z</time>
      </trkpt>
      <trkpt lat="49.08323" lon="3.78665">
        <ele>64.5</ele>
        <time>2020-06-30T21:09:48Z</time>
      </trkpt>
      <trkpt lat="49.08324" lon="3.78658">
        <ele>64.5</ele>
        <time>2020-06-30T21:09:49Z</time>
      </trkpt>
      <trkpt lat="49.08326" lon="3.7865">
        <ele>64.5</ele>
        <time>2020-06-30T21:09:50Z</time>
      </trkpt>
      <trkpt lat="49.08328" lon="3.7864">
        <ele>64.5</ele>
        <time>2020-06-30T21:09:51Z</time>
      </trkpt>
      <trkpt lat="49.08329" lon="3.78631">
        <ele>64.4</ele>
        <time>2020-06-30T21:09:52Z</time>
      </trkpt>
      <trkpt lat="49.08329" lon="3.78623">
        <ele>64.4</ele>
        <time>2020-06-30T21:09:53Z</time>
      </trkpt>
      <trkpt lat="49.08331" lon="3.78617">
        <ele>64.4</ele>
        <time>2020-06-30T21:09:54Z</time>
      </trkpt>
      <trkpt lat="49.08332" lon="3.7861">
        <ele>64.4</ele>
        <time>2020-06-30T21:09:55Z</time>
      </trkpt>
      <trkpt lat="49.08333" lon="3.78604">
        <ele>64.4</ele>
        <time>2020-06-30T21:09:56Z</time>
      </trkpt>
      <trkpt lat="49.08334" lon="3.78597">
        <ele>64.4</ele>
        <time>2020-06-30T21:09:57Z</time>
      </trkpt>
      <trkpt lat="49.08336" lon="3.7859">
        <ele>64.4</ele>
        <time>2020-06-30T21:09:58Z</time>
      </trkpt>
      <trkpt lat="49.08338" lon="3.78583">
        <ele>64.4</ele>
        <time>2020-06-30T21:09:59Z</time>
      </trkpt>
      <trkpt lat="49.08339" lon="3.78577">
        <ele>64.4</ele>
        <time>2020-06-30T21:10:00Z</time>
      </trkpt>
      <trkpt lat="49.08341" lon="3.7857">
        <ele>64.4</ele>
        <time>2020-06-30T21:10:01Z</time>
      </trkpt>
      <trkpt lat="49.08343" lon="3.78561">
        <ele>64.4</ele>
        <time>2020-06-30T21:10:02Z</time>
      </trkpt>
      <trkpt lat="49.08345" lon="3.78551">
        <ele>64.4</ele>
        <time>2020-06-30T21:10:03Z</time>
      </trkpt>
      <trkpt lat="49.08346" lon="3.78545">
        <ele>64.4</ele>
        <time>2020-06-30T21:10:04Z</time>
      </trkpt>
      <trkpt lat="49.08347" lon="3.78537">
        <ele>64.4</ele>
        <time>2020-06-30T21:10:05Z</time>
      </trkpt>
      <trkpt lat="49.08347" lon="3.78528">
        <ele>64.4</ele>
        <time>2020-06-30T21:10:06Z</time>
      </trkpt>
      <trkpt lat="49.08347" lon="3.78522">
        <ele>64.4</ele>
        <time>2020-06-30T21:10:07Z</time>
      </trkpt>
      <trkpt lat="49.08345" lon="3.78516">
        <ele>64.4</ele>
        <time>2020-06-30T21:10:08Z</time>
      </trkpt>
      <trkpt lat="49.08345" lon="3.78508">
        <ele>64.4</ele>
        <time>2020-06-30T21:10:09Z</time>
      </trkpt>
      <trkpt lat="49.08344" lon="3.78498">
        <ele>64.4</ele>
        <time>2020-06-30T21:10:10Z</time>
      </trkpt>
      <trkpt lat="49.08344" lon="3.78491">
        <ele>64.4</ele>
        <time>2020-06-30T21:10:11Z</time>
      </trkpt>
      <trkpt lat="49.08343" lon="3.78483">
        <ele>64.4</ele>
        <time>2020-06-30T21:10:12Z</time>
      </trkpt>
      <trkpt lat="49.08343" lon="3.78474">
        <ele>64.4</ele>
        <time>2020-06-30T21:10:13Z</time>
      </trkpt>
      <trkpt lat="49.08342" lon="3.78467">
        <ele>64.4</ele>
        <time>2020-06-30T21:10:14Z</time>
      </trkpt>
      <trkpt lat="49.08342" lon="3.7846">
        <ele>64.4</ele>
        <time>2020-06-30T21:10:15Z</time>
      </trkpt>
      <trkpt lat="49.08339" lon="3.7845">
        <ele>64.4</ele>
        <time>2020-06-30T21:10:16Z</time>
      </trkpt>
      <trkpt lat="49.08336" lon="3.78441">
        <ele>64.4</ele>
        <time>2020-06-30T21:10:17Z</time>
      </trkpt>
      <trkpt lat="49.08335" lon="3.78432">
        <ele>64.3</ele>
        <time>2020-06-30T21:10:18Z</time>
      </trkpt>
      <trkpt lat="49.08333" lon="3.78424">
        <ele>64.3</ele>
        <time>2020-06-30T21:10:19Z</time>
      </trkpt>
      <trkpt lat="49.08332" lon="3.78416">
        <ele>64.3</ele>
        <time>2020-06-30T21:10:20Z</time>
      </trkpt>
      <trkpt lat="49.0833" lon="3.78409">
        <ele>64.3</ele>
        <time>2020-06-30T21:10:21Z</time>
      </trkpt>
      <trkpt lat="49.08329" lon="3.78402">
        <ele>64.2</ele>
        <time>2020-06-30T21:10:22Z</time>
      </trkpt>
      <trkpt lat="49.08327" lon="3.78393">
        <ele>64.2</ele>
        <time>2020-06-30T21:10:23Z</time>
      </trkpt>
      <trkpt lat="49.08325" lon="3.78386">
        <ele>64.2</ele>
        <time>2020-06-30T21:10:24Z</time>
      </trkpt>
      <trkpt lat="49.08322" lon="3.7838">
        <ele>64.2</ele>
        <time>2020-06-30T21:10:25Z</time>
      </trkpt>
      <trkpt lat="49.08319" lon="3.78374">
        <ele>64.2</ele>
        <time>2020-06-30T21:10:26Z</time>
      </trkpt>
      <trkpt lat="49.08317" lon="3.78364">
        <ele>64.2</ele>
        <time>2020-06-30T21:10:27Z</time>
      </trkpt>
      <trkpt lat="49.08315" lon="3.78356">
        <ele>64.2</ele>
        <time>2020-06-30T21:10:28Z</time>
      </trkpt>
      <trkpt lat="49.08313" lon="3.78348">
        <ele>64.2</ele>
        <time>2020-06-30T21:10:29Z</time>
      </trkpt>
      <trkpt lat="49.08311" lon="3.78341">
        <ele>64.2</ele>
        <time>2020-06-30T21:10:30Z</time>
      </trkpt>
      <trkpt lat="49.0831" lon="3.78332">
        <ele>64.2</ele>
        <time>2020-06-30T21:10:31Z</time>
      </trkpt>
      <trkpt lat="49.08309" lon="3.78327">
        <ele>64.2</ele>
        <time>2020-06-30T21:10:32Z</time>
      </trkpt>
      <trkpt lat="49.08307" lon="3.78315">
        <ele>64.3</ele>
        <time>2020-06-30T21:10:33Z</time>
      </trkpt>
      <trkpt lat="49.08306" lon="3.78308">
        <ele>64.3</ele>
        <time>2020-06-30T21:10:34Z</time>
      </trkpt>
      <trkpt lat="49.08305" lon="3.783">
        <ele>64.3</ele>
        <time>2020-06-30T21:10:35Z</time>
      </trkpt>
      <trkpt lat="49.08304" lon="3.78293">
        <ele>64.3</ele>
        <time>2020-06-30T21:10:36Z</time>
      </trkpt>
      <trkpt lat="49.08303" lon="3.78284">
        <ele>64.3</ele>
        <time>2020-06-30T21:10:37Z</time>
      </trkpt>
      <trkpt lat="49.08302" lon="3.78274">
        <ele>64.2</ele>
        <time>2020-06-30T21:10:38Z</time>
      </trkpt>
      <trkpt lat="49.08301" lon="3.78267">
        <ele>64.2</ele>
        <time>2020-06-30T21:10:39Z</time>
      </trkpt>
      <trkpt lat="49.083" lon="3.78259">
        <ele>64.2</ele>
        <time>2020-06-30T21:10:40Z</time>
      </trkpt>
      <trkpt lat="49.08298" lon="3.7825">
        <ele>64.2</ele>
        <time>2020-06-30T21:10:41Z</time>
      </trkpt>
      <trkpt lat="49.08297" lon="3.78243">
        <ele>64.2</ele>
        <time>2020-06-30T21:10:42Z</time>
      </trkpt>
      <trkpt lat="49.08294" lon="3.78235">
        <ele>64.2</ele>
        <time>2020-06-30T21:10:43Z</time>
      </trkpt>
      <trkpt lat="49.08292" lon="3.78228">
        <ele>64.2</ele>
        <time>2020-06-30T21:10:44Z</time>
      </trkpt>
      <trkpt lat="49.0829" lon="3.78219">
        <ele>64.2</ele>
        <time>2020-06-30T21:10:45Z</time>
      </trkpt>
      <trkpt lat="49.08288" lon="3.78214">
        <ele>64.3</ele>
        <time>2020-06-30T21:10:46Z</time>
      </trkpt>
      <trkpt lat="49.08286" lon="3.78207">
        <ele>64.3</ele>
        <time>2020-06-30T21:10:47Z</time>
      </trkpt>
      <trkpt lat="49.08284" lon="3.78199">
        <ele>64.3</ele>
        <time>2020-06-30T21:10:48Z</time>
      </trkpt>
      <trkpt lat="49.08283" lon="3.78192">
        <ele>64.3</ele>
        <time>2020-06-30T21:10:49Z</time>
      </trkpt>
      <trkpt lat="49.0828" lon="3.78184">
        <ele>64.3</ele>
        <time>2020-06-30T21:10:50Z</time>
      </trkpt>
      <trkpt lat="49.08277" lon="3.78178">
        <ele>64.3</ele>
        <time>2020-06-30T21:10:51Z</time>
      </trkpt>
      <trkpt lat="49.08274" lon="3.78172">
        <ele>64.3</ele>
        <time>2020-06-30T21:10:52Z</time>
      </trkpt>
      <trkpt lat="49.08271" lon="3.78166">
        <ele>64.3</ele>
        <time>2020-06-30T21:10:53Z</time>
      </trkpt>
      <trkpt lat="49.08268" lon="3.78162">
        <ele>64.3</ele>
        <time>2020-06-30T21:10:54Z</time>
      </trkpt>
      <trkpt lat="49.08265" lon="3.78157">
        <ele>64.3</ele>
        <time>2020-06-30T21:10:55Z</time>
      </trkpt>
      <trkpt lat="49.08261" lon="3.78151">
        <ele>64.3</ele>
        <time>2020-06-30T21:10:56Z</time>
      </trkpt>
      <trkpt lat="49.08258" lon="3.78147">
        <ele>64.3</ele>
        <time>2020-06-30T21:10:57Z</time>
      </trkpt>
      <trkpt lat="49.08256" lon="3.78143">
        <ele>64.3</ele>
        <time>2020-06-30T21:10:58Z</time>
      </trkpt>
      <trkpt lat="49.08255" lon="3.78139">
        <ele>64.3</ele>
        <time>2020-06-30T21:10:59Z</time>
      </trkpt>
      <trkpt lat="49.08253" lon="3.78136">
        <ele>64.3</ele>
        <time>2020-06-30T21:11:00Z</time>
      </trkpt>
      <trkpt lat="49.08251" lon="3.78132">
        <ele>64.3</ele>
        <time>2020-06-30T21:11:01Z</time>
      </trkpt>
      <trkpt lat="49.08249" lon="3.78125">
        <ele>64.3</ele>
        <time>2020-06-30T21:11:02Z</time>
      </trkpt>
      <trkpt lat="49.08246" lon="3.78118">
        <ele>64.4</ele>
        <time>2020-06-30T21:11:03Z</time>
      </trkpt>
      <trkpt lat="49.08244" lon="3.78112">
        <ele>64.4</ele>
        <time>2020-06-30T21:11:04Z</time>
      </trkpt>
      <trkpt lat="49.08242" lon="3.78106">
        <ele>64.4</ele>
        <time>2020-06-30T21:11:05Z</time>
      </trkpt>
      <trkpt lat="49.08241" lon="3.781">
        <ele>64.5</ele>
        <time>2020-06-30T21:11:06Z</time>
      </trkpt>
      <trkpt lat="49.08239" lon="3.78093">
        <ele>64.5</ele>
        <time>2020-06-30T21:11:07Z</time>
      </trkpt>
      <trkpt lat="49.08238" lon="3.78087">
        <ele>64.6</ele>
        <time>2020-06-30T21:11:08Z</time>
      </trkpt>
      <trkpt lat="49.08236" lon="3.78082">
        <ele>64.6</ele>
        <time>2020-06-30T21:11:09Z</time>
      </trkpt>
      <trkpt lat="49.08233" lon="3.78074">
        <ele>64.6</ele>
        <time>2020-06-30T21:11:10Z</time>
      </trkpt>
      <trkpt lat="49.0823" lon="3.78069">
        <ele>64.6</ele>
        <time>2020-06-30T21:11:11Z</time>
      </trkpt>
      <trkpt lat="49.08229" lon="3.78066">
        <ele>64.6</ele>
        <time>2020-06-30T21:11:12Z</time>
      </trkpt>
      <trkpt lat="49.08228" lon="3.78061">
        <ele>64.6</ele>
        <time>2020-06-30T21:11:13Z</time>
      </trkpt>
      <trkpt lat="49.08226" lon="3.78056">
        <ele>64.5</ele>
        <time>2020-06-30T21:11:14Z</time>
      </trkpt>
      <trkpt lat="49.08223" lon="3.78052">
        <ele>64.5</ele>
        <time>2020-06-30T21:11:15Z</time>
      </trkpt>
      <trkpt lat="49.08221" lon="3.78047">
        <ele>64.4</ele>
        <time>2020-06-30T21:11:16Z</time>
      </trkpt>
      <trkpt lat="49.08218" lon="3.78041">
        <ele>64.4</ele>
        <time>2020-06-30T21:11:17Z</time>
      </trkpt>
      <trkpt lat="49.08216" lon="3.78037">
        <ele>64.3</ele>
        <time>2020-06-30T21:11:18Z</time>
      </trkpt>
      <trkpt lat="49.08214" lon="3.78032">
        <ele>64.3</ele>
        <time>2020-06-30T21:11:19Z</time>
      </trkpt>
      <trkpt lat="49.0821" lon="3.78024">
        <ele>64.2</ele>
        <time>2020-06-30T21:11:20Z</time>
      </trkpt>
      <trkpt lat="49.08206" lon="3.78019">
        <ele>64.1</ele>
        <time>2020-06-30T21:11:21Z</time>
      </trkpt>
      <trkpt lat="49.08203" lon="3.78013">
        <ele>64</ele>
        <time>2020-06-30T21:11:22Z</time>
      </trkpt>
      <trkpt lat="49.082" lon="3.78009">
        <ele>63.9</ele>
        <time>2020-06-30T21:11:23Z</time>
      </trkpt>
      <trkpt lat="49.08196" lon="3.78004">
        <ele>63.9</ele>
        <time>2020-06-30T21:11:24Z</time>
      </trkpt>
      <trkpt lat="49.08193" lon="3.78">
        <ele>63.8</ele>
        <time>2020-06-30T21:11:25Z</time>
      </trkpt>
      <trkpt lat="49.0819" lon="3.77995">
        <ele>63.8</ele>
        <time>2020-06-30T21:11:26Z</time>
      </trkpt>
      <trkpt lat="49.08186" lon="3.7799">
        <ele>63.7</ele>
        <time>2020-06-30T21:11:27Z</time>
      </trkpt>
      <trkpt lat="49.08182" lon="3.77983">
        <ele>63.7</ele>
        <time>2020-06-30T21:11:28Z</time>
      </trkpt>
      <trkpt lat="49.08179" lon="3.77978">
        <ele>63.6</ele>
        <time>2020-06-30T21:11:29Z</time>
      </trkpt>
      <trkpt lat="49.08176" lon="3.77974">
        <ele>63.6</ele>
        <time>2020-06-30T21:11:30Z</time>
      </trkpt>
      <trkpt lat="49.08173" lon="3.77967">
        <ele>63.6</ele>
        <time>2020-06-30T21:11:31Z</time>
      </trkpt>
      <trkpt lat="49.08169" lon="3.77961">
        <ele>63.6</ele>
        <time>2020-06-30T21:11:32Z</time>
      </trkpt>
      <trkpt lat="49.08166" lon="3.77954">
        <ele>63.6</ele>
        <time>2020-06-30T21:11:33Z</time>
      </trkpt>
      <trkpt lat="49.08163" lon="3.77949">
        <ele>63.7</ele>
        <time>2020-06-30T21:11:34Z</time>
      </trkpt>
      <trkpt lat="49.08161" lon="3.77944">
        <ele>63.7</ele>
        <time>2020-06-30T21:11:35Z</time>
      </trkpt>
      <trkpt lat="49.08158" lon="3.77938">
        <ele>63.7</ele>
        <time>2020-06-30T21:11:36Z</time>
      </trkpt>
      <trkpt lat="49.08156" lon="3.77931">
        <ele>63.8</ele>
        <time>2020-06-30T21:11:37Z</time>
      </trkpt>
      <trkpt lat="49.08154" lon="3.77926">
        <ele>63.8</ele>
        <time>2020-06-30T21:11:38Z</time>
      </trkpt>
      <trkpt lat="49.08151" lon="3.77922">
        <ele>63.8</ele>
        <time>2020-06-30T21:11:39Z</time>
      </trkpt>
      <trkpt lat="49.08148" lon="3.77915">
        <ele>63.8</ele>
        <time>2020-06-30T21:11:40Z</time>
      </trkpt>
      <trkpt lat="49.08146" lon="3.77909">
        <ele>63.8</ele>
        <time>2020-06-30T21:11:41Z</time>
      </trkpt>
      <trkpt lat="49.08144" lon="3.77902">
        <ele>63.8</ele>
        <time>2020-06-30T21:11:42Z</time>
      </trkpt>
      <trkpt lat="49.08142" lon="3.77895">
        <ele>63.8</ele>
        <time>2020-06-30T21:11:43Z</time>
      </trkpt>
      <trkpt lat="49.08141" lon="3.77887">
        <ele>63.7</ele>
        <time>2020-06-30T21:11:44Z</time>
      </trkpt>
      <trkpt lat="49.08141" lon="3.7788">
        <ele>63.7</ele>
        <time>2020-06-30T21:11:45Z</time>
      </trkpt>
      <trkpt lat="49.08141" lon="3.77872">
        <ele>63.7</ele>
        <time>2020-06-30T21:11:46Z</time>
      </trkpt>
      <trkpt lat="49.0814" lon="3.77865">
        <ele>63.7</ele>
        <time>2020-06-30T21:11:47Z</time>
      </trkpt>
      <trkpt lat="49.0814" lon="3.77857">
        <ele>63.7</ele>
        <time>2020-06-30T21:11:48Z</time>
      </trkpt>
      <trkpt lat="49.08138" lon="3.7785">
        <ele>63.7</ele>
        <time>2020-06-30T21:11:49Z</time>
      </trkpt>
      <trkpt lat="49.08138" lon="3.77842">
        <ele>63.7</ele>
        <time>2020-06-30T21:11:50Z</time>
      </trkpt>
      <trkpt lat="49.08135" lon="3.77835">
        <ele>63.7</ele>
        <time>2020-06-30T21:11:51Z</time>
      </trkpt>
      <trkpt lat="49.08134" lon="3.77827">
        <ele>63.8</ele>
        <time>2020-06-30T21:11:52Z</time>
      </trkpt>
      <trkpt lat="49.08134" lon="3.7782">
        <ele>63.8</ele>
        <time>2020-06-30T21:11:53Z</time>
      </trkpt>
      <trkpt lat="49.08133" lon="3.77812">
        <ele>63.8</ele>
        <time>2020-06-30T21:11:54Z</time>
      </trkpt>
      <trkpt lat="49.08132" lon="3.77804">
        <ele>63.9</ele>
        <time>2020-06-30T21:11:55Z</time>
      </trkpt>
      <trkpt lat="49.08131" lon="3.77796">
        <ele>63.9</ele>
        <time>2020-06-30T21:11:56Z</time>
      </trkpt>
      <trkpt lat="49.0813" lon="3.77788">
        <ele>63.9</ele>
        <time>2020-06-30T21:11:57Z</time>
      </trkpt>
      <trkpt lat="49.08129" lon="3.7778">
        <ele>64</ele>
        <time>2020-06-30T21:11:58Z</time>
      </trkpt>
      <trkpt lat="49.08128" lon="3.77772">
        <ele>64</ele>
        <time>2020-06-30T21:11:59Z</time>
      </trkpt>
      <trkpt lat="49.08129" lon="3.77764">
        <ele>64.1</ele>
        <time>2020-06-30T21:12:00Z</time>
      </trkpt>
      <trkpt lat="49.08129" lon="3.77757">
        <ele>64.1</ele>
        <time>2020-06-30T21:12:01Z</time>
      </trkpt>
      <trkpt lat="49.08129" lon="3.77749">
        <ele>64.1</ele>
        <time>2020-06-30T21:12:02Z</time>
      </trkpt>
      <trkpt lat="49.0813" lon="3.77741">
        <ele>64.1</ele>
        <time>2020-06-30T21:12:03Z</time>
      </trkpt>
      <trkpt lat="49.0813" lon="3.77733">
        <ele>64.2</ele>
        <time>2020-06-30T21:12:04Z</time>
      </trkpt>
      <trkpt lat="49.08131" lon="3.77725">
        <ele>64.2</ele>
        <time>2020-06-30T21:12:05Z</time>
      </trkpt>
      <trkpt lat="49.08131" lon="3.77718">
        <ele>64.2</ele>
        <time>2020-06-30T21:12:06Z</time>
      </trkpt>
      <trkpt lat="49.08132" lon="3.77711">
        <ele>64.2</ele>
        <time>2020-06-30T21:12:07Z</time>
      </trkpt>
      <trkpt lat="49.08133" lon="3.77703">
        <ele>64.2</ele>
        <time>2020-06-30T21:12:08Z</time>
      </trkpt>
      <trkpt lat="49.08133" lon="3.77695">
        <ele>64.2</ele>
        <time>2020-06-30T21:12:09Z</time>
      </trkpt>
      <trkpt lat="49.08133" lon="3.77687">
        <ele>64.1</ele>
        <time>2020-06-30T21:12:10Z</time>
      </trkpt>
      <trkpt lat="49.08134" lon="3.77679">
        <ele>64.1</ele>
        <time>2020-06-30T21:12:11Z</time>
      </trkpt>
      <trkpt lat="49.08135" lon="3.77671">
        <ele>64.1</ele>
        <time>2020-06-30T21:12:12Z</time>
      </trkpt>
      <trkpt lat="49.08136" lon="3.77662">
        <ele>64.1</ele>
        <time>2020-06-30T21:12:13Z</time>
      </trkpt>
      <trkpt lat="49.08136" lon="3.77654">
        <ele>64.1</ele>
        <time>2020-06-30T21:12:14Z</time>
      </trkpt>
      <trkpt lat="49.08137" lon="3.77646">
        <ele>64.1</ele>
        <time>2020-06-30T21:12:15Z</time>
      </trkpt>
      <trkpt lat="49.08137" lon="3.77637">
        <ele>64.1</ele>
        <time>2020-06-30T21:12:16Z</time>
      </trkpt>
      <trkpt lat="49.08137" lon="3.77628">
        <ele>64.1</ele>
        <time>2020-06-30T21:12:17Z</time>
      </trkpt>
      <trkpt lat="49.08136" lon="3.77619">
        <ele>64.1</ele>
        <time>2020-06-30T21:12:18Z</time>
      </trkpt>
      <trkpt lat="49.08136" lon="3.77611">
        <ele>64.1</ele>
        <time>2020-06-30T21:12:19Z</time>
      </trkpt>
      <trkpt lat="49.08136" lon="3.77602">
        <ele>64.1</ele>
        <time>2020-06-30T21:12:20Z</time>
      </trkpt>
      <trkpt lat="49.08136" lon="3.77594">
        <ele>64.1</ele>
        <time>2020-06-30T21:12:21Z</time>
      </trkpt>
      <trkpt lat="49.08136" lon="3.77586">
        <ele>64.1</ele>
        <time>2020-06-30T21:12:22Z</time>
      </trkpt>
      <trkpt lat="49.08135" lon="3.77578">
        <ele>64.1</ele>
        <time>2020-06-30T21:12:23Z</time>
      </trkpt>
      <trkpt lat="49.08135" lon="3.77569">
        <ele>64.1</ele>
        <time>2020-06-30T21:12:24Z</time>
      </trkpt>
      <trkpt lat="49.08135" lon="3.77561">
        <ele>64.1</ele>
        <time>2020-06-30T21:12:25Z</time>
      </trkpt>
      <trkpt lat="49.08136" lon="3.77552">
        <ele>64.1</ele>
        <time>2020-06-30T21:12:26Z</time>
      </trkpt>
      <trkpt lat="49.08136" lon="3.77544">
        <ele>64.1</ele>
        <time>2020-06-30T21:12:27Z</time>
      </trkpt>
      <trkpt lat="49.08137" lon="3.77536">
        <ele>64.1</ele>
        <time>2020-06-30T21:12:28Z</time>
      </trkpt>
      <trkpt lat="49.08137" lon="3.77527">
        <ele>64</ele>
        <time>2020-06-30T21:12:29Z</time>
      </trkpt>
      <trkpt lat="49.08137" lon="3.77519">
        <ele>64</ele>
        <time>2020-06-30T21:12:30Z</time>
      </trkpt>
      <trkpt lat="49.08138" lon="3.77511">
        <ele>64</ele>
        <time>2020-06-30T21:12:31Z</time>
      </trkpt>
      <trkpt lat="49.08138" lon="3.77502">
        <ele>64</ele>
        <time>2020-06-30T21:12:32Z</time>
      </trkpt>
      <trkpt lat="49.08139" lon="3.77494">
        <ele>64</ele>
        <time>2020-06-30T21:12:33Z</time>
      </trkpt>
      <trkpt lat="49.0814" lon="3.77485">
        <ele>64</ele>
        <time>2020-06-30T21:12:34Z</time>
      </trkpt>
      <trkpt lat="49.08139" lon="3.77477">
        <ele>64</ele>
        <time>2020-06-30T21:12:35Z</time>
      </trkpt>
      <trkpt lat="49.0814" lon="3.77468">
        <ele>64</ele>
        <time>2020-06-30T21:12:36Z</time>
      </trkpt>
      <trkpt lat="49.0814" lon="3.7746">
        <ele>64</ele>
        <time>2020-06-30T21:12:37Z</time>
      </trkpt>
      <trkpt lat="49.0814" lon="3.77453">
        <ele>64</ele>
        <time>2020-06-30T21:12:38Z</time>
      </trkpt>
      <trkpt lat="49.08141" lon="3.77445">
        <ele>64</ele>
        <time>2020-06-30T21:12:39Z</time>
      </trkpt>
      <trkpt lat="49.08141" lon="3.77437">
        <ele>64</ele>
        <time>2020-06-30T21:12:40Z</time>
      </trkpt>
      <trkpt lat="49.08142" lon="3.77429">
        <ele>64</ele>
        <time>2020-06-30T21:12:41Z</time>
      </trkpt>
      <trkpt lat="49.08141" lon="3.77421">
        <ele>64</ele>
        <time>2020-06-30T21:12:42Z</time>
      </trkpt>
      <trkpt lat="49.08141" lon="3.77412">
        <ele>64</ele>
        <time>2020-06-30T21:12:43Z</time>
      </trkpt>
      <trkpt lat="49.08141" lon="3.77404">
        <ele>64</ele>
        <time>2020-06-30T21:12:44Z</time>
      </trkpt>
      <trkpt lat="49.0814" lon="3.77396">
        <ele>64</ele>
        <time>2020-06-30T21:12:45Z</time>
      </trkpt>
      <trkpt lat="49.0814" lon="3.77388">
        <ele>64</ele>
        <time>2020-06-30T21:12:46Z</time>
      </trkpt>
      <trkpt lat="49.0814" lon="3.7738">
        <ele>64</ele>
        <time>2020-06-30T21:12:47Z</time>
      </trkpt>
      <trkpt lat="49.0814" lon="3.77372">
        <ele>64</ele>
        <time>2020-06-30T21:12:48Z</time>
      </trkpt>
      <trkpt lat="49.0814" lon="3.77363">
        <ele>64</ele>
        <time>2020-06-30T21:12:49Z</time>
      </trkpt>
      <trkpt lat="49.0814" lon="3.77355">
        <ele>64</ele>
        <time>2020-06-30T21:12:50Z</time>
      </trkpt>
      <trkpt lat="49.08141" lon="3.77347">
        <ele>64</ele>
        <time>2020-06-30T21:12:51Z</time>
      </trkpt>
      <trkpt lat="49.08142" lon="3.77339">
        <ele>63.9</ele>
        <time>2020-06-30T21:12:52Z</time>
      </trkpt>
      <trkpt lat="49.08142" lon="3.77331">
        <ele>63.9</ele>
        <time>2020-06-30T21:12:53Z</time>
      </trkpt>
      <trkpt lat="49.08143" lon="3.77323">
        <ele>63.9</ele>
        <time>2020-06-30T21:12:54Z</time>
      </trkpt>
      <trkpt lat="49.08144" lon="3.77315">
        <ele>63.8</ele>
        <time>2020-06-30T21:12:55Z</time>
      </trkpt>
      <trkpt lat="49.08145" lon="3.77308">
        <ele>63.8</ele>
        <time>2020-06-30T21:12:56Z</time>
      </trkpt>
      <trkpt lat="49.08145" lon="3.77299">
        <ele>63.8</ele>
        <time>2020-06-30T21:12:57Z</time>
      </trkpt>
      <trkpt lat="49.08146" lon="3.77291">
        <ele>63.7</ele>
        <time>2020-06-30T21:12:58Z</time>
      </trkpt>
      <trkpt lat="49.08145" lon="3.77282">
        <ele>63.7</ele>
        <time>2020-06-30T21:12:59Z</time>
      </trkpt>
      <trkpt lat="49.08145" lon="3.77273">
        <ele>63.7</ele>
        <time>2020-06-30T21:13:00Z</time>
      </trkpt>
      <trkpt lat="49.08146" lon="3.77264">
        <ele>63.7</ele>
        <time>2020-06-30T21:13:01Z</time>
      </trkpt>
      <trkpt lat="49.08147" lon="3.77256">
        <ele>63.7</ele>
        <time>2020-06-30T21:13:02Z</time>
      </trkpt>
      <trkpt lat="49.08147" lon="3.77247">
        <ele>63.7</ele>
        <time>2020-06-30T21:13:03Z</time>
      </trkpt>
      <trkpt lat="49.08147" lon="3.77238">
        <ele>63.7</ele>
        <time>2020-06-30T21:13:04Z</time>
      </trkpt>
      <trkpt lat="49.08147" lon="3.7723">
        <ele>63.8</ele>
        <time>2020-06-30T21:13:05Z</time>
      </trkpt>
      <trkpt lat="49.08148" lon="3.77222">
        <ele>63.7</ele>
        <time>2020-06-30T21:13:06Z</time>
      </trkpt>
      <trkpt lat="49.08148" lon="3.77213">
        <ele>63.7</ele>
        <time>2020-06-30T21:13:07Z</time>
      </trkpt>
      <trkpt lat="49.08148" lon="3.77204">
        <ele>63.6</ele>
        <time>2020-06-30T21:13:08Z</time>
      </trkpt>
      <trkpt lat="49.08148" lon="3.77195">
        <ele>63.6</ele>
        <time>2020-06-30T21:13:09Z</time>
      </trkpt>
      <trkpt lat="49.08148" lon="3.77187">
        <ele>63.6</ele>
        <time>2020-06-30T21:13:10Z</time>
      </trkpt>
      <trkpt lat="49.08148" lon="3.77178">
        <ele>63.6</ele>
        <time>2020-06-30T21:13:11Z</time>
      </trkpt>
      <trkpt lat="49.08148" lon="3.7717">
        <ele>63.7</ele>
        <time>2020-06-30T21:13:12Z</time>
      </trkpt>
      <trkpt lat="49.08147" lon="3.77162">
        <ele>63.7</ele>
        <time>2020-06-30T21:13:13Z</time>
      </trkpt>
      <trkpt lat="49.08147" lon="3.77154">
        <ele>63.8</ele>
        <time>2020-06-30T21:13:14Z</time>
      </trkpt>
      <trkpt lat="49.08148" lon="3.77146">
        <ele>63.8</ele>
        <time>2020-06-30T21:13:15Z</time>
      </trkpt>
      <trkpt lat="49.08148" lon="3.77138">
        <ele>63.8</ele>
        <time>2020-06-30T21:13:16Z</time>
      </trkpt>
      <trkpt lat="49.08148" lon="3.7713">
        <ele>63.9</ele>
        <time>2020-06-30T21:13:17Z</time>
      </trkpt>
      <trkpt lat="49.08149" lon="3.77122">
        <ele>63.9</ele>
        <time>2020-06-30T21:13:18Z</time>
      </trkpt>
      <trkpt lat="49.0815" lon="3.77114">
        <ele>64</ele>
        <time>2020-06-30T21:13:19Z</time>
      </trkpt>
      <trkpt lat="49.0815" lon="3.77106">
        <ele>64</ele>
        <time>2020-06-30T21:13:20Z</time>
      </trkpt>
      <trkpt lat="49.0815" lon="3.77098">
        <ele>64</ele>
        <time>2020-06-30T21:13:21Z</time>
      </trkpt>
      <trkpt lat="49.08151" lon="3.77091">
        <ele>64</ele>
        <time>2020-06-30T21:13:22Z</time>
      </trkpt>
      <trkpt lat="49.08152" lon="3.77083">
        <ele>64</ele>
        <time>2020-06-30T21:13:23Z</time>
      </trkpt>
      <trkpt lat="49.08153" lon="3.77075">
        <ele>64</ele>
        <time>2020-06-30T21:13:24Z</time>
      </trkpt>
      <trkpt lat="49.08154" lon="3.77068">
        <ele>64</ele>
        <time>2020-06-30T21:13:25Z</time>
      </trkpt>
      <trkpt lat="49.08154" lon="3.77059">
        <ele>64</ele>
        <time>2020-06-30T21:13:26Z</time>
      </trkpt>
      <trkpt lat="49.08156" lon="3.77051">
        <ele>64</ele>
        <time>2020-06-30T21:13:27Z</time>
      </trkpt>
      <trkpt lat="49.08157" lon="3.77042">
        <ele>64</ele>
        <time>2020-06-30T21:13:28Z</time>
      </trkpt>
      <trkpt lat="49.08157" lon="3.77033">
        <ele>64</ele>
        <time>2020-06-30T21:13:29Z</time>
      </trkpt>
      <trkpt lat="49.08159" lon="3.77026">
        <ele>64</ele>
        <time>2020-06-30T21:13:30Z</time>
      </trkpt>
      <trkpt lat="49.08161" lon="3.77018">
        <ele>64</ele>
        <time>2020-06-30T21:13:31Z</time>
      </trkpt>
      <trkpt lat="49.08163" lon="3.7701">
        <ele>64</ele>
        <time>2020-06-30T21:13:32Z</time>
      </trkpt>
      <trkpt lat="49.08164" lon="3.77002">
        <ele>64</ele>
        <time>2020-06-30T21:13:33Z</time>
      </trkpt>
      <trkpt lat="49.08165" lon="3.76994">
        <ele>64</ele>
        <time>2020-06-30T21:13:34Z</time>
      </trkpt>
      <trkpt lat="49.08166" lon="3.76987">
        <ele>64</ele>
        <time>2020-06-30T21:13:35Z</time>
      </trkpt>
      <trkpt lat="49.08168" lon="3.7698">
        <ele>64</ele>
        <time>2020-06-30T21:13:36Z</time>
      </trkpt>
      <trkpt lat="49.08169" lon="3.76973">
        <ele>64</ele>
        <time>2020-06-30T21:13:37Z</time>
      </trkpt>
      <trkpt lat="49.0817" lon="3.76964">
        <ele>64</ele>
        <time>2020-06-30T21:13:38Z</time>
      </trkpt>
      <trkpt lat="49.08173" lon="3.76954">
        <ele>64</ele>
        <time>2020-06-30T21:13:39Z</time>
      </trkpt>
      <trkpt lat="49.08174" lon="3.76946">
        <ele>64</ele>
        <time>2020-06-30T21:13:40Z</time>
      </trkpt>
      <trkpt lat="49.08176" lon="3.7694">
        <ele>64</ele>
        <time>2020-06-30T21:13:41Z</time>
      </trkpt>
      <trkpt lat="49.08178" lon="3.76933">
        <ele>64.1</ele>
        <time>2020-06-30T21:13:42Z</time>
      </trkpt>
      <trkpt lat="49.0818" lon="3.76924">
        <ele>64.1</ele>
        <time>2020-06-30T21:13:43Z</time>
      </trkpt>
      <trkpt lat="49.08183" lon="3.76916">
        <ele>64.1</ele>
        <time>2020-06-30T21:13:44Z</time>
      </trkpt>
      <trkpt lat="49.08186" lon="3.76907">
        <ele>64.2</ele>
        <time>2020-06-30T21:13:45Z</time>
      </trkpt>
      <trkpt lat="49.08189" lon="3.76899">
        <ele>64.2</ele>
        <time>2020-06-30T21:13:46Z</time>
      </trkpt>
      <trkpt lat="49.08191" lon="3.76894">
        <ele>64.2</ele>
        <time>2020-06-30T21:13:47Z</time>
      </trkpt>
      <trkpt lat="49.08194" lon="3.76886">
        <ele>64.2</ele>
        <time>2020-06-30T21:13:48Z</time>
      </trkpt>
      <trkpt lat="49.08196" lon="3.76878">
        <ele>64.3</ele>
        <time>2020-06-30T21:13:49Z</time>
      </trkpt>
      <trkpt lat="49.08199" lon="3.7687">
        <ele>64.3</ele>
        <time>2020-06-30T21:13:50Z</time>
      </trkpt>
      <trkpt lat="49.08201" lon="3.76863">
        <ele>64.3</ele>
        <time>2020-06-30T21:13:51Z</time>
      </trkpt>
      <trkpt lat="49.08203" lon="3.76855">
        <ele>64.4</ele>
        <time>2020-06-30T21:13:52Z</time>
      </trkpt>
      <trkpt lat="49.08205" lon="3.76848">
        <ele>64.4</ele>
        <time>2020-06-30T21:13:53Z</time>
      </trkpt>
      <trkpt lat="49.08208" lon="3.7684">
        <ele>64.4</ele>
        <time>2020-06-30T21:13:54Z</time>
      </trkpt>
      <trkpt lat="49.0821" lon="3.76832">
        <ele>64.4</ele>
        <time>2020-06-30T21:13:55Z</time>
      </trkpt>
      <trkpt lat="49.08213" lon="3.76826">
        <ele>64.4</ele>
        <time>2020-06-30T21:13:56Z</time>
      </trkpt>
      <trkpt lat="49.08215" lon="3.76822">
        <ele>64.4</ele>
        <time>2020-06-30T21:13:57Z</time>
      </trkpt>
      <trkpt lat="49.08218" lon="3.76815">
        <ele>64.4</ele>
        <time>2020-06-30T21:13:58Z</time>
      </trkpt>
      <trkpt lat="49.08221" lon="3.76806">
        <ele>64.4</ele>
        <time>2020-06-30T21:13:59Z</time>
      </trkpt>
      <trkpt lat="49.08223" lon="3.76799">
        <ele>64.3</ele>
        <time>2020-06-30T21:14:00Z</time>
      </trkpt>
      <trkpt lat="49.08226" lon="3.76789">
        <ele>64.3</ele>
        <time>2020-06-30T21:14:01Z</time>
      </trkpt>
      <trkpt lat="49.08229" lon="3.76782">
        <ele>64.3</ele>
        <time>2020-06-30T21:14:02Z</time>
      </trkpt>
      <trkpt lat="49.08231" lon="3.76776">
        <ele>64.2</ele>
        <time>2020-06-30T21:14:03Z</time>
      </trkpt>
      <trkpt lat="49.08233" lon="3.76767">
        <ele>64.2</ele>
        <time>2020-06-30T21:14:04Z</time>
      </trkpt>
      <trkpt lat="49.08235" lon="3.76759">
        <ele>64.2</ele>
        <time>2020-06-30T21:14:05Z</time>
      </trkpt>
      <trkpt lat="49.08238" lon="3.76752">
        <ele>64.2</ele>
        <time>2020-06-30T21:14:06Z</time>
      </trkpt>
      <trkpt lat="49.08239" lon="3.76746">
        <ele>64.1</ele>
        <time>2020-06-30T21:14:07Z</time>
      </trkpt>
      <trkpt lat="49.08241" lon="3.76738">
        <ele>64.1</ele>
        <time>2020-06-30T21:14:08Z</time>
      </trkpt>
      <trkpt lat="49.08244" lon="3.76729">
        <ele>64.1</ele>
        <time>2020-06-30T21:14:09Z</time>
      </trkpt>
      <trkpt lat="49.08247" lon="3.7672">
        <ele>64.1</ele>
        <time>2020-06-30T21:14:10Z</time>
      </trkpt>
      <trkpt lat="49.08249" lon="3.76712">
        <ele>64.1</ele>
        <time>2020-06-30T21:14:11Z</time>
      </trkpt>
      <trkpt lat="49.08252" lon="3.76704">
        <ele>64.1</ele>
        <time>2020-06-30T21:14:12Z</time>
      </trkpt>
      <trkpt lat="49.08254" lon="3.76696">
        <ele>64.1</ele>
        <time>2020-06-30T21:14:13Z</time>
      </trkpt>
      <trkpt lat="49.08257" lon="3.76689">
        <ele>64</ele>
        <time>2020-06-30T21:14:14Z</time>
      </trkpt>
      <trkpt lat="49.0826" lon="3.76681">
        <ele>64</ele>
        <time>2020-06-30T21:14:15Z</time>
      </trkpt>
      <trkpt lat="49.08262" lon="3.76673">
        <ele>64</ele>
        <time>2020-06-30T21:14:16Z</time>
      </trkpt>
      <trkpt lat="49.08265" lon="3.76666">
        <ele>64</ele>
        <time>2020-06-30T21:14:17Z</time>
      </trkpt>
      <trkpt lat="49.08267" lon="3.76659">
        <ele>64</ele>
        <time>2020-06-30T21:14:18Z</time>
      </trkpt>
      <trkpt lat="49.08269" lon="3.76651">
        <ele>64</ele>
        <time>2020-06-30T21:14:19Z</time>
      </trkpt>
      <trkpt lat="49.08272" lon="3.76641">
        <ele>64</ele>
        <time>2020-06-30T21:14:20Z</time>
      </trkpt>
      <trkpt lat="49.08275" lon="3.76632">
        <ele>64</ele>
        <time>2020-06-30T21:14:21Z</time>
      </trkpt>
      <trkpt lat="49.08277" lon="3.76624">
        <ele>64</ele>
        <time>2020-06-30T21:14:22Z</time>
      </trkpt>
      <trkpt lat="49.08279" lon="3.76617">
        <ele>64</ele>
        <time>2020-06-30T21:14:23Z</time>
      </trkpt>
      <trkpt lat="49.08281" lon="3.76611">
        <ele>64</ele>
        <time>2020-06-30T21:14:24Z</time>
      </trkpt>
      <trkpt lat="49.08284" lon="3.76603">
        <ele>64</ele>
        <time>2020-06-30T21:14:25Z</time>
      </trkpt>
      <trkpt lat="49.08286" lon="3.76595">
        <ele>64</ele>
        <time>2020-06-30T21:14:26Z</time>
      </trkpt>
      <trkpt lat="49.08288" lon="3.76588">
        <ele>64</ele>
        <time>2020-06-30T21:14:27Z</time>
      </trkpt>
      <trkpt lat="49.0829" lon="3.76579">
        <ele>64</ele>
        <time>2020-06-30T21:14:28Z</time>
      </trkpt>
      <trkpt lat="49.08292" lon="3.7657">
        <ele>64.1</ele>
        <time>2020-06-30T21:14:29Z</time>
      </trkpt>
      <trkpt lat="49.08294" lon="3.76563">
        <ele>64.1</ele>
        <time>2020-06-30T21:14:30Z</time>
      </trkpt>
      <trkpt lat="49.08296" lon="3.76556">
        <ele>64.1</ele>
        <time>2020-06-30T21:14:31Z</time>
      </trkpt>
      <trkpt lat="49.08299" lon="3.76549">
        <ele>64.1</ele>
        <time>2020-06-30T21:14:32Z</time>
      </trkpt>
      <trkpt lat="49.08301" lon="3.76541">
        <ele>64.1</ele>
        <time>2020-06-30T21:14:33Z</time>
      </trkpt>
      <trkpt lat="49.08304" lon="3.76534">
        <ele>64.1</ele>
        <time>2020-06-30T21:14:34Z</time>
      </trkpt>
      <trkpt lat="49.08307" lon="3.76526">
        <ele>64.1</ele>
        <time>2020-06-30T21:14:35Z</time>
      </trkpt>
      <trkpt lat="49.0831" lon="3.76517">
        <ele>64.2</ele>
        <time>2020-06-30T21:14:36Z</time>
      </trkpt>
      <trkpt lat="49.08312" lon="3.7651">
        <ele>64.2</ele>
        <time>2020-06-30T21:14:37Z</time>
      </trkpt>
      <trkpt lat="49.08314" lon="3.76501">
        <ele>64.2</ele>
        <time>2020-06-30T21:14:38Z</time>
      </trkpt>
      <trkpt lat="49.08317" lon="3.76493">
        <ele>64.2</ele>
        <time>2020-06-30T21:14:39Z</time>
      </trkpt>
      <trkpt lat="49.0832" lon="3.76483">
        <ele>64.2</ele>
        <time>2020-06-30T21:14:40Z</time>
      </trkpt>
      <trkpt lat="49.08321" lon="3.76477">
        <ele>64.2</ele>
        <time>2020-06-30T21:14:41Z</time>
      </trkpt>
      <trkpt lat="49.08322" lon="3.76468">
        <ele>64.2</ele>
        <time>2020-06-30T21:14:42Z</time>
      </trkpt>
      <trkpt lat="49.08324" lon="3.7646">
        <ele>64.2</ele>
        <time>2020-06-30T21:14:43Z</time>
      </trkpt>
      <trkpt lat="49.08325" lon="3.76453">
        <ele>64.2</ele>
        <time>2020-06-30T21:14:44Z</time>
      </trkpt>
      <trkpt lat="49.08327" lon="3.76445">
        <ele>64.2</ele>
        <time>2020-06-30T21:14:45Z</time>
      </trkpt>
      <trkpt lat="49.08329" lon="3.76436">
        <ele>64.1</ele>
        <time>2020-06-30T21:14:46Z</time>
      </trkpt>
      <trkpt lat="49.08331" lon="3.76427">
        <ele>64.1</ele>
        <time>2020-06-30T21:14:47Z</time>
      </trkpt>
      <trkpt lat="49.08333" lon="3.76419">
        <ele>64.1</ele>
        <time>2020-06-30T21:14:48Z</time>
      </trkpt>
      <trkpt lat="49.08335" lon="3.76411">
        <ele>64.1</ele>
        <time>2020-06-30T21:14:49Z</time>
      </trkpt>
      <trkpt lat="49.08337" lon="3.76404">
        <ele>64.1</ele>
        <time>2020-06-30T21:14:50Z</time>
      </trkpt>
      <trkpt lat="49.08338" lon="3.76396">
        <ele>64.1</ele>
        <time>2020-06-30T21:14:51Z</time>
      </trkpt>
      <trkpt lat="49.0834" lon="3.76388">
        <ele>64</ele>
        <time>2020-06-30T21:14:52Z</time>
      </trkpt>
      <trkpt lat="49.08341" lon="3.7638">
        <ele>64</ele>
        <time>2020-06-30T21:14:53Z</time>
      </trkpt>
      <trkpt lat="49.08343" lon="3.76371">
        <ele>64</ele>
        <time>2020-06-30T21:14:54Z</time>
      </trkpt>
      <trkpt lat="49.08345" lon="3.76361">
        <ele>64</ele>
        <time>2020-06-30T21:14:55Z</time>
      </trkpt>
      <trkpt lat="49.08347" lon="3.76352">
        <ele>63.9</ele>
        <time>2020-06-30T21:14:56Z</time>
      </trkpt>
      <trkpt lat="49.08348" lon="3.76343">
        <ele>63.9</ele>
        <time>2020-06-30T21:14:57Z</time>
      </trkpt>
      <trkpt lat="49.08349" lon="3.76334">
        <ele>63.9</ele>
        <time>2020-06-30T21:14:58Z</time>
      </trkpt>
      <trkpt lat="49.08351" lon="3.76324">
        <ele>63.9</ele>
        <time>2020-06-30T21:14:59Z</time>
      </trkpt>
      <trkpt lat="49.08352" lon="3.76315">
        <ele>63.9</ele>
        <time>2020-06-30T21:15:00Z</time>
      </trkpt>
      <trkpt lat="49.08354" lon="3.76307">
        <ele>63.9</ele>
        <time>2020-06-30T21:15:01Z</time>
      </trkpt>
      <trkpt lat="49.08356" lon="3.76301">
        <ele>63.9</ele>
        <time>2020-06-30T21:15:02Z</time>
      </trkpt>
      <trkpt lat="49.08358" lon="3.76292">
        <ele>64</ele>
        <time>2020-06-30T21:15:03Z</time>
      </trkpt>
      <trkpt lat="49.08359" lon="3.76284">
        <ele>64</ele>
        <time>2020-06-30T21:15:04Z</time>
      </trkpt>
      <trkpt lat="49.08361" lon="3.76275">
        <ele>64</ele>
        <time>2020-06-30T21:15:05Z</time>
      </trkpt>
      <trkpt lat="49.08363" lon="3.76266">
        <ele>64</ele>
        <time>2020-06-30T21:15:06Z</time>
      </trkpt>
      <trkpt lat="49.08364" lon="3.76259">
        <ele>64</ele>
        <time>2020-06-30T21:15:07Z</time>
      </trkpt>
      <trkpt lat="49.08365" lon="3.76252">
        <ele>64</ele>
        <time>2020-06-30T21:15:08Z</time>
      </trkpt>
      <trkpt lat="49.08366" lon="3.76247">
        <ele>64.1</ele>
        <time>2020-06-30T21:15:09Z</time>
      </trkpt>
      <trkpt lat="49.08368" lon="3.76242">
        <ele>64.1</ele>
        <time>2020-06-30T21:15:10Z</time>
      </trkpt>
      <trkpt lat="49.08368" lon="3.76236">
        <ele>64.1</ele>
        <time>2020-06-30T21:15:11Z</time>
      </trkpt>
      <trkpt lat="49.08369" lon="3.76228">
        <ele>64.1</ele>
        <time>2020-06-30T21:15:12Z</time>
      </trkpt>
      <trkpt lat="49.0837" lon="3.76224">
        <ele>64.1</ele>
        <time>2020-06-30T21:15:13Z</time>
      </trkpt>
      <trkpt lat="49.08371" lon="3.76217">
        <ele>64.1</ele>
        <time>2020-06-30T21:15:14Z</time>
      </trkpt>
      <trkpt lat="49.08372" lon="3.76211">
        <ele>64.1</ele>
        <time>2020-06-30T21:15:15Z</time>
      </trkpt>
      <trkpt lat="49.08372" lon="3.76203">
        <ele>64.2</ele>
        <time>2020-06-30T21:15:16Z</time>
      </trkpt>
      <trkpt lat="49.08372" lon="3.76197">
        <ele>64.2</ele>
        <time>2020-06-30T21:15:17Z</time>
      </trkpt>
      <trkpt lat="49.08373" lon="3.76191">
        <ele>64.2</ele>
        <time>2020-06-30T21:15:18Z</time>
      </trkpt>
      <trkpt lat="49.08373" lon="3.76186">
        <ele>64.3</ele>
        <time>2020-06-30T21:15:19Z</time>
      </trkpt>
      <trkpt lat="49.08373" lon="3.76179">
        <ele>64.3</ele>
        <time>2020-06-30T21:15:20Z</time>
      </trkpt>
      <trkpt lat="49.08374" lon="3.76173">
        <ele>64.3</ele>
        <time>2020-06-30T21:15:21Z</time>
      </trkpt>
      <trkpt lat="49.08375" lon="3.76167">
        <ele>64.3</ele>
        <time>2020-06-30T21:15:22Z</time>
      </trkpt>
      <trkpt lat="49.08375" lon="3.76163">
        <ele>64.3</ele>
        <time>2020-06-30T21:15:23Z</time>
      </trkpt>
      <trkpt lat="49.08377" lon="3.76159">
        <ele>64.3</ele>
        <time>2020-06-30T21:15:24Z</time>
      </trkpt>
      <trkpt lat="49.08377" lon="3.76155">
        <ele>64.3</ele>
        <time>2020-06-30T21:15:25Z</time>
      </trkpt>
      <trkpt lat="49.08378" lon="3.76151">
        <ele>64.3</ele>
        <time>2020-06-30T21:15:26Z</time>
      </trkpt>
      <trkpt lat="49.08379" lon="3.76144">
        <ele>64.2</ele>
        <time>2020-06-30T21:15:27Z</time>
      </trkpt>
      <trkpt lat="49.08381" lon="3.76139">
        <ele>64.2</ele>
        <time>2020-06-30T21:15:28Z</time>
      </trkpt>
      <trkpt lat="49.08382" lon="3.76132">
        <ele>64.1</ele>
        <time>2020-06-30T21:15:29Z</time>
      </trkpt>
      <trkpt lat="49.08382" lon="3.76125">
        <ele>64.1</ele>
        <time>2020-06-30T21:15:30Z</time>
      </trkpt>
      <trkpt lat="49.08383" lon="3.76119">
        <ele>64</ele>
        <time>2020-06-30T21:15:31Z</time>
      </trkpt>
      <trkpt lat="49.08385" lon="3.76112">
        <ele>64</ele>
        <time>2020-06-30T21:15:32Z</time>
      </trkpt>
      <trkpt lat="49.08387" lon="3.76107">
        <ele>63.9</ele>
        <time>2020-06-30T21:15:33Z</time>
      </trkpt>
      <trkpt lat="49.08389" lon="3.76102">
        <ele>63.9</ele>
        <time>2020-06-30T21:15:34Z</time>
      </trkpt>
      <trkpt lat="49.08391" lon="3.76097">
        <ele>63.9</ele>
        <time>2020-06-30T21:15:35Z</time>
      </trkpt>
      <trkpt lat="49.08393" lon="3.76092">
        <ele>63.9</ele>
        <time>2020-06-30T21:15:36Z</time>
      </trkpt>
      <trkpt lat="49.08396" lon="3.76087">
        <ele>63.9</ele>
        <time>2020-06-30T21:15:37Z</time>
      </trkpt>
      <trkpt lat="49.08398" lon="3.76081">
        <ele>63.9</ele>
        <time>2020-06-30T21:15:38Z</time>
      </trkpt>
      <trkpt lat="49.084" lon="3.76076">
        <ele>63.9</ele>
        <time>2020-06-30T21:15:39Z</time>
      </trkpt>
      <trkpt lat="49.08403" lon="3.7607">
        <ele>63.9</ele>
        <time>2020-06-30T21:15:40Z</time>
      </trkpt>
      <trkpt lat="49.08405" lon="3.76066">
        <ele>63.9</ele>
        <time>2020-06-30T21:15:41Z</time>
      </trkpt>
      <trkpt lat="49.08409" lon="3.76062">
        <ele>63.9</ele>
        <time>2020-06-30T21:15:42Z</time>
      </trkpt>
      <trkpt lat="49.08411" lon="3.76055">
        <ele>63.9</ele>
        <time>2020-06-30T21:15:43Z</time>
      </trkpt>
      <trkpt lat="49.08414" lon="3.7605">
        <ele>64</ele>
        <time>2020-06-30T21:15:44Z</time>
      </trkpt>
      <trkpt lat="49.08416" lon="3.76044">
        <ele>64</ele>
        <time>2020-06-30T21:15:45Z</time>
      </trkpt>
      <trkpt lat="49.08419" lon="3.76038">
        <ele>64.1</ele>
        <time>2020-06-30T21:15:46Z</time>
      </trkpt>
      <trkpt lat="49.08421" lon="3.76033">
        <ele>64.2</ele>
        <time>2020-06-30T21:15:47Z</time>
      </trkpt>
      <trkpt lat="49.08424" lon="3.76029">
        <ele>64.2</ele>
        <time>2020-06-30T21:15:48Z</time>
      </trkpt>
      <trkpt lat="49.08427" lon="3.76024">
        <ele>64.3</ele>
        <time>2020-06-30T21:15:49Z</time>
      </trkpt>
      <trkpt lat="49.08429" lon="3.76019">
        <ele>64.4</ele>
        <time>2020-06-30T21:15:50Z</time>
      </trkpt>
      <trkpt lat="49.08432" lon="3.76015">
        <ele>64.4</ele>
        <time>2020-06-30T21:15:51Z</time>
      </trkpt>
      <trkpt lat="49.08435" lon="3.7601">
        <ele>64.4</ele>
        <time>2020-06-30T21:15:52Z</time>
      </trkpt>
      <trkpt lat="49.08438" lon="3.76006">
        <ele>64.4</ele>
        <time>2020-06-30T21:15:53Z</time>
      </trkpt>
      <trkpt lat="49.08441" lon="3.76002">
        <ele>64.5</ele>
        <time>2020-06-30T21:15:54Z</time>
      </trkpt>
      <trkpt lat="49.08443" lon="3.75997">
        <ele>64.5</ele>
        <time>2020-06-30T21:15:55Z</time>
      </trkpt>
      <trkpt lat="49.08445" lon="3.75994">
        <ele>64.5</ele>
        <time>2020-06-30T21:15:56Z</time>
      </trkpt>
      <trkpt lat="49.08447" lon="3.7599">
        <ele>64.5</ele>
        <time>2020-06-30T21:15:57Z</time>
      </trkpt>
      <trkpt lat="49.08449" lon="3.75985">
        <ele>64.5</ele>
        <time>2020-06-30T21:15:58Z</time>
      </trkpt>
      <trkpt lat="49.08449" lon="3.75983">
        <ele>64.5</ele>
        <time>2020-06-30T21:15:59Z</time>
      </trkpt>
      <trkpt lat="49.08451" lon="3.75978">
        <ele>64.5</ele>
        <time>2020-06-30T21:16:00Z</time>
      </trkpt>
      <trkpt lat="49.08452" lon="3.75976">
        <ele>64.5</ele>
        <time>2020-06-30T21:16:01Z</time>
      </trkpt>
      <trkpt lat="49.08454" lon="3.75972">
        <ele>64.4</ele>
        <time>2020-06-30T21:16:02Z</time>
      </trkpt>
      <trkpt lat="49.08456" lon="3.75968">
        <ele>64.4</ele>
        <time>2020-06-30T21:16:03Z</time>
      </trkpt>
      <trkpt lat="49.08459" lon="3.75964">
        <ele>64.4</ele>
        <time>2020-06-30T21:16:04Z</time>
      </trkpt>
      <trkpt lat="49.08461" lon="3.7596">
        <ele>64.4</ele>
        <time>2020-06-30T21:16:05Z</time>
      </trkpt>
      <trkpt lat="49.08463" lon="3.75956">
        <ele>64.4</ele>
        <time>2020-06-30T21:16:06Z</time>
      </trkpt>
      <trkpt lat="49.08465" lon="3.7595">
        <ele>64.3</ele>
        <time>2020-06-30T21:16:07Z</time>
      </trkpt>
      <trkpt lat="49.08469" lon="3.75947">
        <ele>64.3</ele>
        <time>2020-06-30T21:16:08Z</time>
      </trkpt>
      <trkpt lat="49.08472" lon="3.75942">
        <ele>64.3</ele>
        <time>2020-06-30T21:16:09Z</time>
      </trkpt>
      <trkpt lat="49.08476" lon="3.75939">
        <ele>64.3</ele>
        <time>2020-06-30T21:16:10Z</time>
      </trkpt>
      <trkpt lat="49.0848" lon="3.75935">
        <ele>64.3</ele>
        <time>2020-06-30T21:16:11Z</time>
      </trkpt>
      <trkpt lat="49.08483" lon="3.75932">
        <ele>64.3</ele>
        <time>2020-06-30T21:16:12Z</time>
      </trkpt>
      <trkpt lat="49.08486" lon="3.75929">
        <ele>64.3</ele>
        <time>2020-06-30T21:16:13Z</time>
      </trkpt>
      <trkpt lat="49.08488" lon="3.75927">
        <ele>64.3</ele>
        <time>2020-06-30T21:16:14Z</time>
      </trkpt>
      <trkpt lat="49.08491" lon="3.75924">
        <ele>64.2</ele>
        <time>2020-06-30T21:16:15Z</time>
      </trkpt>
      <trkpt lat="49.08494" lon="3.75922">
        <ele>64.2</ele>
        <time>2020-06-30T21:16:16Z</time>
      </trkpt>
      <trkpt lat="49.08497" lon="3.75917">
        <ele>64.2</ele>
        <time>2020-06-30T21:16:17Z</time>
      </trkpt>
      <trkpt lat="49.085" lon="3.75915">
        <ele>64.3</ele>
        <time>2020-06-30T21:16:18Z</time>
      </trkpt>
      <trkpt lat="49.08505" lon="3.75914">
        <ele>64.3</ele>
        <time>2020-06-30T21:16:19Z</time>
      </trkpt>
      <trkpt lat="49.08508" lon="3.75911">
        <ele>64.3</ele>
        <time>2020-06-30T21:16:20Z</time>
      </trkpt>
      <trkpt lat="49.08511" lon="3.75908">
        <ele>64.3</ele>
        <time>2020-06-30T21:16:21Z</time>
      </trkpt>
      <trkpt lat="49.08514" lon="3.75906">
        <ele>64.3</ele>
        <time>2020-06-30T21:16:22Z</time>
      </trkpt>
      <trkpt lat="49.08517" lon="3.75904">
        <ele>64.4</ele>
        <time>2020-06-30T21:16:23Z</time>
      </trkpt>
      <trkpt lat="49.08519" lon="3.75901">
        <ele>64.4</ele>
        <time>2020-06-30T21:16:24Z</time>
      </trkpt>
      <trkpt lat="49.08523" lon="3.75899">
        <ele>64.4</ele>
        <time>2020-06-30T21:16:25Z</time>
      </trkpt>
      <trkpt lat="49.08527" lon="3.75897">
        <ele>64.4</ele>
        <time>2020-06-30T21:16:26Z</time>
      </trkpt>
      <trkpt lat="49.08531" lon="3.75896">
        <ele>64.5</ele>
        <time>2020-06-30T21:16:27Z</time>
      </trkpt>
      <trkpt lat="49.08534" lon="3.75893">
        <ele>64.5</ele>
        <time>2020-06-30T21:16:28Z</time>
      </trkpt>
      <trkpt lat="49.08537" lon="3.75891">
        <ele>64.5</ele>
        <time>2020-06-30T21:16:29Z</time>
      </trkpt>
      <trkpt lat="49.08541" lon="3.75888">
        <ele>64.5</ele>
        <time>2020-06-30T21:16:30Z</time>
      </trkpt>
      <trkpt lat="49.08542" lon="3.75887">
        <ele>64.5</ele>
        <time>2020-06-30T21:16:31Z</time>
      </trkpt>
      <trkpt lat="49.08545" lon="3.75885">
        <ele>64.5</ele>
        <time>2020-06-30T21:16:32Z</time>
      </trkpt>
      <trkpt lat="49.08546" lon="3.75883">
        <ele>64.5</ele>
        <time>2020-06-30T21:16:33Z</time>
      </trkpt>
      <trkpt lat="49.08549" lon="3.75881">
        <ele>64.5</ele>
        <time>2020-06-30T21:16:34Z</time>
      </trkpt>
      <trkpt lat="49.08551" lon="3.75878">
        <ele>64.5</ele>
        <time>2020-06-30T21:16:35Z</time>
      </trkpt>
      <trkpt lat="49.08554" lon="3.75875">
        <ele>64.5</ele>
        <time>2020-06-30T21:16:36Z</time>
      </trkpt>
      <trkpt lat="49.08557" lon="3.75873">
        <ele>64.5</ele>
        <time>2020-06-30T21:16:37Z</time>
      </trkpt>
      <trkpt lat="49.08561" lon="3.75871">
        <ele>64.5</ele>
        <time>2020-06-30T21:16:38Z</time>
      </trkpt>
      <trkpt lat="49.08565" lon="3.75869">
        <ele>64.4</ele>
        <time>2020-06-30T21:16:39Z</time>
      </trkpt>
      <trkpt lat="49.0857" lon="3.75866">
        <ele>64.4</ele>
        <time>2020-06-30T21:16:40Z</time>
      </trkpt>
      <trkpt lat="49.08575" lon="3.75865">
        <ele>64.4</ele>
        <time>2020-06-30T21:16:41Z</time>
      </trkpt>
      <trkpt lat="49.08579" lon="3.75862">
        <ele>64.3</ele>
        <time>2020-06-30T21:16:42Z</time>
      </trkpt>
      <trkpt lat="49.08583" lon="3.75859">
        <ele>64.3</ele>
        <time>2020-06-30T21:16:43Z</time>
      </trkpt>
      <trkpt lat="49.08587" lon="3.75855">
        <ele>64.3</ele>
        <time>2020-06-30T21:16:44Z</time>
      </trkpt>
      <trkpt lat="49.0859" lon="3.75852">
        <ele>64.3</ele>
        <time>2020-06-30T21:16:45Z</time>
      </trkpt>
      <trkpt lat="49.08594" lon="3.75848">
        <ele>64.2</ele>
        <time>2020-06-30T21:16:46Z</time>
      </trkpt>
      <trkpt lat="49.08597" lon="3.75844">
        <ele>64.2</ele>
        <time>2020-06-30T21:16:47Z</time>
      </trkpt>
      <trkpt lat="49.08601" lon="3.7584">
        <ele>64.1</ele>
        <time>2020-06-30T21:16:48Z</time>
      </trkpt>
      <trkpt lat="49.08605" lon="3.75836">
        <ele>64.1</ele>
        <time>2020-06-30T21:16:49Z</time>
      </trkpt>
      <trkpt lat="49.08608" lon="3.75831">
        <ele>64</ele>
        <time>2020-06-30T21:16:50Z</time>
      </trkpt>
      <trkpt lat="49.08613" lon="3.75828">
        <ele>64</ele>
        <time>2020-06-30T21:16:51Z</time>
      </trkpt>
      <trkpt lat="49.08617" lon="3.75824">
        <ele>64</ele>
        <time>2020-06-30T21:16:52Z</time>
      </trkpt>
      <trkpt lat="49.08621" lon="3.7582">
        <ele>63.9</ele>
        <time>2020-06-30T21:16:53Z</time>
      </trkpt>
      <trkpt lat="49.08624" lon="3.75815">
        <ele>63.9</ele>
        <time>2020-06-30T21:16:54Z</time>
      </trkpt>
      <trkpt lat="49.08627" lon="3.7581">
        <ele>63.9</ele>
        <time>2020-06-30T21:16:55Z</time>
      </trkpt>
      <trkpt lat="49.08629" lon="3.75804">
        <ele>63.9</ele>
        <time>2020-06-30T21:16:56Z</time>
      </trkpt>
      <trkpt lat="49.08633" lon="3.758">
        <ele>63.9</ele>
        <time>2020-06-30T21:16:57Z</time>
      </trkpt>
      <trkpt lat="49.08635" lon="3.75796">
        <ele>63.8</ele>
        <time>2020-06-30T21:16:58Z</time>
      </trkpt>
      <trkpt lat="49.08639" lon="3.7579">
        <ele>63.8</ele>
        <time>2020-06-30T21:16:59Z</time>
      </trkpt>
      <trkpt lat="49.08643" lon="3.75785">
        <ele>63.8</ele>
        <time>2020-06-30T21:17:00Z</time>
      </trkpt>
      <trkpt lat="49.08646" lon="3.75778">
        <ele>63.8</ele>
        <time>2020-06-30T21:17:01Z</time>
      </trkpt>
      <trkpt lat="49.08649" lon="3.75771">
        <ele>63.8</ele>
        <time>2020-06-30T21:17:02Z</time>
      </trkpt>
      <trkpt lat="49.08653" lon="3.75765">
        <ele>63.8</ele>
        <time>2020-06-30T21:17:03Z</time>
      </trkpt>
      <trkpt lat="49.08655" lon="3.75758">
        <ele>63.8</ele>
        <time>2020-06-30T21:17:04Z</time>
      </trkpt>
      <trkpt lat="49.08657" lon="3.75752">
        <ele>63.8</ele>
        <time>2020-06-30T21:17:05Z</time>
      </trkpt>
      <trkpt lat="49.0866" lon="3.75746">
        <ele>63.9</ele>
        <time>2020-06-30T21:17:06Z</time>
      </trkpt>
      <trkpt lat="49.08662" lon="3.75741">
        <ele>63.9</ele>
        <time>2020-06-30T21:17:07Z</time>
      </trkpt>
      <trkpt lat="49.08665" lon="3.75735">
        <ele>63.9</ele>
        <time>2020-06-30T21:17:08Z</time>
      </trkpt>
      <trkpt lat="49.08669" lon="3.7573">
        <ele>63.9</ele>
        <time>2020-06-30T21:17:09Z</time>
      </trkpt>
      <trkpt lat="49.08672" lon="3.75725">
        <ele>63.8</ele>
        <time>2020-06-30T21:17:10Z</time>
      </trkpt>
      <trkpt lat="49.08674" lon="3.7572">
        <ele>63.8</ele>
        <time>2020-06-30T21:17:11Z</time>
      </trkpt>
      <trkpt lat="49.08677" lon="3.75715">
        <ele>63.8</ele>
        <time>2020-06-30T21:17:12Z</time>
      </trkpt>
      <trkpt lat="49.0868" lon="3.75711">
        <ele>63.8</ele>
        <time>2020-06-30T21:17:13Z</time>
      </trkpt>
      <trkpt lat="49.08682" lon="3.75706">
        <ele>63.8</ele>
        <time>2020-06-30T21:17:14Z</time>
      </trkpt>
      <trkpt lat="49.08683" lon="3.75701">
        <ele>63.8</ele>
        <time>2020-06-30T21:17:15Z</time>
      </trkpt>
      <trkpt lat="49.08685" lon="3.75696">
        <ele>63.8</ele>
        <time>2020-06-30T21:17:16Z</time>
      </trkpt>
      <trkpt lat="49.08687" lon="3.75692">
        <ele>63.8</ele>
        <time>2020-06-30T21:17:17Z</time>
      </trkpt>
      <trkpt lat="49.08689" lon="3.75687">
        <ele>63.8</ele>
        <time>2020-06-30T21:17:18Z</time>
      </trkpt>
      <trkpt lat="49.08691" lon="3.75682">
        <ele>63.8</ele>
        <time>2020-06-30T21:17:19Z</time>
      </trkpt>
      <trkpt lat="49.08693" lon="3.75677">
        <ele>63.8</ele>
        <time>2020-06-30T21:17:20Z</time>
      </trkpt>
      <trkpt lat="49.08695" lon="3.75672">
        <ele>63.8</ele>
        <time>2020-06-30T21:17:21Z</time>
      </trkpt>
      <trkpt lat="49.08697" lon="3.75665">
        <ele>63.8</ele>
        <time>2020-06-30T21:17:22Z</time>
      </trkpt>
      <trkpt lat="49.08699" lon="3.75659">
        <ele>63.8</ele>
        <time>2020-06-30T21:17:23Z</time>
      </trkpt>
      <trkpt lat="49.087" lon="3.75652">
        <ele>63.8</ele>
        <time>2020-06-30T21:17:24Z</time>
      </trkpt>
      <trkpt lat="49.08701" lon="3.75645">
        <ele>63.8</ele>
        <time>2020-06-30T21:17:25Z</time>
      </trkpt>
      <trkpt lat="49.08702" lon="3.75638">
        <ele>63.8</ele>
        <time>2020-06-30T21:17:26Z</time>
      </trkpt>
      <trkpt lat="49.08705" lon="3.75631">
        <ele>63.8</ele>
        <time>2020-06-30T21:17:27Z</time>
      </trkpt>
      <trkpt lat="49.08707" lon="3.75625">
        <ele>63.8</ele>
        <time>2020-06-30T21:17:28Z</time>
      </trkpt>
      <trkpt lat="49.08709" lon="3.75618">
        <ele>63.8</ele>
        <time>2020-06-30T21:17:29Z</time>
      </trkpt>
      <trkpt lat="49.08711" lon="3.75611">
        <ele>63.8</ele>
        <time>2020-06-30T21:17:30Z</time>
      </trkpt>
      <trkpt lat="49.08713" lon="3.75604">
        <ele>63.8</ele>
        <time>2020-06-30T21:17:31Z</time>
      </trkpt>
      <trkpt lat="49.08716" lon="3.75598">
        <ele>63.8</ele>
        <time>2020-06-30T21:17:32Z</time>
      </trkpt>
      <trkpt lat="49.08718" lon="3.75591">
        <ele>63.8</ele>
        <time>2020-06-30T21:17:33Z</time>
      </trkpt>
      <trkpt lat="49.0872" lon="3.75584">
        <ele>63.8</ele>
        <time>2020-06-30T21:17:34Z</time>
      </trkpt>
      <trkpt lat="49.08722" lon="3.75577">
        <ele>63.8</ele>
        <time>2020-06-30T21:17:35Z</time>
      </trkpt>
      <trkpt lat="49.08723" lon="3.7557">
        <ele>63.8</ele>
        <time>2020-06-30T21:17:36Z</time>
      </trkpt>
      <trkpt lat="49.08723" lon="3.75562">
        <ele>63.8</ele>
        <time>2020-06-30T21:17:37Z</time>
      </trkpt>
      <trkpt lat="49.08724" lon="3.75554">
        <ele>63.7</ele>
        <time>2020-06-30T21:17:38Z</time>
      </trkpt>
      <trkpt lat="49.08724" lon="3.75546">
        <ele>63.7</ele>
        <time>2020-06-30T21:17:39Z</time>
      </trkpt>
      <trkpt lat="49.08724" lon="3.75538">
        <ele>63.7</ele>
        <time>2020-06-30T21:17:40Z</time>
      </trkpt>
      <trkpt lat="49.08725" lon="3.75531">
        <ele>63.7</ele>
        <time>2020-06-30T21:17:41Z</time>
      </trkpt>
      <trkpt lat="49.08725" lon="3.75522">
        <ele>63.6</ele>
        <time>2020-06-30T21:17:42Z</time>
      </trkpt>
      <trkpt lat="49.08726" lon="3.75514">
        <ele>63.6</ele>
        <time>2020-06-30T21:17:43Z</time>
      </trkpt>
      <trkpt lat="49.08727" lon="3.75506">
        <ele>63.6</ele>
        <time>2020-06-30T21:17:44Z</time>
      </trkpt>
      <trkpt lat="49.08728" lon="3.75498">
        <ele>63.6</ele>
        <time>2020-06-30T21:17:45Z</time>
      </trkpt>
      <trkpt lat="49.08729" lon="3.7549">
        <ele>63.6</ele>
        <time>2020-06-30T21:17:46Z</time>
      </trkpt>
      <trkpt lat="49.08729" lon="3.75483">
        <ele>63.6</ele>
        <time>2020-06-30T21:17:47Z</time>
      </trkpt>
      <trkpt lat="49.08729" lon="3.75475">
        <ele>63.7</ele>
        <time>2020-06-30T21:17:48Z</time>
      </trkpt>
      <trkpt lat="49.08728" lon="3.75468">
        <ele>63.7</ele>
        <time>2020-06-30T21:17:49Z</time>
      </trkpt>
      <trkpt lat="49.08727" lon="3.75461">
        <ele>63.7</ele>
        <time>2020-06-30T21:17:50Z</time>
      </trkpt>
      <trkpt lat="49.08726" lon="3.75455">
        <ele>63.7</ele>
        <time>2020-06-30T21:17:51Z</time>
      </trkpt>
      <trkpt lat="49.08726" lon="3.75449">
        <ele>63.7</ele>
        <time>2020-06-30T21:17:52Z</time>
      </trkpt>
      <trkpt lat="49.08726" lon="3.75443">
        <ele>63.7</ele>
        <time>2020-06-30T21:17:53Z</time>
      </trkpt>
      <trkpt lat="49.08724" lon="3.75436">
        <ele>63.7</ele>
        <time>2020-06-30T21:17:54Z</time>
      </trkpt>
      <trkpt lat="49.08722" lon="3.7543">
        <ele>63.7</ele>
        <time>2020-06-30T21:17:55Z</time>
      </trkpt>
      <trkpt lat="49.0872" lon="3.75425">
        <ele>63.6</ele>
        <time>2020-06-30T21:17:56Z</time>
      </trkpt>
      <trkpt lat="49.08718" lon="3.75419">
        <ele>63.6</ele>
        <time>2020-06-30T21:17:57Z</time>
      </trkpt>
      <trkpt lat="49.08716" lon="3.75413">
        <ele>63.6</ele>
        <time>2020-06-30T21:17:58Z</time>
      </trkpt>
      <trkpt lat="49.08714" lon="3.75407">
        <ele>63.5</ele>
        <time>2020-06-30T21:17:59Z</time>
      </trkpt>
      <trkpt lat="49.08712" lon="3.75401">
        <ele>63.5</ele>
        <time>2020-06-30T21:18:00Z</time>
      </trkpt>
      <trkpt lat="49.08709" lon="3.75395">
        <ele>63.5</ele>
        <time>2020-06-30T21:18:01Z</time>
      </trkpt>
      <trkpt lat="49.08707" lon="3.75389">
        <ele>63.5</ele>
        <time>2020-06-30T21:18:02Z</time>
      </trkpt>
      <trkpt lat="49.08705" lon="3.75384">
        <ele>63.5</ele>
        <time>2020-06-30T21:18:03Z</time>
      </trkpt>
      <trkpt lat="49.08703" lon="3.75377">
        <ele>63.5</ele>
        <time>2020-06-30T21:18:04Z</time>
      </trkpt>
      <trkpt lat="49.08702" lon="3.75372">
        <ele>63.5</ele>
        <time>2020-06-30T21:18:05Z</time>
      </trkpt>
      <trkpt lat="49.08701" lon="3.75366">
        <ele>63.5</ele>
        <time>2020-06-30T21:18:06Z</time>
      </trkpt>
      <trkpt lat="49.087" lon="3.75359">
        <ele>63.5</ele>
        <time>2020-06-30T21:18:07Z</time>
      </trkpt>
      <trkpt lat="49.08699" lon="3.75352">
        <ele>63.5</ele>
        <time>2020-06-30T21:18:08Z</time>
      </trkpt>
      <trkpt lat="49.08699" lon="3.75345">
        <ele>63.5</ele>
        <time>2020-06-30T21:18:09Z</time>
      </trkpt>
      <trkpt lat="49.08699" lon="3.75338">
        <ele>63.5</ele>
        <time>2020-06-30T21:18:10Z</time>
      </trkpt>
      <trkpt lat="49.08699" lon="3.7533">
        <ele>63.5</ele>
        <time>2020-06-30T21:18:11Z</time>
      </trkpt>
      <trkpt lat="49.08699" lon="3.75322">
        <ele>63.5</ele>
        <time>2020-06-30T21:18:12Z</time>
      </trkpt>
      <trkpt lat="49.08698" lon="3.75315">
        <ele>63.5</ele>
        <time>2020-06-30T21:18:13Z</time>
      </trkpt>
      <trkpt lat="49.08698" lon="3.75307">
        <ele>63.5</ele>
        <time>2020-06-30T21:18:14Z</time>
      </trkpt>
      <trkpt lat="49.08697" lon="3.75298">
        <ele>63.5</ele>
        <time>2020-06-30T21:18:15Z</time>
      </trkpt>
      <trkpt lat="49.08696" lon="3.7529">
        <ele>63.4</ele>
        <time>2020-06-30T21:18:16Z</time>
      </trkpt>
      <trkpt lat="49.08695" lon="3.75281">
        <ele>63.4</ele>
        <time>2020-06-30T21:18:17Z</time>
      </trkpt>
      <trkpt lat="49.08695" lon="3.75273">
        <ele>63.4</ele>
        <time>2020-06-30T21:18:18Z</time>
      </trkpt>
      <trkpt lat="49.08695" lon="3.75264">
        <ele>63.4</ele>
        <time>2020-06-30T21:18:19Z</time>
      </trkpt>
      <trkpt lat="49.08695" lon="3.75255">
        <ele>63.3</ele>
        <time>2020-06-30T21:18:20Z</time>
      </trkpt>
      <trkpt lat="49.08695" lon="3.75246">
        <ele>63.3</ele>
        <time>2020-06-30T21:18:21Z</time>
      </trkpt>
      <trkpt lat="49.08696" lon="3.75237">
        <ele>63.3</ele>
        <time>2020-06-30T21:18:22Z</time>
      </trkpt>
      <trkpt lat="49.08697" lon="3.75228">
        <ele>63.2</ele>
        <time>2020-06-30T21:18:23Z</time>
      </trkpt>
      <trkpt lat="49.08699" lon="3.75219">
        <ele>63.2</ele>
        <time>2020-06-30T21:18:24Z</time>
      </trkpt>
      <trkpt lat="49.087" lon="3.75208">
        <ele>63.1</ele>
        <time>2020-06-30T21:18:25Z</time>
      </trkpt>
      <trkpt lat="49.08703" lon="3.752">
        <ele>63.1</ele>
        <time>2020-06-30T21:18:26Z</time>
      </trkpt>
      <trkpt lat="49.08705" lon="3.75192">
        <ele>63.1</ele>
        <time>2020-06-30T21:18:27Z</time>
      </trkpt>
      <trkpt lat="49.08706" lon="3.75183">
        <ele>63.1</ele>
        <time>2020-06-30T21:18:28Z</time>
      </trkpt>
      <trkpt lat="49.08708" lon="3.75175">
        <ele>63.1</ele>
        <time>2020-06-30T21:18:29Z</time>
      </trkpt>
      <trkpt lat="49.0871" lon="3.75167">
        <ele>63.1</ele>
        <time>2020-06-30T21:18:30Z</time>
      </trkpt>
      <trkpt lat="49.08712" lon="3.75158">
        <ele>63.1</ele>
        <time>2020-06-30T21:18:31Z</time>
      </trkpt>
      <trkpt lat="49.08714" lon="3.7515">
        <ele>63.1</ele>
        <time>2020-06-30T21:18:32Z</time>
      </trkpt>
      <trkpt lat="49.08717" lon="3.75142">
        <ele>63</ele>
        <time>2020-06-30T21:18:33Z</time>
      </trkpt>
      <trkpt lat="49.0872" lon="3.75134">
        <ele>63</ele>
        <time>2020-06-30T21:18:34Z</time>
      </trkpt>
      <trkpt lat="49.08723" lon="3.75126">
        <ele>63</ele>
        <time>2020-06-30T21:18:35Z</time>
      </trkpt>
      <trkpt lat="49.08726" lon="3.75118">
        <ele>63</ele>
        <time>2020-06-30T21:18:36Z</time>
      </trkpt>
      <trkpt lat="49.08729" lon="3.75111">
        <ele>63</ele>
        <time>2020-06-30T21:18:37Z</time>
      </trkpt>
      <trkpt lat="49.08733" lon="3.75103">
        <ele>63.1</ele>
        <time>2020-06-30T21:18:38Z</time>
      </trkpt>
      <trkpt lat="49.08736" lon="3.75096">
        <ele>63.1</ele>
        <time>2020-06-30T21:18:39Z</time>
      </trkpt>
      <trkpt lat="49.08739" lon="3.75089">
        <ele>63.2</ele>
        <time>2020-06-30T21:18:40Z</time>
      </trkpt>
      <trkpt lat="49.08743" lon="3.75083">
        <ele>63.2</ele>
        <time>2020-06-30T21:18:41Z</time>
      </trkpt>
      <trkpt lat="49.08746" lon="3.75075">
        <ele>63.3</ele>
        <time>2020-06-30T21:18:42Z</time>
      </trkpt>
      <trkpt lat="49.08748" lon="3.75067">
        <ele>63.3</ele>
        <time>2020-06-30T21:18:43Z</time>
      </trkpt>
      <trkpt lat="49.08751" lon="3.7506">
        <ele>63.4</ele>
        <time>2020-06-30T21:18:44Z</time>
      </trkpt>
      <trkpt lat="49.08753" lon="3.75052">
        <ele>63.4</ele>
        <time>2020-06-30T21:18:45Z</time>
      </trkpt>
      <trkpt lat="49.08757" lon="3.75045">
        <ele>63.4</ele>
        <time>2020-06-30T21:18:46Z</time>
      </trkpt>
      <trkpt lat="49.0876" lon="3.75037">
        <ele>63.4</ele>
        <time>2020-06-30T21:18:47Z</time>
      </trkpt>
      <trkpt lat="49.08764" lon="3.7503">
        <ele>63.4</ele>
        <time>2020-06-30T21:18:48Z</time>
      </trkpt>
      <trkpt lat="49.08767" lon="3.75023">
        <ele>63.3</ele>
        <time>2020-06-30T21:18:49Z</time>
      </trkpt>
      <trkpt lat="49.08771" lon="3.75017">
        <ele>63.3</ele>
        <time>2020-06-30T21:18:50Z</time>
      </trkpt>
      <trkpt lat="49.08775" lon="3.75011">
        <ele>63.3</ele>
        <time>2020-06-30T21:18:51Z</time>
      </trkpt>
      <trkpt lat="49.08778" lon="3.75003">
        <ele>63.2</ele>
        <time>2020-06-30T21:18:52Z</time>
      </trkpt>
      <trkpt lat="49.08782" lon="3.74995">
        <ele>63.2</ele>
        <time>2020-06-30T21:18:53Z</time>
      </trkpt>
      <trkpt lat="49.08785" lon="3.74989">
        <ele>63.2</ele>
        <time>2020-06-30T21:18:54Z</time>
      </trkpt>
      <trkpt lat="49.08789" lon="3.74982">
        <ele>63.2</ele>
        <time>2020-06-30T21:18:55Z</time>
      </trkpt>
      <trkpt lat="49.08792" lon="3.74975">
        <ele>63.2</ele>
        <time>2020-06-30T21:18:56Z</time>
      </trkpt>
      <trkpt lat="49.08796" lon="3.74969">
        <ele>63.2</ele>
        <time>2020-06-30T21:18:57Z</time>
      </trkpt>
      <trkpt lat="49.088" lon="3.74963">
        <ele>63.2</ele>
        <time>2020-06-30T21:18:58Z</time>
      </trkpt>
      <trkpt lat="49.08804" lon="3.74956">
        <ele>63.2</ele>
        <time>2020-06-30T21:18:59Z</time>
      </trkpt>
      <trkpt lat="49.08807" lon="3.74949">
        <ele>63.2</ele>
        <time>2020-06-30T21:19:00Z</time>
      </trkpt>
      <trkpt lat="49.0881" lon="3.74944">
        <ele>63.2</ele>
        <time>2020-06-30T21:19:01Z</time>
      </trkpt>
      <trkpt lat="49.08813" lon="3.74938">
        <ele>63.2</ele>
        <time>2020-06-30T21:19:02Z</time>
      </trkpt>
      <trkpt lat="49.08817" lon="3.74932">
        <ele>63.2</ele>
        <time>2020-06-30T21:19:03Z</time>
      </trkpt>
      <trkpt lat="49.08822" lon="3.74926">
        <ele>63.3</ele>
        <time>2020-06-30T21:19:04Z</time>
      </trkpt>
      <trkpt lat="49.08826" lon="3.74919">
        <ele>63.3</ele>
        <time>2020-06-30T21:19:05Z</time>
      </trkpt>
      <trkpt lat="49.08829" lon="3.74913">
        <ele>63.3</ele>
        <time>2020-06-30T21:19:06Z</time>
      </trkpt>
      <trkpt lat="49.08834" lon="3.74907">
        <ele>63.3</ele>
        <time>2020-06-30T21:19:07Z</time>
      </trkpt>
      <trkpt lat="49.08838" lon="3.74901">
        <ele>63.3</ele>
        <time>2020-06-30T21:19:08Z</time>
      </trkpt>
      <trkpt lat="49.08841" lon="3.74895">
        <ele>63.3</ele>
        <time>2020-06-30T21:19:09Z</time>
      </trkpt>
      <trkpt lat="49.08843" lon="3.7489">
        <ele>63.3</ele>
        <time>2020-06-30T21:19:10Z</time>
      </trkpt>
      <trkpt lat="49.08846" lon="3.74883">
        <ele>63.3</ele>
        <time>2020-06-30T21:19:11Z</time>
      </trkpt>
      <trkpt lat="49.0885" lon="3.74875">
        <ele>63.3</ele>
        <time>2020-06-30T21:19:12Z</time>
      </trkpt>
      <trkpt lat="49.08853" lon="3.74868">
        <ele>63.3</ele>
        <time>2020-06-30T21:19:13Z</time>
      </trkpt>
      <trkpt lat="49.08855" lon="3.74862">
        <ele>63.3</ele>
        <time>2020-06-30T21:19:14Z</time>
      </trkpt>
      <trkpt lat="49.08859" lon="3.74856">
        <ele>63.2</ele>
        <time>2020-06-30T21:19:15Z</time>
      </trkpt>
      <trkpt lat="49.08862" lon="3.7485">
        <ele>63.2</ele>
        <time>2020-06-30T21:19:16Z</time>
      </trkpt>
      <trkpt lat="49.08865" lon="3.74843">
        <ele>63.2</ele>
        <time>2020-06-30T21:19:17Z</time>
      </trkpt>
      <trkpt lat="49.08867" lon="3.74836">
        <ele>63.2</ele>
        <time>2020-06-30T21:19:18Z</time>
      </trkpt>
      <trkpt lat="49.0887" lon="3.7483">
        <ele>63.2</ele>
        <time>2020-06-30T21:19:19Z</time>
      </trkpt>
      <trkpt lat="49.08873" lon="3.74824">
        <ele>63.3</ele>
        <time>2020-06-30T21:19:20Z</time>
      </trkpt>
      <trkpt lat="49.08876" lon="3.74818">
        <ele>63.3</ele>
        <time>2020-06-30T21:19:21Z</time>
      </trkpt>
      <trkpt lat="49.08879" lon="3.74812">
        <ele>63.3</ele>
        <time>2020-06-30T21:19:22Z</time>
      </trkpt>
      <trkpt lat="49.08881" lon="3.74806">
        <ele>63.3</ele>
        <time>2020-06-30T21:19:23Z</time>
      </trkpt>
      <trkpt lat="49.08883" lon="3.74801">
        <ele>63.3</ele>
        <time>2020-06-30T21:19:24Z</time>
      </trkpt>
      <trkpt lat="49.08885" lon="3.74794">
        <ele>63.3</ele>
        <time>2020-06-30T21:19:25Z</time>
      </trkpt>
      <trkpt lat="49.08887" lon="3.74789">
        <ele>63.3</ele>
        <time>2020-06-30T21:19:26Z</time>
      </trkpt>
      <trkpt lat="49.0889" lon="3.74783">
        <ele>63.3</ele>
        <time>2020-06-30T21:19:27Z</time>
      </trkpt>
      <trkpt lat="49.08892" lon="3.74777">
        <ele>63.3</ele>
        <time>2020-06-30T21:19:28Z</time>
      </trkpt>
      <trkpt lat="49.08895" lon="3.74771">
        <ele>63.3</ele>
        <time>2020-06-30T21:19:29Z</time>
      </trkpt>
      <trkpt lat="49.08898" lon="3.74765">
        <ele>63.3</ele>
        <time>2020-06-30T21:19:30Z</time>
      </trkpt>
      <trkpt lat="49.08901" lon="3.74759">
        <ele>63.3</ele>
        <time>2020-06-30T21:19:31Z</time>
      </trkpt>
      <trkpt lat="49.08904" lon="3.74754">
        <ele>63.3</ele>
        <time>2020-06-30T21:19:32Z</time>
      </trkpt>
      <trkpt lat="49.08906" lon="3.74748">
        <ele>63.3</ele>
        <time>2020-06-30T21:19:33Z</time>
      </trkpt>
      <trkpt lat="49.08909" lon="3.7474">
        <ele>63.4</ele>
        <time>2020-06-30T21:19:34Z</time>
      </trkpt>
      <trkpt lat="49.08913" lon="3.74734">
        <ele>63.5</ele>
        <time>2020-06-30T21:19:35Z</time>
      </trkpt>
      <trkpt lat="49.08916" lon="3.74728">
        <ele>63.5</ele>
        <time>2020-06-30T21:19:36Z</time>
      </trkpt>
      <trkpt lat="49.08919" lon="3.74721">
        <ele>63.6</ele>
        <time>2020-06-30T21:19:37Z</time>
      </trkpt>
      <trkpt lat="49.08921" lon="3.74716">
        <ele>63.7</ele>
        <time>2020-06-30T21:19:38Z</time>
      </trkpt>
      <trkpt lat="49.08924" lon="3.74711">
        <ele>63.7</ele>
        <time>2020-06-30T21:19:39Z</time>
      </trkpt>
      <trkpt lat="49.08926" lon="3.74707">
        <ele>63.8</ele>
        <time>2020-06-30T21:19:40Z</time>
      </trkpt>
      <trkpt lat="49.08929" lon="3.747">
        <ele>63.8</ele>
        <time>2020-06-30T21:19:41Z</time>
      </trkpt>
      <trkpt lat="49.08931" lon="3.74693">
        <ele>63.9</ele>
        <time>2020-06-30T21:19:42Z</time>
      </trkpt>
      <trkpt lat="49.08934" lon="3.74689">
        <ele>63.9</ele>
        <time>2020-06-30T21:19:43Z</time>
      </trkpt>
      <trkpt lat="49.08936" lon="3.74683">
        <ele>63.9</ele>
        <time>2020-06-30T21:19:44Z</time>
      </trkpt>
      <trkpt lat="49.08939" lon="3.74678">
        <ele>63.9</ele>
        <time>2020-06-30T21:19:45Z</time>
      </trkpt>
      <trkpt lat="49.08942" lon="3.74671">
        <ele>63.9</ele>
        <time>2020-06-30T21:19:46Z</time>
      </trkpt>
      <trkpt lat="49.08945" lon="3.74665">
        <ele>63.9</ele>
        <time>2020-06-30T21:19:47Z</time>
      </trkpt>
      <trkpt lat="49.08947" lon="3.74659">
        <ele>64</ele>
        <time>2020-06-30T21:19:48Z</time>
      </trkpt>
      <trkpt lat="49.08949" lon="3.74652">
        <ele>64</ele>
        <time>2020-06-30T21:19:49Z</time>
      </trkpt>
      <trkpt lat="49.08952" lon="3.74646">
        <ele>64</ele>
        <time>2020-06-30T21:19:50Z</time>
      </trkpt>
      <trkpt lat="49.08954" lon="3.74639">
        <ele>64</ele>
        <time>2020-06-30T21:19:51Z</time>
      </trkpt>
      <trkpt lat="49.08955" lon="3.74634">
        <ele>64</ele>
        <time>2020-06-30T21:19:52Z</time>
      </trkpt>
      <trkpt lat="49.08957" lon="3.74629">
        <ele>64</ele>
        <time>2020-06-30T21:19:53Z</time>
      </trkpt>
      <trkpt lat="49.0896" lon="3.74623">
        <ele>63.9</ele>
        <time>2020-06-30T21:19:54Z</time>
      </trkpt>
      <trkpt lat="49.08964" lon="3.74617">
        <ele>63.9</ele>
        <time>2020-06-30T21:19:55Z</time>
      </trkpt>
      <trkpt lat="49.08967" lon="3.74611">
        <ele>63.9</ele>
        <time>2020-06-30T21:19:56Z</time>
      </trkpt>
      <trkpt lat="49.0897" lon="3.74605">
        <ele>63.9</ele>
        <time>2020-06-30T21:19:57Z</time>
      </trkpt>
      <trkpt lat="49.08974" lon="3.74599">
        <ele>63.8</ele>
        <time>2020-06-30T21:19:58Z</time>
      </trkpt>
      <trkpt lat="49.08977" lon="3.74593">
        <ele>63.8</ele>
        <time>2020-06-30T21:19:59Z</time>
      </trkpt>
      <trkpt lat="49.0898" lon="3.74586">
        <ele>63.8</ele>
        <time>2020-06-30T21:20:00Z</time>
      </trkpt>
      <trkpt lat="49.08983" lon="3.74579">
        <ele>63.8</ele>
        <time>2020-06-30T21:20:01Z</time>
      </trkpt>
      <trkpt lat="49.08987" lon="3.74571">
        <ele>63.8</ele>
        <time>2020-06-30T21:20:02Z</time>
      </trkpt>
      <trkpt lat="49.0899" lon="3.74565">
        <ele>63.8</ele>
        <time>2020-06-30T21:20:03Z</time>
      </trkpt>
      <trkpt lat="49.08992" lon="3.74559">
        <ele>63.8</ele>
        <time>2020-06-30T21:20:04Z</time>
      </trkpt>
      <trkpt lat="49.08996" lon="3.74552">
        <ele>63.9</ele>
        <time>2020-06-30T21:20:05Z</time>
      </trkpt>
      <trkpt lat="49.08998" lon="3.74545">
        <ele>63.9</ele>
        <time>2020-06-30T21:20:06Z</time>
      </trkpt>
      <trkpt lat="49.09" lon="3.74539">
        <ele>63.9</ele>
        <time>2020-06-30T21:20:07Z</time>
      </trkpt>
      <trkpt lat="49.09001" lon="3.74534">
        <ele>63.9</ele>
        <time>2020-06-30T21:20:08Z</time>
      </trkpt>
      <trkpt lat="49.09003" lon="3.74531">
        <ele>63.9</ele>
        <time>2020-06-30T21:20:09Z</time>
      </trkpt>
      <trkpt lat="49.09003" lon="3.7453">
        <ele>63.9</ele>
        <time>2020-06-30T21:20:10Z</time>
      </trkpt>
      <trkpt lat="49.09003" lon="3.7453">
        <ele>63.9</ele>
        <time>2020-06-30T21:20:11Z</time>
      </trkpt>
      <trkpt lat="49.09003" lon="3.7453">
        <ele>63.9</ele>
        <time>2020-06-30T21:20:12Z</time>
      </trkpt>
      <trkpt lat="49.09004" lon="3.7453">
        <ele>63.9</ele>
        <time>2020-06-30T21:20:13Z</time>
      </trkpt>
      <trkpt lat="49.09004" lon="3.74529">
        <ele>63.9</ele>
        <time>2020-06-30T21:20:14Z</time>
      </trkpt>
      <trkpt lat="49.09004" lon="3.74529">
        <ele>63.9</ele>
        <time>2020-06-30T21:20:15Z</time>
      </trkpt>
      <trkpt lat="49.09003" lon="3.74528">
        <ele>63.9</ele>
        <time>2020-06-30T21:20:16Z</time>
      </trkpt>
      <trkpt lat="49.09004" lon="3.74527">
        <ele>63.9</ele>
        <time>2020-06-30T21:20:17Z</time>
      </trkpt>
      <trkpt lat="49.09004" lon="3.74527">
        <ele>63.9</ele>
        <time>2020-06-30T21:20:18Z</time>
      </trkpt>
      <trkpt lat="49.09004" lon="3.74526">
        <ele>63.9</ele>
        <time>2020-06-30T21:20:19Z</time>
      </trkpt>
      <trkpt lat="49.09004" lon="3.74526">
        <ele>63.9</ele>
        <time>2020-06-30T21:20:20Z</time>
      </trkpt>
      <trkpt lat="49.09004" lon="3.74526">
        <ele>63.9</ele>
        <time>2020-06-30T21:20:21Z</time>
      </trkpt>
      <trkpt lat="49.09004" lon="3.74526">
        <ele>63.9</ele>
        <time>2020-06-30T21:20:22Z</time>
      </trkpt>
      <trkpt lat="49.09004" lon="3.74525">
        <ele>63.9</ele>
        <time>2020-06-30T21:20:23Z</time>
      </trkpt>
      <trkpt lat="49.09004" lon="3.74525">
        <ele>63.9</ele>
        <time>2020-06-30T21:20:24Z</time>
      </trkpt>
      <trkpt lat="49.09004" lon="3.74525">
        <ele>63.9</ele>
        <time>2020-06-30T21:20:25Z</time>
      </trkpt>
      <trkpt lat="49.09004" lon="3.74525">
        <ele>63.9</ele>
        <time>2020-06-30T21:20:26Z</time>
      </trkpt>
      <trkpt lat="49.09003" lon="3.74525">
        <ele>63.9</ele>
        <time>2020-06-30T21:20:27Z</time>
      </trkpt>
      <trkpt lat="49.09003" lon="3.74525">
        <ele>63.9</ele>
        <time>2020-06-30T21:20:28Z</time>
      </trkpt>
      <trkpt lat="49.09006" lon="3.74519">
        <ele>63.9</ele>
        <time>2020-06-30T21:20:55Z</time>
      </trkpt>
      <trkpt lat="49.09007" lon="3.74517">
        <ele>63.8</ele>
        <time>2020-06-30T21:20:56Z</time>
      </trkpt>
      <trkpt lat="49.09009" lon="3.74512">
        <ele>63.8</ele>
        <time>2020-06-30T21:20:57Z</time>
      </trkpt>
      <trkpt lat="49.0901" lon="3.7451">
        <ele>63.8</ele>
        <time>2020-06-30T21:20:58Z</time>
      </trkpt>
      <trkpt lat="49.09012" lon="3.74507">
        <ele>63.7</ele>
        <time>2020-06-30T21:20:59Z</time>
      </trkpt>
      <trkpt lat="49.09014" lon="3.74504">
        <ele>63.7</ele>
        <time>2020-06-30T21:21:00Z</time>
      </trkpt>
      <trkpt lat="49.09016" lon="3.74501">
        <ele>63.6</ele>
        <time>2020-06-30T21:21:01Z</time>
      </trkpt>
      <trkpt lat="49.09018" lon="3.74497">
        <ele>63.6</ele>
        <time>2020-06-30T21:21:02Z</time>
      </trkpt>
      <trkpt lat="49.0902" lon="3.74494">
        <ele>63.5</ele>
        <time>2020-06-30T21:21:03Z</time>
      </trkpt>
      <trkpt lat="49.09022" lon="3.7449">
        <ele>63.5</ele>
        <time>2020-06-30T21:21:04Z</time>
      </trkpt>
      <trkpt lat="49.09024" lon="3.74487">
        <ele>63.5</ele>
        <time>2020-06-30T21:21:05Z</time>
      </trkpt>
      <trkpt lat="49.09026" lon="3.74483">
        <ele>63.4</ele>
        <time>2020-06-30T21:21:06Z</time>
      </trkpt>
      <trkpt lat="49.09027" lon="3.74478">
        <ele>63.4</ele>
        <time>2020-06-30T21:21:07Z</time>
      </trkpt>
      <trkpt lat="49.09029" lon="3.74474">
        <ele>63.3</ele>
        <time>2020-06-30T21:21:08Z</time>
      </trkpt>
      <trkpt lat="49.09031" lon="3.7447">
        <ele>63.3</ele>
        <time>2020-06-30T21:21:09Z</time>
      </trkpt>
      <trkpt lat="49.09033" lon="3.74466">
        <ele>63.2</ele>
        <time>2020-06-30T21:21:10Z</time>
      </trkpt>
      <trkpt lat="49.09035" lon="3.74462">
        <ele>63.2</ele>
        <time>2020-06-30T21:21:11Z</time>
      </trkpt>
      <trkpt lat="49.09036" lon="3.74457">
        <ele>63.2</ele>
        <time>2020-06-30T21:21:12Z</time>
      </trkpt>
      <trkpt lat="49.09038" lon="3.74452">
        <ele>63.2</ele>
        <time>2020-06-30T21:21:13Z</time>
      </trkpt>
      <trkpt lat="49.09039" lon="3.74448">
        <ele>63.2</ele>
        <time>2020-06-30T21:21:14Z</time>
      </trkpt>
      <trkpt lat="49.09041" lon="3.74444">
        <ele>63.2</ele>
        <time>2020-06-30T21:21:15Z</time>
      </trkpt>
      <trkpt lat="49.09043" lon="3.74439">
        <ele>63.2</ele>
        <time>2020-06-30T21:21:16Z</time>
      </trkpt>
      <trkpt lat="49.09044" lon="3.74435">
        <ele>63.2</ele>
        <time>2020-06-30T21:21:17Z</time>
      </trkpt>
      <trkpt lat="49.09046" lon="3.74431">
        <ele>63.2</ele>
        <time>2020-06-30T21:21:18Z</time>
      </trkpt>
      <trkpt lat="49.09048" lon="3.74427">
        <ele>63.2</ele>
        <time>2020-06-30T21:21:19Z</time>
      </trkpt>
      <trkpt lat="49.0905" lon="3.74424">
        <ele>63.2</ele>
        <time>2020-06-30T21:21:20Z</time>
      </trkpt>
      <trkpt lat="49.09051" lon="3.7442">
        <ele>63.2</ele>
        <time>2020-06-30T21:21:21Z</time>
      </trkpt>
      <trkpt lat="49.09053" lon="3.74416">
        <ele>63.2</ele>
        <time>2020-06-30T21:21:22Z</time>
      </trkpt>
      <trkpt lat="49.09055" lon="3.74412">
        <ele>63.2</ele>
        <time>2020-06-30T21:21:23Z</time>
      </trkpt>
      <trkpt lat="49.09056" lon="3.74408">
        <ele>63.2</ele>
        <time>2020-06-30T21:21:24Z</time>
      </trkpt>
      <trkpt lat="49.09058" lon="3.74404">
        <ele>63.2</ele>
        <time>2020-06-30T21:21:25Z</time>
      </trkpt>
      <trkpt lat="49.0906" lon="3.744">
        <ele>63.2</ele>
        <time>2020-06-30T21:21:26Z</time>
      </trkpt>
      <trkpt lat="49.09062" lon="3.74395">
        <ele>63.2</ele>
        <time>2020-06-30T21:21:27Z</time>
      </trkpt>
      <trkpt lat="49.09062" lon="3.74394">
        <ele>63.2</ele>
        <time>2020-06-30T21:21:28Z</time>
      </trkpt>
      <trkpt lat="49.09064" lon="3.74389">
        <ele>63.2</ele>
        <time>2020-06-30T21:21:29Z</time>
      </trkpt>
      <trkpt lat="49.09064" lon="3.74387">
        <ele>63.2</ele>
        <time>2020-06-30T21:21:30Z</time>
      </trkpt>
      <trkpt lat="49.09066" lon="3.74383">
        <ele>63.2</ele>
        <time>2020-06-30T21:21:31Z</time>
      </trkpt>
      <trkpt lat="49.09068" lon="3.74379">
        <ele>63.2</ele>
        <time>2020-06-30T21:21:32Z</time>
      </trkpt>
      <trkpt lat="49.0907" lon="3.74374">
        <ele>63.2</ele>
        <time>2020-06-30T21:21:33Z</time>
      </trkpt>
      <trkpt lat="49.09072" lon="3.7437">
        <ele>63.3</ele>
        <time>2020-06-30T21:21:34Z</time>
      </trkpt>
      <trkpt lat="49.09075" lon="3.74367">
        <ele>63.3</ele>
        <time>2020-06-30T21:21:35Z</time>
      </trkpt>
      <trkpt lat="49.09076" lon="3.74363">
        <ele>63.3</ele>
        <time>2020-06-30T21:21:36Z</time>
      </trkpt>
      <trkpt lat="49.09078" lon="3.74359">
        <ele>63.3</ele>
        <time>2020-06-30T21:21:37Z</time>
      </trkpt>
      <trkpt lat="49.0908" lon="3.74357">
        <ele>63.3</ele>
        <time>2020-06-30T21:21:38Z</time>
      </trkpt>
      <trkpt lat="49.09082" lon="3.74354">
        <ele>63.3</ele>
        <time>2020-06-30T21:21:39Z</time>
      </trkpt>
      <trkpt lat="49.09084" lon="3.7435">
        <ele>63.3</ele>
        <time>2020-06-30T21:21:40Z</time>
      </trkpt>
      <trkpt lat="49.09086" lon="3.74346">
        <ele>63.3</ele>
        <time>2020-06-30T21:21:41Z</time>
      </trkpt>
      <trkpt lat="49.09087" lon="3.74342">
        <ele>63.3</ele>
        <time>2020-06-30T21:21:42Z</time>
      </trkpt>
      <trkpt lat="49.09089" lon="3.74338">
        <ele>63.3</ele>
        <time>2020-06-30T21:21:43Z</time>
      </trkpt>
      <trkpt lat="49.0909" lon="3.74336">
        <ele>63.3</ele>
        <time>2020-06-30T21:21:44Z</time>
      </trkpt>
      <trkpt lat="49.09092" lon="3.74331">
        <ele>63.3</ele>
        <time>2020-06-30T21:21:45Z</time>
      </trkpt>
      <trkpt lat="49.09093" lon="3.74329">
        <ele>63.3</ele>
        <time>2020-06-30T21:21:46Z</time>
      </trkpt>
      <trkpt lat="49.09095" lon="3.74326">
        <ele>63.3</ele>
        <time>2020-06-30T21:21:47Z</time>
      </trkpt>
      <trkpt lat="49.09096" lon="3.74324">
        <ele>63.3</ele>
        <time>2020-06-30T21:21:48Z</time>
      </trkpt>
      <trkpt lat="49.09097" lon="3.74319">
        <ele>63.3</ele>
        <time>2020-06-30T21:21:49Z</time>
      </trkpt>
      <trkpt lat="49.09097" lon="3.74317">
        <ele>63.3</ele>
        <time>2020-06-30T21:21:50Z</time>
      </trkpt>
      <trkpt lat="49.09099" lon="3.74312">
        <ele>63.3</ele>
        <time>2020-06-30T21:21:51Z</time>
      </trkpt>
      <trkpt lat="49.09099" lon="3.74311">
        <ele>63.3</ele>
        <time>2020-06-30T21:21:52Z</time>
      </trkpt>
      <trkpt lat="49.09102" lon="3.74307">
        <ele>63.3</ele>
        <time>2020-06-30T21:21:53Z</time>
      </trkpt>
      <trkpt lat="49.09103" lon="3.74305">
        <ele>63.3</ele>
        <time>2020-06-30T21:21:54Z</time>
      </trkpt>
      <trkpt lat="49.09105" lon="3.74302">
        <ele>63.3</ele>
        <time>2020-06-30T21:21:55Z</time>
      </trkpt>
      <trkpt lat="49.09107" lon="3.74298">
        <ele>63.3</ele>
        <time>2020-06-30T21:21:56Z</time>
      </trkpt>
      <trkpt lat="49.09109" lon="3.74295">
        <ele>63.3</ele>
        <time>2020-06-30T21:21:57Z</time>
      </trkpt>
      <trkpt lat="49.0911" lon="3.74291">
        <ele>63.3</ele>
        <time>2020-06-30T21:21:58Z</time>
      </trkpt>
      <trkpt lat="49.09112" lon="3.74288">
        <ele>63.3</ele>
        <time>2020-06-30T21:21:59Z</time>
      </trkpt>
      <trkpt lat="49.09114" lon="3.74284">
        <ele>63.3</ele>
        <time>2020-06-30T21:22:00Z</time>
      </trkpt>
      <trkpt lat="49.09117" lon="3.74282">
        <ele>63.2</ele>
        <time>2020-06-30T21:22:01Z</time>
      </trkpt>
      <trkpt lat="49.09119" lon="3.74278">
        <ele>63.2</ele>
        <time>2020-06-30T21:22:02Z</time>
      </trkpt>
      <trkpt lat="49.09121" lon="3.74275">
        <ele>63.2</ele>
        <time>2020-06-30T21:22:03Z</time>
      </trkpt>
      <trkpt lat="49.09123" lon="3.74272">
        <ele>63.2</ele>
        <time>2020-06-30T21:22:04Z</time>
      </trkpt>
      <trkpt lat="49.09125" lon="3.74269">
        <ele>63.2</ele>
        <time>2020-06-30T21:22:05Z</time>
      </trkpt>
      <trkpt lat="49.09127" lon="3.74265">
        <ele>63.2</ele>
        <time>2020-06-30T21:22:06Z</time>
      </trkpt>
      <trkpt lat="49.09128" lon="3.74261">
        <ele>63.1</ele>
        <time>2020-06-30T21:22:07Z</time>
      </trkpt>
      <trkpt lat="49.0913" lon="3.74257">
        <ele>63.1</ele>
        <time>2020-06-30T21:22:08Z</time>
      </trkpt>
      <trkpt lat="49.09132" lon="3.74254">
        <ele>63.1</ele>
        <time>2020-06-30T21:22:09Z</time>
      </trkpt>
      <trkpt lat="49.09133" lon="3.74249">
        <ele>63.1</ele>
        <time>2020-06-30T21:22:10Z</time>
      </trkpt>
      <trkpt lat="49.09135" lon="3.74245">
        <ele>63.1</ele>
        <time>2020-06-30T21:22:11Z</time>
      </trkpt>
      <trkpt lat="49.09137" lon="3.7424">
        <ele>63.1</ele>
        <time>2020-06-30T21:22:12Z</time>
      </trkpt>
      <trkpt lat="49.09139" lon="3.74234">
        <ele>63.1</ele>
        <time>2020-06-30T21:22:13Z</time>
      </trkpt>
      <trkpt lat="49.09141" lon="3.74228">
        <ele>63.1</ele>
        <time>2020-06-30T21:22:14Z</time>
      </trkpt>
      <trkpt lat="49.09143" lon="3.74222">
        <ele>63.1</ele>
        <time>2020-06-30T21:22:15Z</time>
      </trkpt>
      <trkpt lat="49.09145" lon="3.74216">
        <ele>63.1</ele>
        <time>2020-06-30T21:22:16Z</time>
      </trkpt>
      <trkpt lat="49.09147" lon="3.7421">
        <ele>63.1</ele>
        <time>2020-06-30T21:22:17Z</time>
      </trkpt>
      <trkpt lat="49.0915" lon="3.74204">
        <ele>63.1</ele>
        <time>2020-06-30T21:22:18Z</time>
      </trkpt>
      <trkpt lat="49.09153" lon="3.74199">
        <ele>63.1</ele>
        <time>2020-06-30T21:22:19Z</time>
      </trkpt>
      <trkpt lat="49.09155" lon="3.74193">
        <ele>63.2</ele>
        <time>2020-06-30T21:22:20Z</time>
      </trkpt>
      <trkpt lat="49.09158" lon="3.74187">
        <ele>63.2</ele>
        <time>2020-06-30T21:22:21Z</time>
      </trkpt>
      <trkpt lat="49.0916" lon="3.74182">
        <ele>63.1</ele>
        <time>2020-06-30T21:22:22Z</time>
      </trkpt>
      <trkpt lat="49.09162" lon="3.74175">
        <ele>63.1</ele>
        <time>2020-06-30T21:22:23Z</time>
      </trkpt>
      <trkpt lat="49.09165" lon="3.74169">
        <ele>63.1</ele>
        <time>2020-06-30T21:22:24Z</time>
      </trkpt>
      <trkpt lat="49.09168" lon="3.74164">
        <ele>63.1</ele>
        <time>2020-06-30T21:22:25Z</time>
      </trkpt>
      <trkpt lat="49.0917" lon="3.74158">
        <ele>63.1</ele>
        <time>2020-06-30T21:22:26Z</time>
      </trkpt>
      <trkpt lat="49.09172" lon="3.74152">
        <ele>63.1</ele>
        <time>2020-06-30T21:22:27Z</time>
      </trkpt>
      <trkpt lat="49.09174" lon="3.74147">
        <ele>63.1</ele>
        <time>2020-06-30T21:22:28Z</time>
      </trkpt>
      <trkpt lat="49.09176" lon="3.7414">
        <ele>63.1</ele>
        <time>2020-06-30T21:22:29Z</time>
      </trkpt>
      <trkpt lat="49.09179" lon="3.74134">
        <ele>63.1</ele>
        <time>2020-06-30T21:22:30Z</time>
      </trkpt>
      <trkpt lat="49.09182" lon="3.74128">
        <ele>63.1</ele>
        <time>2020-06-30T21:22:31Z</time>
      </trkpt>
      <trkpt lat="49.09185" lon="3.74123">
        <ele>63.2</ele>
        <time>2020-06-30T21:22:32Z</time>
      </trkpt>
      <trkpt lat="49.09188" lon="3.74118">
        <ele>63.2</ele>
        <time>2020-06-30T21:22:33Z</time>
      </trkpt>
      <trkpt lat="49.09191" lon="3.74111">
        <ele>63.2</ele>
        <time>2020-06-30T21:22:34Z</time>
      </trkpt>
      <trkpt lat="49.09193" lon="3.74105">
        <ele>63.2</ele>
        <time>2020-06-30T21:22:35Z</time>
      </trkpt>
      <trkpt lat="49.09196" lon="3.74099">
        <ele>63.3</ele>
        <time>2020-06-30T21:22:36Z</time>
      </trkpt>
      <trkpt lat="49.09199" lon="3.74094">
        <ele>63.3</ele>
        <time>2020-06-30T21:22:37Z</time>
      </trkpt>
      <trkpt lat="49.09202" lon="3.74088">
        <ele>63.3</ele>
        <time>2020-06-30T21:22:38Z</time>
      </trkpt>
      <trkpt lat="49.09204" lon="3.74082">
        <ele>63.4</ele>
        <time>2020-06-30T21:22:39Z</time>
      </trkpt>
      <trkpt lat="49.09205" lon="3.74076">
        <ele>63.4</ele>
        <time>2020-06-30T21:22:40Z</time>
      </trkpt>
      <trkpt lat="49.09207" lon="3.7407">
        <ele>63.5</ele>
        <time>2020-06-30T21:22:41Z</time>
      </trkpt>
      <trkpt lat="49.09209" lon="3.74065">
        <ele>63.5</ele>
        <time>2020-06-30T21:22:42Z</time>
      </trkpt>
      <trkpt lat="49.09211" lon="3.74059">
        <ele>63.5</ele>
        <time>2020-06-30T21:22:43Z</time>
      </trkpt>
      <trkpt lat="49.09213" lon="3.74054">
        <ele>63.6</ele>
        <time>2020-06-30T21:22:44Z</time>
      </trkpt>
      <trkpt lat="49.09216" lon="3.74049">
        <ele>63.6</ele>
        <time>2020-06-30T21:22:45Z</time>
      </trkpt>
      <trkpt lat="49.09218" lon="3.74043">
        <ele>63.7</ele>
        <time>2020-06-30T21:22:46Z</time>
      </trkpt>
      <trkpt lat="49.09221" lon="3.74038">
        <ele>63.7</ele>
        <time>2020-06-30T21:22:47Z</time>
      </trkpt>
      <trkpt lat="49.09221" lon="3.7403">
        <ele>63.8</ele>
        <time>2020-06-30T21:22:48Z</time>
      </trkpt>
      <trkpt lat="49.09224" lon="3.74025">
        <ele>63.8</ele>
        <time>2020-06-30T21:22:49Z</time>
      </trkpt>
      <trkpt lat="49.09226" lon="3.7402">
        <ele>63.9</ele>
        <time>2020-06-30T21:22:50Z</time>
      </trkpt>
      <trkpt lat="49.09228" lon="3.74015">
        <ele>63.9</ele>
        <time>2020-06-30T21:22:51Z</time>
      </trkpt>
      <trkpt lat="49.0923" lon="3.74009">
        <ele>63.9</ele>
        <time>2020-06-30T21:22:52Z</time>
      </trkpt>
      <trkpt lat="49.09232" lon="3.74003">
        <ele>64</ele>
        <time>2020-06-30T21:22:53Z</time>
      </trkpt>
      <trkpt lat="49.09234" lon="3.73997">
        <ele>64</ele>
        <time>2020-06-30T21:22:54Z</time>
      </trkpt>
      <trkpt lat="49.09237" lon="3.73992">
        <ele>64</ele>
        <time>2020-06-30T21:22:55Z</time>
      </trkpt>
      <trkpt lat="49.0924" lon="3.73986">
        <ele>64.1</ele>
        <time>2020-06-30T21:22:56Z</time>
      </trkpt>
      <trkpt lat="49.09242" lon="3.73981">
        <ele>64.1</ele>
        <time>2020-06-30T21:22:57Z</time>
      </trkpt>
      <trkpt lat="49.09245" lon="3.73974">
        <ele>64.1</ele>
        <time>2020-06-30T21:22:58Z</time>
      </trkpt>
      <trkpt lat="49.09247" lon="3.73968">
        <ele>64.2</ele>
        <time>2020-06-30T21:22:59Z</time>
      </trkpt>
      <trkpt lat="49.09249" lon="3.73961">
        <ele>64.2</ele>
        <time>2020-06-30T21:23:00Z</time>
      </trkpt>
      <trkpt lat="49.09251" lon="3.73955">
        <ele>64.2</ele>
        <time>2020-06-30T21:23:01Z</time>
      </trkpt>
      <trkpt lat="49.09254" lon="3.7395">
        <ele>64.2</ele>
        <time>2020-06-30T21:23:02Z</time>
      </trkpt>
      <trkpt lat="49.09256" lon="3.73943">
        <ele>64.2</ele>
        <time>2020-06-30T21:23:03Z</time>
      </trkpt>
      <trkpt lat="49.09257" lon="3.73936">
        <ele>64.2</ele>
        <time>2020-06-30T21:23:04Z</time>
      </trkpt>
      <trkpt lat="49.0926" lon="3.73931">
        <ele>64.2</ele>
        <time>2020-06-30T21:23:05Z</time>
      </trkpt>
      <trkpt lat="49.09262" lon="3.73925">
        <ele>64.2</ele>
        <time>2020-06-30T21:23:06Z</time>
      </trkpt>
      <trkpt lat="49.09264" lon="3.73919">
        <ele>64.2</ele>
        <time>2020-06-30T21:23:07Z</time>
      </trkpt>
      <trkpt lat="49.09265" lon="3.73913">
        <ele>64.1</ele>
        <time>2020-06-30T21:23:08Z</time>
      </trkpt>
      <trkpt lat="49.09267" lon="3.73907">
        <ele>64.1</ele>
        <time>2020-06-30T21:23:09Z</time>
      </trkpt>
      <trkpt lat="49.09268" lon="3.73901">
        <ele>64.1</ele>
        <time>2020-06-30T21:23:10Z</time>
      </trkpt>
      <trkpt lat="49.0927" lon="3.73895">
        <ele>64.1</ele>
        <time>2020-06-30T21:23:11Z</time>
      </trkpt>
      <trkpt lat="49.09271" lon="3.7389">
        <ele>64</ele>
        <time>2020-06-30T21:23:12Z</time>
      </trkpt>
      <trkpt lat="49.09272" lon="3.73886">
        <ele>64</ele>
        <time>2020-06-30T21:23:13Z</time>
      </trkpt>
      <trkpt lat="49.09272" lon="3.73884">
        <ele>64</ele>
        <time>2020-06-30T21:23:14Z</time>
      </trkpt>
      <trkpt lat="49.09272" lon="3.73885">
        <ele>64</ele>
        <time>2020-06-30T21:23:15Z</time>
      </trkpt>
      <trkpt lat="49.09271" lon="3.73885">
        <ele>64</ele>
        <time>2020-06-30T21:23:16Z</time>
      </trkpt>
      <trkpt lat="49.09272" lon="3.73885">
        <ele>64</ele>
        <time>2020-06-30T21:23:17Z</time>
      </trkpt>
      <trkpt lat="49.09272" lon="3.73885">
        <ele>64</ele>
        <time>2020-06-30T21:23:18Z</time>
      </trkpt>
      <trkpt lat="49.09273" lon="3.73884">
        <ele>64</ele>
        <time>2020-06-30T21:23:19Z</time>
      </trkpt>
      <trkpt lat="49.09272" lon="3.73884">
        <ele>64</ele>
        <time>2020-06-30T21:23:20Z</time>
      </trkpt>
      <trkpt lat="49.09269" lon="3.73886">
        <ele>64</ele>
        <time>2020-06-30T21:23:21Z</time>
      </trkpt>
      <trkpt lat="49.09269" lon="3.73887">
        <ele>64</ele>
        <time>2020-06-30T21:23:22Z</time>
      </trkpt>
      <trkpt lat="49.09269" lon="3.73887">
        <ele>64</ele>
        <time>2020-06-30T21:23:23Z</time>
      </trkpt>
      <trkpt lat="49.09269" lon="3.7389">
        <ele>64</ele>
        <time>2020-06-30T21:23:24Z</time>
      </trkpt>
      <trkpt lat="49.09269" lon="3.73891">
        <ele>64</ele>
        <time>2020-06-30T21:23:25Z</time>
      </trkpt>
      <trkpt lat="49.0927" lon="3.73892">
        <ele>64</ele>
        <time>2020-06-30T21:23:26Z</time>
      </trkpt>
      <trkpt lat="49.0927" lon="3.73894">
        <ele>64</ele>
        <time>2020-06-30T21:23:27Z</time>
      </trkpt>
      <trkpt lat="49.0927" lon="3.73895">
        <ele>64</ele>
        <time>2020-06-30T21:23:28Z</time>
      </trkpt>
      <trkpt lat="49.09271" lon="3.73896">
        <ele>64</ele>
        <time>2020-06-30T21:23:29Z</time>
      </trkpt>
      <trkpt lat="49.09272" lon="3.73897">
        <ele>64</ele>
        <time>2020-06-30T21:23:30Z</time>
      </trkpt>
      <trkpt lat="49.0927" lon="3.73898">
        <ele>64</ele>
        <time>2020-06-30T21:23:31Z</time>
      </trkpt>
      <trkpt lat="49.0927" lon="3.73899">
        <ele>64</ele>
        <time>2020-06-30T21:23:32Z</time>
      </trkpt>
      <trkpt lat="49.09271" lon="3.73901">
        <ele>64</ele>
        <time>2020-06-30T21:23:33Z</time>
      </trkpt>
      <trkpt lat="49.09272" lon="3.73902">
        <ele>64</ele>
        <time>2020-06-30T21:23:34Z</time>
      </trkpt>
      <trkpt lat="49.09273" lon="3.73902">
        <ele>64</ele>
        <time>2020-06-30T21:23:35Z</time>
      </trkpt>
      <trkpt lat="49.09273" lon="3.73902">
        <ele>64</ele>
        <time>2020-06-30T21:23:36Z</time>
      </trkpt>
      <trkpt lat="49.09273" lon="3.73901">
        <ele>64</ele>
        <time>2020-06-30T21:23:37Z</time>
      </trkpt>
      <trkpt lat="49.09273" lon="3.73901">
        <ele>64</ele>
        <time>2020-06-30T21:23:38Z</time>
      </trkpt>
      <trkpt lat="49.09274" lon="3.73901">
        <ele>64</ele>
        <time>2020-06-30T21:23:39Z</time>
      </trkpt>
      <trkpt lat="49.09274" lon="3.73901">
        <ele>64</ele>
        <time>2020-06-30T21:23:40Z</time>
      </trkpt>
      <trkpt lat="49.09275" lon="3.739">
        <ele>64</ele>
        <time>2020-06-30T21:23:41Z</time>
      </trkpt>
      <trkpt lat="49.09275" lon="3.73899">
        <ele>64</ele>
        <time>2020-06-30T21:23:42Z</time>
      </trkpt>
      <trkpt lat="49.09275" lon="3.739">
        <ele>64</ele>
        <time>2020-06-30T21:23:43Z</time>
      </trkpt>
      <trkpt lat="49.09275" lon="3.73901">
        <ele>64</ele>
        <time>2020-06-30T21:23:44Z</time>
      </trkpt>
      <trkpt lat="49.09275" lon="3.73902">
        <ele>64</ele>
        <time>2020-06-30T21:23:45Z</time>
      </trkpt>
      <trkpt lat="49.09272" lon="3.73897">
        <ele>64</ele>
        <time>2020-06-30T21:28:29Z</time>
      </trkpt>
      <trkpt lat="49.09271" lon="3.73897">
        <ele>64</ele>
        <time>2020-06-30T21:28:30Z</time>
      </trkpt>
      <trkpt lat="49.09271" lon="3.73897">
        <ele>64</ele>
        <time>2020-06-30T21:28:31Z</time>
      </trkpt>
      <trkpt lat="49.09271" lon="3.73896">
        <ele>64.1</ele>
        <time>2020-06-30T21:28:32Z</time>
      </trkpt>
      <trkpt lat="49.09271" lon="3.73895">
        <ele>64.1</ele>
        <time>2020-06-30T21:28:33Z</time>
      </trkpt>
      <trkpt lat="49.09271" lon="3.73894">
        <ele>64.1</ele>
        <time>2020-06-30T21:28:34Z</time>
      </trkpt>
      <trkpt lat="49.09272" lon="3.73895">
        <ele>64.1</ele>
        <time>2020-06-30T21:28:35Z</time>
      </trkpt>
      <trkpt lat="49.09273" lon="3.73895">
        <ele>64.1</ele>
        <time>2020-06-30T21:28:36Z</time>
      </trkpt>
      <trkpt lat="49.09272" lon="3.73895">
        <ele>64.1</ele>
        <time>2020-06-30T21:28:37Z</time>
      </trkpt>
      <trkpt lat="49.09272" lon="3.73894">
        <ele>64.1</ele>
        <time>2020-06-30T21:28:38Z</time>
      </trkpt>
      <trkpt lat="49.09273" lon="3.73894">
        <ele>64.1</ele>
        <time>2020-06-30T21:28:39Z</time>
      </trkpt>
      <trkpt lat="49.09272" lon="3.73894">
        <ele>64.1</ele>
        <time>2020-06-30T21:28:40Z</time>
      </trkpt>
      <trkpt lat="49.09272" lon="3.73894">
        <ele>64.1</ele>
        <time>2020-06-30T21:28:41Z</time>
      </trkpt>
      <trkpt lat="49.09272" lon="3.73894">
        <ele>64.1</ele>
        <time>2020-06-30T21:28:42Z</time>
      </trkpt>
      <trkpt lat="49.09272" lon="3.73894">
        <ele>64.1</ele>
        <time>2020-06-30T21:28:43Z</time>
      </trkpt>
      <trkpt lat="49.09271" lon="3.73894">
        <ele>64.1</ele>
        <time>2020-06-30T21:28:44Z</time>
      </trkpt>
      <trkpt lat="49.0927" lon="3.73894">
        <ele>64.1</ele>
        <time>2020-06-30T21:28:45Z</time>
      </trkpt>
      <trkpt lat="49.09272" lon="3.73884">
        <ele>64.1</ele>
        <time>2020-06-30T21:29:01Z</time>
      </trkpt>
      <trkpt lat="49.09273" lon="3.73881">
        <ele>64.1</ele>
        <time>2020-06-30T21:29:02Z</time>
      </trkpt>
      <trkpt lat="49.09274" lon="3.73876">
        <ele>64.1</ele>
        <time>2020-06-30T21:29:03Z</time>
      </trkpt>
      <trkpt lat="49.09274" lon="3.73875">
        <ele>64.1</ele>
        <time>2020-06-30T21:29:04Z</time>
      </trkpt>
      <trkpt lat="49.09276" lon="3.7387">
        <ele>64.1</ele>
        <time>2020-06-30T21:29:05Z</time>
      </trkpt>
      <trkpt lat="49.09277" lon="3.73868">
        <ele>64.1</ele>
        <time>2020-06-30T21:29:06Z</time>
      </trkpt>
      <trkpt lat="49.09279" lon="3.73863">
        <ele>64.1</ele>
        <time>2020-06-30T21:29:07Z</time>
      </trkpt>
      <trkpt lat="49.0928" lon="3.73861">
        <ele>64.1</ele>
        <time>2020-06-30T21:29:08Z</time>
      </trkpt>
      <trkpt lat="49.09281" lon="3.73857">
        <ele>64.1</ele>
        <time>2020-06-30T21:29:09Z</time>
      </trkpt>
      <trkpt lat="49.09282" lon="3.73855">
        <ele>64.1</ele>
        <time>2020-06-30T21:29:10Z</time>
      </trkpt>
      <trkpt lat="49.09282" lon="3.7385">
        <ele>64.1</ele>
        <time>2020-06-30T21:29:11Z</time>
      </trkpt>
      <trkpt lat="49.09283" lon="3.73845">
        <ele>64.1</ele>
        <time>2020-06-30T21:29:12Z</time>
      </trkpt>
      <trkpt lat="49.09285" lon="3.7384">
        <ele>64.1</ele>
        <time>2020-06-30T21:29:13Z</time>
      </trkpt>
      <trkpt lat="49.09285" lon="3.73835">
        <ele>64.1</ele>
        <time>2020-06-30T21:29:14Z</time>
      </trkpt>
      <trkpt lat="49.09286" lon="3.7383">
        <ele>64</ele>
        <time>2020-06-30T21:29:15Z</time>
      </trkpt>
      <trkpt lat="49.09288" lon="3.73825">
        <ele>64</ele>
        <time>2020-06-30T21:29:16Z</time>
      </trkpt>
      <trkpt lat="49.09289" lon="3.7382">
        <ele>64</ele>
        <time>2020-06-30T21:29:17Z</time>
      </trkpt>
      <trkpt lat="49.09291" lon="3.73815">
        <ele>64</ele>
        <time>2020-06-30T21:29:18Z</time>
      </trkpt>
      <trkpt lat="49.09293" lon="3.73811">
        <ele>64</ele>
        <time>2020-06-30T21:29:19Z</time>
      </trkpt>
      <trkpt lat="49.09295" lon="3.73805">
        <ele>64</ele>
        <time>2020-06-30T21:29:20Z</time>
      </trkpt>
      <trkpt lat="49.09296" lon="3.738">
        <ele>64</ele>
        <time>2020-06-30T21:29:21Z</time>
      </trkpt>
      <trkpt lat="49.09298" lon="3.73795">
        <ele>64</ele>
        <time>2020-06-30T21:29:22Z</time>
      </trkpt>
      <trkpt lat="49.09298" lon="3.7379">
        <ele>64</ele>
        <time>2020-06-30T21:29:23Z</time>
      </trkpt>
      <trkpt lat="49.093" lon="3.73784">
        <ele>64</ele>
        <time>2020-06-30T21:29:24Z</time>
      </trkpt>
      <trkpt lat="49.09301" lon="3.73779">
        <ele>64</ele>
        <time>2020-06-30T21:29:25Z</time>
      </trkpt>
      <trkpt lat="49.09301" lon="3.73773">
        <ele>64</ele>
        <time>2020-06-30T21:29:26Z</time>
      </trkpt>
      <trkpt lat="49.09302" lon="3.73767">
        <ele>64</ele>
        <time>2020-06-30T21:29:27Z</time>
      </trkpt>
      <trkpt lat="49.09302" lon="3.73762">
        <ele>63.9</ele>
        <time>2020-06-30T21:29:28Z</time>
      </trkpt>
      <trkpt lat="49.09303" lon="3.73757">
        <ele>63.9</ele>
        <time>2020-06-30T21:29:29Z</time>
      </trkpt>
      <trkpt lat="49.09304" lon="3.73752">
        <ele>63.9</ele>
        <time>2020-06-30T21:29:30Z</time>
      </trkpt>
      <trkpt lat="49.09306" lon="3.73747">
        <ele>63.9</ele>
        <time>2020-06-30T21:29:31Z</time>
      </trkpt>
      <trkpt lat="49.09307" lon="3.73743">
        <ele>63.9</ele>
        <time>2020-06-30T21:29:32Z</time>
      </trkpt>
      <trkpt lat="49.09308" lon="3.73738">
        <ele>63.9</ele>
        <time>2020-06-30T21:29:33Z</time>
      </trkpt>
      <trkpt lat="49.09309" lon="3.73733">
        <ele>63.8</ele>
        <time>2020-06-30T21:29:34Z</time>
      </trkpt>
      <trkpt lat="49.09309" lon="3.73727">
        <ele>63.8</ele>
        <time>2020-06-30T21:29:35Z</time>
      </trkpt>
      <trkpt lat="49.0931" lon="3.73722">
        <ele>63.8</ele>
        <time>2020-06-30T21:29:36Z</time>
      </trkpt>
      <trkpt lat="49.0931" lon="3.73716">
        <ele>63.8</ele>
        <time>2020-06-30T21:29:37Z</time>
      </trkpt>
      <trkpt lat="49.0931" lon="3.73711">
        <ele>63.8</ele>
        <time>2020-06-30T21:29:38Z</time>
      </trkpt>
      <trkpt lat="49.09311" lon="3.73706">
        <ele>63.8</ele>
        <time>2020-06-30T21:29:39Z</time>
      </trkpt>
      <trkpt lat="49.09312" lon="3.73702">
        <ele>63.8</ele>
        <time>2020-06-30T21:29:40Z</time>
      </trkpt>
      <trkpt lat="49.09313" lon="3.73698">
        <ele>63.8</ele>
        <time>2020-06-30T21:29:41Z</time>
      </trkpt>
      <trkpt lat="49.09314" lon="3.73694">
        <ele>63.8</ele>
        <time>2020-06-30T21:29:42Z</time>
      </trkpt>
      <trkpt lat="49.09315" lon="3.73689">
        <ele>63.8</ele>
        <time>2020-06-30T21:29:43Z</time>
      </trkpt>
      <trkpt lat="49.09315" lon="3.73685">
        <ele>63.8</ele>
        <time>2020-06-30T21:29:44Z</time>
      </trkpt>
      <trkpt lat="49.09315" lon="3.7368">
        <ele>63.7</ele>
        <time>2020-06-30T21:29:45Z</time>
      </trkpt>
      <trkpt lat="49.09314" lon="3.73675">
        <ele>63.7</ele>
        <time>2020-06-30T21:29:46Z</time>
      </trkpt>
      <trkpt lat="49.09315" lon="3.73673">
        <ele>63.7</ele>
        <time>2020-06-30T21:29:47Z</time>
      </trkpt>
      <trkpt lat="49.09315" lon="3.73667">
        <ele>63.7</ele>
        <time>2020-06-30T21:29:48Z</time>
      </trkpt>
      <trkpt lat="49.09315" lon="3.73664">
        <ele>63.7</ele>
        <time>2020-06-30T21:29:49Z</time>
      </trkpt>
      <trkpt lat="49.09314" lon="3.7366">
        <ele>63.7</ele>
        <time>2020-06-30T21:29:50Z</time>
      </trkpt>
      <trkpt lat="49.09315" lon="3.73655">
        <ele>63.7</ele>
        <time>2020-06-30T21:29:51Z</time>
      </trkpt>
      <trkpt lat="49.09315" lon="3.73649">
        <ele>63.6</ele>
        <time>2020-06-30T21:29:52Z</time>
      </trkpt>
      <trkpt lat="49.09316" lon="3.73644">
        <ele>63.6</ele>
        <time>2020-06-30T21:29:53Z</time>
      </trkpt>
      <trkpt lat="49.09317" lon="3.73639">
        <ele>63.6</ele>
        <time>2020-06-30T21:29:54Z</time>
      </trkpt>
      <trkpt lat="49.09318" lon="3.73633">
        <ele>63.6</ele>
        <time>2020-06-30T21:29:55Z</time>
      </trkpt>
      <trkpt lat="49.09318" lon="3.73628">
        <ele>63.6</ele>
        <time>2020-06-30T21:29:56Z</time>
      </trkpt>
      <trkpt lat="49.09317" lon="3.73622">
        <ele>63.6</ele>
        <time>2020-06-30T21:29:57Z</time>
      </trkpt>
      <trkpt lat="49.09319" lon="3.73616">
        <ele>63.5</ele>
        <time>2020-06-30T21:29:58Z</time>
      </trkpt>
      <trkpt lat="49.0932" lon="3.73611">
        <ele>63.5</ele>
        <time>2020-06-30T21:29:59Z</time>
      </trkpt>
      <trkpt lat="49.0932" lon="3.73605">
        <ele>63.5</ele>
        <time>2020-06-30T21:30:00Z</time>
      </trkpt>
      <trkpt lat="49.0932" lon="3.736">
        <ele>63.6</ele>
        <time>2020-06-30T21:30:01Z</time>
      </trkpt>
      <trkpt lat="49.0932" lon="3.73594">
        <ele>63.6</ele>
        <time>2020-06-30T21:30:02Z</time>
      </trkpt>
      <trkpt lat="49.09321" lon="3.73588">
        <ele>63.6</ele>
        <time>2020-06-30T21:30:03Z</time>
      </trkpt>
      <trkpt lat="49.09321" lon="3.73583">
        <ele>63.6</ele>
        <time>2020-06-30T21:30:04Z</time>
      </trkpt>
      <trkpt lat="49.09322" lon="3.73577">
        <ele>63.6</ele>
        <time>2020-06-30T21:30:05Z</time>
      </trkpt>
      <trkpt lat="49.09322" lon="3.73571">
        <ele>63.7</ele>
        <time>2020-06-30T21:30:06Z</time>
      </trkpt>
      <trkpt lat="49.09323" lon="3.73566">
        <ele>63.7</ele>
        <time>2020-06-30T21:30:07Z</time>
      </trkpt>
      <trkpt lat="49.09323" lon="3.7356">
        <ele>63.7</ele>
        <time>2020-06-30T21:30:08Z</time>
      </trkpt>
      <trkpt lat="49.09324" lon="3.73556">
        <ele>63.7</ele>
        <time>2020-06-30T21:30:09Z</time>
      </trkpt>
      <trkpt lat="49.09324" lon="3.73551">
        <ele>63.7</ele>
        <time>2020-06-30T21:30:10Z</time>
      </trkpt>
      <trkpt lat="49.09324" lon="3.73547">
        <ele>63.7</ele>
        <time>2020-06-30T21:30:11Z</time>
      </trkpt>
      <trkpt lat="49.09325" lon="3.73541">
        <ele>63.7</ele>
        <time>2020-06-30T21:30:12Z</time>
      </trkpt>
      <trkpt lat="49.09325" lon="3.73539">
        <ele>63.7</ele>
        <time>2020-06-30T21:30:13Z</time>
      </trkpt>
      <trkpt lat="49.09324" lon="3.73534">
        <ele>63.7</ele>
        <time>2020-06-30T21:30:14Z</time>
      </trkpt>
      <trkpt lat="49.09324" lon="3.7353">
        <ele>63.8</ele>
        <time>2020-06-30T21:30:15Z</time>
      </trkpt>
      <trkpt lat="49.09326" lon="3.73526">
        <ele>63.8</ele>
        <time>2020-06-30T21:30:16Z</time>
      </trkpt>
      <trkpt lat="49.09327" lon="3.7352">
        <ele>63.8</ele>
        <time>2020-06-30T21:30:17Z</time>
      </trkpt>
      <trkpt lat="49.09327" lon="3.73518">
        <ele>63.8</ele>
        <time>2020-06-30T21:30:18Z</time>
      </trkpt>
      <trkpt lat="49.09329" lon="3.73513">
        <ele>63.8</ele>
        <time>2020-06-30T21:30:19Z</time>
      </trkpt>
      <trkpt lat="49.0933" lon="3.73508">
        <ele>63.8</ele>
        <time>2020-06-30T21:30:20Z</time>
      </trkpt>
      <trkpt lat="49.09331" lon="3.73503">
        <ele>63.8</ele>
        <time>2020-06-30T21:30:21Z</time>
      </trkpt>
      <trkpt lat="49.09332" lon="3.73498">
        <ele>63.8</ele>
        <time>2020-06-30T21:30:22Z</time>
      </trkpt>
      <trkpt lat="49.09334" lon="3.73493">
        <ele>63.8</ele>
        <time>2020-06-30T21:30:23Z</time>
      </trkpt>
      <trkpt lat="49.09334" lon="3.73487">
        <ele>63.8</ele>
        <time>2020-06-30T21:30:24Z</time>
      </trkpt>
      <trkpt lat="49.09336" lon="3.73482">
        <ele>63.8</ele>
        <time>2020-06-30T21:30:25Z</time>
      </trkpt>
      <trkpt lat="49.09337" lon="3.73475">
        <ele>63.8</ele>
        <time>2020-06-30T21:30:26Z</time>
      </trkpt>
      <trkpt lat="49.09338" lon="3.73469">
        <ele>63.8</ele>
        <time>2020-06-30T21:30:27Z</time>
      </trkpt>
      <trkpt lat="49.09338" lon="3.73463">
        <ele>63.8</ele>
        <time>2020-06-30T21:30:28Z</time>
      </trkpt>
      <trkpt lat="49.09339" lon="3.73457">
        <ele>63.8</ele>
        <time>2020-06-30T21:30:29Z</time>
      </trkpt>
      <trkpt lat="49.0934" lon="3.73451">
        <ele>63.8</ele>
        <time>2020-06-30T21:30:30Z</time>
      </trkpt>
      <trkpt lat="49.0934" lon="3.73445">
        <ele>63.8</ele>
        <time>2020-06-30T21:30:31Z</time>
      </trkpt>
      <trkpt lat="49.0934" lon="3.7344">
        <ele>63.8</ele>
        <time>2020-06-30T21:30:32Z</time>
      </trkpt>
      <trkpt lat="49.09341" lon="3.73434">
        <ele>63.8</ele>
        <time>2020-06-30T21:30:33Z</time>
      </trkpt>
      <trkpt lat="49.09342" lon="3.73429">
        <ele>63.8</ele>
        <time>2020-06-30T21:30:34Z</time>
      </trkpt>
      <trkpt lat="49.09342" lon="3.73424">
        <ele>63.8</ele>
        <time>2020-06-30T21:30:35Z</time>
      </trkpt>
      <trkpt lat="49.09342" lon="3.73419">
        <ele>63.8</ele>
        <time>2020-06-30T21:30:36Z</time>
      </trkpt>
      <trkpt lat="49.09343" lon="3.73413">
        <ele>63.8</ele>
        <time>2020-06-30T21:30:37Z</time>
      </trkpt>
      <trkpt lat="49.09344" lon="3.73408">
        <ele>63.8</ele>
        <time>2020-06-30T21:30:38Z</time>
      </trkpt>
      <trkpt lat="49.09346" lon="3.73403">
        <ele>63.8</ele>
        <time>2020-06-30T21:30:39Z</time>
      </trkpt>
      <trkpt lat="49.09347" lon="3.73399">
        <ele>63.8</ele>
        <time>2020-06-30T21:30:40Z</time>
      </trkpt>
      <trkpt lat="49.09348" lon="3.73393">
        <ele>63.8</ele>
        <time>2020-06-30T21:30:41Z</time>
      </trkpt>
      <trkpt lat="49.0935" lon="3.73387">
        <ele>63.8</ele>
        <time>2020-06-30T21:30:42Z</time>
      </trkpt>
      <trkpt lat="49.09352" lon="3.73382">
        <ele>63.8</ele>
        <time>2020-06-30T21:30:43Z</time>
      </trkpt>
      <trkpt lat="49.09354" lon="3.73376">
        <ele>63.8</ele>
        <time>2020-06-30T21:30:44Z</time>
      </trkpt>
      <trkpt lat="49.09355" lon="3.7337">
        <ele>63.8</ele>
        <time>2020-06-30T21:30:45Z</time>
      </trkpt>
      <trkpt lat="49.09357" lon="3.73365">
        <ele>63.8</ele>
        <time>2020-06-30T21:30:46Z</time>
      </trkpt>
      <trkpt lat="49.09359" lon="3.73359">
        <ele>63.8</ele>
        <time>2020-06-30T21:30:47Z</time>
      </trkpt>
      <trkpt lat="49.09361" lon="3.73352">
        <ele>63.9</ele>
        <time>2020-06-30T21:30:48Z</time>
      </trkpt>
      <trkpt lat="49.09363" lon="3.73346">
        <ele>63.9</ele>
        <time>2020-06-30T21:30:49Z</time>
      </trkpt>
      <trkpt lat="49.09364" lon="3.73341">
        <ele>63.9</ele>
        <time>2020-06-30T21:30:50Z</time>
      </trkpt>
      <trkpt lat="49.09365" lon="3.73335">
        <ele>63.9</ele>
        <time>2020-06-30T21:30:51Z</time>
      </trkpt>
      <trkpt lat="49.09366" lon="3.7333">
        <ele>63.9</ele>
        <time>2020-06-30T21:30:52Z</time>
      </trkpt>
      <trkpt lat="49.09367" lon="3.73324">
        <ele>63.9</ele>
        <time>2020-06-30T21:30:53Z</time>
      </trkpt>
      <trkpt lat="49.09368" lon="3.73319">
        <ele>63.9</ele>
        <time>2020-06-30T21:30:54Z</time>
      </trkpt>
      <trkpt lat="49.09369" lon="3.73313">
        <ele>63.9</ele>
        <time>2020-06-30T21:30:55Z</time>
      </trkpt>
      <trkpt lat="49.09371" lon="3.73307">
        <ele>63.9</ele>
        <time>2020-06-30T21:30:56Z</time>
      </trkpt>
      <trkpt lat="49.09373" lon="3.73301">
        <ele>63.9</ele>
        <time>2020-06-30T21:30:57Z</time>
      </trkpt>
      <trkpt lat="49.09376" lon="3.73295">
        <ele>63.9</ele>
        <time>2020-06-30T21:30:58Z</time>
      </trkpt>
      <trkpt lat="49.09378" lon="3.73289">
        <ele>64</ele>
        <time>2020-06-30T21:30:59Z</time>
      </trkpt>
      <trkpt lat="49.0938" lon="3.73283">
        <ele>64</ele>
        <time>2020-06-30T21:31:00Z</time>
      </trkpt>
      <trkpt lat="49.09382" lon="3.73278">
        <ele>64</ele>
        <time>2020-06-30T21:31:01Z</time>
      </trkpt>
      <trkpt lat="49.09385" lon="3.73274">
        <ele>64</ele>
        <time>2020-06-30T21:31:02Z</time>
      </trkpt>
      <trkpt lat="49.09388" lon="3.7327">
        <ele>64</ele>
        <time>2020-06-30T21:31:03Z</time>
      </trkpt>
      <trkpt lat="49.09389" lon="3.73265">
        <ele>64</ele>
        <time>2020-06-30T21:31:04Z</time>
      </trkpt>
      <trkpt lat="49.09391" lon="3.73261">
        <ele>64</ele>
        <time>2020-06-30T21:31:05Z</time>
      </trkpt>
      <trkpt lat="49.09394" lon="3.73257">
        <ele>64</ele>
        <time>2020-06-30T21:31:06Z</time>
      </trkpt>
      <trkpt lat="49.09395" lon="3.73252">
        <ele>64</ele>
        <time>2020-06-30T21:31:07Z</time>
      </trkpt>
      <trkpt lat="49.09396" lon="3.73248">
        <ele>64</ele>
        <time>2020-06-30T21:31:08Z</time>
      </trkpt>
      <trkpt lat="49.09398" lon="3.73243">
        <ele>64</ele>
        <time>2020-06-30T21:31:09Z</time>
      </trkpt>
      <trkpt lat="49.09399" lon="3.73237">
        <ele>64</ele>
        <time>2020-06-30T21:31:10Z</time>
      </trkpt>
      <trkpt lat="49.09401" lon="3.73231">
        <ele>64</ele>
        <time>2020-06-30T21:31:11Z</time>
      </trkpt>
      <trkpt lat="49.09403" lon="3.73225">
        <ele>63.9</ele>
        <time>2020-06-30T21:31:12Z</time>
      </trkpt>
      <trkpt lat="49.09406" lon="3.73219">
        <ele>63.9</ele>
        <time>2020-06-30T21:31:13Z</time>
      </trkpt>
      <trkpt lat="49.09409" lon="3.73214">
        <ele>63.9</ele>
        <time>2020-06-30T21:31:14Z</time>
      </trkpt>
      <trkpt lat="49.09411" lon="3.73208">
        <ele>63.9</ele>
        <time>2020-06-30T21:31:15Z</time>
      </trkpt>
      <trkpt lat="49.09413" lon="3.73202">
        <ele>63.8</ele>
        <time>2020-06-30T21:31:16Z</time>
      </trkpt>
      <trkpt lat="49.09415" lon="3.73196">
        <ele>63.8</ele>
        <time>2020-06-30T21:31:17Z</time>
      </trkpt>
      <trkpt lat="49.09417" lon="3.73191">
        <ele>63.8</ele>
        <time>2020-06-30T21:31:18Z</time>
      </trkpt>
      <trkpt lat="49.09419" lon="3.73186">
        <ele>63.8</ele>
        <time>2020-06-30T21:31:19Z</time>
      </trkpt>
      <trkpt lat="49.09421" lon="3.73181">
        <ele>63.7</ele>
        <time>2020-06-30T21:31:20Z</time>
      </trkpt>
      <trkpt lat="49.09424" lon="3.73176">
        <ele>63.7</ele>
        <time>2020-06-30T21:31:21Z</time>
      </trkpt>
      <trkpt lat="49.09426" lon="3.73171">
        <ele>63.7</ele>
        <time>2020-06-30T21:31:22Z</time>
      </trkpt>
      <trkpt lat="49.09428" lon="3.73166">
        <ele>63.7</ele>
        <time>2020-06-30T21:31:23Z</time>
      </trkpt>
      <trkpt lat="49.09432" lon="3.73161">
        <ele>63.7</ele>
        <time>2020-06-30T21:31:24Z</time>
      </trkpt>
      <trkpt lat="49.09434" lon="3.73156">
        <ele>63.7</ele>
        <time>2020-06-30T21:31:25Z</time>
      </trkpt>
      <trkpt lat="49.09437" lon="3.73151">
        <ele>63.6</ele>
        <time>2020-06-30T21:31:26Z</time>
      </trkpt>
      <trkpt lat="49.0944" lon="3.73147">
        <ele>63.6</ele>
        <time>2020-06-30T21:31:27Z</time>
      </trkpt>
      <trkpt lat="49.09442" lon="3.73142">
        <ele>63.6</ele>
        <time>2020-06-30T21:31:28Z</time>
      </trkpt>
      <trkpt lat="49.09444" lon="3.73137">
        <ele>63.6</ele>
        <time>2020-06-30T21:31:29Z</time>
      </trkpt>
      <trkpt lat="49.09447" lon="3.73132">
        <ele>63.6</ele>
        <time>2020-06-30T21:31:30Z</time>
      </trkpt>
      <trkpt lat="49.0945" lon="3.73128">
        <ele>63.6</ele>
        <time>2020-06-30T21:31:31Z</time>
      </trkpt>
      <trkpt lat="49.09452" lon="3.73124">
        <ele>63.6</ele>
        <time>2020-06-30T21:31:32Z</time>
      </trkpt>
      <trkpt lat="49.09454" lon="3.7312">
        <ele>63.6</ele>
        <time>2020-06-30T21:31:33Z</time>
      </trkpt>
      <trkpt lat="49.09457" lon="3.73115">
        <ele>63.6</ele>
        <time>2020-06-30T21:31:34Z</time>
      </trkpt>
      <trkpt lat="49.0946" lon="3.73111">
        <ele>63.5</ele>
        <time>2020-06-30T21:31:35Z</time>
      </trkpt>
      <trkpt lat="49.09463" lon="3.73106">
        <ele>63.5</ele>
        <time>2020-06-30T21:31:36Z</time>
      </trkpt>
      <trkpt lat="49.09466" lon="3.73101">
        <ele>63.5</ele>
        <time>2020-06-30T21:31:37Z</time>
      </trkpt>
      <trkpt lat="49.09469" lon="3.73097">
        <ele>63.5</ele>
        <time>2020-06-30T21:31:38Z</time>
      </trkpt>
      <trkpt lat="49.09472" lon="3.73092">
        <ele>63.5</ele>
        <time>2020-06-30T21:31:39Z</time>
      </trkpt>
      <trkpt lat="49.09476" lon="3.73088">
        <ele>63.4</ele>
        <time>2020-06-30T21:31:40Z</time>
      </trkpt>
      <trkpt lat="49.0948" lon="3.73085">
        <ele>63.4</ele>
        <time>2020-06-30T21:31:41Z</time>
      </trkpt>
      <trkpt lat="49.09483" lon="3.73081">
        <ele>63.4</ele>
        <time>2020-06-30T21:31:42Z</time>
      </trkpt>
      <trkpt lat="49.09487" lon="3.73077">
        <ele>63.4</ele>
        <time>2020-06-30T21:31:43Z</time>
      </trkpt>
      <trkpt lat="49.0949" lon="3.73074">
        <ele>63.4</ele>
        <time>2020-06-30T21:31:44Z</time>
      </trkpt>
      <trkpt lat="49.09493" lon="3.7307">
        <ele>63.3</ele>
        <time>2020-06-30T21:31:45Z</time>
      </trkpt>
      <trkpt lat="49.09496" lon="3.73067">
        <ele>63.3</ele>
        <time>2020-06-30T21:31:46Z</time>
      </trkpt>
      <trkpt lat="49.09498" lon="3.73063">
        <ele>63.3</ele>
        <time>2020-06-30T21:31:47Z</time>
      </trkpt>
      <trkpt lat="49.09501" lon="3.7306">
        <ele>63.3</ele>
        <time>2020-06-30T21:31:48Z</time>
      </trkpt>
      <trkpt lat="49.09505" lon="3.73058">
        <ele>63.3</ele>
        <time>2020-06-30T21:31:49Z</time>
      </trkpt>
      <trkpt lat="49.09508" lon="3.73054">
        <ele>63.3</ele>
        <time>2020-06-30T21:31:50Z</time>
      </trkpt>
      <trkpt lat="49.09511" lon="3.7305">
        <ele>63.3</ele>
        <time>2020-06-30T21:31:51Z</time>
      </trkpt>
      <trkpt lat="49.09515" lon="3.73047">
        <ele>63.3</ele>
        <time>2020-06-30T21:31:52Z</time>
      </trkpt>
      <trkpt lat="49.09519" lon="3.73043">
        <ele>63.3</ele>
        <time>2020-06-30T21:31:53Z</time>
      </trkpt>
      <trkpt lat="49.09523" lon="3.73039">
        <ele>63.4</ele>
        <time>2020-06-30T21:31:54Z</time>
      </trkpt>
      <trkpt lat="49.09526" lon="3.73035">
        <ele>63.5</ele>
        <time>2020-06-30T21:31:55Z</time>
      </trkpt>
      <trkpt lat="49.09528" lon="3.73031">
        <ele>63.6</ele>
        <time>2020-06-30T21:31:56Z</time>
      </trkpt>
      <trkpt lat="49.09531" lon="3.73027">
        <ele>63.7</ele>
        <time>2020-06-30T21:31:57Z</time>
      </trkpt>
      <trkpt lat="49.09533" lon="3.73022">
        <ele>63.8</ele>
        <time>2020-06-30T21:31:58Z</time>
      </trkpt>
      <trkpt lat="49.09536" lon="3.73019">
        <ele>63.8</ele>
        <time>2020-06-30T21:31:59Z</time>
      </trkpt>
      <trkpt lat="49.09538" lon="3.73016">
        <ele>63.9</ele>
        <time>2020-06-30T21:32:00Z</time>
      </trkpt>
      <trkpt lat="49.09541" lon="3.73013">
        <ele>64</ele>
        <time>2020-06-30T21:32:01Z</time>
      </trkpt>
      <trkpt lat="49.09542" lon="3.7301">
        <ele>64</ele>
        <time>2020-06-30T21:32:02Z</time>
      </trkpt>
      <trkpt lat="49.09542" lon="3.73004">
        <ele>64.1</ele>
        <time>2020-06-30T21:32:03Z</time>
      </trkpt>
      <trkpt lat="49.09542" lon="3.73003">
        <ele>64.1</ele>
        <time>2020-06-30T21:32:04Z</time>
      </trkpt>
      <trkpt lat="49.0954" lon="3.72998">
        <ele>64.2</ele>
        <time>2020-06-30T21:32:05Z</time>
      </trkpt>
      <trkpt lat="49.09539" lon="3.72997">
        <ele>64.2</ele>
        <time>2020-06-30T21:32:06Z</time>
      </trkpt>
      <trkpt lat="49.09538" lon="3.72993">
        <ele>64.2</ele>
        <time>2020-06-30T21:32:07Z</time>
      </trkpt>
      <trkpt lat="49.09537" lon="3.72988">
        <ele>64.2</ele>
        <time>2020-06-30T21:32:08Z</time>
      </trkpt>
      <trkpt lat="49.09537" lon="3.72987">
        <ele>64.2</ele>
        <time>2020-06-30T21:32:09Z</time>
      </trkpt>
      <trkpt lat="49.09537" lon="3.72982">
        <ele>64.3</ele>
        <time>2020-06-30T21:32:10Z</time>
      </trkpt>
      <trkpt lat="49.09538" lon="3.72981">
        <ele>64.3</ele>
        <time>2020-06-30T21:32:11Z</time>
      </trkpt>
      <trkpt lat="49.0954" lon="3.72978">
        <ele>64.3</ele>
        <time>2020-06-30T21:32:12Z</time>
      </trkpt>
      <trkpt lat="49.0954" lon="3.72976">
        <ele>64.3</ele>
        <time>2020-06-30T21:32:13Z</time>
      </trkpt>
      <trkpt lat="49.09543" lon="3.72972">
        <ele>64.3</ele>
        <time>2020-06-30T21:32:14Z</time>
      </trkpt>
      <trkpt lat="49.09544" lon="3.7297">
        <ele>64.3</ele>
        <time>2020-06-30T21:32:15Z</time>
      </trkpt>
      <trkpt lat="49.09546" lon="3.72966">
        <ele>64.3</ele>
        <time>2020-06-30T21:32:16Z</time>
      </trkpt>
      <trkpt lat="49.09548" lon="3.72964">
        <ele>64.3</ele>
        <time>2020-06-30T21:32:17Z</time>
      </trkpt>
      <trkpt lat="49.09551" lon="3.72961">
        <ele>64.3</ele>
        <time>2020-06-30T21:32:18Z</time>
      </trkpt>
      <trkpt lat="49.09554" lon="3.72958">
        <ele>64.3</ele>
        <time>2020-06-30T21:32:19Z</time>
      </trkpt>
      <trkpt lat="49.09557" lon="3.72955">
        <ele>64.3</ele>
        <time>2020-06-30T21:32:20Z</time>
      </trkpt>
      <trkpt lat="49.0956" lon="3.72953">
        <ele>64.3</ele>
        <time>2020-06-30T21:32:21Z</time>
      </trkpt>
      <trkpt lat="49.09563" lon="3.72951">
        <ele>64.3</ele>
        <time>2020-06-30T21:32:22Z</time>
      </trkpt>
      <trkpt lat="49.09565" lon="3.72947">
        <ele>64.3</ele>
        <time>2020-06-30T21:32:23Z</time>
      </trkpt>
      <trkpt lat="49.09568" lon="3.72945">
        <ele>64.3</ele>
        <time>2020-06-30T21:32:24Z</time>
      </trkpt>
      <trkpt lat="49.09571" lon="3.72942">
        <ele>64.3</ele>
        <time>2020-06-30T21:32:25Z</time>
      </trkpt>
      <trkpt lat="49.09573" lon="3.72938">
        <ele>64.3</ele>
        <time>2020-06-30T21:32:26Z</time>
      </trkpt>
      <trkpt lat="49.09575" lon="3.72935">
        <ele>64.3</ele>
        <time>2020-06-30T21:32:27Z</time>
      </trkpt>
      <trkpt lat="49.09577" lon="3.72932">
        <ele>64.3</ele>
        <time>2020-06-30T21:32:28Z</time>
      </trkpt>
      <trkpt lat="49.0958" lon="3.7293">
        <ele>64.3</ele>
        <time>2020-06-30T21:32:29Z</time>
      </trkpt>
      <trkpt lat="49.09582" lon="3.72927">
        <ele>64.3</ele>
        <time>2020-06-30T21:32:30Z</time>
      </trkpt>
      <trkpt lat="49.09584" lon="3.72925">
        <ele>64.3</ele>
        <time>2020-06-30T21:32:31Z</time>
      </trkpt>
      <trkpt lat="49.09587" lon="3.72921">
        <ele>64.3</ele>
        <time>2020-06-30T21:32:32Z</time>
      </trkpt>
      <trkpt lat="49.09589" lon="3.72916">
        <ele>64.3</ele>
        <time>2020-06-30T21:32:33Z</time>
      </trkpt>
      <trkpt lat="49.09592" lon="3.72912">
        <ele>64.3</ele>
        <time>2020-06-30T21:32:34Z</time>
      </trkpt>
      <trkpt lat="49.09595" lon="3.72908">
        <ele>64.3</ele>
        <time>2020-06-30T21:32:35Z</time>
      </trkpt>
      <trkpt lat="49.09599" lon="3.72903">
        <ele>64.3</ele>
        <time>2020-06-30T21:32:36Z</time>
      </trkpt>
      <trkpt lat="49.09602" lon="3.72898">
        <ele>64.3</ele>
        <time>2020-06-30T21:32:37Z</time>
      </trkpt>
      <trkpt lat="49.09605" lon="3.72895">
        <ele>64.3</ele>
        <time>2020-06-30T21:32:38Z</time>
      </trkpt>
      <trkpt lat="49.09607" lon="3.72891">
        <ele>64.3</ele>
        <time>2020-06-30T21:32:39Z</time>
      </trkpt>
      <trkpt lat="49.0961" lon="3.72888">
        <ele>64.3</ele>
        <time>2020-06-30T21:32:40Z</time>
      </trkpt>
      <trkpt lat="49.09613" lon="3.72885">
        <ele>64.3</ele>
        <time>2020-06-30T21:32:41Z</time>
      </trkpt>
      <trkpt lat="49.09617" lon="3.7288">
        <ele>64.3</ele>
        <time>2020-06-30T21:32:42Z</time>
      </trkpt>
      <trkpt lat="49.09621" lon="3.72876">
        <ele>64.4</ele>
        <time>2020-06-30T21:32:43Z</time>
      </trkpt>
      <trkpt lat="49.09625" lon="3.72873">
        <ele>64.4</ele>
        <time>2020-06-30T21:32:44Z</time>
      </trkpt>
      <trkpt lat="49.09628" lon="3.72869">
        <ele>64.4</ele>
        <time>2020-06-30T21:32:45Z</time>
      </trkpt>
      <trkpt lat="49.09631" lon="3.72866">
        <ele>64.5</ele>
        <time>2020-06-30T21:32:46Z</time>
      </trkpt>
      <trkpt lat="49.09634" lon="3.72862">
        <ele>64.5</ele>
        <time>2020-06-30T21:32:47Z</time>
      </trkpt>
      <trkpt lat="49.09636" lon="3.72858">
        <ele>64.6</ele>
        <time>2020-06-30T21:32:48Z</time>
      </trkpt>
      <trkpt lat="49.09639" lon="3.72854">
        <ele>64.6</ele>
        <time>2020-06-30T21:32:49Z</time>
      </trkpt>
      <trkpt lat="49.09642" lon="3.72851">
        <ele>64.7</ele>
        <time>2020-06-30T21:32:50Z</time>
      </trkpt>
      <trkpt lat="49.09645" lon="3.72847">
        <ele>64.8</ele>
        <time>2020-06-30T21:32:51Z</time>
      </trkpt>
      <trkpt lat="49.09647" lon="3.72844">
        <ele>64.9</ele>
        <time>2020-06-30T21:32:52Z</time>
      </trkpt>
      <trkpt lat="49.09649" lon="3.7284">
        <ele>64.9</ele>
        <time>2020-06-30T21:32:53Z</time>
      </trkpt>
      <trkpt lat="49.09651" lon="3.72837">
        <ele>65</ele>
        <time>2020-06-30T21:32:54Z</time>
      </trkpt>
      <trkpt lat="49.09654" lon="3.72835">
        <ele>65</ele>
        <time>2020-06-30T21:32:55Z</time>
      </trkpt>
      <trkpt lat="49.09657" lon="3.72832">
        <ele>65.1</ele>
        <time>2020-06-30T21:32:56Z</time>
      </trkpt>
      <trkpt lat="49.09658" lon="3.72831">
        <ele>65.1</ele>
        <time>2020-06-30T21:32:57Z</time>
      </trkpt>
      <trkpt lat="49.09659" lon="3.7283">
        <ele>65.2</ele>
        <time>2020-06-30T21:32:58Z</time>
      </trkpt>
      <trkpt lat="49.0966" lon="3.7283">
        <ele>65.2</ele>
        <time>2020-06-30T21:32:59Z</time>
      </trkpt>
      <trkpt lat="49.0966" lon="3.72831">
        <ele>65.2</ele>
        <time>2020-06-30T21:33:00Z</time>
      </trkpt>
      <trkpt lat="49.09658" lon="3.72829">
        <ele>65.2</ele>
        <time>2020-06-30T21:33:01Z</time>
      </trkpt>
      <trkpt lat="49.09659" lon="3.72826">
        <ele>65.2</ele>
        <time>2020-06-30T21:33:02Z</time>
      </trkpt>
      <trkpt lat="49.09658" lon="3.72824">
        <ele>65.2</ele>
        <time>2020-06-30T21:33:03Z</time>
      </trkpt>
      <trkpt lat="49.09659" lon="3.72824">
        <ele>65.2</ele>
        <time>2020-06-30T21:33:04Z</time>
      </trkpt>
      <trkpt lat="49.09658" lon="3.72823">
        <ele>65.2</ele>
        <time>2020-06-30T21:33:05Z</time>
      </trkpt>
      <trkpt lat="49.09659" lon="3.72822">
        <ele>65.2</ele>
        <time>2020-06-30T21:33:06Z</time>
      </trkpt>
      <trkpt lat="49.09659" lon="3.72822">
        <ele>65.2</ele>
        <time>2020-06-30T21:33:07Z</time>
      </trkpt>
      <trkpt lat="49.09659" lon="3.72822">
        <ele>65.2</ele>
        <time>2020-06-30T21:33:08Z</time>
      </trkpt>
      <trkpt lat="49.0966" lon="3.72822">
        <ele>65.2</ele>
        <time>2020-06-30T21:33:09Z</time>
      </trkpt>
      <trkpt lat="49.09661" lon="3.72823">
        <ele>65.2</ele>
        <time>2020-06-30T21:33:10Z</time>
      </trkpt>
      <trkpt lat="49.09661" lon="3.72823">
        <ele>65.2</ele>
        <time>2020-06-30T21:33:11Z</time>
      </trkpt>
      <trkpt lat="49.09662" lon="3.72824">
        <ele>65.2</ele>
        <time>2020-06-30T21:33:12Z</time>
      </trkpt>
      <trkpt lat="49.09662" lon="3.72823">
        <ele>65.2</ele>
        <time>2020-06-30T21:33:13Z</time>
      </trkpt>
      <trkpt lat="49.09662" lon="3.72818">
        <ele>65.2</ele>
        <time>2020-06-30T21:33:18Z</time>
      </trkpt>
      <trkpt lat="49.09662" lon="3.72817">
        <ele>65.2</ele>
        <time>2020-06-30T21:33:19Z</time>
      </trkpt>
      <trkpt lat="49.09662" lon="3.72816">
        <ele>65.2</ele>
        <time>2020-06-30T21:33:20Z</time>
      </trkpt>
      <trkpt lat="49.09662" lon="3.72814">
        <ele>65.2</ele>
        <time>2020-06-30T21:33:21Z</time>
      </trkpt>
      <trkpt lat="49.09662" lon="3.72813">
        <ele>65.2</ele>
        <time>2020-06-30T21:33:22Z</time>
      </trkpt>
      <trkpt lat="49.09662" lon="3.72811">
        <ele>65.2</ele>
        <time>2020-06-30T21:33:23Z</time>
      </trkpt>
      <trkpt lat="49.09661" lon="3.7281">
        <ele>65.2</ele>
        <time>2020-06-30T21:33:24Z</time>
      </trkpt>
      <trkpt lat="49.09662" lon="3.72809">
        <ele>65.2</ele>
        <time>2020-06-30T21:33:25Z</time>
      </trkpt>
      <trkpt lat="49.09663" lon="3.72809">
        <ele>65.2</ele>
        <time>2020-06-30T21:33:26Z</time>
      </trkpt>
      <trkpt lat="49.09664" lon="3.72808">
        <ele>65.2</ele>
        <time>2020-06-30T21:33:27Z</time>
      </trkpt>
      <trkpt lat="49.09665" lon="3.72807">
        <ele>65.2</ele>
        <time>2020-06-30T21:33:28Z</time>
      </trkpt>
      <trkpt lat="49.09665" lon="3.72806">
        <ele>65.2</ele>
        <time>2020-06-30T21:33:29Z</time>
      </trkpt>
      <trkpt lat="49.09665" lon="3.72804">
        <ele>65.3</ele>
        <time>2020-06-30T21:33:30Z</time>
      </trkpt>
      <trkpt lat="49.09666" lon="3.72803">
        <ele>65.3</ele>
        <time>2020-06-30T21:33:31Z</time>
      </trkpt>
      <trkpt lat="49.09665" lon="3.72801">
        <ele>65.3</ele>
        <time>2020-06-30T21:33:32Z</time>
      </trkpt>
      <trkpt lat="49.09666" lon="3.728">
        <ele>65.3</ele>
        <time>2020-06-30T21:33:33Z</time>
      </trkpt>
      <trkpt lat="49.09667" lon="3.728">
        <ele>65.3</ele>
        <time>2020-06-30T21:33:34Z</time>
      </trkpt>
      <trkpt lat="49.09668" lon="3.72799">
        <ele>65.3</ele>
        <time>2020-06-30T21:33:35Z</time>
      </trkpt>
      <trkpt lat="49.09669" lon="3.72797">
        <ele>65.3</ele>
        <time>2020-06-30T21:33:36Z</time>
      </trkpt>
      <trkpt lat="49.0967" lon="3.72796">
        <ele>65.3</ele>
        <time>2020-06-30T21:33:37Z</time>
      </trkpt>
      <trkpt lat="49.09672" lon="3.72796">
        <ele>65.2</ele>
        <time>2020-06-30T21:33:38Z</time>
      </trkpt>
      <trkpt lat="49.09675" lon="3.72794">
        <ele>65.2</ele>
        <time>2020-06-30T21:33:39Z</time>
      </trkpt>
      <trkpt lat="49.09676" lon="3.72793">
        <ele>65.2</ele>
        <time>2020-06-30T21:33:40Z</time>
      </trkpt>
      <trkpt lat="49.09679" lon="3.72792">
        <ele>65.1</ele>
        <time>2020-06-30T21:33:41Z</time>
      </trkpt>
      <trkpt lat="49.09682" lon="3.72789">
        <ele>65</ele>
        <time>2020-06-30T21:33:42Z</time>
      </trkpt>
      <trkpt lat="49.09685" lon="3.72785">
        <ele>64.9</ele>
        <time>2020-06-30T21:33:43Z</time>
      </trkpt>
      <trkpt lat="49.09689" lon="3.72781">
        <ele>64.8</ele>
        <time>2020-06-30T21:33:44Z</time>
      </trkpt>
      <trkpt lat="49.09692" lon="3.72778">
        <ele>64.7</ele>
        <time>2020-06-30T21:33:45Z</time>
      </trkpt>
      <trkpt lat="49.09694" lon="3.72774">
        <ele>64.6</ele>
        <time>2020-06-30T21:33:46Z</time>
      </trkpt>
      <trkpt lat="49.09697" lon="3.72771">
        <ele>64.6</ele>
        <time>2020-06-30T21:33:47Z</time>
      </trkpt>
      <trkpt lat="49.09699" lon="3.72768">
        <ele>64.5</ele>
        <time>2020-06-30T21:33:48Z</time>
      </trkpt>
      <trkpt lat="49.097" lon="3.72764">
        <ele>64.5</ele>
        <time>2020-06-30T21:33:49Z</time>
      </trkpt>
      <trkpt lat="49.09703" lon="3.72761">
        <ele>64.5</ele>
        <time>2020-06-30T21:33:50Z</time>
      </trkpt>
      <trkpt lat="49.09704" lon="3.7276">
        <ele>64.5</ele>
        <time>2020-06-30T21:33:51Z</time>
      </trkpt>
      <trkpt lat="49.09707" lon="3.72757">
        <ele>64.5</ele>
        <time>2020-06-30T21:33:52Z</time>
      </trkpt>
      <trkpt lat="49.09708" lon="3.72756">
        <ele>64.5</ele>
        <time>2020-06-30T21:33:53Z</time>
      </trkpt>
      <trkpt lat="49.0971" lon="3.72752">
        <ele>64.5</ele>
        <time>2020-06-30T21:33:54Z</time>
      </trkpt>
      <trkpt lat="49.0971" lon="3.7275">
        <ele>64.5</ele>
        <time>2020-06-30T21:33:55Z</time>
      </trkpt>
      <trkpt lat="49.09713" lon="3.72747">
        <ele>64.5</ele>
        <time>2020-06-30T21:33:56Z</time>
      </trkpt>
      <trkpt lat="49.09713" lon="3.72746">
        <ele>64.6</ele>
        <time>2020-06-30T21:33:57Z</time>
      </trkpt>
      <trkpt lat="49.09716" lon="3.72744">
        <ele>64.6</ele>
        <time>2020-06-30T21:33:58Z</time>
      </trkpt>
      <trkpt lat="49.09717" lon="3.72744">
        <ele>64.5</ele>
        <time>2020-06-30T21:33:59Z</time>
      </trkpt>
      <trkpt lat="49.09718" lon="3.72742">
        <ele>64.5</ele>
        <time>2020-06-30T21:34:00Z</time>
      </trkpt>
      <trkpt lat="49.0972" lon="3.72742">
        <ele>64.5</ele>
        <time>2020-06-30T21:34:01Z</time>
      </trkpt>
      <trkpt lat="49.09722" lon="3.7274">
        <ele>64.5</ele>
        <time>2020-06-30T21:34:02Z</time>
      </trkpt>
      <trkpt lat="49.09723" lon="3.72739">
        <ele>64.5</ele>
        <time>2020-06-30T21:34:03Z</time>
      </trkpt>
      <trkpt lat="49.09724" lon="3.72737">
        <ele>64.5</ele>
        <time>2020-06-30T21:34:04Z</time>
      </trkpt>
      <trkpt lat="49.09726" lon="3.72737">
        <ele>64.5</ele>
        <time>2020-06-30T21:34:05Z</time>
      </trkpt>
      <trkpt lat="49.09727" lon="3.72736">
        <ele>64.5</ele>
        <time>2020-06-30T21:34:06Z</time>
      </trkpt>
      <trkpt lat="49.09728" lon="3.72736">
        <ele>64.5</ele>
        <time>2020-06-30T21:34:07Z</time>
      </trkpt>
      <trkpt lat="49.09729" lon="3.72736">
        <ele>64.5</ele>
        <time>2020-06-30T21:34:08Z</time>
      </trkpt>
      <trkpt lat="49.0973" lon="3.72736">
        <ele>64.4</ele>
        <time>2020-06-30T21:34:09Z</time>
      </trkpt>
      <trkpt lat="49.0973" lon="3.72736">
        <ele>64.4</ele>
        <time>2020-06-30T21:34:10Z</time>
      </trkpt>
      <trkpt lat="49.0973" lon="3.72736">
        <ele>64.4</ele>
        <time>2020-06-30T21:34:11Z</time>
      </trkpt>
      <trkpt lat="49.0973" lon="3.72738">
        <ele>64.4</ele>
        <time>2020-06-30T21:34:12Z</time>
      </trkpt>
      <trkpt lat="49.09731" lon="3.72738">
        <ele>64.4</ele>
        <time>2020-06-30T21:34:13Z</time>
      </trkpt>
      <trkpt lat="49.09731" lon="3.72738">
        <ele>64.4</ele>
        <time>2020-06-30T21:34:14Z</time>
      </trkpt>
      <trkpt lat="49.09731" lon="3.72739">
        <ele>64.4</ele>
        <time>2020-06-30T21:34:15Z</time>
      </trkpt>
      <trkpt lat="49.09731" lon="3.72741">
        <ele>64.4</ele>
        <time>2020-06-30T21:34:16Z</time>
      </trkpt>
      <trkpt lat="49.09732" lon="3.7274">
        <ele>64.4</ele>
        <time>2020-06-30T21:34:17Z</time>
      </trkpt>
      <trkpt lat="49.09732" lon="3.7274">
        <ele>64.4</ele>
        <time>2020-06-30T21:34:18Z</time>
      </trkpt>
      <trkpt lat="49.09732" lon="3.7274">
        <ele>64.4</ele>
        <time>2020-06-30T21:34:19Z</time>
      </trkpt>
      <trkpt lat="49.09732" lon="3.72739">
        <ele>64.4</ele>
        <time>2020-06-30T21:34:20Z</time>
      </trkpt>
      <trkpt lat="49.09733" lon="3.72739">
        <ele>64.4</ele>
        <time>2020-06-30T21:34:21Z</time>
      </trkpt>
      <trkpt lat="49.09733" lon="3.72739">
        <ele>64.4</ele>
        <time>2020-06-30T21:34:22Z</time>
      </trkpt>
      <trkpt lat="49.09733" lon="3.72739">
        <ele>64.4</ele>
        <time>2020-06-30T21:34:23Z</time>
      </trkpt>
      <trkpt lat="49.09733" lon="3.72739">
        <ele>64.4</ele>
        <time>2020-06-30T21:34:24Z</time>
      </trkpt>
      <trkpt lat="49.09733" lon="3.72739">
        <ele>64.4</ele>
        <time>2020-06-30T21:34:25Z</time>
      </trkpt>
      <trkpt lat="49.09733" lon="3.72739">
        <ele>64.4</ele>
        <time>2020-06-30T21:34:26Z</time>
      </trkpt>
      <trkpt lat="49.09733" lon="3.72739">
        <ele>64.4</ele>
        <time>2020-06-30T21:34:27Z</time>
      </trkpt>
      <trkpt lat="49.09739" lon="3.72733">
        <ele>64.4</ele>
        <time>2020-06-30T21:43:55Z</time>
      </trkpt>
      <trkpt lat="49.09738" lon="3.72734">
        <ele>64.4</ele>
        <time>2020-06-30T21:43:56Z</time>
      </trkpt>
      <trkpt lat="49.09737" lon="3.72736">
        <ele>64.4</ele>
        <time>2020-06-30T21:43:57Z</time>
      </trkpt>
      <trkpt lat="49.09737" lon="3.72738">
        <ele>64.4</ele>
        <time>2020-06-30T21:43:58Z</time>
      </trkpt>
      <trkpt lat="49.09737" lon="3.72738">
        <ele>64.4</ele>
        <time>2020-06-30T21:43:59Z</time>
      </trkpt>
      <trkpt lat="49.09737" lon="3.72739">
        <ele>64.4</ele>
        <time>2020-06-30T21:44:00Z</time>
      </trkpt>
      <trkpt lat="49.09737" lon="3.72741">
        <ele>64.4</ele>
        <time>2020-06-30T21:44:01Z</time>
      </trkpt>
      <trkpt lat="49.09737" lon="3.72742">
        <ele>64.4</ele>
        <time>2020-06-30T21:44:02Z</time>
      </trkpt>
      <trkpt lat="49.09738" lon="3.72743">
        <ele>64.4</ele>
        <time>2020-06-30T21:44:03Z</time>
      </trkpt>
      <trkpt lat="49.09738" lon="3.72746">
        <ele>64.4</ele>
        <time>2020-06-30T21:44:04Z</time>
      </trkpt>
      <trkpt lat="49.09737" lon="3.72746">
        <ele>64.4</ele>
        <time>2020-06-30T21:44:05Z</time>
      </trkpt>
      <trkpt lat="49.09737" lon="3.72747">
        <ele>64.4</ele>
        <time>2020-06-30T21:44:06Z</time>
      </trkpt>
      <trkpt lat="49.09737" lon="3.72749">
        <ele>64.4</ele>
        <time>2020-06-30T21:44:07Z</time>
      </trkpt>
      <trkpt lat="49.09738" lon="3.7275">
        <ele>64.4</ele>
        <time>2020-06-30T21:44:08Z</time>
      </trkpt>
      <trkpt lat="49.09738" lon="3.7275">
        <ele>64.4</ele>
        <time>2020-06-30T21:44:09Z</time>
      </trkpt>
      <trkpt lat="49.09738" lon="3.72751">
        <ele>64.4</ele>
        <time>2020-06-30T21:44:10Z</time>
      </trkpt>
      <trkpt lat="49.09738" lon="3.7275">
        <ele>64.4</ele>
        <time>2020-06-30T21:44:11Z</time>
      </trkpt>
      <trkpt lat="49.09738" lon="3.72749">
        <ele>64.4</ele>
        <time>2020-06-30T21:44:12Z</time>
      </trkpt>
      <trkpt lat="49.09738" lon="3.7275">
        <ele>64.4</ele>
        <time>2020-06-30T21:44:13Z</time>
      </trkpt>
      <trkpt lat="49.09738" lon="3.7275">
        <ele>64.4</ele>
        <time>2020-06-30T21:44:14Z</time>
      </trkpt>
      <trkpt lat="49.09737" lon="3.7275">
        <ele>64.4</ele>
        <time>2020-06-30T21:44:15Z</time>
      </trkpt>
      <trkpt lat="49.09737" lon="3.72749">
        <ele>64.4</ele>
        <time>2020-06-30T21:44:16Z</time>
      </trkpt>
      <trkpt lat="49.09737" lon="3.72749">
        <ele>64.4</ele>
        <time>2020-06-30T21:44:17Z</time>
      </trkpt>
      <trkpt lat="49.09737" lon="3.72749">
        <ele>64.4</ele>
        <time>2020-06-30T21:44:18Z</time>
      </trkpt>
      <trkpt lat="49.09737" lon="3.72749">
        <ele>64.4</ele>
        <time>2020-06-30T21:44:19Z</time>
      </trkpt>
    </trkseg>
  </trk>
</gpx>